<?xml version="1.0" encoding="UTF-8"?>
<gpx version="1.1" creator="https://www.youtrack.es" xsi:schemaLocation="http://www.topografix.com/GPX/1/1 http://www.topografix.com/GPX/1/1/gpx.xsd http://www.garmin.com/xmlschemas/GpxExtensions/v3 http://www.garmin.com/xmlschemas/GpxExtensionsv3.xsd http://www.garmin.com/xmlschemas/TrackPointExtension/v1 http://www.garmin.com/xmlschemas/TrackPointExtensionv1.xsd" xmlns:gpxtpx="http://www.garmin.com/xmlschemas/TrackPointExtension/v1" xmlns:gpxx="http://www.garmin.com/xmlschemas/GpxExtensions/v3" xmlns:xsi="http://www.w3.org/2001/XMLSchema-instance">
  <metadata>
    <link href="https://www.youtrack.es">
      <text>YouTrack.es</text>
    </link>
    <time>2026-05-08T16:13:18Z</time>
  </metadata>
  <trk>
    <src>https://www.youtrack.es</src>
    <link href="https://www.youtrack.es/ruta/19557-bikepacking-eivissa-1">
      <text>YouTrack.es</text>
    </link>
    <trkseg>
      <trkpt lat="38.8923830" lon="1.4086020">
        <ele>5.8</ele>
        <time>2020-02-21T10:13:58Z</time>
      </trkpt>
      <trkpt lat="38.8923020" lon="1.4085540">
        <ele>5.8</ele>
        <time>2020-02-21T10:13:59Z</time>
      </trkpt>
      <trkpt lat="38.8922760" lon="1.4085350">
        <ele>5.7</ele>
        <time>2020-02-21T10:14:00Z</time>
      </trkpt>
      <trkpt lat="38.8922210" lon="1.4085100">
        <ele>5.6</ele>
        <time>2020-02-21T10:14:01Z</time>
      </trkpt>
      <trkpt lat="38.8921700" lon="1.4084750">
        <ele>5.6</ele>
        <time>2020-02-21T10:14:02Z</time>
      </trkpt>
      <trkpt lat="38.8921250" lon="1.4084320">
        <ele>5.5</ele>
        <time>2020-02-21T10:14:03Z</time>
      </trkpt>
      <trkpt lat="38.8920760" lon="1.4083870">
        <ele>5.4</ele>
        <time>2020-02-21T10:14:04Z</time>
      </trkpt>
      <trkpt lat="38.8920400" lon="1.4083460">
        <ele>5.4</ele>
        <time>2020-02-21T10:14:05Z</time>
      </trkpt>
      <trkpt lat="38.8920170" lon="1.4083210">
        <ele>5.3</ele>
        <time>2020-02-21T10:14:07Z</time>
      </trkpt>
      <trkpt lat="38.8919770" lon="1.4082890">
        <ele>5.3</ele>
        <time>2020-02-21T10:14:08Z</time>
      </trkpt>
      <trkpt lat="38.8919320" lon="1.4082610">
        <ele>5.1</ele>
        <time>2020-02-21T10:14:09Z</time>
      </trkpt>
      <trkpt lat="38.8918920" lon="1.4082120">
        <ele>4.9</ele>
        <time>2020-02-21T10:14:10Z</time>
      </trkpt>
      <trkpt lat="38.8918420" lon="1.4081800">
        <ele>4.8</ele>
        <time>2020-02-21T10:14:11Z</time>
      </trkpt>
      <trkpt lat="38.8917980" lon="1.4081500">
        <ele>4.7</ele>
        <time>2020-02-21T10:14:12Z</time>
      </trkpt>
      <trkpt lat="38.8917620" lon="1.4081240">
        <ele>4.5</ele>
        <time>2020-02-21T10:14:13Z</time>
      </trkpt>
      <trkpt lat="38.8917230" lon="1.4080930">
        <ele>4.4</ele>
        <time>2020-02-21T10:14:14Z</time>
      </trkpt>
      <trkpt lat="38.8916860" lon="1.4080590">
        <ele>4.3</ele>
        <time>2020-02-21T10:14:15Z</time>
      </trkpt>
      <trkpt lat="38.8916530" lon="1.4080270">
        <ele>4.2</ele>
        <time>2020-02-21T10:14:16Z</time>
      </trkpt>
      <trkpt lat="38.8916170" lon="1.4079940">
        <ele>4.1</ele>
        <time>2020-02-21T10:14:17Z</time>
      </trkpt>
      <trkpt lat="38.8915730" lon="1.4079480">
        <ele>3.9</ele>
        <time>2020-02-21T10:14:18Z</time>
      </trkpt>
      <trkpt lat="38.8915310" lon="1.4079030">
        <ele>3.8</ele>
        <time>2020-02-21T10:14:19Z</time>
      </trkpt>
      <trkpt lat="38.8914920" lon="1.4078600">
        <ele>3.7</ele>
        <time>2020-02-21T10:14:20Z</time>
      </trkpt>
      <trkpt lat="38.8914540" lon="1.4078190">
        <ele>3.7</ele>
        <time>2020-02-21T10:14:21Z</time>
      </trkpt>
      <trkpt lat="38.8914090" lon="1.4077780">
        <ele>3.6</ele>
        <time>2020-02-21T10:14:22Z</time>
      </trkpt>
      <trkpt lat="38.8913690" lon="1.4077390">
        <ele>3.5</ele>
        <time>2020-02-21T10:14:23Z</time>
      </trkpt>
      <trkpt lat="38.8913320" lon="1.4077000">
        <ele>3.5</ele>
        <time>2020-02-21T10:14:24Z</time>
      </trkpt>
      <trkpt lat="38.8912990" lon="1.4076470">
        <ele>3.4</ele>
        <time>2020-02-21T10:14:25Z</time>
      </trkpt>
      <trkpt lat="38.8912600" lon="1.4076090">
        <ele>3.4</ele>
        <time>2020-02-21T10:14:26Z</time>
      </trkpt>
      <trkpt lat="38.8912300" lon="1.4075670">
        <ele>3.4</ele>
        <time>2020-02-21T10:14:27Z</time>
      </trkpt>
      <trkpt lat="38.8911940" lon="1.4075250">
        <ele>3.5</ele>
        <time>2020-02-21T10:14:28Z</time>
      </trkpt>
      <trkpt lat="38.8911540" lon="1.4074880">
        <ele>3.5</ele>
        <time>2020-02-21T10:14:29Z</time>
      </trkpt>
      <trkpt lat="38.8911170" lon="1.4074440">
        <ele>3.6</ele>
        <time>2020-02-21T10:14:30Z</time>
      </trkpt>
      <trkpt lat="38.8910760" lon="1.4074000">
        <ele>3.8</ele>
        <time>2020-02-21T10:14:31Z</time>
      </trkpt>
      <trkpt lat="38.8910410" lon="1.4073540">
        <ele>3.8</ele>
        <time>2020-02-21T10:14:32Z</time>
      </trkpt>
      <trkpt lat="38.8910090" lon="1.4073100">
        <ele>3.7</ele>
        <time>2020-02-21T10:14:33Z</time>
      </trkpt>
      <trkpt lat="38.8909810" lon="1.4072660">
        <ele>3.7</ele>
        <time>2020-02-21T10:14:34Z</time>
      </trkpt>
      <trkpt lat="38.8909010" lon="1.4071890">
        <ele>3.6</ele>
        <time>2020-02-21T10:14:35Z</time>
      </trkpt>
      <trkpt lat="38.8908650" lon="1.4071500">
        <ele>3.5</ele>
        <time>2020-02-21T10:14:36Z</time>
      </trkpt>
      <trkpt lat="38.8908220" lon="1.4071070">
        <ele>3.5</ele>
        <time>2020-02-21T10:14:37Z</time>
      </trkpt>
      <trkpt lat="38.8907860" lon="1.4070720">
        <ele>3.5</ele>
        <time>2020-02-21T10:14:38Z</time>
      </trkpt>
      <trkpt lat="38.8907410" lon="1.4070280">
        <ele>3.4</ele>
        <time>2020-02-21T10:14:39Z</time>
      </trkpt>
      <trkpt lat="38.8907030" lon="1.4069850">
        <ele>3.3</ele>
        <time>2020-02-21T10:14:40Z</time>
      </trkpt>
      <trkpt lat="38.8906630" lon="1.4069460">
        <ele>3.2</ele>
        <time>2020-02-21T10:14:41Z</time>
      </trkpt>
      <trkpt lat="38.8906270" lon="1.4069050">
        <ele>3.0</ele>
        <time>2020-02-21T10:14:42Z</time>
      </trkpt>
      <trkpt lat="38.8905880" lon="1.4068640">
        <ele>2.8</ele>
        <time>2020-02-21T10:14:43Z</time>
      </trkpt>
      <trkpt lat="38.8905460" lon="1.4068140">
        <ele>2.6</ele>
        <time>2020-02-21T10:14:44Z</time>
      </trkpt>
      <trkpt lat="38.8905180" lon="1.4067780">
        <ele>2.5</ele>
        <time>2020-02-21T10:14:45Z</time>
      </trkpt>
      <trkpt lat="38.8904920" lon="1.4067360">
        <ele>2.3</ele>
        <time>2020-02-21T10:14:46Z</time>
      </trkpt>
      <trkpt lat="38.8904430" lon="1.4066650">
        <ele>2.2</ele>
        <time>2020-02-21T10:14:47Z</time>
      </trkpt>
      <trkpt lat="38.8903820" lon="1.4066480">
        <ele>2.1</ele>
        <time>2020-02-21T10:14:48Z</time>
      </trkpt>
      <trkpt lat="38.8903380" lon="1.4066590">
        <ele>1.9</ele>
        <time>2020-02-21T10:14:49Z</time>
      </trkpt>
      <trkpt lat="38.8903220" lon="1.4067030">
        <ele>1.9</ele>
        <time>2020-02-21T10:14:50Z</time>
      </trkpt>
      <trkpt lat="38.8903100" lon="1.4067670">
        <ele>2.1</ele>
        <time>2020-02-21T10:14:51Z</time>
      </trkpt>
      <trkpt lat="38.8903020" lon="1.4068310">
        <ele>2.1</ele>
        <time>2020-02-21T10:14:52Z</time>
      </trkpt>
      <trkpt lat="38.8902880" lon="1.4068980">
        <ele>2.0</ele>
        <time>2020-02-21T10:14:53Z</time>
      </trkpt>
      <trkpt lat="38.8902640" lon="1.4069660">
        <ele>2.0</ele>
        <time>2020-02-21T10:14:54Z</time>
      </trkpt>
      <trkpt lat="38.8902370" lon="1.4070230">
        <ele>2.0</ele>
        <time>2020-02-21T10:14:55Z</time>
      </trkpt>
      <trkpt lat="38.8902100" lon="1.4070820">
        <ele>2.0</ele>
        <time>2020-02-21T10:14:56Z</time>
      </trkpt>
      <trkpt lat="38.8901840" lon="1.4071390">
        <ele>1.9</ele>
        <time>2020-02-21T10:14:57Z</time>
      </trkpt>
      <trkpt lat="38.8901350" lon="1.4071940">
        <ele>1.9</ele>
        <time>2020-02-21T10:14:58Z</time>
      </trkpt>
      <trkpt lat="38.8901010" lon="1.4072540">
        <ele>1.8</ele>
        <time>2020-02-21T10:14:59Z</time>
      </trkpt>
      <trkpt lat="38.8900560" lon="1.4073060">
        <ele>1.8</ele>
        <time>2020-02-21T10:15:00Z</time>
      </trkpt>
      <trkpt lat="38.8900180" lon="1.4073550">
        <ele>1.7</ele>
        <time>2020-02-21T10:15:01Z</time>
      </trkpt>
      <trkpt lat="38.8899820" lon="1.4074080">
        <ele>1.6</ele>
        <time>2020-02-21T10:15:02Z</time>
      </trkpt>
      <trkpt lat="38.8899500" lon="1.4074630">
        <ele>1.6</ele>
        <time>2020-02-21T10:15:03Z</time>
      </trkpt>
      <trkpt lat="38.8899140" lon="1.4075080">
        <ele>1.5</ele>
        <time>2020-02-21T10:15:04Z</time>
      </trkpt>
      <trkpt lat="38.8898810" lon="1.4075510">
        <ele>1.5</ele>
        <time>2020-02-21T10:15:05Z</time>
      </trkpt>
      <trkpt lat="38.8898510" lon="1.4075960">
        <ele>1.4</ele>
        <time>2020-02-21T10:15:06Z</time>
      </trkpt>
      <trkpt lat="38.8898200" lon="1.4076480">
        <ele>1.4</ele>
        <time>2020-02-21T10:15:07Z</time>
      </trkpt>
      <trkpt lat="38.8897840" lon="1.4077040">
        <ele>1.3</ele>
        <time>2020-02-21T10:15:08Z</time>
      </trkpt>
      <trkpt lat="38.8897490" lon="1.4077640">
        <ele>1.3</ele>
        <time>2020-02-21T10:15:09Z</time>
      </trkpt>
      <trkpt lat="38.8897090" lon="1.4077990">
        <ele>1.3</ele>
        <time>2020-02-21T10:15:10Z</time>
      </trkpt>
      <trkpt lat="38.8896650" lon="1.4078050">
        <ele>1.3</ele>
        <time>2020-02-21T10:15:11Z</time>
      </trkpt>
      <trkpt lat="38.8896250" lon="1.4077890">
        <ele>1.2</ele>
        <time>2020-02-21T10:15:12Z</time>
      </trkpt>
      <trkpt lat="38.8895770" lon="1.4077700">
        <ele>1.2</ele>
        <time>2020-02-21T10:15:13Z</time>
      </trkpt>
      <trkpt lat="38.8895300" lon="1.4077350">
        <ele>1.2</ele>
        <time>2020-02-21T10:15:14Z</time>
      </trkpt>
      <trkpt lat="38.8894780" lon="1.4077070">
        <ele>1.2</ele>
        <time>2020-02-21T10:15:15Z</time>
      </trkpt>
      <trkpt lat="38.8894300" lon="1.4076840">
        <ele>1.2</ele>
        <time>2020-02-21T10:15:16Z</time>
      </trkpt>
      <trkpt lat="38.8893870" lon="1.4076590">
        <ele>1.2</ele>
        <time>2020-02-21T10:15:17Z</time>
      </trkpt>
      <trkpt lat="38.8893380" lon="1.4076280">
        <ele>1.2</ele>
        <time>2020-02-21T10:15:18Z</time>
      </trkpt>
      <trkpt lat="38.8892870" lon="1.4076020">
        <ele>1.2</ele>
        <time>2020-02-21T10:15:19Z</time>
      </trkpt>
      <trkpt lat="38.8892330" lon="1.4075740">
        <ele>1.1</ele>
        <time>2020-02-21T10:15:20Z</time>
      </trkpt>
      <trkpt lat="38.8891870" lon="1.4075440">
        <ele>1.1</ele>
        <time>2020-02-21T10:15:21Z</time>
      </trkpt>
      <trkpt lat="38.8891380" lon="1.4075080">
        <ele>1.1</ele>
        <time>2020-02-21T10:15:22Z</time>
      </trkpt>
      <trkpt lat="38.8890920" lon="1.4074740">
        <ele>1.1</ele>
        <time>2020-02-21T10:15:23Z</time>
      </trkpt>
      <trkpt lat="38.8890430" lon="1.4074430">
        <ele>1.2</ele>
        <time>2020-02-21T10:15:24Z</time>
      </trkpt>
      <trkpt lat="38.8889930" lon="1.4074110">
        <ele>1.2</ele>
        <time>2020-02-21T10:15:25Z</time>
      </trkpt>
      <trkpt lat="38.8889410" lon="1.4073710">
        <ele>1.2</ele>
        <time>2020-02-21T10:15:26Z</time>
      </trkpt>
      <trkpt lat="38.8888960" lon="1.4073370">
        <ele>1.3</ele>
        <time>2020-02-21T10:15:27Z</time>
      </trkpt>
      <trkpt lat="38.8888500" lon="1.4072970">
        <ele>1.3</ele>
        <time>2020-02-21T10:15:28Z</time>
      </trkpt>
      <trkpt lat="38.8888040" lon="1.4072660">
        <ele>1.4</ele>
        <time>2020-02-21T10:15:29Z</time>
      </trkpt>
      <trkpt lat="38.8887550" lon="1.4072310">
        <ele>1.5</ele>
        <time>2020-02-21T10:15:30Z</time>
      </trkpt>
      <trkpt lat="38.8887080" lon="1.4071910">
        <ele>1.6</ele>
        <time>2020-02-21T10:15:31Z</time>
      </trkpt>
      <trkpt lat="38.8886620" lon="1.4071570">
        <ele>1.7</ele>
        <time>2020-02-21T10:15:32Z</time>
      </trkpt>
      <trkpt lat="38.8886210" lon="1.4071180">
        <ele>1.7</ele>
        <time>2020-02-21T10:15:33Z</time>
      </trkpt>
      <trkpt lat="38.8885830" lon="1.4070740">
        <ele>1.8</ele>
        <time>2020-02-21T10:15:34Z</time>
      </trkpt>
      <trkpt lat="38.8885450" lon="1.4070360">
        <ele>1.9</ele>
        <time>2020-02-21T10:15:35Z</time>
      </trkpt>
      <trkpt lat="38.8885100" lon="1.4070070">
        <ele>1.9</ele>
        <time>2020-02-21T10:15:36Z</time>
      </trkpt>
      <trkpt lat="38.8884660" lon="1.4069730">
        <ele>1.9</ele>
        <time>2020-02-21T10:15:37Z</time>
      </trkpt>
      <trkpt lat="38.8884130" lon="1.4069380">
        <ele>1.9</ele>
        <time>2020-02-21T10:15:38Z</time>
      </trkpt>
      <trkpt lat="38.8883630" lon="1.4069100">
        <ele>1.9</ele>
        <time>2020-02-21T10:15:39Z</time>
      </trkpt>
      <trkpt lat="38.8883160" lon="1.4068780">
        <ele>1.9</ele>
        <time>2020-02-21T10:15:40Z</time>
      </trkpt>
      <trkpt lat="38.8882700" lon="1.4068470">
        <ele>1.9</ele>
        <time>2020-02-21T10:15:41Z</time>
      </trkpt>
      <trkpt lat="38.8882210" lon="1.4068090">
        <ele>1.9</ele>
        <time>2020-02-21T10:15:42Z</time>
      </trkpt>
      <trkpt lat="38.8881770" lon="1.4067720">
        <ele>1.9</ele>
        <time>2020-02-21T10:15:43Z</time>
      </trkpt>
      <trkpt lat="38.8881290" lon="1.4067420">
        <ele>1.9</ele>
        <time>2020-02-21T10:15:44Z</time>
      </trkpt>
      <trkpt lat="38.8880940" lon="1.4067180">
        <ele>1.6</ele>
        <time>2020-02-21T10:15:45Z</time>
      </trkpt>
      <trkpt lat="38.8880540" lon="1.4066970">
        <ele>1.4</ele>
        <time>2020-02-21T10:15:46Z</time>
      </trkpt>
      <trkpt lat="38.8880110" lon="1.4066690">
        <ele>1.1</ele>
        <time>2020-02-21T10:15:47Z</time>
      </trkpt>
      <trkpt lat="38.8879700" lon="1.4066360">
        <ele>0.9</ele>
        <time>2020-02-21T10:15:48Z</time>
      </trkpt>
      <trkpt lat="38.8879290" lon="1.4065920">
        <ele>0.8</ele>
        <time>2020-02-21T10:15:49Z</time>
      </trkpt>
      <trkpt lat="38.8878870" lon="1.4065640">
        <ele>0.7</ele>
        <time>2020-02-21T10:15:50Z</time>
      </trkpt>
      <trkpt lat="38.8878420" lon="1.4065350">
        <ele>0.6</ele>
        <time>2020-02-21T10:15:51Z</time>
      </trkpt>
      <trkpt lat="38.8877970" lon="1.4065070">
        <ele>0.6</ele>
        <time>2020-02-21T10:15:52Z</time>
      </trkpt>
      <trkpt lat="38.8877470" lon="1.4064710">
        <ele>0.5</ele>
        <time>2020-02-21T10:15:53Z</time>
      </trkpt>
      <trkpt lat="38.8877010" lon="1.4064310">
        <ele>0.5</ele>
        <time>2020-02-21T10:15:54Z</time>
      </trkpt>
      <trkpt lat="38.8876580" lon="1.4064010">
        <ele>0.4</ele>
        <time>2020-02-21T10:15:55Z</time>
      </trkpt>
      <trkpt lat="38.8876100" lon="1.4063660">
        <ele>0.3</ele>
        <time>2020-02-21T10:15:56Z</time>
      </trkpt>
      <trkpt lat="38.8875670" lon="1.4063370">
        <ele>0.2</ele>
        <time>2020-02-21T10:15:57Z</time>
      </trkpt>
      <trkpt lat="38.8875190" lon="1.4063010">
        <ele>0.0</ele>
        <time>2020-02-21T10:15:58Z</time>
      </trkpt>
      <trkpt lat="38.8874740" lon="1.4062710">
        <ele>-0.1</ele>
        <time>2020-02-21T10:15:59Z</time>
      </trkpt>
      <trkpt lat="38.8874260" lon="1.4062440">
        <ele>-0.2</ele>
        <time>2020-02-21T10:16:00Z</time>
      </trkpt>
      <trkpt lat="38.8873760" lon="1.4062150">
        <ele>-0.3</ele>
        <time>2020-02-21T10:16:01Z</time>
      </trkpt>
      <trkpt lat="38.8873250" lon="1.4061870">
        <ele>-0.4</ele>
        <time>2020-02-21T10:16:02Z</time>
      </trkpt>
      <trkpt lat="38.8872710" lon="1.4061600">
        <ele>-0.5</ele>
        <time>2020-02-21T10:16:03Z</time>
      </trkpt>
      <trkpt lat="38.8872190" lon="1.4061270">
        <ele>-0.5</ele>
        <time>2020-02-21T10:16:04Z</time>
      </trkpt>
      <trkpt lat="38.8871710" lon="1.4061060">
        <ele>-0.6</ele>
        <time>2020-02-21T10:16:05Z</time>
      </trkpt>
      <trkpt lat="38.8871310" lon="1.4060790">
        <ele>-0.6</ele>
        <time>2020-02-21T10:16:06Z</time>
      </trkpt>
      <trkpt lat="38.8870890" lon="1.4060490">
        <ele>-0.6</ele>
        <time>2020-02-21T10:16:07Z</time>
      </trkpt>
      <trkpt lat="38.8870430" lon="1.4060170">
        <ele>-0.7</ele>
        <time>2020-02-21T10:16:08Z</time>
      </trkpt>
      <trkpt lat="38.8869920" lon="1.4059840">
        <ele>-0.7</ele>
        <time>2020-02-21T10:16:09Z</time>
      </trkpt>
      <trkpt lat="38.8869450" lon="1.4059550">
        <ele>-0.7</ele>
        <time>2020-02-21T10:16:10Z</time>
      </trkpt>
      <trkpt lat="38.8868870" lon="1.4059240">
        <ele>-0.6</ele>
        <time>2020-02-21T10:16:11Z</time>
      </trkpt>
      <trkpt lat="38.8868410" lon="1.4058830">
        <ele>-0.5</ele>
        <time>2020-02-21T10:16:12Z</time>
      </trkpt>
      <trkpt lat="38.8867940" lon="1.4058510">
        <ele>-0.4</ele>
        <time>2020-02-21T10:16:13Z</time>
      </trkpt>
      <trkpt lat="38.8867460" lon="1.4058200">
        <ele>-0.2</ele>
        <time>2020-02-21T10:16:14Z</time>
      </trkpt>
      <trkpt lat="38.8867010" lon="1.4057880">
        <ele>-0.2</ele>
        <time>2020-02-21T10:16:15Z</time>
      </trkpt>
      <trkpt lat="38.8866540" lon="1.4057500">
        <ele>-0.1</ele>
        <time>2020-02-21T10:16:16Z</time>
      </trkpt>
      <trkpt lat="38.8866120" lon="1.4057100">
        <ele>0.0</ele>
        <time>2020-02-21T10:16:17Z</time>
      </trkpt>
      <trkpt lat="38.8865640" lon="1.4056780">
        <ele>0.1</ele>
        <time>2020-02-21T10:16:18Z</time>
      </trkpt>
      <trkpt lat="38.8865110" lon="1.4056410">
        <ele>0.1</ele>
        <time>2020-02-21T10:16:19Z</time>
      </trkpt>
      <trkpt lat="38.8864690" lon="1.4056050">
        <ele>0.1</ele>
        <time>2020-02-21T10:16:20Z</time>
      </trkpt>
      <trkpt lat="38.8864320" lon="1.4055680">
        <ele>0.1</ele>
        <time>2020-02-21T10:16:21Z</time>
      </trkpt>
      <trkpt lat="38.8863880" lon="1.4055240">
        <ele>0.1</ele>
        <time>2020-02-21T10:16:22Z</time>
      </trkpt>
      <trkpt lat="38.8863450" lon="1.4054770">
        <ele>0.0</ele>
        <time>2020-02-21T10:16:23Z</time>
      </trkpt>
      <trkpt lat="38.8862990" lon="1.4054370">
        <ele>0.0</ele>
        <time>2020-02-21T10:16:24Z</time>
      </trkpt>
      <trkpt lat="38.8862680" lon="1.4053970">
        <ele>0.0</ele>
        <time>2020-02-21T10:16:25Z</time>
      </trkpt>
      <trkpt lat="38.8862290" lon="1.4053540">
        <ele>-0.1</ele>
        <time>2020-02-21T10:16:26Z</time>
      </trkpt>
      <trkpt lat="38.8861870" lon="1.4053140">
        <ele>-0.2</ele>
        <time>2020-02-21T10:16:27Z</time>
      </trkpt>
      <trkpt lat="38.8861550" lon="1.4052650">
        <ele>-0.3</ele>
        <time>2020-02-21T10:16:28Z</time>
      </trkpt>
      <trkpt lat="38.8861190" lon="1.4052130">
        <ele>-0.4</ele>
        <time>2020-02-21T10:16:29Z</time>
      </trkpt>
      <trkpt lat="38.8860790" lon="1.4051640">
        <ele>-0.5</ele>
        <time>2020-02-21T10:16:30Z</time>
      </trkpt>
      <trkpt lat="38.8860410" lon="1.4051150">
        <ele>-0.4</ele>
        <time>2020-02-21T10:16:31Z</time>
      </trkpt>
      <trkpt lat="38.8860020" lon="1.4050680">
        <ele>-0.4</ele>
        <time>2020-02-21T10:16:32Z</time>
      </trkpt>
      <trkpt lat="38.8859640" lon="1.4050160">
        <ele>-0.3</ele>
        <time>2020-02-21T10:16:33Z</time>
      </trkpt>
      <trkpt lat="38.8859300" lon="1.4049680">
        <ele>-0.3</ele>
        <time>2020-02-21T10:16:34Z</time>
      </trkpt>
      <trkpt lat="38.8858940" lon="1.4049230">
        <ele>-0.2</ele>
        <time>2020-02-21T10:16:35Z</time>
      </trkpt>
      <trkpt lat="38.8858600" lon="1.4048770">
        <ele>-0.2</ele>
        <time>2020-02-21T10:16:36Z</time>
      </trkpt>
      <trkpt lat="38.8858220" lon="1.4048370">
        <ele>-0.2</ele>
        <time>2020-02-21T10:16:37Z</time>
      </trkpt>
      <trkpt lat="38.8857890" lon="1.4047910">
        <ele>-0.2</ele>
        <time>2020-02-21T10:16:38Z</time>
      </trkpt>
      <trkpt lat="38.8857590" lon="1.4047440">
        <ele>-0.2</ele>
        <time>2020-02-21T10:16:39Z</time>
      </trkpt>
      <trkpt lat="38.8857170" lon="1.4047000">
        <ele>-0.1</ele>
        <time>2020-02-21T10:16:40Z</time>
      </trkpt>
      <trkpt lat="38.8856860" lon="1.4046460">
        <ele>-0.1</ele>
        <time>2020-02-21T10:16:41Z</time>
      </trkpt>
      <trkpt lat="38.8856450" lon="1.4045880">
        <ele>-0.1</ele>
        <time>2020-02-21T10:16:42Z</time>
      </trkpt>
      <trkpt lat="38.8856030" lon="1.4045450">
        <ele>0.0</ele>
        <time>2020-02-21T10:16:43Z</time>
      </trkpt>
      <trkpt lat="38.8855640" lon="1.4044970">
        <ele>0.1</ele>
        <time>2020-02-21T10:16:44Z</time>
      </trkpt>
      <trkpt lat="38.8855260" lon="1.4044450">
        <ele>0.2</ele>
        <time>2020-02-21T10:16:45Z</time>
      </trkpt>
      <trkpt lat="38.8854800" lon="1.4043960">
        <ele>0.3</ele>
        <time>2020-02-21T10:16:46Z</time>
      </trkpt>
      <trkpt lat="38.8854410" lon="1.4043490">
        <ele>0.4</ele>
        <time>2020-02-21T10:16:47Z</time>
      </trkpt>
      <trkpt lat="38.8853970" lon="1.4043030">
        <ele>0.6</ele>
        <time>2020-02-21T10:16:48Z</time>
      </trkpt>
      <trkpt lat="38.8853660" lon="1.4042590">
        <ele>0.7</ele>
        <time>2020-02-21T10:16:49Z</time>
      </trkpt>
      <trkpt lat="38.8853240" lon="1.4042080">
        <ele>0.9</ele>
        <time>2020-02-21T10:16:50Z</time>
      </trkpt>
      <trkpt lat="38.8852770" lon="1.4041620">
        <ele>1.0</ele>
        <time>2020-02-21T10:16:51Z</time>
      </trkpt>
      <trkpt lat="38.8852300" lon="1.4041100">
        <ele>1.1</ele>
        <time>2020-02-21T10:16:52Z</time>
      </trkpt>
      <trkpt lat="38.8851850" lon="1.4040670">
        <ele>1.0</ele>
        <time>2020-02-21T10:16:53Z</time>
      </trkpt>
      <trkpt lat="38.8851470" lon="1.4040140">
        <ele>1.0</ele>
        <time>2020-02-21T10:16:54Z</time>
      </trkpt>
      <trkpt lat="38.8851080" lon="1.4039660">
        <ele>1.0</ele>
        <time>2020-02-21T10:16:55Z</time>
      </trkpt>
      <trkpt lat="38.8850690" lon="1.4039250">
        <ele>0.9</ele>
        <time>2020-02-21T10:16:56Z</time>
      </trkpt>
      <trkpt lat="38.8850240" lon="1.4038840">
        <ele>0.8</ele>
        <time>2020-02-21T10:16:57Z</time>
      </trkpt>
      <trkpt lat="38.8849830" lon="1.4038350">
        <ele>0.7</ele>
        <time>2020-02-21T10:16:58Z</time>
      </trkpt>
      <trkpt lat="38.8849460" lon="1.4037930">
        <ele>0.6</ele>
        <time>2020-02-21T10:16:59Z</time>
      </trkpt>
      <trkpt lat="38.8849110" lon="1.4037480">
        <ele>0.4</ele>
        <time>2020-02-21T10:17:00Z</time>
      </trkpt>
      <trkpt lat="38.8848730" lon="1.4036980">
        <ele>0.3</ele>
        <time>2020-02-21T10:17:01Z</time>
      </trkpt>
      <trkpt lat="38.8848430" lon="1.4036490">
        <ele>0.3</ele>
        <time>2020-02-21T10:17:02Z</time>
      </trkpt>
      <trkpt lat="38.8848050" lon="1.4036010">
        <ele>0.2</ele>
        <time>2020-02-21T10:17:03Z</time>
      </trkpt>
      <trkpt lat="38.8847680" lon="1.4035480">
        <ele>0.2</ele>
        <time>2020-02-21T10:17:04Z</time>
      </trkpt>
      <trkpt lat="38.8847240" lon="1.4034980">
        <ele>0.2</ele>
        <time>2020-02-21T10:17:05Z</time>
      </trkpt>
      <trkpt lat="38.8846900" lon="1.4034430">
        <ele>0.1</ele>
        <time>2020-02-21T10:17:06Z</time>
      </trkpt>
      <trkpt lat="38.8846540" lon="1.4033900">
        <ele>0.0</ele>
        <time>2020-02-21T10:17:07Z</time>
      </trkpt>
      <trkpt lat="38.8846150" lon="1.4033310">
        <ele>-0.1</ele>
        <time>2020-02-21T10:17:08Z</time>
      </trkpt>
      <trkpt lat="38.8845730" lon="1.4032780">
        <ele>-0.2</ele>
        <time>2020-02-21T10:17:09Z</time>
      </trkpt>
      <trkpt lat="38.8845310" lon="1.4032300">
        <ele>-0.3</ele>
        <time>2020-02-21T10:17:10Z</time>
      </trkpt>
      <trkpt lat="38.8844920" lon="1.4031830">
        <ele>-0.3</ele>
        <time>2020-02-21T10:17:11Z</time>
      </trkpt>
      <trkpt lat="38.8844630" lon="1.4031290">
        <ele>-0.4</ele>
        <time>2020-02-21T10:17:12Z</time>
      </trkpt>
      <trkpt lat="38.8844220" lon="1.4030820">
        <ele>-0.4</ele>
        <time>2020-02-21T10:17:13Z</time>
      </trkpt>
      <trkpt lat="38.8843760" lon="1.4030390">
        <ele>-0.4</ele>
        <time>2020-02-21T10:17:14Z</time>
      </trkpt>
      <trkpt lat="38.8843320" lon="1.4029920">
        <ele>-0.5</ele>
        <time>2020-02-21T10:17:15Z</time>
      </trkpt>
      <trkpt lat="38.8842890" lon="1.4029370">
        <ele>-0.5</ele>
        <time>2020-02-21T10:17:16Z</time>
      </trkpt>
      <trkpt lat="38.8842480" lon="1.4028880">
        <ele>-0.5</ele>
        <time>2020-02-21T10:17:17Z</time>
      </trkpt>
      <trkpt lat="38.8842080" lon="1.4028480">
        <ele>-0.6</ele>
        <time>2020-02-21T10:17:18Z</time>
      </trkpt>
      <trkpt lat="38.8841620" lon="1.4028020">
        <ele>-0.6</ele>
        <time>2020-02-21T10:17:19Z</time>
      </trkpt>
      <trkpt lat="38.8841070" lon="1.4027610">
        <ele>-0.6</ele>
        <time>2020-02-21T10:17:20Z</time>
      </trkpt>
      <trkpt lat="38.8840580" lon="1.4027280">
        <ele>-0.9</ele>
        <time>2020-02-21T10:17:21Z</time>
      </trkpt>
      <trkpt lat="38.8840070" lon="1.4027050">
        <ele>-1.0</ele>
        <time>2020-02-21T10:17:22Z</time>
      </trkpt>
      <trkpt lat="38.8839570" lon="1.4026910">
        <ele>-1.0</ele>
        <time>2020-02-21T10:17:23Z</time>
      </trkpt>
      <trkpt lat="38.8839110" lon="1.4026770">
        <ele>-1.1</ele>
        <time>2020-02-21T10:17:24Z</time>
      </trkpt>
      <trkpt lat="38.8838680" lon="1.4026580">
        <ele>-1.2</ele>
        <time>2020-02-21T10:17:25Z</time>
      </trkpt>
      <trkpt lat="38.8838140" lon="1.4026430">
        <ele>-1.2</ele>
        <time>2020-02-21T10:17:26Z</time>
      </trkpt>
      <trkpt lat="38.8837570" lon="1.4026280">
        <ele>-1.2</ele>
        <time>2020-02-21T10:17:27Z</time>
      </trkpt>
      <trkpt lat="38.8836980" lon="1.4026150">
        <ele>-1.3</ele>
        <time>2020-02-21T10:17:28Z</time>
      </trkpt>
      <trkpt lat="38.8836490" lon="1.4026160">
        <ele>-1.3</ele>
        <time>2020-02-21T10:17:29Z</time>
      </trkpt>
      <trkpt lat="38.8836010" lon="1.4026040">
        <ele>-1.3</ele>
        <time>2020-02-21T10:17:30Z</time>
      </trkpt>
      <trkpt lat="38.8835520" lon="1.4025950">
        <ele>-1.3</ele>
        <time>2020-02-21T10:17:31Z</time>
      </trkpt>
      <trkpt lat="38.8835000" lon="1.4025970">
        <ele>-1.3</ele>
        <time>2020-02-21T10:17:32Z</time>
      </trkpt>
      <trkpt lat="38.8834470" lon="1.4026010">
        <ele>-1.3</ele>
        <time>2020-02-21T10:17:33Z</time>
      </trkpt>
      <trkpt lat="38.8833900" lon="1.4026050">
        <ele>-1.3</ele>
        <time>2020-02-21T10:17:34Z</time>
      </trkpt>
      <trkpt lat="38.8833270" lon="1.4026010">
        <ele>-1.3</ele>
        <time>2020-02-21T10:17:35Z</time>
      </trkpt>
      <trkpt lat="38.8832700" lon="1.4025980">
        <ele>-1.2</ele>
        <time>2020-02-21T10:17:36Z</time>
      </trkpt>
      <trkpt lat="38.8832060" lon="1.4025830">
        <ele>-1.2</ele>
        <time>2020-02-21T10:17:37Z</time>
      </trkpt>
      <trkpt lat="38.8831530" lon="1.4025800">
        <ele>-1.1</ele>
        <time>2020-02-21T10:17:38Z</time>
      </trkpt>
      <trkpt lat="38.8830950" lon="1.4025610">
        <ele>-1.1</ele>
        <time>2020-02-21T10:17:39Z</time>
      </trkpt>
      <trkpt lat="38.8830220" lon="1.4025350">
        <ele>-1.0</ele>
        <time>2020-02-21T10:17:40Z</time>
      </trkpt>
      <trkpt lat="38.8829710" lon="1.4025230">
        <ele>-1.0</ele>
        <time>2020-02-21T10:17:41Z</time>
      </trkpt>
      <trkpt lat="38.8829190" lon="1.4025000">
        <ele>-0.9</ele>
        <time>2020-02-21T10:17:42Z</time>
      </trkpt>
      <trkpt lat="38.8828690" lon="1.4024810">
        <ele>-0.9</ele>
        <time>2020-02-21T10:17:43Z</time>
      </trkpt>
      <trkpt lat="38.8828020" lon="1.4024560">
        <ele>-0.8</ele>
        <time>2020-02-21T10:17:44Z</time>
      </trkpt>
      <trkpt lat="38.8827500" lon="1.4024350">
        <ele>-0.8</ele>
        <time>2020-02-21T10:17:45Z</time>
      </trkpt>
      <trkpt lat="38.8827050" lon="1.4024110">
        <ele>-0.8</ele>
        <time>2020-02-21T10:17:46Z</time>
      </trkpt>
      <trkpt lat="38.8826540" lon="1.4023800">
        <ele>-0.7</ele>
        <time>2020-02-21T10:17:47Z</time>
      </trkpt>
      <trkpt lat="38.8826020" lon="1.4023500">
        <ele>-0.7</ele>
        <time>2020-02-21T10:17:48Z</time>
      </trkpt>
      <trkpt lat="38.8825500" lon="1.4023140">
        <ele>-0.7</ele>
        <time>2020-02-21T10:17:49Z</time>
      </trkpt>
      <trkpt lat="38.8825010" lon="1.4022800">
        <ele>-0.6</ele>
        <time>2020-02-21T10:17:50Z</time>
      </trkpt>
      <trkpt lat="38.8824500" lon="1.4022390">
        <ele>-0.6</ele>
        <time>2020-02-21T10:17:51Z</time>
      </trkpt>
      <trkpt lat="38.8823920" lon="1.4021950">
        <ele>-0.5</ele>
        <time>2020-02-21T10:17:52Z</time>
      </trkpt>
      <trkpt lat="38.8823430" lon="1.4021600">
        <ele>-0.4</ele>
        <time>2020-02-21T10:17:53Z</time>
      </trkpt>
      <trkpt lat="38.8823080" lon="1.4021120">
        <ele>-0.4</ele>
        <time>2020-02-21T10:17:54Z</time>
      </trkpt>
      <trkpt lat="38.8822690" lon="1.4020650">
        <ele>-0.3</ele>
        <time>2020-02-21T10:17:55Z</time>
      </trkpt>
      <trkpt lat="38.8822260" lon="1.4020340">
        <ele>-0.2</ele>
        <time>2020-02-21T10:17:56Z</time>
      </trkpt>
      <trkpt lat="38.8821830" lon="1.4019930">
        <ele>-0.1</ele>
        <time>2020-02-21T10:17:57Z</time>
      </trkpt>
      <trkpt lat="38.8821410" lon="1.4019410">
        <ele>0.2</ele>
        <time>2020-02-21T10:17:58Z</time>
      </trkpt>
      <trkpt lat="38.8821050" lon="1.4018820">
        <ele>0.1</ele>
        <time>2020-02-21T10:17:59Z</time>
      </trkpt>
      <trkpt lat="38.8820710" lon="1.4018260">
        <ele>0.1</ele>
        <time>2020-02-21T10:18:00Z</time>
      </trkpt>
      <trkpt lat="38.8820380" lon="1.4017880">
        <ele>0.1</ele>
        <time>2020-02-21T10:18:01Z</time>
      </trkpt>
      <trkpt lat="38.8819980" lon="1.4017430">
        <ele>0.2</ele>
        <time>2020-02-21T10:18:02Z</time>
      </trkpt>
      <trkpt lat="38.8819590" lon="1.4016960">
        <ele>0.2</ele>
        <time>2020-02-21T10:18:03Z</time>
      </trkpt>
      <trkpt lat="38.8819140" lon="1.4016510">
        <ele>0.2</ele>
        <time>2020-02-21T10:18:04Z</time>
      </trkpt>
      <trkpt lat="38.8818780" lon="1.4015880">
        <ele>0.2</ele>
        <time>2020-02-21T10:18:05Z</time>
      </trkpt>
      <trkpt lat="38.8818420" lon="1.4015240">
        <ele>0.2</ele>
        <time>2020-02-21T10:18:06Z</time>
      </trkpt>
      <trkpt lat="38.8818050" lon="1.4014590">
        <ele>0.2</ele>
        <time>2020-02-21T10:18:07Z</time>
      </trkpt>
      <trkpt lat="38.8817720" lon="1.4013960">
        <ele>0.2</ele>
        <time>2020-02-21T10:18:08Z</time>
      </trkpt>
      <trkpt lat="38.8817360" lon="1.4013340">
        <ele>0.1</ele>
        <time>2020-02-21T10:18:09Z</time>
      </trkpt>
      <trkpt lat="38.8817000" lon="1.4012730">
        <ele>0.1</ele>
        <time>2020-02-21T10:18:10Z</time>
      </trkpt>
      <trkpt lat="38.8816640" lon="1.4012160">
        <ele>0.1</ele>
        <time>2020-02-21T10:18:11Z</time>
      </trkpt>
      <trkpt lat="38.8816170" lon="1.4011690">
        <ele>0.0</ele>
        <time>2020-02-21T10:18:12Z</time>
      </trkpt>
      <trkpt lat="38.8815770" lon="1.4011150">
        <ele>0.0</ele>
        <time>2020-02-21T10:18:13Z</time>
      </trkpt>
      <trkpt lat="38.8815420" lon="1.4010560">
        <ele>0.0</ele>
        <time>2020-02-21T10:18:14Z</time>
      </trkpt>
      <trkpt lat="38.8815040" lon="1.4009980">
        <ele>-0.1</ele>
        <time>2020-02-21T10:18:15Z</time>
      </trkpt>
      <trkpt lat="38.8814610" lon="1.4009620">
        <ele>-0.2</ele>
        <time>2020-02-21T10:18:16Z</time>
      </trkpt>
      <trkpt lat="38.8814110" lon="1.4009520">
        <ele>-0.2</ele>
        <time>2020-02-21T10:18:17Z</time>
      </trkpt>
      <trkpt lat="38.8813560" lon="1.4009610">
        <ele>0.0</ele>
        <time>2020-02-21T10:18:18Z</time>
      </trkpt>
      <trkpt lat="38.8813000" lon="1.4009860">
        <ele>0.1</ele>
        <time>2020-02-21T10:18:19Z</time>
      </trkpt>
      <trkpt lat="38.8812580" lon="1.4010220">
        <ele>0.1</ele>
        <time>2020-02-21T10:18:20Z</time>
      </trkpt>
      <trkpt lat="38.8812230" lon="1.4010700">
        <ele>0.2</ele>
        <time>2020-02-21T10:18:21Z</time>
      </trkpt>
      <trkpt lat="38.8811760" lon="1.4011200">
        <ele>0.3</ele>
        <time>2020-02-21T10:18:22Z</time>
      </trkpt>
      <trkpt lat="38.8811310" lon="1.4011720">
        <ele>0.4</ele>
        <time>2020-02-21T10:18:23Z</time>
      </trkpt>
      <trkpt lat="38.8810890" lon="1.4012240">
        <ele>0.5</ele>
        <time>2020-02-21T10:18:24Z</time>
      </trkpt>
      <trkpt lat="38.8810440" lon="1.4012720">
        <ele>0.7</ele>
        <time>2020-02-21T10:18:25Z</time>
      </trkpt>
      <trkpt lat="38.8809970" lon="1.4013170">
        <ele>0.9</ele>
        <time>2020-02-21T10:18:26Z</time>
      </trkpt>
      <trkpt lat="38.8809480" lon="1.4013580">
        <ele>1.0</ele>
        <time>2020-02-21T10:18:27Z</time>
      </trkpt>
      <trkpt lat="38.8809000" lon="1.4014000">
        <ele>1.1</ele>
        <time>2020-02-21T10:18:28Z</time>
      </trkpt>
      <trkpt lat="38.8808640" lon="1.4014410">
        <ele>1.2</ele>
        <time>2020-02-21T10:18:29Z</time>
      </trkpt>
      <trkpt lat="38.8808270" lon="1.4014880">
        <ele>1.3</ele>
        <time>2020-02-21T10:18:30Z</time>
      </trkpt>
      <trkpt lat="38.8807860" lon="1.4015350">
        <ele>1.4</ele>
        <time>2020-02-21T10:18:31Z</time>
      </trkpt>
      <trkpt lat="38.8807410" lon="1.4015790">
        <ele>1.4</ele>
        <time>2020-02-21T10:18:32Z</time>
      </trkpt>
      <trkpt lat="38.8807150" lon="1.4016220">
        <ele>1.4</ele>
        <time>2020-02-21T10:18:33Z</time>
      </trkpt>
      <trkpt lat="38.8806700" lon="1.4016660">
        <ele>1.5</ele>
        <time>2020-02-21T10:18:34Z</time>
      </trkpt>
      <trkpt lat="38.8806270" lon="1.4017190">
        <ele>1.5</ele>
        <time>2020-02-21T10:18:35Z</time>
      </trkpt>
      <trkpt lat="38.8805880" lon="1.4017660">
        <ele>1.6</ele>
        <time>2020-02-21T10:18:36Z</time>
      </trkpt>
      <trkpt lat="38.8805520" lon="1.4018190">
        <ele>1.6</ele>
        <time>2020-02-21T10:18:37Z</time>
      </trkpt>
      <trkpt lat="38.8805190" lon="1.4018680">
        <ele>1.7</ele>
        <time>2020-02-21T10:18:38Z</time>
      </trkpt>
      <trkpt lat="38.8804720" lon="1.4019100">
        <ele>1.7</ele>
        <time>2020-02-21T10:18:39Z</time>
      </trkpt>
      <trkpt lat="38.8804280" lon="1.4019540">
        <ele>1.8</ele>
        <time>2020-02-21T10:18:40Z</time>
      </trkpt>
      <trkpt lat="38.8803890" lon="1.4019970">
        <ele>1.9</ele>
        <time>2020-02-21T10:18:41Z</time>
      </trkpt>
      <trkpt lat="38.8803500" lon="1.4020320">
        <ele>1.9</ele>
        <time>2020-02-21T10:18:42Z</time>
      </trkpt>
      <trkpt lat="38.8802960" lon="1.4020600">
        <ele>1.6</ele>
        <time>2020-02-21T10:18:43Z</time>
      </trkpt>
      <trkpt lat="38.8802390" lon="1.4020780">
        <ele>1.4</ele>
        <time>2020-02-21T10:18:44Z</time>
      </trkpt>
      <trkpt lat="38.8801820" lon="1.4020670">
        <ele>1.2</ele>
        <time>2020-02-21T10:18:45Z</time>
      </trkpt>
      <trkpt lat="38.8801330" lon="1.4020320">
        <ele>1.1</ele>
        <time>2020-02-21T10:18:46Z</time>
      </trkpt>
      <trkpt lat="38.8800790" lon="1.4020050">
        <ele>1.0</ele>
        <time>2020-02-21T10:18:47Z</time>
      </trkpt>
      <trkpt lat="38.8800280" lon="1.4019840">
        <ele>1.0</ele>
        <time>2020-02-21T10:18:48Z</time>
      </trkpt>
      <trkpt lat="38.8799800" lon="1.4019730">
        <ele>1.0</ele>
        <time>2020-02-21T10:18:49Z</time>
      </trkpt>
      <trkpt lat="38.8799280" lon="1.4019470">
        <ele>1.0</ele>
        <time>2020-02-21T10:18:50Z</time>
      </trkpt>
      <trkpt lat="38.8798760" lon="1.4019230">
        <ele>0.9</ele>
        <time>2020-02-21T10:18:51Z</time>
      </trkpt>
      <trkpt lat="38.8798240" lon="1.4019120">
        <ele>0.8</ele>
        <time>2020-02-21T10:18:52Z</time>
      </trkpt>
      <trkpt lat="38.8797710" lon="1.4018860">
        <ele>0.7</ele>
        <time>2020-02-21T10:18:53Z</time>
      </trkpt>
      <trkpt lat="38.8797210" lon="1.4018640">
        <ele>0.5</ele>
        <time>2020-02-21T10:18:54Z</time>
      </trkpt>
      <trkpt lat="38.8796600" lon="1.4018450">
        <ele>0.3</ele>
        <time>2020-02-21T10:18:55Z</time>
      </trkpt>
      <trkpt lat="38.8796010" lon="1.4018110">
        <ele>0.1</ele>
        <time>2020-02-21T10:18:56Z</time>
      </trkpt>
      <trkpt lat="38.8795490" lon="1.4017930">
        <ele>0.0</ele>
        <time>2020-02-21T10:18:57Z</time>
      </trkpt>
      <trkpt lat="38.8794910" lon="1.4017750">
        <ele>-0.1</ele>
        <time>2020-02-21T10:18:58Z</time>
      </trkpt>
      <trkpt lat="38.8794370" lon="1.4017720">
        <ele>-0.1</ele>
        <time>2020-02-21T10:18:59Z</time>
      </trkpt>
      <trkpt lat="38.8793810" lon="1.4017570">
        <ele>0.0</ele>
        <time>2020-02-21T10:19:00Z</time>
      </trkpt>
      <trkpt lat="38.8793250" lon="1.4017420">
        <ele>0.0</ele>
        <time>2020-02-21T10:19:01Z</time>
      </trkpt>
      <trkpt lat="38.8792670" lon="1.4017260">
        <ele>0.0</ele>
        <time>2020-02-21T10:19:02Z</time>
      </trkpt>
      <trkpt lat="38.8792180" lon="1.4017150">
        <ele>0.1</ele>
        <time>2020-02-21T10:19:03Z</time>
      </trkpt>
      <trkpt lat="38.8791680" lon="1.4016860">
        <ele>0.1</ele>
        <time>2020-02-21T10:19:04Z</time>
      </trkpt>
      <trkpt lat="38.8791170" lon="1.4016680">
        <ele>0.1</ele>
        <time>2020-02-21T10:19:05Z</time>
      </trkpt>
      <trkpt lat="38.8790580" lon="1.4016610">
        <ele>0.1</ele>
        <time>2020-02-21T10:19:06Z</time>
      </trkpt>
      <trkpt lat="38.8790100" lon="1.4016480">
        <ele>0.1</ele>
        <time>2020-02-21T10:19:07Z</time>
      </trkpt>
      <trkpt lat="38.8789580" lon="1.4016410">
        <ele>0.1</ele>
        <time>2020-02-21T10:19:08Z</time>
      </trkpt>
      <trkpt lat="38.8789050" lon="1.4016240">
        <ele>0.1</ele>
        <time>2020-02-21T10:19:09Z</time>
      </trkpt>
      <trkpt lat="38.8788550" lon="1.4016000">
        <ele>0.1</ele>
        <time>2020-02-21T10:19:10Z</time>
      </trkpt>
      <trkpt lat="38.8787980" lon="1.4015730">
        <ele>0.1</ele>
        <time>2020-02-21T10:19:11Z</time>
      </trkpt>
      <trkpt lat="38.8787380" lon="1.4015640">
        <ele>0.2</ele>
        <time>2020-02-21T10:19:12Z</time>
      </trkpt>
      <trkpt lat="38.8786860" lon="1.4015510">
        <ele>0.2</ele>
        <time>2020-02-21T10:19:13Z</time>
      </trkpt>
      <trkpt lat="38.8786320" lon="1.4015310">
        <ele>0.2</ele>
        <time>2020-02-21T10:19:14Z</time>
      </trkpt>
      <trkpt lat="38.8785780" lon="1.4015110">
        <ele>0.3</ele>
        <time>2020-02-21T10:19:15Z</time>
      </trkpt>
      <trkpt lat="38.8785310" lon="1.4014880">
        <ele>0.3</ele>
        <time>2020-02-21T10:19:16Z</time>
      </trkpt>
      <trkpt lat="38.8784750" lon="1.4014810">
        <ele>0.4</ele>
        <time>2020-02-21T10:19:17Z</time>
      </trkpt>
      <trkpt lat="38.8784180" lon="1.4014530">
        <ele>0.6</ele>
        <time>2020-02-21T10:19:18Z</time>
      </trkpt>
      <trkpt lat="38.8783640" lon="1.4014360">
        <ele>0.7</ele>
        <time>2020-02-21T10:19:19Z</time>
      </trkpt>
      <trkpt lat="38.8783100" lon="1.4014170">
        <ele>0.7</ele>
        <time>2020-02-21T10:19:20Z</time>
      </trkpt>
      <trkpt lat="38.8782600" lon="1.4013950">
        <ele>0.7</ele>
        <time>2020-02-21T10:19:21Z</time>
      </trkpt>
      <trkpt lat="38.8782160" lon="1.4013790">
        <ele>0.6</ele>
        <time>2020-02-21T10:19:22Z</time>
      </trkpt>
      <trkpt lat="38.8781700" lon="1.4013630">
        <ele>0.4</ele>
        <time>2020-02-21T10:19:23Z</time>
      </trkpt>
      <trkpt lat="38.8781230" lon="1.4013520">
        <ele>0.2</ele>
        <time>2020-02-21T10:19:24Z</time>
      </trkpt>
      <trkpt lat="38.8780830" lon="1.4013430">
        <ele>0.3</ele>
        <time>2020-02-21T10:19:25Z</time>
      </trkpt>
      <trkpt lat="38.8780420" lon="1.4013270">
        <ele>0.4</ele>
        <time>2020-02-21T10:19:26Z</time>
      </trkpt>
      <trkpt lat="38.8780130" lon="1.4013080">
        <ele>0.4</ele>
        <time>2020-02-21T10:19:27Z</time>
      </trkpt>
      <trkpt lat="38.8779840" lon="1.4012740">
        <ele>0.5</ele>
        <time>2020-02-21T10:19:28Z</time>
      </trkpt>
      <trkpt lat="38.8779410" lon="1.4012580">
        <ele>0.7</ele>
        <time>2020-02-21T10:19:29Z</time>
      </trkpt>
      <trkpt lat="38.8779220" lon="1.4012560">
        <ele>0.7</ele>
        <time>2020-02-21T10:19:30Z</time>
      </trkpt>
      <trkpt lat="38.8778930" lon="1.4012770">
        <ele>0.9</ele>
        <time>2020-02-21T10:19:31Z</time>
      </trkpt>
      <trkpt lat="38.8778640" lon="1.4013100">
        <ele>1.0</ele>
        <time>2020-02-21T10:19:32Z</time>
      </trkpt>
      <trkpt lat="38.8778420" lon="1.4013500">
        <ele>1.1</ele>
        <time>2020-02-21T10:19:33Z</time>
      </trkpt>
      <trkpt lat="38.8778130" lon="1.4013950">
        <ele>1.2</ele>
        <time>2020-02-21T10:19:34Z</time>
      </trkpt>
      <trkpt lat="38.8777810" lon="1.4014400">
        <ele>1.3</ele>
        <time>2020-02-21T10:19:35Z</time>
      </trkpt>
      <trkpt lat="38.8777500" lon="1.4014970">
        <ele>1.4</ele>
        <time>2020-02-21T10:19:36Z</time>
      </trkpt>
      <trkpt lat="38.8777150" lon="1.4015410">
        <ele>1.4</ele>
        <time>2020-02-21T10:19:37Z</time>
      </trkpt>
      <trkpt lat="38.8776810" lon="1.4015880">
        <ele>1.5</ele>
        <time>2020-02-21T10:19:38Z</time>
      </trkpt>
      <trkpt lat="38.8776530" lon="1.4016330">
        <ele>1.6</ele>
        <time>2020-02-21T10:19:39Z</time>
      </trkpt>
      <trkpt lat="38.8776190" lon="1.4016750">
        <ele>1.7</ele>
        <time>2020-02-21T10:19:40Z</time>
      </trkpt>
      <trkpt lat="38.8775800" lon="1.4017150">
        <ele>1.8</ele>
        <time>2020-02-21T10:19:41Z</time>
      </trkpt>
      <trkpt lat="38.8775480" lon="1.4017530">
        <ele>1.9</ele>
        <time>2020-02-21T10:19:42Z</time>
      </trkpt>
      <trkpt lat="38.8775160" lon="1.4017950">
        <ele>2.1</ele>
        <time>2020-02-21T10:19:43Z</time>
      </trkpt>
      <trkpt lat="38.8774820" lon="1.4018430">
        <ele>2.2</ele>
        <time>2020-02-21T10:19:44Z</time>
      </trkpt>
      <trkpt lat="38.8774530" lon="1.4018910">
        <ele>2.3</ele>
        <time>2020-02-21T10:19:45Z</time>
      </trkpt>
      <trkpt lat="38.8774180" lon="1.4019440">
        <ele>2.5</ele>
        <time>2020-02-21T10:19:46Z</time>
      </trkpt>
      <trkpt lat="38.8773900" lon="1.4019870">
        <ele>2.6</ele>
        <time>2020-02-21T10:19:47Z</time>
      </trkpt>
      <trkpt lat="38.8773570" lon="1.4020260">
        <ele>2.7</ele>
        <time>2020-02-21T10:19:48Z</time>
      </trkpt>
      <trkpt lat="38.8773250" lon="1.4020660">
        <ele>2.8</ele>
        <time>2020-02-21T10:19:49Z</time>
      </trkpt>
      <trkpt lat="38.8773000" lon="1.4021150">
        <ele>3.0</ele>
        <time>2020-02-21T10:19:50Z</time>
      </trkpt>
      <trkpt lat="38.8772640" lon="1.4021590">
        <ele>3.1</ele>
        <time>2020-02-21T10:19:51Z</time>
      </trkpt>
      <trkpt lat="38.8772260" lon="1.4022110">
        <ele>3.2</ele>
        <time>2020-02-21T10:19:52Z</time>
      </trkpt>
      <trkpt lat="38.8771960" lon="1.4022610">
        <ele>3.3</ele>
        <time>2020-02-21T10:19:53Z</time>
      </trkpt>
      <trkpt lat="38.8771710" lon="1.4023100">
        <ele>3.3</ele>
        <time>2020-02-21T10:19:54Z</time>
      </trkpt>
      <trkpt lat="38.8771420" lon="1.4023620">
        <ele>3.3</ele>
        <time>2020-02-21T10:19:55Z</time>
      </trkpt>
      <trkpt lat="38.8771200" lon="1.4024040">
        <ele>3.3</ele>
        <time>2020-02-21T10:19:56Z</time>
      </trkpt>
      <trkpt lat="38.8770970" lon="1.4024400">
        <ele>3.3</ele>
        <time>2020-02-21T10:19:57Z</time>
      </trkpt>
      <trkpt lat="38.8770800" lon="1.4024760">
        <ele>3.3</ele>
        <time>2020-02-21T10:19:58Z</time>
      </trkpt>
      <trkpt lat="38.8770610" lon="1.4025150">
        <ele>3.3</ele>
        <time>2020-02-21T10:19:59Z</time>
      </trkpt>
      <trkpt lat="38.8770500" lon="1.4025530">
        <ele>3.3</ele>
        <time>2020-02-21T10:20:00Z</time>
      </trkpt>
      <trkpt lat="38.8770330" lon="1.4026100">
        <ele>3.4</ele>
        <time>2020-02-21T10:20:01Z</time>
      </trkpt>
      <trkpt lat="38.8770010" lon="1.4026500">
        <ele>3.4</ele>
        <time>2020-02-21T10:20:02Z</time>
      </trkpt>
      <trkpt lat="38.8769570" lon="1.4026720">
        <ele>3.4</ele>
        <time>2020-02-21T10:20:03Z</time>
      </trkpt>
      <trkpt lat="38.8769210" lon="1.4026770">
        <ele>3.4</ele>
        <time>2020-02-21T10:20:04Z</time>
      </trkpt>
      <trkpt lat="38.8768870" lon="1.4026500">
        <ele>3.4</ele>
        <time>2020-02-21T10:20:05Z</time>
      </trkpt>
      <trkpt lat="38.8768560" lon="1.4026320">
        <ele>3.4</ele>
        <time>2020-02-21T10:20:06Z</time>
      </trkpt>
      <trkpt lat="38.8768150" lon="1.4026190">
        <ele>3.5</ele>
        <time>2020-02-21T10:20:07Z</time>
      </trkpt>
      <trkpt lat="38.8767720" lon="1.4026120">
        <ele>3.5</ele>
        <time>2020-02-21T10:20:08Z</time>
      </trkpt>
      <trkpt lat="38.8767190" lon="1.4026000">
        <ele>3.5</ele>
        <time>2020-02-21T10:20:09Z</time>
      </trkpt>
      <trkpt lat="38.8766740" lon="1.4025890">
        <ele>3.5</ele>
        <time>2020-02-21T10:20:10Z</time>
      </trkpt>
      <trkpt lat="38.8766260" lon="1.4025770">
        <ele>3.5</ele>
        <time>2020-02-21T10:20:11Z</time>
      </trkpt>
      <trkpt lat="38.8765860" lon="1.4025640">
        <ele>3.5</ele>
        <time>2020-02-21T10:20:12Z</time>
      </trkpt>
      <trkpt lat="38.8765510" lon="1.4025590">
        <ele>3.5</ele>
        <time>2020-02-21T10:20:13Z</time>
      </trkpt>
      <trkpt lat="38.8765130" lon="1.4025530">
        <ele>3.6</ele>
        <time>2020-02-21T10:20:14Z</time>
      </trkpt>
      <trkpt lat="38.8764730" lon="1.4025430">
        <ele>3.6</ele>
        <time>2020-02-21T10:20:15Z</time>
      </trkpt>
      <trkpt lat="38.8764590" lon="1.4025420">
        <ele>3.6</ele>
        <time>2020-02-21T10:20:16Z</time>
      </trkpt>
      <trkpt lat="38.8764200" lon="1.4025340">
        <ele>3.6</ele>
        <time>2020-02-21T10:20:17Z</time>
      </trkpt>
      <trkpt lat="38.8763730" lon="1.4025240">
        <ele>3.6</ele>
        <time>2020-02-21T10:20:18Z</time>
      </trkpt>
      <trkpt lat="38.8763260" lon="1.4025150">
        <ele>3.6</ele>
        <time>2020-02-21T10:20:19Z</time>
      </trkpt>
      <trkpt lat="38.8762850" lon="1.4025070">
        <ele>3.6</ele>
        <time>2020-02-21T10:20:20Z</time>
      </trkpt>
      <trkpt lat="38.8762440" lon="1.4024890">
        <ele>3.6</ele>
        <time>2020-02-21T10:20:21Z</time>
      </trkpt>
      <trkpt lat="38.8762000" lon="1.4024710">
        <ele>3.7</ele>
        <time>2020-02-21T10:20:22Z</time>
      </trkpt>
      <trkpt lat="38.8761540" lon="1.4024690">
        <ele>3.7</ele>
        <time>2020-02-21T10:20:23Z</time>
      </trkpt>
      <trkpt lat="38.8761090" lon="1.4024570">
        <ele>3.7</ele>
        <time>2020-02-21T10:20:24Z</time>
      </trkpt>
      <trkpt lat="38.8760660" lon="1.4024540">
        <ele>3.7</ele>
        <time>2020-02-21T10:20:25Z</time>
      </trkpt>
      <trkpt lat="38.8760190" lon="1.4024550">
        <ele>3.7</ele>
        <time>2020-02-21T10:20:26Z</time>
      </trkpt>
      <trkpt lat="38.8759760" lon="1.4024540">
        <ele>3.8</ele>
        <time>2020-02-21T10:20:27Z</time>
      </trkpt>
      <trkpt lat="38.8759320" lon="1.4024610">
        <ele>3.8</ele>
        <time>2020-02-21T10:20:28Z</time>
      </trkpt>
      <trkpt lat="38.8758840" lon="1.4024640">
        <ele>3.9</ele>
        <time>2020-02-21T10:20:29Z</time>
      </trkpt>
      <trkpt lat="38.8758460" lon="1.4024520">
        <ele>3.9</ele>
        <time>2020-02-21T10:20:30Z</time>
      </trkpt>
      <trkpt lat="38.8758060" lon="1.4024280">
        <ele>3.9</ele>
        <time>2020-02-21T10:20:31Z</time>
      </trkpt>
      <trkpt lat="38.8757690" lon="1.4024130">
        <ele>3.9</ele>
        <time>2020-02-21T10:20:32Z</time>
      </trkpt>
      <trkpt lat="38.8757310" lon="1.4024040">
        <ele>4.0</ele>
        <time>2020-02-21T10:20:33Z</time>
      </trkpt>
      <trkpt lat="38.8756920" lon="1.4024140">
        <ele>4.0</ele>
        <time>2020-02-21T10:20:34Z</time>
      </trkpt>
      <trkpt lat="38.8756450" lon="1.4024350">
        <ele>4.0</ele>
        <time>2020-02-21T10:20:35Z</time>
      </trkpt>
      <trkpt lat="38.8756110" lon="1.4024650">
        <ele>4.0</ele>
        <time>2020-02-21T10:20:36Z</time>
      </trkpt>
      <trkpt lat="38.8755650" lon="1.4024990">
        <ele>4.1</ele>
        <time>2020-02-21T10:20:37Z</time>
      </trkpt>
      <trkpt lat="38.8755260" lon="1.4025250">
        <ele>4.1</ele>
        <time>2020-02-21T10:20:38Z</time>
      </trkpt>
      <trkpt lat="38.8754890" lon="1.4025570">
        <ele>4.1</ele>
        <time>2020-02-21T10:20:39Z</time>
      </trkpt>
      <trkpt lat="38.8754590" lon="1.4025900">
        <ele>4.2</ele>
        <time>2020-02-21T10:20:40Z</time>
      </trkpt>
      <trkpt lat="38.8754260" lon="1.4026200">
        <ele>4.2</ele>
        <time>2020-02-21T10:20:41Z</time>
      </trkpt>
      <trkpt lat="38.8753880" lon="1.4026480">
        <ele>4.2</ele>
        <time>2020-02-21T10:20:42Z</time>
      </trkpt>
      <trkpt lat="38.8753550" lon="1.4026780">
        <ele>4.2</ele>
        <time>2020-02-21T10:20:43Z</time>
      </trkpt>
      <trkpt lat="38.8753310" lon="1.4027080">
        <ele>4.1</ele>
        <time>2020-02-21T10:20:44Z</time>
      </trkpt>
      <trkpt lat="38.8753100" lon="1.4027380">
        <ele>4.1</ele>
        <time>2020-02-21T10:20:45Z</time>
      </trkpt>
      <trkpt lat="38.8752820" lon="1.4027650">
        <ele>4.1</ele>
        <time>2020-02-21T10:20:46Z</time>
      </trkpt>
      <trkpt lat="38.8752540" lon="1.4027880">
        <ele>4.1</ele>
        <time>2020-02-21T10:20:47Z</time>
      </trkpt>
      <trkpt lat="38.8752280" lon="1.4028110">
        <ele>4.0</ele>
        <time>2020-02-21T10:20:48Z</time>
      </trkpt>
      <trkpt lat="38.8751990" lon="1.4028340">
        <ele>4.0</ele>
        <time>2020-02-21T10:20:49Z</time>
      </trkpt>
      <trkpt lat="38.8751910" lon="1.4028420">
        <ele>4.0</ele>
        <time>2020-02-21T10:20:50Z</time>
      </trkpt>
      <trkpt lat="38.8751740" lon="1.4028520">
        <ele>4.0</ele>
        <time>2020-02-21T10:20:51Z</time>
      </trkpt>
      <trkpt lat="38.8751710" lon="1.4028570">
        <ele>4.0</ele>
        <time>2020-02-21T10:20:52Z</time>
      </trkpt>
      <trkpt lat="38.8751780" lon="1.4028530">
        <ele>4.0</ele>
        <time>2020-02-21T10:20:53Z</time>
      </trkpt>
      <trkpt lat="38.8751790" lon="1.4028620">
        <ele>4.0</ele>
        <time>2020-02-21T10:20:54Z</time>
      </trkpt>
      <trkpt lat="38.8751870" lon="1.4028610">
        <ele>3.9</ele>
        <time>2020-02-21T10:20:55Z</time>
      </trkpt>
      <trkpt lat="38.8751970" lon="1.4028580">
        <ele>3.9</ele>
        <time>2020-02-21T10:20:56Z</time>
      </trkpt>
      <trkpt lat="38.8752000" lon="1.4028520">
        <ele>3.9</ele>
        <time>2020-02-21T10:20:57Z</time>
      </trkpt>
      <trkpt lat="38.8752150" lon="1.4028330">
        <ele>3.9</ele>
        <time>2020-02-21T10:20:58Z</time>
      </trkpt>
      <trkpt lat="38.8752210" lon="1.4028180">
        <ele>3.9</ele>
        <time>2020-02-21T10:20:59Z</time>
      </trkpt>
      <trkpt lat="38.8752440" lon="1.4027960">
        <ele>3.9</ele>
        <time>2020-02-21T10:21:00Z</time>
      </trkpt>
      <trkpt lat="38.8752510" lon="1.4027900">
        <ele>3.9</ele>
        <time>2020-02-21T10:21:01Z</time>
      </trkpt>
      <trkpt lat="38.8752770" lon="1.4027750">
        <ele>3.8</ele>
        <time>2020-02-21T10:21:02Z</time>
      </trkpt>
      <trkpt lat="38.8752870" lon="1.4027630">
        <ele>3.8</ele>
        <time>2020-02-21T10:21:03Z</time>
      </trkpt>
      <trkpt lat="38.8753180" lon="1.4027420">
        <ele>3.8</ele>
        <time>2020-02-21T10:21:04Z</time>
      </trkpt>
      <trkpt lat="38.8753410" lon="1.4027220">
        <ele>3.8</ele>
        <time>2020-02-21T10:21:05Z</time>
      </trkpt>
      <trkpt lat="38.8753670" lon="1.4026960">
        <ele>3.7</ele>
        <time>2020-02-21T10:21:06Z</time>
      </trkpt>
      <trkpt lat="38.8753980" lon="1.4026710">
        <ele>3.7</ele>
        <time>2020-02-21T10:21:07Z</time>
      </trkpt>
      <trkpt lat="38.8754350" lon="1.4026500">
        <ele>3.7</ele>
        <time>2020-02-21T10:21:08Z</time>
      </trkpt>
      <trkpt lat="38.8754700" lon="1.4026310">
        <ele>3.6</ele>
        <time>2020-02-21T10:21:09Z</time>
      </trkpt>
      <trkpt lat="38.8754950" lon="1.4026160">
        <ele>3.6</ele>
        <time>2020-02-21T10:21:10Z</time>
      </trkpt>
      <trkpt lat="38.8755060" lon="1.4026090">
        <ele>3.6</ele>
        <time>2020-02-21T10:21:11Z</time>
      </trkpt>
      <trkpt lat="38.8755040" lon="1.4026030">
        <ele>3.6</ele>
        <time>2020-02-21T10:21:12Z</time>
      </trkpt>
      <trkpt lat="38.8754960" lon="1.4025880">
        <ele>3.6</ele>
        <time>2020-02-21T10:21:13Z</time>
      </trkpt>
      <trkpt lat="38.8754830" lon="1.4025860">
        <ele>3.6</ele>
        <time>2020-02-21T10:21:14Z</time>
      </trkpt>
      <trkpt lat="38.8754810" lon="1.4025910">
        <ele>3.6</ele>
        <time>2020-02-21T10:21:15Z</time>
      </trkpt>
      <trkpt lat="38.8754740" lon="1.4026000">
        <ele>3.6</ele>
        <time>2020-02-21T10:21:16Z</time>
      </trkpt>
      <trkpt lat="38.8754730" lon="1.4026010">
        <ele>3.6</ele>
        <time>2020-02-21T10:21:17Z</time>
      </trkpt>
      <trkpt lat="38.8754730" lon="1.4025950">
        <ele>3.6</ele>
        <time>2020-02-21T10:21:18Z</time>
      </trkpt>
      <trkpt lat="38.8754620" lon="1.4025770">
        <ele>3.5</ele>
        <time>2020-02-21T10:21:19Z</time>
      </trkpt>
      <trkpt lat="38.8754570" lon="1.4025660">
        <ele>3.5</ele>
        <time>2020-02-21T10:21:20Z</time>
      </trkpt>
      <trkpt lat="38.8754520" lon="1.4025550">
        <ele>3.5</ele>
        <time>2020-02-21T10:21:21Z</time>
      </trkpt>
      <trkpt lat="38.8754480" lon="1.4025450">
        <ele>3.5</ele>
        <time>2020-02-21T10:21:22Z</time>
      </trkpt>
      <trkpt lat="38.8754430" lon="1.4025420">
        <ele>3.5</ele>
        <time>2020-02-21T10:21:23Z</time>
      </trkpt>
      <trkpt lat="38.8754380" lon="1.4025380">
        <ele>3.5</ele>
        <time>2020-02-21T10:21:24Z</time>
      </trkpt>
      <trkpt lat="38.8754330" lon="1.4025350">
        <ele>3.5</ele>
        <time>2020-02-21T10:21:25Z</time>
      </trkpt>
      <trkpt lat="38.8754280" lon="1.4025310">
        <ele>3.5</ele>
        <time>2020-02-21T10:21:26Z</time>
      </trkpt>
      <trkpt lat="38.8754230" lon="1.4025280">
        <ele>3.5</ele>
        <time>2020-02-21T10:21:27Z</time>
      </trkpt>
      <trkpt lat="38.8754180" lon="1.4025240">
        <ele>3.5</ele>
        <time>2020-02-21T10:21:28Z</time>
      </trkpt>
      <trkpt lat="38.8754010" lon="1.4025350">
        <ele>3.5</ele>
        <time>2020-02-21T10:21:29Z</time>
      </trkpt>
      <trkpt lat="38.8753910" lon="1.4025450">
        <ele>3.5</ele>
        <time>2020-02-21T10:21:30Z</time>
      </trkpt>
      <trkpt lat="38.8753770" lon="1.4025520">
        <ele>3.5</ele>
        <time>2020-02-21T10:21:31Z</time>
      </trkpt>
      <trkpt lat="38.8753600" lon="1.4025700">
        <ele>3.5</ele>
        <time>2020-02-21T10:21:32Z</time>
      </trkpt>
      <trkpt lat="38.8753390" lon="1.4026030">
        <ele>3.5</ele>
        <time>2020-02-21T10:21:33Z</time>
      </trkpt>
      <trkpt lat="38.8753300" lon="1.4026140">
        <ele>3.5</ele>
        <time>2020-02-21T10:21:34Z</time>
      </trkpt>
      <trkpt lat="38.8753050" lon="1.4026440">
        <ele>3.5</ele>
        <time>2020-02-21T10:21:35Z</time>
      </trkpt>
      <trkpt lat="38.8752960" lon="1.4026540">
        <ele>3.5</ele>
        <time>2020-02-21T10:21:36Z</time>
      </trkpt>
      <trkpt lat="38.8752640" lon="1.4026850">
        <ele>3.5</ele>
        <time>2020-02-21T10:21:37Z</time>
      </trkpt>
      <trkpt lat="38.8752520" lon="1.4026950">
        <ele>3.5</ele>
        <time>2020-02-21T10:21:38Z</time>
      </trkpt>
      <trkpt lat="38.8752300" lon="1.4027190">
        <ele>3.5</ele>
        <time>2020-02-21T10:21:39Z</time>
      </trkpt>
      <trkpt lat="38.8752000" lon="1.4027570">
        <ele>3.5</ele>
        <time>2020-02-21T10:21:40Z</time>
      </trkpt>
      <trkpt lat="38.8751840" lon="1.4027710">
        <ele>3.5</ele>
        <time>2020-02-21T10:21:41Z</time>
      </trkpt>
      <trkpt lat="38.8751570" lon="1.4027900">
        <ele>3.5</ele>
        <time>2020-02-21T10:21:42Z</time>
      </trkpt>
      <trkpt lat="38.8751200" lon="1.4028100">
        <ele>3.5</ele>
        <time>2020-02-21T10:21:43Z</time>
      </trkpt>
      <trkpt lat="38.8751060" lon="1.4028160">
        <ele>3.5</ele>
        <time>2020-02-21T10:21:44Z</time>
      </trkpt>
      <trkpt lat="38.8750720" lon="1.4028310">
        <ele>3.6</ele>
        <time>2020-02-21T10:21:45Z</time>
      </trkpt>
      <trkpt lat="38.8750600" lon="1.4028360">
        <ele>3.6</ele>
        <time>2020-02-21T10:21:46Z</time>
      </trkpt>
      <trkpt lat="38.8750260" lon="1.4028580">
        <ele>3.6</ele>
        <time>2020-02-21T10:21:47Z</time>
      </trkpt>
      <trkpt lat="38.8750160" lon="1.4028670">
        <ele>3.7</ele>
        <time>2020-02-21T10:21:48Z</time>
      </trkpt>
      <trkpt lat="38.8749920" lon="1.4028840">
        <ele>3.7</ele>
        <time>2020-02-21T10:21:49Z</time>
      </trkpt>
      <trkpt lat="38.8749660" lon="1.4029010">
        <ele>3.7</ele>
        <time>2020-02-21T10:21:50Z</time>
      </trkpt>
      <trkpt lat="38.8749320" lon="1.4029100">
        <ele>3.8</ele>
        <time>2020-02-21T10:21:51Z</time>
      </trkpt>
      <trkpt lat="38.8748990" lon="1.4029380">
        <ele>3.8</ele>
        <time>2020-02-21T10:21:52Z</time>
      </trkpt>
      <trkpt lat="38.8748860" lon="1.4029460">
        <ele>3.8</ele>
        <time>2020-02-21T10:21:53Z</time>
      </trkpt>
      <trkpt lat="38.8748590" lon="1.4029540">
        <ele>3.9</ele>
        <time>2020-02-21T10:21:54Z</time>
      </trkpt>
      <trkpt lat="38.8748230" lon="1.4029710">
        <ele>3.9</ele>
        <time>2020-02-21T10:21:55Z</time>
      </trkpt>
      <trkpt lat="38.8748090" lon="1.4029740">
        <ele>3.9</ele>
        <time>2020-02-21T10:21:56Z</time>
      </trkpt>
      <trkpt lat="38.8747740" lon="1.4029770">
        <ele>4.0</ele>
        <time>2020-02-21T10:21:57Z</time>
      </trkpt>
      <trkpt lat="38.8747460" lon="1.4029860">
        <ele>4.1</ele>
        <time>2020-02-21T10:21:58Z</time>
      </trkpt>
      <trkpt lat="38.8747170" lon="1.4029990">
        <ele>4.2</ele>
        <time>2020-02-21T10:21:59Z</time>
      </trkpt>
      <trkpt lat="38.8746890" lon="1.4030230">
        <ele>4.2</ele>
        <time>2020-02-21T10:22:00Z</time>
      </trkpt>
      <trkpt lat="38.8746640" lon="1.4030560">
        <ele>4.3</ele>
        <time>2020-02-21T10:22:01Z</time>
      </trkpt>
      <trkpt lat="38.8746250" lon="1.4030830">
        <ele>4.4</ele>
        <time>2020-02-21T10:22:02Z</time>
      </trkpt>
      <trkpt lat="38.8745960" lon="1.4031100">
        <ele>4.5</ele>
        <time>2020-02-21T10:22:03Z</time>
      </trkpt>
      <trkpt lat="38.8745650" lon="1.4031310">
        <ele>4.6</ele>
        <time>2020-02-21T10:22:04Z</time>
      </trkpt>
      <trkpt lat="38.8745360" lon="1.4031520">
        <ele>4.6</ele>
        <time>2020-02-21T10:22:05Z</time>
      </trkpt>
      <trkpt lat="38.8745070" lon="1.4031770">
        <ele>4.7</ele>
        <time>2020-02-21T10:22:06Z</time>
      </trkpt>
      <trkpt lat="38.8744810" lon="1.4032020">
        <ele>4.8</ele>
        <time>2020-02-21T10:22:07Z</time>
      </trkpt>
      <trkpt lat="38.8744530" lon="1.4032260">
        <ele>4.8</ele>
        <time>2020-02-21T10:22:08Z</time>
      </trkpt>
      <trkpt lat="38.8744230" lon="1.4032500">
        <ele>4.9</ele>
        <time>2020-02-21T10:22:09Z</time>
      </trkpt>
      <trkpt lat="38.8743890" lon="1.4032710">
        <ele>5.2</ele>
        <time>2020-02-21T10:22:10Z</time>
      </trkpt>
      <trkpt lat="38.8743560" lon="1.4032840">
        <ele>5.4</ele>
        <time>2020-02-21T10:22:11Z</time>
      </trkpt>
      <trkpt lat="38.8743450" lon="1.4032880">
        <ele>5.4</ele>
        <time>2020-02-21T10:22:12Z</time>
      </trkpt>
      <trkpt lat="38.8743050" lon="1.4032890">
        <ele>5.8</ele>
        <time>2020-02-21T10:22:13Z</time>
      </trkpt>
      <trkpt lat="38.8742910" lon="1.4032910">
        <ele>5.9</ele>
        <time>2020-02-21T10:22:14Z</time>
      </trkpt>
      <trkpt lat="38.8742650" lon="1.4033070">
        <ele>6.1</ele>
        <time>2020-02-21T10:22:15Z</time>
      </trkpt>
      <trkpt lat="38.8742570" lon="1.4033130">
        <ele>6.2</ele>
        <time>2020-02-21T10:22:16Z</time>
      </trkpt>
      <trkpt lat="38.8742350" lon="1.4033030">
        <ele>6.4</ele>
        <time>2020-02-21T10:22:17Z</time>
      </trkpt>
      <trkpt lat="38.8742290" lon="1.4033210">
        <ele>6.6</ele>
        <time>2020-02-21T10:22:18Z</time>
      </trkpt>
      <trkpt lat="38.8742180" lon="1.4033320">
        <ele>6.8</ele>
        <time>2020-02-21T10:22:19Z</time>
      </trkpt>
      <trkpt lat="38.8742080" lon="1.4033470">
        <ele>6.9</ele>
        <time>2020-02-21T10:22:20Z</time>
      </trkpt>
      <trkpt lat="38.8742000" lon="1.4033800">
        <ele>7.2</ele>
        <time>2020-02-21T10:22:21Z</time>
      </trkpt>
      <trkpt lat="38.8741890" lon="1.4033800">
        <ele>7.3</ele>
        <time>2020-02-21T10:22:22Z</time>
      </trkpt>
      <trkpt lat="38.8741830" lon="1.4033960">
        <ele>7.5</ele>
        <time>2020-02-21T10:22:23Z</time>
      </trkpt>
      <trkpt lat="38.8741830" lon="1.4034070">
        <ele>7.6</ele>
        <time>2020-02-21T10:22:24Z</time>
      </trkpt>
      <trkpt lat="38.8741820" lon="1.4034170">
        <ele>7.7</ele>
        <time>2020-02-21T10:22:25Z</time>
      </trkpt>
      <trkpt lat="38.8741810" lon="1.4034280">
        <ele>7.8</ele>
        <time>2020-02-21T10:22:26Z</time>
      </trkpt>
      <trkpt lat="38.8741800" lon="1.4034380">
        <ele>7.9</ele>
        <time>2020-02-21T10:22:27Z</time>
      </trkpt>
      <trkpt lat="38.8741750" lon="1.4034470">
        <ele>7.9</ele>
        <time>2020-02-21T10:22:28Z</time>
      </trkpt>
      <trkpt lat="38.8741650" lon="1.4034560">
        <ele>8.1</ele>
        <time>2020-02-21T10:22:29Z</time>
      </trkpt>
      <trkpt lat="38.8741590" lon="1.4034600">
        <ele>8.2</ele>
        <time>2020-02-21T10:22:30Z</time>
      </trkpt>
      <trkpt lat="38.8741500" lon="1.4034650">
        <ele>8.3</ele>
        <time>2020-02-21T10:22:31Z</time>
      </trkpt>
      <trkpt lat="38.8741430" lon="1.4034750">
        <ele>8.4</ele>
        <time>2020-02-21T10:22:32Z</time>
      </trkpt>
      <trkpt lat="38.8741380" lon="1.4034820">
        <ele>8.5</ele>
        <time>2020-02-21T10:22:33Z</time>
      </trkpt>
      <trkpt lat="38.8741340" lon="1.4034860">
        <ele>8.5</ele>
        <time>2020-02-21T10:22:34Z</time>
      </trkpt>
      <trkpt lat="38.8741370" lon="1.4034870">
        <ele>8.6</ele>
        <time>2020-02-21T10:22:35Z</time>
      </trkpt>
      <trkpt lat="38.8741360" lon="1.4034920">
        <ele>8.6</ele>
        <time>2020-02-21T10:22:36Z</time>
      </trkpt>
      <trkpt lat="38.8741330" lon="1.4034950">
        <ele>8.7</ele>
        <time>2020-02-21T10:22:37Z</time>
      </trkpt>
      <trkpt lat="38.8741340" lon="1.4034980">
        <ele>8.7</ele>
        <time>2020-02-21T10:22:38Z</time>
      </trkpt>
      <trkpt lat="38.8741310" lon="1.4035060">
        <ele>8.8</ele>
        <time>2020-02-21T10:22:39Z</time>
      </trkpt>
      <trkpt lat="38.8741250" lon="1.4035140">
        <ele>8.9</ele>
        <time>2020-02-21T10:22:40Z</time>
      </trkpt>
      <trkpt lat="38.8741250" lon="1.4035110">
        <ele>8.9</ele>
        <time>2020-02-21T10:22:41Z</time>
      </trkpt>
      <trkpt lat="38.8741250" lon="1.4035170">
        <ele>9.0</ele>
        <time>2020-02-21T10:22:42Z</time>
      </trkpt>
      <trkpt lat="38.8741230" lon="1.4035170">
        <ele>9.0</ele>
        <time>2020-02-21T10:22:43Z</time>
      </trkpt>
      <trkpt lat="38.8741210" lon="1.4035140">
        <ele>9.0</ele>
        <time>2020-02-21T10:22:44Z</time>
      </trkpt>
      <trkpt lat="38.8741180" lon="1.4035170">
        <ele>9.1</ele>
        <time>2020-02-21T10:22:45Z</time>
      </trkpt>
      <trkpt lat="38.8741090" lon="1.4035240">
        <ele>9.2</ele>
        <time>2020-02-21T10:22:46Z</time>
      </trkpt>
      <trkpt lat="38.8740950" lon="1.4035190">
        <ele>9.4</ele>
        <time>2020-02-21T10:22:47Z</time>
      </trkpt>
      <trkpt lat="38.8740830" lon="1.4035190">
        <ele>9.5</ele>
        <time>2020-02-21T10:22:48Z</time>
      </trkpt>
      <trkpt lat="38.8740760" lon="1.4035210">
        <ele>9.6</ele>
        <time>2020-02-21T10:22:49Z</time>
      </trkpt>
      <trkpt lat="38.8740760" lon="1.4035210">
        <ele>9.6</ele>
        <time>2020-02-21T10:22:50Z</time>
      </trkpt>
      <trkpt lat="38.8740710" lon="1.4035210">
        <ele>9.6</ele>
        <time>2020-02-21T10:22:51Z</time>
      </trkpt>
      <trkpt lat="38.8740660" lon="1.4035200">
        <ele>9.7</ele>
        <time>2020-02-21T10:22:52Z</time>
      </trkpt>
      <trkpt lat="38.8740590" lon="1.4035140">
        <ele>9.8</ele>
        <time>2020-02-21T10:22:53Z</time>
      </trkpt>
      <trkpt lat="38.8740500" lon="1.4035090">
        <ele>9.9</ele>
        <time>2020-02-21T10:22:54Z</time>
      </trkpt>
      <trkpt lat="38.8740460" lon="1.4035100">
        <ele>9.9</ele>
        <time>2020-02-21T10:22:55Z</time>
      </trkpt>
      <trkpt lat="38.8740420" lon="1.4035130">
        <ele>10.0</ele>
        <time>2020-02-21T10:22:56Z</time>
      </trkpt>
      <trkpt lat="38.8740380" lon="1.4035170">
        <ele>10.0</ele>
        <time>2020-02-21T10:22:57Z</time>
      </trkpt>
      <trkpt lat="38.8740200" lon="1.4035270">
        <ele>10.3</ele>
        <time>2020-02-21T10:22:58Z</time>
      </trkpt>
      <trkpt lat="38.8740110" lon="1.4035300">
        <ele>10.4</ele>
        <time>2020-02-21T10:22:59Z</time>
      </trkpt>
      <trkpt lat="38.8740030" lon="1.4035340">
        <ele>10.5</ele>
        <time>2020-02-21T10:23:00Z</time>
      </trkpt>
      <trkpt lat="38.8740090" lon="1.4035350">
        <ele>10.5</ele>
        <time>2020-02-21T10:23:01Z</time>
      </trkpt>
      <trkpt lat="38.8740020" lon="1.4035330">
        <ele>10.6</ele>
        <time>2020-02-21T10:23:02Z</time>
      </trkpt>
      <trkpt lat="38.8739940" lon="1.4035340">
        <ele>10.6</ele>
        <time>2020-02-21T10:23:03Z</time>
      </trkpt>
      <trkpt lat="38.8739850" lon="1.4035390">
        <ele>10.7</ele>
        <time>2020-02-21T10:23:04Z</time>
      </trkpt>
      <trkpt lat="38.8739760" lon="1.4035460">
        <ele>10.8</ele>
        <time>2020-02-21T10:23:05Z</time>
      </trkpt>
      <trkpt lat="38.8739680" lon="1.4035440">
        <ele>10.9</ele>
        <time>2020-02-21T10:23:06Z</time>
      </trkpt>
      <trkpt lat="38.8739650" lon="1.4035480">
        <ele>10.9</ele>
        <time>2020-02-21T10:23:07Z</time>
      </trkpt>
      <trkpt lat="38.8739630" lon="1.4035480">
        <ele>10.9</ele>
        <time>2020-02-21T10:23:08Z</time>
      </trkpt>
      <trkpt lat="38.8739590" lon="1.4035480">
        <ele>11.0</ele>
        <time>2020-02-21T10:23:09Z</time>
      </trkpt>
      <trkpt lat="38.8739510" lon="1.4035430">
        <ele>11.1</ele>
        <time>2020-02-21T10:23:10Z</time>
      </trkpt>
      <trkpt lat="38.8739440" lon="1.4035440">
        <ele>11.1</ele>
        <time>2020-02-21T10:23:11Z</time>
      </trkpt>
      <trkpt lat="38.8739430" lon="1.4035450">
        <ele>11.1</ele>
        <time>2020-02-21T10:23:12Z</time>
      </trkpt>
      <trkpt lat="38.8739430" lon="1.4035460">
        <ele>11.1</ele>
        <time>2020-02-21T10:23:13Z</time>
      </trkpt>
      <trkpt lat="38.8739410" lon="1.4035500">
        <ele>11.2</ele>
        <time>2020-02-21T10:23:14Z</time>
      </trkpt>
      <trkpt lat="38.8739400" lon="1.4035520">
        <ele>11.2</ele>
        <time>2020-02-21T10:23:15Z</time>
      </trkpt>
      <trkpt lat="38.8739410" lon="1.4035520">
        <ele>11.2</ele>
        <time>2020-02-21T10:23:16Z</time>
      </trkpt>
      <trkpt lat="38.8739420" lon="1.4035500">
        <ele>11.2</ele>
        <time>2020-02-21T10:23:17Z</time>
      </trkpt>
      <trkpt lat="38.8739430" lon="1.4035490">
        <ele>11.2</ele>
        <time>2020-02-21T10:23:18Z</time>
      </trkpt>
      <trkpt lat="38.8739430" lon="1.4035490">
        <ele>11.2</ele>
        <time>2020-02-21T10:23:19Z</time>
      </trkpt>
      <trkpt lat="38.8739430" lon="1.4035490">
        <ele>11.2</ele>
        <time>2020-02-21T10:23:20Z</time>
      </trkpt>
      <trkpt lat="38.8739430" lon="1.4035490">
        <ele>11.2</ele>
        <time>2020-02-21T10:23:21Z</time>
      </trkpt>
      <trkpt lat="38.8739430" lon="1.4035490">
        <ele>11.2</ele>
        <time>2020-02-21T10:23:22Z</time>
      </trkpt>
      <trkpt lat="38.8739430" lon="1.4035490">
        <ele>11.2</ele>
        <time>2020-02-21T10:23:23Z</time>
      </trkpt>
      <trkpt lat="38.8739100" lon="1.4035980">
        <ele>11.7</ele>
        <time>2020-02-21T10:23:45Z</time>
      </trkpt>
      <trkpt lat="38.8739010" lon="1.4036060">
        <ele>11.8</ele>
        <time>2020-02-21T10:23:46Z</time>
      </trkpt>
      <trkpt lat="38.8738900" lon="1.4036130">
        <ele>11.9</ele>
        <time>2020-02-21T10:23:47Z</time>
      </trkpt>
      <trkpt lat="38.8738870" lon="1.4036240">
        <ele>12.0</ele>
        <time>2020-02-21T10:23:48Z</time>
      </trkpt>
      <trkpt lat="38.8738850" lon="1.4036290">
        <ele>12.0</ele>
        <time>2020-02-21T10:23:49Z</time>
      </trkpt>
      <trkpt lat="38.8738800" lon="1.4036400">
        <ele>12.1</ele>
        <time>2020-02-21T10:23:50Z</time>
      </trkpt>
      <trkpt lat="38.8738730" lon="1.4036510">
        <ele>12.2</ele>
        <time>2020-02-21T10:23:51Z</time>
      </trkpt>
      <trkpt lat="38.8738540" lon="1.4036600">
        <ele>12.4</ele>
        <time>2020-02-21T10:23:52Z</time>
      </trkpt>
      <trkpt lat="38.8738340" lon="1.4036730">
        <ele>12.6</ele>
        <time>2020-02-21T10:23:53Z</time>
      </trkpt>
      <trkpt lat="38.8738290" lon="1.4036800">
        <ele>12.6</ele>
        <time>2020-02-21T10:23:54Z</time>
      </trkpt>
      <trkpt lat="38.8738240" lon="1.4036870">
        <ele>12.7</ele>
        <time>2020-02-21T10:23:55Z</time>
      </trkpt>
      <trkpt lat="38.8738140" lon="1.4036930">
        <ele>12.7</ele>
        <time>2020-02-21T10:23:56Z</time>
      </trkpt>
      <trkpt lat="38.8738040" lon="1.4036980">
        <ele>12.7</ele>
        <time>2020-02-21T10:23:57Z</time>
      </trkpt>
      <trkpt lat="38.8737940" lon="1.4036980">
        <ele>12.5</ele>
        <time>2020-02-21T10:23:58Z</time>
      </trkpt>
      <trkpt lat="38.8737620" lon="1.4036900">
        <ele>12.4</ele>
        <time>2020-02-21T10:23:59Z</time>
      </trkpt>
      <trkpt lat="38.8737500" lon="1.4036910">
        <ele>12.2</ele>
        <time>2020-02-21T10:24:00Z</time>
      </trkpt>
      <trkpt lat="38.8737310" lon="1.4036830">
        <ele>12.2</ele>
        <time>2020-02-21T10:24:01Z</time>
      </trkpt>
      <trkpt lat="38.8737220" lon="1.4036740">
        <ele>12.2</ele>
        <time>2020-02-21T10:24:02Z</time>
      </trkpt>
      <trkpt lat="38.8737140" lon="1.4036640">
        <ele>12.1</ele>
        <time>2020-02-21T10:24:03Z</time>
      </trkpt>
      <trkpt lat="38.8737000" lon="1.4036540">
        <ele>12.0</ele>
        <time>2020-02-21T10:24:04Z</time>
      </trkpt>
      <trkpt lat="38.8736880" lon="1.4036500">
        <ele>12.0</ele>
        <time>2020-02-21T10:24:05Z</time>
      </trkpt>
      <trkpt lat="38.8736760" lon="1.4036460">
        <ele>11.9</ele>
        <time>2020-02-21T10:24:06Z</time>
      </trkpt>
      <trkpt lat="38.8736600" lon="1.4036480">
        <ele>11.9</ele>
        <time>2020-02-21T10:24:07Z</time>
      </trkpt>
      <trkpt lat="38.8736310" lon="1.4036520">
        <ele>11.8</ele>
        <time>2020-02-21T10:24:08Z</time>
      </trkpt>
      <trkpt lat="38.8736220" lon="1.4036530">
        <ele>11.8</ele>
        <time>2020-02-21T10:24:09Z</time>
      </trkpt>
      <trkpt lat="38.8735950" lon="1.4036430">
        <ele>11.7</ele>
        <time>2020-02-21T10:24:10Z</time>
      </trkpt>
      <trkpt lat="38.8735880" lon="1.4036360">
        <ele>11.7</ele>
        <time>2020-02-21T10:24:11Z</time>
      </trkpt>
      <trkpt lat="38.8735610" lon="1.4036240">
        <ele>11.9</ele>
        <time>2020-02-21T10:24:12Z</time>
      </trkpt>
      <trkpt lat="38.8735520" lon="1.4036190">
        <ele>11.8</ele>
        <time>2020-02-21T10:24:13Z</time>
      </trkpt>
      <trkpt lat="38.8735340" lon="1.4036240">
        <ele>11.7</ele>
        <time>2020-02-21T10:24:14Z</time>
      </trkpt>
      <trkpt lat="38.8735220" lon="1.4036390">
        <ele>11.6</ele>
        <time>2020-02-21T10:24:15Z</time>
      </trkpt>
      <trkpt lat="38.8735190" lon="1.4036480">
        <ele>11.5</ele>
        <time>2020-02-21T10:24:16Z</time>
      </trkpt>
      <trkpt lat="38.8735150" lon="1.4036560">
        <ele>11.4</ele>
        <time>2020-02-21T10:24:17Z</time>
      </trkpt>
      <trkpt lat="38.8735120" lon="1.4036640">
        <ele>11.3</ele>
        <time>2020-02-21T10:24:18Z</time>
      </trkpt>
      <trkpt lat="38.8734950" lon="1.4036840">
        <ele>11.1</ele>
        <time>2020-02-21T10:24:19Z</time>
      </trkpt>
      <trkpt lat="38.8734880" lon="1.4036980">
        <ele>11.1</ele>
        <time>2020-02-21T10:24:20Z</time>
      </trkpt>
      <trkpt lat="38.8734810" lon="1.4037110">
        <ele>11.0</ele>
        <time>2020-02-21T10:24:21Z</time>
      </trkpt>
      <trkpt lat="38.8734660" lon="1.4037350">
        <ele>10.7</ele>
        <time>2020-02-21T10:24:22Z</time>
      </trkpt>
      <trkpt lat="38.8734570" lon="1.4037450">
        <ele>10.7</ele>
        <time>2020-02-21T10:24:23Z</time>
      </trkpt>
      <trkpt lat="38.8734450" lon="1.4037520">
        <ele>10.6</ele>
        <time>2020-02-21T10:24:24Z</time>
      </trkpt>
      <trkpt lat="38.8734330" lon="1.4037680">
        <ele>10.3</ele>
        <time>2020-02-21T10:24:25Z</time>
      </trkpt>
      <trkpt lat="38.8734220" lon="1.4037870">
        <ele>10.2</ele>
        <time>2020-02-21T10:24:26Z</time>
      </trkpt>
      <trkpt lat="38.8734080" lon="1.4038020">
        <ele>10.2</ele>
        <time>2020-02-21T10:24:27Z</time>
      </trkpt>
      <trkpt lat="38.8733940" lon="1.4038120">
        <ele>9.8</ele>
        <time>2020-02-21T10:24:28Z</time>
      </trkpt>
      <trkpt lat="38.8733810" lon="1.4038210">
        <ele>9.8</ele>
        <time>2020-02-21T10:24:29Z</time>
      </trkpt>
      <trkpt lat="38.8733570" lon="1.4038470">
        <ele>9.4</ele>
        <time>2020-02-21T10:24:30Z</time>
      </trkpt>
      <trkpt lat="38.8733490" lon="1.4038540">
        <ele>9.3</ele>
        <time>2020-02-21T10:24:31Z</time>
      </trkpt>
      <trkpt lat="38.8733250" lon="1.4038760">
        <ele>9.3</ele>
        <time>2020-02-21T10:24:32Z</time>
      </trkpt>
      <trkpt lat="38.8733150" lon="1.4038810">
        <ele>9.2</ele>
        <time>2020-02-21T10:24:33Z</time>
      </trkpt>
      <trkpt lat="38.8732990" lon="1.4038840">
        <ele>9.1</ele>
        <time>2020-02-21T10:24:34Z</time>
      </trkpt>
      <trkpt lat="38.8732820" lon="1.4038790">
        <ele>9.1</ele>
        <time>2020-02-21T10:24:35Z</time>
      </trkpt>
      <trkpt lat="38.8732650" lon="1.4038800">
        <ele>9.0</ele>
        <time>2020-02-21T10:24:36Z</time>
      </trkpt>
      <trkpt lat="38.8732530" lon="1.4038840">
        <ele>9.0</ele>
        <time>2020-02-21T10:24:37Z</time>
      </trkpt>
      <trkpt lat="38.8732260" lon="1.4038960">
        <ele>8.7</ele>
        <time>2020-02-21T10:24:38Z</time>
      </trkpt>
      <trkpt lat="38.8732110" lon="1.4039020">
        <ele>8.7</ele>
        <time>2020-02-21T10:24:39Z</time>
      </trkpt>
      <trkpt lat="38.8731780" lon="1.4039260">
        <ele>8.6</ele>
        <time>2020-02-21T10:24:40Z</time>
      </trkpt>
      <trkpt lat="38.8731680" lon="1.4039330">
        <ele>8.4</ele>
        <time>2020-02-21T10:24:41Z</time>
      </trkpt>
      <trkpt lat="38.8731380" lon="1.4039580">
        <ele>8.3</ele>
        <time>2020-02-21T10:24:42Z</time>
      </trkpt>
      <trkpt lat="38.8731300" lon="1.4039680">
        <ele>8.2</ele>
        <time>2020-02-21T10:24:43Z</time>
      </trkpt>
      <trkpt lat="38.8731080" lon="1.4040010">
        <ele>8.0</ele>
        <time>2020-02-21T10:24:44Z</time>
      </trkpt>
      <trkpt lat="38.8731010" lon="1.4040160">
        <ele>7.9</ele>
        <time>2020-02-21T10:24:45Z</time>
      </trkpt>
      <trkpt lat="38.8731050" lon="1.4040620">
        <ele>7.7</ele>
        <time>2020-02-21T10:24:46Z</time>
      </trkpt>
      <trkpt lat="38.8731080" lon="1.4040780">
        <ele>7.6</ele>
        <time>2020-02-21T10:24:47Z</time>
      </trkpt>
      <trkpt lat="38.8731250" lon="1.4041190">
        <ele>7.4</ele>
        <time>2020-02-21T10:24:48Z</time>
      </trkpt>
      <trkpt lat="38.8731330" lon="1.4041350">
        <ele>7.3</ele>
        <time>2020-02-21T10:24:49Z</time>
      </trkpt>
      <trkpt lat="38.8731590" lon="1.4041500">
        <ele>7.2</ele>
        <time>2020-02-21T10:24:50Z</time>
      </trkpt>
      <trkpt lat="38.8731690" lon="1.4041510">
        <ele>7.1</ele>
        <time>2020-02-21T10:24:51Z</time>
      </trkpt>
      <trkpt lat="38.8731960" lon="1.4041700">
        <ele>7.1</ele>
        <time>2020-02-21T10:24:52Z</time>
      </trkpt>
      <trkpt lat="38.8732040" lon="1.4041760">
        <ele>7.0</ele>
        <time>2020-02-21T10:24:53Z</time>
      </trkpt>
      <trkpt lat="38.8732340" lon="1.4041700">
        <ele>7.0</ele>
        <time>2020-02-21T10:24:54Z</time>
      </trkpt>
      <trkpt lat="38.8732470" lon="1.4041650">
        <ele>6.9</ele>
        <time>2020-02-21T10:24:55Z</time>
      </trkpt>
      <trkpt lat="38.8732650" lon="1.4041630">
        <ele>6.9</ele>
        <time>2020-02-21T10:24:56Z</time>
      </trkpt>
      <trkpt lat="38.8732790" lon="1.4041540">
        <ele>6.8</ele>
        <time>2020-02-21T10:24:57Z</time>
      </trkpt>
      <trkpt lat="38.8732960" lon="1.4041250">
        <ele>6.8</ele>
        <time>2020-02-21T10:24:58Z</time>
      </trkpt>
      <trkpt lat="38.8733000" lon="1.4041140">
        <ele>6.7</ele>
        <time>2020-02-21T10:24:59Z</time>
      </trkpt>
      <trkpt lat="38.8733120" lon="1.4040900">
        <ele>6.6</ele>
        <time>2020-02-21T10:25:00Z</time>
      </trkpt>
      <trkpt lat="38.8733170" lon="1.4040730">
        <ele>6.6</ele>
        <time>2020-02-21T10:25:01Z</time>
      </trkpt>
      <trkpt lat="38.8733150" lon="1.4040320">
        <ele>6.5</ele>
        <time>2020-02-21T10:25:02Z</time>
      </trkpt>
      <trkpt lat="38.8733150" lon="1.4040190">
        <ele>6.4</ele>
        <time>2020-02-21T10:25:03Z</time>
      </trkpt>
      <trkpt lat="38.8733120" lon="1.4039960">
        <ele>6.4</ele>
        <time>2020-02-21T10:25:04Z</time>
      </trkpt>
      <trkpt lat="38.8733060" lon="1.4039750">
        <ele>6.5</ele>
        <time>2020-02-21T10:25:05Z</time>
      </trkpt>
      <trkpt lat="38.8733000" lon="1.4039360">
        <ele>6.4</ele>
        <time>2020-02-21T10:25:06Z</time>
      </trkpt>
      <trkpt lat="38.8732980" lon="1.4039240">
        <ele>6.5</ele>
        <time>2020-02-21T10:25:07Z</time>
      </trkpt>
      <trkpt lat="38.8733220" lon="1.4038920">
        <ele>6.4</ele>
        <time>2020-02-21T10:25:08Z</time>
      </trkpt>
      <trkpt lat="38.8733300" lon="1.4038780">
        <ele>6.6</ele>
        <time>2020-02-21T10:25:09Z</time>
      </trkpt>
      <trkpt lat="38.8733620" lon="1.4038520">
        <ele>6.5</ele>
        <time>2020-02-21T10:25:10Z</time>
      </trkpt>
      <trkpt lat="38.8733730" lon="1.4038430">
        <ele>6.7</ele>
        <time>2020-02-21T10:25:11Z</time>
      </trkpt>
      <trkpt lat="38.8734040" lon="1.4038140">
        <ele>6.6</ele>
        <time>2020-02-21T10:25:12Z</time>
      </trkpt>
      <trkpt lat="38.8734150" lon="1.4038030">
        <ele>6.8</ele>
        <time>2020-02-21T10:25:13Z</time>
      </trkpt>
      <trkpt lat="38.8734440" lon="1.4037680">
        <ele>6.8</ele>
        <time>2020-02-21T10:25:14Z</time>
      </trkpt>
      <trkpt lat="38.8734540" lon="1.4037550">
        <ele>6.9</ele>
        <time>2020-02-21T10:25:15Z</time>
      </trkpt>
      <trkpt lat="38.8734730" lon="1.4037260">
        <ele>6.8</ele>
        <time>2020-02-21T10:25:16Z</time>
      </trkpt>
      <trkpt lat="38.8735030" lon="1.4036970">
        <ele>6.9</ele>
        <time>2020-02-21T10:25:17Z</time>
      </trkpt>
      <trkpt lat="38.8735230" lon="1.4036670">
        <ele>7.0</ele>
        <time>2020-02-21T10:25:18Z</time>
      </trkpt>
      <trkpt lat="38.8735400" lon="1.4036400">
        <ele>6.8</ele>
        <time>2020-02-21T10:25:19Z</time>
      </trkpt>
      <trkpt lat="38.8735570" lon="1.4036040">
        <ele>6.9</ele>
        <time>2020-02-21T10:25:20Z</time>
      </trkpt>
      <trkpt lat="38.8735690" lon="1.4035680">
        <ele>7.0</ele>
        <time>2020-02-21T10:25:21Z</time>
      </trkpt>
      <trkpt lat="38.8735650" lon="1.4035150">
        <ele>7.1</ele>
        <time>2020-02-21T10:25:22Z</time>
      </trkpt>
      <trkpt lat="38.8735610" lon="1.4034930">
        <ele>7.2</ele>
        <time>2020-02-21T10:25:23Z</time>
      </trkpt>
      <trkpt lat="38.8735650" lon="1.4034420">
        <ele>7.3</ele>
        <time>2020-02-21T10:25:24Z</time>
      </trkpt>
      <trkpt lat="38.8735710" lon="1.4033950">
        <ele>7.4</ele>
        <time>2020-02-21T10:25:25Z</time>
      </trkpt>
      <trkpt lat="38.8735790" lon="1.4033580">
        <ele>7.5</ele>
        <time>2020-02-21T10:25:26Z</time>
      </trkpt>
      <trkpt lat="38.8735890" lon="1.4033240">
        <ele>7.6</ele>
        <time>2020-02-21T10:25:27Z</time>
      </trkpt>
      <trkpt lat="38.8735960" lon="1.4032830">
        <ele>7.7</ele>
        <time>2020-02-21T10:25:28Z</time>
      </trkpt>
      <trkpt lat="38.8736030" lon="1.4032390">
        <ele>7.8</ele>
        <time>2020-02-21T10:25:29Z</time>
      </trkpt>
      <trkpt lat="38.8735810" lon="1.4031930">
        <ele>7.9</ele>
        <time>2020-02-21T10:25:30Z</time>
      </trkpt>
      <trkpt lat="38.8735360" lon="1.4031730">
        <ele>8.1</ele>
        <time>2020-02-21T10:25:31Z</time>
      </trkpt>
      <trkpt lat="38.8734750" lon="1.4031360">
        <ele>8.2</ele>
        <time>2020-02-21T10:25:32Z</time>
      </trkpt>
      <trkpt lat="38.8734230" lon="1.4030870">
        <ele>8.5</ele>
        <time>2020-02-21T10:25:33Z</time>
      </trkpt>
      <trkpt lat="38.8733800" lon="1.4030380">
        <ele>8.6</ele>
        <time>2020-02-21T10:25:34Z</time>
      </trkpt>
      <trkpt lat="38.8733470" lon="1.4030010">
        <ele>8.6</ele>
        <time>2020-02-21T10:25:35Z</time>
      </trkpt>
      <trkpt lat="38.8733230" lon="1.4029690">
        <ele>8.7</ele>
        <time>2020-02-21T10:25:36Z</time>
      </trkpt>
      <trkpt lat="38.8732960" lon="1.4029350">
        <ele>8.8</ele>
        <time>2020-02-21T10:25:37Z</time>
      </trkpt>
      <trkpt lat="38.8732710" lon="1.4028960">
        <ele>8.9</ele>
        <time>2020-02-21T10:25:38Z</time>
      </trkpt>
      <trkpt lat="38.8732410" lon="1.4028560">
        <ele>8.9</ele>
        <time>2020-02-21T10:25:39Z</time>
      </trkpt>
      <trkpt lat="38.8732080" lon="1.4028210">
        <ele>9.0</ele>
        <time>2020-02-21T10:25:40Z</time>
      </trkpt>
      <trkpt lat="38.8731780" lon="1.4027870">
        <ele>9.1</ele>
        <time>2020-02-21T10:25:41Z</time>
      </trkpt>
      <trkpt lat="38.8731490" lon="1.4027410">
        <ele>9.3</ele>
        <time>2020-02-21T10:25:42Z</time>
      </trkpt>
      <trkpt lat="38.8731300" lon="1.4026840">
        <ele>9.4</ele>
        <time>2020-02-21T10:25:43Z</time>
      </trkpt>
      <trkpt lat="38.8731240" lon="1.4026220">
        <ele>9.6</ele>
        <time>2020-02-21T10:25:44Z</time>
      </trkpt>
      <trkpt lat="38.8731130" lon="1.4025650">
        <ele>9.7</ele>
        <time>2020-02-21T10:25:45Z</time>
      </trkpt>
      <trkpt lat="38.8731110" lon="1.4025070">
        <ele>10.0</ele>
        <time>2020-02-21T10:25:46Z</time>
      </trkpt>
      <trkpt lat="38.8730910" lon="1.4024620">
        <ele>10.2</ele>
        <time>2020-02-21T10:25:47Z</time>
      </trkpt>
      <trkpt lat="38.8730760" lon="1.4024140">
        <ele>10.4</ele>
        <time>2020-02-21T10:25:48Z</time>
      </trkpt>
      <trkpt lat="38.8730580" lon="1.4023660">
        <ele>10.5</ele>
        <time>2020-02-21T10:25:49Z</time>
      </trkpt>
      <trkpt lat="38.8730490" lon="1.4023190">
        <ele>10.7</ele>
        <time>2020-02-21T10:25:50Z</time>
      </trkpt>
      <trkpt lat="38.8730350" lon="1.4022650">
        <ele>10.9</ele>
        <time>2020-02-21T10:25:51Z</time>
      </trkpt>
      <trkpt lat="38.8730250" lon="1.4022200">
        <ele>11.0</ele>
        <time>2020-02-21T10:25:52Z</time>
      </trkpt>
      <trkpt lat="38.8730140" lon="1.4021730">
        <ele>11.1</ele>
        <time>2020-02-21T10:25:53Z</time>
      </trkpt>
      <trkpt lat="38.8730090" lon="1.4021220">
        <ele>11.3</ele>
        <time>2020-02-21T10:25:54Z</time>
      </trkpt>
      <trkpt lat="38.8730020" lon="1.4020690">
        <ele>11.4</ele>
        <time>2020-02-21T10:25:55Z</time>
      </trkpt>
      <trkpt lat="38.8729930" lon="1.4020170">
        <ele>11.6</ele>
        <time>2020-02-21T10:25:56Z</time>
      </trkpt>
      <trkpt lat="38.8729830" lon="1.4019710">
        <ele>11.7</ele>
        <time>2020-02-21T10:25:57Z</time>
      </trkpt>
      <trkpt lat="38.8729840" lon="1.4019290">
        <ele>11.9</ele>
        <time>2020-02-21T10:25:58Z</time>
      </trkpt>
      <trkpt lat="38.8729820" lon="1.4018900">
        <ele>12.0</ele>
        <time>2020-02-21T10:25:59Z</time>
      </trkpt>
      <trkpt lat="38.8729860" lon="1.4018500">
        <ele>12.1</ele>
        <time>2020-02-21T10:26:00Z</time>
      </trkpt>
      <trkpt lat="38.8729800" lon="1.4018110">
        <ele>12.2</ele>
        <time>2020-02-21T10:26:01Z</time>
      </trkpt>
      <trkpt lat="38.8729730" lon="1.4017760">
        <ele>12.3</ele>
        <time>2020-02-21T10:26:02Z</time>
      </trkpt>
      <trkpt lat="38.8729680" lon="1.4017330">
        <ele>12.5</ele>
        <time>2020-02-21T10:26:03Z</time>
      </trkpt>
      <trkpt lat="38.8729660" lon="1.4016820">
        <ele>12.6</ele>
        <time>2020-02-21T10:26:04Z</time>
      </trkpt>
      <trkpt lat="38.8729820" lon="1.4016370">
        <ele>12.7</ele>
        <time>2020-02-21T10:26:05Z</time>
      </trkpt>
      <trkpt lat="38.8729740" lon="1.4015920">
        <ele>12.8</ele>
        <time>2020-02-21T10:26:06Z</time>
      </trkpt>
      <trkpt lat="38.8729540" lon="1.4015490">
        <ele>12.9</ele>
        <time>2020-02-21T10:26:07Z</time>
      </trkpt>
      <trkpt lat="38.8729490" lon="1.4014930">
        <ele>13.1</ele>
        <time>2020-02-21T10:26:08Z</time>
      </trkpt>
      <trkpt lat="38.8729520" lon="1.4014490">
        <ele>13.1</ele>
        <time>2020-02-21T10:26:09Z</time>
      </trkpt>
      <trkpt lat="38.8729590" lon="1.4014050">
        <ele>13.1</ele>
        <time>2020-02-21T10:26:10Z</time>
      </trkpt>
      <trkpt lat="38.8729620" lon="1.4013610">
        <ele>13.2</ele>
        <time>2020-02-21T10:26:11Z</time>
      </trkpt>
      <trkpt lat="38.8729570" lon="1.4013070">
        <ele>13.2</ele>
        <time>2020-02-21T10:26:12Z</time>
      </trkpt>
      <trkpt lat="38.8729470" lon="1.4012620">
        <ele>13.2</ele>
        <time>2020-02-21T10:26:13Z</time>
      </trkpt>
      <trkpt lat="38.8729440" lon="1.4012160">
        <ele>13.2</ele>
        <time>2020-02-21T10:26:14Z</time>
      </trkpt>
      <trkpt lat="38.8729430" lon="1.4011680">
        <ele>13.2</ele>
        <time>2020-02-21T10:26:15Z</time>
      </trkpt>
      <trkpt lat="38.8729420" lon="1.4011250">
        <ele>13.2</ele>
        <time>2020-02-21T10:26:16Z</time>
      </trkpt>
      <trkpt lat="38.8729400" lon="1.4010900">
        <ele>13.2</ele>
        <time>2020-02-21T10:26:17Z</time>
      </trkpt>
      <trkpt lat="38.8729470" lon="1.4010400">
        <ele>13.1</ele>
        <time>2020-02-21T10:26:18Z</time>
      </trkpt>
      <trkpt lat="38.8729430" lon="1.4010000">
        <ele>13.1</ele>
        <time>2020-02-21T10:26:19Z</time>
      </trkpt>
      <trkpt lat="38.8729400" lon="1.4009490">
        <ele>13.1</ele>
        <time>2020-02-21T10:26:20Z</time>
      </trkpt>
      <trkpt lat="38.8729300" lon="1.4008990">
        <ele>13.1</ele>
        <time>2020-02-21T10:26:21Z</time>
      </trkpt>
      <trkpt lat="38.8729260" lon="1.4008550">
        <ele>13.1</ele>
        <time>2020-02-21T10:26:22Z</time>
      </trkpt>
      <trkpt lat="38.8729070" lon="1.4008260">
        <ele>13.1</ele>
        <time>2020-02-21T10:26:23Z</time>
      </trkpt>
      <trkpt lat="38.8728890" lon="1.4007960">
        <ele>13.1</ele>
        <time>2020-02-21T10:26:24Z</time>
      </trkpt>
      <trkpt lat="38.8728800" lon="1.4007840">
        <ele>13.1</ele>
        <time>2020-02-21T10:26:25Z</time>
      </trkpt>
      <trkpt lat="38.8728480" lon="1.4007500">
        <ele>13.1</ele>
        <time>2020-02-21T10:26:26Z</time>
      </trkpt>
      <trkpt lat="38.8728340" lon="1.4007420">
        <ele>13.1</ele>
        <time>2020-02-21T10:26:27Z</time>
      </trkpt>
      <trkpt lat="38.8728150" lon="1.4007070">
        <ele>13.1</ele>
        <time>2020-02-21T10:26:28Z</time>
      </trkpt>
      <trkpt lat="38.8728070" lon="1.4006660">
        <ele>13.1</ele>
        <time>2020-02-21T10:26:29Z</time>
      </trkpt>
      <trkpt lat="38.8727940" lon="1.4006150">
        <ele>13.1</ele>
        <time>2020-02-21T10:26:30Z</time>
      </trkpt>
      <trkpt lat="38.8727760" lon="1.4005800">
        <ele>13.1</ele>
        <time>2020-02-21T10:26:31Z</time>
      </trkpt>
      <trkpt lat="38.8727620" lon="1.4005340">
        <ele>13.1</ele>
        <time>2020-02-21T10:26:32Z</time>
      </trkpt>
      <trkpt lat="38.8727500" lon="1.4004910">
        <ele>13.0</ele>
        <time>2020-02-21T10:26:33Z</time>
      </trkpt>
      <trkpt lat="38.8727380" lon="1.4004490">
        <ele>12.9</ele>
        <time>2020-02-21T10:26:34Z</time>
      </trkpt>
      <trkpt lat="38.8727260" lon="1.4004180">
        <ele>12.9</ele>
        <time>2020-02-21T10:26:35Z</time>
      </trkpt>
      <trkpt lat="38.8727210" lon="1.4003750">
        <ele>12.8</ele>
        <time>2020-02-21T10:26:36Z</time>
      </trkpt>
      <trkpt lat="38.8727140" lon="1.4003320">
        <ele>12.8</ele>
        <time>2020-02-21T10:26:37Z</time>
      </trkpt>
      <trkpt lat="38.8727030" lon="1.4002810">
        <ele>12.7</ele>
        <time>2020-02-21T10:26:38Z</time>
      </trkpt>
      <trkpt lat="38.8726890" lon="1.4002350">
        <ele>12.7</ele>
        <time>2020-02-21T10:26:39Z</time>
      </trkpt>
      <trkpt lat="38.8726750" lon="1.4001840">
        <ele>12.6</ele>
        <time>2020-02-21T10:26:40Z</time>
      </trkpt>
      <trkpt lat="38.8726660" lon="1.4001310">
        <ele>12.5</ele>
        <time>2020-02-21T10:26:41Z</time>
      </trkpt>
      <trkpt lat="38.8726590" lon="1.4000760">
        <ele>12.5</ele>
        <time>2020-02-21T10:26:42Z</time>
      </trkpt>
      <trkpt lat="38.8726360" lon="1.4000340">
        <ele>12.4</ele>
        <time>2020-02-21T10:26:43Z</time>
      </trkpt>
      <trkpt lat="38.8726220" lon="1.3999810">
        <ele>12.3</ele>
        <time>2020-02-21T10:26:44Z</time>
      </trkpt>
      <trkpt lat="38.8726120" lon="1.3999300">
        <ele>12.3</ele>
        <time>2020-02-21T10:26:45Z</time>
      </trkpt>
      <trkpt lat="38.8725850" lon="1.3998920">
        <ele>12.2</ele>
        <time>2020-02-21T10:26:46Z</time>
      </trkpt>
      <trkpt lat="38.8725640" lon="1.3998420">
        <ele>12.2</ele>
        <time>2020-02-21T10:26:47Z</time>
      </trkpt>
      <trkpt lat="38.8725490" lon="1.3997870">
        <ele>12.1</ele>
        <time>2020-02-21T10:26:48Z</time>
      </trkpt>
      <trkpt lat="38.8725350" lon="1.3997260">
        <ele>12.0</ele>
        <time>2020-02-21T10:26:49Z</time>
      </trkpt>
      <trkpt lat="38.8725240" lon="1.3996560">
        <ele>11.9</ele>
        <time>2020-02-21T10:26:50Z</time>
      </trkpt>
      <trkpt lat="38.8725130" lon="1.3995900">
        <ele>11.8</ele>
        <time>2020-02-21T10:26:51Z</time>
      </trkpt>
      <trkpt lat="38.8724920" lon="1.3995360">
        <ele>11.7</ele>
        <time>2020-02-21T10:26:52Z</time>
      </trkpt>
      <trkpt lat="38.8724660" lon="1.3994890">
        <ele>11.6</ele>
        <time>2020-02-21T10:26:53Z</time>
      </trkpt>
      <trkpt lat="38.8724310" lon="1.3994480">
        <ele>11.5</ele>
        <time>2020-02-21T10:26:54Z</time>
      </trkpt>
      <trkpt lat="38.8723910" lon="1.3994070">
        <ele>11.4</ele>
        <time>2020-02-21T10:26:55Z</time>
      </trkpt>
      <trkpt lat="38.8723500" lon="1.3993590">
        <ele>11.2</ele>
        <time>2020-02-21T10:26:56Z</time>
      </trkpt>
      <trkpt lat="38.8723080" lon="1.3993080">
        <ele>11.0</ele>
        <time>2020-02-21T10:26:57Z</time>
      </trkpt>
      <trkpt lat="38.8722720" lon="1.3992440">
        <ele>10.8</ele>
        <time>2020-02-21T10:26:58Z</time>
      </trkpt>
      <trkpt lat="38.8722410" lon="1.3991700">
        <ele>10.6</ele>
        <time>2020-02-21T10:26:59Z</time>
      </trkpt>
      <trkpt lat="38.8722120" lon="1.3991030">
        <ele>10.4</ele>
        <time>2020-02-21T10:27:00Z</time>
      </trkpt>
      <trkpt lat="38.8721810" lon="1.3990370">
        <ele>10.1</ele>
        <time>2020-02-21T10:27:01Z</time>
      </trkpt>
      <trkpt lat="38.8721520" lon="1.3989610">
        <ele>9.8</ele>
        <time>2020-02-21T10:27:02Z</time>
      </trkpt>
      <trkpt lat="38.8721280" lon="1.3988840">
        <ele>9.6</ele>
        <time>2020-02-21T10:27:03Z</time>
      </trkpt>
      <trkpt lat="38.8721120" lon="1.3988120">
        <ele>9.4</ele>
        <time>2020-02-21T10:27:04Z</time>
      </trkpt>
      <trkpt lat="38.8720960" lon="1.3987290">
        <ele>9.2</ele>
        <time>2020-02-21T10:27:05Z</time>
      </trkpt>
      <trkpt lat="38.8720810" lon="1.3986560">
        <ele>9.0</ele>
        <time>2020-02-21T10:27:06Z</time>
      </trkpt>
      <trkpt lat="38.8720540" lon="1.3985760">
        <ele>8.8</ele>
        <time>2020-02-21T10:27:07Z</time>
      </trkpt>
      <trkpt lat="38.8720270" lon="1.3984960">
        <ele>8.5</ele>
        <time>2020-02-21T10:27:08Z</time>
      </trkpt>
      <trkpt lat="38.8720040" lon="1.3984070">
        <ele>8.4</ele>
        <time>2020-02-21T10:27:09Z</time>
      </trkpt>
      <trkpt lat="38.8719770" lon="1.3983230">
        <ele>8.3</ele>
        <time>2020-02-21T10:27:10Z</time>
      </trkpt>
      <trkpt lat="38.8719500" lon="1.3982470">
        <ele>8.2</ele>
        <time>2020-02-21T10:27:11Z</time>
      </trkpt>
      <trkpt lat="38.8719260" lon="1.3981630">
        <ele>8.1</ele>
        <time>2020-02-21T10:27:12Z</time>
      </trkpt>
      <trkpt lat="38.8719040" lon="1.3980790">
        <ele>8.0</ele>
        <time>2020-02-21T10:27:13Z</time>
      </trkpt>
      <trkpt lat="38.8718810" lon="1.3980050">
        <ele>8.0</ele>
        <time>2020-02-21T10:27:14Z</time>
      </trkpt>
      <trkpt lat="38.8718540" lon="1.3979300">
        <ele>7.9</ele>
        <time>2020-02-21T10:27:15Z</time>
      </trkpt>
      <trkpt lat="38.8718370" lon="1.3978490">
        <ele>7.8</ele>
        <time>2020-02-21T10:27:16Z</time>
      </trkpt>
      <trkpt lat="38.8718190" lon="1.3977780">
        <ele>7.7</ele>
        <time>2020-02-21T10:27:17Z</time>
      </trkpt>
      <trkpt lat="38.8718010" lon="1.3976980">
        <ele>7.7</ele>
        <time>2020-02-21T10:27:18Z</time>
      </trkpt>
      <trkpt lat="38.8717850" lon="1.3976250">
        <ele>7.6</ele>
        <time>2020-02-21T10:27:19Z</time>
      </trkpt>
      <trkpt lat="38.8717690" lon="1.3975570">
        <ele>7.5</ele>
        <time>2020-02-21T10:27:20Z</time>
      </trkpt>
      <trkpt lat="38.8717560" lon="1.3974860">
        <ele>7.5</ele>
        <time>2020-02-21T10:27:21Z</time>
      </trkpt>
      <trkpt lat="38.8717440" lon="1.3974130">
        <ele>7.4</ele>
        <time>2020-02-21T10:27:22Z</time>
      </trkpt>
      <trkpt lat="38.8717320" lon="1.3973450">
        <ele>7.3</ele>
        <time>2020-02-21T10:27:23Z</time>
      </trkpt>
      <trkpt lat="38.8717190" lon="1.3972890">
        <ele>7.3</ele>
        <time>2020-02-21T10:27:24Z</time>
      </trkpt>
      <trkpt lat="38.8717060" lon="1.3972320">
        <ele>7.2</ele>
        <time>2020-02-21T10:27:25Z</time>
      </trkpt>
      <trkpt lat="38.8716910" lon="1.3971760">
        <ele>7.2</ele>
        <time>2020-02-21T10:27:26Z</time>
      </trkpt>
      <trkpt lat="38.8716770" lon="1.3971130">
        <ele>7.1</ele>
        <time>2020-02-21T10:27:27Z</time>
      </trkpt>
      <trkpt lat="38.8716540" lon="1.3970530">
        <ele>7.1</ele>
        <time>2020-02-21T10:27:28Z</time>
      </trkpt>
      <trkpt lat="38.8716330" lon="1.3969920">
        <ele>7.0</ele>
        <time>2020-02-21T10:27:29Z</time>
      </trkpt>
      <trkpt lat="38.8716110" lon="1.3969300">
        <ele>6.9</ele>
        <time>2020-02-21T10:27:30Z</time>
      </trkpt>
      <trkpt lat="38.8715930" lon="1.3968780">
        <ele>6.9</ele>
        <time>2020-02-21T10:27:31Z</time>
      </trkpt>
      <trkpt lat="38.8715760" lon="1.3968220">
        <ele>6.8</ele>
        <time>2020-02-21T10:27:32Z</time>
      </trkpt>
      <trkpt lat="38.8715630" lon="1.3967720">
        <ele>6.8</ele>
        <time>2020-02-21T10:27:33Z</time>
      </trkpt>
      <trkpt lat="38.8715540" lon="1.3967180">
        <ele>6.8</ele>
        <time>2020-02-21T10:27:34Z</time>
      </trkpt>
      <trkpt lat="38.8715400" lon="1.3966460">
        <ele>6.7</ele>
        <time>2020-02-21T10:27:35Z</time>
      </trkpt>
      <trkpt lat="38.8715260" lon="1.3965750">
        <ele>6.6</ele>
        <time>2020-02-21T10:27:36Z</time>
      </trkpt>
      <trkpt lat="38.8715060" lon="1.3965090">
        <ele>6.6</ele>
        <time>2020-02-21T10:27:37Z</time>
      </trkpt>
      <trkpt lat="38.8714840" lon="1.3964510">
        <ele>6.5</ele>
        <time>2020-02-21T10:27:38Z</time>
      </trkpt>
      <trkpt lat="38.8714600" lon="1.3964040">
        <ele>6.4</ele>
        <time>2020-02-21T10:27:39Z</time>
      </trkpt>
      <trkpt lat="38.8714430" lon="1.3963540">
        <ele>6.4</ele>
        <time>2020-02-21T10:27:40Z</time>
      </trkpt>
      <trkpt lat="38.8714310" lon="1.3962960">
        <ele>6.3</ele>
        <time>2020-02-21T10:27:41Z</time>
      </trkpt>
      <trkpt lat="38.8714200" lon="1.3962240">
        <ele>6.2</ele>
        <time>2020-02-21T10:27:42Z</time>
      </trkpt>
      <trkpt lat="38.8714040" lon="1.3961730">
        <ele>6.2</ele>
        <time>2020-02-21T10:27:43Z</time>
      </trkpt>
      <trkpt lat="38.8713910" lon="1.3961120">
        <ele>6.1</ele>
        <time>2020-02-21T10:27:44Z</time>
      </trkpt>
      <trkpt lat="38.8713730" lon="1.3960550">
        <ele>5.5</ele>
        <time>2020-02-21T10:27:45Z</time>
      </trkpt>
      <trkpt lat="38.8713560" lon="1.3959950">
        <ele>5.4</ele>
        <time>2020-02-21T10:27:46Z</time>
      </trkpt>
      <trkpt lat="38.8713450" lon="1.3959380">
        <ele>5.2</ele>
        <time>2020-02-21T10:27:47Z</time>
      </trkpt>
      <trkpt lat="38.8713550" lon="1.3958700">
        <ele>5.0</ele>
        <time>2020-02-21T10:27:48Z</time>
      </trkpt>
      <trkpt lat="38.8713640" lon="1.3957960">
        <ele>4.8</ele>
        <time>2020-02-21T10:27:49Z</time>
      </trkpt>
      <trkpt lat="38.8713700" lon="1.3957250">
        <ele>4.6</ele>
        <time>2020-02-21T10:27:50Z</time>
      </trkpt>
      <trkpt lat="38.8713670" lon="1.3956580">
        <ele>4.4</ele>
        <time>2020-02-21T10:27:51Z</time>
      </trkpt>
      <trkpt lat="38.8713540" lon="1.3955910">
        <ele>4.2</ele>
        <time>2020-02-21T10:27:52Z</time>
      </trkpt>
      <trkpt lat="38.8713300" lon="1.3955280">
        <ele>4.1</ele>
        <time>2020-02-21T10:27:53Z</time>
      </trkpt>
      <trkpt lat="38.8713020" lon="1.3954630">
        <ele>3.9</ele>
        <time>2020-02-21T10:27:54Z</time>
      </trkpt>
      <trkpt lat="38.8712640" lon="1.3954020">
        <ele>3.7</ele>
        <time>2020-02-21T10:27:55Z</time>
      </trkpt>
      <trkpt lat="38.8712330" lon="1.3953370">
        <ele>3.6</ele>
        <time>2020-02-21T10:27:56Z</time>
      </trkpt>
      <trkpt lat="38.8712050" lon="1.3952660">
        <ele>3.5</ele>
        <time>2020-02-21T10:27:57Z</time>
      </trkpt>
      <trkpt lat="38.8711730" lon="1.3952020">
        <ele>3.5</ele>
        <time>2020-02-21T10:27:58Z</time>
      </trkpt>
      <trkpt lat="38.8711450" lon="1.3951320">
        <ele>3.5</ele>
        <time>2020-02-21T10:27:59Z</time>
      </trkpt>
      <trkpt lat="38.8711140" lon="1.3950640">
        <ele>3.6</ele>
        <time>2020-02-21T10:28:00Z</time>
      </trkpt>
      <trkpt lat="38.8710810" lon="1.3949940">
        <ele>3.8</ele>
        <time>2020-02-21T10:28:01Z</time>
      </trkpt>
      <trkpt lat="38.8710470" lon="1.3949270">
        <ele>4.0</ele>
        <time>2020-02-21T10:28:02Z</time>
      </trkpt>
      <trkpt lat="38.8710120" lon="1.3948550">
        <ele>4.1</ele>
        <time>2020-02-21T10:28:03Z</time>
      </trkpt>
      <trkpt lat="38.8709750" lon="1.3947890">
        <ele>4.3</ele>
        <time>2020-02-21T10:28:04Z</time>
      </trkpt>
      <trkpt lat="38.8709420" lon="1.3947220">
        <ele>4.2</ele>
        <time>2020-02-21T10:28:05Z</time>
      </trkpt>
      <trkpt lat="38.8709060" lon="1.3946560">
        <ele>4.1</ele>
        <time>2020-02-21T10:28:06Z</time>
      </trkpt>
      <trkpt lat="38.8708680" lon="1.3945830">
        <ele>4.0</ele>
        <time>2020-02-21T10:28:07Z</time>
      </trkpt>
      <trkpt lat="38.8708410" lon="1.3945240">
        <ele>3.9</ele>
        <time>2020-02-21T10:28:08Z</time>
      </trkpt>
      <trkpt lat="38.8708100" lon="1.3944620">
        <ele>3.8</ele>
        <time>2020-02-21T10:28:09Z</time>
      </trkpt>
      <trkpt lat="38.8707740" lon="1.3944020">
        <ele>3.8</ele>
        <time>2020-02-21T10:28:10Z</time>
      </trkpt>
      <trkpt lat="38.8707420" lon="1.3943350">
        <ele>3.7</ele>
        <time>2020-02-21T10:28:11Z</time>
      </trkpt>
      <trkpt lat="38.8707130" lon="1.3942690">
        <ele>3.6</ele>
        <time>2020-02-21T10:28:12Z</time>
      </trkpt>
      <trkpt lat="38.8706770" lon="1.3942100">
        <ele>3.5</ele>
        <time>2020-02-21T10:28:13Z</time>
      </trkpt>
      <trkpt lat="38.8706480" lon="1.3941410">
        <ele>3.4</ele>
        <time>2020-02-21T10:28:14Z</time>
      </trkpt>
      <trkpt lat="38.8706120" lon="1.3940740">
        <ele>3.3</ele>
        <time>2020-02-21T10:28:15Z</time>
      </trkpt>
      <trkpt lat="38.8705780" lon="1.3940010">
        <ele>3.2</ele>
        <time>2020-02-21T10:28:16Z</time>
      </trkpt>
      <trkpt lat="38.8705460" lon="1.3939270">
        <ele>3.1</ele>
        <time>2020-02-21T10:28:17Z</time>
      </trkpt>
      <trkpt lat="38.8705100" lon="1.3938540">
        <ele>3.0</ele>
        <time>2020-02-21T10:28:18Z</time>
      </trkpt>
      <trkpt lat="38.8704740" lon="1.3937830">
        <ele>2.9</ele>
        <time>2020-02-21T10:28:19Z</time>
      </trkpt>
      <trkpt lat="38.8704450" lon="1.3937180">
        <ele>2.8</ele>
        <time>2020-02-21T10:28:20Z</time>
      </trkpt>
      <trkpt lat="38.8704210" lon="1.3936470">
        <ele>2.6</ele>
        <time>2020-02-21T10:28:21Z</time>
      </trkpt>
      <trkpt lat="38.8703960" lon="1.3935660">
        <ele>2.5</ele>
        <time>2020-02-21T10:28:22Z</time>
      </trkpt>
      <trkpt lat="38.8703750" lon="1.3934890">
        <ele>2.5</ele>
        <time>2020-02-21T10:28:23Z</time>
      </trkpt>
      <trkpt lat="38.8703450" lon="1.3934230">
        <ele>2.4</ele>
        <time>2020-02-21T10:28:24Z</time>
      </trkpt>
      <trkpt lat="38.8703250" lon="1.3933570">
        <ele>2.3</ele>
        <time>2020-02-21T10:28:25Z</time>
      </trkpt>
      <trkpt lat="38.8703010" lon="1.3932980">
        <ele>2.2</ele>
        <time>2020-02-21T10:28:26Z</time>
      </trkpt>
      <trkpt lat="38.8702720" lon="1.3932210">
        <ele>2.1</ele>
        <time>2020-02-21T10:28:27Z</time>
      </trkpt>
      <trkpt lat="38.8702470" lon="1.3931610">
        <ele>2.0</ele>
        <time>2020-02-21T10:28:28Z</time>
      </trkpt>
      <trkpt lat="38.8702240" lon="1.3930940">
        <ele>1.9</ele>
        <time>2020-02-21T10:28:29Z</time>
      </trkpt>
      <trkpt lat="38.8701990" lon="1.3930320">
        <ele>1.8</ele>
        <time>2020-02-21T10:28:30Z</time>
      </trkpt>
      <trkpt lat="38.8701660" lon="1.3929650">
        <ele>1.7</ele>
        <time>2020-02-21T10:28:31Z</time>
      </trkpt>
      <trkpt lat="38.8701420" lon="1.3928830">
        <ele>1.6</ele>
        <time>2020-02-21T10:28:32Z</time>
      </trkpt>
      <trkpt lat="38.8700980" lon="1.3928200">
        <ele>1.4</ele>
        <time>2020-02-21T10:28:33Z</time>
      </trkpt>
      <trkpt lat="38.8700670" lon="1.3927560">
        <ele>1.3</ele>
        <time>2020-02-21T10:28:34Z</time>
      </trkpt>
      <trkpt lat="38.8700430" lon="1.3926750">
        <ele>1.2</ele>
        <time>2020-02-21T10:28:35Z</time>
      </trkpt>
      <trkpt lat="38.8700130" lon="1.3925980">
        <ele>1.2</ele>
        <time>2020-02-21T10:28:36Z</time>
      </trkpt>
      <trkpt lat="38.8699870" lon="1.3925310">
        <ele>1.1</ele>
        <time>2020-02-21T10:28:37Z</time>
      </trkpt>
      <trkpt lat="38.8699630" lon="1.3924640">
        <ele>1.1</ele>
        <time>2020-02-21T10:28:38Z</time>
      </trkpt>
      <trkpt lat="38.8699380" lon="1.3924000">
        <ele>1.0</ele>
        <time>2020-02-21T10:28:39Z</time>
      </trkpt>
      <trkpt lat="38.8699120" lon="1.3923230">
        <ele>1.0</ele>
        <time>2020-02-21T10:28:40Z</time>
      </trkpt>
      <trkpt lat="38.8698810" lon="1.3922570">
        <ele>0.9</ele>
        <time>2020-02-21T10:28:41Z</time>
      </trkpt>
      <trkpt lat="38.8698550" lon="1.3921780">
        <ele>0.8</ele>
        <time>2020-02-21T10:28:42Z</time>
      </trkpt>
      <trkpt lat="38.8698160" lon="1.3921120">
        <ele>0.8</ele>
        <time>2020-02-21T10:28:43Z</time>
      </trkpt>
      <trkpt lat="38.8697890" lon="1.3920470">
        <ele>0.7</ele>
        <time>2020-02-21T10:28:44Z</time>
      </trkpt>
      <trkpt lat="38.8697470" lon="1.3919960">
        <ele>0.7</ele>
        <time>2020-02-21T10:28:45Z</time>
      </trkpt>
      <trkpt lat="38.8697090" lon="1.3919310">
        <ele>0.6</ele>
        <time>2020-02-21T10:28:46Z</time>
      </trkpt>
      <trkpt lat="38.8696750" lon="1.3918630">
        <ele>0.6</ele>
        <time>2020-02-21T10:28:47Z</time>
      </trkpt>
      <trkpt lat="38.8696440" lon="1.3917980">
        <ele>0.6</ele>
        <time>2020-02-21T10:28:48Z</time>
      </trkpt>
      <trkpt lat="38.8696040" lon="1.3917530">
        <ele>0.5</ele>
        <time>2020-02-21T10:28:49Z</time>
      </trkpt>
      <trkpt lat="38.8695570" lon="1.3917020">
        <ele>0.5</ele>
        <time>2020-02-21T10:28:50Z</time>
      </trkpt>
      <trkpt lat="38.8695050" lon="1.3916580">
        <ele>0.4</ele>
        <time>2020-02-21T10:28:51Z</time>
      </trkpt>
      <trkpt lat="38.8694560" lon="1.3916110">
        <ele>0.4</ele>
        <time>2020-02-21T10:28:52Z</time>
      </trkpt>
      <trkpt lat="38.8693990" lon="1.3915520">
        <ele>0.3</ele>
        <time>2020-02-21T10:28:53Z</time>
      </trkpt>
      <trkpt lat="38.8693350" lon="1.3915030">
        <ele>0.3</ele>
        <time>2020-02-21T10:28:54Z</time>
      </trkpt>
      <trkpt lat="38.8692750" lon="1.3914520">
        <ele>0.3</ele>
        <time>2020-02-21T10:28:55Z</time>
      </trkpt>
      <trkpt lat="38.8692250" lon="1.3914030">
        <ele>0.2</ele>
        <time>2020-02-21T10:28:56Z</time>
      </trkpt>
      <trkpt lat="38.8691830" lon="1.3913580">
        <ele>0.2</ele>
        <time>2020-02-21T10:28:57Z</time>
      </trkpt>
      <trkpt lat="38.8691510" lon="1.3913160">
        <ele>0.2</ele>
        <time>2020-02-21T10:28:58Z</time>
      </trkpt>
      <trkpt lat="38.8690990" lon="1.3912630">
        <ele>0.1</ele>
        <time>2020-02-21T10:28:59Z</time>
      </trkpt>
      <trkpt lat="38.8690490" lon="1.3912100">
        <ele>0.1</ele>
        <time>2020-02-21T10:29:00Z</time>
      </trkpt>
      <trkpt lat="38.8690050" lon="1.3911630">
        <ele>0.1</ele>
        <time>2020-02-21T10:29:01Z</time>
      </trkpt>
      <trkpt lat="38.8689470" lon="1.3911030">
        <ele>0.1</ele>
        <time>2020-02-21T10:29:02Z</time>
      </trkpt>
      <trkpt lat="38.8688950" lon="1.3910520">
        <ele>0.2</ele>
        <time>2020-02-21T10:29:03Z</time>
      </trkpt>
      <trkpt lat="38.8688430" lon="1.3909950">
        <ele>0.2</ele>
        <time>2020-02-21T10:29:04Z</time>
      </trkpt>
      <trkpt lat="38.8687990" lon="1.3909510">
        <ele>0.2</ele>
        <time>2020-02-21T10:29:05Z</time>
      </trkpt>
      <trkpt lat="38.8687540" lon="1.3909030">
        <ele>0.2</ele>
        <time>2020-02-21T10:29:06Z</time>
      </trkpt>
      <trkpt lat="38.8687040" lon="1.3908470">
        <ele>0.2</ele>
        <time>2020-02-21T10:29:07Z</time>
      </trkpt>
      <trkpt lat="38.8686480" lon="1.3907820">
        <ele>0.2</ele>
        <time>2020-02-21T10:29:08Z</time>
      </trkpt>
      <trkpt lat="38.8685970" lon="1.3907270">
        <ele>0.2</ele>
        <time>2020-02-21T10:29:09Z</time>
      </trkpt>
      <trkpt lat="38.8685530" lon="1.3906780">
        <ele>0.3</ele>
        <time>2020-02-21T10:29:10Z</time>
      </trkpt>
      <trkpt lat="38.8685180" lon="1.3906250">
        <ele>0.3</ele>
        <time>2020-02-21T10:29:11Z</time>
      </trkpt>
      <trkpt lat="38.8684890" lon="1.3905750">
        <ele>0.3</ele>
        <time>2020-02-21T10:29:12Z</time>
      </trkpt>
      <trkpt lat="38.8684520" lon="1.3905250">
        <ele>0.3</ele>
        <time>2020-02-21T10:29:13Z</time>
      </trkpt>
      <trkpt lat="38.8684150" lon="1.3904750">
        <ele>0.3</ele>
        <time>2020-02-21T10:29:14Z</time>
      </trkpt>
      <trkpt lat="38.8683680" lon="1.3904280">
        <ele>0.1</ele>
        <time>2020-02-21T10:29:15Z</time>
      </trkpt>
      <trkpt lat="38.8683200" lon="1.3903810">
        <ele>0.0</ele>
        <time>2020-02-21T10:29:16Z</time>
      </trkpt>
      <trkpt lat="38.8682680" lon="1.3903300">
        <ele>-0.2</ele>
        <time>2020-02-21T10:29:17Z</time>
      </trkpt>
      <trkpt lat="38.8682220" lon="1.3902700">
        <ele>-0.3</ele>
        <time>2020-02-21T10:29:18Z</time>
      </trkpt>
      <trkpt lat="38.8681750" lon="1.3902220">
        <ele>-0.4</ele>
        <time>2020-02-21T10:29:19Z</time>
      </trkpt>
      <trkpt lat="38.8681230" lon="1.3901800">
        <ele>-0.4</ele>
        <time>2020-02-21T10:29:20Z</time>
      </trkpt>
      <trkpt lat="38.8680670" lon="1.3901330">
        <ele>-0.5</ele>
        <time>2020-02-21T10:29:21Z</time>
      </trkpt>
      <trkpt lat="38.8680150" lon="1.3900970">
        <ele>-0.6</ele>
        <time>2020-02-21T10:29:22Z</time>
      </trkpt>
      <trkpt lat="38.8679620" lon="1.3900570">
        <ele>-0.6</ele>
        <time>2020-02-21T10:29:23Z</time>
      </trkpt>
      <trkpt lat="38.8679060" lon="1.3900080">
        <ele>-0.5</ele>
        <time>2020-02-21T10:29:24Z</time>
      </trkpt>
      <trkpt lat="38.8678600" lon="1.3899670">
        <ele>-0.5</ele>
        <time>2020-02-21T10:29:25Z</time>
      </trkpt>
      <trkpt lat="38.8678100" lon="1.3899310">
        <ele>-0.5</ele>
        <time>2020-02-21T10:29:26Z</time>
      </trkpt>
      <trkpt lat="38.8677560" lon="1.3898960">
        <ele>-0.5</ele>
        <time>2020-02-21T10:29:27Z</time>
      </trkpt>
      <trkpt lat="38.8677010" lon="1.3898550">
        <ele>-0.4</ele>
        <time>2020-02-21T10:29:28Z</time>
      </trkpt>
      <trkpt lat="38.8676570" lon="1.3898170">
        <ele>-0.4</ele>
        <time>2020-02-21T10:29:29Z</time>
      </trkpt>
      <trkpt lat="38.8676210" lon="1.3897810">
        <ele>-0.3</ele>
        <time>2020-02-21T10:29:30Z</time>
      </trkpt>
      <trkpt lat="38.8675920" lon="1.3897520">
        <ele>-0.2</ele>
        <time>2020-02-21T10:29:31Z</time>
      </trkpt>
      <trkpt lat="38.8675770" lon="1.3896900">
        <ele>-0.2</ele>
        <time>2020-02-21T10:29:32Z</time>
      </trkpt>
      <trkpt lat="38.8676010" lon="1.3896180">
        <ele>-0.1</ele>
        <time>2020-02-21T10:29:33Z</time>
      </trkpt>
      <trkpt lat="38.8676260" lon="1.3895650">
        <ele>-0.1</ele>
        <time>2020-02-21T10:29:34Z</time>
      </trkpt>
      <trkpt lat="38.8676490" lon="1.3894960">
        <ele>0.0</ele>
        <time>2020-02-21T10:29:35Z</time>
      </trkpt>
      <trkpt lat="38.8676680" lon="1.3894350">
        <ele>0.0</ele>
        <time>2020-02-21T10:29:36Z</time>
      </trkpt>
      <trkpt lat="38.8677140" lon="1.3893730">
        <ele>0.0</ele>
        <time>2020-02-21T10:29:37Z</time>
      </trkpt>
      <trkpt lat="38.8677630" lon="1.3893450">
        <ele>0.0</ele>
        <time>2020-02-21T10:29:38Z</time>
      </trkpt>
      <trkpt lat="38.8678110" lon="1.3893500">
        <ele>0.0</ele>
        <time>2020-02-21T10:29:39Z</time>
      </trkpt>
      <trkpt lat="38.8678630" lon="1.3893480">
        <ele>0.0</ele>
        <time>2020-02-21T10:29:40Z</time>
      </trkpt>
      <trkpt lat="38.8679110" lon="1.3893470">
        <ele>0.0</ele>
        <time>2020-02-21T10:29:41Z</time>
      </trkpt>
      <trkpt lat="38.8679610" lon="1.3893420">
        <ele>0.0</ele>
        <time>2020-02-21T10:29:42Z</time>
      </trkpt>
      <trkpt lat="38.8680070" lon="1.3893320">
        <ele>-0.1</ele>
        <time>2020-02-21T10:29:43Z</time>
      </trkpt>
      <trkpt lat="38.8680610" lon="1.3893230">
        <ele>-0.2</ele>
        <time>2020-02-21T10:29:44Z</time>
      </trkpt>
      <trkpt lat="38.8681140" lon="1.3893160">
        <ele>-0.3</ele>
        <time>2020-02-21T10:29:45Z</time>
      </trkpt>
      <trkpt lat="38.8681690" lon="1.3893120">
        <ele>-0.4</ele>
        <time>2020-02-21T10:29:46Z</time>
      </trkpt>
      <trkpt lat="38.8682320" lon="1.3893030">
        <ele>-0.5</ele>
        <time>2020-02-21T10:29:47Z</time>
      </trkpt>
      <trkpt lat="38.8682830" lon="1.3892960">
        <ele>-0.5</ele>
        <time>2020-02-21T10:29:48Z</time>
      </trkpt>
      <trkpt lat="38.8683340" lon="1.3892920">
        <ele>-0.5</ele>
        <time>2020-02-21T10:29:49Z</time>
      </trkpt>
      <trkpt lat="38.8683840" lon="1.3892940">
        <ele>-0.6</ele>
        <time>2020-02-21T10:29:50Z</time>
      </trkpt>
      <trkpt lat="38.8684260" lon="1.3892870">
        <ele>-0.7</ele>
        <time>2020-02-21T10:29:51Z</time>
      </trkpt>
      <trkpt lat="38.8684740" lon="1.3892800">
        <ele>-0.8</ele>
        <time>2020-02-21T10:29:52Z</time>
      </trkpt>
      <trkpt lat="38.8685270" lon="1.3892740">
        <ele>-0.9</ele>
        <time>2020-02-21T10:29:53Z</time>
      </trkpt>
      <trkpt lat="38.8685650" lon="1.3892710">
        <ele>-1.0</ele>
        <time>2020-02-21T10:29:54Z</time>
      </trkpt>
      <trkpt lat="38.8685950" lon="1.3892750">
        <ele>-1.1</ele>
        <time>2020-02-21T10:29:55Z</time>
      </trkpt>
      <trkpt lat="38.8686030" lon="1.3892820">
        <ele>-1.1</ele>
        <time>2020-02-21T10:29:56Z</time>
      </trkpt>
      <trkpt lat="38.8686090" lon="1.3892800">
        <ele>-1.2</ele>
        <time>2020-02-21T10:29:57Z</time>
      </trkpt>
      <trkpt lat="38.8686180" lon="1.3892810">
        <ele>-1.2</ele>
        <time>2020-02-21T10:29:58Z</time>
      </trkpt>
      <trkpt lat="38.8686270" lon="1.3892830">
        <ele>-1.2</ele>
        <time>2020-02-21T10:29:59Z</time>
      </trkpt>
      <trkpt lat="38.8686350" lon="1.3892800">
        <ele>-1.2</ele>
        <time>2020-02-21T10:30:00Z</time>
      </trkpt>
      <trkpt lat="38.8686460" lon="1.3892790">
        <ele>-1.2</ele>
        <time>2020-02-21T10:30:01Z</time>
      </trkpt>
      <trkpt lat="38.8686560" lon="1.3892770">
        <ele>-1.2</ele>
        <time>2020-02-21T10:30:02Z</time>
      </trkpt>
      <trkpt lat="38.8686590" lon="1.3892630">
        <ele>-1.2</ele>
        <time>2020-02-21T10:30:03Z</time>
      </trkpt>
      <trkpt lat="38.8686580" lon="1.3892460">
        <ele>-1.2</ele>
        <time>2020-02-21T10:30:04Z</time>
      </trkpt>
      <trkpt lat="38.8686570" lon="1.3892300">
        <ele>-1.2</ele>
        <time>2020-02-21T10:30:05Z</time>
      </trkpt>
      <trkpt lat="38.8686540" lon="1.3891810">
        <ele>-1.2</ele>
        <time>2020-02-21T10:30:06Z</time>
      </trkpt>
      <trkpt lat="38.8686540" lon="1.3891650">
        <ele>-1.2</ele>
        <time>2020-02-21T10:30:07Z</time>
      </trkpt>
      <trkpt lat="38.8686510" lon="1.3891070">
        <ele>-1.2</ele>
        <time>2020-02-21T10:30:08Z</time>
      </trkpt>
      <trkpt lat="38.8686480" lon="1.3890800">
        <ele>-1.2</ele>
        <time>2020-02-21T10:30:09Z</time>
      </trkpt>
      <trkpt lat="38.8686580" lon="1.3890290">
        <ele>-1.2</ele>
        <time>2020-02-21T10:30:10Z</time>
      </trkpt>
      <trkpt lat="38.8686820" lon="1.3889850">
        <ele>-1.2</ele>
        <time>2020-02-21T10:30:11Z</time>
      </trkpt>
      <trkpt lat="38.8687190" lon="1.3889630">
        <ele>-1.2</ele>
        <time>2020-02-21T10:30:12Z</time>
      </trkpt>
      <trkpt lat="38.8687560" lon="1.3889370">
        <ele>-1.2</ele>
        <time>2020-02-21T10:30:13Z</time>
      </trkpt>
      <trkpt lat="38.8687990" lon="1.3889050">
        <ele>-1.2</ele>
        <time>2020-02-21T10:30:14Z</time>
      </trkpt>
      <trkpt lat="38.8688420" lon="1.3888780">
        <ele>-1.2</ele>
        <time>2020-02-21T10:30:15Z</time>
      </trkpt>
      <trkpt lat="38.8688770" lon="1.3888560">
        <ele>-1.2</ele>
        <time>2020-02-21T10:30:16Z</time>
      </trkpt>
      <trkpt lat="38.8689080" lon="1.3888250">
        <ele>-1.2</ele>
        <time>2020-02-21T10:30:17Z</time>
      </trkpt>
      <trkpt lat="38.8689430" lon="1.3887950">
        <ele>-1.2</ele>
        <time>2020-02-21T10:30:18Z</time>
      </trkpt>
      <trkpt lat="38.8689770" lon="1.3887720">
        <ele>-1.2</ele>
        <time>2020-02-21T10:30:19Z</time>
      </trkpt>
      <trkpt lat="38.8690140" lon="1.3887420">
        <ele>-1.2</ele>
        <time>2020-02-21T10:30:20Z</time>
      </trkpt>
      <trkpt lat="38.8690490" lon="1.3887180">
        <ele>-1.2</ele>
        <time>2020-02-21T10:30:21Z</time>
      </trkpt>
      <trkpt lat="38.8690860" lon="1.3886950">
        <ele>-1.2</ele>
        <time>2020-02-21T10:30:22Z</time>
      </trkpt>
      <trkpt lat="38.8691190" lon="1.3886700">
        <ele>-1.2</ele>
        <time>2020-02-21T10:30:23Z</time>
      </trkpt>
      <trkpt lat="38.8691580" lon="1.3886460">
        <ele>-1.2</ele>
        <time>2020-02-21T10:30:24Z</time>
      </trkpt>
      <trkpt lat="38.8691930" lon="1.3886240">
        <ele>-1.2</ele>
        <time>2020-02-21T10:30:25Z</time>
      </trkpt>
      <trkpt lat="38.8692260" lon="1.3886050">
        <ele>-1.2</ele>
        <time>2020-02-21T10:30:26Z</time>
      </trkpt>
      <trkpt lat="38.8692610" lon="1.3885750">
        <ele>-1.2</ele>
        <time>2020-02-21T10:30:27Z</time>
      </trkpt>
      <trkpt lat="38.8692990" lon="1.3885430">
        <ele>-1.3</ele>
        <time>2020-02-21T10:30:28Z</time>
      </trkpt>
      <trkpt lat="38.8693340" lon="1.3885170">
        <ele>-1.3</ele>
        <time>2020-02-21T10:30:29Z</time>
      </trkpt>
      <trkpt lat="38.8693690" lon="1.3884880">
        <ele>-1.3</ele>
        <time>2020-02-21T10:30:30Z</time>
      </trkpt>
      <trkpt lat="38.8694170" lon="1.3884610">
        <ele>-1.3</ele>
        <time>2020-02-21T10:30:31Z</time>
      </trkpt>
      <trkpt lat="38.8694510" lon="1.3884240">
        <ele>-1.3</ele>
        <time>2020-02-21T10:30:32Z</time>
      </trkpt>
      <trkpt lat="38.8694960" lon="1.3883830">
        <ele>-1.3</ele>
        <time>2020-02-21T10:30:33Z</time>
      </trkpt>
      <trkpt lat="38.8695290" lon="1.3883540">
        <ele>-1.3</ele>
        <time>2020-02-21T10:30:34Z</time>
      </trkpt>
      <trkpt lat="38.8695650" lon="1.3883300">
        <ele>-1.3</ele>
        <time>2020-02-21T10:30:35Z</time>
      </trkpt>
      <trkpt lat="38.8696170" lon="1.3882990">
        <ele>-1.3</ele>
        <time>2020-02-21T10:30:36Z</time>
      </trkpt>
      <trkpt lat="38.8696540" lon="1.3882660">
        <ele>-1.3</ele>
        <time>2020-02-21T10:30:37Z</time>
      </trkpt>
      <trkpt lat="38.8696820" lon="1.3882440">
        <ele>-1.3</ele>
        <time>2020-02-21T10:30:38Z</time>
      </trkpt>
      <trkpt lat="38.8697290" lon="1.3882180">
        <ele>-1.3</ele>
        <time>2020-02-21T10:30:39Z</time>
      </trkpt>
      <trkpt lat="38.8697700" lon="1.3881840">
        <ele>-1.3</ele>
        <time>2020-02-21T10:30:40Z</time>
      </trkpt>
      <trkpt lat="38.8698080" lon="1.3881490">
        <ele>-1.3</ele>
        <time>2020-02-21T10:30:41Z</time>
      </trkpt>
      <trkpt lat="38.8698480" lon="1.3881180">
        <ele>-1.3</ele>
        <time>2020-02-21T10:30:42Z</time>
      </trkpt>
      <trkpt lat="38.8698890" lon="1.3880950">
        <ele>-1.2</ele>
        <time>2020-02-21T10:30:43Z</time>
      </trkpt>
      <trkpt lat="38.8699330" lon="1.3880690">
        <ele>-1.2</ele>
        <time>2020-02-21T10:30:44Z</time>
      </trkpt>
      <trkpt lat="38.8699750" lon="1.3880400">
        <ele>-1.2</ele>
        <time>2020-02-21T10:30:45Z</time>
      </trkpt>
      <trkpt lat="38.8700150" lon="1.3880070">
        <ele>-1.2</ele>
        <time>2020-02-21T10:30:46Z</time>
      </trkpt>
      <trkpt lat="38.8700550" lon="1.3879780">
        <ele>-1.2</ele>
        <time>2020-02-21T10:30:47Z</time>
      </trkpt>
      <trkpt lat="38.8701050" lon="1.3879540">
        <ele>-1.2</ele>
        <time>2020-02-21T10:30:48Z</time>
      </trkpt>
      <trkpt lat="38.8701490" lon="1.3879290">
        <ele>-1.2</ele>
        <time>2020-02-21T10:30:49Z</time>
      </trkpt>
      <trkpt lat="38.8701890" lon="1.3878990">
        <ele>-1.2</ele>
        <time>2020-02-21T10:30:50Z</time>
      </trkpt>
      <trkpt lat="38.8702260" lon="1.3878660">
        <ele>-1.2</ele>
        <time>2020-02-21T10:30:51Z</time>
      </trkpt>
      <trkpt lat="38.8702610" lon="1.3878300">
        <ele>-1.2</ele>
        <time>2020-02-21T10:30:52Z</time>
      </trkpt>
      <trkpt lat="38.8702970" lon="1.3878000">
        <ele>-1.2</ele>
        <time>2020-02-21T10:30:53Z</time>
      </trkpt>
      <trkpt lat="38.8703460" lon="1.3877680">
        <ele>-1.2</ele>
        <time>2020-02-21T10:30:54Z</time>
      </trkpt>
      <trkpt lat="38.8703900" lon="1.3877360">
        <ele>-1.2</ele>
        <time>2020-02-21T10:30:55Z</time>
      </trkpt>
      <trkpt lat="38.8704260" lon="1.3876950">
        <ele>-1.2</ele>
        <time>2020-02-21T10:30:56Z</time>
      </trkpt>
      <trkpt lat="38.8704570" lon="1.3876610">
        <ele>-1.3</ele>
        <time>2020-02-21T10:30:57Z</time>
      </trkpt>
      <trkpt lat="38.8704980" lon="1.3876310">
        <ele>-1.3</ele>
        <time>2020-02-21T10:30:58Z</time>
      </trkpt>
      <trkpt lat="38.8705430" lon="1.3875980">
        <ele>-1.3</ele>
        <time>2020-02-21T10:30:59Z</time>
      </trkpt>
      <trkpt lat="38.8705840" lon="1.3875670">
        <ele>-1.3</ele>
        <time>2020-02-21T10:31:00Z</time>
      </trkpt>
      <trkpt lat="38.8706220" lon="1.3875360">
        <ele>-1.3</ele>
        <time>2020-02-21T10:31:01Z</time>
      </trkpt>
      <trkpt lat="38.8706600" lon="1.3875040">
        <ele>-1.4</ele>
        <time>2020-02-21T10:31:02Z</time>
      </trkpt>
      <trkpt lat="38.8707040" lon="1.3874750">
        <ele>-1.4</ele>
        <time>2020-02-21T10:31:03Z</time>
      </trkpt>
      <trkpt lat="38.8707500" lon="1.3874440">
        <ele>-1.4</ele>
        <time>2020-02-21T10:31:04Z</time>
      </trkpt>
      <trkpt lat="38.8708070" lon="1.3874200">
        <ele>-1.4</ele>
        <time>2020-02-21T10:31:05Z</time>
      </trkpt>
      <trkpt lat="38.8708360" lon="1.3873980">
        <ele>-1.4</ele>
        <time>2020-02-21T10:31:06Z</time>
      </trkpt>
      <trkpt lat="38.8708810" lon="1.3873750">
        <ele>-1.5</ele>
        <time>2020-02-21T10:31:07Z</time>
      </trkpt>
      <trkpt lat="38.8709260" lon="1.3873660">
        <ele>-1.5</ele>
        <time>2020-02-21T10:31:08Z</time>
      </trkpt>
      <trkpt lat="38.8709790" lon="1.3873790">
        <ele>-1.5</ele>
        <time>2020-02-21T10:31:09Z</time>
      </trkpt>
      <trkpt lat="38.8710250" lon="1.3873830">
        <ele>-1.5</ele>
        <time>2020-02-21T10:31:10Z</time>
      </trkpt>
      <trkpt lat="38.8710650" lon="1.3873720">
        <ele>-1.5</ele>
        <time>2020-02-21T10:31:11Z</time>
      </trkpt>
      <trkpt lat="38.8711050" lon="1.3873470">
        <ele>-1.6</ele>
        <time>2020-02-21T10:31:12Z</time>
      </trkpt>
      <trkpt lat="38.8711400" lon="1.3873170">
        <ele>-1.6</ele>
        <time>2020-02-21T10:31:13Z</time>
      </trkpt>
      <trkpt lat="38.8711770" lon="1.3872930">
        <ele>-1.7</ele>
        <time>2020-02-21T10:31:14Z</time>
      </trkpt>
      <trkpt lat="38.8712200" lon="1.3872760">
        <ele>-1.7</ele>
        <time>2020-02-21T10:31:15Z</time>
      </trkpt>
      <trkpt lat="38.8712660" lon="1.3872600">
        <ele>-1.8</ele>
        <time>2020-02-21T10:31:16Z</time>
      </trkpt>
      <trkpt lat="38.8713080" lon="1.3872330">
        <ele>-1.8</ele>
        <time>2020-02-21T10:31:17Z</time>
      </trkpt>
      <trkpt lat="38.8713440" lon="1.3871960">
        <ele>-1.8</ele>
        <time>2020-02-21T10:31:18Z</time>
      </trkpt>
      <trkpt lat="38.8713780" lon="1.3871550">
        <ele>-1.8</ele>
        <time>2020-02-21T10:31:19Z</time>
      </trkpt>
      <trkpt lat="38.8714160" lon="1.3871140">
        <ele>-1.8</ele>
        <time>2020-02-21T10:31:20Z</time>
      </trkpt>
      <trkpt lat="38.8714500" lon="1.3870760">
        <ele>-1.8</ele>
        <time>2020-02-21T10:31:21Z</time>
      </trkpt>
      <trkpt lat="38.8714840" lon="1.3870470">
        <ele>-1.8</ele>
        <time>2020-02-21T10:31:22Z</time>
      </trkpt>
      <trkpt lat="38.8715100" lon="1.3870200">
        <ele>-1.8</ele>
        <time>2020-02-21T10:31:23Z</time>
      </trkpt>
      <trkpt lat="38.8715400" lon="1.3869920">
        <ele>-1.8</ele>
        <time>2020-02-21T10:31:24Z</time>
      </trkpt>
      <trkpt lat="38.8715810" lon="1.3869520">
        <ele>-1.8</ele>
        <time>2020-02-21T10:31:25Z</time>
      </trkpt>
      <trkpt lat="38.8716200" lon="1.3869190">
        <ele>-1.8</ele>
        <time>2020-02-21T10:31:26Z</time>
      </trkpt>
      <trkpt lat="38.8716610" lon="1.3868920">
        <ele>-1.7</ele>
        <time>2020-02-21T10:31:27Z</time>
      </trkpt>
      <trkpt lat="38.8717050" lon="1.3868650">
        <ele>-1.7</ele>
        <time>2020-02-21T10:31:28Z</time>
      </trkpt>
      <trkpt lat="38.8717310" lon="1.3868310">
        <ele>-1.6</ele>
        <time>2020-02-21T10:31:29Z</time>
      </trkpt>
      <trkpt lat="38.8717760" lon="1.3867970">
        <ele>-1.6</ele>
        <time>2020-02-21T10:31:30Z</time>
      </trkpt>
      <trkpt lat="38.8718230" lon="1.3867620">
        <ele>-1.6</ele>
        <time>2020-02-21T10:31:31Z</time>
      </trkpt>
      <trkpt lat="38.8718650" lon="1.3867370">
        <ele>-1.5</ele>
        <time>2020-02-21T10:31:32Z</time>
      </trkpt>
      <trkpt lat="38.8719100" lon="1.3867190">
        <ele>-1.5</ele>
        <time>2020-02-21T10:31:33Z</time>
      </trkpt>
      <trkpt lat="38.8719480" lon="1.3867020">
        <ele>-1.4</ele>
        <time>2020-02-21T10:31:34Z</time>
      </trkpt>
      <trkpt lat="38.8719840" lon="1.3866760">
        <ele>-1.4</ele>
        <time>2020-02-21T10:31:35Z</time>
      </trkpt>
      <trkpt lat="38.8720170" lon="1.3866440">
        <ele>-1.3</ele>
        <time>2020-02-21T10:31:36Z</time>
      </trkpt>
      <trkpt lat="38.8720620" lon="1.3866210">
        <ele>-1.3</ele>
        <time>2020-02-21T10:31:37Z</time>
      </trkpt>
      <trkpt lat="38.8721040" lon="1.3865810">
        <ele>-1.3</ele>
        <time>2020-02-21T10:31:38Z</time>
      </trkpt>
      <trkpt lat="38.8721540" lon="1.3865560">
        <ele>-1.3</ele>
        <time>2020-02-21T10:31:39Z</time>
      </trkpt>
      <trkpt lat="38.8722060" lon="1.3865350">
        <ele>-1.2</ele>
        <time>2020-02-21T10:31:40Z</time>
      </trkpt>
      <trkpt lat="38.8722550" lon="1.3865120">
        <ele>-1.2</ele>
        <time>2020-02-21T10:31:41Z</time>
      </trkpt>
      <trkpt lat="38.8722960" lon="1.3864780">
        <ele>-1.2</ele>
        <time>2020-02-21T10:31:42Z</time>
      </trkpt>
      <trkpt lat="38.8723310" lon="1.3864390">
        <ele>-1.1</ele>
        <time>2020-02-21T10:31:43Z</time>
      </trkpt>
      <trkpt lat="38.8723640" lon="1.3863920">
        <ele>-1.1</ele>
        <time>2020-02-21T10:31:44Z</time>
      </trkpt>
      <trkpt lat="38.8723810" lon="1.3863450">
        <ele>-1.1</ele>
        <time>2020-02-21T10:31:45Z</time>
      </trkpt>
      <trkpt lat="38.8723920" lon="1.3862950">
        <ele>-1.1</ele>
        <time>2020-02-21T10:31:46Z</time>
      </trkpt>
      <trkpt lat="38.8723950" lon="1.3862380">
        <ele>-1.0</ele>
        <time>2020-02-21T10:31:47Z</time>
      </trkpt>
      <trkpt lat="38.8723920" lon="1.3861770">
        <ele>-1.0</ele>
        <time>2020-02-21T10:31:48Z</time>
      </trkpt>
      <trkpt lat="38.8723840" lon="1.3861230">
        <ele>-1.0</ele>
        <time>2020-02-21T10:31:49Z</time>
      </trkpt>
      <trkpt lat="38.8723730" lon="1.3860570">
        <ele>-1.0</ele>
        <time>2020-02-21T10:31:50Z</time>
      </trkpt>
      <trkpt lat="38.8723520" lon="1.3860140">
        <ele>-0.9</ele>
        <time>2020-02-21T10:31:51Z</time>
      </trkpt>
      <trkpt lat="38.8723300" lon="1.3859680">
        <ele>-0.8</ele>
        <time>2020-02-21T10:31:52Z</time>
      </trkpt>
      <trkpt lat="38.8723090" lon="1.3859280">
        <ele>-0.7</ele>
        <time>2020-02-21T10:31:53Z</time>
      </trkpt>
      <trkpt lat="38.8722890" lon="1.3858840">
        <ele>-0.6</ele>
        <time>2020-02-21T10:31:54Z</time>
      </trkpt>
      <trkpt lat="38.8722780" lon="1.3858190">
        <ele>-0.4</ele>
        <time>2020-02-21T10:31:55Z</time>
      </trkpt>
      <trkpt lat="38.8722840" lon="1.3857680">
        <ele>-0.3</ele>
        <time>2020-02-21T10:31:56Z</time>
      </trkpt>
      <trkpt lat="38.8723110" lon="1.3857310">
        <ele>-0.2</ele>
        <time>2020-02-21T10:31:57Z</time>
      </trkpt>
      <trkpt lat="38.8723460" lon="1.3857080">
        <ele>-0.1</ele>
        <time>2020-02-21T10:31:58Z</time>
      </trkpt>
      <trkpt lat="38.8723820" lon="1.3856940">
        <ele>-0.1</ele>
        <time>2020-02-21T10:31:59Z</time>
      </trkpt>
      <trkpt lat="38.8724160" lon="1.3856720">
        <ele>0.0</ele>
        <time>2020-02-21T10:32:00Z</time>
      </trkpt>
      <trkpt lat="38.8724530" lon="1.3856570">
        <ele>0.0</ele>
        <time>2020-02-21T10:32:01Z</time>
      </trkpt>
      <trkpt lat="38.8725020" lon="1.3856380">
        <ele>0.0</ele>
        <time>2020-02-21T10:32:02Z</time>
      </trkpt>
      <trkpt lat="38.8725230" lon="1.3856080">
        <ele>0.0</ele>
        <time>2020-02-21T10:32:03Z</time>
      </trkpt>
      <trkpt lat="38.8725570" lon="1.3855790">
        <ele>0.0</ele>
        <time>2020-02-21T10:32:04Z</time>
      </trkpt>
      <trkpt lat="38.8725860" lon="1.3855480">
        <ele>0.0</ele>
        <time>2020-02-21T10:32:05Z</time>
      </trkpt>
      <trkpt lat="38.8726210" lon="1.3855240">
        <ele>0.0</ele>
        <time>2020-02-21T10:32:06Z</time>
      </trkpt>
      <trkpt lat="38.8726680" lon="1.3855070">
        <ele>0.0</ele>
        <time>2020-02-21T10:32:07Z</time>
      </trkpt>
      <trkpt lat="38.8727100" lon="1.3854970">
        <ele>0.0</ele>
        <time>2020-02-21T10:32:08Z</time>
      </trkpt>
      <trkpt lat="38.8727490" lon="1.3854910">
        <ele>0.0</ele>
        <time>2020-02-21T10:32:09Z</time>
      </trkpt>
      <trkpt lat="38.8727900" lon="1.3854750">
        <ele>0.0</ele>
        <time>2020-02-21T10:32:10Z</time>
      </trkpt>
      <trkpt lat="38.8728310" lon="1.3854560">
        <ele>0.0</ele>
        <time>2020-02-21T10:32:11Z</time>
      </trkpt>
      <trkpt lat="38.8728710" lon="1.3854440">
        <ele>0.0</ele>
        <time>2020-02-21T10:32:12Z</time>
      </trkpt>
      <trkpt lat="38.8729080" lon="1.3854160">
        <ele>0.0</ele>
        <time>2020-02-21T10:32:13Z</time>
      </trkpt>
      <trkpt lat="38.8729490" lon="1.3853910">
        <ele>0.0</ele>
        <time>2020-02-21T10:32:14Z</time>
      </trkpt>
      <trkpt lat="38.8729870" lon="1.3853670">
        <ele>-0.1</ele>
        <time>2020-02-21T10:32:15Z</time>
      </trkpt>
      <trkpt lat="38.8730290" lon="1.3853430">
        <ele>-0.1</ele>
        <time>2020-02-21T10:32:16Z</time>
      </trkpt>
      <trkpt lat="38.8730720" lon="1.3853210">
        <ele>-0.1</ele>
        <time>2020-02-21T10:32:17Z</time>
      </trkpt>
      <trkpt lat="38.8731080" lon="1.3853050">
        <ele>-0.1</ele>
        <time>2020-02-21T10:32:18Z</time>
      </trkpt>
      <trkpt lat="38.8731560" lon="1.3853110">
        <ele>-0.1</ele>
        <time>2020-02-21T10:32:19Z</time>
      </trkpt>
      <trkpt lat="38.8732010" lon="1.3853380">
        <ele>-0.1</ele>
        <time>2020-02-21T10:32:20Z</time>
      </trkpt>
      <trkpt lat="38.8732340" lon="1.3853750">
        <ele>-0.1</ele>
        <time>2020-02-21T10:32:21Z</time>
      </trkpt>
      <trkpt lat="38.8732660" lon="1.3853950">
        <ele>0.0</ele>
        <time>2020-02-21T10:32:22Z</time>
      </trkpt>
      <trkpt lat="38.8733020" lon="1.3853900">
        <ele>0.2</ele>
        <time>2020-02-21T10:32:23Z</time>
      </trkpt>
      <trkpt lat="38.8733320" lon="1.3853730">
        <ele>0.3</ele>
        <time>2020-02-21T10:32:24Z</time>
      </trkpt>
      <trkpt lat="38.8733630" lon="1.3853580">
        <ele>0.3</ele>
        <time>2020-02-21T10:32:25Z</time>
      </trkpt>
      <trkpt lat="38.8733910" lon="1.3853360">
        <ele>0.4</ele>
        <time>2020-02-21T10:32:26Z</time>
      </trkpt>
      <trkpt lat="38.8734170" lon="1.3853060">
        <ele>0.4</ele>
        <time>2020-02-21T10:32:27Z</time>
      </trkpt>
      <trkpt lat="38.8734510" lon="1.3852760">
        <ele>0.5</ele>
        <time>2020-02-21T10:32:28Z</time>
      </trkpt>
      <trkpt lat="38.8734730" lon="1.3852490">
        <ele>0.5</ele>
        <time>2020-02-21T10:32:29Z</time>
      </trkpt>
      <trkpt lat="38.8735160" lon="1.3852340">
        <ele>0.6</ele>
        <time>2020-02-21T10:32:30Z</time>
      </trkpt>
      <trkpt lat="38.8735470" lon="1.3852140">
        <ele>0.6</ele>
        <time>2020-02-21T10:32:31Z</time>
      </trkpt>
      <trkpt lat="38.8735820" lon="1.3851880">
        <ele>0.7</ele>
        <time>2020-02-21T10:32:32Z</time>
      </trkpt>
      <trkpt lat="38.8736110" lon="1.3851640">
        <ele>0.7</ele>
        <time>2020-02-21T10:32:33Z</time>
      </trkpt>
      <trkpt lat="38.8736400" lon="1.3851300">
        <ele>0.7</ele>
        <time>2020-02-21T10:32:34Z</time>
      </trkpt>
      <trkpt lat="38.8736720" lon="1.3851020">
        <ele>0.8</ele>
        <time>2020-02-21T10:32:35Z</time>
      </trkpt>
      <trkpt lat="38.8736960" lon="1.3850700">
        <ele>0.8</ele>
        <time>2020-02-21T10:32:36Z</time>
      </trkpt>
      <trkpt lat="38.8737360" lon="1.3850400">
        <ele>0.8</ele>
        <time>2020-02-21T10:32:37Z</time>
      </trkpt>
      <trkpt lat="38.8737600" lon="1.3850150">
        <ele>0.8</ele>
        <time>2020-02-21T10:32:38Z</time>
      </trkpt>
      <trkpt lat="38.8737860" lon="1.3849850">
        <ele>0.8</ele>
        <time>2020-02-21T10:32:39Z</time>
      </trkpt>
      <trkpt lat="38.8738090" lon="1.3849440">
        <ele>0.8</ele>
        <time>2020-02-21T10:32:40Z</time>
      </trkpt>
      <trkpt lat="38.8738390" lon="1.3849050">
        <ele>0.8</ele>
        <time>2020-02-21T10:32:41Z</time>
      </trkpt>
      <trkpt lat="38.8738640" lon="1.3848720">
        <ele>0.8</ele>
        <time>2020-02-21T10:32:42Z</time>
      </trkpt>
      <trkpt lat="38.8739110" lon="1.3848460">
        <ele>0.8</ele>
        <time>2020-02-21T10:32:43Z</time>
      </trkpt>
      <trkpt lat="38.8739420" lon="1.3848250">
        <ele>0.8</ele>
        <time>2020-02-21T10:32:44Z</time>
      </trkpt>
      <trkpt lat="38.8739680" lon="1.3848070">
        <ele>0.8</ele>
        <time>2020-02-21T10:32:45Z</time>
      </trkpt>
      <trkpt lat="38.8739980" lon="1.3847970">
        <ele>0.8</ele>
        <time>2020-02-21T10:32:46Z</time>
      </trkpt>
      <trkpt lat="38.8740340" lon="1.3847780">
        <ele>0.8</ele>
        <time>2020-02-21T10:32:47Z</time>
      </trkpt>
      <trkpt lat="38.8740620" lon="1.3847490">
        <ele>0.8</ele>
        <time>2020-02-21T10:32:48Z</time>
      </trkpt>
      <trkpt lat="38.8740910" lon="1.3847180">
        <ele>0.8</ele>
        <time>2020-02-21T10:32:49Z</time>
      </trkpt>
      <trkpt lat="38.8741200" lon="1.3846920">
        <ele>0.8</ele>
        <time>2020-02-21T10:32:50Z</time>
      </trkpt>
      <trkpt lat="38.8741490" lon="1.3846660">
        <ele>0.8</ele>
        <time>2020-02-21T10:32:51Z</time>
      </trkpt>
      <trkpt lat="38.8741810" lon="1.3846360">
        <ele>0.9</ele>
        <time>2020-02-21T10:32:52Z</time>
      </trkpt>
      <trkpt lat="38.8742250" lon="1.3846080">
        <ele>0.9</ele>
        <time>2020-02-21T10:32:53Z</time>
      </trkpt>
      <trkpt lat="38.8742560" lon="1.3845710">
        <ele>0.9</ele>
        <time>2020-02-21T10:32:54Z</time>
      </trkpt>
      <trkpt lat="38.8742880" lon="1.3845360">
        <ele>0.9</ele>
        <time>2020-02-21T10:32:55Z</time>
      </trkpt>
      <trkpt lat="38.8743010" lon="1.3845240">
        <ele>0.9</ele>
        <time>2020-02-21T10:32:56Z</time>
      </trkpt>
      <trkpt lat="38.8743330" lon="1.3844990">
        <ele>1.0</ele>
        <time>2020-02-21T10:32:57Z</time>
      </trkpt>
      <trkpt lat="38.8743690" lon="1.3844690">
        <ele>1.0</ele>
        <time>2020-02-21T10:32:58Z</time>
      </trkpt>
      <trkpt lat="38.8744010" lon="1.3844370">
        <ele>1.0</ele>
        <time>2020-02-21T10:32:59Z</time>
      </trkpt>
      <trkpt lat="38.8744270" lon="1.3844030">
        <ele>1.0</ele>
        <time>2020-02-21T10:33:00Z</time>
      </trkpt>
      <trkpt lat="38.8744520" lon="1.3843770">
        <ele>1.1</ele>
        <time>2020-02-21T10:33:01Z</time>
      </trkpt>
      <trkpt lat="38.8744800" lon="1.3843490">
        <ele>1.1</ele>
        <time>2020-02-21T10:33:02Z</time>
      </trkpt>
      <trkpt lat="38.8745070" lon="1.3843210">
        <ele>1.1</ele>
        <time>2020-02-21T10:33:03Z</time>
      </trkpt>
      <trkpt lat="38.8745440" lon="1.3842990">
        <ele>1.2</ele>
        <time>2020-02-21T10:33:04Z</time>
      </trkpt>
      <trkpt lat="38.8745780" lon="1.3842800">
        <ele>1.2</ele>
        <time>2020-02-21T10:33:05Z</time>
      </trkpt>
      <trkpt lat="38.8746030" lon="1.3842450">
        <ele>1.3</ele>
        <time>2020-02-21T10:33:06Z</time>
      </trkpt>
      <trkpt lat="38.8746200" lon="1.3842110">
        <ele>1.3</ele>
        <time>2020-02-21T10:33:07Z</time>
      </trkpt>
      <trkpt lat="38.8746400" lon="1.3841800">
        <ele>1.3</ele>
        <time>2020-02-21T10:33:08Z</time>
      </trkpt>
      <trkpt lat="38.8746670" lon="1.3841540">
        <ele>1.4</ele>
        <time>2020-02-21T10:33:09Z</time>
      </trkpt>
      <trkpt lat="38.8746760" lon="1.3841450">
        <ele>1.4</ele>
        <time>2020-02-21T10:33:10Z</time>
      </trkpt>
      <trkpt lat="38.8747130" lon="1.3841290">
        <ele>1.4</ele>
        <time>2020-02-21T10:33:11Z</time>
      </trkpt>
      <trkpt lat="38.8747310" lon="1.3841220">
        <ele>1.4</ele>
        <time>2020-02-21T10:33:12Z</time>
      </trkpt>
      <trkpt lat="38.8747660" lon="1.3840940">
        <ele>1.5</ele>
        <time>2020-02-21T10:33:13Z</time>
      </trkpt>
      <trkpt lat="38.8748020" lon="1.3840620">
        <ele>1.5</ele>
        <time>2020-02-21T10:33:14Z</time>
      </trkpt>
      <trkpt lat="38.8748360" lon="1.3840310">
        <ele>1.5</ele>
        <time>2020-02-21T10:33:15Z</time>
      </trkpt>
      <trkpt lat="38.8748670" lon="1.3839950">
        <ele>1.6</ele>
        <time>2020-02-21T10:33:16Z</time>
      </trkpt>
      <trkpt lat="38.8748950" lon="1.3839610">
        <ele>1.6</ele>
        <time>2020-02-21T10:33:17Z</time>
      </trkpt>
      <trkpt lat="38.8749240" lon="1.3839220">
        <ele>1.6</ele>
        <time>2020-02-21T10:33:18Z</time>
      </trkpt>
      <trkpt lat="38.8749590" lon="1.3838880">
        <ele>1.7</ele>
        <time>2020-02-21T10:33:19Z</time>
      </trkpt>
      <trkpt lat="38.8749930" lon="1.3838550">
        <ele>1.7</ele>
        <time>2020-02-21T10:33:20Z</time>
      </trkpt>
      <trkpt lat="38.8750170" lon="1.3838190">
        <ele>1.7</ele>
        <time>2020-02-21T10:33:21Z</time>
      </trkpt>
      <trkpt lat="38.8750440" lon="1.3837870">
        <ele>1.7</ele>
        <time>2020-02-21T10:33:22Z</time>
      </trkpt>
      <trkpt lat="38.8750810" lon="1.3837600">
        <ele>1.8</ele>
        <time>2020-02-21T10:33:23Z</time>
      </trkpt>
      <trkpt lat="38.8751090" lon="1.3837350">
        <ele>1.8</ele>
        <time>2020-02-21T10:33:24Z</time>
      </trkpt>
      <trkpt lat="38.8751300" lon="1.3837080">
        <ele>1.8</ele>
        <time>2020-02-21T10:33:25Z</time>
      </trkpt>
      <trkpt lat="38.8751520" lon="1.3836790">
        <ele>1.8</ele>
        <time>2020-02-21T10:33:26Z</time>
      </trkpt>
      <trkpt lat="38.8751850" lon="1.3836500">
        <ele>1.9</ele>
        <time>2020-02-21T10:33:27Z</time>
      </trkpt>
      <trkpt lat="38.8752170" lon="1.3836210">
        <ele>1.9</ele>
        <time>2020-02-21T10:33:28Z</time>
      </trkpt>
      <trkpt lat="38.8752470" lon="1.3835930">
        <ele>1.9</ele>
        <time>2020-02-21T10:33:29Z</time>
      </trkpt>
      <trkpt lat="38.8752770" lon="1.3835650">
        <ele>2.0</ele>
        <time>2020-02-21T10:33:30Z</time>
      </trkpt>
      <trkpt lat="38.8753070" lon="1.3835370">
        <ele>2.0</ele>
        <time>2020-02-21T10:33:31Z</time>
      </trkpt>
      <trkpt lat="38.8753330" lon="1.3835150">
        <ele>2.1</ele>
        <time>2020-02-21T10:33:32Z</time>
      </trkpt>
      <trkpt lat="38.8753580" lon="1.3834940">
        <ele>2.1</ele>
        <time>2020-02-21T10:33:33Z</time>
      </trkpt>
      <trkpt lat="38.8753870" lon="1.3834730">
        <ele>2.2</ele>
        <time>2020-02-21T10:33:34Z</time>
      </trkpt>
      <trkpt lat="38.8753970" lon="1.3834670">
        <ele>2.2</ele>
        <time>2020-02-21T10:33:35Z</time>
      </trkpt>
      <trkpt lat="38.8754250" lon="1.3834550">
        <ele>2.2</ele>
        <time>2020-02-21T10:33:36Z</time>
      </trkpt>
      <trkpt lat="38.8754340" lon="1.3834510">
        <ele>2.3</ele>
        <time>2020-02-21T10:33:37Z</time>
      </trkpt>
      <trkpt lat="38.8754610" lon="1.3834390">
        <ele>2.3</ele>
        <time>2020-02-21T10:33:38Z</time>
      </trkpt>
      <trkpt lat="38.8754850" lon="1.3834220">
        <ele>2.3</ele>
        <time>2020-02-21T10:33:39Z</time>
      </trkpt>
      <trkpt lat="38.8755170" lon="1.3834040">
        <ele>2.4</ele>
        <time>2020-02-21T10:33:40Z</time>
      </trkpt>
      <trkpt lat="38.8755270" lon="1.3833990">
        <ele>2.4</ele>
        <time>2020-02-21T10:33:41Z</time>
      </trkpt>
      <trkpt lat="38.8755560" lon="1.3833730">
        <ele>2.5</ele>
        <time>2020-02-21T10:33:42Z</time>
      </trkpt>
      <trkpt lat="38.8755590" lon="1.3833590">
        <ele>2.5</ele>
        <time>2020-02-21T10:33:43Z</time>
      </trkpt>
      <trkpt lat="38.8755570" lon="1.3833170">
        <ele>2.5</ele>
        <time>2020-02-21T10:33:44Z</time>
      </trkpt>
      <trkpt lat="38.8755470" lon="1.3833040">
        <ele>2.5</ele>
        <time>2020-02-21T10:33:45Z</time>
      </trkpt>
      <trkpt lat="38.8755280" lon="1.3832620">
        <ele>2.4</ele>
        <time>2020-02-21T10:33:46Z</time>
      </trkpt>
      <trkpt lat="38.8755130" lon="1.3832220">
        <ele>2.4</ele>
        <time>2020-02-21T10:33:47Z</time>
      </trkpt>
      <trkpt lat="38.8755080" lon="1.3832090">
        <ele>2.4</ele>
        <time>2020-02-21T10:33:48Z</time>
      </trkpt>
      <trkpt lat="38.8754950" lon="1.3831580">
        <ele>2.3</ele>
        <time>2020-02-21T10:33:49Z</time>
      </trkpt>
      <trkpt lat="38.8754890" lon="1.3831410">
        <ele>2.3</ele>
        <time>2020-02-21T10:33:50Z</time>
      </trkpt>
      <trkpt lat="38.8754750" lon="1.3831000">
        <ele>2.3</ele>
        <time>2020-02-21T10:33:51Z</time>
      </trkpt>
      <trkpt lat="38.8754580" lon="1.3830570">
        <ele>2.2</ele>
        <time>2020-02-21T10:33:52Z</time>
      </trkpt>
      <trkpt lat="38.8754380" lon="1.3830180">
        <ele>2.2</ele>
        <time>2020-02-21T10:33:53Z</time>
      </trkpt>
      <trkpt lat="38.8754160" lon="1.3829770">
        <ele>2.2</ele>
        <time>2020-02-21T10:33:54Z</time>
      </trkpt>
      <trkpt lat="38.8753910" lon="1.3829300">
        <ele>2.1</ele>
        <time>2020-02-21T10:33:55Z</time>
      </trkpt>
      <trkpt lat="38.8753690" lon="1.3828830">
        <ele>2.1</ele>
        <time>2020-02-21T10:33:56Z</time>
      </trkpt>
      <trkpt lat="38.8753460" lon="1.3828390">
        <ele>2.1</ele>
        <time>2020-02-21T10:33:57Z</time>
      </trkpt>
      <trkpt lat="38.8753210" lon="1.3828000">
        <ele>2.1</ele>
        <time>2020-02-21T10:33:58Z</time>
      </trkpt>
      <trkpt lat="38.8753030" lon="1.3827530">
        <ele>2.1</ele>
        <time>2020-02-21T10:33:59Z</time>
      </trkpt>
      <trkpt lat="38.8752870" lon="1.3827180">
        <ele>2.1</ele>
        <time>2020-02-21T10:34:00Z</time>
      </trkpt>
      <trkpt lat="38.8752650" lon="1.3826750">
        <ele>2.1</ele>
        <time>2020-02-21T10:34:01Z</time>
      </trkpt>
      <trkpt lat="38.8752450" lon="1.3826400">
        <ele>2.1</ele>
        <time>2020-02-21T10:34:02Z</time>
      </trkpt>
      <trkpt lat="38.8752270" lon="1.3826020">
        <ele>2.1</ele>
        <time>2020-02-21T10:34:03Z</time>
      </trkpt>
      <trkpt lat="38.8752150" lon="1.3825580">
        <ele>2.1</ele>
        <time>2020-02-21T10:34:04Z</time>
      </trkpt>
      <trkpt lat="38.8752010" lon="1.3825140">
        <ele>2.1</ele>
        <time>2020-02-21T10:34:05Z</time>
      </trkpt>
      <trkpt lat="38.8751830" lon="1.3824790">
        <ele>2.1</ele>
        <time>2020-02-21T10:34:06Z</time>
      </trkpt>
      <trkpt lat="38.8751640" lon="1.3824320">
        <ele>2.2</ele>
        <time>2020-02-21T10:34:07Z</time>
      </trkpt>
      <trkpt lat="38.8751440" lon="1.3823860">
        <ele>2.2</ele>
        <time>2020-02-21T10:34:08Z</time>
      </trkpt>
      <trkpt lat="38.8751260" lon="1.3823440">
        <ele>2.2</ele>
        <time>2020-02-21T10:34:09Z</time>
      </trkpt>
      <trkpt lat="38.8751010" lon="1.3823000">
        <ele>2.3</ele>
        <time>2020-02-21T10:34:10Z</time>
      </trkpt>
      <trkpt lat="38.8750800" lon="1.3822590">
        <ele>2.3</ele>
        <time>2020-02-21T10:34:11Z</time>
      </trkpt>
      <trkpt lat="38.8750590" lon="1.3822150">
        <ele>2.3</ele>
        <time>2020-02-21T10:34:12Z</time>
      </trkpt>
      <trkpt lat="38.8750390" lon="1.3821680">
        <ele>2.3</ele>
        <time>2020-02-21T10:34:13Z</time>
      </trkpt>
      <trkpt lat="38.8750160" lon="1.3821210">
        <ele>2.3</ele>
        <time>2020-02-21T10:34:14Z</time>
      </trkpt>
      <trkpt lat="38.8749940" lon="1.3820740">
        <ele>2.3</ele>
        <time>2020-02-21T10:34:15Z</time>
      </trkpt>
      <trkpt lat="38.8749750" lon="1.3820270">
        <ele>2.3</ele>
        <time>2020-02-21T10:34:16Z</time>
      </trkpt>
      <trkpt lat="38.8749600" lon="1.3819830">
        <ele>2.3</ele>
        <time>2020-02-21T10:34:17Z</time>
      </trkpt>
      <trkpt lat="38.8749420" lon="1.3819360">
        <ele>2.3</ele>
        <time>2020-02-21T10:34:18Z</time>
      </trkpt>
      <trkpt lat="38.8749220" lon="1.3818970">
        <ele>2.3</ele>
        <time>2020-02-21T10:34:19Z</time>
      </trkpt>
      <trkpt lat="38.8749060" lon="1.3818360">
        <ele>2.3</ele>
        <time>2020-02-21T10:34:20Z</time>
      </trkpt>
      <trkpt lat="38.8748850" lon="1.3817930">
        <ele>2.4</ele>
        <time>2020-02-21T10:34:21Z</time>
      </trkpt>
      <trkpt lat="38.8748720" lon="1.3817430">
        <ele>2.4</ele>
        <time>2020-02-21T10:34:22Z</time>
      </trkpt>
      <trkpt lat="38.8748630" lon="1.3816890">
        <ele>2.4</ele>
        <time>2020-02-21T10:34:23Z</time>
      </trkpt>
      <trkpt lat="38.8748440" lon="1.3816490">
        <ele>2.4</ele>
        <time>2020-02-21T10:34:24Z</time>
      </trkpt>
      <trkpt lat="38.8748220" lon="1.3816050">
        <ele>2.4</ele>
        <time>2020-02-21T10:34:25Z</time>
      </trkpt>
      <trkpt lat="38.8748000" lon="1.3815600">
        <ele>2.4</ele>
        <time>2020-02-21T10:34:26Z</time>
      </trkpt>
      <trkpt lat="38.8747770" lon="1.3815140">
        <ele>2.5</ele>
        <time>2020-02-21T10:34:27Z</time>
      </trkpt>
      <trkpt lat="38.8747520" lon="1.3814700">
        <ele>2.5</ele>
        <time>2020-02-21T10:34:28Z</time>
      </trkpt>
      <trkpt lat="38.8747290" lon="1.3814260">
        <ele>2.5</ele>
        <time>2020-02-21T10:34:29Z</time>
      </trkpt>
      <trkpt lat="38.8747110" lon="1.3813810">
        <ele>2.5</ele>
        <time>2020-02-21T10:34:30Z</time>
      </trkpt>
      <trkpt lat="38.8746910" lon="1.3813420">
        <ele>2.5</ele>
        <time>2020-02-21T10:34:31Z</time>
      </trkpt>
      <trkpt lat="38.8746790" lon="1.3812980">
        <ele>2.6</ele>
        <time>2020-02-21T10:34:32Z</time>
      </trkpt>
      <trkpt lat="38.8746630" lon="1.3812470">
        <ele>2.6</ele>
        <time>2020-02-21T10:34:33Z</time>
      </trkpt>
      <trkpt lat="38.8746470" lon="1.3811960">
        <ele>2.6</ele>
        <time>2020-02-21T10:34:34Z</time>
      </trkpt>
      <trkpt lat="38.8746260" lon="1.3811540">
        <ele>2.6</ele>
        <time>2020-02-21T10:34:35Z</time>
      </trkpt>
      <trkpt lat="38.8746050" lon="1.3811090">
        <ele>2.7</ele>
        <time>2020-02-21T10:34:36Z</time>
      </trkpt>
      <trkpt lat="38.8745810" lon="1.3810610">
        <ele>2.7</ele>
        <time>2020-02-21T10:34:37Z</time>
      </trkpt>
      <trkpt lat="38.8745600" lon="1.3810140">
        <ele>2.7</ele>
        <time>2020-02-21T10:34:38Z</time>
      </trkpt>
      <trkpt lat="38.8745420" lon="1.3809700">
        <ele>2.7</ele>
        <time>2020-02-21T10:34:39Z</time>
      </trkpt>
      <trkpt lat="38.8745270" lon="1.3809220">
        <ele>2.8</ele>
        <time>2020-02-21T10:34:40Z</time>
      </trkpt>
      <trkpt lat="38.8745060" lon="1.3808740">
        <ele>2.8</ele>
        <time>2020-02-21T10:34:41Z</time>
      </trkpt>
      <trkpt lat="38.8744800" lon="1.3808320">
        <ele>2.8</ele>
        <time>2020-02-21T10:34:42Z</time>
      </trkpt>
      <trkpt lat="38.8744590" lon="1.3807810">
        <ele>2.9</ele>
        <time>2020-02-21T10:34:43Z</time>
      </trkpt>
      <trkpt lat="38.8744360" lon="1.3807310">
        <ele>2.9</ele>
        <time>2020-02-21T10:34:44Z</time>
      </trkpt>
      <trkpt lat="38.8744190" lon="1.3806750">
        <ele>2.9</ele>
        <time>2020-02-21T10:34:45Z</time>
      </trkpt>
      <trkpt lat="38.8743950" lon="1.3806320">
        <ele>3.0</ele>
        <time>2020-02-21T10:34:46Z</time>
      </trkpt>
      <trkpt lat="38.8743730" lon="1.3805840">
        <ele>3.0</ele>
        <time>2020-02-21T10:34:47Z</time>
      </trkpt>
      <trkpt lat="38.8743510" lon="1.3805320">
        <ele>3.0</ele>
        <time>2020-02-21T10:34:48Z</time>
      </trkpt>
      <trkpt lat="38.8743230" lon="1.3804850">
        <ele>3.1</ele>
        <time>2020-02-21T10:34:49Z</time>
      </trkpt>
      <trkpt lat="38.8742990" lon="1.3804400">
        <ele>3.1</ele>
        <time>2020-02-21T10:34:50Z</time>
      </trkpt>
      <trkpt lat="38.8742750" lon="1.3803900">
        <ele>3.1</ele>
        <time>2020-02-21T10:34:51Z</time>
      </trkpt>
      <trkpt lat="38.8742530" lon="1.3803300">
        <ele>3.2</ele>
        <time>2020-02-21T10:34:52Z</time>
      </trkpt>
      <trkpt lat="38.8742330" lon="1.3802750">
        <ele>3.2</ele>
        <time>2020-02-21T10:34:53Z</time>
      </trkpt>
      <trkpt lat="38.8742130" lon="1.3802260">
        <ele>3.2</ele>
        <time>2020-02-21T10:34:54Z</time>
      </trkpt>
      <trkpt lat="38.8741950" lon="1.3801780">
        <ele>3.2</ele>
        <time>2020-02-21T10:34:55Z</time>
      </trkpt>
      <trkpt lat="38.8741820" lon="1.3801240">
        <ele>3.3</ele>
        <time>2020-02-21T10:34:56Z</time>
      </trkpt>
      <trkpt lat="38.8741630" lon="1.3800710">
        <ele>3.3</ele>
        <time>2020-02-21T10:34:57Z</time>
      </trkpt>
      <trkpt lat="38.8741380" lon="1.3800100">
        <ele>3.3</ele>
        <time>2020-02-21T10:34:58Z</time>
      </trkpt>
      <trkpt lat="38.8741120" lon="1.3799620">
        <ele>3.3</ele>
        <time>2020-02-21T10:34:59Z</time>
      </trkpt>
      <trkpt lat="38.8740920" lon="1.3799090">
        <ele>3.3</ele>
        <time>2020-02-21T10:35:00Z</time>
      </trkpt>
      <trkpt lat="38.8740700" lon="1.3798630">
        <ele>3.4</ele>
        <time>2020-02-21T10:35:01Z</time>
      </trkpt>
      <trkpt lat="38.8740550" lon="1.3798080">
        <ele>3.4</ele>
        <time>2020-02-21T10:35:02Z</time>
      </trkpt>
      <trkpt lat="38.8740330" lon="1.3797570">
        <ele>3.4</ele>
        <time>2020-02-21T10:35:03Z</time>
      </trkpt>
      <trkpt lat="38.8740110" lon="1.3797050">
        <ele>3.4</ele>
        <time>2020-02-21T10:35:04Z</time>
      </trkpt>
      <trkpt lat="38.8739840" lon="1.3796430">
        <ele>3.4</ele>
        <time>2020-02-21T10:35:05Z</time>
      </trkpt>
      <trkpt lat="38.8739690" lon="1.3795800">
        <ele>3.4</ele>
        <time>2020-02-21T10:35:06Z</time>
      </trkpt>
      <trkpt lat="38.8739420" lon="1.3795140">
        <ele>3.5</ele>
        <time>2020-02-21T10:35:07Z</time>
      </trkpt>
      <trkpt lat="38.8739200" lon="1.3794560">
        <ele>3.5</ele>
        <time>2020-02-21T10:35:08Z</time>
      </trkpt>
      <trkpt lat="38.8738950" lon="1.3793990">
        <ele>3.4</ele>
        <time>2020-02-21T10:35:09Z</time>
      </trkpt>
      <trkpt lat="38.8738680" lon="1.3793420">
        <ele>3.4</ele>
        <time>2020-02-21T10:35:10Z</time>
      </trkpt>
      <trkpt lat="38.8738490" lon="1.3792840">
        <ele>3.4</ele>
        <time>2020-02-21T10:35:11Z</time>
      </trkpt>
      <trkpt lat="38.8738250" lon="1.3792340">
        <ele>3.4</ele>
        <time>2020-02-21T10:35:12Z</time>
      </trkpt>
      <trkpt lat="38.8738040" lon="1.3791890">
        <ele>3.4</ele>
        <time>2020-02-21T10:35:13Z</time>
      </trkpt>
      <trkpt lat="38.8737900" lon="1.3791330">
        <ele>3.4</ele>
        <time>2020-02-21T10:35:14Z</time>
      </trkpt>
      <trkpt lat="38.8737750" lon="1.3790740">
        <ele>3.4</ele>
        <time>2020-02-21T10:35:15Z</time>
      </trkpt>
      <trkpt lat="38.8737580" lon="1.3790100">
        <ele>3.3</ele>
        <time>2020-02-21T10:35:16Z</time>
      </trkpt>
      <trkpt lat="38.8737350" lon="1.3789570">
        <ele>3.3</ele>
        <time>2020-02-21T10:35:17Z</time>
      </trkpt>
      <trkpt lat="38.8737000" lon="1.3789030">
        <ele>3.3</ele>
        <time>2020-02-21T10:35:18Z</time>
      </trkpt>
      <trkpt lat="38.8736650" lon="1.3788520">
        <ele>3.2</ele>
        <time>2020-02-21T10:35:19Z</time>
      </trkpt>
      <trkpt lat="38.8736220" lon="1.3788140">
        <ele>3.2</ele>
        <time>2020-02-21T10:35:20Z</time>
      </trkpt>
      <trkpt lat="38.8735890" lon="1.3787620">
        <ele>3.1</ele>
        <time>2020-02-21T10:35:21Z</time>
      </trkpt>
      <trkpt lat="38.8735590" lon="1.3787050">
        <ele>3.0</ele>
        <time>2020-02-21T10:35:22Z</time>
      </trkpt>
      <trkpt lat="38.8735400" lon="1.3786440">
        <ele>3.0</ele>
        <time>2020-02-21T10:35:23Z</time>
      </trkpt>
      <trkpt lat="38.8735190" lon="1.3785820">
        <ele>2.9</ele>
        <time>2020-02-21T10:35:24Z</time>
      </trkpt>
      <trkpt lat="38.8734940" lon="1.3785240">
        <ele>2.8</ele>
        <time>2020-02-21T10:35:25Z</time>
      </trkpt>
      <trkpt lat="38.8734710" lon="1.3784580">
        <ele>2.8</ele>
        <time>2020-02-21T10:35:26Z</time>
      </trkpt>
      <trkpt lat="38.8734500" lon="1.3783970">
        <ele>2.8</ele>
        <time>2020-02-21T10:35:27Z</time>
      </trkpt>
      <trkpt lat="38.8734280" lon="1.3783380">
        <ele>2.8</ele>
        <time>2020-02-21T10:35:28Z</time>
      </trkpt>
      <trkpt lat="38.8734060" lon="1.3782780">
        <ele>2.7</ele>
        <time>2020-02-21T10:35:29Z</time>
      </trkpt>
      <trkpt lat="38.8733810" lon="1.3782280">
        <ele>2.7</ele>
        <time>2020-02-21T10:35:30Z</time>
      </trkpt>
      <trkpt lat="38.8733590" lon="1.3781690">
        <ele>2.7</ele>
        <time>2020-02-21T10:35:31Z</time>
      </trkpt>
      <trkpt lat="38.8733360" lon="1.3781120">
        <ele>2.7</ele>
        <time>2020-02-21T10:35:32Z</time>
      </trkpt>
      <trkpt lat="38.8733140" lon="1.3780490">
        <ele>2.7</ele>
        <time>2020-02-21T10:35:33Z</time>
      </trkpt>
      <trkpt lat="38.8732920" lon="1.3779840">
        <ele>2.7</ele>
        <time>2020-02-21T10:35:34Z</time>
      </trkpt>
      <trkpt lat="38.8732640" lon="1.3779250">
        <ele>2.7</ele>
        <time>2020-02-21T10:35:35Z</time>
      </trkpt>
      <trkpt lat="38.8732370" lon="1.3778590">
        <ele>2.7</ele>
        <time>2020-02-21T10:35:36Z</time>
      </trkpt>
      <trkpt lat="38.8732090" lon="1.3778060">
        <ele>2.7</ele>
        <time>2020-02-21T10:35:37Z</time>
      </trkpt>
      <trkpt lat="38.8731790" lon="1.3777530">
        <ele>2.7</ele>
        <time>2020-02-21T10:35:38Z</time>
      </trkpt>
      <trkpt lat="38.8731600" lon="1.3776790">
        <ele>2.7</ele>
        <time>2020-02-21T10:35:39Z</time>
      </trkpt>
      <trkpt lat="38.8731380" lon="1.3776200">
        <ele>2.7</ele>
        <time>2020-02-21T10:35:40Z</time>
      </trkpt>
      <trkpt lat="38.8731160" lon="1.3775600">
        <ele>2.7</ele>
        <time>2020-02-21T10:35:41Z</time>
      </trkpt>
      <trkpt lat="38.8730970" lon="1.3774920">
        <ele>2.7</ele>
        <time>2020-02-21T10:35:42Z</time>
      </trkpt>
      <trkpt lat="38.8730700" lon="1.3774300">
        <ele>2.7</ele>
        <time>2020-02-21T10:35:43Z</time>
      </trkpt>
      <trkpt lat="38.8730430" lon="1.3773700">
        <ele>2.7</ele>
        <time>2020-02-21T10:35:44Z</time>
      </trkpt>
      <trkpt lat="38.8730120" lon="1.3773090">
        <ele>2.7</ele>
        <time>2020-02-21T10:35:45Z</time>
      </trkpt>
      <trkpt lat="38.8729840" lon="1.3772570">
        <ele>2.7</ele>
        <time>2020-02-21T10:35:46Z</time>
      </trkpt>
      <trkpt lat="38.8729640" lon="1.3771930">
        <ele>2.7</ele>
        <time>2020-02-21T10:35:47Z</time>
      </trkpt>
      <trkpt lat="38.8729510" lon="1.3771230">
        <ele>2.7</ele>
        <time>2020-02-21T10:35:48Z</time>
      </trkpt>
      <trkpt lat="38.8729280" lon="1.3770640">
        <ele>2.7</ele>
        <time>2020-02-21T10:35:49Z</time>
      </trkpt>
      <trkpt lat="38.8729040" lon="1.3769980">
        <ele>2.7</ele>
        <time>2020-02-21T10:35:50Z</time>
      </trkpt>
      <trkpt lat="38.8728740" lon="1.3769410">
        <ele>2.7</ele>
        <time>2020-02-21T10:35:51Z</time>
      </trkpt>
      <trkpt lat="38.8728420" lon="1.3768800">
        <ele>2.7</ele>
        <time>2020-02-21T10:35:52Z</time>
      </trkpt>
      <trkpt lat="38.8728150" lon="1.3768240">
        <ele>2.7</ele>
        <time>2020-02-21T10:35:53Z</time>
      </trkpt>
      <trkpt lat="38.8727890" lon="1.3767630">
        <ele>2.7</ele>
        <time>2020-02-21T10:35:54Z</time>
      </trkpt>
      <trkpt lat="38.8727690" lon="1.3766950">
        <ele>2.7</ele>
        <time>2020-02-21T10:35:55Z</time>
      </trkpt>
      <trkpt lat="38.8727370" lon="1.3766310">
        <ele>2.7</ele>
        <time>2020-02-21T10:35:56Z</time>
      </trkpt>
      <trkpt lat="38.8727110" lon="1.3765660">
        <ele>2.7</ele>
        <time>2020-02-21T10:35:57Z</time>
      </trkpt>
      <trkpt lat="38.8726810" lon="1.3765080">
        <ele>2.7</ele>
        <time>2020-02-21T10:35:58Z</time>
      </trkpt>
      <trkpt lat="38.8726540" lon="1.3764490">
        <ele>2.7</ele>
        <time>2020-02-21T10:35:59Z</time>
      </trkpt>
      <trkpt lat="38.8726260" lon="1.3763940">
        <ele>2.7</ele>
        <time>2020-02-21T10:36:00Z</time>
      </trkpt>
      <trkpt lat="38.8726010" lon="1.3763400">
        <ele>2.7</ele>
        <time>2020-02-21T10:36:01Z</time>
      </trkpt>
      <trkpt lat="38.8725760" lon="1.3762790">
        <ele>2.7</ele>
        <time>2020-02-21T10:36:02Z</time>
      </trkpt>
      <trkpt lat="38.8725490" lon="1.3762130">
        <ele>2.7</ele>
        <time>2020-02-21T10:36:03Z</time>
      </trkpt>
      <trkpt lat="38.8725260" lon="1.3761430">
        <ele>2.7</ele>
        <time>2020-02-21T10:36:04Z</time>
      </trkpt>
      <trkpt lat="38.8725070" lon="1.3760760">
        <ele>2.7</ele>
        <time>2020-02-21T10:36:05Z</time>
      </trkpt>
      <trkpt lat="38.8724920" lon="1.3760090">
        <ele>2.7</ele>
        <time>2020-02-21T10:36:06Z</time>
      </trkpt>
      <trkpt lat="38.8724780" lon="1.3759460">
        <ele>2.7</ele>
        <time>2020-02-21T10:36:07Z</time>
      </trkpt>
      <trkpt lat="38.8724590" lon="1.3758850">
        <ele>2.7</ele>
        <time>2020-02-21T10:36:08Z</time>
      </trkpt>
      <trkpt lat="38.8724400" lon="1.3758060">
        <ele>2.7</ele>
        <time>2020-02-21T10:36:09Z</time>
      </trkpt>
      <trkpt lat="38.8724200" lon="1.3757360">
        <ele>2.7</ele>
        <time>2020-02-21T10:36:10Z</time>
      </trkpt>
      <trkpt lat="38.8723960" lon="1.3756680">
        <ele>2.7</ele>
        <time>2020-02-21T10:36:11Z</time>
      </trkpt>
      <trkpt lat="38.8723640" lon="1.3756060">
        <ele>2.7</ele>
        <time>2020-02-21T10:36:12Z</time>
      </trkpt>
      <trkpt lat="38.8723380" lon="1.3755470">
        <ele>2.7</ele>
        <time>2020-02-21T10:36:13Z</time>
      </trkpt>
      <trkpt lat="38.8723140" lon="1.3754900">
        <ele>2.7</ele>
        <time>2020-02-21T10:36:14Z</time>
      </trkpt>
      <trkpt lat="38.8722950" lon="1.3754340">
        <ele>2.7</ele>
        <time>2020-02-21T10:36:15Z</time>
      </trkpt>
      <trkpt lat="38.8722700" lon="1.3753800">
        <ele>2.7</ele>
        <time>2020-02-21T10:36:16Z</time>
      </trkpt>
      <trkpt lat="38.8722450" lon="1.3753200">
        <ele>2.7</ele>
        <time>2020-02-21T10:36:17Z</time>
      </trkpt>
      <trkpt lat="38.8722140" lon="1.3752680">
        <ele>2.7</ele>
        <time>2020-02-21T10:36:18Z</time>
      </trkpt>
      <trkpt lat="38.8721860" lon="1.3752130">
        <ele>2.7</ele>
        <time>2020-02-21T10:36:19Z</time>
      </trkpt>
      <trkpt lat="38.8721500" lon="1.3751440">
        <ele>2.7</ele>
        <time>2020-02-21T10:36:20Z</time>
      </trkpt>
      <trkpt lat="38.8721270" lon="1.3750600">
        <ele>2.4</ele>
        <time>2020-02-21T10:36:21Z</time>
      </trkpt>
      <trkpt lat="38.8721070" lon="1.3749920">
        <ele>2.3</ele>
        <time>2020-02-21T10:36:22Z</time>
      </trkpt>
      <trkpt lat="38.8720840" lon="1.3749240">
        <ele>2.1</ele>
        <time>2020-02-21T10:36:23Z</time>
      </trkpt>
      <trkpt lat="38.8720560" lon="1.3748560">
        <ele>2.1</ele>
        <time>2020-02-21T10:36:24Z</time>
      </trkpt>
      <trkpt lat="38.8720270" lon="1.3748050">
        <ele>2.2</ele>
        <time>2020-02-21T10:36:25Z</time>
      </trkpt>
      <trkpt lat="38.8719950" lon="1.3747530">
        <ele>2.2</ele>
        <time>2020-02-21T10:36:26Z</time>
      </trkpt>
      <trkpt lat="38.8719640" lon="1.3746920">
        <ele>2.3</ele>
        <time>2020-02-21T10:36:27Z</time>
      </trkpt>
      <trkpt lat="38.8719510" lon="1.3746260">
        <ele>2.4</ele>
        <time>2020-02-21T10:36:28Z</time>
      </trkpt>
      <trkpt lat="38.8719370" lon="1.3745630">
        <ele>2.4</ele>
        <time>2020-02-21T10:36:29Z</time>
      </trkpt>
      <trkpt lat="38.8719140" lon="1.3744930">
        <ele>2.5</ele>
        <time>2020-02-21T10:36:30Z</time>
      </trkpt>
      <trkpt lat="38.8718940" lon="1.3744310">
        <ele>2.5</ele>
        <time>2020-02-21T10:36:31Z</time>
      </trkpt>
      <trkpt lat="38.8718630" lon="1.3743800">
        <ele>2.5</ele>
        <time>2020-02-21T10:36:32Z</time>
      </trkpt>
      <trkpt lat="38.8718320" lon="1.3743240">
        <ele>2.4</ele>
        <time>2020-02-21T10:36:33Z</time>
      </trkpt>
      <trkpt lat="38.8718100" lon="1.3742610">
        <ele>2.3</ele>
        <time>2020-02-21T10:36:34Z</time>
      </trkpt>
      <trkpt lat="38.8717920" lon="1.3741990">
        <ele>2.3</ele>
        <time>2020-02-21T10:36:35Z</time>
      </trkpt>
      <trkpt lat="38.8717690" lon="1.3741420">
        <ele>2.2</ele>
        <time>2020-02-21T10:36:36Z</time>
      </trkpt>
      <trkpt lat="38.8717450" lon="1.3740860">
        <ele>2.1</ele>
        <time>2020-02-21T10:36:37Z</time>
      </trkpt>
      <trkpt lat="38.8717160" lon="1.3740130">
        <ele>2.0</ele>
        <time>2020-02-21T10:36:38Z</time>
      </trkpt>
      <trkpt lat="38.8716910" lon="1.3739500">
        <ele>1.9</ele>
        <time>2020-02-21T10:36:39Z</time>
      </trkpt>
      <trkpt lat="38.8716680" lon="1.3738790">
        <ele>1.9</ele>
        <time>2020-02-21T10:36:40Z</time>
      </trkpt>
      <trkpt lat="38.8716400" lon="1.3738200">
        <ele>1.9</ele>
        <time>2020-02-21T10:36:41Z</time>
      </trkpt>
      <trkpt lat="38.8716160" lon="1.3737540">
        <ele>2.0</ele>
        <time>2020-02-21T10:36:42Z</time>
      </trkpt>
      <trkpt lat="38.8715790" lon="1.3736800">
        <ele>2.0</ele>
        <time>2020-02-21T10:36:43Z</time>
      </trkpt>
      <trkpt lat="38.8715480" lon="1.3736190">
        <ele>2.1</ele>
        <time>2020-02-21T10:36:44Z</time>
      </trkpt>
      <trkpt lat="38.8715170" lon="1.3735560">
        <ele>2.2</ele>
        <time>2020-02-21T10:36:45Z</time>
      </trkpt>
      <trkpt lat="38.8714890" lon="1.3734990">
        <ele>2.3</ele>
        <time>2020-02-21T10:36:46Z</time>
      </trkpt>
      <trkpt lat="38.8714680" lon="1.3734320">
        <ele>2.4</ele>
        <time>2020-02-21T10:36:47Z</time>
      </trkpt>
      <trkpt lat="38.8714450" lon="1.3733730">
        <ele>2.4</ele>
        <time>2020-02-21T10:36:48Z</time>
      </trkpt>
      <trkpt lat="38.8714200" lon="1.3733210">
        <ele>2.5</ele>
        <time>2020-02-21T10:36:49Z</time>
      </trkpt>
      <trkpt lat="38.8713990" lon="1.3732650">
        <ele>2.5</ele>
        <time>2020-02-21T10:36:50Z</time>
      </trkpt>
      <trkpt lat="38.8713800" lon="1.3732020">
        <ele>2.5</ele>
        <time>2020-02-21T10:36:51Z</time>
      </trkpt>
      <trkpt lat="38.8713580" lon="1.3731340">
        <ele>2.5</ele>
        <time>2020-02-21T10:36:52Z</time>
      </trkpt>
      <trkpt lat="38.8713330" lon="1.3730690">
        <ele>2.5</ele>
        <time>2020-02-21T10:36:53Z</time>
      </trkpt>
      <trkpt lat="38.8713060" lon="1.3730070">
        <ele>2.5</ele>
        <time>2020-02-21T10:36:54Z</time>
      </trkpt>
      <trkpt lat="38.8712750" lon="1.3729510">
        <ele>2.5</ele>
        <time>2020-02-21T10:36:55Z</time>
      </trkpt>
      <trkpt lat="38.8712430" lon="1.3728870">
        <ele>2.4</ele>
        <time>2020-02-21T10:36:56Z</time>
      </trkpt>
      <trkpt lat="38.8712070" lon="1.3728250">
        <ele>2.3</ele>
        <time>2020-02-21T10:36:57Z</time>
      </trkpt>
      <trkpt lat="38.8711810" lon="1.3727520">
        <ele>2.3</ele>
        <time>2020-02-21T10:36:58Z</time>
      </trkpt>
      <trkpt lat="38.8711520" lon="1.3726780">
        <ele>2.2</ele>
        <time>2020-02-21T10:36:59Z</time>
      </trkpt>
      <trkpt lat="38.8711200" lon="1.3726260">
        <ele>2.1</ele>
        <time>2020-02-21T10:37:00Z</time>
      </trkpt>
      <trkpt lat="38.8710910" lon="1.3725690">
        <ele>1.9</ele>
        <time>2020-02-21T10:37:01Z</time>
      </trkpt>
      <trkpt lat="38.8710690" lon="1.3725060">
        <ele>1.8</ele>
        <time>2020-02-21T10:37:02Z</time>
      </trkpt>
      <trkpt lat="38.8710450" lon="1.3724410">
        <ele>1.7</ele>
        <time>2020-02-21T10:37:03Z</time>
      </trkpt>
      <trkpt lat="38.8710220" lon="1.3723860">
        <ele>1.6</ele>
        <time>2020-02-21T10:37:04Z</time>
      </trkpt>
      <trkpt lat="38.8709960" lon="1.3723330">
        <ele>1.5</ele>
        <time>2020-02-21T10:37:05Z</time>
      </trkpt>
      <trkpt lat="38.8709720" lon="1.3722770">
        <ele>1.5</ele>
        <time>2020-02-21T10:37:06Z</time>
      </trkpt>
      <trkpt lat="38.8709380" lon="1.3722250">
        <ele>1.5</ele>
        <time>2020-02-21T10:37:07Z</time>
      </trkpt>
      <trkpt lat="38.8709100" lon="1.3721650">
        <ele>1.5</ele>
        <time>2020-02-21T10:37:08Z</time>
      </trkpt>
      <trkpt lat="38.8708860" lon="1.3721020">
        <ele>1.5</ele>
        <time>2020-02-21T10:37:09Z</time>
      </trkpt>
      <trkpt lat="38.8708650" lon="1.3720400">
        <ele>1.5</ele>
        <time>2020-02-21T10:37:10Z</time>
      </trkpt>
      <trkpt lat="38.8708430" lon="1.3719730">
        <ele>1.4</ele>
        <time>2020-02-21T10:37:11Z</time>
      </trkpt>
      <trkpt lat="38.8708140" lon="1.3719120">
        <ele>1.4</ele>
        <time>2020-02-21T10:37:12Z</time>
      </trkpt>
      <trkpt lat="38.8707910" lon="1.3718360">
        <ele>1.4</ele>
        <time>2020-02-21T10:37:13Z</time>
      </trkpt>
      <trkpt lat="38.8707690" lon="1.3717670">
        <ele>1.4</ele>
        <time>2020-02-21T10:37:14Z</time>
      </trkpt>
      <trkpt lat="38.8707430" lon="1.3717030">
        <ele>1.4</ele>
        <time>2020-02-21T10:37:15Z</time>
      </trkpt>
      <trkpt lat="38.8707170" lon="1.3716350">
        <ele>1.4</ele>
        <time>2020-02-21T10:37:16Z</time>
      </trkpt>
      <trkpt lat="38.8706920" lon="1.3715690">
        <ele>1.4</ele>
        <time>2020-02-21T10:37:17Z</time>
      </trkpt>
      <trkpt lat="38.8706660" lon="1.3715030">
        <ele>1.4</ele>
        <time>2020-02-21T10:37:18Z</time>
      </trkpt>
      <trkpt lat="38.8706400" lon="1.3714490">
        <ele>1.4</ele>
        <time>2020-02-21T10:37:19Z</time>
      </trkpt>
      <trkpt lat="38.8706170" lon="1.3713840">
        <ele>1.4</ele>
        <time>2020-02-21T10:37:20Z</time>
      </trkpt>
      <trkpt lat="38.8705960" lon="1.3713370">
        <ele>1.4</ele>
        <time>2020-02-21T10:37:21Z</time>
      </trkpt>
      <trkpt lat="38.8705730" lon="1.3712830">
        <ele>1.4</ele>
        <time>2020-02-21T10:37:22Z</time>
      </trkpt>
      <trkpt lat="38.8705500" lon="1.3712320">
        <ele>1.4</ele>
        <time>2020-02-21T10:37:23Z</time>
      </trkpt>
      <trkpt lat="38.8705200" lon="1.3711700">
        <ele>1.5</ele>
        <time>2020-02-21T10:37:24Z</time>
      </trkpt>
      <trkpt lat="38.8704970" lon="1.3711090">
        <ele>1.5</ele>
        <time>2020-02-21T10:37:25Z</time>
      </trkpt>
      <trkpt lat="38.8704720" lon="1.3710520">
        <ele>1.5</ele>
        <time>2020-02-21T10:37:26Z</time>
      </trkpt>
      <trkpt lat="38.8704450" lon="1.3709940">
        <ele>1.5</ele>
        <time>2020-02-21T10:37:27Z</time>
      </trkpt>
      <trkpt lat="38.8704160" lon="1.3709370">
        <ele>1.5</ele>
        <time>2020-02-21T10:37:28Z</time>
      </trkpt>
      <trkpt lat="38.8703900" lon="1.3708700">
        <ele>1.5</ele>
        <time>2020-02-21T10:37:29Z</time>
      </trkpt>
      <trkpt lat="38.8703620" lon="1.3708000">
        <ele>1.5</ele>
        <time>2020-02-21T10:37:30Z</time>
      </trkpt>
      <trkpt lat="38.8703390" lon="1.3707330">
        <ele>1.5</ele>
        <time>2020-02-21T10:37:31Z</time>
      </trkpt>
      <trkpt lat="38.8703120" lon="1.3706760">
        <ele>1.5</ele>
        <time>2020-02-21T10:37:32Z</time>
      </trkpt>
      <trkpt lat="38.8702870" lon="1.3706090">
        <ele>1.5</ele>
        <time>2020-02-21T10:37:33Z</time>
      </trkpt>
      <trkpt lat="38.8702640" lon="1.3705420">
        <ele>1.5</ele>
        <time>2020-02-21T10:37:34Z</time>
      </trkpt>
      <trkpt lat="38.8702380" lon="1.3704800">
        <ele>1.5</ele>
        <time>2020-02-21T10:37:35Z</time>
      </trkpt>
      <trkpt lat="38.8702040" lon="1.3704390">
        <ele>1.5</ele>
        <time>2020-02-21T10:37:36Z</time>
      </trkpt>
      <trkpt lat="38.8701440" lon="1.3704220">
        <ele>1.5</ele>
        <time>2020-02-21T10:37:37Z</time>
      </trkpt>
      <trkpt lat="38.8700780" lon="1.3704230">
        <ele>1.5</ele>
        <time>2020-02-21T10:37:38Z</time>
      </trkpt>
      <trkpt lat="38.8700160" lon="1.3704130">
        <ele>1.5</ele>
        <time>2020-02-21T10:37:39Z</time>
      </trkpt>
      <trkpt lat="38.8699630" lon="1.3703940">
        <ele>1.5</ele>
        <time>2020-02-21T10:37:40Z</time>
      </trkpt>
      <trkpt lat="38.8699090" lon="1.3703760">
        <ele>1.5</ele>
        <time>2020-02-21T10:37:41Z</time>
      </trkpt>
      <trkpt lat="38.8698620" lon="1.3703580">
        <ele>1.5</ele>
        <time>2020-02-21T10:37:42Z</time>
      </trkpt>
      <trkpt lat="38.8698090" lon="1.3703430">
        <ele>1.5</ele>
        <time>2020-02-21T10:37:43Z</time>
      </trkpt>
      <trkpt lat="38.8697500" lon="1.3703090">
        <ele>1.5</ele>
        <time>2020-02-21T10:37:44Z</time>
      </trkpt>
      <trkpt lat="38.8697090" lon="1.3702610">
        <ele>1.5</ele>
        <time>2020-02-21T10:37:45Z</time>
      </trkpt>
      <trkpt lat="38.8696790" lon="1.3702130">
        <ele>1.5</ele>
        <time>2020-02-21T10:37:46Z</time>
      </trkpt>
      <trkpt lat="38.8696650" lon="1.3701430">
        <ele>1.5</ele>
        <time>2020-02-21T10:37:47Z</time>
      </trkpt>
      <trkpt lat="38.8696420" lon="1.3700830">
        <ele>1.5</ele>
        <time>2020-02-21T10:37:48Z</time>
      </trkpt>
      <trkpt lat="38.8696120" lon="1.3700190">
        <ele>1.5</ele>
        <time>2020-02-21T10:37:49Z</time>
      </trkpt>
      <trkpt lat="38.8695860" lon="1.3699570">
        <ele>1.5</ele>
        <time>2020-02-21T10:37:50Z</time>
      </trkpt>
      <trkpt lat="38.8695570" lon="1.3699000">
        <ele>1.5</ele>
        <time>2020-02-21T10:37:51Z</time>
      </trkpt>
      <trkpt lat="38.8695300" lon="1.3698450">
        <ele>1.5</ele>
        <time>2020-02-21T10:37:52Z</time>
      </trkpt>
      <trkpt lat="38.8695070" lon="1.3697820">
        <ele>1.5</ele>
        <time>2020-02-21T10:37:53Z</time>
      </trkpt>
      <trkpt lat="38.8694820" lon="1.3697220">
        <ele>1.5</ele>
        <time>2020-02-21T10:37:54Z</time>
      </trkpt>
      <trkpt lat="38.8694640" lon="1.3696670">
        <ele>1.5</ele>
        <time>2020-02-21T10:37:55Z</time>
      </trkpt>
      <trkpt lat="38.8694440" lon="1.3696150">
        <ele>1.6</ele>
        <time>2020-02-21T10:37:56Z</time>
      </trkpt>
      <trkpt lat="38.8694210" lon="1.3695580">
        <ele>1.6</ele>
        <time>2020-02-21T10:37:57Z</time>
      </trkpt>
      <trkpt lat="38.8693960" lon="1.3695000">
        <ele>1.7</ele>
        <time>2020-02-21T10:37:58Z</time>
      </trkpt>
      <trkpt lat="38.8693710" lon="1.3694270">
        <ele>1.8</ele>
        <time>2020-02-21T10:37:59Z</time>
      </trkpt>
      <trkpt lat="38.8693350" lon="1.3693600">
        <ele>2.0</ele>
        <time>2020-02-21T10:38:00Z</time>
      </trkpt>
      <trkpt lat="38.8693040" lon="1.3693000">
        <ele>2.1</ele>
        <time>2020-02-21T10:38:01Z</time>
      </trkpt>
      <trkpt lat="38.8692760" lon="1.3692420">
        <ele>2.2</ele>
        <time>2020-02-21T10:38:02Z</time>
      </trkpt>
      <trkpt lat="38.8692490" lon="1.3691840">
        <ele>2.3</ele>
        <time>2020-02-21T10:38:03Z</time>
      </trkpt>
      <trkpt lat="38.8692200" lon="1.3691240">
        <ele>2.4</ele>
        <time>2020-02-21T10:38:04Z</time>
      </trkpt>
      <trkpt lat="38.8691870" lon="1.3690670">
        <ele>2.4</ele>
        <time>2020-02-21T10:38:05Z</time>
      </trkpt>
      <trkpt lat="38.8691530" lon="1.3690170">
        <ele>2.4</ele>
        <time>2020-02-21T10:38:06Z</time>
      </trkpt>
      <trkpt lat="38.8691280" lon="1.3689650">
        <ele>2.5</ele>
        <time>2020-02-21T10:38:07Z</time>
      </trkpt>
      <trkpt lat="38.8691070" lon="1.3688990">
        <ele>2.5</ele>
        <time>2020-02-21T10:38:08Z</time>
      </trkpt>
      <trkpt lat="38.8690830" lon="1.3688360">
        <ele>2.5</ele>
        <time>2020-02-21T10:38:09Z</time>
      </trkpt>
      <trkpt lat="38.8690660" lon="1.3687730">
        <ele>2.5</ele>
        <time>2020-02-21T10:38:10Z</time>
      </trkpt>
      <trkpt lat="38.8690360" lon="1.3687170">
        <ele>2.5</ele>
        <time>2020-02-21T10:38:11Z</time>
      </trkpt>
      <trkpt lat="38.8689990" lon="1.3686690">
        <ele>2.5</ele>
        <time>2020-02-21T10:38:12Z</time>
      </trkpt>
      <trkpt lat="38.8689600" lon="1.3686190">
        <ele>2.5</ele>
        <time>2020-02-21T10:38:13Z</time>
      </trkpt>
      <trkpt lat="38.8689350" lon="1.3685560">
        <ele>2.5</ele>
        <time>2020-02-21T10:38:14Z</time>
      </trkpt>
      <trkpt lat="38.8689080" lon="1.3684930">
        <ele>2.5</ele>
        <time>2020-02-21T10:38:15Z</time>
      </trkpt>
      <trkpt lat="38.8688800" lon="1.3684340">
        <ele>2.5</ele>
        <time>2020-02-21T10:38:16Z</time>
      </trkpt>
      <trkpt lat="38.8688580" lon="1.3683780">
        <ele>2.5</ele>
        <time>2020-02-21T10:38:17Z</time>
      </trkpt>
      <trkpt lat="38.8688320" lon="1.3683230">
        <ele>2.5</ele>
        <time>2020-02-21T10:38:18Z</time>
      </trkpt>
      <trkpt lat="38.8688060" lon="1.3682670">
        <ele>2.5</ele>
        <time>2020-02-21T10:38:19Z</time>
      </trkpt>
      <trkpt lat="38.8687940" lon="1.3682050">
        <ele>2.5</ele>
        <time>2020-02-21T10:38:20Z</time>
      </trkpt>
      <trkpt lat="38.8687640" lon="1.3681360">
        <ele>2.5</ele>
        <time>2020-02-21T10:38:21Z</time>
      </trkpt>
      <trkpt lat="38.8687330" lon="1.3680700">
        <ele>2.5</ele>
        <time>2020-02-21T10:38:22Z</time>
      </trkpt>
      <trkpt lat="38.8687040" lon="1.3680140">
        <ele>2.5</ele>
        <time>2020-02-21T10:38:23Z</time>
      </trkpt>
      <trkpt lat="38.8686800" lon="1.3679640">
        <ele>2.5</ele>
        <time>2020-02-21T10:38:24Z</time>
      </trkpt>
      <trkpt lat="38.8686590" lon="1.3679140">
        <ele>2.5</ele>
        <time>2020-02-21T10:38:25Z</time>
      </trkpt>
      <trkpt lat="38.8686400" lon="1.3678630">
        <ele>2.5</ele>
        <time>2020-02-21T10:38:26Z</time>
      </trkpt>
      <trkpt lat="38.8686190" lon="1.3678120">
        <ele>2.5</ele>
        <time>2020-02-21T10:38:27Z</time>
      </trkpt>
      <trkpt lat="38.8685930" lon="1.3677620">
        <ele>2.5</ele>
        <time>2020-02-21T10:38:28Z</time>
      </trkpt>
      <trkpt lat="38.8685560" lon="1.3677090">
        <ele>2.5</ele>
        <time>2020-02-21T10:38:29Z</time>
      </trkpt>
      <trkpt lat="38.8685250" lon="1.3676600">
        <ele>2.5</ele>
        <time>2020-02-21T10:38:30Z</time>
      </trkpt>
      <trkpt lat="38.8684910" lon="1.3676140">
        <ele>2.5</ele>
        <time>2020-02-21T10:38:31Z</time>
      </trkpt>
      <trkpt lat="38.8684610" lon="1.3675660">
        <ele>2.5</ele>
        <time>2020-02-21T10:38:32Z</time>
      </trkpt>
      <trkpt lat="38.8684360" lon="1.3675150">
        <ele>2.5</ele>
        <time>2020-02-21T10:38:33Z</time>
      </trkpt>
      <trkpt lat="38.8684140" lon="1.3674700">
        <ele>2.5</ele>
        <time>2020-02-21T10:38:34Z</time>
      </trkpt>
      <trkpt lat="38.8683910" lon="1.3674020">
        <ele>2.5</ele>
        <time>2020-02-21T10:38:35Z</time>
      </trkpt>
      <trkpt lat="38.8683870" lon="1.3673500">
        <ele>2.5</ele>
        <time>2020-02-21T10:38:36Z</time>
      </trkpt>
      <trkpt lat="38.8683820" lon="1.3672910">
        <ele>2.5</ele>
        <time>2020-02-21T10:38:37Z</time>
      </trkpt>
      <trkpt lat="38.8683740" lon="1.3672390">
        <ele>2.5</ele>
        <time>2020-02-21T10:38:38Z</time>
      </trkpt>
      <trkpt lat="38.8683630" lon="1.3671830">
        <ele>2.5</ele>
        <time>2020-02-21T10:38:39Z</time>
      </trkpt>
      <trkpt lat="38.8683550" lon="1.3671290">
        <ele>2.5</ele>
        <time>2020-02-21T10:38:40Z</time>
      </trkpt>
      <trkpt lat="38.8683460" lon="1.3670760">
        <ele>2.5</ele>
        <time>2020-02-21T10:38:41Z</time>
      </trkpt>
      <trkpt lat="38.8683380" lon="1.3670140">
        <ele>2.5</ele>
        <time>2020-02-21T10:38:42Z</time>
      </trkpt>
      <trkpt lat="38.8683250" lon="1.3669570">
        <ele>2.5</ele>
        <time>2020-02-21T10:38:43Z</time>
      </trkpt>
      <trkpt lat="38.8683240" lon="1.3669010">
        <ele>2.5</ele>
        <time>2020-02-21T10:38:44Z</time>
      </trkpt>
      <trkpt lat="38.8683100" lon="1.3668590">
        <ele>2.5</ele>
        <time>2020-02-21T10:38:45Z</time>
      </trkpt>
      <trkpt lat="38.8682800" lon="1.3668020">
        <ele>2.5</ele>
        <time>2020-02-21T10:38:46Z</time>
      </trkpt>
      <trkpt lat="38.8682480" lon="1.3667780">
        <ele>2.5</ele>
        <time>2020-02-21T10:38:47Z</time>
      </trkpt>
      <trkpt lat="38.8682010" lon="1.3667620">
        <ele>2.5</ele>
        <time>2020-02-21T10:38:48Z</time>
      </trkpt>
      <trkpt lat="38.8681660" lon="1.3667830">
        <ele>2.5</ele>
        <time>2020-02-21T10:38:49Z</time>
      </trkpt>
      <trkpt lat="38.8681360" lon="1.3668050">
        <ele>2.5</ele>
        <time>2020-02-21T10:38:50Z</time>
      </trkpt>
      <trkpt lat="38.8680960" lon="1.3667970">
        <ele>2.5</ele>
        <time>2020-02-21T10:38:51Z</time>
      </trkpt>
      <trkpt lat="38.8680570" lon="1.3667680">
        <ele>2.5</ele>
        <time>2020-02-21T10:38:52Z</time>
      </trkpt>
      <trkpt lat="38.8680390" lon="1.3667320">
        <ele>2.5</ele>
        <time>2020-02-21T10:38:53Z</time>
      </trkpt>
      <trkpt lat="38.8680140" lon="1.3666810">
        <ele>2.5</ele>
        <time>2020-02-21T10:38:54Z</time>
      </trkpt>
      <trkpt lat="38.8679890" lon="1.3666360">
        <ele>2.5</ele>
        <time>2020-02-21T10:38:55Z</time>
      </trkpt>
      <trkpt lat="38.8679660" lon="1.3665880">
        <ele>2.5</ele>
        <time>2020-02-21T10:38:56Z</time>
      </trkpt>
      <trkpt lat="38.8679420" lon="1.3665320">
        <ele>2.5</ele>
        <time>2020-02-21T10:38:57Z</time>
      </trkpt>
      <trkpt lat="38.8679190" lon="1.3664900">
        <ele>2.5</ele>
        <time>2020-02-21T10:38:58Z</time>
      </trkpt>
      <trkpt lat="38.8678950" lon="1.3664360">
        <ele>2.5</ele>
        <time>2020-02-21T10:38:59Z</time>
      </trkpt>
      <trkpt lat="38.8678750" lon="1.3663760">
        <ele>2.5</ele>
        <time>2020-02-21T10:39:00Z</time>
      </trkpt>
      <trkpt lat="38.8678490" lon="1.3663330">
        <ele>2.5</ele>
        <time>2020-02-21T10:39:01Z</time>
      </trkpt>
      <trkpt lat="38.8678290" lon="1.3662780">
        <ele>2.5</ele>
        <time>2020-02-21T10:39:02Z</time>
      </trkpt>
      <trkpt lat="38.8678060" lon="1.3662280">
        <ele>2.5</ele>
        <time>2020-02-21T10:39:03Z</time>
      </trkpt>
      <trkpt lat="38.8677670" lon="1.3662200">
        <ele>2.5</ele>
        <time>2020-02-21T10:39:04Z</time>
      </trkpt>
      <trkpt lat="38.8677190" lon="1.3662320">
        <ele>2.5</ele>
        <time>2020-02-21T10:39:05Z</time>
      </trkpt>
      <trkpt lat="38.8676790" lon="1.3662780">
        <ele>2.5</ele>
        <time>2020-02-21T10:39:06Z</time>
      </trkpt>
      <trkpt lat="38.8676350" lon="1.3663140">
        <ele>2.5</ele>
        <time>2020-02-21T10:39:07Z</time>
      </trkpt>
      <trkpt lat="38.8675890" lon="1.3663490">
        <ele>2.5</ele>
        <time>2020-02-21T10:39:08Z</time>
      </trkpt>
      <trkpt lat="38.8675510" lon="1.3663770">
        <ele>2.4</ele>
        <time>2020-02-21T10:39:09Z</time>
      </trkpt>
      <trkpt lat="38.8675100" lon="1.3664140">
        <ele>2.4</ele>
        <time>2020-02-21T10:39:10Z</time>
      </trkpt>
      <trkpt lat="38.8674690" lon="1.3664540">
        <ele>2.3</ele>
        <time>2020-02-21T10:39:11Z</time>
      </trkpt>
      <trkpt lat="38.8674200" lon="1.3664880">
        <ele>2.2</ele>
        <time>2020-02-21T10:39:12Z</time>
      </trkpt>
      <trkpt lat="38.8673760" lon="1.3665210">
        <ele>2.1</ele>
        <time>2020-02-21T10:39:13Z</time>
      </trkpt>
      <trkpt lat="38.8673240" lon="1.3665540">
        <ele>2.0</ele>
        <time>2020-02-21T10:39:14Z</time>
      </trkpt>
      <trkpt lat="38.8672820" lon="1.3665780">
        <ele>1.8</ele>
        <time>2020-02-21T10:39:15Z</time>
      </trkpt>
      <trkpt lat="38.8672380" lon="1.3666070">
        <ele>1.7</ele>
        <time>2020-02-21T10:39:16Z</time>
      </trkpt>
      <trkpt lat="38.8672030" lon="1.3666280">
        <ele>1.7</ele>
        <time>2020-02-21T10:39:17Z</time>
      </trkpt>
      <trkpt lat="38.8671560" lon="1.3666550">
        <ele>1.6</ele>
        <time>2020-02-21T10:39:18Z</time>
      </trkpt>
      <trkpt lat="38.8671130" lon="1.3666860">
        <ele>1.6</ele>
        <time>2020-02-21T10:39:19Z</time>
      </trkpt>
      <trkpt lat="38.8670690" lon="1.3667140">
        <ele>1.5</ele>
        <time>2020-02-21T10:39:20Z</time>
      </trkpt>
      <trkpt lat="38.8670250" lon="1.3667400">
        <ele>1.5</ele>
        <time>2020-02-21T10:39:21Z</time>
      </trkpt>
      <trkpt lat="38.8669730" lon="1.3667350">
        <ele>1.5</ele>
        <time>2020-02-21T10:39:22Z</time>
      </trkpt>
      <trkpt lat="38.8669360" lon="1.3666930">
        <ele>1.5</ele>
        <time>2020-02-21T10:39:23Z</time>
      </trkpt>
      <trkpt lat="38.8669210" lon="1.3666100">
        <ele>1.5</ele>
        <time>2020-02-21T10:39:24Z</time>
      </trkpt>
      <trkpt lat="38.8669090" lon="1.3665480">
        <ele>1.5</ele>
        <time>2020-02-21T10:39:25Z</time>
      </trkpt>
      <trkpt lat="38.8668990" lon="1.3665020">
        <ele>1.5</ele>
        <time>2020-02-21T10:39:26Z</time>
      </trkpt>
      <trkpt lat="38.8668850" lon="1.3664500">
        <ele>1.5</ele>
        <time>2020-02-21T10:39:27Z</time>
      </trkpt>
      <trkpt lat="38.8668670" lon="1.3664070">
        <ele>1.5</ele>
        <time>2020-02-21T10:39:28Z</time>
      </trkpt>
      <trkpt lat="38.8668450" lon="1.3663630">
        <ele>1.5</ele>
        <time>2020-02-21T10:39:29Z</time>
      </trkpt>
      <trkpt lat="38.8668160" lon="1.3663350">
        <ele>1.4</ele>
        <time>2020-02-21T10:39:30Z</time>
      </trkpt>
      <trkpt lat="38.8667700" lon="1.3663270">
        <ele>1.4</ele>
        <time>2020-02-21T10:39:31Z</time>
      </trkpt>
      <trkpt lat="38.8667220" lon="1.3663530">
        <ele>1.4</ele>
        <time>2020-02-21T10:39:32Z</time>
      </trkpt>
      <trkpt lat="38.8666780" lon="1.3663720">
        <ele>1.3</ele>
        <time>2020-02-21T10:39:33Z</time>
      </trkpt>
      <trkpt lat="38.8666340" lon="1.3663930">
        <ele>1.2</ele>
        <time>2020-02-21T10:39:34Z</time>
      </trkpt>
      <trkpt lat="38.8665900" lon="1.3664120">
        <ele>1.1</ele>
        <time>2020-02-21T10:39:35Z</time>
      </trkpt>
      <trkpt lat="38.8665440" lon="1.3664340">
        <ele>1.0</ele>
        <time>2020-02-21T10:39:36Z</time>
      </trkpt>
      <trkpt lat="38.8664970" lon="1.3664540">
        <ele>0.9</ele>
        <time>2020-02-21T10:39:37Z</time>
      </trkpt>
      <trkpt lat="38.8664560" lon="1.3664710">
        <ele>0.8</ele>
        <time>2020-02-21T10:39:38Z</time>
      </trkpt>
      <trkpt lat="38.8664100" lon="1.3664860">
        <ele>0.7</ele>
        <time>2020-02-21T10:39:39Z</time>
      </trkpt>
      <trkpt lat="38.8663580" lon="1.3665020">
        <ele>0.7</ele>
        <time>2020-02-21T10:39:40Z</time>
      </trkpt>
      <trkpt lat="38.8663050" lon="1.3665200">
        <ele>0.6</ele>
        <time>2020-02-21T10:39:41Z</time>
      </trkpt>
      <trkpt lat="38.8662550" lon="1.3665390">
        <ele>0.6</ele>
        <time>2020-02-21T10:39:42Z</time>
      </trkpt>
      <trkpt lat="38.8662030" lon="1.3665600">
        <ele>0.5</ele>
        <time>2020-02-21T10:39:43Z</time>
      </trkpt>
      <trkpt lat="38.8661560" lon="1.3665830">
        <ele>0.5</ele>
        <time>2020-02-21T10:39:44Z</time>
      </trkpt>
      <trkpt lat="38.8661080" lon="1.3665990">
        <ele>0.5</ele>
        <time>2020-02-21T10:39:45Z</time>
      </trkpt>
      <trkpt lat="38.8660560" lon="1.3666220">
        <ele>0.5</ele>
        <time>2020-02-21T10:39:46Z</time>
      </trkpt>
      <trkpt lat="38.8660040" lon="1.3666500">
        <ele>0.5</ele>
        <time>2020-02-21T10:39:47Z</time>
      </trkpt>
      <trkpt lat="38.8659540" lon="1.3666770">
        <ele>0.5</ele>
        <time>2020-02-21T10:39:48Z</time>
      </trkpt>
      <trkpt lat="38.8659070" lon="1.3667030">
        <ele>0.5</ele>
        <time>2020-02-21T10:39:49Z</time>
      </trkpt>
      <trkpt lat="38.8658540" lon="1.3667240">
        <ele>0.5</ele>
        <time>2020-02-21T10:39:50Z</time>
      </trkpt>
      <trkpt lat="38.8658050" lon="1.3667400">
        <ele>0.5</ele>
        <time>2020-02-21T10:39:51Z</time>
      </trkpt>
      <trkpt lat="38.8657560" lon="1.3667560">
        <ele>0.5</ele>
        <time>2020-02-21T10:39:52Z</time>
      </trkpt>
      <trkpt lat="38.8657040" lon="1.3667800">
        <ele>0.5</ele>
        <time>2020-02-21T10:39:53Z</time>
      </trkpt>
      <trkpt lat="38.8656540" lon="1.3668080">
        <ele>0.5</ele>
        <time>2020-02-21T10:39:54Z</time>
      </trkpt>
      <trkpt lat="38.8655990" lon="1.3668330">
        <ele>0.5</ele>
        <time>2020-02-21T10:39:55Z</time>
      </trkpt>
      <trkpt lat="38.8655450" lon="1.3668670">
        <ele>0.5</ele>
        <time>2020-02-21T10:39:56Z</time>
      </trkpt>
      <trkpt lat="38.8654870" lon="1.3668930">
        <ele>0.5</ele>
        <time>2020-02-21T10:39:57Z</time>
      </trkpt>
      <trkpt lat="38.8654290" lon="1.3669210">
        <ele>0.5</ele>
        <time>2020-02-21T10:39:58Z</time>
      </trkpt>
      <trkpt lat="38.8653720" lon="1.3669420">
        <ele>0.5</ele>
        <time>2020-02-21T10:39:59Z</time>
      </trkpt>
      <trkpt lat="38.8653360" lon="1.3669760">
        <ele>0.5</ele>
        <time>2020-02-21T10:40:00Z</time>
      </trkpt>
      <trkpt lat="38.8652930" lon="1.3670000">
        <ele>0.5</ele>
        <time>2020-02-21T10:40:01Z</time>
      </trkpt>
      <trkpt lat="38.8652490" lon="1.3670180">
        <ele>0.5</ele>
        <time>2020-02-21T10:40:02Z</time>
      </trkpt>
      <trkpt lat="38.8652050" lon="1.3670210">
        <ele>0.5</ele>
        <time>2020-02-21T10:40:03Z</time>
      </trkpt>
      <trkpt lat="38.8651670" lon="1.3669710">
        <ele>0.5</ele>
        <time>2020-02-21T10:40:04Z</time>
      </trkpt>
      <trkpt lat="38.8651600" lon="1.3668790">
        <ele>0.5</ele>
        <time>2020-02-21T10:40:05Z</time>
      </trkpt>
      <trkpt lat="38.8651560" lon="1.3668110">
        <ele>0.5</ele>
        <time>2020-02-21T10:40:06Z</time>
      </trkpt>
      <trkpt lat="38.8651540" lon="1.3667470">
        <ele>0.5</ele>
        <time>2020-02-21T10:40:07Z</time>
      </trkpt>
      <trkpt lat="38.8651470" lon="1.3666870">
        <ele>0.5</ele>
        <time>2020-02-21T10:40:08Z</time>
      </trkpt>
      <trkpt lat="38.8651380" lon="1.3666220">
        <ele>0.5</ele>
        <time>2020-02-21T10:40:09Z</time>
      </trkpt>
      <trkpt lat="38.8651270" lon="1.3665530">
        <ele>0.5</ele>
        <time>2020-02-21T10:40:10Z</time>
      </trkpt>
      <trkpt lat="38.8651180" lon="1.3664900">
        <ele>0.5</ele>
        <time>2020-02-21T10:40:11Z</time>
      </trkpt>
      <trkpt lat="38.8651080" lon="1.3664200">
        <ele>0.5</ele>
        <time>2020-02-21T10:40:12Z</time>
      </trkpt>
      <trkpt lat="38.8650890" lon="1.3663680">
        <ele>0.5</ele>
        <time>2020-02-21T10:40:13Z</time>
      </trkpt>
      <trkpt lat="38.8650740" lon="1.3663120">
        <ele>0.5</ele>
        <time>2020-02-21T10:40:14Z</time>
      </trkpt>
      <trkpt lat="38.8650640" lon="1.3662350">
        <ele>0.5</ele>
        <time>2020-02-21T10:40:15Z</time>
      </trkpt>
      <trkpt lat="38.8650680" lon="1.3661750">
        <ele>0.5</ele>
        <time>2020-02-21T10:40:16Z</time>
      </trkpt>
      <trkpt lat="38.8650510" lon="1.3661140">
        <ele>0.5</ele>
        <time>2020-02-21T10:40:17Z</time>
      </trkpt>
      <trkpt lat="38.8650360" lon="1.3660540">
        <ele>0.5</ele>
        <time>2020-02-21T10:40:18Z</time>
      </trkpt>
      <trkpt lat="38.8650200" lon="1.3659910">
        <ele>0.5</ele>
        <time>2020-02-21T10:40:19Z</time>
      </trkpt>
      <trkpt lat="38.8650090" lon="1.3659190">
        <ele>0.6</ele>
        <time>2020-02-21T10:40:20Z</time>
      </trkpt>
      <trkpt lat="38.8650020" lon="1.3658630">
        <ele>0.6</ele>
        <time>2020-02-21T10:40:21Z</time>
      </trkpt>
      <trkpt lat="38.8649950" lon="1.3658010">
        <ele>0.6</ele>
        <time>2020-02-21T10:40:22Z</time>
      </trkpt>
      <trkpt lat="38.8649830" lon="1.3657500">
        <ele>0.6</ele>
        <time>2020-02-21T10:40:23Z</time>
      </trkpt>
      <trkpt lat="38.8649760" lon="1.3656760">
        <ele>0.6</ele>
        <time>2020-02-21T10:40:24Z</time>
      </trkpt>
      <trkpt lat="38.8649690" lon="1.3656140">
        <ele>0.6</ele>
        <time>2020-02-21T10:40:25Z</time>
      </trkpt>
      <trkpt lat="38.8649590" lon="1.3655520">
        <ele>0.6</ele>
        <time>2020-02-21T10:40:26Z</time>
      </trkpt>
      <trkpt lat="38.8649400" lon="1.3654880">
        <ele>0.6</ele>
        <time>2020-02-21T10:40:27Z</time>
      </trkpt>
      <trkpt lat="38.8649230" lon="1.3654330">
        <ele>0.6</ele>
        <time>2020-02-21T10:40:28Z</time>
      </trkpt>
      <trkpt lat="38.8649150" lon="1.3653720">
        <ele>0.6</ele>
        <time>2020-02-21T10:40:29Z</time>
      </trkpt>
      <trkpt lat="38.8649110" lon="1.3652970">
        <ele>0.6</ele>
        <time>2020-02-21T10:40:30Z</time>
      </trkpt>
      <trkpt lat="38.8648930" lon="1.3652490">
        <ele>0.6</ele>
        <time>2020-02-21T10:40:31Z</time>
      </trkpt>
      <trkpt lat="38.8648720" lon="1.3651980">
        <ele>0.6</ele>
        <time>2020-02-21T10:40:32Z</time>
      </trkpt>
      <trkpt lat="38.8648560" lon="1.3651470">
        <ele>0.6</ele>
        <time>2020-02-21T10:40:33Z</time>
      </trkpt>
      <trkpt lat="38.8648440" lon="1.3650770">
        <ele>0.6</ele>
        <time>2020-02-21T10:40:34Z</time>
      </trkpt>
      <trkpt lat="38.8648350" lon="1.3650080">
        <ele>0.6</ele>
        <time>2020-02-21T10:40:35Z</time>
      </trkpt>
      <trkpt lat="38.8648280" lon="1.3649470">
        <ele>0.6</ele>
        <time>2020-02-21T10:40:36Z</time>
      </trkpt>
      <trkpt lat="38.8648190" lon="1.3648910">
        <ele>0.6</ele>
        <time>2020-02-21T10:40:37Z</time>
      </trkpt>
      <trkpt lat="38.8648090" lon="1.3648250">
        <ele>0.6</ele>
        <time>2020-02-21T10:40:38Z</time>
      </trkpt>
      <trkpt lat="38.8647920" lon="1.3647610">
        <ele>0.6</ele>
        <time>2020-02-21T10:40:39Z</time>
      </trkpt>
      <trkpt lat="38.8647720" lon="1.3646990">
        <ele>0.6</ele>
        <time>2020-02-21T10:40:40Z</time>
      </trkpt>
      <trkpt lat="38.8647610" lon="1.3646240">
        <ele>0.6</ele>
        <time>2020-02-21T10:40:41Z</time>
      </trkpt>
      <trkpt lat="38.8647500" lon="1.3645560">
        <ele>0.6</ele>
        <time>2020-02-21T10:40:42Z</time>
      </trkpt>
      <trkpt lat="38.8647370" lon="1.3644970">
        <ele>0.6</ele>
        <time>2020-02-21T10:40:43Z</time>
      </trkpt>
      <trkpt lat="38.8647230" lon="1.3644360">
        <ele>0.6</ele>
        <time>2020-02-21T10:40:44Z</time>
      </trkpt>
      <trkpt lat="38.8647070" lon="1.3643750">
        <ele>0.6</ele>
        <time>2020-02-21T10:40:45Z</time>
      </trkpt>
      <trkpt lat="38.8646930" lon="1.3643050">
        <ele>0.6</ele>
        <time>2020-02-21T10:40:46Z</time>
      </trkpt>
      <trkpt lat="38.8646790" lon="1.3642430">
        <ele>0.6</ele>
        <time>2020-02-21T10:40:47Z</time>
      </trkpt>
      <trkpt lat="38.8646670" lon="1.3641800">
        <ele>0.6</ele>
        <time>2020-02-21T10:40:48Z</time>
      </trkpt>
      <trkpt lat="38.8646570" lon="1.3641220">
        <ele>0.6</ele>
        <time>2020-02-21T10:40:49Z</time>
      </trkpt>
      <trkpt lat="38.8646520" lon="1.3640630">
        <ele>0.6</ele>
        <time>2020-02-21T10:40:50Z</time>
      </trkpt>
      <trkpt lat="38.8646730" lon="1.3640180">
        <ele>0.6</ele>
        <time>2020-02-21T10:40:51Z</time>
      </trkpt>
      <trkpt lat="38.8647010" lon="1.3639620">
        <ele>0.6</ele>
        <time>2020-02-21T10:40:52Z</time>
      </trkpt>
      <trkpt lat="38.8647350" lon="1.3639120">
        <ele>0.6</ele>
        <time>2020-02-21T10:40:53Z</time>
      </trkpt>
      <trkpt lat="38.8647650" lon="1.3638650">
        <ele>0.6</ele>
        <time>2020-02-21T10:40:54Z</time>
      </trkpt>
      <trkpt lat="38.8647910" lon="1.3638120">
        <ele>0.6</ele>
        <time>2020-02-21T10:40:55Z</time>
      </trkpt>
      <trkpt lat="38.8648180" lon="1.3637590">
        <ele>0.6</ele>
        <time>2020-02-21T10:40:56Z</time>
      </trkpt>
      <trkpt lat="38.8648530" lon="1.3637170">
        <ele>0.6</ele>
        <time>2020-02-21T10:40:57Z</time>
      </trkpt>
      <trkpt lat="38.8648820" lon="1.3636710">
        <ele>0.6</ele>
        <time>2020-02-21T10:40:58Z</time>
      </trkpt>
      <trkpt lat="38.8649120" lon="1.3636180">
        <ele>0.6</ele>
        <time>2020-02-21T10:40:59Z</time>
      </trkpt>
      <trkpt lat="38.8649370" lon="1.3635640">
        <ele>0.6</ele>
        <time>2020-02-21T10:41:00Z</time>
      </trkpt>
      <trkpt lat="38.8649630" lon="1.3635120">
        <ele>0.6</ele>
        <time>2020-02-21T10:41:01Z</time>
      </trkpt>
      <trkpt lat="38.8649930" lon="1.3634590">
        <ele>0.6</ele>
        <time>2020-02-21T10:41:02Z</time>
      </trkpt>
      <trkpt lat="38.8650170" lon="1.3634080">
        <ele>0.6</ele>
        <time>2020-02-21T10:41:03Z</time>
      </trkpt>
      <trkpt lat="38.8650380" lon="1.3633420">
        <ele>0.6</ele>
        <time>2020-02-21T10:41:04Z</time>
      </trkpt>
      <trkpt lat="38.8650750" lon="1.3632880">
        <ele>0.6</ele>
        <time>2020-02-21T10:41:05Z</time>
      </trkpt>
      <trkpt lat="38.8650870" lon="1.3632270">
        <ele>0.6</ele>
        <time>2020-02-21T10:41:06Z</time>
      </trkpt>
      <trkpt lat="38.8651100" lon="1.3631780">
        <ele>0.6</ele>
        <time>2020-02-21T10:41:07Z</time>
      </trkpt>
      <trkpt lat="38.8651340" lon="1.3631300">
        <ele>0.6</ele>
        <time>2020-02-21T10:41:08Z</time>
      </trkpt>
      <trkpt lat="38.8651650" lon="1.3630840">
        <ele>0.6</ele>
        <time>2020-02-21T10:41:09Z</time>
      </trkpt>
      <trkpt lat="38.8652020" lon="1.3630370">
        <ele>0.6</ele>
        <time>2020-02-21T10:41:10Z</time>
      </trkpt>
      <trkpt lat="38.8652330" lon="1.3629880">
        <ele>0.6</ele>
        <time>2020-02-21T10:41:11Z</time>
      </trkpt>
      <trkpt lat="38.8652590" lon="1.3629260">
        <ele>0.6</ele>
        <time>2020-02-21T10:41:12Z</time>
      </trkpt>
      <trkpt lat="38.8652760" lon="1.3628610">
        <ele>0.6</ele>
        <time>2020-02-21T10:41:13Z</time>
      </trkpt>
      <trkpt lat="38.8652720" lon="1.3627930">
        <ele>0.6</ele>
        <time>2020-02-21T10:41:14Z</time>
      </trkpt>
      <trkpt lat="38.8652590" lon="1.3627230">
        <ele>0.5</ele>
        <time>2020-02-21T10:41:15Z</time>
      </trkpt>
      <trkpt lat="38.8652460" lon="1.3626560">
        <ele>0.5</ele>
        <time>2020-02-21T10:41:16Z</time>
      </trkpt>
      <trkpt lat="38.8652330" lon="1.3625970">
        <ele>0.5</ele>
        <time>2020-02-21T10:41:17Z</time>
      </trkpt>
      <trkpt lat="38.8652240" lon="1.3625330">
        <ele>0.4</ele>
        <time>2020-02-21T10:41:18Z</time>
      </trkpt>
      <trkpt lat="38.8652090" lon="1.3624790">
        <ele>0.3</ele>
        <time>2020-02-21T10:41:19Z</time>
      </trkpt>
      <trkpt lat="38.8651930" lon="1.3624160">
        <ele>0.2</ele>
        <time>2020-02-21T10:41:20Z</time>
      </trkpt>
      <trkpt lat="38.8651810" lon="1.3623520">
        <ele>0.1</ele>
        <time>2020-02-21T10:41:21Z</time>
      </trkpt>
      <trkpt lat="38.8651720" lon="1.3622870">
        <ele>0.0</ele>
        <time>2020-02-21T10:41:22Z</time>
      </trkpt>
      <trkpt lat="38.8651600" lon="1.3622080">
        <ele>-0.2</ele>
        <time>2020-02-21T10:41:23Z</time>
      </trkpt>
      <trkpt lat="38.8651460" lon="1.3621480">
        <ele>-0.2</ele>
        <time>2020-02-21T10:41:24Z</time>
      </trkpt>
      <trkpt lat="38.8651330" lon="1.3620820">
        <ele>-0.3</ele>
        <time>2020-02-21T10:41:25Z</time>
      </trkpt>
      <trkpt lat="38.8651250" lon="1.3620110">
        <ele>-0.4</ele>
        <time>2020-02-21T10:41:26Z</time>
      </trkpt>
      <trkpt lat="38.8651200" lon="1.3619500">
        <ele>-0.4</ele>
        <time>2020-02-21T10:41:27Z</time>
      </trkpt>
      <trkpt lat="38.8651130" lon="1.3618920">
        <ele>-0.4</ele>
        <time>2020-02-21T10:41:28Z</time>
      </trkpt>
      <trkpt lat="38.8651070" lon="1.3618260">
        <ele>-0.4</ele>
        <time>2020-02-21T10:41:29Z</time>
      </trkpt>
      <trkpt lat="38.8651030" lon="1.3617560">
        <ele>-0.4</ele>
        <time>2020-02-21T10:41:30Z</time>
      </trkpt>
      <trkpt lat="38.8651000" lon="1.3616890">
        <ele>-0.4</ele>
        <time>2020-02-21T10:41:31Z</time>
      </trkpt>
      <trkpt lat="38.8650890" lon="1.3616320">
        <ele>-0.4</ele>
        <time>2020-02-21T10:41:32Z</time>
      </trkpt>
      <trkpt lat="38.8650810" lon="1.3615680">
        <ele>-0.4</ele>
        <time>2020-02-21T10:41:33Z</time>
      </trkpt>
      <trkpt lat="38.8650710" lon="1.3614980">
        <ele>-0.4</ele>
        <time>2020-02-21T10:41:34Z</time>
      </trkpt>
      <trkpt lat="38.8650590" lon="1.3614310">
        <ele>-0.4</ele>
        <time>2020-02-21T10:41:35Z</time>
      </trkpt>
      <trkpt lat="38.8650440" lon="1.3613760">
        <ele>-0.4</ele>
        <time>2020-02-21T10:41:36Z</time>
      </trkpt>
      <trkpt lat="38.8650270" lon="1.3613230">
        <ele>-0.4</ele>
        <time>2020-02-21T10:41:37Z</time>
      </trkpt>
      <trkpt lat="38.8650190" lon="1.3612590">
        <ele>-0.4</ele>
        <time>2020-02-21T10:41:38Z</time>
      </trkpt>
      <trkpt lat="38.8650180" lon="1.3611890">
        <ele>-0.4</ele>
        <time>2020-02-21T10:41:39Z</time>
      </trkpt>
      <trkpt lat="38.8650280" lon="1.3611140">
        <ele>-0.4</ele>
        <time>2020-02-21T10:41:40Z</time>
      </trkpt>
      <trkpt lat="38.8650270" lon="1.3610420">
        <ele>-0.4</ele>
        <time>2020-02-21T10:41:41Z</time>
      </trkpt>
      <trkpt lat="38.8650280" lon="1.3609700">
        <ele>-0.4</ele>
        <time>2020-02-21T10:41:42Z</time>
      </trkpt>
      <trkpt lat="38.8650310" lon="1.3609010">
        <ele>-0.4</ele>
        <time>2020-02-21T10:41:43Z</time>
      </trkpt>
      <trkpt lat="38.8650340" lon="1.3608350">
        <ele>-0.4</ele>
        <time>2020-02-21T10:41:44Z</time>
      </trkpt>
      <trkpt lat="38.8650330" lon="1.3607760">
        <ele>-0.4</ele>
        <time>2020-02-21T10:41:45Z</time>
      </trkpt>
      <trkpt lat="38.8650320" lon="1.3607140">
        <ele>-0.4</ele>
        <time>2020-02-21T10:41:46Z</time>
      </trkpt>
      <trkpt lat="38.8650350" lon="1.3606490">
        <ele>-0.4</ele>
        <time>2020-02-21T10:41:47Z</time>
      </trkpt>
      <trkpt lat="38.8650340" lon="1.3605780">
        <ele>-0.4</ele>
        <time>2020-02-21T10:41:48Z</time>
      </trkpt>
      <trkpt lat="38.8650330" lon="1.3605070">
        <ele>-0.4</ele>
        <time>2020-02-21T10:41:49Z</time>
      </trkpt>
      <trkpt lat="38.8650330" lon="1.3604400">
        <ele>-0.4</ele>
        <time>2020-02-21T10:41:50Z</time>
      </trkpt>
      <trkpt lat="38.8650350" lon="1.3603750">
        <ele>-0.4</ele>
        <time>2020-02-21T10:41:51Z</time>
      </trkpt>
      <trkpt lat="38.8650270" lon="1.3603010">
        <ele>-0.4</ele>
        <time>2020-02-21T10:41:52Z</time>
      </trkpt>
      <trkpt lat="38.8650230" lon="1.3602510">
        <ele>-0.4</ele>
        <time>2020-02-21T10:41:53Z</time>
      </trkpt>
      <trkpt lat="38.8650300" lon="1.3601760">
        <ele>-0.4</ele>
        <time>2020-02-21T10:41:54Z</time>
      </trkpt>
      <trkpt lat="38.8650340" lon="1.3601120">
        <ele>-0.4</ele>
        <time>2020-02-21T10:41:55Z</time>
      </trkpt>
      <trkpt lat="38.8650360" lon="1.3600460">
        <ele>-0.4</ele>
        <time>2020-02-21T10:41:56Z</time>
      </trkpt>
      <trkpt lat="38.8650350" lon="1.3599780">
        <ele>-0.4</ele>
        <time>2020-02-21T10:41:57Z</time>
      </trkpt>
      <trkpt lat="38.8650350" lon="1.3599120">
        <ele>-0.4</ele>
        <time>2020-02-21T10:41:58Z</time>
      </trkpt>
      <trkpt lat="38.8650410" lon="1.3598450">
        <ele>-0.4</ele>
        <time>2020-02-21T10:41:59Z</time>
      </trkpt>
      <trkpt lat="38.8650420" lon="1.3597860">
        <ele>-0.4</ele>
        <time>2020-02-21T10:42:00Z</time>
      </trkpt>
      <trkpt lat="38.8650430" lon="1.3597180">
        <ele>-0.4</ele>
        <time>2020-02-21T10:42:01Z</time>
      </trkpt>
      <trkpt lat="38.8650380" lon="1.3596550">
        <ele>-0.4</ele>
        <time>2020-02-21T10:42:02Z</time>
      </trkpt>
      <trkpt lat="38.8650340" lon="1.3595890">
        <ele>-0.4</ele>
        <time>2020-02-21T10:42:03Z</time>
      </trkpt>
      <trkpt lat="38.8650350" lon="1.3595190">
        <ele>-0.4</ele>
        <time>2020-02-21T10:42:04Z</time>
      </trkpt>
      <trkpt lat="38.8650390" lon="1.3594500">
        <ele>-0.4</ele>
        <time>2020-02-21T10:42:05Z</time>
      </trkpt>
      <trkpt lat="38.8650480" lon="1.3593880">
        <ele>-0.4</ele>
        <time>2020-02-21T10:42:06Z</time>
      </trkpt>
      <trkpt lat="38.8650530" lon="1.3593280">
        <ele>-0.4</ele>
        <time>2020-02-21T10:42:07Z</time>
      </trkpt>
      <trkpt lat="38.8650530" lon="1.3592660">
        <ele>-0.4</ele>
        <time>2020-02-21T10:42:08Z</time>
      </trkpt>
      <trkpt lat="38.8650550" lon="1.3591960">
        <ele>-0.4</ele>
        <time>2020-02-21T10:42:09Z</time>
      </trkpt>
      <trkpt lat="38.8650540" lon="1.3591240">
        <ele>-0.4</ele>
        <time>2020-02-21T10:42:10Z</time>
      </trkpt>
      <trkpt lat="38.8650510" lon="1.3590510">
        <ele>-0.4</ele>
        <time>2020-02-21T10:42:11Z</time>
      </trkpt>
      <trkpt lat="38.8650520" lon="1.3589840">
        <ele>-0.4</ele>
        <time>2020-02-21T10:42:12Z</time>
      </trkpt>
      <trkpt lat="38.8650560" lon="1.3589110">
        <ele>-0.4</ele>
        <time>2020-02-21T10:42:13Z</time>
      </trkpt>
      <trkpt lat="38.8650620" lon="1.3588360">
        <ele>-0.4</ele>
        <time>2020-02-21T10:42:14Z</time>
      </trkpt>
      <trkpt lat="38.8650640" lon="1.3587740">
        <ele>-0.4</ele>
        <time>2020-02-21T10:42:15Z</time>
      </trkpt>
      <trkpt lat="38.8650600" lon="1.3587100">
        <ele>-0.4</ele>
        <time>2020-02-21T10:42:16Z</time>
      </trkpt>
      <trkpt lat="38.8650560" lon="1.3586570">
        <ele>-0.4</ele>
        <time>2020-02-21T10:42:17Z</time>
      </trkpt>
      <trkpt lat="38.8650510" lon="1.3586170">
        <ele>-0.5</ele>
        <time>2020-02-21T10:42:18Z</time>
      </trkpt>
      <trkpt lat="38.8650490" lon="1.3585940">
        <ele>-0.5</ele>
        <time>2020-02-21T10:42:19Z</time>
      </trkpt>
      <trkpt lat="38.8650480" lon="1.3585930">
        <ele>-0.5</ele>
        <time>2020-02-21T10:42:20Z</time>
      </trkpt>
      <trkpt lat="38.8650440" lon="1.3585770">
        <ele>-0.5</ele>
        <time>2020-02-21T10:42:21Z</time>
      </trkpt>
      <trkpt lat="38.8650420" lon="1.3585400">
        <ele>-0.6</ele>
        <time>2020-02-21T10:42:22Z</time>
      </trkpt>
      <trkpt lat="38.8650420" lon="1.3585260">
        <ele>-0.6</ele>
        <time>2020-02-21T10:42:23Z</time>
      </trkpt>
      <trkpt lat="38.8650490" lon="1.3584890">
        <ele>-0.6</ele>
        <time>2020-02-21T10:42:24Z</time>
      </trkpt>
      <trkpt lat="38.8650560" lon="1.3584760">
        <ele>-0.7</ele>
        <time>2020-02-21T10:42:25Z</time>
      </trkpt>
      <trkpt lat="38.8650640" lon="1.3584380">
        <ele>-0.7</ele>
        <time>2020-02-21T10:42:26Z</time>
      </trkpt>
      <trkpt lat="38.8650700" lon="1.3584010">
        <ele>-0.8</ele>
        <time>2020-02-21T10:42:27Z</time>
      </trkpt>
      <trkpt lat="38.8650780" lon="1.3583580">
        <ele>-0.9</ele>
        <time>2020-02-21T10:42:28Z</time>
      </trkpt>
      <trkpt lat="38.8650740" lon="1.3583140">
        <ele>-0.9</ele>
        <time>2020-02-21T10:42:29Z</time>
      </trkpt>
      <trkpt lat="38.8650760" lon="1.3582550">
        <ele>-1.0</ele>
        <time>2020-02-21T10:42:30Z</time>
      </trkpt>
      <trkpt lat="38.8650760" lon="1.3582010">
        <ele>-1.1</ele>
        <time>2020-02-21T10:42:31Z</time>
      </trkpt>
      <trkpt lat="38.8650760" lon="1.3581380">
        <ele>-1.2</ele>
        <time>2020-02-21T10:42:32Z</time>
      </trkpt>
      <trkpt lat="38.8650720" lon="1.3580860">
        <ele>-1.2</ele>
        <time>2020-02-21T10:42:33Z</time>
      </trkpt>
      <trkpt lat="38.8650680" lon="1.3580290">
        <ele>-1.2</ele>
        <time>2020-02-21T10:42:34Z</time>
      </trkpt>
      <trkpt lat="38.8650600" lon="1.3579770">
        <ele>-1.2</ele>
        <time>2020-02-21T10:42:35Z</time>
      </trkpt>
      <trkpt lat="38.8650340" lon="1.3579270">
        <ele>-1.2</ele>
        <time>2020-02-21T10:42:36Z</time>
      </trkpt>
      <trkpt lat="38.8650020" lon="1.3578900">
        <ele>-1.1</ele>
        <time>2020-02-21T10:42:37Z</time>
      </trkpt>
      <trkpt lat="38.8649710" lon="1.3578420">
        <ele>-1.0</ele>
        <time>2020-02-21T10:42:38Z</time>
      </trkpt>
      <trkpt lat="38.8649520" lon="1.3577900">
        <ele>-1.0</ele>
        <time>2020-02-21T10:42:39Z</time>
      </trkpt>
      <trkpt lat="38.8649430" lon="1.3577270">
        <ele>-0.8</ele>
        <time>2020-02-21T10:42:40Z</time>
      </trkpt>
      <trkpt lat="38.8649200" lon="1.3576750">
        <ele>-0.7</ele>
        <time>2020-02-21T10:42:41Z</time>
      </trkpt>
      <trkpt lat="38.8648980" lon="1.3576170">
        <ele>-0.6</ele>
        <time>2020-02-21T10:42:42Z</time>
      </trkpt>
      <trkpt lat="38.8648800" lon="1.3575560">
        <ele>-0.5</ele>
        <time>2020-02-21T10:42:43Z</time>
      </trkpt>
      <trkpt lat="38.8648580" lon="1.3574900">
        <ele>-0.5</ele>
        <time>2020-02-21T10:42:44Z</time>
      </trkpt>
      <trkpt lat="38.8648300" lon="1.3574320">
        <ele>-0.4</ele>
        <time>2020-02-21T10:42:45Z</time>
      </trkpt>
      <trkpt lat="38.8648020" lon="1.3573770">
        <ele>-0.4</ele>
        <time>2020-02-21T10:42:46Z</time>
      </trkpt>
      <trkpt lat="38.8647800" lon="1.3573260">
        <ele>-0.4</ele>
        <time>2020-02-21T10:42:47Z</time>
      </trkpt>
      <trkpt lat="38.8647710" lon="1.3572580">
        <ele>-0.4</ele>
        <time>2020-02-21T10:42:48Z</time>
      </trkpt>
      <trkpt lat="38.8647540" lon="1.3572040">
        <ele>-0.4</ele>
        <time>2020-02-21T10:42:49Z</time>
      </trkpt>
      <trkpt lat="38.8647310" lon="1.3571590">
        <ele>-0.4</ele>
        <time>2020-02-21T10:42:50Z</time>
      </trkpt>
      <trkpt lat="38.8647060" lon="1.3571130">
        <ele>-0.4</ele>
        <time>2020-02-21T10:42:51Z</time>
      </trkpt>
      <trkpt lat="38.8646970" lon="1.3570710">
        <ele>-0.4</ele>
        <time>2020-02-21T10:42:52Z</time>
      </trkpt>
      <trkpt lat="38.8646890" lon="1.3570290">
        <ele>-0.4</ele>
        <time>2020-02-21T10:42:53Z</time>
      </trkpt>
      <trkpt lat="38.8646570" lon="1.3570040">
        <ele>-0.4</ele>
        <time>2020-02-21T10:42:54Z</time>
      </trkpt>
      <trkpt lat="38.8646280" lon="1.3569820">
        <ele>-0.4</ele>
        <time>2020-02-21T10:42:55Z</time>
      </trkpt>
      <trkpt lat="38.8645960" lon="1.3569510">
        <ele>-0.4</ele>
        <time>2020-02-21T10:42:56Z</time>
      </trkpt>
      <trkpt lat="38.8645860" lon="1.3569400">
        <ele>-0.4</ele>
        <time>2020-02-21T10:42:57Z</time>
      </trkpt>
      <trkpt lat="38.8645600" lon="1.3569130">
        <ele>-0.4</ele>
        <time>2020-02-21T10:42:58Z</time>
      </trkpt>
      <trkpt lat="38.8645530" lon="1.3569050">
        <ele>-0.4</ele>
        <time>2020-02-21T10:42:59Z</time>
      </trkpt>
      <trkpt lat="38.8645390" lon="1.3568910">
        <ele>-0.4</ele>
        <time>2020-02-21T10:43:00Z</time>
      </trkpt>
      <trkpt lat="38.8645330" lon="1.3568710">
        <ele>-0.4</ele>
        <time>2020-02-21T10:43:01Z</time>
      </trkpt>
      <trkpt lat="38.8645270" lon="1.3568280">
        <ele>-0.3</ele>
        <time>2020-02-21T10:43:02Z</time>
      </trkpt>
      <trkpt lat="38.8645280" lon="1.3568070">
        <ele>-0.3</ele>
        <time>2020-02-21T10:43:03Z</time>
      </trkpt>
      <trkpt lat="38.8645320" lon="1.3567550">
        <ele>-0.3</ele>
        <time>2020-02-21T10:43:04Z</time>
      </trkpt>
      <trkpt lat="38.8645550" lon="1.3567270">
        <ele>-0.3</ele>
        <time>2020-02-21T10:43:05Z</time>
      </trkpt>
      <trkpt lat="38.8645840" lon="1.3567000">
        <ele>-0.3</ele>
        <time>2020-02-21T10:43:06Z</time>
      </trkpt>
      <trkpt lat="38.8646050" lon="1.3566630">
        <ele>-0.2</ele>
        <time>2020-02-21T10:43:07Z</time>
      </trkpt>
      <trkpt lat="38.8646330" lon="1.3566240">
        <ele>-0.2</ele>
        <time>2020-02-21T10:43:08Z</time>
      </trkpt>
      <trkpt lat="38.8646600" lon="1.3565990">
        <ele>-0.1</ele>
        <time>2020-02-21T10:43:09Z</time>
      </trkpt>
      <trkpt lat="38.8646870" lon="1.3565760">
        <ele>0.0</ele>
        <time>2020-02-21T10:43:10Z</time>
      </trkpt>
      <trkpt lat="38.8647150" lon="1.3565450">
        <ele>0.1</ele>
        <time>2020-02-21T10:43:11Z</time>
      </trkpt>
      <trkpt lat="38.8647370" lon="1.3565070">
        <ele>0.2</ele>
        <time>2020-02-21T10:43:12Z</time>
      </trkpt>
      <trkpt lat="38.8647640" lon="1.3564770">
        <ele>0.3</ele>
        <time>2020-02-21T10:43:13Z</time>
      </trkpt>
      <trkpt lat="38.8647950" lon="1.3564510">
        <ele>0.4</ele>
        <time>2020-02-21T10:43:14Z</time>
      </trkpt>
      <trkpt lat="38.8648220" lon="1.3564240">
        <ele>0.5</ele>
        <time>2020-02-21T10:43:15Z</time>
      </trkpt>
      <trkpt lat="38.8648470" lon="1.3563890">
        <ele>0.5</ele>
        <time>2020-02-21T10:43:16Z</time>
      </trkpt>
      <trkpt lat="38.8648700" lon="1.3563470">
        <ele>0.6</ele>
        <time>2020-02-21T10:43:17Z</time>
      </trkpt>
      <trkpt lat="38.8648940" lon="1.3563050">
        <ele>0.6</ele>
        <time>2020-02-21T10:43:18Z</time>
      </trkpt>
      <trkpt lat="38.8649130" lon="1.3562750">
        <ele>0.6</ele>
        <time>2020-02-21T10:43:19Z</time>
      </trkpt>
      <trkpt lat="38.8649380" lon="1.3562410">
        <ele>0.7</ele>
        <time>2020-02-21T10:43:20Z</time>
      </trkpt>
      <trkpt lat="38.8649600" lon="1.3562040">
        <ele>0.7</ele>
        <time>2020-02-21T10:43:21Z</time>
      </trkpt>
      <trkpt lat="38.8649830" lon="1.3561670">
        <ele>0.7</ele>
        <time>2020-02-21T10:43:22Z</time>
      </trkpt>
      <trkpt lat="38.8650080" lon="1.3561360">
        <ele>0.7</ele>
        <time>2020-02-21T10:43:23Z</time>
      </trkpt>
      <trkpt lat="38.8650300" lon="1.3561050">
        <ele>0.7</ele>
        <time>2020-02-21T10:43:24Z</time>
      </trkpt>
      <trkpt lat="38.8650540" lon="1.3560680">
        <ele>0.7</ele>
        <time>2020-02-21T10:43:25Z</time>
      </trkpt>
      <trkpt lat="38.8650730" lon="1.3560320">
        <ele>0.7</ele>
        <time>2020-02-21T10:43:26Z</time>
      </trkpt>
      <trkpt lat="38.8650940" lon="1.3559980">
        <ele>0.7</ele>
        <time>2020-02-21T10:43:27Z</time>
      </trkpt>
      <trkpt lat="38.8651160" lon="1.3559630">
        <ele>0.7</ele>
        <time>2020-02-21T10:43:28Z</time>
      </trkpt>
      <trkpt lat="38.8651360" lon="1.3559250">
        <ele>0.6</ele>
        <time>2020-02-21T10:43:29Z</time>
      </trkpt>
      <trkpt lat="38.8651620" lon="1.3558910">
        <ele>0.6</ele>
        <time>2020-02-21T10:43:30Z</time>
      </trkpt>
      <trkpt lat="38.8651850" lon="1.3558590">
        <ele>0.6</ele>
        <time>2020-02-21T10:43:31Z</time>
      </trkpt>
      <trkpt lat="38.8652140" lon="1.3558230">
        <ele>0.6</ele>
        <time>2020-02-21T10:43:32Z</time>
      </trkpt>
      <trkpt lat="38.8652400" lon="1.3557860">
        <ele>0.6</ele>
        <time>2020-02-21T10:43:33Z</time>
      </trkpt>
      <trkpt lat="38.8652670" lon="1.3557400">
        <ele>0.5</ele>
        <time>2020-02-21T10:43:34Z</time>
      </trkpt>
      <trkpt lat="38.8652920" lon="1.3557090">
        <ele>0.5</ele>
        <time>2020-02-21T10:43:35Z</time>
      </trkpt>
      <trkpt lat="38.8653190" lon="1.3556760">
        <ele>0.5</ele>
        <time>2020-02-21T10:43:36Z</time>
      </trkpt>
      <trkpt lat="38.8653450" lon="1.3556420">
        <ele>0.5</ele>
        <time>2020-02-21T10:43:37Z</time>
      </trkpt>
      <trkpt lat="38.8653690" lon="1.3556150">
        <ele>0.5</ele>
        <time>2020-02-21T10:43:38Z</time>
      </trkpt>
      <trkpt lat="38.8654020" lon="1.3555890">
        <ele>0.5</ele>
        <time>2020-02-21T10:43:39Z</time>
      </trkpt>
      <trkpt lat="38.8654280" lon="1.3555490">
        <ele>0.4</ele>
        <time>2020-02-21T10:43:40Z</time>
      </trkpt>
      <trkpt lat="38.8654420" lon="1.3555010">
        <ele>0.4</ele>
        <time>2020-02-21T10:43:41Z</time>
      </trkpt>
      <trkpt lat="38.8654710" lon="1.3554630">
        <ele>0.3</ele>
        <time>2020-02-21T10:43:42Z</time>
      </trkpt>
      <trkpt lat="38.8654990" lon="1.3554290">
        <ele>0.2</ele>
        <time>2020-02-21T10:43:43Z</time>
      </trkpt>
      <trkpt lat="38.8655210" lon="1.3553930">
        <ele>0.2</ele>
        <time>2020-02-21T10:43:44Z</time>
      </trkpt>
      <trkpt lat="38.8655440" lon="1.3553600">
        <ele>0.1</ele>
        <time>2020-02-21T10:43:45Z</time>
      </trkpt>
      <trkpt lat="38.8655690" lon="1.3553240">
        <ele>0.1</ele>
        <time>2020-02-21T10:43:46Z</time>
      </trkpt>
      <trkpt lat="38.8655940" lon="1.3552850">
        <ele>0.1</ele>
        <time>2020-02-21T10:43:47Z</time>
      </trkpt>
      <trkpt lat="38.8656210" lon="1.3552550">
        <ele>0.1</ele>
        <time>2020-02-21T10:43:48Z</time>
      </trkpt>
      <trkpt lat="38.8656520" lon="1.3552140">
        <ele>0.1</ele>
        <time>2020-02-21T10:43:49Z</time>
      </trkpt>
      <trkpt lat="38.8656750" lon="1.3551800">
        <ele>0.2</ele>
        <time>2020-02-21T10:43:50Z</time>
      </trkpt>
      <trkpt lat="38.8656980" lon="1.3551470">
        <ele>0.3</ele>
        <time>2020-02-21T10:43:51Z</time>
      </trkpt>
      <trkpt lat="38.8657250" lon="1.3551120">
        <ele>0.3</ele>
        <time>2020-02-21T10:43:52Z</time>
      </trkpt>
      <trkpt lat="38.8657400" lon="1.3550690">
        <ele>0.4</ele>
        <time>2020-02-21T10:43:53Z</time>
      </trkpt>
      <trkpt lat="38.8657730" lon="1.3550190">
        <ele>0.5</ele>
        <time>2020-02-21T10:43:54Z</time>
      </trkpt>
      <trkpt lat="38.8658010" lon="1.3549850">
        <ele>0.6</ele>
        <time>2020-02-21T10:43:55Z</time>
      </trkpt>
      <trkpt lat="38.8658200" lon="1.3549520">
        <ele>0.6</ele>
        <time>2020-02-21T10:43:56Z</time>
      </trkpt>
      <trkpt lat="38.8658400" lon="1.3549150">
        <ele>0.7</ele>
        <time>2020-02-21T10:43:57Z</time>
      </trkpt>
      <trkpt lat="38.8658640" lon="1.3548800">
        <ele>0.7</ele>
        <time>2020-02-21T10:43:58Z</time>
      </trkpt>
      <trkpt lat="38.8658950" lon="1.3548400">
        <ele>0.8</ele>
        <time>2020-02-21T10:43:59Z</time>
      </trkpt>
      <trkpt lat="38.8659190" lon="1.3548060">
        <ele>0.8</ele>
        <time>2020-02-21T10:44:00Z</time>
      </trkpt>
      <trkpt lat="38.8659460" lon="1.3547760">
        <ele>0.8</ele>
        <time>2020-02-21T10:44:01Z</time>
      </trkpt>
      <trkpt lat="38.8659810" lon="1.3547330">
        <ele>0.8</ele>
        <time>2020-02-21T10:44:02Z</time>
      </trkpt>
      <trkpt lat="38.8660130" lon="1.3546940">
        <ele>0.9</ele>
        <time>2020-02-21T10:44:03Z</time>
      </trkpt>
      <trkpt lat="38.8660250" lon="1.3546800">
        <ele>0.9</ele>
        <time>2020-02-21T10:44:04Z</time>
      </trkpt>
      <trkpt lat="38.8660590" lon="1.3546530">
        <ele>0.9</ele>
        <time>2020-02-21T10:44:05Z</time>
      </trkpt>
      <trkpt lat="38.8660900" lon="1.3546210">
        <ele>1.0</ele>
        <time>2020-02-21T10:44:06Z</time>
      </trkpt>
      <trkpt lat="38.8661180" lon="1.3545760">
        <ele>1.0</ele>
        <time>2020-02-21T10:44:07Z</time>
      </trkpt>
      <trkpt lat="38.8661430" lon="1.3545240">
        <ele>1.1</ele>
        <time>2020-02-21T10:44:08Z</time>
      </trkpt>
      <trkpt lat="38.8661660" lon="1.3544790">
        <ele>1.1</ele>
        <time>2020-02-21T10:44:09Z</time>
      </trkpt>
      <trkpt lat="38.8661890" lon="1.3544310">
        <ele>1.2</ele>
        <time>2020-02-21T10:44:10Z</time>
      </trkpt>
      <trkpt lat="38.8662110" lon="1.3543820">
        <ele>1.2</ele>
        <time>2020-02-21T10:44:11Z</time>
      </trkpt>
      <trkpt lat="38.8662350" lon="1.3543380">
        <ele>1.2</ele>
        <time>2020-02-21T10:44:12Z</time>
      </trkpt>
      <trkpt lat="38.8662560" lon="1.3542990">
        <ele>1.2</ele>
        <time>2020-02-21T10:44:13Z</time>
      </trkpt>
      <trkpt lat="38.8662820" lon="1.3542520">
        <ele>1.2</ele>
        <time>2020-02-21T10:44:14Z</time>
      </trkpt>
      <trkpt lat="38.8663030" lon="1.3542150">
        <ele>1.2</ele>
        <time>2020-02-21T10:44:15Z</time>
      </trkpt>
      <trkpt lat="38.8663170" lon="1.3541770">
        <ele>1.1</ele>
        <time>2020-02-21T10:44:16Z</time>
      </trkpt>
      <trkpt lat="38.8663370" lon="1.3541300">
        <ele>1.1</ele>
        <time>2020-02-21T10:44:17Z</time>
      </trkpt>
      <trkpt lat="38.8663570" lon="1.3540850">
        <ele>1.0</ele>
        <time>2020-02-21T10:44:18Z</time>
      </trkpt>
      <trkpt lat="38.8663770" lon="1.3540390">
        <ele>0.9</ele>
        <time>2020-02-21T10:44:19Z</time>
      </trkpt>
      <trkpt lat="38.8663910" lon="1.3539890">
        <ele>0.9</ele>
        <time>2020-02-21T10:44:20Z</time>
      </trkpt>
      <trkpt lat="38.8664090" lon="1.3539350">
        <ele>0.8</ele>
        <time>2020-02-21T10:44:21Z</time>
      </trkpt>
      <trkpt lat="38.8664290" lon="1.3538900">
        <ele>0.7</ele>
        <time>2020-02-21T10:44:22Z</time>
      </trkpt>
      <trkpt lat="38.8664530" lon="1.3538470">
        <ele>0.7</ele>
        <time>2020-02-21T10:44:23Z</time>
      </trkpt>
      <trkpt lat="38.8664730" lon="1.3538010">
        <ele>0.6</ele>
        <time>2020-02-21T10:44:24Z</time>
      </trkpt>
      <trkpt lat="38.8664900" lon="1.3537480">
        <ele>0.5</ele>
        <time>2020-02-21T10:44:25Z</time>
      </trkpt>
      <trkpt lat="38.8665230" lon="1.3537000">
        <ele>0.3</ele>
        <time>2020-02-21T10:44:26Z</time>
      </trkpt>
      <trkpt lat="38.8665470" lon="1.3536570">
        <ele>0.2</ele>
        <time>2020-02-21T10:44:27Z</time>
      </trkpt>
      <trkpt lat="38.8665720" lon="1.3536160">
        <ele>0.1</ele>
        <time>2020-02-21T10:44:28Z</time>
      </trkpt>
      <trkpt lat="38.8666000" lon="1.3535860">
        <ele>0.0</ele>
        <time>2020-02-21T10:44:29Z</time>
      </trkpt>
      <trkpt lat="38.8666260" lon="1.3535500">
        <ele>-0.1</ele>
        <time>2020-02-21T10:44:30Z</time>
      </trkpt>
      <trkpt lat="38.8666580" lon="1.3535060">
        <ele>-0.1</ele>
        <time>2020-02-21T10:44:31Z</time>
      </trkpt>
      <trkpt lat="38.8666860" lon="1.3534660">
        <ele>-0.2</ele>
        <time>2020-02-21T10:44:32Z</time>
      </trkpt>
      <trkpt lat="38.8667100" lon="1.3534270">
        <ele>-0.3</ele>
        <time>2020-02-21T10:44:33Z</time>
      </trkpt>
      <trkpt lat="38.8667430" lon="1.3533850">
        <ele>-0.4</ele>
        <time>2020-02-21T10:44:34Z</time>
      </trkpt>
      <trkpt lat="38.8667710" lon="1.3533480">
        <ele>-0.5</ele>
        <time>2020-02-21T10:44:35Z</time>
      </trkpt>
      <trkpt lat="38.8668010" lon="1.3533160">
        <ele>-0.6</ele>
        <time>2020-02-21T10:44:36Z</time>
      </trkpt>
      <trkpt lat="38.8668250" lon="1.3532810">
        <ele>-0.8</ele>
        <time>2020-02-21T10:44:37Z</time>
      </trkpt>
      <trkpt lat="38.8668630" lon="1.3532410">
        <ele>-1.1</ele>
        <time>2020-02-21T10:44:38Z</time>
      </trkpt>
      <trkpt lat="38.8668920" lon="1.3531970">
        <ele>-1.3</ele>
        <time>2020-02-21T10:44:39Z</time>
      </trkpt>
      <trkpt lat="38.8669150" lon="1.3531540">
        <ele>-1.5</ele>
        <time>2020-02-21T10:44:40Z</time>
      </trkpt>
      <trkpt lat="38.8669350" lon="1.3531070">
        <ele>-1.7</ele>
        <time>2020-02-21T10:44:41Z</time>
      </trkpt>
      <trkpt lat="38.8669530" lon="1.3530610">
        <ele>-1.8</ele>
        <time>2020-02-21T10:44:42Z</time>
      </trkpt>
      <trkpt lat="38.8669660" lon="1.3530040">
        <ele>-1.8</ele>
        <time>2020-02-21T10:44:43Z</time>
      </trkpt>
      <trkpt lat="38.8669860" lon="1.3529550">
        <ele>-1.8</ele>
        <time>2020-02-21T10:44:44Z</time>
      </trkpt>
      <trkpt lat="38.8670060" lon="1.3529040">
        <ele>-1.8</ele>
        <time>2020-02-21T10:44:45Z</time>
      </trkpt>
      <trkpt lat="38.8670250" lon="1.3528640">
        <ele>-1.7</ele>
        <time>2020-02-21T10:44:46Z</time>
      </trkpt>
      <trkpt lat="38.8670450" lon="1.3528270">
        <ele>-1.7</ele>
        <time>2020-02-21T10:44:47Z</time>
      </trkpt>
      <trkpt lat="38.8670690" lon="1.3527860">
        <ele>-1.6</ele>
        <time>2020-02-21T10:44:48Z</time>
      </trkpt>
      <trkpt lat="38.8670940" lon="1.3527400">
        <ele>-1.5</ele>
        <time>2020-02-21T10:44:49Z</time>
      </trkpt>
      <trkpt lat="38.8671090" lon="1.3526800">
        <ele>-1.5</ele>
        <time>2020-02-21T10:44:50Z</time>
      </trkpt>
      <trkpt lat="38.8671240" lon="1.3526250">
        <ele>-1.4</ele>
        <time>2020-02-21T10:44:51Z</time>
      </trkpt>
      <trkpt lat="38.8671420" lon="1.3525590">
        <ele>-1.4</ele>
        <time>2020-02-21T10:44:52Z</time>
      </trkpt>
      <trkpt lat="38.8671530" lon="1.3525110">
        <ele>-1.4</ele>
        <time>2020-02-21T10:44:53Z</time>
      </trkpt>
      <trkpt lat="38.8671750" lon="1.3524650">
        <ele>-1.4</ele>
        <time>2020-02-21T10:44:54Z</time>
      </trkpt>
      <trkpt lat="38.8671930" lon="1.3524180">
        <ele>-1.3</ele>
        <time>2020-02-21T10:44:55Z</time>
      </trkpt>
      <trkpt lat="38.8672100" lon="1.3523680">
        <ele>-1.3</ele>
        <time>2020-02-21T10:44:56Z</time>
      </trkpt>
      <trkpt lat="38.8672190" lon="1.3523250">
        <ele>-1.2</ele>
        <time>2020-02-21T10:44:57Z</time>
      </trkpt>
      <trkpt lat="38.8672230" lon="1.3522820">
        <ele>-1.1</ele>
        <time>2020-02-21T10:44:58Z</time>
      </trkpt>
      <trkpt lat="38.8672210" lon="1.3522400">
        <ele>-1.1</ele>
        <time>2020-02-21T10:44:59Z</time>
      </trkpt>
      <trkpt lat="38.8672220" lon="1.3522030">
        <ele>-0.8</ele>
        <time>2020-02-21T10:45:00Z</time>
      </trkpt>
      <trkpt lat="38.8672370" lon="1.3521610">
        <ele>-0.5</ele>
        <time>2020-02-21T10:45:01Z</time>
      </trkpt>
      <trkpt lat="38.8672410" lon="1.3521490">
        <ele>-0.5</ele>
        <time>2020-02-21T10:45:02Z</time>
      </trkpt>
      <trkpt lat="38.8672490" lon="1.3521300">
        <ele>-0.2</ele>
        <time>2020-02-21T10:45:03Z</time>
      </trkpt>
      <trkpt lat="38.8672550" lon="1.3521130">
        <ele>-0.2</ele>
        <time>2020-02-21T10:45:04Z</time>
      </trkpt>
      <trkpt lat="38.8672670" lon="1.3520750">
        <ele>0.0</ele>
        <time>2020-02-21T10:45:05Z</time>
      </trkpt>
      <trkpt lat="38.8672710" lon="1.3520620">
        <ele>0.0</ele>
        <time>2020-02-21T10:45:06Z</time>
      </trkpt>
      <trkpt lat="38.8672780" lon="1.3520260">
        <ele>0.1</ele>
        <time>2020-02-21T10:45:07Z</time>
      </trkpt>
      <trkpt lat="38.8672810" lon="1.3520110">
        <ele>0.1</ele>
        <time>2020-02-21T10:45:08Z</time>
      </trkpt>
      <trkpt lat="38.8672990" lon="1.3519630">
        <ele>0.2</ele>
        <time>2020-02-21T10:45:09Z</time>
      </trkpt>
      <trkpt lat="38.8673030" lon="1.3519420">
        <ele>0.1</ele>
        <time>2020-02-21T10:45:10Z</time>
      </trkpt>
      <trkpt lat="38.8673300" lon="1.3519060">
        <ele>0.1</ele>
        <time>2020-02-21T10:45:11Z</time>
      </trkpt>
      <trkpt lat="38.8673400" lon="1.3518960">
        <ele>0.1</ele>
        <time>2020-02-21T10:45:12Z</time>
      </trkpt>
      <trkpt lat="38.8673720" lon="1.3518760">
        <ele>-0.1</ele>
        <time>2020-02-21T10:45:13Z</time>
      </trkpt>
      <trkpt lat="38.8673820" lon="1.3518700">
        <ele>-0.1</ele>
        <time>2020-02-21T10:45:14Z</time>
      </trkpt>
      <trkpt lat="38.8674060" lon="1.3518450">
        <ele>-0.1</ele>
        <time>2020-02-21T10:45:15Z</time>
      </trkpt>
      <trkpt lat="38.8674140" lon="1.3518370">
        <ele>-0.1</ele>
        <time>2020-02-21T10:45:16Z</time>
      </trkpt>
      <trkpt lat="38.8674260" lon="1.3518250">
        <ele>-0.1</ele>
        <time>2020-02-21T10:45:17Z</time>
      </trkpt>
      <trkpt lat="38.8674360" lon="1.3518070">
        <ele>-0.1</ele>
        <time>2020-02-21T10:45:18Z</time>
      </trkpt>
      <trkpt lat="38.8674600" lon="1.3517910">
        <ele>-0.1</ele>
        <time>2020-02-21T10:45:19Z</time>
      </trkpt>
      <trkpt lat="38.8674730" lon="1.3517830">
        <ele>-0.1</ele>
        <time>2020-02-21T10:45:20Z</time>
      </trkpt>
      <trkpt lat="38.8674960" lon="1.3517500">
        <ele>-0.1</ele>
        <time>2020-02-21T10:45:21Z</time>
      </trkpt>
      <trkpt lat="38.8675010" lon="1.3517400">
        <ele>0.0</ele>
        <time>2020-02-21T10:45:22Z</time>
      </trkpt>
      <trkpt lat="38.8675260" lon="1.3517050">
        <ele>0.0</ele>
        <time>2020-02-21T10:45:23Z</time>
      </trkpt>
      <trkpt lat="38.8675330" lon="1.3516930">
        <ele>0.0</ele>
        <time>2020-02-21T10:45:24Z</time>
      </trkpt>
      <trkpt lat="38.8675540" lon="1.3516560">
        <ele>0.0</ele>
        <time>2020-02-21T10:45:25Z</time>
      </trkpt>
      <trkpt lat="38.8675600" lon="1.3516420">
        <ele>0.0</ele>
        <time>2020-02-21T10:45:26Z</time>
      </trkpt>
      <trkpt lat="38.8675810" lon="1.3516090">
        <ele>0.0</ele>
        <time>2020-02-21T10:45:27Z</time>
      </trkpt>
      <trkpt lat="38.8675880" lon="1.3515980">
        <ele>0.0</ele>
        <time>2020-02-21T10:45:28Z</time>
      </trkpt>
      <trkpt lat="38.8676170" lon="1.3515660">
        <ele>-0.2</ele>
        <time>2020-02-21T10:45:29Z</time>
      </trkpt>
      <trkpt lat="38.8676270" lon="1.3515520">
        <ele>-0.2</ele>
        <time>2020-02-21T10:45:30Z</time>
      </trkpt>
      <trkpt lat="38.8676540" lon="1.3515180">
        <ele>-0.3</ele>
        <time>2020-02-21T10:45:31Z</time>
      </trkpt>
      <trkpt lat="38.8676650" lon="1.3515020">
        <ele>-0.3</ele>
        <time>2020-02-21T10:45:32Z</time>
      </trkpt>
      <trkpt lat="38.8676790" lon="1.3514660">
        <ele>-0.3</ele>
        <time>2020-02-21T10:45:33Z</time>
      </trkpt>
      <trkpt lat="38.8676840" lon="1.3514580">
        <ele>-0.4</ele>
        <time>2020-02-21T10:45:34Z</time>
      </trkpt>
      <trkpt lat="38.8676880" lon="1.3514620">
        <ele>-0.4</ele>
        <time>2020-02-21T10:45:35Z</time>
      </trkpt>
      <trkpt lat="38.8676920" lon="1.3514660">
        <ele>-0.4</ele>
        <time>2020-02-21T10:45:36Z</time>
      </trkpt>
      <trkpt lat="38.8676950" lon="1.3514700">
        <ele>-0.4</ele>
        <time>2020-02-21T10:45:37Z</time>
      </trkpt>
      <trkpt lat="38.8676990" lon="1.3514740">
        <ele>-0.4</ele>
        <time>2020-02-21T10:45:38Z</time>
      </trkpt>
      <trkpt lat="38.8677020" lon="1.3514770">
        <ele>-0.4</ele>
        <time>2020-02-21T10:45:39Z</time>
      </trkpt>
      <trkpt lat="38.8677050" lon="1.3514810">
        <ele>-0.4</ele>
        <time>2020-02-21T10:45:40Z</time>
      </trkpt>
      <trkpt lat="38.8677090" lon="1.3514850">
        <ele>-0.4</ele>
        <time>2020-02-21T10:45:41Z</time>
      </trkpt>
      <trkpt lat="38.8677120" lon="1.3514890">
        <ele>-0.4</ele>
        <time>2020-02-21T10:45:42Z</time>
      </trkpt>
      <trkpt lat="38.8677160" lon="1.3514930">
        <ele>-0.6</ele>
        <time>2020-02-21T10:45:43Z</time>
      </trkpt>
      <trkpt lat="38.8677190" lon="1.3514970">
        <ele>-0.6</ele>
        <time>2020-02-21T10:45:44Z</time>
      </trkpt>
      <trkpt lat="38.8677480" lon="1.3514950">
        <ele>-0.8</ele>
        <time>2020-02-21T10:45:45Z</time>
      </trkpt>
      <trkpt lat="38.8677770" lon="1.3514990">
        <ele>-0.8</ele>
        <time>2020-02-21T10:45:46Z</time>
      </trkpt>
      <trkpt lat="38.8678160" lon="1.3515110">
        <ele>-1.2</ele>
        <time>2020-02-21T10:45:47Z</time>
      </trkpt>
      <trkpt lat="38.8678290" lon="1.3515180">
        <ele>-1.2</ele>
        <time>2020-02-21T10:45:48Z</time>
      </trkpt>
      <trkpt lat="38.8678520" lon="1.3515370">
        <ele>-1.4</ele>
        <time>2020-02-21T10:45:49Z</time>
      </trkpt>
      <trkpt lat="38.8678740" lon="1.3515650">
        <ele>-1.4</ele>
        <time>2020-02-21T10:45:50Z</time>
      </trkpt>
      <trkpt lat="38.8678800" lon="1.3515710">
        <ele>-1.4</ele>
        <time>2020-02-21T10:45:51Z</time>
      </trkpt>
      <trkpt lat="38.8678810" lon="1.3515760">
        <ele>-1.5</ele>
        <time>2020-02-21T10:45:52Z</time>
      </trkpt>
      <trkpt lat="38.8678810" lon="1.3515760">
        <ele>-1.5</ele>
        <time>2020-02-21T10:45:53Z</time>
      </trkpt>
      <trkpt lat="38.8678730" lon="1.3515790">
        <ele>-1.4</ele>
        <time>2020-02-21T10:45:54Z</time>
      </trkpt>
      <trkpt lat="38.8678740" lon="1.3515820">
        <ele>-1.4</ele>
        <time>2020-02-21T10:45:55Z</time>
      </trkpt>
      <trkpt lat="38.8678720" lon="1.3515840">
        <ele>-1.4</ele>
        <time>2020-02-21T10:45:56Z</time>
      </trkpt>
      <trkpt lat="38.8678690" lon="1.3515910">
        <ele>-1.4</ele>
        <time>2020-02-21T10:45:57Z</time>
      </trkpt>
      <trkpt lat="38.8678670" lon="1.3515840">
        <ele>-1.4</ele>
        <time>2020-02-21T10:45:58Z</time>
      </trkpt>
      <trkpt lat="38.8678630" lon="1.3515850">
        <ele>-1.4</ele>
        <time>2020-02-21T10:45:59Z</time>
      </trkpt>
      <trkpt lat="38.8678620" lon="1.3515860">
        <ele>-1.4</ele>
        <time>2020-02-21T10:46:00Z</time>
      </trkpt>
      <trkpt lat="38.8678610" lon="1.3515850">
        <ele>-1.4</ele>
        <time>2020-02-21T10:46:01Z</time>
      </trkpt>
      <trkpt lat="38.8678610" lon="1.3515850">
        <ele>-1.4</ele>
        <time>2020-02-21T10:46:02Z</time>
      </trkpt>
      <trkpt lat="38.8678600" lon="1.3515840">
        <ele>-1.4</ele>
        <time>2020-02-21T10:46:03Z</time>
      </trkpt>
      <trkpt lat="38.8678600" lon="1.3515840">
        <ele>-1.4</ele>
        <time>2020-02-21T10:46:04Z</time>
      </trkpt>
      <trkpt lat="38.8678600" lon="1.3515840">
        <ele>-1.4</ele>
        <time>2020-02-21T10:46:05Z</time>
      </trkpt>
      <trkpt lat="38.8678600" lon="1.3515840">
        <ele>-1.4</ele>
        <time>2020-02-21T10:46:06Z</time>
      </trkpt>
      <trkpt lat="38.8678600" lon="1.3515840">
        <ele>-1.4</ele>
        <time>2020-02-21T10:46:07Z</time>
      </trkpt>
      <trkpt lat="38.8678900" lon="1.3516210">
        <ele>-1.4</ele>
        <time>2020-02-21T10:49:07Z</time>
      </trkpt>
      <trkpt lat="38.8678930" lon="1.3516230">
        <ele>-1.4</ele>
        <time>2020-02-21T10:49:08Z</time>
      </trkpt>
      <trkpt lat="38.8678990" lon="1.3516240">
        <ele>-1.4</ele>
        <time>2020-02-21T10:49:09Z</time>
      </trkpt>
      <trkpt lat="38.8679050" lon="1.3516280">
        <ele>-1.4</ele>
        <time>2020-02-21T10:49:10Z</time>
      </trkpt>
      <trkpt lat="38.8679080" lon="1.3516410">
        <ele>-1.4</ele>
        <time>2020-02-21T10:49:11Z</time>
      </trkpt>
      <trkpt lat="38.8679150" lon="1.3516550">
        <ele>-1.5</ele>
        <time>2020-02-21T10:49:12Z</time>
      </trkpt>
      <trkpt lat="38.8679270" lon="1.3516810">
        <ele>-1.3</ele>
        <time>2020-02-21T10:49:13Z</time>
      </trkpt>
      <trkpt lat="38.8679500" lon="1.3517120">
        <ele>-1.2</ele>
        <time>2020-02-21T10:49:14Z</time>
      </trkpt>
      <trkpt lat="38.8679580" lon="1.3517190">
        <ele>-1.2</ele>
        <time>2020-02-21T10:49:15Z</time>
      </trkpt>
      <trkpt lat="38.8679850" lon="1.3517250">
        <ele>-1.1</ele>
        <time>2020-02-21T10:49:16Z</time>
      </trkpt>
      <trkpt lat="38.8679960" lon="1.3517240">
        <ele>-1.1</ele>
        <time>2020-02-21T10:49:17Z</time>
      </trkpt>
      <trkpt lat="38.8680300" lon="1.3517360">
        <ele>-1.0</ele>
        <time>2020-02-21T10:49:18Z</time>
      </trkpt>
      <trkpt lat="38.8680420" lon="1.3517400">
        <ele>-1.0</ele>
        <time>2020-02-21T10:49:19Z</time>
      </trkpt>
      <trkpt lat="38.8680790" lon="1.3517420">
        <ele>-0.9</ele>
        <time>2020-02-21T10:49:20Z</time>
      </trkpt>
      <trkpt lat="38.8680930" lon="1.3517400">
        <ele>-0.8</ele>
        <time>2020-02-21T10:49:21Z</time>
      </trkpt>
      <trkpt lat="38.8681210" lon="1.3517300">
        <ele>-0.6</ele>
        <time>2020-02-21T10:49:22Z</time>
      </trkpt>
      <trkpt lat="38.8681540" lon="1.3517050">
        <ele>-0.5</ele>
        <time>2020-02-21T10:49:23Z</time>
      </trkpt>
      <trkpt lat="38.8681660" lon="1.3516980">
        <ele>-0.7</ele>
        <time>2020-02-21T10:49:24Z</time>
      </trkpt>
      <trkpt lat="38.8681980" lon="1.3516770">
        <ele>-0.6</ele>
        <time>2020-02-21T10:49:25Z</time>
      </trkpt>
      <trkpt lat="38.8682100" lon="1.3516740">
        <ele>-0.6</ele>
        <time>2020-02-21T10:49:26Z</time>
      </trkpt>
      <trkpt lat="38.8682360" lon="1.3516580">
        <ele>-0.6</ele>
        <time>2020-02-21T10:49:27Z</time>
      </trkpt>
      <trkpt lat="38.8682780" lon="1.3516360">
        <ele>-0.6</ele>
        <time>2020-02-21T10:49:28Z</time>
      </trkpt>
      <trkpt lat="38.8682940" lon="1.3516250">
        <ele>-0.5</ele>
        <time>2020-02-21T10:49:29Z</time>
      </trkpt>
      <trkpt lat="38.8683270" lon="1.3516040">
        <ele>-0.6</ele>
        <time>2020-02-21T10:49:30Z</time>
      </trkpt>
      <trkpt lat="38.8683570" lon="1.3515740">
        <ele>-0.7</ele>
        <time>2020-02-21T10:49:31Z</time>
      </trkpt>
      <trkpt lat="38.8683810" lon="1.3515520">
        <ele>-0.7</ele>
        <time>2020-02-21T10:49:32Z</time>
      </trkpt>
      <trkpt lat="38.8684190" lon="1.3515460">
        <ele>-0.7</ele>
        <time>2020-02-21T10:49:33Z</time>
      </trkpt>
      <trkpt lat="38.8684320" lon="1.3515440">
        <ele>-0.7</ele>
        <time>2020-02-21T10:49:34Z</time>
      </trkpt>
      <trkpt lat="38.8684630" lon="1.3515430">
        <ele>-0.7</ele>
        <time>2020-02-21T10:49:35Z</time>
      </trkpt>
      <trkpt lat="38.8684920" lon="1.3515370">
        <ele>-0.7</ele>
        <time>2020-02-21T10:49:36Z</time>
      </trkpt>
      <trkpt lat="38.8685340" lon="1.3515190">
        <ele>-0.8</ele>
        <time>2020-02-21T10:49:37Z</time>
      </trkpt>
      <trkpt lat="38.8685520" lon="1.3515090">
        <ele>-0.7</ele>
        <time>2020-02-21T10:49:38Z</time>
      </trkpt>
      <trkpt lat="38.8685840" lon="1.3514820">
        <ele>-0.8</ele>
        <time>2020-02-21T10:49:39Z</time>
      </trkpt>
      <trkpt lat="38.8685950" lon="1.3514700">
        <ele>-0.8</ele>
        <time>2020-02-21T10:49:40Z</time>
      </trkpt>
      <trkpt lat="38.8686180" lon="1.3514450">
        <ele>-0.8</ele>
        <time>2020-02-21T10:49:41Z</time>
      </trkpt>
      <trkpt lat="38.8686550" lon="1.3514270">
        <ele>-0.8</ele>
        <time>2020-02-21T10:49:42Z</time>
      </trkpt>
      <trkpt lat="38.8686790" lon="1.3514100">
        <ele>-0.8</ele>
        <time>2020-02-21T10:49:43Z</time>
      </trkpt>
      <trkpt lat="38.8687050" lon="1.3513830">
        <ele>-0.8</ele>
        <time>2020-02-21T10:49:44Z</time>
      </trkpt>
      <trkpt lat="38.8687290" lon="1.3513440">
        <ele>-0.8</ele>
        <time>2020-02-21T10:49:45Z</time>
      </trkpt>
      <trkpt lat="38.8687410" lon="1.3513040">
        <ele>-0.8</ele>
        <time>2020-02-21T10:49:46Z</time>
      </trkpt>
      <trkpt lat="38.8687550" lon="1.3512540">
        <ele>-0.8</ele>
        <time>2020-02-21T10:49:47Z</time>
      </trkpt>
      <trkpt lat="38.8687670" lon="1.3512160">
        <ele>-0.8</ele>
        <time>2020-02-21T10:49:48Z</time>
      </trkpt>
      <trkpt lat="38.8687870" lon="1.3511870">
        <ele>-0.8</ele>
        <time>2020-02-21T10:49:49Z</time>
      </trkpt>
      <trkpt lat="38.8688030" lon="1.3511560">
        <ele>-0.8</ele>
        <time>2020-02-21T10:49:50Z</time>
      </trkpt>
      <trkpt lat="38.8688180" lon="1.3511170">
        <ele>-0.8</ele>
        <time>2020-02-21T10:49:51Z</time>
      </trkpt>
      <trkpt lat="38.8688300" lon="1.3510630">
        <ele>-0.8</ele>
        <time>2020-02-21T10:49:52Z</time>
      </trkpt>
      <trkpt lat="38.8688350" lon="1.3510390">
        <ele>-0.9</ele>
        <time>2020-02-21T10:49:53Z</time>
      </trkpt>
      <trkpt lat="38.8688370" lon="1.3509990">
        <ele>-0.9</ele>
        <time>2020-02-21T10:49:54Z</time>
      </trkpt>
      <trkpt lat="38.8688350" lon="1.3509600">
        <ele>-1.0</ele>
        <time>2020-02-21T10:49:55Z</time>
      </trkpt>
      <trkpt lat="38.8688450" lon="1.3509200">
        <ele>-1.1</ele>
        <time>2020-02-21T10:49:56Z</time>
      </trkpt>
      <trkpt lat="38.8688550" lon="1.3508780">
        <ele>-1.1</ele>
        <time>2020-02-21T10:49:57Z</time>
      </trkpt>
      <trkpt lat="38.8688750" lon="1.3508370">
        <ele>-1.2</ele>
        <time>2020-02-21T10:49:58Z</time>
      </trkpt>
      <trkpt lat="38.8688840" lon="1.3508240">
        <ele>-1.1</ele>
        <time>2020-02-21T10:49:59Z</time>
      </trkpt>
      <trkpt lat="38.8689090" lon="1.3508050">
        <ele>-1.1</ele>
        <time>2020-02-21T10:50:00Z</time>
      </trkpt>
      <trkpt lat="38.8689330" lon="1.3507820">
        <ele>-1.2</ele>
        <time>2020-02-21T10:50:01Z</time>
      </trkpt>
      <trkpt lat="38.8689530" lon="1.3507470">
        <ele>-1.3</ele>
        <time>2020-02-21T10:50:02Z</time>
      </trkpt>
      <trkpt lat="38.8689730" lon="1.3507130">
        <ele>-1.4</ele>
        <time>2020-02-21T10:50:03Z</time>
      </trkpt>
      <trkpt lat="38.8689850" lon="1.3506710">
        <ele>-1.4</ele>
        <time>2020-02-21T10:50:04Z</time>
      </trkpt>
      <trkpt lat="38.8689950" lon="1.3506310">
        <ele>-1.5</ele>
        <time>2020-02-21T10:50:05Z</time>
      </trkpt>
      <trkpt lat="38.8690190" lon="1.3505800">
        <ele>-1.6</ele>
        <time>2020-02-21T10:50:06Z</time>
      </trkpt>
      <trkpt lat="38.8690380" lon="1.3505500">
        <ele>-1.6</ele>
        <time>2020-02-21T10:50:07Z</time>
      </trkpt>
      <trkpt lat="38.8690540" lon="1.3505220">
        <ele>-1.6</ele>
        <time>2020-02-21T10:50:08Z</time>
      </trkpt>
      <trkpt lat="38.8690830" lon="1.3504710">
        <ele>-1.7</ele>
        <time>2020-02-21T10:50:09Z</time>
      </trkpt>
      <trkpt lat="38.8691030" lon="1.3504320">
        <ele>-1.7</ele>
        <time>2020-02-21T10:50:10Z</time>
      </trkpt>
      <trkpt lat="38.8691220" lon="1.3503930">
        <ele>-1.7</ele>
        <time>2020-02-21T10:50:11Z</time>
      </trkpt>
      <trkpt lat="38.8691300" lon="1.3503520">
        <ele>-1.8</ele>
        <time>2020-02-21T10:50:12Z</time>
      </trkpt>
      <trkpt lat="38.8691360" lon="1.3503110">
        <ele>-1.9</ele>
        <time>2020-02-21T10:50:13Z</time>
      </trkpt>
      <trkpt lat="38.8691420" lon="1.3502560">
        <ele>-2.0</ele>
        <time>2020-02-21T10:50:14Z</time>
      </trkpt>
      <trkpt lat="38.8691580" lon="1.3502070">
        <ele>-1.9</ele>
        <time>2020-02-21T10:50:15Z</time>
      </trkpt>
      <trkpt lat="38.8691710" lon="1.3501550">
        <ele>-2.0</ele>
        <time>2020-02-21T10:50:16Z</time>
      </trkpt>
      <trkpt lat="38.8691790" lon="1.3501040">
        <ele>-2.0</ele>
        <time>2020-02-21T10:50:17Z</time>
      </trkpt>
      <trkpt lat="38.8691880" lon="1.3500590">
        <ele>-1.9</ele>
        <time>2020-02-21T10:50:18Z</time>
      </trkpt>
      <trkpt lat="38.8692020" lon="1.3500110">
        <ele>-1.9</ele>
        <time>2020-02-21T10:50:19Z</time>
      </trkpt>
      <trkpt lat="38.8692110" lon="1.3499670">
        <ele>-1.9</ele>
        <time>2020-02-21T10:50:20Z</time>
      </trkpt>
      <trkpt lat="38.8692180" lon="1.3499170">
        <ele>-1.9</ele>
        <time>2020-02-21T10:50:21Z</time>
      </trkpt>
      <trkpt lat="38.8692260" lon="1.3498570">
        <ele>-1.9</ele>
        <time>2020-02-21T10:50:22Z</time>
      </trkpt>
      <trkpt lat="38.8692250" lon="1.3498040">
        <ele>-1.9</ele>
        <time>2020-02-21T10:50:23Z</time>
      </trkpt>
      <trkpt lat="38.8692320" lon="1.3497530">
        <ele>-1.9</ele>
        <time>2020-02-21T10:50:24Z</time>
      </trkpt>
      <trkpt lat="38.8692450" lon="1.3496970">
        <ele>-2.0</ele>
        <time>2020-02-21T10:50:25Z</time>
      </trkpt>
      <trkpt lat="38.8692520" lon="1.3496530">
        <ele>-1.8</ele>
        <time>2020-02-21T10:50:26Z</time>
      </trkpt>
      <trkpt lat="38.8692610" lon="1.3496000">
        <ele>-1.9</ele>
        <time>2020-02-21T10:50:27Z</time>
      </trkpt>
      <trkpt lat="38.8692650" lon="1.3495490">
        <ele>-1.9</ele>
        <time>2020-02-21T10:50:28Z</time>
      </trkpt>
      <trkpt lat="38.8692640" lon="1.3494990">
        <ele>-1.9</ele>
        <time>2020-02-21T10:50:29Z</time>
      </trkpt>
      <trkpt lat="38.8692650" lon="1.3494430">
        <ele>-1.9</ele>
        <time>2020-02-21T10:50:30Z</time>
      </trkpt>
      <trkpt lat="38.8692970" lon="1.3493890">
        <ele>-1.7</ele>
        <time>2020-02-21T10:50:31Z</time>
      </trkpt>
      <trkpt lat="38.8693440" lon="1.3493750">
        <ele>-1.6</ele>
        <time>2020-02-21T10:50:32Z</time>
      </trkpt>
      <trkpt lat="38.8693850" lon="1.3493630">
        <ele>-1.4</ele>
        <time>2020-02-21T10:50:33Z</time>
      </trkpt>
      <trkpt lat="38.8694230" lon="1.3493450">
        <ele>-1.3</ele>
        <time>2020-02-21T10:50:34Z</time>
      </trkpt>
      <trkpt lat="38.8694610" lon="1.3493240">
        <ele>-1.3</ele>
        <time>2020-02-21T10:50:35Z</time>
      </trkpt>
      <trkpt lat="38.8694960" lon="1.3493000">
        <ele>-1.2</ele>
        <time>2020-02-21T10:50:36Z</time>
      </trkpt>
      <trkpt lat="38.8695380" lon="1.3492920">
        <ele>-1.2</ele>
        <time>2020-02-21T10:50:37Z</time>
      </trkpt>
      <trkpt lat="38.8695780" lon="1.3492820">
        <ele>-1.1</ele>
        <time>2020-02-21T10:50:38Z</time>
      </trkpt>
      <trkpt lat="38.8696070" lon="1.3492520">
        <ele>-1.1</ele>
        <time>2020-02-21T10:50:39Z</time>
      </trkpt>
      <trkpt lat="38.8696290" lon="1.3492070">
        <ele>-1.0</ele>
        <time>2020-02-21T10:50:40Z</time>
      </trkpt>
      <trkpt lat="38.8696550" lon="1.3491490">
        <ele>-0.9</ele>
        <time>2020-02-21T10:50:41Z</time>
      </trkpt>
      <trkpt lat="38.8696940" lon="1.3491040">
        <ele>-0.9</ele>
        <time>2020-02-21T10:50:42Z</time>
      </trkpt>
      <trkpt lat="38.8697250" lon="1.3490620">
        <ele>-0.8</ele>
        <time>2020-02-21T10:50:43Z</time>
      </trkpt>
      <trkpt lat="38.8697500" lon="1.3490310">
        <ele>-0.9</ele>
        <time>2020-02-21T10:50:44Z</time>
      </trkpt>
      <trkpt lat="38.8697630" lon="1.3489910">
        <ele>-0.8</ele>
        <time>2020-02-21T10:50:45Z</time>
      </trkpt>
      <trkpt lat="38.8697640" lon="1.3489770">
        <ele>-0.8</ele>
        <time>2020-02-21T10:50:46Z</time>
      </trkpt>
      <trkpt lat="38.8697610" lon="1.3489450">
        <ele>-0.9</ele>
        <time>2020-02-21T10:50:47Z</time>
      </trkpt>
      <trkpt lat="38.8697570" lon="1.3489310">
        <ele>-0.9</ele>
        <time>2020-02-21T10:50:48Z</time>
      </trkpt>
      <trkpt lat="38.8697520" lon="1.3489230">
        <ele>-0.9</ele>
        <time>2020-02-21T10:50:49Z</time>
      </trkpt>
      <trkpt lat="38.8697510" lon="1.3489080">
        <ele>-1.0</ele>
        <time>2020-02-21T10:50:50Z</time>
      </trkpt>
      <trkpt lat="38.8697510" lon="1.3488940">
        <ele>-1.0</ele>
        <time>2020-02-21T10:50:51Z</time>
      </trkpt>
      <trkpt lat="38.8697500" lon="1.3488800">
        <ele>-1.0</ele>
        <time>2020-02-21T10:50:52Z</time>
      </trkpt>
      <trkpt lat="38.8697470" lon="1.3488330">
        <ele>-1.0</ele>
        <time>2020-02-21T10:50:53Z</time>
      </trkpt>
      <trkpt lat="38.8697450" lon="1.3487810">
        <ele>-1.1</ele>
        <time>2020-02-21T10:50:54Z</time>
      </trkpt>
      <trkpt lat="38.8697360" lon="1.3487400">
        <ele>-1.1</ele>
        <time>2020-02-21T10:50:55Z</time>
      </trkpt>
      <trkpt lat="38.8697330" lon="1.3487020">
        <ele>-1.1</ele>
        <time>2020-02-21T10:50:56Z</time>
      </trkpt>
      <trkpt lat="38.8697300" lon="1.3486530">
        <ele>-1.2</ele>
        <time>2020-02-21T10:50:57Z</time>
      </trkpt>
      <trkpt lat="38.8697340" lon="1.3486030">
        <ele>-1.3</ele>
        <time>2020-02-21T10:50:58Z</time>
      </trkpt>
      <trkpt lat="38.8697590" lon="1.3485560">
        <ele>-1.3</ele>
        <time>2020-02-21T10:50:59Z</time>
      </trkpt>
      <trkpt lat="38.8697740" lon="1.3485110">
        <ele>-1.3</ele>
        <time>2020-02-21T10:51:00Z</time>
      </trkpt>
      <trkpt lat="38.8697640" lon="1.3484680">
        <ele>-1.4</ele>
        <time>2020-02-21T10:51:01Z</time>
      </trkpt>
      <trkpt lat="38.8697500" lon="1.3484240">
        <ele>-1.7</ele>
        <time>2020-02-21T10:51:02Z</time>
      </trkpt>
      <trkpt lat="38.8697430" lon="1.3483710">
        <ele>-1.7</ele>
        <time>2020-02-21T10:51:03Z</time>
      </trkpt>
      <trkpt lat="38.8697350" lon="1.3483090">
        <ele>-1.8</ele>
        <time>2020-02-21T10:51:04Z</time>
      </trkpt>
      <trkpt lat="38.8697350" lon="1.3482560">
        <ele>-1.8</ele>
        <time>2020-02-21T10:51:05Z</time>
      </trkpt>
      <trkpt lat="38.8697350" lon="1.3482050">
        <ele>-1.8</ele>
        <time>2020-02-21T10:51:06Z</time>
      </trkpt>
      <trkpt lat="38.8697290" lon="1.3481510">
        <ele>-1.7</ele>
        <time>2020-02-21T10:51:07Z</time>
      </trkpt>
      <trkpt lat="38.8697330" lon="1.3480920">
        <ele>-1.4</ele>
        <time>2020-02-21T10:51:08Z</time>
      </trkpt>
      <trkpt lat="38.8697230" lon="1.3480500">
        <ele>-1.3</ele>
        <time>2020-02-21T10:51:09Z</time>
      </trkpt>
      <trkpt lat="38.8697160" lon="1.3480070">
        <ele>-1.0</ele>
        <time>2020-02-21T10:51:10Z</time>
      </trkpt>
      <trkpt lat="38.8697150" lon="1.3479700">
        <ele>-0.9</ele>
        <time>2020-02-21T10:51:11Z</time>
      </trkpt>
      <trkpt lat="38.8697120" lon="1.3479270">
        <ele>-0.8</ele>
        <time>2020-02-21T10:51:12Z</time>
      </trkpt>
      <trkpt lat="38.8697100" lon="1.3478750">
        <ele>-0.8</ele>
        <time>2020-02-21T10:51:13Z</time>
      </trkpt>
      <trkpt lat="38.8697090" lon="1.3478570">
        <ele>-0.8</ele>
        <time>2020-02-21T10:51:14Z</time>
      </trkpt>
      <trkpt lat="38.8697340" lon="1.3478130">
        <ele>-0.9</ele>
        <time>2020-02-21T10:51:15Z</time>
      </trkpt>
      <trkpt lat="38.8697630" lon="1.3477800">
        <ele>-1.2</ele>
        <time>2020-02-21T10:51:16Z</time>
      </trkpt>
      <trkpt lat="38.8697830" lon="1.3477380">
        <ele>-1.2</ele>
        <time>2020-02-21T10:51:17Z</time>
      </trkpt>
      <trkpt lat="38.8697870" lon="1.3476960">
        <ele>-1.3</ele>
        <time>2020-02-21T10:51:18Z</time>
      </trkpt>
      <trkpt lat="38.8697670" lon="1.3476540">
        <ele>-1.2</ele>
        <time>2020-02-21T10:51:19Z</time>
      </trkpt>
      <trkpt lat="38.8697470" lon="1.3476130">
        <ele>-1.0</ele>
        <time>2020-02-21T10:51:20Z</time>
      </trkpt>
      <trkpt lat="38.8697290" lon="1.3475770">
        <ele>-0.9</ele>
        <time>2020-02-21T10:51:21Z</time>
      </trkpt>
      <trkpt lat="38.8697160" lon="1.3475440">
        <ele>-0.8</ele>
        <time>2020-02-21T10:51:22Z</time>
      </trkpt>
      <trkpt lat="38.8697070" lon="1.3474990">
        <ele>-0.7</ele>
        <time>2020-02-21T10:51:23Z</time>
      </trkpt>
      <trkpt lat="38.8697000" lon="1.3474530">
        <ele>-0.5</ele>
        <time>2020-02-21T10:51:24Z</time>
      </trkpt>
      <trkpt lat="38.8697270" lon="1.3474310">
        <ele>-0.5</ele>
        <time>2020-02-21T10:51:25Z</time>
      </trkpt>
      <trkpt lat="38.8697560" lon="1.3474020">
        <ele>-0.4</ele>
        <time>2020-02-21T10:51:26Z</time>
      </trkpt>
      <trkpt lat="38.8697870" lon="1.3473830">
        <ele>-0.4</ele>
        <time>2020-02-21T10:51:27Z</time>
      </trkpt>
      <trkpt lat="38.8698150" lon="1.3473590">
        <ele>-0.3</ele>
        <time>2020-02-21T10:51:28Z</time>
      </trkpt>
      <trkpt lat="38.8698410" lon="1.3473310">
        <ele>-0.3</ele>
        <time>2020-02-21T10:51:29Z</time>
      </trkpt>
      <trkpt lat="38.8698750" lon="1.3473050">
        <ele>-0.3</ele>
        <time>2020-02-21T10:51:30Z</time>
      </trkpt>
      <trkpt lat="38.8699040" lon="1.3472770">
        <ele>-0.3</ele>
        <time>2020-02-21T10:51:31Z</time>
      </trkpt>
      <trkpt lat="38.8699310" lon="1.3472500">
        <ele>-0.3</ele>
        <time>2020-02-21T10:51:32Z</time>
      </trkpt>
      <trkpt lat="38.8699560" lon="1.3472120">
        <ele>-0.4</ele>
        <time>2020-02-21T10:51:33Z</time>
      </trkpt>
      <trkpt lat="38.8699820" lon="1.3471720">
        <ele>-0.4</ele>
        <time>2020-02-21T10:51:34Z</time>
      </trkpt>
      <trkpt lat="38.8700010" lon="1.3471360">
        <ele>-0.5</ele>
        <time>2020-02-21T10:51:35Z</time>
      </trkpt>
      <trkpt lat="38.8700260" lon="1.3470960">
        <ele>-0.5</ele>
        <time>2020-02-21T10:51:36Z</time>
      </trkpt>
      <trkpt lat="38.8700490" lon="1.3470640">
        <ele>-0.5</ele>
        <time>2020-02-21T10:51:37Z</time>
      </trkpt>
      <trkpt lat="38.8700710" lon="1.3470290">
        <ele>-0.5</ele>
        <time>2020-02-21T10:51:38Z</time>
      </trkpt>
      <trkpt lat="38.8701040" lon="1.3469890">
        <ele>-0.5</ele>
        <time>2020-02-21T10:51:39Z</time>
      </trkpt>
      <trkpt lat="38.8701330" lon="1.3469490">
        <ele>-0.5</ele>
        <time>2020-02-21T10:51:40Z</time>
      </trkpt>
      <trkpt lat="38.8701550" lon="1.3469170">
        <ele>-0.4</ele>
        <time>2020-02-21T10:51:41Z</time>
      </trkpt>
      <trkpt lat="38.8701780" lon="1.3468750">
        <ele>-0.4</ele>
        <time>2020-02-21T10:51:42Z</time>
      </trkpt>
      <trkpt lat="38.8701950" lon="1.3468380">
        <ele>-0.3</ele>
        <time>2020-02-21T10:51:43Z</time>
      </trkpt>
      <trkpt lat="38.8702240" lon="1.3468010">
        <ele>-0.3</ele>
        <time>2020-02-21T10:51:44Z</time>
      </trkpt>
      <trkpt lat="38.8702510" lon="1.3467620">
        <ele>-0.3</ele>
        <time>2020-02-21T10:51:45Z</time>
      </trkpt>
      <trkpt lat="38.8702770" lon="1.3467270">
        <ele>-0.2</ele>
        <time>2020-02-21T10:51:46Z</time>
      </trkpt>
      <trkpt lat="38.8703040" lon="1.3466890">
        <ele>-0.2</ele>
        <time>2020-02-21T10:51:47Z</time>
      </trkpt>
      <trkpt lat="38.8703290" lon="1.3466570">
        <ele>-0.2</ele>
        <time>2020-02-21T10:51:48Z</time>
      </trkpt>
      <trkpt lat="38.8703530" lon="1.3466280">
        <ele>-0.2</ele>
        <time>2020-02-21T10:51:49Z</time>
      </trkpt>
      <trkpt lat="38.8703820" lon="1.3465980">
        <ele>-0.1</ele>
        <time>2020-02-21T10:51:50Z</time>
      </trkpt>
      <trkpt lat="38.8704100" lon="1.3465620">
        <ele>-0.1</ele>
        <time>2020-02-21T10:51:51Z</time>
      </trkpt>
      <trkpt lat="38.8704340" lon="1.3465150">
        <ele>-0.1</ele>
        <time>2020-02-21T10:51:52Z</time>
      </trkpt>
      <trkpt lat="38.8704560" lon="1.3464660">
        <ele>0.0</ele>
        <time>2020-02-21T10:51:53Z</time>
      </trkpt>
      <trkpt lat="38.8704710" lon="1.3464270">
        <ele>0.0</ele>
        <time>2020-02-21T10:51:54Z</time>
      </trkpt>
      <trkpt lat="38.8704890" lon="1.3463750">
        <ele>0.0</ele>
        <time>2020-02-21T10:51:55Z</time>
      </trkpt>
      <trkpt lat="38.8705080" lon="1.3463330">
        <ele>0.0</ele>
        <time>2020-02-21T10:51:56Z</time>
      </trkpt>
      <trkpt lat="38.8705310" lon="1.3462880">
        <ele>0.1</ele>
        <time>2020-02-21T10:51:57Z</time>
      </trkpt>
      <trkpt lat="38.8705510" lon="1.3462420">
        <ele>0.1</ele>
        <time>2020-02-21T10:51:58Z</time>
      </trkpt>
      <trkpt lat="38.8705670" lon="1.3461920">
        <ele>0.2</ele>
        <time>2020-02-21T10:51:59Z</time>
      </trkpt>
      <trkpt lat="38.8705850" lon="1.3461510">
        <ele>0.2</ele>
        <time>2020-02-21T10:52:00Z</time>
      </trkpt>
      <trkpt lat="38.8706040" lon="1.3461060">
        <ele>0.3</ele>
        <time>2020-02-21T10:52:01Z</time>
      </trkpt>
      <trkpt lat="38.8706150" lon="1.3460560">
        <ele>0.3</ele>
        <time>2020-02-21T10:52:02Z</time>
      </trkpt>
      <trkpt lat="38.8706300" lon="1.3460000">
        <ele>0.3</ele>
        <time>2020-02-21T10:52:03Z</time>
      </trkpt>
      <trkpt lat="38.8706380" lon="1.3459450">
        <ele>0.3</ele>
        <time>2020-02-21T10:52:04Z</time>
      </trkpt>
      <trkpt lat="38.8706440" lon="1.3458980">
        <ele>0.3</ele>
        <time>2020-02-21T10:52:05Z</time>
      </trkpt>
      <trkpt lat="38.8706500" lon="1.3458500">
        <ele>0.3</ele>
        <time>2020-02-21T10:52:06Z</time>
      </trkpt>
      <trkpt lat="38.8706650" lon="1.3458060">
        <ele>0.3</ele>
        <time>2020-02-21T10:52:07Z</time>
      </trkpt>
      <trkpt lat="38.8706920" lon="1.3457630">
        <ele>0.4</ele>
        <time>2020-02-21T10:52:08Z</time>
      </trkpt>
      <trkpt lat="38.8707280" lon="1.3457250">
        <ele>0.4</ele>
        <time>2020-02-21T10:52:09Z</time>
      </trkpt>
      <trkpt lat="38.8707470" lon="1.3456720">
        <ele>0.4</ele>
        <time>2020-02-21T10:52:10Z</time>
      </trkpt>
      <trkpt lat="38.8707610" lon="1.3456210">
        <ele>0.5</ele>
        <time>2020-02-21T10:52:11Z</time>
      </trkpt>
      <trkpt lat="38.8707700" lon="1.3455730">
        <ele>0.5</ele>
        <time>2020-02-21T10:52:12Z</time>
      </trkpt>
      <trkpt lat="38.8707810" lon="1.3455260">
        <ele>0.4</ele>
        <time>2020-02-21T10:52:13Z</time>
      </trkpt>
      <trkpt lat="38.8707940" lon="1.3454830">
        <ele>0.5</ele>
        <time>2020-02-21T10:52:14Z</time>
      </trkpt>
      <trkpt lat="38.8708140" lon="1.3454260">
        <ele>0.5</ele>
        <time>2020-02-21T10:52:15Z</time>
      </trkpt>
      <trkpt lat="38.8708390" lon="1.3453790">
        <ele>0.5</ele>
        <time>2020-02-21T10:52:16Z</time>
      </trkpt>
      <trkpt lat="38.8708480" lon="1.3453420">
        <ele>0.5</ele>
        <time>2020-02-21T10:52:17Z</time>
      </trkpt>
      <trkpt lat="38.8708440" lon="1.3452910">
        <ele>0.5</ele>
        <time>2020-02-21T10:52:18Z</time>
      </trkpt>
      <trkpt lat="38.8708430" lon="1.3452450">
        <ele>0.4</ele>
        <time>2020-02-21T10:52:19Z</time>
      </trkpt>
      <trkpt lat="38.8708460" lon="1.3451950">
        <ele>0.4</ele>
        <time>2020-02-21T10:52:20Z</time>
      </trkpt>
      <trkpt lat="38.8708490" lon="1.3451450">
        <ele>0.4</ele>
        <time>2020-02-21T10:52:21Z</time>
      </trkpt>
      <trkpt lat="38.8708440" lon="1.3451020">
        <ele>0.3</ele>
        <time>2020-02-21T10:52:22Z</time>
      </trkpt>
      <trkpt lat="38.8708380" lon="1.3450540">
        <ele>0.3</ele>
        <time>2020-02-21T10:52:23Z</time>
      </trkpt>
      <trkpt lat="38.8708430" lon="1.3450140">
        <ele>0.2</ele>
        <time>2020-02-21T10:52:24Z</time>
      </trkpt>
      <trkpt lat="38.8708550" lon="1.3449830">
        <ele>0.4</ele>
        <time>2020-02-21T10:52:25Z</time>
      </trkpt>
      <trkpt lat="38.8708670" lon="1.3449420">
        <ele>0.3</ele>
        <time>2020-02-21T10:52:26Z</time>
      </trkpt>
      <trkpt lat="38.8708780" lon="1.3449010">
        <ele>0.3</ele>
        <time>2020-02-21T10:52:27Z</time>
      </trkpt>
      <trkpt lat="38.8708970" lon="1.3448680">
        <ele>0.4</ele>
        <time>2020-02-21T10:52:28Z</time>
      </trkpt>
      <trkpt lat="38.8709110" lon="1.3448260">
        <ele>0.3</ele>
        <time>2020-02-21T10:52:29Z</time>
      </trkpt>
      <trkpt lat="38.8709230" lon="1.3447930">
        <ele>0.4</ele>
        <time>2020-02-21T10:52:30Z</time>
      </trkpt>
      <trkpt lat="38.8709360" lon="1.3447480">
        <ele>0.4</ele>
        <time>2020-02-21T10:52:31Z</time>
      </trkpt>
      <trkpt lat="38.8709560" lon="1.3447010">
        <ele>0.5</ele>
        <time>2020-02-21T10:52:32Z</time>
      </trkpt>
      <trkpt lat="38.8709770" lon="1.3446600">
        <ele>0.4</ele>
        <time>2020-02-21T10:52:33Z</time>
      </trkpt>
      <trkpt lat="38.8710050" lon="1.3446300">
        <ele>0.6</ele>
        <time>2020-02-21T10:52:34Z</time>
      </trkpt>
      <trkpt lat="38.8710380" lon="1.3446020">
        <ele>0.7</ele>
        <time>2020-02-21T10:52:35Z</time>
      </trkpt>
      <trkpt lat="38.8710530" lon="1.3445610">
        <ele>0.6</ele>
        <time>2020-02-21T10:52:36Z</time>
      </trkpt>
      <trkpt lat="38.8710640" lon="1.3445160">
        <ele>0.8</ele>
        <time>2020-02-21T10:52:37Z</time>
      </trkpt>
      <trkpt lat="38.8710810" lon="1.3444730">
        <ele>0.7</ele>
        <time>2020-02-21T10:52:38Z</time>
      </trkpt>
      <trkpt lat="38.8710970" lon="1.3444230">
        <ele>0.9</ele>
        <time>2020-02-21T10:52:39Z</time>
      </trkpt>
      <trkpt lat="38.8711100" lon="1.3443720">
        <ele>0.9</ele>
        <time>2020-02-21T10:52:40Z</time>
      </trkpt>
      <trkpt lat="38.8711190" lon="1.3443160">
        <ele>0.9</ele>
        <time>2020-02-21T10:52:41Z</time>
      </trkpt>
      <trkpt lat="38.8711270" lon="1.3442740">
        <ele>1.1</ele>
        <time>2020-02-21T10:52:42Z</time>
      </trkpt>
      <trkpt lat="38.8711340" lon="1.3442290">
        <ele>1.1</ele>
        <time>2020-02-21T10:52:43Z</time>
      </trkpt>
      <trkpt lat="38.8711460" lon="1.3441770">
        <ele>1.1</ele>
        <time>2020-02-21T10:52:44Z</time>
      </trkpt>
      <trkpt lat="38.8711570" lon="1.3441230">
        <ele>1.3</ele>
        <time>2020-02-21T10:52:45Z</time>
      </trkpt>
      <trkpt lat="38.8711670" lon="1.3440700">
        <ele>1.3</ele>
        <time>2020-02-21T10:52:46Z</time>
      </trkpt>
      <trkpt lat="38.8711780" lon="1.3440260">
        <ele>1.4</ele>
        <time>2020-02-21T10:52:47Z</time>
      </trkpt>
      <trkpt lat="38.8711900" lon="1.3439910">
        <ele>1.6</ele>
        <time>2020-02-21T10:52:48Z</time>
      </trkpt>
      <trkpt lat="38.8712030" lon="1.3439510">
        <ele>1.6</ele>
        <time>2020-02-21T10:52:49Z</time>
      </trkpt>
      <trkpt lat="38.8712110" lon="1.3439020">
        <ele>1.7</ele>
        <time>2020-02-21T10:52:50Z</time>
      </trkpt>
      <trkpt lat="38.8712140" lon="1.3438520">
        <ele>1.7</ele>
        <time>2020-02-21T10:52:51Z</time>
      </trkpt>
      <trkpt lat="38.8712190" lon="1.3438030">
        <ele>1.8</ele>
        <time>2020-02-21T10:52:52Z</time>
      </trkpt>
      <trkpt lat="38.8712290" lon="1.3437600">
        <ele>1.9</ele>
        <time>2020-02-21T10:52:53Z</time>
      </trkpt>
      <trkpt lat="38.8712160" lon="1.3437250">
        <ele>1.8</ele>
        <time>2020-02-21T10:52:54Z</time>
      </trkpt>
      <trkpt lat="38.8711990" lon="1.3436820">
        <ele>1.8</ele>
        <time>2020-02-21T10:52:55Z</time>
      </trkpt>
      <trkpt lat="38.8711970" lon="1.3436370">
        <ele>1.9</ele>
        <time>2020-02-21T10:52:56Z</time>
      </trkpt>
      <trkpt lat="38.8711750" lon="1.3436010">
        <ele>1.8</ele>
        <time>2020-02-21T10:52:57Z</time>
      </trkpt>
      <trkpt lat="38.8711700" lon="1.3435910">
        <ele>1.8</ele>
        <time>2020-02-21T10:52:58Z</time>
      </trkpt>
      <trkpt lat="38.8711690" lon="1.3435810">
        <ele>1.8</ele>
        <time>2020-02-21T10:52:59Z</time>
      </trkpt>
      <trkpt lat="38.8711750" lon="1.3435850">
        <ele>1.8</ele>
        <time>2020-02-21T10:53:00Z</time>
      </trkpt>
      <trkpt lat="38.8711780" lon="1.3435930">
        <ele>1.8</ele>
        <time>2020-02-21T10:53:01Z</time>
      </trkpt>
      <trkpt lat="38.8711770" lon="1.3436000">
        <ele>1.8</ele>
        <time>2020-02-21T10:53:02Z</time>
      </trkpt>
      <trkpt lat="38.8711760" lon="1.3435960">
        <ele>1.7</ele>
        <time>2020-02-21T10:53:03Z</time>
      </trkpt>
      <trkpt lat="38.8711750" lon="1.3435960">
        <ele>1.7</ele>
        <time>2020-02-21T10:53:04Z</time>
      </trkpt>
      <trkpt lat="38.8711760" lon="1.3435950">
        <ele>1.7</ele>
        <time>2020-02-21T10:53:05Z</time>
      </trkpt>
      <trkpt lat="38.8711770" lon="1.3435940">
        <ele>1.7</ele>
        <time>2020-02-21T10:53:06Z</time>
      </trkpt>
      <trkpt lat="38.8711770" lon="1.3435920">
        <ele>1.8</ele>
        <time>2020-02-21T10:53:07Z</time>
      </trkpt>
      <trkpt lat="38.8711770" lon="1.3435910">
        <ele>1.8</ele>
        <time>2020-02-21T10:53:08Z</time>
      </trkpt>
      <trkpt lat="38.8711760" lon="1.3435900">
        <ele>1.8</ele>
        <time>2020-02-21T10:53:09Z</time>
      </trkpt>
      <trkpt lat="38.8711780" lon="1.3435810">
        <ele>1.8</ele>
        <time>2020-02-21T10:53:10Z</time>
      </trkpt>
      <trkpt lat="38.8711820" lon="1.3435660">
        <ele>1.8</ele>
        <time>2020-02-21T10:53:11Z</time>
      </trkpt>
      <trkpt lat="38.8711810" lon="1.3435610">
        <ele>1.8</ele>
        <time>2020-02-21T10:53:12Z</time>
      </trkpt>
      <trkpt lat="38.8711790" lon="1.3435650">
        <ele>1.8</ele>
        <time>2020-02-21T10:53:13Z</time>
      </trkpt>
      <trkpt lat="38.8711780" lon="1.3435670">
        <ele>1.8</ele>
        <time>2020-02-21T10:53:14Z</time>
      </trkpt>
      <trkpt lat="38.8711770" lon="1.3435680">
        <ele>1.8</ele>
        <time>2020-02-21T10:53:15Z</time>
      </trkpt>
      <trkpt lat="38.8711770" lon="1.3435680">
        <ele>1.8</ele>
        <time>2020-02-21T10:53:16Z</time>
      </trkpt>
      <trkpt lat="38.8711770" lon="1.3435680">
        <ele>1.8</ele>
        <time>2020-02-21T10:53:17Z</time>
      </trkpt>
      <trkpt lat="38.8711770" lon="1.3435680">
        <ele>1.8</ele>
        <time>2020-02-21T10:53:18Z</time>
      </trkpt>
      <trkpt lat="38.8711770" lon="1.3435680">
        <ele>1.8</ele>
        <time>2020-02-21T10:53:19Z</time>
      </trkpt>
      <trkpt lat="38.8711770" lon="1.3435680">
        <ele>1.8</ele>
        <time>2020-02-21T10:53:20Z</time>
      </trkpt>
      <trkpt lat="38.8711770" lon="1.3435680">
        <ele>1.8</ele>
        <time>2020-02-21T10:53:21Z</time>
      </trkpt>
      <trkpt lat="38.8711770" lon="1.3435680">
        <ele>1.8</ele>
        <time>2020-02-21T10:53:22Z</time>
      </trkpt>
      <trkpt lat="38.8712010" lon="1.3435910">
        <ele>1.9</ele>
        <time>2020-02-21T10:54:17Z</time>
      </trkpt>
      <trkpt lat="38.8711980" lon="1.3436040">
        <ele>1.9</ele>
        <time>2020-02-21T10:54:18Z</time>
      </trkpt>
      <trkpt lat="38.8711970" lon="1.3436100">
        <ele>1.9</ele>
        <time>2020-02-21T10:54:19Z</time>
      </trkpt>
      <trkpt lat="38.8711900" lon="1.3436140">
        <ele>1.9</ele>
        <time>2020-02-21T10:54:20Z</time>
      </trkpt>
      <trkpt lat="38.8711860" lon="1.3436340">
        <ele>1.7</ele>
        <time>2020-02-21T10:54:21Z</time>
      </trkpt>
      <trkpt lat="38.8711860" lon="1.3436360">
        <ele>1.7</ele>
        <time>2020-02-21T10:54:22Z</time>
      </trkpt>
      <trkpt lat="38.8711850" lon="1.3436360">
        <ele>1.7</ele>
        <time>2020-02-21T10:54:23Z</time>
      </trkpt>
      <trkpt lat="38.8711850" lon="1.3436360">
        <ele>1.7</ele>
        <time>2020-02-21T10:54:24Z</time>
      </trkpt>
      <trkpt lat="38.8711850" lon="1.3436360">
        <ele>1.7</ele>
        <time>2020-02-21T10:54:25Z</time>
      </trkpt>
      <trkpt lat="38.8711850" lon="1.3436360">
        <ele>1.7</ele>
        <time>2020-02-21T10:54:26Z</time>
      </trkpt>
      <trkpt lat="38.8711850" lon="1.3436350">
        <ele>1.7</ele>
        <time>2020-02-21T10:54:27Z</time>
      </trkpt>
      <trkpt lat="38.8711850" lon="1.3436350">
        <ele>1.7</ele>
        <time>2020-02-21T10:54:28Z</time>
      </trkpt>
      <trkpt lat="38.8711840" lon="1.3436360">
        <ele>1.7</ele>
        <time>2020-02-21T10:54:29Z</time>
      </trkpt>
      <trkpt lat="38.8711920" lon="1.3436470">
        <ele>1.8</ele>
        <time>2020-02-21T10:54:35Z</time>
      </trkpt>
      <trkpt lat="38.8712020" lon="1.3436290">
        <ele>1.9</ele>
        <time>2020-02-21T10:54:36Z</time>
      </trkpt>
      <trkpt lat="38.8712200" lon="1.3435990">
        <ele>1.9</ele>
        <time>2020-02-21T10:54:37Z</time>
      </trkpt>
      <trkpt lat="38.8712400" lon="1.3435580">
        <ele>2.0</ele>
        <time>2020-02-21T10:54:38Z</time>
      </trkpt>
      <trkpt lat="38.8712640" lon="1.3435260">
        <ele>2.2</ele>
        <time>2020-02-21T10:54:39Z</time>
      </trkpt>
      <trkpt lat="38.8712950" lon="1.3434950">
        <ele>2.3</ele>
        <time>2020-02-21T10:54:40Z</time>
      </trkpt>
      <trkpt lat="38.8713040" lon="1.3434830">
        <ele>2.3</ele>
        <time>2020-02-21T10:54:41Z</time>
      </trkpt>
      <trkpt lat="38.8713170" lon="1.3434590">
        <ele>2.4</ele>
        <time>2020-02-21T10:54:42Z</time>
      </trkpt>
      <trkpt lat="38.8713360" lon="1.3434620">
        <ele>2.5</ele>
        <time>2020-02-21T10:54:43Z</time>
      </trkpt>
      <trkpt lat="38.8713680" lon="1.3434600">
        <ele>2.7</ele>
        <time>2020-02-21T10:54:44Z</time>
      </trkpt>
      <trkpt lat="38.8713830" lon="1.3434610">
        <ele>2.7</ele>
        <time>2020-02-21T10:54:45Z</time>
      </trkpt>
      <trkpt lat="38.8714170" lon="1.3434540">
        <ele>2.8</ele>
        <time>2020-02-21T10:54:46Z</time>
      </trkpt>
      <trkpt lat="38.8714250" lon="1.3434520">
        <ele>3.0</ele>
        <time>2020-02-21T10:54:47Z</time>
      </trkpt>
      <trkpt lat="38.8714630" lon="1.3434350">
        <ele>3.2</ele>
        <time>2020-02-21T10:54:48Z</time>
      </trkpt>
      <trkpt lat="38.8714810" lon="1.3434290">
        <ele>3.2</ele>
        <time>2020-02-21T10:54:49Z</time>
      </trkpt>
      <trkpt lat="38.8715220" lon="1.3434230">
        <ele>3.4</ele>
        <time>2020-02-21T10:54:50Z</time>
      </trkpt>
      <trkpt lat="38.8715510" lon="1.3434160">
        <ele>3.6</ele>
        <time>2020-02-21T10:54:51Z</time>
      </trkpt>
      <trkpt lat="38.8715890" lon="1.3433990">
        <ele>3.8</ele>
        <time>2020-02-21T10:54:52Z</time>
      </trkpt>
      <trkpt lat="38.8716030" lon="1.3433950">
        <ele>4.0</ele>
        <time>2020-02-21T10:54:53Z</time>
      </trkpt>
      <trkpt lat="38.8716380" lon="1.3433900">
        <ele>4.2</ele>
        <time>2020-02-21T10:54:54Z</time>
      </trkpt>
      <trkpt lat="38.8716490" lon="1.3433880">
        <ele>4.2</ele>
        <time>2020-02-21T10:54:55Z</time>
      </trkpt>
      <trkpt lat="38.8716640" lon="1.3433880">
        <ele>4.5</ele>
        <time>2020-02-21T10:54:56Z</time>
      </trkpt>
      <trkpt lat="38.8716830" lon="1.3433930">
        <ele>4.5</ele>
        <time>2020-02-21T10:54:57Z</time>
      </trkpt>
      <trkpt lat="38.8717050" lon="1.3433880">
        <ele>4.5</ele>
        <time>2020-02-21T10:54:58Z</time>
      </trkpt>
      <trkpt lat="38.8717120" lon="1.3433790">
        <ele>4.5</ele>
        <time>2020-02-21T10:54:59Z</time>
      </trkpt>
      <trkpt lat="38.8717190" lon="1.3433700">
        <ele>4.5</ele>
        <time>2020-02-21T10:55:00Z</time>
      </trkpt>
      <trkpt lat="38.8717200" lon="1.3433310">
        <ele>4.5</ele>
        <time>2020-02-21T10:55:01Z</time>
      </trkpt>
      <trkpt lat="38.8717160" lon="1.3432870">
        <ele>4.5</ele>
        <time>2020-02-21T10:55:02Z</time>
      </trkpt>
      <trkpt lat="38.8717140" lon="1.3432370">
        <ele>4.5</ele>
        <time>2020-02-21T10:55:03Z</time>
      </trkpt>
      <trkpt lat="38.8717130" lon="1.3431930">
        <ele>4.5</ele>
        <time>2020-02-21T10:55:04Z</time>
      </trkpt>
      <trkpt lat="38.8717070" lon="1.3431540">
        <ele>4.5</ele>
        <time>2020-02-21T10:55:05Z</time>
      </trkpt>
      <trkpt lat="38.8717020" lon="1.3430990">
        <ele>4.5</ele>
        <time>2020-02-21T10:55:06Z</time>
      </trkpt>
      <trkpt lat="38.8717030" lon="1.3430560">
        <ele>4.5</ele>
        <time>2020-02-21T10:55:07Z</time>
      </trkpt>
      <trkpt lat="38.8717000" lon="1.3430160">
        <ele>4.6</ele>
        <time>2020-02-21T10:55:08Z</time>
      </trkpt>
      <trkpt lat="38.8716970" lon="1.3429740">
        <ele>4.7</ele>
        <time>2020-02-21T10:55:09Z</time>
      </trkpt>
      <trkpt lat="38.8716970" lon="1.3429320">
        <ele>4.7</ele>
        <time>2020-02-21T10:55:10Z</time>
      </trkpt>
      <trkpt lat="38.8716960" lon="1.3428870">
        <ele>4.8</ele>
        <time>2020-02-21T10:55:11Z</time>
      </trkpt>
      <trkpt lat="38.8717000" lon="1.3428430">
        <ele>4.9</ele>
        <time>2020-02-21T10:55:12Z</time>
      </trkpt>
      <trkpt lat="38.8716970" lon="1.3427970">
        <ele>4.9</ele>
        <time>2020-02-21T10:55:13Z</time>
      </trkpt>
      <trkpt lat="38.8716940" lon="1.3427500">
        <ele>5.0</ele>
        <time>2020-02-21T10:55:14Z</time>
      </trkpt>
      <trkpt lat="38.8716930" lon="1.3427030">
        <ele>5.0</ele>
        <time>2020-02-21T10:55:15Z</time>
      </trkpt>
      <trkpt lat="38.8716890" lon="1.3426610">
        <ele>5.1</ele>
        <time>2020-02-21T10:55:16Z</time>
      </trkpt>
      <trkpt lat="38.8716880" lon="1.3426190">
        <ele>5.1</ele>
        <time>2020-02-21T10:55:17Z</time>
      </trkpt>
      <trkpt lat="38.8716840" lon="1.3425670">
        <ele>5.2</ele>
        <time>2020-02-21T10:55:18Z</time>
      </trkpt>
      <trkpt lat="38.8716800" lon="1.3425180">
        <ele>5.2</ele>
        <time>2020-02-21T10:55:19Z</time>
      </trkpt>
      <trkpt lat="38.8716670" lon="1.3424590">
        <ele>5.3</ele>
        <time>2020-02-21T10:55:20Z</time>
      </trkpt>
      <trkpt lat="38.8716630" lon="1.3424130">
        <ele>5.3</ele>
        <time>2020-02-21T10:55:21Z</time>
      </trkpt>
      <trkpt lat="38.8716600" lon="1.3423670">
        <ele>5.4</ele>
        <time>2020-02-21T10:55:22Z</time>
      </trkpt>
      <trkpt lat="38.8716540" lon="1.3423170">
        <ele>5.4</ele>
        <time>2020-02-21T10:55:23Z</time>
      </trkpt>
      <trkpt lat="38.8716510" lon="1.3422690">
        <ele>5.4</ele>
        <time>2020-02-21T10:55:24Z</time>
      </trkpt>
      <trkpt lat="38.8716480" lon="1.3422180">
        <ele>5.5</ele>
        <time>2020-02-21T10:55:25Z</time>
      </trkpt>
      <trkpt lat="38.8716460" lon="1.3421650">
        <ele>5.5</ele>
        <time>2020-02-21T10:55:26Z</time>
      </trkpt>
      <trkpt lat="38.8716400" lon="1.3421250">
        <ele>5.5</ele>
        <time>2020-02-21T10:55:27Z</time>
      </trkpt>
      <trkpt lat="38.8716330" lon="1.3420830">
        <ele>5.6</ele>
        <time>2020-02-21T10:55:28Z</time>
      </trkpt>
      <trkpt lat="38.8716200" lon="1.3420420">
        <ele>5.6</ele>
        <time>2020-02-21T10:55:29Z</time>
      </trkpt>
      <trkpt lat="38.8716040" lon="1.3419990">
        <ele>5.6</ele>
        <time>2020-02-21T10:55:30Z</time>
      </trkpt>
      <trkpt lat="38.8715910" lon="1.3419630">
        <ele>5.7</ele>
        <time>2020-02-21T10:55:31Z</time>
      </trkpt>
      <trkpt lat="38.8715830" lon="1.3419210">
        <ele>5.7</ele>
        <time>2020-02-21T10:55:32Z</time>
      </trkpt>
      <trkpt lat="38.8715720" lon="1.3418770">
        <ele>5.8</ele>
        <time>2020-02-21T10:55:33Z</time>
      </trkpt>
      <trkpt lat="38.8715560" lon="1.3418150">
        <ele>5.9</ele>
        <time>2020-02-21T10:55:34Z</time>
      </trkpt>
      <trkpt lat="38.8715510" lon="1.3417840">
        <ele>6.0</ele>
        <time>2020-02-21T10:55:35Z</time>
      </trkpt>
      <trkpt lat="38.8715360" lon="1.3417400">
        <ele>6.1</ele>
        <time>2020-02-21T10:55:36Z</time>
      </trkpt>
      <trkpt lat="38.8715330" lon="1.3416870">
        <ele>6.2</ele>
        <time>2020-02-21T10:55:37Z</time>
      </trkpt>
      <trkpt lat="38.8715140" lon="1.3416570">
        <ele>6.2</ele>
        <time>2020-02-21T10:55:38Z</time>
      </trkpt>
      <trkpt lat="38.8714990" lon="1.3416080">
        <ele>6.4</ele>
        <time>2020-02-21T10:55:39Z</time>
      </trkpt>
      <trkpt lat="38.8714920" lon="1.3415890">
        <ele>6.4</ele>
        <time>2020-02-21T10:55:40Z</time>
      </trkpt>
      <trkpt lat="38.8714800" lon="1.3415390">
        <ele>6.5</ele>
        <time>2020-02-21T10:55:41Z</time>
      </trkpt>
      <trkpt lat="38.8714670" lon="1.3414950">
        <ele>6.6</ele>
        <time>2020-02-21T10:55:42Z</time>
      </trkpt>
      <trkpt lat="38.8714490" lon="1.3414500">
        <ele>6.8</ele>
        <time>2020-02-21T10:55:43Z</time>
      </trkpt>
      <trkpt lat="38.8714320" lon="1.3414150">
        <ele>6.9</ele>
        <time>2020-02-21T10:55:44Z</time>
      </trkpt>
      <trkpt lat="38.8714140" lon="1.3413870">
        <ele>7.0</ele>
        <time>2020-02-21T10:55:45Z</time>
      </trkpt>
      <trkpt lat="38.8714030" lon="1.3413440">
        <ele>7.2</ele>
        <time>2020-02-21T10:55:46Z</time>
      </trkpt>
      <trkpt lat="38.8713880" lon="1.3413030">
        <ele>7.4</ele>
        <time>2020-02-21T10:55:47Z</time>
      </trkpt>
      <trkpt lat="38.8713790" lon="1.3412610">
        <ele>7.4</ele>
        <time>2020-02-21T10:55:48Z</time>
      </trkpt>
      <trkpt lat="38.8713670" lon="1.3412080">
        <ele>7.6</ele>
        <time>2020-02-21T10:55:49Z</time>
      </trkpt>
      <trkpt lat="38.8713520" lon="1.3411680">
        <ele>7.7</ele>
        <time>2020-02-21T10:55:50Z</time>
      </trkpt>
      <trkpt lat="38.8713360" lon="1.3411220">
        <ele>7.8</ele>
        <time>2020-02-21T10:55:51Z</time>
      </trkpt>
      <trkpt lat="38.8713210" lon="1.3410770">
        <ele>7.9</ele>
        <time>2020-02-21T10:55:52Z</time>
      </trkpt>
      <trkpt lat="38.8713020" lon="1.3410360">
        <ele>8.0</ele>
        <time>2020-02-21T10:55:53Z</time>
      </trkpt>
      <trkpt lat="38.8712860" lon="1.3410000">
        <ele>8.1</ele>
        <time>2020-02-21T10:55:54Z</time>
      </trkpt>
      <trkpt lat="38.8712750" lon="1.3409640">
        <ele>8.1</ele>
        <time>2020-02-21T10:55:55Z</time>
      </trkpt>
      <trkpt lat="38.8712650" lon="1.3409260">
        <ele>8.2</ele>
        <time>2020-02-21T10:55:56Z</time>
      </trkpt>
      <trkpt lat="38.8712510" lon="1.3408860">
        <ele>8.3</ele>
        <time>2020-02-21T10:55:57Z</time>
      </trkpt>
      <trkpt lat="38.8712340" lon="1.3408360">
        <ele>8.4</ele>
        <time>2020-02-21T10:55:58Z</time>
      </trkpt>
      <trkpt lat="38.8712170" lon="1.3407990">
        <ele>8.5</ele>
        <time>2020-02-21T10:55:59Z</time>
      </trkpt>
      <trkpt lat="38.8712000" lon="1.3407690">
        <ele>8.6</ele>
        <time>2020-02-21T10:56:00Z</time>
      </trkpt>
      <trkpt lat="38.8711750" lon="1.3407400">
        <ele>8.7</ele>
        <time>2020-02-21T10:56:01Z</time>
      </trkpt>
      <trkpt lat="38.8711450" lon="1.3407080">
        <ele>8.8</ele>
        <time>2020-02-21T10:56:02Z</time>
      </trkpt>
      <trkpt lat="38.8711180" lon="1.3406840">
        <ele>8.9</ele>
        <time>2020-02-21T10:56:03Z</time>
      </trkpt>
      <trkpt lat="38.8710930" lon="1.3406610">
        <ele>9.0</ele>
        <time>2020-02-21T10:56:04Z</time>
      </trkpt>
      <trkpt lat="38.8710650" lon="1.3406240">
        <ele>9.1</ele>
        <time>2020-02-21T10:56:05Z</time>
      </trkpt>
      <trkpt lat="38.8710320" lon="1.3406070">
        <ele>9.2</ele>
        <time>2020-02-21T10:56:06Z</time>
      </trkpt>
      <trkpt lat="38.8709980" lon="1.3405830">
        <ele>9.3</ele>
        <time>2020-02-21T10:56:07Z</time>
      </trkpt>
      <trkpt lat="38.8709630" lon="1.3405430">
        <ele>9.3</ele>
        <time>2020-02-21T10:56:08Z</time>
      </trkpt>
      <trkpt lat="38.8709180" lon="1.3405150">
        <ele>9.4</ele>
        <time>2020-02-21T10:56:09Z</time>
      </trkpt>
      <trkpt lat="38.8708740" lon="1.3404850">
        <ele>9.4</ele>
        <time>2020-02-21T10:56:10Z</time>
      </trkpt>
      <trkpt lat="38.8708360" lon="1.3404550">
        <ele>9.4</ele>
        <time>2020-02-21T10:56:11Z</time>
      </trkpt>
      <trkpt lat="38.8707960" lon="1.3404320">
        <ele>9.4</ele>
        <time>2020-02-21T10:56:12Z</time>
      </trkpt>
      <trkpt lat="38.8707670" lon="1.3404030">
        <ele>9.5</ele>
        <time>2020-02-21T10:56:13Z</time>
      </trkpt>
      <trkpt lat="38.8707290" lon="1.3403780">
        <ele>9.5</ele>
        <time>2020-02-21T10:56:14Z</time>
      </trkpt>
      <trkpt lat="38.8706900" lon="1.3403530">
        <ele>9.5</ele>
        <time>2020-02-21T10:56:15Z</time>
      </trkpt>
      <trkpt lat="38.8706560" lon="1.3403260">
        <ele>9.5</ele>
        <time>2020-02-21T10:56:16Z</time>
      </trkpt>
      <trkpt lat="38.8706140" lon="1.3402930">
        <ele>9.5</ele>
        <time>2020-02-21T10:56:17Z</time>
      </trkpt>
      <trkpt lat="38.8705760" lon="1.3402340">
        <ele>9.5</ele>
        <time>2020-02-21T10:56:18Z</time>
      </trkpt>
      <trkpt lat="38.8705350" lon="1.3401980">
        <ele>9.5</ele>
        <time>2020-02-21T10:56:19Z</time>
      </trkpt>
      <trkpt lat="38.8704940" lon="1.3401600">
        <ele>9.5</ele>
        <time>2020-02-21T10:56:20Z</time>
      </trkpt>
      <trkpt lat="38.8704520" lon="1.3401240">
        <ele>9.5</ele>
        <time>2020-02-21T10:56:21Z</time>
      </trkpt>
      <trkpt lat="38.8704170" lon="1.3400820">
        <ele>9.5</ele>
        <time>2020-02-21T10:56:22Z</time>
      </trkpt>
      <trkpt lat="38.8703870" lon="1.3400500">
        <ele>9.5</ele>
        <time>2020-02-21T10:56:23Z</time>
      </trkpt>
      <trkpt lat="38.8703570" lon="1.3400140">
        <ele>9.5</ele>
        <time>2020-02-21T10:56:24Z</time>
      </trkpt>
      <trkpt lat="38.8703260" lon="1.3399710">
        <ele>9.5</ele>
        <time>2020-02-21T10:56:25Z</time>
      </trkpt>
      <trkpt lat="38.8702920" lon="1.3399250">
        <ele>9.5</ele>
        <time>2020-02-21T10:56:26Z</time>
      </trkpt>
      <trkpt lat="38.8702550" lon="1.3398820">
        <ele>9.5</ele>
        <time>2020-02-21T10:56:27Z</time>
      </trkpt>
      <trkpt lat="38.8702200" lon="1.3398330">
        <ele>9.5</ele>
        <time>2020-02-21T10:56:28Z</time>
      </trkpt>
      <trkpt lat="38.8701820" lon="1.3397990">
        <ele>9.5</ele>
        <time>2020-02-21T10:56:29Z</time>
      </trkpt>
      <trkpt lat="38.8701450" lon="1.3397600">
        <ele>9.5</ele>
        <time>2020-02-21T10:56:30Z</time>
      </trkpt>
      <trkpt lat="38.8701130" lon="1.3397180">
        <ele>9.5</ele>
        <time>2020-02-21T10:56:31Z</time>
      </trkpt>
      <trkpt lat="38.8700800" lon="1.3396750">
        <ele>9.5</ele>
        <time>2020-02-21T10:56:32Z</time>
      </trkpt>
      <trkpt lat="38.8700480" lon="1.3396360">
        <ele>9.5</ele>
        <time>2020-02-21T10:56:33Z</time>
      </trkpt>
      <trkpt lat="38.8700150" lon="1.3395970">
        <ele>9.5</ele>
        <time>2020-02-21T10:56:34Z</time>
      </trkpt>
      <trkpt lat="38.8699870" lon="1.3395590">
        <ele>9.5</ele>
        <time>2020-02-21T10:56:35Z</time>
      </trkpt>
      <trkpt lat="38.8699620" lon="1.3395200">
        <ele>9.5</ele>
        <time>2020-02-21T10:56:36Z</time>
      </trkpt>
      <trkpt lat="38.8699310" lon="1.3394900">
        <ele>9.5</ele>
        <time>2020-02-21T10:56:37Z</time>
      </trkpt>
      <trkpt lat="38.8698970" lon="1.3394500">
        <ele>9.5</ele>
        <time>2020-02-21T10:56:38Z</time>
      </trkpt>
      <trkpt lat="38.8698630" lon="1.3394030">
        <ele>9.6</ele>
        <time>2020-02-21T10:56:39Z</time>
      </trkpt>
      <trkpt lat="38.8698140" lon="1.3393670">
        <ele>9.6</ele>
        <time>2020-02-21T10:56:40Z</time>
      </trkpt>
      <trkpt lat="38.8697770" lon="1.3393310">
        <ele>9.6</ele>
        <time>2020-02-21T10:56:41Z</time>
      </trkpt>
      <trkpt lat="38.8697400" lon="1.3392910">
        <ele>9.5</ele>
        <time>2020-02-21T10:56:42Z</time>
      </trkpt>
      <trkpt lat="38.8697040" lon="1.3392480">
        <ele>9.5</ele>
        <time>2020-02-21T10:56:43Z</time>
      </trkpt>
      <trkpt lat="38.8696660" lon="1.3392010">
        <ele>9.5</ele>
        <time>2020-02-21T10:56:44Z</time>
      </trkpt>
      <trkpt lat="38.8696300" lon="1.3391520">
        <ele>9.4</ele>
        <time>2020-02-21T10:56:45Z</time>
      </trkpt>
      <trkpt lat="38.8695900" lon="1.3390970">
        <ele>9.3</ele>
        <time>2020-02-21T10:56:46Z</time>
      </trkpt>
      <trkpt lat="38.8695580" lon="1.3390460">
        <ele>9.1</ele>
        <time>2020-02-21T10:56:47Z</time>
      </trkpt>
      <trkpt lat="38.8695250" lon="1.3389920">
        <ele>9.0</ele>
        <time>2020-02-21T10:56:48Z</time>
      </trkpt>
      <trkpt lat="38.8694880" lon="1.3389520">
        <ele>8.9</ele>
        <time>2020-02-21T10:56:49Z</time>
      </trkpt>
      <trkpt lat="38.8694630" lon="1.3388810">
        <ele>8.8</ele>
        <time>2020-02-21T10:56:50Z</time>
      </trkpt>
      <trkpt lat="38.8694470" lon="1.3388070">
        <ele>8.7</ele>
        <time>2020-02-21T10:56:51Z</time>
      </trkpt>
      <trkpt lat="38.8694270" lon="1.3387400">
        <ele>8.7</ele>
        <time>2020-02-21T10:56:52Z</time>
      </trkpt>
      <trkpt lat="38.8694090" lon="1.3386790">
        <ele>8.7</ele>
        <time>2020-02-21T10:56:53Z</time>
      </trkpt>
      <trkpt lat="38.8693870" lon="1.3386110">
        <ele>8.6</ele>
        <time>2020-02-21T10:56:54Z</time>
      </trkpt>
      <trkpt lat="38.8693700" lon="1.3385540">
        <ele>8.6</ele>
        <time>2020-02-21T10:56:55Z</time>
      </trkpt>
      <trkpt lat="38.8693470" lon="1.3384800">
        <ele>8.6</ele>
        <time>2020-02-21T10:56:56Z</time>
      </trkpt>
      <trkpt lat="38.8693340" lon="1.3384050">
        <ele>8.6</ele>
        <time>2020-02-21T10:56:57Z</time>
      </trkpt>
      <trkpt lat="38.8693230" lon="1.3383280">
        <ele>8.6</ele>
        <time>2020-02-21T10:56:58Z</time>
      </trkpt>
      <trkpt lat="38.8693200" lon="1.3382650">
        <ele>8.6</ele>
        <time>2020-02-21T10:56:59Z</time>
      </trkpt>
      <trkpt lat="38.8693150" lon="1.3381930">
        <ele>8.7</ele>
        <time>2020-02-21T10:57:00Z</time>
      </trkpt>
      <trkpt lat="38.8693150" lon="1.3381370">
        <ele>8.7</ele>
        <time>2020-02-21T10:57:01Z</time>
      </trkpt>
      <trkpt lat="38.8693190" lon="1.3380830">
        <ele>8.7</ele>
        <time>2020-02-21T10:57:02Z</time>
      </trkpt>
      <trkpt lat="38.8693240" lon="1.3380270">
        <ele>8.7</ele>
        <time>2020-02-21T10:57:03Z</time>
      </trkpt>
      <trkpt lat="38.8693190" lon="1.3379820">
        <ele>8.7</ele>
        <time>2020-02-21T10:57:04Z</time>
      </trkpt>
      <trkpt lat="38.8693170" lon="1.3379280">
        <ele>8.7</ele>
        <time>2020-02-21T10:57:05Z</time>
      </trkpt>
      <trkpt lat="38.8693200" lon="1.3379010">
        <ele>8.7</ele>
        <time>2020-02-21T10:57:06Z</time>
      </trkpt>
      <trkpt lat="38.8693250" lon="1.3378490">
        <ele>8.7</ele>
        <time>2020-02-21T10:57:07Z</time>
      </trkpt>
      <trkpt lat="38.8693250" lon="1.3378050">
        <ele>8.7</ele>
        <time>2020-02-21T10:57:08Z</time>
      </trkpt>
      <trkpt lat="38.8693290" lon="1.3377600">
        <ele>8.7</ele>
        <time>2020-02-21T10:57:09Z</time>
      </trkpt>
      <trkpt lat="38.8693310" lon="1.3377150">
        <ele>8.7</ele>
        <time>2020-02-21T10:57:10Z</time>
      </trkpt>
      <trkpt lat="38.8693320" lon="1.3376620">
        <ele>8.8</ele>
        <time>2020-02-21T10:57:11Z</time>
      </trkpt>
      <trkpt lat="38.8693320" lon="1.3376160">
        <ele>8.8</ele>
        <time>2020-02-21T10:57:12Z</time>
      </trkpt>
      <trkpt lat="38.8693210" lon="1.3375580">
        <ele>8.9</ele>
        <time>2020-02-21T10:57:13Z</time>
      </trkpt>
      <trkpt lat="38.8693160" lon="1.3375130">
        <ele>9.0</ele>
        <time>2020-02-21T10:57:14Z</time>
      </trkpt>
      <trkpt lat="38.8693070" lon="1.3374700">
        <ele>9.1</ele>
        <time>2020-02-21T10:57:15Z</time>
      </trkpt>
      <trkpt lat="38.8693020" lon="1.3374210">
        <ele>9.2</ele>
        <time>2020-02-21T10:57:16Z</time>
      </trkpt>
      <trkpt lat="38.8692870" lon="1.3373780">
        <ele>9.4</ele>
        <time>2020-02-21T10:57:17Z</time>
      </trkpt>
      <trkpt lat="38.8692660" lon="1.3373320">
        <ele>9.6</ele>
        <time>2020-02-21T10:57:18Z</time>
      </trkpt>
      <trkpt lat="38.8692420" lon="1.3372880">
        <ele>9.7</ele>
        <time>2020-02-21T10:57:19Z</time>
      </trkpt>
      <trkpt lat="38.8692200" lon="1.3372480">
        <ele>9.9</ele>
        <time>2020-02-21T10:57:20Z</time>
      </trkpt>
      <trkpt lat="38.8691950" lon="1.3372090">
        <ele>10.1</ele>
        <time>2020-02-21T10:57:21Z</time>
      </trkpt>
      <trkpt lat="38.8691760" lon="1.3371630">
        <ele>10.2</ele>
        <time>2020-02-21T10:57:22Z</time>
      </trkpt>
      <trkpt lat="38.8691490" lon="1.3371150">
        <ele>10.4</ele>
        <time>2020-02-21T10:57:23Z</time>
      </trkpt>
      <trkpt lat="38.8691240" lon="1.3370730">
        <ele>10.5</ele>
        <time>2020-02-21T10:57:24Z</time>
      </trkpt>
      <trkpt lat="38.8691070" lon="1.3370360">
        <ele>10.6</ele>
        <time>2020-02-21T10:57:25Z</time>
      </trkpt>
      <trkpt lat="38.8690880" lon="1.3369760">
        <ele>10.7</ele>
        <time>2020-02-21T10:57:26Z</time>
      </trkpt>
      <trkpt lat="38.8690750" lon="1.3369310">
        <ele>10.8</ele>
        <time>2020-02-21T10:57:27Z</time>
      </trkpt>
      <trkpt lat="38.8690650" lon="1.3368890">
        <ele>10.9</ele>
        <time>2020-02-21T10:57:28Z</time>
      </trkpt>
      <trkpt lat="38.8690560" lon="1.3368430">
        <ele>11.0</ele>
        <time>2020-02-21T10:57:29Z</time>
      </trkpt>
      <trkpt lat="38.8690490" lon="1.3367980">
        <ele>11.1</ele>
        <time>2020-02-21T10:57:30Z</time>
      </trkpt>
      <trkpt lat="38.8690430" lon="1.3367320">
        <ele>11.2</ele>
        <time>2020-02-21T10:57:31Z</time>
      </trkpt>
      <trkpt lat="38.8690450" lon="1.3366790">
        <ele>11.3</ele>
        <time>2020-02-21T10:57:32Z</time>
      </trkpt>
      <trkpt lat="38.8690450" lon="1.3366220">
        <ele>11.4</ele>
        <time>2020-02-21T10:57:33Z</time>
      </trkpt>
      <trkpt lat="38.8690450" lon="1.3365620">
        <ele>11.6</ele>
        <time>2020-02-21T10:57:34Z</time>
      </trkpt>
      <trkpt lat="38.8690490" lon="1.3364990">
        <ele>11.7</ele>
        <time>2020-02-21T10:57:35Z</time>
      </trkpt>
      <trkpt lat="38.8690540" lon="1.3364350">
        <ele>11.7</ele>
        <time>2020-02-21T10:57:36Z</time>
      </trkpt>
      <trkpt lat="38.8690580" lon="1.3363790">
        <ele>11.7</ele>
        <time>2020-02-21T10:57:37Z</time>
      </trkpt>
      <trkpt lat="38.8690570" lon="1.3363190">
        <ele>11.8</ele>
        <time>2020-02-21T10:57:38Z</time>
      </trkpt>
      <trkpt lat="38.8690620" lon="1.3362650">
        <ele>11.8</ele>
        <time>2020-02-21T10:57:39Z</time>
      </trkpt>
      <trkpt lat="38.8690680" lon="1.3362110">
        <ele>11.8</ele>
        <time>2020-02-21T10:57:40Z</time>
      </trkpt>
      <trkpt lat="38.8690800" lon="1.3361630">
        <ele>11.8</ele>
        <time>2020-02-21T10:57:41Z</time>
      </trkpt>
      <trkpt lat="38.8690910" lon="1.3361140">
        <ele>11.8</ele>
        <time>2020-02-21T10:57:42Z</time>
      </trkpt>
      <trkpt lat="38.8691010" lon="1.3360720">
        <ele>11.8</ele>
        <time>2020-02-21T10:57:43Z</time>
      </trkpt>
      <trkpt lat="38.8691110" lon="1.3360320">
        <ele>11.8</ele>
        <time>2020-02-21T10:57:44Z</time>
      </trkpt>
      <trkpt lat="38.8691220" lon="1.3359870">
        <ele>11.8</ele>
        <time>2020-02-21T10:57:45Z</time>
      </trkpt>
      <trkpt lat="38.8691400" lon="1.3359440">
        <ele>11.8</ele>
        <time>2020-02-21T10:57:46Z</time>
      </trkpt>
      <trkpt lat="38.8691510" lon="1.3359000">
        <ele>11.8</ele>
        <time>2020-02-21T10:57:47Z</time>
      </trkpt>
      <trkpt lat="38.8691750" lon="1.3358440">
        <ele>11.9</ele>
        <time>2020-02-21T10:57:48Z</time>
      </trkpt>
      <trkpt lat="38.8691860" lon="1.3357960">
        <ele>11.9</ele>
        <time>2020-02-21T10:57:49Z</time>
      </trkpt>
      <trkpt lat="38.8691980" lon="1.3357500">
        <ele>11.9</ele>
        <time>2020-02-21T10:57:50Z</time>
      </trkpt>
      <trkpt lat="38.8692010" lon="1.3357120">
        <ele>11.9</ele>
        <time>2020-02-21T10:57:51Z</time>
      </trkpt>
      <trkpt lat="38.8691750" lon="1.3356750">
        <ele>11.5</ele>
        <time>2020-02-21T10:57:52Z</time>
      </trkpt>
      <trkpt lat="38.8691580" lon="1.3356670">
        <ele>11.5</ele>
        <time>2020-02-21T10:57:53Z</time>
      </trkpt>
      <trkpt lat="38.8691220" lon="1.3356260">
        <ele>11.0</ele>
        <time>2020-02-21T10:57:54Z</time>
      </trkpt>
      <trkpt lat="38.8690990" lon="1.3355920">
        <ele>10.5</ele>
        <time>2020-02-21T10:57:55Z</time>
      </trkpt>
      <trkpt lat="38.8690740" lon="1.3355640">
        <ele>10.0</ele>
        <time>2020-02-21T10:57:56Z</time>
      </trkpt>
      <trkpt lat="38.8690620" lon="1.3355550">
        <ele>10.1</ele>
        <time>2020-02-21T10:57:57Z</time>
      </trkpt>
      <trkpt lat="38.8690540" lon="1.3355540">
        <ele>10.2</ele>
        <time>2020-02-21T10:57:58Z</time>
      </trkpt>
      <trkpt lat="38.8690400" lon="1.3355500">
        <ele>9.9</ele>
        <time>2020-02-21T10:57:59Z</time>
      </trkpt>
      <trkpt lat="38.8690290" lon="1.3355440">
        <ele>10.0</ele>
        <time>2020-02-21T10:58:00Z</time>
      </trkpt>
      <trkpt lat="38.8690150" lon="1.3355330">
        <ele>9.8</ele>
        <time>2020-02-21T10:58:01Z</time>
      </trkpt>
      <trkpt lat="38.8690100" lon="1.3355300">
        <ele>9.9</ele>
        <time>2020-02-21T10:58:02Z</time>
      </trkpt>
      <trkpt lat="38.8690100" lon="1.3355290">
        <ele>10.0</ele>
        <time>2020-02-21T10:58:03Z</time>
      </trkpt>
      <trkpt lat="38.8690090" lon="1.3355280">
        <ele>10.1</ele>
        <time>2020-02-21T10:58:04Z</time>
      </trkpt>
      <trkpt lat="38.8690090" lon="1.3355270">
        <ele>10.2</ele>
        <time>2020-02-21T10:58:05Z</time>
      </trkpt>
      <trkpt lat="38.8690080" lon="1.3355270">
        <ele>10.2</ele>
        <time>2020-02-21T10:58:06Z</time>
      </trkpt>
      <trkpt lat="38.8690070" lon="1.3355270">
        <ele>10.3</ele>
        <time>2020-02-21T10:58:07Z</time>
      </trkpt>
      <trkpt lat="38.8690060" lon="1.3355260">
        <ele>10.4</ele>
        <time>2020-02-21T10:58:08Z</time>
      </trkpt>
      <trkpt lat="38.8689960" lon="1.3355300">
        <ele>10.5</ele>
        <time>2020-02-21T10:58:09Z</time>
      </trkpt>
      <trkpt lat="38.8689880" lon="1.3355210">
        <ele>10.5</ele>
        <time>2020-02-21T10:58:10Z</time>
      </trkpt>
      <trkpt lat="38.8689750" lon="1.3355200">
        <ele>10.4</ele>
        <time>2020-02-21T10:58:11Z</time>
      </trkpt>
      <trkpt lat="38.8689670" lon="1.3355190">
        <ele>10.5</ele>
        <time>2020-02-21T10:58:12Z</time>
      </trkpt>
      <trkpt lat="38.8689580" lon="1.3355190">
        <ele>10.6</ele>
        <time>2020-02-21T10:58:13Z</time>
      </trkpt>
      <trkpt lat="38.8689500" lon="1.3355190">
        <ele>10.5</ele>
        <time>2020-02-21T10:58:14Z</time>
      </trkpt>
      <trkpt lat="38.8689440" lon="1.3355190">
        <ele>10.6</ele>
        <time>2020-02-21T10:58:15Z</time>
      </trkpt>
      <trkpt lat="38.8689430" lon="1.3355220">
        <ele>10.7</ele>
        <time>2020-02-21T10:58:16Z</time>
      </trkpt>
      <trkpt lat="38.8689370" lon="1.3355160">
        <ele>10.8</ele>
        <time>2020-02-21T10:58:17Z</time>
      </trkpt>
      <trkpt lat="38.8689260" lon="1.3355100">
        <ele>10.9</ele>
        <time>2020-02-21T10:58:18Z</time>
      </trkpt>
      <trkpt lat="38.8689240" lon="1.3355130">
        <ele>11.0</ele>
        <time>2020-02-21T10:58:19Z</time>
      </trkpt>
      <trkpt lat="38.8689160" lon="1.3355090">
        <ele>10.9</ele>
        <time>2020-02-21T10:58:20Z</time>
      </trkpt>
      <trkpt lat="38.8689110" lon="1.3355030">
        <ele>11.0</ele>
        <time>2020-02-21T10:58:21Z</time>
      </trkpt>
      <trkpt lat="38.8689100" lon="1.3355040">
        <ele>11.1</ele>
        <time>2020-02-21T10:58:22Z</time>
      </trkpt>
      <trkpt lat="38.8689060" lon="1.3355030">
        <ele>11.1</ele>
        <time>2020-02-21T10:58:23Z</time>
      </trkpt>
      <trkpt lat="38.8689030" lon="1.3355000">
        <ele>11.2</ele>
        <time>2020-02-21T10:58:24Z</time>
      </trkpt>
      <trkpt lat="38.8688930" lon="1.3354920">
        <ele>11.3</ele>
        <time>2020-02-21T10:58:25Z</time>
      </trkpt>
      <trkpt lat="38.8688880" lon="1.3355050">
        <ele>11.4</ele>
        <time>2020-02-21T10:58:26Z</time>
      </trkpt>
      <trkpt lat="38.8688920" lon="1.3355060">
        <ele>11.5</ele>
        <time>2020-02-21T10:58:27Z</time>
      </trkpt>
      <trkpt lat="38.8688830" lon="1.3354980">
        <ele>11.4</ele>
        <time>2020-02-21T10:58:28Z</time>
      </trkpt>
      <trkpt lat="38.8688810" lon="1.3354960">
        <ele>11.4</ele>
        <time>2020-02-21T10:58:29Z</time>
      </trkpt>
      <trkpt lat="38.8688800" lon="1.3354950">
        <ele>11.4</ele>
        <time>2020-02-21T10:58:30Z</time>
      </trkpt>
      <trkpt lat="38.8688790" lon="1.3354950">
        <ele>11.3</ele>
        <time>2020-02-21T10:58:31Z</time>
      </trkpt>
      <trkpt lat="38.8688790" lon="1.3354930">
        <ele>11.3</ele>
        <time>2020-02-21T10:58:32Z</time>
      </trkpt>
      <trkpt lat="38.8688780" lon="1.3354920">
        <ele>11.3</ele>
        <time>2020-02-21T10:58:33Z</time>
      </trkpt>
      <trkpt lat="38.8688770" lon="1.3354910">
        <ele>11.3</ele>
        <time>2020-02-21T10:58:34Z</time>
      </trkpt>
      <trkpt lat="38.8688750" lon="1.3354900">
        <ele>11.3</ele>
        <time>2020-02-21T10:58:35Z</time>
      </trkpt>
      <trkpt lat="38.8688750" lon="1.3354900">
        <ele>11.3</ele>
        <time>2020-02-21T10:58:36Z</time>
      </trkpt>
      <trkpt lat="38.8688280" lon="1.3354730">
        <ele>11.3</ele>
        <time>2020-02-21T10:59:26Z</time>
      </trkpt>
      <trkpt lat="38.8688220" lon="1.3354700">
        <ele>11.3</ele>
        <time>2020-02-21T10:59:27Z</time>
      </trkpt>
      <trkpt lat="38.8688140" lon="1.3354630">
        <ele>11.3</ele>
        <time>2020-02-21T10:59:28Z</time>
      </trkpt>
      <trkpt lat="38.8688110" lon="1.3354470">
        <ele>11.3</ele>
        <time>2020-02-21T10:59:29Z</time>
      </trkpt>
      <trkpt lat="38.8688130" lon="1.3354380">
        <ele>11.3</ele>
        <time>2020-02-21T10:59:30Z</time>
      </trkpt>
      <trkpt lat="38.8688150" lon="1.3354340">
        <ele>11.3</ele>
        <time>2020-02-21T10:59:31Z</time>
      </trkpt>
      <trkpt lat="38.8688140" lon="1.3354400">
        <ele>11.3</ele>
        <time>2020-02-21T10:59:32Z</time>
      </trkpt>
      <trkpt lat="38.8688180" lon="1.3354350">
        <ele>11.3</ele>
        <time>2020-02-21T10:59:33Z</time>
      </trkpt>
      <trkpt lat="38.8688100" lon="1.3354240">
        <ele>11.3</ele>
        <time>2020-02-21T10:59:34Z</time>
      </trkpt>
      <trkpt lat="38.8688100" lon="1.3354170">
        <ele>11.3</ele>
        <time>2020-02-21T10:59:35Z</time>
      </trkpt>
      <trkpt lat="38.8688110" lon="1.3354170">
        <ele>11.3</ele>
        <time>2020-02-21T10:59:36Z</time>
      </trkpt>
      <trkpt lat="38.8688110" lon="1.3354190">
        <ele>11.3</ele>
        <time>2020-02-21T10:59:37Z</time>
      </trkpt>
      <trkpt lat="38.8688120" lon="1.3354200">
        <ele>11.3</ele>
        <time>2020-02-21T10:59:38Z</time>
      </trkpt>
      <trkpt lat="38.8688200" lon="1.3354190">
        <ele>11.2</ele>
        <time>2020-02-21T10:59:39Z</time>
      </trkpt>
      <trkpt lat="38.8688300" lon="1.3354220">
        <ele>11.2</ele>
        <time>2020-02-21T10:59:40Z</time>
      </trkpt>
      <trkpt lat="38.8688440" lon="1.3354220">
        <ele>11.2</ele>
        <time>2020-02-21T10:59:41Z</time>
      </trkpt>
      <trkpt lat="38.8688430" lon="1.3354250">
        <ele>11.2</ele>
        <time>2020-02-21T10:59:42Z</time>
      </trkpt>
      <trkpt lat="38.8688450" lon="1.3354230">
        <ele>11.2</ele>
        <time>2020-02-21T10:59:43Z</time>
      </trkpt>
      <trkpt lat="38.8688440" lon="1.3354240">
        <ele>11.2</ele>
        <time>2020-02-21T10:59:44Z</time>
      </trkpt>
      <trkpt lat="38.8688440" lon="1.3354260">
        <ele>11.2</ele>
        <time>2020-02-21T10:59:45Z</time>
      </trkpt>
      <trkpt lat="38.8688470" lon="1.3354260">
        <ele>11.2</ele>
        <time>2020-02-21T10:59:46Z</time>
      </trkpt>
      <trkpt lat="38.8688480" lon="1.3354260">
        <ele>11.2</ele>
        <time>2020-02-21T10:59:47Z</time>
      </trkpt>
      <trkpt lat="38.8688490" lon="1.3354260">
        <ele>11.2</ele>
        <time>2020-02-21T10:59:48Z</time>
      </trkpt>
      <trkpt lat="38.8688500" lon="1.3354260">
        <ele>11.2</ele>
        <time>2020-02-21T10:59:49Z</time>
      </trkpt>
      <trkpt lat="38.8688500" lon="1.3354260">
        <ele>11.2</ele>
        <time>2020-02-21T10:59:50Z</time>
      </trkpt>
      <trkpt lat="38.8688480" lon="1.3354260">
        <ele>11.2</ele>
        <time>2020-02-21T10:59:51Z</time>
      </trkpt>
      <trkpt lat="38.8688890" lon="1.3353640">
        <ele>11.1</ele>
        <time>2020-02-21T11:00:12Z</time>
      </trkpt>
      <trkpt lat="38.8688920" lon="1.3353550">
        <ele>11.1</ele>
        <time>2020-02-21T11:00:13Z</time>
      </trkpt>
      <trkpt lat="38.8688940" lon="1.3353470">
        <ele>11.1</ele>
        <time>2020-02-21T11:00:14Z</time>
      </trkpt>
      <trkpt lat="38.8689010" lon="1.3353450">
        <ele>11.1</ele>
        <time>2020-02-21T11:00:15Z</time>
      </trkpt>
      <trkpt lat="38.8688990" lon="1.3353480">
        <ele>11.1</ele>
        <time>2020-02-21T11:00:16Z</time>
      </trkpt>
      <trkpt lat="38.8689060" lon="1.3353510">
        <ele>11.1</ele>
        <time>2020-02-21T11:00:17Z</time>
      </trkpt>
      <trkpt lat="38.8689160" lon="1.3353490">
        <ele>11.1</ele>
        <time>2020-02-21T11:00:18Z</time>
      </trkpt>
      <trkpt lat="38.8689300" lon="1.3353460">
        <ele>11.1</ele>
        <time>2020-02-21T11:00:19Z</time>
      </trkpt>
      <trkpt lat="38.8689560" lon="1.3353430">
        <ele>11.0</ele>
        <time>2020-02-21T11:00:20Z</time>
      </trkpt>
      <trkpt lat="38.8689590" lon="1.3353340">
        <ele>11.0</ele>
        <time>2020-02-21T11:00:21Z</time>
      </trkpt>
      <trkpt lat="38.8689630" lon="1.3353240">
        <ele>11.0</ele>
        <time>2020-02-21T11:00:22Z</time>
      </trkpt>
      <trkpt lat="38.8689660" lon="1.3353140">
        <ele>11.0</ele>
        <time>2020-02-21T11:00:23Z</time>
      </trkpt>
      <trkpt lat="38.8689700" lon="1.3353050">
        <ele>11.0</ele>
        <time>2020-02-21T11:00:24Z</time>
      </trkpt>
      <trkpt lat="38.8689730" lon="1.3352950">
        <ele>11.0</ele>
        <time>2020-02-21T11:00:25Z</time>
      </trkpt>
      <trkpt lat="38.8689770" lon="1.3352850">
        <ele>11.0</ele>
        <time>2020-02-21T11:00:26Z</time>
      </trkpt>
      <trkpt lat="38.8689800" lon="1.3352750">
        <ele>11.0</ele>
        <time>2020-02-21T11:00:27Z</time>
      </trkpt>
      <trkpt lat="38.8689840" lon="1.3352660">
        <ele>10.9</ele>
        <time>2020-02-21T11:00:28Z</time>
      </trkpt>
      <trkpt lat="38.8689870" lon="1.3352560">
        <ele>10.9</ele>
        <time>2020-02-21T11:00:29Z</time>
      </trkpt>
      <trkpt lat="38.8689910" lon="1.3352460">
        <ele>10.9</ele>
        <time>2020-02-21T11:00:30Z</time>
      </trkpt>
      <trkpt lat="38.8689940" lon="1.3352370">
        <ele>10.9</ele>
        <time>2020-02-21T11:00:58Z</time>
      </trkpt>
      <trkpt lat="38.8689980" lon="1.3352270">
        <ele>10.9</ele>
        <time>2020-02-21T11:00:59Z</time>
      </trkpt>
      <trkpt lat="38.8690060" lon="1.3351870">
        <ele>10.8</ele>
        <time>2020-02-21T11:01:00Z</time>
      </trkpt>
      <trkpt lat="38.8690050" lon="1.3351350">
        <ele>10.7</ele>
        <time>2020-02-21T11:01:01Z</time>
      </trkpt>
      <trkpt lat="38.8689940" lon="1.3350810">
        <ele>10.6</ele>
        <time>2020-02-21T11:01:02Z</time>
      </trkpt>
      <trkpt lat="38.8689930" lon="1.3350130">
        <ele>10.4</ele>
        <time>2020-02-21T11:01:03Z</time>
      </trkpt>
      <trkpt lat="38.8689940" lon="1.3349500">
        <ele>10.3</ele>
        <time>2020-02-21T11:01:04Z</time>
      </trkpt>
      <trkpt lat="38.8689960" lon="1.3349030">
        <ele>10.0</ele>
        <time>2020-02-21T11:01:05Z</time>
      </trkpt>
      <trkpt lat="38.8690040" lon="1.3348610">
        <ele>9.9</ele>
        <time>2020-02-21T11:01:06Z</time>
      </trkpt>
      <trkpt lat="38.8690060" lon="1.3348450">
        <ele>9.9</ele>
        <time>2020-02-21T11:01:07Z</time>
      </trkpt>
      <trkpt lat="38.8690070" lon="1.3348120">
        <ele>9.8</ele>
        <time>2020-02-21T11:01:08Z</time>
      </trkpt>
      <trkpt lat="38.8689990" lon="1.3348000">
        <ele>9.8</ele>
        <time>2020-02-21T11:01:09Z</time>
      </trkpt>
      <trkpt lat="38.8690060" lon="1.3347920">
        <ele>9.8</ele>
        <time>2020-02-21T11:01:10Z</time>
      </trkpt>
      <trkpt lat="38.8690090" lon="1.3347950">
        <ele>9.8</ele>
        <time>2020-02-21T11:01:11Z</time>
      </trkpt>
      <trkpt lat="38.8690160" lon="1.3347940">
        <ele>9.8</ele>
        <time>2020-02-21T11:01:12Z</time>
      </trkpt>
      <trkpt lat="38.8690190" lon="1.3347970">
        <ele>9.8</ele>
        <time>2020-02-21T11:01:13Z</time>
      </trkpt>
      <trkpt lat="38.8690240" lon="1.3347910">
        <ele>9.7</ele>
        <time>2020-02-21T11:01:14Z</time>
      </trkpt>
      <trkpt lat="38.8690230" lon="1.3347900">
        <ele>9.7</ele>
        <time>2020-02-21T11:01:15Z</time>
      </trkpt>
      <trkpt lat="38.8690230" lon="1.3347900">
        <ele>9.7</ele>
        <time>2020-02-21T11:01:16Z</time>
      </trkpt>
      <trkpt lat="38.8690230" lon="1.3347900">
        <ele>9.7</ele>
        <time>2020-02-21T11:01:17Z</time>
      </trkpt>
      <trkpt lat="38.8690210" lon="1.3347900">
        <ele>9.7</ele>
        <time>2020-02-21T11:01:18Z</time>
      </trkpt>
      <trkpt lat="38.8690230" lon="1.3347870">
        <ele>9.7</ele>
        <time>2020-02-21T11:01:19Z</time>
      </trkpt>
      <trkpt lat="38.8690150" lon="1.3347600">
        <ele>9.7</ele>
        <time>2020-02-21T11:01:21Z</time>
      </trkpt>
      <trkpt lat="38.8690050" lon="1.3347390">
        <ele>9.4</ele>
        <time>2020-02-21T11:01:22Z</time>
      </trkpt>
      <trkpt lat="38.8689790" lon="1.3347120">
        <ele>9.2</ele>
        <time>2020-02-21T11:01:23Z</time>
      </trkpt>
      <trkpt lat="38.8689500" lon="1.3347170">
        <ele>9.0</ele>
        <time>2020-02-21T11:01:24Z</time>
      </trkpt>
      <trkpt lat="38.8689160" lon="1.3347300">
        <ele>8.8</ele>
        <time>2020-02-21T11:01:25Z</time>
      </trkpt>
      <trkpt lat="38.8689060" lon="1.3347380">
        <ele>8.7</ele>
        <time>2020-02-21T11:01:26Z</time>
      </trkpt>
      <trkpt lat="38.8688810" lon="1.3347590">
        <ele>8.6</ele>
        <time>2020-02-21T11:01:27Z</time>
      </trkpt>
      <trkpt lat="38.8688730" lon="1.3347620">
        <ele>8.6</ele>
        <time>2020-02-21T11:01:28Z</time>
      </trkpt>
      <trkpt lat="38.8688400" lon="1.3347780">
        <ele>8.5</ele>
        <time>2020-02-21T11:01:29Z</time>
      </trkpt>
      <trkpt lat="38.8688230" lon="1.3347780">
        <ele>8.4</ele>
        <time>2020-02-21T11:01:30Z</time>
      </trkpt>
      <trkpt lat="38.8687850" lon="1.3347720">
        <ele>8.2</ele>
        <time>2020-02-21T11:01:31Z</time>
      </trkpt>
      <trkpt lat="38.8687560" lon="1.3347600">
        <ele>8.1</ele>
        <time>2020-02-21T11:01:32Z</time>
      </trkpt>
      <trkpt lat="38.8687320" lon="1.3347290">
        <ele>8.0</ele>
        <time>2020-02-21T11:01:33Z</time>
      </trkpt>
      <trkpt lat="38.8687070" lon="1.3346960">
        <ele>7.9</ele>
        <time>2020-02-21T11:01:34Z</time>
      </trkpt>
      <trkpt lat="38.8686860" lon="1.3346700">
        <ele>7.8</ele>
        <time>2020-02-21T11:01:35Z</time>
      </trkpt>
      <trkpt lat="38.8686590" lon="1.3346440">
        <ele>7.6</ele>
        <time>2020-02-21T11:01:36Z</time>
      </trkpt>
      <trkpt lat="38.8686510" lon="1.3346370">
        <ele>7.6</ele>
        <time>2020-02-21T11:01:37Z</time>
      </trkpt>
      <trkpt lat="38.8686320" lon="1.3346120">
        <ele>7.3</ele>
        <time>2020-02-21T11:01:38Z</time>
      </trkpt>
      <trkpt lat="38.8686230" lon="1.3346010">
        <ele>7.3</ele>
        <time>2020-02-21T11:01:39Z</time>
      </trkpt>
      <trkpt lat="38.8686030" lon="1.3345590">
        <ele>7.0</ele>
        <time>2020-02-21T11:01:40Z</time>
      </trkpt>
      <trkpt lat="38.8685930" lon="1.3345440">
        <ele>6.9</ele>
        <time>2020-02-21T11:01:41Z</time>
      </trkpt>
      <trkpt lat="38.8685920" lon="1.3345100">
        <ele>6.7</ele>
        <time>2020-02-21T11:01:42Z</time>
      </trkpt>
      <trkpt lat="38.8685830" lon="1.3345020">
        <ele>6.7</ele>
        <time>2020-02-21T11:01:43Z</time>
      </trkpt>
      <trkpt lat="38.8685680" lon="1.3345010">
        <ele>6.6</ele>
        <time>2020-02-21T11:01:44Z</time>
      </trkpt>
      <trkpt lat="38.8685480" lon="1.3344900">
        <ele>6.5</ele>
        <time>2020-02-21T11:01:45Z</time>
      </trkpt>
      <trkpt lat="38.8685100" lon="1.3344690">
        <ele>6.3</ele>
        <time>2020-02-21T11:01:46Z</time>
      </trkpt>
      <trkpt lat="38.8684940" lon="1.3344640">
        <ele>6.3</ele>
        <time>2020-02-21T11:01:47Z</time>
      </trkpt>
      <trkpt lat="38.8684650" lon="1.3344410">
        <ele>6.3</ele>
        <time>2020-02-21T11:01:48Z</time>
      </trkpt>
      <trkpt lat="38.8684440" lon="1.3344140">
        <ele>6.2</ele>
        <time>2020-02-21T11:01:49Z</time>
      </trkpt>
      <trkpt lat="38.8684380" lon="1.3343730">
        <ele>6.2</ele>
        <time>2020-02-21T11:01:50Z</time>
      </trkpt>
      <trkpt lat="38.8684360" lon="1.3343590">
        <ele>6.2</ele>
        <time>2020-02-21T11:01:51Z</time>
      </trkpt>
      <trkpt lat="38.8684410" lon="1.3343170">
        <ele>6.2</ele>
        <time>2020-02-21T11:01:52Z</time>
      </trkpt>
      <trkpt lat="38.8684380" lon="1.3343020">
        <ele>6.2</ele>
        <time>2020-02-21T11:01:53Z</time>
      </trkpt>
      <trkpt lat="38.8684340" lon="1.3342650">
        <ele>6.2</ele>
        <time>2020-02-21T11:01:54Z</time>
      </trkpt>
      <trkpt lat="38.8684300" lon="1.3342220">
        <ele>6.2</ele>
        <time>2020-02-21T11:01:55Z</time>
      </trkpt>
      <trkpt lat="38.8684290" lon="1.3342090">
        <ele>6.2</ele>
        <time>2020-02-21T11:01:56Z</time>
      </trkpt>
      <trkpt lat="38.8684170" lon="1.3341740">
        <ele>6.3</ele>
        <time>2020-02-21T11:01:57Z</time>
      </trkpt>
      <trkpt lat="38.8684130" lon="1.3341620">
        <ele>6.3</ele>
        <time>2020-02-21T11:01:58Z</time>
      </trkpt>
      <trkpt lat="38.8684010" lon="1.3341210">
        <ele>6.5</ele>
        <time>2020-02-21T11:01:59Z</time>
      </trkpt>
      <trkpt lat="38.8683980" lon="1.3341050">
        <ele>6.5</ele>
        <time>2020-02-21T11:02:00Z</time>
      </trkpt>
      <trkpt lat="38.8684050" lon="1.3340520">
        <ele>6.6</ele>
        <time>2020-02-21T11:02:01Z</time>
      </trkpt>
      <trkpt lat="38.8684060" lon="1.3340320">
        <ele>6.7</ele>
        <time>2020-02-21T11:02:02Z</time>
      </trkpt>
      <trkpt lat="38.8684030" lon="1.3339940">
        <ele>6.8</ele>
        <time>2020-02-21T11:02:03Z</time>
      </trkpt>
      <trkpt lat="38.8683970" lon="1.3339700">
        <ele>6.8</ele>
        <time>2020-02-21T11:02:04Z</time>
      </trkpt>
      <trkpt lat="38.8683810" lon="1.3339600">
        <ele>6.9</ele>
        <time>2020-02-21T11:02:05Z</time>
      </trkpt>
      <trkpt lat="38.8683700" lon="1.3339540">
        <ele>6.9</ele>
        <time>2020-02-21T11:02:06Z</time>
      </trkpt>
      <trkpt lat="38.8683670" lon="1.3339390">
        <ele>6.9</ele>
        <time>2020-02-21T11:02:07Z</time>
      </trkpt>
      <trkpt lat="38.8683610" lon="1.3339210">
        <ele>7.0</ele>
        <time>2020-02-21T11:02:08Z</time>
      </trkpt>
      <trkpt lat="38.8683580" lon="1.3339120">
        <ele>7.0</ele>
        <time>2020-02-21T11:02:09Z</time>
      </trkpt>
      <trkpt lat="38.8683580" lon="1.3339040">
        <ele>7.0</ele>
        <time>2020-02-21T11:02:10Z</time>
      </trkpt>
      <trkpt lat="38.8683540" lon="1.3338870">
        <ele>7.1</ele>
        <time>2020-02-21T11:02:11Z</time>
      </trkpt>
      <trkpt lat="38.8683440" lon="1.3338510">
        <ele>7.2</ele>
        <time>2020-02-21T11:02:12Z</time>
      </trkpt>
      <trkpt lat="38.8683400" lon="1.3338390">
        <ele>7.2</ele>
        <time>2020-02-21T11:02:13Z</time>
      </trkpt>
      <trkpt lat="38.8683310" lon="1.3338230">
        <ele>7.2</ele>
        <time>2020-02-21T11:02:14Z</time>
      </trkpt>
      <trkpt lat="38.8683220" lon="1.3338190">
        <ele>7.3</ele>
        <time>2020-02-21T11:02:15Z</time>
      </trkpt>
      <trkpt lat="38.8683250" lon="1.3338220">
        <ele>7.3</ele>
        <time>2020-02-21T11:02:16Z</time>
      </trkpt>
      <trkpt lat="38.8683230" lon="1.3338230">
        <ele>7.3</ele>
        <time>2020-02-21T11:02:17Z</time>
      </trkpt>
      <trkpt lat="38.8683230" lon="1.3338220">
        <ele>7.3</ele>
        <time>2020-02-21T11:02:18Z</time>
      </trkpt>
      <trkpt lat="38.8683210" lon="1.3338220">
        <ele>7.3</ele>
        <time>2020-02-21T11:02:19Z</time>
      </trkpt>
      <trkpt lat="38.8683210" lon="1.3338220">
        <ele>7.3</ele>
        <time>2020-02-21T11:02:20Z</time>
      </trkpt>
      <trkpt lat="38.8683210" lon="1.3338210">
        <ele>7.3</ele>
        <time>2020-02-21T11:02:21Z</time>
      </trkpt>
      <trkpt lat="38.8683210" lon="1.3338190">
        <ele>7.3</ele>
        <time>2020-02-21T11:02:22Z</time>
      </trkpt>
      <trkpt lat="38.8683310" lon="1.3338270">
        <ele>7.3</ele>
        <time>2020-02-21T11:02:23Z</time>
      </trkpt>
      <trkpt lat="38.8683210" lon="1.3338320">
        <ele>7.4</ele>
        <time>2020-02-21T11:02:24Z</time>
      </trkpt>
      <trkpt lat="38.8683150" lon="1.3338290">
        <ele>7.4</ele>
        <time>2020-02-21T11:02:25Z</time>
      </trkpt>
      <trkpt lat="38.8683090" lon="1.3337850">
        <ele>7.5</ele>
        <time>2020-02-21T11:02:27Z</time>
      </trkpt>
      <trkpt lat="38.8683040" lon="1.3337570">
        <ele>7.6</ele>
        <time>2020-02-21T11:02:28Z</time>
      </trkpt>
      <trkpt lat="38.8683030" lon="1.3337360">
        <ele>7.6</ele>
        <time>2020-02-21T11:02:29Z</time>
      </trkpt>
      <trkpt lat="38.8682950" lon="1.3337160">
        <ele>7.8</ele>
        <time>2020-02-21T11:02:30Z</time>
      </trkpt>
      <trkpt lat="38.8682830" lon="1.3336700">
        <ele>7.8</ele>
        <time>2020-02-21T11:02:31Z</time>
      </trkpt>
      <trkpt lat="38.8682810" lon="1.3336510">
        <ele>7.8</ele>
        <time>2020-02-21T11:02:32Z</time>
      </trkpt>
      <trkpt lat="38.8682750" lon="1.3336150">
        <ele>7.8</ele>
        <time>2020-02-21T11:02:33Z</time>
      </trkpt>
      <trkpt lat="38.8682620" lon="1.3335750">
        <ele>7.7</ele>
        <time>2020-02-21T11:02:34Z</time>
      </trkpt>
      <trkpt lat="38.8682400" lon="1.3335510">
        <ele>7.6</ele>
        <time>2020-02-21T11:02:35Z</time>
      </trkpt>
      <trkpt lat="38.8682230" lon="1.3335410">
        <ele>7.6</ele>
        <time>2020-02-21T11:02:36Z</time>
      </trkpt>
      <trkpt lat="38.8682100" lon="1.3335360">
        <ele>7.6</ele>
        <time>2020-02-21T11:02:37Z</time>
      </trkpt>
      <trkpt lat="38.8682000" lon="1.3335260">
        <ele>7.5</ele>
        <time>2020-02-21T11:02:38Z</time>
      </trkpt>
      <trkpt lat="38.8681950" lon="1.3335190">
        <ele>7.5</ele>
        <time>2020-02-21T11:02:39Z</time>
      </trkpt>
      <trkpt lat="38.8681880" lon="1.3335090">
        <ele>7.5</ele>
        <time>2020-02-21T11:02:40Z</time>
      </trkpt>
      <trkpt lat="38.8681830" lon="1.3334960">
        <ele>7.5</ele>
        <time>2020-02-21T11:02:41Z</time>
      </trkpt>
      <trkpt lat="38.8681810" lon="1.3334840">
        <ele>7.5</ele>
        <time>2020-02-21T11:02:42Z</time>
      </trkpt>
      <trkpt lat="38.8681780" lon="1.3334730">
        <ele>7.5</ele>
        <time>2020-02-21T11:02:43Z</time>
      </trkpt>
      <trkpt lat="38.8681760" lon="1.3334610">
        <ele>7.5</ele>
        <time>2020-02-21T11:02:44Z</time>
      </trkpt>
      <trkpt lat="38.8681730" lon="1.3334490">
        <ele>7.4</ele>
        <time>2020-02-21T11:02:45Z</time>
      </trkpt>
      <trkpt lat="38.8681840" lon="1.3334130">
        <ele>7.4</ele>
        <time>2020-02-21T11:02:46Z</time>
      </trkpt>
      <trkpt lat="38.8681870" lon="1.3333970">
        <ele>7.4</ele>
        <time>2020-02-21T11:02:47Z</time>
      </trkpt>
      <trkpt lat="38.8681920" lon="1.3333480">
        <ele>7.3</ele>
        <time>2020-02-21T11:02:48Z</time>
      </trkpt>
      <trkpt lat="38.8681950" lon="1.3333320">
        <ele>7.2</ele>
        <time>2020-02-21T11:02:49Z</time>
      </trkpt>
      <trkpt lat="38.8682040" lon="1.3332930">
        <ele>7.2</ele>
        <time>2020-02-21T11:02:50Z</time>
      </trkpt>
      <trkpt lat="38.8682050" lon="1.3332800">
        <ele>7.1</ele>
        <time>2020-02-21T11:02:51Z</time>
      </trkpt>
      <trkpt lat="38.8682120" lon="1.3332380">
        <ele>7.0</ele>
        <time>2020-02-21T11:02:52Z</time>
      </trkpt>
      <trkpt lat="38.8682150" lon="1.3332210">
        <ele>7.0</ele>
        <time>2020-02-21T11:02:53Z</time>
      </trkpt>
      <trkpt lat="38.8682280" lon="1.3331660">
        <ele>6.9</ele>
        <time>2020-02-21T11:02:54Z</time>
      </trkpt>
      <trkpt lat="38.8682330" lon="1.3331430">
        <ele>6.8</ele>
        <time>2020-02-21T11:02:55Z</time>
      </trkpt>
      <trkpt lat="38.8682430" lon="1.3331080">
        <ele>6.7</ele>
        <time>2020-02-21T11:02:56Z</time>
      </trkpt>
      <trkpt lat="38.8682560" lon="1.3330750">
        <ele>6.5</ele>
        <time>2020-02-21T11:02:57Z</time>
      </trkpt>
      <trkpt lat="38.8682610" lon="1.3330310">
        <ele>6.4</ele>
        <time>2020-02-21T11:02:58Z</time>
      </trkpt>
      <trkpt lat="38.8682620" lon="1.3330210">
        <ele>6.4</ele>
        <time>2020-02-21T11:02:59Z</time>
      </trkpt>
      <trkpt lat="38.8682640" lon="1.3329790">
        <ele>6.2</ele>
        <time>2020-02-21T11:03:00Z</time>
      </trkpt>
      <trkpt lat="38.8682650" lon="1.3329650">
        <ele>6.2</ele>
        <time>2020-02-21T11:03:01Z</time>
      </trkpt>
      <trkpt lat="38.8682670" lon="1.3329210">
        <ele>6.0</ele>
        <time>2020-02-21T11:03:02Z</time>
      </trkpt>
      <trkpt lat="38.8682670" lon="1.3329030">
        <ele>6.0</ele>
        <time>2020-02-21T11:03:03Z</time>
      </trkpt>
      <trkpt lat="38.8682660" lon="1.3328580">
        <ele>5.9</ele>
        <time>2020-02-21T11:03:04Z</time>
      </trkpt>
      <trkpt lat="38.8682640" lon="1.3328160">
        <ele>5.8</ele>
        <time>2020-02-21T11:03:05Z</time>
      </trkpt>
      <trkpt lat="38.8682720" lon="1.3327800">
        <ele>5.7</ele>
        <time>2020-02-21T11:03:06Z</time>
      </trkpt>
      <trkpt lat="38.8682820" lon="1.3327340">
        <ele>5.6</ele>
        <time>2020-02-21T11:03:07Z</time>
      </trkpt>
      <trkpt lat="38.8682890" lon="1.3326910">
        <ele>5.5</ele>
        <time>2020-02-21T11:03:08Z</time>
      </trkpt>
      <trkpt lat="38.8683000" lon="1.3326460">
        <ele>5.5</ele>
        <time>2020-02-21T11:03:09Z</time>
      </trkpt>
      <trkpt lat="38.8683080" lon="1.3325950">
        <ele>5.4</ele>
        <time>2020-02-21T11:03:10Z</time>
      </trkpt>
      <trkpt lat="38.8683110" lon="1.3325770">
        <ele>5.4</ele>
        <time>2020-02-21T11:03:11Z</time>
      </trkpt>
      <trkpt lat="38.8683140" lon="1.3325310">
        <ele>5.3</ele>
        <time>2020-02-21T11:03:12Z</time>
      </trkpt>
      <trkpt lat="38.8683150" lon="1.3325130">
        <ele>5.3</ele>
        <time>2020-02-21T11:03:13Z</time>
      </trkpt>
      <trkpt lat="38.8683160" lon="1.3324660">
        <ele>5.3</ele>
        <time>2020-02-21T11:03:14Z</time>
      </trkpt>
      <trkpt lat="38.8683170" lon="1.3324150">
        <ele>5.3</ele>
        <time>2020-02-21T11:03:15Z</time>
      </trkpt>
      <trkpt lat="38.8683210" lon="1.3323550">
        <ele>5.4</ele>
        <time>2020-02-21T11:03:16Z</time>
      </trkpt>
      <trkpt lat="38.8683190" lon="1.3322990">
        <ele>5.5</ele>
        <time>2020-02-21T11:03:17Z</time>
      </trkpt>
      <trkpt lat="38.8683160" lon="1.3322430">
        <ele>5.6</ele>
        <time>2020-02-21T11:03:18Z</time>
      </trkpt>
      <trkpt lat="38.8683280" lon="1.3321950">
        <ele>5.7</ele>
        <time>2020-02-21T11:03:19Z</time>
      </trkpt>
      <trkpt lat="38.8683440" lon="1.3321430">
        <ele>5.8</ele>
        <time>2020-02-21T11:03:20Z</time>
      </trkpt>
      <trkpt lat="38.8683600" lon="1.3321000">
        <ele>5.9</ele>
        <time>2020-02-21T11:03:21Z</time>
      </trkpt>
      <trkpt lat="38.8683760" lon="1.3320540">
        <ele>6.0</ele>
        <time>2020-02-21T11:03:22Z</time>
      </trkpt>
      <trkpt lat="38.8683830" lon="1.3320200">
        <ele>6.1</ele>
        <time>2020-02-21T11:03:23Z</time>
      </trkpt>
      <trkpt lat="38.8683900" lon="1.3320080">
        <ele>6.1</ele>
        <time>2020-02-21T11:03:24Z</time>
      </trkpt>
      <trkpt lat="38.8684010" lon="1.3319700">
        <ele>6.2</ele>
        <time>2020-02-21T11:03:25Z</time>
      </trkpt>
      <trkpt lat="38.8684060" lon="1.3319500">
        <ele>6.3</ele>
        <time>2020-02-21T11:03:26Z</time>
      </trkpt>
      <trkpt lat="38.8684100" lon="1.3319300">
        <ele>6.3</ele>
        <time>2020-02-21T11:03:27Z</time>
      </trkpt>
      <trkpt lat="38.8683920" lon="1.3319010">
        <ele>6.4</ele>
        <time>2020-02-21T11:03:28Z</time>
      </trkpt>
      <trkpt lat="38.8683830" lon="1.3318930">
        <ele>6.5</ele>
        <time>2020-02-21T11:03:29Z</time>
      </trkpt>
      <trkpt lat="38.8683780" lon="1.3318750">
        <ele>6.5</ele>
        <time>2020-02-21T11:03:30Z</time>
      </trkpt>
      <trkpt lat="38.8683780" lon="1.3318580">
        <ele>6.6</ele>
        <time>2020-02-21T11:03:31Z</time>
      </trkpt>
      <trkpt lat="38.8683920" lon="1.3318400">
        <ele>6.6</ele>
        <time>2020-02-21T11:03:32Z</time>
      </trkpt>
      <trkpt lat="38.8683980" lon="1.3318300">
        <ele>6.7</ele>
        <time>2020-02-21T11:03:33Z</time>
      </trkpt>
      <trkpt lat="38.8684050" lon="1.3318210">
        <ele>6.7</ele>
        <time>2020-02-21T11:03:34Z</time>
      </trkpt>
      <trkpt lat="38.8684170" lon="1.3317840">
        <ele>6.8</ele>
        <time>2020-02-21T11:03:35Z</time>
      </trkpt>
      <trkpt lat="38.8684210" lon="1.3317690">
        <ele>6.8</ele>
        <time>2020-02-21T11:03:36Z</time>
      </trkpt>
      <trkpt lat="38.8684430" lon="1.3317410">
        <ele>7.2</ele>
        <time>2020-02-21T11:03:37Z</time>
      </trkpt>
      <trkpt lat="38.8684510" lon="1.3317350">
        <ele>7.2</ele>
        <time>2020-02-21T11:03:38Z</time>
      </trkpt>
      <trkpt lat="38.8684870" lon="1.3317250">
        <ele>7.3</ele>
        <time>2020-02-21T11:03:39Z</time>
      </trkpt>
      <trkpt lat="38.8685000" lon="1.3317230">
        <ele>7.4</ele>
        <time>2020-02-21T11:03:40Z</time>
      </trkpt>
      <trkpt lat="38.8685340" lon="1.3317030">
        <ele>7.5</ele>
        <time>2020-02-21T11:03:41Z</time>
      </trkpt>
      <trkpt lat="38.8685440" lon="1.3316950">
        <ele>7.5</ele>
        <time>2020-02-21T11:03:42Z</time>
      </trkpt>
      <trkpt lat="38.8685690" lon="1.3316690">
        <ele>7.6</ele>
        <time>2020-02-21T11:03:43Z</time>
      </trkpt>
      <trkpt lat="38.8685980" lon="1.3316520">
        <ele>7.7</ele>
        <time>2020-02-21T11:03:44Z</time>
      </trkpt>
      <trkpt lat="38.8686270" lon="1.3316290">
        <ele>7.8</ele>
        <time>2020-02-21T11:03:45Z</time>
      </trkpt>
      <trkpt lat="38.8686520" lon="1.3316010">
        <ele>7.9</ele>
        <time>2020-02-21T11:03:46Z</time>
      </trkpt>
      <trkpt lat="38.8686800" lon="1.3315780">
        <ele>8.0</ele>
        <time>2020-02-21T11:03:47Z</time>
      </trkpt>
      <trkpt lat="38.8687070" lon="1.3315510">
        <ele>8.1</ele>
        <time>2020-02-21T11:03:48Z</time>
      </trkpt>
      <trkpt lat="38.8687330" lon="1.3315370">
        <ele>8.2</ele>
        <time>2020-02-21T11:03:49Z</time>
      </trkpt>
      <trkpt lat="38.8687420" lon="1.3315330">
        <ele>8.2</ele>
        <time>2020-02-21T11:03:50Z</time>
      </trkpt>
      <trkpt lat="38.8687690" lon="1.3315230">
        <ele>8.3</ele>
        <time>2020-02-21T11:03:51Z</time>
      </trkpt>
      <trkpt lat="38.8688000" lon="1.3315290">
        <ele>8.3</ele>
        <time>2020-02-21T11:03:52Z</time>
      </trkpt>
      <trkpt lat="38.8688350" lon="1.3315240">
        <ele>8.8</ele>
        <time>2020-02-21T11:03:53Z</time>
      </trkpt>
      <trkpt lat="38.8688670" lon="1.3315210">
        <ele>8.9</ele>
        <time>2020-02-21T11:03:54Z</time>
      </trkpt>
      <trkpt lat="38.8688950" lon="1.3315260">
        <ele>9.0</ele>
        <time>2020-02-21T11:03:55Z</time>
      </trkpt>
      <trkpt lat="38.8689250" lon="1.3315120">
        <ele>9.0</ele>
        <time>2020-02-21T11:03:56Z</time>
      </trkpt>
      <trkpt lat="38.8689340" lon="1.3315030">
        <ele>9.0</ele>
        <time>2020-02-21T11:03:57Z</time>
      </trkpt>
      <trkpt lat="38.8689580" lon="1.3314790">
        <ele>9.1</ele>
        <time>2020-02-21T11:03:58Z</time>
      </trkpt>
      <trkpt lat="38.8689820" lon="1.3314440">
        <ele>9.2</ele>
        <time>2020-02-21T11:03:59Z</time>
      </trkpt>
      <trkpt lat="38.8689900" lon="1.3314280">
        <ele>9.2</ele>
        <time>2020-02-21T11:04:00Z</time>
      </trkpt>
      <trkpt lat="38.8690070" lon="1.3313990">
        <ele>9.3</ele>
        <time>2020-02-21T11:04:01Z</time>
      </trkpt>
      <trkpt lat="38.8690330" lon="1.3313590">
        <ele>9.4</ele>
        <time>2020-02-21T11:04:02Z</time>
      </trkpt>
      <trkpt lat="38.8690560" lon="1.3313250">
        <ele>9.5</ele>
        <time>2020-02-21T11:04:03Z</time>
      </trkpt>
      <trkpt lat="38.8690640" lon="1.3313170">
        <ele>9.5</ele>
        <time>2020-02-21T11:04:04Z</time>
      </trkpt>
      <trkpt lat="38.8690870" lon="1.3312960">
        <ele>9.5</ele>
        <time>2020-02-21T11:04:05Z</time>
      </trkpt>
      <trkpt lat="38.8691180" lon="1.3312620">
        <ele>9.7</ele>
        <time>2020-02-21T11:04:06Z</time>
      </trkpt>
      <trkpt lat="38.8691280" lon="1.3312500">
        <ele>9.7</ele>
        <time>2020-02-21T11:04:07Z</time>
      </trkpt>
      <trkpt lat="38.8691280" lon="1.3312140">
        <ele>9.8</ele>
        <time>2020-02-21T11:04:08Z</time>
      </trkpt>
      <trkpt lat="38.8691450" lon="1.3311810">
        <ele>9.9</ele>
        <time>2020-02-21T11:04:09Z</time>
      </trkpt>
      <trkpt lat="38.8691650" lon="1.3311530">
        <ele>9.9</ele>
        <time>2020-02-21T11:04:10Z</time>
      </trkpt>
      <trkpt lat="38.8691820" lon="1.3311260">
        <ele>9.9</ele>
        <time>2020-02-21T11:04:11Z</time>
      </trkpt>
      <trkpt lat="38.8692020" lon="1.3310890">
        <ele>10.1</ele>
        <time>2020-02-21T11:04:12Z</time>
      </trkpt>
      <trkpt lat="38.8692110" lon="1.3310540">
        <ele>10.2</ele>
        <time>2020-02-21T11:04:13Z</time>
      </trkpt>
      <trkpt lat="38.8692370" lon="1.3310280">
        <ele>10.3</ele>
        <time>2020-02-21T11:04:14Z</time>
      </trkpt>
      <trkpt lat="38.8692590" lon="1.3310040">
        <ele>10.5</ele>
        <time>2020-02-21T11:04:15Z</time>
      </trkpt>
      <trkpt lat="38.8692950" lon="1.3309690">
        <ele>10.7</ele>
        <time>2020-02-21T11:04:16Z</time>
      </trkpt>
      <trkpt lat="38.8693120" lon="1.3309580">
        <ele>10.7</ele>
        <time>2020-02-21T11:04:17Z</time>
      </trkpt>
      <trkpt lat="38.8693300" lon="1.3309310">
        <ele>10.8</ele>
        <time>2020-02-21T11:04:18Z</time>
      </trkpt>
      <trkpt lat="38.8693510" lon="1.3309000">
        <ele>10.8</ele>
        <time>2020-02-21T11:04:19Z</time>
      </trkpt>
      <trkpt lat="38.8693600" lon="1.3308880">
        <ele>11.0</ele>
        <time>2020-02-21T11:04:20Z</time>
      </trkpt>
      <trkpt lat="38.8693700" lon="1.3308690">
        <ele>11.0</ele>
        <time>2020-02-21T11:04:21Z</time>
      </trkpt>
      <trkpt lat="38.8693760" lon="1.3308480">
        <ele>11.0</ele>
        <time>2020-02-21T11:04:22Z</time>
      </trkpt>
      <trkpt lat="38.8693780" lon="1.3308060">
        <ele>11.1</ele>
        <time>2020-02-21T11:04:23Z</time>
      </trkpt>
      <trkpt lat="38.8693750" lon="1.3307920">
        <ele>11.1</ele>
        <time>2020-02-21T11:04:24Z</time>
      </trkpt>
      <trkpt lat="38.8693690" lon="1.3307520">
        <ele>11.2</ele>
        <time>2020-02-21T11:04:25Z</time>
      </trkpt>
      <trkpt lat="38.8693610" lon="1.3307150">
        <ele>11.3</ele>
        <time>2020-02-21T11:04:26Z</time>
      </trkpt>
      <trkpt lat="38.8693580" lon="1.3306800">
        <ele>11.3</ele>
        <time>2020-02-21T11:04:27Z</time>
      </trkpt>
      <trkpt lat="38.8693670" lon="1.3306460">
        <ele>11.4</ele>
        <time>2020-02-21T11:04:28Z</time>
      </trkpt>
      <trkpt lat="38.8693860" lon="1.3306080">
        <ele>11.5</ele>
        <time>2020-02-21T11:04:29Z</time>
      </trkpt>
      <trkpt lat="38.8694080" lon="1.3305830">
        <ele>11.6</ele>
        <time>2020-02-21T11:04:30Z</time>
      </trkpt>
      <trkpt lat="38.8694290" lon="1.3305720">
        <ele>11.7</ele>
        <time>2020-02-21T11:04:31Z</time>
      </trkpt>
      <trkpt lat="38.8694400" lon="1.3305710">
        <ele>11.7</ele>
        <time>2020-02-21T11:04:32Z</time>
      </trkpt>
      <trkpt lat="38.8694380" lon="1.3305960">
        <ele>11.6</ele>
        <time>2020-02-21T11:04:33Z</time>
      </trkpt>
      <trkpt lat="38.8694340" lon="1.3306010">
        <ele>11.6</ele>
        <time>2020-02-21T11:04:34Z</time>
      </trkpt>
      <trkpt lat="38.8694310" lon="1.3306050">
        <ele>11.6</ele>
        <time>2020-02-21T11:04:35Z</time>
      </trkpt>
      <trkpt lat="38.8694280" lon="1.3306100">
        <ele>11.6</ele>
        <time>2020-02-21T11:04:36Z</time>
      </trkpt>
      <trkpt lat="38.8694240" lon="1.3306140">
        <ele>11.6</ele>
        <time>2020-02-21T11:04:37Z</time>
      </trkpt>
      <trkpt lat="38.8694210" lon="1.3306190">
        <ele>11.6</ele>
        <time>2020-02-21T11:04:38Z</time>
      </trkpt>
      <trkpt lat="38.8694180" lon="1.3306230">
        <ele>11.6</ele>
        <time>2020-02-21T11:04:39Z</time>
      </trkpt>
      <trkpt lat="38.8694140" lon="1.3306280">
        <ele>11.6</ele>
        <time>2020-02-21T11:04:40Z</time>
      </trkpt>
      <trkpt lat="38.8694110" lon="1.3306320">
        <ele>11.6</ele>
        <time>2020-02-21T11:04:41Z</time>
      </trkpt>
      <trkpt lat="38.8693980" lon="1.3306830">
        <ele>11.4</ele>
        <time>2020-02-21T11:04:42Z</time>
      </trkpt>
      <trkpt lat="38.8693860" lon="1.3307310">
        <ele>11.4</ele>
        <time>2020-02-21T11:04:43Z</time>
      </trkpt>
      <trkpt lat="38.8693740" lon="1.3307740">
        <ele>11.3</ele>
        <time>2020-02-21T11:04:44Z</time>
      </trkpt>
      <trkpt lat="38.8693640" lon="1.3308160">
        <ele>11.2</ele>
        <time>2020-02-21T11:04:45Z</time>
      </trkpt>
      <trkpt lat="38.8693560" lon="1.3308520">
        <ele>11.2</ele>
        <time>2020-02-21T11:04:46Z</time>
      </trkpt>
      <trkpt lat="38.8693610" lon="1.3308910">
        <ele>11.1</ele>
        <time>2020-02-21T11:04:47Z</time>
      </trkpt>
      <trkpt lat="38.8693830" lon="1.3309240">
        <ele>11.1</ele>
        <time>2020-02-21T11:04:48Z</time>
      </trkpt>
      <trkpt lat="38.8694180" lon="1.3309420">
        <ele>11.3</ele>
        <time>2020-02-21T11:04:49Z</time>
      </trkpt>
      <trkpt lat="38.8694370" lon="1.3309500">
        <ele>11.3</ele>
        <time>2020-02-21T11:04:50Z</time>
      </trkpt>
      <trkpt lat="38.8694450" lon="1.3309410">
        <ele>11.3</ele>
        <time>2020-02-21T11:04:51Z</time>
      </trkpt>
      <trkpt lat="38.8694630" lon="1.3309100">
        <ele>11.4</ele>
        <time>2020-02-21T11:04:52Z</time>
      </trkpt>
      <trkpt lat="38.8694700" lon="1.3308920">
        <ele>11.4</ele>
        <time>2020-02-21T11:04:53Z</time>
      </trkpt>
      <trkpt lat="38.8694880" lon="1.3308540">
        <ele>11.6</ele>
        <time>2020-02-21T11:04:54Z</time>
      </trkpt>
      <trkpt lat="38.8695030" lon="1.3308220">
        <ele>11.6</ele>
        <time>2020-02-21T11:04:55Z</time>
      </trkpt>
      <trkpt lat="38.8695270" lon="1.3308030">
        <ele>11.7</ele>
        <time>2020-02-21T11:04:56Z</time>
      </trkpt>
      <trkpt lat="38.8695610" lon="1.3307740">
        <ele>11.8</ele>
        <time>2020-02-21T11:04:57Z</time>
      </trkpt>
      <trkpt lat="38.8695740" lon="1.3307620">
        <ele>11.8</ele>
        <time>2020-02-21T11:04:58Z</time>
      </trkpt>
      <trkpt lat="38.8696020" lon="1.3307470">
        <ele>11.9</ele>
        <time>2020-02-21T11:04:59Z</time>
      </trkpt>
      <trkpt lat="38.8696380" lon="1.3307300">
        <ele>12.0</ele>
        <time>2020-02-21T11:05:00Z</time>
      </trkpt>
      <trkpt lat="38.8696510" lon="1.3307230">
        <ele>12.0</ele>
        <time>2020-02-21T11:05:01Z</time>
      </trkpt>
      <trkpt lat="38.8696770" lon="1.3307140">
        <ele>12.1</ele>
        <time>2020-02-21T11:05:02Z</time>
      </trkpt>
      <trkpt lat="38.8696990" lon="1.3306880">
        <ele>12.2</ele>
        <time>2020-02-21T11:05:03Z</time>
      </trkpt>
      <trkpt lat="38.8697030" lon="1.3306760">
        <ele>12.3</ele>
        <time>2020-02-21T11:05:04Z</time>
      </trkpt>
      <trkpt lat="38.8696920" lon="1.3306330">
        <ele>12.4</ele>
        <time>2020-02-21T11:05:05Z</time>
      </trkpt>
      <trkpt lat="38.8696850" lon="1.3306200">
        <ele>12.3</ele>
        <time>2020-02-21T11:05:06Z</time>
      </trkpt>
      <trkpt lat="38.8696610" lon="1.3305930">
        <ele>12.3</ele>
        <time>2020-02-21T11:05:07Z</time>
      </trkpt>
      <trkpt lat="38.8696550" lon="1.3305860">
        <ele>12.3</ele>
        <time>2020-02-21T11:05:08Z</time>
      </trkpt>
      <trkpt lat="38.8696440" lon="1.3305470">
        <ele>12.3</ele>
        <time>2020-02-21T11:05:09Z</time>
      </trkpt>
      <trkpt lat="38.8696420" lon="1.3305300">
        <ele>12.3</ele>
        <time>2020-02-21T11:05:10Z</time>
      </trkpt>
      <trkpt lat="38.8696400" lon="1.3304900">
        <ele>12.4</ele>
        <time>2020-02-21T11:05:11Z</time>
      </trkpt>
      <trkpt lat="38.8696400" lon="1.3304770">
        <ele>12.4</ele>
        <time>2020-02-21T11:05:12Z</time>
      </trkpt>
      <trkpt lat="38.8696340" lon="1.3304290">
        <ele>12.5</ele>
        <time>2020-02-21T11:05:13Z</time>
      </trkpt>
      <trkpt lat="38.8696310" lon="1.3304140">
        <ele>12.6</ele>
        <time>2020-02-21T11:05:14Z</time>
      </trkpt>
      <trkpt lat="38.8696320" lon="1.3303620">
        <ele>12.7</ele>
        <time>2020-02-21T11:05:15Z</time>
      </trkpt>
      <trkpt lat="38.8696330" lon="1.3303430">
        <ele>12.7</ele>
        <time>2020-02-21T11:05:16Z</time>
      </trkpt>
      <trkpt lat="38.8696500" lon="1.3303110">
        <ele>12.7</ele>
        <time>2020-02-21T11:05:17Z</time>
      </trkpt>
      <trkpt lat="38.8696570" lon="1.3302980">
        <ele>12.8</ele>
        <time>2020-02-21T11:05:18Z</time>
      </trkpt>
      <trkpt lat="38.8696810" lon="1.3302550">
        <ele>12.9</ele>
        <time>2020-02-21T11:05:19Z</time>
      </trkpt>
      <trkpt lat="38.8696910" lon="1.3302370">
        <ele>13.0</ele>
        <time>2020-02-21T11:05:20Z</time>
      </trkpt>
      <trkpt lat="38.8697040" lon="1.3302050">
        <ele>13.0</ele>
        <time>2020-02-21T11:05:21Z</time>
      </trkpt>
      <trkpt lat="38.8697150" lon="1.3301630">
        <ele>13.0</ele>
        <time>2020-02-21T11:05:22Z</time>
      </trkpt>
      <trkpt lat="38.8697190" lon="1.3301470">
        <ele>13.1</ele>
        <time>2020-02-21T11:05:23Z</time>
      </trkpt>
      <trkpt lat="38.8697320" lon="1.3301040">
        <ele>13.2</ele>
        <time>2020-02-21T11:05:24Z</time>
      </trkpt>
      <trkpt lat="38.8697370" lon="1.3300900">
        <ele>13.2</ele>
        <time>2020-02-21T11:05:25Z</time>
      </trkpt>
      <trkpt lat="38.8697530" lon="1.3300440">
        <ele>13.2</ele>
        <time>2020-02-21T11:05:26Z</time>
      </trkpt>
      <trkpt lat="38.8697600" lon="1.3300260">
        <ele>13.3</ele>
        <time>2020-02-21T11:05:27Z</time>
      </trkpt>
      <trkpt lat="38.8697690" lon="1.3299800">
        <ele>13.3</ele>
        <time>2020-02-21T11:05:28Z</time>
      </trkpt>
      <trkpt lat="38.8697740" lon="1.3299650">
        <ele>13.3</ele>
        <time>2020-02-21T11:05:29Z</time>
      </trkpt>
      <trkpt lat="38.8697880" lon="1.3299310">
        <ele>13.3</ele>
        <time>2020-02-21T11:05:30Z</time>
      </trkpt>
      <trkpt lat="38.8697860" lon="1.3299180">
        <ele>13.3</ele>
        <time>2020-02-21T11:05:31Z</time>
      </trkpt>
      <trkpt lat="38.8697800" lon="1.3298770">
        <ele>13.3</ele>
        <time>2020-02-21T11:05:32Z</time>
      </trkpt>
      <trkpt lat="38.8697810" lon="1.3298650">
        <ele>13.3</ele>
        <time>2020-02-21T11:05:33Z</time>
      </trkpt>
      <trkpt lat="38.8697850" lon="1.3298170">
        <ele>13.2</ele>
        <time>2020-02-21T11:05:34Z</time>
      </trkpt>
      <trkpt lat="38.8697860" lon="1.3298010">
        <ele>13.3</ele>
        <time>2020-02-21T11:05:35Z</time>
      </trkpt>
      <trkpt lat="38.8697980" lon="1.3297600">
        <ele>13.2</ele>
        <time>2020-02-21T11:05:36Z</time>
      </trkpt>
      <trkpt lat="38.8698010" lon="1.3297460">
        <ele>13.2</ele>
        <time>2020-02-21T11:05:37Z</time>
      </trkpt>
      <trkpt lat="38.8698170" lon="1.3297090">
        <ele>13.2</ele>
        <time>2020-02-21T11:05:38Z</time>
      </trkpt>
      <trkpt lat="38.8698230" lon="1.3296960">
        <ele>13.2</ele>
        <time>2020-02-21T11:05:39Z</time>
      </trkpt>
      <trkpt lat="38.8698530" lon="1.3296710">
        <ele>13.3</ele>
        <time>2020-02-21T11:05:40Z</time>
      </trkpt>
      <trkpt lat="38.8698610" lon="1.3296620">
        <ele>13.3</ele>
        <time>2020-02-21T11:05:41Z</time>
      </trkpt>
      <trkpt lat="38.8698820" lon="1.3296400">
        <ele>13.2</ele>
        <time>2020-02-21T11:05:42Z</time>
      </trkpt>
      <trkpt lat="38.8699100" lon="1.3296110">
        <ele>13.3</ele>
        <time>2020-02-21T11:05:43Z</time>
      </trkpt>
      <trkpt lat="38.8699180" lon="1.3296010">
        <ele>13.3</ele>
        <time>2020-02-21T11:05:44Z</time>
      </trkpt>
      <trkpt lat="38.8699510" lon="1.3295950">
        <ele>13.4</ele>
        <time>2020-02-21T11:05:45Z</time>
      </trkpt>
      <trkpt lat="38.8699620" lon="1.3296010">
        <ele>13.5</ele>
        <time>2020-02-21T11:05:46Z</time>
      </trkpt>
      <trkpt lat="38.8699910" lon="1.3296030">
        <ele>13.7</ele>
        <time>2020-02-21T11:05:47Z</time>
      </trkpt>
      <trkpt lat="38.8700200" lon="1.3295850">
        <ele>13.8</ele>
        <time>2020-02-21T11:05:48Z</time>
      </trkpt>
      <trkpt lat="38.8700320" lon="1.3295780">
        <ele>13.8</ele>
        <time>2020-02-21T11:05:49Z</time>
      </trkpt>
      <trkpt lat="38.8700540" lon="1.3295590">
        <ele>14.0</ele>
        <time>2020-02-21T11:05:50Z</time>
      </trkpt>
      <trkpt lat="38.8700650" lon="1.3295530">
        <ele>14.0</ele>
        <time>2020-02-21T11:05:51Z</time>
      </trkpt>
      <trkpt lat="38.8700820" lon="1.3295400">
        <ele>14.0</ele>
        <time>2020-02-21T11:05:52Z</time>
      </trkpt>
      <trkpt lat="38.8700970" lon="1.3295350">
        <ele>14.2</ele>
        <time>2020-02-21T11:05:53Z</time>
      </trkpt>
      <trkpt lat="38.8701070" lon="1.3295220">
        <ele>14.2</ele>
        <time>2020-02-21T11:05:54Z</time>
      </trkpt>
      <trkpt lat="38.8701090" lon="1.3294990">
        <ele>14.1</ele>
        <time>2020-02-21T11:05:55Z</time>
      </trkpt>
      <trkpt lat="38.8701140" lon="1.3294930">
        <ele>14.1</ele>
        <time>2020-02-21T11:05:56Z</time>
      </trkpt>
      <trkpt lat="38.8701130" lon="1.3294920">
        <ele>14.1</ele>
        <time>2020-02-21T11:05:57Z</time>
      </trkpt>
      <trkpt lat="38.8701170" lon="1.3294780">
        <ele>14.1</ele>
        <time>2020-02-21T11:05:58Z</time>
      </trkpt>
      <trkpt lat="38.8701140" lon="1.3294640">
        <ele>14.1</ele>
        <time>2020-02-21T11:05:59Z</time>
      </trkpt>
      <trkpt lat="38.8701030" lon="1.3294470">
        <ele>14.1</ele>
        <time>2020-02-21T11:06:00Z</time>
      </trkpt>
      <trkpt lat="38.8700930" lon="1.3294280">
        <ele>14.1</ele>
        <time>2020-02-21T11:06:01Z</time>
      </trkpt>
      <trkpt lat="38.8700830" lon="1.3293860">
        <ele>13.9</ele>
        <time>2020-02-21T11:06:02Z</time>
      </trkpt>
      <trkpt lat="38.8700420" lon="1.3293690">
        <ele>13.7</ele>
        <time>2020-02-21T11:06:03Z</time>
      </trkpt>
      <trkpt lat="38.8700250" lon="1.3293650">
        <ele>13.7</ele>
        <time>2020-02-21T11:06:04Z</time>
      </trkpt>
      <trkpt lat="38.8699950" lon="1.3293670">
        <ele>13.6</ele>
        <time>2020-02-21T11:06:05Z</time>
      </trkpt>
      <trkpt lat="38.8699610" lon="1.3293820">
        <ele>13.5</ele>
        <time>2020-02-21T11:06:06Z</time>
      </trkpt>
      <trkpt lat="38.8699280" lon="1.3293640">
        <ele>13.4</ele>
        <time>2020-02-21T11:06:07Z</time>
      </trkpt>
      <trkpt lat="38.8699150" lon="1.3293550">
        <ele>13.3</ele>
        <time>2020-02-21T11:06:08Z</time>
      </trkpt>
      <trkpt lat="38.8698920" lon="1.3293250">
        <ele>13.3</ele>
        <time>2020-02-21T11:06:09Z</time>
      </trkpt>
      <trkpt lat="38.8698850" lon="1.3293160">
        <ele>13.3</ele>
        <time>2020-02-21T11:06:10Z</time>
      </trkpt>
      <trkpt lat="38.8698720" lon="1.3292760">
        <ele>13.3</ele>
        <time>2020-02-21T11:06:11Z</time>
      </trkpt>
      <trkpt lat="38.8698650" lon="1.3292630">
        <ele>13.3</ele>
        <time>2020-02-21T11:06:12Z</time>
      </trkpt>
      <trkpt lat="38.8698450" lon="1.3292250">
        <ele>13.3</ele>
        <time>2020-02-21T11:06:13Z</time>
      </trkpt>
      <trkpt lat="38.8698400" lon="1.3292100">
        <ele>13.3</ele>
        <time>2020-02-21T11:06:14Z</time>
      </trkpt>
      <trkpt lat="38.8698220" lon="1.3291720">
        <ele>13.4</ele>
        <time>2020-02-21T11:06:15Z</time>
      </trkpt>
      <trkpt lat="38.8698160" lon="1.3291600">
        <ele>13.4</ele>
        <time>2020-02-21T11:06:16Z</time>
      </trkpt>
      <trkpt lat="38.8697970" lon="1.3291290">
        <ele>13.5</ele>
        <time>2020-02-21T11:06:17Z</time>
      </trkpt>
      <trkpt lat="38.8697900" lon="1.3291180">
        <ele>13.5</ele>
        <time>2020-02-21T11:06:18Z</time>
      </trkpt>
      <trkpt lat="38.8697710" lon="1.3290840">
        <ele>13.6</ele>
        <time>2020-02-21T11:06:19Z</time>
      </trkpt>
      <trkpt lat="38.8697630" lon="1.3290690">
        <ele>13.6</ele>
        <time>2020-02-21T11:06:20Z</time>
      </trkpt>
      <trkpt lat="38.8697360" lon="1.3290370">
        <ele>13.7</ele>
        <time>2020-02-21T11:06:21Z</time>
      </trkpt>
      <trkpt lat="38.8697110" lon="1.3290070">
        <ele>13.8</ele>
        <time>2020-02-21T11:06:22Z</time>
      </trkpt>
      <trkpt lat="38.8696890" lon="1.3289830">
        <ele>13.8</ele>
        <time>2020-02-21T11:06:23Z</time>
      </trkpt>
      <trkpt lat="38.8696740" lon="1.3289780">
        <ele>13.8</ele>
        <time>2020-02-21T11:06:24Z</time>
      </trkpt>
      <trkpt lat="38.8696550" lon="1.3289710">
        <ele>13.7</ele>
        <time>2020-02-21T11:06:25Z</time>
      </trkpt>
      <trkpt lat="38.8696290" lon="1.3289930">
        <ele>13.7</ele>
        <time>2020-02-21T11:06:26Z</time>
      </trkpt>
      <trkpt lat="38.8696180" lon="1.3290040">
        <ele>13.6</ele>
        <time>2020-02-21T11:06:27Z</time>
      </trkpt>
      <trkpt lat="38.8696030" lon="1.3290170">
        <ele>13.6</ele>
        <time>2020-02-21T11:06:28Z</time>
      </trkpt>
      <trkpt lat="38.8695860" lon="1.3290270">
        <ele>13.6</ele>
        <time>2020-02-21T11:06:29Z</time>
      </trkpt>
      <trkpt lat="38.8695650" lon="1.3290600">
        <ele>13.5</ele>
        <time>2020-02-21T11:06:30Z</time>
      </trkpt>
      <trkpt lat="38.8695590" lon="1.3290780">
        <ele>13.5</ele>
        <time>2020-02-21T11:06:31Z</time>
      </trkpt>
      <trkpt lat="38.8695490" lon="1.3291140">
        <ele>13.5</ele>
        <time>2020-02-21T11:06:32Z</time>
      </trkpt>
      <trkpt lat="38.8695210" lon="1.3291420">
        <ele>13.4</ele>
        <time>2020-02-21T11:06:33Z</time>
      </trkpt>
      <trkpt lat="38.8695030" lon="1.3291470">
        <ele>13.4</ele>
        <time>2020-02-21T11:06:34Z</time>
      </trkpt>
      <trkpt lat="38.8694750" lon="1.3291660">
        <ele>13.3</ele>
        <time>2020-02-21T11:06:35Z</time>
      </trkpt>
      <trkpt lat="38.8694500" lon="1.3291910">
        <ele>13.3</ele>
        <time>2020-02-21T11:06:36Z</time>
      </trkpt>
      <trkpt lat="38.8694290" lon="1.3292130">
        <ele>13.3</ele>
        <time>2020-02-21T11:06:37Z</time>
      </trkpt>
      <trkpt lat="38.8694080" lon="1.3292360">
        <ele>13.3</ele>
        <time>2020-02-21T11:06:38Z</time>
      </trkpt>
      <trkpt lat="38.8693850" lon="1.3292580">
        <ele>13.3</ele>
        <time>2020-02-21T11:06:39Z</time>
      </trkpt>
      <trkpt lat="38.8693610" lon="1.3292790">
        <ele>13.3</ele>
        <time>2020-02-21T11:06:40Z</time>
      </trkpt>
      <trkpt lat="38.8693380" lon="1.3292980">
        <ele>13.3</ele>
        <time>2020-02-21T11:06:41Z</time>
      </trkpt>
      <trkpt lat="38.8693180" lon="1.3293220">
        <ele>13.3</ele>
        <time>2020-02-21T11:06:42Z</time>
      </trkpt>
      <trkpt lat="38.8693040" lon="1.3293540">
        <ele>13.3</ele>
        <time>2020-02-21T11:06:43Z</time>
      </trkpt>
      <trkpt lat="38.8692880" lon="1.3293840">
        <ele>13.3</ele>
        <time>2020-02-21T11:06:44Z</time>
      </trkpt>
      <trkpt lat="38.8692890" lon="1.3294230">
        <ele>13.3</ele>
        <time>2020-02-21T11:06:45Z</time>
      </trkpt>
      <trkpt lat="38.8692750" lon="1.3294520">
        <ele>13.4</ele>
        <time>2020-02-21T11:06:46Z</time>
      </trkpt>
      <trkpt lat="38.8692550" lon="1.3294830">
        <ele>13.4</ele>
        <time>2020-02-21T11:06:47Z</time>
      </trkpt>
      <trkpt lat="38.8692370" lon="1.3295160">
        <ele>13.4</ele>
        <time>2020-02-21T11:06:48Z</time>
      </trkpt>
      <trkpt lat="38.8692210" lon="1.3295540">
        <ele>13.4</ele>
        <time>2020-02-21T11:06:49Z</time>
      </trkpt>
      <trkpt lat="38.8692080" lon="1.3295930">
        <ele>13.5</ele>
        <time>2020-02-21T11:06:50Z</time>
      </trkpt>
      <trkpt lat="38.8692090" lon="1.3296310">
        <ele>13.5</ele>
        <time>2020-02-21T11:06:51Z</time>
      </trkpt>
      <trkpt lat="38.8692060" lon="1.3296680">
        <ele>13.6</ele>
        <time>2020-02-21T11:06:52Z</time>
      </trkpt>
      <trkpt lat="38.8691980" lon="1.3296800">
        <ele>13.6</ele>
        <time>2020-02-21T11:06:53Z</time>
      </trkpt>
      <trkpt lat="38.8691920" lon="1.3296990">
        <ele>13.7</ele>
        <time>2020-02-21T11:06:54Z</time>
      </trkpt>
      <trkpt lat="38.8691650" lon="1.3297140">
        <ele>13.7</ele>
        <time>2020-02-21T11:06:55Z</time>
      </trkpt>
      <trkpt lat="38.8691340" lon="1.3297230">
        <ele>13.8</ele>
        <time>2020-02-21T11:06:56Z</time>
      </trkpt>
      <trkpt lat="38.8690940" lon="1.3297370">
        <ele>13.6</ele>
        <time>2020-02-21T11:06:57Z</time>
      </trkpt>
      <trkpt lat="38.8690790" lon="1.3297400">
        <ele>13.6</ele>
        <time>2020-02-21T11:06:58Z</time>
      </trkpt>
      <trkpt lat="38.8690470" lon="1.3297420">
        <ele>13.5</ele>
        <time>2020-02-21T11:06:59Z</time>
      </trkpt>
      <trkpt lat="38.8690350" lon="1.3297320">
        <ele>13.4</ele>
        <time>2020-02-21T11:07:00Z</time>
      </trkpt>
      <trkpt lat="38.8690130" lon="1.3297080">
        <ele>13.3</ele>
        <time>2020-02-21T11:07:01Z</time>
      </trkpt>
      <trkpt lat="38.8689760" lon="1.3297040">
        <ele>13.2</ele>
        <time>2020-02-21T11:07:02Z</time>
      </trkpt>
      <trkpt lat="38.8689640" lon="1.3297030">
        <ele>13.2</ele>
        <time>2020-02-21T11:07:03Z</time>
      </trkpt>
      <trkpt lat="38.8689270" lon="1.3296930">
        <ele>13.1</ele>
        <time>2020-02-21T11:07:04Z</time>
      </trkpt>
      <trkpt lat="38.8689150" lon="1.3296860">
        <ele>13.1</ele>
        <time>2020-02-21T11:07:05Z</time>
      </trkpt>
      <trkpt lat="38.8688830" lon="1.3296710">
        <ele>13.0</ele>
        <time>2020-02-21T11:07:06Z</time>
      </trkpt>
      <trkpt lat="38.8688730" lon="1.3296680">
        <ele>12.9</ele>
        <time>2020-02-21T11:07:07Z</time>
      </trkpt>
      <trkpt lat="38.8688370" lon="1.3296610">
        <ele>12.9</ele>
        <time>2020-02-21T11:07:08Z</time>
      </trkpt>
      <trkpt lat="38.8688250" lon="1.3296590">
        <ele>12.8</ele>
        <time>2020-02-21T11:07:09Z</time>
      </trkpt>
      <trkpt lat="38.8687990" lon="1.3296510">
        <ele>12.8</ele>
        <time>2020-02-21T11:07:10Z</time>
      </trkpt>
      <trkpt lat="38.8687580" lon="1.3296390">
        <ele>12.7</ele>
        <time>2020-02-21T11:07:11Z</time>
      </trkpt>
      <trkpt lat="38.8687420" lon="1.3296370">
        <ele>12.6</ele>
        <time>2020-02-21T11:07:12Z</time>
      </trkpt>
      <trkpt lat="38.8687140" lon="1.3296340">
        <ele>12.6</ele>
        <time>2020-02-21T11:07:13Z</time>
      </trkpt>
      <trkpt lat="38.8686770" lon="1.3296270">
        <ele>12.5</ele>
        <time>2020-02-21T11:07:14Z</time>
      </trkpt>
      <trkpt lat="38.8686650" lon="1.3296240">
        <ele>12.5</ele>
        <time>2020-02-21T11:07:15Z</time>
      </trkpt>
      <trkpt lat="38.8686340" lon="1.3296160">
        <ele>12.5</ele>
        <time>2020-02-21T11:07:16Z</time>
      </trkpt>
      <trkpt lat="38.8685950" lon="1.3296050">
        <ele>12.4</ele>
        <time>2020-02-21T11:07:17Z</time>
      </trkpt>
      <trkpt lat="38.8685820" lon="1.3296030">
        <ele>12.4</ele>
        <time>2020-02-21T11:07:18Z</time>
      </trkpt>
      <trkpt lat="38.8685470" lon="1.3296130">
        <ele>12.3</ele>
        <time>2020-02-21T11:07:19Z</time>
      </trkpt>
      <trkpt lat="38.8685360" lon="1.3296220">
        <ele>12.3</ele>
        <time>2020-02-21T11:07:20Z</time>
      </trkpt>
      <trkpt lat="38.8685120" lon="1.3296430">
        <ele>12.3</ele>
        <time>2020-02-21T11:07:21Z</time>
      </trkpt>
      <trkpt lat="38.8684840" lon="1.3296640">
        <ele>12.2</ele>
        <time>2020-02-21T11:07:22Z</time>
      </trkpt>
      <trkpt lat="38.8684530" lon="1.3296920">
        <ele>12.1</ele>
        <time>2020-02-21T11:07:23Z</time>
      </trkpt>
      <trkpt lat="38.8684430" lon="1.3297010">
        <ele>12.1</ele>
        <time>2020-02-21T11:07:24Z</time>
      </trkpt>
      <trkpt lat="38.8684190" lon="1.3297240">
        <ele>12.0</ele>
        <time>2020-02-21T11:07:25Z</time>
      </trkpt>
      <trkpt lat="38.8683930" lon="1.3297470">
        <ele>11.9</ele>
        <time>2020-02-21T11:07:26Z</time>
      </trkpt>
      <trkpt lat="38.8683640" lon="1.3297710">
        <ele>11.9</ele>
        <time>2020-02-21T11:07:27Z</time>
      </trkpt>
      <trkpt lat="38.8683360" lon="1.3297910">
        <ele>11.8</ele>
        <time>2020-02-21T11:07:28Z</time>
      </trkpt>
      <trkpt lat="38.8683020" lon="1.3298200">
        <ele>11.7</ele>
        <time>2020-02-21T11:07:29Z</time>
      </trkpt>
      <trkpt lat="38.8682900" lon="1.3298290">
        <ele>11.8</ele>
        <time>2020-02-21T11:07:30Z</time>
      </trkpt>
      <trkpt lat="38.8682570" lon="1.3298400">
        <ele>12.1</ele>
        <time>2020-02-21T11:07:31Z</time>
      </trkpt>
      <trkpt lat="38.8682280" lon="1.3298480">
        <ele>12.2</ele>
        <time>2020-02-21T11:07:32Z</time>
      </trkpt>
      <trkpt lat="38.8681990" lon="1.3298260">
        <ele>12.4</ele>
        <time>2020-02-21T11:07:33Z</time>
      </trkpt>
      <trkpt lat="38.8681730" lon="1.3298020">
        <ele>12.5</ele>
        <time>2020-02-21T11:07:34Z</time>
      </trkpt>
      <trkpt lat="38.8681570" lon="1.3297550">
        <ele>12.6</ele>
        <time>2020-02-21T11:07:35Z</time>
      </trkpt>
      <trkpt lat="38.8681530" lon="1.3297360">
        <ele>12.7</ele>
        <time>2020-02-21T11:07:36Z</time>
      </trkpt>
      <trkpt lat="38.8681360" lon="1.3297010">
        <ele>12.8</ele>
        <time>2020-02-21T11:07:37Z</time>
      </trkpt>
      <trkpt lat="38.8681290" lon="1.3296580">
        <ele>13.0</ele>
        <time>2020-02-21T11:07:38Z</time>
      </trkpt>
      <trkpt lat="38.8681150" lon="1.3296240">
        <ele>13.1</ele>
        <time>2020-02-21T11:07:39Z</time>
      </trkpt>
      <trkpt lat="38.8680970" lon="1.3295940">
        <ele>13.3</ele>
        <time>2020-02-21T11:07:40Z</time>
      </trkpt>
      <trkpt lat="38.8680680" lon="1.3295630">
        <ele>13.5</ele>
        <time>2020-02-21T11:07:41Z</time>
      </trkpt>
      <trkpt lat="38.8680380" lon="1.3295490">
        <ele>13.6</ele>
        <time>2020-02-21T11:07:42Z</time>
      </trkpt>
      <trkpt lat="38.8680120" lon="1.3295340">
        <ele>13.7</ele>
        <time>2020-02-21T11:07:43Z</time>
      </trkpt>
      <trkpt lat="38.8679900" lon="1.3295080">
        <ele>13.8</ele>
        <time>2020-02-21T11:07:44Z</time>
      </trkpt>
      <trkpt lat="38.8679660" lon="1.3294660">
        <ele>13.9</ele>
        <time>2020-02-21T11:07:45Z</time>
      </trkpt>
      <trkpt lat="38.8679580" lon="1.3294500">
        <ele>13.9</ele>
        <time>2020-02-21T11:07:46Z</time>
      </trkpt>
      <trkpt lat="38.8679460" lon="1.3294180">
        <ele>13.4</ele>
        <time>2020-02-21T11:07:47Z</time>
      </trkpt>
      <trkpt lat="38.8679290" lon="1.3293790">
        <ele>13.4</ele>
        <time>2020-02-21T11:07:48Z</time>
      </trkpt>
      <trkpt lat="38.8679240" lon="1.3293650">
        <ele>13.3</ele>
        <time>2020-02-21T11:07:49Z</time>
      </trkpt>
      <trkpt lat="38.8679120" lon="1.3293280">
        <ele>12.3</ele>
        <time>2020-02-21T11:07:50Z</time>
      </trkpt>
      <trkpt lat="38.8678940" lon="1.3292940">
        <ele>12.2</ele>
        <time>2020-02-21T11:07:51Z</time>
      </trkpt>
      <trkpt lat="38.8678800" lon="1.3292610">
        <ele>11.0</ele>
        <time>2020-02-21T11:07:52Z</time>
      </trkpt>
      <trkpt lat="38.8678540" lon="1.3292220">
        <ele>11.0</ele>
        <time>2020-02-21T11:07:53Z</time>
      </trkpt>
      <trkpt lat="38.8678430" lon="1.3292110">
        <ele>9.6</ele>
        <time>2020-02-21T11:07:54Z</time>
      </trkpt>
      <trkpt lat="38.8678210" lon="1.3291610">
        <ele>9.8</ele>
        <time>2020-02-21T11:07:55Z</time>
      </trkpt>
      <trkpt lat="38.8677900" lon="1.3291410">
        <ele>8.0</ele>
        <time>2020-02-21T11:07:56Z</time>
      </trkpt>
      <trkpt lat="38.8677730" lon="1.3291030">
        <ele>6.3</ele>
        <time>2020-02-21T11:07:57Z</time>
      </trkpt>
      <trkpt lat="38.8677610" lon="1.3290920">
        <ele>6.3</ele>
        <time>2020-02-21T11:07:58Z</time>
      </trkpt>
      <trkpt lat="38.8677270" lon="1.3290650">
        <ele>5.1</ele>
        <time>2020-02-21T11:07:59Z</time>
      </trkpt>
      <trkpt lat="38.8677150" lon="1.3290570">
        <ele>5.0</ele>
        <time>2020-02-21T11:08:00Z</time>
      </trkpt>
      <trkpt lat="38.8676830" lon="1.3290260">
        <ele>4.5</ele>
        <time>2020-02-21T11:08:01Z</time>
      </trkpt>
      <trkpt lat="38.8676460" lon="1.3290020">
        <ele>4.0</ele>
        <time>2020-02-21T11:08:02Z</time>
      </trkpt>
      <trkpt lat="38.8676330" lon="1.3289900">
        <ele>3.9</ele>
        <time>2020-02-21T11:08:03Z</time>
      </trkpt>
      <trkpt lat="38.8676170" lon="1.3289510">
        <ele>6.0</ele>
        <time>2020-02-21T11:08:04Z</time>
      </trkpt>
      <trkpt lat="38.8676080" lon="1.3289380">
        <ele>5.4</ele>
        <time>2020-02-21T11:08:05Z</time>
      </trkpt>
      <trkpt lat="38.8675720" lon="1.3289280">
        <ele>5.1</ele>
        <time>2020-02-21T11:08:06Z</time>
      </trkpt>
      <trkpt lat="38.8675590" lon="1.3289320">
        <ele>5.0</ele>
        <time>2020-02-21T11:08:07Z</time>
      </trkpt>
      <trkpt lat="38.8675560" lon="1.3289250">
        <ele>5.0</ele>
        <time>2020-02-21T11:08:08Z</time>
      </trkpt>
      <trkpt lat="38.8675600" lon="1.3289170">
        <ele>5.0</ele>
        <time>2020-02-21T11:08:09Z</time>
      </trkpt>
      <trkpt lat="38.8675580" lon="1.3289070">
        <ele>7.4</ele>
        <time>2020-02-21T11:08:10Z</time>
      </trkpt>
      <trkpt lat="38.8675560" lon="1.3289090">
        <ele>7.4</ele>
        <time>2020-02-21T11:08:11Z</time>
      </trkpt>
      <trkpt lat="38.8675550" lon="1.3289120">
        <ele>7.4</ele>
        <time>2020-02-21T11:08:12Z</time>
      </trkpt>
      <trkpt lat="38.8675540" lon="1.3289130">
        <ele>7.4</ele>
        <time>2020-02-21T11:08:13Z</time>
      </trkpt>
      <trkpt lat="38.8675530" lon="1.3289140">
        <ele>7.3</ele>
        <time>2020-02-21T11:08:14Z</time>
      </trkpt>
      <trkpt lat="38.8675530" lon="1.3289150">
        <ele>7.3</ele>
        <time>2020-02-21T11:08:15Z</time>
      </trkpt>
      <trkpt lat="38.8675520" lon="1.3289160">
        <ele>7.3</ele>
        <time>2020-02-21T11:08:16Z</time>
      </trkpt>
      <trkpt lat="38.8675510" lon="1.3289180">
        <ele>4.8</ele>
        <time>2020-02-21T11:08:17Z</time>
      </trkpt>
      <trkpt lat="38.8675500" lon="1.3289190">
        <ele>4.8</ele>
        <time>2020-02-21T11:08:18Z</time>
      </trkpt>
      <trkpt lat="38.8675320" lon="1.3288630">
        <ele>9.6</ele>
        <time>2020-02-21T11:08:40Z</time>
      </trkpt>
      <trkpt lat="38.8675370" lon="1.3288400">
        <ele>9.6</ele>
        <time>2020-02-21T11:08:41Z</time>
      </trkpt>
      <trkpt lat="38.8675440" lon="1.3287930">
        <ele>12.0</ele>
        <time>2020-02-21T11:08:42Z</time>
      </trkpt>
      <trkpt lat="38.8675450" lon="1.3287780">
        <ele>14.0</ele>
        <time>2020-02-21T11:08:43Z</time>
      </trkpt>
      <trkpt lat="38.8675260" lon="1.3287510">
        <ele>14.0</ele>
        <time>2020-02-21T11:08:44Z</time>
      </trkpt>
      <trkpt lat="38.8675060" lon="1.3287250">
        <ele>15.3</ele>
        <time>2020-02-21T11:08:45Z</time>
      </trkpt>
      <trkpt lat="38.8674920" lon="1.3286910">
        <ele>16.2</ele>
        <time>2020-02-21T11:08:46Z</time>
      </trkpt>
      <trkpt lat="38.8674740" lon="1.3286550">
        <ele>16.7</ele>
        <time>2020-02-21T11:08:47Z</time>
      </trkpt>
      <trkpt lat="38.8674580" lon="1.3286100">
        <ele>16.9</ele>
        <time>2020-02-21T11:08:48Z</time>
      </trkpt>
      <trkpt lat="38.8674500" lon="1.3285940">
        <ele>16.9</ele>
        <time>2020-02-21T11:08:49Z</time>
      </trkpt>
      <trkpt lat="38.8674280" lon="1.3285580">
        <ele>16.9</ele>
        <time>2020-02-21T11:08:50Z</time>
      </trkpt>
      <trkpt lat="38.8674160" lon="1.3285470">
        <ele>16.9</ele>
        <time>2020-02-21T11:08:51Z</time>
      </trkpt>
      <trkpt lat="38.8673880" lon="1.3285170">
        <ele>17.0</ele>
        <time>2020-02-21T11:08:52Z</time>
      </trkpt>
      <trkpt lat="38.8673790" lon="1.3285110">
        <ele>17.0</ele>
        <time>2020-02-21T11:08:53Z</time>
      </trkpt>
      <trkpt lat="38.8673520" lon="1.3284830">
        <ele>17.0</ele>
        <time>2020-02-21T11:08:54Z</time>
      </trkpt>
      <trkpt lat="38.8673420" lon="1.3284730">
        <ele>17.0</ele>
        <time>2020-02-21T11:08:55Z</time>
      </trkpt>
      <trkpt lat="38.8673450" lon="1.3284300">
        <ele>17.1</ele>
        <time>2020-02-21T11:08:56Z</time>
      </trkpt>
      <trkpt lat="38.8673480" lon="1.3284150">
        <ele>17.1</ele>
        <time>2020-02-21T11:08:57Z</time>
      </trkpt>
      <trkpt lat="38.8673440" lon="1.3283700">
        <ele>17.3</ele>
        <time>2020-02-21T11:08:58Z</time>
      </trkpt>
      <trkpt lat="38.8673410" lon="1.3283530">
        <ele>17.8</ele>
        <time>2020-02-21T11:08:59Z</time>
      </trkpt>
      <trkpt lat="38.8673330" lon="1.3283150">
        <ele>18.4</ele>
        <time>2020-02-21T11:09:00Z</time>
      </trkpt>
      <trkpt lat="38.8673220" lon="1.3282780">
        <ele>18.4</ele>
        <time>2020-02-21T11:09:01Z</time>
      </trkpt>
      <trkpt lat="38.8673170" lon="1.3282680">
        <ele>19.0</ele>
        <time>2020-02-21T11:09:02Z</time>
      </trkpt>
      <trkpt lat="38.8673170" lon="1.3282220">
        <ele>19.5</ele>
        <time>2020-02-21T11:09:03Z</time>
      </trkpt>
      <trkpt lat="38.8673180" lon="1.3282070">
        <ele>19.5</ele>
        <time>2020-02-21T11:09:04Z</time>
      </trkpt>
      <trkpt lat="38.8673050" lon="1.3281640">
        <ele>20.0</ele>
        <time>2020-02-21T11:09:05Z</time>
      </trkpt>
      <trkpt lat="38.8672950" lon="1.3281510">
        <ele>20.0</ele>
        <time>2020-02-21T11:09:06Z</time>
      </trkpt>
      <trkpt lat="38.8672840" lon="1.3281170">
        <ele>20.4</ele>
        <time>2020-02-21T11:09:07Z</time>
      </trkpt>
      <trkpt lat="38.8672560" lon="1.3280810">
        <ele>20.9</ele>
        <time>2020-02-21T11:09:08Z</time>
      </trkpt>
      <trkpt lat="38.8672460" lon="1.3280710">
        <ele>20.8</ele>
        <time>2020-02-21T11:09:09Z</time>
      </trkpt>
      <trkpt lat="38.8672220" lon="1.3280530">
        <ele>21.2</ele>
        <time>2020-02-21T11:09:10Z</time>
      </trkpt>
      <trkpt lat="38.8671980" lon="1.3280210">
        <ele>21.1</ele>
        <time>2020-02-21T11:09:11Z</time>
      </trkpt>
      <trkpt lat="38.8671910" lon="1.3280080">
        <ele>21.5</ele>
        <time>2020-02-21T11:09:12Z</time>
      </trkpt>
      <trkpt lat="38.8671760" lon="1.3279680">
        <ele>21.8</ele>
        <time>2020-02-21T11:09:13Z</time>
      </trkpt>
      <trkpt lat="38.8671700" lon="1.3279540">
        <ele>21.8</ele>
        <time>2020-02-21T11:09:14Z</time>
      </trkpt>
      <trkpt lat="38.8671550" lon="1.3279140">
        <ele>22.2</ele>
        <time>2020-02-21T11:09:15Z</time>
      </trkpt>
      <trkpt lat="38.8671510" lon="1.3278760">
        <ele>22.7</ele>
        <time>2020-02-21T11:09:16Z</time>
      </trkpt>
      <trkpt lat="38.8671470" lon="1.3278260">
        <ele>23.0</ele>
        <time>2020-02-21T11:09:17Z</time>
      </trkpt>
      <trkpt lat="38.8671480" lon="1.3278060">
        <ele>23.2</ele>
        <time>2020-02-21T11:09:18Z</time>
      </trkpt>
      <trkpt lat="38.8671660" lon="1.3277630">
        <ele>23.5</ele>
        <time>2020-02-21T11:09:19Z</time>
      </trkpt>
      <trkpt lat="38.8671740" lon="1.3277500">
        <ele>23.6</ele>
        <time>2020-02-21T11:09:20Z</time>
      </trkpt>
      <trkpt lat="38.8671910" lon="1.3277130">
        <ele>23.8</ele>
        <time>2020-02-21T11:09:21Z</time>
      </trkpt>
      <trkpt lat="38.8671920" lon="1.3277030">
        <ele>23.9</ele>
        <time>2020-02-21T11:09:22Z</time>
      </trkpt>
      <trkpt lat="38.8671960" lon="1.3276550">
        <ele>24.2</ele>
        <time>2020-02-21T11:09:23Z</time>
      </trkpt>
      <trkpt lat="38.8671960" lon="1.3276390">
        <ele>24.3</ele>
        <time>2020-02-21T11:09:24Z</time>
      </trkpt>
      <trkpt lat="38.8672000" lon="1.3276010">
        <ele>24.5</ele>
        <time>2020-02-21T11:09:25Z</time>
      </trkpt>
      <trkpt lat="38.8672040" lon="1.3275900">
        <ele>24.5</ele>
        <time>2020-02-21T11:09:26Z</time>
      </trkpt>
      <trkpt lat="38.8672120" lon="1.3275700">
        <ele>24.6</ele>
        <time>2020-02-21T11:09:27Z</time>
      </trkpt>
      <trkpt lat="38.8672210" lon="1.3275490">
        <ele>24.8</ele>
        <time>2020-02-21T11:09:28Z</time>
      </trkpt>
      <trkpt lat="38.8672340" lon="1.3275100">
        <ele>25.0</ele>
        <time>2020-02-21T11:09:29Z</time>
      </trkpt>
      <trkpt lat="38.8672330" lon="1.3274960">
        <ele>25.0</ele>
        <time>2020-02-21T11:09:30Z</time>
      </trkpt>
      <trkpt lat="38.8672440" lon="1.3274790">
        <ele>25.2</ele>
        <time>2020-02-21T11:09:31Z</time>
      </trkpt>
      <trkpt lat="38.8672560" lon="1.3274600">
        <ele>25.3</ele>
        <time>2020-02-21T11:09:32Z</time>
      </trkpt>
      <trkpt lat="38.8672760" lon="1.3274270">
        <ele>25.5</ele>
        <time>2020-02-21T11:09:33Z</time>
      </trkpt>
      <trkpt lat="38.8672830" lon="1.3274160">
        <ele>25.6</ele>
        <time>2020-02-21T11:09:34Z</time>
      </trkpt>
      <trkpt lat="38.8673010" lon="1.3273830">
        <ele>25.8</ele>
        <time>2020-02-21T11:09:35Z</time>
      </trkpt>
      <trkpt lat="38.8673030" lon="1.3273710">
        <ele>25.8</ele>
        <time>2020-02-21T11:09:36Z</time>
      </trkpt>
      <trkpt lat="38.8673130" lon="1.3273350">
        <ele>26.0</ele>
        <time>2020-02-21T11:09:37Z</time>
      </trkpt>
      <trkpt lat="38.8673230" lon="1.3272900">
        <ele>26.2</ele>
        <time>2020-02-21T11:09:38Z</time>
      </trkpt>
      <trkpt lat="38.8673270" lon="1.3272730">
        <ele>26.3</ele>
        <time>2020-02-21T11:09:39Z</time>
      </trkpt>
      <trkpt lat="38.8673540" lon="1.3272460">
        <ele>26.5</ele>
        <time>2020-02-21T11:09:40Z</time>
      </trkpt>
      <trkpt lat="38.8673660" lon="1.3272430">
        <ele>26.6</ele>
        <time>2020-02-21T11:09:41Z</time>
      </trkpt>
      <trkpt lat="38.8673920" lon="1.3272310">
        <ele>26.8</ele>
        <time>2020-02-21T11:09:42Z</time>
      </trkpt>
      <trkpt lat="38.8674190" lon="1.3272170">
        <ele>26.9</ele>
        <time>2020-02-21T11:09:43Z</time>
      </trkpt>
      <trkpt lat="38.8674270" lon="1.3272090">
        <ele>27.0</ele>
        <time>2020-02-21T11:09:44Z</time>
      </trkpt>
      <trkpt lat="38.8674590" lon="1.3272010">
        <ele>27.1</ele>
        <time>2020-02-21T11:09:45Z</time>
      </trkpt>
      <trkpt lat="38.8674690" lon="1.3271990">
        <ele>27.2</ele>
        <time>2020-02-21T11:09:46Z</time>
      </trkpt>
      <trkpt lat="38.8675050" lon="1.3271890">
        <ele>27.4</ele>
        <time>2020-02-21T11:09:47Z</time>
      </trkpt>
      <trkpt lat="38.8675170" lon="1.3271870">
        <ele>27.4</ele>
        <time>2020-02-21T11:09:48Z</time>
      </trkpt>
      <trkpt lat="38.8675270" lon="1.3271720">
        <ele>27.5</ele>
        <time>2020-02-21T11:09:49Z</time>
      </trkpt>
      <trkpt lat="38.8675440" lon="1.3271590">
        <ele>27.6</ele>
        <time>2020-02-21T11:09:50Z</time>
      </trkpt>
      <trkpt lat="38.8675790" lon="1.3271460">
        <ele>27.8</ele>
        <time>2020-02-21T11:09:51Z</time>
      </trkpt>
      <trkpt lat="38.8675900" lon="1.3271430">
        <ele>27.9</ele>
        <time>2020-02-21T11:09:52Z</time>
      </trkpt>
      <trkpt lat="38.8676260" lon="1.3271180">
        <ele>28.1</ele>
        <time>2020-02-21T11:09:53Z</time>
      </trkpt>
      <trkpt lat="38.8676370" lon="1.3271070">
        <ele>28.1</ele>
        <time>2020-02-21T11:09:54Z</time>
      </trkpt>
      <trkpt lat="38.8676720" lon="1.3270800">
        <ele>28.3</ele>
        <time>2020-02-21T11:09:55Z</time>
      </trkpt>
      <trkpt lat="38.8676860" lon="1.3270680">
        <ele>28.4</ele>
        <time>2020-02-21T11:09:56Z</time>
      </trkpt>
      <trkpt lat="38.8677070" lon="1.3270460">
        <ele>28.6</ele>
        <time>2020-02-21T11:09:57Z</time>
      </trkpt>
      <trkpt lat="38.8677350" lon="1.3270300">
        <ele>28.7</ele>
        <time>2020-02-21T11:09:58Z</time>
      </trkpt>
      <trkpt lat="38.8677640" lon="1.3270310">
        <ele>28.9</ele>
        <time>2020-02-21T11:09:59Z</time>
      </trkpt>
      <trkpt lat="38.8677990" lon="1.3270250">
        <ele>29.1</ele>
        <time>2020-02-21T11:10:00Z</time>
      </trkpt>
      <trkpt lat="38.8678110" lon="1.3270210">
        <ele>29.2</ele>
        <time>2020-02-21T11:10:01Z</time>
      </trkpt>
      <trkpt lat="38.8678510" lon="1.3270070">
        <ele>29.5</ele>
        <time>2020-02-21T11:10:02Z</time>
      </trkpt>
      <trkpt lat="38.8678660" lon="1.3270020">
        <ele>29.6</ele>
        <time>2020-02-21T11:10:03Z</time>
      </trkpt>
      <trkpt lat="38.8679050" lon="1.3270020">
        <ele>29.9</ele>
        <time>2020-02-21T11:10:04Z</time>
      </trkpt>
      <trkpt lat="38.8679170" lon="1.3270030">
        <ele>30.0</ele>
        <time>2020-02-21T11:10:05Z</time>
      </trkpt>
      <trkpt lat="38.8679510" lon="1.3269960">
        <ele>30.3</ele>
        <time>2020-02-21T11:10:06Z</time>
      </trkpt>
      <trkpt lat="38.8679610" lon="1.3269930">
        <ele>30.4</ele>
        <time>2020-02-21T11:10:07Z</time>
      </trkpt>
      <trkpt lat="38.8679870" lon="1.3269800">
        <ele>30.6</ele>
        <time>2020-02-21T11:10:08Z</time>
      </trkpt>
      <trkpt lat="38.8680110" lon="1.3269610">
        <ele>30.9</ele>
        <time>2020-02-21T11:10:09Z</time>
      </trkpt>
      <trkpt lat="38.8680370" lon="1.3269270">
        <ele>31.2</ele>
        <time>2020-02-21T11:10:10Z</time>
      </trkpt>
      <trkpt lat="38.8680600" lon="1.3268980">
        <ele>31.5</ele>
        <time>2020-02-21T11:10:11Z</time>
      </trkpt>
      <trkpt lat="38.8680880" lon="1.3268740">
        <ele>31.7</ele>
        <time>2020-02-21T11:10:12Z</time>
      </trkpt>
      <trkpt lat="38.8681160" lon="1.3268410">
        <ele>31.6</ele>
        <time>2020-02-21T11:10:13Z</time>
      </trkpt>
      <trkpt lat="38.8681230" lon="1.3268310">
        <ele>31.5</ele>
        <time>2020-02-21T11:10:14Z</time>
      </trkpt>
      <trkpt lat="38.8681450" lon="1.3268080">
        <ele>31.5</ele>
        <time>2020-02-21T11:10:15Z</time>
      </trkpt>
      <trkpt lat="38.8681540" lon="1.3268010">
        <ele>31.5</ele>
        <time>2020-02-21T11:10:16Z</time>
      </trkpt>
      <trkpt lat="38.8681840" lon="1.3267830">
        <ele>31.4</ele>
        <time>2020-02-21T11:10:17Z</time>
      </trkpt>
      <trkpt lat="38.8682140" lon="1.3267670">
        <ele>31.3</ele>
        <time>2020-02-21T11:10:18Z</time>
      </trkpt>
      <trkpt lat="38.8682440" lon="1.3267510">
        <ele>31.3</ele>
        <time>2020-02-21T11:10:19Z</time>
      </trkpt>
      <trkpt lat="38.8682820" lon="1.3267150">
        <ele>31.2</ele>
        <time>2020-02-21T11:10:20Z</time>
      </trkpt>
      <trkpt lat="38.8683110" lon="1.3266850">
        <ele>31.1</ele>
        <time>2020-02-21T11:10:21Z</time>
      </trkpt>
      <trkpt lat="38.8683320" lon="1.3266570">
        <ele>31.1</ele>
        <time>2020-02-21T11:10:22Z</time>
      </trkpt>
      <trkpt lat="38.8683620" lon="1.3266150">
        <ele>31.0</ele>
        <time>2020-02-21T11:10:23Z</time>
      </trkpt>
      <trkpt lat="38.8683940" lon="1.3265730">
        <ele>30.9</ele>
        <time>2020-02-21T11:10:24Z</time>
      </trkpt>
      <trkpt lat="38.8684280" lon="1.3265340">
        <ele>30.8</ele>
        <time>2020-02-21T11:10:25Z</time>
      </trkpt>
      <trkpt lat="38.8684650" lon="1.3264830">
        <ele>30.8</ele>
        <time>2020-02-21T11:10:26Z</time>
      </trkpt>
      <trkpt lat="38.8684960" lon="1.3264460">
        <ele>30.6</ele>
        <time>2020-02-21T11:10:27Z</time>
      </trkpt>
      <trkpt lat="38.8685260" lon="1.3264100">
        <ele>30.5</ele>
        <time>2020-02-21T11:10:28Z</time>
      </trkpt>
      <trkpt lat="38.8685610" lon="1.3263690">
        <ele>30.4</ele>
        <time>2020-02-21T11:10:29Z</time>
      </trkpt>
      <trkpt lat="38.8685840" lon="1.3263240">
        <ele>30.3</ele>
        <time>2020-02-21T11:10:30Z</time>
      </trkpt>
      <trkpt lat="38.8686160" lon="1.3262960">
        <ele>30.2</ele>
        <time>2020-02-21T11:10:31Z</time>
      </trkpt>
      <trkpt lat="38.8686470" lon="1.3262620">
        <ele>30.0</ele>
        <time>2020-02-21T11:10:32Z</time>
      </trkpt>
      <trkpt lat="38.8686770" lon="1.3262290">
        <ele>29.9</ele>
        <time>2020-02-21T11:10:33Z</time>
      </trkpt>
      <trkpt lat="38.8687070" lon="1.3262040">
        <ele>29.8</ele>
        <time>2020-02-21T11:10:34Z</time>
      </trkpt>
      <trkpt lat="38.8687390" lon="1.3261790">
        <ele>29.7</ele>
        <time>2020-02-21T11:10:35Z</time>
      </trkpt>
      <trkpt lat="38.8687760" lon="1.3261560">
        <ele>29.5</ele>
        <time>2020-02-21T11:10:36Z</time>
      </trkpt>
      <trkpt lat="38.8688140" lon="1.3261360">
        <ele>29.4</ele>
        <time>2020-02-21T11:10:37Z</time>
      </trkpt>
      <trkpt lat="38.8688410" lon="1.3261010">
        <ele>29.3</ele>
        <time>2020-02-21T11:10:38Z</time>
      </trkpt>
      <trkpt lat="38.8688640" lon="1.3260600">
        <ele>29.1</ele>
        <time>2020-02-21T11:10:39Z</time>
      </trkpt>
      <trkpt lat="38.8688830" lon="1.3260230">
        <ele>28.9</ele>
        <time>2020-02-21T11:10:40Z</time>
      </trkpt>
      <trkpt lat="38.8689060" lon="1.3259810">
        <ele>28.7</ele>
        <time>2020-02-21T11:10:41Z</time>
      </trkpt>
      <trkpt lat="38.8689380" lon="1.3259380">
        <ele>28.6</ele>
        <time>2020-02-21T11:10:42Z</time>
      </trkpt>
      <trkpt lat="38.8689740" lon="1.3258950">
        <ele>28.4</ele>
        <time>2020-02-21T11:10:43Z</time>
      </trkpt>
      <trkpt lat="38.8690060" lon="1.3258490">
        <ele>28.2</ele>
        <time>2020-02-21T11:10:44Z</time>
      </trkpt>
      <trkpt lat="38.8690370" lon="1.3258150">
        <ele>28.0</ele>
        <time>2020-02-21T11:10:45Z</time>
      </trkpt>
      <trkpt lat="38.8690720" lon="1.3257860">
        <ele>27.8</ele>
        <time>2020-02-21T11:10:46Z</time>
      </trkpt>
      <trkpt lat="38.8691110" lon="1.3257560">
        <ele>27.7</ele>
        <time>2020-02-21T11:10:47Z</time>
      </trkpt>
      <trkpt lat="38.8691610" lon="1.3257310">
        <ele>27.5</ele>
        <time>2020-02-21T11:10:48Z</time>
      </trkpt>
      <trkpt lat="38.8692120" lon="1.3256930">
        <ele>27.4</ele>
        <time>2020-02-21T11:10:49Z</time>
      </trkpt>
      <trkpt lat="38.8692550" lon="1.3256550">
        <ele>27.2</ele>
        <time>2020-02-21T11:10:50Z</time>
      </trkpt>
      <trkpt lat="38.8692940" lon="1.3256240">
        <ele>27.0</ele>
        <time>2020-02-21T11:10:51Z</time>
      </trkpt>
      <trkpt lat="38.8693400" lon="1.3256000">
        <ele>26.9</ele>
        <time>2020-02-21T11:10:52Z</time>
      </trkpt>
      <trkpt lat="38.8693810" lon="1.3255740">
        <ele>26.9</ele>
        <time>2020-02-21T11:10:53Z</time>
      </trkpt>
      <trkpt lat="38.8694130" lon="1.3255420">
        <ele>26.8</ele>
        <time>2020-02-21T11:10:54Z</time>
      </trkpt>
      <trkpt lat="38.8694440" lon="1.3254970">
        <ele>26.7</ele>
        <time>2020-02-21T11:10:55Z</time>
      </trkpt>
      <trkpt lat="38.8694800" lon="1.3254610">
        <ele>26.7</ele>
        <time>2020-02-21T11:10:56Z</time>
      </trkpt>
      <trkpt lat="38.8695140" lon="1.3254180">
        <ele>26.6</ele>
        <time>2020-02-21T11:10:57Z</time>
      </trkpt>
      <trkpt lat="38.8695370" lon="1.3253770">
        <ele>26.6</ele>
        <time>2020-02-21T11:10:58Z</time>
      </trkpt>
      <trkpt lat="38.8695700" lon="1.3253280">
        <ele>26.6</ele>
        <time>2020-02-21T11:10:59Z</time>
      </trkpt>
      <trkpt lat="38.8696000" lon="1.3252820">
        <ele>26.6</ele>
        <time>2020-02-21T11:11:00Z</time>
      </trkpt>
      <trkpt lat="38.8696310" lon="1.3252360">
        <ele>26.7</ele>
        <time>2020-02-21T11:11:01Z</time>
      </trkpt>
      <trkpt lat="38.8696470" lon="1.3251880">
        <ele>26.7</ele>
        <time>2020-02-21T11:11:02Z</time>
      </trkpt>
      <trkpt lat="38.8696620" lon="1.3251390">
        <ele>26.8</ele>
        <time>2020-02-21T11:11:03Z</time>
      </trkpt>
      <trkpt lat="38.8696710" lon="1.3250910">
        <ele>26.9</ele>
        <time>2020-02-21T11:11:04Z</time>
      </trkpt>
      <trkpt lat="38.8696770" lon="1.3250360">
        <ele>27.0</ele>
        <time>2020-02-21T11:11:05Z</time>
      </trkpt>
      <trkpt lat="38.8696870" lon="1.3249920">
        <ele>27.1</ele>
        <time>2020-02-21T11:11:06Z</time>
      </trkpt>
      <trkpt lat="38.8697050" lon="1.3249550">
        <ele>27.2</ele>
        <time>2020-02-21T11:11:07Z</time>
      </trkpt>
      <trkpt lat="38.8697300" lon="1.3249410">
        <ele>27.3</ele>
        <time>2020-02-21T11:11:08Z</time>
      </trkpt>
      <trkpt lat="38.8697640" lon="1.3249440">
        <ele>27.1</ele>
        <time>2020-02-21T11:11:09Z</time>
      </trkpt>
      <trkpt lat="38.8698070" lon="1.3249460">
        <ele>27.0</ele>
        <time>2020-02-21T11:11:10Z</time>
      </trkpt>
      <trkpt lat="38.8698540" lon="1.3249430">
        <ele>26.8</ele>
        <time>2020-02-21T11:11:11Z</time>
      </trkpt>
      <trkpt lat="38.8699000" lon="1.3249480">
        <ele>26.7</ele>
        <time>2020-02-21T11:11:12Z</time>
      </trkpt>
      <trkpt lat="38.8699490" lon="1.3249540">
        <ele>26.6</ele>
        <time>2020-02-21T11:11:13Z</time>
      </trkpt>
      <trkpt lat="38.8700000" lon="1.3249610">
        <ele>26.4</ele>
        <time>2020-02-21T11:11:14Z</time>
      </trkpt>
      <trkpt lat="38.8700450" lon="1.3249670">
        <ele>26.3</ele>
        <time>2020-02-21T11:11:15Z</time>
      </trkpt>
      <trkpt lat="38.8700980" lon="1.3249860">
        <ele>26.2</ele>
        <time>2020-02-21T11:11:16Z</time>
      </trkpt>
      <trkpt lat="38.8701480" lon="1.3249810">
        <ele>26.1</ele>
        <time>2020-02-21T11:11:17Z</time>
      </trkpt>
      <trkpt lat="38.8702000" lon="1.3249820">
        <ele>26.0</ele>
        <time>2020-02-21T11:11:18Z</time>
      </trkpt>
      <trkpt lat="38.8702570" lon="1.3249720">
        <ele>25.9</ele>
        <time>2020-02-21T11:11:19Z</time>
      </trkpt>
      <trkpt lat="38.8703100" lon="1.3249690">
        <ele>25.8</ele>
        <time>2020-02-21T11:11:20Z</time>
      </trkpt>
      <trkpt lat="38.8703600" lon="1.3249810">
        <ele>25.7</ele>
        <time>2020-02-21T11:11:21Z</time>
      </trkpt>
      <trkpt lat="38.8704090" lon="1.3249980">
        <ele>25.6</ele>
        <time>2020-02-21T11:11:22Z</time>
      </trkpt>
      <trkpt lat="38.8704630" lon="1.3250100">
        <ele>25.4</ele>
        <time>2020-02-21T11:11:23Z</time>
      </trkpt>
      <trkpt lat="38.8705160" lon="1.3250220">
        <ele>25.2</ele>
        <time>2020-02-21T11:11:24Z</time>
      </trkpt>
      <trkpt lat="38.8705760" lon="1.3250400">
        <ele>24.9</ele>
        <time>2020-02-21T11:11:25Z</time>
      </trkpt>
      <trkpt lat="38.8706300" lon="1.3250740">
        <ele>24.7</ele>
        <time>2020-02-21T11:11:26Z</time>
      </trkpt>
      <trkpt lat="38.8706730" lon="1.3250980">
        <ele>24.5</ele>
        <time>2020-02-21T11:11:27Z</time>
      </trkpt>
      <trkpt lat="38.8707190" lon="1.3251080">
        <ele>24.3</ele>
        <time>2020-02-21T11:11:28Z</time>
      </trkpt>
      <trkpt lat="38.8707710" lon="1.3251100">
        <ele>24.1</ele>
        <time>2020-02-21T11:11:29Z</time>
      </trkpt>
      <trkpt lat="38.8708020" lon="1.3250850">
        <ele>23.8</ele>
        <time>2020-02-21T11:11:30Z</time>
      </trkpt>
      <trkpt lat="38.8708100" lon="1.3250700">
        <ele>23.9</ele>
        <time>2020-02-21T11:11:31Z</time>
      </trkpt>
      <trkpt lat="38.8708280" lon="1.3250390">
        <ele>23.9</ele>
        <time>2020-02-21T11:11:32Z</time>
      </trkpt>
      <trkpt lat="38.8708460" lon="1.3249920">
        <ele>24.1</ele>
        <time>2020-02-21T11:11:33Z</time>
      </trkpt>
      <trkpt lat="38.8708520" lon="1.3249710">
        <ele>24.1</ele>
        <time>2020-02-21T11:11:34Z</time>
      </trkpt>
      <trkpt lat="38.8708540" lon="1.3249290">
        <ele>24.2</ele>
        <time>2020-02-21T11:11:35Z</time>
      </trkpt>
      <trkpt lat="38.8708620" lon="1.3248800">
        <ele>24.3</ele>
        <time>2020-02-21T11:11:36Z</time>
      </trkpt>
      <trkpt lat="38.8708640" lon="1.3248360">
        <ele>24.4</ele>
        <time>2020-02-21T11:11:37Z</time>
      </trkpt>
      <trkpt lat="38.8708640" lon="1.3247820">
        <ele>24.5</ele>
        <time>2020-02-21T11:11:38Z</time>
      </trkpt>
      <trkpt lat="38.8708700" lon="1.3247340">
        <ele>24.6</ele>
        <time>2020-02-21T11:11:39Z</time>
      </trkpt>
      <trkpt lat="38.8708740" lon="1.3246880">
        <ele>24.7</ele>
        <time>2020-02-21T11:11:40Z</time>
      </trkpt>
      <trkpt lat="38.8708740" lon="1.3246470">
        <ele>24.8</ele>
        <time>2020-02-21T11:11:41Z</time>
      </trkpt>
      <trkpt lat="38.8708750" lon="1.3246040">
        <ele>24.9</ele>
        <time>2020-02-21T11:11:42Z</time>
      </trkpt>
      <trkpt lat="38.8708620" lon="1.3245560">
        <ele>25.0</ele>
        <time>2020-02-21T11:11:43Z</time>
      </trkpt>
      <trkpt lat="38.8708600" lon="1.3245140">
        <ele>25.0</ele>
        <time>2020-02-21T11:11:44Z</time>
      </trkpt>
      <trkpt lat="38.8708540" lon="1.3244620">
        <ele>25.1</ele>
        <time>2020-02-21T11:11:45Z</time>
      </trkpt>
      <trkpt lat="38.8708510" lon="1.3244060">
        <ele>25.2</ele>
        <time>2020-02-21T11:11:46Z</time>
      </trkpt>
      <trkpt lat="38.8708430" lon="1.3243520">
        <ele>25.3</ele>
        <time>2020-02-21T11:11:47Z</time>
      </trkpt>
      <trkpt lat="38.8708480" lon="1.3243140">
        <ele>25.4</ele>
        <time>2020-02-21T11:11:48Z</time>
      </trkpt>
      <trkpt lat="38.8708510" lon="1.3242750">
        <ele>25.4</ele>
        <time>2020-02-21T11:11:49Z</time>
      </trkpt>
      <trkpt lat="38.8708490" lon="1.3242300">
        <ele>25.5</ele>
        <time>2020-02-21T11:11:50Z</time>
      </trkpt>
      <trkpt lat="38.8708420" lon="1.3241850">
        <ele>25.7</ele>
        <time>2020-02-21T11:11:51Z</time>
      </trkpt>
      <trkpt lat="38.8708400" lon="1.3241440">
        <ele>25.8</ele>
        <time>2020-02-21T11:11:52Z</time>
      </trkpt>
      <trkpt lat="38.8708380" lon="1.3241060">
        <ele>25.9</ele>
        <time>2020-02-21T11:11:53Z</time>
      </trkpt>
      <trkpt lat="38.8708370" lon="1.3240570">
        <ele>25.9</ele>
        <time>2020-02-21T11:11:54Z</time>
      </trkpt>
      <trkpt lat="38.8708380" lon="1.3240160">
        <ele>26.0</ele>
        <time>2020-02-21T11:11:55Z</time>
      </trkpt>
      <trkpt lat="38.8708380" lon="1.3239730">
        <ele>26.1</ele>
        <time>2020-02-21T11:11:56Z</time>
      </trkpt>
      <trkpt lat="38.8708380" lon="1.3239260">
        <ele>26.2</ele>
        <time>2020-02-21T11:11:57Z</time>
      </trkpt>
      <trkpt lat="38.8708420" lon="1.3238890">
        <ele>26.2</ele>
        <time>2020-02-21T11:11:58Z</time>
      </trkpt>
      <trkpt lat="38.8708500" lon="1.3238330">
        <ele>26.3</ele>
        <time>2020-02-21T11:11:59Z</time>
      </trkpt>
      <trkpt lat="38.8708530" lon="1.3237880">
        <ele>26.4</ele>
        <time>2020-02-21T11:12:00Z</time>
      </trkpt>
      <trkpt lat="38.8708560" lon="1.3237460">
        <ele>26.5</ele>
        <time>2020-02-21T11:12:01Z</time>
      </trkpt>
      <trkpt lat="38.8708640" lon="1.3237010">
        <ele>26.5</ele>
        <time>2020-02-21T11:12:02Z</time>
      </trkpt>
      <trkpt lat="38.8708620" lon="1.3236540">
        <ele>26.6</ele>
        <time>2020-02-21T11:12:03Z</time>
      </trkpt>
      <trkpt lat="38.8708720" lon="1.3235940">
        <ele>26.8</ele>
        <time>2020-02-21T11:12:04Z</time>
      </trkpt>
      <trkpt lat="38.8708850" lon="1.3235660">
        <ele>26.9</ele>
        <time>2020-02-21T11:12:05Z</time>
      </trkpt>
      <trkpt lat="38.8708880" lon="1.3235260">
        <ele>27.0</ele>
        <time>2020-02-21T11:12:06Z</time>
      </trkpt>
      <trkpt lat="38.8708840" lon="1.3234810">
        <ele>27.1</ele>
        <time>2020-02-21T11:12:07Z</time>
      </trkpt>
      <trkpt lat="38.8708870" lon="1.3234250">
        <ele>27.2</ele>
        <time>2020-02-21T11:12:08Z</time>
      </trkpt>
      <trkpt lat="38.8708900" lon="1.3233690">
        <ele>27.3</ele>
        <time>2020-02-21T11:12:09Z</time>
      </trkpt>
      <trkpt lat="38.8708980" lon="1.3233150">
        <ele>27.5</ele>
        <time>2020-02-21T11:12:10Z</time>
      </trkpt>
      <trkpt lat="38.8709020" lon="1.3232640">
        <ele>27.6</ele>
        <time>2020-02-21T11:12:11Z</time>
      </trkpt>
      <trkpt lat="38.8708990" lon="1.3232250">
        <ele>27.6</ele>
        <time>2020-02-21T11:12:12Z</time>
      </trkpt>
      <trkpt lat="38.8709040" lon="1.3231900">
        <ele>27.7</ele>
        <time>2020-02-21T11:12:13Z</time>
      </trkpt>
      <trkpt lat="38.8709080" lon="1.3231510">
        <ele>27.8</ele>
        <time>2020-02-21T11:12:14Z</time>
      </trkpt>
      <trkpt lat="38.8709140" lon="1.3230980">
        <ele>27.8</ele>
        <time>2020-02-21T11:12:15Z</time>
      </trkpt>
      <trkpt lat="38.8709150" lon="1.3230520">
        <ele>27.9</ele>
        <time>2020-02-21T11:12:16Z</time>
      </trkpt>
      <trkpt lat="38.8709200" lon="1.3229990">
        <ele>28.0</ele>
        <time>2020-02-21T11:12:17Z</time>
      </trkpt>
      <trkpt lat="38.8709240" lon="1.3229440">
        <ele>28.1</ele>
        <time>2020-02-21T11:12:18Z</time>
      </trkpt>
      <trkpt lat="38.8709200" lon="1.3228910">
        <ele>28.1</ele>
        <time>2020-02-21T11:12:19Z</time>
      </trkpt>
      <trkpt lat="38.8709170" lon="1.3228380">
        <ele>28.2</ele>
        <time>2020-02-21T11:12:20Z</time>
      </trkpt>
      <trkpt lat="38.8709140" lon="1.3227960">
        <ele>28.2</ele>
        <time>2020-02-21T11:12:21Z</time>
      </trkpt>
      <trkpt lat="38.8709170" lon="1.3227430">
        <ele>28.3</ele>
        <time>2020-02-21T11:12:22Z</time>
      </trkpt>
      <trkpt lat="38.8709110" lon="1.3226940">
        <ele>28.3</ele>
        <time>2020-02-21T11:12:23Z</time>
      </trkpt>
      <trkpt lat="38.8708960" lon="1.3226410">
        <ele>28.4</ele>
        <time>2020-02-21T11:12:24Z</time>
      </trkpt>
      <trkpt lat="38.8708850" lon="1.3225910">
        <ele>28.3</ele>
        <time>2020-02-21T11:12:25Z</time>
      </trkpt>
      <trkpt lat="38.8708770" lon="1.3225300">
        <ele>28.3</ele>
        <time>2020-02-21T11:12:26Z</time>
      </trkpt>
      <trkpt lat="38.8708580" lon="1.3224820">
        <ele>28.3</ele>
        <time>2020-02-21T11:12:27Z</time>
      </trkpt>
      <trkpt lat="38.8708370" lon="1.3224340">
        <ele>28.3</ele>
        <time>2020-02-21T11:12:28Z</time>
      </trkpt>
      <trkpt lat="38.8708170" lon="1.3223840">
        <ele>28.2</ele>
        <time>2020-02-21T11:12:29Z</time>
      </trkpt>
      <trkpt lat="38.8708040" lon="1.3223250">
        <ele>28.1</ele>
        <time>2020-02-21T11:12:30Z</time>
      </trkpt>
      <trkpt lat="38.8707870" lon="1.3222720">
        <ele>28.0</ele>
        <time>2020-02-21T11:12:31Z</time>
      </trkpt>
      <trkpt lat="38.8707540" lon="1.3222110">
        <ele>27.8</ele>
        <time>2020-02-21T11:12:32Z</time>
      </trkpt>
      <trkpt lat="38.8707380" lon="1.3221500">
        <ele>27.6</ele>
        <time>2020-02-21T11:12:33Z</time>
      </trkpt>
      <trkpt lat="38.8707090" lon="1.3220920">
        <ele>27.3</ele>
        <time>2020-02-21T11:12:34Z</time>
      </trkpt>
      <trkpt lat="38.8706750" lon="1.3220330">
        <ele>27.0</ele>
        <time>2020-02-21T11:12:35Z</time>
      </trkpt>
      <trkpt lat="38.8706370" lon="1.3219730">
        <ele>26.5</ele>
        <time>2020-02-21T11:12:36Z</time>
      </trkpt>
      <trkpt lat="38.8705920" lon="1.3219030">
        <ele>25.9</ele>
        <time>2020-02-21T11:12:37Z</time>
      </trkpt>
      <trkpt lat="38.8705560" lon="1.3218420">
        <ele>25.4</ele>
        <time>2020-02-21T11:12:38Z</time>
      </trkpt>
      <trkpt lat="38.8705210" lon="1.3217740">
        <ele>24.8</ele>
        <time>2020-02-21T11:12:39Z</time>
      </trkpt>
      <trkpt lat="38.8704890" lon="1.3217120">
        <ele>24.2</ele>
        <time>2020-02-21T11:12:40Z</time>
      </trkpt>
      <trkpt lat="38.8704460" lon="1.3216460">
        <ele>23.4</ele>
        <time>2020-02-21T11:12:41Z</time>
      </trkpt>
      <trkpt lat="38.8704190" lon="1.3215440">
        <ele>22.5</ele>
        <time>2020-02-21T11:12:42Z</time>
      </trkpt>
      <trkpt lat="38.8703920" lon="1.3214410">
        <ele>21.4</ele>
        <time>2020-02-21T11:12:43Z</time>
      </trkpt>
      <trkpt lat="38.8703640" lon="1.3213190">
        <ele>20.1</ele>
        <time>2020-02-21T11:12:44Z</time>
      </trkpt>
      <trkpt lat="38.8703360" lon="1.3211770">
        <ele>18.5</ele>
        <time>2020-02-21T11:12:45Z</time>
      </trkpt>
      <trkpt lat="38.8703080" lon="1.3210320">
        <ele>16.8</ele>
        <time>2020-02-21T11:12:46Z</time>
      </trkpt>
      <trkpt lat="38.8702790" lon="1.3208910">
        <ele>15.2</ele>
        <time>2020-02-21T11:12:47Z</time>
      </trkpt>
      <trkpt lat="38.8702450" lon="1.3207540">
        <ele>13.7</ele>
        <time>2020-02-21T11:12:48Z</time>
      </trkpt>
      <trkpt lat="38.8702130" lon="1.3206200">
        <ele>12.2</ele>
        <time>2020-02-21T11:12:49Z</time>
      </trkpt>
      <trkpt lat="38.8701840" lon="1.3204880">
        <ele>10.9</ele>
        <time>2020-02-21T11:12:50Z</time>
      </trkpt>
      <trkpt lat="38.8701540" lon="1.3203590">
        <ele>9.6</ele>
        <time>2020-02-21T11:12:51Z</time>
      </trkpt>
      <trkpt lat="38.8701300" lon="1.3202270">
        <ele>8.6</ele>
        <time>2020-02-21T11:12:52Z</time>
      </trkpt>
      <trkpt lat="38.8701000" lon="1.3200870">
        <ele>7.8</ele>
        <time>2020-02-21T11:12:53Z</time>
      </trkpt>
      <trkpt lat="38.8700660" lon="1.3199450">
        <ele>7.2</ele>
        <time>2020-02-21T11:12:54Z</time>
      </trkpt>
      <trkpt lat="38.8700150" lon="1.3198120">
        <ele>6.6</ele>
        <time>2020-02-21T11:12:55Z</time>
      </trkpt>
      <trkpt lat="38.8699340" lon="1.3197180">
        <ele>6.3</ele>
        <time>2020-02-21T11:12:56Z</time>
      </trkpt>
      <trkpt lat="38.8698540" lon="1.3196240">
        <ele>5.9</ele>
        <time>2020-02-21T11:12:57Z</time>
      </trkpt>
      <trkpt lat="38.8697910" lon="1.3195180">
        <ele>5.7</ele>
        <time>2020-02-21T11:12:58Z</time>
      </trkpt>
      <trkpt lat="38.8697610" lon="1.3193910">
        <ele>5.4</ele>
        <time>2020-02-21T11:12:59Z</time>
      </trkpt>
      <trkpt lat="38.8697660" lon="1.3192730">
        <ele>5.3</ele>
        <time>2020-02-21T11:13:00Z</time>
      </trkpt>
      <trkpt lat="38.8697730" lon="1.3191570">
        <ele>5.1</ele>
        <time>2020-02-21T11:13:01Z</time>
      </trkpt>
      <trkpt lat="38.8698130" lon="1.3190570">
        <ele>5.0</ele>
        <time>2020-02-21T11:13:02Z</time>
      </trkpt>
      <trkpt lat="38.8698510" lon="1.3189550">
        <ele>4.8</ele>
        <time>2020-02-21T11:13:03Z</time>
      </trkpt>
      <trkpt lat="38.8698870" lon="1.3188610">
        <ele>4.7</ele>
        <time>2020-02-21T11:13:04Z</time>
      </trkpt>
      <trkpt lat="38.8699240" lon="1.3187770">
        <ele>4.6</ele>
        <time>2020-02-21T11:13:05Z</time>
      </trkpt>
      <trkpt lat="38.8699580" lon="1.3186960">
        <ele>4.5</ele>
        <time>2020-02-21T11:13:06Z</time>
      </trkpt>
      <trkpt lat="38.8699890" lon="1.3186180">
        <ele>4.4</ele>
        <time>2020-02-21T11:13:07Z</time>
      </trkpt>
      <trkpt lat="38.8700250" lon="1.3185460">
        <ele>4.3</ele>
        <time>2020-02-21T11:13:08Z</time>
      </trkpt>
      <trkpt lat="38.8700540" lon="1.3184790">
        <ele>4.2</ele>
        <time>2020-02-21T11:13:09Z</time>
      </trkpt>
      <trkpt lat="38.8700860" lon="1.3184330">
        <ele>4.1</ele>
        <time>2020-02-21T11:13:10Z</time>
      </trkpt>
      <trkpt lat="38.8701000" lon="1.3183950">
        <ele>4.1</ele>
        <time>2020-02-21T11:13:11Z</time>
      </trkpt>
      <trkpt lat="38.8701020" lon="1.3183770">
        <ele>4.1</ele>
        <time>2020-02-21T11:13:12Z</time>
      </trkpt>
      <trkpt lat="38.8701010" lon="1.3183850">
        <ele>4.1</ele>
        <time>2020-02-21T11:13:13Z</time>
      </trkpt>
      <trkpt lat="38.8701030" lon="1.3183840">
        <ele>4.1</ele>
        <time>2020-02-21T11:13:14Z</time>
      </trkpt>
      <trkpt lat="38.8701030" lon="1.3183810">
        <ele>4.1</ele>
        <time>2020-02-21T11:13:15Z</time>
      </trkpt>
      <trkpt lat="38.8701250" lon="1.3183790">
        <ele>4.0</ele>
        <time>2020-02-21T11:13:16Z</time>
      </trkpt>
      <trkpt lat="38.8701230" lon="1.3183780">
        <ele>4.0</ele>
        <time>2020-02-21T11:13:17Z</time>
      </trkpt>
      <trkpt lat="38.8701020" lon="1.3183820">
        <ele>4.0</ele>
        <time>2020-02-21T11:13:18Z</time>
      </trkpt>
      <trkpt lat="38.8700950" lon="1.3183810">
        <ele>4.0</ele>
        <time>2020-02-21T11:13:19Z</time>
      </trkpt>
      <trkpt lat="38.8700940" lon="1.3183610">
        <ele>4.0</ele>
        <time>2020-02-21T11:13:20Z</time>
      </trkpt>
      <trkpt lat="38.8700900" lon="1.3183450">
        <ele>4.0</ele>
        <time>2020-02-21T11:13:21Z</time>
      </trkpt>
      <trkpt lat="38.8700870" lon="1.3183280">
        <ele>3.6</ele>
        <time>2020-02-21T11:13:22Z</time>
      </trkpt>
      <trkpt lat="38.8700840" lon="1.3183120">
        <ele>3.6</ele>
        <time>2020-02-21T11:13:23Z</time>
      </trkpt>
      <trkpt lat="38.8700800" lon="1.3182950">
        <ele>3.5</ele>
        <time>2020-02-21T11:14:10Z</time>
      </trkpt>
      <trkpt lat="38.8700770" lon="1.3182790">
        <ele>3.5</ele>
        <time>2020-02-21T11:14:11Z</time>
      </trkpt>
      <trkpt lat="38.8700410" lon="1.3182680">
        <ele>3.3</ele>
        <time>2020-02-21T11:14:12Z</time>
      </trkpt>
      <trkpt lat="38.8700000" lon="1.3182350">
        <ele>3.1</ele>
        <time>2020-02-21T11:14:13Z</time>
      </trkpt>
      <trkpt lat="38.8699550" lon="1.3182120">
        <ele>2.9</ele>
        <time>2020-02-21T11:14:14Z</time>
      </trkpt>
      <trkpt lat="38.8699140" lon="1.3181860">
        <ele>2.6</ele>
        <time>2020-02-21T11:14:15Z</time>
      </trkpt>
      <trkpt lat="38.8698700" lon="1.3181660">
        <ele>2.4</ele>
        <time>2020-02-21T11:14:16Z</time>
      </trkpt>
      <trkpt lat="38.8698220" lon="1.3181320">
        <ele>2.1</ele>
        <time>2020-02-21T11:14:17Z</time>
      </trkpt>
      <trkpt lat="38.8697690" lon="1.3180950">
        <ele>1.8</ele>
        <time>2020-02-21T11:14:18Z</time>
      </trkpt>
      <trkpt lat="38.8697140" lon="1.3180540">
        <ele>1.5</ele>
        <time>2020-02-21T11:14:19Z</time>
      </trkpt>
      <trkpt lat="38.8696620" lon="1.3180180">
        <ele>1.3</ele>
        <time>2020-02-21T11:14:20Z</time>
      </trkpt>
      <trkpt lat="38.8696310" lon="1.3179920">
        <ele>1.3</ele>
        <time>2020-02-21T11:14:21Z</time>
      </trkpt>
      <trkpt lat="38.8696080" lon="1.3179730">
        <ele>1.2</ele>
        <time>2020-02-21T11:14:22Z</time>
      </trkpt>
      <trkpt lat="38.8695990" lon="1.3179690">
        <ele>1.2</ele>
        <time>2020-02-21T11:14:23Z</time>
      </trkpt>
      <trkpt lat="38.8695720" lon="1.3179440">
        <ele>1.3</ele>
        <time>2020-02-21T11:14:24Z</time>
      </trkpt>
      <trkpt lat="38.8695620" lon="1.3179380">
        <ele>1.3</ele>
        <time>2020-02-21T11:14:25Z</time>
      </trkpt>
      <trkpt lat="38.8695360" lon="1.3179160">
        <ele>1.3</ele>
        <time>2020-02-21T11:14:26Z</time>
      </trkpt>
      <trkpt lat="38.8695270" lon="1.3179110">
        <ele>1.3</ele>
        <time>2020-02-21T11:14:27Z</time>
      </trkpt>
      <trkpt lat="38.8695070" lon="1.3179080">
        <ele>1.4</ele>
        <time>2020-02-21T11:14:28Z</time>
      </trkpt>
      <trkpt lat="38.8695010" lon="1.3179180">
        <ele>1.4</ele>
        <time>2020-02-21T11:14:29Z</time>
      </trkpt>
      <trkpt lat="38.8695000" lon="1.3179210">
        <ele>1.4</ele>
        <time>2020-02-21T11:14:30Z</time>
      </trkpt>
      <trkpt lat="38.8695210" lon="1.3179440">
        <ele>1.5</ele>
        <time>2020-02-21T11:14:31Z</time>
      </trkpt>
      <trkpt lat="38.8695320" lon="1.3179460">
        <ele>1.5</ele>
        <time>2020-02-21T11:14:32Z</time>
      </trkpt>
      <trkpt lat="38.8695730" lon="1.3179530">
        <ele>1.6</ele>
        <time>2020-02-21T11:14:33Z</time>
      </trkpt>
      <trkpt lat="38.8695870" lon="1.3179540">
        <ele>1.6</ele>
        <time>2020-02-21T11:14:34Z</time>
      </trkpt>
      <trkpt lat="38.8696140" lon="1.3179680">
        <ele>1.7</ele>
        <time>2020-02-21T11:14:35Z</time>
      </trkpt>
      <trkpt lat="38.8696380" lon="1.3179980">
        <ele>1.8</ele>
        <time>2020-02-21T11:14:36Z</time>
      </trkpt>
      <trkpt lat="38.8696610" lon="1.3180310">
        <ele>1.9</ele>
        <time>2020-02-21T11:14:37Z</time>
      </trkpt>
      <trkpt lat="38.8696770" lon="1.3180700">
        <ele>2.1</ele>
        <time>2020-02-21T11:14:38Z</time>
      </trkpt>
      <trkpt lat="38.8697120" lon="1.3180910">
        <ele>2.2</ele>
        <time>2020-02-21T11:14:39Z</time>
      </trkpt>
      <trkpt lat="38.8697240" lon="1.3180980">
        <ele>2.3</ele>
        <time>2020-02-21T11:14:40Z</time>
      </trkpt>
      <trkpt lat="38.8697510" lon="1.3181180">
        <ele>2.4</ele>
        <time>2020-02-21T11:14:41Z</time>
      </trkpt>
      <trkpt lat="38.8697810" lon="1.3181460">
        <ele>2.5</ele>
        <time>2020-02-21T11:14:42Z</time>
      </trkpt>
      <trkpt lat="38.8698120" lon="1.3181660">
        <ele>2.6</ele>
        <time>2020-02-21T11:14:43Z</time>
      </trkpt>
      <trkpt lat="38.8698370" lon="1.3181870">
        <ele>2.8</ele>
        <time>2020-02-21T11:14:44Z</time>
      </trkpt>
      <trkpt lat="38.8698640" lon="1.3181960">
        <ele>2.9</ele>
        <time>2020-02-21T11:14:45Z</time>
      </trkpt>
      <trkpt lat="38.8698870" lon="1.3182140">
        <ele>2.9</ele>
        <time>2020-02-21T11:14:46Z</time>
      </trkpt>
      <trkpt lat="38.8699230" lon="1.3182320">
        <ele>3.1</ele>
        <time>2020-02-21T11:14:47Z</time>
      </trkpt>
      <trkpt lat="38.8699350" lon="1.3182350">
        <ele>3.1</ele>
        <time>2020-02-21T11:14:48Z</time>
      </trkpt>
      <trkpt lat="38.8699680" lon="1.3182520">
        <ele>3.2</ele>
        <time>2020-02-21T11:14:49Z</time>
      </trkpt>
      <trkpt lat="38.8699790" lon="1.3182550">
        <ele>3.2</ele>
        <time>2020-02-21T11:14:50Z</time>
      </trkpt>
      <trkpt lat="38.8700100" lon="1.3182820">
        <ele>3.3</ele>
        <time>2020-02-21T11:14:51Z</time>
      </trkpt>
      <trkpt lat="38.8700170" lon="1.3182970">
        <ele>3.4</ele>
        <time>2020-02-21T11:14:52Z</time>
      </trkpt>
      <trkpt lat="38.8700430" lon="1.3183130">
        <ele>3.5</ele>
        <time>2020-02-21T11:14:53Z</time>
      </trkpt>
      <trkpt lat="38.8700640" lon="1.3183220">
        <ele>3.5</ele>
        <time>2020-02-21T11:14:54Z</time>
      </trkpt>
      <trkpt lat="38.8700770" lon="1.3183110">
        <ele>3.6</ele>
        <time>2020-02-21T11:14:55Z</time>
      </trkpt>
      <trkpt lat="38.8701110" lon="1.3182790">
        <ele>4.0</ele>
        <time>2020-02-21T11:14:56Z</time>
      </trkpt>
      <trkpt lat="38.8701220" lon="1.3182660">
        <ele>4.1</ele>
        <time>2020-02-21T11:14:57Z</time>
      </trkpt>
      <trkpt lat="38.8701340" lon="1.3182360">
        <ele>4.3</ele>
        <time>2020-02-21T11:14:58Z</time>
      </trkpt>
      <trkpt lat="38.8701450" lon="1.3181960">
        <ele>4.4</ele>
        <time>2020-02-21T11:14:59Z</time>
      </trkpt>
      <trkpt lat="38.8701510" lon="1.3181570">
        <ele>4.6</ele>
        <time>2020-02-21T11:15:00Z</time>
      </trkpt>
      <trkpt lat="38.8701620" lon="1.3181120">
        <ele>4.8</ele>
        <time>2020-02-21T11:15:01Z</time>
      </trkpt>
      <trkpt lat="38.8701650" lon="1.3180960">
        <ele>4.9</ele>
        <time>2020-02-21T11:15:02Z</time>
      </trkpt>
      <trkpt lat="38.8701800" lon="1.3180550">
        <ele>5.2</ele>
        <time>2020-02-21T11:15:03Z</time>
      </trkpt>
      <trkpt lat="38.8701940" lon="1.3180080">
        <ele>5.3</ele>
        <time>2020-02-21T11:15:04Z</time>
      </trkpt>
      <trkpt lat="38.8701940" lon="1.3179660">
        <ele>5.5</ele>
        <time>2020-02-21T11:15:05Z</time>
      </trkpt>
      <trkpt lat="38.8702050" lon="1.3179290">
        <ele>5.6</ele>
        <time>2020-02-21T11:15:06Z</time>
      </trkpt>
      <trkpt lat="38.8702160" lon="1.3178870">
        <ele>5.7</ele>
        <time>2020-02-21T11:15:07Z</time>
      </trkpt>
      <trkpt lat="38.8702280" lon="1.3178460">
        <ele>5.8</ele>
        <time>2020-02-21T11:15:08Z</time>
      </trkpt>
      <trkpt lat="38.8702350" lon="1.3178000">
        <ele>6.0</ele>
        <time>2020-02-21T11:15:09Z</time>
      </trkpt>
      <trkpt lat="38.8702420" lon="1.3177550">
        <ele>6.1</ele>
        <time>2020-02-21T11:15:10Z</time>
      </trkpt>
      <trkpt lat="38.8702560" lon="1.3177080">
        <ele>6.3</ele>
        <time>2020-02-21T11:15:11Z</time>
      </trkpt>
      <trkpt lat="38.8702660" lon="1.3176610">
        <ele>6.2</ele>
        <time>2020-02-21T11:15:12Z</time>
      </trkpt>
      <trkpt lat="38.8702780" lon="1.3176120">
        <ele>6.2</ele>
        <time>2020-02-21T11:15:13Z</time>
      </trkpt>
      <trkpt lat="38.8702860" lon="1.3175620">
        <ele>6.2</ele>
        <time>2020-02-21T11:15:14Z</time>
      </trkpt>
      <trkpt lat="38.8702920" lon="1.3175120">
        <ele>6.2</ele>
        <time>2020-02-21T11:15:15Z</time>
      </trkpt>
      <trkpt lat="38.8703110" lon="1.3174640">
        <ele>6.2</ele>
        <time>2020-02-21T11:15:16Z</time>
      </trkpt>
      <trkpt lat="38.8703080" lon="1.3174180">
        <ele>6.2</ele>
        <time>2020-02-21T11:15:17Z</time>
      </trkpt>
      <trkpt lat="38.8703000" lon="1.3173710">
        <ele>6.2</ele>
        <time>2020-02-21T11:15:18Z</time>
      </trkpt>
      <trkpt lat="38.8702870" lon="1.3173250">
        <ele>6.2</ele>
        <time>2020-02-21T11:15:19Z</time>
      </trkpt>
      <trkpt lat="38.8702660" lon="1.3172870">
        <ele>6.2</ele>
        <time>2020-02-21T11:15:20Z</time>
      </trkpt>
      <trkpt lat="38.8702370" lon="1.3172640">
        <ele>6.1</ele>
        <time>2020-02-21T11:15:21Z</time>
      </trkpt>
      <trkpt lat="38.8702000" lon="1.3172540">
        <ele>6.1</ele>
        <time>2020-02-21T11:15:22Z</time>
      </trkpt>
      <trkpt lat="38.8701630" lon="1.3172440">
        <ele>6.1</ele>
        <time>2020-02-21T11:15:23Z</time>
      </trkpt>
      <trkpt lat="38.8701250" lon="1.3172320">
        <ele>6.1</ele>
        <time>2020-02-21T11:15:24Z</time>
      </trkpt>
      <trkpt lat="38.8700890" lon="1.3172080">
        <ele>6.1</ele>
        <time>2020-02-21T11:15:25Z</time>
      </trkpt>
      <trkpt lat="38.8700510" lon="1.3171880">
        <ele>6.0</ele>
        <time>2020-02-21T11:15:26Z</time>
      </trkpt>
      <trkpt lat="38.8700140" lon="1.3171690">
        <ele>6.0</ele>
        <time>2020-02-21T11:15:27Z</time>
      </trkpt>
      <trkpt lat="38.8699760" lon="1.3171550">
        <ele>5.9</ele>
        <time>2020-02-21T11:15:28Z</time>
      </trkpt>
      <trkpt lat="38.8699420" lon="1.3171350">
        <ele>5.8</ele>
        <time>2020-02-21T11:15:29Z</time>
      </trkpt>
      <trkpt lat="38.8699110" lon="1.3170990">
        <ele>5.7</ele>
        <time>2020-02-21T11:15:30Z</time>
      </trkpt>
      <trkpt lat="38.8698790" lon="1.3170670">
        <ele>5.5</ele>
        <time>2020-02-21T11:15:31Z</time>
      </trkpt>
      <trkpt lat="38.8698440" lon="1.3170420">
        <ele>5.4</ele>
        <time>2020-02-21T11:15:32Z</time>
      </trkpt>
      <trkpt lat="38.8698090" lon="1.3170160">
        <ele>5.2</ele>
        <time>2020-02-21T11:15:33Z</time>
      </trkpt>
      <trkpt lat="38.8697640" lon="1.3169990">
        <ele>4.9</ele>
        <time>2020-02-21T11:15:34Z</time>
      </trkpt>
      <trkpt lat="38.8697340" lon="1.3169630">
        <ele>4.7</ele>
        <time>2020-02-21T11:15:35Z</time>
      </trkpt>
      <trkpt lat="38.8697050" lon="1.3169250">
        <ele>4.5</ele>
        <time>2020-02-21T11:15:36Z</time>
      </trkpt>
      <trkpt lat="38.8696830" lon="1.3168810">
        <ele>4.4</ele>
        <time>2020-02-21T11:15:37Z</time>
      </trkpt>
      <trkpt lat="38.8696720" lon="1.3168310">
        <ele>4.2</ele>
        <time>2020-02-21T11:15:38Z</time>
      </trkpt>
      <trkpt lat="38.8696710" lon="1.3167760">
        <ele>4.1</ele>
        <time>2020-02-21T11:15:39Z</time>
      </trkpt>
      <trkpt lat="38.8696710" lon="1.3167210">
        <ele>4.1</ele>
        <time>2020-02-21T11:15:40Z</time>
      </trkpt>
      <trkpt lat="38.8696800" lon="1.3166680">
        <ele>4.0</ele>
        <time>2020-02-21T11:15:41Z</time>
      </trkpt>
      <trkpt lat="38.8696890" lon="1.3166080">
        <ele>4.0</ele>
        <time>2020-02-21T11:15:42Z</time>
      </trkpt>
      <trkpt lat="38.8697030" lon="1.3165500">
        <ele>3.9</ele>
        <time>2020-02-21T11:15:43Z</time>
      </trkpt>
      <trkpt lat="38.8697120" lon="1.3164850">
        <ele>3.9</ele>
        <time>2020-02-21T11:15:44Z</time>
      </trkpt>
      <trkpt lat="38.8697160" lon="1.3164110">
        <ele>3.9</ele>
        <time>2020-02-21T11:15:45Z</time>
      </trkpt>
      <trkpt lat="38.8697150" lon="1.3163310">
        <ele>3.9</ele>
        <time>2020-02-21T11:15:46Z</time>
      </trkpt>
      <trkpt lat="38.8697230" lon="1.3162500">
        <ele>4.2</ele>
        <time>2020-02-21T11:15:47Z</time>
      </trkpt>
      <trkpt lat="38.8697280" lon="1.3161680">
        <ele>4.5</ele>
        <time>2020-02-21T11:15:48Z</time>
      </trkpt>
      <trkpt lat="38.8697260" lon="1.3160870">
        <ele>4.6</ele>
        <time>2020-02-21T11:15:49Z</time>
      </trkpt>
      <trkpt lat="38.8697250" lon="1.3160080">
        <ele>4.7</ele>
        <time>2020-02-21T11:15:50Z</time>
      </trkpt>
      <trkpt lat="38.8697350" lon="1.3159300">
        <ele>4.8</ele>
        <time>2020-02-21T11:15:51Z</time>
      </trkpt>
      <trkpt lat="38.8697320" lon="1.3158530">
        <ele>4.8</ele>
        <time>2020-02-21T11:15:52Z</time>
      </trkpt>
      <trkpt lat="38.8697340" lon="1.3157750">
        <ele>4.7</ele>
        <time>2020-02-21T11:15:53Z</time>
      </trkpt>
      <trkpt lat="38.8697420" lon="1.3156950">
        <ele>4.7</ele>
        <time>2020-02-21T11:15:54Z</time>
      </trkpt>
      <trkpt lat="38.8697420" lon="1.3156180">
        <ele>4.6</ele>
        <time>2020-02-21T11:15:55Z</time>
      </trkpt>
      <trkpt lat="38.8697400" lon="1.3155400">
        <ele>4.4</ele>
        <time>2020-02-21T11:15:56Z</time>
      </trkpt>
      <trkpt lat="38.8697380" lon="1.3154650">
        <ele>4.4</ele>
        <time>2020-02-21T11:15:57Z</time>
      </trkpt>
      <trkpt lat="38.8697450" lon="1.3153920">
        <ele>4.3</ele>
        <time>2020-02-21T11:15:58Z</time>
      </trkpt>
      <trkpt lat="38.8697410" lon="1.3153190">
        <ele>4.3</ele>
        <time>2020-02-21T11:15:59Z</time>
      </trkpt>
      <trkpt lat="38.8697400" lon="1.3152480">
        <ele>4.4</ele>
        <time>2020-02-21T11:16:00Z</time>
      </trkpt>
      <trkpt lat="38.8697370" lon="1.3151770">
        <ele>4.6</ele>
        <time>2020-02-21T11:16:01Z</time>
      </trkpt>
      <trkpt lat="38.8697280" lon="1.3151040">
        <ele>4.8</ele>
        <time>2020-02-21T11:16:02Z</time>
      </trkpt>
      <trkpt lat="38.8697210" lon="1.3150340">
        <ele>5.0</ele>
        <time>2020-02-21T11:16:03Z</time>
      </trkpt>
      <trkpt lat="38.8697160" lon="1.3149630">
        <ele>5.3</ele>
        <time>2020-02-21T11:16:04Z</time>
      </trkpt>
      <trkpt lat="38.8697130" lon="1.3148930">
        <ele>5.7</ele>
        <time>2020-02-21T11:16:05Z</time>
      </trkpt>
      <trkpt lat="38.8697120" lon="1.3148260">
        <ele>6.0</ele>
        <time>2020-02-21T11:16:06Z</time>
      </trkpt>
      <trkpt lat="38.8697150" lon="1.3147580">
        <ele>6.4</ele>
        <time>2020-02-21T11:16:07Z</time>
      </trkpt>
      <trkpt lat="38.8697130" lon="1.3146900">
        <ele>6.8</ele>
        <time>2020-02-21T11:16:08Z</time>
      </trkpt>
      <trkpt lat="38.8697100" lon="1.3146190">
        <ele>7.2</ele>
        <time>2020-02-21T11:16:09Z</time>
      </trkpt>
      <trkpt lat="38.8697050" lon="1.3145500">
        <ele>7.6</ele>
        <time>2020-02-21T11:16:10Z</time>
      </trkpt>
      <trkpt lat="38.8697120" lon="1.3144820">
        <ele>8.0</ele>
        <time>2020-02-21T11:16:11Z</time>
      </trkpt>
      <trkpt lat="38.8697180" lon="1.3144170">
        <ele>8.3</ele>
        <time>2020-02-21T11:16:12Z</time>
      </trkpt>
      <trkpt lat="38.8697380" lon="1.3143670">
        <ele>8.5</ele>
        <time>2020-02-21T11:16:13Z</time>
      </trkpt>
      <trkpt lat="38.8697560" lon="1.3143250">
        <ele>8.7</ele>
        <time>2020-02-21T11:16:14Z</time>
      </trkpt>
      <trkpt lat="38.8697700" lon="1.3142860">
        <ele>8.9</ele>
        <time>2020-02-21T11:16:15Z</time>
      </trkpt>
      <trkpt lat="38.8697950" lon="1.3142480">
        <ele>9.1</ele>
        <time>2020-02-21T11:16:16Z</time>
      </trkpt>
      <trkpt lat="38.8698020" lon="1.3142360">
        <ele>9.1</ele>
        <time>2020-02-21T11:16:17Z</time>
      </trkpt>
      <trkpt lat="38.8698190" lon="1.3141930">
        <ele>9.3</ele>
        <time>2020-02-21T11:16:18Z</time>
      </trkpt>
      <trkpt lat="38.8698240" lon="1.3141780">
        <ele>9.4</ele>
        <time>2020-02-21T11:16:19Z</time>
      </trkpt>
      <trkpt lat="38.8698440" lon="1.3141400">
        <ele>9.6</ele>
        <time>2020-02-21T11:16:20Z</time>
      </trkpt>
      <trkpt lat="38.8698540" lon="1.3141320">
        <ele>9.7</ele>
        <time>2020-02-21T11:16:21Z</time>
      </trkpt>
      <trkpt lat="38.8698820" lon="1.3141160">
        <ele>9.9</ele>
        <time>2020-02-21T11:16:22Z</time>
      </trkpt>
      <trkpt lat="38.8698880" lon="1.3141060">
        <ele>10.0</ele>
        <time>2020-02-21T11:16:23Z</time>
      </trkpt>
      <trkpt lat="38.8699220" lon="1.3140910">
        <ele>10.3</ele>
        <time>2020-02-21T11:16:24Z</time>
      </trkpt>
      <trkpt lat="38.8699350" lon="1.3140890">
        <ele>10.4</ele>
        <time>2020-02-21T11:16:25Z</time>
      </trkpt>
      <trkpt lat="38.8699570" lon="1.3140680">
        <ele>10.7</ele>
        <time>2020-02-21T11:16:26Z</time>
      </trkpt>
      <trkpt lat="38.8699870" lon="1.3140420">
        <ele>11.0</ele>
        <time>2020-02-21T11:16:27Z</time>
      </trkpt>
      <trkpt lat="38.8699970" lon="1.3140350">
        <ele>11.1</ele>
        <time>2020-02-21T11:16:28Z</time>
      </trkpt>
      <trkpt lat="38.8700320" lon="1.3140120">
        <ele>11.4</ele>
        <time>2020-02-21T11:16:29Z</time>
      </trkpt>
      <trkpt lat="38.8700420" lon="1.3140020">
        <ele>11.6</ele>
        <time>2020-02-21T11:16:30Z</time>
      </trkpt>
      <trkpt lat="38.8700740" lon="1.3139950">
        <ele>12.0</ele>
        <time>2020-02-21T11:16:31Z</time>
      </trkpt>
      <trkpt lat="38.8701100" lon="1.3139750">
        <ele>12.4</ele>
        <time>2020-02-21T11:16:32Z</time>
      </trkpt>
      <trkpt lat="38.8701230" lon="1.3139650">
        <ele>12.6</ele>
        <time>2020-02-21T11:16:33Z</time>
      </trkpt>
      <trkpt lat="38.8701470" lon="1.3139470">
        <ele>13.0</ele>
        <time>2020-02-21T11:16:34Z</time>
      </trkpt>
      <trkpt lat="38.8701830" lon="1.3139300">
        <ele>13.4</ele>
        <time>2020-02-21T11:16:35Z</time>
      </trkpt>
      <trkpt lat="38.8701950" lon="1.3139270">
        <ele>13.6</ele>
        <time>2020-02-21T11:16:36Z</time>
      </trkpt>
      <trkpt lat="38.8702320" lon="1.3139150">
        <ele>14.1</ele>
        <time>2020-02-21T11:16:37Z</time>
      </trkpt>
      <trkpt lat="38.8702430" lon="1.3139110">
        <ele>14.3</ele>
        <time>2020-02-21T11:16:38Z</time>
      </trkpt>
      <trkpt lat="38.8702710" lon="1.3138910">
        <ele>14.7</ele>
        <time>2020-02-21T11:16:39Z</time>
      </trkpt>
      <trkpt lat="38.8702820" lon="1.3138840">
        <ele>14.9</ele>
        <time>2020-02-21T11:16:40Z</time>
      </trkpt>
      <trkpt lat="38.8703190" lon="1.3138650">
        <ele>15.5</ele>
        <time>2020-02-21T11:16:41Z</time>
      </trkpt>
      <trkpt lat="38.8703310" lon="1.3138580">
        <ele>15.7</ele>
        <time>2020-02-21T11:16:42Z</time>
      </trkpt>
      <trkpt lat="38.8703680" lon="1.3138480">
        <ele>16.3</ele>
        <time>2020-02-21T11:16:43Z</time>
      </trkpt>
      <trkpt lat="38.8703820" lon="1.3138450">
        <ele>16.4</ele>
        <time>2020-02-21T11:16:44Z</time>
      </trkpt>
      <trkpt lat="38.8704140" lon="1.3138170">
        <ele>17.0</ele>
        <time>2020-02-21T11:16:45Z</time>
      </trkpt>
      <trkpt lat="38.8704250" lon="1.3138090">
        <ele>17.2</ele>
        <time>2020-02-21T11:16:46Z</time>
      </trkpt>
      <trkpt lat="38.8704630" lon="1.3137770">
        <ele>18.0</ele>
        <time>2020-02-21T11:16:47Z</time>
      </trkpt>
      <trkpt lat="38.8704780" lon="1.3137650">
        <ele>18.3</ele>
        <time>2020-02-21T11:16:48Z</time>
      </trkpt>
      <trkpt lat="38.8705130" lon="1.3137450">
        <ele>18.9</ele>
        <time>2020-02-21T11:16:49Z</time>
      </trkpt>
      <trkpt lat="38.8705270" lon="1.3137390">
        <ele>19.1</ele>
        <time>2020-02-21T11:16:50Z</time>
      </trkpt>
      <trkpt lat="38.8705530" lon="1.3137260">
        <ele>19.5</ele>
        <time>2020-02-21T11:16:51Z</time>
      </trkpt>
      <trkpt lat="38.8705770" lon="1.3137070">
        <ele>19.9</ele>
        <time>2020-02-21T11:16:52Z</time>
      </trkpt>
      <trkpt lat="38.8705890" lon="1.3136720">
        <ele>20.4</ele>
        <time>2020-02-21T11:16:53Z</time>
      </trkpt>
      <trkpt lat="38.8706130" lon="1.3136380">
        <ele>20.9</ele>
        <time>2020-02-21T11:16:54Z</time>
      </trkpt>
      <trkpt lat="38.8706200" lon="1.3136250">
        <ele>21.1</ele>
        <time>2020-02-21T11:16:55Z</time>
      </trkpt>
      <trkpt lat="38.8706320" lon="1.3135890">
        <ele>21.6</ele>
        <time>2020-02-21T11:16:56Z</time>
      </trkpt>
      <trkpt lat="38.8706350" lon="1.3135780">
        <ele>21.8</ele>
        <time>2020-02-21T11:16:57Z</time>
      </trkpt>
      <trkpt lat="38.8706330" lon="1.3135320">
        <ele>22.3</ele>
        <time>2020-02-21T11:16:58Z</time>
      </trkpt>
      <trkpt lat="38.8706330" lon="1.3135190">
        <ele>22.5</ele>
        <time>2020-02-21T11:16:59Z</time>
      </trkpt>
      <trkpt lat="38.8706340" lon="1.3134900">
        <ele>22.8</ele>
        <time>2020-02-21T11:17:00Z</time>
      </trkpt>
      <trkpt lat="38.8706390" lon="1.3134740">
        <ele>23.1</ele>
        <time>2020-02-21T11:17:01Z</time>
      </trkpt>
      <trkpt lat="38.8706430" lon="1.3134570">
        <ele>23.3</ele>
        <time>2020-02-21T11:17:02Z</time>
      </trkpt>
      <trkpt lat="38.8706530" lon="1.3134220">
        <ele>23.8</ele>
        <time>2020-02-21T11:17:03Z</time>
      </trkpt>
      <trkpt lat="38.8706600" lon="1.3134090">
        <ele>24.0</ele>
        <time>2020-02-21T11:17:04Z</time>
      </trkpt>
      <trkpt lat="38.8706600" lon="1.3133830">
        <ele>24.4</ele>
        <time>2020-02-21T11:17:05Z</time>
      </trkpt>
      <trkpt lat="38.8706620" lon="1.3133620">
        <ele>24.6</ele>
        <time>2020-02-21T11:17:06Z</time>
      </trkpt>
      <trkpt lat="38.8706740" lon="1.3133290">
        <ele>25.0</ele>
        <time>2020-02-21T11:17:07Z</time>
      </trkpt>
      <trkpt lat="38.8706780" lon="1.3133200">
        <ele>25.1</ele>
        <time>2020-02-21T11:17:08Z</time>
      </trkpt>
      <trkpt lat="38.8706840" lon="1.3132970">
        <ele>25.4</ele>
        <time>2020-02-21T11:17:09Z</time>
      </trkpt>
      <trkpt lat="38.8706880" lon="1.3132780">
        <ele>25.6</ele>
        <time>2020-02-21T11:17:10Z</time>
      </trkpt>
      <trkpt lat="38.8706980" lon="1.3132450">
        <ele>26.0</ele>
        <time>2020-02-21T11:17:11Z</time>
      </trkpt>
      <trkpt lat="38.8706990" lon="1.3132320">
        <ele>26.1</ele>
        <time>2020-02-21T11:17:12Z</time>
      </trkpt>
      <trkpt lat="38.8707070" lon="1.3132120">
        <ele>26.4</ele>
        <time>2020-02-21T11:17:13Z</time>
      </trkpt>
      <trkpt lat="38.8707170" lon="1.3131940">
        <ele>26.6</ele>
        <time>2020-02-21T11:17:14Z</time>
      </trkpt>
      <trkpt lat="38.8707250" lon="1.3131740">
        <ele>26.8</ele>
        <time>2020-02-21T11:17:15Z</time>
      </trkpt>
      <trkpt lat="38.8707340" lon="1.3131550">
        <ele>27.0</ele>
        <time>2020-02-21T11:17:16Z</time>
      </trkpt>
      <trkpt lat="38.8707450" lon="1.3131210">
        <ele>27.3</ele>
        <time>2020-02-21T11:17:17Z</time>
      </trkpt>
      <trkpt lat="38.8707490" lon="1.3131100">
        <ele>27.4</ele>
        <time>2020-02-21T11:17:18Z</time>
      </trkpt>
      <trkpt lat="38.8707570" lon="1.3130900">
        <ele>27.6</ele>
        <time>2020-02-21T11:17:19Z</time>
      </trkpt>
      <trkpt lat="38.8707660" lon="1.3130700">
        <ele>27.8</ele>
        <time>2020-02-21T11:17:20Z</time>
      </trkpt>
      <trkpt lat="38.8707800" lon="1.3130350">
        <ele>28.1</ele>
        <time>2020-02-21T11:17:21Z</time>
      </trkpt>
      <trkpt lat="38.8707840" lon="1.3130270">
        <ele>28.2</ele>
        <time>2020-02-21T11:17:22Z</time>
      </trkpt>
      <trkpt lat="38.8707980" lon="1.3130010">
        <ele>28.4</ele>
        <time>2020-02-21T11:17:23Z</time>
      </trkpt>
      <trkpt lat="38.8708030" lon="1.3129880">
        <ele>28.5</ele>
        <time>2020-02-21T11:17:24Z</time>
      </trkpt>
      <trkpt lat="38.8708160" lon="1.3129740">
        <ele>28.7</ele>
        <time>2020-02-21T11:17:25Z</time>
      </trkpt>
      <trkpt lat="38.8708240" lon="1.3129570">
        <ele>28.8</ele>
        <time>2020-02-21T11:17:26Z</time>
      </trkpt>
      <trkpt lat="38.8708480" lon="1.3129370">
        <ele>29.0</ele>
        <time>2020-02-21T11:17:27Z</time>
      </trkpt>
      <trkpt lat="38.8708560" lon="1.3129300">
        <ele>29.1</ele>
        <time>2020-02-21T11:17:28Z</time>
      </trkpt>
      <trkpt lat="38.8708690" lon="1.3129150">
        <ele>29.2</ele>
        <time>2020-02-21T11:17:29Z</time>
      </trkpt>
      <trkpt lat="38.8708830" lon="1.3129030">
        <ele>29.4</ele>
        <time>2020-02-21T11:17:30Z</time>
      </trkpt>
      <trkpt lat="38.8709040" lon="1.3128870">
        <ele>29.6</ele>
        <time>2020-02-21T11:17:31Z</time>
      </trkpt>
      <trkpt lat="38.8709120" lon="1.3128830">
        <ele>29.6</ele>
        <time>2020-02-21T11:17:32Z</time>
      </trkpt>
      <trkpt lat="38.8709210" lon="1.3128780">
        <ele>29.7</ele>
        <time>2020-02-21T11:17:33Z</time>
      </trkpt>
      <trkpt lat="38.8709410" lon="1.3128680">
        <ele>29.9</ele>
        <time>2020-02-21T11:17:34Z</time>
      </trkpt>
      <trkpt lat="38.8709500" lon="1.3128680">
        <ele>29.9</ele>
        <time>2020-02-21T11:17:35Z</time>
      </trkpt>
      <trkpt lat="38.8709580" lon="1.3128670">
        <ele>30.0</ele>
        <time>2020-02-21T11:17:36Z</time>
      </trkpt>
      <trkpt lat="38.8709690" lon="1.3128660">
        <ele>30.0</ele>
        <time>2020-02-21T11:17:37Z</time>
      </trkpt>
      <trkpt lat="38.8709780" lon="1.3128580">
        <ele>30.1</ele>
        <time>2020-02-21T11:17:38Z</time>
      </trkpt>
      <trkpt lat="38.8709870" lon="1.3128400">
        <ele>30.2</ele>
        <time>2020-02-21T11:17:39Z</time>
      </trkpt>
      <trkpt lat="38.8710010" lon="1.3128100">
        <ele>30.3</ele>
        <time>2020-02-21T11:17:40Z</time>
      </trkpt>
      <trkpt lat="38.8710120" lon="1.3127780">
        <ele>30.4</ele>
        <time>2020-02-21T11:17:41Z</time>
      </trkpt>
      <trkpt lat="38.8710170" lon="1.3127660">
        <ele>30.5</ele>
        <time>2020-02-21T11:17:42Z</time>
      </trkpt>
      <trkpt lat="38.8710290" lon="1.3127540">
        <ele>30.6</ele>
        <time>2020-02-21T11:17:43Z</time>
      </trkpt>
      <trkpt lat="38.8710470" lon="1.3127640">
        <ele>30.8</ele>
        <time>2020-02-21T11:17:44Z</time>
      </trkpt>
      <trkpt lat="38.8710740" lon="1.3127790">
        <ele>31.0</ele>
        <time>2020-02-21T11:17:45Z</time>
      </trkpt>
      <trkpt lat="38.8710820" lon="1.3127830">
        <ele>31.0</ele>
        <time>2020-02-21T11:17:46Z</time>
      </trkpt>
      <trkpt lat="38.8710940" lon="1.3127760">
        <ele>31.1</ele>
        <time>2020-02-21T11:17:47Z</time>
      </trkpt>
      <trkpt lat="38.8711030" lon="1.3127700">
        <ele>31.1</ele>
        <time>2020-02-21T11:17:48Z</time>
      </trkpt>
      <trkpt lat="38.8711060" lon="1.3127690">
        <ele>31.2</ele>
        <time>2020-02-21T11:17:49Z</time>
      </trkpt>
      <trkpt lat="38.8711130" lon="1.3127620">
        <ele>31.2</ele>
        <time>2020-02-21T11:17:50Z</time>
      </trkpt>
      <trkpt lat="38.8711130" lon="1.3127530">
        <ele>31.2</ele>
        <time>2020-02-21T11:17:51Z</time>
      </trkpt>
      <trkpt lat="38.8711300" lon="1.3127530">
        <ele>31.3</ele>
        <time>2020-02-21T11:17:52Z</time>
      </trkpt>
      <trkpt lat="38.8711440" lon="1.3127510">
        <ele>31.4</ele>
        <time>2020-02-21T11:17:53Z</time>
      </trkpt>
      <trkpt lat="38.8711610" lon="1.3127590">
        <ele>31.5</ele>
        <time>2020-02-21T11:17:54Z</time>
      </trkpt>
      <trkpt lat="38.8711810" lon="1.3127370">
        <ele>31.7</ele>
        <time>2020-02-21T11:17:55Z</time>
      </trkpt>
      <trkpt lat="38.8711900" lon="1.3127250">
        <ele>31.8</ele>
        <time>2020-02-21T11:17:56Z</time>
      </trkpt>
      <trkpt lat="38.8711960" lon="1.3126950">
        <ele>31.9</ele>
        <time>2020-02-21T11:17:57Z</time>
      </trkpt>
      <trkpt lat="38.8711980" lon="1.3126780">
        <ele>32.0</ele>
        <time>2020-02-21T11:17:58Z</time>
      </trkpt>
      <trkpt lat="38.8712120" lon="1.3126530">
        <ele>32.1</ele>
        <time>2020-02-21T11:17:59Z</time>
      </trkpt>
      <trkpt lat="38.8712180" lon="1.3126460">
        <ele>32.2</ele>
        <time>2020-02-21T11:18:00Z</time>
      </trkpt>
      <trkpt lat="38.8712230" lon="1.3126400">
        <ele>32.2</ele>
        <time>2020-02-21T11:18:01Z</time>
      </trkpt>
      <trkpt lat="38.8712300" lon="1.3126320">
        <ele>32.2</ele>
        <time>2020-02-21T11:18:02Z</time>
      </trkpt>
      <trkpt lat="38.8712330" lon="1.3126340">
        <ele>32.3</ele>
        <time>2020-02-21T11:18:03Z</time>
      </trkpt>
      <trkpt lat="38.8712390" lon="1.3126520">
        <ele>32.4</ele>
        <time>2020-02-21T11:18:04Z</time>
      </trkpt>
      <trkpt lat="38.8712490" lon="1.3126720">
        <ele>32.5</ele>
        <time>2020-02-21T11:18:05Z</time>
      </trkpt>
      <trkpt lat="38.8712490" lon="1.3126850">
        <ele>32.5</ele>
        <time>2020-02-21T11:18:06Z</time>
      </trkpt>
      <trkpt lat="38.8712480" lon="1.3126960">
        <ele>32.6</ele>
        <time>2020-02-21T11:18:07Z</time>
      </trkpt>
      <trkpt lat="38.8712460" lon="1.3127070">
        <ele>32.6</ele>
        <time>2020-02-21T11:18:08Z</time>
      </trkpt>
      <trkpt lat="38.8712450" lon="1.3127180">
        <ele>32.7</ele>
        <time>2020-02-21T11:18:09Z</time>
      </trkpt>
      <trkpt lat="38.8712440" lon="1.3127350">
        <ele>32.8</ele>
        <time>2020-02-21T11:18:10Z</time>
      </trkpt>
      <trkpt lat="38.8712430" lon="1.3127540">
        <ele>32.8</ele>
        <time>2020-02-21T11:18:11Z</time>
      </trkpt>
      <trkpt lat="38.8712440" lon="1.3127750">
        <ele>32.9</ele>
        <time>2020-02-21T11:18:12Z</time>
      </trkpt>
      <trkpt lat="38.8712440" lon="1.3127910">
        <ele>33.0</ele>
        <time>2020-02-21T11:18:13Z</time>
      </trkpt>
      <trkpt lat="38.8712400" lon="1.3128020">
        <ele>33.1</ele>
        <time>2020-02-21T11:18:14Z</time>
      </trkpt>
      <trkpt lat="38.8712340" lon="1.3128150">
        <ele>33.1</ele>
        <time>2020-02-21T11:18:15Z</time>
      </trkpt>
      <trkpt lat="38.8712280" lon="1.3128300">
        <ele>33.2</ele>
        <time>2020-02-21T11:18:16Z</time>
      </trkpt>
      <trkpt lat="38.8712140" lon="1.3128490">
        <ele>33.3</ele>
        <time>2020-02-21T11:18:17Z</time>
      </trkpt>
      <trkpt lat="38.8712070" lon="1.3128560">
        <ele>33.3</ele>
        <time>2020-02-21T11:18:18Z</time>
      </trkpt>
      <trkpt lat="38.8711990" lon="1.3128640">
        <ele>33.4</ele>
        <time>2020-02-21T11:18:19Z</time>
      </trkpt>
      <trkpt lat="38.8711920" lon="1.3128820">
        <ele>33.5</ele>
        <time>2020-02-21T11:18:20Z</time>
      </trkpt>
      <trkpt lat="38.8711840" lon="1.3128930">
        <ele>33.5</ele>
        <time>2020-02-21T11:18:21Z</time>
      </trkpt>
      <trkpt lat="38.8711670" lon="1.3129060">
        <ele>33.6</ele>
        <time>2020-02-21T11:18:22Z</time>
      </trkpt>
      <trkpt lat="38.8711700" lon="1.3129250">
        <ele>33.7</ele>
        <time>2020-02-21T11:18:23Z</time>
      </trkpt>
      <trkpt lat="38.8711600" lon="1.3129650">
        <ele>33.9</ele>
        <time>2020-02-21T11:18:24Z</time>
      </trkpt>
      <trkpt lat="38.8711530" lon="1.3129780">
        <ele>33.9</ele>
        <time>2020-02-21T11:18:25Z</time>
      </trkpt>
      <trkpt lat="38.8711350" lon="1.3130170">
        <ele>34.1</ele>
        <time>2020-02-21T11:18:26Z</time>
      </trkpt>
      <trkpt lat="38.8711290" lon="1.3130280">
        <ele>34.2</ele>
        <time>2020-02-21T11:18:27Z</time>
      </trkpt>
      <trkpt lat="38.8711240" lon="1.3130460">
        <ele>34.3</ele>
        <time>2020-02-21T11:18:28Z</time>
      </trkpt>
      <trkpt lat="38.8711250" lon="1.3130740">
        <ele>34.4</ele>
        <time>2020-02-21T11:18:29Z</time>
      </trkpt>
      <trkpt lat="38.8711290" lon="1.3131100">
        <ele>34.5</ele>
        <time>2020-02-21T11:18:30Z</time>
      </trkpt>
      <trkpt lat="38.8711300" lon="1.3131500">
        <ele>34.7</ele>
        <time>2020-02-21T11:18:31Z</time>
      </trkpt>
      <trkpt lat="38.8711300" lon="1.3131640">
        <ele>34.7</ele>
        <time>2020-02-21T11:18:32Z</time>
      </trkpt>
      <trkpt lat="38.8711260" lon="1.3132120">
        <ele>34.9</ele>
        <time>2020-02-21T11:18:33Z</time>
      </trkpt>
      <trkpt lat="38.8711250" lon="1.3132280">
        <ele>35.0</ele>
        <time>2020-02-21T11:18:34Z</time>
      </trkpt>
      <trkpt lat="38.8711220" lon="1.3132630">
        <ele>35.1</ele>
        <time>2020-02-21T11:18:35Z</time>
      </trkpt>
      <trkpt lat="38.8711130" lon="1.3133080">
        <ele>35.3</ele>
        <time>2020-02-21T11:18:36Z</time>
      </trkpt>
      <trkpt lat="38.8711120" lon="1.3133230">
        <ele>35.3</ele>
        <time>2020-02-21T11:18:37Z</time>
      </trkpt>
      <trkpt lat="38.8711120" lon="1.3133710">
        <ele>35.5</ele>
        <time>2020-02-21T11:18:38Z</time>
      </trkpt>
      <trkpt lat="38.8711100" lon="1.3133890">
        <ele>35.6</ele>
        <time>2020-02-21T11:18:39Z</time>
      </trkpt>
      <trkpt lat="38.8711120" lon="1.3134360">
        <ele>35.7</ele>
        <time>2020-02-21T11:18:40Z</time>
      </trkpt>
      <trkpt lat="38.8711130" lon="1.3134510">
        <ele>35.8</ele>
        <time>2020-02-21T11:18:41Z</time>
      </trkpt>
      <trkpt lat="38.8711160" lon="1.3134960">
        <ele>35.9</ele>
        <time>2020-02-21T11:18:42Z</time>
      </trkpt>
      <trkpt lat="38.8711170" lon="1.3135130">
        <ele>36.0</ele>
        <time>2020-02-21T11:18:43Z</time>
      </trkpt>
      <trkpt lat="38.8711270" lon="1.3135620">
        <ele>36.2</ele>
        <time>2020-02-21T11:18:44Z</time>
      </trkpt>
      <trkpt lat="38.8711320" lon="1.3135790">
        <ele>36.3</ele>
        <time>2020-02-21T11:18:45Z</time>
      </trkpt>
      <trkpt lat="38.8711470" lon="1.3136130">
        <ele>36.4</ele>
        <time>2020-02-21T11:18:46Z</time>
      </trkpt>
      <trkpt lat="38.8711640" lon="1.3136450">
        <ele>36.6</ele>
        <time>2020-02-21T11:18:47Z</time>
      </trkpt>
      <trkpt lat="38.8711700" lon="1.3136550">
        <ele>36.6</ele>
        <time>2020-02-21T11:18:48Z</time>
      </trkpt>
      <trkpt lat="38.8711980" lon="1.3136780">
        <ele>36.8</ele>
        <time>2020-02-21T11:18:49Z</time>
      </trkpt>
      <trkpt lat="38.8712070" lon="1.3136880">
        <ele>36.9</ele>
        <time>2020-02-21T11:18:50Z</time>
      </trkpt>
      <trkpt lat="38.8712210" lon="1.3136950">
        <ele>37.0</ele>
        <time>2020-02-21T11:18:51Z</time>
      </trkpt>
      <trkpt lat="38.8712410" lon="1.3136880">
        <ele>37.1</ele>
        <time>2020-02-21T11:18:52Z</time>
      </trkpt>
      <trkpt lat="38.8712720" lon="1.3136820">
        <ele>37.4</ele>
        <time>2020-02-21T11:18:53Z</time>
      </trkpt>
      <trkpt lat="38.8712830" lon="1.3136810">
        <ele>37.4</ele>
        <time>2020-02-21T11:18:54Z</time>
      </trkpt>
      <trkpt lat="38.8713140" lon="1.3136740">
        <ele>37.6</ele>
        <time>2020-02-21T11:18:55Z</time>
      </trkpt>
      <trkpt lat="38.8713250" lon="1.3136720">
        <ele>37.7</ele>
        <time>2020-02-21T11:18:56Z</time>
      </trkpt>
      <trkpt lat="38.8713550" lon="1.3136590">
        <ele>37.9</ele>
        <time>2020-02-21T11:18:57Z</time>
      </trkpt>
      <trkpt lat="38.8713630" lon="1.3136540">
        <ele>38.0</ele>
        <time>2020-02-21T11:18:58Z</time>
      </trkpt>
      <trkpt lat="38.8713940" lon="1.3136320">
        <ele>38.3</ele>
        <time>2020-02-21T11:18:59Z</time>
      </trkpt>
      <trkpt lat="38.8714080" lon="1.3136280">
        <ele>38.4</ele>
        <time>2020-02-21T11:19:00Z</time>
      </trkpt>
      <trkpt lat="38.8714440" lon="1.3136160">
        <ele>38.7</ele>
        <time>2020-02-21T11:19:01Z</time>
      </trkpt>
      <trkpt lat="38.8714540" lon="1.3136110">
        <ele>38.7</ele>
        <time>2020-02-21T11:19:02Z</time>
      </trkpt>
      <trkpt lat="38.8714900" lon="1.3136070">
        <ele>39.0</ele>
        <time>2020-02-21T11:19:03Z</time>
      </trkpt>
      <trkpt lat="38.8715060" lon="1.3136060">
        <ele>39.1</ele>
        <time>2020-02-21T11:19:04Z</time>
      </trkpt>
      <trkpt lat="38.8715330" lon="1.3135960">
        <ele>39.3</ele>
        <time>2020-02-21T11:19:05Z</time>
      </trkpt>
      <trkpt lat="38.8715650" lon="1.3135840">
        <ele>39.5</ele>
        <time>2020-02-21T11:19:06Z</time>
      </trkpt>
      <trkpt lat="38.8715770" lon="1.3135810">
        <ele>39.6</ele>
        <time>2020-02-21T11:19:07Z</time>
      </trkpt>
      <trkpt lat="38.8716150" lon="1.3135660">
        <ele>39.9</ele>
        <time>2020-02-21T11:19:08Z</time>
      </trkpt>
      <trkpt lat="38.8716260" lon="1.3135600">
        <ele>39.9</ele>
        <time>2020-02-21T11:19:09Z</time>
      </trkpt>
      <trkpt lat="38.8716610" lon="1.3135600">
        <ele>40.2</ele>
        <time>2020-02-21T11:19:10Z</time>
      </trkpt>
      <trkpt lat="38.8716920" lon="1.3135570">
        <ele>40.4</ele>
        <time>2020-02-21T11:19:11Z</time>
      </trkpt>
      <trkpt lat="38.8717200" lon="1.3135480">
        <ele>40.5</ele>
        <time>2020-02-21T11:19:12Z</time>
      </trkpt>
      <trkpt lat="38.8717560" lon="1.3135320">
        <ele>40.7</ele>
        <time>2020-02-21T11:19:13Z</time>
      </trkpt>
      <trkpt lat="38.8717660" lon="1.3135230">
        <ele>40.7</ele>
        <time>2020-02-21T11:19:14Z</time>
      </trkpt>
      <trkpt lat="38.8717930" lon="1.3135090">
        <ele>40.9</ele>
        <time>2020-02-21T11:19:15Z</time>
      </trkpt>
      <trkpt lat="38.8718190" lon="1.3134850">
        <ele>41.0</ele>
        <time>2020-02-21T11:19:16Z</time>
      </trkpt>
      <trkpt lat="38.8718480" lon="1.3134640">
        <ele>41.1</ele>
        <time>2020-02-21T11:19:17Z</time>
      </trkpt>
      <trkpt lat="38.8718720" lon="1.3134410">
        <ele>41.2</ele>
        <time>2020-02-21T11:19:18Z</time>
      </trkpt>
      <trkpt lat="38.8718950" lon="1.3134130">
        <ele>41.3</ele>
        <time>2020-02-21T11:19:19Z</time>
      </trkpt>
      <trkpt lat="38.8719080" lon="1.3133760">
        <ele>41.4</ele>
        <time>2020-02-21T11:19:20Z</time>
      </trkpt>
      <trkpt lat="38.8719060" lon="1.3133290">
        <ele>41.6</ele>
        <time>2020-02-21T11:19:21Z</time>
      </trkpt>
      <trkpt lat="38.8719060" lon="1.3133130">
        <ele>41.6</ele>
        <time>2020-02-21T11:19:22Z</time>
      </trkpt>
      <trkpt lat="38.8719050" lon="1.3132680">
        <ele>41.7</ele>
        <time>2020-02-21T11:19:23Z</time>
      </trkpt>
      <trkpt lat="38.8719010" lon="1.3132330">
        <ele>41.8</ele>
        <time>2020-02-21T11:19:24Z</time>
      </trkpt>
      <trkpt lat="38.8719000" lon="1.3131940">
        <ele>41.9</ele>
        <time>2020-02-21T11:19:25Z</time>
      </trkpt>
      <trkpt lat="38.8719020" lon="1.3131580">
        <ele>41.9</ele>
        <time>2020-02-21T11:19:26Z</time>
      </trkpt>
      <trkpt lat="38.8718980" lon="1.3131210">
        <ele>42.0</ele>
        <time>2020-02-21T11:19:27Z</time>
      </trkpt>
      <trkpt lat="38.8719010" lon="1.3130760">
        <ele>42.1</ele>
        <time>2020-02-21T11:19:28Z</time>
      </trkpt>
      <trkpt lat="38.8718970" lon="1.3130600">
        <ele>42.1</ele>
        <time>2020-02-21T11:19:29Z</time>
      </trkpt>
      <trkpt lat="38.8718900" lon="1.3130060">
        <ele>42.2</ele>
        <time>2020-02-21T11:19:30Z</time>
      </trkpt>
      <trkpt lat="38.8718880" lon="1.3129860">
        <ele>42.3</ele>
        <time>2020-02-21T11:19:31Z</time>
      </trkpt>
      <trkpt lat="38.8718850" lon="1.3129440">
        <ele>42.3</ele>
        <time>2020-02-21T11:19:32Z</time>
      </trkpt>
      <trkpt lat="38.8718830" lon="1.3129030">
        <ele>42.3</ele>
        <time>2020-02-21T11:19:33Z</time>
      </trkpt>
      <trkpt lat="38.8718830" lon="1.3128620">
        <ele>42.3</ele>
        <time>2020-02-21T11:19:34Z</time>
      </trkpt>
      <trkpt lat="38.8718870" lon="1.3128060">
        <ele>42.4</ele>
        <time>2020-02-21T11:19:35Z</time>
      </trkpt>
      <trkpt lat="38.8718910" lon="1.3127810">
        <ele>42.4</ele>
        <time>2020-02-21T11:19:36Z</time>
      </trkpt>
      <trkpt lat="38.8718810" lon="1.3127390">
        <ele>42.4</ele>
        <time>2020-02-21T11:19:37Z</time>
      </trkpt>
      <trkpt lat="38.8718750" lon="1.3126920">
        <ele>42.4</ele>
        <time>2020-02-21T11:19:38Z</time>
      </trkpt>
      <trkpt lat="38.8718700" lon="1.3126530">
        <ele>42.4</ele>
        <time>2020-02-21T11:19:39Z</time>
      </trkpt>
      <trkpt lat="38.8718620" lon="1.3126060">
        <ele>42.4</ele>
        <time>2020-02-21T11:19:40Z</time>
      </trkpt>
      <trkpt lat="38.8718560" lon="1.3125580">
        <ele>42.4</ele>
        <time>2020-02-21T11:19:41Z</time>
      </trkpt>
      <trkpt lat="38.8718470" lon="1.3125150">
        <ele>42.4</ele>
        <time>2020-02-21T11:19:42Z</time>
      </trkpt>
      <trkpt lat="38.8718410" lon="1.3124690">
        <ele>42.4</ele>
        <time>2020-02-21T11:19:43Z</time>
      </trkpt>
      <trkpt lat="38.8718350" lon="1.3124250">
        <ele>42.4</ele>
        <time>2020-02-21T11:19:44Z</time>
      </trkpt>
      <trkpt lat="38.8718240" lon="1.3123870">
        <ele>42.4</ele>
        <time>2020-02-21T11:19:45Z</time>
      </trkpt>
      <trkpt lat="38.8718180" lon="1.3123400">
        <ele>42.4</ele>
        <time>2020-02-21T11:19:46Z</time>
      </trkpt>
      <trkpt lat="38.8718160" lon="1.3122900">
        <ele>42.4</ele>
        <time>2020-02-21T11:19:47Z</time>
      </trkpt>
      <trkpt lat="38.8718150" lon="1.3122450">
        <ele>42.4</ele>
        <time>2020-02-21T11:19:48Z</time>
      </trkpt>
      <trkpt lat="38.8718160" lon="1.3122030">
        <ele>42.4</ele>
        <time>2020-02-21T11:19:49Z</time>
      </trkpt>
      <trkpt lat="38.8718120" lon="1.3121620">
        <ele>42.4</ele>
        <time>2020-02-21T11:19:50Z</time>
      </trkpt>
      <trkpt lat="38.8718150" lon="1.3121170">
        <ele>42.4</ele>
        <time>2020-02-21T11:19:51Z</time>
      </trkpt>
      <trkpt lat="38.8718140" lon="1.3120810">
        <ele>42.4</ele>
        <time>2020-02-21T11:19:52Z</time>
      </trkpt>
      <trkpt lat="38.8718010" lon="1.3120340">
        <ele>42.4</ele>
        <time>2020-02-21T11:19:53Z</time>
      </trkpt>
      <trkpt lat="38.8717950" lon="1.3119900">
        <ele>42.4</ele>
        <time>2020-02-21T11:19:54Z</time>
      </trkpt>
      <trkpt lat="38.8717850" lon="1.3119520">
        <ele>42.5</ele>
        <time>2020-02-21T11:19:55Z</time>
      </trkpt>
      <trkpt lat="38.8717810" lon="1.3119040">
        <ele>42.5</ele>
        <time>2020-02-21T11:19:56Z</time>
      </trkpt>
      <trkpt lat="38.8717730" lon="1.3118510">
        <ele>42.5</ele>
        <time>2020-02-21T11:19:57Z</time>
      </trkpt>
      <trkpt lat="38.8717630" lon="1.3117980">
        <ele>42.5</ele>
        <time>2020-02-21T11:19:58Z</time>
      </trkpt>
      <trkpt lat="38.8717430" lon="1.3117620">
        <ele>42.5</ele>
        <time>2020-02-21T11:19:59Z</time>
      </trkpt>
      <trkpt lat="38.8717400" lon="1.3117530">
        <ele>42.5</ele>
        <time>2020-02-21T11:20:00Z</time>
      </trkpt>
      <trkpt lat="38.8717370" lon="1.3117420">
        <ele>42.5</ele>
        <time>2020-02-21T11:20:01Z</time>
      </trkpt>
      <trkpt lat="38.8717350" lon="1.3117490">
        <ele>42.5</ele>
        <time>2020-02-21T11:20:02Z</time>
      </trkpt>
      <trkpt lat="38.8717320" lon="1.3117650">
        <ele>42.5</ele>
        <time>2020-02-21T11:20:03Z</time>
      </trkpt>
      <trkpt lat="38.8717250" lon="1.3117500">
        <ele>42.5</ele>
        <time>2020-02-21T11:20:04Z</time>
      </trkpt>
      <trkpt lat="38.8717210" lon="1.3117550">
        <ele>42.5</ele>
        <time>2020-02-21T11:20:05Z</time>
      </trkpt>
      <trkpt lat="38.8717100" lon="1.3117480">
        <ele>42.2</ele>
        <time>2020-02-21T11:20:06Z</time>
      </trkpt>
      <trkpt lat="38.8716930" lon="1.3117420">
        <ele>42.1</ele>
        <time>2020-02-21T11:20:07Z</time>
      </trkpt>
      <trkpt lat="38.8716730" lon="1.3117470">
        <ele>41.9</ele>
        <time>2020-02-21T11:20:08Z</time>
      </trkpt>
      <trkpt lat="38.8716430" lon="1.3117540">
        <ele>41.6</ele>
        <time>2020-02-21T11:20:09Z</time>
      </trkpt>
      <trkpt lat="38.8716160" lon="1.3117710">
        <ele>41.3</ele>
        <time>2020-02-21T11:20:10Z</time>
      </trkpt>
      <trkpt lat="38.8715780" lon="1.3117720">
        <ele>41.0</ele>
        <time>2020-02-21T11:20:11Z</time>
      </trkpt>
      <trkpt lat="38.8715380" lon="1.3117800">
        <ele>40.7</ele>
        <time>2020-02-21T11:20:12Z</time>
      </trkpt>
      <trkpt lat="38.8715040" lon="1.3117970">
        <ele>40.5</ele>
        <time>2020-02-21T11:20:13Z</time>
      </trkpt>
      <trkpt lat="38.8714670" lon="1.3118050">
        <ele>40.2</ele>
        <time>2020-02-21T11:20:14Z</time>
      </trkpt>
      <trkpt lat="38.8714240" lon="1.3118080">
        <ele>39.9</ele>
        <time>2020-02-21T11:20:15Z</time>
      </trkpt>
      <trkpt lat="38.8713710" lon="1.3118070">
        <ele>39.6</ele>
        <time>2020-02-21T11:20:16Z</time>
      </trkpt>
      <trkpt lat="38.8713210" lon="1.3118110">
        <ele>39.4</ele>
        <time>2020-02-21T11:20:17Z</time>
      </trkpt>
      <trkpt lat="38.8712750" lon="1.3118160">
        <ele>39.1</ele>
        <time>2020-02-21T11:20:18Z</time>
      </trkpt>
      <trkpt lat="38.8712310" lon="1.3118210">
        <ele>38.9</ele>
        <time>2020-02-21T11:20:19Z</time>
      </trkpt>
      <trkpt lat="38.8711800" lon="1.3118320">
        <ele>38.7</ele>
        <time>2020-02-21T11:20:20Z</time>
      </trkpt>
      <trkpt lat="38.8711280" lon="1.3118420">
        <ele>38.4</ele>
        <time>2020-02-21T11:20:21Z</time>
      </trkpt>
      <trkpt lat="38.8710730" lon="1.3118510">
        <ele>38.2</ele>
        <time>2020-02-21T11:20:22Z</time>
      </trkpt>
      <trkpt lat="38.8710160" lon="1.3118600">
        <ele>37.9</ele>
        <time>2020-02-21T11:20:23Z</time>
      </trkpt>
      <trkpt lat="38.8709570" lon="1.3118690">
        <ele>37.5</ele>
        <time>2020-02-21T11:20:24Z</time>
      </trkpt>
      <trkpt lat="38.8708990" lon="1.3118850">
        <ele>37.1</ele>
        <time>2020-02-21T11:20:25Z</time>
      </trkpt>
      <trkpt lat="38.8708440" lon="1.3118870">
        <ele>36.8</ele>
        <time>2020-02-21T11:20:26Z</time>
      </trkpt>
      <trkpt lat="38.8707830" lon="1.3118970">
        <ele>36.4</ele>
        <time>2020-02-21T11:20:27Z</time>
      </trkpt>
      <trkpt lat="38.8707250" lon="1.3118900">
        <ele>36.1</ele>
        <time>2020-02-21T11:20:28Z</time>
      </trkpt>
      <trkpt lat="38.8706580" lon="1.3118830">
        <ele>35.6</ele>
        <time>2020-02-21T11:20:29Z</time>
      </trkpt>
      <trkpt lat="38.8705990" lon="1.3118820">
        <ele>35.0</ele>
        <time>2020-02-21T11:20:30Z</time>
      </trkpt>
      <trkpt lat="38.8705480" lon="1.3118790">
        <ele>34.5</ele>
        <time>2020-02-21T11:20:31Z</time>
      </trkpt>
      <trkpt lat="38.8704940" lon="1.3118720">
        <ele>33.9</ele>
        <time>2020-02-21T11:20:32Z</time>
      </trkpt>
      <trkpt lat="38.8704450" lon="1.3118690">
        <ele>33.3</ele>
        <time>2020-02-21T11:20:33Z</time>
      </trkpt>
      <trkpt lat="38.8703950" lon="1.3118660">
        <ele>32.4</ele>
        <time>2020-02-21T11:20:34Z</time>
      </trkpt>
      <trkpt lat="38.8703560" lon="1.3118600">
        <ele>31.5</ele>
        <time>2020-02-21T11:20:35Z</time>
      </trkpt>
      <trkpt lat="38.8703120" lon="1.3118510">
        <ele>30.4</ele>
        <time>2020-02-21T11:20:36Z</time>
      </trkpt>
      <trkpt lat="38.8702540" lon="1.3118180">
        <ele>29.4</ele>
        <time>2020-02-21T11:20:37Z</time>
      </trkpt>
      <trkpt lat="38.8702240" lon="1.3118050">
        <ele>28.8</ele>
        <time>2020-02-21T11:20:38Z</time>
      </trkpt>
      <trkpt lat="38.8701940" lon="1.3118030">
        <ele>28.4</ele>
        <time>2020-02-21T11:20:39Z</time>
      </trkpt>
      <trkpt lat="38.8701800" lon="1.3118020">
        <ele>28.2</ele>
        <time>2020-02-21T11:20:40Z</time>
      </trkpt>
      <trkpt lat="38.8701410" lon="1.3118060">
        <ele>27.5</ele>
        <time>2020-02-21T11:20:41Z</time>
      </trkpt>
      <trkpt lat="38.8700970" lon="1.3118220">
        <ele>26.7</ele>
        <time>2020-02-21T11:20:42Z</time>
      </trkpt>
      <trkpt lat="38.8700640" lon="1.3118470">
        <ele>26.0</ele>
        <time>2020-02-21T11:20:43Z</time>
      </trkpt>
      <trkpt lat="38.8700310" lon="1.3118640">
        <ele>25.4</ele>
        <time>2020-02-21T11:20:44Z</time>
      </trkpt>
      <trkpt lat="38.8699870" lon="1.3118870">
        <ele>24.5</ele>
        <time>2020-02-21T11:20:45Z</time>
      </trkpt>
      <trkpt lat="38.8699390" lon="1.3119230">
        <ele>23.4</ele>
        <time>2020-02-21T11:20:46Z</time>
      </trkpt>
      <trkpt lat="38.8698950" lon="1.3119530">
        <ele>22.4</ele>
        <time>2020-02-21T11:20:47Z</time>
      </trkpt>
      <trkpt lat="38.8698630" lon="1.3119890">
        <ele>21.5</ele>
        <time>2020-02-21T11:20:48Z</time>
      </trkpt>
      <trkpt lat="38.8698160" lon="1.3120140">
        <ele>20.7</ele>
        <time>2020-02-21T11:20:49Z</time>
      </trkpt>
      <trkpt lat="38.8697590" lon="1.3120400">
        <ele>19.9</ele>
        <time>2020-02-21T11:20:50Z</time>
      </trkpt>
      <trkpt lat="38.8697050" lon="1.3120590">
        <ele>19.5</ele>
        <time>2020-02-21T11:20:51Z</time>
      </trkpt>
      <trkpt lat="38.8696500" lon="1.3120760">
        <ele>19.1</ele>
        <time>2020-02-21T11:20:52Z</time>
      </trkpt>
      <trkpt lat="38.8696030" lon="1.3120970">
        <ele>18.8</ele>
        <time>2020-02-21T11:20:53Z</time>
      </trkpt>
      <trkpt lat="38.8695720" lon="1.3121320">
        <ele>18.6</ele>
        <time>2020-02-21T11:20:54Z</time>
      </trkpt>
      <trkpt lat="38.8695260" lon="1.3121500">
        <ele>18.4</ele>
        <time>2020-02-21T11:20:55Z</time>
      </trkpt>
      <trkpt lat="38.8694720" lon="1.3121520">
        <ele>18.1</ele>
        <time>2020-02-21T11:20:56Z</time>
      </trkpt>
      <trkpt lat="38.8694160" lon="1.3121530">
        <ele>18.0</ele>
        <time>2020-02-21T11:20:57Z</time>
      </trkpt>
      <trkpt lat="38.8693650" lon="1.3121600">
        <ele>17.8</ele>
        <time>2020-02-21T11:20:58Z</time>
      </trkpt>
      <trkpt lat="38.8693120" lon="1.3121810">
        <ele>17.7</ele>
        <time>2020-02-21T11:20:59Z</time>
      </trkpt>
      <trkpt lat="38.8692590" lon="1.3121950">
        <ele>17.6</ele>
        <time>2020-02-21T11:21:00Z</time>
      </trkpt>
      <trkpt lat="38.8692090" lon="1.3122100">
        <ele>17.5</ele>
        <time>2020-02-21T11:21:01Z</time>
      </trkpt>
      <trkpt lat="38.8691630" lon="1.3122360">
        <ele>17.3</ele>
        <time>2020-02-21T11:21:02Z</time>
      </trkpt>
      <trkpt lat="38.8691180" lon="1.3122540">
        <ele>17.2</ele>
        <time>2020-02-21T11:21:03Z</time>
      </trkpt>
      <trkpt lat="38.8690780" lon="1.3122610">
        <ele>17.1</ele>
        <time>2020-02-21T11:21:04Z</time>
      </trkpt>
      <trkpt lat="38.8690480" lon="1.3122430">
        <ele>17.0</ele>
        <time>2020-02-21T11:21:05Z</time>
      </trkpt>
      <trkpt lat="38.8690730" lon="1.3122020">
        <ele>16.9</ele>
        <time>2020-02-21T11:21:06Z</time>
      </trkpt>
      <trkpt lat="38.8690890" lon="1.3121910">
        <ele>16.8</ele>
        <time>2020-02-21T11:21:07Z</time>
      </trkpt>
      <trkpt lat="38.8691220" lon="1.3121720">
        <ele>16.5</ele>
        <time>2020-02-21T11:21:08Z</time>
      </trkpt>
      <trkpt lat="38.8691590" lon="1.3121610">
        <ele>16.2</ele>
        <time>2020-02-21T11:21:09Z</time>
      </trkpt>
      <trkpt lat="38.8691980" lon="1.3121320">
        <ele>15.9</ele>
        <time>2020-02-21T11:21:10Z</time>
      </trkpt>
      <trkpt lat="38.8692370" lon="1.3120810">
        <ele>15.5</ele>
        <time>2020-02-21T11:21:11Z</time>
      </trkpt>
      <trkpt lat="38.8692790" lon="1.3120270">
        <ele>14.8</ele>
        <time>2020-02-21T11:21:12Z</time>
      </trkpt>
      <trkpt lat="38.8693190" lon="1.3119730">
        <ele>13.9</ele>
        <time>2020-02-21T11:21:13Z</time>
      </trkpt>
      <trkpt lat="38.8693570" lon="1.3119190">
        <ele>13.1</ele>
        <time>2020-02-21T11:21:14Z</time>
      </trkpt>
      <trkpt lat="38.8693860" lon="1.3118710">
        <ele>12.4</ele>
        <time>2020-02-21T11:21:15Z</time>
      </trkpt>
      <trkpt lat="38.8694230" lon="1.3118110">
        <ele>11.8</ele>
        <time>2020-02-21T11:21:16Z</time>
      </trkpt>
      <trkpt lat="38.8694470" lon="1.3117660">
        <ele>11.5</ele>
        <time>2020-02-21T11:21:17Z</time>
      </trkpt>
      <trkpt lat="38.8694580" lon="1.3117200">
        <ele>11.3</ele>
        <time>2020-02-21T11:21:18Z</time>
      </trkpt>
      <trkpt lat="38.8694600" lon="1.3116800">
        <ele>11.1</ele>
        <time>2020-02-21T11:21:19Z</time>
      </trkpt>
      <trkpt lat="38.8694330" lon="1.3116410">
        <ele>10.9</ele>
        <time>2020-02-21T11:21:20Z</time>
      </trkpt>
      <trkpt lat="38.8693890" lon="1.3115990">
        <ele>10.6</ele>
        <time>2020-02-21T11:21:21Z</time>
      </trkpt>
      <trkpt lat="38.8693480" lon="1.3115390">
        <ele>10.3</ele>
        <time>2020-02-21T11:21:22Z</time>
      </trkpt>
      <trkpt lat="38.8693060" lon="1.3114770">
        <ele>10.0</ele>
        <time>2020-02-21T11:21:23Z</time>
      </trkpt>
      <trkpt lat="38.8692610" lon="1.3114200">
        <ele>9.8</ele>
        <time>2020-02-21T11:21:24Z</time>
      </trkpt>
      <trkpt lat="38.8692210" lon="1.3113680">
        <ele>9.6</ele>
        <time>2020-02-21T11:21:25Z</time>
      </trkpt>
      <trkpt lat="38.8691810" lon="1.3113120">
        <ele>9.4</ele>
        <time>2020-02-21T11:21:26Z</time>
      </trkpt>
      <trkpt lat="38.8691390" lon="1.3112570">
        <ele>9.2</ele>
        <time>2020-02-21T11:21:27Z</time>
      </trkpt>
      <trkpt lat="38.8690930" lon="1.3112050">
        <ele>9.0</ele>
        <time>2020-02-21T11:21:28Z</time>
      </trkpt>
      <trkpt lat="38.8690490" lon="1.3111710">
        <ele>8.9</ele>
        <time>2020-02-21T11:21:29Z</time>
      </trkpt>
      <trkpt lat="38.8690120" lon="1.3111530">
        <ele>8.7</ele>
        <time>2020-02-21T11:21:30Z</time>
      </trkpt>
      <trkpt lat="38.8689710" lon="1.3111610">
        <ele>8.4</ele>
        <time>2020-02-21T11:21:31Z</time>
      </trkpt>
      <trkpt lat="38.8689340" lon="1.3112050">
        <ele>8.1</ele>
        <time>2020-02-21T11:21:32Z</time>
      </trkpt>
      <trkpt lat="38.8689020" lon="1.3112450">
        <ele>7.8</ele>
        <time>2020-02-21T11:21:33Z</time>
      </trkpt>
      <trkpt lat="38.8688610" lon="1.3112810">
        <ele>7.6</ele>
        <time>2020-02-21T11:21:34Z</time>
      </trkpt>
      <trkpt lat="38.8688180" lon="1.3113060">
        <ele>7.4</ele>
        <time>2020-02-21T11:21:35Z</time>
      </trkpt>
      <trkpt lat="38.8687760" lon="1.3113120">
        <ele>7.2</ele>
        <time>2020-02-21T11:21:36Z</time>
      </trkpt>
      <trkpt lat="38.8687360" lon="1.3112830">
        <ele>7.0</ele>
        <time>2020-02-21T11:21:37Z</time>
      </trkpt>
      <trkpt lat="38.8686960" lon="1.3112440">
        <ele>6.7</ele>
        <time>2020-02-21T11:21:38Z</time>
      </trkpt>
      <trkpt lat="38.8686740" lon="1.3112030">
        <ele>6.3</ele>
        <time>2020-02-21T11:21:39Z</time>
      </trkpt>
      <trkpt lat="38.8686670" lon="1.3111430">
        <ele>5.7</ele>
        <time>2020-02-21T11:21:40Z</time>
      </trkpt>
      <trkpt lat="38.8686670" lon="1.3110850">
        <ele>5.2</ele>
        <time>2020-02-21T11:21:41Z</time>
      </trkpt>
      <trkpt lat="38.8686800" lon="1.3110190">
        <ele>4.7</ele>
        <time>2020-02-21T11:21:42Z</time>
      </trkpt>
      <trkpt lat="38.8686780" lon="1.3109610">
        <ele>4.4</ele>
        <time>2020-02-21T11:21:43Z</time>
      </trkpt>
      <trkpt lat="38.8686660" lon="1.3108960">
        <ele>4.0</ele>
        <time>2020-02-21T11:21:44Z</time>
      </trkpt>
      <trkpt lat="38.8686550" lon="1.3108280">
        <ele>3.8</ele>
        <time>2020-02-21T11:21:45Z</time>
      </trkpt>
      <trkpt lat="38.8686390" lon="1.3107590">
        <ele>3.6</ele>
        <time>2020-02-21T11:21:46Z</time>
      </trkpt>
      <trkpt lat="38.8686230" lon="1.3106850">
        <ele>3.4</ele>
        <time>2020-02-21T11:21:47Z</time>
      </trkpt>
      <trkpt lat="38.8686080" lon="1.3106140">
        <ele>3.3</ele>
        <time>2020-02-21T11:21:48Z</time>
      </trkpt>
      <trkpt lat="38.8685930" lon="1.3105490">
        <ele>3.2</ele>
        <time>2020-02-21T11:21:49Z</time>
      </trkpt>
      <trkpt lat="38.8685830" lon="1.3104900">
        <ele>3.2</ele>
        <time>2020-02-21T11:21:50Z</time>
      </trkpt>
      <trkpt lat="38.8685710" lon="1.3104360">
        <ele>3.1</ele>
        <time>2020-02-21T11:21:51Z</time>
      </trkpt>
      <trkpt lat="38.8685560" lon="1.3103840">
        <ele>3.1</ele>
        <time>2020-02-21T11:21:52Z</time>
      </trkpt>
      <trkpt lat="38.8685440" lon="1.3103310">
        <ele>3.0</ele>
        <time>2020-02-21T11:21:53Z</time>
      </trkpt>
      <trkpt lat="38.8685300" lon="1.3102680">
        <ele>2.9</ele>
        <time>2020-02-21T11:21:54Z</time>
      </trkpt>
      <trkpt lat="38.8685280" lon="1.3102050">
        <ele>2.9</ele>
        <time>2020-02-21T11:21:55Z</time>
      </trkpt>
      <trkpt lat="38.8685280" lon="1.3101390">
        <ele>2.8</ele>
        <time>2020-02-21T11:21:56Z</time>
      </trkpt>
      <trkpt lat="38.8685420" lon="1.3100690">
        <ele>2.8</ele>
        <time>2020-02-21T11:21:57Z</time>
      </trkpt>
      <trkpt lat="38.8685760" lon="1.3100170">
        <ele>2.8</ele>
        <time>2020-02-21T11:21:58Z</time>
      </trkpt>
      <trkpt lat="38.8686060" lon="1.3099750">
        <ele>2.8</ele>
        <time>2020-02-21T11:21:59Z</time>
      </trkpt>
      <trkpt lat="38.8686270" lon="1.3099280">
        <ele>2.8</ele>
        <time>2020-02-21T11:22:00Z</time>
      </trkpt>
      <trkpt lat="38.8686470" lon="1.3098740">
        <ele>2.8</ele>
        <time>2020-02-21T11:22:01Z</time>
      </trkpt>
      <trkpt lat="38.8686460" lon="1.3098310">
        <ele>2.8</ele>
        <time>2020-02-21T11:22:02Z</time>
      </trkpt>
      <trkpt lat="38.8686260" lon="1.3097910">
        <ele>2.9</ele>
        <time>2020-02-21T11:22:03Z</time>
      </trkpt>
      <trkpt lat="38.8685980" lon="1.3097600">
        <ele>2.9</ele>
        <time>2020-02-21T11:22:04Z</time>
      </trkpt>
      <trkpt lat="38.8685590" lon="1.3097240">
        <ele>3.0</ele>
        <time>2020-02-21T11:22:05Z</time>
      </trkpt>
      <trkpt lat="38.8685200" lon="1.3096910">
        <ele>3.0</ele>
        <time>2020-02-21T11:22:06Z</time>
      </trkpt>
      <trkpt lat="38.8684870" lon="1.3096640">
        <ele>3.1</ele>
        <time>2020-02-21T11:22:07Z</time>
      </trkpt>
      <trkpt lat="38.8684550" lon="1.3096160">
        <ele>3.2</ele>
        <time>2020-02-21T11:22:08Z</time>
      </trkpt>
      <trkpt lat="38.8684200" lon="1.3095780">
        <ele>3.2</ele>
        <time>2020-02-21T11:22:09Z</time>
      </trkpt>
      <trkpt lat="38.8683850" lon="1.3095490">
        <ele>3.3</ele>
        <time>2020-02-21T11:22:10Z</time>
      </trkpt>
      <trkpt lat="38.8683520" lon="1.3095440">
        <ele>3.3</ele>
        <time>2020-02-21T11:22:11Z</time>
      </trkpt>
      <trkpt lat="38.8683210" lon="1.3095090">
        <ele>3.4</ele>
        <time>2020-02-21T11:22:12Z</time>
      </trkpt>
      <trkpt lat="38.8682860" lon="1.3094810">
        <ele>3.5</ele>
        <time>2020-02-21T11:22:13Z</time>
      </trkpt>
      <trkpt lat="38.8682540" lon="1.3094490">
        <ele>3.6</ele>
        <time>2020-02-21T11:22:14Z</time>
      </trkpt>
      <trkpt lat="38.8682230" lon="1.3094040">
        <ele>3.7</ele>
        <time>2020-02-21T11:22:15Z</time>
      </trkpt>
      <trkpt lat="38.8681890" lon="1.3093840">
        <ele>3.7</ele>
        <time>2020-02-21T11:22:16Z</time>
      </trkpt>
      <trkpt lat="38.8681600" lon="1.3093550">
        <ele>3.7</ele>
        <time>2020-02-21T11:22:17Z</time>
      </trkpt>
      <trkpt lat="38.8681300" lon="1.3093270">
        <ele>3.8</ele>
        <time>2020-02-21T11:22:18Z</time>
      </trkpt>
      <trkpt lat="38.8681080" lon="1.3092930">
        <ele>3.8</ele>
        <time>2020-02-21T11:22:19Z</time>
      </trkpt>
      <trkpt lat="38.8680800" lon="1.3092640">
        <ele>3.9</ele>
        <time>2020-02-21T11:22:20Z</time>
      </trkpt>
      <trkpt lat="38.8680500" lon="1.3092280">
        <ele>4.0</ele>
        <time>2020-02-21T11:22:21Z</time>
      </trkpt>
      <trkpt lat="38.8680150" lon="1.3092020">
        <ele>4.1</ele>
        <time>2020-02-21T11:22:22Z</time>
      </trkpt>
      <trkpt lat="38.8679840" lon="1.3091800">
        <ele>4.2</ele>
        <time>2020-02-21T11:22:23Z</time>
      </trkpt>
      <trkpt lat="38.8679520" lon="1.3091640">
        <ele>4.3</ele>
        <time>2020-02-21T11:22:24Z</time>
      </trkpt>
      <trkpt lat="38.8679240" lon="1.3091480">
        <ele>4.4</ele>
        <time>2020-02-21T11:22:25Z</time>
      </trkpt>
      <trkpt lat="38.8678900" lon="1.3091350">
        <ele>4.6</ele>
        <time>2020-02-21T11:22:26Z</time>
      </trkpt>
      <trkpt lat="38.8678530" lon="1.3091110">
        <ele>4.7</ele>
        <time>2020-02-21T11:22:27Z</time>
      </trkpt>
      <trkpt lat="38.8678390" lon="1.3091040">
        <ele>4.8</ele>
        <time>2020-02-21T11:22:28Z</time>
      </trkpt>
      <trkpt lat="38.8678080" lon="1.3090860">
        <ele>5.0</ele>
        <time>2020-02-21T11:22:29Z</time>
      </trkpt>
      <trkpt lat="38.8677710" lon="1.3090610">
        <ele>5.2</ele>
        <time>2020-02-21T11:22:30Z</time>
      </trkpt>
      <trkpt lat="38.8677400" lon="1.3090410">
        <ele>5.4</ele>
        <time>2020-02-21T11:22:31Z</time>
      </trkpt>
      <trkpt lat="38.8677280" lon="1.3090320">
        <ele>5.5</ele>
        <time>2020-02-21T11:22:32Z</time>
      </trkpt>
      <trkpt lat="38.8676920" lon="1.3090200">
        <ele>5.8</ele>
        <time>2020-02-21T11:22:33Z</time>
      </trkpt>
      <trkpt lat="38.8676810" lon="1.3090160">
        <ele>5.8</ele>
        <time>2020-02-21T11:22:34Z</time>
      </trkpt>
      <trkpt lat="38.8676460" lon="1.3090010">
        <ele>6.1</ele>
        <time>2020-02-21T11:22:35Z</time>
      </trkpt>
      <trkpt lat="38.8676340" lon="1.3089990">
        <ele>6.2</ele>
        <time>2020-02-21T11:22:36Z</time>
      </trkpt>
      <trkpt lat="38.8676000" lon="1.3089830">
        <ele>6.5</ele>
        <time>2020-02-21T11:22:37Z</time>
      </trkpt>
      <trkpt lat="38.8675880" lon="1.3089770">
        <ele>6.6</ele>
        <time>2020-02-21T11:22:38Z</time>
      </trkpt>
      <trkpt lat="38.8675720" lon="1.3089670">
        <ele>6.7</ele>
        <time>2020-02-21T11:22:39Z</time>
      </trkpt>
      <trkpt lat="38.8675590" lon="1.3089550">
        <ele>6.9</ele>
        <time>2020-02-21T11:22:40Z</time>
      </trkpt>
      <trkpt lat="38.8675300" lon="1.3089370">
        <ele>7.1</ele>
        <time>2020-02-21T11:22:41Z</time>
      </trkpt>
      <trkpt lat="38.8675180" lon="1.3089310">
        <ele>7.2</ele>
        <time>2020-02-21T11:22:42Z</time>
      </trkpt>
      <trkpt lat="38.8674800" lon="1.3089120">
        <ele>7.6</ele>
        <time>2020-02-21T11:22:43Z</time>
      </trkpt>
      <trkpt lat="38.8674620" lon="1.3089050">
        <ele>7.8</ele>
        <time>2020-02-21T11:22:44Z</time>
      </trkpt>
      <trkpt lat="38.8674510" lon="1.3088930">
        <ele>7.9</ele>
        <time>2020-02-21T11:22:45Z</time>
      </trkpt>
      <trkpt lat="38.8674370" lon="1.3088860">
        <ele>8.0</ele>
        <time>2020-02-21T11:22:46Z</time>
      </trkpt>
      <trkpt lat="38.8674120" lon="1.3088730">
        <ele>8.3</ele>
        <time>2020-02-21T11:22:47Z</time>
      </trkpt>
      <trkpt lat="38.8673770" lon="1.3088630">
        <ele>8.5</ele>
        <time>2020-02-21T11:22:48Z</time>
      </trkpt>
      <trkpt lat="38.8673660" lon="1.3088600">
        <ele>8.6</ele>
        <time>2020-02-21T11:22:49Z</time>
      </trkpt>
      <trkpt lat="38.8673320" lon="1.3088550">
        <ele>8.8</ele>
        <time>2020-02-21T11:22:50Z</time>
      </trkpt>
      <trkpt lat="38.8673230" lon="1.3088530">
        <ele>8.9</ele>
        <time>2020-02-21T11:22:51Z</time>
      </trkpt>
      <trkpt lat="38.8672950" lon="1.3088560">
        <ele>9.1</ele>
        <time>2020-02-21T11:22:52Z</time>
      </trkpt>
      <trkpt lat="38.8672840" lon="1.3088550">
        <ele>9.1</ele>
        <time>2020-02-21T11:22:53Z</time>
      </trkpt>
      <trkpt lat="38.8672500" lon="1.3088390">
        <ele>9.3</ele>
        <time>2020-02-21T11:22:54Z</time>
      </trkpt>
      <trkpt lat="38.8672370" lon="1.3088330">
        <ele>9.4</ele>
        <time>2020-02-21T11:22:55Z</time>
      </trkpt>
      <trkpt lat="38.8672060" lon="1.3088060">
        <ele>9.6</ele>
        <time>2020-02-21T11:22:56Z</time>
      </trkpt>
      <trkpt lat="38.8671930" lon="1.3087940">
        <ele>9.6</ele>
        <time>2020-02-21T11:22:57Z</time>
      </trkpt>
      <trkpt lat="38.8671630" lon="1.3087780">
        <ele>9.8</ele>
        <time>2020-02-21T11:22:58Z</time>
      </trkpt>
      <trkpt lat="38.8671330" lon="1.3087440">
        <ele>9.9</ele>
        <time>2020-02-21T11:22:59Z</time>
      </trkpt>
      <trkpt lat="38.8671230" lon="1.3087300">
        <ele>10.0</ele>
        <time>2020-02-21T11:23:00Z</time>
      </trkpt>
      <trkpt lat="38.8670950" lon="1.3087150">
        <ele>10.1</ele>
        <time>2020-02-21T11:23:01Z</time>
      </trkpt>
      <trkpt lat="38.8670590" lon="1.3087090">
        <ele>10.3</ele>
        <time>2020-02-21T11:23:02Z</time>
      </trkpt>
      <trkpt lat="38.8670480" lon="1.3087110">
        <ele>10.4</ele>
        <time>2020-02-21T11:23:03Z</time>
      </trkpt>
      <trkpt lat="38.8670140" lon="1.3086970">
        <ele>10.5</ele>
        <time>2020-02-21T11:23:04Z</time>
      </trkpt>
      <trkpt lat="38.8670010" lon="1.3086920">
        <ele>10.5</ele>
        <time>2020-02-21T11:23:05Z</time>
      </trkpt>
      <trkpt lat="38.8669650" lon="1.3086760">
        <ele>10.7</ele>
        <time>2020-02-21T11:23:06Z</time>
      </trkpt>
      <trkpt lat="38.8669390" lon="1.3086570">
        <ele>10.8</ele>
        <time>2020-02-21T11:23:07Z</time>
      </trkpt>
      <trkpt lat="38.8669130" lon="1.3086430">
        <ele>10.9</ele>
        <time>2020-02-21T11:23:08Z</time>
      </trkpt>
      <trkpt lat="38.8668870" lon="1.3086170">
        <ele>11.0</ele>
        <time>2020-02-21T11:23:09Z</time>
      </trkpt>
      <trkpt lat="38.8668620" lon="1.3085930">
        <ele>11.1</ele>
        <time>2020-02-21T11:23:10Z</time>
      </trkpt>
      <trkpt lat="38.8668330" lon="1.3085720">
        <ele>11.2</ele>
        <time>2020-02-21T11:23:11Z</time>
      </trkpt>
      <trkpt lat="38.8668030" lon="1.3085420">
        <ele>11.3</ele>
        <time>2020-02-21T11:23:12Z</time>
      </trkpt>
      <trkpt lat="38.8667770" lon="1.3085020">
        <ele>11.4</ele>
        <time>2020-02-21T11:23:13Z</time>
      </trkpt>
      <trkpt lat="38.8667620" lon="1.3084630">
        <ele>11.5</ele>
        <time>2020-02-21T11:23:14Z</time>
      </trkpt>
      <trkpt lat="38.8667480" lon="1.3084330">
        <ele>11.5</ele>
        <time>2020-02-21T11:23:15Z</time>
      </trkpt>
      <trkpt lat="38.8667320" lon="1.3083880">
        <ele>11.6</ele>
        <time>2020-02-21T11:23:16Z</time>
      </trkpt>
      <trkpt lat="38.8667260" lon="1.3083710">
        <ele>11.6</ele>
        <time>2020-02-21T11:23:17Z</time>
      </trkpt>
      <trkpt lat="38.8667090" lon="1.3083270">
        <ele>11.7</ele>
        <time>2020-02-21T11:23:18Z</time>
      </trkpt>
      <trkpt lat="38.8667000" lon="1.3082810">
        <ele>11.7</ele>
        <time>2020-02-21T11:23:19Z</time>
      </trkpt>
      <trkpt lat="38.8666820" lon="1.3082550">
        <ele>11.8</ele>
        <time>2020-02-21T11:23:20Z</time>
      </trkpt>
      <trkpt lat="38.8666610" lon="1.3082140">
        <ele>11.8</ele>
        <time>2020-02-21T11:23:21Z</time>
      </trkpt>
      <trkpt lat="38.8666510" lon="1.3082010">
        <ele>11.8</ele>
        <time>2020-02-21T11:23:22Z</time>
      </trkpt>
      <trkpt lat="38.8666260" lon="1.3081630">
        <ele>11.8</ele>
        <time>2020-02-21T11:23:23Z</time>
      </trkpt>
      <trkpt lat="38.8666190" lon="1.3081450">
        <ele>11.9</ele>
        <time>2020-02-21T11:23:24Z</time>
      </trkpt>
      <trkpt lat="38.8666060" lon="1.3080940">
        <ele>11.9</ele>
        <time>2020-02-21T11:23:25Z</time>
      </trkpt>
      <trkpt lat="38.8665850" lon="1.3080440">
        <ele>11.9</ele>
        <time>2020-02-21T11:23:26Z</time>
      </trkpt>
      <trkpt lat="38.8665540" lon="1.3080140">
        <ele>11.9</ele>
        <time>2020-02-21T11:23:27Z</time>
      </trkpt>
      <trkpt lat="38.8665280" lon="1.3079740">
        <ele>11.9</ele>
        <time>2020-02-21T11:23:28Z</time>
      </trkpt>
      <trkpt lat="38.8665120" lon="1.3079370">
        <ele>11.9</ele>
        <time>2020-02-21T11:23:29Z</time>
      </trkpt>
      <trkpt lat="38.8665010" lon="1.3078830">
        <ele>11.9</ele>
        <time>2020-02-21T11:23:30Z</time>
      </trkpt>
      <trkpt lat="38.8664880" lon="1.3078460">
        <ele>11.9</ele>
        <time>2020-02-21T11:23:31Z</time>
      </trkpt>
      <trkpt lat="38.8664660" lon="1.3077910">
        <ele>11.9</ele>
        <time>2020-02-21T11:23:32Z</time>
      </trkpt>
      <trkpt lat="38.8664460" lon="1.3077450">
        <ele>12.0</ele>
        <time>2020-02-21T11:23:33Z</time>
      </trkpt>
      <trkpt lat="38.8664350" lon="1.3077020">
        <ele>12.0</ele>
        <time>2020-02-21T11:23:34Z</time>
      </trkpt>
      <trkpt lat="38.8664340" lon="1.3076580">
        <ele>12.0</ele>
        <time>2020-02-21T11:23:35Z</time>
      </trkpt>
      <trkpt lat="38.8664260" lon="1.3076070">
        <ele>12.0</ele>
        <time>2020-02-21T11:23:36Z</time>
      </trkpt>
      <trkpt lat="38.8664200" lon="1.3075640">
        <ele>12.0</ele>
        <time>2020-02-21T11:23:37Z</time>
      </trkpt>
      <trkpt lat="38.8664020" lon="1.3075230">
        <ele>12.0</ele>
        <time>2020-02-21T11:23:38Z</time>
      </trkpt>
      <trkpt lat="38.8663860" lon="1.3074820">
        <ele>12.0</ele>
        <time>2020-02-21T11:23:39Z</time>
      </trkpt>
      <trkpt lat="38.8663780" lon="1.3074300">
        <ele>12.0</ele>
        <time>2020-02-21T11:23:40Z</time>
      </trkpt>
      <trkpt lat="38.8663650" lon="1.3073800">
        <ele>12.1</ele>
        <time>2020-02-21T11:23:41Z</time>
      </trkpt>
      <trkpt lat="38.8663520" lon="1.3073340">
        <ele>12.1</ele>
        <time>2020-02-21T11:23:42Z</time>
      </trkpt>
      <trkpt lat="38.8663370" lon="1.3072970">
        <ele>12.1</ele>
        <time>2020-02-21T11:23:43Z</time>
      </trkpt>
      <trkpt lat="38.8663310" lon="1.3072530">
        <ele>12.2</ele>
        <time>2020-02-21T11:23:44Z</time>
      </trkpt>
      <trkpt lat="38.8663220" lon="1.3072030">
        <ele>12.2</ele>
        <time>2020-02-21T11:23:45Z</time>
      </trkpt>
      <trkpt lat="38.8663150" lon="1.3071620">
        <ele>12.3</ele>
        <time>2020-02-21T11:23:46Z</time>
      </trkpt>
      <trkpt lat="38.8663090" lon="1.3071160">
        <ele>12.3</ele>
        <time>2020-02-21T11:23:47Z</time>
      </trkpt>
      <trkpt lat="38.8663000" lon="1.3070730">
        <ele>12.4</ele>
        <time>2020-02-21T11:23:48Z</time>
      </trkpt>
      <trkpt lat="38.8662940" lon="1.3070300">
        <ele>12.4</ele>
        <time>2020-02-21T11:23:49Z</time>
      </trkpt>
      <trkpt lat="38.8662910" lon="1.3069860">
        <ele>12.5</ele>
        <time>2020-02-21T11:23:50Z</time>
      </trkpt>
      <trkpt lat="38.8662930" lon="1.3069310">
        <ele>12.6</ele>
        <time>2020-02-21T11:23:51Z</time>
      </trkpt>
      <trkpt lat="38.8662980" lon="1.3068790">
        <ele>12.7</ele>
        <time>2020-02-21T11:23:52Z</time>
      </trkpt>
      <trkpt lat="38.8662990" lon="1.3068320">
        <ele>12.7</ele>
        <time>2020-02-21T11:23:53Z</time>
      </trkpt>
      <trkpt lat="38.8662970" lon="1.3067890">
        <ele>12.8</ele>
        <time>2020-02-21T11:23:54Z</time>
      </trkpt>
      <trkpt lat="38.8663010" lon="1.3067390">
        <ele>12.9</ele>
        <time>2020-02-21T11:23:55Z</time>
      </trkpt>
      <trkpt lat="38.8662920" lon="1.3066850">
        <ele>13.0</ele>
        <time>2020-02-21T11:23:56Z</time>
      </trkpt>
      <trkpt lat="38.8662990" lon="1.3066450">
        <ele>13.1</ele>
        <time>2020-02-21T11:23:57Z</time>
      </trkpt>
      <trkpt lat="38.8663230" lon="1.3066230">
        <ele>13.1</ele>
        <time>2020-02-21T11:23:58Z</time>
      </trkpt>
      <trkpt lat="38.8663550" lon="1.3066080">
        <ele>13.1</ele>
        <time>2020-02-21T11:23:59Z</time>
      </trkpt>
      <trkpt lat="38.8663860" lon="1.3065920">
        <ele>13.2</ele>
        <time>2020-02-21T11:24:00Z</time>
      </trkpt>
      <trkpt lat="38.8664180" lon="1.3065680">
        <ele>13.2</ele>
        <time>2020-02-21T11:24:01Z</time>
      </trkpt>
      <trkpt lat="38.8664470" lon="1.3065310">
        <ele>13.2</ele>
        <time>2020-02-21T11:24:02Z</time>
      </trkpt>
      <trkpt lat="38.8664710" lon="1.3064960">
        <ele>13.3</ele>
        <time>2020-02-21T11:24:03Z</time>
      </trkpt>
      <trkpt lat="38.8664950" lon="1.3064580">
        <ele>13.4</ele>
        <time>2020-02-21T11:24:04Z</time>
      </trkpt>
      <trkpt lat="38.8665170" lon="1.3064250">
        <ele>13.4</ele>
        <time>2020-02-21T11:24:05Z</time>
      </trkpt>
      <trkpt lat="38.8665370" lon="1.3063950">
        <ele>13.5</ele>
        <time>2020-02-21T11:24:06Z</time>
      </trkpt>
      <trkpt lat="38.8665540" lon="1.3063620">
        <ele>13.5</ele>
        <time>2020-02-21T11:24:07Z</time>
      </trkpt>
      <trkpt lat="38.8665730" lon="1.3063300">
        <ele>13.6</ele>
        <time>2020-02-21T11:24:08Z</time>
      </trkpt>
      <trkpt lat="38.8665950" lon="1.3062890">
        <ele>13.7</ele>
        <time>2020-02-21T11:24:09Z</time>
      </trkpt>
      <trkpt lat="38.8666130" lon="1.3062600">
        <ele>14.1</ele>
        <time>2020-02-21T11:24:10Z</time>
      </trkpt>
      <trkpt lat="38.8666300" lon="1.3062320">
        <ele>14.4</ele>
        <time>2020-02-21T11:24:11Z</time>
      </trkpt>
      <trkpt lat="38.8666560" lon="1.3062020">
        <ele>14.8</ele>
        <time>2020-02-21T11:24:12Z</time>
      </trkpt>
      <trkpt lat="38.8666630" lon="1.3061900">
        <ele>15.0</ele>
        <time>2020-02-21T11:24:13Z</time>
      </trkpt>
      <trkpt lat="38.8666840" lon="1.3061490">
        <ele>15.4</ele>
        <time>2020-02-21T11:24:14Z</time>
      </trkpt>
      <trkpt lat="38.8666920" lon="1.3061370">
        <ele>15.5</ele>
        <time>2020-02-21T11:24:15Z</time>
      </trkpt>
      <trkpt lat="38.8667130" lon="1.3061050">
        <ele>15.8</ele>
        <time>2020-02-21T11:24:16Z</time>
      </trkpt>
      <trkpt lat="38.8667290" lon="1.3060750">
        <ele>16.2</ele>
        <time>2020-02-21T11:24:17Z</time>
      </trkpt>
      <trkpt lat="38.8667480" lon="1.3060300">
        <ele>16.6</ele>
        <time>2020-02-21T11:24:18Z</time>
      </trkpt>
      <trkpt lat="38.8667550" lon="1.3060130">
        <ele>16.8</ele>
        <time>2020-02-21T11:24:19Z</time>
      </trkpt>
      <trkpt lat="38.8667710" lon="1.3059760">
        <ele>17.2</ele>
        <time>2020-02-21T11:24:20Z</time>
      </trkpt>
      <trkpt lat="38.8667770" lon="1.3059610">
        <ele>17.4</ele>
        <time>2020-02-21T11:24:21Z</time>
      </trkpt>
      <trkpt lat="38.8668000" lon="1.3059240">
        <ele>17.9</ele>
        <time>2020-02-21T11:24:22Z</time>
      </trkpt>
      <trkpt lat="38.8668080" lon="1.3059120">
        <ele>18.0</ele>
        <time>2020-02-21T11:24:23Z</time>
      </trkpt>
      <trkpt lat="38.8668300" lon="1.3058800">
        <ele>18.3</ele>
        <time>2020-02-21T11:24:24Z</time>
      </trkpt>
      <trkpt lat="38.8668370" lon="1.3058700">
        <ele>18.4</ele>
        <time>2020-02-21T11:24:25Z</time>
      </trkpt>
      <trkpt lat="38.8668580" lon="1.3058390">
        <ele>18.7</ele>
        <time>2020-02-21T11:24:26Z</time>
      </trkpt>
      <trkpt lat="38.8668640" lon="1.3058250">
        <ele>18.8</ele>
        <time>2020-02-21T11:24:27Z</time>
      </trkpt>
      <trkpt lat="38.8668800" lon="1.3057980">
        <ele>19.1</ele>
        <time>2020-02-21T11:24:28Z</time>
      </trkpt>
      <trkpt lat="38.8668860" lon="1.3057860">
        <ele>19.2</ele>
        <time>2020-02-21T11:24:29Z</time>
      </trkpt>
      <trkpt lat="38.8669100" lon="1.3057630">
        <ele>19.5</ele>
        <time>2020-02-21T11:24:30Z</time>
      </trkpt>
      <trkpt lat="38.8669170" lon="1.3057550">
        <ele>19.6</ele>
        <time>2020-02-21T11:24:31Z</time>
      </trkpt>
      <trkpt lat="38.8669490" lon="1.3057370">
        <ele>20.0</ele>
        <time>2020-02-21T11:24:32Z</time>
      </trkpt>
      <trkpt lat="38.8669580" lon="1.3057310">
        <ele>20.1</ele>
        <time>2020-02-21T11:24:33Z</time>
      </trkpt>
      <trkpt lat="38.8669970" lon="1.3057210">
        <ele>20.6</ele>
        <time>2020-02-21T11:24:34Z</time>
      </trkpt>
      <trkpt lat="38.8670090" lon="1.3057170">
        <ele>20.8</ele>
        <time>2020-02-21T11:24:35Z</time>
      </trkpt>
      <trkpt lat="38.8670290" lon="1.3057160">
        <ele>21.1</ele>
        <time>2020-02-21T11:24:36Z</time>
      </trkpt>
      <trkpt lat="38.8670450" lon="1.3057090">
        <ele>21.3</ele>
        <time>2020-02-21T11:24:37Z</time>
      </trkpt>
      <trkpt lat="38.8670710" lon="1.3057290">
        <ele>21.7</ele>
        <time>2020-02-21T11:24:38Z</time>
      </trkpt>
      <trkpt lat="38.8670790" lon="1.3057330">
        <ele>21.9</ele>
        <time>2020-02-21T11:24:39Z</time>
      </trkpt>
      <trkpt lat="38.8671100" lon="1.3057450">
        <ele>22.4</ele>
        <time>2020-02-21T11:24:40Z</time>
      </trkpt>
      <trkpt lat="38.8671180" lon="1.3057510">
        <ele>22.5</ele>
        <time>2020-02-21T11:24:41Z</time>
      </trkpt>
      <trkpt lat="38.8671420" lon="1.3057700">
        <ele>23.0</ele>
        <time>2020-02-21T11:24:42Z</time>
      </trkpt>
      <trkpt lat="38.8671500" lon="1.3057770">
        <ele>23.1</ele>
        <time>2020-02-21T11:24:43Z</time>
      </trkpt>
      <trkpt lat="38.8671650" lon="1.3057840">
        <ele>23.4</ele>
        <time>2020-02-21T11:24:44Z</time>
      </trkpt>
      <trkpt lat="38.8671760" lon="1.3057920">
        <ele>23.6</ele>
        <time>2020-02-21T11:24:45Z</time>
      </trkpt>
      <trkpt lat="38.8671850" lon="1.3058050">
        <ele>23.8</ele>
        <time>2020-02-21T11:24:46Z</time>
      </trkpt>
      <trkpt lat="38.8671980" lon="1.3058200">
        <ele>24.0</ele>
        <time>2020-02-21T11:24:47Z</time>
      </trkpt>
      <trkpt lat="38.8672140" lon="1.3058500">
        <ele>24.5</ele>
        <time>2020-02-21T11:24:48Z</time>
      </trkpt>
      <trkpt lat="38.8672170" lon="1.3058620">
        <ele>24.7</ele>
        <time>2020-02-21T11:24:49Z</time>
      </trkpt>
      <trkpt lat="38.8672170" lon="1.3058880">
        <ele>25.0</ele>
        <time>2020-02-21T11:24:50Z</time>
      </trkpt>
      <trkpt lat="38.8672130" lon="1.3059020">
        <ele>25.2</ele>
        <time>2020-02-21T11:24:51Z</time>
      </trkpt>
      <trkpt lat="38.8672090" lon="1.3059160">
        <ele>25.4</ele>
        <time>2020-02-21T11:24:52Z</time>
      </trkpt>
      <trkpt lat="38.8672020" lon="1.3059340">
        <ele>25.6</ele>
        <time>2020-02-21T11:24:53Z</time>
      </trkpt>
      <trkpt lat="38.8671910" lon="1.3059470">
        <ele>25.9</ele>
        <time>2020-02-21T11:24:54Z</time>
      </trkpt>
      <trkpt lat="38.8671850" lon="1.3059650">
        <ele>26.1</ele>
        <time>2020-02-21T11:24:55Z</time>
      </trkpt>
      <trkpt lat="38.8671760" lon="1.3059910">
        <ele>26.4</ele>
        <time>2020-02-21T11:24:56Z</time>
      </trkpt>
      <trkpt lat="38.8671740" lon="1.3060000">
        <ele>26.5</ele>
        <time>2020-02-21T11:24:57Z</time>
      </trkpt>
      <trkpt lat="38.8671710" lon="1.3060080">
        <ele>26.6</ele>
        <time>2020-02-21T11:24:58Z</time>
      </trkpt>
      <trkpt lat="38.8671600" lon="1.3060390">
        <ele>27.1</ele>
        <time>2020-02-21T11:24:59Z</time>
      </trkpt>
      <trkpt lat="38.8671560" lon="1.3060510">
        <ele>27.3</ele>
        <time>2020-02-21T11:25:00Z</time>
      </trkpt>
      <trkpt lat="38.8671370" lon="1.3060580">
        <ele>27.6</ele>
        <time>2020-02-21T11:25:01Z</time>
      </trkpt>
      <trkpt lat="38.8671240" lon="1.3060730">
        <ele>27.8</ele>
        <time>2020-02-21T11:25:02Z</time>
      </trkpt>
      <trkpt lat="38.8671140" lon="1.3060900">
        <ele>28.0</ele>
        <time>2020-02-21T11:25:03Z</time>
      </trkpt>
      <trkpt lat="38.8671090" lon="1.3061100">
        <ele>28.2</ele>
        <time>2020-02-21T11:25:04Z</time>
      </trkpt>
      <trkpt lat="38.8670970" lon="1.3061340">
        <ele>28.5</ele>
        <time>2020-02-21T11:25:05Z</time>
      </trkpt>
      <trkpt lat="38.8670900" lon="1.3061440">
        <ele>28.6</ele>
        <time>2020-02-21T11:25:06Z</time>
      </trkpt>
      <trkpt lat="38.8670840" lon="1.3061540">
        <ele>28.7</ele>
        <time>2020-02-21T11:25:07Z</time>
      </trkpt>
      <trkpt lat="38.8670850" lon="1.3061700">
        <ele>28.9</ele>
        <time>2020-02-21T11:25:08Z</time>
      </trkpt>
      <trkpt lat="38.8670830" lon="1.3061820">
        <ele>29.0</ele>
        <time>2020-02-21T11:25:09Z</time>
      </trkpt>
      <trkpt lat="38.8670860" lon="1.3061960">
        <ele>29.1</ele>
        <time>2020-02-21T11:25:10Z</time>
      </trkpt>
      <trkpt lat="38.8670820" lon="1.3062330">
        <ele>29.5</ele>
        <time>2020-02-21T11:25:11Z</time>
      </trkpt>
      <trkpt lat="38.8670820" lon="1.3062440">
        <ele>29.6</ele>
        <time>2020-02-21T11:25:12Z</time>
      </trkpt>
      <trkpt lat="38.8670860" lon="1.3062600">
        <ele>29.8</ele>
        <time>2020-02-21T11:25:13Z</time>
      </trkpt>
      <trkpt lat="38.8670800" lon="1.3062830">
        <ele>30.0</ele>
        <time>2020-02-21T11:25:14Z</time>
      </trkpt>
      <trkpt lat="38.8670830" lon="1.3063020">
        <ele>30.2</ele>
        <time>2020-02-21T11:25:15Z</time>
      </trkpt>
      <trkpt lat="38.8670880" lon="1.3063200">
        <ele>30.5</ele>
        <time>2020-02-21T11:25:16Z</time>
      </trkpt>
      <trkpt lat="38.8670950" lon="1.3063380">
        <ele>30.7</ele>
        <time>2020-02-21T11:25:17Z</time>
      </trkpt>
      <trkpt lat="38.8671020" lon="1.3063510">
        <ele>30.9</ele>
        <time>2020-02-21T11:25:18Z</time>
      </trkpt>
      <trkpt lat="38.8671240" lon="1.3063770">
        <ele>31.3</ele>
        <time>2020-02-21T11:25:19Z</time>
      </trkpt>
      <trkpt lat="38.8671290" lon="1.3063860">
        <ele>31.4</ele>
        <time>2020-02-21T11:25:20Z</time>
      </trkpt>
      <trkpt lat="38.8671420" lon="1.3064020">
        <ele>31.6</ele>
        <time>2020-02-21T11:25:21Z</time>
      </trkpt>
      <trkpt lat="38.8671520" lon="1.3064140">
        <ele>31.8</ele>
        <time>2020-02-21T11:25:22Z</time>
      </trkpt>
      <trkpt lat="38.8671680" lon="1.3064140">
        <ele>32.0</ele>
        <time>2020-02-21T11:25:23Z</time>
      </trkpt>
      <trkpt lat="38.8671820" lon="1.3064180">
        <ele>32.1</ele>
        <time>2020-02-21T11:25:24Z</time>
      </trkpt>
      <trkpt lat="38.8671960" lon="1.3064140">
        <ele>32.2</ele>
        <time>2020-02-21T11:25:25Z</time>
      </trkpt>
      <trkpt lat="38.8672090" lon="1.3064130">
        <ele>32.3</ele>
        <time>2020-02-21T11:25:26Z</time>
      </trkpt>
      <trkpt lat="38.8672230" lon="1.3064140">
        <ele>32.5</ele>
        <time>2020-02-21T11:25:27Z</time>
      </trkpt>
      <trkpt lat="38.8672380" lon="1.3064120">
        <ele>32.6</ele>
        <time>2020-02-21T11:25:28Z</time>
      </trkpt>
      <trkpt lat="38.8672600" lon="1.3064120">
        <ele>32.8</ele>
        <time>2020-02-21T11:25:29Z</time>
      </trkpt>
      <trkpt lat="38.8672710" lon="1.3064090">
        <ele>32.9</ele>
        <time>2020-02-21T11:25:30Z</time>
      </trkpt>
      <trkpt lat="38.8672810" lon="1.3064070">
        <ele>33.0</ele>
        <time>2020-02-21T11:25:31Z</time>
      </trkpt>
      <trkpt lat="38.8672980" lon="1.3064050">
        <ele>33.2</ele>
        <time>2020-02-21T11:25:32Z</time>
      </trkpt>
      <trkpt lat="38.8673120" lon="1.3064040">
        <ele>33.3</ele>
        <time>2020-02-21T11:25:33Z</time>
      </trkpt>
      <trkpt lat="38.8673240" lon="1.3064060">
        <ele>33.4</ele>
        <time>2020-02-21T11:25:34Z</time>
      </trkpt>
      <trkpt lat="38.8673440" lon="1.3064040">
        <ele>33.6</ele>
        <time>2020-02-21T11:25:35Z</time>
      </trkpt>
      <trkpt lat="38.8673610" lon="1.3064030">
        <ele>33.8</ele>
        <time>2020-02-21T11:25:36Z</time>
      </trkpt>
      <trkpt lat="38.8673760" lon="1.3064040">
        <ele>33.9</ele>
        <time>2020-02-21T11:25:37Z</time>
      </trkpt>
      <trkpt lat="38.8673970" lon="1.3063950">
        <ele>34.1</ele>
        <time>2020-02-21T11:25:38Z</time>
      </trkpt>
      <trkpt lat="38.8674040" lon="1.3063910">
        <ele>34.2</ele>
        <time>2020-02-21T11:25:39Z</time>
      </trkpt>
      <trkpt lat="38.8674120" lon="1.3063870">
        <ele>34.3</ele>
        <time>2020-02-21T11:25:40Z</time>
      </trkpt>
      <trkpt lat="38.8674230" lon="1.3063750">
        <ele>34.4</ele>
        <time>2020-02-21T11:25:41Z</time>
      </trkpt>
      <trkpt lat="38.8674360" lon="1.3063610">
        <ele>34.5</ele>
        <time>2020-02-21T11:25:42Z</time>
      </trkpt>
      <trkpt lat="38.8674510" lon="1.3063510">
        <ele>34.7</ele>
        <time>2020-02-21T11:25:43Z</time>
      </trkpt>
      <trkpt lat="38.8674660" lon="1.3063430">
        <ele>34.8</ele>
        <time>2020-02-21T11:25:44Z</time>
      </trkpt>
      <trkpt lat="38.8674870" lon="1.3063180">
        <ele>35.0</ele>
        <time>2020-02-21T11:25:45Z</time>
      </trkpt>
      <trkpt lat="38.8675060" lon="1.3062930">
        <ele>35.3</ele>
        <time>2020-02-21T11:25:46Z</time>
      </trkpt>
      <trkpt lat="38.8675380" lon="1.3062730">
        <ele>35.6</ele>
        <time>2020-02-21T11:25:47Z</time>
      </trkpt>
      <trkpt lat="38.8675510" lon="1.3062690">
        <ele>35.7</ele>
        <time>2020-02-21T11:25:48Z</time>
      </trkpt>
      <trkpt lat="38.8675790" lon="1.3062600">
        <ele>35.9</ele>
        <time>2020-02-21T11:25:49Z</time>
      </trkpt>
      <trkpt lat="38.8675890" lon="1.3062570">
        <ele>36.0</ele>
        <time>2020-02-21T11:25:50Z</time>
      </trkpt>
      <trkpt lat="38.8676140" lon="1.3062420">
        <ele>36.2</ele>
        <time>2020-02-21T11:25:51Z</time>
      </trkpt>
      <trkpt lat="38.8676220" lon="1.3062350">
        <ele>36.2</ele>
        <time>2020-02-21T11:25:52Z</time>
      </trkpt>
      <trkpt lat="38.8676540" lon="1.3062250">
        <ele>36.4</ele>
        <time>2020-02-21T11:25:53Z</time>
      </trkpt>
      <trkpt lat="38.8676640" lon="1.3062220">
        <ele>36.5</ele>
        <time>2020-02-21T11:25:54Z</time>
      </trkpt>
      <trkpt lat="38.8676950" lon="1.3062040">
        <ele>36.6</ele>
        <time>2020-02-21T11:25:55Z</time>
      </trkpt>
      <trkpt lat="38.8677050" lon="1.3061970">
        <ele>36.7</ele>
        <time>2020-02-21T11:25:56Z</time>
      </trkpt>
      <trkpt lat="38.8677380" lon="1.3062000">
        <ele>36.8</ele>
        <time>2020-02-21T11:25:57Z</time>
      </trkpt>
      <trkpt lat="38.8677510" lon="1.3062020">
        <ele>36.9</ele>
        <time>2020-02-21T11:25:58Z</time>
      </trkpt>
      <trkpt lat="38.8677870" lon="1.3062030">
        <ele>37.1</ele>
        <time>2020-02-21T11:25:59Z</time>
      </trkpt>
      <trkpt lat="38.8677990" lon="1.3062070">
        <ele>37.1</ele>
        <time>2020-02-21T11:26:00Z</time>
      </trkpt>
      <trkpt lat="38.8678380" lon="1.3062170">
        <ele>37.3</ele>
        <time>2020-02-21T11:26:01Z</time>
      </trkpt>
      <trkpt lat="38.8678510" lon="1.3062190">
        <ele>37.3</ele>
        <time>2020-02-21T11:26:02Z</time>
      </trkpt>
      <trkpt lat="38.8678830" lon="1.3062220">
        <ele>37.4</ele>
        <time>2020-02-21T11:26:03Z</time>
      </trkpt>
      <trkpt lat="38.8678970" lon="1.3062280">
        <ele>37.5</ele>
        <time>2020-02-21T11:26:04Z</time>
      </trkpt>
      <trkpt lat="38.8679340" lon="1.3062270">
        <ele>37.6</ele>
        <time>2020-02-21T11:26:05Z</time>
      </trkpt>
      <trkpt lat="38.8679470" lon="1.3062270">
        <ele>37.6</ele>
        <time>2020-02-21T11:26:06Z</time>
      </trkpt>
      <trkpt lat="38.8679760" lon="1.3062310">
        <ele>37.7</ele>
        <time>2020-02-21T11:26:07Z</time>
      </trkpt>
      <trkpt lat="38.8680140" lon="1.3062320">
        <ele>37.9</ele>
        <time>2020-02-21T11:26:08Z</time>
      </trkpt>
      <trkpt lat="38.8680260" lon="1.3062310">
        <ele>37.9</ele>
        <time>2020-02-21T11:26:09Z</time>
      </trkpt>
      <trkpt lat="38.8680540" lon="1.3062340">
        <ele>38.0</ele>
        <time>2020-02-21T11:26:10Z</time>
      </trkpt>
      <trkpt lat="38.8680890" lon="1.3062510">
        <ele>38.2</ele>
        <time>2020-02-21T11:26:11Z</time>
      </trkpt>
      <trkpt lat="38.8681260" lon="1.3062420">
        <ele>38.3</ele>
        <time>2020-02-21T11:26:12Z</time>
      </trkpt>
      <trkpt lat="38.8681410" lon="1.3062390">
        <ele>38.4</ele>
        <time>2020-02-21T11:26:13Z</time>
      </trkpt>
      <trkpt lat="38.8681720" lon="1.3062480">
        <ele>38.5</ele>
        <time>2020-02-21T11:26:14Z</time>
      </trkpt>
      <trkpt lat="38.8682050" lon="1.3062610">
        <ele>38.5</ele>
        <time>2020-02-21T11:26:15Z</time>
      </trkpt>
      <trkpt lat="38.8682400" lon="1.3062740">
        <ele>38.6</ele>
        <time>2020-02-21T11:26:16Z</time>
      </trkpt>
      <trkpt lat="38.8682540" lon="1.3062790">
        <ele>38.6</ele>
        <time>2020-02-21T11:26:17Z</time>
      </trkpt>
      <trkpt lat="38.8682920" lon="1.3062830">
        <ele>38.7</ele>
        <time>2020-02-21T11:26:18Z</time>
      </trkpt>
      <trkpt lat="38.8683030" lon="1.3062870">
        <ele>38.7</ele>
        <time>2020-02-21T11:26:19Z</time>
      </trkpt>
      <trkpt lat="38.8683400" lon="1.3063070">
        <ele>38.8</ele>
        <time>2020-02-21T11:26:20Z</time>
      </trkpt>
      <trkpt lat="38.8683600" lon="1.3063130">
        <ele>38.9</ele>
        <time>2020-02-21T11:26:21Z</time>
      </trkpt>
      <trkpt lat="38.8683910" lon="1.3063120">
        <ele>38.9</ele>
        <time>2020-02-21T11:26:22Z</time>
      </trkpt>
      <trkpt lat="38.8684070" lon="1.3063160">
        <ele>39.0</ele>
        <time>2020-02-21T11:26:23Z</time>
      </trkpt>
      <trkpt lat="38.8684460" lon="1.3063260">
        <ele>39.0</ele>
        <time>2020-02-21T11:26:24Z</time>
      </trkpt>
      <trkpt lat="38.8684600" lon="1.3063300">
        <ele>39.1</ele>
        <time>2020-02-21T11:26:25Z</time>
      </trkpt>
      <trkpt lat="38.8684870" lon="1.3063410">
        <ele>39.1</ele>
        <time>2020-02-21T11:26:26Z</time>
      </trkpt>
      <trkpt lat="38.8685180" lon="1.3063550">
        <ele>39.1</ele>
        <time>2020-02-21T11:26:27Z</time>
      </trkpt>
      <trkpt lat="38.8685470" lon="1.3063680">
        <ele>39.2</ele>
        <time>2020-02-21T11:26:28Z</time>
      </trkpt>
      <trkpt lat="38.8685760" lon="1.3063840">
        <ele>39.2</ele>
        <time>2020-02-21T11:26:29Z</time>
      </trkpt>
      <trkpt lat="38.8686070" lon="1.3063970">
        <ele>39.2</ele>
        <time>2020-02-21T11:26:30Z</time>
      </trkpt>
      <trkpt lat="38.8686430" lon="1.3064100">
        <ele>39.3</ele>
        <time>2020-02-21T11:26:31Z</time>
      </trkpt>
      <trkpt lat="38.8686760" lon="1.3064230">
        <ele>39.4</ele>
        <time>2020-02-21T11:26:32Z</time>
      </trkpt>
      <trkpt lat="38.8687090" lon="1.3064290">
        <ele>39.4</ele>
        <time>2020-02-21T11:26:33Z</time>
      </trkpt>
      <trkpt lat="38.8687500" lon="1.3064260">
        <ele>39.5</ele>
        <time>2020-02-21T11:26:34Z</time>
      </trkpt>
      <trkpt lat="38.8687890" lon="1.3064370">
        <ele>39.6</ele>
        <time>2020-02-21T11:26:35Z</time>
      </trkpt>
      <trkpt lat="38.8688230" lon="1.3064480">
        <ele>39.6</ele>
        <time>2020-02-21T11:26:36Z</time>
      </trkpt>
      <trkpt lat="38.8688480" lon="1.3064660">
        <ele>39.6</ele>
        <time>2020-02-21T11:26:37Z</time>
      </trkpt>
      <trkpt lat="38.8688940" lon="1.3064910">
        <ele>39.7</ele>
        <time>2020-02-21T11:26:38Z</time>
      </trkpt>
      <trkpt lat="38.8689240" lon="1.3065030">
        <ele>39.7</ele>
        <time>2020-02-21T11:26:39Z</time>
      </trkpt>
      <trkpt lat="38.8689560" lon="1.3065170">
        <ele>39.7</ele>
        <time>2020-02-21T11:26:40Z</time>
      </trkpt>
      <trkpt lat="38.8689900" lon="1.3065280">
        <ele>39.8</ele>
        <time>2020-02-21T11:26:41Z</time>
      </trkpt>
      <trkpt lat="38.8690330" lon="1.3065300">
        <ele>39.8</ele>
        <time>2020-02-21T11:26:42Z</time>
      </trkpt>
      <trkpt lat="38.8690500" lon="1.3065290">
        <ele>39.8</ele>
        <time>2020-02-21T11:26:43Z</time>
      </trkpt>
      <trkpt lat="38.8690860" lon="1.3065070">
        <ele>39.9</ele>
        <time>2020-02-21T11:26:44Z</time>
      </trkpt>
      <trkpt lat="38.8691220" lon="1.3064690">
        <ele>39.9</ele>
        <time>2020-02-21T11:26:45Z</time>
      </trkpt>
      <trkpt lat="38.8691540" lon="1.3064260">
        <ele>39.9</ele>
        <time>2020-02-21T11:26:46Z</time>
      </trkpt>
      <trkpt lat="38.8691870" lon="1.3063800">
        <ele>40.0</ele>
        <time>2020-02-21T11:26:47Z</time>
      </trkpt>
      <trkpt lat="38.8692170" lon="1.3063380">
        <ele>40.1</ele>
        <time>2020-02-21T11:26:48Z</time>
      </trkpt>
      <trkpt lat="38.8692480" lon="1.3063000">
        <ele>40.1</ele>
        <time>2020-02-21T11:26:49Z</time>
      </trkpt>
      <trkpt lat="38.8692770" lon="1.3062540">
        <ele>40.2</ele>
        <time>2020-02-21T11:26:50Z</time>
      </trkpt>
      <trkpt lat="38.8693030" lon="1.3062150">
        <ele>40.2</ele>
        <time>2020-02-21T11:26:51Z</time>
      </trkpt>
      <trkpt lat="38.8693300" lon="1.3061690">
        <ele>40.3</ele>
        <time>2020-02-21T11:26:52Z</time>
      </trkpt>
      <trkpt lat="38.8693590" lon="1.3061310">
        <ele>40.4</ele>
        <time>2020-02-21T11:26:53Z</time>
      </trkpt>
      <trkpt lat="38.8693840" lon="1.3060940">
        <ele>40.4</ele>
        <time>2020-02-21T11:26:54Z</time>
      </trkpt>
      <trkpt lat="38.8694110" lon="1.3060640">
        <ele>40.5</ele>
        <time>2020-02-21T11:26:55Z</time>
      </trkpt>
      <trkpt lat="38.8694360" lon="1.3060330">
        <ele>40.6</ele>
        <time>2020-02-21T11:26:56Z</time>
      </trkpt>
      <trkpt lat="38.8694590" lon="1.3060000">
        <ele>40.6</ele>
        <time>2020-02-21T11:26:57Z</time>
      </trkpt>
      <trkpt lat="38.8694820" lon="1.3059660">
        <ele>40.6</ele>
        <time>2020-02-21T11:26:58Z</time>
      </trkpt>
      <trkpt lat="38.8695090" lon="1.3059260">
        <ele>40.7</ele>
        <time>2020-02-21T11:26:59Z</time>
      </trkpt>
      <trkpt lat="38.8695310" lon="1.3058820">
        <ele>40.7</ele>
        <time>2020-02-21T11:27:00Z</time>
      </trkpt>
      <trkpt lat="38.8695550" lon="1.3058340">
        <ele>40.8</ele>
        <time>2020-02-21T11:27:01Z</time>
      </trkpt>
      <trkpt lat="38.8695770" lon="1.3057910">
        <ele>40.8</ele>
        <time>2020-02-21T11:27:02Z</time>
      </trkpt>
      <trkpt lat="38.8696040" lon="1.3057540">
        <ele>40.8</ele>
        <time>2020-02-21T11:27:03Z</time>
      </trkpt>
      <trkpt lat="38.8696300" lon="1.3057230">
        <ele>40.8</ele>
        <time>2020-02-21T11:27:04Z</time>
      </trkpt>
      <trkpt lat="38.8696540" lon="1.3056920">
        <ele>40.8</ele>
        <time>2020-02-21T11:27:05Z</time>
      </trkpt>
      <trkpt lat="38.8696830" lon="1.3056510">
        <ele>40.8</ele>
        <time>2020-02-21T11:27:06Z</time>
      </trkpt>
      <trkpt lat="38.8697130" lon="1.3056090">
        <ele>40.8</ele>
        <time>2020-02-21T11:27:07Z</time>
      </trkpt>
      <trkpt lat="38.8697390" lon="1.3055680">
        <ele>40.8</ele>
        <time>2020-02-21T11:27:08Z</time>
      </trkpt>
      <trkpt lat="38.8697630" lon="1.3055280">
        <ele>40.8</ele>
        <time>2020-02-21T11:27:09Z</time>
      </trkpt>
      <trkpt lat="38.8697900" lon="1.3054840">
        <ele>40.8</ele>
        <time>2020-02-21T11:27:10Z</time>
      </trkpt>
      <trkpt lat="38.8698140" lon="1.3054410">
        <ele>40.8</ele>
        <time>2020-02-21T11:27:11Z</time>
      </trkpt>
      <trkpt lat="38.8698400" lon="1.3053910">
        <ele>40.8</ele>
        <time>2020-02-21T11:27:12Z</time>
      </trkpt>
      <trkpt lat="38.8698670" lon="1.3053500">
        <ele>40.8</ele>
        <time>2020-02-21T11:27:13Z</time>
      </trkpt>
      <trkpt lat="38.8698990" lon="1.3053120">
        <ele>40.8</ele>
        <time>2020-02-21T11:27:14Z</time>
      </trkpt>
      <trkpt lat="38.8699240" lon="1.3052720">
        <ele>40.8</ele>
        <time>2020-02-21T11:27:15Z</time>
      </trkpt>
      <trkpt lat="38.8699460" lon="1.3052110">
        <ele>40.8</ele>
        <time>2020-02-21T11:27:16Z</time>
      </trkpt>
      <trkpt lat="38.8699790" lon="1.3051590">
        <ele>40.8</ele>
        <time>2020-02-21T11:27:17Z</time>
      </trkpt>
      <trkpt lat="38.8700080" lon="1.3051140">
        <ele>40.8</ele>
        <time>2020-02-21T11:27:18Z</time>
      </trkpt>
      <trkpt lat="38.8700400" lon="1.3050850">
        <ele>40.8</ele>
        <time>2020-02-21T11:27:19Z</time>
      </trkpt>
      <trkpt lat="38.8700720" lon="1.3050430">
        <ele>40.8</ele>
        <time>2020-02-21T11:27:20Z</time>
      </trkpt>
      <trkpt lat="38.8701060" lon="1.3049980">
        <ele>40.8</ele>
        <time>2020-02-21T11:27:21Z</time>
      </trkpt>
      <trkpt lat="38.8701370" lon="1.3049580">
        <ele>40.8</ele>
        <time>2020-02-21T11:27:22Z</time>
      </trkpt>
      <trkpt lat="38.8701700" lon="1.3049110">
        <ele>40.8</ele>
        <time>2020-02-21T11:27:23Z</time>
      </trkpt>
      <trkpt lat="38.8702040" lon="1.3048680">
        <ele>40.8</ele>
        <time>2020-02-21T11:27:24Z</time>
      </trkpt>
      <trkpt lat="38.8702380" lon="1.3048230">
        <ele>40.8</ele>
        <time>2020-02-21T11:27:25Z</time>
      </trkpt>
      <trkpt lat="38.8702700" lon="1.3047830">
        <ele>40.8</ele>
        <time>2020-02-21T11:27:26Z</time>
      </trkpt>
      <trkpt lat="38.8703000" lon="1.3047390">
        <ele>40.8</ele>
        <time>2020-02-21T11:27:27Z</time>
      </trkpt>
      <trkpt lat="38.8703300" lon="1.3046910">
        <ele>40.8</ele>
        <time>2020-02-21T11:27:28Z</time>
      </trkpt>
      <trkpt lat="38.8703590" lon="1.3046480">
        <ele>40.8</ele>
        <time>2020-02-21T11:27:29Z</time>
      </trkpt>
      <trkpt lat="38.8703900" lon="1.3045950">
        <ele>40.8</ele>
        <time>2020-02-21T11:27:30Z</time>
      </trkpt>
      <trkpt lat="38.8704200" lon="1.3045380">
        <ele>40.8</ele>
        <time>2020-02-21T11:27:31Z</time>
      </trkpt>
      <trkpt lat="38.8704550" lon="1.3044780">
        <ele>40.8</ele>
        <time>2020-02-21T11:27:32Z</time>
      </trkpt>
      <trkpt lat="38.8704860" lon="1.3044250">
        <ele>40.8</ele>
        <time>2020-02-21T11:27:33Z</time>
      </trkpt>
      <trkpt lat="38.8705180" lon="1.3043730">
        <ele>40.7</ele>
        <time>2020-02-21T11:27:34Z</time>
      </trkpt>
      <trkpt lat="38.8705480" lon="1.3043280">
        <ele>40.7</ele>
        <time>2020-02-21T11:27:35Z</time>
      </trkpt>
      <trkpt lat="38.8705730" lon="1.3042830">
        <ele>40.7</ele>
        <time>2020-02-21T11:27:36Z</time>
      </trkpt>
      <trkpt lat="38.8705950" lon="1.3042460">
        <ele>40.7</ele>
        <time>2020-02-21T11:27:37Z</time>
      </trkpt>
      <trkpt lat="38.8706200" lon="1.3041970">
        <ele>40.7</ele>
        <time>2020-02-21T11:27:38Z</time>
      </trkpt>
      <trkpt lat="38.8706450" lon="1.3041490">
        <ele>40.6</ele>
        <time>2020-02-21T11:27:39Z</time>
      </trkpt>
      <trkpt lat="38.8706730" lon="1.3041010">
        <ele>40.6</ele>
        <time>2020-02-21T11:27:40Z</time>
      </trkpt>
      <trkpt lat="38.8707020" lon="1.3040640">
        <ele>40.7</ele>
        <time>2020-02-21T11:27:41Z</time>
      </trkpt>
      <trkpt lat="38.8707330" lon="1.3040190">
        <ele>40.7</ele>
        <time>2020-02-21T11:27:42Z</time>
      </trkpt>
      <trkpt lat="38.8707590" lon="1.3039720">
        <ele>40.7</ele>
        <time>2020-02-21T11:27:43Z</time>
      </trkpt>
      <trkpt lat="38.8707820" lon="1.3039180">
        <ele>40.8</ele>
        <time>2020-02-21T11:27:44Z</time>
      </trkpt>
      <trkpt lat="38.8708060" lon="1.3038850">
        <ele>40.8</ele>
        <time>2020-02-21T11:27:45Z</time>
      </trkpt>
      <trkpt lat="38.8708340" lon="1.3038420">
        <ele>40.9</ele>
        <time>2020-02-21T11:27:46Z</time>
      </trkpt>
      <trkpt lat="38.8708590" lon="1.3038060">
        <ele>40.9</ele>
        <time>2020-02-21T11:27:47Z</time>
      </trkpt>
      <trkpt lat="38.8708830" lon="1.3037690">
        <ele>41.0</ele>
        <time>2020-02-21T11:27:48Z</time>
      </trkpt>
      <trkpt lat="38.8709110" lon="1.3037300">
        <ele>41.2</ele>
        <time>2020-02-21T11:27:49Z</time>
      </trkpt>
      <trkpt lat="38.8709430" lon="1.3036880">
        <ele>41.3</ele>
        <time>2020-02-21T11:27:50Z</time>
      </trkpt>
      <trkpt lat="38.8709710" lon="1.3036570">
        <ele>41.5</ele>
        <time>2020-02-21T11:27:51Z</time>
      </trkpt>
      <trkpt lat="38.8710020" lon="1.3036200">
        <ele>41.6</ele>
        <time>2020-02-21T11:27:52Z</time>
      </trkpt>
      <trkpt lat="38.8710270" lon="1.3035700">
        <ele>41.9</ele>
        <time>2020-02-21T11:27:53Z</time>
      </trkpt>
      <trkpt lat="38.8710520" lon="1.3035270">
        <ele>42.0</ele>
        <time>2020-02-21T11:27:54Z</time>
      </trkpt>
      <trkpt lat="38.8710840" lon="1.3034910">
        <ele>42.3</ele>
        <time>2020-02-21T11:27:55Z</time>
      </trkpt>
      <trkpt lat="38.8711120" lon="1.3034640">
        <ele>42.5</ele>
        <time>2020-02-21T11:27:56Z</time>
      </trkpt>
      <trkpt lat="38.8711420" lon="1.3034430">
        <ele>42.8</ele>
        <time>2020-02-21T11:27:57Z</time>
      </trkpt>
      <trkpt lat="38.8711660" lon="1.3034120">
        <ele>43.0</ele>
        <time>2020-02-21T11:27:58Z</time>
      </trkpt>
      <trkpt lat="38.8711940" lon="1.3033820">
        <ele>43.2</ele>
        <time>2020-02-21T11:27:59Z</time>
      </trkpt>
      <trkpt lat="38.8712140" lon="1.3033490">
        <ele>43.4</ele>
        <time>2020-02-21T11:28:00Z</time>
      </trkpt>
      <trkpt lat="38.8712350" lon="1.3033060">
        <ele>43.6</ele>
        <time>2020-02-21T11:28:01Z</time>
      </trkpt>
      <trkpt lat="38.8712610" lon="1.3032670">
        <ele>43.9</ele>
        <time>2020-02-21T11:28:02Z</time>
      </trkpt>
      <trkpt lat="38.8712840" lon="1.3032410">
        <ele>44.1</ele>
        <time>2020-02-21T11:28:03Z</time>
      </trkpt>
      <trkpt lat="38.8713050" lon="1.3032160">
        <ele>44.3</ele>
        <time>2020-02-21T11:28:04Z</time>
      </trkpt>
      <trkpt lat="38.8713300" lon="1.3031790">
        <ele>44.5</ele>
        <time>2020-02-21T11:28:05Z</time>
      </trkpt>
      <trkpt lat="38.8713490" lon="1.3031490">
        <ele>44.7</ele>
        <time>2020-02-21T11:28:06Z</time>
      </trkpt>
      <trkpt lat="38.8713750" lon="1.3031160">
        <ele>45.0</ele>
        <time>2020-02-21T11:28:07Z</time>
      </trkpt>
      <trkpt lat="38.8713980" lon="1.3030900">
        <ele>45.2</ele>
        <time>2020-02-21T11:28:08Z</time>
      </trkpt>
      <trkpt lat="38.8714200" lon="1.3030660">
        <ele>45.4</ele>
        <time>2020-02-21T11:28:09Z</time>
      </trkpt>
      <trkpt lat="38.8714440" lon="1.3030470">
        <ele>45.5</ele>
        <time>2020-02-21T11:28:10Z</time>
      </trkpt>
      <trkpt lat="38.8714690" lon="1.3030150">
        <ele>45.7</ele>
        <time>2020-02-21T11:28:11Z</time>
      </trkpt>
      <trkpt lat="38.8714900" lon="1.3029880">
        <ele>45.8</ele>
        <time>2020-02-21T11:28:12Z</time>
      </trkpt>
      <trkpt lat="38.8715140" lon="1.3029680">
        <ele>46.0</ele>
        <time>2020-02-21T11:28:13Z</time>
      </trkpt>
      <trkpt lat="38.8715440" lon="1.3029560">
        <ele>46.1</ele>
        <time>2020-02-21T11:28:14Z</time>
      </trkpt>
      <trkpt lat="38.8715710" lon="1.3029330">
        <ele>46.2</ele>
        <time>2020-02-21T11:28:15Z</time>
      </trkpt>
      <trkpt lat="38.8716010" lon="1.3029020">
        <ele>46.3</ele>
        <time>2020-02-21T11:28:16Z</time>
      </trkpt>
      <trkpt lat="38.8716340" lon="1.3028730">
        <ele>46.4</ele>
        <time>2020-02-21T11:28:17Z</time>
      </trkpt>
      <trkpt lat="38.8716530" lon="1.3028440">
        <ele>46.5</ele>
        <time>2020-02-21T11:28:18Z</time>
      </trkpt>
      <trkpt lat="38.8716800" lon="1.3028220">
        <ele>46.5</ele>
        <time>2020-02-21T11:28:19Z</time>
      </trkpt>
      <trkpt lat="38.8717180" lon="1.3028090">
        <ele>46.6</ele>
        <time>2020-02-21T11:28:20Z</time>
      </trkpt>
      <trkpt lat="38.8717540" lon="1.3028130">
        <ele>46.7</ele>
        <time>2020-02-21T11:28:21Z</time>
      </trkpt>
      <trkpt lat="38.8717920" lon="1.3028170">
        <ele>46.8</ele>
        <time>2020-02-21T11:28:22Z</time>
      </trkpt>
      <trkpt lat="38.8718230" lon="1.3028120">
        <ele>46.8</ele>
        <time>2020-02-21T11:28:23Z</time>
      </trkpt>
      <trkpt lat="38.8718560" lon="1.3028080">
        <ele>46.8</ele>
        <time>2020-02-21T11:28:24Z</time>
      </trkpt>
      <trkpt lat="38.8718890" lon="1.3028120">
        <ele>46.9</ele>
        <time>2020-02-21T11:28:25Z</time>
      </trkpt>
      <trkpt lat="38.8719220" lon="1.3028270">
        <ele>46.9</ele>
        <time>2020-02-21T11:28:26Z</time>
      </trkpt>
      <trkpt lat="38.8719510" lon="1.3028540">
        <ele>46.9</ele>
        <time>2020-02-21T11:28:27Z</time>
      </trkpt>
      <trkpt lat="38.8719850" lon="1.3028790">
        <ele>47.0</ele>
        <time>2020-02-21T11:28:28Z</time>
      </trkpt>
      <trkpt lat="38.8720120" lon="1.3029050">
        <ele>47.0</ele>
        <time>2020-02-21T11:28:29Z</time>
      </trkpt>
      <trkpt lat="38.8720510" lon="1.3029280">
        <ele>47.1</ele>
        <time>2020-02-21T11:28:30Z</time>
      </trkpt>
      <trkpt lat="38.8720850" lon="1.3029650">
        <ele>47.2</ele>
        <time>2020-02-21T11:28:31Z</time>
      </trkpt>
      <trkpt lat="38.8721150" lon="1.3029990">
        <ele>47.3</ele>
        <time>2020-02-21T11:28:32Z</time>
      </trkpt>
      <trkpt lat="38.8721410" lon="1.3030250">
        <ele>47.4</ele>
        <time>2020-02-21T11:28:33Z</time>
      </trkpt>
      <trkpt lat="38.8721750" lon="1.3030420">
        <ele>47.5</ele>
        <time>2020-02-21T11:28:34Z</time>
      </trkpt>
      <trkpt lat="38.8722110" lon="1.3030680">
        <ele>47.6</ele>
        <time>2020-02-21T11:28:35Z</time>
      </trkpt>
      <trkpt lat="38.8722420" lon="1.3030990">
        <ele>47.7</ele>
        <time>2020-02-21T11:28:36Z</time>
      </trkpt>
      <trkpt lat="38.8722740" lon="1.3031400">
        <ele>47.8</ele>
        <time>2020-02-21T11:28:37Z</time>
      </trkpt>
      <trkpt lat="38.8723060" lon="1.3031820">
        <ele>48.0</ele>
        <time>2020-02-21T11:28:38Z</time>
      </trkpt>
      <trkpt lat="38.8723390" lon="1.3032070">
        <ele>48.1</ele>
        <time>2020-02-21T11:28:39Z</time>
      </trkpt>
      <trkpt lat="38.8723780" lon="1.3032350">
        <ele>48.3</ele>
        <time>2020-02-21T11:28:40Z</time>
      </trkpt>
      <trkpt lat="38.8724170" lon="1.3032630">
        <ele>48.6</ele>
        <time>2020-02-21T11:28:41Z</time>
      </trkpt>
      <trkpt lat="38.8724460" lon="1.3032930">
        <ele>48.7</ele>
        <time>2020-02-21T11:28:42Z</time>
      </trkpt>
      <trkpt lat="38.8724770" lon="1.3033230">
        <ele>48.9</ele>
        <time>2020-02-21T11:28:43Z</time>
      </trkpt>
      <trkpt lat="38.8725150" lon="1.3033480">
        <ele>49.0</ele>
        <time>2020-02-21T11:28:44Z</time>
      </trkpt>
      <trkpt lat="38.8725490" lon="1.3033720">
        <ele>49.1</ele>
        <time>2020-02-21T11:28:45Z</time>
      </trkpt>
      <trkpt lat="38.8725730" lon="1.3034110">
        <ele>49.3</ele>
        <time>2020-02-21T11:28:46Z</time>
      </trkpt>
      <trkpt lat="38.8726030" lon="1.3034510">
        <ele>49.5</ele>
        <time>2020-02-21T11:28:47Z</time>
      </trkpt>
      <trkpt lat="38.8726290" lon="1.3034810">
        <ele>49.5</ele>
        <time>2020-02-21T11:28:48Z</time>
      </trkpt>
      <trkpt lat="38.8726580" lon="1.3035050">
        <ele>49.6</ele>
        <time>2020-02-21T11:28:49Z</time>
      </trkpt>
      <trkpt lat="38.8726860" lon="1.3035290">
        <ele>49.7</ele>
        <time>2020-02-21T11:28:50Z</time>
      </trkpt>
      <trkpt lat="38.8727130" lon="1.3035620">
        <ele>49.8</ele>
        <time>2020-02-21T11:28:51Z</time>
      </trkpt>
      <trkpt lat="38.8727430" lon="1.3035910">
        <ele>49.8</ele>
        <time>2020-02-21T11:28:52Z</time>
      </trkpt>
      <trkpt lat="38.8727770" lon="1.3036120">
        <ele>49.9</ele>
        <time>2020-02-21T11:28:53Z</time>
      </trkpt>
      <trkpt lat="38.8728060" lon="1.3036340">
        <ele>50.0</ele>
        <time>2020-02-21T11:28:54Z</time>
      </trkpt>
      <trkpt lat="38.8728310" lon="1.3036510">
        <ele>50.0</ele>
        <time>2020-02-21T11:28:55Z</time>
      </trkpt>
      <trkpt lat="38.8728590" lon="1.3036720">
        <ele>50.1</ele>
        <time>2020-02-21T11:28:56Z</time>
      </trkpt>
      <trkpt lat="38.8728910" lon="1.3037110">
        <ele>50.3</ele>
        <time>2020-02-21T11:28:57Z</time>
      </trkpt>
      <trkpt lat="38.8729180" lon="1.3037320">
        <ele>50.4</ele>
        <time>2020-02-21T11:28:58Z</time>
      </trkpt>
      <trkpt lat="38.8729460" lon="1.3037580">
        <ele>50.5</ele>
        <time>2020-02-21T11:28:59Z</time>
      </trkpt>
      <trkpt lat="38.8729780" lon="1.3037780">
        <ele>50.7</ele>
        <time>2020-02-21T11:29:00Z</time>
      </trkpt>
      <trkpt lat="38.8730140" lon="1.3037990">
        <ele>50.9</ele>
        <time>2020-02-21T11:29:01Z</time>
      </trkpt>
      <trkpt lat="38.8730460" lon="1.3038310">
        <ele>51.1</ele>
        <time>2020-02-21T11:29:02Z</time>
      </trkpt>
      <trkpt lat="38.8730790" lon="1.3038600">
        <ele>51.2</ele>
        <time>2020-02-21T11:29:03Z</time>
      </trkpt>
      <trkpt lat="38.8731140" lon="1.3038880">
        <ele>51.4</ele>
        <time>2020-02-21T11:29:04Z</time>
      </trkpt>
      <trkpt lat="38.8731450" lon="1.3039100">
        <ele>51.5</ele>
        <time>2020-02-21T11:29:05Z</time>
      </trkpt>
      <trkpt lat="38.8731710" lon="1.3039280">
        <ele>51.6</ele>
        <time>2020-02-21T11:29:06Z</time>
      </trkpt>
      <trkpt lat="38.8731990" lon="1.3039520">
        <ele>51.7</ele>
        <time>2020-02-21T11:29:07Z</time>
      </trkpt>
      <trkpt lat="38.8732300" lon="1.3039740">
        <ele>51.8</ele>
        <time>2020-02-21T11:29:08Z</time>
      </trkpt>
      <trkpt lat="38.8732620" lon="1.3040030">
        <ele>51.8</ele>
        <time>2020-02-21T11:29:09Z</time>
      </trkpt>
      <trkpt lat="38.8732900" lon="1.3040330">
        <ele>51.8</ele>
        <time>2020-02-21T11:29:10Z</time>
      </trkpt>
      <trkpt lat="38.8733250" lon="1.3040690">
        <ele>51.8</ele>
        <time>2020-02-21T11:29:11Z</time>
      </trkpt>
      <trkpt lat="38.8733630" lon="1.3041040">
        <ele>51.9</ele>
        <time>2020-02-21T11:29:12Z</time>
      </trkpt>
      <trkpt lat="38.8734000" lon="1.3041290">
        <ele>51.9</ele>
        <time>2020-02-21T11:29:13Z</time>
      </trkpt>
      <trkpt lat="38.8734370" lon="1.3041470">
        <ele>51.9</ele>
        <time>2020-02-21T11:29:14Z</time>
      </trkpt>
      <trkpt lat="38.8734780" lon="1.3041690">
        <ele>52.0</ele>
        <time>2020-02-21T11:29:15Z</time>
      </trkpt>
      <trkpt lat="38.8735050" lon="1.3041800">
        <ele>52.1</ele>
        <time>2020-02-21T11:29:16Z</time>
      </trkpt>
      <trkpt lat="38.8735430" lon="1.3041860">
        <ele>52.2</ele>
        <time>2020-02-21T11:29:17Z</time>
      </trkpt>
      <trkpt lat="38.8735830" lon="1.3041950">
        <ele>52.3</ele>
        <time>2020-02-21T11:29:18Z</time>
      </trkpt>
      <trkpt lat="38.8736240" lon="1.3042050">
        <ele>52.4</ele>
        <time>2020-02-21T11:29:19Z</time>
      </trkpt>
      <trkpt lat="38.8736570" lon="1.3042120">
        <ele>52.5</ele>
        <time>2020-02-21T11:29:20Z</time>
      </trkpt>
      <trkpt lat="38.8736890" lon="1.3042130">
        <ele>52.7</ele>
        <time>2020-02-21T11:29:21Z</time>
      </trkpt>
      <trkpt lat="38.8737290" lon="1.3042170">
        <ele>52.9</ele>
        <time>2020-02-21T11:29:22Z</time>
      </trkpt>
      <trkpt lat="38.8737750" lon="1.3042230">
        <ele>53.2</ele>
        <time>2020-02-21T11:29:23Z</time>
      </trkpt>
      <trkpt lat="38.8738230" lon="1.3042230">
        <ele>53.4</ele>
        <time>2020-02-21T11:29:24Z</time>
      </trkpt>
      <trkpt lat="38.8738610" lon="1.3042200">
        <ele>53.6</ele>
        <time>2020-02-21T11:29:25Z</time>
      </trkpt>
      <trkpt lat="38.8738920" lon="1.3042230">
        <ele>53.8</ele>
        <time>2020-02-21T11:29:26Z</time>
      </trkpt>
      <trkpt lat="38.8739210" lon="1.3042250">
        <ele>53.9</ele>
        <time>2020-02-21T11:29:27Z</time>
      </trkpt>
      <trkpt lat="38.8739490" lon="1.3042180">
        <ele>54.1</ele>
        <time>2020-02-21T11:29:28Z</time>
      </trkpt>
      <trkpt lat="38.8739820" lon="1.3042220">
        <ele>54.3</ele>
        <time>2020-02-21T11:29:29Z</time>
      </trkpt>
      <trkpt lat="38.8740240" lon="1.3042250">
        <ele>54.5</ele>
        <time>2020-02-21T11:29:30Z</time>
      </trkpt>
      <trkpt lat="38.8740670" lon="1.3042200">
        <ele>54.8</ele>
        <time>2020-02-21T11:29:31Z</time>
      </trkpt>
      <trkpt lat="38.8740940" lon="1.3042130">
        <ele>54.9</ele>
        <time>2020-02-21T11:29:32Z</time>
      </trkpt>
      <trkpt lat="38.8741220" lon="1.3042110">
        <ele>55.1</ele>
        <time>2020-02-21T11:29:33Z</time>
      </trkpt>
      <trkpt lat="38.8741640" lon="1.3042180">
        <ele>55.3</ele>
        <time>2020-02-21T11:29:34Z</time>
      </trkpt>
      <trkpt lat="38.8741790" lon="1.3042190">
        <ele>55.4</ele>
        <time>2020-02-21T11:29:35Z</time>
      </trkpt>
      <trkpt lat="38.8742080" lon="1.3042220">
        <ele>55.6</ele>
        <time>2020-02-21T11:29:36Z</time>
      </trkpt>
      <trkpt lat="38.8742470" lon="1.3042190">
        <ele>55.9</ele>
        <time>2020-02-21T11:29:37Z</time>
      </trkpt>
      <trkpt lat="38.8742610" lon="1.3042150">
        <ele>56.0</ele>
        <time>2020-02-21T11:29:38Z</time>
      </trkpt>
      <trkpt lat="38.8743030" lon="1.3042030">
        <ele>56.2</ele>
        <time>2020-02-21T11:29:39Z</time>
      </trkpt>
      <trkpt lat="38.8743200" lon="1.3042010">
        <ele>56.2</ele>
        <time>2020-02-21T11:29:40Z</time>
      </trkpt>
      <trkpt lat="38.8743570" lon="1.3042050">
        <ele>56.3</ele>
        <time>2020-02-21T11:29:41Z</time>
      </trkpt>
      <trkpt lat="38.8743680" lon="1.3042020">
        <ele>56.3</ele>
        <time>2020-02-21T11:29:42Z</time>
      </trkpt>
      <trkpt lat="38.8744060" lon="1.3041920">
        <ele>56.4</ele>
        <time>2020-02-21T11:29:43Z</time>
      </trkpt>
      <trkpt lat="38.8744190" lon="1.3041880">
        <ele>56.4</ele>
        <time>2020-02-21T11:29:44Z</time>
      </trkpt>
      <trkpt lat="38.8744510" lon="1.3041820">
        <ele>56.5</ele>
        <time>2020-02-21T11:29:45Z</time>
      </trkpt>
      <trkpt lat="38.8744910" lon="1.3041880">
        <ele>56.6</ele>
        <time>2020-02-21T11:29:46Z</time>
      </trkpt>
      <trkpt lat="38.8745310" lon="1.3041880">
        <ele>56.7</ele>
        <time>2020-02-21T11:29:47Z</time>
      </trkpt>
      <trkpt lat="38.8745450" lon="1.3041870">
        <ele>56.7</ele>
        <time>2020-02-21T11:29:48Z</time>
      </trkpt>
      <trkpt lat="38.8745740" lon="1.3041790">
        <ele>56.8</ele>
        <time>2020-02-21T11:29:49Z</time>
      </trkpt>
      <trkpt lat="38.8746020" lon="1.3041710">
        <ele>56.9</ele>
        <time>2020-02-21T11:29:50Z</time>
      </trkpt>
      <trkpt lat="38.8746290" lon="1.3041640">
        <ele>57.1</ele>
        <time>2020-02-21T11:29:51Z</time>
      </trkpt>
      <trkpt lat="38.8746580" lon="1.3041630">
        <ele>57.2</ele>
        <time>2020-02-21T11:29:52Z</time>
      </trkpt>
      <trkpt lat="38.8746870" lon="1.3041460">
        <ele>57.3</ele>
        <time>2020-02-21T11:29:53Z</time>
      </trkpt>
      <trkpt lat="38.8747200" lon="1.3041190">
        <ele>57.4</ele>
        <time>2020-02-21T11:29:54Z</time>
      </trkpt>
      <trkpt lat="38.8747550" lon="1.3040840">
        <ele>57.5</ele>
        <time>2020-02-21T11:29:55Z</time>
      </trkpt>
      <trkpt lat="38.8747810" lon="1.3040570">
        <ele>57.6</ele>
        <time>2020-02-21T11:29:56Z</time>
      </trkpt>
      <trkpt lat="38.8748090" lon="1.3040280">
        <ele>57.7</ele>
        <time>2020-02-21T11:29:57Z</time>
      </trkpt>
      <trkpt lat="38.8748390" lon="1.3040010">
        <ele>57.7</ele>
        <time>2020-02-21T11:29:58Z</time>
      </trkpt>
      <trkpt lat="38.8748700" lon="1.3039730">
        <ele>57.8</ele>
        <time>2020-02-21T11:29:59Z</time>
      </trkpt>
      <trkpt lat="38.8749100" lon="1.3039420">
        <ele>57.8</ele>
        <time>2020-02-21T11:30:00Z</time>
      </trkpt>
      <trkpt lat="38.8749400" lon="1.3039030">
        <ele>57.9</ele>
        <time>2020-02-21T11:30:01Z</time>
      </trkpt>
      <trkpt lat="38.8749660" lon="1.3038680">
        <ele>57.9</ele>
        <time>2020-02-21T11:30:02Z</time>
      </trkpt>
      <trkpt lat="38.8749920" lon="1.3038420">
        <ele>57.9</ele>
        <time>2020-02-21T11:30:03Z</time>
      </trkpt>
      <trkpt lat="38.8750160" lon="1.3038060">
        <ele>57.9</ele>
        <time>2020-02-21T11:30:04Z</time>
      </trkpt>
      <trkpt lat="38.8750400" lon="1.3037680">
        <ele>57.9</ele>
        <time>2020-02-21T11:30:05Z</time>
      </trkpt>
      <trkpt lat="38.8750620" lon="1.3037370">
        <ele>57.9</ele>
        <time>2020-02-21T11:30:06Z</time>
      </trkpt>
      <trkpt lat="38.8750880" lon="1.3036950">
        <ele>58.0</ele>
        <time>2020-02-21T11:30:07Z</time>
      </trkpt>
      <trkpt lat="38.8751070" lon="1.3036560">
        <ele>58.0</ele>
        <time>2020-02-21T11:30:08Z</time>
      </trkpt>
      <trkpt lat="38.8751290" lon="1.3036120">
        <ele>58.0</ele>
        <time>2020-02-21T11:30:09Z</time>
      </trkpt>
      <trkpt lat="38.8751610" lon="1.3035670">
        <ele>58.0</ele>
        <time>2020-02-21T11:30:10Z</time>
      </trkpt>
      <trkpt lat="38.8751850" lon="1.3035210">
        <ele>58.0</ele>
        <time>2020-02-21T11:30:11Z</time>
      </trkpt>
      <trkpt lat="38.8752110" lon="1.3034820">
        <ele>58.1</ele>
        <time>2020-02-21T11:30:12Z</time>
      </trkpt>
      <trkpt lat="38.8752350" lon="1.3034430">
        <ele>58.1</ele>
        <time>2020-02-21T11:30:13Z</time>
      </trkpt>
      <trkpt lat="38.8752570" lon="1.3034040">
        <ele>58.2</ele>
        <time>2020-02-21T11:30:14Z</time>
      </trkpt>
      <trkpt lat="38.8752810" lon="1.3033620">
        <ele>58.3</ele>
        <time>2020-02-21T11:30:15Z</time>
      </trkpt>
      <trkpt lat="38.8752960" lon="1.3033210">
        <ele>58.3</ele>
        <time>2020-02-21T11:30:16Z</time>
      </trkpt>
      <trkpt lat="38.8753160" lon="1.3032780">
        <ele>58.4</ele>
        <time>2020-02-21T11:30:17Z</time>
      </trkpt>
      <trkpt lat="38.8753370" lon="1.3032420">
        <ele>58.5</ele>
        <time>2020-02-21T11:30:18Z</time>
      </trkpt>
      <trkpt lat="38.8753630" lon="1.3032090">
        <ele>58.6</ele>
        <time>2020-02-21T11:30:19Z</time>
      </trkpt>
      <trkpt lat="38.8753970" lon="1.3031650">
        <ele>58.6</ele>
        <time>2020-02-21T11:30:20Z</time>
      </trkpt>
      <trkpt lat="38.8754280" lon="1.3031210">
        <ele>58.7</ele>
        <time>2020-02-21T11:30:21Z</time>
      </trkpt>
      <trkpt lat="38.8754570" lon="1.3030920">
        <ele>58.7</ele>
        <time>2020-02-21T11:30:22Z</time>
      </trkpt>
      <trkpt lat="38.8754860" lon="1.3030590">
        <ele>58.6</ele>
        <time>2020-02-21T11:30:23Z</time>
      </trkpt>
      <trkpt lat="38.8755140" lon="1.3030190">
        <ele>58.6</ele>
        <time>2020-02-21T11:30:24Z</time>
      </trkpt>
      <trkpt lat="38.8755460" lon="1.3029820">
        <ele>58.5</ele>
        <time>2020-02-21T11:30:25Z</time>
      </trkpt>
      <trkpt lat="38.8755800" lon="1.3029460">
        <ele>58.5</ele>
        <time>2020-02-21T11:30:26Z</time>
      </trkpt>
      <trkpt lat="38.8756200" lon="1.3028940">
        <ele>58.4</ele>
        <time>2020-02-21T11:30:27Z</time>
      </trkpt>
      <trkpt lat="38.8756520" lon="1.3028590">
        <ele>58.3</ele>
        <time>2020-02-21T11:30:28Z</time>
      </trkpt>
      <trkpt lat="38.8756930" lon="1.3028250">
        <ele>58.2</ele>
        <time>2020-02-21T11:30:29Z</time>
      </trkpt>
      <trkpt lat="38.8757390" lon="1.3027930">
        <ele>58.1</ele>
        <time>2020-02-21T11:30:30Z</time>
      </trkpt>
      <trkpt lat="38.8757770" lon="1.3027510">
        <ele>58.1</ele>
        <time>2020-02-21T11:30:31Z</time>
      </trkpt>
      <trkpt lat="38.8758160" lon="1.3027070">
        <ele>58.0</ele>
        <time>2020-02-21T11:30:32Z</time>
      </trkpt>
      <trkpt lat="38.8758590" lon="1.3026650">
        <ele>58.0</ele>
        <time>2020-02-21T11:30:33Z</time>
      </trkpt>
      <trkpt lat="38.8759070" lon="1.3026240">
        <ele>58.0</ele>
        <time>2020-02-21T11:30:34Z</time>
      </trkpt>
      <trkpt lat="38.8759510" lon="1.3025900">
        <ele>58.0</ele>
        <time>2020-02-21T11:30:35Z</time>
      </trkpt>
      <trkpt lat="38.8760000" lon="1.3025610">
        <ele>58.0</ele>
        <time>2020-02-21T11:30:36Z</time>
      </trkpt>
      <trkpt lat="38.8760560" lon="1.3025380">
        <ele>57.9</ele>
        <time>2020-02-21T11:30:37Z</time>
      </trkpt>
      <trkpt lat="38.8761220" lon="1.3025330">
        <ele>57.9</ele>
        <time>2020-02-21T11:30:38Z</time>
      </trkpt>
      <trkpt lat="38.8761790" lon="1.3025240">
        <ele>57.9</ele>
        <time>2020-02-21T11:30:39Z</time>
      </trkpt>
      <trkpt lat="38.8762260" lon="1.3025320">
        <ele>57.9</ele>
        <time>2020-02-21T11:30:40Z</time>
      </trkpt>
      <trkpt lat="38.8762800" lon="1.3025500">
        <ele>58.0</ele>
        <time>2020-02-21T11:30:41Z</time>
      </trkpt>
      <trkpt lat="38.8763280" lon="1.3025680">
        <ele>58.2</ele>
        <time>2020-02-21T11:30:42Z</time>
      </trkpt>
      <trkpt lat="38.8763680" lon="1.3026060">
        <ele>58.3</ele>
        <time>2020-02-21T11:30:43Z</time>
      </trkpt>
      <trkpt lat="38.8764090" lon="1.3026340">
        <ele>58.4</ele>
        <time>2020-02-21T11:30:44Z</time>
      </trkpt>
      <trkpt lat="38.8764570" lon="1.3026590">
        <ele>58.5</ele>
        <time>2020-02-21T11:30:45Z</time>
      </trkpt>
      <trkpt lat="38.8765000" lon="1.3026940">
        <ele>58.7</ele>
        <time>2020-02-21T11:30:46Z</time>
      </trkpt>
      <trkpt lat="38.8765450" lon="1.3027190">
        <ele>58.8</ele>
        <time>2020-02-21T11:30:47Z</time>
      </trkpt>
      <trkpt lat="38.8765900" lon="1.3027430">
        <ele>58.9</ele>
        <time>2020-02-21T11:30:48Z</time>
      </trkpt>
      <trkpt lat="38.8766320" lon="1.3027680">
        <ele>59.0</ele>
        <time>2020-02-21T11:30:49Z</time>
      </trkpt>
      <trkpt lat="38.8766630" lon="1.3027930">
        <ele>59.1</ele>
        <time>2020-02-21T11:30:50Z</time>
      </trkpt>
      <trkpt lat="38.8766980" lon="1.3028160">
        <ele>59.2</ele>
        <time>2020-02-21T11:30:51Z</time>
      </trkpt>
      <trkpt lat="38.8767370" lon="1.3028330">
        <ele>59.2</ele>
        <time>2020-02-21T11:30:52Z</time>
      </trkpt>
      <trkpt lat="38.8767720" lon="1.3028560">
        <ele>59.3</ele>
        <time>2020-02-21T11:30:53Z</time>
      </trkpt>
      <trkpt lat="38.8768120" lon="1.3028880">
        <ele>59.4</ele>
        <time>2020-02-21T11:30:54Z</time>
      </trkpt>
      <trkpt lat="38.8768500" lon="1.3029090">
        <ele>59.5</ele>
        <time>2020-02-21T11:30:55Z</time>
      </trkpt>
      <trkpt lat="38.8768890" lon="1.3029110">
        <ele>59.6</ele>
        <time>2020-02-21T11:30:56Z</time>
      </trkpt>
      <trkpt lat="38.8769270" lon="1.3029240">
        <ele>59.8</ele>
        <time>2020-02-21T11:30:57Z</time>
      </trkpt>
      <trkpt lat="38.8769830" lon="1.3029330">
        <ele>60.0</ele>
        <time>2020-02-21T11:30:58Z</time>
      </trkpt>
      <trkpt lat="38.8770260" lon="1.3029440">
        <ele>60.2</ele>
        <time>2020-02-21T11:30:59Z</time>
      </trkpt>
      <trkpt lat="38.8770720" lon="1.3029530">
        <ele>60.4</ele>
        <time>2020-02-21T11:31:00Z</time>
      </trkpt>
      <trkpt lat="38.8771170" lon="1.3029630">
        <ele>60.6</ele>
        <time>2020-02-21T11:31:01Z</time>
      </trkpt>
      <trkpt lat="38.8771560" lon="1.3029720">
        <ele>60.7</ele>
        <time>2020-02-21T11:31:02Z</time>
      </trkpt>
      <trkpt lat="38.8771960" lon="1.3029730">
        <ele>60.8</ele>
        <time>2020-02-21T11:31:03Z</time>
      </trkpt>
      <trkpt lat="38.8772310" lon="1.3029720">
        <ele>60.9</ele>
        <time>2020-02-21T11:31:04Z</time>
      </trkpt>
      <trkpt lat="38.8772600" lon="1.3029760">
        <ele>61.1</ele>
        <time>2020-02-21T11:31:05Z</time>
      </trkpt>
      <trkpt lat="38.8772960" lon="1.3029850">
        <ele>61.2</ele>
        <time>2020-02-21T11:31:06Z</time>
      </trkpt>
      <trkpt lat="38.8773450" lon="1.3029970">
        <ele>61.5</ele>
        <time>2020-02-21T11:31:07Z</time>
      </trkpt>
      <trkpt lat="38.8773780" lon="1.3029970">
        <ele>61.6</ele>
        <time>2020-02-21T11:31:08Z</time>
      </trkpt>
      <trkpt lat="38.8774200" lon="1.3030010">
        <ele>61.8</ele>
        <time>2020-02-21T11:31:09Z</time>
      </trkpt>
      <trkpt lat="38.8774600" lon="1.3030040">
        <ele>61.9</ele>
        <time>2020-02-21T11:31:10Z</time>
      </trkpt>
      <trkpt lat="38.8774960" lon="1.3030100">
        <ele>62.0</ele>
        <time>2020-02-21T11:31:11Z</time>
      </trkpt>
      <trkpt lat="38.8775280" lon="1.3030250">
        <ele>62.2</ele>
        <time>2020-02-21T11:31:12Z</time>
      </trkpt>
      <trkpt lat="38.8775580" lon="1.3030340">
        <ele>62.3</ele>
        <time>2020-02-21T11:31:13Z</time>
      </trkpt>
      <trkpt lat="38.8775960" lon="1.3030410">
        <ele>62.4</ele>
        <time>2020-02-21T11:31:14Z</time>
      </trkpt>
      <trkpt lat="38.8776330" lon="1.3030520">
        <ele>62.5</ele>
        <time>2020-02-21T11:31:15Z</time>
      </trkpt>
      <trkpt lat="38.8776700" lon="1.3030530">
        <ele>62.6</ele>
        <time>2020-02-21T11:31:16Z</time>
      </trkpt>
      <trkpt lat="38.8777030" lon="1.3030590">
        <ele>62.7</ele>
        <time>2020-02-21T11:31:17Z</time>
      </trkpt>
      <trkpt lat="38.8777450" lon="1.3030710">
        <ele>62.8</ele>
        <time>2020-02-21T11:31:18Z</time>
      </trkpt>
      <trkpt lat="38.8777920" lon="1.3031030">
        <ele>63.0</ele>
        <time>2020-02-21T11:31:19Z</time>
      </trkpt>
      <trkpt lat="38.8778250" lon="1.3031190">
        <ele>63.1</ele>
        <time>2020-02-21T11:31:20Z</time>
      </trkpt>
      <trkpt lat="38.8778600" lon="1.3031110">
        <ele>63.2</ele>
        <time>2020-02-21T11:31:21Z</time>
      </trkpt>
      <trkpt lat="38.8778940" lon="1.3031140">
        <ele>63.3</ele>
        <time>2020-02-21T11:31:22Z</time>
      </trkpt>
      <trkpt lat="38.8779230" lon="1.3031230">
        <ele>63.4</ele>
        <time>2020-02-21T11:31:23Z</time>
      </trkpt>
      <trkpt lat="38.8779680" lon="1.3031400">
        <ele>63.6</ele>
        <time>2020-02-21T11:31:24Z</time>
      </trkpt>
      <trkpt lat="38.8779860" lon="1.3031500">
        <ele>63.7</ele>
        <time>2020-02-21T11:31:25Z</time>
      </trkpt>
      <trkpt lat="38.8780270" lon="1.3031570">
        <ele>63.8</ele>
        <time>2020-02-21T11:31:26Z</time>
      </trkpt>
      <trkpt lat="38.8780690" lon="1.3031590">
        <ele>63.9</ele>
        <time>2020-02-21T11:31:27Z</time>
      </trkpt>
      <trkpt lat="38.8781030" lon="1.3031610">
        <ele>64.1</ele>
        <time>2020-02-21T11:31:28Z</time>
      </trkpt>
      <trkpt lat="38.8781380" lon="1.3031660">
        <ele>64.4</ele>
        <time>2020-02-21T11:31:29Z</time>
      </trkpt>
      <trkpt lat="38.8781710" lon="1.3031710">
        <ele>64.5</ele>
        <time>2020-02-21T11:31:30Z</time>
      </trkpt>
      <trkpt lat="38.8782120" lon="1.3031780">
        <ele>64.8</ele>
        <time>2020-02-21T11:31:31Z</time>
      </trkpt>
      <trkpt lat="38.8782540" lon="1.3031830">
        <ele>65.0</ele>
        <time>2020-02-21T11:31:32Z</time>
      </trkpt>
      <trkpt lat="38.8783020" lon="1.3031950">
        <ele>65.2</ele>
        <time>2020-02-21T11:31:33Z</time>
      </trkpt>
      <trkpt lat="38.8783460" lon="1.3032040">
        <ele>65.4</ele>
        <time>2020-02-21T11:31:34Z</time>
      </trkpt>
      <trkpt lat="38.8783830" lon="1.3032120">
        <ele>65.5</ele>
        <time>2020-02-21T11:31:35Z</time>
      </trkpt>
      <trkpt lat="38.8784110" lon="1.3032180">
        <ele>65.6</ele>
        <time>2020-02-21T11:31:36Z</time>
      </trkpt>
      <trkpt lat="38.8784440" lon="1.3032250">
        <ele>65.8</ele>
        <time>2020-02-21T11:31:37Z</time>
      </trkpt>
      <trkpt lat="38.8784840" lon="1.3032200">
        <ele>65.9</ele>
        <time>2020-02-21T11:31:38Z</time>
      </trkpt>
      <trkpt lat="38.8785180" lon="1.3032220">
        <ele>66.0</ele>
        <time>2020-02-21T11:31:39Z</time>
      </trkpt>
      <trkpt lat="38.8785500" lon="1.3032250">
        <ele>66.1</ele>
        <time>2020-02-21T11:31:40Z</time>
      </trkpt>
      <trkpt lat="38.8785840" lon="1.3032260">
        <ele>66.1</ele>
        <time>2020-02-21T11:31:41Z</time>
      </trkpt>
      <trkpt lat="38.8786150" lon="1.3032320">
        <ele>66.2</ele>
        <time>2020-02-21T11:31:42Z</time>
      </trkpt>
      <trkpt lat="38.8786450" lon="1.3032370">
        <ele>66.3</ele>
        <time>2020-02-21T11:31:43Z</time>
      </trkpt>
      <trkpt lat="38.8786770" lon="1.3032430">
        <ele>66.3</ele>
        <time>2020-02-21T11:31:44Z</time>
      </trkpt>
      <trkpt lat="38.8787110" lon="1.3032500">
        <ele>66.4</ele>
        <time>2020-02-21T11:31:45Z</time>
      </trkpt>
      <trkpt lat="38.8787490" lon="1.3032560">
        <ele>66.4</ele>
        <time>2020-02-21T11:31:46Z</time>
      </trkpt>
      <trkpt lat="38.8787850" lon="1.3032710">
        <ele>66.5</ele>
        <time>2020-02-21T11:31:47Z</time>
      </trkpt>
      <trkpt lat="38.8788230" lon="1.3032800">
        <ele>66.5</ele>
        <time>2020-02-21T11:31:48Z</time>
      </trkpt>
      <trkpt lat="38.8788560" lon="1.3032870">
        <ele>66.5</ele>
        <time>2020-02-21T11:31:49Z</time>
      </trkpt>
      <trkpt lat="38.8788830" lon="1.3033000">
        <ele>66.6</ele>
        <time>2020-02-21T11:31:50Z</time>
      </trkpt>
      <trkpt lat="38.8789250" lon="1.3033060">
        <ele>66.6</ele>
        <time>2020-02-21T11:31:51Z</time>
      </trkpt>
      <trkpt lat="38.8789740" lon="1.3033190">
        <ele>66.6</ele>
        <time>2020-02-21T11:31:52Z</time>
      </trkpt>
      <trkpt lat="38.8790130" lon="1.3033250">
        <ele>66.6</ele>
        <time>2020-02-21T11:31:53Z</time>
      </trkpt>
      <trkpt lat="38.8790500" lon="1.3033400">
        <ele>66.6</ele>
        <time>2020-02-21T11:31:54Z</time>
      </trkpt>
      <trkpt lat="38.8790920" lon="1.3033430">
        <ele>66.6</ele>
        <time>2020-02-21T11:31:55Z</time>
      </trkpt>
      <trkpt lat="38.8791310" lon="1.3033470">
        <ele>66.6</ele>
        <time>2020-02-21T11:31:56Z</time>
      </trkpt>
      <trkpt lat="38.8791760" lon="1.3033500">
        <ele>66.5</ele>
        <time>2020-02-21T11:31:57Z</time>
      </trkpt>
      <trkpt lat="38.8792090" lon="1.3033350">
        <ele>66.4</ele>
        <time>2020-02-21T11:31:58Z</time>
      </trkpt>
      <trkpt lat="38.8792460" lon="1.3033260">
        <ele>66.3</ele>
        <time>2020-02-21T11:31:59Z</time>
      </trkpt>
      <trkpt lat="38.8792930" lon="1.3033150">
        <ele>66.2</ele>
        <time>2020-02-21T11:32:00Z</time>
      </trkpt>
      <trkpt lat="38.8793350" lon="1.3032930">
        <ele>66.1</ele>
        <time>2020-02-21T11:32:01Z</time>
      </trkpt>
      <trkpt lat="38.8793680" lon="1.3032670">
        <ele>66.0</ele>
        <time>2020-02-21T11:32:02Z</time>
      </trkpt>
      <trkpt lat="38.8794030" lon="1.3032500">
        <ele>66.0</ele>
        <time>2020-02-21T11:32:03Z</time>
      </trkpt>
      <trkpt lat="38.8794490" lon="1.3032430">
        <ele>65.9</ele>
        <time>2020-02-21T11:32:04Z</time>
      </trkpt>
      <trkpt lat="38.8794850" lon="1.3032300">
        <ele>66.0</ele>
        <time>2020-02-21T11:32:05Z</time>
      </trkpt>
      <trkpt lat="38.8795240" lon="1.3032260">
        <ele>66.0</ele>
        <time>2020-02-21T11:32:06Z</time>
      </trkpt>
      <trkpt lat="38.8795650" lon="1.3032180">
        <ele>66.1</ele>
        <time>2020-02-21T11:32:07Z</time>
      </trkpt>
      <trkpt lat="38.8796080" lon="1.3032070">
        <ele>66.1</ele>
        <time>2020-02-21T11:32:08Z</time>
      </trkpt>
      <trkpt lat="38.8796450" lon="1.3031870">
        <ele>66.1</ele>
        <time>2020-02-21T11:32:09Z</time>
      </trkpt>
      <trkpt lat="38.8796860" lon="1.3031660">
        <ele>66.2</ele>
        <time>2020-02-21T11:32:10Z</time>
      </trkpt>
      <trkpt lat="38.8797270" lon="1.3031460">
        <ele>66.2</ele>
        <time>2020-02-21T11:32:11Z</time>
      </trkpt>
      <trkpt lat="38.8797670" lon="1.3031310">
        <ele>66.3</ele>
        <time>2020-02-21T11:32:12Z</time>
      </trkpt>
      <trkpt lat="38.8798030" lon="1.3031090">
        <ele>66.3</ele>
        <time>2020-02-21T11:32:13Z</time>
      </trkpt>
      <trkpt lat="38.8798550" lon="1.3030970">
        <ele>66.3</ele>
        <time>2020-02-21T11:32:14Z</time>
      </trkpt>
      <trkpt lat="38.8799010" lon="1.3030810">
        <ele>66.4</ele>
        <time>2020-02-21T11:32:15Z</time>
      </trkpt>
      <trkpt lat="38.8799440" lon="1.3030640">
        <ele>66.5</ele>
        <time>2020-02-21T11:32:16Z</time>
      </trkpt>
      <trkpt lat="38.8799910" lon="1.3030440">
        <ele>66.6</ele>
        <time>2020-02-21T11:32:17Z</time>
      </trkpt>
      <trkpt lat="38.8800380" lon="1.3030110">
        <ele>66.7</ele>
        <time>2020-02-21T11:32:18Z</time>
      </trkpt>
      <trkpt lat="38.8800770" lon="1.3029990">
        <ele>66.8</ele>
        <time>2020-02-21T11:32:19Z</time>
      </trkpt>
      <trkpt lat="38.8801250" lon="1.3029790">
        <ele>66.9</ele>
        <time>2020-02-21T11:32:20Z</time>
      </trkpt>
      <trkpt lat="38.8801720" lon="1.3029580">
        <ele>67.0</ele>
        <time>2020-02-21T11:32:21Z</time>
      </trkpt>
      <trkpt lat="38.8802180" lon="1.3029360">
        <ele>67.1</ele>
        <time>2020-02-21T11:32:22Z</time>
      </trkpt>
      <trkpt lat="38.8802680" lon="1.3029240">
        <ele>67.3</ele>
        <time>2020-02-21T11:32:23Z</time>
      </trkpt>
      <trkpt lat="38.8803140" lon="1.3029110">
        <ele>67.4</ele>
        <time>2020-02-21T11:32:24Z</time>
      </trkpt>
      <trkpt lat="38.8803580" lon="1.3028810">
        <ele>67.6</ele>
        <time>2020-02-21T11:32:25Z</time>
      </trkpt>
      <trkpt lat="38.8804050" lon="1.3028530">
        <ele>67.8</ele>
        <time>2020-02-21T11:32:26Z</time>
      </trkpt>
      <trkpt lat="38.8804490" lon="1.3028320">
        <ele>67.9</ele>
        <time>2020-02-21T11:32:27Z</time>
      </trkpt>
      <trkpt lat="38.8804890" lon="1.3028130">
        <ele>68.0</ele>
        <time>2020-02-21T11:32:28Z</time>
      </trkpt>
      <trkpt lat="38.8805340" lon="1.3027860">
        <ele>68.1</ele>
        <time>2020-02-21T11:32:29Z</time>
      </trkpt>
      <trkpt lat="38.8805760" lon="1.3027630">
        <ele>68.2</ele>
        <time>2020-02-21T11:32:30Z</time>
      </trkpt>
      <trkpt lat="38.8806160" lon="1.3027410">
        <ele>68.2</ele>
        <time>2020-02-21T11:32:31Z</time>
      </trkpt>
      <trkpt lat="38.8806510" lon="1.3027150">
        <ele>68.3</ele>
        <time>2020-02-21T11:32:32Z</time>
      </trkpt>
      <trkpt lat="38.8806900" lon="1.3026920">
        <ele>68.4</ele>
        <time>2020-02-21T11:32:33Z</time>
      </trkpt>
      <trkpt lat="38.8807270" lon="1.3026600">
        <ele>68.5</ele>
        <time>2020-02-21T11:32:34Z</time>
      </trkpt>
      <trkpt lat="38.8807660" lon="1.3026310">
        <ele>68.6</ele>
        <time>2020-02-21T11:32:35Z</time>
      </trkpt>
      <trkpt lat="38.8808120" lon="1.3026140">
        <ele>68.7</ele>
        <time>2020-02-21T11:32:36Z</time>
      </trkpt>
      <trkpt lat="38.8808450" lon="1.3025950">
        <ele>68.8</ele>
        <time>2020-02-21T11:32:37Z</time>
      </trkpt>
      <trkpt lat="38.8808820" lon="1.3025770">
        <ele>68.8</ele>
        <time>2020-02-21T11:32:38Z</time>
      </trkpt>
      <trkpt lat="38.8809130" lon="1.3025540">
        <ele>68.9</ele>
        <time>2020-02-21T11:32:39Z</time>
      </trkpt>
      <trkpt lat="38.8809480" lon="1.3025450">
        <ele>68.9</ele>
        <time>2020-02-21T11:32:40Z</time>
      </trkpt>
      <trkpt lat="38.8809830" lon="1.3025370">
        <ele>69.0</ele>
        <time>2020-02-21T11:32:41Z</time>
      </trkpt>
      <trkpt lat="38.8810200" lon="1.3025290">
        <ele>69.0</ele>
        <time>2020-02-21T11:32:42Z</time>
      </trkpt>
      <trkpt lat="38.8810400" lon="1.3025270">
        <ele>69.1</ele>
        <time>2020-02-21T11:32:43Z</time>
      </trkpt>
      <trkpt lat="38.8810750" lon="1.3025220">
        <ele>69.1</ele>
        <time>2020-02-21T11:32:44Z</time>
      </trkpt>
      <trkpt lat="38.8811070" lon="1.3025130">
        <ele>69.2</ele>
        <time>2020-02-21T11:32:45Z</time>
      </trkpt>
      <trkpt lat="38.8811420" lon="1.3025020">
        <ele>69.3</ele>
        <time>2020-02-21T11:32:46Z</time>
      </trkpt>
      <trkpt lat="38.8811830" lon="1.3024990">
        <ele>69.4</ele>
        <time>2020-02-21T11:32:47Z</time>
      </trkpt>
      <trkpt lat="38.8812130" lon="1.3024870">
        <ele>69.5</ele>
        <time>2020-02-21T11:32:48Z</time>
      </trkpt>
      <trkpt lat="38.8812430" lon="1.3024790">
        <ele>69.5</ele>
        <time>2020-02-21T11:32:49Z</time>
      </trkpt>
      <trkpt lat="38.8812750" lon="1.3024740">
        <ele>69.6</ele>
        <time>2020-02-21T11:32:50Z</time>
      </trkpt>
      <trkpt lat="38.8813110" lon="1.3024660">
        <ele>69.7</ele>
        <time>2020-02-21T11:32:51Z</time>
      </trkpt>
      <trkpt lat="38.8813470" lon="1.3024630">
        <ele>69.9</ele>
        <time>2020-02-21T11:32:52Z</time>
      </trkpt>
      <trkpt lat="38.8813850" lon="1.3024560">
        <ele>70.2</ele>
        <time>2020-02-21T11:32:53Z</time>
      </trkpt>
      <trkpt lat="38.8814160" lon="1.3024560">
        <ele>70.3</ele>
        <time>2020-02-21T11:32:54Z</time>
      </trkpt>
      <trkpt lat="38.8814610" lon="1.3024460">
        <ele>70.5</ele>
        <time>2020-02-21T11:32:55Z</time>
      </trkpt>
      <trkpt lat="38.8815030" lon="1.3024430">
        <ele>70.8</ele>
        <time>2020-02-21T11:32:56Z</time>
      </trkpt>
      <trkpt lat="38.8815380" lon="1.3024440">
        <ele>71.0</ele>
        <time>2020-02-21T11:32:57Z</time>
      </trkpt>
      <trkpt lat="38.8815810" lon="1.3024410">
        <ele>71.4</ele>
        <time>2020-02-21T11:32:58Z</time>
      </trkpt>
      <trkpt lat="38.8816140" lon="1.3024430">
        <ele>71.5</ele>
        <time>2020-02-21T11:32:59Z</time>
      </trkpt>
      <trkpt lat="38.8816500" lon="1.3024450">
        <ele>71.7</ele>
        <time>2020-02-21T11:33:00Z</time>
      </trkpt>
      <trkpt lat="38.8816820" lon="1.3024540">
        <ele>71.9</ele>
        <time>2020-02-21T11:33:01Z</time>
      </trkpt>
      <trkpt lat="38.8817220" lon="1.3024740">
        <ele>72.1</ele>
        <time>2020-02-21T11:33:02Z</time>
      </trkpt>
      <trkpt lat="38.8817360" lon="1.3024820">
        <ele>72.2</ele>
        <time>2020-02-21T11:33:03Z</time>
      </trkpt>
      <trkpt lat="38.8817620" lon="1.3025030">
        <ele>72.4</ele>
        <time>2020-02-21T11:33:04Z</time>
      </trkpt>
      <trkpt lat="38.8818000" lon="1.3025220">
        <ele>72.6</ele>
        <time>2020-02-21T11:33:05Z</time>
      </trkpt>
      <trkpt lat="38.8818410" lon="1.3025360">
        <ele>72.8</ele>
        <time>2020-02-21T11:33:06Z</time>
      </trkpt>
      <trkpt lat="38.8818730" lon="1.3025430">
        <ele>73.0</ele>
        <time>2020-02-21T11:33:07Z</time>
      </trkpt>
      <trkpt lat="38.8819120" lon="1.3025460">
        <ele>73.1</ele>
        <time>2020-02-21T11:33:08Z</time>
      </trkpt>
      <trkpt lat="38.8819250" lon="1.3025520">
        <ele>73.2</ele>
        <time>2020-02-21T11:33:09Z</time>
      </trkpt>
      <trkpt lat="38.8819600" lon="1.3025710">
        <ele>73.3</ele>
        <time>2020-02-21T11:33:10Z</time>
      </trkpt>
      <trkpt lat="38.8819930" lon="1.3025780">
        <ele>73.4</ele>
        <time>2020-02-21T11:33:11Z</time>
      </trkpt>
      <trkpt lat="38.8820260" lon="1.3025870">
        <ele>73.5</ele>
        <time>2020-02-21T11:33:12Z</time>
      </trkpt>
      <trkpt lat="38.8820550" lon="1.3025940">
        <ele>73.6</ele>
        <time>2020-02-21T11:33:13Z</time>
      </trkpt>
      <trkpt lat="38.8820820" lon="1.3026080">
        <ele>73.7</ele>
        <time>2020-02-21T11:33:14Z</time>
      </trkpt>
      <trkpt lat="38.8821140" lon="1.3026210">
        <ele>73.8</ele>
        <time>2020-02-21T11:33:15Z</time>
      </trkpt>
      <trkpt lat="38.8821420" lon="1.3026270">
        <ele>73.9</ele>
        <time>2020-02-21T11:33:16Z</time>
      </trkpt>
      <trkpt lat="38.8821540" lon="1.3026330">
        <ele>74.0</ele>
        <time>2020-02-21T11:33:17Z</time>
      </trkpt>
      <trkpt lat="38.8821830" lon="1.3026400">
        <ele>74.1</ele>
        <time>2020-02-21T11:33:18Z</time>
      </trkpt>
      <trkpt lat="38.8822130" lon="1.3026510">
        <ele>74.2</ele>
        <time>2020-02-21T11:33:19Z</time>
      </trkpt>
      <trkpt lat="38.8822230" lon="1.3026520">
        <ele>74.3</ele>
        <time>2020-02-21T11:33:20Z</time>
      </trkpt>
      <trkpt lat="38.8822600" lon="1.3026700">
        <ele>74.4</ele>
        <time>2020-02-21T11:33:21Z</time>
      </trkpt>
      <trkpt lat="38.8822750" lon="1.3026770">
        <ele>74.4</ele>
        <time>2020-02-21T11:33:22Z</time>
      </trkpt>
      <trkpt lat="38.8822890" lon="1.3026740">
        <ele>74.4</ele>
        <time>2020-02-21T11:33:23Z</time>
      </trkpt>
      <trkpt lat="38.8823090" lon="1.3026790">
        <ele>74.5</ele>
        <time>2020-02-21T11:33:24Z</time>
      </trkpt>
      <trkpt lat="38.8823410" lon="1.3026730">
        <ele>74.5</ele>
        <time>2020-02-21T11:33:25Z</time>
      </trkpt>
      <trkpt lat="38.8823530" lon="1.3026670">
        <ele>74.6</ele>
        <time>2020-02-21T11:33:26Z</time>
      </trkpt>
      <trkpt lat="38.8823920" lon="1.3026650">
        <ele>74.6</ele>
        <time>2020-02-21T11:33:27Z</time>
      </trkpt>
      <trkpt lat="38.8824070" lon="1.3026630">
        <ele>74.7</ele>
        <time>2020-02-21T11:33:28Z</time>
      </trkpt>
      <trkpt lat="38.8824370" lon="1.3026660">
        <ele>74.7</ele>
        <time>2020-02-21T11:33:29Z</time>
      </trkpt>
      <trkpt lat="38.8824690" lon="1.3026680">
        <ele>74.8</ele>
        <time>2020-02-21T11:33:30Z</time>
      </trkpt>
      <trkpt lat="38.8825040" lon="1.3026580">
        <ele>74.8</ele>
        <time>2020-02-21T11:33:31Z</time>
      </trkpt>
      <trkpt lat="38.8825180" lon="1.3026560">
        <ele>74.9</ele>
        <time>2020-02-21T11:33:32Z</time>
      </trkpt>
      <trkpt lat="38.8825530" lon="1.3026560">
        <ele>74.9</ele>
        <time>2020-02-21T11:33:33Z</time>
      </trkpt>
      <trkpt lat="38.8825840" lon="1.3026550">
        <ele>74.9</ele>
        <time>2020-02-21T11:33:34Z</time>
      </trkpt>
      <trkpt lat="38.8826220" lon="1.3026410">
        <ele>75.0</ele>
        <time>2020-02-21T11:33:35Z</time>
      </trkpt>
      <trkpt lat="38.8826370" lon="1.3026360">
        <ele>75.0</ele>
        <time>2020-02-21T11:33:36Z</time>
      </trkpt>
      <trkpt lat="38.8826700" lon="1.3026330">
        <ele>75.1</ele>
        <time>2020-02-21T11:33:37Z</time>
      </trkpt>
      <trkpt lat="38.8826820" lon="1.3026330">
        <ele>75.1</ele>
        <time>2020-02-21T11:33:38Z</time>
      </trkpt>
      <trkpt lat="38.8827220" lon="1.3026300">
        <ele>75.1</ele>
        <time>2020-02-21T11:33:39Z</time>
      </trkpt>
      <trkpt lat="38.8827350" lon="1.3026290">
        <ele>75.2</ele>
        <time>2020-02-21T11:33:40Z</time>
      </trkpt>
      <trkpt lat="38.8827630" lon="1.3026270">
        <ele>75.2</ele>
        <time>2020-02-21T11:33:41Z</time>
      </trkpt>
      <trkpt lat="38.8827940" lon="1.3026220">
        <ele>75.3</ele>
        <time>2020-02-21T11:33:42Z</time>
      </trkpt>
      <trkpt lat="38.8828340" lon="1.3026300">
        <ele>75.3</ele>
        <time>2020-02-21T11:33:43Z</time>
      </trkpt>
      <trkpt lat="38.8828740" lon="1.3026250">
        <ele>75.3</ele>
        <time>2020-02-21T11:33:44Z</time>
      </trkpt>
      <trkpt lat="38.8828900" lon="1.3026250">
        <ele>75.3</ele>
        <time>2020-02-21T11:33:45Z</time>
      </trkpt>
      <trkpt lat="38.8829230" lon="1.3026290">
        <ele>75.3</ele>
        <time>2020-02-21T11:33:46Z</time>
      </trkpt>
      <trkpt lat="38.8829610" lon="1.3026210">
        <ele>75.4</ele>
        <time>2020-02-21T11:33:47Z</time>
      </trkpt>
      <trkpt lat="38.8829730" lon="1.3026160">
        <ele>75.4</ele>
        <time>2020-02-21T11:33:48Z</time>
      </trkpt>
      <trkpt lat="38.8830040" lon="1.3026040">
        <ele>75.4</ele>
        <time>2020-02-21T11:33:49Z</time>
      </trkpt>
      <trkpt lat="38.8830380" lon="1.3026020">
        <ele>75.4</ele>
        <time>2020-02-21T11:33:50Z</time>
      </trkpt>
      <trkpt lat="38.8830700" lon="1.3025980">
        <ele>75.4</ele>
        <time>2020-02-21T11:33:51Z</time>
      </trkpt>
      <trkpt lat="38.8831040" lon="1.3025950">
        <ele>75.4</ele>
        <time>2020-02-21T11:33:52Z</time>
      </trkpt>
      <trkpt lat="38.8831340" lon="1.3025840">
        <ele>75.4</ele>
        <time>2020-02-21T11:33:53Z</time>
      </trkpt>
      <trkpt lat="38.8831730" lon="1.3025780">
        <ele>75.4</ele>
        <time>2020-02-21T11:33:54Z</time>
      </trkpt>
      <trkpt lat="38.8831870" lon="1.3025740">
        <ele>75.4</ele>
        <time>2020-02-21T11:33:55Z</time>
      </trkpt>
      <trkpt lat="38.8832170" lon="1.3025650">
        <ele>75.4</ele>
        <time>2020-02-21T11:33:56Z</time>
      </trkpt>
      <trkpt lat="38.8832550" lon="1.3025570">
        <ele>75.4</ele>
        <time>2020-02-21T11:33:57Z</time>
      </trkpt>
      <trkpt lat="38.8832920" lon="1.3025450">
        <ele>75.3</ele>
        <time>2020-02-21T11:33:58Z</time>
      </trkpt>
      <trkpt lat="38.8833230" lon="1.3025520">
        <ele>75.2</ele>
        <time>2020-02-21T11:33:59Z</time>
      </trkpt>
      <trkpt lat="38.8833680" lon="1.3025170">
        <ele>75.1</ele>
        <time>2020-02-21T11:34:00Z</time>
      </trkpt>
      <trkpt lat="38.8834050" lon="1.3024990">
        <ele>75.0</ele>
        <time>2020-02-21T11:34:01Z</time>
      </trkpt>
      <trkpt lat="38.8834550" lon="1.3024900">
        <ele>74.9</ele>
        <time>2020-02-21T11:34:02Z</time>
      </trkpt>
      <trkpt lat="38.8834950" lon="1.3024920">
        <ele>74.8</ele>
        <time>2020-02-21T11:34:03Z</time>
      </trkpt>
      <trkpt lat="38.8835410" lon="1.3024700">
        <ele>74.7</ele>
        <time>2020-02-21T11:34:04Z</time>
      </trkpt>
      <trkpt lat="38.8835790" lon="1.3024560">
        <ele>74.6</ele>
        <time>2020-02-21T11:34:05Z</time>
      </trkpt>
      <trkpt lat="38.8836280" lon="1.3024500">
        <ele>74.6</ele>
        <time>2020-02-21T11:34:06Z</time>
      </trkpt>
      <trkpt lat="38.8836660" lon="1.3024370">
        <ele>74.6</ele>
        <time>2020-02-21T11:34:07Z</time>
      </trkpt>
      <trkpt lat="38.8837110" lon="1.3024320">
        <ele>74.6</ele>
        <time>2020-02-21T11:34:08Z</time>
      </trkpt>
      <trkpt lat="38.8837430" lon="1.3024250">
        <ele>74.6</ele>
        <time>2020-02-21T11:34:09Z</time>
      </trkpt>
      <trkpt lat="38.8837850" lon="1.3024170">
        <ele>74.6</ele>
        <time>2020-02-21T11:34:10Z</time>
      </trkpt>
      <trkpt lat="38.8838290" lon="1.3024130">
        <ele>74.6</ele>
        <time>2020-02-21T11:34:11Z</time>
      </trkpt>
      <trkpt lat="38.8838740" lon="1.3024140">
        <ele>74.6</ele>
        <time>2020-02-21T11:34:12Z</time>
      </trkpt>
      <trkpt lat="38.8839150" lon="1.3024170">
        <ele>74.6</ele>
        <time>2020-02-21T11:34:13Z</time>
      </trkpt>
      <trkpt lat="38.8839540" lon="1.3024070">
        <ele>74.6</ele>
        <time>2020-02-21T11:34:14Z</time>
      </trkpt>
      <trkpt lat="38.8839960" lon="1.3024000">
        <ele>74.6</ele>
        <time>2020-02-21T11:34:15Z</time>
      </trkpt>
      <trkpt lat="38.8840460" lon="1.3023930">
        <ele>74.6</ele>
        <time>2020-02-21T11:34:16Z</time>
      </trkpt>
      <trkpt lat="38.8840790" lon="1.3023750">
        <ele>74.6</ele>
        <time>2020-02-21T11:34:17Z</time>
      </trkpt>
      <trkpt lat="38.8841220" lon="1.3023650">
        <ele>74.6</ele>
        <time>2020-02-21T11:34:18Z</time>
      </trkpt>
      <trkpt lat="38.8841660" lon="1.3023570">
        <ele>74.6</ele>
        <time>2020-02-21T11:34:19Z</time>
      </trkpt>
      <trkpt lat="38.8842040" lon="1.3023480">
        <ele>74.6</ele>
        <time>2020-02-21T11:34:20Z</time>
      </trkpt>
      <trkpt lat="38.8842500" lon="1.3023410">
        <ele>74.6</ele>
        <time>2020-02-21T11:34:21Z</time>
      </trkpt>
      <trkpt lat="38.8842890" lon="1.3023280">
        <ele>74.6</ele>
        <time>2020-02-21T11:34:22Z</time>
      </trkpt>
      <trkpt lat="38.8843320" lon="1.3023170">
        <ele>74.6</ele>
        <time>2020-02-21T11:34:23Z</time>
      </trkpt>
      <trkpt lat="38.8843760" lon="1.3023010">
        <ele>74.6</ele>
        <time>2020-02-21T11:34:24Z</time>
      </trkpt>
      <trkpt lat="38.8844120" lon="1.3022740">
        <ele>74.6</ele>
        <time>2020-02-21T11:34:25Z</time>
      </trkpt>
      <trkpt lat="38.8844530" lon="1.3022550">
        <ele>74.6</ele>
        <time>2020-02-21T11:34:26Z</time>
      </trkpt>
      <trkpt lat="38.8845020" lon="1.3022350">
        <ele>74.6</ele>
        <time>2020-02-21T11:34:27Z</time>
      </trkpt>
      <trkpt lat="38.8845520" lon="1.3022150">
        <ele>74.6</ele>
        <time>2020-02-21T11:34:28Z</time>
      </trkpt>
      <trkpt lat="38.8845960" lon="1.3021880">
        <ele>74.6</ele>
        <time>2020-02-21T11:34:29Z</time>
      </trkpt>
      <trkpt lat="38.8846340" lon="1.3021660">
        <ele>74.6</ele>
        <time>2020-02-21T11:34:30Z</time>
      </trkpt>
      <trkpt lat="38.8846740" lon="1.3021380">
        <ele>74.7</ele>
        <time>2020-02-21T11:34:31Z</time>
      </trkpt>
      <trkpt lat="38.8847220" lon="1.3021040">
        <ele>74.7</ele>
        <time>2020-02-21T11:34:32Z</time>
      </trkpt>
      <trkpt lat="38.8847660" lon="1.3020820">
        <ele>74.7</ele>
        <time>2020-02-21T11:34:33Z</time>
      </trkpt>
      <trkpt lat="38.8848070" lon="1.3020560">
        <ele>74.7</ele>
        <time>2020-02-21T11:34:34Z</time>
      </trkpt>
      <trkpt lat="38.8848490" lon="1.3020310">
        <ele>74.7</ele>
        <time>2020-02-21T11:34:35Z</time>
      </trkpt>
      <trkpt lat="38.8848860" lon="1.3019930">
        <ele>74.7</ele>
        <time>2020-02-21T11:34:36Z</time>
      </trkpt>
      <trkpt lat="38.8849270" lon="1.3019610">
        <ele>74.7</ele>
        <time>2020-02-21T11:34:37Z</time>
      </trkpt>
      <trkpt lat="38.8849640" lon="1.3019230">
        <ele>74.7</ele>
        <time>2020-02-21T11:34:38Z</time>
      </trkpt>
      <trkpt lat="38.8850050" lon="1.3018840">
        <ele>74.7</ele>
        <time>2020-02-21T11:34:39Z</time>
      </trkpt>
      <trkpt lat="38.8850410" lon="1.3018620">
        <ele>74.6</ele>
        <time>2020-02-21T11:34:40Z</time>
      </trkpt>
      <trkpt lat="38.8850770" lon="1.3018440">
        <ele>74.6</ele>
        <time>2020-02-21T11:34:41Z</time>
      </trkpt>
      <trkpt lat="38.8851150" lon="1.3018240">
        <ele>74.5</ele>
        <time>2020-02-21T11:34:42Z</time>
      </trkpt>
      <trkpt lat="38.8851500" lon="1.3017960">
        <ele>74.4</ele>
        <time>2020-02-21T11:34:43Z</time>
      </trkpt>
      <trkpt lat="38.8851900" lon="1.3017670">
        <ele>74.2</ele>
        <time>2020-02-21T11:34:44Z</time>
      </trkpt>
      <trkpt lat="38.8852260" lon="1.3017310">
        <ele>74.1</ele>
        <time>2020-02-21T11:34:45Z</time>
      </trkpt>
      <trkpt lat="38.8852660" lon="1.3016960">
        <ele>74.0</ele>
        <time>2020-02-21T11:34:46Z</time>
      </trkpt>
      <trkpt lat="38.8853030" lon="1.3016770">
        <ele>73.8</ele>
        <time>2020-02-21T11:34:47Z</time>
      </trkpt>
      <trkpt lat="38.8853370" lon="1.3016550">
        <ele>73.8</ele>
        <time>2020-02-21T11:34:48Z</time>
      </trkpt>
      <trkpt lat="38.8853750" lon="1.3016260">
        <ele>73.8</ele>
        <time>2020-02-21T11:34:49Z</time>
      </trkpt>
      <trkpt lat="38.8854110" lon="1.3015990">
        <ele>73.9</ele>
        <time>2020-02-21T11:34:50Z</time>
      </trkpt>
      <trkpt lat="38.8854490" lon="1.3015730">
        <ele>73.9</ele>
        <time>2020-02-21T11:34:51Z</time>
      </trkpt>
      <trkpt lat="38.8854830" lon="1.3015450">
        <ele>73.9</ele>
        <time>2020-02-21T11:34:52Z</time>
      </trkpt>
      <trkpt lat="38.8855150" lon="1.3015160">
        <ele>73.9</ele>
        <time>2020-02-21T11:34:53Z</time>
      </trkpt>
      <trkpt lat="38.8855490" lon="1.3014940">
        <ele>73.9</ele>
        <time>2020-02-21T11:34:54Z</time>
      </trkpt>
      <trkpt lat="38.8855830" lon="1.3014690">
        <ele>73.9</ele>
        <time>2020-02-21T11:34:55Z</time>
      </trkpt>
      <trkpt lat="38.8856230" lon="1.3014340">
        <ele>73.9</ele>
        <time>2020-02-21T11:34:56Z</time>
      </trkpt>
      <trkpt lat="38.8856580" lon="1.3014040">
        <ele>73.9</ele>
        <time>2020-02-21T11:34:57Z</time>
      </trkpt>
      <trkpt lat="38.8856930" lon="1.3013760">
        <ele>73.9</ele>
        <time>2020-02-21T11:34:58Z</time>
      </trkpt>
      <trkpt lat="38.8857200" lon="1.3013520">
        <ele>73.9</ele>
        <time>2020-02-21T11:34:59Z</time>
      </trkpt>
      <trkpt lat="38.8857640" lon="1.3013190">
        <ele>73.9</ele>
        <time>2020-02-21T11:35:00Z</time>
      </trkpt>
      <trkpt lat="38.8858070" lon="1.3012900">
        <ele>73.9</ele>
        <time>2020-02-21T11:35:01Z</time>
      </trkpt>
      <trkpt lat="38.8858450" lon="1.3012570">
        <ele>74.0</ele>
        <time>2020-02-21T11:35:02Z</time>
      </trkpt>
      <trkpt lat="38.8858740" lon="1.3012310">
        <ele>74.0</ele>
        <time>2020-02-21T11:35:03Z</time>
      </trkpt>
      <trkpt lat="38.8859010" lon="1.3012050">
        <ele>74.0</ele>
        <time>2020-02-21T11:35:04Z</time>
      </trkpt>
      <trkpt lat="38.8859440" lon="1.3011840">
        <ele>74.1</ele>
        <time>2020-02-21T11:35:05Z</time>
      </trkpt>
      <trkpt lat="38.8859820" lon="1.3011530">
        <ele>74.2</ele>
        <time>2020-02-21T11:35:06Z</time>
      </trkpt>
      <trkpt lat="38.8860240" lon="1.3011290">
        <ele>74.3</ele>
        <time>2020-02-21T11:35:07Z</time>
      </trkpt>
      <trkpt lat="38.8860650" lon="1.3011070">
        <ele>74.4</ele>
        <time>2020-02-21T11:35:08Z</time>
      </trkpt>
      <trkpt lat="38.8861120" lon="1.3010680">
        <ele>74.5</ele>
        <time>2020-02-21T11:35:09Z</time>
      </trkpt>
      <trkpt lat="38.8861390" lon="1.3010410">
        <ele>74.6</ele>
        <time>2020-02-21T11:35:10Z</time>
      </trkpt>
      <trkpt lat="38.8861720" lon="1.3010190">
        <ele>74.7</ele>
        <time>2020-02-21T11:35:11Z</time>
      </trkpt>
      <trkpt lat="38.8862150" lon="1.3010030">
        <ele>74.8</ele>
        <time>2020-02-21T11:35:12Z</time>
      </trkpt>
      <trkpt lat="38.8862330" lon="1.3009970">
        <ele>74.8</ele>
        <time>2020-02-21T11:35:13Z</time>
      </trkpt>
      <trkpt lat="38.8862750" lon="1.3009720">
        <ele>74.9</ele>
        <time>2020-02-21T11:35:14Z</time>
      </trkpt>
      <trkpt lat="38.8863150" lon="1.3009460">
        <ele>75.0</ele>
        <time>2020-02-21T11:35:15Z</time>
      </trkpt>
      <trkpt lat="38.8863550" lon="1.3009200">
        <ele>75.1</ele>
        <time>2020-02-21T11:35:16Z</time>
      </trkpt>
      <trkpt lat="38.8863930" lon="1.3008900">
        <ele>75.2</ele>
        <time>2020-02-21T11:35:17Z</time>
      </trkpt>
      <trkpt lat="38.8864270" lon="1.3008610">
        <ele>75.4</ele>
        <time>2020-02-21T11:35:18Z</time>
      </trkpt>
      <trkpt lat="38.8864620" lon="1.3008260">
        <ele>75.5</ele>
        <time>2020-02-21T11:35:19Z</time>
      </trkpt>
      <trkpt lat="38.8864990" lon="1.3007990">
        <ele>75.6</ele>
        <time>2020-02-21T11:35:20Z</time>
      </trkpt>
      <trkpt lat="38.8865340" lon="1.3007630">
        <ele>75.7</ele>
        <time>2020-02-21T11:35:21Z</time>
      </trkpt>
      <trkpt lat="38.8865730" lon="1.3007330">
        <ele>75.9</ele>
        <time>2020-02-21T11:35:22Z</time>
      </trkpt>
      <trkpt lat="38.8866120" lon="1.3006980">
        <ele>76.0</ele>
        <time>2020-02-21T11:35:23Z</time>
      </trkpt>
      <trkpt lat="38.8866470" lon="1.3006670">
        <ele>76.1</ele>
        <time>2020-02-21T11:35:24Z</time>
      </trkpt>
      <trkpt lat="38.8866870" lon="1.3006420">
        <ele>76.3</ele>
        <time>2020-02-21T11:35:25Z</time>
      </trkpt>
      <trkpt lat="38.8867220" lon="1.3006100">
        <ele>76.4</ele>
        <time>2020-02-21T11:35:26Z</time>
      </trkpt>
      <trkpt lat="38.8867580" lon="1.3005750">
        <ele>76.6</ele>
        <time>2020-02-21T11:35:27Z</time>
      </trkpt>
      <trkpt lat="38.8867960" lon="1.3005420">
        <ele>76.7</ele>
        <time>2020-02-21T11:35:28Z</time>
      </trkpt>
      <trkpt lat="38.8868390" lon="1.3005140">
        <ele>76.9</ele>
        <time>2020-02-21T11:35:29Z</time>
      </trkpt>
      <trkpt lat="38.8868920" lon="1.3004850">
        <ele>77.1</ele>
        <time>2020-02-21T11:35:30Z</time>
      </trkpt>
      <trkpt lat="38.8869500" lon="1.3004480">
        <ele>77.3</ele>
        <time>2020-02-21T11:35:31Z</time>
      </trkpt>
      <trkpt lat="38.8870210" lon="1.3004090">
        <ele>77.6</ele>
        <time>2020-02-21T11:35:32Z</time>
      </trkpt>
      <trkpt lat="38.8871100" lon="1.3003990">
        <ele>77.9</ele>
        <time>2020-02-21T11:35:33Z</time>
      </trkpt>
      <trkpt lat="38.8871830" lon="1.3004220">
        <ele>78.1</ele>
        <time>2020-02-21T11:35:34Z</time>
      </trkpt>
      <trkpt lat="38.8872420" lon="1.3004650">
        <ele>78.3</ele>
        <time>2020-02-21T11:35:35Z</time>
      </trkpt>
      <trkpt lat="38.8872960" lon="1.3005060">
        <ele>78.5</ele>
        <time>2020-02-21T11:35:36Z</time>
      </trkpt>
      <trkpt lat="38.8873570" lon="1.3005400">
        <ele>78.7</ele>
        <time>2020-02-21T11:35:37Z</time>
      </trkpt>
      <trkpt lat="38.8874020" lon="1.3005750">
        <ele>78.9</ele>
        <time>2020-02-21T11:35:38Z</time>
      </trkpt>
      <trkpt lat="38.8874480" lon="1.3005980">
        <ele>79.1</ele>
        <time>2020-02-21T11:35:39Z</time>
      </trkpt>
      <trkpt lat="38.8874840" lon="1.3006090">
        <ele>79.2</ele>
        <time>2020-02-21T11:35:40Z</time>
      </trkpt>
      <trkpt lat="38.8875160" lon="1.3006180">
        <ele>79.3</ele>
        <time>2020-02-21T11:35:41Z</time>
      </trkpt>
      <trkpt lat="38.8875450" lon="1.3006230">
        <ele>79.4</ele>
        <time>2020-02-21T11:35:42Z</time>
      </trkpt>
      <trkpt lat="38.8875520" lon="1.3006260">
        <ele>79.5</ele>
        <time>2020-02-21T11:35:43Z</time>
      </trkpt>
      <trkpt lat="38.8875800" lon="1.3006310">
        <ele>79.6</ele>
        <time>2020-02-21T11:35:44Z</time>
      </trkpt>
      <trkpt lat="38.8876180" lon="1.3006290">
        <ele>79.7</ele>
        <time>2020-02-21T11:35:45Z</time>
      </trkpt>
      <trkpt lat="38.8876350" lon="1.3006300">
        <ele>79.8</ele>
        <time>2020-02-21T11:35:46Z</time>
      </trkpt>
      <trkpt lat="38.8876730" lon="1.3006190">
        <ele>80.0</ele>
        <time>2020-02-21T11:35:47Z</time>
      </trkpt>
      <trkpt lat="38.8876890" lon="1.3006180">
        <ele>80.0</ele>
        <time>2020-02-21T11:35:48Z</time>
      </trkpt>
      <trkpt lat="38.8877210" lon="1.3006230">
        <ele>80.2</ele>
        <time>2020-02-21T11:35:49Z</time>
      </trkpt>
      <trkpt lat="38.8877510" lon="1.3006180">
        <ele>80.3</ele>
        <time>2020-02-21T11:35:50Z</time>
      </trkpt>
      <trkpt lat="38.8877830" lon="1.3006200">
        <ele>80.4</ele>
        <time>2020-02-21T11:35:51Z</time>
      </trkpt>
      <trkpt lat="38.8877890" lon="1.3006210">
        <ele>80.4</ele>
        <time>2020-02-21T11:35:52Z</time>
      </trkpt>
      <trkpt lat="38.8878160" lon="1.3006140">
        <ele>80.5</ele>
        <time>2020-02-21T11:35:53Z</time>
      </trkpt>
      <trkpt lat="38.8878320" lon="1.3006040">
        <ele>80.6</ele>
        <time>2020-02-21T11:35:54Z</time>
      </trkpt>
      <trkpt lat="38.8878420" lon="1.3005960">
        <ele>80.7</ele>
        <time>2020-02-21T11:35:55Z</time>
      </trkpt>
      <trkpt lat="38.8878750" lon="1.3005860">
        <ele>80.8</ele>
        <time>2020-02-21T11:35:56Z</time>
      </trkpt>
      <trkpt lat="38.8879020" lon="1.3005780">
        <ele>80.9</ele>
        <time>2020-02-21T11:35:57Z</time>
      </trkpt>
      <trkpt lat="38.8879150" lon="1.3005750">
        <ele>80.9</ele>
        <time>2020-02-21T11:35:58Z</time>
      </trkpt>
      <trkpt lat="38.8879540" lon="1.3005550">
        <ele>81.1</ele>
        <time>2020-02-21T11:35:59Z</time>
      </trkpt>
      <trkpt lat="38.8879670" lon="1.3005470">
        <ele>81.1</ele>
        <time>2020-02-21T11:36:00Z</time>
      </trkpt>
      <trkpt lat="38.8880140" lon="1.3005340">
        <ele>81.3</ele>
        <time>2020-02-21T11:36:01Z</time>
      </trkpt>
      <trkpt lat="38.8880450" lon="1.3005240">
        <ele>81.4</ele>
        <time>2020-02-21T11:36:02Z</time>
      </trkpt>
      <trkpt lat="38.8880840" lon="1.3005150">
        <ele>81.5</ele>
        <time>2020-02-21T11:36:03Z</time>
      </trkpt>
      <trkpt lat="38.8881190" lon="1.3005030">
        <ele>81.6</ele>
        <time>2020-02-21T11:36:04Z</time>
      </trkpt>
      <trkpt lat="38.8881460" lon="1.3004940">
        <ele>81.6</ele>
        <time>2020-02-21T11:36:05Z</time>
      </trkpt>
      <trkpt lat="38.8881920" lon="1.3004880">
        <ele>81.7</ele>
        <time>2020-02-21T11:36:06Z</time>
      </trkpt>
      <trkpt lat="38.8882200" lon="1.3004670">
        <ele>81.7</ele>
        <time>2020-02-21T11:36:07Z</time>
      </trkpt>
      <trkpt lat="38.8882560" lon="1.3004490">
        <ele>81.7</ele>
        <time>2020-02-21T11:36:08Z</time>
      </trkpt>
      <trkpt lat="38.8882870" lon="1.3004330">
        <ele>81.8</ele>
        <time>2020-02-21T11:36:09Z</time>
      </trkpt>
      <trkpt lat="38.8883170" lon="1.3004240">
        <ele>81.8</ele>
        <time>2020-02-21T11:36:10Z</time>
      </trkpt>
      <trkpt lat="38.8883490" lon="1.3004210">
        <ele>81.8</ele>
        <time>2020-02-21T11:36:11Z</time>
      </trkpt>
      <trkpt lat="38.8883780" lon="1.3004120">
        <ele>81.8</ele>
        <time>2020-02-21T11:36:12Z</time>
      </trkpt>
      <trkpt lat="38.8884180" lon="1.3004020">
        <ele>81.8</ele>
        <time>2020-02-21T11:36:13Z</time>
      </trkpt>
      <trkpt lat="38.8884570" lon="1.3003960">
        <ele>81.8</ele>
        <time>2020-02-21T11:36:14Z</time>
      </trkpt>
      <trkpt lat="38.8884930" lon="1.3003870">
        <ele>81.8</ele>
        <time>2020-02-21T11:36:15Z</time>
      </trkpt>
      <trkpt lat="38.8885300" lon="1.3003800">
        <ele>81.8</ele>
        <time>2020-02-21T11:36:16Z</time>
      </trkpt>
      <trkpt lat="38.8885810" lon="1.3003770">
        <ele>81.8</ele>
        <time>2020-02-21T11:36:17Z</time>
      </trkpt>
      <trkpt lat="38.8886260" lon="1.3003560">
        <ele>81.8</ele>
        <time>2020-02-21T11:36:18Z</time>
      </trkpt>
      <trkpt lat="38.8886640" lon="1.3003440">
        <ele>81.8</ele>
        <time>2020-02-21T11:36:19Z</time>
      </trkpt>
      <trkpt lat="38.8887020" lon="1.3003300">
        <ele>81.8</ele>
        <time>2020-02-21T11:36:20Z</time>
      </trkpt>
      <trkpt lat="38.8887330" lon="1.3003300">
        <ele>81.8</ele>
        <time>2020-02-21T11:36:21Z</time>
      </trkpt>
      <trkpt lat="38.8887720" lon="1.3003280">
        <ele>81.8</ele>
        <time>2020-02-21T11:36:22Z</time>
      </trkpt>
      <trkpt lat="38.8888050" lon="1.3003150">
        <ele>81.8</ele>
        <time>2020-02-21T11:36:23Z</time>
      </trkpt>
      <trkpt lat="38.8888420" lon="1.3003120">
        <ele>81.8</ele>
        <time>2020-02-21T11:36:24Z</time>
      </trkpt>
      <trkpt lat="38.8888800" lon="1.3003150">
        <ele>81.8</ele>
        <time>2020-02-21T11:36:25Z</time>
      </trkpt>
      <trkpt lat="38.8889180" lon="1.3003210">
        <ele>81.8</ele>
        <time>2020-02-21T11:36:26Z</time>
      </trkpt>
      <trkpt lat="38.8889590" lon="1.3003220">
        <ele>81.8</ele>
        <time>2020-02-21T11:36:27Z</time>
      </trkpt>
      <trkpt lat="38.8889950" lon="1.3003190">
        <ele>81.8</ele>
        <time>2020-02-21T11:36:28Z</time>
      </trkpt>
      <trkpt lat="38.8890230" lon="1.3003140">
        <ele>81.8</ele>
        <time>2020-02-21T11:36:29Z</time>
      </trkpt>
      <trkpt lat="38.8890670" lon="1.3003140">
        <ele>81.8</ele>
        <time>2020-02-21T11:36:30Z</time>
      </trkpt>
      <trkpt lat="38.8891150" lon="1.3003180">
        <ele>81.8</ele>
        <time>2020-02-21T11:36:31Z</time>
      </trkpt>
      <trkpt lat="38.8891470" lon="1.3003070">
        <ele>81.8</ele>
        <time>2020-02-21T11:36:32Z</time>
      </trkpt>
      <trkpt lat="38.8891860" lon="1.3002930">
        <ele>81.8</ele>
        <time>2020-02-21T11:36:33Z</time>
      </trkpt>
      <trkpt lat="38.8892240" lon="1.3002850">
        <ele>81.8</ele>
        <time>2020-02-21T11:36:34Z</time>
      </trkpt>
      <trkpt lat="38.8892630" lon="1.3002820">
        <ele>81.8</ele>
        <time>2020-02-21T11:36:35Z</time>
      </trkpt>
      <trkpt lat="38.8892910" lon="1.3002610">
        <ele>81.8</ele>
        <time>2020-02-21T11:36:36Z</time>
      </trkpt>
      <trkpt lat="38.8893270" lon="1.3002270">
        <ele>81.8</ele>
        <time>2020-02-21T11:36:37Z</time>
      </trkpt>
      <trkpt lat="38.8893710" lon="1.3001930">
        <ele>81.8</ele>
        <time>2020-02-21T11:36:38Z</time>
      </trkpt>
      <trkpt lat="38.8894150" lon="1.3001550">
        <ele>81.8</ele>
        <time>2020-02-21T11:36:39Z</time>
      </trkpt>
      <trkpt lat="38.8894540" lon="1.3001160">
        <ele>81.8</ele>
        <time>2020-02-21T11:36:40Z</time>
      </trkpt>
      <trkpt lat="38.8895000" lon="1.3000810">
        <ele>81.8</ele>
        <time>2020-02-21T11:36:41Z</time>
      </trkpt>
      <trkpt lat="38.8895570" lon="1.3000160">
        <ele>81.9</ele>
        <time>2020-02-21T11:36:42Z</time>
      </trkpt>
      <trkpt lat="38.8896060" lon="1.2999710">
        <ele>82.0</ele>
        <time>2020-02-21T11:36:43Z</time>
      </trkpt>
      <trkpt lat="38.8896550" lon="1.2999200">
        <ele>82.1</ele>
        <time>2020-02-21T11:36:44Z</time>
      </trkpt>
      <trkpt lat="38.8897140" lon="1.2998550">
        <ele>82.2</ele>
        <time>2020-02-21T11:36:45Z</time>
      </trkpt>
      <trkpt lat="38.8897680" lon="1.2997790">
        <ele>82.4</ele>
        <time>2020-02-21T11:36:46Z</time>
      </trkpt>
      <trkpt lat="38.8898040" lon="1.2996980">
        <ele>82.6</ele>
        <time>2020-02-21T11:36:47Z</time>
      </trkpt>
      <trkpt lat="38.8898100" lon="1.2996300">
        <ele>82.7</ele>
        <time>2020-02-21T11:36:48Z</time>
      </trkpt>
      <trkpt lat="38.8898220" lon="1.2995620">
        <ele>82.8</ele>
        <time>2020-02-21T11:36:49Z</time>
      </trkpt>
      <trkpt lat="38.8898370" lon="1.2994950">
        <ele>82.9</ele>
        <time>2020-02-21T11:36:50Z</time>
      </trkpt>
      <trkpt lat="38.8898540" lon="1.2994250">
        <ele>83.0</ele>
        <time>2020-02-21T11:36:51Z</time>
      </trkpt>
      <trkpt lat="38.8898700" lon="1.2993460">
        <ele>83.2</ele>
        <time>2020-02-21T11:36:52Z</time>
      </trkpt>
      <trkpt lat="38.8898740" lon="1.2992730">
        <ele>83.4</ele>
        <time>2020-02-21T11:36:53Z</time>
      </trkpt>
      <trkpt lat="38.8898780" lon="1.2992210">
        <ele>83.6</ele>
        <time>2020-02-21T11:36:54Z</time>
      </trkpt>
      <trkpt lat="38.8898720" lon="1.2991810">
        <ele>83.7</ele>
        <time>2020-02-21T11:36:55Z</time>
      </trkpt>
      <trkpt lat="38.8898740" lon="1.2991180">
        <ele>84.0</ele>
        <time>2020-02-21T11:36:56Z</time>
      </trkpt>
      <trkpt lat="38.8898990" lon="1.2990460">
        <ele>84.3</ele>
        <time>2020-02-21T11:36:57Z</time>
      </trkpt>
      <trkpt lat="38.8899490" lon="1.2989900">
        <ele>84.7</ele>
        <time>2020-02-21T11:36:58Z</time>
      </trkpt>
      <trkpt lat="38.8900030" lon="1.2989730">
        <ele>85.0</ele>
        <time>2020-02-21T11:36:59Z</time>
      </trkpt>
      <trkpt lat="38.8900550" lon="1.2989730">
        <ele>85.4</ele>
        <time>2020-02-21T11:37:00Z</time>
      </trkpt>
      <trkpt lat="38.8900880" lon="1.2989780">
        <ele>85.6</ele>
        <time>2020-02-21T11:37:01Z</time>
      </trkpt>
      <trkpt lat="38.8901310" lon="1.2989820">
        <ele>85.9</ele>
        <time>2020-02-21T11:37:02Z</time>
      </trkpt>
      <trkpt lat="38.8901720" lon="1.2989980">
        <ele>86.2</ele>
        <time>2020-02-21T11:37:03Z</time>
      </trkpt>
      <trkpt lat="38.8902000" lon="1.2990110">
        <ele>86.7</ele>
        <time>2020-02-21T11:37:04Z</time>
      </trkpt>
      <trkpt lat="38.8902330" lon="1.2990340">
        <ele>87.0</ele>
        <time>2020-02-21T11:37:05Z</time>
      </trkpt>
      <trkpt lat="38.8902560" lon="1.2990580">
        <ele>87.2</ele>
        <time>2020-02-21T11:37:06Z</time>
      </trkpt>
      <trkpt lat="38.8902750" lon="1.2991080">
        <ele>87.5</ele>
        <time>2020-02-21T11:37:07Z</time>
      </trkpt>
      <trkpt lat="38.8902840" lon="1.2991500">
        <ele>87.7</ele>
        <time>2020-02-21T11:37:08Z</time>
      </trkpt>
      <trkpt lat="38.8902920" lon="1.2991870">
        <ele>87.9</ele>
        <time>2020-02-21T11:37:09Z</time>
      </trkpt>
      <trkpt lat="38.8903030" lon="1.2992580">
        <ele>88.2</ele>
        <time>2020-02-21T11:37:10Z</time>
      </trkpt>
      <trkpt lat="38.8903140" lon="1.2993040">
        <ele>88.4</ele>
        <time>2020-02-21T11:37:11Z</time>
      </trkpt>
      <trkpt lat="38.8903260" lon="1.2993400">
        <ele>88.5</ele>
        <time>2020-02-21T11:37:12Z</time>
      </trkpt>
      <trkpt lat="38.8903360" lon="1.2993770">
        <ele>88.7</ele>
        <time>2020-02-21T11:37:13Z</time>
      </trkpt>
      <trkpt lat="38.8903410" lon="1.2993930">
        <ele>88.8</ele>
        <time>2020-02-21T11:37:14Z</time>
      </trkpt>
      <trkpt lat="38.8903580" lon="1.2994310">
        <ele>88.9</ele>
        <time>2020-02-21T11:37:15Z</time>
      </trkpt>
      <trkpt lat="38.8903710" lon="1.2994660">
        <ele>89.0</ele>
        <time>2020-02-21T11:37:16Z</time>
      </trkpt>
      <trkpt lat="38.8903910" lon="1.2995080">
        <ele>89.2</ele>
        <time>2020-02-21T11:37:17Z</time>
      </trkpt>
      <trkpt lat="38.8904090" lon="1.2995640">
        <ele>89.3</ele>
        <time>2020-02-21T11:37:18Z</time>
      </trkpt>
      <trkpt lat="38.8904320" lon="1.2996080">
        <ele>89.4</ele>
        <time>2020-02-21T11:37:19Z</time>
      </trkpt>
      <trkpt lat="38.8904630" lon="1.2996450">
        <ele>89.5</ele>
        <time>2020-02-21T11:37:20Z</time>
      </trkpt>
      <trkpt lat="38.8904830" lon="1.2996890">
        <ele>89.6</ele>
        <time>2020-02-21T11:37:21Z</time>
      </trkpt>
      <trkpt lat="38.8905030" lon="1.2997340">
        <ele>89.6</ele>
        <time>2020-02-21T11:37:22Z</time>
      </trkpt>
      <trkpt lat="38.8905220" lon="1.2997810">
        <ele>89.6</ele>
        <time>2020-02-21T11:37:23Z</time>
      </trkpt>
      <trkpt lat="38.8905380" lon="1.2998230">
        <ele>89.7</ele>
        <time>2020-02-21T11:37:24Z</time>
      </trkpt>
      <trkpt lat="38.8905580" lon="1.2998580">
        <ele>89.7</ele>
        <time>2020-02-21T11:37:25Z</time>
      </trkpt>
      <trkpt lat="38.8905770" lon="1.2998880">
        <ele>89.7</ele>
        <time>2020-02-21T11:37:26Z</time>
      </trkpt>
      <trkpt lat="38.8906040" lon="1.2999480">
        <ele>89.7</ele>
        <time>2020-02-21T11:37:27Z</time>
      </trkpt>
      <trkpt lat="38.8906390" lon="1.2999900">
        <ele>89.7</ele>
        <time>2020-02-21T11:37:28Z</time>
      </trkpt>
      <trkpt lat="38.8906520" lon="1.3000340">
        <ele>89.7</ele>
        <time>2020-02-21T11:37:29Z</time>
      </trkpt>
      <trkpt lat="38.8906690" lon="1.3000730">
        <ele>89.7</ele>
        <time>2020-02-21T11:37:30Z</time>
      </trkpt>
      <trkpt lat="38.8906890" lon="1.3001080">
        <ele>89.7</ele>
        <time>2020-02-21T11:37:31Z</time>
      </trkpt>
      <trkpt lat="38.8907100" lon="1.3001380">
        <ele>89.7</ele>
        <time>2020-02-21T11:37:32Z</time>
      </trkpt>
      <trkpt lat="38.8907360" lon="1.3001650">
        <ele>89.7</ele>
        <time>2020-02-21T11:37:33Z</time>
      </trkpt>
      <trkpt lat="38.8907610" lon="1.3001970">
        <ele>89.7</ele>
        <time>2020-02-21T11:37:34Z</time>
      </trkpt>
      <trkpt lat="38.8907860" lon="1.3002230">
        <ele>89.7</ele>
        <time>2020-02-21T11:37:35Z</time>
      </trkpt>
      <trkpt lat="38.8908210" lon="1.3002560">
        <ele>89.7</ele>
        <time>2020-02-21T11:37:36Z</time>
      </trkpt>
      <trkpt lat="38.8908330" lon="1.3002700">
        <ele>89.7</ele>
        <time>2020-02-21T11:37:37Z</time>
      </trkpt>
      <trkpt lat="38.8908510" lon="1.3003060">
        <ele>89.7</ele>
        <time>2020-02-21T11:37:38Z</time>
      </trkpt>
      <trkpt lat="38.8908850" lon="1.3003240">
        <ele>89.7</ele>
        <time>2020-02-21T11:37:39Z</time>
      </trkpt>
      <trkpt lat="38.8909190" lon="1.3003260">
        <ele>89.7</ele>
        <time>2020-02-21T11:37:40Z</time>
      </trkpt>
      <trkpt lat="38.8909580" lon="1.3003410">
        <ele>89.6</ele>
        <time>2020-02-21T11:37:41Z</time>
      </trkpt>
      <trkpt lat="38.8909710" lon="1.3003460">
        <ele>89.6</ele>
        <time>2020-02-21T11:37:42Z</time>
      </trkpt>
      <trkpt lat="38.8910030" lon="1.3003520">
        <ele>89.6</ele>
        <time>2020-02-21T11:37:43Z</time>
      </trkpt>
      <trkpt lat="38.8910420" lon="1.3003400">
        <ele>89.5</ele>
        <time>2020-02-21T11:37:44Z</time>
      </trkpt>
      <trkpt lat="38.8910580" lon="1.3003330">
        <ele>89.4</ele>
        <time>2020-02-21T11:37:45Z</time>
      </trkpt>
      <trkpt lat="38.8910910" lon="1.3003330">
        <ele>89.4</ele>
        <time>2020-02-21T11:37:46Z</time>
      </trkpt>
      <trkpt lat="38.8911300" lon="1.3003290">
        <ele>89.2</ele>
        <time>2020-02-21T11:37:47Z</time>
      </trkpt>
      <trkpt lat="38.8911660" lon="1.3003280">
        <ele>89.1</ele>
        <time>2020-02-21T11:37:48Z</time>
      </trkpt>
      <trkpt lat="38.8911940" lon="1.3003200">
        <ele>89.1</ele>
        <time>2020-02-21T11:37:49Z</time>
      </trkpt>
      <trkpt lat="38.8912280" lon="1.3003190">
        <ele>89.0</ele>
        <time>2020-02-21T11:37:50Z</time>
      </trkpt>
      <trkpt lat="38.8912610" lon="1.3003200">
        <ele>88.9</ele>
        <time>2020-02-21T11:37:51Z</time>
      </trkpt>
      <trkpt lat="38.8912910" lon="1.3003210">
        <ele>88.8</ele>
        <time>2020-02-21T11:37:52Z</time>
      </trkpt>
      <trkpt lat="38.8913200" lon="1.3003220">
        <ele>88.8</ele>
        <time>2020-02-21T11:37:53Z</time>
      </trkpt>
      <trkpt lat="38.8913560" lon="1.3003110">
        <ele>88.8</ele>
        <time>2020-02-21T11:37:54Z</time>
      </trkpt>
      <trkpt lat="38.8913990" lon="1.3002960">
        <ele>88.7</ele>
        <time>2020-02-21T11:37:55Z</time>
      </trkpt>
      <trkpt lat="38.8914440" lon="1.3002820">
        <ele>88.7</ele>
        <time>2020-02-21T11:37:56Z</time>
      </trkpt>
      <trkpt lat="38.8914960" lon="1.3002720">
        <ele>88.7</ele>
        <time>2020-02-21T11:37:57Z</time>
      </trkpt>
      <trkpt lat="38.8915480" lon="1.3002650">
        <ele>88.7</ele>
        <time>2020-02-21T11:37:58Z</time>
      </trkpt>
      <trkpt lat="38.8915990" lon="1.3002520">
        <ele>88.7</ele>
        <time>2020-02-21T11:37:59Z</time>
      </trkpt>
      <trkpt lat="38.8916510" lon="1.3002480">
        <ele>88.7</ele>
        <time>2020-02-21T11:38:00Z</time>
      </trkpt>
      <trkpt lat="38.8916930" lon="1.3002240">
        <ele>88.7</ele>
        <time>2020-02-21T11:38:01Z</time>
      </trkpt>
      <trkpt lat="38.8917400" lon="1.3001980">
        <ele>88.7</ele>
        <time>2020-02-21T11:38:02Z</time>
      </trkpt>
      <trkpt lat="38.8917830" lon="1.3001540">
        <ele>88.7</ele>
        <time>2020-02-21T11:38:03Z</time>
      </trkpt>
      <trkpt lat="38.8918420" lon="1.3001190">
        <ele>88.7</ele>
        <time>2020-02-21T11:38:04Z</time>
      </trkpt>
      <trkpt lat="38.8918930" lon="1.3000790">
        <ele>88.8</ele>
        <time>2020-02-21T11:38:05Z</time>
      </trkpt>
      <trkpt lat="38.8919390" lon="1.3000370">
        <ele>88.8</ele>
        <time>2020-02-21T11:38:06Z</time>
      </trkpt>
      <trkpt lat="38.8919890" lon="1.2999900">
        <ele>88.9</ele>
        <time>2020-02-21T11:38:07Z</time>
      </trkpt>
      <trkpt lat="38.8920330" lon="1.2999380">
        <ele>89.0</ele>
        <time>2020-02-21T11:38:08Z</time>
      </trkpt>
      <trkpt lat="38.8920870" lon="1.2998810">
        <ele>89.2</ele>
        <time>2020-02-21T11:38:09Z</time>
      </trkpt>
      <trkpt lat="38.8921450" lon="1.2998200">
        <ele>89.5</ele>
        <time>2020-02-21T11:38:10Z</time>
      </trkpt>
      <trkpt lat="38.8922050" lon="1.2997550">
        <ele>89.7</ele>
        <time>2020-02-21T11:38:11Z</time>
      </trkpt>
      <trkpt lat="38.8922680" lon="1.2997080">
        <ele>90.0</ele>
        <time>2020-02-21T11:38:12Z</time>
      </trkpt>
      <trkpt lat="38.8923440" lon="1.2996690">
        <ele>90.3</ele>
        <time>2020-02-21T11:38:13Z</time>
      </trkpt>
      <trkpt lat="38.8924010" lon="1.2996430">
        <ele>90.5</ele>
        <time>2020-02-21T11:38:14Z</time>
      </trkpt>
      <trkpt lat="38.8924730" lon="1.2996230">
        <ele>90.8</ele>
        <time>2020-02-21T11:38:15Z</time>
      </trkpt>
      <trkpt lat="38.8925450" lon="1.2996040">
        <ele>91.1</ele>
        <time>2020-02-21T11:38:16Z</time>
      </trkpt>
      <trkpt lat="38.8926130" lon="1.2995910">
        <ele>91.4</ele>
        <time>2020-02-21T11:38:17Z</time>
      </trkpt>
      <trkpt lat="38.8926780" lon="1.2995790">
        <ele>91.7</ele>
        <time>2020-02-21T11:38:18Z</time>
      </trkpt>
      <trkpt lat="38.8927410" lon="1.2995700">
        <ele>92.0</ele>
        <time>2020-02-21T11:38:19Z</time>
      </trkpt>
      <trkpt lat="38.8928010" lon="1.2995610">
        <ele>92.2</ele>
        <time>2020-02-21T11:38:20Z</time>
      </trkpt>
      <trkpt lat="38.8928590" lon="1.2995550">
        <ele>92.5</ele>
        <time>2020-02-21T11:38:21Z</time>
      </trkpt>
      <trkpt lat="38.8929150" lon="1.2995470">
        <ele>92.7</ele>
        <time>2020-02-21T11:38:22Z</time>
      </trkpt>
      <trkpt lat="38.8929680" lon="1.2995420">
        <ele>92.9</ele>
        <time>2020-02-21T11:38:23Z</time>
      </trkpt>
      <trkpt lat="38.8930190" lon="1.2995280">
        <ele>93.1</ele>
        <time>2020-02-21T11:38:24Z</time>
      </trkpt>
      <trkpt lat="38.8930690" lon="1.2995160">
        <ele>93.3</ele>
        <time>2020-02-21T11:38:25Z</time>
      </trkpt>
      <trkpt lat="38.8931220" lon="1.2995080">
        <ele>93.4</ele>
        <time>2020-02-21T11:38:26Z</time>
      </trkpt>
      <trkpt lat="38.8931660" lon="1.2994960">
        <ele>93.5</ele>
        <time>2020-02-21T11:38:27Z</time>
      </trkpt>
      <trkpt lat="38.8932100" lon="1.2994910">
        <ele>93.6</ele>
        <time>2020-02-21T11:38:28Z</time>
      </trkpt>
      <trkpt lat="38.8932520" lon="1.2994920">
        <ele>93.6</ele>
        <time>2020-02-21T11:38:29Z</time>
      </trkpt>
      <trkpt lat="38.8932910" lon="1.2994870">
        <ele>93.6</ele>
        <time>2020-02-21T11:38:30Z</time>
      </trkpt>
      <trkpt lat="38.8933310" lon="1.2994910">
        <ele>93.7</ele>
        <time>2020-02-21T11:38:31Z</time>
      </trkpt>
      <trkpt lat="38.8933710" lon="1.2994950">
        <ele>93.7</ele>
        <time>2020-02-21T11:38:32Z</time>
      </trkpt>
      <trkpt lat="38.8934110" lon="1.2995000">
        <ele>93.7</ele>
        <time>2020-02-21T11:38:33Z</time>
      </trkpt>
      <trkpt lat="38.8934530" lon="1.2994990">
        <ele>93.7</ele>
        <time>2020-02-21T11:38:34Z</time>
      </trkpt>
      <trkpt lat="38.8934920" lon="1.2994930">
        <ele>93.7</ele>
        <time>2020-02-21T11:38:35Z</time>
      </trkpt>
      <trkpt lat="38.8935290" lon="1.2994910">
        <ele>93.7</ele>
        <time>2020-02-21T11:38:36Z</time>
      </trkpt>
      <trkpt lat="38.8935630" lon="1.2994830">
        <ele>93.7</ele>
        <time>2020-02-21T11:38:37Z</time>
      </trkpt>
      <trkpt lat="38.8935940" lon="1.2994810">
        <ele>93.7</ele>
        <time>2020-02-21T11:38:38Z</time>
      </trkpt>
      <trkpt lat="38.8936270" lon="1.2994880">
        <ele>93.7</ele>
        <time>2020-02-21T11:38:39Z</time>
      </trkpt>
      <trkpt lat="38.8936610" lon="1.2994900">
        <ele>93.7</ele>
        <time>2020-02-21T11:38:40Z</time>
      </trkpt>
      <trkpt lat="38.8936940" lon="1.2994890">
        <ele>93.7</ele>
        <time>2020-02-21T11:38:41Z</time>
      </trkpt>
      <trkpt lat="38.8937260" lon="1.2994920">
        <ele>93.7</ele>
        <time>2020-02-21T11:38:42Z</time>
      </trkpt>
      <trkpt lat="38.8937590" lon="1.2994960">
        <ele>93.7</ele>
        <time>2020-02-21T11:38:43Z</time>
      </trkpt>
      <trkpt lat="38.8937920" lon="1.2994920">
        <ele>93.7</ele>
        <time>2020-02-21T11:38:44Z</time>
      </trkpt>
      <trkpt lat="38.8938240" lon="1.2994960">
        <ele>93.8</ele>
        <time>2020-02-21T11:38:45Z</time>
      </trkpt>
      <trkpt lat="38.8938520" lon="1.2995090">
        <ele>93.8</ele>
        <time>2020-02-21T11:38:46Z</time>
      </trkpt>
      <trkpt lat="38.8938870" lon="1.2995180">
        <ele>93.9</ele>
        <time>2020-02-21T11:38:47Z</time>
      </trkpt>
      <trkpt lat="38.8939190" lon="1.2995310">
        <ele>93.9</ele>
        <time>2020-02-21T11:38:48Z</time>
      </trkpt>
      <trkpt lat="38.8939500" lon="1.2995510">
        <ele>94.0</ele>
        <time>2020-02-21T11:38:49Z</time>
      </trkpt>
      <trkpt lat="38.8939800" lon="1.2995720">
        <ele>94.1</ele>
        <time>2020-02-21T11:38:50Z</time>
      </trkpt>
      <trkpt lat="38.8940070" lon="1.2995990">
        <ele>94.2</ele>
        <time>2020-02-21T11:38:51Z</time>
      </trkpt>
      <trkpt lat="38.8940410" lon="1.2996140">
        <ele>94.3</ele>
        <time>2020-02-21T11:38:52Z</time>
      </trkpt>
      <trkpt lat="38.8940750" lon="1.2996310">
        <ele>94.4</ele>
        <time>2020-02-21T11:38:53Z</time>
      </trkpt>
      <trkpt lat="38.8941090" lon="1.2996540">
        <ele>94.5</ele>
        <time>2020-02-21T11:38:54Z</time>
      </trkpt>
      <trkpt lat="38.8941410" lon="1.2996810">
        <ele>94.6</ele>
        <time>2020-02-21T11:38:55Z</time>
      </trkpt>
      <trkpt lat="38.8941810" lon="1.2996940">
        <ele>94.7</ele>
        <time>2020-02-21T11:38:56Z</time>
      </trkpt>
      <trkpt lat="38.8942180" lon="1.2997200">
        <ele>94.8</ele>
        <time>2020-02-21T11:38:57Z</time>
      </trkpt>
      <trkpt lat="38.8942580" lon="1.2997490">
        <ele>94.9</ele>
        <time>2020-02-21T11:38:58Z</time>
      </trkpt>
      <trkpt lat="38.8942970" lon="1.2997860">
        <ele>95.1</ele>
        <time>2020-02-21T11:38:59Z</time>
      </trkpt>
      <trkpt lat="38.8943400" lon="1.2998130">
        <ele>95.3</ele>
        <time>2020-02-21T11:39:00Z</time>
      </trkpt>
      <trkpt lat="38.8943820" lon="1.2998440">
        <ele>95.4</ele>
        <time>2020-02-21T11:39:01Z</time>
      </trkpt>
      <trkpt lat="38.8944220" lon="1.2998760">
        <ele>95.6</ele>
        <time>2020-02-21T11:39:02Z</time>
      </trkpt>
      <trkpt lat="38.8944620" lon="1.2999120">
        <ele>95.8</ele>
        <time>2020-02-21T11:39:03Z</time>
      </trkpt>
      <trkpt lat="38.8944940" lon="1.2999580">
        <ele>96.0</ele>
        <time>2020-02-21T11:39:04Z</time>
      </trkpt>
      <trkpt lat="38.8945300" lon="1.2999960">
        <ele>96.2</ele>
        <time>2020-02-21T11:39:05Z</time>
      </trkpt>
      <trkpt lat="38.8945640" lon="1.3000340">
        <ele>96.3</ele>
        <time>2020-02-21T11:39:06Z</time>
      </trkpt>
      <trkpt lat="38.8945980" lon="1.3000710">
        <ele>96.5</ele>
        <time>2020-02-21T11:39:07Z</time>
      </trkpt>
      <trkpt lat="38.8946330" lon="1.3001050">
        <ele>96.6</ele>
        <time>2020-02-21T11:39:08Z</time>
      </trkpt>
      <trkpt lat="38.8946760" lon="1.3001300">
        <ele>96.8</ele>
        <time>2020-02-21T11:39:09Z</time>
      </trkpt>
      <trkpt lat="38.8947090" lon="1.3001690">
        <ele>96.9</ele>
        <time>2020-02-21T11:39:10Z</time>
      </trkpt>
      <trkpt lat="38.8947360" lon="1.3002090">
        <ele>97.0</ele>
        <time>2020-02-21T11:39:11Z</time>
      </trkpt>
      <trkpt lat="38.8947670" lon="1.3002440">
        <ele>97.1</ele>
        <time>2020-02-21T11:39:12Z</time>
      </trkpt>
      <trkpt lat="38.8947850" lon="1.3002930">
        <ele>97.2</ele>
        <time>2020-02-21T11:39:13Z</time>
      </trkpt>
      <trkpt lat="38.8948140" lon="1.3003220">
        <ele>97.3</ele>
        <time>2020-02-21T11:39:14Z</time>
      </trkpt>
      <trkpt lat="38.8948330" lon="1.3003630">
        <ele>97.4</ele>
        <time>2020-02-21T11:39:15Z</time>
      </trkpt>
      <trkpt lat="38.8948580" lon="1.3003970">
        <ele>97.5</ele>
        <time>2020-02-21T11:39:16Z</time>
      </trkpt>
      <trkpt lat="38.8948870" lon="1.3004270">
        <ele>97.5</ele>
        <time>2020-02-21T11:39:17Z</time>
      </trkpt>
      <trkpt lat="38.8949170" lon="1.3004600">
        <ele>97.6</ele>
        <time>2020-02-21T11:39:18Z</time>
      </trkpt>
      <trkpt lat="38.8949450" lon="1.3004950">
        <ele>97.6</ele>
        <time>2020-02-21T11:39:19Z</time>
      </trkpt>
      <trkpt lat="38.8949690" lon="1.3005320">
        <ele>97.6</ele>
        <time>2020-02-21T11:39:20Z</time>
      </trkpt>
      <trkpt lat="38.8949860" lon="1.3005730">
        <ele>97.7</ele>
        <time>2020-02-21T11:39:21Z</time>
      </trkpt>
      <trkpt lat="38.8950070" lon="1.3006110">
        <ele>97.7</ele>
        <time>2020-02-21T11:39:22Z</time>
      </trkpt>
      <trkpt lat="38.8950250" lon="1.3006540">
        <ele>97.7</ele>
        <time>2020-02-21T11:39:23Z</time>
      </trkpt>
      <trkpt lat="38.8950460" lon="1.3006870">
        <ele>97.7</ele>
        <time>2020-02-21T11:39:24Z</time>
      </trkpt>
      <trkpt lat="38.8950740" lon="1.3007180">
        <ele>97.7</ele>
        <time>2020-02-21T11:39:25Z</time>
      </trkpt>
      <trkpt lat="38.8950880" lon="1.3007630">
        <ele>97.7</ele>
        <time>2020-02-21T11:39:26Z</time>
      </trkpt>
      <trkpt lat="38.8951080" lon="1.3008010">
        <ele>97.7</ele>
        <time>2020-02-21T11:39:27Z</time>
      </trkpt>
      <trkpt lat="38.8951310" lon="1.3008460">
        <ele>97.7</ele>
        <time>2020-02-21T11:39:28Z</time>
      </trkpt>
      <trkpt lat="38.8951510" lon="1.3008850">
        <ele>97.7</ele>
        <time>2020-02-21T11:39:29Z</time>
      </trkpt>
      <trkpt lat="38.8951710" lon="1.3009250">
        <ele>97.7</ele>
        <time>2020-02-21T11:39:30Z</time>
      </trkpt>
      <trkpt lat="38.8951970" lon="1.3009720">
        <ele>97.7</ele>
        <time>2020-02-21T11:39:31Z</time>
      </trkpt>
      <trkpt lat="38.8952290" lon="1.3010050">
        <ele>97.7</ele>
        <time>2020-02-21T11:39:32Z</time>
      </trkpt>
      <trkpt lat="38.8952530" lon="1.3010460">
        <ele>97.7</ele>
        <time>2020-02-21T11:39:33Z</time>
      </trkpt>
      <trkpt lat="38.8952700" lon="1.3010880">
        <ele>97.7</ele>
        <time>2020-02-21T11:39:34Z</time>
      </trkpt>
      <trkpt lat="38.8952950" lon="1.3011260">
        <ele>97.7</ele>
        <time>2020-02-21T11:39:35Z</time>
      </trkpt>
      <trkpt lat="38.8953160" lon="1.3011640">
        <ele>97.7</ele>
        <time>2020-02-21T11:39:36Z</time>
      </trkpt>
      <trkpt lat="38.8953360" lon="1.3012030">
        <ele>97.7</ele>
        <time>2020-02-21T11:39:37Z</time>
      </trkpt>
      <trkpt lat="38.8953580" lon="1.3012490">
        <ele>97.7</ele>
        <time>2020-02-21T11:39:38Z</time>
      </trkpt>
      <trkpt lat="38.8953790" lon="1.3012910">
        <ele>97.7</ele>
        <time>2020-02-21T11:39:39Z</time>
      </trkpt>
      <trkpt lat="38.8954020" lon="1.3013380">
        <ele>97.7</ele>
        <time>2020-02-21T11:39:40Z</time>
      </trkpt>
      <trkpt lat="38.8954290" lon="1.3013860">
        <ele>97.7</ele>
        <time>2020-02-21T11:39:41Z</time>
      </trkpt>
      <trkpt lat="38.8954560" lon="1.3014300">
        <ele>97.7</ele>
        <time>2020-02-21T11:39:42Z</time>
      </trkpt>
      <trkpt lat="38.8955000" lon="1.3014810">
        <ele>97.8</ele>
        <time>2020-02-21T11:39:43Z</time>
      </trkpt>
      <trkpt lat="38.8955410" lon="1.3015350">
        <ele>97.8</ele>
        <time>2020-02-21T11:39:44Z</time>
      </trkpt>
      <trkpt lat="38.8955690" lon="1.3015780">
        <ele>97.8</ele>
        <time>2020-02-21T11:39:45Z</time>
      </trkpt>
      <trkpt lat="38.8955910" lon="1.3016230">
        <ele>97.8</ele>
        <time>2020-02-21T11:39:46Z</time>
      </trkpt>
      <trkpt lat="38.8956140" lon="1.3016690">
        <ele>97.8</ele>
        <time>2020-02-21T11:39:47Z</time>
      </trkpt>
      <trkpt lat="38.8956390" lon="1.3017250">
        <ele>97.8</ele>
        <time>2020-02-21T11:39:48Z</time>
      </trkpt>
      <trkpt lat="38.8956720" lon="1.3017800">
        <ele>97.8</ele>
        <time>2020-02-21T11:39:49Z</time>
      </trkpt>
      <trkpt lat="38.8957000" lon="1.3018150">
        <ele>97.8</ele>
        <time>2020-02-21T11:39:50Z</time>
      </trkpt>
      <trkpt lat="38.8957300" lon="1.3018580">
        <ele>97.8</ele>
        <time>2020-02-21T11:39:51Z</time>
      </trkpt>
      <trkpt lat="38.8957510" lon="1.3018980">
        <ele>97.8</ele>
        <time>2020-02-21T11:39:52Z</time>
      </trkpt>
      <trkpt lat="38.8957780" lon="1.3019350">
        <ele>97.8</ele>
        <time>2020-02-21T11:39:53Z</time>
      </trkpt>
      <trkpt lat="38.8957940" lon="1.3019740">
        <ele>97.8</ele>
        <time>2020-02-21T11:39:54Z</time>
      </trkpt>
      <trkpt lat="38.8958200" lon="1.3020140">
        <ele>97.8</ele>
        <time>2020-02-21T11:39:55Z</time>
      </trkpt>
      <trkpt lat="38.8958430" lon="1.3020610">
        <ele>97.8</ele>
        <time>2020-02-21T11:39:56Z</time>
      </trkpt>
      <trkpt lat="38.8958690" lon="1.3021130">
        <ele>97.8</ele>
        <time>2020-02-21T11:39:57Z</time>
      </trkpt>
      <trkpt lat="38.8959000" lon="1.3021440">
        <ele>97.8</ele>
        <time>2020-02-21T11:39:58Z</time>
      </trkpt>
      <trkpt lat="38.8959310" lon="1.3021880">
        <ele>97.9</ele>
        <time>2020-02-21T11:39:59Z</time>
      </trkpt>
      <trkpt lat="38.8959590" lon="1.3022400">
        <ele>97.9</ele>
        <time>2020-02-21T11:40:00Z</time>
      </trkpt>
      <trkpt lat="38.8959950" lon="1.3022880">
        <ele>97.9</ele>
        <time>2020-02-21T11:40:01Z</time>
      </trkpt>
      <trkpt lat="38.8960290" lon="1.3023400">
        <ele>97.9</ele>
        <time>2020-02-21T11:40:02Z</time>
      </trkpt>
      <trkpt lat="38.8960580" lon="1.3023920">
        <ele>97.8</ele>
        <time>2020-02-21T11:40:03Z</time>
      </trkpt>
      <trkpt lat="38.8960890" lon="1.3024400">
        <ele>97.8</ele>
        <time>2020-02-21T11:40:04Z</time>
      </trkpt>
      <trkpt lat="38.8961200" lon="1.3024760">
        <ele>97.8</ele>
        <time>2020-02-21T11:40:05Z</time>
      </trkpt>
      <trkpt lat="38.8961460" lon="1.3025330">
        <ele>97.8</ele>
        <time>2020-02-21T11:40:06Z</time>
      </trkpt>
      <trkpt lat="38.8961650" lon="1.3025640">
        <ele>97.8</ele>
        <time>2020-02-21T11:40:07Z</time>
      </trkpt>
      <trkpt lat="38.8961920" lon="1.3026070">
        <ele>97.8</ele>
        <time>2020-02-21T11:40:08Z</time>
      </trkpt>
      <trkpt lat="38.8962240" lon="1.3026450">
        <ele>97.8</ele>
        <time>2020-02-21T11:40:09Z</time>
      </trkpt>
      <trkpt lat="38.8962530" lon="1.3026900">
        <ele>97.8</ele>
        <time>2020-02-21T11:40:10Z</time>
      </trkpt>
      <trkpt lat="38.8962860" lon="1.3027450">
        <ele>97.8</ele>
        <time>2020-02-21T11:40:11Z</time>
      </trkpt>
      <trkpt lat="38.8963160" lon="1.3027880">
        <ele>97.8</ele>
        <time>2020-02-21T11:40:12Z</time>
      </trkpt>
      <trkpt lat="38.8963530" lon="1.3028430">
        <ele>97.8</ele>
        <time>2020-02-21T11:40:13Z</time>
      </trkpt>
      <trkpt lat="38.8963930" lon="1.3028830">
        <ele>97.8</ele>
        <time>2020-02-21T11:40:14Z</time>
      </trkpt>
      <trkpt lat="38.8964280" lon="1.3029190">
        <ele>97.8</ele>
        <time>2020-02-21T11:40:15Z</time>
      </trkpt>
      <trkpt lat="38.8964590" lon="1.3029470">
        <ele>97.8</ele>
        <time>2020-02-21T11:40:16Z</time>
      </trkpt>
      <trkpt lat="38.8965030" lon="1.3029830">
        <ele>97.8</ele>
        <time>2020-02-21T11:40:17Z</time>
      </trkpt>
      <trkpt lat="38.8965410" lon="1.3030110">
        <ele>97.8</ele>
        <time>2020-02-21T11:40:18Z</time>
      </trkpt>
      <trkpt lat="38.8965760" lon="1.3030400">
        <ele>97.8</ele>
        <time>2020-02-21T11:40:19Z</time>
      </trkpt>
      <trkpt lat="38.8966130" lon="1.3030670">
        <ele>97.8</ele>
        <time>2020-02-21T11:40:20Z</time>
      </trkpt>
      <trkpt lat="38.8966540" lon="1.3030890">
        <ele>97.8</ele>
        <time>2020-02-21T11:40:21Z</time>
      </trkpt>
      <trkpt lat="38.8966970" lon="1.3031100">
        <ele>97.9</ele>
        <time>2020-02-21T11:40:22Z</time>
      </trkpt>
      <trkpt lat="38.8967420" lon="1.3031170">
        <ele>97.9</ele>
        <time>2020-02-21T11:40:23Z</time>
      </trkpt>
      <trkpt lat="38.8967880" lon="1.3031140">
        <ele>97.9</ele>
        <time>2020-02-21T11:40:24Z</time>
      </trkpt>
      <trkpt lat="38.8968340" lon="1.3030880">
        <ele>98.0</ele>
        <time>2020-02-21T11:40:25Z</time>
      </trkpt>
      <trkpt lat="38.8968860" lon="1.3030560">
        <ele>98.0</ele>
        <time>2020-02-21T11:40:26Z</time>
      </trkpt>
      <trkpt lat="38.8969220" lon="1.3030250">
        <ele>98.1</ele>
        <time>2020-02-21T11:40:27Z</time>
      </trkpt>
      <trkpt lat="38.8969540" lon="1.3029780">
        <ele>98.1</ele>
        <time>2020-02-21T11:40:28Z</time>
      </trkpt>
      <trkpt lat="38.8969850" lon="1.3029350">
        <ele>98.2</ele>
        <time>2020-02-21T11:40:29Z</time>
      </trkpt>
      <trkpt lat="38.8970040" lon="1.3028630">
        <ele>98.2</ele>
        <time>2020-02-21T11:40:30Z</time>
      </trkpt>
      <trkpt lat="38.8970120" lon="1.3028300">
        <ele>98.2</ele>
        <time>2020-02-21T11:40:31Z</time>
      </trkpt>
      <trkpt lat="38.8970110" lon="1.3027730">
        <ele>98.3</ele>
        <time>2020-02-21T11:40:32Z</time>
      </trkpt>
      <trkpt lat="38.8969980" lon="1.3027290">
        <ele>98.3</ele>
        <time>2020-02-21T11:40:33Z</time>
      </trkpt>
      <trkpt lat="38.8969920" lon="1.3026930">
        <ele>98.5</ele>
        <time>2020-02-21T11:40:34Z</time>
      </trkpt>
      <trkpt lat="38.8969820" lon="1.3026540">
        <ele>98.7</ele>
        <time>2020-02-21T11:40:35Z</time>
      </trkpt>
      <trkpt lat="38.8969770" lon="1.3026120">
        <ele>98.9</ele>
        <time>2020-02-21T11:40:36Z</time>
      </trkpt>
      <trkpt lat="38.8969740" lon="1.3025770">
        <ele>99.2</ele>
        <time>2020-02-21T11:40:37Z</time>
      </trkpt>
      <trkpt lat="38.8969670" lon="1.3025330">
        <ele>99.6</ele>
        <time>2020-02-21T11:40:38Z</time>
      </trkpt>
      <trkpt lat="38.8969570" lon="1.3024910">
        <ele>100.0</ele>
        <time>2020-02-21T11:40:39Z</time>
      </trkpt>
      <trkpt lat="38.8969380" lon="1.3024430">
        <ele>100.5</ele>
        <time>2020-02-21T11:40:40Z</time>
      </trkpt>
      <trkpt lat="38.8969310" lon="1.3024250">
        <ele>100.7</ele>
        <time>2020-02-21T11:40:41Z</time>
      </trkpt>
      <trkpt lat="38.8969230" lon="1.3023750">
        <ele>101.0</ele>
        <time>2020-02-21T11:40:42Z</time>
      </trkpt>
      <trkpt lat="38.8969180" lon="1.3023560">
        <ele>101.2</ele>
        <time>2020-02-21T11:40:43Z</time>
      </trkpt>
      <trkpt lat="38.8969050" lon="1.3023160">
        <ele>101.4</ele>
        <time>2020-02-21T11:40:44Z</time>
      </trkpt>
      <trkpt lat="38.8969000" lon="1.3022680">
        <ele>101.8</ele>
        <time>2020-02-21T11:40:45Z</time>
      </trkpt>
      <trkpt lat="38.8968980" lon="1.3022320">
        <ele>102.0</ele>
        <time>2020-02-21T11:40:46Z</time>
      </trkpt>
      <trkpt lat="38.8968910" lon="1.3021820">
        <ele>102.4</ele>
        <time>2020-02-21T11:40:47Z</time>
      </trkpt>
      <trkpt lat="38.8968880" lon="1.3021620">
        <ele>102.6</ele>
        <time>2020-02-21T11:40:48Z</time>
      </trkpt>
      <trkpt lat="38.8968750" lon="1.3021160">
        <ele>102.9</ele>
        <time>2020-02-21T11:40:49Z</time>
      </trkpt>
      <trkpt lat="38.8968630" lon="1.3020760">
        <ele>103.1</ele>
        <time>2020-02-21T11:40:50Z</time>
      </trkpt>
      <trkpt lat="38.8968400" lon="1.3020350">
        <ele>103.3</ele>
        <time>2020-02-21T11:40:51Z</time>
      </trkpt>
      <trkpt lat="38.8968300" lon="1.3020010">
        <ele>103.5</ele>
        <time>2020-02-21T11:40:52Z</time>
      </trkpt>
      <trkpt lat="38.8968210" lon="1.3019680">
        <ele>103.6</ele>
        <time>2020-02-21T11:40:53Z</time>
      </trkpt>
      <trkpt lat="38.8968120" lon="1.3019250">
        <ele>103.9</ele>
        <time>2020-02-21T11:40:54Z</time>
      </trkpt>
      <trkpt lat="38.8967980" lon="1.3018900">
        <ele>104.0</ele>
        <time>2020-02-21T11:40:55Z</time>
      </trkpt>
      <trkpt lat="38.8967990" lon="1.3018420">
        <ele>104.3</ele>
        <time>2020-02-21T11:40:56Z</time>
      </trkpt>
      <trkpt lat="38.8967930" lon="1.3018000">
        <ele>104.4</ele>
        <time>2020-02-21T11:40:57Z</time>
      </trkpt>
      <trkpt lat="38.8967810" lon="1.3017510">
        <ele>104.6</ele>
        <time>2020-02-21T11:40:58Z</time>
      </trkpt>
      <trkpt lat="38.8967710" lon="1.3017090">
        <ele>104.8</ele>
        <time>2020-02-21T11:40:59Z</time>
      </trkpt>
      <trkpt lat="38.8967500" lon="1.3016590">
        <ele>105.0</ele>
        <time>2020-02-21T11:41:00Z</time>
      </trkpt>
      <trkpt lat="38.8967490" lon="1.3015990">
        <ele>105.3</ele>
        <time>2020-02-21T11:41:01Z</time>
      </trkpt>
      <trkpt lat="38.8967450" lon="1.3015650">
        <ele>105.4</ele>
        <time>2020-02-21T11:41:02Z</time>
      </trkpt>
      <trkpt lat="38.8967240" lon="1.3015240">
        <ele>105.7</ele>
        <time>2020-02-21T11:41:03Z</time>
      </trkpt>
      <trkpt lat="38.8967090" lon="1.3014710">
        <ele>105.9</ele>
        <time>2020-02-21T11:41:04Z</time>
      </trkpt>
      <trkpt lat="38.8967020" lon="1.3014500">
        <ele>106.0</ele>
        <time>2020-02-21T11:41:05Z</time>
      </trkpt>
      <trkpt lat="38.8966880" lon="1.3014000">
        <ele>106.3</ele>
        <time>2020-02-21T11:41:06Z</time>
      </trkpt>
      <trkpt lat="38.8966770" lon="1.3013600">
        <ele>106.5</ele>
        <time>2020-02-21T11:41:07Z</time>
      </trkpt>
      <trkpt lat="38.8966670" lon="1.3013020">
        <ele>106.8</ele>
        <time>2020-02-21T11:41:08Z</time>
      </trkpt>
      <trkpt lat="38.8966540" lon="1.3012530">
        <ele>107.0</ele>
        <time>2020-02-21T11:41:09Z</time>
      </trkpt>
      <trkpt lat="38.8966400" lon="1.3011820">
        <ele>107.2</ele>
        <time>2020-02-21T11:41:10Z</time>
      </trkpt>
      <trkpt lat="38.8966280" lon="1.3011320">
        <ele>107.4</ele>
        <time>2020-02-21T11:41:11Z</time>
      </trkpt>
      <trkpt lat="38.8966140" lon="1.3010790">
        <ele>107.6</ele>
        <time>2020-02-21T11:41:12Z</time>
      </trkpt>
      <trkpt lat="38.8966040" lon="1.3010360">
        <ele>107.7</ele>
        <time>2020-02-21T11:41:13Z</time>
      </trkpt>
      <trkpt lat="38.8965940" lon="1.3009960">
        <ele>107.8</ele>
        <time>2020-02-21T11:41:14Z</time>
      </trkpt>
      <trkpt lat="38.8965830" lon="1.3009440">
        <ele>107.9</ele>
        <time>2020-02-21T11:41:15Z</time>
      </trkpt>
      <trkpt lat="38.8965720" lon="1.3008940">
        <ele>108.0</ele>
        <time>2020-02-21T11:41:16Z</time>
      </trkpt>
      <trkpt lat="38.8965590" lon="1.3008320">
        <ele>108.0</ele>
        <time>2020-02-21T11:41:17Z</time>
      </trkpt>
      <trkpt lat="38.8965500" lon="1.3007650">
        <ele>108.1</ele>
        <time>2020-02-21T11:41:18Z</time>
      </trkpt>
      <trkpt lat="38.8965360" lon="1.3007130">
        <ele>108.1</ele>
        <time>2020-02-21T11:41:19Z</time>
      </trkpt>
      <trkpt lat="38.8965220" lon="1.3006480">
        <ele>108.1</ele>
        <time>2020-02-21T11:41:20Z</time>
      </trkpt>
      <trkpt lat="38.8965030" lon="1.3005920">
        <ele>108.1</ele>
        <time>2020-02-21T11:41:21Z</time>
      </trkpt>
      <trkpt lat="38.8964920" lon="1.3005500">
        <ele>108.1</ele>
        <time>2020-02-21T11:41:22Z</time>
      </trkpt>
      <trkpt lat="38.8964810" lon="1.3004770">
        <ele>108.1</ele>
        <time>2020-02-21T11:41:23Z</time>
      </trkpt>
      <trkpt lat="38.8964670" lon="1.3004260">
        <ele>108.1</ele>
        <time>2020-02-21T11:41:24Z</time>
      </trkpt>
      <trkpt lat="38.8964530" lon="1.3003620">
        <ele>108.1</ele>
        <time>2020-02-21T11:41:25Z</time>
      </trkpt>
      <trkpt lat="38.8964410" lon="1.3003100">
        <ele>108.1</ele>
        <time>2020-02-21T11:41:26Z</time>
      </trkpt>
      <trkpt lat="38.8964260" lon="1.3002510">
        <ele>108.1</ele>
        <time>2020-02-21T11:41:27Z</time>
      </trkpt>
      <trkpt lat="38.8964110" lon="1.3001860">
        <ele>108.1</ele>
        <time>2020-02-21T11:41:28Z</time>
      </trkpt>
      <trkpt lat="38.8963980" lon="1.3001000">
        <ele>108.2</ele>
        <time>2020-02-21T11:41:29Z</time>
      </trkpt>
      <trkpt lat="38.8963790" lon="1.3000630">
        <ele>108.3</ele>
        <time>2020-02-21T11:41:30Z</time>
      </trkpt>
      <trkpt lat="38.8963620" lon="1.3000030">
        <ele>108.4</ele>
        <time>2020-02-21T11:41:31Z</time>
      </trkpt>
      <trkpt lat="38.8963540" lon="1.2999390">
        <ele>108.5</ele>
        <time>2020-02-21T11:41:32Z</time>
      </trkpt>
      <trkpt lat="38.8963460" lon="1.2998780">
        <ele>108.7</ele>
        <time>2020-02-21T11:41:33Z</time>
      </trkpt>
      <trkpt lat="38.8963390" lon="1.2998190">
        <ele>108.8</ele>
        <time>2020-02-21T11:41:34Z</time>
      </trkpt>
      <trkpt lat="38.8963320" lon="1.2997650">
        <ele>108.8</ele>
        <time>2020-02-21T11:41:35Z</time>
      </trkpt>
      <trkpt lat="38.8963230" lon="1.2997010">
        <ele>108.9</ele>
        <time>2020-02-21T11:41:36Z</time>
      </trkpt>
      <trkpt lat="38.8963200" lon="1.2996270">
        <ele>108.8</ele>
        <time>2020-02-21T11:41:37Z</time>
      </trkpt>
      <trkpt lat="38.8963180" lon="1.2995680">
        <ele>108.8</ele>
        <time>2020-02-21T11:41:38Z</time>
      </trkpt>
      <trkpt lat="38.8963090" lon="1.2994970">
        <ele>108.6</ele>
        <time>2020-02-21T11:41:39Z</time>
      </trkpt>
      <trkpt lat="38.8962930" lon="1.2994170">
        <ele>108.5</ele>
        <time>2020-02-21T11:41:40Z</time>
      </trkpt>
      <trkpt lat="38.8962860" lon="1.2993470">
        <ele>108.3</ele>
        <time>2020-02-21T11:41:41Z</time>
      </trkpt>
      <trkpt lat="38.8962760" lon="1.2993100">
        <ele>108.3</ele>
        <time>2020-02-21T11:41:42Z</time>
      </trkpt>
      <trkpt lat="38.8962720" lon="1.2992430">
        <ele>108.2</ele>
        <time>2020-02-21T11:41:43Z</time>
      </trkpt>
      <trkpt lat="38.8962670" lon="1.2991910">
        <ele>108.1</ele>
        <time>2020-02-21T11:41:44Z</time>
      </trkpt>
      <trkpt lat="38.8962650" lon="1.2991320">
        <ele>108.1</ele>
        <time>2020-02-21T11:41:45Z</time>
      </trkpt>
      <trkpt lat="38.8962630" lon="1.2990750">
        <ele>108.1</ele>
        <time>2020-02-21T11:41:46Z</time>
      </trkpt>
      <trkpt lat="38.8962560" lon="1.2990240">
        <ele>108.1</ele>
        <time>2020-02-21T11:41:47Z</time>
      </trkpt>
      <trkpt lat="38.8962520" lon="1.2989630">
        <ele>108.1</ele>
        <time>2020-02-21T11:41:48Z</time>
      </trkpt>
      <trkpt lat="38.8962450" lon="1.2988970">
        <ele>108.1</ele>
        <time>2020-02-21T11:41:49Z</time>
      </trkpt>
      <trkpt lat="38.8962370" lon="1.2988460">
        <ele>108.1</ele>
        <time>2020-02-21T11:41:50Z</time>
      </trkpt>
      <trkpt lat="38.8962280" lon="1.2987780">
        <ele>108.1</ele>
        <time>2020-02-21T11:41:51Z</time>
      </trkpt>
      <trkpt lat="38.8962210" lon="1.2987110">
        <ele>108.1</ele>
        <time>2020-02-21T11:41:52Z</time>
      </trkpt>
      <trkpt lat="38.8962120" lon="1.2986510">
        <ele>108.1</ele>
        <time>2020-02-21T11:41:53Z</time>
      </trkpt>
      <trkpt lat="38.8962040" lon="1.2985830">
        <ele>108.1</ele>
        <time>2020-02-21T11:41:54Z</time>
      </trkpt>
      <trkpt lat="38.8961960" lon="1.2985080">
        <ele>108.2</ele>
        <time>2020-02-21T11:41:55Z</time>
      </trkpt>
      <trkpt lat="38.8961870" lon="1.2984420">
        <ele>108.3</ele>
        <time>2020-02-21T11:41:56Z</time>
      </trkpt>
      <trkpt lat="38.8961770" lon="1.2983840">
        <ele>108.5</ele>
        <time>2020-02-21T11:41:57Z</time>
      </trkpt>
      <trkpt lat="38.8961680" lon="1.2983280">
        <ele>108.6</ele>
        <time>2020-02-21T11:41:58Z</time>
      </trkpt>
      <trkpt lat="38.8961640" lon="1.2982810">
        <ele>108.7</ele>
        <time>2020-02-21T11:41:59Z</time>
      </trkpt>
      <trkpt lat="38.8961640" lon="1.2982150">
        <ele>108.8</ele>
        <time>2020-02-21T11:42:00Z</time>
      </trkpt>
      <trkpt lat="38.8961580" lon="1.2981560">
        <ele>108.9</ele>
        <time>2020-02-21T11:42:01Z</time>
      </trkpt>
      <trkpt lat="38.8961520" lon="1.2981080">
        <ele>109.0</ele>
        <time>2020-02-21T11:42:02Z</time>
      </trkpt>
      <trkpt lat="38.8961460" lon="1.2980630">
        <ele>109.0</ele>
        <time>2020-02-21T11:42:03Z</time>
      </trkpt>
      <trkpt lat="38.8961380" lon="1.2980150">
        <ele>109.0</ele>
        <time>2020-02-21T11:42:04Z</time>
      </trkpt>
      <trkpt lat="38.8961310" lon="1.2979570">
        <ele>109.1</ele>
        <time>2020-02-21T11:42:05Z</time>
      </trkpt>
      <trkpt lat="38.8961070" lon="1.2979000">
        <ele>109.2</ele>
        <time>2020-02-21T11:42:06Z</time>
      </trkpt>
      <trkpt lat="38.8960890" lon="1.2978330">
        <ele>109.3</ele>
        <time>2020-02-21T11:42:07Z</time>
      </trkpt>
      <trkpt lat="38.8960850" lon="1.2977750">
        <ele>109.4</ele>
        <time>2020-02-21T11:42:08Z</time>
      </trkpt>
      <trkpt lat="38.8960790" lon="1.2977130">
        <ele>109.5</ele>
        <time>2020-02-21T11:42:09Z</time>
      </trkpt>
      <trkpt lat="38.8960700" lon="1.2976560">
        <ele>109.6</ele>
        <time>2020-02-21T11:42:10Z</time>
      </trkpt>
      <trkpt lat="38.8960600" lon="1.2975930">
        <ele>109.7</ele>
        <time>2020-02-21T11:42:11Z</time>
      </trkpt>
      <trkpt lat="38.8960570" lon="1.2975640">
        <ele>109.7</ele>
        <time>2020-02-21T11:42:12Z</time>
      </trkpt>
      <trkpt lat="38.8960470" lon="1.2975110">
        <ele>109.8</ele>
        <time>2020-02-21T11:42:13Z</time>
      </trkpt>
      <trkpt lat="38.8960400" lon="1.2974730">
        <ele>109.9</ele>
        <time>2020-02-21T11:42:14Z</time>
      </trkpt>
      <trkpt lat="38.8960370" lon="1.2974280">
        <ele>110.0</ele>
        <time>2020-02-21T11:42:15Z</time>
      </trkpt>
      <trkpt lat="38.8960150" lon="1.2973670">
        <ele>110.1</ele>
        <time>2020-02-21T11:42:16Z</time>
      </trkpt>
      <trkpt lat="38.8960160" lon="1.2973190">
        <ele>110.1</ele>
        <time>2020-02-21T11:42:17Z</time>
      </trkpt>
      <trkpt lat="38.8960100" lon="1.2972960">
        <ele>110.2</ele>
        <time>2020-02-21T11:42:18Z</time>
      </trkpt>
      <trkpt lat="38.8959960" lon="1.2972580">
        <ele>110.3</ele>
        <time>2020-02-21T11:42:19Z</time>
      </trkpt>
      <trkpt lat="38.8959830" lon="1.2972190">
        <ele>110.3</ele>
        <time>2020-02-21T11:42:20Z</time>
      </trkpt>
      <trkpt lat="38.8959650" lon="1.2971590">
        <ele>110.4</ele>
        <time>2020-02-21T11:42:21Z</time>
      </trkpt>
      <trkpt lat="38.8959530" lon="1.2971030">
        <ele>110.5</ele>
        <time>2020-02-21T11:42:22Z</time>
      </trkpt>
      <trkpt lat="38.8959500" lon="1.2970570">
        <ele>110.6</ele>
        <time>2020-02-21T11:42:23Z</time>
      </trkpt>
      <trkpt lat="38.8959360" lon="1.2970110">
        <ele>110.7</ele>
        <time>2020-02-21T11:42:24Z</time>
      </trkpt>
      <trkpt lat="38.8959280" lon="1.2969680">
        <ele>110.7</ele>
        <time>2020-02-21T11:42:25Z</time>
      </trkpt>
      <trkpt lat="38.8959220" lon="1.2969020">
        <ele>110.8</ele>
        <time>2020-02-21T11:42:26Z</time>
      </trkpt>
      <trkpt lat="38.8959190" lon="1.2968510">
        <ele>110.9</ele>
        <time>2020-02-21T11:42:27Z</time>
      </trkpt>
      <trkpt lat="38.8959150" lon="1.2968110">
        <ele>110.9</ele>
        <time>2020-02-21T11:42:28Z</time>
      </trkpt>
      <trkpt lat="38.8959050" lon="1.2967670">
        <ele>111.0</ele>
        <time>2020-02-21T11:42:29Z</time>
      </trkpt>
      <trkpt lat="38.8958930" lon="1.2967040">
        <ele>111.1</ele>
        <time>2020-02-21T11:42:30Z</time>
      </trkpt>
      <trkpt lat="38.8958860" lon="1.2966670">
        <ele>111.1</ele>
        <time>2020-02-21T11:42:31Z</time>
      </trkpt>
      <trkpt lat="38.8958770" lon="1.2966240">
        <ele>111.2</ele>
        <time>2020-02-21T11:42:32Z</time>
      </trkpt>
      <trkpt lat="38.8958680" lon="1.2965720">
        <ele>111.2</ele>
        <time>2020-02-21T11:42:33Z</time>
      </trkpt>
      <trkpt lat="38.8958650" lon="1.2965300">
        <ele>111.3</ele>
        <time>2020-02-21T11:42:34Z</time>
      </trkpt>
      <trkpt lat="38.8958700" lon="1.2964660">
        <ele>111.4</ele>
        <time>2020-02-21T11:42:35Z</time>
      </trkpt>
      <trkpt lat="38.8958730" lon="1.2964050">
        <ele>111.5</ele>
        <time>2020-02-21T11:42:36Z</time>
      </trkpt>
      <trkpt lat="38.8958760" lon="1.2963470">
        <ele>111.6</ele>
        <time>2020-02-21T11:42:37Z</time>
      </trkpt>
      <trkpt lat="38.8958800" lon="1.2962980">
        <ele>111.7</ele>
        <time>2020-02-21T11:42:38Z</time>
      </trkpt>
      <trkpt lat="38.8958960" lon="1.2962550">
        <ele>111.8</ele>
        <time>2020-02-21T11:42:39Z</time>
      </trkpt>
      <trkpt lat="38.8959030" lon="1.2962340">
        <ele>111.8</ele>
        <time>2020-02-21T11:42:40Z</time>
      </trkpt>
      <trkpt lat="38.8958880" lon="1.2962210">
        <ele>111.8</ele>
        <time>2020-02-21T11:42:41Z</time>
      </trkpt>
      <trkpt lat="38.8958730" lon="1.2962270">
        <ele>111.9</ele>
        <time>2020-02-21T11:42:42Z</time>
      </trkpt>
      <trkpt lat="38.8958510" lon="1.2962450">
        <ele>111.9</ele>
        <time>2020-02-21T11:42:43Z</time>
      </trkpt>
      <trkpt lat="38.8958380" lon="1.2962450">
        <ele>112.0</ele>
        <time>2020-02-21T11:42:44Z</time>
      </trkpt>
      <trkpt lat="38.8958090" lon="1.2962220">
        <ele>112.2</ele>
        <time>2020-02-21T11:42:45Z</time>
      </trkpt>
      <trkpt lat="38.8957820" lon="1.2962180">
        <ele>112.2</ele>
        <time>2020-02-21T11:42:46Z</time>
      </trkpt>
      <trkpt lat="38.8957490" lon="1.2961970">
        <ele>112.3</ele>
        <time>2020-02-21T11:42:47Z</time>
      </trkpt>
      <trkpt lat="38.8957190" lon="1.2961490">
        <ele>112.4</ele>
        <time>2020-02-21T11:42:48Z</time>
      </trkpt>
      <trkpt lat="38.8957010" lon="1.2961070">
        <ele>112.4</ele>
        <time>2020-02-21T11:42:49Z</time>
      </trkpt>
      <trkpt lat="38.8956880" lon="1.2960720">
        <ele>112.5</ele>
        <time>2020-02-21T11:42:50Z</time>
      </trkpt>
      <trkpt lat="38.8956670" lon="1.2960340">
        <ele>112.5</ele>
        <time>2020-02-21T11:42:51Z</time>
      </trkpt>
      <trkpt lat="38.8956500" lon="1.2959930">
        <ele>112.6</ele>
        <time>2020-02-21T11:42:52Z</time>
      </trkpt>
      <trkpt lat="38.8956070" lon="1.2959550">
        <ele>112.7</ele>
        <time>2020-02-21T11:42:53Z</time>
      </trkpt>
      <trkpt lat="38.8955800" lon="1.2959180">
        <ele>112.7</ele>
        <time>2020-02-21T11:42:54Z</time>
      </trkpt>
      <trkpt lat="38.8955470" lon="1.2958780">
        <ele>112.7</ele>
        <time>2020-02-21T11:42:55Z</time>
      </trkpt>
      <trkpt lat="38.8955160" lon="1.2958320">
        <ele>112.7</ele>
        <time>2020-02-21T11:42:56Z</time>
      </trkpt>
      <trkpt lat="38.8954860" lon="1.2957850">
        <ele>112.8</ele>
        <time>2020-02-21T11:42:57Z</time>
      </trkpt>
      <trkpt lat="38.8954550" lon="1.2957180">
        <ele>112.7</ele>
        <time>2020-02-21T11:42:58Z</time>
      </trkpt>
      <trkpt lat="38.8954260" lon="1.2956460">
        <ele>112.7</ele>
        <time>2020-02-21T11:42:59Z</time>
      </trkpt>
      <trkpt lat="38.8954050" lon="1.2955900">
        <ele>112.7</ele>
        <time>2020-02-21T11:43:00Z</time>
      </trkpt>
      <trkpt lat="38.8953840" lon="1.2955360">
        <ele>112.6</ele>
        <time>2020-02-21T11:43:01Z</time>
      </trkpt>
      <trkpt lat="38.8953670" lon="1.2954790">
        <ele>112.5</ele>
        <time>2020-02-21T11:43:02Z</time>
      </trkpt>
      <trkpt lat="38.8953440" lon="1.2954200">
        <ele>112.5</ele>
        <time>2020-02-21T11:43:03Z</time>
      </trkpt>
      <trkpt lat="38.8953220" lon="1.2953670">
        <ele>112.4</ele>
        <time>2020-02-21T11:43:04Z</time>
      </trkpt>
      <trkpt lat="38.8953070" lon="1.2953260">
        <ele>112.4</ele>
        <time>2020-02-21T11:43:05Z</time>
      </trkpt>
      <trkpt lat="38.8952930" lon="1.2952900">
        <ele>112.3</ele>
        <time>2020-02-21T11:43:06Z</time>
      </trkpt>
      <trkpt lat="38.8952860" lon="1.2952560">
        <ele>112.3</ele>
        <time>2020-02-21T11:43:07Z</time>
      </trkpt>
      <trkpt lat="38.8952710" lon="1.2952020">
        <ele>112.2</ele>
        <time>2020-02-21T11:43:08Z</time>
      </trkpt>
      <trkpt lat="38.8952580" lon="1.2951540">
        <ele>112.2</ele>
        <time>2020-02-21T11:43:09Z</time>
      </trkpt>
      <trkpt lat="38.8952410" lon="1.2950930">
        <ele>112.1</ele>
        <time>2020-02-21T11:43:10Z</time>
      </trkpt>
      <trkpt lat="38.8952280" lon="1.2950440">
        <ele>112.1</ele>
        <time>2020-02-21T11:43:11Z</time>
      </trkpt>
      <trkpt lat="38.8952130" lon="1.2949890">
        <ele>112.0</ele>
        <time>2020-02-21T11:43:12Z</time>
      </trkpt>
      <trkpt lat="38.8952000" lon="1.2949300">
        <ele>112.0</ele>
        <time>2020-02-21T11:43:13Z</time>
      </trkpt>
      <trkpt lat="38.8951880" lon="1.2948990">
        <ele>112.0</ele>
        <time>2020-02-21T11:43:14Z</time>
      </trkpt>
      <trkpt lat="38.8951820" lon="1.2948400">
        <ele>112.0</ele>
        <time>2020-02-21T11:43:15Z</time>
      </trkpt>
      <trkpt lat="38.8951710" lon="1.2947800">
        <ele>112.0</ele>
        <time>2020-02-21T11:43:16Z</time>
      </trkpt>
      <trkpt lat="38.8951650" lon="1.2947150">
        <ele>112.0</ele>
        <time>2020-02-21T11:43:17Z</time>
      </trkpt>
      <trkpt lat="38.8951500" lon="1.2946660">
        <ele>112.0</ele>
        <time>2020-02-21T11:43:18Z</time>
      </trkpt>
      <trkpt lat="38.8951370" lon="1.2946070">
        <ele>112.0</ele>
        <time>2020-02-21T11:43:19Z</time>
      </trkpt>
      <trkpt lat="38.8951220" lon="1.2945520">
        <ele>112.0</ele>
        <time>2020-02-21T11:43:20Z</time>
      </trkpt>
      <trkpt lat="38.8951120" lon="1.2944930">
        <ele>112.0</ele>
        <time>2020-02-21T11:43:21Z</time>
      </trkpt>
      <trkpt lat="38.8951050" lon="1.2944300">
        <ele>112.0</ele>
        <time>2020-02-21T11:43:22Z</time>
      </trkpt>
      <trkpt lat="38.8951050" lon="1.2943690">
        <ele>112.0</ele>
        <time>2020-02-21T11:43:23Z</time>
      </trkpt>
      <trkpt lat="38.8951120" lon="1.2943220">
        <ele>112.1</ele>
        <time>2020-02-21T11:43:24Z</time>
      </trkpt>
      <trkpt lat="38.8951240" lon="1.2942790">
        <ele>112.1</ele>
        <time>2020-02-21T11:43:25Z</time>
      </trkpt>
      <trkpt lat="38.8951300" lon="1.2942420">
        <ele>112.1</ele>
        <time>2020-02-21T11:43:26Z</time>
      </trkpt>
      <trkpt lat="38.8951420" lon="1.2941830">
        <ele>112.1</ele>
        <time>2020-02-21T11:43:27Z</time>
      </trkpt>
      <trkpt lat="38.8951520" lon="1.2941250">
        <ele>112.2</ele>
        <time>2020-02-21T11:43:28Z</time>
      </trkpt>
      <trkpt lat="38.8951630" lon="1.2940790">
        <ele>112.2</ele>
        <time>2020-02-21T11:43:29Z</time>
      </trkpt>
      <trkpt lat="38.8951740" lon="1.2940290">
        <ele>112.3</ele>
        <time>2020-02-21T11:43:30Z</time>
      </trkpt>
      <trkpt lat="38.8951840" lon="1.2939780">
        <ele>112.3</ele>
        <time>2020-02-21T11:43:31Z</time>
      </trkpt>
      <trkpt lat="38.8951900" lon="1.2939320">
        <ele>112.4</ele>
        <time>2020-02-21T11:43:32Z</time>
      </trkpt>
      <trkpt lat="38.8951950" lon="1.2938880">
        <ele>112.4</ele>
        <time>2020-02-21T11:43:33Z</time>
      </trkpt>
      <trkpt lat="38.8952090" lon="1.2938490">
        <ele>112.5</ele>
        <time>2020-02-21T11:43:34Z</time>
      </trkpt>
      <trkpt lat="38.8952160" lon="1.2938020">
        <ele>112.5</ele>
        <time>2020-02-21T11:43:35Z</time>
      </trkpt>
      <trkpt lat="38.8952210" lon="1.2937650">
        <ele>112.6</ele>
        <time>2020-02-21T11:43:36Z</time>
      </trkpt>
      <trkpt lat="38.8952240" lon="1.2936950">
        <ele>112.6</ele>
        <time>2020-02-21T11:43:37Z</time>
      </trkpt>
      <trkpt lat="38.8952200" lon="1.2936530">
        <ele>112.6</ele>
        <time>2020-02-21T11:43:38Z</time>
      </trkpt>
      <trkpt lat="38.8952240" lon="1.2936050">
        <ele>112.7</ele>
        <time>2020-02-21T11:43:39Z</time>
      </trkpt>
      <trkpt lat="38.8952390" lon="1.2935540">
        <ele>112.7</ele>
        <time>2020-02-21T11:43:40Z</time>
      </trkpt>
      <trkpt lat="38.8952400" lon="1.2934910">
        <ele>112.8</ele>
        <time>2020-02-21T11:43:41Z</time>
      </trkpt>
      <trkpt lat="38.8952340" lon="1.2934340">
        <ele>112.8</ele>
        <time>2020-02-21T11:43:42Z</time>
      </trkpt>
      <trkpt lat="38.8952340" lon="1.2933950">
        <ele>112.8</ele>
        <time>2020-02-21T11:43:43Z</time>
      </trkpt>
      <trkpt lat="38.8952310" lon="1.2933410">
        <ele>112.8</ele>
        <time>2020-02-21T11:43:44Z</time>
      </trkpt>
      <trkpt lat="38.8952070" lon="1.2932820">
        <ele>112.9</ele>
        <time>2020-02-21T11:43:45Z</time>
      </trkpt>
      <trkpt lat="38.8951780" lon="1.2932200">
        <ele>112.9</ele>
        <time>2020-02-21T11:43:46Z</time>
      </trkpt>
      <trkpt lat="38.8951470" lon="1.2931690">
        <ele>112.9</ele>
        <time>2020-02-21T11:43:47Z</time>
      </trkpt>
      <trkpt lat="38.8951230" lon="1.2931360">
        <ele>112.9</ele>
        <time>2020-02-21T11:43:48Z</time>
      </trkpt>
      <trkpt lat="38.8950950" lon="1.2930700">
        <ele>112.9</ele>
        <time>2020-02-21T11:43:49Z</time>
      </trkpt>
      <trkpt lat="38.8950640" lon="1.2930090">
        <ele>112.9</ele>
        <time>2020-02-21T11:43:50Z</time>
      </trkpt>
      <trkpt lat="38.8950350" lon="1.2929440">
        <ele>112.9</ele>
        <time>2020-02-21T11:43:51Z</time>
      </trkpt>
      <trkpt lat="38.8950060" lon="1.2928810">
        <ele>112.9</ele>
        <time>2020-02-21T11:43:52Z</time>
      </trkpt>
      <trkpt lat="38.8949640" lon="1.2928230">
        <ele>112.9</ele>
        <time>2020-02-21T11:43:53Z</time>
      </trkpt>
      <trkpt lat="38.8949110" lon="1.2927700">
        <ele>112.9</ele>
        <time>2020-02-21T11:43:54Z</time>
      </trkpt>
      <trkpt lat="38.8948630" lon="1.2927430">
        <ele>112.9</ele>
        <time>2020-02-21T11:43:55Z</time>
      </trkpt>
      <trkpt lat="38.8948180" lon="1.2927140">
        <ele>112.9</ele>
        <time>2020-02-21T11:43:56Z</time>
      </trkpt>
      <trkpt lat="38.8947790" lon="1.2926870">
        <ele>112.9</ele>
        <time>2020-02-21T11:43:57Z</time>
      </trkpt>
      <trkpt lat="38.8947550" lon="1.2926690">
        <ele>112.9</ele>
        <time>2020-02-21T11:43:58Z</time>
      </trkpt>
      <trkpt lat="38.8947190" lon="1.2926390">
        <ele>112.9</ele>
        <time>2020-02-21T11:43:59Z</time>
      </trkpt>
      <trkpt lat="38.8946800" lon="1.2926150">
        <ele>112.9</ele>
        <time>2020-02-21T11:44:00Z</time>
      </trkpt>
      <trkpt lat="38.8946500" lon="1.2925940">
        <ele>112.9</ele>
        <time>2020-02-21T11:44:01Z</time>
      </trkpt>
      <trkpt lat="38.8946210" lon="1.2925680">
        <ele>112.9</ele>
        <time>2020-02-21T11:44:02Z</time>
      </trkpt>
      <trkpt lat="38.8946090" lon="1.2925610">
        <ele>113.0</ele>
        <time>2020-02-21T11:44:03Z</time>
      </trkpt>
      <trkpt lat="38.8945880" lon="1.2925220">
        <ele>113.3</ele>
        <time>2020-02-21T11:44:04Z</time>
      </trkpt>
      <trkpt lat="38.8945840" lon="1.2925030">
        <ele>113.4</ele>
        <time>2020-02-21T11:44:05Z</time>
      </trkpt>
      <trkpt lat="38.8945860" lon="1.2924660">
        <ele>113.6</ele>
        <time>2020-02-21T11:44:06Z</time>
      </trkpt>
      <trkpt lat="38.8945900" lon="1.2924050">
        <ele>113.9</ele>
        <time>2020-02-21T11:44:07Z</time>
      </trkpt>
      <trkpt lat="38.8945930" lon="1.2923600">
        <ele>114.2</ele>
        <time>2020-02-21T11:44:08Z</time>
      </trkpt>
      <trkpt lat="38.8945960" lon="1.2923140">
        <ele>114.6</ele>
        <time>2020-02-21T11:44:09Z</time>
      </trkpt>
      <trkpt lat="38.8946000" lon="1.2922910">
        <ele>114.7</ele>
        <time>2020-02-21T11:44:10Z</time>
      </trkpt>
      <trkpt lat="38.8945990" lon="1.2922410">
        <ele>114.9</ele>
        <time>2020-02-21T11:44:11Z</time>
      </trkpt>
      <trkpt lat="38.8945970" lon="1.2922210">
        <ele>115.0</ele>
        <time>2020-02-21T11:44:12Z</time>
      </trkpt>
      <trkpt lat="38.8945930" lon="1.2921810">
        <ele>115.1</ele>
        <time>2020-02-21T11:44:13Z</time>
      </trkpt>
      <trkpt lat="38.8945900" lon="1.2921310">
        <ele>115.4</ele>
        <time>2020-02-21T11:44:14Z</time>
      </trkpt>
      <trkpt lat="38.8945910" lon="1.2921080">
        <ele>115.5</ele>
        <time>2020-02-21T11:44:15Z</time>
      </trkpt>
      <trkpt lat="38.8945870" lon="1.2920730">
        <ele>115.6</ele>
        <time>2020-02-21T11:44:16Z</time>
      </trkpt>
      <trkpt lat="38.8945820" lon="1.2920260">
        <ele>115.8</ele>
        <time>2020-02-21T11:44:17Z</time>
      </trkpt>
      <trkpt lat="38.8945770" lon="1.2920100">
        <ele>115.8</ele>
        <time>2020-02-21T11:44:18Z</time>
      </trkpt>
      <trkpt lat="38.8945570" lon="1.2919680">
        <ele>116.0</ele>
        <time>2020-02-21T11:44:19Z</time>
      </trkpt>
      <trkpt lat="38.8945480" lon="1.2919560">
        <ele>116.1</ele>
        <time>2020-02-21T11:44:20Z</time>
      </trkpt>
      <trkpt lat="38.8945330" lon="1.2919420">
        <ele>116.2</ele>
        <time>2020-02-21T11:44:21Z</time>
      </trkpt>
      <trkpt lat="38.8945280" lon="1.2919180">
        <ele>116.2</ele>
        <time>2020-02-21T11:44:22Z</time>
      </trkpt>
      <trkpt lat="38.8945240" lon="1.2918990">
        <ele>116.3</ele>
        <time>2020-02-21T11:44:23Z</time>
      </trkpt>
      <trkpt lat="38.8945200" lon="1.2918790">
        <ele>116.4</ele>
        <time>2020-02-21T11:44:24Z</time>
      </trkpt>
      <trkpt lat="38.8945180" lon="1.2918330">
        <ele>116.5</ele>
        <time>2020-02-21T11:44:25Z</time>
      </trkpt>
      <trkpt lat="38.8945180" lon="1.2918110">
        <ele>116.5</ele>
        <time>2020-02-21T11:44:26Z</time>
      </trkpt>
      <trkpt lat="38.8945030" lon="1.2917650">
        <ele>116.7</ele>
        <time>2020-02-21T11:44:27Z</time>
      </trkpt>
      <trkpt lat="38.8944980" lon="1.2917470">
        <ele>116.7</ele>
        <time>2020-02-21T11:44:28Z</time>
      </trkpt>
      <trkpt lat="38.8944960" lon="1.2917090">
        <ele>116.7</ele>
        <time>2020-02-21T11:44:29Z</time>
      </trkpt>
      <trkpt lat="38.8944900" lon="1.2916720">
        <ele>116.8</ele>
        <time>2020-02-21T11:44:30Z</time>
      </trkpt>
      <trkpt lat="38.8944850" lon="1.2916390">
        <ele>116.9</ele>
        <time>2020-02-21T11:44:31Z</time>
      </trkpt>
      <trkpt lat="38.8944810" lon="1.2916290">
        <ele>116.9</ele>
        <time>2020-02-21T11:44:32Z</time>
      </trkpt>
      <trkpt lat="38.8944770" lon="1.2915890">
        <ele>116.9</ele>
        <time>2020-02-21T11:44:33Z</time>
      </trkpt>
      <trkpt lat="38.8944750" lon="1.2915730">
        <ele>117.0</ele>
        <time>2020-02-21T11:44:34Z</time>
      </trkpt>
      <trkpt lat="38.8944730" lon="1.2915300">
        <ele>117.0</ele>
        <time>2020-02-21T11:44:35Z</time>
      </trkpt>
      <trkpt lat="38.8944710" lon="1.2915160">
        <ele>117.0</ele>
        <time>2020-02-21T11:44:36Z</time>
      </trkpt>
      <trkpt lat="38.8944610" lon="1.2914830">
        <ele>116.9</ele>
        <time>2020-02-21T11:44:37Z</time>
      </trkpt>
      <trkpt lat="38.8944470" lon="1.2914380">
        <ele>116.9</ele>
        <time>2020-02-21T11:44:38Z</time>
      </trkpt>
      <trkpt lat="38.8944400" lon="1.2914220">
        <ele>116.9</ele>
        <time>2020-02-21T11:44:39Z</time>
      </trkpt>
      <trkpt lat="38.8944270" lon="1.2913870">
        <ele>116.8</ele>
        <time>2020-02-21T11:44:40Z</time>
      </trkpt>
      <trkpt lat="38.8944110" lon="1.2913440">
        <ele>116.8</ele>
        <time>2020-02-21T11:44:41Z</time>
      </trkpt>
      <trkpt lat="38.8944090" lon="1.2913280">
        <ele>116.8</ele>
        <time>2020-02-21T11:44:42Z</time>
      </trkpt>
      <trkpt lat="38.8944040" lon="1.2912920">
        <ele>116.7</ele>
        <time>2020-02-21T11:44:43Z</time>
      </trkpt>
      <trkpt lat="38.8943830" lon="1.2912600">
        <ele>116.6</ele>
        <time>2020-02-21T11:44:44Z</time>
      </trkpt>
      <trkpt lat="38.8943550" lon="1.2912240">
        <ele>116.5</ele>
        <time>2020-02-21T11:44:45Z</time>
      </trkpt>
      <trkpt lat="38.8943310" lon="1.2911820">
        <ele>116.3</ele>
        <time>2020-02-21T11:44:46Z</time>
      </trkpt>
      <trkpt lat="38.8943030" lon="1.2911330">
        <ele>116.1</ele>
        <time>2020-02-21T11:44:47Z</time>
      </trkpt>
      <trkpt lat="38.8942780" lon="1.2910930">
        <ele>115.9</ele>
        <time>2020-02-21T11:44:48Z</time>
      </trkpt>
      <trkpt lat="38.8942480" lon="1.2910560">
        <ele>115.7</ele>
        <time>2020-02-21T11:44:49Z</time>
      </trkpt>
      <trkpt lat="38.8942230" lon="1.2910190">
        <ele>115.5</ele>
        <time>2020-02-21T11:44:50Z</time>
      </trkpt>
      <trkpt lat="38.8941900" lon="1.2909720">
        <ele>115.3</ele>
        <time>2020-02-21T11:44:51Z</time>
      </trkpt>
      <trkpt lat="38.8941590" lon="1.2909200">
        <ele>115.0</ele>
        <time>2020-02-21T11:44:52Z</time>
      </trkpt>
      <trkpt lat="38.8941340" lon="1.2908630">
        <ele>114.7</ele>
        <time>2020-02-21T11:44:53Z</time>
      </trkpt>
      <trkpt lat="38.8941150" lon="1.2908050">
        <ele>114.4</ele>
        <time>2020-02-21T11:44:54Z</time>
      </trkpt>
      <trkpt lat="38.8941050" lon="1.2907410">
        <ele>114.2</ele>
        <time>2020-02-21T11:44:55Z</time>
      </trkpt>
      <trkpt lat="38.8940940" lon="1.2906730">
        <ele>113.9</ele>
        <time>2020-02-21T11:44:56Z</time>
      </trkpt>
      <trkpt lat="38.8940940" lon="1.2906030">
        <ele>113.7</ele>
        <time>2020-02-21T11:44:57Z</time>
      </trkpt>
      <trkpt lat="38.8940880" lon="1.2905200">
        <ele>113.5</ele>
        <time>2020-02-21T11:44:58Z</time>
      </trkpt>
      <trkpt lat="38.8940980" lon="1.2904490">
        <ele>113.3</ele>
        <time>2020-02-21T11:44:59Z</time>
      </trkpt>
      <trkpt lat="38.8941190" lon="1.2903800">
        <ele>113.0</ele>
        <time>2020-02-21T11:45:00Z</time>
      </trkpt>
      <trkpt lat="38.8941470" lon="1.2903220">
        <ele>112.9</ele>
        <time>2020-02-21T11:45:01Z</time>
      </trkpt>
      <trkpt lat="38.8941740" lon="1.2902640">
        <ele>112.9</ele>
        <time>2020-02-21T11:45:02Z</time>
      </trkpt>
      <trkpt lat="38.8941960" lon="1.2902140">
        <ele>112.9</ele>
        <time>2020-02-21T11:45:03Z</time>
      </trkpt>
      <trkpt lat="38.8942070" lon="1.2901760">
        <ele>112.8</ele>
        <time>2020-02-21T11:45:04Z</time>
      </trkpt>
      <trkpt lat="38.8942180" lon="1.2901400">
        <ele>112.8</ele>
        <time>2020-02-21T11:45:05Z</time>
      </trkpt>
      <trkpt lat="38.8942360" lon="1.2900940">
        <ele>112.7</ele>
        <time>2020-02-21T11:45:06Z</time>
      </trkpt>
      <trkpt lat="38.8942410" lon="1.2900770">
        <ele>112.6</ele>
        <time>2020-02-21T11:45:07Z</time>
      </trkpt>
      <trkpt lat="38.8942520" lon="1.2900400">
        <ele>112.6</ele>
        <time>2020-02-21T11:45:08Z</time>
      </trkpt>
      <trkpt lat="38.8942690" lon="1.2899960">
        <ele>112.5</ele>
        <time>2020-02-21T11:45:09Z</time>
      </trkpt>
      <trkpt lat="38.8942780" lon="1.2899560">
        <ele>112.4</ele>
        <time>2020-02-21T11:45:10Z</time>
      </trkpt>
      <trkpt lat="38.8942850" lon="1.2899160">
        <ele>112.3</ele>
        <time>2020-02-21T11:45:11Z</time>
      </trkpt>
      <trkpt lat="38.8942860" lon="1.2899060">
        <ele>112.2</ele>
        <time>2020-02-21T11:45:12Z</time>
      </trkpt>
      <trkpt lat="38.8942990" lon="1.2898700">
        <ele>112.1</ele>
        <time>2020-02-21T11:45:13Z</time>
      </trkpt>
      <trkpt lat="38.8943020" lon="1.2898630">
        <ele>112.1</ele>
        <time>2020-02-21T11:45:14Z</time>
      </trkpt>
      <trkpt lat="38.8943100" lon="1.2898480">
        <ele>112.1</ele>
        <time>2020-02-21T11:45:15Z</time>
      </trkpt>
      <trkpt lat="38.8943240" lon="1.2898280">
        <ele>112.0</ele>
        <time>2020-02-21T11:45:16Z</time>
      </trkpt>
      <trkpt lat="38.8943360" lon="1.2898220">
        <ele>112.0</ele>
        <time>2020-02-21T11:45:17Z</time>
      </trkpt>
      <trkpt lat="38.8943450" lon="1.2897910">
        <ele>111.9</ele>
        <time>2020-02-21T11:45:18Z</time>
      </trkpt>
      <trkpt lat="38.8943560" lon="1.2897580">
        <ele>111.7</ele>
        <time>2020-02-21T11:45:19Z</time>
      </trkpt>
      <trkpt lat="38.8943710" lon="1.2897240">
        <ele>111.6</ele>
        <time>2020-02-21T11:45:20Z</time>
      </trkpt>
      <trkpt lat="38.8943940" lon="1.2896910">
        <ele>111.4</ele>
        <time>2020-02-21T11:45:21Z</time>
      </trkpt>
      <trkpt lat="38.8944180" lon="1.2896560">
        <ele>111.3</ele>
        <time>2020-02-21T11:45:22Z</time>
      </trkpt>
      <trkpt lat="38.8944540" lon="1.2896340">
        <ele>111.1</ele>
        <time>2020-02-21T11:45:23Z</time>
      </trkpt>
      <trkpt lat="38.8944790" lon="1.2896090">
        <ele>110.9</ele>
        <time>2020-02-21T11:45:24Z</time>
      </trkpt>
      <trkpt lat="38.8945030" lon="1.2895670">
        <ele>110.8</ele>
        <time>2020-02-21T11:45:25Z</time>
      </trkpt>
      <trkpt lat="38.8945360" lon="1.2895360">
        <ele>110.6</ele>
        <time>2020-02-21T11:45:26Z</time>
      </trkpt>
      <trkpt lat="38.8945610" lon="1.2895010">
        <ele>110.5</ele>
        <time>2020-02-21T11:45:27Z</time>
      </trkpt>
      <trkpt lat="38.8946030" lon="1.2894580">
        <ele>110.3</ele>
        <time>2020-02-21T11:45:28Z</time>
      </trkpt>
      <trkpt lat="38.8946440" lon="1.2894120">
        <ele>110.2</ele>
        <time>2020-02-21T11:45:29Z</time>
      </trkpt>
      <trkpt lat="38.8946790" lon="1.2893630">
        <ele>110.0</ele>
        <time>2020-02-21T11:45:30Z</time>
      </trkpt>
      <trkpt lat="38.8947100" lon="1.2893110">
        <ele>109.8</ele>
        <time>2020-02-21T11:45:31Z</time>
      </trkpt>
      <trkpt lat="38.8947420" lon="1.2892670">
        <ele>109.6</ele>
        <time>2020-02-21T11:45:32Z</time>
      </trkpt>
      <trkpt lat="38.8947740" lon="1.2892240">
        <ele>109.5</ele>
        <time>2020-02-21T11:45:33Z</time>
      </trkpt>
      <trkpt lat="38.8948070" lon="1.2891790">
        <ele>109.2</ele>
        <time>2020-02-21T11:45:34Z</time>
      </trkpt>
      <trkpt lat="38.8948390" lon="1.2891240">
        <ele>109.0</ele>
        <time>2020-02-21T11:45:35Z</time>
      </trkpt>
      <trkpt lat="38.8948710" lon="1.2890630">
        <ele>108.7</ele>
        <time>2020-02-21T11:45:36Z</time>
      </trkpt>
      <trkpt lat="38.8949000" lon="1.2890110">
        <ele>108.4</ele>
        <time>2020-02-21T11:45:37Z</time>
      </trkpt>
      <trkpt lat="38.8949300" lon="1.2889570">
        <ele>108.1</ele>
        <time>2020-02-21T11:45:38Z</time>
      </trkpt>
      <trkpt lat="38.8949510" lon="1.2888830">
        <ele>107.9</ele>
        <time>2020-02-21T11:45:39Z</time>
      </trkpt>
      <trkpt lat="38.8949700" lon="1.2888120">
        <ele>107.7</ele>
        <time>2020-02-21T11:45:40Z</time>
      </trkpt>
      <trkpt lat="38.8949740" lon="1.2887390">
        <ele>107.5</ele>
        <time>2020-02-21T11:45:41Z</time>
      </trkpt>
      <trkpt lat="38.8949810" lon="1.2886780">
        <ele>107.3</ele>
        <time>2020-02-21T11:45:42Z</time>
      </trkpt>
      <trkpt lat="38.8949970" lon="1.2886210">
        <ele>107.1</ele>
        <time>2020-02-21T11:45:43Z</time>
      </trkpt>
      <trkpt lat="38.8950310" lon="1.2885760">
        <ele>106.9</ele>
        <time>2020-02-21T11:45:44Z</time>
      </trkpt>
      <trkpt lat="38.8950600" lon="1.2885350">
        <ele>106.8</ele>
        <time>2020-02-21T11:45:45Z</time>
      </trkpt>
      <trkpt lat="38.8950850" lon="1.2884850">
        <ele>106.6</ele>
        <time>2020-02-21T11:45:46Z</time>
      </trkpt>
      <trkpt lat="38.8951120" lon="1.2884330">
        <ele>106.5</ele>
        <time>2020-02-21T11:45:47Z</time>
      </trkpt>
      <trkpt lat="38.8951370" lon="1.2883780">
        <ele>106.4</ele>
        <time>2020-02-21T11:45:48Z</time>
      </trkpt>
      <trkpt lat="38.8951610" lon="1.2883300">
        <ele>106.2</ele>
        <time>2020-02-21T11:45:49Z</time>
      </trkpt>
      <trkpt lat="38.8951750" lon="1.2882770">
        <ele>106.1</ele>
        <time>2020-02-21T11:45:50Z</time>
      </trkpt>
      <trkpt lat="38.8951800" lon="1.2882230">
        <ele>106.0</ele>
        <time>2020-02-21T11:45:51Z</time>
      </trkpt>
      <trkpt lat="38.8951480" lon="1.2881750">
        <ele>105.8</ele>
        <time>2020-02-21T11:45:52Z</time>
      </trkpt>
      <trkpt lat="38.8951060" lon="1.2881540">
        <ele>105.6</ele>
        <time>2020-02-21T11:45:53Z</time>
      </trkpt>
      <trkpt lat="38.8950670" lon="1.2881550">
        <ele>105.4</ele>
        <time>2020-02-21T11:45:54Z</time>
      </trkpt>
      <trkpt lat="38.8950280" lon="1.2881480">
        <ele>105.2</ele>
        <time>2020-02-21T11:45:55Z</time>
      </trkpt>
      <trkpt lat="38.8949940" lon="1.2881280">
        <ele>105.0</ele>
        <time>2020-02-21T11:45:56Z</time>
      </trkpt>
      <trkpt lat="38.8949600" lon="1.2881090">
        <ele>104.7</ele>
        <time>2020-02-21T11:45:57Z</time>
      </trkpt>
      <trkpt lat="38.8949250" lon="1.2880990">
        <ele>104.5</ele>
        <time>2020-02-21T11:45:58Z</time>
      </trkpt>
      <trkpt lat="38.8948870" lon="1.2880820">
        <ele>104.1</ele>
        <time>2020-02-21T11:45:59Z</time>
      </trkpt>
      <trkpt lat="38.8948590" lon="1.2880520">
        <ele>103.8</ele>
        <time>2020-02-21T11:46:00Z</time>
      </trkpt>
      <trkpt lat="38.8948470" lon="1.2880050">
        <ele>103.5</ele>
        <time>2020-02-21T11:46:01Z</time>
      </trkpt>
      <trkpt lat="38.8948390" lon="1.2879450">
        <ele>103.2</ele>
        <time>2020-02-21T11:46:02Z</time>
      </trkpt>
      <trkpt lat="38.8948220" lon="1.2879020">
        <ele>102.9</ele>
        <time>2020-02-21T11:46:03Z</time>
      </trkpt>
      <trkpt lat="38.8948130" lon="1.2878620">
        <ele>102.7</ele>
        <time>2020-02-21T11:46:04Z</time>
      </trkpt>
      <trkpt lat="38.8948120" lon="1.2878210">
        <ele>102.4</ele>
        <time>2020-02-21T11:46:05Z</time>
      </trkpt>
      <trkpt lat="38.8948110" lon="1.2877740">
        <ele>102.1</ele>
        <time>2020-02-21T11:46:06Z</time>
      </trkpt>
      <trkpt lat="38.8948060" lon="1.2877290">
        <ele>101.8</ele>
        <time>2020-02-21T11:46:07Z</time>
      </trkpt>
      <trkpt lat="38.8948020" lon="1.2876810">
        <ele>101.5</ele>
        <time>2020-02-21T11:46:08Z</time>
      </trkpt>
      <trkpt lat="38.8947990" lon="1.2876260">
        <ele>101.3</ele>
        <time>2020-02-21T11:46:09Z</time>
      </trkpt>
      <trkpt lat="38.8947980" lon="1.2875770">
        <ele>101.0</ele>
        <time>2020-02-21T11:46:10Z</time>
      </trkpt>
      <trkpt lat="38.8947970" lon="1.2875300">
        <ele>100.8</ele>
        <time>2020-02-21T11:46:11Z</time>
      </trkpt>
      <trkpt lat="38.8947920" lon="1.2874870">
        <ele>100.6</ele>
        <time>2020-02-21T11:46:12Z</time>
      </trkpt>
      <trkpt lat="38.8947990" lon="1.2874480">
        <ele>100.3</ele>
        <time>2020-02-21T11:46:13Z</time>
      </trkpt>
      <trkpt lat="38.8948040" lon="1.2873920">
        <ele>100.0</ele>
        <time>2020-02-21T11:46:14Z</time>
      </trkpt>
      <trkpt lat="38.8948140" lon="1.2873370">
        <ele>99.7</ele>
        <time>2020-02-21T11:46:15Z</time>
      </trkpt>
      <trkpt lat="38.8948230" lon="1.2872700">
        <ele>99.4</ele>
        <time>2020-02-21T11:46:16Z</time>
      </trkpt>
      <trkpt lat="38.8948430" lon="1.2872210">
        <ele>99.0</ele>
        <time>2020-02-21T11:46:17Z</time>
      </trkpt>
      <trkpt lat="38.8948660" lon="1.2871820">
        <ele>98.7</ele>
        <time>2020-02-21T11:46:18Z</time>
      </trkpt>
      <trkpt lat="38.8948800" lon="1.2871460">
        <ele>98.4</ele>
        <time>2020-02-21T11:46:19Z</time>
      </trkpt>
      <trkpt lat="38.8949080" lon="1.2871040">
        <ele>97.9</ele>
        <time>2020-02-21T11:46:20Z</time>
      </trkpt>
      <trkpt lat="38.8949190" lon="1.2870830">
        <ele>97.7</ele>
        <time>2020-02-21T11:46:21Z</time>
      </trkpt>
      <trkpt lat="38.8949390" lon="1.2870510">
        <ele>97.3</ele>
        <time>2020-02-21T11:46:22Z</time>
      </trkpt>
      <trkpt lat="38.8949630" lon="1.2870150">
        <ele>96.8</ele>
        <time>2020-02-21T11:46:23Z</time>
      </trkpt>
      <trkpt lat="38.8949840" lon="1.2869810">
        <ele>96.5</ele>
        <time>2020-02-21T11:46:24Z</time>
      </trkpt>
      <trkpt lat="38.8950090" lon="1.2869540">
        <ele>96.1</ele>
        <time>2020-02-21T11:46:25Z</time>
      </trkpt>
      <trkpt lat="38.8950440" lon="1.2869250">
        <ele>95.5</ele>
        <time>2020-02-21T11:46:26Z</time>
      </trkpt>
      <trkpt lat="38.8950550" lon="1.2869130">
        <ele>95.3</ele>
        <time>2020-02-21T11:46:27Z</time>
      </trkpt>
      <trkpt lat="38.8950680" lon="1.2868850">
        <ele>95.0</ele>
        <time>2020-02-21T11:46:28Z</time>
      </trkpt>
      <trkpt lat="38.8950670" lon="1.2868760">
        <ele>94.9</ele>
        <time>2020-02-21T11:46:29Z</time>
      </trkpt>
      <trkpt lat="38.8950660" lon="1.2868660">
        <ele>94.8</ele>
        <time>2020-02-21T11:46:30Z</time>
      </trkpt>
      <trkpt lat="38.8950550" lon="1.2868570">
        <ele>94.6</ele>
        <time>2020-02-21T11:46:31Z</time>
      </trkpt>
      <trkpt lat="38.8950580" lon="1.2868420">
        <ele>94.4</ele>
        <time>2020-02-21T11:46:32Z</time>
      </trkpt>
      <trkpt lat="38.8950570" lon="1.2868590">
        <ele>94.2</ele>
        <time>2020-02-21T11:46:33Z</time>
      </trkpt>
      <trkpt lat="38.8950560" lon="1.2868670">
        <ele>94.2</ele>
        <time>2020-02-21T11:46:34Z</time>
      </trkpt>
      <trkpt lat="38.8950500" lon="1.2868610">
        <ele>94.0</ele>
        <time>2020-02-21T11:46:35Z</time>
      </trkpt>
      <trkpt lat="38.8950480" lon="1.2868590">
        <ele>94.0</ele>
        <time>2020-02-21T11:46:36Z</time>
      </trkpt>
      <trkpt lat="38.8950490" lon="1.2868620">
        <ele>94.0</ele>
        <time>2020-02-21T11:46:37Z</time>
      </trkpt>
      <trkpt lat="38.8950520" lon="1.2868650">
        <ele>93.9</ele>
        <time>2020-02-21T11:46:38Z</time>
      </trkpt>
      <trkpt lat="38.8950520" lon="1.2868650">
        <ele>93.9</ele>
        <time>2020-02-21T11:46:39Z</time>
      </trkpt>
      <trkpt lat="38.8950520" lon="1.2868650">
        <ele>93.9</ele>
        <time>2020-02-21T11:46:40Z</time>
      </trkpt>
      <trkpt lat="38.8950520" lon="1.2868660">
        <ele>93.9</ele>
        <time>2020-02-21T11:46:41Z</time>
      </trkpt>
      <trkpt lat="38.8950520" lon="1.2868660">
        <ele>93.9</ele>
        <time>2020-02-21T11:46:42Z</time>
      </trkpt>
      <trkpt lat="38.8950030" lon="1.2868470">
        <ele>93.2</ele>
        <time>2020-02-21T11:47:06Z</time>
      </trkpt>
      <trkpt lat="38.8949920" lon="1.2868510">
        <ele>93.0</ele>
        <time>2020-02-21T11:47:07Z</time>
      </trkpt>
      <trkpt lat="38.8949750" lon="1.2868470">
        <ele>92.8</ele>
        <time>2020-02-21T11:47:08Z</time>
      </trkpt>
      <trkpt lat="38.8949590" lon="1.2868470">
        <ele>92.6</ele>
        <time>2020-02-21T11:47:09Z</time>
      </trkpt>
      <trkpt lat="38.8949280" lon="1.2868540">
        <ele>92.2</ele>
        <time>2020-02-21T11:47:10Z</time>
      </trkpt>
      <trkpt lat="38.8949190" lon="1.2868560">
        <ele>92.2</ele>
        <time>2020-02-21T11:47:11Z</time>
      </trkpt>
      <trkpt lat="38.8948910" lon="1.2868650">
        <ele>91.9</ele>
        <time>2020-02-21T11:47:12Z</time>
      </trkpt>
      <trkpt lat="38.8948750" lon="1.2868700">
        <ele>91.8</ele>
        <time>2020-02-21T11:47:13Z</time>
      </trkpt>
      <trkpt lat="38.8948660" lon="1.2868860">
        <ele>91.6</ele>
        <time>2020-02-21T11:47:14Z</time>
      </trkpt>
      <trkpt lat="38.8948470" lon="1.2868930">
        <ele>91.5</ele>
        <time>2020-02-21T11:47:15Z</time>
      </trkpt>
      <trkpt lat="38.8948330" lon="1.2868850">
        <ele>91.4</ele>
        <time>2020-02-21T11:47:16Z</time>
      </trkpt>
      <trkpt lat="38.8948180" lon="1.2868780">
        <ele>91.3</ele>
        <time>2020-02-21T11:47:17Z</time>
      </trkpt>
      <trkpt lat="38.8948010" lon="1.2868740">
        <ele>91.2</ele>
        <time>2020-02-21T11:47:18Z</time>
      </trkpt>
      <trkpt lat="38.8947960" lon="1.2868510">
        <ele>91.1</ele>
        <time>2020-02-21T11:47:19Z</time>
      </trkpt>
      <trkpt lat="38.8947770" lon="1.2868490">
        <ele>91.0</ele>
        <time>2020-02-21T11:47:20Z</time>
      </trkpt>
      <trkpt lat="38.8947680" lon="1.2868510">
        <ele>91.0</ele>
        <time>2020-02-21T11:47:21Z</time>
      </trkpt>
      <trkpt lat="38.8947570" lon="1.2868540">
        <ele>90.9</ele>
        <time>2020-02-21T11:47:22Z</time>
      </trkpt>
      <trkpt lat="38.8947470" lon="1.2868570">
        <ele>90.9</ele>
        <time>2020-02-21T11:47:23Z</time>
      </trkpt>
      <trkpt lat="38.8947330" lon="1.2868630">
        <ele>90.9</ele>
        <time>2020-02-21T11:47:24Z</time>
      </trkpt>
      <trkpt lat="38.8947210" lon="1.2868720">
        <ele>90.8</ele>
        <time>2020-02-21T11:47:25Z</time>
      </trkpt>
      <trkpt lat="38.8947050" lon="1.2868830">
        <ele>90.8</ele>
        <time>2020-02-21T11:47:26Z</time>
      </trkpt>
      <trkpt lat="38.8946890" lon="1.2868780">
        <ele>90.8</ele>
        <time>2020-02-21T11:47:27Z</time>
      </trkpt>
      <trkpt lat="38.8946750" lon="1.2868830">
        <ele>90.8</ele>
        <time>2020-02-21T11:47:28Z</time>
      </trkpt>
      <trkpt lat="38.8946590" lon="1.2868840">
        <ele>90.8</ele>
        <time>2020-02-21T11:47:29Z</time>
      </trkpt>
      <trkpt lat="38.8946540" lon="1.2868910">
        <ele>90.8</ele>
        <time>2020-02-21T11:47:30Z</time>
      </trkpt>
      <trkpt lat="38.8946340" lon="1.2868990">
        <ele>90.8</ele>
        <time>2020-02-21T11:47:31Z</time>
      </trkpt>
      <trkpt lat="38.8946080" lon="1.2869230">
        <ele>90.9</ele>
        <time>2020-02-21T11:47:32Z</time>
      </trkpt>
      <trkpt lat="38.8946000" lon="1.2869320">
        <ele>90.9</ele>
        <time>2020-02-21T11:47:33Z</time>
      </trkpt>
      <trkpt lat="38.8945890" lon="1.2869470">
        <ele>91.0</ele>
        <time>2020-02-21T11:47:34Z</time>
      </trkpt>
      <trkpt lat="38.8945740" lon="1.2869540">
        <ele>91.0</ele>
        <time>2020-02-21T11:47:35Z</time>
      </trkpt>
      <trkpt lat="38.8945630" lon="1.2869640">
        <ele>91.1</ele>
        <time>2020-02-21T11:47:36Z</time>
      </trkpt>
      <trkpt lat="38.8945600" lon="1.2869650">
        <ele>91.1</ele>
        <time>2020-02-21T11:47:37Z</time>
      </trkpt>
      <trkpt lat="38.8945560" lon="1.2869750">
        <ele>91.2</ele>
        <time>2020-02-21T11:47:38Z</time>
      </trkpt>
      <trkpt lat="38.8945580" lon="1.2869750">
        <ele>91.2</ele>
        <time>2020-02-21T11:47:39Z</time>
      </trkpt>
      <trkpt lat="38.8945520" lon="1.2869800">
        <ele>91.2</ele>
        <time>2020-02-21T11:47:40Z</time>
      </trkpt>
      <trkpt lat="38.8945440" lon="1.2869930">
        <ele>91.3</ele>
        <time>2020-02-21T11:47:41Z</time>
      </trkpt>
      <trkpt lat="38.8945430" lon="1.2869860">
        <ele>91.3</ele>
        <time>2020-02-21T11:47:42Z</time>
      </trkpt>
      <trkpt lat="38.8945430" lon="1.2869930">
        <ele>91.4</ele>
        <time>2020-02-21T11:47:43Z</time>
      </trkpt>
      <trkpt lat="38.8945400" lon="1.2870060">
        <ele>91.5</ele>
        <time>2020-02-21T11:47:44Z</time>
      </trkpt>
      <trkpt lat="38.8945360" lon="1.2870190">
        <ele>91.6</ele>
        <time>2020-02-21T11:47:45Z</time>
      </trkpt>
      <trkpt lat="38.8945330" lon="1.2870210">
        <ele>91.6</ele>
        <time>2020-02-21T11:47:46Z</time>
      </trkpt>
      <trkpt lat="38.8945360" lon="1.2870370">
        <ele>91.7</ele>
        <time>2020-02-21T11:47:47Z</time>
      </trkpt>
      <trkpt lat="38.8945360" lon="1.2870530">
        <ele>91.8</ele>
        <time>2020-02-21T11:47:48Z</time>
      </trkpt>
      <trkpt lat="38.8945380" lon="1.2870440">
        <ele>91.9</ele>
        <time>2020-02-21T11:47:49Z</time>
      </trkpt>
      <trkpt lat="38.8945430" lon="1.2870370">
        <ele>92.0</ele>
        <time>2020-02-21T11:47:50Z</time>
      </trkpt>
      <trkpt lat="38.8945520" lon="1.2870380">
        <ele>92.1</ele>
        <time>2020-02-21T11:47:51Z</time>
      </trkpt>
      <trkpt lat="38.8945520" lon="1.2870400">
        <ele>92.1</ele>
        <time>2020-02-21T11:47:52Z</time>
      </trkpt>
      <trkpt lat="38.8945500" lon="1.2870490">
        <ele>92.2</ele>
        <time>2020-02-21T11:47:53Z</time>
      </trkpt>
      <trkpt lat="38.8945490" lon="1.2870570">
        <ele>92.3</ele>
        <time>2020-02-21T11:47:54Z</time>
      </trkpt>
      <trkpt lat="38.8945460" lon="1.2870710">
        <ele>92.4</ele>
        <time>2020-02-21T11:47:55Z</time>
      </trkpt>
      <trkpt lat="38.8945410" lon="1.2870830">
        <ele>92.6</ele>
        <time>2020-02-21T11:47:56Z</time>
      </trkpt>
      <trkpt lat="38.8945350" lon="1.2870820">
        <ele>92.6</ele>
        <time>2020-02-21T11:47:57Z</time>
      </trkpt>
      <trkpt lat="38.8945320" lon="1.2870920">
        <ele>92.7</ele>
        <time>2020-02-21T11:47:58Z</time>
      </trkpt>
      <trkpt lat="38.8945190" lon="1.2871010">
        <ele>92.9</ele>
        <time>2020-02-21T11:47:59Z</time>
      </trkpt>
      <trkpt lat="38.8945060" lon="1.2871080">
        <ele>93.2</ele>
        <time>2020-02-21T11:48:00Z</time>
      </trkpt>
      <trkpt lat="38.8944980" lon="1.2870990">
        <ele>93.4</ele>
        <time>2020-02-21T11:48:01Z</time>
      </trkpt>
      <trkpt lat="38.8944890" lon="1.2871010">
        <ele>93.5</ele>
        <time>2020-02-21T11:48:02Z</time>
      </trkpt>
      <trkpt lat="38.8944840" lon="1.2871040">
        <ele>93.6</ele>
        <time>2020-02-21T11:48:03Z</time>
      </trkpt>
      <trkpt lat="38.8944740" lon="1.2871010">
        <ele>93.8</ele>
        <time>2020-02-21T11:48:04Z</time>
      </trkpt>
      <trkpt lat="38.8944620" lon="1.2871080">
        <ele>94.0</ele>
        <time>2020-02-21T11:48:05Z</time>
      </trkpt>
      <trkpt lat="38.8944550" lon="1.2871100">
        <ele>94.2</ele>
        <time>2020-02-21T11:48:06Z</time>
      </trkpt>
      <trkpt lat="38.8944490" lon="1.2871130">
        <ele>94.3</ele>
        <time>2020-02-21T11:48:07Z</time>
      </trkpt>
      <trkpt lat="38.8944420" lon="1.2871150">
        <ele>94.4</ele>
        <time>2020-02-21T11:48:08Z</time>
      </trkpt>
      <trkpt lat="38.8944360" lon="1.2871170">
        <ele>94.5</ele>
        <time>2020-02-21T11:48:09Z</time>
      </trkpt>
      <trkpt lat="38.8944240" lon="1.2871260">
        <ele>94.8</ele>
        <time>2020-02-21T11:48:10Z</time>
      </trkpt>
      <trkpt lat="38.8944140" lon="1.2871250">
        <ele>95.0</ele>
        <time>2020-02-21T11:48:11Z</time>
      </trkpt>
      <trkpt lat="38.8944090" lon="1.2871240">
        <ele>95.1</ele>
        <time>2020-02-21T11:48:12Z</time>
      </trkpt>
      <trkpt lat="38.8944020" lon="1.2871250">
        <ele>95.2</ele>
        <time>2020-02-21T11:48:13Z</time>
      </trkpt>
      <trkpt lat="38.8944010" lon="1.2871250">
        <ele>95.2</ele>
        <time>2020-02-21T11:48:14Z</time>
      </trkpt>
      <trkpt lat="38.8944000" lon="1.2871290">
        <ele>95.3</ele>
        <time>2020-02-21T11:48:15Z</time>
      </trkpt>
      <trkpt lat="38.8943960" lon="1.2871250">
        <ele>95.4</ele>
        <time>2020-02-21T11:48:16Z</time>
      </trkpt>
      <trkpt lat="38.8943860" lon="1.2871340">
        <ele>95.6</ele>
        <time>2020-02-21T11:48:17Z</time>
      </trkpt>
      <trkpt lat="38.8943770" lon="1.2871370">
        <ele>95.8</ele>
        <time>2020-02-21T11:48:18Z</time>
      </trkpt>
      <trkpt lat="38.8943660" lon="1.2871400">
        <ele>96.0</ele>
        <time>2020-02-21T11:48:19Z</time>
      </trkpt>
      <trkpt lat="38.8943660" lon="1.2871490">
        <ele>96.2</ele>
        <time>2020-02-21T11:48:20Z</time>
      </trkpt>
      <trkpt lat="38.8943560" lon="1.2871620">
        <ele>96.4</ele>
        <time>2020-02-21T11:48:21Z</time>
      </trkpt>
      <trkpt lat="38.8943460" lon="1.2871710">
        <ele>96.7</ele>
        <time>2020-02-21T11:48:22Z</time>
      </trkpt>
      <trkpt lat="38.8943370" lon="1.2871870">
        <ele>97.0</ele>
        <time>2020-02-21T11:48:23Z</time>
      </trkpt>
      <trkpt lat="38.8943330" lon="1.2871960">
        <ele>97.1</ele>
        <time>2020-02-21T11:48:24Z</time>
      </trkpt>
      <trkpt lat="38.8943300" lon="1.2872020">
        <ele>97.2</ele>
        <time>2020-02-21T11:48:25Z</time>
      </trkpt>
      <trkpt lat="38.8943270" lon="1.2872100">
        <ele>97.3</ele>
        <time>2020-02-21T11:48:26Z</time>
      </trkpt>
      <trkpt lat="38.8943190" lon="1.2872190">
        <ele>97.5</ele>
        <time>2020-02-21T11:48:27Z</time>
      </trkpt>
      <trkpt lat="38.8943140" lon="1.2872310">
        <ele>97.7</ele>
        <time>2020-02-21T11:48:28Z</time>
      </trkpt>
      <trkpt lat="38.8943070" lon="1.2872430">
        <ele>97.9</ele>
        <time>2020-02-21T11:48:29Z</time>
      </trkpt>
      <trkpt lat="38.8943060" lon="1.2872620">
        <ele>98.2</ele>
        <time>2020-02-21T11:48:30Z</time>
      </trkpt>
      <trkpt lat="38.8943000" lon="1.2872660">
        <ele>98.3</ele>
        <time>2020-02-21T11:48:31Z</time>
      </trkpt>
      <trkpt lat="38.8942840" lon="1.2872820">
        <ele>98.7</ele>
        <time>2020-02-21T11:48:32Z</time>
      </trkpt>
      <trkpt lat="38.8942750" lon="1.2872870">
        <ele>98.9</ele>
        <time>2020-02-21T11:48:33Z</time>
      </trkpt>
      <trkpt lat="38.8942670" lon="1.2872930">
        <ele>99.1</ele>
        <time>2020-02-21T11:48:34Z</time>
      </trkpt>
      <trkpt lat="38.8942560" lon="1.2872990">
        <ele>99.3</ele>
        <time>2020-02-21T11:48:35Z</time>
      </trkpt>
      <trkpt lat="38.8942520" lon="1.2873030">
        <ele>99.4</ele>
        <time>2020-02-21T11:48:36Z</time>
      </trkpt>
      <trkpt lat="38.8942480" lon="1.2873060">
        <ele>99.5</ele>
        <time>2020-02-21T11:48:37Z</time>
      </trkpt>
      <trkpt lat="38.8942450" lon="1.2873220">
        <ele>99.7</ele>
        <time>2020-02-21T11:48:38Z</time>
      </trkpt>
      <trkpt lat="38.8942410" lon="1.2873290">
        <ele>99.8</ele>
        <time>2020-02-21T11:48:39Z</time>
      </trkpt>
      <trkpt lat="38.8942350" lon="1.2873430">
        <ele>100.0</ele>
        <time>2020-02-21T11:48:40Z</time>
      </trkpt>
      <trkpt lat="38.8942330" lon="1.2873620">
        <ele>100.3</ele>
        <time>2020-02-21T11:48:41Z</time>
      </trkpt>
      <trkpt lat="38.8942320" lon="1.2873680">
        <ele>100.4</ele>
        <time>2020-02-21T11:48:42Z</time>
      </trkpt>
      <trkpt lat="38.8942290" lon="1.2873810">
        <ele>100.5</ele>
        <time>2020-02-21T11:48:43Z</time>
      </trkpt>
      <trkpt lat="38.8942200" lon="1.2873930">
        <ele>100.8</ele>
        <time>2020-02-21T11:48:44Z</time>
      </trkpt>
      <trkpt lat="38.8942270" lon="1.2874030">
        <ele>101.0</ele>
        <time>2020-02-21T11:48:45Z</time>
      </trkpt>
      <trkpt lat="38.8942280" lon="1.2874150">
        <ele>101.1</ele>
        <time>2020-02-21T11:48:46Z</time>
      </trkpt>
      <trkpt lat="38.8942290" lon="1.2874270">
        <ele>101.3</ele>
        <time>2020-02-21T11:48:47Z</time>
      </trkpt>
      <trkpt lat="38.8942300" lon="1.2874390">
        <ele>101.4</ele>
        <time>2020-02-21T11:48:48Z</time>
      </trkpt>
      <trkpt lat="38.8942240" lon="1.2874610">
        <ele>101.8</ele>
        <time>2020-02-21T11:48:49Z</time>
      </trkpt>
      <trkpt lat="38.8942230" lon="1.2874730">
        <ele>101.9</ele>
        <time>2020-02-21T11:48:50Z</time>
      </trkpt>
      <trkpt lat="38.8942200" lon="1.2874850">
        <ele>102.1</ele>
        <time>2020-02-21T11:48:51Z</time>
      </trkpt>
      <trkpt lat="38.8942200" lon="1.2874990">
        <ele>102.3</ele>
        <time>2020-02-21T11:48:52Z</time>
      </trkpt>
      <trkpt lat="38.8942060" lon="1.2875000">
        <ele>102.5</ele>
        <time>2020-02-21T11:48:53Z</time>
      </trkpt>
      <trkpt lat="38.8942020" lon="1.2875090">
        <ele>102.7</ele>
        <time>2020-02-21T11:48:54Z</time>
      </trkpt>
      <trkpt lat="38.8941970" lon="1.2875180">
        <ele>102.8</ele>
        <time>2020-02-21T11:48:55Z</time>
      </trkpt>
      <trkpt lat="38.8941950" lon="1.2875240">
        <ele>102.9</ele>
        <time>2020-02-21T11:48:56Z</time>
      </trkpt>
      <trkpt lat="38.8941890" lon="1.2875280">
        <ele>103.0</ele>
        <time>2020-02-21T11:48:57Z</time>
      </trkpt>
      <trkpt lat="38.8941810" lon="1.2875390">
        <ele>103.2</ele>
        <time>2020-02-21T11:48:58Z</time>
      </trkpt>
      <trkpt lat="38.8941750" lon="1.2875450">
        <ele>103.3</ele>
        <time>2020-02-21T11:48:59Z</time>
      </trkpt>
      <trkpt lat="38.8941690" lon="1.2875470">
        <ele>103.4</ele>
        <time>2020-02-21T11:49:00Z</time>
      </trkpt>
      <trkpt lat="38.8941640" lon="1.2875500">
        <ele>103.5</ele>
        <time>2020-02-21T11:49:01Z</time>
      </trkpt>
      <trkpt lat="38.8941610" lon="1.2875460">
        <ele>103.6</ele>
        <time>2020-02-21T11:49:02Z</time>
      </trkpt>
      <trkpt lat="38.8941560" lon="1.2875520">
        <ele>103.8</ele>
        <time>2020-02-21T11:49:03Z</time>
      </trkpt>
      <trkpt lat="38.8941590" lon="1.2875670">
        <ele>104.0</ele>
        <time>2020-02-21T11:49:04Z</time>
      </trkpt>
      <trkpt lat="38.8941530" lon="1.2875770">
        <ele>104.2</ele>
        <time>2020-02-21T11:49:05Z</time>
      </trkpt>
      <trkpt lat="38.8941510" lon="1.2875870">
        <ele>104.3</ele>
        <time>2020-02-21T11:49:06Z</time>
      </trkpt>
      <trkpt lat="38.8941470" lon="1.2876000">
        <ele>104.5</ele>
        <time>2020-02-21T11:49:07Z</time>
      </trkpt>
      <trkpt lat="38.8941440" lon="1.2876200">
        <ele>104.9</ele>
        <time>2020-02-21T11:49:08Z</time>
      </trkpt>
      <trkpt lat="38.8941440" lon="1.2876280">
        <ele>105.0</ele>
        <time>2020-02-21T11:49:09Z</time>
      </trkpt>
      <trkpt lat="38.8941370" lon="1.2876490">
        <ele>105.4</ele>
        <time>2020-02-21T11:49:10Z</time>
      </trkpt>
      <trkpt lat="38.8941340" lon="1.2876610">
        <ele>105.6</ele>
        <time>2020-02-21T11:49:11Z</time>
      </trkpt>
      <trkpt lat="38.8941310" lon="1.2876720">
        <ele>105.8</ele>
        <time>2020-02-21T11:49:12Z</time>
      </trkpt>
      <trkpt lat="38.8941320" lon="1.2876840">
        <ele>106.0</ele>
        <time>2020-02-21T11:49:13Z</time>
      </trkpt>
      <trkpt lat="38.8941400" lon="1.2876840">
        <ele>106.1</ele>
        <time>2020-02-21T11:49:14Z</time>
      </trkpt>
      <trkpt lat="38.8941470" lon="1.2876980">
        <ele>106.4</ele>
        <time>2020-02-21T11:49:15Z</time>
      </trkpt>
      <trkpt lat="38.8941450" lon="1.2877000">
        <ele>106.5</ele>
        <time>2020-02-21T11:49:16Z</time>
      </trkpt>
      <trkpt lat="38.8941410" lon="1.2877080">
        <ele>106.7</ele>
        <time>2020-02-21T11:49:17Z</time>
      </trkpt>
      <trkpt lat="38.8941460" lon="1.2877090">
        <ele>106.8</ele>
        <time>2020-02-21T11:49:18Z</time>
      </trkpt>
      <trkpt lat="38.8941470" lon="1.2877220">
        <ele>107.0</ele>
        <time>2020-02-21T11:49:19Z</time>
      </trkpt>
      <trkpt lat="38.8941420" lon="1.2877240">
        <ele>107.1</ele>
        <time>2020-02-21T11:49:20Z</time>
      </trkpt>
      <trkpt lat="38.8941410" lon="1.2877180">
        <ele>107.2</ele>
        <time>2020-02-21T11:49:21Z</time>
      </trkpt>
      <trkpt lat="38.8941350" lon="1.2877170">
        <ele>107.4</ele>
        <time>2020-02-21T11:49:22Z</time>
      </trkpt>
      <trkpt lat="38.8941250" lon="1.2877100">
        <ele>107.6</ele>
        <time>2020-02-21T11:49:23Z</time>
      </trkpt>
      <trkpt lat="38.8941220" lon="1.2877020">
        <ele>107.8</ele>
        <time>2020-02-21T11:49:24Z</time>
      </trkpt>
      <trkpt lat="38.8941180" lon="1.2876920">
        <ele>108.0</ele>
        <time>2020-02-21T11:49:25Z</time>
      </trkpt>
      <trkpt lat="38.8941100" lon="1.2876900">
        <ele>108.2</ele>
        <time>2020-02-21T11:49:26Z</time>
      </trkpt>
      <trkpt lat="38.8941040" lon="1.2876860">
        <ele>108.4</ele>
        <time>2020-02-21T11:49:27Z</time>
      </trkpt>
      <trkpt lat="38.8941000" lon="1.2876920">
        <ele>108.5</ele>
        <time>2020-02-21T11:49:28Z</time>
      </trkpt>
      <trkpt lat="38.8940990" lon="1.2876890">
        <ele>108.6</ele>
        <time>2020-02-21T11:49:29Z</time>
      </trkpt>
      <trkpt lat="38.8940860" lon="1.2876770">
        <ele>109.0</ele>
        <time>2020-02-21T11:49:30Z</time>
      </trkpt>
      <trkpt lat="38.8940820" lon="1.2876710">
        <ele>109.1</ele>
        <time>2020-02-21T11:49:31Z</time>
      </trkpt>
      <trkpt lat="38.8940810" lon="1.2876610">
        <ele>109.1</ele>
        <time>2020-02-21T11:49:32Z</time>
      </trkpt>
      <trkpt lat="38.8940790" lon="1.2876570">
        <ele>109.1</ele>
        <time>2020-02-21T11:49:33Z</time>
      </trkpt>
      <trkpt lat="38.8940780" lon="1.2876540">
        <ele>109.2</ele>
        <time>2020-02-21T11:49:34Z</time>
      </trkpt>
      <trkpt lat="38.8940760" lon="1.2876500">
        <ele>109.2</ele>
        <time>2020-02-21T11:49:35Z</time>
      </trkpt>
      <trkpt lat="38.8940750" lon="1.2876460">
        <ele>109.2</ele>
        <time>2020-02-21T11:49:36Z</time>
      </trkpt>
      <trkpt lat="38.8940740" lon="1.2876420">
        <ele>109.2</ele>
        <time>2020-02-21T11:49:37Z</time>
      </trkpt>
      <trkpt lat="38.8940720" lon="1.2876390">
        <ele>109.3</ele>
        <time>2020-02-21T11:49:38Z</time>
      </trkpt>
      <trkpt lat="38.8940710" lon="1.2876350">
        <ele>109.3</ele>
        <time>2020-02-21T11:49:39Z</time>
      </trkpt>
      <trkpt lat="38.8940690" lon="1.2876310">
        <ele>109.3</ele>
        <time>2020-02-21T11:49:40Z</time>
      </trkpt>
      <trkpt lat="38.8940680" lon="1.2876270">
        <ele>109.4</ele>
        <time>2020-02-21T11:49:41Z</time>
      </trkpt>
      <trkpt lat="38.8940660" lon="1.2876240">
        <ele>109.4</ele>
        <time>2020-02-21T11:49:42Z</time>
      </trkpt>
      <trkpt lat="38.8940650" lon="1.2876200">
        <ele>109.4</ele>
        <time>2020-02-21T11:49:43Z</time>
      </trkpt>
      <trkpt lat="38.8940620" lon="1.2876060">
        <ele>109.5</ele>
        <time>2020-02-21T11:49:44Z</time>
      </trkpt>
      <trkpt lat="38.8940610" lon="1.2876000">
        <ele>109.6</ele>
        <time>2020-02-21T11:49:45Z</time>
      </trkpt>
      <trkpt lat="38.8940560" lon="1.2875890">
        <ele>109.7</ele>
        <time>2020-02-21T11:49:46Z</time>
      </trkpt>
      <trkpt lat="38.8940480" lon="1.2875830">
        <ele>109.8</ele>
        <time>2020-02-21T11:49:47Z</time>
      </trkpt>
      <trkpt lat="38.8940280" lon="1.2875690">
        <ele>110.0</ele>
        <time>2020-02-21T11:49:48Z</time>
      </trkpt>
      <trkpt lat="38.8940210" lon="1.2875640">
        <ele>110.1</ele>
        <time>2020-02-21T11:49:49Z</time>
      </trkpt>
      <trkpt lat="38.8940140" lon="1.2875580">
        <ele>110.2</ele>
        <time>2020-02-21T11:49:50Z</time>
      </trkpt>
      <trkpt lat="38.8940010" lon="1.2875560">
        <ele>110.3</ele>
        <time>2020-02-21T11:49:51Z</time>
      </trkpt>
      <trkpt lat="38.8939950" lon="1.2875540">
        <ele>110.4</ele>
        <time>2020-02-21T11:49:52Z</time>
      </trkpt>
      <trkpt lat="38.8939980" lon="1.2875570">
        <ele>110.4</ele>
        <time>2020-02-21T11:49:53Z</time>
      </trkpt>
      <trkpt lat="38.8939940" lon="1.2875490">
        <ele>110.5</ele>
        <time>2020-02-21T11:49:54Z</time>
      </trkpt>
      <trkpt lat="38.8939920" lon="1.2875480">
        <ele>110.5</ele>
        <time>2020-02-21T11:49:55Z</time>
      </trkpt>
      <trkpt lat="38.8940010" lon="1.2875530">
        <ele>110.6</ele>
        <time>2020-02-21T11:49:56Z</time>
      </trkpt>
      <trkpt lat="38.8940070" lon="1.2875550">
        <ele>110.7</ele>
        <time>2020-02-21T11:49:57Z</time>
      </trkpt>
      <trkpt lat="38.8940070" lon="1.2875540">
        <ele>110.7</ele>
        <time>2020-02-21T11:49:58Z</time>
      </trkpt>
      <trkpt lat="38.8940070" lon="1.2875550">
        <ele>110.7</ele>
        <time>2020-02-21T11:49:59Z</time>
      </trkpt>
      <trkpt lat="38.8940100" lon="1.2875590">
        <ele>110.8</ele>
        <time>2020-02-21T11:50:00Z</time>
      </trkpt>
      <trkpt lat="38.8940120" lon="1.2875590">
        <ele>110.8</ele>
        <time>2020-02-21T11:50:01Z</time>
      </trkpt>
      <trkpt lat="38.8940120" lon="1.2875590">
        <ele>110.8</ele>
        <time>2020-02-21T11:50:02Z</time>
      </trkpt>
      <trkpt lat="38.8940120" lon="1.2875580">
        <ele>110.8</ele>
        <time>2020-02-21T11:50:03Z</time>
      </trkpt>
      <trkpt lat="38.8940120" lon="1.2875570">
        <ele>110.8</ele>
        <time>2020-02-21T11:50:04Z</time>
      </trkpt>
      <trkpt lat="38.8940190" lon="1.2875450">
        <ele>111.0</ele>
        <time>2020-02-21T11:50:05Z</time>
      </trkpt>
      <trkpt lat="38.8940200" lon="1.2875330">
        <ele>111.1</ele>
        <time>2020-02-21T11:50:06Z</time>
      </trkpt>
      <trkpt lat="38.8940200" lon="1.2875180">
        <ele>111.2</ele>
        <time>2020-02-21T11:50:07Z</time>
      </trkpt>
      <trkpt lat="38.8940150" lon="1.2874900">
        <ele>111.5</ele>
        <time>2020-02-21T11:50:08Z</time>
      </trkpt>
      <trkpt lat="38.8940070" lon="1.2874800">
        <ele>111.7</ele>
        <time>2020-02-21T11:50:09Z</time>
      </trkpt>
      <trkpt lat="38.8939990" lon="1.2874700">
        <ele>111.8</ele>
        <time>2020-02-21T11:50:10Z</time>
      </trkpt>
      <trkpt lat="38.8939820" lon="1.2874570">
        <ele>112.1</ele>
        <time>2020-02-21T11:50:11Z</time>
      </trkpt>
      <trkpt lat="38.8939720" lon="1.2874490">
        <ele>112.3</ele>
        <time>2020-02-21T11:50:12Z</time>
      </trkpt>
      <trkpt lat="38.8939510" lon="1.2874170">
        <ele>112.7</ele>
        <time>2020-02-21T11:50:13Z</time>
      </trkpt>
      <trkpt lat="38.8939440" lon="1.2874080">
        <ele>112.9</ele>
        <time>2020-02-21T11:50:14Z</time>
      </trkpt>
      <trkpt lat="38.8939160" lon="1.2873720">
        <ele>113.5</ele>
        <time>2020-02-21T11:50:15Z</time>
      </trkpt>
      <trkpt lat="38.8939050" lon="1.2873580">
        <ele>113.7</ele>
        <time>2020-02-21T11:50:16Z</time>
      </trkpt>
      <trkpt lat="38.8938790" lon="1.2873450">
        <ele>114.2</ele>
        <time>2020-02-21T11:50:17Z</time>
      </trkpt>
      <trkpt lat="38.8938550" lon="1.2873230">
        <ele>114.7</ele>
        <time>2020-02-21T11:50:18Z</time>
      </trkpt>
      <trkpt lat="38.8938330" lon="1.2873010">
        <ele>115.2</ele>
        <time>2020-02-21T11:50:19Z</time>
      </trkpt>
      <trkpt lat="38.8938010" lon="1.2872850">
        <ele>115.7</ele>
        <time>2020-02-21T11:50:20Z</time>
      </trkpt>
      <trkpt lat="38.8937890" lon="1.2872820">
        <ele>115.9</ele>
        <time>2020-02-21T11:50:21Z</time>
      </trkpt>
      <trkpt lat="38.8937600" lon="1.2872770">
        <ele>116.4</ele>
        <time>2020-02-21T11:50:22Z</time>
      </trkpt>
      <trkpt lat="38.8937340" lon="1.2872640">
        <ele>116.9</ele>
        <time>2020-02-21T11:50:23Z</time>
      </trkpt>
      <trkpt lat="38.8937060" lon="1.2872380">
        <ele>117.5</ele>
        <time>2020-02-21T11:50:24Z</time>
      </trkpt>
      <trkpt lat="38.8936990" lon="1.2872290">
        <ele>117.6</ele>
        <time>2020-02-21T11:50:25Z</time>
      </trkpt>
      <trkpt lat="38.8936650" lon="1.2872030">
        <ele>118.3</ele>
        <time>2020-02-21T11:50:26Z</time>
      </trkpt>
      <trkpt lat="38.8936510" lon="1.2871950">
        <ele>118.5</ele>
        <time>2020-02-21T11:50:27Z</time>
      </trkpt>
      <trkpt lat="38.8936090" lon="1.2871690">
        <ele>119.2</ele>
        <time>2020-02-21T11:50:28Z</time>
      </trkpt>
      <trkpt lat="38.8935910" lon="1.2871570">
        <ele>119.6</ele>
        <time>2020-02-21T11:50:29Z</time>
      </trkpt>
      <trkpt lat="38.8935660" lon="1.2871420">
        <ele>120.0</ele>
        <time>2020-02-21T11:50:30Z</time>
      </trkpt>
      <trkpt lat="38.8935290" lon="1.2871050">
        <ele>120.7</ele>
        <time>2020-02-21T11:50:31Z</time>
      </trkpt>
      <trkpt lat="38.8935100" lon="1.2870900">
        <ele>121.1</ele>
        <time>2020-02-21T11:50:32Z</time>
      </trkpt>
      <trkpt lat="38.8934850" lon="1.2870700">
        <ele>121.6</ele>
        <time>2020-02-21T11:50:33Z</time>
      </trkpt>
      <trkpt lat="38.8934530" lon="1.2870470">
        <ele>122.1</ele>
        <time>2020-02-21T11:50:34Z</time>
      </trkpt>
      <trkpt lat="38.8934440" lon="1.2870400">
        <ele>122.2</ele>
        <time>2020-02-21T11:50:35Z</time>
      </trkpt>
      <trkpt lat="38.8934100" lon="1.2870100">
        <ele>122.8</ele>
        <time>2020-02-21T11:50:36Z</time>
      </trkpt>
      <trkpt lat="38.8933960" lon="1.2869990">
        <ele>123.0</ele>
        <time>2020-02-21T11:50:37Z</time>
      </trkpt>
      <trkpt lat="38.8933650" lon="1.2869800">
        <ele>123.5</ele>
        <time>2020-02-21T11:50:38Z</time>
      </trkpt>
      <trkpt lat="38.8933580" lon="1.2869710">
        <ele>123.6</ele>
        <time>2020-02-21T11:50:39Z</time>
      </trkpt>
      <trkpt lat="38.8933300" lon="1.2869450">
        <ele>124.0</ele>
        <time>2020-02-21T11:50:40Z</time>
      </trkpt>
      <trkpt lat="38.8933230" lon="1.2869340">
        <ele>124.2</ele>
        <time>2020-02-21T11:50:41Z</time>
      </trkpt>
      <trkpt lat="38.8933020" lon="1.2869030">
        <ele>124.6</ele>
        <time>2020-02-21T11:50:42Z</time>
      </trkpt>
      <trkpt lat="38.8932720" lon="1.2868870">
        <ele>125.1</ele>
        <time>2020-02-21T11:50:43Z</time>
      </trkpt>
      <trkpt lat="38.8932370" lon="1.2868630">
        <ele>125.5</ele>
        <time>2020-02-21T11:50:44Z</time>
      </trkpt>
      <trkpt lat="38.8932250" lon="1.2868550">
        <ele>125.6</ele>
        <time>2020-02-21T11:50:45Z</time>
      </trkpt>
      <trkpt lat="38.8931960" lon="1.2868400">
        <ele>125.9</ele>
        <time>2020-02-21T11:50:46Z</time>
      </trkpt>
      <trkpt lat="38.8931880" lon="1.2868310">
        <ele>125.9</ele>
        <time>2020-02-21T11:50:47Z</time>
      </trkpt>
      <trkpt lat="38.8931610" lon="1.2868070">
        <ele>126.2</ele>
        <time>2020-02-21T11:50:48Z</time>
      </trkpt>
      <trkpt lat="38.8931540" lon="1.2868000">
        <ele>126.3</ele>
        <time>2020-02-21T11:50:49Z</time>
      </trkpt>
      <trkpt lat="38.8931400" lon="1.2867900">
        <ele>126.4</ele>
        <time>2020-02-21T11:50:50Z</time>
      </trkpt>
      <trkpt lat="38.8931360" lon="1.2867700">
        <ele>126.5</ele>
        <time>2020-02-21T11:50:51Z</time>
      </trkpt>
      <trkpt lat="38.8931280" lon="1.2867330">
        <ele>126.8</ele>
        <time>2020-02-21T11:50:52Z</time>
      </trkpt>
      <trkpt lat="38.8931260" lon="1.2867200">
        <ele>126.9</ele>
        <time>2020-02-21T11:50:53Z</time>
      </trkpt>
      <trkpt lat="38.8931160" lon="1.2866800">
        <ele>127.2</ele>
        <time>2020-02-21T11:50:54Z</time>
      </trkpt>
      <trkpt lat="38.8931090" lon="1.2866700">
        <ele>127.3</ele>
        <time>2020-02-21T11:50:55Z</time>
      </trkpt>
      <trkpt lat="38.8930960" lon="1.2866450">
        <ele>127.5</ele>
        <time>2020-02-21T11:50:56Z</time>
      </trkpt>
      <trkpt lat="38.8930890" lon="1.2866370">
        <ele>127.6</ele>
        <time>2020-02-21T11:50:57Z</time>
      </trkpt>
      <trkpt lat="38.8930810" lon="1.2866280">
        <ele>127.8</ele>
        <time>2020-02-21T11:50:58Z</time>
      </trkpt>
      <trkpt lat="38.8930730" lon="1.2866110">
        <ele>128.0</ele>
        <time>2020-02-21T11:50:59Z</time>
      </trkpt>
      <trkpt lat="38.8930640" lon="1.2865930">
        <ele>128.2</ele>
        <time>2020-02-21T11:51:00Z</time>
      </trkpt>
      <trkpt lat="38.8930500" lon="1.2865460">
        <ele>128.6</ele>
        <time>2020-02-21T11:51:01Z</time>
      </trkpt>
      <trkpt lat="38.8930400" lon="1.2865280">
        <ele>128.8</ele>
        <time>2020-02-21T11:51:02Z</time>
      </trkpt>
      <trkpt lat="38.8930250" lon="1.2864970">
        <ele>129.2</ele>
        <time>2020-02-21T11:51:03Z</time>
      </trkpt>
      <trkpt lat="38.8930210" lon="1.2864850">
        <ele>129.3</ele>
        <time>2020-02-21T11:51:04Z</time>
      </trkpt>
      <trkpt lat="38.8930060" lon="1.2864490">
        <ele>129.7</ele>
        <time>2020-02-21T11:51:05Z</time>
      </trkpt>
      <trkpt lat="38.8930030" lon="1.2864380">
        <ele>129.8</ele>
        <time>2020-02-21T11:51:06Z</time>
      </trkpt>
      <trkpt lat="38.8929830" lon="1.2864030">
        <ele>130.1</ele>
        <time>2020-02-21T11:51:07Z</time>
      </trkpt>
      <trkpt lat="38.8929770" lon="1.2863940">
        <ele>130.2</ele>
        <time>2020-02-21T11:51:08Z</time>
      </trkpt>
      <trkpt lat="38.8929610" lon="1.2863620">
        <ele>130.4</ele>
        <time>2020-02-21T11:51:09Z</time>
      </trkpt>
      <trkpt lat="38.8929570" lon="1.2863530">
        <ele>130.5</ele>
        <time>2020-02-21T11:51:10Z</time>
      </trkpt>
      <trkpt lat="38.8929410" lon="1.2863220">
        <ele>130.7</ele>
        <time>2020-02-21T11:51:11Z</time>
      </trkpt>
      <trkpt lat="38.8929340" lon="1.2863160">
        <ele>130.8</ele>
        <time>2020-02-21T11:51:12Z</time>
      </trkpt>
      <trkpt lat="38.8929230" lon="1.2862900">
        <ele>130.9</ele>
        <time>2020-02-21T11:51:13Z</time>
      </trkpt>
      <trkpt lat="38.8929190" lon="1.2862750">
        <ele>131.0</ele>
        <time>2020-02-21T11:51:14Z</time>
      </trkpt>
      <trkpt lat="38.8929080" lon="1.2862580">
        <ele>131.2</ele>
        <time>2020-02-21T11:51:15Z</time>
      </trkpt>
      <trkpt lat="38.8929040" lon="1.2862360">
        <ele>131.3</ele>
        <time>2020-02-21T11:51:16Z</time>
      </trkpt>
      <trkpt lat="38.8928920" lon="1.2862160">
        <ele>131.4</ele>
        <time>2020-02-21T11:51:17Z</time>
      </trkpt>
      <trkpt lat="38.8928830" lon="1.2862000">
        <ele>131.4</ele>
        <time>2020-02-21T11:51:18Z</time>
      </trkpt>
      <trkpt lat="38.8928760" lon="1.2861650">
        <ele>131.5</ele>
        <time>2020-02-21T11:51:19Z</time>
      </trkpt>
      <trkpt lat="38.8928740" lon="1.2861530">
        <ele>131.6</ele>
        <time>2020-02-21T11:51:20Z</time>
      </trkpt>
      <trkpt lat="38.8928630" lon="1.2861110">
        <ele>131.6</ele>
        <time>2020-02-21T11:51:21Z</time>
      </trkpt>
      <trkpt lat="38.8928580" lon="1.2860960">
        <ele>131.7</ele>
        <time>2020-02-21T11:51:22Z</time>
      </trkpt>
      <trkpt lat="38.8928360" lon="1.2860510">
        <ele>131.7</ele>
        <time>2020-02-21T11:51:23Z</time>
      </trkpt>
      <trkpt lat="38.8928260" lon="1.2860350">
        <ele>131.7</ele>
        <time>2020-02-21T11:51:24Z</time>
      </trkpt>
      <trkpt lat="38.8928060" lon="1.2859940">
        <ele>131.7</ele>
        <time>2020-02-21T11:51:25Z</time>
      </trkpt>
      <trkpt lat="38.8927920" lon="1.2859520">
        <ele>131.7</ele>
        <time>2020-02-21T11:51:26Z</time>
      </trkpt>
      <trkpt lat="38.8927900" lon="1.2859150">
        <ele>131.6</ele>
        <time>2020-02-21T11:51:27Z</time>
      </trkpt>
      <trkpt lat="38.8927760" lon="1.2858790">
        <ele>131.6</ele>
        <time>2020-02-21T11:51:28Z</time>
      </trkpt>
      <trkpt lat="38.8927390" lon="1.2858380">
        <ele>131.4</ele>
        <time>2020-02-21T11:51:29Z</time>
      </trkpt>
      <trkpt lat="38.8927020" lon="1.2857930">
        <ele>131.2</ele>
        <time>2020-02-21T11:51:30Z</time>
      </trkpt>
      <trkpt lat="38.8926580" lon="1.2857430">
        <ele>130.9</ele>
        <time>2020-02-21T11:51:31Z</time>
      </trkpt>
      <trkpt lat="38.8926100" lon="1.2856940">
        <ele>130.5</ele>
        <time>2020-02-21T11:51:32Z</time>
      </trkpt>
      <trkpt lat="38.8925590" lon="1.2856360">
        <ele>130.0</ele>
        <time>2020-02-21T11:51:33Z</time>
      </trkpt>
      <trkpt lat="38.8925110" lon="1.2855730">
        <ele>129.8</ele>
        <time>2020-02-21T11:51:34Z</time>
      </trkpt>
      <trkpt lat="38.8924520" lon="1.2855230">
        <ele>129.7</ele>
        <time>2020-02-21T11:51:35Z</time>
      </trkpt>
      <trkpt lat="38.8924130" lon="1.2854610">
        <ele>129.6</ele>
        <time>2020-02-21T11:51:36Z</time>
      </trkpt>
      <trkpt lat="38.8923620" lon="1.2854060">
        <ele>129.5</ele>
        <time>2020-02-21T11:51:37Z</time>
      </trkpt>
      <trkpt lat="38.8923100" lon="1.2853350">
        <ele>129.4</ele>
        <time>2020-02-21T11:51:38Z</time>
      </trkpt>
      <trkpt lat="38.8922580" lon="1.2852700">
        <ele>129.3</ele>
        <time>2020-02-21T11:51:39Z</time>
      </trkpt>
      <trkpt lat="38.8922080" lon="1.2852150">
        <ele>129.3</ele>
        <time>2020-02-21T11:51:40Z</time>
      </trkpt>
      <trkpt lat="38.8921450" lon="1.2851650">
        <ele>129.3</ele>
        <time>2020-02-21T11:51:41Z</time>
      </trkpt>
      <trkpt lat="38.8921070" lon="1.2851370">
        <ele>129.4</ele>
        <time>2020-02-21T11:51:42Z</time>
      </trkpt>
      <trkpt lat="38.8920790" lon="1.2851090">
        <ele>129.4</ele>
        <time>2020-02-21T11:51:43Z</time>
      </trkpt>
      <trkpt lat="38.8920480" lon="1.2850760">
        <ele>129.5</ele>
        <time>2020-02-21T11:51:44Z</time>
      </trkpt>
      <trkpt lat="38.8920360" lon="1.2850650">
        <ele>129.5</ele>
        <time>2020-02-21T11:51:45Z</time>
      </trkpt>
      <trkpt lat="38.8920000" lon="1.2850160">
        <ele>129.6</ele>
        <time>2020-02-21T11:51:46Z</time>
      </trkpt>
      <trkpt lat="38.8919790" lon="1.2849740">
        <ele>129.7</ele>
        <time>2020-02-21T11:51:47Z</time>
      </trkpt>
      <trkpt lat="38.8919700" lon="1.2849600">
        <ele>129.7</ele>
        <time>2020-02-21T11:51:48Z</time>
      </trkpt>
      <trkpt lat="38.8919320" lon="1.2849150">
        <ele>129.9</ele>
        <time>2020-02-21T11:51:49Z</time>
      </trkpt>
      <trkpt lat="38.8919050" lon="1.2848890">
        <ele>130.0</ele>
        <time>2020-02-21T11:51:50Z</time>
      </trkpt>
      <trkpt lat="38.8918890" lon="1.2848740">
        <ele>130.1</ele>
        <time>2020-02-21T11:51:51Z</time>
      </trkpt>
      <trkpt lat="38.8918570" lon="1.2848520">
        <ele>130.1</ele>
        <time>2020-02-21T11:51:52Z</time>
      </trkpt>
      <trkpt lat="38.8918460" lon="1.2848440">
        <ele>130.2</ele>
        <time>2020-02-21T11:51:53Z</time>
      </trkpt>
      <trkpt lat="38.8918150" lon="1.2848110">
        <ele>130.2</ele>
        <time>2020-02-21T11:51:54Z</time>
      </trkpt>
      <trkpt lat="38.8917860" lon="1.2847760">
        <ele>130.3</ele>
        <time>2020-02-21T11:51:55Z</time>
      </trkpt>
      <trkpt lat="38.8917640" lon="1.2847470">
        <ele>130.4</ele>
        <time>2020-02-21T11:51:56Z</time>
      </trkpt>
      <trkpt lat="38.8917400" lon="1.2846890">
        <ele>130.4</ele>
        <time>2020-02-21T11:51:57Z</time>
      </trkpt>
      <trkpt lat="38.8917290" lon="1.2846420">
        <ele>130.4</ele>
        <time>2020-02-21T11:51:58Z</time>
      </trkpt>
      <trkpt lat="38.8917280" lon="1.2846040">
        <ele>130.4</ele>
        <time>2020-02-21T11:51:59Z</time>
      </trkpt>
      <trkpt lat="38.8917260" lon="1.2845570">
        <ele>130.4</ele>
        <time>2020-02-21T11:52:00Z</time>
      </trkpt>
      <trkpt lat="38.8917300" lon="1.2844970">
        <ele>130.3</ele>
        <time>2020-02-21T11:52:01Z</time>
      </trkpt>
      <trkpt lat="38.8917360" lon="1.2844450">
        <ele>130.2</ele>
        <time>2020-02-21T11:52:02Z</time>
      </trkpt>
      <trkpt lat="38.8917500" lon="1.2843970">
        <ele>130.2</ele>
        <time>2020-02-21T11:52:03Z</time>
      </trkpt>
      <trkpt lat="38.8917590" lon="1.2843450">
        <ele>130.1</ele>
        <time>2020-02-21T11:52:04Z</time>
      </trkpt>
      <trkpt lat="38.8917650" lon="1.2842950">
        <ele>129.9</ele>
        <time>2020-02-21T11:52:05Z</time>
      </trkpt>
      <trkpt lat="38.8917630" lon="1.2842370">
        <ele>129.8</ele>
        <time>2020-02-21T11:52:06Z</time>
      </trkpt>
      <trkpt lat="38.8917650" lon="1.2841850">
        <ele>129.7</ele>
        <time>2020-02-21T11:52:07Z</time>
      </trkpt>
      <trkpt lat="38.8917680" lon="1.2841470">
        <ele>129.5</ele>
        <time>2020-02-21T11:52:08Z</time>
      </trkpt>
      <trkpt lat="38.8917600" lon="1.2841090">
        <ele>129.4</ele>
        <time>2020-02-21T11:52:09Z</time>
      </trkpt>
      <trkpt lat="38.8917590" lon="1.2840980">
        <ele>129.4</ele>
        <time>2020-02-21T11:52:10Z</time>
      </trkpt>
      <trkpt lat="38.8917590" lon="1.2840810">
        <ele>129.3</ele>
        <time>2020-02-21T11:52:11Z</time>
      </trkpt>
      <trkpt lat="38.8917650" lon="1.2840540">
        <ele>129.2</ele>
        <time>2020-02-21T11:52:12Z</time>
      </trkpt>
      <trkpt lat="38.8917780" lon="1.2840160">
        <ele>129.2</ele>
        <time>2020-02-21T11:52:13Z</time>
      </trkpt>
      <trkpt lat="38.8917830" lon="1.2840050">
        <ele>129.2</ele>
        <time>2020-02-21T11:52:14Z</time>
      </trkpt>
      <trkpt lat="38.8917920" lon="1.2839920">
        <ele>129.1</ele>
        <time>2020-02-21T11:52:15Z</time>
      </trkpt>
      <trkpt lat="38.8917990" lon="1.2839840">
        <ele>129.1</ele>
        <time>2020-02-21T11:52:16Z</time>
      </trkpt>
      <trkpt lat="38.8918050" lon="1.2839750">
        <ele>129.1</ele>
        <time>2020-02-21T11:52:17Z</time>
      </trkpt>
      <trkpt lat="38.8918110" lon="1.2839660">
        <ele>129.1</ele>
        <time>2020-02-21T11:52:18Z</time>
      </trkpt>
      <trkpt lat="38.8918340" lon="1.2839310">
        <ele>129.1</ele>
        <time>2020-02-21T11:52:19Z</time>
      </trkpt>
      <trkpt lat="38.8918430" lon="1.2839170">
        <ele>129.2</ele>
        <time>2020-02-21T11:52:20Z</time>
      </trkpt>
      <trkpt lat="38.8918650" lon="1.2838870">
        <ele>129.2</ele>
        <time>2020-02-21T11:52:21Z</time>
      </trkpt>
      <trkpt lat="38.8918800" lon="1.2838570">
        <ele>129.3</ele>
        <time>2020-02-21T11:52:22Z</time>
      </trkpt>
      <trkpt lat="38.8919030" lon="1.2838320">
        <ele>129.4</ele>
        <time>2020-02-21T11:52:23Z</time>
      </trkpt>
      <trkpt lat="38.8919300" lon="1.2837980">
        <ele>129.6</ele>
        <time>2020-02-21T11:52:24Z</time>
      </trkpt>
      <trkpt lat="38.8919380" lon="1.2837860">
        <ele>129.7</ele>
        <time>2020-02-21T11:52:25Z</time>
      </trkpt>
      <trkpt lat="38.8919670" lon="1.2837740">
        <ele>129.9</ele>
        <time>2020-02-21T11:52:26Z</time>
      </trkpt>
      <trkpt lat="38.8920030" lon="1.2837690">
        <ele>130.1</ele>
        <time>2020-02-21T11:52:27Z</time>
      </trkpt>
      <trkpt lat="38.8920390" lon="1.2837670">
        <ele>130.4</ele>
        <time>2020-02-21T11:52:28Z</time>
      </trkpt>
      <trkpt lat="38.8920690" lon="1.2837640">
        <ele>130.6</ele>
        <time>2020-02-21T11:52:29Z</time>
      </trkpt>
      <trkpt lat="38.8920980" lon="1.2837600">
        <ele>130.8</ele>
        <time>2020-02-21T11:52:30Z</time>
      </trkpt>
      <trkpt lat="38.8921290" lon="1.2837630">
        <ele>131.0</ele>
        <time>2020-02-21T11:52:31Z</time>
      </trkpt>
      <trkpt lat="38.8921570" lon="1.2837590">
        <ele>131.2</ele>
        <time>2020-02-21T11:52:32Z</time>
      </trkpt>
      <trkpt lat="38.8921860" lon="1.2837540">
        <ele>131.4</ele>
        <time>2020-02-21T11:52:33Z</time>
      </trkpt>
      <trkpt lat="38.8922190" lon="1.2837470">
        <ele>131.6</ele>
        <time>2020-02-21T11:52:34Z</time>
      </trkpt>
      <trkpt lat="38.8922540" lon="1.2837400">
        <ele>131.8</ele>
        <time>2020-02-21T11:52:35Z</time>
      </trkpt>
      <trkpt lat="38.8922900" lon="1.2837400">
        <ele>132.2</ele>
        <time>2020-02-21T11:52:36Z</time>
      </trkpt>
      <trkpt lat="38.8923280" lon="1.2837310">
        <ele>132.4</ele>
        <time>2020-02-21T11:52:37Z</time>
      </trkpt>
      <trkpt lat="38.8923400" lon="1.2837290">
        <ele>132.5</ele>
        <time>2020-02-21T11:52:38Z</time>
      </trkpt>
      <trkpt lat="38.8923750" lon="1.2837270">
        <ele>132.7</ele>
        <time>2020-02-21T11:52:39Z</time>
      </trkpt>
      <trkpt lat="38.8924170" lon="1.2837220">
        <ele>133.0</ele>
        <time>2020-02-21T11:52:40Z</time>
      </trkpt>
      <trkpt lat="38.8924330" lon="1.2837230">
        <ele>133.2</ele>
        <time>2020-02-21T11:52:41Z</time>
      </trkpt>
      <trkpt lat="38.8924560" lon="1.2837290">
        <ele>133.4</ele>
        <time>2020-02-21T11:52:42Z</time>
      </trkpt>
      <trkpt lat="38.8924680" lon="1.2837280">
        <ele>133.5</ele>
        <time>2020-02-21T11:52:43Z</time>
      </trkpt>
      <trkpt lat="38.8925030" lon="1.2837150">
        <ele>133.9</ele>
        <time>2020-02-21T11:52:44Z</time>
      </trkpt>
      <trkpt lat="38.8925150" lon="1.2837100">
        <ele>134.0</ele>
        <time>2020-02-21T11:52:45Z</time>
      </trkpt>
      <trkpt lat="38.8925510" lon="1.2837120">
        <ele>134.3</ele>
        <time>2020-02-21T11:52:46Z</time>
      </trkpt>
      <trkpt lat="38.8925600" lon="1.2837110">
        <ele>134.4</ele>
        <time>2020-02-21T11:52:47Z</time>
      </trkpt>
      <trkpt lat="38.8925990" lon="1.2836950">
        <ele>134.7</ele>
        <time>2020-02-21T11:52:48Z</time>
      </trkpt>
      <trkpt lat="38.8926150" lon="1.2836880">
        <ele>134.8</ele>
        <time>2020-02-21T11:52:49Z</time>
      </trkpt>
      <trkpt lat="38.8926480" lon="1.2836700">
        <ele>135.0</ele>
        <time>2020-02-21T11:52:50Z</time>
      </trkpt>
      <trkpt lat="38.8926780" lon="1.2836490">
        <ele>135.2</ele>
        <time>2020-02-21T11:52:51Z</time>
      </trkpt>
      <trkpt lat="38.8926860" lon="1.2836420">
        <ele>135.3</ele>
        <time>2020-02-21T11:52:52Z</time>
      </trkpt>
      <trkpt lat="38.8927100" lon="1.2836270">
        <ele>135.4</ele>
        <time>2020-02-21T11:52:53Z</time>
      </trkpt>
      <trkpt lat="38.8927180" lon="1.2836190">
        <ele>135.5</ele>
        <time>2020-02-21T11:52:54Z</time>
      </trkpt>
      <trkpt lat="38.8927450" lon="1.2835950">
        <ele>135.7</ele>
        <time>2020-02-21T11:52:55Z</time>
      </trkpt>
      <trkpt lat="38.8927570" lon="1.2835850">
        <ele>135.8</ele>
        <time>2020-02-21T11:52:56Z</time>
      </trkpt>
      <trkpt lat="38.8927810" lon="1.2835630">
        <ele>136.0</ele>
        <time>2020-02-21T11:52:57Z</time>
      </trkpt>
      <trkpt lat="38.8928120" lon="1.2835430">
        <ele>136.3</ele>
        <time>2020-02-21T11:52:58Z</time>
      </trkpt>
      <trkpt lat="38.8928200" lon="1.2835360">
        <ele>136.3</ele>
        <time>2020-02-21T11:52:59Z</time>
      </trkpt>
      <trkpt lat="38.8928470" lon="1.2835270">
        <ele>136.5</ele>
        <time>2020-02-21T11:53:00Z</time>
      </trkpt>
      <trkpt lat="38.8928830" lon="1.2835090">
        <ele>136.9</ele>
        <time>2020-02-21T11:53:01Z</time>
      </trkpt>
      <trkpt lat="38.8928950" lon="1.2835030">
        <ele>137.0</ele>
        <time>2020-02-21T11:53:02Z</time>
      </trkpt>
      <trkpt lat="38.8929250" lon="1.2834880">
        <ele>137.2</ele>
        <time>2020-02-21T11:53:03Z</time>
      </trkpt>
      <trkpt lat="38.8929350" lon="1.2834780">
        <ele>137.3</ele>
        <time>2020-02-21T11:53:04Z</time>
      </trkpt>
      <trkpt lat="38.8929590" lon="1.2834600">
        <ele>137.5</ele>
        <time>2020-02-21T11:53:05Z</time>
      </trkpt>
      <trkpt lat="38.8929870" lon="1.2834390">
        <ele>137.8</ele>
        <time>2020-02-21T11:53:06Z</time>
      </trkpt>
      <trkpt lat="38.8930150" lon="1.2834190">
        <ele>138.0</ele>
        <time>2020-02-21T11:53:07Z</time>
      </trkpt>
      <trkpt lat="38.8930450" lon="1.2833980">
        <ele>138.4</ele>
        <time>2020-02-21T11:53:08Z</time>
      </trkpt>
      <trkpt lat="38.8930540" lon="1.2833910">
        <ele>138.5</ele>
        <time>2020-02-21T11:53:09Z</time>
      </trkpt>
      <trkpt lat="38.8930860" lon="1.2833730">
        <ele>138.8</ele>
        <time>2020-02-21T11:53:10Z</time>
      </trkpt>
      <trkpt lat="38.8930940" lon="1.2833680">
        <ele>138.9</ele>
        <time>2020-02-21T11:53:11Z</time>
      </trkpt>
      <trkpt lat="38.8931270" lon="1.2833530">
        <ele>139.2</ele>
        <time>2020-02-21T11:53:12Z</time>
      </trkpt>
      <trkpt lat="38.8931370" lon="1.2833450">
        <ele>139.3</ele>
        <time>2020-02-21T11:53:13Z</time>
      </trkpt>
      <trkpt lat="38.8931640" lon="1.2833320">
        <ele>139.5</ele>
        <time>2020-02-21T11:53:14Z</time>
      </trkpt>
      <trkpt lat="38.8931920" lon="1.2833180">
        <ele>139.7</ele>
        <time>2020-02-21T11:53:15Z</time>
      </trkpt>
      <trkpt lat="38.8932260" lon="1.2832990">
        <ele>140.0</ele>
        <time>2020-02-21T11:53:16Z</time>
      </trkpt>
      <trkpt lat="38.8932370" lon="1.2832940">
        <ele>140.1</ele>
        <time>2020-02-21T11:53:17Z</time>
      </trkpt>
      <trkpt lat="38.8932680" lon="1.2832710">
        <ele>140.3</ele>
        <time>2020-02-21T11:53:18Z</time>
      </trkpt>
      <trkpt lat="38.8932790" lon="1.2832640">
        <ele>140.4</ele>
        <time>2020-02-21T11:53:19Z</time>
      </trkpt>
      <trkpt lat="38.8933110" lon="1.2832380">
        <ele>140.7</ele>
        <time>2020-02-21T11:53:20Z</time>
      </trkpt>
      <trkpt lat="38.8933200" lon="1.2832250">
        <ele>140.8</ele>
        <time>2020-02-21T11:53:21Z</time>
      </trkpt>
      <trkpt lat="38.8933400" lon="1.2831970">
        <ele>141.0</ele>
        <time>2020-02-21T11:53:22Z</time>
      </trkpt>
      <trkpt lat="38.8933380" lon="1.2831460">
        <ele>141.3</ele>
        <time>2020-02-21T11:53:23Z</time>
      </trkpt>
      <trkpt lat="38.8933350" lon="1.2831280">
        <ele>141.4</ele>
        <time>2020-02-21T11:53:24Z</time>
      </trkpt>
      <trkpt lat="38.8933320" lon="1.2830900">
        <ele>141.6</ele>
        <time>2020-02-21T11:53:25Z</time>
      </trkpt>
      <trkpt lat="38.8933140" lon="1.2830580">
        <ele>141.4</ele>
        <time>2020-02-21T11:53:26Z</time>
      </trkpt>
      <trkpt lat="38.8932950" lon="1.2830230">
        <ele>141.4</ele>
        <time>2020-02-21T11:53:27Z</time>
      </trkpt>
      <trkpt lat="38.8932720" lon="1.2829950">
        <ele>141.4</ele>
        <time>2020-02-21T11:53:28Z</time>
      </trkpt>
      <trkpt lat="38.8932440" lon="1.2829670">
        <ele>141.4</ele>
        <time>2020-02-21T11:53:29Z</time>
      </trkpt>
      <trkpt lat="38.8932140" lon="1.2829250">
        <ele>141.4</ele>
        <time>2020-02-21T11:53:30Z</time>
      </trkpt>
      <trkpt lat="38.8931780" lon="1.2828880">
        <ele>141.5</ele>
        <time>2020-02-21T11:53:31Z</time>
      </trkpt>
      <trkpt lat="38.8931450" lon="1.2828470">
        <ele>141.5</ele>
        <time>2020-02-21T11:53:32Z</time>
      </trkpt>
      <trkpt lat="38.8931080" lon="1.2828050">
        <ele>141.5</ele>
        <time>2020-02-21T11:53:33Z</time>
      </trkpt>
      <trkpt lat="38.8930700" lon="1.2827660">
        <ele>141.5</ele>
        <time>2020-02-21T11:53:34Z</time>
      </trkpt>
      <trkpt lat="38.8930290" lon="1.2827220">
        <ele>141.5</ele>
        <time>2020-02-21T11:53:35Z</time>
      </trkpt>
      <trkpt lat="38.8929920" lon="1.2826920">
        <ele>141.6</ele>
        <time>2020-02-21T11:53:36Z</time>
      </trkpt>
      <trkpt lat="38.8929580" lon="1.2826550">
        <ele>141.6</ele>
        <time>2020-02-21T11:53:37Z</time>
      </trkpt>
      <trkpt lat="38.8929280" lon="1.2826250">
        <ele>141.6</ele>
        <time>2020-02-21T11:53:38Z</time>
      </trkpt>
      <trkpt lat="38.8928980" lon="1.2825880">
        <ele>141.7</ele>
        <time>2020-02-21T11:53:39Z</time>
      </trkpt>
      <trkpt lat="38.8928700" lon="1.2825470">
        <ele>141.7</ele>
        <time>2020-02-21T11:53:40Z</time>
      </trkpt>
      <trkpt lat="38.8928310" lon="1.2825130">
        <ele>141.8</ele>
        <time>2020-02-21T11:53:41Z</time>
      </trkpt>
      <trkpt lat="38.8928040" lon="1.2824820">
        <ele>141.8</ele>
        <time>2020-02-21T11:53:42Z</time>
      </trkpt>
      <trkpt lat="38.8927850" lon="1.2824520">
        <ele>141.9</ele>
        <time>2020-02-21T11:53:43Z</time>
      </trkpt>
      <trkpt lat="38.8927630" lon="1.2824300">
        <ele>141.9</ele>
        <time>2020-02-21T11:53:44Z</time>
      </trkpt>
      <trkpt lat="38.8927310" lon="1.2824100">
        <ele>142.0</ele>
        <time>2020-02-21T11:53:45Z</time>
      </trkpt>
      <trkpt lat="38.8927070" lon="1.2823730">
        <ele>142.0</ele>
        <time>2020-02-21T11:53:46Z</time>
      </trkpt>
      <trkpt lat="38.8926750" lon="1.2823530">
        <ele>142.1</ele>
        <time>2020-02-21T11:53:47Z</time>
      </trkpt>
      <trkpt lat="38.8926500" lon="1.2823190">
        <ele>142.1</ele>
        <time>2020-02-21T11:53:48Z</time>
      </trkpt>
      <trkpt lat="38.8926200" lon="1.2822790">
        <ele>142.1</ele>
        <time>2020-02-21T11:53:49Z</time>
      </trkpt>
      <trkpt lat="38.8925880" lon="1.2822340">
        <ele>142.1</ele>
        <time>2020-02-21T11:53:50Z</time>
      </trkpt>
      <trkpt lat="38.8925750" lon="1.2821930">
        <ele>142.1</ele>
        <time>2020-02-21T11:53:51Z</time>
      </trkpt>
      <trkpt lat="38.8925590" lon="1.2821570">
        <ele>142.1</ele>
        <time>2020-02-21T11:53:52Z</time>
      </trkpt>
      <trkpt lat="38.8925400" lon="1.2821050">
        <ele>142.1</ele>
        <time>2020-02-21T11:53:53Z</time>
      </trkpt>
      <trkpt lat="38.8925100" lon="1.2820500">
        <ele>142.1</ele>
        <time>2020-02-21T11:53:54Z</time>
      </trkpt>
      <trkpt lat="38.8924880" lon="1.2819970">
        <ele>142.0</ele>
        <time>2020-02-21T11:53:55Z</time>
      </trkpt>
      <trkpt lat="38.8924770" lon="1.2819460">
        <ele>142.0</ele>
        <time>2020-02-21T11:53:56Z</time>
      </trkpt>
      <trkpt lat="38.8924640" lon="1.2818990">
        <ele>141.9</ele>
        <time>2020-02-21T11:53:57Z</time>
      </trkpt>
      <trkpt lat="38.8924530" lon="1.2818350">
        <ele>141.8</ele>
        <time>2020-02-21T11:53:58Z</time>
      </trkpt>
      <trkpt lat="38.8924380" lon="1.2817720">
        <ele>141.8</ele>
        <time>2020-02-21T11:53:59Z</time>
      </trkpt>
      <trkpt lat="38.8924190" lon="1.2817070">
        <ele>141.7</ele>
        <time>2020-02-21T11:54:00Z</time>
      </trkpt>
      <trkpt lat="38.8924150" lon="1.2816430">
        <ele>141.7</ele>
        <time>2020-02-21T11:54:01Z</time>
      </trkpt>
      <trkpt lat="38.8923920" lon="1.2815640">
        <ele>141.7</ele>
        <time>2020-02-21T11:54:02Z</time>
      </trkpt>
      <trkpt lat="38.8923700" lon="1.2814940">
        <ele>141.7</ele>
        <time>2020-02-21T11:54:03Z</time>
      </trkpt>
      <trkpt lat="38.8923560" lon="1.2814340">
        <ele>141.7</ele>
        <time>2020-02-21T11:54:04Z</time>
      </trkpt>
      <trkpt lat="38.8923460" lon="1.2813720">
        <ele>141.7</ele>
        <time>2020-02-21T11:54:05Z</time>
      </trkpt>
      <trkpt lat="38.8923390" lon="1.2813140">
        <ele>141.8</ele>
        <time>2020-02-21T11:54:06Z</time>
      </trkpt>
      <trkpt lat="38.8923200" lon="1.2812630">
        <ele>141.8</ele>
        <time>2020-02-21T11:54:07Z</time>
      </trkpt>
      <trkpt lat="38.8923050" lon="1.2812100">
        <ele>141.9</ele>
        <time>2020-02-21T11:54:08Z</time>
      </trkpt>
      <trkpt lat="38.8922810" lon="1.2811590">
        <ele>142.0</ele>
        <time>2020-02-21T11:54:09Z</time>
      </trkpt>
      <trkpt lat="38.8922600" lon="1.2811190">
        <ele>142.0</ele>
        <time>2020-02-21T11:54:10Z</time>
      </trkpt>
      <trkpt lat="38.8922370" lon="1.2810810">
        <ele>142.1</ele>
        <time>2020-02-21T11:54:11Z</time>
      </trkpt>
      <trkpt lat="38.8922200" lon="1.2810350">
        <ele>142.1</ele>
        <time>2020-02-21T11:54:12Z</time>
      </trkpt>
      <trkpt lat="38.8921960" lon="1.2809880">
        <ele>142.2</ele>
        <time>2020-02-21T11:54:13Z</time>
      </trkpt>
      <trkpt lat="38.8921700" lon="1.2809440">
        <ele>142.3</ele>
        <time>2020-02-21T11:54:14Z</time>
      </trkpt>
      <trkpt lat="38.8921460" lon="1.2808920">
        <ele>142.4</ele>
        <time>2020-02-21T11:54:15Z</time>
      </trkpt>
      <trkpt lat="38.8921260" lon="1.2808500">
        <ele>142.4</ele>
        <time>2020-02-21T11:54:16Z</time>
      </trkpt>
      <trkpt lat="38.8921020" lon="1.2807980">
        <ele>142.5</ele>
        <time>2020-02-21T11:54:17Z</time>
      </trkpt>
      <trkpt lat="38.8920720" lon="1.2807540">
        <ele>142.6</ele>
        <time>2020-02-21T11:54:18Z</time>
      </trkpt>
      <trkpt lat="38.8920460" lon="1.2807090">
        <ele>142.6</ele>
        <time>2020-02-21T11:54:19Z</time>
      </trkpt>
      <trkpt lat="38.8920250" lon="1.2806660">
        <ele>142.7</ele>
        <time>2020-02-21T11:54:20Z</time>
      </trkpt>
      <trkpt lat="38.8919910" lon="1.2806280">
        <ele>142.8</ele>
        <time>2020-02-21T11:54:21Z</time>
      </trkpt>
      <trkpt lat="38.8919640" lon="1.2805820">
        <ele>142.8</ele>
        <time>2020-02-21T11:54:22Z</time>
      </trkpt>
      <trkpt lat="38.8919390" lon="1.2805390">
        <ele>142.9</ele>
        <time>2020-02-21T11:54:23Z</time>
      </trkpt>
      <trkpt lat="38.8919190" lon="1.2804960">
        <ele>143.0</ele>
        <time>2020-02-21T11:54:24Z</time>
      </trkpt>
      <trkpt lat="38.8918960" lon="1.2804560">
        <ele>143.0</ele>
        <time>2020-02-21T11:54:25Z</time>
      </trkpt>
      <trkpt lat="38.8918780" lon="1.2804060">
        <ele>143.1</ele>
        <time>2020-02-21T11:54:26Z</time>
      </trkpt>
      <trkpt lat="38.8918570" lon="1.2803520">
        <ele>143.2</ele>
        <time>2020-02-21T11:54:27Z</time>
      </trkpt>
      <trkpt lat="38.8918360" lon="1.2803050">
        <ele>143.3</ele>
        <time>2020-02-21T11:54:28Z</time>
      </trkpt>
      <trkpt lat="38.8918120" lon="1.2802610">
        <ele>143.3</ele>
        <time>2020-02-21T11:54:29Z</time>
      </trkpt>
      <trkpt lat="38.8917820" lon="1.2802210">
        <ele>143.4</ele>
        <time>2020-02-21T11:54:30Z</time>
      </trkpt>
      <trkpt lat="38.8917430" lon="1.2801850">
        <ele>143.4</ele>
        <time>2020-02-21T11:54:31Z</time>
      </trkpt>
      <trkpt lat="38.8917040" lon="1.2801400">
        <ele>143.5</ele>
        <time>2020-02-21T11:54:32Z</time>
      </trkpt>
      <trkpt lat="38.8916650" lon="1.2800990">
        <ele>143.6</ele>
        <time>2020-02-21T11:54:33Z</time>
      </trkpt>
      <trkpt lat="38.8916330" lon="1.2800580">
        <ele>143.7</ele>
        <time>2020-02-21T11:54:34Z</time>
      </trkpt>
      <trkpt lat="38.8915840" lon="1.2800320">
        <ele>143.8</ele>
        <time>2020-02-21T11:54:35Z</time>
      </trkpt>
      <trkpt lat="38.8915380" lon="1.2800020">
        <ele>143.8</ele>
        <time>2020-02-21T11:54:36Z</time>
      </trkpt>
      <trkpt lat="38.8914890" lon="1.2799670">
        <ele>144.0</ele>
        <time>2020-02-21T11:54:37Z</time>
      </trkpt>
      <trkpt lat="38.8914400" lon="1.2799400">
        <ele>144.1</ele>
        <time>2020-02-21T11:54:38Z</time>
      </trkpt>
      <trkpt lat="38.8914000" lon="1.2799150">
        <ele>144.2</ele>
        <time>2020-02-21T11:54:39Z</time>
      </trkpt>
      <trkpt lat="38.8913480" lon="1.2798840">
        <ele>144.3</ele>
        <time>2020-02-21T11:54:40Z</time>
      </trkpt>
      <trkpt lat="38.8913010" lon="1.2798500">
        <ele>144.5</ele>
        <time>2020-02-21T11:54:41Z</time>
      </trkpt>
      <trkpt lat="38.8912540" lon="1.2798190">
        <ele>144.5</ele>
        <time>2020-02-21T11:54:42Z</time>
      </trkpt>
      <trkpt lat="38.8912090" lon="1.2797900">
        <ele>144.6</ele>
        <time>2020-02-21T11:54:43Z</time>
      </trkpt>
      <trkpt lat="38.8911650" lon="1.2797590">
        <ele>144.6</ele>
        <time>2020-02-21T11:54:44Z</time>
      </trkpt>
      <trkpt lat="38.8911270" lon="1.2797370">
        <ele>144.6</ele>
        <time>2020-02-21T11:54:45Z</time>
      </trkpt>
      <trkpt lat="38.8910860" lon="1.2796980">
        <ele>144.6</ele>
        <time>2020-02-21T11:54:46Z</time>
      </trkpt>
      <trkpt lat="38.8910530" lon="1.2796690">
        <ele>144.6</ele>
        <time>2020-02-21T11:54:47Z</time>
      </trkpt>
      <trkpt lat="38.8910180" lon="1.2796500">
        <ele>144.5</ele>
        <time>2020-02-21T11:54:48Z</time>
      </trkpt>
      <trkpt lat="38.8909800" lon="1.2796210">
        <ele>144.4</ele>
        <time>2020-02-21T11:54:49Z</time>
      </trkpt>
      <trkpt lat="38.8909400" lon="1.2795890">
        <ele>144.3</ele>
        <time>2020-02-21T11:54:50Z</time>
      </trkpt>
      <trkpt lat="38.8909000" lon="1.2795570">
        <ele>144.2</ele>
        <time>2020-02-21T11:54:51Z</time>
      </trkpt>
      <trkpt lat="38.8908560" lon="1.2795220">
        <ele>144.0</ele>
        <time>2020-02-21T11:54:52Z</time>
      </trkpt>
      <trkpt lat="38.8908090" lon="1.2794880">
        <ele>143.9</ele>
        <time>2020-02-21T11:54:53Z</time>
      </trkpt>
      <trkpt lat="38.8907640" lon="1.2794610">
        <ele>143.8</ele>
        <time>2020-02-21T11:54:54Z</time>
      </trkpt>
      <trkpt lat="38.8907200" lon="1.2794310">
        <ele>143.7</ele>
        <time>2020-02-21T11:54:55Z</time>
      </trkpt>
      <trkpt lat="38.8906830" lon="1.2793950">
        <ele>143.7</ele>
        <time>2020-02-21T11:54:56Z</time>
      </trkpt>
      <trkpt lat="38.8906420" lon="1.2793630">
        <ele>143.7</ele>
        <time>2020-02-21T11:54:57Z</time>
      </trkpt>
      <trkpt lat="38.8905960" lon="1.2793220">
        <ele>143.6</ele>
        <time>2020-02-21T11:54:58Z</time>
      </trkpt>
      <trkpt lat="38.8905520" lon="1.2792890">
        <ele>143.7</ele>
        <time>2020-02-21T11:54:59Z</time>
      </trkpt>
      <trkpt lat="38.8905150" lon="1.2792620">
        <ele>143.7</ele>
        <time>2020-02-21T11:55:00Z</time>
      </trkpt>
      <trkpt lat="38.8904690" lon="1.2792510">
        <ele>143.8</ele>
        <time>2020-02-21T11:55:01Z</time>
      </trkpt>
      <trkpt lat="38.8904310" lon="1.2792130">
        <ele>143.9</ele>
        <time>2020-02-21T11:55:02Z</time>
      </trkpt>
      <trkpt lat="38.8903910" lon="1.2791830">
        <ele>144.0</ele>
        <time>2020-02-21T11:55:03Z</time>
      </trkpt>
      <trkpt lat="38.8903510" lon="1.2791620">
        <ele>144.1</ele>
        <time>2020-02-21T11:55:04Z</time>
      </trkpt>
      <trkpt lat="38.8903150" lon="1.2791260">
        <ele>144.3</ele>
        <time>2020-02-21T11:55:05Z</time>
      </trkpt>
      <trkpt lat="38.8902840" lon="1.2791010">
        <ele>144.4</ele>
        <time>2020-02-21T11:55:06Z</time>
      </trkpt>
      <trkpt lat="38.8902570" lon="1.2790790">
        <ele>144.2</ele>
        <time>2020-02-21T11:55:07Z</time>
      </trkpt>
      <trkpt lat="38.8902270" lon="1.2790430">
        <ele>144.0</ele>
        <time>2020-02-21T11:55:08Z</time>
      </trkpt>
      <trkpt lat="38.8902170" lon="1.2790290">
        <ele>143.9</ele>
        <time>2020-02-21T11:55:09Z</time>
      </trkpt>
      <trkpt lat="38.8901990" lon="1.2789920">
        <ele>143.7</ele>
        <time>2020-02-21T11:55:10Z</time>
      </trkpt>
      <trkpt lat="38.8901740" lon="1.2789530">
        <ele>143.5</ele>
        <time>2020-02-21T11:55:11Z</time>
      </trkpt>
      <trkpt lat="38.8901490" lon="1.2789040">
        <ele>143.2</ele>
        <time>2020-02-21T11:55:12Z</time>
      </trkpt>
      <trkpt lat="38.8901290" lon="1.2788620">
        <ele>143.0</ele>
        <time>2020-02-21T11:55:13Z</time>
      </trkpt>
      <trkpt lat="38.8901090" lon="1.2788260">
        <ele>142.7</ele>
        <time>2020-02-21T11:55:14Z</time>
      </trkpt>
      <trkpt lat="38.8900800" lon="1.2787780">
        <ele>142.4</ele>
        <time>2020-02-21T11:55:15Z</time>
      </trkpt>
      <trkpt lat="38.8900590" lon="1.2787270">
        <ele>142.1</ele>
        <time>2020-02-21T11:55:16Z</time>
      </trkpt>
      <trkpt lat="38.8900370" lon="1.2786710">
        <ele>141.8</ele>
        <time>2020-02-21T11:55:17Z</time>
      </trkpt>
      <trkpt lat="38.8900090" lon="1.2786180">
        <ele>141.5</ele>
        <time>2020-02-21T11:55:18Z</time>
      </trkpt>
      <trkpt lat="38.8899820" lon="1.2785640">
        <ele>141.2</ele>
        <time>2020-02-21T11:55:19Z</time>
      </trkpt>
      <trkpt lat="38.8899530" lon="1.2785060">
        <ele>140.9</ele>
        <time>2020-02-21T11:55:20Z</time>
      </trkpt>
      <trkpt lat="38.8899280" lon="1.2784490">
        <ele>140.7</ele>
        <time>2020-02-21T11:55:21Z</time>
      </trkpt>
      <trkpt lat="38.8899090" lon="1.2784020">
        <ele>140.6</ele>
        <time>2020-02-21T11:55:22Z</time>
      </trkpt>
      <trkpt lat="38.8898860" lon="1.2783780">
        <ele>140.5</ele>
        <time>2020-02-21T11:55:23Z</time>
      </trkpt>
      <trkpt lat="38.8898420" lon="1.2783790">
        <ele>140.3</ele>
        <time>2020-02-21T11:55:24Z</time>
      </trkpt>
      <trkpt lat="38.8898210" lon="1.2783770">
        <ele>140.3</ele>
        <time>2020-02-21T11:55:25Z</time>
      </trkpt>
      <trkpt lat="38.8897690" lon="1.2783770">
        <ele>140.1</ele>
        <time>2020-02-21T11:55:26Z</time>
      </trkpt>
      <trkpt lat="38.8897130" lon="1.2783660">
        <ele>139.7</ele>
        <time>2020-02-21T11:55:27Z</time>
      </trkpt>
      <trkpt lat="38.8896520" lon="1.2783460">
        <ele>139.2</ele>
        <time>2020-02-21T11:55:28Z</time>
      </trkpt>
      <trkpt lat="38.8895850" lon="1.2783320">
        <ele>138.9</ele>
        <time>2020-02-21T11:55:29Z</time>
      </trkpt>
      <trkpt lat="38.8895170" lon="1.2783100">
        <ele>138.4</ele>
        <time>2020-02-21T11:55:30Z</time>
      </trkpt>
      <trkpt lat="38.8894490" lon="1.2782920">
        <ele>137.9</ele>
        <time>2020-02-21T11:55:31Z</time>
      </trkpt>
      <trkpt lat="38.8893830" lon="1.2782720">
        <ele>137.2</ele>
        <time>2020-02-21T11:55:32Z</time>
      </trkpt>
      <trkpt lat="38.8893270" lon="1.2782450">
        <ele>136.7</ele>
        <time>2020-02-21T11:55:33Z</time>
      </trkpt>
      <trkpt lat="38.8892430" lon="1.2781690">
        <ele>136.0</ele>
        <time>2020-02-21T11:55:34Z</time>
      </trkpt>
      <trkpt lat="38.8891910" lon="1.2781180">
        <ele>135.4</ele>
        <time>2020-02-21T11:55:35Z</time>
      </trkpt>
      <trkpt lat="38.8891280" lon="1.2780680">
        <ele>134.9</ele>
        <time>2020-02-21T11:55:36Z</time>
      </trkpt>
      <trkpt lat="38.8890400" lon="1.2780620">
        <ele>134.4</ele>
        <time>2020-02-21T11:55:37Z</time>
      </trkpt>
      <trkpt lat="38.8889550" lon="1.2780460">
        <ele>133.6</ele>
        <time>2020-02-21T11:55:38Z</time>
      </trkpt>
      <trkpt lat="38.8888740" lon="1.2780290">
        <ele>133.0</ele>
        <time>2020-02-21T11:55:39Z</time>
      </trkpt>
      <trkpt lat="38.8888040" lon="1.2780060">
        <ele>132.4</ele>
        <time>2020-02-21T11:55:40Z</time>
      </trkpt>
      <trkpt lat="38.8887430" lon="1.2779640">
        <ele>132.1</ele>
        <time>2020-02-21T11:55:41Z</time>
      </trkpt>
      <trkpt lat="38.8886960" lon="1.2779160">
        <ele>132.0</ele>
        <time>2020-02-21T11:55:42Z</time>
      </trkpt>
      <trkpt lat="38.8886310" lon="1.2778710">
        <ele>131.6</ele>
        <time>2020-02-21T11:55:43Z</time>
      </trkpt>
      <trkpt lat="38.8885630" lon="1.2778420">
        <ele>131.3</ele>
        <time>2020-02-21T11:55:44Z</time>
      </trkpt>
      <trkpt lat="38.8884940" lon="1.2778330">
        <ele>130.7</ele>
        <time>2020-02-21T11:55:45Z</time>
      </trkpt>
      <trkpt lat="38.8884310" lon="1.2778180">
        <ele>130.5</ele>
        <time>2020-02-21T11:55:46Z</time>
      </trkpt>
      <trkpt lat="38.8883770" lon="1.2777770">
        <ele>130.0</ele>
        <time>2020-02-21T11:55:47Z</time>
      </trkpt>
      <trkpt lat="38.8883180" lon="1.2777320">
        <ele>129.4</ele>
        <time>2020-02-21T11:55:48Z</time>
      </trkpt>
      <trkpt lat="38.8882630" lon="1.2776830">
        <ele>129.2</ele>
        <time>2020-02-21T11:55:49Z</time>
      </trkpt>
      <trkpt lat="38.8882120" lon="1.2776240">
        <ele>128.7</ele>
        <time>2020-02-21T11:55:50Z</time>
      </trkpt>
      <trkpt lat="38.8881680" lon="1.2775610">
        <ele>128.4</ele>
        <time>2020-02-21T11:55:51Z</time>
      </trkpt>
      <trkpt lat="38.8881200" lon="1.2775170">
        <ele>127.8</ele>
        <time>2020-02-21T11:55:52Z</time>
      </trkpt>
      <trkpt lat="38.8880810" lon="1.2774950">
        <ele>127.4</ele>
        <time>2020-02-21T11:55:53Z</time>
      </trkpt>
      <trkpt lat="38.8880560" lon="1.2774860">
        <ele>127.0</ele>
        <time>2020-02-21T11:55:54Z</time>
      </trkpt>
      <trkpt lat="38.8880190" lon="1.2774790">
        <ele>126.7</ele>
        <time>2020-02-21T11:55:55Z</time>
      </trkpt>
      <trkpt lat="38.8879800" lon="1.2774680">
        <ele>126.3</ele>
        <time>2020-02-21T11:55:56Z</time>
      </trkpt>
      <trkpt lat="38.8879400" lon="1.2774580">
        <ele>126.0</ele>
        <time>2020-02-21T11:55:57Z</time>
      </trkpt>
      <trkpt lat="38.8879000" lon="1.2774450">
        <ele>125.7</ele>
        <time>2020-02-21T11:55:58Z</time>
      </trkpt>
      <trkpt lat="38.8878550" lon="1.2774170">
        <ele>124.9</ele>
        <time>2020-02-21T11:55:59Z</time>
      </trkpt>
      <trkpt lat="38.8878030" lon="1.2773870">
        <ele>124.5</ele>
        <time>2020-02-21T11:56:00Z</time>
      </trkpt>
      <trkpt lat="38.8877440" lon="1.2773610">
        <ele>123.8</ele>
        <time>2020-02-21T11:56:01Z</time>
      </trkpt>
      <trkpt lat="38.8876900" lon="1.2773270">
        <ele>123.1</ele>
        <time>2020-02-21T11:56:02Z</time>
      </trkpt>
      <trkpt lat="38.8876290" lon="1.2772940">
        <ele>122.7</ele>
        <time>2020-02-21T11:56:03Z</time>
      </trkpt>
      <trkpt lat="38.8875710" lon="1.2772550">
        <ele>122.1</ele>
        <time>2020-02-21T11:56:04Z</time>
      </trkpt>
      <trkpt lat="38.8875080" lon="1.2772140">
        <ele>121.6</ele>
        <time>2020-02-21T11:56:05Z</time>
      </trkpt>
      <trkpt lat="38.8874450" lon="1.2771760">
        <ele>121.2</ele>
        <time>2020-02-21T11:56:06Z</time>
      </trkpt>
      <trkpt lat="38.8873820" lon="1.2771410">
        <ele>120.8</ele>
        <time>2020-02-21T11:56:07Z</time>
      </trkpt>
      <trkpt lat="38.8873240" lon="1.2771050">
        <ele>120.4</ele>
        <time>2020-02-21T11:56:08Z</time>
      </trkpt>
      <trkpt lat="38.8872640" lon="1.2770710">
        <ele>120.3</ele>
        <time>2020-02-21T11:56:09Z</time>
      </trkpt>
      <trkpt lat="38.8872160" lon="1.2770410">
        <ele>119.7</ele>
        <time>2020-02-21T11:56:10Z</time>
      </trkpt>
      <trkpt lat="38.8871810" lon="1.2770230">
        <ele>119.5</ele>
        <time>2020-02-21T11:56:11Z</time>
      </trkpt>
      <trkpt lat="38.8871510" lon="1.2770100">
        <ele>119.2</ele>
        <time>2020-02-21T11:56:12Z</time>
      </trkpt>
      <trkpt lat="38.8871310" lon="1.2769810">
        <ele>119.3</ele>
        <time>2020-02-21T11:56:13Z</time>
      </trkpt>
      <trkpt lat="38.8871100" lon="1.2769400">
        <ele>119.2</ele>
        <time>2020-02-21T11:56:14Z</time>
      </trkpt>
      <trkpt lat="38.8870850" lon="1.2769000">
        <ele>119.1</ele>
        <time>2020-02-21T11:56:15Z</time>
      </trkpt>
      <trkpt lat="38.8870560" lon="1.2768590">
        <ele>119.0</ele>
        <time>2020-02-21T11:56:16Z</time>
      </trkpt>
      <trkpt lat="38.8870280" lon="1.2768170">
        <ele>119.1</ele>
        <time>2020-02-21T11:56:17Z</time>
      </trkpt>
      <trkpt lat="38.8869960" lon="1.2767730">
        <ele>119.1</ele>
        <time>2020-02-21T11:56:18Z</time>
      </trkpt>
      <trkpt lat="38.8869580" lon="1.2767290">
        <ele>119.0</ele>
        <time>2020-02-21T11:56:19Z</time>
      </trkpt>
      <trkpt lat="38.8869200" lon="1.2766860">
        <ele>118.8</ele>
        <time>2020-02-21T11:56:20Z</time>
      </trkpt>
      <trkpt lat="38.8868810" lon="1.2766420">
        <ele>118.7</ele>
        <time>2020-02-21T11:56:21Z</time>
      </trkpt>
      <trkpt lat="38.8868330" lon="1.2766000">
        <ele>118.5</ele>
        <time>2020-02-21T11:56:22Z</time>
      </trkpt>
      <trkpt lat="38.8867960" lon="1.2765400">
        <ele>118.3</ele>
        <time>2020-02-21T11:56:23Z</time>
      </trkpt>
      <trkpt lat="38.8867520" lon="1.2764850">
        <ele>118.0</ele>
        <time>2020-02-21T11:56:24Z</time>
      </trkpt>
      <trkpt lat="38.8867080" lon="1.2764270">
        <ele>117.8</ele>
        <time>2020-02-21T11:56:25Z</time>
      </trkpt>
      <trkpt lat="38.8866680" lon="1.2763680">
        <ele>117.6</ele>
        <time>2020-02-21T11:56:26Z</time>
      </trkpt>
      <trkpt lat="38.8866240" lon="1.2763190">
        <ele>117.6</ele>
        <time>2020-02-21T11:56:27Z</time>
      </trkpt>
      <trkpt lat="38.8865830" lon="1.2762700">
        <ele>117.6</ele>
        <time>2020-02-21T11:56:28Z</time>
      </trkpt>
      <trkpt lat="38.8865360" lon="1.2762280">
        <ele>117.7</ele>
        <time>2020-02-21T11:56:29Z</time>
      </trkpt>
      <trkpt lat="38.8864940" lon="1.2761820">
        <ele>117.8</ele>
        <time>2020-02-21T11:56:30Z</time>
      </trkpt>
      <trkpt lat="38.8864480" lon="1.2761410">
        <ele>117.9</ele>
        <time>2020-02-21T11:56:31Z</time>
      </trkpt>
      <trkpt lat="38.8864080" lon="1.2760880">
        <ele>118.0</ele>
        <time>2020-02-21T11:56:32Z</time>
      </trkpt>
      <trkpt lat="38.8863690" lon="1.2760300">
        <ele>118.2</ele>
        <time>2020-02-21T11:56:33Z</time>
      </trkpt>
      <trkpt lat="38.8863280" lon="1.2759770">
        <ele>118.2</ele>
        <time>2020-02-21T11:56:34Z</time>
      </trkpt>
      <trkpt lat="38.8862910" lon="1.2759260">
        <ele>118.2</ele>
        <time>2020-02-21T11:56:35Z</time>
      </trkpt>
      <trkpt lat="38.8862520" lon="1.2758770">
        <ele>118.2</ele>
        <time>2020-02-21T11:56:36Z</time>
      </trkpt>
      <trkpt lat="38.8862090" lon="1.2758380">
        <ele>118.3</ele>
        <time>2020-02-21T11:56:37Z</time>
      </trkpt>
      <trkpt lat="38.8861650" lon="1.2757980">
        <ele>118.3</ele>
        <time>2020-02-21T11:56:38Z</time>
      </trkpt>
      <trkpt lat="38.8861230" lon="1.2757560">
        <ele>118.4</ele>
        <time>2020-02-21T11:56:39Z</time>
      </trkpt>
      <trkpt lat="38.8860700" lon="1.2757300">
        <ele>118.4</ele>
        <time>2020-02-21T11:56:40Z</time>
      </trkpt>
      <trkpt lat="38.8860110" lon="1.2757120">
        <ele>118.1</ele>
        <time>2020-02-21T11:56:41Z</time>
      </trkpt>
      <trkpt lat="38.8859550" lon="1.2756790">
        <ele>118.1</ele>
        <time>2020-02-21T11:56:42Z</time>
      </trkpt>
      <trkpt lat="38.8859130" lon="1.2756340">
        <ele>118.1</ele>
        <time>2020-02-21T11:56:43Z</time>
      </trkpt>
      <trkpt lat="38.8858790" lon="1.2755810">
        <ele>118.1</ele>
        <time>2020-02-21T11:56:44Z</time>
      </trkpt>
      <trkpt lat="38.8858380" lon="1.2755340">
        <ele>118.1</ele>
        <time>2020-02-21T11:56:45Z</time>
      </trkpt>
      <trkpt lat="38.8857910" lon="1.2754980">
        <ele>118.0</ele>
        <time>2020-02-21T11:56:46Z</time>
      </trkpt>
      <trkpt lat="38.8857400" lon="1.2754730">
        <ele>117.6</ele>
        <time>2020-02-21T11:56:47Z</time>
      </trkpt>
      <trkpt lat="38.8856980" lon="1.2754350">
        <ele>117.4</ele>
        <time>2020-02-21T11:56:48Z</time>
      </trkpt>
      <trkpt lat="38.8856520" lon="1.2754070">
        <ele>116.8</ele>
        <time>2020-02-21T11:56:49Z</time>
      </trkpt>
      <trkpt lat="38.8856190" lon="1.2753550">
        <ele>116.6</ele>
        <time>2020-02-21T11:56:50Z</time>
      </trkpt>
      <trkpt lat="38.8855800" lon="1.2753160">
        <ele>116.2</ele>
        <time>2020-02-21T11:56:51Z</time>
      </trkpt>
      <trkpt lat="38.8855490" lon="1.2752730">
        <ele>116.0</ele>
        <time>2020-02-21T11:56:52Z</time>
      </trkpt>
      <trkpt lat="38.8855280" lon="1.2752270">
        <ele>116.1</ele>
        <time>2020-02-21T11:56:53Z</time>
      </trkpt>
      <trkpt lat="38.8855010" lon="1.2751860">
        <ele>115.9</ele>
        <time>2020-02-21T11:56:54Z</time>
      </trkpt>
      <trkpt lat="38.8854810" lon="1.2751390">
        <ele>115.7</ele>
        <time>2020-02-21T11:56:55Z</time>
      </trkpt>
      <trkpt lat="38.8854620" lon="1.2750930">
        <ele>115.9</ele>
        <time>2020-02-21T11:56:56Z</time>
      </trkpt>
      <trkpt lat="38.8854400" lon="1.2750500">
        <ele>115.7</ele>
        <time>2020-02-21T11:56:57Z</time>
      </trkpt>
      <trkpt lat="38.8854090" lon="1.2750120">
        <ele>115.6</ele>
        <time>2020-02-21T11:56:58Z</time>
      </trkpt>
      <trkpt lat="38.8853850" lon="1.2749620">
        <ele>115.5</ele>
        <time>2020-02-21T11:56:59Z</time>
      </trkpt>
      <trkpt lat="38.8853560" lon="1.2749170">
        <ele>115.6</ele>
        <time>2020-02-21T11:57:00Z</time>
      </trkpt>
      <trkpt lat="38.8853260" lon="1.2748700">
        <ele>115.5</ele>
        <time>2020-02-21T11:57:01Z</time>
      </trkpt>
      <trkpt lat="38.8852980" lon="1.2748200">
        <ele>115.3</ele>
        <time>2020-02-21T11:57:02Z</time>
      </trkpt>
      <trkpt lat="38.8852640" lon="1.2747720">
        <ele>115.2</ele>
        <time>2020-02-21T11:57:03Z</time>
      </trkpt>
      <trkpt lat="38.8852250" lon="1.2747270">
        <ele>115.1</ele>
        <time>2020-02-21T11:57:04Z</time>
      </trkpt>
      <trkpt lat="38.8851920" lon="1.2746780">
        <ele>115.0</ele>
        <time>2020-02-21T11:57:05Z</time>
      </trkpt>
      <trkpt lat="38.8851640" lon="1.2746220">
        <ele>115.1</ele>
        <time>2020-02-21T11:57:06Z</time>
      </trkpt>
      <trkpt lat="38.8851320" lon="1.2745700">
        <ele>115.1</ele>
        <time>2020-02-21T11:57:07Z</time>
      </trkpt>
      <trkpt lat="38.8850980" lon="1.2745220">
        <ele>115.0</ele>
        <time>2020-02-21T11:57:08Z</time>
      </trkpt>
      <trkpt lat="38.8850600" lon="1.2744820">
        <ele>115.0</ele>
        <time>2020-02-21T11:57:09Z</time>
      </trkpt>
      <trkpt lat="38.8850140" lon="1.2744500">
        <ele>114.9</ele>
        <time>2020-02-21T11:57:10Z</time>
      </trkpt>
      <trkpt lat="38.8849700" lon="1.2744210">
        <ele>114.7</ele>
        <time>2020-02-21T11:57:11Z</time>
      </trkpt>
      <trkpt lat="38.8849360" lon="1.2743780">
        <ele>114.8</ele>
        <time>2020-02-21T11:57:12Z</time>
      </trkpt>
      <trkpt lat="38.8849020" lon="1.2743390">
        <ele>114.9</ele>
        <time>2020-02-21T11:57:13Z</time>
      </trkpt>
      <trkpt lat="38.8848840" lon="1.2742940">
        <ele>114.9</ele>
        <time>2020-02-21T11:57:14Z</time>
      </trkpt>
      <trkpt lat="38.8848650" lon="1.2742500">
        <ele>115.0</ele>
        <time>2020-02-21T11:57:15Z</time>
      </trkpt>
      <trkpt lat="38.8848550" lon="1.2742000">
        <ele>115.2</ele>
        <time>2020-02-21T11:57:16Z</time>
      </trkpt>
      <trkpt lat="38.8848500" lon="1.2741520">
        <ele>115.3</ele>
        <time>2020-02-21T11:57:17Z</time>
      </trkpt>
      <trkpt lat="38.8848380" lon="1.2741050">
        <ele>115.5</ele>
        <time>2020-02-21T11:57:18Z</time>
      </trkpt>
      <trkpt lat="38.8848250" lon="1.2740610">
        <ele>115.6</ele>
        <time>2020-02-21T11:57:19Z</time>
      </trkpt>
      <trkpt lat="38.8848120" lon="1.2740180">
        <ele>115.7</ele>
        <time>2020-02-21T11:57:20Z</time>
      </trkpt>
      <trkpt lat="38.8848030" lon="1.2739770">
        <ele>115.8</ele>
        <time>2020-02-21T11:57:21Z</time>
      </trkpt>
      <trkpt lat="38.8847900" lon="1.2739380">
        <ele>116.0</ele>
        <time>2020-02-21T11:57:22Z</time>
      </trkpt>
      <trkpt lat="38.8847790" lon="1.2738990">
        <ele>115.9</ele>
        <time>2020-02-21T11:57:23Z</time>
      </trkpt>
      <trkpt lat="38.8847730" lon="1.2738570">
        <ele>115.9</ele>
        <time>2020-02-21T11:57:24Z</time>
      </trkpt>
      <trkpt lat="38.8847740" lon="1.2738120">
        <ele>116.1</ele>
        <time>2020-02-21T11:57:25Z</time>
      </trkpt>
      <trkpt lat="38.8847670" lon="1.2737670">
        <ele>116.2</ele>
        <time>2020-02-21T11:57:26Z</time>
      </trkpt>
      <trkpt lat="38.8847620" lon="1.2737220">
        <ele>116.3</ele>
        <time>2020-02-21T11:57:27Z</time>
      </trkpt>
      <trkpt lat="38.8847590" lon="1.2736750">
        <ele>116.3</ele>
        <time>2020-02-21T11:57:28Z</time>
      </trkpt>
      <trkpt lat="38.8847420" lon="1.2736300">
        <ele>116.1</ele>
        <time>2020-02-21T11:57:29Z</time>
      </trkpt>
      <trkpt lat="38.8847290" lon="1.2735840">
        <ele>116.1</ele>
        <time>2020-02-21T11:57:30Z</time>
      </trkpt>
      <trkpt lat="38.8847210" lon="1.2735380">
        <ele>116.1</ele>
        <time>2020-02-21T11:57:31Z</time>
      </trkpt>
      <trkpt lat="38.8847090" lon="1.2734930">
        <ele>115.9</ele>
        <time>2020-02-21T11:57:32Z</time>
      </trkpt>
      <trkpt lat="38.8846920" lon="1.2734520">
        <ele>115.9</ele>
        <time>2020-02-21T11:57:33Z</time>
      </trkpt>
      <trkpt lat="38.8846700" lon="1.2734140">
        <ele>115.6</ele>
        <time>2020-02-21T11:57:34Z</time>
      </trkpt>
      <trkpt lat="38.8846490" lon="1.2733760">
        <ele>115.4</ele>
        <time>2020-02-21T11:57:35Z</time>
      </trkpt>
      <trkpt lat="38.8846280" lon="1.2733370">
        <ele>115.4</ele>
        <time>2020-02-21T11:57:36Z</time>
      </trkpt>
      <trkpt lat="38.8846020" lon="1.2733010">
        <ele>115.2</ele>
        <time>2020-02-21T11:57:37Z</time>
      </trkpt>
      <trkpt lat="38.8845860" lon="1.2732540">
        <ele>115.2</ele>
        <time>2020-02-21T11:57:38Z</time>
      </trkpt>
      <trkpt lat="38.8845670" lon="1.2732110">
        <ele>115.0</ele>
        <time>2020-02-21T11:57:39Z</time>
      </trkpt>
      <trkpt lat="38.8845510" lon="1.2731650">
        <ele>114.7</ele>
        <time>2020-02-21T11:57:40Z</time>
      </trkpt>
      <trkpt lat="38.8845490" lon="1.2731160">
        <ele>114.7</ele>
        <time>2020-02-21T11:57:41Z</time>
      </trkpt>
      <trkpt lat="38.8845730" lon="1.2730620">
        <ele>115.0</ele>
        <time>2020-02-21T11:57:42Z</time>
      </trkpt>
      <trkpt lat="38.8845850" lon="1.2730010">
        <ele>115.0</ele>
        <time>2020-02-21T11:57:43Z</time>
      </trkpt>
      <trkpt lat="38.8845890" lon="1.2729420">
        <ele>115.3</ele>
        <time>2020-02-21T11:57:44Z</time>
      </trkpt>
      <trkpt lat="38.8846000" lon="1.2728870">
        <ele>115.2</ele>
        <time>2020-02-21T11:57:45Z</time>
      </trkpt>
      <trkpt lat="38.8846200" lon="1.2728400">
        <ele>115.5</ele>
        <time>2020-02-21T11:57:46Z</time>
      </trkpt>
      <trkpt lat="38.8846370" lon="1.2727910">
        <ele>115.5</ele>
        <time>2020-02-21T11:57:47Z</time>
      </trkpt>
      <trkpt lat="38.8846610" lon="1.2727430">
        <ele>115.9</ele>
        <time>2020-02-21T11:57:48Z</time>
      </trkpt>
      <trkpt lat="38.8846800" lon="1.2726910">
        <ele>115.9</ele>
        <time>2020-02-21T11:57:49Z</time>
      </trkpt>
      <trkpt lat="38.8847040" lon="1.2726440">
        <ele>116.4</ele>
        <time>2020-02-21T11:57:50Z</time>
      </trkpt>
      <trkpt lat="38.8847320" lon="1.2725990">
        <ele>116.8</ele>
        <time>2020-02-21T11:57:51Z</time>
      </trkpt>
      <trkpt lat="38.8847610" lon="1.2725520">
        <ele>117.2</ele>
        <time>2020-02-21T11:57:52Z</time>
      </trkpt>
      <trkpt lat="38.8847860" lon="1.2725000">
        <ele>117.3</ele>
        <time>2020-02-21T11:57:53Z</time>
      </trkpt>
      <trkpt lat="38.8848110" lon="1.2724470">
        <ele>117.6</ele>
        <time>2020-02-21T11:57:54Z</time>
      </trkpt>
      <trkpt lat="38.8848590" lon="1.2723960">
        <ele>118.2</ele>
        <time>2020-02-21T11:57:55Z</time>
      </trkpt>
      <trkpt lat="38.8848550" lon="1.2723370">
        <ele>118.2</ele>
        <time>2020-02-21T11:57:56Z</time>
      </trkpt>
      <trkpt lat="38.8848390" lon="1.2722770">
        <ele>117.9</ele>
        <time>2020-02-21T11:57:57Z</time>
      </trkpt>
      <trkpt lat="38.8847980" lon="1.2722360">
        <ele>117.7</ele>
        <time>2020-02-21T11:57:58Z</time>
      </trkpt>
      <trkpt lat="38.8847730" lon="1.2721850">
        <ele>117.5</ele>
        <time>2020-02-21T11:57:59Z</time>
      </trkpt>
      <trkpt lat="38.8847370" lon="1.2721490">
        <ele>117.3</ele>
        <time>2020-02-21T11:58:00Z</time>
      </trkpt>
      <trkpt lat="38.8847130" lon="1.2720950">
        <ele>117.1</ele>
        <time>2020-02-21T11:58:01Z</time>
      </trkpt>
      <trkpt lat="38.8846970" lon="1.2720390">
        <ele>117.2</ele>
        <time>2020-02-21T11:58:02Z</time>
      </trkpt>
      <trkpt lat="38.8846690" lon="1.2719970">
        <ele>117.0</ele>
        <time>2020-02-21T11:58:03Z</time>
      </trkpt>
      <trkpt lat="38.8846430" lon="1.2719650">
        <ele>116.9</ele>
        <time>2020-02-21T11:58:04Z</time>
      </trkpt>
      <trkpt lat="38.8846350" lon="1.2719260">
        <ele>116.9</ele>
        <time>2020-02-21T11:58:05Z</time>
      </trkpt>
      <trkpt lat="38.8846120" lon="1.2719050">
        <ele>116.9</ele>
        <time>2020-02-21T11:58:06Z</time>
      </trkpt>
      <trkpt lat="38.8845940" lon="1.2718780">
        <ele>117.0</ele>
        <time>2020-02-21T11:58:07Z</time>
      </trkpt>
      <trkpt lat="38.8845780" lon="1.2718380">
        <ele>117.0</ele>
        <time>2020-02-21T11:58:08Z</time>
      </trkpt>
      <trkpt lat="38.8845750" lon="1.2718230">
        <ele>117.0</ele>
        <time>2020-02-21T11:58:09Z</time>
      </trkpt>
      <trkpt lat="38.8845630" lon="1.2717820">
        <ele>117.2</ele>
        <time>2020-02-21T11:58:10Z</time>
      </trkpt>
      <trkpt lat="38.8845570" lon="1.2717690">
        <ele>117.2</ele>
        <time>2020-02-21T11:58:11Z</time>
      </trkpt>
      <trkpt lat="38.8845410" lon="1.2717270">
        <ele>117.3</ele>
        <time>2020-02-21T11:58:12Z</time>
      </trkpt>
      <trkpt lat="38.8845310" lon="1.2717170">
        <ele>117.2</ele>
        <time>2020-02-21T11:58:13Z</time>
      </trkpt>
      <trkpt lat="38.8845060" lon="1.2716960">
        <ele>117.0</ele>
        <time>2020-02-21T11:58:14Z</time>
      </trkpt>
      <trkpt lat="38.8844750" lon="1.2716750">
        <ele>116.7</ele>
        <time>2020-02-21T11:58:15Z</time>
      </trkpt>
      <trkpt lat="38.8844460" lon="1.2716560">
        <ele>116.5</ele>
        <time>2020-02-21T11:58:16Z</time>
      </trkpt>
      <trkpt lat="38.8844130" lon="1.2716430">
        <ele>116.3</ele>
        <time>2020-02-21T11:58:17Z</time>
      </trkpt>
      <trkpt lat="38.8843780" lon="1.2716240">
        <ele>115.8</ele>
        <time>2020-02-21T11:58:18Z</time>
      </trkpt>
      <trkpt lat="38.8843460" lon="1.2716200">
        <ele>115.7</ele>
        <time>2020-02-21T11:58:19Z</time>
      </trkpt>
      <trkpt lat="38.8843160" lon="1.2716360">
        <ele>115.6</ele>
        <time>2020-02-21T11:58:20Z</time>
      </trkpt>
      <trkpt lat="38.8842860" lon="1.2716330">
        <ele>115.5</ele>
        <time>2020-02-21T11:58:21Z</time>
      </trkpt>
      <trkpt lat="38.8842790" lon="1.2716300">
        <ele>115.5</ele>
        <time>2020-02-21T11:58:22Z</time>
      </trkpt>
      <trkpt lat="38.8842670" lon="1.2716240">
        <ele>115.4</ele>
        <time>2020-02-21T11:58:23Z</time>
      </trkpt>
      <trkpt lat="38.8842520" lon="1.2716250">
        <ele>115.4</ele>
        <time>2020-02-21T11:58:24Z</time>
      </trkpt>
      <trkpt lat="38.8842370" lon="1.2716260">
        <ele>115.3</ele>
        <time>2020-02-21T11:58:25Z</time>
      </trkpt>
      <trkpt lat="38.8842210" lon="1.2716270">
        <ele>115.3</ele>
        <time>2020-02-21T11:58:26Z</time>
      </trkpt>
      <trkpt lat="38.8842060" lon="1.2716280">
        <ele>115.2</ele>
        <time>2020-02-21T11:58:27Z</time>
      </trkpt>
      <trkpt lat="38.8841910" lon="1.2716290">
        <ele>115.2</ele>
        <time>2020-02-21T11:58:28Z</time>
      </trkpt>
      <trkpt lat="38.8841760" lon="1.2716300">
        <ele>115.1</ele>
        <time>2020-02-21T11:58:29Z</time>
      </trkpt>
      <trkpt lat="38.8841610" lon="1.2716310">
        <ele>115.1</ele>
        <time>2020-02-21T11:58:30Z</time>
      </trkpt>
      <trkpt lat="38.8841460" lon="1.2716320">
        <ele>115.0</ele>
        <time>2020-02-21T11:58:31Z</time>
      </trkpt>
      <trkpt lat="38.8841300" lon="1.2716330">
        <ele>114.9</ele>
        <time>2020-02-21T11:58:32Z</time>
      </trkpt>
      <trkpt lat="38.8841150" lon="1.2716340">
        <ele>114.9</ele>
        <time>2020-02-21T11:58:33Z</time>
      </trkpt>
      <trkpt lat="38.8841000" lon="1.2716350">
        <ele>114.8</ele>
        <time>2020-02-21T12:00:35Z</time>
      </trkpt>
      <trkpt lat="38.8840850" lon="1.2716360">
        <ele>114.7</ele>
        <time>2020-02-21T12:00:36Z</time>
      </trkpt>
      <trkpt lat="38.8840460" lon="1.2716420">
        <ele>114.6</ele>
        <time>2020-02-21T12:00:37Z</time>
      </trkpt>
      <trkpt lat="38.8840090" lon="1.2716460">
        <ele>114.4</ele>
        <time>2020-02-21T12:00:38Z</time>
      </trkpt>
      <trkpt lat="38.8839680" lon="1.2716560">
        <ele>114.2</ele>
        <time>2020-02-21T12:00:39Z</time>
      </trkpt>
      <trkpt lat="38.8839300" lon="1.2716650">
        <ele>113.9</ele>
        <time>2020-02-21T12:00:40Z</time>
      </trkpt>
      <trkpt lat="38.8838930" lon="1.2716790">
        <ele>113.7</ele>
        <time>2020-02-21T12:00:41Z</time>
      </trkpt>
      <trkpt lat="38.8838550" lon="1.2716860">
        <ele>113.5</ele>
        <time>2020-02-21T12:00:42Z</time>
      </trkpt>
      <trkpt lat="38.8838170" lon="1.2716870">
        <ele>113.2</ele>
        <time>2020-02-21T12:00:43Z</time>
      </trkpt>
      <trkpt lat="38.8837790" lon="1.2716840">
        <ele>113.0</ele>
        <time>2020-02-21T12:00:44Z</time>
      </trkpt>
      <trkpt lat="38.8837420" lon="1.2716870">
        <ele>112.7</ele>
        <time>2020-02-21T12:00:45Z</time>
      </trkpt>
      <trkpt lat="38.8837040" lon="1.2716910">
        <ele>112.5</ele>
        <time>2020-02-21T12:00:46Z</time>
      </trkpt>
      <trkpt lat="38.8836660" lon="1.2716970">
        <ele>112.2</ele>
        <time>2020-02-21T12:00:47Z</time>
      </trkpt>
      <trkpt lat="38.8836270" lon="1.2716990">
        <ele>111.9</ele>
        <time>2020-02-21T12:00:48Z</time>
      </trkpt>
      <trkpt lat="38.8835870" lon="1.2717060">
        <ele>111.7</ele>
        <time>2020-02-21T12:00:49Z</time>
      </trkpt>
      <trkpt lat="38.8835470" lon="1.2717100">
        <ele>111.4</ele>
        <time>2020-02-21T12:00:50Z</time>
      </trkpt>
      <trkpt lat="38.8835050" lon="1.2717160">
        <ele>111.1</ele>
        <time>2020-02-21T12:00:51Z</time>
      </trkpt>
      <trkpt lat="38.8834620" lon="1.2717200">
        <ele>110.9</ele>
        <time>2020-02-21T12:00:52Z</time>
      </trkpt>
      <trkpt lat="38.8834170" lon="1.2717250">
        <ele>110.7</ele>
        <time>2020-02-21T12:00:53Z</time>
      </trkpt>
      <trkpt lat="38.8833730" lon="1.2717350">
        <ele>110.5</ele>
        <time>2020-02-21T12:00:54Z</time>
      </trkpt>
      <trkpt lat="38.8833300" lon="1.2717420">
        <ele>110.3</ele>
        <time>2020-02-21T12:00:55Z</time>
      </trkpt>
      <trkpt lat="38.8832830" lon="1.2717470">
        <ele>110.2</ele>
        <time>2020-02-21T12:00:56Z</time>
      </trkpt>
      <trkpt lat="38.8832340" lon="1.2717560">
        <ele>110.0</ele>
        <time>2020-02-21T12:00:57Z</time>
      </trkpt>
      <trkpt lat="38.8831840" lon="1.2717610">
        <ele>109.9</ele>
        <time>2020-02-21T12:00:58Z</time>
      </trkpt>
      <trkpt lat="38.8831340" lon="1.2717650">
        <ele>109.8</ele>
        <time>2020-02-21T12:00:59Z</time>
      </trkpt>
      <trkpt lat="38.8830840" lon="1.2717730">
        <ele>109.7</ele>
        <time>2020-02-21T12:01:00Z</time>
      </trkpt>
      <trkpt lat="38.8830330" lon="1.2717820">
        <ele>109.6</ele>
        <time>2020-02-21T12:01:01Z</time>
      </trkpt>
      <trkpt lat="38.8829800" lon="1.2717920">
        <ele>109.5</ele>
        <time>2020-02-21T12:01:02Z</time>
      </trkpt>
      <trkpt lat="38.8829270" lon="1.2718010">
        <ele>109.5</ele>
        <time>2020-02-21T12:01:03Z</time>
      </trkpt>
      <trkpt lat="38.8828740" lon="1.2718140">
        <ele>109.4</ele>
        <time>2020-02-21T12:01:04Z</time>
      </trkpt>
      <trkpt lat="38.8828210" lon="1.2718240">
        <ele>109.3</ele>
        <time>2020-02-21T12:01:05Z</time>
      </trkpt>
      <trkpt lat="38.8827680" lon="1.2718330">
        <ele>109.3</ele>
        <time>2020-02-21T12:01:06Z</time>
      </trkpt>
      <trkpt lat="38.8827180" lon="1.2718390">
        <ele>109.1</ele>
        <time>2020-02-21T12:01:07Z</time>
      </trkpt>
      <trkpt lat="38.8826670" lon="1.2718490">
        <ele>109.0</ele>
        <time>2020-02-21T12:01:08Z</time>
      </trkpt>
      <trkpt lat="38.8826160" lon="1.2718530">
        <ele>108.9</ele>
        <time>2020-02-21T12:01:09Z</time>
      </trkpt>
      <trkpt lat="38.8825660" lon="1.2718590">
        <ele>108.7</ele>
        <time>2020-02-21T12:01:10Z</time>
      </trkpt>
      <trkpt lat="38.8825160" lon="1.2718660">
        <ele>108.5</ele>
        <time>2020-02-21T12:01:11Z</time>
      </trkpt>
      <trkpt lat="38.8824670" lon="1.2718770">
        <ele>108.4</ele>
        <time>2020-02-21T12:01:12Z</time>
      </trkpt>
      <trkpt lat="38.8824170" lon="1.2718890">
        <ele>108.2</ele>
        <time>2020-02-21T12:01:13Z</time>
      </trkpt>
      <trkpt lat="38.8823660" lon="1.2718960">
        <ele>108.0</ele>
        <time>2020-02-21T12:01:14Z</time>
      </trkpt>
      <trkpt lat="38.8823120" lon="1.2719000">
        <ele>107.8</ele>
        <time>2020-02-21T12:01:15Z</time>
      </trkpt>
      <trkpt lat="38.8822580" lon="1.2719000">
        <ele>107.7</ele>
        <time>2020-02-21T12:01:16Z</time>
      </trkpt>
      <trkpt lat="38.8822050" lon="1.2719000">
        <ele>107.6</ele>
        <time>2020-02-21T12:01:17Z</time>
      </trkpt>
      <trkpt lat="38.8821560" lon="1.2719040">
        <ele>107.5</ele>
        <time>2020-02-21T12:01:18Z</time>
      </trkpt>
      <trkpt lat="38.8821090" lon="1.2719090">
        <ele>107.4</ele>
        <time>2020-02-21T12:01:19Z</time>
      </trkpt>
      <trkpt lat="38.8820610" lon="1.2719120">
        <ele>107.4</ele>
        <time>2020-02-21T12:01:20Z</time>
      </trkpt>
      <trkpt lat="38.8820120" lon="1.2719220">
        <ele>107.4</ele>
        <time>2020-02-21T12:01:21Z</time>
      </trkpt>
      <trkpt lat="38.8819600" lon="1.2719280">
        <ele>107.3</ele>
        <time>2020-02-21T12:01:22Z</time>
      </trkpt>
      <trkpt lat="38.8819100" lon="1.2719420">
        <ele>107.4</ele>
        <time>2020-02-21T12:01:23Z</time>
      </trkpt>
      <trkpt lat="38.8818620" lon="1.2719600">
        <ele>107.5</ele>
        <time>2020-02-21T12:01:24Z</time>
      </trkpt>
      <trkpt lat="38.8818150" lon="1.2719740">
        <ele>107.6</ele>
        <time>2020-02-21T12:01:25Z</time>
      </trkpt>
      <trkpt lat="38.8817670" lon="1.2719880">
        <ele>107.7</ele>
        <time>2020-02-21T12:01:26Z</time>
      </trkpt>
      <trkpt lat="38.8817200" lon="1.2719960">
        <ele>107.7</ele>
        <time>2020-02-21T12:01:27Z</time>
      </trkpt>
      <trkpt lat="38.8816740" lon="1.2720090">
        <ele>107.8</ele>
        <time>2020-02-21T12:01:28Z</time>
      </trkpt>
      <trkpt lat="38.8816290" lon="1.2720180">
        <ele>107.9</ele>
        <time>2020-02-21T12:01:29Z</time>
      </trkpt>
      <trkpt lat="38.8815860" lon="1.2720280">
        <ele>108.1</ele>
        <time>2020-02-21T12:01:30Z</time>
      </trkpt>
      <trkpt lat="38.8815450" lon="1.2720260">
        <ele>108.2</ele>
        <time>2020-02-21T12:01:31Z</time>
      </trkpt>
      <trkpt lat="38.8815140" lon="1.2720360">
        <ele>108.2</ele>
        <time>2020-02-21T12:01:32Z</time>
      </trkpt>
      <trkpt lat="38.8814790" lon="1.2720510">
        <ele>108.3</ele>
        <time>2020-02-21T12:01:33Z</time>
      </trkpt>
      <trkpt lat="38.8814700" lon="1.2720580">
        <ele>108.3</ele>
        <time>2020-02-21T12:01:34Z</time>
      </trkpt>
      <trkpt lat="38.8814540" lon="1.2721000">
        <ele>108.1</ele>
        <time>2020-02-21T12:01:35Z</time>
      </trkpt>
      <trkpt lat="38.8814510" lon="1.2721180">
        <ele>108.0</ele>
        <time>2020-02-21T12:01:36Z</time>
      </trkpt>
      <trkpt lat="38.8814460" lon="1.2721560">
        <ele>108.0</ele>
        <time>2020-02-21T12:01:37Z</time>
      </trkpt>
      <trkpt lat="38.8814270" lon="1.2721840">
        <ele>107.9</ele>
        <time>2020-02-21T12:01:38Z</time>
      </trkpt>
      <trkpt lat="38.8814070" lon="1.2722240">
        <ele>107.9</ele>
        <time>2020-02-21T12:01:39Z</time>
      </trkpt>
      <trkpt lat="38.8814000" lon="1.2722350">
        <ele>107.9</ele>
        <time>2020-02-21T12:01:40Z</time>
      </trkpt>
      <trkpt lat="38.8813870" lon="1.2722730">
        <ele>107.8</ele>
        <time>2020-02-21T12:01:41Z</time>
      </trkpt>
      <trkpt lat="38.8813810" lon="1.2722840">
        <ele>107.8</ele>
        <time>2020-02-21T12:01:42Z</time>
      </trkpt>
      <trkpt lat="38.8813670" lon="1.2723030">
        <ele>107.8</ele>
        <time>2020-02-21T12:01:43Z</time>
      </trkpt>
      <trkpt lat="38.8813690" lon="1.2723180">
        <ele>107.7</ele>
        <time>2020-02-21T12:01:44Z</time>
      </trkpt>
      <trkpt lat="38.8813770" lon="1.2723440">
        <ele>107.7</ele>
        <time>2020-02-21T12:01:45Z</time>
      </trkpt>
      <trkpt lat="38.8813940" lon="1.2723460">
        <ele>107.7</ele>
        <time>2020-02-21T12:01:46Z</time>
      </trkpt>
      <trkpt lat="38.8813980" lon="1.2723460">
        <ele>107.7</ele>
        <time>2020-02-21T12:01:47Z</time>
      </trkpt>
      <trkpt lat="38.8814020" lon="1.2723380">
        <ele>107.7</ele>
        <time>2020-02-21T12:01:48Z</time>
      </trkpt>
      <trkpt lat="38.8814090" lon="1.2723320">
        <ele>107.7</ele>
        <time>2020-02-21T12:01:49Z</time>
      </trkpt>
      <trkpt lat="38.8814150" lon="1.2723360">
        <ele>107.6</ele>
        <time>2020-02-21T12:01:50Z</time>
      </trkpt>
      <trkpt lat="38.8814210" lon="1.2723370">
        <ele>107.6</ele>
        <time>2020-02-21T12:01:51Z</time>
      </trkpt>
      <trkpt lat="38.8814290" lon="1.2723250">
        <ele>107.6</ele>
        <time>2020-02-21T12:01:52Z</time>
      </trkpt>
      <trkpt lat="38.8814310" lon="1.2723250">
        <ele>107.6</ele>
        <time>2020-02-21T12:01:53Z</time>
      </trkpt>
      <trkpt lat="38.8814290" lon="1.2723360">
        <ele>107.6</ele>
        <time>2020-02-21T12:01:54Z</time>
      </trkpt>
      <trkpt lat="38.8814250" lon="1.2723440">
        <ele>107.6</ele>
        <time>2020-02-21T12:01:55Z</time>
      </trkpt>
      <trkpt lat="38.8814220" lon="1.2723550">
        <ele>107.6</ele>
        <time>2020-02-21T12:01:56Z</time>
      </trkpt>
      <trkpt lat="38.8814240" lon="1.2723560">
        <ele>107.6</ele>
        <time>2020-02-21T12:01:57Z</time>
      </trkpt>
      <trkpt lat="38.8814280" lon="1.2723500">
        <ele>107.6</ele>
        <time>2020-02-21T12:01:58Z</time>
      </trkpt>
      <trkpt lat="38.8814290" lon="1.2723480">
        <ele>107.6</ele>
        <time>2020-02-21T12:01:59Z</time>
      </trkpt>
      <trkpt lat="38.8814280" lon="1.2723540">
        <ele>107.5</ele>
        <time>2020-02-21T12:02:00Z</time>
      </trkpt>
      <trkpt lat="38.8814280" lon="1.2723480">
        <ele>107.5</ele>
        <time>2020-02-21T12:02:01Z</time>
      </trkpt>
      <trkpt lat="38.8814160" lon="1.2723340">
        <ele>107.5</ele>
        <time>2020-02-21T12:04:06Z</time>
      </trkpt>
      <trkpt lat="38.8814100" lon="1.2723350">
        <ele>107.5</ele>
        <time>2020-02-21T12:04:07Z</time>
      </trkpt>
      <trkpt lat="38.8814010" lon="1.2723410">
        <ele>107.5</ele>
        <time>2020-02-21T12:04:08Z</time>
      </trkpt>
      <trkpt lat="38.8813900" lon="1.2723500">
        <ele>107.5</ele>
        <time>2020-02-21T12:04:09Z</time>
      </trkpt>
      <trkpt lat="38.8813610" lon="1.2723500">
        <ele>107.4</ele>
        <time>2020-02-21T12:04:10Z</time>
      </trkpt>
      <trkpt lat="38.8813480" lon="1.2723490">
        <ele>107.2</ele>
        <time>2020-02-21T12:04:11Z</time>
      </trkpt>
      <trkpt lat="38.8813200" lon="1.2723440">
        <ele>107.2</ele>
        <time>2020-02-21T12:04:12Z</time>
      </trkpt>
      <trkpt lat="38.8812920" lon="1.2723410">
        <ele>107.2</ele>
        <time>2020-02-21T12:04:13Z</time>
      </trkpt>
      <trkpt lat="38.8812640" lon="1.2723400">
        <ele>107.2</ele>
        <time>2020-02-21T12:04:14Z</time>
      </trkpt>
      <trkpt lat="38.8812280" lon="1.2723280">
        <ele>107.1</ele>
        <time>2020-02-21T12:04:15Z</time>
      </trkpt>
      <trkpt lat="38.8812160" lon="1.2723240">
        <ele>107.1</ele>
        <time>2020-02-21T12:04:16Z</time>
      </trkpt>
      <trkpt lat="38.8811760" lon="1.2723310">
        <ele>107.0</ele>
        <time>2020-02-21T12:04:17Z</time>
      </trkpt>
      <trkpt lat="38.8811630" lon="1.2723320">
        <ele>107.0</ele>
        <time>2020-02-21T12:04:18Z</time>
      </trkpt>
      <trkpt lat="38.8811350" lon="1.2723340">
        <ele>107.0</ele>
        <time>2020-02-21T12:04:19Z</time>
      </trkpt>
      <trkpt lat="38.8811100" lon="1.2723200">
        <ele>106.9</ele>
        <time>2020-02-21T12:04:20Z</time>
      </trkpt>
      <trkpt lat="38.8810770" lon="1.2723100">
        <ele>106.9</ele>
        <time>2020-02-21T12:04:21Z</time>
      </trkpt>
      <trkpt lat="38.8810660" lon="1.2723090">
        <ele>107.0</ele>
        <time>2020-02-21T12:04:22Z</time>
      </trkpt>
      <trkpt lat="38.8810410" lon="1.2723110">
        <ele>107.0</ele>
        <time>2020-02-21T12:04:23Z</time>
      </trkpt>
      <trkpt lat="38.8810390" lon="1.2723060">
        <ele>107.0</ele>
        <time>2020-02-21T12:04:24Z</time>
      </trkpt>
      <trkpt lat="38.8810360" lon="1.2723110">
        <ele>107.0</ele>
        <time>2020-02-21T12:04:25Z</time>
      </trkpt>
      <trkpt lat="38.8810400" lon="1.2723080">
        <ele>107.0</ele>
        <time>2020-02-21T12:04:26Z</time>
      </trkpt>
      <trkpt lat="38.8810290" lon="1.2723060">
        <ele>107.0</ele>
        <time>2020-02-21T12:04:27Z</time>
      </trkpt>
      <trkpt lat="38.8810210" lon="1.2723090">
        <ele>107.0</ele>
        <time>2020-02-21T12:04:28Z</time>
      </trkpt>
      <trkpt lat="38.8810200" lon="1.2723000">
        <ele>107.0</ele>
        <time>2020-02-21T12:04:29Z</time>
      </trkpt>
      <trkpt lat="38.8810150" lon="1.2723010">
        <ele>107.0</ele>
        <time>2020-02-21T12:04:30Z</time>
      </trkpt>
      <trkpt lat="38.8810080" lon="1.2723070">
        <ele>107.0</ele>
        <time>2020-02-21T12:04:31Z</time>
      </trkpt>
      <trkpt lat="38.8810100" lon="1.2723100">
        <ele>107.0</ele>
        <time>2020-02-21T12:04:32Z</time>
      </trkpt>
      <trkpt lat="38.8810160" lon="1.2723110">
        <ele>107.0</ele>
        <time>2020-02-21T12:04:33Z</time>
      </trkpt>
      <trkpt lat="38.8810230" lon="1.2723120">
        <ele>107.0</ele>
        <time>2020-02-21T12:04:34Z</time>
      </trkpt>
      <trkpt lat="38.8810290" lon="1.2723140">
        <ele>107.1</ele>
        <time>2020-02-21T12:21:48Z</time>
      </trkpt>
      <trkpt lat="38.8810350" lon="1.2723150">
        <ele>107.1</ele>
        <time>2020-02-21T12:21:49Z</time>
      </trkpt>
      <trkpt lat="38.8810410" lon="1.2723160">
        <ele>107.1</ele>
        <time>2020-02-21T12:21:50Z</time>
      </trkpt>
      <trkpt lat="38.8810780" lon="1.2723140">
        <ele>107.1</ele>
        <time>2020-02-21T12:21:51Z</time>
      </trkpt>
      <trkpt lat="38.8810900" lon="1.2723110">
        <ele>107.1</ele>
        <time>2020-02-21T12:21:52Z</time>
      </trkpt>
      <trkpt lat="38.8811180" lon="1.2722980">
        <ele>107.1</ele>
        <time>2020-02-21T12:21:53Z</time>
      </trkpt>
      <trkpt lat="38.8811460" lon="1.2722810">
        <ele>107.1</ele>
        <time>2020-02-21T12:21:54Z</time>
      </trkpt>
      <trkpt lat="38.8811750" lon="1.2722830">
        <ele>107.1</ele>
        <time>2020-02-21T12:21:55Z</time>
      </trkpt>
      <trkpt lat="38.8812010" lon="1.2722940">
        <ele>107.1</ele>
        <time>2020-02-21T12:21:56Z</time>
      </trkpt>
      <trkpt lat="38.8812290" lon="1.2723030">
        <ele>107.2</ele>
        <time>2020-02-21T12:21:57Z</time>
      </trkpt>
      <trkpt lat="38.8812580" lon="1.2723090">
        <ele>107.2</ele>
        <time>2020-02-21T12:21:58Z</time>
      </trkpt>
      <trkpt lat="38.8812690" lon="1.2723110">
        <ele>107.2</ele>
        <time>2020-02-21T12:21:59Z</time>
      </trkpt>
      <trkpt lat="38.8813110" lon="1.2723250">
        <ele>107.2</ele>
        <time>2020-02-21T12:22:00Z</time>
      </trkpt>
      <trkpt lat="38.8813260" lon="1.2723370">
        <ele>107.1</ele>
        <time>2020-02-21T12:22:01Z</time>
      </trkpt>
      <trkpt lat="38.8813490" lon="1.2723630">
        <ele>107.0</ele>
        <time>2020-02-21T12:22:02Z</time>
      </trkpt>
      <trkpt lat="38.8813490" lon="1.2724000">
        <ele>106.9</ele>
        <time>2020-02-21T12:22:03Z</time>
      </trkpt>
      <trkpt lat="38.8813100" lon="1.2724590">
        <ele>106.7</ele>
        <time>2020-02-21T12:22:04Z</time>
      </trkpt>
      <trkpt lat="38.8812760" lon="1.2725180">
        <ele>106.5</ele>
        <time>2020-02-21T12:22:05Z</time>
      </trkpt>
      <trkpt lat="38.8812400" lon="1.2725660">
        <ele>106.3</ele>
        <time>2020-02-21T12:22:06Z</time>
      </trkpt>
      <trkpt lat="38.8812100" lon="1.2726170">
        <ele>106.1</ele>
        <time>2020-02-21T12:22:07Z</time>
      </trkpt>
      <trkpt lat="38.8811880" lon="1.2726800">
        <ele>105.9</ele>
        <time>2020-02-21T12:22:08Z</time>
      </trkpt>
      <trkpt lat="38.8811460" lon="1.2727470">
        <ele>105.6</ele>
        <time>2020-02-21T12:22:09Z</time>
      </trkpt>
      <trkpt lat="38.8811150" lon="1.2728080">
        <ele>105.4</ele>
        <time>2020-02-21T12:22:10Z</time>
      </trkpt>
      <trkpt lat="38.8810830" lon="1.2728700">
        <ele>105.1</ele>
        <time>2020-02-21T12:22:11Z</time>
      </trkpt>
      <trkpt lat="38.8810520" lon="1.2729310">
        <ele>104.9</ele>
        <time>2020-02-21T12:22:12Z</time>
      </trkpt>
      <trkpt lat="38.8810320" lon="1.2729960">
        <ele>104.6</ele>
        <time>2020-02-21T12:22:13Z</time>
      </trkpt>
      <trkpt lat="38.8810080" lon="1.2730510">
        <ele>104.4</ele>
        <time>2020-02-21T12:22:14Z</time>
      </trkpt>
      <trkpt lat="38.8809880" lon="1.2731060">
        <ele>104.2</ele>
        <time>2020-02-21T12:22:15Z</time>
      </trkpt>
      <trkpt lat="38.8809760" lon="1.2731540">
        <ele>104.0</ele>
        <time>2020-02-21T12:22:16Z</time>
      </trkpt>
      <trkpt lat="38.8809600" lon="1.2732050">
        <ele>103.9</ele>
        <time>2020-02-21T12:22:17Z</time>
      </trkpt>
      <trkpt lat="38.8809460" lon="1.2732620">
        <ele>103.7</ele>
        <time>2020-02-21T12:22:18Z</time>
      </trkpt>
      <trkpt lat="38.8809320" lon="1.2733320">
        <ele>103.5</ele>
        <time>2020-02-21T12:22:19Z</time>
      </trkpt>
      <trkpt lat="38.8809290" lon="1.2733940">
        <ele>103.3</ele>
        <time>2020-02-21T12:22:20Z</time>
      </trkpt>
      <trkpt lat="38.8809270" lon="1.2734660">
        <ele>103.1</ele>
        <time>2020-02-21T12:22:21Z</time>
      </trkpt>
      <trkpt lat="38.8809100" lon="1.2735410">
        <ele>102.9</ele>
        <time>2020-02-21T12:22:22Z</time>
      </trkpt>
      <trkpt lat="38.8808880" lon="1.2736060">
        <ele>102.6</ele>
        <time>2020-02-21T12:22:23Z</time>
      </trkpt>
      <trkpt lat="38.8808610" lon="1.2736650">
        <ele>102.3</ele>
        <time>2020-02-21T12:22:24Z</time>
      </trkpt>
      <trkpt lat="38.8808360" lon="1.2737370">
        <ele>101.9</ele>
        <time>2020-02-21T12:22:25Z</time>
      </trkpt>
      <trkpt lat="38.8808210" lon="1.2738210">
        <ele>101.6</ele>
        <time>2020-02-21T12:22:26Z</time>
      </trkpt>
      <trkpt lat="38.8808060" lon="1.2739040">
        <ele>101.2</ele>
        <time>2020-02-21T12:22:27Z</time>
      </trkpt>
      <trkpt lat="38.8808030" lon="1.2739800">
        <ele>100.9</ele>
        <time>2020-02-21T12:22:28Z</time>
      </trkpt>
      <trkpt lat="38.8807930" lon="1.2740490">
        <ele>100.7</ele>
        <time>2020-02-21T12:22:29Z</time>
      </trkpt>
      <trkpt lat="38.8807920" lon="1.2741230">
        <ele>100.4</ele>
        <time>2020-02-21T12:22:30Z</time>
      </trkpt>
      <trkpt lat="38.8807940" lon="1.2741940">
        <ele>100.0</ele>
        <time>2020-02-21T12:22:31Z</time>
      </trkpt>
      <trkpt lat="38.8807950" lon="1.2742760">
        <ele>99.6</ele>
        <time>2020-02-21T12:22:32Z</time>
      </trkpt>
      <trkpt lat="38.8807900" lon="1.2743600">
        <ele>99.3</ele>
        <time>2020-02-21T12:22:33Z</time>
      </trkpt>
      <trkpt lat="38.8807780" lon="1.2744480">
        <ele>99.0</ele>
        <time>2020-02-21T12:22:34Z</time>
      </trkpt>
      <trkpt lat="38.8807510" lon="1.2745360">
        <ele>98.7</ele>
        <time>2020-02-21T12:22:35Z</time>
      </trkpt>
      <trkpt lat="38.8807230" lon="1.2746150">
        <ele>98.5</ele>
        <time>2020-02-21T12:22:36Z</time>
      </trkpt>
      <trkpt lat="38.8806980" lon="1.2746920">
        <ele>98.1</ele>
        <time>2020-02-21T12:22:37Z</time>
      </trkpt>
      <trkpt lat="38.8806750" lon="1.2747730">
        <ele>97.7</ele>
        <time>2020-02-21T12:22:38Z</time>
      </trkpt>
      <trkpt lat="38.8806550" lon="1.2748710">
        <ele>97.2</ele>
        <time>2020-02-21T12:22:39Z</time>
      </trkpt>
      <trkpt lat="38.8806300" lon="1.2749610">
        <ele>96.9</ele>
        <time>2020-02-21T12:22:40Z</time>
      </trkpt>
      <trkpt lat="38.8805980" lon="1.2750350">
        <ele>96.6</ele>
        <time>2020-02-21T12:22:41Z</time>
      </trkpt>
      <trkpt lat="38.8805630" lon="1.2751210">
        <ele>96.3</ele>
        <time>2020-02-21T12:22:42Z</time>
      </trkpt>
      <trkpt lat="38.8805370" lon="1.2752070">
        <ele>96.0</ele>
        <time>2020-02-21T12:22:43Z</time>
      </trkpt>
      <trkpt lat="38.8805080" lon="1.2753100">
        <ele>95.6</ele>
        <time>2020-02-21T12:22:44Z</time>
      </trkpt>
      <trkpt lat="38.8804820" lon="1.2754000">
        <ele>95.3</ele>
        <time>2020-02-21T12:22:45Z</time>
      </trkpt>
      <trkpt lat="38.8804560" lon="1.2754830">
        <ele>95.0</ele>
        <time>2020-02-21T12:22:46Z</time>
      </trkpt>
      <trkpt lat="38.8804290" lon="1.2755730">
        <ele>94.6</ele>
        <time>2020-02-21T12:22:47Z</time>
      </trkpt>
      <trkpt lat="38.8804130" lon="1.2756640">
        <ele>94.2</ele>
        <time>2020-02-21T12:22:48Z</time>
      </trkpt>
      <trkpt lat="38.8803960" lon="1.2757580">
        <ele>93.8</ele>
        <time>2020-02-21T12:22:49Z</time>
      </trkpt>
      <trkpt lat="38.8803620" lon="1.2758400">
        <ele>93.4</ele>
        <time>2020-02-21T12:22:50Z</time>
      </trkpt>
      <trkpt lat="38.8803290" lon="1.2759030">
        <ele>93.1</ele>
        <time>2020-02-21T12:22:51Z</time>
      </trkpt>
      <trkpt lat="38.8802880" lon="1.2759540">
        <ele>92.8</ele>
        <time>2020-02-21T12:22:52Z</time>
      </trkpt>
      <trkpt lat="38.8802360" lon="1.2759810">
        <ele>92.5</ele>
        <time>2020-02-21T12:22:53Z</time>
      </trkpt>
      <trkpt lat="38.8801780" lon="1.2759960">
        <ele>92.1</ele>
        <time>2020-02-21T12:22:54Z</time>
      </trkpt>
      <trkpt lat="38.8801200" lon="1.2759830">
        <ele>91.8</ele>
        <time>2020-02-21T12:22:55Z</time>
      </trkpt>
      <trkpt lat="38.8800630" lon="1.2759400">
        <ele>91.6</ele>
        <time>2020-02-21T12:22:56Z</time>
      </trkpt>
      <trkpt lat="38.8800100" lon="1.2758800">
        <ele>91.3</ele>
        <time>2020-02-21T12:22:57Z</time>
      </trkpt>
      <trkpt lat="38.8799690" lon="1.2758100">
        <ele>91.0</ele>
        <time>2020-02-21T12:22:58Z</time>
      </trkpt>
      <trkpt lat="38.8799300" lon="1.2757370">
        <ele>90.7</ele>
        <time>2020-02-21T12:22:59Z</time>
      </trkpt>
      <trkpt lat="38.8798940" lon="1.2756620">
        <ele>90.4</ele>
        <time>2020-02-21T12:23:00Z</time>
      </trkpt>
      <trkpt lat="38.8798570" lon="1.2755840">
        <ele>90.1</ele>
        <time>2020-02-21T12:23:01Z</time>
      </trkpt>
      <trkpt lat="38.8798220" lon="1.2755080">
        <ele>89.8</ele>
        <time>2020-02-21T12:23:02Z</time>
      </trkpt>
      <trkpt lat="38.8797840" lon="1.2754370">
        <ele>89.4</ele>
        <time>2020-02-21T12:23:03Z</time>
      </trkpt>
      <trkpt lat="38.8797540" lon="1.2753750">
        <ele>89.1</ele>
        <time>2020-02-21T12:23:04Z</time>
      </trkpt>
      <trkpt lat="38.8797350" lon="1.2753230">
        <ele>88.9</ele>
        <time>2020-02-21T12:23:05Z</time>
      </trkpt>
      <trkpt lat="38.8797300" lon="1.2752740">
        <ele>88.6</ele>
        <time>2020-02-21T12:23:06Z</time>
      </trkpt>
      <trkpt lat="38.8797180" lon="1.2752260">
        <ele>88.4</ele>
        <time>2020-02-21T12:23:07Z</time>
      </trkpt>
      <trkpt lat="38.8797130" lon="1.2751650">
        <ele>88.1</ele>
        <time>2020-02-21T12:23:08Z</time>
      </trkpt>
      <trkpt lat="38.8797170" lon="1.2750880">
        <ele>87.8</ele>
        <time>2020-02-21T12:23:09Z</time>
      </trkpt>
      <trkpt lat="38.8797400" lon="1.2750190">
        <ele>87.5</ele>
        <time>2020-02-21T12:23:10Z</time>
      </trkpt>
      <trkpt lat="38.8797660" lon="1.2749460">
        <ele>87.2</ele>
        <time>2020-02-21T12:23:11Z</time>
      </trkpt>
      <trkpt lat="38.8798040" lon="1.2748920">
        <ele>86.9</ele>
        <time>2020-02-21T12:23:12Z</time>
      </trkpt>
      <trkpt lat="38.8798420" lon="1.2748400">
        <ele>86.6</ele>
        <time>2020-02-21T12:23:13Z</time>
      </trkpt>
      <trkpt lat="38.8798750" lon="1.2747730">
        <ele>86.4</ele>
        <time>2020-02-21T12:23:14Z</time>
      </trkpt>
      <trkpt lat="38.8799200" lon="1.2747200">
        <ele>86.0</ele>
        <time>2020-02-21T12:23:15Z</time>
      </trkpt>
      <trkpt lat="38.8799770" lon="1.2746760">
        <ele>85.6</ele>
        <time>2020-02-21T12:23:16Z</time>
      </trkpt>
      <trkpt lat="38.8800230" lon="1.2746170">
        <ele>85.2</ele>
        <time>2020-02-21T12:23:17Z</time>
      </trkpt>
      <trkpt lat="38.8800690" lon="1.2745530">
        <ele>84.8</ele>
        <time>2020-02-21T12:23:18Z</time>
      </trkpt>
      <trkpt lat="38.8801070" lon="1.2744770">
        <ele>84.4</ele>
        <time>2020-02-21T12:23:19Z</time>
      </trkpt>
      <trkpt lat="38.8801460" lon="1.2744030">
        <ele>83.9</ele>
        <time>2020-02-21T12:23:20Z</time>
      </trkpt>
      <trkpt lat="38.8801580" lon="1.2743230">
        <ele>83.6</ele>
        <time>2020-02-21T12:23:21Z</time>
      </trkpt>
      <trkpt lat="38.8801600" lon="1.2742390">
        <ele>83.3</ele>
        <time>2020-02-21T12:23:22Z</time>
      </trkpt>
      <trkpt lat="38.8801720" lon="1.2741560">
        <ele>83.0</ele>
        <time>2020-02-21T12:23:23Z</time>
      </trkpt>
      <trkpt lat="38.8801950" lon="1.2740770">
        <ele>82.6</ele>
        <time>2020-02-21T12:23:24Z</time>
      </trkpt>
      <trkpt lat="38.8802210" lon="1.2739990">
        <ele>82.2</ele>
        <time>2020-02-21T12:23:25Z</time>
      </trkpt>
      <trkpt lat="38.8802670" lon="1.2739340">
        <ele>81.8</ele>
        <time>2020-02-21T12:23:26Z</time>
      </trkpt>
      <trkpt lat="38.8803230" lon="1.2738770">
        <ele>81.3</ele>
        <time>2020-02-21T12:23:27Z</time>
      </trkpt>
      <trkpt lat="38.8803680" lon="1.2738020">
        <ele>80.9</ele>
        <time>2020-02-21T12:23:28Z</time>
      </trkpt>
      <trkpt lat="38.8804040" lon="1.2737140">
        <ele>80.4</ele>
        <time>2020-02-21T12:23:29Z</time>
      </trkpt>
      <trkpt lat="38.8804260" lon="1.2736160">
        <ele>79.9</ele>
        <time>2020-02-21T12:23:30Z</time>
      </trkpt>
      <trkpt lat="38.8804510" lon="1.2735150">
        <ele>79.6</ele>
        <time>2020-02-21T12:23:31Z</time>
      </trkpt>
      <trkpt lat="38.8804740" lon="1.2734120">
        <ele>79.2</ele>
        <time>2020-02-21T12:23:32Z</time>
      </trkpt>
      <trkpt lat="38.8804910" lon="1.2733070">
        <ele>78.9</ele>
        <time>2020-02-21T12:23:33Z</time>
      </trkpt>
      <trkpt lat="38.8805000" lon="1.2731990">
        <ele>78.7</ele>
        <time>2020-02-21T12:23:34Z</time>
      </trkpt>
      <trkpt lat="38.8805070" lon="1.2730910">
        <ele>78.5</ele>
        <time>2020-02-21T12:23:35Z</time>
      </trkpt>
      <trkpt lat="38.8805070" lon="1.2729850">
        <ele>78.2</ele>
        <time>2020-02-21T12:23:36Z</time>
      </trkpt>
      <trkpt lat="38.8805240" lon="1.2728850">
        <ele>77.9</ele>
        <time>2020-02-21T12:23:37Z</time>
      </trkpt>
      <trkpt lat="38.8805500" lon="1.2727890">
        <ele>77.7</ele>
        <time>2020-02-21T12:23:38Z</time>
      </trkpt>
      <trkpt lat="38.8805730" lon="1.2726960">
        <ele>77.6</ele>
        <time>2020-02-21T12:23:39Z</time>
      </trkpt>
      <trkpt lat="38.8805990" lon="1.2726060">
        <ele>77.5</ele>
        <time>2020-02-21T12:23:40Z</time>
      </trkpt>
      <trkpt lat="38.8805950" lon="1.2725190">
        <ele>77.4</ele>
        <time>2020-02-21T12:23:41Z</time>
      </trkpt>
      <trkpt lat="38.8805770" lon="1.2724400">
        <ele>77.4</ele>
        <time>2020-02-21T12:23:42Z</time>
      </trkpt>
      <trkpt lat="38.8805670" lon="1.2723630">
        <ele>77.4</ele>
        <time>2020-02-21T12:23:43Z</time>
      </trkpt>
      <trkpt lat="38.8805500" lon="1.2722900">
        <ele>77.4</ele>
        <time>2020-02-21T12:23:44Z</time>
      </trkpt>
      <trkpt lat="38.8805340" lon="1.2722140">
        <ele>77.4</ele>
        <time>2020-02-21T12:23:45Z</time>
      </trkpt>
      <trkpt lat="38.8805290" lon="1.2721350">
        <ele>77.4</ele>
        <time>2020-02-21T12:23:46Z</time>
      </trkpt>
      <trkpt lat="38.8805160" lon="1.2720610">
        <ele>77.4</ele>
        <time>2020-02-21T12:23:47Z</time>
      </trkpt>
      <trkpt lat="38.8805170" lon="1.2719920">
        <ele>77.4</ele>
        <time>2020-02-21T12:23:48Z</time>
      </trkpt>
      <trkpt lat="38.8805180" lon="1.2719220">
        <ele>77.4</ele>
        <time>2020-02-21T12:23:49Z</time>
      </trkpt>
      <trkpt lat="38.8805260" lon="1.2718530">
        <ele>77.4</ele>
        <time>2020-02-21T12:23:50Z</time>
      </trkpt>
      <trkpt lat="38.8805250" lon="1.2717820">
        <ele>77.4</ele>
        <time>2020-02-21T12:23:51Z</time>
      </trkpt>
      <trkpt lat="38.8805200" lon="1.2717120">
        <ele>77.2</ele>
        <time>2020-02-21T12:23:52Z</time>
      </trkpt>
      <trkpt lat="38.8805040" lon="1.2716480">
        <ele>77.1</ele>
        <time>2020-02-21T12:23:53Z</time>
      </trkpt>
      <trkpt lat="38.8804880" lon="1.2715840">
        <ele>77.0</ele>
        <time>2020-02-21T12:23:54Z</time>
      </trkpt>
      <trkpt lat="38.8804730" lon="1.2715090">
        <ele>76.8</ele>
        <time>2020-02-21T12:23:55Z</time>
      </trkpt>
      <trkpt lat="38.8804320" lon="1.2714570">
        <ele>76.6</ele>
        <time>2020-02-21T12:23:56Z</time>
      </trkpt>
      <trkpt lat="38.8803930" lon="1.2714030">
        <ele>76.4</ele>
        <time>2020-02-21T12:23:57Z</time>
      </trkpt>
      <trkpt lat="38.8803480" lon="1.2713550">
        <ele>76.2</ele>
        <time>2020-02-21T12:23:58Z</time>
      </trkpt>
      <trkpt lat="38.8803020" lon="1.2713060">
        <ele>75.9</ele>
        <time>2020-02-21T12:23:59Z</time>
      </trkpt>
      <trkpt lat="38.8802600" lon="1.2712500">
        <ele>75.6</ele>
        <time>2020-02-21T12:24:00Z</time>
      </trkpt>
      <trkpt lat="38.8802240" lon="1.2711880">
        <ele>75.1</ele>
        <time>2020-02-21T12:24:01Z</time>
      </trkpt>
      <trkpt lat="38.8801980" lon="1.2711230">
        <ele>74.5</ele>
        <time>2020-02-21T12:24:02Z</time>
      </trkpt>
      <trkpt lat="38.8801800" lon="1.2710500">
        <ele>73.9</ele>
        <time>2020-02-21T12:24:03Z</time>
      </trkpt>
      <trkpt lat="38.8801680" lon="1.2709720">
        <ele>73.3</ele>
        <time>2020-02-21T12:24:04Z</time>
      </trkpt>
      <trkpt lat="38.8801380" lon="1.2709040">
        <ele>72.7</ele>
        <time>2020-02-21T12:24:05Z</time>
      </trkpt>
      <trkpt lat="38.8801060" lon="1.2708370">
        <ele>72.1</ele>
        <time>2020-02-21T12:24:06Z</time>
      </trkpt>
      <trkpt lat="38.8800620" lon="1.2707800">
        <ele>71.5</ele>
        <time>2020-02-21T12:24:07Z</time>
      </trkpt>
      <trkpt lat="38.8800280" lon="1.2707100">
        <ele>70.9</ele>
        <time>2020-02-21T12:24:08Z</time>
      </trkpt>
      <trkpt lat="38.8800240" lon="1.2706230">
        <ele>70.5</ele>
        <time>2020-02-21T12:24:09Z</time>
      </trkpt>
      <trkpt lat="38.8800270" lon="1.2705330">
        <ele>70.1</ele>
        <time>2020-02-21T12:24:10Z</time>
      </trkpt>
      <trkpt lat="38.8800470" lon="1.2704580">
        <ele>69.8</ele>
        <time>2020-02-21T12:24:11Z</time>
      </trkpt>
      <trkpt lat="38.8800660" lon="1.2703960">
        <ele>69.6</ele>
        <time>2020-02-21T12:24:12Z</time>
      </trkpt>
      <trkpt lat="38.8800820" lon="1.2703490">
        <ele>69.5</ele>
        <time>2020-02-21T12:24:13Z</time>
      </trkpt>
      <trkpt lat="38.8800970" lon="1.2702940">
        <ele>69.3</ele>
        <time>2020-02-21T12:24:14Z</time>
      </trkpt>
      <trkpt lat="38.8801190" lon="1.2702360">
        <ele>69.0</ele>
        <time>2020-02-21T12:24:15Z</time>
      </trkpt>
      <trkpt lat="38.8801190" lon="1.2701790">
        <ele>68.7</ele>
        <time>2020-02-21T12:24:16Z</time>
      </trkpt>
      <trkpt lat="38.8801160" lon="1.2701280">
        <ele>68.5</ele>
        <time>2020-02-21T12:24:17Z</time>
      </trkpt>
      <trkpt lat="38.8801010" lon="1.2700860">
        <ele>68.3</ele>
        <time>2020-02-21T12:24:18Z</time>
      </trkpt>
      <trkpt lat="38.8800760" lon="1.2700410">
        <ele>68.1</ele>
        <time>2020-02-21T12:24:19Z</time>
      </trkpt>
      <trkpt lat="38.8800420" lon="1.2700000">
        <ele>67.9</ele>
        <time>2020-02-21T12:24:20Z</time>
      </trkpt>
      <trkpt lat="38.8800070" lon="1.2699640">
        <ele>67.7</ele>
        <time>2020-02-21T12:24:21Z</time>
      </trkpt>
      <trkpt lat="38.8799690" lon="1.2699300">
        <ele>67.5</ele>
        <time>2020-02-21T12:24:22Z</time>
      </trkpt>
      <trkpt lat="38.8799350" lon="1.2698790">
        <ele>67.4</ele>
        <time>2020-02-21T12:24:23Z</time>
      </trkpt>
      <trkpt lat="38.8799060" lon="1.2698240">
        <ele>67.2</ele>
        <time>2020-02-21T12:24:24Z</time>
      </trkpt>
      <trkpt lat="38.8798780" lon="1.2697720">
        <ele>67.0</ele>
        <time>2020-02-21T12:24:25Z</time>
      </trkpt>
      <trkpt lat="38.8798580" lon="1.2697160">
        <ele>66.9</ele>
        <time>2020-02-21T12:24:26Z</time>
      </trkpt>
      <trkpt lat="38.8798650" lon="1.2696560">
        <ele>66.7</ele>
        <time>2020-02-21T12:24:27Z</time>
      </trkpt>
      <trkpt lat="38.8798650" lon="1.2696030">
        <ele>66.6</ele>
        <time>2020-02-21T12:24:28Z</time>
      </trkpt>
      <trkpt lat="38.8798650" lon="1.2695580">
        <ele>66.4</ele>
        <time>2020-02-21T12:24:29Z</time>
      </trkpt>
      <trkpt lat="38.8798600" lon="1.2695180">
        <ele>66.3</ele>
        <time>2020-02-21T12:24:30Z</time>
      </trkpt>
      <trkpt lat="38.8798510" lon="1.2694800">
        <ele>66.2</ele>
        <time>2020-02-21T12:24:31Z</time>
      </trkpt>
      <trkpt lat="38.8798450" lon="1.2694420">
        <ele>66.1</ele>
        <time>2020-02-21T12:24:32Z</time>
      </trkpt>
      <trkpt lat="38.8798450" lon="1.2694050">
        <ele>66.0</ele>
        <time>2020-02-21T12:24:33Z</time>
      </trkpt>
      <trkpt lat="38.8798450" lon="1.2693690">
        <ele>65.9</ele>
        <time>2020-02-21T12:24:34Z</time>
      </trkpt>
      <trkpt lat="38.8798420" lon="1.2693220">
        <ele>65.7</ele>
        <time>2020-02-21T12:24:35Z</time>
      </trkpt>
      <trkpt lat="38.8798430" lon="1.2693050">
        <ele>65.7</ele>
        <time>2020-02-21T12:24:36Z</time>
      </trkpt>
      <trkpt lat="38.8798370" lon="1.2692600">
        <ele>65.5</ele>
        <time>2020-02-21T12:24:37Z</time>
      </trkpt>
      <trkpt lat="38.8798370" lon="1.2692420">
        <ele>65.5</ele>
        <time>2020-02-21T12:24:38Z</time>
      </trkpt>
      <trkpt lat="38.8798270" lon="1.2692050">
        <ele>65.3</ele>
        <time>2020-02-21T12:24:39Z</time>
      </trkpt>
      <trkpt lat="38.8798150" lon="1.2691700">
        <ele>65.2</ele>
        <time>2020-02-21T12:24:40Z</time>
      </trkpt>
      <trkpt lat="38.8798090" lon="1.2691340">
        <ele>65.1</ele>
        <time>2020-02-21T12:24:41Z</time>
      </trkpt>
      <trkpt lat="38.8797950" lon="1.2691000">
        <ele>64.9</ele>
        <time>2020-02-21T12:24:42Z</time>
      </trkpt>
      <trkpt lat="38.8797890" lon="1.2690610">
        <ele>64.8</ele>
        <time>2020-02-21T12:24:43Z</time>
      </trkpt>
      <trkpt lat="38.8797830" lon="1.2690270">
        <ele>64.6</ele>
        <time>2020-02-21T12:24:44Z</time>
      </trkpt>
      <trkpt lat="38.8797790" lon="1.2689910">
        <ele>64.5</ele>
        <time>2020-02-21T12:24:45Z</time>
      </trkpt>
      <trkpt lat="38.8797600" lon="1.2689580">
        <ele>64.4</ele>
        <time>2020-02-21T12:24:46Z</time>
      </trkpt>
      <trkpt lat="38.8797460" lon="1.2689220">
        <ele>64.2</ele>
        <time>2020-02-21T12:24:47Z</time>
      </trkpt>
      <trkpt lat="38.8797350" lon="1.2688810">
        <ele>64.0</ele>
        <time>2020-02-21T12:24:48Z</time>
      </trkpt>
      <trkpt lat="38.8797260" lon="1.2688390">
        <ele>63.9</ele>
        <time>2020-02-21T12:24:49Z</time>
      </trkpt>
      <trkpt lat="38.8797230" lon="1.2687910">
        <ele>63.6</ele>
        <time>2020-02-21T12:24:50Z</time>
      </trkpt>
      <trkpt lat="38.8797050" lon="1.2687510">
        <ele>63.4</ele>
        <time>2020-02-21T12:24:51Z</time>
      </trkpt>
      <trkpt lat="38.8796890" lon="1.2687100">
        <ele>63.2</ele>
        <time>2020-02-21T12:24:52Z</time>
      </trkpt>
      <trkpt lat="38.8796680" lon="1.2686700">
        <ele>63.1</ele>
        <time>2020-02-21T12:24:53Z</time>
      </trkpt>
      <trkpt lat="38.8796430" lon="1.2686290">
        <ele>62.9</ele>
        <time>2020-02-21T12:24:54Z</time>
      </trkpt>
      <trkpt lat="38.8796230" lon="1.2685820">
        <ele>62.7</ele>
        <time>2020-02-21T12:24:55Z</time>
      </trkpt>
      <trkpt lat="38.8796050" lon="1.2685270">
        <ele>62.4</ele>
        <time>2020-02-21T12:24:56Z</time>
      </trkpt>
      <trkpt lat="38.8795880" lon="1.2684700">
        <ele>62.1</ele>
        <time>2020-02-21T12:24:57Z</time>
      </trkpt>
      <trkpt lat="38.8795670" lon="1.2684000">
        <ele>61.8</ele>
        <time>2020-02-21T12:24:58Z</time>
      </trkpt>
      <trkpt lat="38.8795520" lon="1.2683210">
        <ele>61.4</ele>
        <time>2020-02-21T12:24:59Z</time>
      </trkpt>
      <trkpt lat="38.8795400" lon="1.2682450">
        <ele>61.0</ele>
        <time>2020-02-21T12:25:00Z</time>
      </trkpt>
      <trkpt lat="38.8795260" lon="1.2681800">
        <ele>60.7</ele>
        <time>2020-02-21T12:25:01Z</time>
      </trkpt>
      <trkpt lat="38.8795020" lon="1.2681300">
        <ele>60.5</ele>
        <time>2020-02-21T12:25:02Z</time>
      </trkpt>
      <trkpt lat="38.8794860" lon="1.2680520">
        <ele>60.2</ele>
        <time>2020-02-21T12:25:03Z</time>
      </trkpt>
      <trkpt lat="38.8794640" lon="1.2680050">
        <ele>60.2</ele>
        <time>2020-02-21T12:25:04Z</time>
      </trkpt>
      <trkpt lat="38.8794500" lon="1.2679730">
        <ele>60.3</ele>
        <time>2020-02-21T12:25:05Z</time>
      </trkpt>
      <trkpt lat="38.8794380" lon="1.2679310">
        <ele>60.3</ele>
        <time>2020-02-21T12:25:06Z</time>
      </trkpt>
      <trkpt lat="38.8794240" lon="1.2678940">
        <ele>60.4</ele>
        <time>2020-02-21T12:25:07Z</time>
      </trkpt>
      <trkpt lat="38.8794090" lon="1.2678570">
        <ele>60.5</ele>
        <time>2020-02-21T12:25:08Z</time>
      </trkpt>
      <trkpt lat="38.8794020" lon="1.2678440">
        <ele>60.5</ele>
        <time>2020-02-21T12:25:09Z</time>
      </trkpt>
      <trkpt lat="38.8793930" lon="1.2678250">
        <ele>60.6</ele>
        <time>2020-02-21T12:25:10Z</time>
      </trkpt>
      <trkpt lat="38.8793750" lon="1.2678150">
        <ele>60.7</ele>
        <time>2020-02-21T12:25:11Z</time>
      </trkpt>
      <trkpt lat="38.8793710" lon="1.2677800">
        <ele>60.8</ele>
        <time>2020-02-21T12:25:12Z</time>
      </trkpt>
      <trkpt lat="38.8793710" lon="1.2677670">
        <ele>60.8</ele>
        <time>2020-02-21T12:25:13Z</time>
      </trkpt>
      <trkpt lat="38.8793750" lon="1.2677290">
        <ele>60.9</ele>
        <time>2020-02-21T12:25:14Z</time>
      </trkpt>
      <trkpt lat="38.8793730" lon="1.2677150">
        <ele>61.0</ele>
        <time>2020-02-21T12:25:15Z</time>
      </trkpt>
      <trkpt lat="38.8793570" lon="1.2676870">
        <ele>61.1</ele>
        <time>2020-02-21T12:25:16Z</time>
      </trkpt>
      <trkpt lat="38.8793470" lon="1.2676740">
        <ele>61.2</ele>
        <time>2020-02-21T12:25:17Z</time>
      </trkpt>
      <trkpt lat="38.8793360" lon="1.2676640">
        <ele>61.3</ele>
        <time>2020-02-21T12:25:18Z</time>
      </trkpt>
      <trkpt lat="38.8793270" lon="1.2676490">
        <ele>61.4</ele>
        <time>2020-02-21T12:25:19Z</time>
      </trkpt>
      <trkpt lat="38.8793240" lon="1.2676310">
        <ele>61.5</ele>
        <time>2020-02-21T12:25:20Z</time>
      </trkpt>
      <trkpt lat="38.8793180" lon="1.2676110">
        <ele>61.6</ele>
        <time>2020-02-21T12:25:21Z</time>
      </trkpt>
      <trkpt lat="38.8793110" lon="1.2675760">
        <ele>61.8</ele>
        <time>2020-02-21T12:25:22Z</time>
      </trkpt>
      <trkpt lat="38.8793040" lon="1.2675350">
        <ele>62.1</ele>
        <time>2020-02-21T12:25:23Z</time>
      </trkpt>
      <trkpt lat="38.8793010" lon="1.2675270">
        <ele>62.2</ele>
        <time>2020-02-21T12:25:24Z</time>
      </trkpt>
      <trkpt lat="38.8792970" lon="1.2675200">
        <ele>62.2</ele>
        <time>2020-02-21T12:25:25Z</time>
      </trkpt>
      <trkpt lat="38.8792850" lon="1.2674980">
        <ele>62.4</ele>
        <time>2020-02-21T12:25:26Z</time>
      </trkpt>
      <trkpt lat="38.8792710" lon="1.2674570">
        <ele>62.7</ele>
        <time>2020-02-21T12:25:27Z</time>
      </trkpt>
      <trkpt lat="38.8792670" lon="1.2674440">
        <ele>62.8</ele>
        <time>2020-02-21T12:25:28Z</time>
      </trkpt>
      <trkpt lat="38.8792600" lon="1.2674360">
        <ele>62.8</ele>
        <time>2020-02-21T12:25:29Z</time>
      </trkpt>
      <trkpt lat="38.8792530" lon="1.2674130">
        <ele>63.0</ele>
        <time>2020-02-21T12:25:30Z</time>
      </trkpt>
      <trkpt lat="38.8792320" lon="1.2673880">
        <ele>63.2</ele>
        <time>2020-02-21T12:25:31Z</time>
      </trkpt>
      <trkpt lat="38.8792140" lon="1.2673830">
        <ele>63.3</ele>
        <time>2020-02-21T12:25:32Z</time>
      </trkpt>
      <trkpt lat="38.8792110" lon="1.2673920">
        <ele>63.4</ele>
        <time>2020-02-21T12:25:33Z</time>
      </trkpt>
      <trkpt lat="38.8792060" lon="1.2674090">
        <ele>63.5</ele>
        <time>2020-02-21T12:25:34Z</time>
      </trkpt>
      <trkpt lat="38.8792050" lon="1.2674360">
        <ele>63.6</ele>
        <time>2020-02-21T12:25:35Z</time>
      </trkpt>
      <trkpt lat="38.8792020" lon="1.2674210">
        <ele>63.7</ele>
        <time>2020-02-21T12:25:36Z</time>
      </trkpt>
      <trkpt lat="38.8792020" lon="1.2674160">
        <ele>63.7</ele>
        <time>2020-02-21T12:25:37Z</time>
      </trkpt>
      <trkpt lat="38.8792080" lon="1.2674190">
        <ele>63.8</ele>
        <time>2020-02-21T12:25:38Z</time>
      </trkpt>
      <trkpt lat="38.8792060" lon="1.2674230">
        <ele>63.8</ele>
        <time>2020-02-21T12:25:39Z</time>
      </trkpt>
      <trkpt lat="38.8792000" lon="1.2674250">
        <ele>63.8</ele>
        <time>2020-02-21T12:25:40Z</time>
      </trkpt>
      <trkpt lat="38.8791930" lon="1.2674300">
        <ele>63.9</ele>
        <time>2020-02-21T12:25:41Z</time>
      </trkpt>
      <trkpt lat="38.8791890" lon="1.2674380">
        <ele>63.9</ele>
        <time>2020-02-21T12:25:42Z</time>
      </trkpt>
      <trkpt lat="38.8791850" lon="1.2674470">
        <ele>64.0</ele>
        <time>2020-02-21T12:25:43Z</time>
      </trkpt>
      <trkpt lat="38.8791770" lon="1.2674620">
        <ele>64.1</ele>
        <time>2020-02-21T12:25:44Z</time>
      </trkpt>
      <trkpt lat="38.8791720" lon="1.2674670">
        <ele>64.2</ele>
        <time>2020-02-21T12:25:45Z</time>
      </trkpt>
      <trkpt lat="38.8791700" lon="1.2674550">
        <ele>64.3</ele>
        <time>2020-02-21T12:25:46Z</time>
      </trkpt>
      <trkpt lat="38.8791690" lon="1.2674430">
        <ele>64.3</ele>
        <time>2020-02-21T12:25:47Z</time>
      </trkpt>
      <trkpt lat="38.8791690" lon="1.2674300">
        <ele>64.4</ele>
        <time>2020-02-21T12:25:48Z</time>
      </trkpt>
      <trkpt lat="38.8791690" lon="1.2674180">
        <ele>64.5</ele>
        <time>2020-02-21T12:25:49Z</time>
      </trkpt>
      <trkpt lat="38.8791680" lon="1.2674060">
        <ele>64.5</ele>
        <time>2020-02-21T12:25:50Z</time>
      </trkpt>
      <trkpt lat="38.8791680" lon="1.2673940">
        <ele>64.5</ele>
        <time>2020-02-21T12:25:51Z</time>
      </trkpt>
      <trkpt lat="38.8791670" lon="1.2673820">
        <ele>64.6</ele>
        <time>2020-02-21T12:25:52Z</time>
      </trkpt>
      <trkpt lat="38.8791670" lon="1.2673700">
        <ele>64.6</ele>
        <time>2020-02-21T12:25:53Z</time>
      </trkpt>
      <trkpt lat="38.8791670" lon="1.2673570">
        <ele>64.6</ele>
        <time>2020-02-21T12:25:54Z</time>
      </trkpt>
      <trkpt lat="38.8791660" lon="1.2673450">
        <ele>64.6</ele>
        <time>2020-02-21T12:27:11Z</time>
      </trkpt>
      <trkpt lat="38.8791660" lon="1.2673330">
        <ele>64.7</ele>
        <time>2020-02-21T12:27:12Z</time>
      </trkpt>
      <trkpt lat="38.8791600" lon="1.2672860">
        <ele>64.8</ele>
        <time>2020-02-21T12:27:13Z</time>
      </trkpt>
      <trkpt lat="38.8791430" lon="1.2672240">
        <ele>64.9</ele>
        <time>2020-02-21T12:27:14Z</time>
      </trkpt>
      <trkpt lat="38.8791250" lon="1.2671700">
        <ele>65.0</ele>
        <time>2020-02-21T12:27:15Z</time>
      </trkpt>
      <trkpt lat="38.8791150" lon="1.2670820">
        <ele>65.2</ele>
        <time>2020-02-21T12:27:16Z</time>
      </trkpt>
      <trkpt lat="38.8791000" lon="1.2669930">
        <ele>65.3</ele>
        <time>2020-02-21T12:27:17Z</time>
      </trkpt>
      <trkpt lat="38.8790730" lon="1.2669100">
        <ele>65.5</ele>
        <time>2020-02-21T12:27:18Z</time>
      </trkpt>
      <trkpt lat="38.8790420" lon="1.2668200">
        <ele>65.6</ele>
        <time>2020-02-21T12:27:19Z</time>
      </trkpt>
      <trkpt lat="38.8790010" lon="1.2667320">
        <ele>65.7</ele>
        <time>2020-02-21T12:27:20Z</time>
      </trkpt>
      <trkpt lat="38.8789640" lon="1.2666560">
        <ele>65.6</ele>
        <time>2020-02-21T12:27:21Z</time>
      </trkpt>
      <trkpt lat="38.8789210" lon="1.2665920">
        <ele>65.5</ele>
        <time>2020-02-21T12:27:22Z</time>
      </trkpt>
      <trkpt lat="38.8788730" lon="1.2665350">
        <ele>65.4</ele>
        <time>2020-02-21T12:27:23Z</time>
      </trkpt>
      <trkpt lat="38.8788180" lon="1.2665050">
        <ele>65.3</ele>
        <time>2020-02-21T12:27:24Z</time>
      </trkpt>
      <trkpt lat="38.8787560" lon="1.2664870">
        <ele>65.3</ele>
        <time>2020-02-21T12:27:25Z</time>
      </trkpt>
      <trkpt lat="38.8787030" lon="1.2664690">
        <ele>65.2</ele>
        <time>2020-02-21T12:27:26Z</time>
      </trkpt>
      <trkpt lat="38.8786450" lon="1.2664430">
        <ele>65.2</ele>
        <time>2020-02-21T12:27:27Z</time>
      </trkpt>
      <trkpt lat="38.8785960" lon="1.2664180">
        <ele>65.1</ele>
        <time>2020-02-21T12:27:28Z</time>
      </trkpt>
      <trkpt lat="38.8785580" lon="1.2664010">
        <ele>65.1</ele>
        <time>2020-02-21T12:27:29Z</time>
      </trkpt>
      <trkpt lat="38.8785170" lon="1.2663840">
        <ele>65.1</ele>
        <time>2020-02-21T12:27:30Z</time>
      </trkpt>
      <trkpt lat="38.8784880" lon="1.2663660">
        <ele>65.1</ele>
        <time>2020-02-21T12:27:31Z</time>
      </trkpt>
      <trkpt lat="38.8784630" lon="1.2663380">
        <ele>65.1</ele>
        <time>2020-02-21T12:27:32Z</time>
      </trkpt>
      <trkpt lat="38.8784390" lon="1.2663090">
        <ele>65.1</ele>
        <time>2020-02-21T12:27:33Z</time>
      </trkpt>
      <trkpt lat="38.8784140" lon="1.2662830">
        <ele>65.1</ele>
        <time>2020-02-21T12:27:34Z</time>
      </trkpt>
      <trkpt lat="38.8783970" lon="1.2662460">
        <ele>65.1</ele>
        <time>2020-02-21T12:27:35Z</time>
      </trkpt>
      <trkpt lat="38.8783840" lon="1.2662100">
        <ele>65.1</ele>
        <time>2020-02-21T12:27:36Z</time>
      </trkpt>
      <trkpt lat="38.8783570" lon="1.2661800">
        <ele>65.2</ele>
        <time>2020-02-21T12:27:37Z</time>
      </trkpt>
      <trkpt lat="38.8783310" lon="1.2661460">
        <ele>65.3</ele>
        <time>2020-02-21T12:27:38Z</time>
      </trkpt>
      <trkpt lat="38.8783040" lon="1.2661100">
        <ele>65.4</ele>
        <time>2020-02-21T12:27:39Z</time>
      </trkpt>
      <trkpt lat="38.8782800" lon="1.2660800">
        <ele>65.5</ele>
        <time>2020-02-21T12:27:40Z</time>
      </trkpt>
      <trkpt lat="38.8782530" lon="1.2660620">
        <ele>65.5</ele>
        <time>2020-02-21T12:27:41Z</time>
      </trkpt>
      <trkpt lat="38.8782250" lon="1.2660460">
        <ele>65.6</ele>
        <time>2020-02-21T12:27:42Z</time>
      </trkpt>
      <trkpt lat="38.8782050" lon="1.2660200">
        <ele>65.7</ele>
        <time>2020-02-21T12:27:43Z</time>
      </trkpt>
      <trkpt lat="38.8781730" lon="1.2660050">
        <ele>65.8</ele>
        <time>2020-02-21T12:27:44Z</time>
      </trkpt>
      <trkpt lat="38.8781620" lon="1.2660020">
        <ele>65.8</ele>
        <time>2020-02-21T12:27:45Z</time>
      </trkpt>
      <trkpt lat="38.8781350" lon="1.2659890">
        <ele>65.9</ele>
        <time>2020-02-21T12:27:46Z</time>
      </trkpt>
      <trkpt lat="38.8781250" lon="1.2659860">
        <ele>66.0</ele>
        <time>2020-02-21T12:27:47Z</time>
      </trkpt>
      <trkpt lat="38.8780970" lon="1.2659670">
        <ele>66.1</ele>
        <time>2020-02-21T12:27:48Z</time>
      </trkpt>
      <trkpt lat="38.8780880" lon="1.2659610">
        <ele>66.2</ele>
        <time>2020-02-21T12:27:49Z</time>
      </trkpt>
      <trkpt lat="38.8780640" lon="1.2659380">
        <ele>66.3</ele>
        <time>2020-02-21T12:27:50Z</time>
      </trkpt>
      <trkpt lat="38.8780530" lon="1.2659370">
        <ele>66.3</ele>
        <time>2020-02-21T12:27:51Z</time>
      </trkpt>
      <trkpt lat="38.8780300" lon="1.2659180">
        <ele>66.4</ele>
        <time>2020-02-21T12:27:52Z</time>
      </trkpt>
      <trkpt lat="38.8780230" lon="1.2659120">
        <ele>66.4</ele>
        <time>2020-02-21T12:27:53Z</time>
      </trkpt>
      <trkpt lat="38.8780140" lon="1.2658940">
        <ele>66.5</ele>
        <time>2020-02-21T12:27:54Z</time>
      </trkpt>
      <trkpt lat="38.8780070" lon="1.2658830">
        <ele>66.5</ele>
        <time>2020-02-21T12:27:55Z</time>
      </trkpt>
      <trkpt lat="38.8780070" lon="1.2658670">
        <ele>66.6</ele>
        <time>2020-02-21T12:27:56Z</time>
      </trkpt>
      <trkpt lat="38.8780060" lon="1.2658640">
        <ele>66.6</ele>
        <time>2020-02-21T12:27:57Z</time>
      </trkpt>
      <trkpt lat="38.8780050" lon="1.2658610">
        <ele>66.6</ele>
        <time>2020-02-21T12:27:58Z</time>
      </trkpt>
      <trkpt lat="38.8780030" lon="1.2658570">
        <ele>66.6</ele>
        <time>2020-02-21T12:27:59Z</time>
      </trkpt>
      <trkpt lat="38.8780020" lon="1.2658540">
        <ele>66.6</ele>
        <time>2020-02-21T12:28:00Z</time>
      </trkpt>
      <trkpt lat="38.8780010" lon="1.2658510">
        <ele>66.6</ele>
        <time>2020-02-21T12:28:01Z</time>
      </trkpt>
      <trkpt lat="38.8780000" lon="1.2658480">
        <ele>66.6</ele>
        <time>2020-02-21T12:28:02Z</time>
      </trkpt>
      <trkpt lat="38.8779990" lon="1.2658450">
        <ele>66.6</ele>
        <time>2020-02-21T12:28:03Z</time>
      </trkpt>
      <trkpt lat="38.8779980" lon="1.2658420">
        <ele>66.6</ele>
        <time>2020-02-21T12:28:04Z</time>
      </trkpt>
      <trkpt lat="38.8779960" lon="1.2658380">
        <ele>66.7</ele>
        <time>2020-02-21T12:28:05Z</time>
      </trkpt>
      <trkpt lat="38.8779950" lon="1.2658350">
        <ele>66.7</ele>
        <time>2020-02-21T12:28:06Z</time>
      </trkpt>
      <trkpt lat="38.8779940" lon="1.2658320">
        <ele>66.7</ele>
        <time>2020-02-21T12:28:18Z</time>
      </trkpt>
      <trkpt lat="38.8779930" lon="1.2658290">
        <ele>66.7</ele>
        <time>2020-02-21T12:28:19Z</time>
      </trkpt>
      <trkpt lat="38.8779850" lon="1.2657870">
        <ele>66.8</ele>
        <time>2020-02-21T12:28:20Z</time>
      </trkpt>
      <trkpt lat="38.8779800" lon="1.2657730">
        <ele>66.9</ele>
        <time>2020-02-21T12:28:21Z</time>
      </trkpt>
      <trkpt lat="38.8779810" lon="1.2657360">
        <ele>67.0</ele>
        <time>2020-02-21T12:28:22Z</time>
      </trkpt>
      <trkpt lat="38.8779640" lon="1.2657020">
        <ele>67.1</ele>
        <time>2020-02-21T12:28:23Z</time>
      </trkpt>
      <trkpt lat="38.8779420" lon="1.2656680">
        <ele>67.2</ele>
        <time>2020-02-21T12:28:24Z</time>
      </trkpt>
      <trkpt lat="38.8779160" lon="1.2656380">
        <ele>67.3</ele>
        <time>2020-02-21T12:28:25Z</time>
      </trkpt>
      <trkpt lat="38.8778960" lon="1.2656000">
        <ele>67.4</ele>
        <time>2020-02-21T12:28:26Z</time>
      </trkpt>
      <trkpt lat="38.8778730" lon="1.2655630">
        <ele>67.5</ele>
        <time>2020-02-21T12:28:27Z</time>
      </trkpt>
      <trkpt lat="38.8778520" lon="1.2655260">
        <ele>67.6</ele>
        <time>2020-02-21T12:28:28Z</time>
      </trkpt>
      <trkpt lat="38.8778260" lon="1.2654850">
        <ele>67.7</ele>
        <time>2020-02-21T12:28:29Z</time>
      </trkpt>
      <trkpt lat="38.8778030" lon="1.2654350">
        <ele>67.8</ele>
        <time>2020-02-21T12:28:30Z</time>
      </trkpt>
      <trkpt lat="38.8777730" lon="1.2653810">
        <ele>67.8</ele>
        <time>2020-02-21T12:28:31Z</time>
      </trkpt>
      <trkpt lat="38.8777380" lon="1.2653230">
        <ele>67.9</ele>
        <time>2020-02-21T12:28:32Z</time>
      </trkpt>
      <trkpt lat="38.8777070" lon="1.2652610">
        <ele>67.9</ele>
        <time>2020-02-21T12:28:33Z</time>
      </trkpt>
      <trkpt lat="38.8776820" lon="1.2651970">
        <ele>68.0</ele>
        <time>2020-02-21T12:28:34Z</time>
      </trkpt>
      <trkpt lat="38.8776580" lon="1.2651340">
        <ele>68.1</ele>
        <time>2020-02-21T12:28:35Z</time>
      </trkpt>
      <trkpt lat="38.8776390" lon="1.2650640">
        <ele>68.1</ele>
        <time>2020-02-21T12:28:36Z</time>
      </trkpt>
      <trkpt lat="38.8776210" lon="1.2649750">
        <ele>68.1</ele>
        <time>2020-02-21T12:28:37Z</time>
      </trkpt>
      <trkpt lat="38.8775880" lon="1.2648760">
        <ele>68.1</ele>
        <time>2020-02-21T12:28:38Z</time>
      </trkpt>
      <trkpt lat="38.8775500" lon="1.2647780">
        <ele>68.0</ele>
        <time>2020-02-21T12:28:39Z</time>
      </trkpt>
      <trkpt lat="38.8775170" lon="1.2646800">
        <ele>67.9</ele>
        <time>2020-02-21T12:28:40Z</time>
      </trkpt>
      <trkpt lat="38.8774980" lon="1.2645790">
        <ele>67.6</ele>
        <time>2020-02-21T12:28:41Z</time>
      </trkpt>
      <trkpt lat="38.8774890" lon="1.2644790">
        <ele>67.2</ele>
        <time>2020-02-21T12:28:42Z</time>
      </trkpt>
      <trkpt lat="38.8774810" lon="1.2643820">
        <ele>66.8</ele>
        <time>2020-02-21T12:28:43Z</time>
      </trkpt>
      <trkpt lat="38.8774730" lon="1.2642840">
        <ele>66.3</ele>
        <time>2020-02-21T12:28:44Z</time>
      </trkpt>
      <trkpt lat="38.8774590" lon="1.2641850">
        <ele>65.8</ele>
        <time>2020-02-21T12:28:45Z</time>
      </trkpt>
      <trkpt lat="38.8774510" lon="1.2640850">
        <ele>64.7</ele>
        <time>2020-02-21T12:28:46Z</time>
      </trkpt>
      <trkpt lat="38.8774360" lon="1.2639860">
        <ele>63.2</ele>
        <time>2020-02-21T12:28:47Z</time>
      </trkpt>
      <trkpt lat="38.8774210" lon="1.2638950">
        <ele>62.2</ele>
        <time>2020-02-21T12:28:48Z</time>
      </trkpt>
      <trkpt lat="38.8774010" lon="1.2638130">
        <ele>61.1</ele>
        <time>2020-02-21T12:28:49Z</time>
      </trkpt>
      <trkpt lat="38.8773760" lon="1.2637370">
        <ele>60.1</ele>
        <time>2020-02-21T12:28:50Z</time>
      </trkpt>
      <trkpt lat="38.8773470" lon="1.2636710">
        <ele>59.3</ele>
        <time>2020-02-21T12:28:51Z</time>
      </trkpt>
      <trkpt lat="38.8773050" lon="1.2636290">
        <ele>58.4</ele>
        <time>2020-02-21T12:28:52Z</time>
      </trkpt>
      <trkpt lat="38.8772560" lon="1.2635990">
        <ele>57.4</ele>
        <time>2020-02-21T12:28:53Z</time>
      </trkpt>
      <trkpt lat="38.8772030" lon="1.2636020">
        <ele>56.5</ele>
        <time>2020-02-21T12:28:54Z</time>
      </trkpt>
      <trkpt lat="38.8771450" lon="1.2636340">
        <ele>55.4</ele>
        <time>2020-02-21T12:28:55Z</time>
      </trkpt>
      <trkpt lat="38.8771100" lon="1.2637150">
        <ele>54.3</ele>
        <time>2020-02-21T12:28:56Z</time>
      </trkpt>
      <trkpt lat="38.8770680" lon="1.2637940">
        <ele>52.9</ele>
        <time>2020-02-21T12:28:57Z</time>
      </trkpt>
      <trkpt lat="38.8770220" lon="1.2638810">
        <ele>51.6</ele>
        <time>2020-02-21T12:28:58Z</time>
      </trkpt>
      <trkpt lat="38.8769870" lon="1.2639890">
        <ele>50.3</ele>
        <time>2020-02-21T12:28:59Z</time>
      </trkpt>
      <trkpt lat="38.8769610" lon="1.2641000">
        <ele>48.9</ele>
        <time>2020-02-21T12:29:00Z</time>
      </trkpt>
      <trkpt lat="38.8769330" lon="1.2642030">
        <ele>47.5</ele>
        <time>2020-02-21T12:29:01Z</time>
      </trkpt>
      <trkpt lat="38.8768860" lon="1.2642910">
        <ele>46.0</ele>
        <time>2020-02-21T12:29:02Z</time>
      </trkpt>
      <trkpt lat="38.8768290" lon="1.2643600">
        <ele>44.7</ele>
        <time>2020-02-21T12:29:03Z</time>
      </trkpt>
      <trkpt lat="38.8767740" lon="1.2644140">
        <ele>43.5</ele>
        <time>2020-02-21T12:29:04Z</time>
      </trkpt>
      <trkpt lat="38.8767200" lon="1.2644430">
        <ele>42.6</ele>
        <time>2020-02-21T12:29:06Z</time>
      </trkpt>
      <trkpt lat="38.8766710" lon="1.2644620">
        <ele>41.7</ele>
        <time>2020-02-21T12:29:07Z</time>
      </trkpt>
      <trkpt lat="38.8766320" lon="1.2644650">
        <ele>41.1</ele>
        <time>2020-02-21T12:29:08Z</time>
      </trkpt>
      <trkpt lat="38.8765950" lon="1.2644630">
        <ele>40.5</ele>
        <time>2020-02-21T12:29:09Z</time>
      </trkpt>
      <trkpt lat="38.8765600" lon="1.2644660">
        <ele>39.8</ele>
        <time>2020-02-21T12:29:10Z</time>
      </trkpt>
      <trkpt lat="38.8765190" lon="1.2644780">
        <ele>39.0</ele>
        <time>2020-02-21T12:29:11Z</time>
      </trkpt>
      <trkpt lat="38.8764830" lon="1.2644830">
        <ele>38.9</ele>
        <time>2020-02-21T12:29:12Z</time>
      </trkpt>
      <trkpt lat="38.8764570" lon="1.2645230">
        <ele>39.0</ele>
        <time>2020-02-21T12:29:13Z</time>
      </trkpt>
      <trkpt lat="38.8764480" lon="1.2645400">
        <ele>39.0</ele>
        <time>2020-02-21T12:29:14Z</time>
      </trkpt>
      <trkpt lat="38.8764290" lon="1.2645450">
        <ele>39.0</ele>
        <time>2020-02-21T12:29:15Z</time>
      </trkpt>
      <trkpt lat="38.8764220" lon="1.2645480">
        <ele>39.0</ele>
        <time>2020-02-21T12:29:16Z</time>
      </trkpt>
      <trkpt lat="38.8764150" lon="1.2645510">
        <ele>39.1</ele>
        <time>2020-02-21T12:29:17Z</time>
      </trkpt>
      <trkpt lat="38.8764080" lon="1.2645540">
        <ele>39.1</ele>
        <time>2020-02-21T12:29:18Z</time>
      </trkpt>
      <trkpt lat="38.8763960" lon="1.2645630">
        <ele>39.1</ele>
        <time>2020-02-21T12:29:19Z</time>
      </trkpt>
      <trkpt lat="38.8763870" lon="1.2645680">
        <ele>39.1</ele>
        <time>2020-02-21T12:29:20Z</time>
      </trkpt>
      <trkpt lat="38.8763910" lon="1.2645560">
        <ele>39.1</ele>
        <time>2020-02-21T12:29:21Z</time>
      </trkpt>
      <trkpt lat="38.8763910" lon="1.2645530">
        <ele>39.1</ele>
        <time>2020-02-21T12:29:22Z</time>
      </trkpt>
      <trkpt lat="38.8763830" lon="1.2645680">
        <ele>39.2</ele>
        <time>2020-02-21T12:29:23Z</time>
      </trkpt>
      <trkpt lat="38.8763800" lon="1.2645680">
        <ele>39.2</ele>
        <time>2020-02-21T12:29:24Z</time>
      </trkpt>
      <trkpt lat="38.8763790" lon="1.2645620">
        <ele>39.2</ele>
        <time>2020-02-21T12:29:25Z</time>
      </trkpt>
      <trkpt lat="38.8763780" lon="1.2645330">
        <ele>39.2</ele>
        <time>2020-02-21T12:29:27Z</time>
      </trkpt>
      <trkpt lat="38.8763690" lon="1.2645180">
        <ele>39.3</ele>
        <time>2020-02-21T12:29:28Z</time>
      </trkpt>
      <trkpt lat="38.8763500" lon="1.2645180">
        <ele>39.3</ele>
        <time>2020-02-21T12:29:29Z</time>
      </trkpt>
      <trkpt lat="38.8763240" lon="1.2645320">
        <ele>39.4</ele>
        <time>2020-02-21T12:29:30Z</time>
      </trkpt>
      <trkpt lat="38.8762930" lon="1.2645350">
        <ele>39.5</ele>
        <time>2020-02-21T12:29:31Z</time>
      </trkpt>
      <trkpt lat="38.8762620" lon="1.2645210">
        <ele>39.6</ele>
        <time>2020-02-21T12:29:32Z</time>
      </trkpt>
      <trkpt lat="38.8762290" lon="1.2645210">
        <ele>39.8</ele>
        <time>2020-02-21T12:29:33Z</time>
      </trkpt>
      <trkpt lat="38.8761960" lon="1.2645140">
        <ele>39.9</ele>
        <time>2020-02-21T12:29:34Z</time>
      </trkpt>
      <trkpt lat="38.8761610" lon="1.2645210">
        <ele>40.1</ele>
        <time>2020-02-21T12:29:35Z</time>
      </trkpt>
      <trkpt lat="38.8761260" lon="1.2645260">
        <ele>40.3</ele>
        <time>2020-02-21T12:29:36Z</time>
      </trkpt>
      <trkpt lat="38.8760910" lon="1.2645280">
        <ele>40.5</ele>
        <time>2020-02-21T12:29:37Z</time>
      </trkpt>
      <trkpt lat="38.8760610" lon="1.2645190">
        <ele>40.7</ele>
        <time>2020-02-21T12:29:38Z</time>
      </trkpt>
      <trkpt lat="38.8760330" lon="1.2645020">
        <ele>40.9</ele>
        <time>2020-02-21T12:29:39Z</time>
      </trkpt>
      <trkpt lat="38.8760040" lon="1.2644830">
        <ele>41.2</ele>
        <time>2020-02-21T12:29:40Z</time>
      </trkpt>
      <trkpt lat="38.8759750" lon="1.2644530">
        <ele>41.5</ele>
        <time>2020-02-21T12:29:41Z</time>
      </trkpt>
      <trkpt lat="38.8759480" lon="1.2644340">
        <ele>41.7</ele>
        <time>2020-02-21T12:29:42Z</time>
      </trkpt>
      <trkpt lat="38.8759200" lon="1.2644200">
        <ele>42.0</ele>
        <time>2020-02-21T12:29:43Z</time>
      </trkpt>
      <trkpt lat="38.8758950" lon="1.2644010">
        <ele>42.3</ele>
        <time>2020-02-21T12:29:44Z</time>
      </trkpt>
      <trkpt lat="38.8758720" lon="1.2643790">
        <ele>42.5</ele>
        <time>2020-02-21T12:29:45Z</time>
      </trkpt>
      <trkpt lat="38.8758460" lon="1.2643670">
        <ele>42.7</ele>
        <time>2020-02-21T12:29:46Z</time>
      </trkpt>
      <trkpt lat="38.8758100" lon="1.2643480">
        <ele>43.1</ele>
        <time>2020-02-21T12:29:47Z</time>
      </trkpt>
      <trkpt lat="38.8757980" lon="1.2643420">
        <ele>43.2</ele>
        <time>2020-02-21T12:29:48Z</time>
      </trkpt>
      <trkpt lat="38.8757700" lon="1.2643090">
        <ele>43.6</ele>
        <time>2020-02-21T12:29:49Z</time>
      </trkpt>
      <trkpt lat="38.8757640" lon="1.2642940">
        <ele>43.8</ele>
        <time>2020-02-21T12:29:50Z</time>
      </trkpt>
      <trkpt lat="38.8757380" lon="1.2642590">
        <ele>44.2</ele>
        <time>2020-02-21T12:29:51Z</time>
      </trkpt>
      <trkpt lat="38.8757290" lon="1.2642490">
        <ele>44.4</ele>
        <time>2020-02-21T12:29:52Z</time>
      </trkpt>
      <trkpt lat="38.8757130" lon="1.2642100">
        <ele>44.8</ele>
        <time>2020-02-21T12:29:53Z</time>
      </trkpt>
      <trkpt lat="38.8757100" lon="1.2641960">
        <ele>45.0</ele>
        <time>2020-02-21T12:29:54Z</time>
      </trkpt>
      <trkpt lat="38.8756980" lon="1.2641620">
        <ele>45.4</ele>
        <time>2020-02-21T12:29:55Z</time>
      </trkpt>
      <trkpt lat="38.8756920" lon="1.2641530">
        <ele>45.5</ele>
        <time>2020-02-21T12:29:56Z</time>
      </trkpt>
      <trkpt lat="38.8756730" lon="1.2641230">
        <ele>45.9</ele>
        <time>2020-02-21T12:29:57Z</time>
      </trkpt>
      <trkpt lat="38.8756660" lon="1.2641150">
        <ele>46.0</ele>
        <time>2020-02-21T12:29:58Z</time>
      </trkpt>
      <trkpt lat="38.8756470" lon="1.2640870">
        <ele>46.5</ele>
        <time>2020-02-21T12:29:59Z</time>
      </trkpt>
      <trkpt lat="38.8756390" lon="1.2640830">
        <ele>46.6</ele>
        <time>2020-02-21T12:30:00Z</time>
      </trkpt>
      <trkpt lat="38.8756280" lon="1.2640720">
        <ele>46.8</ele>
        <time>2020-02-21T12:30:01Z</time>
      </trkpt>
      <trkpt lat="38.8756130" lon="1.2640640">
        <ele>47.0</ele>
        <time>2020-02-21T12:30:02Z</time>
      </trkpt>
      <trkpt lat="38.8755790" lon="1.2640410">
        <ele>47.6</ele>
        <time>2020-02-21T12:30:03Z</time>
      </trkpt>
      <trkpt lat="38.8755630" lon="1.2640320">
        <ele>47.8</ele>
        <time>2020-02-21T12:30:04Z</time>
      </trkpt>
      <trkpt lat="38.8755530" lon="1.2640150">
        <ele>48.0</ele>
        <time>2020-02-21T12:30:05Z</time>
      </trkpt>
      <trkpt lat="38.8755340" lon="1.2640170">
        <ele>48.3</ele>
        <time>2020-02-21T12:30:06Z</time>
      </trkpt>
      <trkpt lat="38.8755190" lon="1.2640160">
        <ele>48.5</ele>
        <time>2020-02-21T12:30:07Z</time>
      </trkpt>
      <trkpt lat="38.8755080" lon="1.2640020">
        <ele>48.7</ele>
        <time>2020-02-21T12:30:08Z</time>
      </trkpt>
      <trkpt lat="38.8754870" lon="1.2640130">
        <ele>49.0</ele>
        <time>2020-02-21T12:30:09Z</time>
      </trkpt>
      <trkpt lat="38.8754740" lon="1.2639980">
        <ele>49.2</ele>
        <time>2020-02-21T12:30:10Z</time>
      </trkpt>
      <trkpt lat="38.8754590" lon="1.2639960">
        <ele>49.4</ele>
        <time>2020-02-21T12:30:11Z</time>
      </trkpt>
      <trkpt lat="38.8754440" lon="1.2639900">
        <ele>49.6</ele>
        <time>2020-02-21T12:30:12Z</time>
      </trkpt>
      <trkpt lat="38.8754340" lon="1.2639760">
        <ele>49.7</ele>
        <time>2020-02-21T12:30:13Z</time>
      </trkpt>
      <trkpt lat="38.8754270" lon="1.2639630">
        <ele>49.9</ele>
        <time>2020-02-21T12:30:14Z</time>
      </trkpt>
      <trkpt lat="38.8754180" lon="1.2639610">
        <ele>50.0</ele>
        <time>2020-02-21T12:30:15Z</time>
      </trkpt>
      <trkpt lat="38.8754090" lon="1.2639550">
        <ele>50.0</ele>
        <time>2020-02-21T12:30:16Z</time>
      </trkpt>
      <trkpt lat="38.8753990" lon="1.2639570">
        <ele>50.1</ele>
        <time>2020-02-21T12:30:17Z</time>
      </trkpt>
      <trkpt lat="38.8753930" lon="1.2639590">
        <ele>50.2</ele>
        <time>2020-02-21T12:30:18Z</time>
      </trkpt>
      <trkpt lat="38.8753890" lon="1.2639590">
        <ele>50.2</ele>
        <time>2020-02-21T12:30:19Z</time>
      </trkpt>
      <trkpt lat="38.8753870" lon="1.2639530">
        <ele>50.3</ele>
        <time>2020-02-21T12:30:20Z</time>
      </trkpt>
      <trkpt lat="38.8753820" lon="1.2639480">
        <ele>50.3</ele>
        <time>2020-02-21T12:30:21Z</time>
      </trkpt>
      <trkpt lat="38.8753790" lon="1.2639350">
        <ele>50.4</ele>
        <time>2020-02-21T12:30:22Z</time>
      </trkpt>
      <trkpt lat="38.8753750" lon="1.2639220">
        <ele>50.5</ele>
        <time>2020-02-21T12:30:23Z</time>
      </trkpt>
      <trkpt lat="38.8753680" lon="1.2639060">
        <ele>50.7</ele>
        <time>2020-02-21T12:30:24Z</time>
      </trkpt>
      <trkpt lat="38.8753580" lon="1.2638890">
        <ele>50.8</ele>
        <time>2020-02-21T12:30:25Z</time>
      </trkpt>
      <trkpt lat="38.8753450" lon="1.2638850">
        <ele>50.9</ele>
        <time>2020-02-21T12:30:26Z</time>
      </trkpt>
      <trkpt lat="38.8753270" lon="1.2638860">
        <ele>51.1</ele>
        <time>2020-02-21T12:30:27Z</time>
      </trkpt>
      <trkpt lat="38.8753190" lon="1.2638710">
        <ele>51.2</ele>
        <time>2020-02-21T12:30:28Z</time>
      </trkpt>
      <trkpt lat="38.8753100" lon="1.2638520">
        <ele>51.3</ele>
        <time>2020-02-21T12:30:29Z</time>
      </trkpt>
      <trkpt lat="38.8752940" lon="1.2638460">
        <ele>51.5</ele>
        <time>2020-02-21T12:30:30Z</time>
      </trkpt>
      <trkpt lat="38.8752840" lon="1.2638320">
        <ele>51.6</ele>
        <time>2020-02-21T12:30:31Z</time>
      </trkpt>
      <trkpt lat="38.8752690" lon="1.2638250">
        <ele>51.7</ele>
        <time>2020-02-21T12:30:32Z</time>
      </trkpt>
      <trkpt lat="38.8752540" lon="1.2638160">
        <ele>51.9</ele>
        <time>2020-02-21T12:30:33Z</time>
      </trkpt>
      <trkpt lat="38.8752360" lon="1.2638120">
        <ele>52.0</ele>
        <time>2020-02-21T12:30:34Z</time>
      </trkpt>
      <trkpt lat="38.8752100" lon="1.2638030">
        <ele>52.2</ele>
        <time>2020-02-21T12:30:35Z</time>
      </trkpt>
      <trkpt lat="38.8752000" lon="1.2638030">
        <ele>52.3</ele>
        <time>2020-02-21T12:30:36Z</time>
      </trkpt>
      <trkpt lat="38.8751710" lon="1.2637920">
        <ele>52.5</ele>
        <time>2020-02-21T12:30:37Z</time>
      </trkpt>
      <trkpt lat="38.8751620" lon="1.2637890">
        <ele>52.5</ele>
        <time>2020-02-21T12:30:38Z</time>
      </trkpt>
      <trkpt lat="38.8751360" lon="1.2637720">
        <ele>52.7</ele>
        <time>2020-02-21T12:30:39Z</time>
      </trkpt>
      <trkpt lat="38.8751270" lon="1.2637650">
        <ele>52.8</ele>
        <time>2020-02-21T12:30:40Z</time>
      </trkpt>
      <trkpt lat="38.8750990" lon="1.2637510">
        <ele>53.0</ele>
        <time>2020-02-21T12:30:41Z</time>
      </trkpt>
      <trkpt lat="38.8750880" lon="1.2637500">
        <ele>53.0</ele>
        <time>2020-02-21T12:30:42Z</time>
      </trkpt>
      <trkpt lat="38.8750610" lon="1.2637260">
        <ele>53.2</ele>
        <time>2020-02-21T12:30:43Z</time>
      </trkpt>
      <trkpt lat="38.8750520" lon="1.2637160">
        <ele>53.3</ele>
        <time>2020-02-21T12:30:44Z</time>
      </trkpt>
      <trkpt lat="38.8750200" lon="1.2637130">
        <ele>53.5</ele>
        <time>2020-02-21T12:30:45Z</time>
      </trkpt>
      <trkpt lat="38.8750090" lon="1.2637130">
        <ele>53.5</ele>
        <time>2020-02-21T12:30:46Z</time>
      </trkpt>
      <trkpt lat="38.8749780" lon="1.2636960">
        <ele>53.7</ele>
        <time>2020-02-21T12:30:47Z</time>
      </trkpt>
      <trkpt lat="38.8749670" lon="1.2636940">
        <ele>53.8</ele>
        <time>2020-02-21T12:30:48Z</time>
      </trkpt>
      <trkpt lat="38.8749360" lon="1.2636790">
        <ele>54.0</ele>
        <time>2020-02-21T12:30:49Z</time>
      </trkpt>
      <trkpt lat="38.8749250" lon="1.2636730">
        <ele>54.0</ele>
        <time>2020-02-21T12:30:50Z</time>
      </trkpt>
      <trkpt lat="38.8748980" lon="1.2636550">
        <ele>54.2</ele>
        <time>2020-02-21T12:30:51Z</time>
      </trkpt>
      <trkpt lat="38.8748870" lon="1.2636540">
        <ele>54.3</ele>
        <time>2020-02-21T12:30:52Z</time>
      </trkpt>
      <trkpt lat="38.8748570" lon="1.2636430">
        <ele>54.4</ele>
        <time>2020-02-21T12:30:53Z</time>
      </trkpt>
      <trkpt lat="38.8748470" lon="1.2636350">
        <ele>54.5</ele>
        <time>2020-02-21T12:30:54Z</time>
      </trkpt>
      <trkpt lat="38.8748130" lon="1.2636280">
        <ele>54.6</ele>
        <time>2020-02-21T12:30:55Z</time>
      </trkpt>
      <trkpt lat="38.8748020" lon="1.2636220">
        <ele>54.7</ele>
        <time>2020-02-21T12:30:56Z</time>
      </trkpt>
      <trkpt lat="38.8747700" lon="1.2636040">
        <ele>54.8</ele>
        <time>2020-02-21T12:30:57Z</time>
      </trkpt>
      <trkpt lat="38.8747600" lon="1.2635940">
        <ele>54.9</ele>
        <time>2020-02-21T12:30:58Z</time>
      </trkpt>
      <trkpt lat="38.8747230" lon="1.2635860">
        <ele>55.0</ele>
        <time>2020-02-21T12:30:59Z</time>
      </trkpt>
      <trkpt lat="38.8747120" lon="1.2635790">
        <ele>55.0</ele>
        <time>2020-02-21T12:31:00Z</time>
      </trkpt>
      <trkpt lat="38.8746800" lon="1.2635620">
        <ele>55.1</ele>
        <time>2020-02-21T12:31:01Z</time>
      </trkpt>
      <trkpt lat="38.8746700" lon="1.2635530">
        <ele>55.2</ele>
        <time>2020-02-21T12:31:02Z</time>
      </trkpt>
      <trkpt lat="38.8746390" lon="1.2635350">
        <ele>55.3</ele>
        <time>2020-02-21T12:31:03Z</time>
      </trkpt>
      <trkpt lat="38.8746280" lon="1.2635300">
        <ele>55.3</ele>
        <time>2020-02-21T12:31:04Z</time>
      </trkpt>
      <trkpt lat="38.8745960" lon="1.2635100">
        <ele>55.4</ele>
        <time>2020-02-21T12:31:05Z</time>
      </trkpt>
      <trkpt lat="38.8745850" lon="1.2635020">
        <ele>55.4</ele>
        <time>2020-02-21T12:31:06Z</time>
      </trkpt>
      <trkpt lat="38.8745540" lon="1.2634710">
        <ele>55.4</ele>
        <time>2020-02-21T12:31:07Z</time>
      </trkpt>
      <trkpt lat="38.8745430" lon="1.2634600">
        <ele>55.4</ele>
        <time>2020-02-21T12:31:08Z</time>
      </trkpt>
      <trkpt lat="38.8745260" lon="1.2634330">
        <ele>55.4</ele>
        <time>2020-02-21T12:31:09Z</time>
      </trkpt>
      <trkpt lat="38.8745060" lon="1.2634090">
        <ele>55.4</ele>
        <time>2020-02-21T12:31:10Z</time>
      </trkpt>
      <trkpt lat="38.8744800" lon="1.2633940">
        <ele>55.3</ele>
        <time>2020-02-21T12:31:11Z</time>
      </trkpt>
      <trkpt lat="38.8744550" lon="1.2633740">
        <ele>55.2</ele>
        <time>2020-02-21T12:31:12Z</time>
      </trkpt>
      <trkpt lat="38.8744220" lon="1.2633690">
        <ele>55.0</ele>
        <time>2020-02-21T12:31:13Z</time>
      </trkpt>
      <trkpt lat="38.8744030" lon="1.2633390">
        <ele>54.9</ele>
        <time>2020-02-21T12:31:14Z</time>
      </trkpt>
      <trkpt lat="38.8743860" lon="1.2633050">
        <ele>54.7</ele>
        <time>2020-02-21T12:31:15Z</time>
      </trkpt>
      <trkpt lat="38.8743710" lon="1.2632550">
        <ele>54.3</ele>
        <time>2020-02-21T12:31:16Z</time>
      </trkpt>
      <trkpt lat="38.8743430" lon="1.2632120">
        <ele>54.0</ele>
        <time>2020-02-21T12:31:17Z</time>
      </trkpt>
      <trkpt lat="38.8743220" lon="1.2631680">
        <ele>53.6</ele>
        <time>2020-02-21T12:31:18Z</time>
      </trkpt>
      <trkpt lat="38.8742960" lon="1.2631340">
        <ele>53.3</ele>
        <time>2020-02-21T12:31:19Z</time>
      </trkpt>
      <trkpt lat="38.8742680" lon="1.2631110">
        <ele>52.9</ele>
        <time>2020-02-21T12:31:20Z</time>
      </trkpt>
      <trkpt lat="38.8742340" lon="1.2630750">
        <ele>52.5</ele>
        <time>2020-02-21T12:31:21Z</time>
      </trkpt>
      <trkpt lat="38.8741990" lon="1.2630210">
        <ele>52.0</ele>
        <time>2020-02-21T12:31:22Z</time>
      </trkpt>
      <trkpt lat="38.8741630" lon="1.2629590">
        <ele>51.5</ele>
        <time>2020-02-21T12:31:23Z</time>
      </trkpt>
      <trkpt lat="38.8741260" lon="1.2628820">
        <ele>51.1</ele>
        <time>2020-02-21T12:31:24Z</time>
      </trkpt>
      <trkpt lat="38.8741050" lon="1.2627950">
        <ele>51.0</ele>
        <time>2020-02-21T12:31:25Z</time>
      </trkpt>
      <trkpt lat="38.8740830" lon="1.2627110">
        <ele>51.0</ele>
        <time>2020-02-21T12:31:26Z</time>
      </trkpt>
      <trkpt lat="38.8740550" lon="1.2626300">
        <ele>51.1</ele>
        <time>2020-02-21T12:31:27Z</time>
      </trkpt>
      <trkpt lat="38.8740130" lon="1.2625710">
        <ele>51.4</ele>
        <time>2020-02-21T12:31:28Z</time>
      </trkpt>
      <trkpt lat="38.8739810" lon="1.2625100">
        <ele>51.7</ele>
        <time>2020-02-21T12:31:29Z</time>
      </trkpt>
      <trkpt lat="38.8739490" lon="1.2624590">
        <ele>52.0</ele>
        <time>2020-02-21T12:31:30Z</time>
      </trkpt>
      <trkpt lat="38.8739240" lon="1.2624050">
        <ele>52.4</ele>
        <time>2020-02-21T12:31:31Z</time>
      </trkpt>
      <trkpt lat="38.8738920" lon="1.2623580">
        <ele>52.7</ele>
        <time>2020-02-21T12:31:32Z</time>
      </trkpt>
      <trkpt lat="38.8738690" lon="1.2623100">
        <ele>53.0</ele>
        <time>2020-02-21T12:31:33Z</time>
      </trkpt>
      <trkpt lat="38.8738500" lon="1.2622600">
        <ele>53.2</ele>
        <time>2020-02-21T12:31:34Z</time>
      </trkpt>
      <trkpt lat="38.8738310" lon="1.2622180">
        <ele>53.4</ele>
        <time>2020-02-21T12:31:35Z</time>
      </trkpt>
      <trkpt lat="38.8738100" lon="1.2621830">
        <ele>53.5</ele>
        <time>2020-02-21T12:31:36Z</time>
      </trkpt>
      <trkpt lat="38.8737910" lon="1.2621470">
        <ele>53.6</ele>
        <time>2020-02-21T12:31:37Z</time>
      </trkpt>
      <trkpt lat="38.8737710" lon="1.2621120">
        <ele>53.7</ele>
        <time>2020-02-21T12:31:38Z</time>
      </trkpt>
      <trkpt lat="38.8737580" lon="1.2620670">
        <ele>53.9</ele>
        <time>2020-02-21T12:31:39Z</time>
      </trkpt>
      <trkpt lat="38.8737410" lon="1.2620250">
        <ele>54.1</ele>
        <time>2020-02-21T12:31:40Z</time>
      </trkpt>
      <trkpt lat="38.8737230" lon="1.2619830">
        <ele>54.3</ele>
        <time>2020-02-21T12:31:41Z</time>
      </trkpt>
      <trkpt lat="38.8737000" lon="1.2619500">
        <ele>54.6</ele>
        <time>2020-02-21T12:31:42Z</time>
      </trkpt>
      <trkpt lat="38.8736740" lon="1.2619220">
        <ele>54.9</ele>
        <time>2020-02-21T12:31:43Z</time>
      </trkpt>
      <trkpt lat="38.8736510" lon="1.2618900">
        <ele>55.2</ele>
        <time>2020-02-21T12:31:44Z</time>
      </trkpt>
      <trkpt lat="38.8736310" lon="1.2618590">
        <ele>55.6</ele>
        <time>2020-02-21T12:31:45Z</time>
      </trkpt>
      <trkpt lat="38.8736070" lon="1.2618330">
        <ele>55.9</ele>
        <time>2020-02-21T12:31:46Z</time>
      </trkpt>
      <trkpt lat="38.8735790" lon="1.2618120">
        <ele>56.3</ele>
        <time>2020-02-21T12:31:47Z</time>
      </trkpt>
      <trkpt lat="38.8735610" lon="1.2617800">
        <ele>56.6</ele>
        <time>2020-02-21T12:31:48Z</time>
      </trkpt>
      <trkpt lat="38.8735430" lon="1.2617530">
        <ele>56.9</ele>
        <time>2020-02-21T12:31:49Z</time>
      </trkpt>
      <trkpt lat="38.8735270" lon="1.2617170">
        <ele>57.2</ele>
        <time>2020-02-21T12:31:50Z</time>
      </trkpt>
      <trkpt lat="38.8735230" lon="1.2617070">
        <ele>57.2</ele>
        <time>2020-02-21T12:31:51Z</time>
      </trkpt>
      <trkpt lat="38.8734990" lon="1.2616900">
        <ele>57.5</ele>
        <time>2020-02-21T12:31:52Z</time>
      </trkpt>
      <trkpt lat="38.8734890" lon="1.2616860">
        <ele>57.6</ele>
        <time>2020-02-21T12:31:53Z</time>
      </trkpt>
      <trkpt lat="38.8734580" lon="1.2616680">
        <ele>57.9</ele>
        <time>2020-02-21T12:31:54Z</time>
      </trkpt>
      <trkpt lat="38.8734450" lon="1.2616650">
        <ele>58.0</ele>
        <time>2020-02-21T12:31:55Z</time>
      </trkpt>
      <trkpt lat="38.8734230" lon="1.2616350">
        <ele>58.3</ele>
        <time>2020-02-21T12:31:56Z</time>
      </trkpt>
      <trkpt lat="38.8734140" lon="1.2616240">
        <ele>58.4</ele>
        <time>2020-02-21T12:31:57Z</time>
      </trkpt>
      <trkpt lat="38.8733940" lon="1.2615880">
        <ele>58.7</ele>
        <time>2020-02-21T12:31:58Z</time>
      </trkpt>
      <trkpt lat="38.8733840" lon="1.2615780">
        <ele>58.8</ele>
        <time>2020-02-21T12:31:59Z</time>
      </trkpt>
      <trkpt lat="38.8733610" lon="1.2615480">
        <ele>59.2</ele>
        <time>2020-02-21T12:32:00Z</time>
      </trkpt>
      <trkpt lat="38.8733530" lon="1.2615390">
        <ele>59.3</ele>
        <time>2020-02-21T12:32:01Z</time>
      </trkpt>
      <trkpt lat="38.8733280" lon="1.2615140">
        <ele>59.6</ele>
        <time>2020-02-21T12:32:02Z</time>
      </trkpt>
      <trkpt lat="38.8733180" lon="1.2615080">
        <ele>59.7</ele>
        <time>2020-02-21T12:32:03Z</time>
      </trkpt>
      <trkpt lat="38.8732900" lon="1.2614830">
        <ele>60.1</ele>
        <time>2020-02-21T12:32:04Z</time>
      </trkpt>
      <trkpt lat="38.8732800" lon="1.2614770">
        <ele>60.2</ele>
        <time>2020-02-21T12:32:05Z</time>
      </trkpt>
      <trkpt lat="38.8732520" lon="1.2614580">
        <ele>60.5</ele>
        <time>2020-02-21T12:32:06Z</time>
      </trkpt>
      <trkpt lat="38.8732430" lon="1.2614500">
        <ele>60.6</ele>
        <time>2020-02-21T12:32:07Z</time>
      </trkpt>
      <trkpt lat="38.8732350" lon="1.2614110">
        <ele>60.9</ele>
        <time>2020-02-21T12:32:08Z</time>
      </trkpt>
      <trkpt lat="38.8732310" lon="1.2614010">
        <ele>61.0</ele>
        <time>2020-02-21T12:32:09Z</time>
      </trkpt>
      <trkpt lat="38.8732100" lon="1.2613750">
        <ele>61.3</ele>
        <time>2020-02-21T12:32:10Z</time>
      </trkpt>
      <trkpt lat="38.8732020" lon="1.2613660">
        <ele>61.4</ele>
        <time>2020-02-21T12:32:11Z</time>
      </trkpt>
      <trkpt lat="38.8731690" lon="1.2613650">
        <ele>61.6</ele>
        <time>2020-02-21T12:32:12Z</time>
      </trkpt>
      <trkpt lat="38.8731530" lon="1.2613250">
        <ele>61.8</ele>
        <time>2020-02-21T12:32:13Z</time>
      </trkpt>
      <trkpt lat="38.8731490" lon="1.2613120">
        <ele>61.9</ele>
        <time>2020-02-21T12:32:14Z</time>
      </trkpt>
      <trkpt lat="38.8731270" lon="1.2612830">
        <ele>62.1</ele>
        <time>2020-02-21T12:32:15Z</time>
      </trkpt>
      <trkpt lat="38.8731190" lon="1.2612730">
        <ele>62.1</ele>
        <time>2020-02-21T12:32:16Z</time>
      </trkpt>
      <trkpt lat="38.8730950" lon="1.2612370">
        <ele>62.3</ele>
        <time>2020-02-21T12:32:17Z</time>
      </trkpt>
      <trkpt lat="38.8730890" lon="1.2612230">
        <ele>62.3</ele>
        <time>2020-02-21T12:32:18Z</time>
      </trkpt>
      <trkpt lat="38.8730670" lon="1.2611880">
        <ele>62.4</ele>
        <time>2020-02-21T12:32:19Z</time>
      </trkpt>
      <trkpt lat="38.8730600" lon="1.2611760">
        <ele>62.4</ele>
        <time>2020-02-21T12:32:20Z</time>
      </trkpt>
      <trkpt lat="38.8730430" lon="1.2611350">
        <ele>62.5</ele>
        <time>2020-02-21T12:32:21Z</time>
      </trkpt>
      <trkpt lat="38.8730370" lon="1.2611220">
        <ele>62.5</ele>
        <time>2020-02-21T12:32:22Z</time>
      </trkpt>
      <trkpt lat="38.8730140" lon="1.2610880">
        <ele>62.6</ele>
        <time>2020-02-21T12:32:23Z</time>
      </trkpt>
      <trkpt lat="38.8730060" lon="1.2610760">
        <ele>62.6</ele>
        <time>2020-02-21T12:32:24Z</time>
      </trkpt>
      <trkpt lat="38.8729730" lon="1.2610490">
        <ele>62.6</ele>
        <time>2020-02-21T12:32:25Z</time>
      </trkpt>
      <trkpt lat="38.8729600" lon="1.2610430">
        <ele>62.6</ele>
        <time>2020-02-21T12:32:26Z</time>
      </trkpt>
      <trkpt lat="38.8729430" lon="1.2610130">
        <ele>62.6</ele>
        <time>2020-02-21T12:32:27Z</time>
      </trkpt>
      <trkpt lat="38.8729250" lon="1.2609820">
        <ele>62.5</ele>
        <time>2020-02-21T12:32:28Z</time>
      </trkpt>
      <trkpt lat="38.8729060" lon="1.2609530">
        <ele>62.5</ele>
        <time>2020-02-21T12:32:29Z</time>
      </trkpt>
      <trkpt lat="38.8728890" lon="1.2609210">
        <ele>62.5</ele>
        <time>2020-02-21T12:32:30Z</time>
      </trkpt>
      <trkpt lat="38.8728740" lon="1.2608850">
        <ele>62.5</ele>
        <time>2020-02-21T12:32:31Z</time>
      </trkpt>
      <trkpt lat="38.8728580" lon="1.2608480">
        <ele>62.5</ele>
        <time>2020-02-21T12:32:32Z</time>
      </trkpt>
      <trkpt lat="38.8728430" lon="1.2608090">
        <ele>62.5</ele>
        <time>2020-02-21T12:32:33Z</time>
      </trkpt>
      <trkpt lat="38.8728250" lon="1.2607720">
        <ele>62.5</ele>
        <time>2020-02-21T12:32:34Z</time>
      </trkpt>
      <trkpt lat="38.8728030" lon="1.2607350">
        <ele>62.6</ele>
        <time>2020-02-21T12:32:35Z</time>
      </trkpt>
      <trkpt lat="38.8727820" lon="1.2606970">
        <ele>62.6</ele>
        <time>2020-02-21T12:32:36Z</time>
      </trkpt>
      <trkpt lat="38.8727640" lon="1.2606570">
        <ele>62.7</ele>
        <time>2020-02-21T12:32:37Z</time>
      </trkpt>
      <trkpt lat="38.8727430" lon="1.2606300">
        <ele>62.7</ele>
        <time>2020-02-21T12:32:38Z</time>
      </trkpt>
      <trkpt lat="38.8727200" lon="1.2605990">
        <ele>62.8</ele>
        <time>2020-02-21T12:32:39Z</time>
      </trkpt>
      <trkpt lat="38.8726950" lon="1.2605710">
        <ele>62.8</ele>
        <time>2020-02-21T12:32:40Z</time>
      </trkpt>
      <trkpt lat="38.8726650" lon="1.2605620">
        <ele>62.9</ele>
        <time>2020-02-21T12:32:41Z</time>
      </trkpt>
      <trkpt lat="38.8726340" lon="1.2605490">
        <ele>63.0</ele>
        <time>2020-02-21T12:32:42Z</time>
      </trkpt>
      <trkpt lat="38.8726030" lon="1.2605310">
        <ele>63.1</ele>
        <time>2020-02-21T12:32:43Z</time>
      </trkpt>
      <trkpt lat="38.8725740" lon="1.2605050">
        <ele>63.2</ele>
        <time>2020-02-21T12:32:44Z</time>
      </trkpt>
      <trkpt lat="38.8725460" lon="1.2604750">
        <ele>63.4</ele>
        <time>2020-02-21T12:32:45Z</time>
      </trkpt>
      <trkpt lat="38.8725150" lon="1.2604490">
        <ele>63.5</ele>
        <time>2020-02-21T12:32:46Z</time>
      </trkpt>
      <trkpt lat="38.8724800" lon="1.2604250">
        <ele>63.7</ele>
        <time>2020-02-21T12:32:47Z</time>
      </trkpt>
      <trkpt lat="38.8724440" lon="1.2603970">
        <ele>63.9</ele>
        <time>2020-02-21T12:32:48Z</time>
      </trkpt>
      <trkpt lat="38.8724070" lon="1.2603810">
        <ele>64.1</ele>
        <time>2020-02-21T12:32:49Z</time>
      </trkpt>
      <trkpt lat="38.8723770" lon="1.2603750">
        <ele>64.3</ele>
        <time>2020-02-21T12:32:50Z</time>
      </trkpt>
      <trkpt lat="38.8723440" lon="1.2603610">
        <ele>64.4</ele>
        <time>2020-02-21T12:32:51Z</time>
      </trkpt>
      <trkpt lat="38.8722960" lon="1.2603390">
        <ele>64.7</ele>
        <time>2020-02-21T12:32:52Z</time>
      </trkpt>
      <trkpt lat="38.8722730" lon="1.2603270">
        <ele>64.9</ele>
        <time>2020-02-21T12:32:53Z</time>
      </trkpt>
      <trkpt lat="38.8722440" lon="1.2603080">
        <ele>65.1</ele>
        <time>2020-02-21T12:32:54Z</time>
      </trkpt>
      <trkpt lat="38.8722100" lon="1.2602990">
        <ele>65.4</ele>
        <time>2020-02-21T12:32:55Z</time>
      </trkpt>
      <trkpt lat="38.8721820" lon="1.2602690">
        <ele>65.7</ele>
        <time>2020-02-21T12:32:56Z</time>
      </trkpt>
      <trkpt lat="38.8721470" lon="1.2602340">
        <ele>66.0</ele>
        <time>2020-02-21T12:32:57Z</time>
      </trkpt>
      <trkpt lat="38.8721330" lon="1.2602120">
        <ele>66.2</ele>
        <time>2020-02-21T12:32:58Z</time>
      </trkpt>
      <trkpt lat="38.8721170" lon="1.2601750">
        <ele>66.6</ele>
        <time>2020-02-21T12:32:59Z</time>
      </trkpt>
      <trkpt lat="38.8721040" lon="1.2601380">
        <ele>66.9</ele>
        <time>2020-02-21T12:33:00Z</time>
      </trkpt>
      <trkpt lat="38.8720890" lon="1.2600910">
        <ele>67.4</ele>
        <time>2020-02-21T12:33:01Z</time>
      </trkpt>
      <trkpt lat="38.8720800" lon="1.2600730">
        <ele>67.7</ele>
        <time>2020-02-21T12:33:02Z</time>
      </trkpt>
      <trkpt lat="38.8720580" lon="1.2600390">
        <ele>68.2</ele>
        <time>2020-02-21T12:33:03Z</time>
      </trkpt>
      <trkpt lat="38.8720490" lon="1.2600210">
        <ele>68.4</ele>
        <time>2020-02-21T12:33:04Z</time>
      </trkpt>
      <trkpt lat="38.8720260" lon="1.2599860">
        <ele>69.6</ele>
        <time>2020-02-21T12:33:05Z</time>
      </trkpt>
      <trkpt lat="38.8720180" lon="1.2599750">
        <ele>69.6</ele>
        <time>2020-02-21T12:33:06Z</time>
      </trkpt>
      <trkpt lat="38.8720000" lon="1.2599420">
        <ele>69.8</ele>
        <time>2020-02-21T12:33:07Z</time>
      </trkpt>
      <trkpt lat="38.8719940" lon="1.2599330">
        <ele>69.9</ele>
        <time>2020-02-21T12:33:08Z</time>
      </trkpt>
      <trkpt lat="38.8719770" lon="1.2599030">
        <ele>70.1</ele>
        <time>2020-02-21T12:33:09Z</time>
      </trkpt>
      <trkpt lat="38.8719730" lon="1.2598940">
        <ele>70.1</ele>
        <time>2020-02-21T12:33:10Z</time>
      </trkpt>
      <trkpt lat="38.8719690" lon="1.2598900">
        <ele>70.1</ele>
        <time>2020-02-21T12:33:11Z</time>
      </trkpt>
      <trkpt lat="38.8719570" lon="1.2598700">
        <ele>70.3</ele>
        <time>2020-02-21T12:33:12Z</time>
      </trkpt>
      <trkpt lat="38.8719480" lon="1.2598490">
        <ele>70.4</ele>
        <time>2020-02-21T12:33:13Z</time>
      </trkpt>
      <trkpt lat="38.8719370" lon="1.2598400">
        <ele>70.5</ele>
        <time>2020-02-21T12:33:14Z</time>
      </trkpt>
      <trkpt lat="38.8719300" lon="1.2598220">
        <ele>70.6</ele>
        <time>2020-02-21T12:33:15Z</time>
      </trkpt>
      <trkpt lat="38.8719170" lon="1.2598100">
        <ele>70.7</ele>
        <time>2020-02-21T12:33:16Z</time>
      </trkpt>
      <trkpt lat="38.8719050" lon="1.2597890">
        <ele>70.8</ele>
        <time>2020-02-21T12:33:17Z</time>
      </trkpt>
      <trkpt lat="38.8719050" lon="1.2597720">
        <ele>70.9</ele>
        <time>2020-02-21T12:33:18Z</time>
      </trkpt>
      <trkpt lat="38.8718840" lon="1.2597380">
        <ele>71.1</ele>
        <time>2020-02-21T12:33:19Z</time>
      </trkpt>
      <trkpt lat="38.8718800" lon="1.2597260">
        <ele>71.1</ele>
        <time>2020-02-21T12:33:20Z</time>
      </trkpt>
      <trkpt lat="38.8718740" lon="1.2597090">
        <ele>71.2</ele>
        <time>2020-02-21T12:33:21Z</time>
      </trkpt>
      <trkpt lat="38.8718620" lon="1.2596900">
        <ele>71.4</ele>
        <time>2020-02-21T12:33:22Z</time>
      </trkpt>
      <trkpt lat="38.8718510" lon="1.2596730">
        <ele>71.5</ele>
        <time>2020-02-21T12:33:23Z</time>
      </trkpt>
      <trkpt lat="38.8718380" lon="1.2596590">
        <ele>71.6</ele>
        <time>2020-02-21T12:33:24Z</time>
      </trkpt>
      <trkpt lat="38.8718230" lon="1.2596530">
        <ele>71.7</ele>
        <time>2020-02-21T12:33:25Z</time>
      </trkpt>
      <trkpt lat="38.8718190" lon="1.2596360">
        <ele>71.8</ele>
        <time>2020-02-21T12:33:26Z</time>
      </trkpt>
      <trkpt lat="38.8718170" lon="1.2596260">
        <ele>71.9</ele>
        <time>2020-02-21T12:33:27Z</time>
      </trkpt>
      <trkpt lat="38.8718080" lon="1.2596080">
        <ele>72.1</ele>
        <time>2020-02-21T12:33:28Z</time>
      </trkpt>
      <trkpt lat="38.8717980" lon="1.2595870">
        <ele>72.3</ele>
        <time>2020-02-21T12:33:29Z</time>
      </trkpt>
      <trkpt lat="38.8717890" lon="1.2595740">
        <ele>72.4</ele>
        <time>2020-02-21T12:33:30Z</time>
      </trkpt>
      <trkpt lat="38.8717740" lon="1.2595820">
        <ele>72.6</ele>
        <time>2020-02-21T12:33:31Z</time>
      </trkpt>
      <trkpt lat="38.8717710" lon="1.2595960">
        <ele>72.8</ele>
        <time>2020-02-21T12:33:32Z</time>
      </trkpt>
      <trkpt lat="38.8717510" lon="1.2595690">
        <ele>73.2</ele>
        <time>2020-02-21T12:33:33Z</time>
      </trkpt>
      <trkpt lat="38.8717480" lon="1.2595600">
        <ele>73.2</ele>
        <time>2020-02-21T12:33:34Z</time>
      </trkpt>
      <trkpt lat="38.8717450" lon="1.2595520">
        <ele>73.3</ele>
        <time>2020-02-21T12:33:35Z</time>
      </trkpt>
      <trkpt lat="38.8717350" lon="1.2595330">
        <ele>73.6</ele>
        <time>2020-02-21T12:33:36Z</time>
      </trkpt>
      <trkpt lat="38.8717290" lon="1.2595220">
        <ele>73.7</ele>
        <time>2020-02-21T12:33:37Z</time>
      </trkpt>
      <trkpt lat="38.8717240" lon="1.2595120">
        <ele>73.8</ele>
        <time>2020-02-21T12:33:38Z</time>
      </trkpt>
      <trkpt lat="38.8717170" lon="1.2594860">
        <ele>74.0</ele>
        <time>2020-02-21T12:33:39Z</time>
      </trkpt>
      <trkpt lat="38.8717100" lon="1.2594720">
        <ele>74.2</ele>
        <time>2020-02-21T12:33:40Z</time>
      </trkpt>
      <trkpt lat="38.8717030" lon="1.2594570">
        <ele>74.3</ele>
        <time>2020-02-21T12:33:41Z</time>
      </trkpt>
      <trkpt lat="38.8716910" lon="1.2594190">
        <ele>74.7</ele>
        <time>2020-02-21T12:33:42Z</time>
      </trkpt>
      <trkpt lat="38.8716890" lon="1.2594050">
        <ele>74.8</ele>
        <time>2020-02-21T12:33:43Z</time>
      </trkpt>
      <trkpt lat="38.8716820" lon="1.2593830">
        <ele>75.0</ele>
        <time>2020-02-21T12:33:44Z</time>
      </trkpt>
      <trkpt lat="38.8716730" lon="1.2593680">
        <ele>75.2</ele>
        <time>2020-02-21T12:33:45Z</time>
      </trkpt>
      <trkpt lat="38.8716610" lon="1.2593530">
        <ele>75.4</ele>
        <time>2020-02-21T12:33:46Z</time>
      </trkpt>
      <trkpt lat="38.8716480" lon="1.2593450">
        <ele>75.6</ele>
        <time>2020-02-21T12:33:47Z</time>
      </trkpt>
      <trkpt lat="38.8716390" lon="1.2593290">
        <ele>75.8</ele>
        <time>2020-02-21T12:33:48Z</time>
      </trkpt>
      <trkpt lat="38.8716220" lon="1.2593140">
        <ele>76.0</ele>
        <time>2020-02-21T12:33:49Z</time>
      </trkpt>
      <trkpt lat="38.8716050" lon="1.2593030">
        <ele>76.3</ele>
        <time>2020-02-21T12:33:50Z</time>
      </trkpt>
      <trkpt lat="38.8715930" lon="1.2592910">
        <ele>76.5</ele>
        <time>2020-02-21T12:33:51Z</time>
      </trkpt>
      <trkpt lat="38.8715810" lon="1.2592750">
        <ele>76.7</ele>
        <time>2020-02-21T12:33:52Z</time>
      </trkpt>
      <trkpt lat="38.8715780" lon="1.2592640">
        <ele>76.8</ele>
        <time>2020-02-21T12:33:53Z</time>
      </trkpt>
      <trkpt lat="38.8715770" lon="1.2592510">
        <ele>77.0</ele>
        <time>2020-02-21T12:33:54Z</time>
      </trkpt>
      <trkpt lat="38.8715740" lon="1.2592310">
        <ele>77.3</ele>
        <time>2020-02-21T12:33:55Z</time>
      </trkpt>
      <trkpt lat="38.8715670" lon="1.2592150">
        <ele>77.5</ele>
        <time>2020-02-21T12:33:56Z</time>
      </trkpt>
      <trkpt lat="38.8715450" lon="1.2591880">
        <ele>78.0</ele>
        <time>2020-02-21T12:33:57Z</time>
      </trkpt>
      <trkpt lat="38.8715380" lon="1.2591810">
        <ele>78.2</ele>
        <time>2020-02-21T12:33:58Z</time>
      </trkpt>
      <trkpt lat="38.8715480" lon="1.2591470">
        <ele>78.7</ele>
        <time>2020-02-21T12:33:59Z</time>
      </trkpt>
      <trkpt lat="38.8715500" lon="1.2591300">
        <ele>79.0</ele>
        <time>2020-02-21T12:34:00Z</time>
      </trkpt>
      <trkpt lat="38.8715510" lon="1.2590920">
        <ele>79.5</ele>
        <time>2020-02-21T12:34:01Z</time>
      </trkpt>
      <trkpt lat="38.8715500" lon="1.2590810">
        <ele>79.7</ele>
        <time>2020-02-21T12:34:02Z</time>
      </trkpt>
      <trkpt lat="38.8715470" lon="1.2590520">
        <ele>80.1</ele>
        <time>2020-02-21T12:34:03Z</time>
      </trkpt>
      <trkpt lat="38.8715440" lon="1.2590370">
        <ele>80.3</ele>
        <time>2020-02-21T12:34:04Z</time>
      </trkpt>
      <trkpt lat="38.8715400" lon="1.2590230">
        <ele>80.4</ele>
        <time>2020-02-21T12:34:05Z</time>
      </trkpt>
      <trkpt lat="38.8715370" lon="1.2590060">
        <ele>80.6</ele>
        <time>2020-02-21T12:34:06Z</time>
      </trkpt>
      <trkpt lat="38.8715200" lon="1.2589970">
        <ele>80.8</ele>
        <time>2020-02-21T12:34:07Z</time>
      </trkpt>
      <trkpt lat="38.8715110" lon="1.2589780">
        <ele>81.0</ele>
        <time>2020-02-21T12:34:08Z</time>
      </trkpt>
      <trkpt lat="38.8715050" lon="1.2589680">
        <ele>81.1</ele>
        <time>2020-02-21T12:34:09Z</time>
      </trkpt>
      <trkpt lat="38.8714990" lon="1.2589570">
        <ele>81.2</ele>
        <time>2020-02-21T12:34:10Z</time>
      </trkpt>
      <trkpt lat="38.8714880" lon="1.2589400">
        <ele>81.4</ele>
        <time>2020-02-21T12:34:11Z</time>
      </trkpt>
      <trkpt lat="38.8714780" lon="1.2589280">
        <ele>81.5</ele>
        <time>2020-02-21T12:34:12Z</time>
      </trkpt>
      <trkpt lat="38.8714800" lon="1.2589120">
        <ele>81.7</ele>
        <time>2020-02-21T12:34:13Z</time>
      </trkpt>
      <trkpt lat="38.8714770" lon="1.2588980">
        <ele>81.8</ele>
        <time>2020-02-21T12:34:14Z</time>
      </trkpt>
      <trkpt lat="38.8714780" lon="1.2588850">
        <ele>81.9</ele>
        <time>2020-02-21T12:34:15Z</time>
      </trkpt>
      <trkpt lat="38.8714700" lon="1.2588570">
        <ele>82.1</ele>
        <time>2020-02-21T12:34:16Z</time>
      </trkpt>
      <trkpt lat="38.8714670" lon="1.2588450">
        <ele>82.1</ele>
        <time>2020-02-21T12:34:17Z</time>
      </trkpt>
      <trkpt lat="38.8714650" lon="1.2588340">
        <ele>82.2</ele>
        <time>2020-02-21T12:34:18Z</time>
      </trkpt>
      <trkpt lat="38.8714620" lon="1.2588220">
        <ele>82.3</ele>
        <time>2020-02-21T12:34:19Z</time>
      </trkpt>
      <trkpt lat="38.8714580" lon="1.2588100">
        <ele>82.4</ele>
        <time>2020-02-21T12:34:20Z</time>
      </trkpt>
      <trkpt lat="38.8714550" lon="1.2587990">
        <ele>82.5</ele>
        <time>2020-02-21T12:34:21Z</time>
      </trkpt>
      <trkpt lat="38.8714510" lon="1.2587880">
        <ele>82.6</ele>
        <time>2020-02-21T12:34:22Z</time>
      </trkpt>
      <trkpt lat="38.8714500" lon="1.2587810">
        <ele>82.6</ele>
        <time>2020-02-21T12:34:23Z</time>
      </trkpt>
      <trkpt lat="38.8714430" lon="1.2587690">
        <ele>82.7</ele>
        <time>2020-02-21T12:34:24Z</time>
      </trkpt>
      <trkpt lat="38.8714430" lon="1.2587520">
        <ele>82.8</ele>
        <time>2020-02-21T12:34:25Z</time>
      </trkpt>
      <trkpt lat="38.8714350" lon="1.2587260">
        <ele>83.0</ele>
        <time>2020-02-21T12:34:26Z</time>
      </trkpt>
      <trkpt lat="38.8714270" lon="1.2587120">
        <ele>83.1</ele>
        <time>2020-02-21T12:34:27Z</time>
      </trkpt>
      <trkpt lat="38.8714200" lon="1.2586980">
        <ele>83.1</ele>
        <time>2020-02-21T12:34:28Z</time>
      </trkpt>
      <trkpt lat="38.8714060" lon="1.2586860">
        <ele>83.3</ele>
        <time>2020-02-21T12:34:29Z</time>
      </trkpt>
      <trkpt lat="38.8713940" lon="1.2586740">
        <ele>83.4</ele>
        <time>2020-02-21T12:34:30Z</time>
      </trkpt>
      <trkpt lat="38.8713830" lon="1.2586630">
        <ele>83.5</ele>
        <time>2020-02-21T12:34:31Z</time>
      </trkpt>
      <trkpt lat="38.8713790" lon="1.2586330">
        <ele>83.6</ele>
        <time>2020-02-21T12:34:32Z</time>
      </trkpt>
      <trkpt lat="38.8713770" lon="1.2585980">
        <ele>83.8</ele>
        <time>2020-02-21T12:34:33Z</time>
      </trkpt>
      <trkpt lat="38.8713750" lon="1.2585860">
        <ele>83.9</ele>
        <time>2020-02-21T12:34:34Z</time>
      </trkpt>
      <trkpt lat="38.8713690" lon="1.2585580">
        <ele>84.1</ele>
        <time>2020-02-21T12:34:35Z</time>
      </trkpt>
      <trkpt lat="38.8713650" lon="1.2585480">
        <ele>84.1</ele>
        <time>2020-02-21T12:34:36Z</time>
      </trkpt>
      <trkpt lat="38.8713620" lon="1.2585390">
        <ele>84.2</ele>
        <time>2020-02-21T12:34:37Z</time>
      </trkpt>
      <trkpt lat="38.8713440" lon="1.2585050">
        <ele>84.5</ele>
        <time>2020-02-21T12:34:38Z</time>
      </trkpt>
      <trkpt lat="38.8713400" lon="1.2584960">
        <ele>84.5</ele>
        <time>2020-02-21T12:34:39Z</time>
      </trkpt>
      <trkpt lat="38.8713250" lon="1.2584780">
        <ele>84.7</ele>
        <time>2020-02-21T12:34:40Z</time>
      </trkpt>
      <trkpt lat="38.8713180" lon="1.2584730">
        <ele>84.7</ele>
        <time>2020-02-21T12:34:41Z</time>
      </trkpt>
      <trkpt lat="38.8713100" lon="1.2584670">
        <ele>84.8</ele>
        <time>2020-02-21T12:34:42Z</time>
      </trkpt>
      <trkpt lat="38.8712980" lon="1.2584520">
        <ele>84.8</ele>
        <time>2020-02-21T12:34:43Z</time>
      </trkpt>
      <trkpt lat="38.8712910" lon="1.2584350">
        <ele>84.9</ele>
        <time>2020-02-21T12:34:44Z</time>
      </trkpt>
      <trkpt lat="38.8712670" lon="1.2584040">
        <ele>85.1</ele>
        <time>2020-02-21T12:34:45Z</time>
      </trkpt>
      <trkpt lat="38.8712600" lon="1.2583950">
        <ele>85.1</ele>
        <time>2020-02-21T12:34:46Z</time>
      </trkpt>
      <trkpt lat="38.8712350" lon="1.2583750">
        <ele>85.3</ele>
        <time>2020-02-21T12:34:47Z</time>
      </trkpt>
      <trkpt lat="38.8712280" lon="1.2583670">
        <ele>85.3</ele>
        <time>2020-02-21T12:34:48Z</time>
      </trkpt>
      <trkpt lat="38.8712080" lon="1.2583390">
        <ele>85.5</ele>
        <time>2020-02-21T12:34:49Z</time>
      </trkpt>
      <trkpt lat="38.8712010" lon="1.2583300">
        <ele>85.5</ele>
        <time>2020-02-21T12:34:50Z</time>
      </trkpt>
      <trkpt lat="38.8711780" lon="1.2583080">
        <ele>85.7</ele>
        <time>2020-02-21T12:34:51Z</time>
      </trkpt>
      <trkpt lat="38.8711430" lon="1.2582920">
        <ele>85.9</ele>
        <time>2020-02-21T12:34:52Z</time>
      </trkpt>
      <trkpt lat="38.8711320" lon="1.2582890">
        <ele>85.9</ele>
        <time>2020-02-21T12:34:53Z</time>
      </trkpt>
      <trkpt lat="38.8711070" lon="1.2582590">
        <ele>86.1</ele>
        <time>2020-02-21T12:34:54Z</time>
      </trkpt>
      <trkpt lat="38.8710970" lon="1.2582570">
        <ele>86.1</ele>
        <time>2020-02-21T12:34:55Z</time>
      </trkpt>
      <trkpt lat="38.8710630" lon="1.2582430">
        <ele>86.3</ele>
        <time>2020-02-21T12:34:56Z</time>
      </trkpt>
      <trkpt lat="38.8710520" lon="1.2582390">
        <ele>86.4</ele>
        <time>2020-02-21T12:34:57Z</time>
      </trkpt>
      <trkpt lat="38.8710150" lon="1.2582280">
        <ele>86.6</ele>
        <time>2020-02-21T12:34:58Z</time>
      </trkpt>
      <trkpt lat="38.8710020" lon="1.2582250">
        <ele>86.7</ele>
        <time>2020-02-21T12:34:59Z</time>
      </trkpt>
      <trkpt lat="38.8709750" lon="1.2582030">
        <ele>87.0</ele>
        <time>2020-02-21T12:35:00Z</time>
      </trkpt>
      <trkpt lat="38.8709640" lon="1.2581930">
        <ele>87.1</ele>
        <time>2020-02-21T12:35:01Z</time>
      </trkpt>
      <trkpt lat="38.8709350" lon="1.2581750">
        <ele>87.3</ele>
        <time>2020-02-21T12:35:02Z</time>
      </trkpt>
      <trkpt lat="38.8709220" lon="1.2581640">
        <ele>87.4</ele>
        <time>2020-02-21T12:35:03Z</time>
      </trkpt>
      <trkpt lat="38.8708950" lon="1.2581470">
        <ele>87.6</ele>
        <time>2020-02-21T12:35:04Z</time>
      </trkpt>
      <trkpt lat="38.8708650" lon="1.2581390">
        <ele>87.9</ele>
        <time>2020-02-21T12:35:05Z</time>
      </trkpt>
      <trkpt lat="38.8708570" lon="1.2581360">
        <ele>88.0</ele>
        <time>2020-02-21T12:35:06Z</time>
      </trkpt>
      <trkpt lat="38.8708400" lon="1.2581200">
        <ele>88.2</ele>
        <time>2020-02-21T12:35:07Z</time>
      </trkpt>
      <trkpt lat="38.8708350" lon="1.2581150">
        <ele>88.2</ele>
        <time>2020-02-21T12:35:08Z</time>
      </trkpt>
      <trkpt lat="38.8708320" lon="1.2581060">
        <ele>88.3</ele>
        <time>2020-02-21T12:35:09Z</time>
      </trkpt>
      <trkpt lat="38.8708250" lon="1.2580940">
        <ele>88.4</ele>
        <time>2020-02-21T12:35:10Z</time>
      </trkpt>
      <trkpt lat="38.8708230" lon="1.2580920">
        <ele>88.4</ele>
        <time>2020-02-21T12:35:11Z</time>
      </trkpt>
      <trkpt lat="38.8708200" lon="1.2580900">
        <ele>88.4</ele>
        <time>2020-02-21T12:35:12Z</time>
      </trkpt>
      <trkpt lat="38.8708190" lon="1.2580890">
        <ele>88.4</ele>
        <time>2020-02-21T12:35:13Z</time>
      </trkpt>
      <trkpt lat="38.8708190" lon="1.2580890">
        <ele>88.4</ele>
        <time>2020-02-21T12:35:14Z</time>
      </trkpt>
      <trkpt lat="38.8708190" lon="1.2580880">
        <ele>88.5</ele>
        <time>2020-02-21T12:35:15Z</time>
      </trkpt>
      <trkpt lat="38.8708190" lon="1.2580880">
        <ele>88.5</ele>
        <time>2020-02-21T12:35:16Z</time>
      </trkpt>
      <trkpt lat="38.8708190" lon="1.2580920">
        <ele>88.5</ele>
        <time>2020-02-21T12:35:17Z</time>
      </trkpt>
      <trkpt lat="38.8708220" lon="1.2580810">
        <ele>88.6</ele>
        <time>2020-02-21T12:35:18Z</time>
      </trkpt>
      <trkpt lat="38.8707970" lon="1.2580630">
        <ele>88.9</ele>
        <time>2020-02-21T12:35:19Z</time>
      </trkpt>
      <trkpt lat="38.8707900" lon="1.2580560">
        <ele>89.0</ele>
        <time>2020-02-21T12:35:20Z</time>
      </trkpt>
      <trkpt lat="38.8707610" lon="1.2580350">
        <ele>89.3</ele>
        <time>2020-02-21T12:35:21Z</time>
      </trkpt>
      <trkpt lat="38.8707510" lon="1.2580280">
        <ele>89.5</ele>
        <time>2020-02-21T12:35:22Z</time>
      </trkpt>
      <trkpt lat="38.8707310" lon="1.2580120">
        <ele>89.7</ele>
        <time>2020-02-21T12:35:23Z</time>
      </trkpt>
      <trkpt lat="38.8707190" lon="1.2580020">
        <ele>89.9</ele>
        <time>2020-02-21T12:35:24Z</time>
      </trkpt>
      <trkpt lat="38.8707070" lon="1.2579910">
        <ele>90.1</ele>
        <time>2020-02-21T12:35:25Z</time>
      </trkpt>
      <trkpt lat="38.8706770" lon="1.2579660">
        <ele>90.6</ele>
        <time>2020-02-21T12:35:26Z</time>
      </trkpt>
      <trkpt lat="38.8706570" lon="1.2579440">
        <ele>91.0</ele>
        <time>2020-02-21T12:35:27Z</time>
      </trkpt>
      <trkpt lat="38.8706340" lon="1.2579160">
        <ele>91.5</ele>
        <time>2020-02-21T12:35:28Z</time>
      </trkpt>
      <trkpt lat="38.8706260" lon="1.2579070">
        <ele>91.7</ele>
        <time>2020-02-21T12:35:29Z</time>
      </trkpt>
      <trkpt lat="38.8706030" lon="1.2578640">
        <ele>92.4</ele>
        <time>2020-02-21T12:35:30Z</time>
      </trkpt>
      <trkpt lat="38.8705960" lon="1.2578500">
        <ele>92.6</ele>
        <time>2020-02-21T12:35:31Z</time>
      </trkpt>
      <trkpt lat="38.8705900" lon="1.2578290">
        <ele>92.9</ele>
        <time>2020-02-21T12:35:32Z</time>
      </trkpt>
      <trkpt lat="38.8705820" lon="1.2578100">
        <ele>93.2</ele>
        <time>2020-02-21T12:35:33Z</time>
      </trkpt>
      <trkpt lat="38.8705580" lon="1.2577840">
        <ele>93.7</ele>
        <time>2020-02-21T12:35:34Z</time>
      </trkpt>
      <trkpt lat="38.8705510" lon="1.2577760">
        <ele>93.8</ele>
        <time>2020-02-21T12:35:35Z</time>
      </trkpt>
      <trkpt lat="38.8705490" lon="1.2577550">
        <ele>94.1</ele>
        <time>2020-02-21T12:35:36Z</time>
      </trkpt>
      <trkpt lat="38.8705360" lon="1.2577350">
        <ele>94.5</ele>
        <time>2020-02-21T12:35:37Z</time>
      </trkpt>
      <trkpt lat="38.8705290" lon="1.2576990">
        <ele>94.9</ele>
        <time>2020-02-21T12:35:38Z</time>
      </trkpt>
      <trkpt lat="38.8705250" lon="1.2576880">
        <ele>95.1</ele>
        <time>2020-02-21T12:35:39Z</time>
      </trkpt>
      <trkpt lat="38.8705090" lon="1.2576590">
        <ele>95.6</ele>
        <time>2020-02-21T12:35:40Z</time>
      </trkpt>
      <trkpt lat="38.8705000" lon="1.2576510">
        <ele>95.7</ele>
        <time>2020-02-21T12:35:41Z</time>
      </trkpt>
      <trkpt lat="38.8704850" lon="1.2576440">
        <ele>96.0</ele>
        <time>2020-02-21T12:35:42Z</time>
      </trkpt>
      <trkpt lat="38.8704670" lon="1.2576330">
        <ele>96.3</ele>
        <time>2020-02-21T12:35:43Z</time>
      </trkpt>
      <trkpt lat="38.8704570" lon="1.2576170">
        <ele>96.6</ele>
        <time>2020-02-21T12:35:44Z</time>
      </trkpt>
      <trkpt lat="38.8704500" lon="1.2576020">
        <ele>96.8</ele>
        <time>2020-02-21T12:35:45Z</time>
      </trkpt>
      <trkpt lat="38.8704400" lon="1.2575870">
        <ele>97.1</ele>
        <time>2020-02-21T12:35:46Z</time>
      </trkpt>
      <trkpt lat="38.8704250" lon="1.2575730">
        <ele>97.4</ele>
        <time>2020-02-21T12:35:47Z</time>
      </trkpt>
      <trkpt lat="38.8704160" lon="1.2575530">
        <ele>97.7</ele>
        <time>2020-02-21T12:35:48Z</time>
      </trkpt>
      <trkpt lat="38.8704100" lon="1.2575440">
        <ele>97.8</ele>
        <time>2020-02-21T12:35:49Z</time>
      </trkpt>
      <trkpt lat="38.8704030" lon="1.2575240">
        <ele>98.1</ele>
        <time>2020-02-21T12:35:50Z</time>
      </trkpt>
      <trkpt lat="38.8703970" lon="1.2575040">
        <ele>98.4</ele>
        <time>2020-02-21T12:35:51Z</time>
      </trkpt>
      <trkpt lat="38.8703910" lon="1.2574680">
        <ele>98.8</ele>
        <time>2020-02-21T12:35:52Z</time>
      </trkpt>
      <trkpt lat="38.8703910" lon="1.2574560">
        <ele>99.0</ele>
        <time>2020-02-21T12:35:53Z</time>
      </trkpt>
      <trkpt lat="38.8703950" lon="1.2574300">
        <ele>99.3</ele>
        <time>2020-02-21T12:35:54Z</time>
      </trkpt>
      <trkpt lat="38.8703930" lon="1.2574110">
        <ele>99.5</ele>
        <time>2020-02-21T12:35:55Z</time>
      </trkpt>
      <trkpt lat="38.8703800" lon="1.2573790">
        <ele>100.0</ele>
        <time>2020-02-21T12:35:56Z</time>
      </trkpt>
      <trkpt lat="38.8703750" lon="1.2573710">
        <ele>100.1</ele>
        <time>2020-02-21T12:35:57Z</time>
      </trkpt>
      <trkpt lat="38.8703610" lon="1.2573740">
        <ele>100.4</ele>
        <time>2020-02-21T12:35:58Z</time>
      </trkpt>
      <trkpt lat="38.8703460" lon="1.2573730">
        <ele>100.6</ele>
        <time>2020-02-21T12:35:59Z</time>
      </trkpt>
      <trkpt lat="38.8703340" lon="1.2573680">
        <ele>100.8</ele>
        <time>2020-02-21T12:36:00Z</time>
      </trkpt>
      <trkpt lat="38.8703200" lon="1.2573600">
        <ele>101.1</ele>
        <time>2020-02-21T12:36:01Z</time>
      </trkpt>
      <trkpt lat="38.8703190" lon="1.2573490">
        <ele>101.2</ele>
        <time>2020-02-21T12:36:02Z</time>
      </trkpt>
      <trkpt lat="38.8703280" lon="1.2573330">
        <ele>101.5</ele>
        <time>2020-02-21T12:36:03Z</time>
      </trkpt>
      <trkpt lat="38.8703250" lon="1.2573150">
        <ele>101.7</ele>
        <time>2020-02-21T12:36:04Z</time>
      </trkpt>
      <trkpt lat="38.8703140" lon="1.2572950">
        <ele>102.1</ele>
        <time>2020-02-21T12:36:05Z</time>
      </trkpt>
      <trkpt lat="38.8703070" lon="1.2572900">
        <ele>102.2</ele>
        <time>2020-02-21T12:36:06Z</time>
      </trkpt>
      <trkpt lat="38.8703060" lon="1.2572770">
        <ele>102.3</ele>
        <time>2020-02-21T12:36:07Z</time>
      </trkpt>
      <trkpt lat="38.8703080" lon="1.2572600">
        <ele>102.6</ele>
        <time>2020-02-21T12:36:08Z</time>
      </trkpt>
      <trkpt lat="38.8703010" lon="1.2572400">
        <ele>102.8</ele>
        <time>2020-02-21T12:36:09Z</time>
      </trkpt>
      <trkpt lat="38.8702890" lon="1.2572210">
        <ele>103.1</ele>
        <time>2020-02-21T12:36:10Z</time>
      </trkpt>
      <trkpt lat="38.8702700" lon="1.2572180">
        <ele>103.4</ele>
        <time>2020-02-21T12:36:11Z</time>
      </trkpt>
      <trkpt lat="38.8702570" lon="1.2572210">
        <ele>103.5</ele>
        <time>2020-02-21T12:36:12Z</time>
      </trkpt>
      <trkpt lat="38.8702420" lon="1.2572090">
        <ele>103.7</ele>
        <time>2020-02-21T12:36:13Z</time>
      </trkpt>
      <trkpt lat="38.8702340" lon="1.2571830">
        <ele>103.9</ele>
        <time>2020-02-21T12:36:14Z</time>
      </trkpt>
      <trkpt lat="38.8702350" lon="1.2571710">
        <ele>104.0</ele>
        <time>2020-02-21T12:36:15Z</time>
      </trkpt>
      <trkpt lat="38.8702360" lon="1.2571600">
        <ele>104.1</ele>
        <time>2020-02-21T12:36:16Z</time>
      </trkpt>
      <trkpt lat="38.8702280" lon="1.2571420">
        <ele>104.2</ele>
        <time>2020-02-21T12:36:17Z</time>
      </trkpt>
      <trkpt lat="38.8702260" lon="1.2571270">
        <ele>104.3</ele>
        <time>2020-02-21T12:36:18Z</time>
      </trkpt>
      <trkpt lat="38.8702250" lon="1.2571130">
        <ele>104.4</ele>
        <time>2020-02-21T12:36:19Z</time>
      </trkpt>
      <trkpt lat="38.8702140" lon="1.2570960">
        <ele>104.6</ele>
        <time>2020-02-21T12:36:20Z</time>
      </trkpt>
      <trkpt lat="38.8702060" lon="1.2570870">
        <ele>104.7</ele>
        <time>2020-02-21T12:36:21Z</time>
      </trkpt>
      <trkpt lat="38.8701990" lon="1.2570770">
        <ele>104.8</ele>
        <time>2020-02-21T12:36:22Z</time>
      </trkpt>
      <trkpt lat="38.8701870" lon="1.2570450">
        <ele>105.1</ele>
        <time>2020-02-21T12:36:23Z</time>
      </trkpt>
      <trkpt lat="38.8701740" lon="1.2570250">
        <ele>105.2</ele>
        <time>2020-02-21T12:36:24Z</time>
      </trkpt>
      <trkpt lat="38.8701690" lon="1.2570170">
        <ele>105.3</ele>
        <time>2020-02-21T12:36:25Z</time>
      </trkpt>
      <trkpt lat="38.8701550" lon="1.2570110">
        <ele>105.4</ele>
        <time>2020-02-21T12:36:26Z</time>
      </trkpt>
      <trkpt lat="38.8701380" lon="1.2570030">
        <ele>105.6</ele>
        <time>2020-02-21T12:36:27Z</time>
      </trkpt>
      <trkpt lat="38.8701250" lon="1.2569920">
        <ele>105.7</ele>
        <time>2020-02-21T12:36:28Z</time>
      </trkpt>
      <trkpt lat="38.8701160" lon="1.2569750">
        <ele>105.9</ele>
        <time>2020-02-21T12:36:29Z</time>
      </trkpt>
      <trkpt lat="38.8700980" lon="1.2569630">
        <ele>106.1</ele>
        <time>2020-02-21T12:36:30Z</time>
      </trkpt>
      <trkpt lat="38.8700940" lon="1.2569500">
        <ele>106.2</ele>
        <time>2020-02-21T12:36:31Z</time>
      </trkpt>
      <trkpt lat="38.8700780" lon="1.2569300">
        <ele>106.5</ele>
        <time>2020-02-21T12:36:32Z</time>
      </trkpt>
      <trkpt lat="38.8700720" lon="1.2569230">
        <ele>106.6</ele>
        <time>2020-02-21T12:36:33Z</time>
      </trkpt>
      <trkpt lat="38.8700650" lon="1.2569150">
        <ele>106.7</ele>
        <time>2020-02-21T12:36:34Z</time>
      </trkpt>
      <trkpt lat="38.8700350" lon="1.2569350">
        <ele>107.0</ele>
        <time>2020-02-21T12:36:35Z</time>
      </trkpt>
      <trkpt lat="38.8700260" lon="1.2569420">
        <ele>107.0</ele>
        <time>2020-02-21T12:36:36Z</time>
      </trkpt>
      <trkpt lat="38.8700100" lon="1.2569320">
        <ele>107.2</ele>
        <time>2020-02-21T12:36:37Z</time>
      </trkpt>
      <trkpt lat="38.8700030" lon="1.2569150">
        <ele>107.3</ele>
        <time>2020-02-21T12:36:38Z</time>
      </trkpt>
      <trkpt lat="38.8700070" lon="1.2568900">
        <ele>107.4</ele>
        <time>2020-02-21T12:36:39Z</time>
      </trkpt>
      <trkpt lat="38.8700090" lon="1.2568780">
        <ele>107.5</ele>
        <time>2020-02-21T12:36:40Z</time>
      </trkpt>
      <trkpt lat="38.8700120" lon="1.2568660">
        <ele>107.6</ele>
        <time>2020-02-21T12:36:41Z</time>
      </trkpt>
      <trkpt lat="38.8700050" lon="1.2568480">
        <ele>107.7</ele>
        <time>2020-02-21T12:36:42Z</time>
      </trkpt>
      <trkpt lat="38.8699980" lon="1.2568450">
        <ele>107.8</ele>
        <time>2020-02-21T12:36:43Z</time>
      </trkpt>
      <trkpt lat="38.8699900" lon="1.2568420">
        <ele>107.8</ele>
        <time>2020-02-21T12:36:44Z</time>
      </trkpt>
      <trkpt lat="38.8699820" lon="1.2568390">
        <ele>107.9</ele>
        <time>2020-02-21T12:36:45Z</time>
      </trkpt>
      <trkpt lat="38.8699700" lon="1.2568260">
        <ele>108.0</ele>
        <time>2020-02-21T12:36:46Z</time>
      </trkpt>
      <trkpt lat="38.8699530" lon="1.2568100">
        <ele>108.3</ele>
        <time>2020-02-21T12:36:47Z</time>
      </trkpt>
      <trkpt lat="38.8699480" lon="1.2567910">
        <ele>108.5</ele>
        <time>2020-02-21T12:36:48Z</time>
      </trkpt>
      <trkpt lat="38.8699400" lon="1.2567780">
        <ele>108.7</ele>
        <time>2020-02-21T12:36:49Z</time>
      </trkpt>
      <trkpt lat="38.8699350" lon="1.2567610">
        <ele>108.9</ele>
        <time>2020-02-21T12:36:50Z</time>
      </trkpt>
      <trkpt lat="38.8699290" lon="1.2567460">
        <ele>109.1</ele>
        <time>2020-02-21T12:36:51Z</time>
      </trkpt>
      <trkpt lat="38.8699260" lon="1.2567170">
        <ele>109.5</ele>
        <time>2020-02-21T12:36:52Z</time>
      </trkpt>
      <trkpt lat="38.8699230" lon="1.2567020">
        <ele>109.7</ele>
        <time>2020-02-21T12:36:53Z</time>
      </trkpt>
      <trkpt lat="38.8699210" lon="1.2566860">
        <ele>109.9</ele>
        <time>2020-02-21T12:36:54Z</time>
      </trkpt>
      <trkpt lat="38.8699100" lon="1.2566740">
        <ele>110.2</ele>
        <time>2020-02-21T12:36:55Z</time>
      </trkpt>
      <trkpt lat="38.8698940" lon="1.2566710">
        <ele>110.5</ele>
        <time>2020-02-21T12:36:56Z</time>
      </trkpt>
      <trkpt lat="38.8698810" lon="1.2566610">
        <ele>110.7</ele>
        <time>2020-02-21T12:36:57Z</time>
      </trkpt>
      <trkpt lat="38.8698820" lon="1.2566470">
        <ele>110.9</ele>
        <time>2020-02-21T12:36:58Z</time>
      </trkpt>
      <trkpt lat="38.8698840" lon="1.2566350">
        <ele>111.1</ele>
        <time>2020-02-21T12:36:59Z</time>
      </trkpt>
      <trkpt lat="38.8698910" lon="1.2566210">
        <ele>111.4</ele>
        <time>2020-02-21T12:37:00Z</time>
      </trkpt>
      <trkpt lat="38.8698910" lon="1.2566070">
        <ele>111.6</ele>
        <time>2020-02-21T12:37:01Z</time>
      </trkpt>
      <trkpt lat="38.8698960" lon="1.2565940">
        <ele>111.8</ele>
        <time>2020-02-21T12:37:02Z</time>
      </trkpt>
      <trkpt lat="38.8698860" lon="1.2565740">
        <ele>112.1</ele>
        <time>2020-02-21T12:37:03Z</time>
      </trkpt>
      <trkpt lat="38.8698780" lon="1.2565640">
        <ele>112.3</ele>
        <time>2020-02-21T12:37:04Z</time>
      </trkpt>
      <trkpt lat="38.8698680" lon="1.2565500">
        <ele>112.5</ele>
        <time>2020-02-21T12:37:05Z</time>
      </trkpt>
      <trkpt lat="38.8698620" lon="1.2565320">
        <ele>112.8</ele>
        <time>2020-02-21T12:37:06Z</time>
      </trkpt>
      <trkpt lat="38.8698380" lon="1.2565060">
        <ele>113.2</ele>
        <time>2020-02-21T12:37:07Z</time>
      </trkpt>
      <trkpt lat="38.8698320" lon="1.2564930">
        <ele>113.4</ele>
        <time>2020-02-21T12:37:08Z</time>
      </trkpt>
      <trkpt lat="38.8698270" lon="1.2564540">
        <ele>113.9</ele>
        <time>2020-02-21T12:37:09Z</time>
      </trkpt>
      <trkpt lat="38.8698260" lon="1.2564460">
        <ele>114.0</ele>
        <time>2020-02-21T12:37:10Z</time>
      </trkpt>
      <trkpt lat="38.8698230" lon="1.2564200">
        <ele>114.3</ele>
        <time>2020-02-21T12:37:11Z</time>
      </trkpt>
      <trkpt lat="38.8698210" lon="1.2564090">
        <ele>114.4</ele>
        <time>2020-02-21T12:37:12Z</time>
      </trkpt>
      <trkpt lat="38.8698200" lon="1.2563970">
        <ele>114.5</ele>
        <time>2020-02-21T12:37:13Z</time>
      </trkpt>
      <trkpt lat="38.8698250" lon="1.2563840">
        <ele>114.7</ele>
        <time>2020-02-21T12:37:14Z</time>
      </trkpt>
      <trkpt lat="38.8698300" lon="1.2563600">
        <ele>115.0</ele>
        <time>2020-02-21T12:37:15Z</time>
      </trkpt>
      <trkpt lat="38.8698310" lon="1.2563460">
        <ele>115.2</ele>
        <time>2020-02-21T12:37:16Z</time>
      </trkpt>
      <trkpt lat="38.8698280" lon="1.2563280">
        <ele>115.4</ele>
        <time>2020-02-21T12:37:17Z</time>
      </trkpt>
      <trkpt lat="38.8698230" lon="1.2563210">
        <ele>115.5</ele>
        <time>2020-02-21T12:37:18Z</time>
      </trkpt>
      <trkpt lat="38.8698200" lon="1.2563080">
        <ele>115.7</ele>
        <time>2020-02-21T12:37:19Z</time>
      </trkpt>
      <trkpt lat="38.8698170" lon="1.2562910">
        <ele>115.9</ele>
        <time>2020-02-21T12:37:20Z</time>
      </trkpt>
      <trkpt lat="38.8698120" lon="1.2562910">
        <ele>115.9</ele>
        <time>2020-02-21T12:37:21Z</time>
      </trkpt>
      <trkpt lat="38.8698040" lon="1.2562870">
        <ele>116.0</ele>
        <time>2020-02-21T12:37:22Z</time>
      </trkpt>
      <trkpt lat="38.8697950" lon="1.2562780">
        <ele>116.2</ele>
        <time>2020-02-21T12:37:23Z</time>
      </trkpt>
      <trkpt lat="38.8697860" lon="1.2562680">
        <ele>116.4</ele>
        <time>2020-02-21T12:37:24Z</time>
      </trkpt>
      <trkpt lat="38.8697810" lon="1.2562540">
        <ele>116.5</ele>
        <time>2020-02-21T12:37:25Z</time>
      </trkpt>
      <trkpt lat="38.8697770" lon="1.2562350">
        <ele>116.7</ele>
        <time>2020-02-21T12:37:26Z</time>
      </trkpt>
      <trkpt lat="38.8697780" lon="1.2562210">
        <ele>116.9</ele>
        <time>2020-02-21T12:37:27Z</time>
      </trkpt>
      <trkpt lat="38.8697780" lon="1.2562080">
        <ele>117.0</ele>
        <time>2020-02-21T12:37:28Z</time>
      </trkpt>
      <trkpt lat="38.8697650" lon="1.2561860">
        <ele>117.3</ele>
        <time>2020-02-21T12:37:29Z</time>
      </trkpt>
      <trkpt lat="38.8697610" lon="1.2561740">
        <ele>117.5</ele>
        <time>2020-02-21T12:37:30Z</time>
      </trkpt>
      <trkpt lat="38.8697570" lon="1.2561630">
        <ele>117.6</ele>
        <time>2020-02-21T12:37:31Z</time>
      </trkpt>
      <trkpt lat="38.8697500" lon="1.2561410">
        <ele>117.8</ele>
        <time>2020-02-21T12:37:32Z</time>
      </trkpt>
      <trkpt lat="38.8697450" lon="1.2561280">
        <ele>117.9</ele>
        <time>2020-02-21T12:37:33Z</time>
      </trkpt>
      <trkpt lat="38.8697390" lon="1.2561160">
        <ele>118.1</ele>
        <time>2020-02-21T12:37:34Z</time>
      </trkpt>
      <trkpt lat="38.8697330" lon="1.2561010">
        <ele>118.2</ele>
        <time>2020-02-21T12:37:35Z</time>
      </trkpt>
      <trkpt lat="38.8697250" lon="1.2560770">
        <ele>118.4</ele>
        <time>2020-02-21T12:37:36Z</time>
      </trkpt>
      <trkpt lat="38.8697070" lon="1.2560570">
        <ele>118.7</ele>
        <time>2020-02-21T12:37:37Z</time>
      </trkpt>
      <trkpt lat="38.8697070" lon="1.2560450">
        <ele>118.8</ele>
        <time>2020-02-21T12:37:38Z</time>
      </trkpt>
      <trkpt lat="38.8697070" lon="1.2560340">
        <ele>118.8</ele>
        <time>2020-02-21T12:37:39Z</time>
      </trkpt>
      <trkpt lat="38.8697030" lon="1.2560100">
        <ele>119.0</ele>
        <time>2020-02-21T12:37:40Z</time>
      </trkpt>
      <trkpt lat="38.8697010" lon="1.2559970">
        <ele>119.1</ele>
        <time>2020-02-21T12:37:41Z</time>
      </trkpt>
      <trkpt lat="38.8696980" lon="1.2559830">
        <ele>119.2</ele>
        <time>2020-02-21T12:37:42Z</time>
      </trkpt>
      <trkpt lat="38.8696910" lon="1.2559660">
        <ele>119.3</ele>
        <time>2020-02-21T12:37:43Z</time>
      </trkpt>
      <trkpt lat="38.8696910" lon="1.2559550">
        <ele>119.4</ele>
        <time>2020-02-21T12:37:44Z</time>
      </trkpt>
      <trkpt lat="38.8696900" lon="1.2559430">
        <ele>119.4</ele>
        <time>2020-02-21T12:37:45Z</time>
      </trkpt>
      <trkpt lat="38.8696830" lon="1.2559160">
        <ele>119.5</ele>
        <time>2020-02-21T12:37:46Z</time>
      </trkpt>
      <trkpt lat="38.8696810" lon="1.2559040">
        <ele>119.5</ele>
        <time>2020-02-21T12:37:47Z</time>
      </trkpt>
      <trkpt lat="38.8696790" lon="1.2558920">
        <ele>119.6</ele>
        <time>2020-02-21T12:37:48Z</time>
      </trkpt>
      <trkpt lat="38.8696750" lon="1.2558540">
        <ele>119.7</ele>
        <time>2020-02-21T12:37:49Z</time>
      </trkpt>
      <trkpt lat="38.8696730" lon="1.2558420">
        <ele>119.8</ele>
        <time>2020-02-21T12:37:50Z</time>
      </trkpt>
      <trkpt lat="38.8696690" lon="1.2558020">
        <ele>119.9</ele>
        <time>2020-02-21T12:37:51Z</time>
      </trkpt>
      <trkpt lat="38.8696650" lon="1.2557910">
        <ele>119.9</ele>
        <time>2020-02-21T12:37:52Z</time>
      </trkpt>
      <trkpt lat="38.8696520" lon="1.2557750">
        <ele>119.9</ele>
        <time>2020-02-21T12:37:53Z</time>
      </trkpt>
      <trkpt lat="38.8696450" lon="1.2557640">
        <ele>119.9</ele>
        <time>2020-02-21T12:37:54Z</time>
      </trkpt>
      <trkpt lat="38.8696260" lon="1.2557360">
        <ele>119.9</ele>
        <time>2020-02-21T12:37:55Z</time>
      </trkpt>
      <trkpt lat="38.8696200" lon="1.2557270">
        <ele>119.9</ele>
        <time>2020-02-21T12:37:56Z</time>
      </trkpt>
      <trkpt lat="38.8696080" lon="1.2557130">
        <ele>119.8</ele>
        <time>2020-02-21T12:37:57Z</time>
      </trkpt>
      <trkpt lat="38.8696050" lon="1.2557000">
        <ele>119.8</ele>
        <time>2020-02-21T12:37:58Z</time>
      </trkpt>
      <trkpt lat="38.8696050" lon="1.2556870">
        <ele>119.7</ele>
        <time>2020-02-21T12:37:59Z</time>
      </trkpt>
      <trkpt lat="38.8695970" lon="1.2556730">
        <ele>119.7</ele>
        <time>2020-02-21T12:38:00Z</time>
      </trkpt>
      <trkpt lat="38.8695880" lon="1.2556550">
        <ele>119.6</ele>
        <time>2020-02-21T12:38:01Z</time>
      </trkpt>
      <trkpt lat="38.8695790" lon="1.2556370">
        <ele>119.5</ele>
        <time>2020-02-21T12:38:02Z</time>
      </trkpt>
      <trkpt lat="38.8695730" lon="1.2556190">
        <ele>119.4</ele>
        <time>2020-02-21T12:38:03Z</time>
      </trkpt>
      <trkpt lat="38.8695620" lon="1.2556020">
        <ele>119.3</ele>
        <time>2020-02-21T12:38:04Z</time>
      </trkpt>
      <trkpt lat="38.8695520" lon="1.2555880">
        <ele>119.2</ele>
        <time>2020-02-21T12:38:05Z</time>
      </trkpt>
      <trkpt lat="38.8695320" lon="1.2555540">
        <ele>119.0</ele>
        <time>2020-02-21T12:38:06Z</time>
      </trkpt>
      <trkpt lat="38.8695230" lon="1.2555400">
        <ele>118.9</ele>
        <time>2020-02-21T12:38:07Z</time>
      </trkpt>
      <trkpt lat="38.8695040" lon="1.2555130">
        <ele>118.7</ele>
        <time>2020-02-21T12:38:08Z</time>
      </trkpt>
      <trkpt lat="38.8694970" lon="1.2555060">
        <ele>118.7</ele>
        <time>2020-02-21T12:38:09Z</time>
      </trkpt>
      <trkpt lat="38.8694730" lon="1.2554870">
        <ele>118.4</ele>
        <time>2020-02-21T12:38:10Z</time>
      </trkpt>
      <trkpt lat="38.8694630" lon="1.2554820">
        <ele>118.4</ele>
        <time>2020-02-21T12:38:11Z</time>
      </trkpt>
      <trkpt lat="38.8694400" lon="1.2554650">
        <ele>118.2</ele>
        <time>2020-02-21T12:38:12Z</time>
      </trkpt>
      <trkpt lat="38.8694020" lon="1.2554420">
        <ele>117.8</ele>
        <time>2020-02-21T12:38:13Z</time>
      </trkpt>
      <trkpt lat="38.8693880" lon="1.2554320">
        <ele>117.6</ele>
        <time>2020-02-21T12:38:14Z</time>
      </trkpt>
      <trkpt lat="38.8693540" lon="1.2554140">
        <ele>117.3</ele>
        <time>2020-02-21T12:38:15Z</time>
      </trkpt>
      <trkpt lat="38.8693200" lon="1.2553970">
        <ele>117.0</ele>
        <time>2020-02-21T12:38:16Z</time>
      </trkpt>
      <trkpt lat="38.8692810" lon="1.2553850">
        <ele>116.7</ele>
        <time>2020-02-21T12:38:17Z</time>
      </trkpt>
      <trkpt lat="38.8692390" lon="1.2553760">
        <ele>116.4</ele>
        <time>2020-02-21T12:38:18Z</time>
      </trkpt>
      <trkpt lat="38.8691940" lon="1.2553630">
        <ele>115.9</ele>
        <time>2020-02-21T12:38:19Z</time>
      </trkpt>
      <trkpt lat="38.8691490" lon="1.2553420">
        <ele>115.4</ele>
        <time>2020-02-21T12:38:20Z</time>
      </trkpt>
      <trkpt lat="38.8691070" lon="1.2553250">
        <ele>114.9</ele>
        <time>2020-02-21T12:38:21Z</time>
      </trkpt>
      <trkpt lat="38.8690630" lon="1.2553250">
        <ele>114.4</ele>
        <time>2020-02-21T12:38:22Z</time>
      </trkpt>
      <trkpt lat="38.8690060" lon="1.2553130">
        <ele>113.6</ele>
        <time>2020-02-21T12:38:23Z</time>
      </trkpt>
      <trkpt lat="38.8689430" lon="1.2553020">
        <ele>112.8</ele>
        <time>2020-02-21T12:38:24Z</time>
      </trkpt>
      <trkpt lat="38.8688830" lon="1.2552900">
        <ele>112.1</ele>
        <time>2020-02-21T12:38:25Z</time>
      </trkpt>
      <trkpt lat="38.8688340" lon="1.2552610">
        <ele>111.4</ele>
        <time>2020-02-21T12:38:26Z</time>
      </trkpt>
      <trkpt lat="38.8687790" lon="1.2552220">
        <ele>110.6</ele>
        <time>2020-02-21T12:38:27Z</time>
      </trkpt>
      <trkpt lat="38.8687210" lon="1.2551810">
        <ele>109.8</ele>
        <time>2020-02-21T12:38:28Z</time>
      </trkpt>
      <trkpt lat="38.8686620" lon="1.2551370">
        <ele>109.0</ele>
        <time>2020-02-21T12:38:29Z</time>
      </trkpt>
      <trkpt lat="38.8686090" lon="1.2550940">
        <ele>108.3</ele>
        <time>2020-02-21T12:38:30Z</time>
      </trkpt>
      <trkpt lat="38.8685590" lon="1.2550510">
        <ele>107.9</ele>
        <time>2020-02-21T12:38:31Z</time>
      </trkpt>
      <trkpt lat="38.8684820" lon="1.2549770">
        <ele>107.4</ele>
        <time>2020-02-21T12:38:32Z</time>
      </trkpt>
      <trkpt lat="38.8684030" lon="1.2549230">
        <ele>107.2</ele>
        <time>2020-02-21T12:38:33Z</time>
      </trkpt>
      <trkpt lat="38.8683190" lon="1.2548660">
        <ele>107.2</ele>
        <time>2020-02-21T12:38:34Z</time>
      </trkpt>
      <trkpt lat="38.8682360" lon="1.2548170">
        <ele>107.4</ele>
        <time>2020-02-21T12:38:35Z</time>
      </trkpt>
      <trkpt lat="38.8681530" lon="1.2547720">
        <ele>107.6</ele>
        <time>2020-02-21T12:38:36Z</time>
      </trkpt>
      <trkpt lat="38.8680850" lon="1.2547410">
        <ele>107.7</ele>
        <time>2020-02-21T12:38:37Z</time>
      </trkpt>
      <trkpt lat="38.8680250" lon="1.2547160">
        <ele>107.6</ele>
        <time>2020-02-21T12:38:38Z</time>
      </trkpt>
      <trkpt lat="38.8679720" lon="1.2546960">
        <ele>107.4</ele>
        <time>2020-02-21T12:38:39Z</time>
      </trkpt>
      <trkpt lat="38.8679150" lon="1.2546840">
        <ele>107.2</ele>
        <time>2020-02-21T12:38:40Z</time>
      </trkpt>
      <trkpt lat="38.8678650" lon="1.2546630">
        <ele>106.9</ele>
        <time>2020-02-21T12:38:41Z</time>
      </trkpt>
      <trkpt lat="38.8678160" lon="1.2546460">
        <ele>106.5</ele>
        <time>2020-02-21T12:38:42Z</time>
      </trkpt>
      <trkpt lat="38.8677690" lon="1.2546190">
        <ele>106.0</ele>
        <time>2020-02-21T12:38:43Z</time>
      </trkpt>
      <trkpt lat="38.8677250" lon="1.2546060">
        <ele>105.6</ele>
        <time>2020-02-21T12:38:44Z</time>
      </trkpt>
      <trkpt lat="38.8676720" lon="1.2545750">
        <ele>104.9</ele>
        <time>2020-02-21T12:38:45Z</time>
      </trkpt>
      <trkpt lat="38.8676030" lon="1.2545510">
        <ele>104.0</ele>
        <time>2020-02-21T12:38:46Z</time>
      </trkpt>
      <trkpt lat="38.8675360" lon="1.2545250">
        <ele>103.1</ele>
        <time>2020-02-21T12:38:47Z</time>
      </trkpt>
      <trkpt lat="38.8674700" lon="1.2544860">
        <ele>101.9</ele>
        <time>2020-02-21T12:38:48Z</time>
      </trkpt>
      <trkpt lat="38.8674030" lon="1.2544480">
        <ele>100.8</ele>
        <time>2020-02-21T12:38:49Z</time>
      </trkpt>
      <trkpt lat="38.8673370" lon="1.2544050">
        <ele>99.8</ele>
        <time>2020-02-21T12:38:50Z</time>
      </trkpt>
      <trkpt lat="38.8672660" lon="1.2543800">
        <ele>98.8</ele>
        <time>2020-02-21T12:38:51Z</time>
      </trkpt>
      <trkpt lat="38.8671970" lon="1.2543580">
        <ele>97.9</ele>
        <time>2020-02-21T12:38:52Z</time>
      </trkpt>
      <trkpt lat="38.8671350" lon="1.2543340">
        <ele>97.0</ele>
        <time>2020-02-21T12:38:53Z</time>
      </trkpt>
      <trkpt lat="38.8670750" lon="1.2543110">
        <ele>96.0</ele>
        <time>2020-02-21T12:38:54Z</time>
      </trkpt>
      <trkpt lat="38.8670150" lon="1.2542850">
        <ele>95.0</ele>
        <time>2020-02-21T12:38:55Z</time>
      </trkpt>
      <trkpt lat="38.8669590" lon="1.2542570">
        <ele>94.0</ele>
        <time>2020-02-21T12:38:56Z</time>
      </trkpt>
      <trkpt lat="38.8669060" lon="1.2542290">
        <ele>93.0</ele>
        <time>2020-02-21T12:38:57Z</time>
      </trkpt>
      <trkpt lat="38.8668570" lon="1.2542150">
        <ele>92.1</ele>
        <time>2020-02-21T12:38:58Z</time>
      </trkpt>
      <trkpt lat="38.8668170" lon="1.2542030">
        <ele>91.5</ele>
        <time>2020-02-21T12:38:59Z</time>
      </trkpt>
      <trkpt lat="38.8667870" lon="1.2542120">
        <ele>90.9</ele>
        <time>2020-02-21T12:39:00Z</time>
      </trkpt>
      <trkpt lat="38.8667430" lon="1.2542320">
        <ele>90.0</ele>
        <time>2020-02-21T12:39:01Z</time>
      </trkpt>
      <trkpt lat="38.8667390" lon="1.2542820">
        <ele>89.4</ele>
        <time>2020-02-21T12:39:02Z</time>
      </trkpt>
      <trkpt lat="38.8667530" lon="1.2543250">
        <ele>88.9</ele>
        <time>2020-02-21T12:39:03Z</time>
      </trkpt>
      <trkpt lat="38.8667930" lon="1.2543590">
        <ele>88.2</ele>
        <time>2020-02-21T12:39:04Z</time>
      </trkpt>
      <trkpt lat="38.8668310" lon="1.2544010">
        <ele>87.4</ele>
        <time>2020-02-21T12:39:05Z</time>
      </trkpt>
      <trkpt lat="38.8668660" lon="1.2544430">
        <ele>86.7</ele>
        <time>2020-02-21T12:39:06Z</time>
      </trkpt>
      <trkpt lat="38.8669040" lon="1.2544870">
        <ele>85.9</ele>
        <time>2020-02-21T12:39:07Z</time>
      </trkpt>
      <trkpt lat="38.8669390" lon="1.2545450">
        <ele>85.0</ele>
        <time>2020-02-21T12:39:08Z</time>
      </trkpt>
      <trkpt lat="38.8669760" lon="1.2546060">
        <ele>84.1</ele>
        <time>2020-02-21T12:39:09Z</time>
      </trkpt>
      <trkpt lat="38.8670150" lon="1.2546670">
        <ele>83.3</ele>
        <time>2020-02-21T12:39:10Z</time>
      </trkpt>
      <trkpt lat="38.8670540" lon="1.2547270">
        <ele>82.5</ele>
        <time>2020-02-21T12:39:11Z</time>
      </trkpt>
      <trkpt lat="38.8670960" lon="1.2547770">
        <ele>81.8</ele>
        <time>2020-02-21T12:39:12Z</time>
      </trkpt>
      <trkpt lat="38.8671410" lon="1.2548250">
        <ele>81.1</ele>
        <time>2020-02-21T12:39:13Z</time>
      </trkpt>
      <trkpt lat="38.8671880" lon="1.2548750">
        <ele>80.4</ele>
        <time>2020-02-21T12:39:14Z</time>
      </trkpt>
      <trkpt lat="38.8672380" lon="1.2549170">
        <ele>79.7</ele>
        <time>2020-02-21T12:39:15Z</time>
      </trkpt>
      <trkpt lat="38.8672800" lon="1.2549720">
        <ele>79.2</ele>
        <time>2020-02-21T12:39:16Z</time>
      </trkpt>
      <trkpt lat="38.8673160" lon="1.2550290">
        <ele>78.7</ele>
        <time>2020-02-21T12:39:17Z</time>
      </trkpt>
      <trkpt lat="38.8673480" lon="1.2550820">
        <ele>78.3</ele>
        <time>2020-02-21T12:39:18Z</time>
      </trkpt>
      <trkpt lat="38.8673780" lon="1.2551300">
        <ele>77.9</ele>
        <time>2020-02-21T12:39:19Z</time>
      </trkpt>
      <trkpt lat="38.8674040" lon="1.2551650">
        <ele>77.6</ele>
        <time>2020-02-21T12:39:20Z</time>
      </trkpt>
      <trkpt lat="38.8674230" lon="1.2551990">
        <ele>77.3</ele>
        <time>2020-02-21T12:39:21Z</time>
      </trkpt>
      <trkpt lat="38.8674460" lon="1.2552400">
        <ele>77.0</ele>
        <time>2020-02-21T12:39:22Z</time>
      </trkpt>
      <trkpt lat="38.8674760" lon="1.2552820">
        <ele>75.6</ele>
        <time>2020-02-21T12:39:23Z</time>
      </trkpt>
      <trkpt lat="38.8674940" lon="1.2553200">
        <ele>74.8</ele>
        <time>2020-02-21T12:39:24Z</time>
      </trkpt>
      <trkpt lat="38.8675120" lon="1.2553530">
        <ele>74.0</ele>
        <time>2020-02-21T12:39:25Z</time>
      </trkpt>
      <trkpt lat="38.8675310" lon="1.2553770">
        <ele>73.4</ele>
        <time>2020-02-21T12:39:26Z</time>
      </trkpt>
      <trkpt lat="38.8675570" lon="1.2554180">
        <ele>72.5</ele>
        <time>2020-02-21T12:39:27Z</time>
      </trkpt>
      <trkpt lat="38.8675640" lon="1.2554340">
        <ele>72.2</ele>
        <time>2020-02-21T12:39:28Z</time>
      </trkpt>
      <trkpt lat="38.8675830" lon="1.2554630">
        <ele>71.5</ele>
        <time>2020-02-21T12:39:29Z</time>
      </trkpt>
      <trkpt lat="38.8676050" lon="1.2554980">
        <ele>70.7</ele>
        <time>2020-02-21T12:39:30Z</time>
      </trkpt>
      <trkpt lat="38.8676330" lon="1.2555320">
        <ele>69.9</ele>
        <time>2020-02-21T12:39:31Z</time>
      </trkpt>
      <trkpt lat="38.8676600" lon="1.2555750">
        <ele>69.0</ele>
        <time>2020-02-21T12:39:32Z</time>
      </trkpt>
      <trkpt lat="38.8676810" lon="1.2556290">
        <ele>68.0</ele>
        <time>2020-02-21T12:39:33Z</time>
      </trkpt>
      <trkpt lat="38.8676830" lon="1.2556980">
        <ele>66.8</ele>
        <time>2020-02-21T12:39:34Z</time>
      </trkpt>
      <trkpt lat="38.8677080" lon="1.2557590">
        <ele>65.4</ele>
        <time>2020-02-21T12:39:35Z</time>
      </trkpt>
      <trkpt lat="38.8677230" lon="1.2558230">
        <ele>64.2</ele>
        <time>2020-02-21T12:39:36Z</time>
      </trkpt>
      <trkpt lat="38.8677450" lon="1.2558820">
        <ele>62.9</ele>
        <time>2020-02-21T12:39:37Z</time>
      </trkpt>
      <trkpt lat="38.8677700" lon="1.2559430">
        <ele>61.5</ele>
        <time>2020-02-21T12:39:38Z</time>
      </trkpt>
      <trkpt lat="38.8678020" lon="1.2559970">
        <ele>60.2</ele>
        <time>2020-02-21T12:39:39Z</time>
      </trkpt>
      <trkpt lat="38.8678240" lon="1.2560500">
        <ele>58.9</ele>
        <time>2020-02-21T12:39:40Z</time>
      </trkpt>
      <trkpt lat="38.8678340" lon="1.2560960">
        <ele>57.9</ele>
        <time>2020-02-21T12:39:41Z</time>
      </trkpt>
      <trkpt lat="38.8678240" lon="1.2561500">
        <ele>56.8</ele>
        <time>2020-02-21T12:39:42Z</time>
      </trkpt>
      <trkpt lat="38.8677920" lon="1.2561940">
        <ele>55.5</ele>
        <time>2020-02-21T12:39:43Z</time>
      </trkpt>
      <trkpt lat="38.8677500" lon="1.2562330">
        <ele>54.1</ele>
        <time>2020-02-21T12:39:44Z</time>
      </trkpt>
      <trkpt lat="38.8676890" lon="1.2562390">
        <ele>51.1</ele>
        <time>2020-02-21T12:39:45Z</time>
      </trkpt>
      <trkpt lat="38.8676220" lon="1.2562220">
        <ele>50.7</ele>
        <time>2020-02-21T12:39:46Z</time>
      </trkpt>
      <trkpt lat="38.8675630" lon="1.2561790">
        <ele>50.4</ele>
        <time>2020-02-21T12:39:47Z</time>
      </trkpt>
      <trkpt lat="38.8675140" lon="1.2561330">
        <ele>50.4</ele>
        <time>2020-02-21T12:39:48Z</time>
      </trkpt>
      <trkpt lat="38.8674680" lon="1.2560780">
        <ele>50.6</ele>
        <time>2020-02-21T12:39:49Z</time>
      </trkpt>
      <trkpt lat="38.8674220" lon="1.2560280">
        <ele>51.0</ele>
        <time>2020-02-21T12:39:50Z</time>
      </trkpt>
      <trkpt lat="38.8673780" lon="1.2559770">
        <ele>51.6</ele>
        <time>2020-02-21T12:39:51Z</time>
      </trkpt>
      <trkpt lat="38.8673430" lon="1.2559290">
        <ele>52.3</ele>
        <time>2020-02-21T12:39:52Z</time>
      </trkpt>
      <trkpt lat="38.8673100" lon="1.2558910">
        <ele>52.9</ele>
        <time>2020-02-21T12:39:53Z</time>
      </trkpt>
      <trkpt lat="38.8672840" lon="1.2558560">
        <ele>53.5</ele>
        <time>2020-02-21T12:39:54Z</time>
      </trkpt>
      <trkpt lat="38.8672610" lon="1.2558190">
        <ele>54.1</ele>
        <time>2020-02-21T12:39:55Z</time>
      </trkpt>
      <trkpt lat="38.8672560" lon="1.2557830">
        <ele>54.5</ele>
        <time>2020-02-21T12:39:56Z</time>
      </trkpt>
      <trkpt lat="38.8672500" lon="1.2557480">
        <ele>54.9</ele>
        <time>2020-02-21T12:39:57Z</time>
      </trkpt>
      <trkpt lat="38.8672340" lon="1.2557190">
        <ele>55.4</ele>
        <time>2020-02-21T12:39:58Z</time>
      </trkpt>
      <trkpt lat="38.8672270" lon="1.2556980">
        <ele>55.6</ele>
        <time>2020-02-21T12:39:59Z</time>
      </trkpt>
      <trkpt lat="38.8672180" lon="1.2556820">
        <ele>55.8</ele>
        <time>2020-02-21T12:40:00Z</time>
      </trkpt>
      <trkpt lat="38.8672080" lon="1.2556670">
        <ele>56.0</ele>
        <time>2020-02-21T12:40:01Z</time>
      </trkpt>
      <trkpt lat="38.8672060" lon="1.2556460">
        <ele>56.2</ele>
        <time>2020-02-21T12:40:02Z</time>
      </trkpt>
      <trkpt lat="38.8671990" lon="1.2556250">
        <ele>56.5</ele>
        <time>2020-02-21T12:40:03Z</time>
      </trkpt>
      <trkpt lat="38.8671910" lon="1.2556100">
        <ele>56.6</ele>
        <time>2020-02-21T12:40:04Z</time>
      </trkpt>
      <trkpt lat="38.8671730" lon="1.2555790">
        <ele>57.0</ele>
        <time>2020-02-21T12:40:05Z</time>
      </trkpt>
      <trkpt lat="38.8671650" lon="1.2555690">
        <ele>57.1</ele>
        <time>2020-02-21T12:40:06Z</time>
      </trkpt>
      <trkpt lat="38.8671500" lon="1.2555360">
        <ele>57.4</ele>
        <time>2020-02-21T12:40:07Z</time>
      </trkpt>
      <trkpt lat="38.8671480" lon="1.2555240">
        <ele>57.5</ele>
        <time>2020-02-21T12:40:08Z</time>
      </trkpt>
      <trkpt lat="38.8671370" lon="1.2555030">
        <ele>57.7</ele>
        <time>2020-02-21T12:40:09Z</time>
      </trkpt>
      <trkpt lat="38.8671260" lon="1.2554880">
        <ele>57.8</ele>
        <time>2020-02-21T12:40:10Z</time>
      </trkpt>
      <trkpt lat="38.8671060" lon="1.2554620">
        <ele>58.1</ele>
        <time>2020-02-21T12:40:11Z</time>
      </trkpt>
      <trkpt lat="38.8670970" lon="1.2554520">
        <ele>58.2</ele>
        <time>2020-02-21T12:40:12Z</time>
      </trkpt>
      <trkpt lat="38.8670760" lon="1.2554270">
        <ele>58.3</ele>
        <time>2020-02-21T12:40:13Z</time>
      </trkpt>
      <trkpt lat="38.8670590" lon="1.2553930">
        <ele>58.6</ele>
        <time>2020-02-21T12:40:14Z</time>
      </trkpt>
      <trkpt lat="38.8670510" lon="1.2553850">
        <ele>58.6</ele>
        <time>2020-02-21T12:40:15Z</time>
      </trkpt>
      <trkpt lat="38.8670350" lon="1.2553430">
        <ele>58.9</ele>
        <time>2020-02-21T12:40:16Z</time>
      </trkpt>
      <trkpt lat="38.8670290" lon="1.2553290">
        <ele>58.9</ele>
        <time>2020-02-21T12:40:17Z</time>
      </trkpt>
      <trkpt lat="38.8670110" lon="1.2552970">
        <ele>59.1</ele>
        <time>2020-02-21T12:40:18Z</time>
      </trkpt>
      <trkpt lat="38.8670060" lon="1.2552840">
        <ele>59.2</ele>
        <time>2020-02-21T12:40:19Z</time>
      </trkpt>
      <trkpt lat="38.8669830" lon="1.2552520">
        <ele>59.4</ele>
        <time>2020-02-21T12:40:20Z</time>
      </trkpt>
      <trkpt lat="38.8669750" lon="1.2552420">
        <ele>59.5</ele>
        <time>2020-02-21T12:40:21Z</time>
      </trkpt>
      <trkpt lat="38.8669490" lon="1.2552150">
        <ele>59.7</ele>
        <time>2020-02-21T12:40:22Z</time>
      </trkpt>
      <trkpt lat="38.8669370" lon="1.2552090">
        <ele>59.8</ele>
        <time>2020-02-21T12:40:23Z</time>
      </trkpt>
      <trkpt lat="38.8669180" lon="1.2551830">
        <ele>59.9</ele>
        <time>2020-02-21T12:40:24Z</time>
      </trkpt>
      <trkpt lat="38.8668870" lon="1.2551550">
        <ele>60.1</ele>
        <time>2020-02-21T12:40:25Z</time>
      </trkpt>
      <trkpt lat="38.8668760" lon="1.2551460">
        <ele>60.2</ele>
        <time>2020-02-21T12:40:26Z</time>
      </trkpt>
      <trkpt lat="38.8668450" lon="1.2551150">
        <ele>60.4</ele>
        <time>2020-02-21T12:40:27Z</time>
      </trkpt>
      <trkpt lat="38.8668370" lon="1.2551000">
        <ele>60.4</ele>
        <time>2020-02-21T12:40:28Z</time>
      </trkpt>
      <trkpt lat="38.8668080" lon="1.2550690">
        <ele>60.6</ele>
        <time>2020-02-21T12:40:29Z</time>
      </trkpt>
      <trkpt lat="38.8667970" lon="1.2550600">
        <ele>60.7</ele>
        <time>2020-02-21T12:40:30Z</time>
      </trkpt>
      <trkpt lat="38.8667730" lon="1.2550420">
        <ele>60.8</ele>
        <time>2020-02-21T12:40:31Z</time>
      </trkpt>
      <trkpt lat="38.8667460" lon="1.2550270">
        <ele>60.9</ele>
        <time>2020-02-21T12:40:32Z</time>
      </trkpt>
      <trkpt lat="38.8667180" lon="1.2549980">
        <ele>63.2</ele>
        <time>2020-02-21T12:40:33Z</time>
      </trkpt>
      <trkpt lat="38.8667100" lon="1.2549870">
        <ele>63.5</ele>
        <time>2020-02-21T12:40:34Z</time>
      </trkpt>
      <trkpt lat="38.8666940" lon="1.2549560">
        <ele>64.2</ele>
        <time>2020-02-21T12:40:35Z</time>
      </trkpt>
      <trkpt lat="38.8666740" lon="1.2549300">
        <ele>65.0</ele>
        <time>2020-02-21T12:40:36Z</time>
      </trkpt>
      <trkpt lat="38.8666520" lon="1.2549090">
        <ele>65.7</ele>
        <time>2020-02-21T12:40:37Z</time>
      </trkpt>
      <trkpt lat="38.8666280" lon="1.2548900">
        <ele>66.4</ele>
        <time>2020-02-21T12:40:38Z</time>
      </trkpt>
      <trkpt lat="38.8666110" lon="1.2548630">
        <ele>67.1</ele>
        <time>2020-02-21T12:40:39Z</time>
      </trkpt>
      <trkpt lat="38.8665880" lon="1.2548210">
        <ele>68.2</ele>
        <time>2020-02-21T12:40:40Z</time>
      </trkpt>
      <trkpt lat="38.8665800" lon="1.2548070">
        <ele>68.5</ele>
        <time>2020-02-21T12:40:41Z</time>
      </trkpt>
      <trkpt lat="38.8665590" lon="1.2547660">
        <ele>69.5</ele>
        <time>2020-02-21T12:40:42Z</time>
      </trkpt>
      <trkpt lat="38.8665520" lon="1.2547530">
        <ele>69.8</ele>
        <time>2020-02-21T12:40:43Z</time>
      </trkpt>
      <trkpt lat="38.8665330" lon="1.2547180">
        <ele>70.7</ele>
        <time>2020-02-21T12:40:44Z</time>
      </trkpt>
      <trkpt lat="38.8665260" lon="1.2547070">
        <ele>71.6</ele>
        <time>2020-02-21T12:40:45Z</time>
      </trkpt>
      <trkpt lat="38.8665010" lon="1.2546820">
        <ele>71.8</ele>
        <time>2020-02-21T12:40:46Z</time>
      </trkpt>
      <trkpt lat="38.8664960" lon="1.2546730">
        <ele>71.9</ele>
        <time>2020-02-21T12:40:47Z</time>
      </trkpt>
      <trkpt lat="38.8664760" lon="1.2546650">
        <ele>72.0</ele>
        <time>2020-02-21T12:40:48Z</time>
      </trkpt>
      <trkpt lat="38.8664720" lon="1.2546440">
        <ele>72.1</ele>
        <time>2020-02-21T12:40:49Z</time>
      </trkpt>
      <trkpt lat="38.8664610" lon="1.2546100">
        <ele>72.3</ele>
        <time>2020-02-21T12:40:50Z</time>
      </trkpt>
      <trkpt lat="38.8664560" lon="1.2546000">
        <ele>72.4</ele>
        <time>2020-02-21T12:40:51Z</time>
      </trkpt>
      <trkpt lat="38.8664400" lon="1.2545860">
        <ele>72.5</ele>
        <time>2020-02-21T12:40:52Z</time>
      </trkpt>
      <trkpt lat="38.8664390" lon="1.2545670">
        <ele>72.6</ele>
        <time>2020-02-21T12:40:53Z</time>
      </trkpt>
      <trkpt lat="38.8664360" lon="1.2545440">
        <ele>72.6</ele>
        <time>2020-02-21T12:40:54Z</time>
      </trkpt>
      <trkpt lat="38.8664260" lon="1.2545280">
        <ele>72.7</ele>
        <time>2020-02-21T12:40:55Z</time>
      </trkpt>
      <trkpt lat="38.8664050" lon="1.2544970">
        <ele>72.8</ele>
        <time>2020-02-21T12:40:56Z</time>
      </trkpt>
      <trkpt lat="38.8663980" lon="1.2544860">
        <ele>72.8</ele>
        <time>2020-02-21T12:40:57Z</time>
      </trkpt>
      <trkpt lat="38.8663850" lon="1.2544800">
        <ele>72.8</ele>
        <time>2020-02-21T12:40:58Z</time>
      </trkpt>
      <trkpt lat="38.8663740" lon="1.2544680">
        <ele>72.9</ele>
        <time>2020-02-21T12:40:59Z</time>
      </trkpt>
      <trkpt lat="38.8663600" lon="1.2544580">
        <ele>72.9</ele>
        <time>2020-02-21T12:41:00Z</time>
      </trkpt>
      <trkpt lat="38.8663420" lon="1.2544550">
        <ele>73.0</ele>
        <time>2020-02-21T12:41:01Z</time>
      </trkpt>
      <trkpt lat="38.8663240" lon="1.2544510">
        <ele>73.0</ele>
        <time>2020-02-21T12:41:02Z</time>
      </trkpt>
      <trkpt lat="38.8663070" lon="1.2544450">
        <ele>73.0</ele>
        <time>2020-02-21T12:41:03Z</time>
      </trkpt>
      <trkpt lat="38.8662960" lon="1.2544290">
        <ele>72.9</ele>
        <time>2020-02-21T12:41:04Z</time>
      </trkpt>
      <trkpt lat="38.8662800" lon="1.2544200">
        <ele>72.9</ele>
        <time>2020-02-21T12:41:05Z</time>
      </trkpt>
      <trkpt lat="38.8662540" lon="1.2544000">
        <ele>72.9</ele>
        <time>2020-02-21T12:41:06Z</time>
      </trkpt>
      <trkpt lat="38.8662440" lon="1.2543950">
        <ele>72.9</ele>
        <time>2020-02-21T12:41:07Z</time>
      </trkpt>
      <trkpt lat="38.8662170" lon="1.2543700">
        <ele>72.8</ele>
        <time>2020-02-21T12:41:08Z</time>
      </trkpt>
      <trkpt lat="38.8662070" lon="1.2543600">
        <ele>72.8</ele>
        <time>2020-02-21T12:41:09Z</time>
      </trkpt>
      <trkpt lat="38.8661810" lon="1.2543370">
        <ele>72.8</ele>
        <time>2020-02-21T12:41:10Z</time>
      </trkpt>
      <trkpt lat="38.8661720" lon="1.2543330">
        <ele>72.8</ele>
        <time>2020-02-21T12:41:11Z</time>
      </trkpt>
      <trkpt lat="38.8661520" lon="1.2543060">
        <ele>72.7</ele>
        <time>2020-02-21T12:41:12Z</time>
      </trkpt>
      <trkpt lat="38.8661450" lon="1.2542970">
        <ele>72.7</ele>
        <time>2020-02-21T12:41:13Z</time>
      </trkpt>
      <trkpt lat="38.8661310" lon="1.2542910">
        <ele>72.7</ele>
        <time>2020-02-21T12:41:14Z</time>
      </trkpt>
      <trkpt lat="38.8661140" lon="1.2542850">
        <ele>72.7</ele>
        <time>2020-02-21T12:41:15Z</time>
      </trkpt>
      <trkpt lat="38.8660810" lon="1.2542980">
        <ele>72.6</ele>
        <time>2020-02-21T12:41:16Z</time>
      </trkpt>
      <trkpt lat="38.8660710" lon="1.2543010">
        <ele>72.6</ele>
        <time>2020-02-21T12:41:17Z</time>
      </trkpt>
      <trkpt lat="38.8660570" lon="1.2542940">
        <ele>72.5</ele>
        <time>2020-02-21T12:41:18Z</time>
      </trkpt>
      <trkpt lat="38.8660550" lon="1.2542830">
        <ele>72.4</ele>
        <time>2020-02-21T12:41:19Z</time>
      </trkpt>
      <trkpt lat="38.8660570" lon="1.2542770">
        <ele>72.4</ele>
        <time>2020-02-21T12:41:20Z</time>
      </trkpt>
      <trkpt lat="38.8660620" lon="1.2542650">
        <ele>72.3</ele>
        <time>2020-02-21T12:41:21Z</time>
      </trkpt>
      <trkpt lat="38.8660570" lon="1.2542680">
        <ele>72.3</ele>
        <time>2020-02-21T12:41:22Z</time>
      </trkpt>
      <trkpt lat="38.8660550" lon="1.2542690">
        <ele>72.2</ele>
        <time>2020-02-21T12:41:23Z</time>
      </trkpt>
      <trkpt lat="38.8660610" lon="1.2542620">
        <ele>72.2</ele>
        <time>2020-02-21T12:41:24Z</time>
      </trkpt>
      <trkpt lat="38.8660470" lon="1.2542660">
        <ele>72.1</ele>
        <time>2020-02-21T12:41:25Z</time>
      </trkpt>
      <trkpt lat="38.8660440" lon="1.2542570">
        <ele>72.0</ele>
        <time>2020-02-21T12:41:26Z</time>
      </trkpt>
      <trkpt lat="38.8660340" lon="1.2542540">
        <ele>71.9</ele>
        <time>2020-02-21T12:41:27Z</time>
      </trkpt>
      <trkpt lat="38.8660250" lon="1.2542480">
        <ele>71.8</ele>
        <time>2020-02-21T12:41:28Z</time>
      </trkpt>
      <trkpt lat="38.8660200" lon="1.2542400">
        <ele>71.8</ele>
        <time>2020-02-21T12:41:29Z</time>
      </trkpt>
      <trkpt lat="38.8660170" lon="1.2542430">
        <ele>71.7</ele>
        <time>2020-02-21T12:41:30Z</time>
      </trkpt>
      <trkpt lat="38.8660130" lon="1.2542460">
        <ele>71.7</ele>
        <time>2020-02-21T12:41:31Z</time>
      </trkpt>
      <trkpt lat="38.8660090" lon="1.2542620">
        <ele>71.6</ele>
        <time>2020-02-21T12:41:32Z</time>
      </trkpt>
      <trkpt lat="38.8660070" lon="1.2542630">
        <ele>71.6</ele>
        <time>2020-02-21T12:41:33Z</time>
      </trkpt>
      <trkpt lat="38.8660020" lon="1.2542640">
        <ele>71.5</ele>
        <time>2020-02-21T12:41:34Z</time>
      </trkpt>
      <trkpt lat="38.8659950" lon="1.2542640">
        <ele>71.4</ele>
        <time>2020-02-21T12:41:35Z</time>
      </trkpt>
      <trkpt lat="38.8659930" lon="1.2542690">
        <ele>71.3</ele>
        <time>2020-02-21T12:41:36Z</time>
      </trkpt>
      <trkpt lat="38.8659900" lon="1.2542710">
        <ele>71.3</ele>
        <time>2020-02-21T12:41:37Z</time>
      </trkpt>
      <trkpt lat="38.8659930" lon="1.2542770">
        <ele>71.2</ele>
        <time>2020-02-21T12:41:38Z</time>
      </trkpt>
      <trkpt lat="38.8659920" lon="1.2542730">
        <ele>71.1</ele>
        <time>2020-02-21T12:41:39Z</time>
      </trkpt>
      <trkpt lat="38.8659890" lon="1.2542740">
        <ele>71.1</ele>
        <time>2020-02-21T12:41:40Z</time>
      </trkpt>
      <trkpt lat="38.8659870" lon="1.2542860">
        <ele>70.9</ele>
        <time>2020-02-21T12:41:41Z</time>
      </trkpt>
      <trkpt lat="38.8659870" lon="1.2542940">
        <ele>70.8</ele>
        <time>2020-02-21T12:41:42Z</time>
      </trkpt>
      <trkpt lat="38.8659900" lon="1.2543020">
        <ele>70.7</ele>
        <time>2020-02-21T12:41:43Z</time>
      </trkpt>
      <trkpt lat="38.8659860" lon="1.2543020">
        <ele>70.7</ele>
        <time>2020-02-21T12:41:44Z</time>
      </trkpt>
      <trkpt lat="38.8659900" lon="1.2543190">
        <ele>70.4</ele>
        <time>2020-02-21T12:41:45Z</time>
      </trkpt>
      <trkpt lat="38.8659900" lon="1.2543260">
        <ele>70.4</ele>
        <time>2020-02-21T12:41:46Z</time>
      </trkpt>
      <trkpt lat="38.8659990" lon="1.2543380">
        <ele>70.2</ele>
        <time>2020-02-21T12:41:47Z</time>
      </trkpt>
      <trkpt lat="38.8660040" lon="1.2543460">
        <ele>70.0</ele>
        <time>2020-02-21T12:41:48Z</time>
      </trkpt>
      <trkpt lat="38.8660050" lon="1.2543610">
        <ele>69.8</ele>
        <time>2020-02-21T12:41:49Z</time>
      </trkpt>
      <trkpt lat="38.8660040" lon="1.2543720">
        <ele>69.7</ele>
        <time>2020-02-21T12:41:50Z</time>
      </trkpt>
      <trkpt lat="38.8660010" lon="1.2543870">
        <ele>69.5</ele>
        <time>2020-02-21T12:41:51Z</time>
      </trkpt>
      <trkpt lat="38.8660030" lon="1.2543950">
        <ele>69.4</ele>
        <time>2020-02-21T12:41:52Z</time>
      </trkpt>
      <trkpt lat="38.8660060" lon="1.2544030">
        <ele>69.3</ele>
        <time>2020-02-21T12:41:53Z</time>
      </trkpt>
      <trkpt lat="38.8660080" lon="1.2544110">
        <ele>69.2</ele>
        <time>2020-02-21T12:41:54Z</time>
      </trkpt>
      <trkpt lat="38.8660110" lon="1.2544190">
        <ele>69.1</ele>
        <time>2020-02-21T12:41:55Z</time>
      </trkpt>
      <trkpt lat="38.8660140" lon="1.2544330">
        <ele>68.9</ele>
        <time>2020-02-21T12:41:56Z</time>
      </trkpt>
      <trkpt lat="38.8660060" lon="1.2544420">
        <ele>68.8</ele>
        <time>2020-02-21T12:41:57Z</time>
      </trkpt>
      <trkpt lat="38.8659970" lon="1.2544520">
        <ele>68.6</ele>
        <time>2020-02-21T12:41:58Z</time>
      </trkpt>
      <trkpt lat="38.8659890" lon="1.2544610">
        <ele>68.4</ele>
        <time>2020-02-21T12:41:59Z</time>
      </trkpt>
      <trkpt lat="38.8659720" lon="1.2544890">
        <ele>68.1</ele>
        <time>2020-02-21T12:42:00Z</time>
      </trkpt>
      <trkpt lat="38.8659600" lon="1.2545030">
        <ele>67.9</ele>
        <time>2020-02-21T12:42:01Z</time>
      </trkpt>
      <trkpt lat="38.8659490" lon="1.2545300">
        <ele>67.6</ele>
        <time>2020-02-21T12:42:02Z</time>
      </trkpt>
      <trkpt lat="38.8659460" lon="1.2545420">
        <ele>67.4</ele>
        <time>2020-02-21T12:42:03Z</time>
      </trkpt>
      <trkpt lat="38.8659270" lon="1.2545530">
        <ele>67.2</ele>
        <time>2020-02-21T12:42:04Z</time>
      </trkpt>
      <trkpt lat="38.8659150" lon="1.2545580">
        <ele>67.0</ele>
        <time>2020-02-21T12:42:05Z</time>
      </trkpt>
      <trkpt lat="38.8659040" lon="1.2545630">
        <ele>66.9</ele>
        <time>2020-02-21T12:42:06Z</time>
      </trkpt>
      <trkpt lat="38.8658850" lon="1.2545700">
        <ele>66.6</ele>
        <time>2020-02-21T12:42:07Z</time>
      </trkpt>
      <trkpt lat="38.8658720" lon="1.2545810">
        <ele>66.4</ele>
        <time>2020-02-21T12:42:08Z</time>
      </trkpt>
      <trkpt lat="38.8658470" lon="1.2546000">
        <ele>66.2</ele>
        <time>2020-02-21T12:42:09Z</time>
      </trkpt>
      <trkpt lat="38.8658390" lon="1.2546050">
        <ele>66.1</ele>
        <time>2020-02-21T12:42:10Z</time>
      </trkpt>
      <trkpt lat="38.8658320" lon="1.2546150">
        <ele>66.0</ele>
        <time>2020-02-21T12:42:11Z</time>
      </trkpt>
      <trkpt lat="38.8658320" lon="1.2546250">
        <ele>65.9</ele>
        <time>2020-02-21T12:42:12Z</time>
      </trkpt>
      <trkpt lat="38.8658310" lon="1.2546350">
        <ele>65.8</ele>
        <time>2020-02-21T12:42:13Z</time>
      </trkpt>
      <trkpt lat="38.8658310" lon="1.2546490">
        <ele>65.7</ele>
        <time>2020-02-21T12:42:14Z</time>
      </trkpt>
      <trkpt lat="38.8658270" lon="1.2546500">
        <ele>65.7</ele>
        <time>2020-02-21T12:42:15Z</time>
      </trkpt>
      <trkpt lat="38.8658230" lon="1.2546610">
        <ele>65.6</ele>
        <time>2020-02-21T12:42:16Z</time>
      </trkpt>
      <trkpt lat="38.8658210" lon="1.2546700">
        <ele>65.5</ele>
        <time>2020-02-21T12:42:17Z</time>
      </trkpt>
      <trkpt lat="38.8658180" lon="1.2546650">
        <ele>65.5</ele>
        <time>2020-02-21T12:42:18Z</time>
      </trkpt>
      <trkpt lat="38.8658170" lon="1.2546640">
        <ele>65.5</ele>
        <time>2020-02-21T12:42:19Z</time>
      </trkpt>
      <trkpt lat="38.8658120" lon="1.2546510">
        <ele>65.4</ele>
        <time>2020-02-21T12:42:20Z</time>
      </trkpt>
      <trkpt lat="38.8658170" lon="1.2546680">
        <ele>65.3</ele>
        <time>2020-02-21T12:42:21Z</time>
      </trkpt>
      <trkpt lat="38.8656930" lon="1.2547160">
        <ele>63.8</ele>
        <time>2020-02-21T12:42:51Z</time>
      </trkpt>
      <trkpt lat="38.8656790" lon="1.2547140">
        <ele>63.6</ele>
        <time>2020-02-21T12:42:52Z</time>
      </trkpt>
      <trkpt lat="38.8656610" lon="1.2547010">
        <ele>63.4</ele>
        <time>2020-02-21T12:42:53Z</time>
      </trkpt>
      <trkpt lat="38.8656520" lon="1.2546990">
        <ele>63.3</ele>
        <time>2020-02-21T12:42:54Z</time>
      </trkpt>
      <trkpt lat="38.8656430" lon="1.2546980">
        <ele>63.3</ele>
        <time>2020-02-21T12:42:55Z</time>
      </trkpt>
      <trkpt lat="38.8656300" lon="1.2546930">
        <ele>63.2</ele>
        <time>2020-02-21T12:42:56Z</time>
      </trkpt>
      <trkpt lat="38.8656270" lon="1.2546660">
        <ele>63.0</ele>
        <time>2020-02-21T12:42:57Z</time>
      </trkpt>
      <trkpt lat="38.8656140" lon="1.2546570">
        <ele>62.9</ele>
        <time>2020-02-21T12:42:58Z</time>
      </trkpt>
      <trkpt lat="38.8655960" lon="1.2546540">
        <ele>62.7</ele>
        <time>2020-02-21T12:42:59Z</time>
      </trkpt>
      <trkpt lat="38.8655630" lon="1.2546460">
        <ele>62.5</ele>
        <time>2020-02-21T12:43:00Z</time>
      </trkpt>
      <trkpt lat="38.8655530" lon="1.2546430">
        <ele>62.4</ele>
        <time>2020-02-21T12:43:01Z</time>
      </trkpt>
      <trkpt lat="38.8655190" lon="1.2546380">
        <ele>62.1</ele>
        <time>2020-02-21T12:43:02Z</time>
      </trkpt>
      <trkpt lat="38.8655060" lon="1.2546350">
        <ele>62.0</ele>
        <time>2020-02-21T12:43:03Z</time>
      </trkpt>
      <trkpt lat="38.8654730" lon="1.2546340">
        <ele>61.7</ele>
        <time>2020-02-21T12:43:04Z</time>
      </trkpt>
      <trkpt lat="38.8654640" lon="1.2546380">
        <ele>61.6</ele>
        <time>2020-02-21T12:43:05Z</time>
      </trkpt>
      <trkpt lat="38.8654370" lon="1.2546620">
        <ele>61.3</ele>
        <time>2020-02-21T12:43:06Z</time>
      </trkpt>
      <trkpt lat="38.8654240" lon="1.2546630">
        <ele>61.1</ele>
        <time>2020-02-21T12:43:07Z</time>
      </trkpt>
      <trkpt lat="38.8653930" lon="1.2546470">
        <ele>60.8</ele>
        <time>2020-02-21T12:43:08Z</time>
      </trkpt>
      <trkpt lat="38.8653640" lon="1.2546450">
        <ele>60.5</ele>
        <time>2020-02-21T12:43:09Z</time>
      </trkpt>
      <trkpt lat="38.8653370" lon="1.2546490">
        <ele>60.2</ele>
        <time>2020-02-21T12:43:10Z</time>
      </trkpt>
      <trkpt lat="38.8653120" lon="1.2546690">
        <ele>59.9</ele>
        <time>2020-02-21T12:43:11Z</time>
      </trkpt>
      <trkpt lat="38.8652770" lon="1.2546760">
        <ele>59.6</ele>
        <time>2020-02-21T12:43:12Z</time>
      </trkpt>
      <trkpt lat="38.8652450" lon="1.2546830">
        <ele>59.3</ele>
        <time>2020-02-21T12:43:13Z</time>
      </trkpt>
      <trkpt lat="38.8652100" lon="1.2546820">
        <ele>58.9</ele>
        <time>2020-02-21T12:43:14Z</time>
      </trkpt>
      <trkpt lat="38.8651970" lon="1.2546750">
        <ele>58.8</ele>
        <time>2020-02-21T12:43:15Z</time>
      </trkpt>
      <trkpt lat="38.8651900" lon="1.2546490">
        <ele>58.5</ele>
        <time>2020-02-21T12:43:16Z</time>
      </trkpt>
      <trkpt lat="38.8651720" lon="1.2546530">
        <ele>58.3</ele>
        <time>2020-02-21T12:43:17Z</time>
      </trkpt>
      <trkpt lat="38.8651450" lon="1.2546600">
        <ele>57.9</ele>
        <time>2020-02-21T12:43:18Z</time>
      </trkpt>
      <trkpt lat="38.8651270" lon="1.2546540">
        <ele>57.6</ele>
        <time>2020-02-21T12:43:19Z</time>
      </trkpt>
      <trkpt lat="38.8651110" lon="1.2546600">
        <ele>57.4</ele>
        <time>2020-02-21T12:43:20Z</time>
      </trkpt>
      <trkpt lat="38.8650870" lon="1.2546810">
        <ele>57.0</ele>
        <time>2020-02-21T12:43:21Z</time>
      </trkpt>
      <trkpt lat="38.8650510" lon="1.2546750">
        <ele>56.6</ele>
        <time>2020-02-21T12:43:22Z</time>
      </trkpt>
      <trkpt lat="38.8650410" lon="1.2546700">
        <ele>56.5</ele>
        <time>2020-02-21T12:43:23Z</time>
      </trkpt>
      <trkpt lat="38.8650060" lon="1.2546730">
        <ele>56.3</ele>
        <time>2020-02-21T12:43:24Z</time>
      </trkpt>
      <trkpt lat="38.8649920" lon="1.2546700">
        <ele>56.2</ele>
        <time>2020-02-21T12:43:25Z</time>
      </trkpt>
      <trkpt lat="38.8649570" lon="1.2546680">
        <ele>56.0</ele>
        <time>2020-02-21T12:43:26Z</time>
      </trkpt>
      <trkpt lat="38.8649170" lon="1.2546690">
        <ele>55.8</ele>
        <time>2020-02-21T12:43:27Z</time>
      </trkpt>
      <trkpt lat="38.8648830" lon="1.2546670">
        <ele>55.6</ele>
        <time>2020-02-21T12:43:28Z</time>
      </trkpt>
      <trkpt lat="38.8648530" lon="1.2546660">
        <ele>55.4</ele>
        <time>2020-02-21T12:43:29Z</time>
      </trkpt>
      <trkpt lat="38.8648140" lon="1.2546680">
        <ele>55.2</ele>
        <time>2020-02-21T12:43:30Z</time>
      </trkpt>
      <trkpt lat="38.8648000" lon="1.2546680">
        <ele>55.1</ele>
        <time>2020-02-21T12:43:31Z</time>
      </trkpt>
      <trkpt lat="38.8647750" lon="1.2546480">
        <ele>54.9</ele>
        <time>2020-02-21T12:43:32Z</time>
      </trkpt>
      <trkpt lat="38.8647460" lon="1.2546480">
        <ele>54.6</ele>
        <time>2020-02-21T12:43:33Z</time>
      </trkpt>
      <trkpt lat="38.8647150" lon="1.2546490">
        <ele>54.2</ele>
        <time>2020-02-21T12:43:34Z</time>
      </trkpt>
      <trkpt lat="38.8647050" lon="1.2546480">
        <ele>54.1</ele>
        <time>2020-02-21T12:43:35Z</time>
      </trkpt>
      <trkpt lat="38.8646940" lon="1.2546350">
        <ele>54.0</ele>
        <time>2020-02-21T12:43:36Z</time>
      </trkpt>
      <trkpt lat="38.8646720" lon="1.2546310">
        <ele>53.9</ele>
        <time>2020-02-21T12:43:37Z</time>
      </trkpt>
      <trkpt lat="38.8646460" lon="1.2546440">
        <ele>53.7</ele>
        <time>2020-02-21T12:43:38Z</time>
      </trkpt>
      <trkpt lat="38.8646200" lon="1.2546580">
        <ele>53.5</ele>
        <time>2020-02-21T12:43:39Z</time>
      </trkpt>
      <trkpt lat="38.8646020" lon="1.2546840">
        <ele>53.4</ele>
        <time>2020-02-21T12:43:40Z</time>
      </trkpt>
      <trkpt lat="38.8645590" lon="1.2546920">
        <ele>53.1</ele>
        <time>2020-02-21T12:43:41Z</time>
      </trkpt>
      <trkpt lat="38.8645410" lon="1.2546950">
        <ele>52.9</ele>
        <time>2020-02-21T12:43:42Z</time>
      </trkpt>
      <trkpt lat="38.8645180" lon="1.2547160">
        <ele>52.8</ele>
        <time>2020-02-21T12:43:43Z</time>
      </trkpt>
      <trkpt lat="38.8645050" lon="1.2547240">
        <ele>52.7</ele>
        <time>2020-02-21T12:43:44Z</time>
      </trkpt>
      <trkpt lat="38.8644960" lon="1.2547130">
        <ele>52.6</ele>
        <time>2020-02-21T12:43:45Z</time>
      </trkpt>
      <trkpt lat="38.8644850" lon="1.2547200">
        <ele>52.5</ele>
        <time>2020-02-21T12:43:46Z</time>
      </trkpt>
      <trkpt lat="38.8644640" lon="1.2547010">
        <ele>52.3</ele>
        <time>2020-02-21T12:43:47Z</time>
      </trkpt>
      <trkpt lat="38.8644540" lon="1.2546960">
        <ele>52.2</ele>
        <time>2020-02-21T12:43:48Z</time>
      </trkpt>
      <trkpt lat="38.8644390" lon="1.2546970">
        <ele>52.0</ele>
        <time>2020-02-21T12:43:49Z</time>
      </trkpt>
      <trkpt lat="38.8644190" lon="1.2547040">
        <ele>51.8</ele>
        <time>2020-02-21T12:43:50Z</time>
      </trkpt>
      <trkpt lat="38.8644050" lon="1.2546950">
        <ele>51.7</ele>
        <time>2020-02-21T12:43:51Z</time>
      </trkpt>
      <trkpt lat="38.8644070" lon="1.2546830">
        <ele>51.6</ele>
        <time>2020-02-21T12:43:52Z</time>
      </trkpt>
      <trkpt lat="38.8644110" lon="1.2546880">
        <ele>51.5</ele>
        <time>2020-02-21T12:43:53Z</time>
      </trkpt>
      <trkpt lat="38.8644050" lon="1.2547010">
        <ele>51.4</ele>
        <time>2020-02-21T12:43:54Z</time>
      </trkpt>
      <trkpt lat="38.8644000" lon="1.2547090">
        <ele>51.3</ele>
        <time>2020-02-21T12:43:55Z</time>
      </trkpt>
      <trkpt lat="38.8643890" lon="1.2547150">
        <ele>51.2</ele>
        <time>2020-02-21T12:43:56Z</time>
      </trkpt>
      <trkpt lat="38.8643720" lon="1.2547120">
        <ele>51.0</ele>
        <time>2020-02-21T12:43:57Z</time>
      </trkpt>
      <trkpt lat="38.8643580" lon="1.2547050">
        <ele>50.8</ele>
        <time>2020-02-21T12:43:58Z</time>
      </trkpt>
      <trkpt lat="38.8643300" lon="1.2546950">
        <ele>50.4</ele>
        <time>2020-02-21T12:43:59Z</time>
      </trkpt>
      <trkpt lat="38.8643170" lon="1.2546830">
        <ele>50.2</ele>
        <time>2020-02-21T12:44:00Z</time>
      </trkpt>
      <trkpt lat="38.8643050" lon="1.2547160">
        <ele>49.9</ele>
        <time>2020-02-21T12:44:01Z</time>
      </trkpt>
      <trkpt lat="38.8642780" lon="1.2547190">
        <ele>49.7</ele>
        <time>2020-02-21T12:44:02Z</time>
      </trkpt>
      <trkpt lat="38.8642690" lon="1.2547180">
        <ele>49.6</ele>
        <time>2020-02-21T12:44:03Z</time>
      </trkpt>
      <trkpt lat="38.8642500" lon="1.2547150">
        <ele>49.4</ele>
        <time>2020-02-21T12:44:04Z</time>
      </trkpt>
      <trkpt lat="38.8642350" lon="1.2547230">
        <ele>49.3</ele>
        <time>2020-02-21T12:44:05Z</time>
      </trkpt>
      <trkpt lat="38.8642260" lon="1.2547020">
        <ele>49.1</ele>
        <time>2020-02-21T12:44:06Z</time>
      </trkpt>
      <trkpt lat="38.8642270" lon="1.2547120">
        <ele>49.1</ele>
        <time>2020-02-21T12:44:07Z</time>
      </trkpt>
      <trkpt lat="38.8642330" lon="1.2546960">
        <ele>49.0</ele>
        <time>2020-02-21T12:44:08Z</time>
      </trkpt>
      <trkpt lat="38.8642330" lon="1.2547030">
        <ele>48.9</ele>
        <time>2020-02-21T12:44:09Z</time>
      </trkpt>
      <trkpt lat="38.8642310" lon="1.2547110">
        <ele>48.9</ele>
        <time>2020-02-21T12:44:10Z</time>
      </trkpt>
      <trkpt lat="38.8642270" lon="1.2547230">
        <ele>48.8</ele>
        <time>2020-02-21T12:44:11Z</time>
      </trkpt>
      <trkpt lat="38.8642210" lon="1.2547200">
        <ele>48.7</ele>
        <time>2020-02-21T12:44:12Z</time>
      </trkpt>
      <trkpt lat="38.8642140" lon="1.2547110">
        <ele>48.6</ele>
        <time>2020-02-21T12:44:13Z</time>
      </trkpt>
      <trkpt lat="38.8642080" lon="1.2546950">
        <ele>48.5</ele>
        <time>2020-02-21T12:44:14Z</time>
      </trkpt>
      <trkpt lat="38.8641980" lon="1.2546800">
        <ele>48.4</ele>
        <time>2020-02-21T12:44:15Z</time>
      </trkpt>
      <trkpt lat="38.8641880" lon="1.2546750">
        <ele>48.3</ele>
        <time>2020-02-21T12:44:16Z</time>
      </trkpt>
      <trkpt lat="38.8641810" lon="1.2546750">
        <ele>48.2</ele>
        <time>2020-02-21T12:44:17Z</time>
      </trkpt>
      <trkpt lat="38.8641770" lon="1.2546550">
        <ele>47.9</ele>
        <time>2020-02-21T12:44:18Z</time>
      </trkpt>
      <trkpt lat="38.8641750" lon="1.2546400">
        <ele>47.7</ele>
        <time>2020-02-21T12:44:19Z</time>
      </trkpt>
      <trkpt lat="38.8641700" lon="1.2546350">
        <ele>47.6</ele>
        <time>2020-02-21T12:44:20Z</time>
      </trkpt>
      <trkpt lat="38.8641670" lon="1.2546230">
        <ele>47.4</ele>
        <time>2020-02-21T12:44:21Z</time>
      </trkpt>
      <trkpt lat="38.8641650" lon="1.2546070">
        <ele>47.2</ele>
        <time>2020-02-21T12:44:22Z</time>
      </trkpt>
      <trkpt lat="38.8641580" lon="1.2545950">
        <ele>47.0</ele>
        <time>2020-02-21T12:44:23Z</time>
      </trkpt>
      <trkpt lat="38.8641450" lon="1.2545940">
        <ele>46.8</ele>
        <time>2020-02-21T12:44:24Z</time>
      </trkpt>
      <trkpt lat="38.8641380" lon="1.2545840">
        <ele>46.6</ele>
        <time>2020-02-21T12:44:25Z</time>
      </trkpt>
      <trkpt lat="38.8641260" lon="1.2545790">
        <ele>46.5</ele>
        <time>2020-02-21T12:44:26Z</time>
      </trkpt>
      <trkpt lat="38.8641330" lon="1.2545580">
        <ele>46.2</ele>
        <time>2020-02-21T12:44:27Z</time>
      </trkpt>
      <trkpt lat="38.8641320" lon="1.2545580">
        <ele>46.2</ele>
        <time>2020-02-21T12:44:28Z</time>
      </trkpt>
      <trkpt lat="38.8641350" lon="1.2545550">
        <ele>46.1</ele>
        <time>2020-02-21T12:44:29Z</time>
      </trkpt>
      <trkpt lat="38.8641340" lon="1.2545540">
        <ele>46.1</ele>
        <time>2020-02-21T12:44:30Z</time>
      </trkpt>
      <trkpt lat="38.8641340" lon="1.2545520">
        <ele>46.1</ele>
        <time>2020-02-21T12:44:31Z</time>
      </trkpt>
      <trkpt lat="38.8641320" lon="1.2545530">
        <ele>46.1</ele>
        <time>2020-02-21T12:44:32Z</time>
      </trkpt>
      <trkpt lat="38.8641270" lon="1.2545570">
        <ele>46.0</ele>
        <time>2020-02-21T12:44:33Z</time>
      </trkpt>
      <trkpt lat="38.8641210" lon="1.2545650">
        <ele>45.9</ele>
        <time>2020-02-21T12:44:34Z</time>
      </trkpt>
      <trkpt lat="38.8641190" lon="1.2545670">
        <ele>45.8</ele>
        <time>2020-02-21T12:44:35Z</time>
      </trkpt>
      <trkpt lat="38.8641290" lon="1.2545470">
        <ele>45.6</ele>
        <time>2020-02-21T12:44:36Z</time>
      </trkpt>
      <trkpt lat="38.8641290" lon="1.2545430">
        <ele>45.5</ele>
        <time>2020-02-21T12:44:37Z</time>
      </trkpt>
      <trkpt lat="38.8641300" lon="1.2545380">
        <ele>45.5</ele>
        <time>2020-02-21T12:44:38Z</time>
      </trkpt>
      <trkpt lat="38.8640830" lon="1.2545560">
        <ele>44.8</ele>
        <time>2020-02-21T12:44:59Z</time>
      </trkpt>
      <trkpt lat="38.8640710" lon="1.2545740">
        <ele>44.6</ele>
        <time>2020-02-21T12:45:00Z</time>
      </trkpt>
      <trkpt lat="38.8640680" lon="1.2545750">
        <ele>44.5</ele>
        <time>2020-02-21T12:45:01Z</time>
      </trkpt>
      <trkpt lat="38.8640660" lon="1.2545890">
        <ele>44.4</ele>
        <time>2020-02-21T12:45:02Z</time>
      </trkpt>
      <trkpt lat="38.8640630" lon="1.2546050">
        <ele>44.3</ele>
        <time>2020-02-21T12:45:03Z</time>
      </trkpt>
      <trkpt lat="38.8640560" lon="1.2546080">
        <ele>44.2</ele>
        <time>2020-02-21T12:45:04Z</time>
      </trkpt>
      <trkpt lat="38.8640530" lon="1.2546180">
        <ele>44.1</ele>
        <time>2020-02-21T12:45:05Z</time>
      </trkpt>
      <trkpt lat="38.8640480" lon="1.2546270">
        <ele>44.0</ele>
        <time>2020-02-21T12:45:06Z</time>
      </trkpt>
      <trkpt lat="38.8640400" lon="1.2546350">
        <ele>43.9</ele>
        <time>2020-02-21T12:45:07Z</time>
      </trkpt>
      <trkpt lat="38.8640310" lon="1.2546310">
        <ele>43.8</ele>
        <time>2020-02-21T12:45:08Z</time>
      </trkpt>
      <trkpt lat="38.8640300" lon="1.2546250">
        <ele>43.7</ele>
        <time>2020-02-21T12:45:09Z</time>
      </trkpt>
      <trkpt lat="38.8640300" lon="1.2546140">
        <ele>43.6</ele>
        <time>2020-02-21T12:45:10Z</time>
      </trkpt>
      <trkpt lat="38.8640360" lon="1.2546080">
        <ele>43.5</ele>
        <time>2020-02-21T12:45:11Z</time>
      </trkpt>
      <trkpt lat="38.8640350" lon="1.2546060">
        <ele>43.5</ele>
        <time>2020-02-21T12:45:12Z</time>
      </trkpt>
      <trkpt lat="38.8640310" lon="1.2546020">
        <ele>43.4</ele>
        <time>2020-02-21T12:45:13Z</time>
      </trkpt>
      <trkpt lat="38.8640320" lon="1.2546030">
        <ele>43.4</ele>
        <time>2020-02-21T12:45:14Z</time>
      </trkpt>
      <trkpt lat="38.8640330" lon="1.2546040">
        <ele>43.4</ele>
        <time>2020-02-21T12:45:15Z</time>
      </trkpt>
      <trkpt lat="38.8640330" lon="1.2546040">
        <ele>43.4</ele>
        <time>2020-02-21T12:45:16Z</time>
      </trkpt>
      <trkpt lat="38.8640330" lon="1.2546050">
        <ele>43.4</ele>
        <time>2020-02-21T12:45:17Z</time>
      </trkpt>
      <trkpt lat="38.8640340" lon="1.2546050">
        <ele>43.4</ele>
        <time>2020-02-21T12:45:18Z</time>
      </trkpt>
      <trkpt lat="38.8640340" lon="1.2546050">
        <ele>43.4</ele>
        <time>2020-02-21T12:45:19Z</time>
      </trkpt>
      <trkpt lat="38.8640340" lon="1.2546050">
        <ele>43.4</ele>
        <time>2020-02-21T12:45:20Z</time>
      </trkpt>
      <trkpt lat="38.8640340" lon="1.2546050">
        <ele>43.4</ele>
        <time>2020-02-21T12:45:21Z</time>
      </trkpt>
      <trkpt lat="38.8640050" lon="1.2545380">
        <ele>42.7</ele>
        <time>2020-02-21T12:46:42Z</time>
      </trkpt>
      <trkpt lat="38.8640000" lon="1.2545250">
        <ele>42.6</ele>
        <time>2020-02-21T12:46:43Z</time>
      </trkpt>
      <trkpt lat="38.8639960" lon="1.2545110">
        <ele>42.4</ele>
        <time>2020-02-21T12:46:44Z</time>
      </trkpt>
      <trkpt lat="38.8639920" lon="1.2545080">
        <ele>42.4</ele>
        <time>2020-02-21T12:46:45Z</time>
      </trkpt>
      <trkpt lat="38.8639920" lon="1.2545030">
        <ele>42.3</ele>
        <time>2020-02-21T12:46:46Z</time>
      </trkpt>
      <trkpt lat="38.8639900" lon="1.2544920">
        <ele>42.2</ele>
        <time>2020-02-21T12:46:47Z</time>
      </trkpt>
      <trkpt lat="38.8639910" lon="1.2544760">
        <ele>42.1</ele>
        <time>2020-02-21T12:46:48Z</time>
      </trkpt>
      <trkpt lat="38.8639860" lon="1.2544610">
        <ele>41.9</ele>
        <time>2020-02-21T12:46:49Z</time>
      </trkpt>
      <trkpt lat="38.8639830" lon="1.2544520">
        <ele>41.8</ele>
        <time>2020-02-21T12:46:50Z</time>
      </trkpt>
      <trkpt lat="38.8639840" lon="1.2544490">
        <ele>41.8</ele>
        <time>2020-02-21T12:46:51Z</time>
      </trkpt>
      <trkpt lat="38.8639840" lon="1.2544570">
        <ele>41.7</ele>
        <time>2020-02-21T12:46:52Z</time>
      </trkpt>
      <trkpt lat="38.8639850" lon="1.2544610">
        <ele>41.7</ele>
        <time>2020-02-21T12:46:53Z</time>
      </trkpt>
      <trkpt lat="38.8639810" lon="1.2544630">
        <ele>41.6</ele>
        <time>2020-02-21T12:46:54Z</time>
      </trkpt>
      <trkpt lat="38.8639800" lon="1.2544630">
        <ele>41.6</ele>
        <time>2020-02-21T12:46:55Z</time>
      </trkpt>
      <trkpt lat="38.8639760" lon="1.2544600">
        <ele>41.6</ele>
        <time>2020-02-21T12:46:56Z</time>
      </trkpt>
      <trkpt lat="38.8639750" lon="1.2544610">
        <ele>41.6</ele>
        <time>2020-02-21T12:46:57Z</time>
      </trkpt>
      <trkpt lat="38.8639740" lon="1.2544600">
        <ele>41.6</ele>
        <time>2020-02-21T12:46:58Z</time>
      </trkpt>
      <trkpt lat="38.8639730" lon="1.2544610">
        <ele>41.5</ele>
        <time>2020-02-21T12:46:59Z</time>
      </trkpt>
      <trkpt lat="38.8639730" lon="1.2544600">
        <ele>41.5</ele>
        <time>2020-02-21T12:47:00Z</time>
      </trkpt>
      <trkpt lat="38.8639730" lon="1.2544610">
        <ele>41.5</ele>
        <time>2020-02-21T12:47:01Z</time>
      </trkpt>
      <trkpt lat="38.8639300" lon="1.2543890">
        <ele>40.2</ele>
        <time>2020-02-21T12:47:28Z</time>
      </trkpt>
      <trkpt lat="38.8639180" lon="1.2543740">
        <ele>39.8</ele>
        <time>2020-02-21T12:47:29Z</time>
      </trkpt>
      <trkpt lat="38.8638870" lon="1.2543560">
        <ele>39.1</ele>
        <time>2020-02-21T12:47:30Z</time>
      </trkpt>
      <trkpt lat="38.8638750" lon="1.2543490">
        <ele>38.8</ele>
        <time>2020-02-21T12:47:31Z</time>
      </trkpt>
      <trkpt lat="38.8638600" lon="1.2543370">
        <ele>38.4</ele>
        <time>2020-02-21T12:47:32Z</time>
      </trkpt>
      <trkpt lat="38.8638460" lon="1.2543270">
        <ele>38.1</ele>
        <time>2020-02-21T12:47:33Z</time>
      </trkpt>
      <trkpt lat="38.8638160" lon="1.2543270">
        <ele>37.5</ele>
        <time>2020-02-21T12:47:34Z</time>
      </trkpt>
      <trkpt lat="38.8638070" lon="1.2543290">
        <ele>37.3</ele>
        <time>2020-02-21T12:47:35Z</time>
      </trkpt>
      <trkpt lat="38.8637940" lon="1.2543160">
        <ele>36.9</ele>
        <time>2020-02-21T12:47:36Z</time>
      </trkpt>
      <trkpt lat="38.8637840" lon="1.2543160">
        <ele>36.6</ele>
        <time>2020-02-21T12:47:37Z</time>
      </trkpt>
      <trkpt lat="38.8637740" lon="1.2543160">
        <ele>36.4</ele>
        <time>2020-02-21T12:47:38Z</time>
      </trkpt>
      <trkpt lat="38.8637730" lon="1.2543110">
        <ele>36.3</ele>
        <time>2020-02-21T12:47:39Z</time>
      </trkpt>
      <trkpt lat="38.8637630" lon="1.2543120">
        <ele>36.1</ele>
        <time>2020-02-21T12:47:40Z</time>
      </trkpt>
      <trkpt lat="38.8637550" lon="1.2543130">
        <ele>35.9</ele>
        <time>2020-02-21T12:47:41Z</time>
      </trkpt>
      <trkpt lat="38.8637450" lon="1.2543140">
        <ele>35.7</ele>
        <time>2020-02-21T12:47:42Z</time>
      </trkpt>
      <trkpt lat="38.8637320" lon="1.2543100">
        <ele>35.5</ele>
        <time>2020-02-21T12:47:43Z</time>
      </trkpt>
      <trkpt lat="38.8637160" lon="1.2542900">
        <ele>35.2</ele>
        <time>2020-02-21T12:47:44Z</time>
      </trkpt>
      <trkpt lat="38.8636980" lon="1.2542650">
        <ele>34.8</ele>
        <time>2020-02-21T12:47:45Z</time>
      </trkpt>
      <trkpt lat="38.8636890" lon="1.2542570">
        <ele>34.6</ele>
        <time>2020-02-21T12:47:46Z</time>
      </trkpt>
      <trkpt lat="38.8636730" lon="1.2542690">
        <ele>34.3</ele>
        <time>2020-02-21T12:47:47Z</time>
      </trkpt>
      <trkpt lat="38.8636570" lon="1.2542630">
        <ele>34.1</ele>
        <time>2020-02-21T12:47:48Z</time>
      </trkpt>
      <trkpt lat="38.8636280" lon="1.2542400">
        <ele>33.5</ele>
        <time>2020-02-21T12:47:49Z</time>
      </trkpt>
      <trkpt lat="38.8636160" lon="1.2542330">
        <ele>33.3</ele>
        <time>2020-02-21T12:47:50Z</time>
      </trkpt>
      <trkpt lat="38.8636040" lon="1.2542250">
        <ele>33.0</ele>
        <time>2020-02-21T12:47:51Z</time>
      </trkpt>
      <trkpt lat="38.8635930" lon="1.2542250">
        <ele>32.8</ele>
        <time>2020-02-21T12:47:52Z</time>
      </trkpt>
      <trkpt lat="38.8635910" lon="1.2542280">
        <ele>32.8</ele>
        <time>2020-02-21T12:47:53Z</time>
      </trkpt>
      <trkpt lat="38.8635860" lon="1.2542210">
        <ele>32.6</ele>
        <time>2020-02-21T12:47:54Z</time>
      </trkpt>
      <trkpt lat="38.8635830" lon="1.2542190">
        <ele>32.6</ele>
        <time>2020-02-21T12:47:55Z</time>
      </trkpt>
      <trkpt lat="38.8635820" lon="1.2542170">
        <ele>32.5</ele>
        <time>2020-02-21T12:47:56Z</time>
      </trkpt>
      <trkpt lat="38.8635800" lon="1.2542140">
        <ele>32.5</ele>
        <time>2020-02-21T12:47:57Z</time>
      </trkpt>
      <trkpt lat="38.8635600" lon="1.2542020">
        <ele>32.0</ele>
        <time>2020-02-21T12:47:58Z</time>
      </trkpt>
      <trkpt lat="38.8635290" lon="1.2541840">
        <ele>31.3</ele>
        <time>2020-02-21T12:47:59Z</time>
      </trkpt>
      <trkpt lat="38.8634970" lon="1.2541580">
        <ele>30.5</ele>
        <time>2020-02-21T12:48:00Z</time>
      </trkpt>
      <trkpt lat="38.8634880" lon="1.2541500">
        <ele>30.2</ele>
        <time>2020-02-21T12:48:01Z</time>
      </trkpt>
      <trkpt lat="38.8634680" lon="1.2541220">
        <ele>29.6</ele>
        <time>2020-02-21T12:48:02Z</time>
      </trkpt>
      <trkpt lat="38.8634400" lon="1.2540960">
        <ele>28.9</ele>
        <time>2020-02-21T12:48:03Z</time>
      </trkpt>
      <trkpt lat="38.8634290" lon="1.2540860">
        <ele>28.6</ele>
        <time>2020-02-21T12:48:04Z</time>
      </trkpt>
      <trkpt lat="38.8634150" lon="1.2540760">
        <ele>28.3</ele>
        <time>2020-02-21T12:48:05Z</time>
      </trkpt>
      <trkpt lat="38.8634010" lon="1.2540610">
        <ele>28.0</ele>
        <time>2020-02-21T12:48:06Z</time>
      </trkpt>
      <trkpt lat="38.8633730" lon="1.2540190">
        <ele>27.2</ele>
        <time>2020-02-21T12:48:07Z</time>
      </trkpt>
      <trkpt lat="38.8633630" lon="1.2540000">
        <ele>26.9</ele>
        <time>2020-02-21T12:48:08Z</time>
      </trkpt>
      <trkpt lat="38.8633430" lon="1.2539700">
        <ele>26.3</ele>
        <time>2020-02-21T12:48:09Z</time>
      </trkpt>
      <trkpt lat="38.8633240" lon="1.2539450">
        <ele>25.9</ele>
        <time>2020-02-21T12:48:10Z</time>
      </trkpt>
      <trkpt lat="38.8633140" lon="1.2539270">
        <ele>25.6</ele>
        <time>2020-02-21T12:48:11Z</time>
      </trkpt>
      <trkpt lat="38.8633040" lon="1.2539070">
        <ele>25.3</ele>
        <time>2020-02-21T12:48:12Z</time>
      </trkpt>
      <trkpt lat="38.8632870" lon="1.2538920">
        <ele>24.9</ele>
        <time>2020-02-21T12:48:13Z</time>
      </trkpt>
      <trkpt lat="38.8632850" lon="1.2538840">
        <ele>24.8</ele>
        <time>2020-02-21T12:48:14Z</time>
      </trkpt>
      <trkpt lat="38.8632820" lon="1.2538750">
        <ele>24.7</ele>
        <time>2020-02-21T12:48:15Z</time>
      </trkpt>
      <trkpt lat="38.8632800" lon="1.2538670">
        <ele>24.6</ele>
        <time>2020-02-21T12:48:16Z</time>
      </trkpt>
      <trkpt lat="38.8632770" lon="1.2538590">
        <ele>24.5</ele>
        <time>2020-02-21T12:48:17Z</time>
      </trkpt>
      <trkpt lat="38.8632750" lon="1.2538510">
        <ele>24.4</ele>
        <time>2020-02-21T12:48:18Z</time>
      </trkpt>
      <trkpt lat="38.8632720" lon="1.2538420">
        <ele>24.3</ele>
        <time>2020-02-21T12:48:19Z</time>
      </trkpt>
      <trkpt lat="38.8632690" lon="1.2538340">
        <ele>24.2</ele>
        <time>2020-02-21T12:48:20Z</time>
      </trkpt>
      <trkpt lat="38.8632670" lon="1.2538260">
        <ele>24.1</ele>
        <time>2020-02-21T12:48:21Z</time>
      </trkpt>
      <trkpt lat="38.8632640" lon="1.2538180">
        <ele>24.0</ele>
        <time>2020-02-21T12:48:22Z</time>
      </trkpt>
      <trkpt lat="38.8632620" lon="1.2538090">
        <ele>23.9</ele>
        <time>2020-02-21T12:48:23Z</time>
      </trkpt>
      <trkpt lat="38.8632590" lon="1.2538010">
        <ele>23.8</ele>
        <time>2020-02-21T12:48:24Z</time>
      </trkpt>
      <trkpt lat="38.8632570" lon="1.2537930">
        <ele>23.7</ele>
        <time>2020-02-21T12:48:25Z</time>
      </trkpt>
      <trkpt lat="38.8632540" lon="1.2537850">
        <ele>23.7</ele>
        <time>2020-02-21T12:48:26Z</time>
      </trkpt>
      <trkpt lat="38.8632510" lon="1.2537760">
        <ele>23.5</ele>
        <time>2020-02-21T12:48:27Z</time>
      </trkpt>
      <trkpt lat="38.8632490" lon="1.2537680">
        <ele>23.5</ele>
        <time>2020-02-21T12:48:28Z</time>
      </trkpt>
      <trkpt lat="38.8632460" lon="1.2537600">
        <ele>23.4</ele>
        <time>2020-02-21T12:48:29Z</time>
      </trkpt>
      <trkpt lat="38.8632440" lon="1.2537520">
        <ele>23.3</ele>
        <time>2020-02-21T12:48:30Z</time>
      </trkpt>
      <trkpt lat="38.8632410" lon="1.2537430">
        <ele>23.2</ele>
        <time>2020-02-21T12:48:44Z</time>
      </trkpt>
      <trkpt lat="38.8632390" lon="1.2537350">
        <ele>23.1</ele>
        <time>2020-02-21T12:48:45Z</time>
      </trkpt>
      <trkpt lat="38.8632360" lon="1.2537270">
        <ele>23.0</ele>
        <time>2020-02-21T12:48:46Z</time>
      </trkpt>
      <trkpt lat="38.8632320" lon="1.2536920">
        <ele>22.6</ele>
        <time>2020-02-21T12:48:47Z</time>
      </trkpt>
      <trkpt lat="38.8632230" lon="1.2536470">
        <ele>22.0</ele>
        <time>2020-02-21T12:48:48Z</time>
      </trkpt>
      <trkpt lat="38.8632200" lon="1.2536300">
        <ele>21.7</ele>
        <time>2020-02-21T12:48:49Z</time>
      </trkpt>
      <trkpt lat="38.8632070" lon="1.2535930">
        <ele>21.1</ele>
        <time>2020-02-21T12:48:50Z</time>
      </trkpt>
      <trkpt lat="38.8632000" lon="1.2535860">
        <ele>20.9</ele>
        <time>2020-02-21T12:48:51Z</time>
      </trkpt>
      <trkpt lat="38.8631930" lon="1.2535760">
        <ele>20.7</ele>
        <time>2020-02-21T12:48:52Z</time>
      </trkpt>
      <trkpt lat="38.8631880" lon="1.2535640">
        <ele>20.6</ele>
        <time>2020-02-21T12:48:53Z</time>
      </trkpt>
      <trkpt lat="38.8631800" lon="1.2535590">
        <ele>20.4</ele>
        <time>2020-02-21T12:48:54Z</time>
      </trkpt>
      <trkpt lat="38.8631860" lon="1.2535420">
        <ele>20.1</ele>
        <time>2020-02-21T12:48:55Z</time>
      </trkpt>
      <trkpt lat="38.8631890" lon="1.2535250">
        <ele>19.9</ele>
        <time>2020-02-21T12:48:56Z</time>
      </trkpt>
      <trkpt lat="38.8631930" lon="1.2535170">
        <ele>19.8</ele>
        <time>2020-02-21T12:48:57Z</time>
      </trkpt>
      <trkpt lat="38.8631960" lon="1.2535120">
        <ele>19.7</ele>
        <time>2020-02-21T12:48:58Z</time>
      </trkpt>
      <trkpt lat="38.8631990" lon="1.2535140">
        <ele>19.6</ele>
        <time>2020-02-21T12:48:59Z</time>
      </trkpt>
      <trkpt lat="38.8632010" lon="1.2535110">
        <ele>19.6</ele>
        <time>2020-02-21T12:49:00Z</time>
      </trkpt>
      <trkpt lat="38.8631980" lon="1.2535040">
        <ele>19.5</ele>
        <time>2020-02-21T12:49:01Z</time>
      </trkpt>
      <trkpt lat="38.8631980" lon="1.2535030">
        <ele>19.5</ele>
        <time>2020-02-21T12:49:02Z</time>
      </trkpt>
      <trkpt lat="38.8631980" lon="1.2535040">
        <ele>19.5</ele>
        <time>2020-02-21T12:49:03Z</time>
      </trkpt>
      <trkpt lat="38.8631990" lon="1.2535040">
        <ele>19.4</ele>
        <time>2020-02-21T12:49:04Z</time>
      </trkpt>
      <trkpt lat="38.8632040" lon="1.2535090">
        <ele>19.3</ele>
        <time>2020-02-21T12:49:05Z</time>
      </trkpt>
      <trkpt lat="38.8632050" lon="1.2535100">
        <ele>19.3</ele>
        <time>2020-02-21T12:49:06Z</time>
      </trkpt>
      <trkpt lat="38.8632090" lon="1.2535150">
        <ele>19.2</ele>
        <time>2020-02-21T12:49:07Z</time>
      </trkpt>
      <trkpt lat="38.8632150" lon="1.2535140">
        <ele>19.1</ele>
        <time>2020-02-21T12:49:08Z</time>
      </trkpt>
      <trkpt lat="38.8632160" lon="1.2535120">
        <ele>19.1</ele>
        <time>2020-02-21T12:49:09Z</time>
      </trkpt>
      <trkpt lat="38.8632040" lon="1.2534470">
        <ele>18.3</ele>
        <time>2020-02-21T12:49:16Z</time>
      </trkpt>
      <trkpt lat="38.8631980" lon="1.2534530">
        <ele>18.2</ele>
        <time>2020-02-21T12:49:17Z</time>
      </trkpt>
      <trkpt lat="38.8631970" lon="1.2534580">
        <ele>18.2</ele>
        <time>2020-02-21T12:49:18Z</time>
      </trkpt>
      <trkpt lat="38.8631930" lon="1.2534820">
        <ele>17.9</ele>
        <time>2020-02-21T12:49:19Z</time>
      </trkpt>
      <trkpt lat="38.8631800" lon="1.2534800">
        <ele>17.6</ele>
        <time>2020-02-21T12:49:20Z</time>
      </trkpt>
      <trkpt lat="38.8631730" lon="1.2534780">
        <ele>17.5</ele>
        <time>2020-02-21T12:49:21Z</time>
      </trkpt>
      <trkpt lat="38.8631730" lon="1.2534770">
        <ele>17.5</ele>
        <time>2020-02-21T12:49:22Z</time>
      </trkpt>
      <trkpt lat="38.8631780" lon="1.2534790">
        <ele>17.4</ele>
        <time>2020-02-21T12:49:23Z</time>
      </trkpt>
      <trkpt lat="38.8631740" lon="1.2534820">
        <ele>17.3</ele>
        <time>2020-02-21T12:49:24Z</time>
      </trkpt>
      <trkpt lat="38.8631740" lon="1.2534830">
        <ele>17.3</ele>
        <time>2020-02-21T12:49:25Z</time>
      </trkpt>
      <trkpt lat="38.8631690" lon="1.2534910">
        <ele>17.1</ele>
        <time>2020-02-21T12:49:26Z</time>
      </trkpt>
      <trkpt lat="38.8631720" lon="1.2534900">
        <ele>17.1</ele>
        <time>2020-02-21T12:49:27Z</time>
      </trkpt>
      <trkpt lat="38.8631740" lon="1.2534910">
        <ele>17.1</ele>
        <time>2020-02-21T12:49:28Z</time>
      </trkpt>
      <trkpt lat="38.8631730" lon="1.2534860">
        <ele>17.0</ele>
        <time>2020-02-21T12:49:29Z</time>
      </trkpt>
      <trkpt lat="38.8631650" lon="1.2534730">
        <ele>16.7</ele>
        <time>2020-02-21T12:49:30Z</time>
      </trkpt>
      <trkpt lat="38.8631580" lon="1.2534680">
        <ele>16.6</ele>
        <time>2020-02-21T12:49:31Z</time>
      </trkpt>
      <trkpt lat="38.8631570" lon="1.2534590">
        <ele>16.5</ele>
        <time>2020-02-21T12:49:32Z</time>
      </trkpt>
      <trkpt lat="38.8631560" lon="1.2534560">
        <ele>16.4</ele>
        <time>2020-02-21T12:49:33Z</time>
      </trkpt>
      <trkpt lat="38.8631560" lon="1.2534560">
        <ele>16.4</ele>
        <time>2020-02-21T12:49:34Z</time>
      </trkpt>
      <trkpt lat="38.8631540" lon="1.2534530">
        <ele>16.4</ele>
        <time>2020-02-21T12:49:35Z</time>
      </trkpt>
      <trkpt lat="38.8631520" lon="1.2534490">
        <ele>16.4</ele>
        <time>2020-02-21T12:49:36Z</time>
      </trkpt>
      <trkpt lat="38.8631550" lon="1.2534490">
        <ele>16.3</ele>
        <time>2020-02-21T12:49:37Z</time>
      </trkpt>
      <trkpt lat="38.8631550" lon="1.2534490">
        <ele>16.3</ele>
        <time>2020-02-21T12:49:38Z</time>
      </trkpt>
      <trkpt lat="38.8631550" lon="1.2534490">
        <ele>16.3</ele>
        <time>2020-02-21T12:49:39Z</time>
      </trkpt>
      <trkpt lat="38.8631550" lon="1.2534490">
        <ele>16.2</ele>
        <time>2020-02-21T12:49:40Z</time>
      </trkpt>
      <trkpt lat="38.8631550" lon="1.2534490">
        <ele>16.2</ele>
        <time>2020-02-21T12:49:41Z</time>
      </trkpt>
      <trkpt lat="38.8631550" lon="1.2534490">
        <ele>16.2</ele>
        <time>2020-02-21T12:49:42Z</time>
      </trkpt>
      <trkpt lat="38.8631550" lon="1.2534490">
        <ele>16.2</ele>
        <time>2020-02-21T12:49:43Z</time>
      </trkpt>
      <trkpt lat="38.8631000" lon="1.2534630">
        <ele>15.6</ele>
        <time>2020-02-21T12:50:23Z</time>
      </trkpt>
      <trkpt lat="38.8630920" lon="1.2534690">
        <ele>15.5</ele>
        <time>2020-02-21T12:50:24Z</time>
      </trkpt>
      <trkpt lat="38.8630830" lon="1.2534720">
        <ele>15.3</ele>
        <time>2020-02-21T12:50:25Z</time>
      </trkpt>
      <trkpt lat="38.8630720" lon="1.2534710">
        <ele>15.2</ele>
        <time>2020-02-21T12:50:26Z</time>
      </trkpt>
      <trkpt lat="38.8630610" lon="1.2534710">
        <ele>15.1</ele>
        <time>2020-02-21T12:50:27Z</time>
      </trkpt>
      <trkpt lat="38.8630520" lon="1.2534700">
        <ele>14.9</ele>
        <time>2020-02-21T12:50:28Z</time>
      </trkpt>
      <trkpt lat="38.8630410" lon="1.2534710">
        <ele>14.8</ele>
        <time>2020-02-21T12:50:29Z</time>
      </trkpt>
      <trkpt lat="38.8630310" lon="1.2534640">
        <ele>14.7</ele>
        <time>2020-02-21T12:50:30Z</time>
      </trkpt>
      <trkpt lat="38.8630330" lon="1.2534710">
        <ele>14.6</ele>
        <time>2020-02-21T12:50:31Z</time>
      </trkpt>
      <trkpt lat="38.8630340" lon="1.2534710">
        <ele>14.5</ele>
        <time>2020-02-21T12:50:32Z</time>
      </trkpt>
      <trkpt lat="38.8630320" lon="1.2534640">
        <ele>14.4</ele>
        <time>2020-02-21T12:50:33Z</time>
      </trkpt>
      <trkpt lat="38.8630320" lon="1.2534560">
        <ele>14.4</ele>
        <time>2020-02-21T12:50:34Z</time>
      </trkpt>
      <trkpt lat="38.8630240" lon="1.2534370">
        <ele>14.1</ele>
        <time>2020-02-21T12:50:35Z</time>
      </trkpt>
      <trkpt lat="38.8630220" lon="1.2534270">
        <ele>14.0</ele>
        <time>2020-02-21T12:50:36Z</time>
      </trkpt>
      <trkpt lat="38.8630140" lon="1.2534100">
        <ele>13.8</ele>
        <time>2020-02-21T12:50:37Z</time>
      </trkpt>
      <trkpt lat="38.8630100" lon="1.2534050">
        <ele>13.7</ele>
        <time>2020-02-21T12:50:38Z</time>
      </trkpt>
      <trkpt lat="38.8630050" lon="1.2533990">
        <ele>13.6</ele>
        <time>2020-02-21T12:50:39Z</time>
      </trkpt>
      <trkpt lat="38.8630040" lon="1.2533980">
        <ele>13.5</ele>
        <time>2020-02-21T12:50:40Z</time>
      </trkpt>
      <trkpt lat="38.8630040" lon="1.2533980">
        <ele>13.5</ele>
        <time>2020-02-21T12:50:41Z</time>
      </trkpt>
      <trkpt lat="38.8630040" lon="1.2533980">
        <ele>13.5</ele>
        <time>2020-02-21T12:50:42Z</time>
      </trkpt>
      <trkpt lat="38.8630020" lon="1.2533970">
        <ele>13.4</ele>
        <time>2020-02-21T12:50:43Z</time>
      </trkpt>
      <trkpt lat="38.8630030" lon="1.2533900">
        <ele>13.3</ele>
        <time>2020-02-21T12:50:44Z</time>
      </trkpt>
      <trkpt lat="38.8630060" lon="1.2533700">
        <ele>13.1</ele>
        <time>2020-02-21T12:50:45Z</time>
      </trkpt>
      <trkpt lat="38.8630100" lon="1.2533690">
        <ele>13.0</ele>
        <time>2020-02-21T12:50:46Z</time>
      </trkpt>
      <trkpt lat="38.8630100" lon="1.2533610">
        <ele>12.8</ele>
        <time>2020-02-21T12:50:47Z</time>
      </trkpt>
      <trkpt lat="38.8630120" lon="1.2533530">
        <ele>12.7</ele>
        <time>2020-02-21T12:50:48Z</time>
      </trkpt>
      <trkpt lat="38.8630120" lon="1.2533400">
        <ele>12.5</ele>
        <time>2020-02-21T12:50:49Z</time>
      </trkpt>
      <trkpt lat="38.8630110" lon="1.2533450">
        <ele>12.4</ele>
        <time>2020-02-21T12:50:50Z</time>
      </trkpt>
      <trkpt lat="38.8630110" lon="1.2533440">
        <ele>12.4</ele>
        <time>2020-02-21T12:50:51Z</time>
      </trkpt>
      <trkpt lat="38.8630110" lon="1.2533440">
        <ele>12.4</ele>
        <time>2020-02-21T12:50:52Z</time>
      </trkpt>
      <trkpt lat="38.8630110" lon="1.2533440">
        <ele>12.3</ele>
        <time>2020-02-21T12:50:53Z</time>
      </trkpt>
      <trkpt lat="38.8630110" lon="1.2533440">
        <ele>12.3</ele>
        <time>2020-02-21T12:50:54Z</time>
      </trkpt>
      <trkpt lat="38.8630090" lon="1.2533480">
        <ele>12.2</ele>
        <time>2020-02-21T12:50:55Z</time>
      </trkpt>
      <trkpt lat="38.8630070" lon="1.2533400">
        <ele>12.0</ele>
        <time>2020-02-21T12:50:56Z</time>
      </trkpt>
      <trkpt lat="38.8630140" lon="1.2533360">
        <ele>11.8</ele>
        <time>2020-02-21T12:50:57Z</time>
      </trkpt>
      <trkpt lat="38.8630260" lon="1.2533280">
        <ele>11.6</ele>
        <time>2020-02-21T12:50:58Z</time>
      </trkpt>
      <trkpt lat="38.8630350" lon="1.2533190">
        <ele>11.4</ele>
        <time>2020-02-21T12:50:59Z</time>
      </trkpt>
      <trkpt lat="38.8630360" lon="1.2533220">
        <ele>11.3</ele>
        <time>2020-02-21T12:51:00Z</time>
      </trkpt>
      <trkpt lat="38.8630350" lon="1.2533060">
        <ele>11.0</ele>
        <time>2020-02-21T12:51:01Z</time>
      </trkpt>
      <trkpt lat="38.8630440" lon="1.2533010">
        <ele>10.9</ele>
        <time>2020-02-21T12:51:02Z</time>
      </trkpt>
      <trkpt lat="38.8630480" lon="1.2532910">
        <ele>10.7</ele>
        <time>2020-02-21T12:51:03Z</time>
      </trkpt>
      <trkpt lat="38.8630480" lon="1.2532920">
        <ele>10.7</ele>
        <time>2020-02-21T12:51:04Z</time>
      </trkpt>
      <trkpt lat="38.8630510" lon="1.2532800">
        <ele>10.5</ele>
        <time>2020-02-21T12:51:05Z</time>
      </trkpt>
      <trkpt lat="38.8630510" lon="1.2532610">
        <ele>10.3</ele>
        <time>2020-02-21T12:51:06Z</time>
      </trkpt>
      <trkpt lat="38.8630510" lon="1.2532510">
        <ele>10.1</ele>
        <time>2020-02-21T12:51:07Z</time>
      </trkpt>
      <trkpt lat="38.8630510" lon="1.2532470">
        <ele>10.1</ele>
        <time>2020-02-21T12:51:08Z</time>
      </trkpt>
      <trkpt lat="38.8630480" lon="1.2532430">
        <ele>10.0</ele>
        <time>2020-02-21T12:51:09Z</time>
      </trkpt>
      <trkpt lat="38.8630470" lon="1.2532500">
        <ele>9.9</ele>
        <time>2020-02-21T12:51:10Z</time>
      </trkpt>
      <trkpt lat="38.8630470" lon="1.2532500">
        <ele>9.9</ele>
        <time>2020-02-21T12:51:11Z</time>
      </trkpt>
      <trkpt lat="38.8630450" lon="1.2532480">
        <ele>9.8</ele>
        <time>2020-02-21T12:51:12Z</time>
      </trkpt>
      <trkpt lat="38.8630370" lon="1.2532370">
        <ele>9.6</ele>
        <time>2020-02-21T12:51:13Z</time>
      </trkpt>
      <trkpt lat="38.8630300" lon="1.2532330">
        <ele>9.5</ele>
        <time>2020-02-21T12:51:14Z</time>
      </trkpt>
      <trkpt lat="38.8630250" lon="1.2532100">
        <ele>9.3</ele>
        <time>2020-02-21T12:51:15Z</time>
      </trkpt>
      <trkpt lat="38.8630240" lon="1.2532020">
        <ele>9.1</ele>
        <time>2020-02-21T12:51:16Z</time>
      </trkpt>
      <trkpt lat="38.8630230" lon="1.2531930">
        <ele>9.0</ele>
        <time>2020-02-21T12:51:17Z</time>
      </trkpt>
      <trkpt lat="38.8630220" lon="1.2531850">
        <ele>8.9</ele>
        <time>2020-02-21T12:51:18Z</time>
      </trkpt>
      <trkpt lat="38.8630230" lon="1.2531810">
        <ele>8.9</ele>
        <time>2020-02-21T12:51:19Z</time>
      </trkpt>
      <trkpt lat="38.8630310" lon="1.2531820">
        <ele>8.7</ele>
        <time>2020-02-21T12:51:20Z</time>
      </trkpt>
      <trkpt lat="38.8630340" lon="1.2531760">
        <ele>8.6</ele>
        <time>2020-02-21T12:51:21Z</time>
      </trkpt>
      <trkpt lat="38.8630330" lon="1.2531750">
        <ele>8.6</ele>
        <time>2020-02-21T12:51:22Z</time>
      </trkpt>
      <trkpt lat="38.8630320" lon="1.2531740">
        <ele>8.6</ele>
        <time>2020-02-21T12:51:23Z</time>
      </trkpt>
      <trkpt lat="38.8630340" lon="1.2531700">
        <ele>8.5</ele>
        <time>2020-02-21T12:51:24Z</time>
      </trkpt>
      <trkpt lat="38.8630440" lon="1.2531710">
        <ele>8.5</ele>
        <time>2020-02-21T12:51:25Z</time>
      </trkpt>
      <trkpt lat="38.8630460" lon="1.2531620">
        <ele>8.4</ele>
        <time>2020-02-21T12:51:26Z</time>
      </trkpt>
      <trkpt lat="38.8630410" lon="1.2531610">
        <ele>8.4</ele>
        <time>2020-02-21T12:51:27Z</time>
      </trkpt>
      <trkpt lat="38.8630380" lon="1.2531530">
        <ele>8.3</ele>
        <time>2020-02-21T12:51:28Z</time>
      </trkpt>
      <trkpt lat="38.8630350" lon="1.2531360">
        <ele>8.2</ele>
        <time>2020-02-21T12:51:29Z</time>
      </trkpt>
      <trkpt lat="38.8630390" lon="1.2531290">
        <ele>8.2</ele>
        <time>2020-02-21T12:51:30Z</time>
      </trkpt>
      <trkpt lat="38.8630450" lon="1.2531330">
        <ele>8.2</ele>
        <time>2020-02-21T12:51:31Z</time>
      </trkpt>
      <trkpt lat="38.8630490" lon="1.2531380">
        <ele>8.1</ele>
        <time>2020-02-21T12:51:32Z</time>
      </trkpt>
      <trkpt lat="38.8630490" lon="1.2531230">
        <ele>8.0</ele>
        <time>2020-02-21T12:51:33Z</time>
      </trkpt>
      <trkpt lat="38.8630380" lon="1.2531050">
        <ele>8.0</ele>
        <time>2020-02-21T12:51:34Z</time>
      </trkpt>
      <trkpt lat="38.8630320" lon="1.2530930">
        <ele>7.9</ele>
        <time>2020-02-21T12:51:35Z</time>
      </trkpt>
      <trkpt lat="38.8630250" lon="1.2530820">
        <ele>7.9</ele>
        <time>2020-02-21T12:51:36Z</time>
      </trkpt>
      <trkpt lat="38.8630210" lon="1.2530650">
        <ele>8.0</ele>
        <time>2020-02-21T12:51:37Z</time>
      </trkpt>
      <trkpt lat="38.8630190" lon="1.2530570">
        <ele>8.0</ele>
        <time>2020-02-21T12:51:38Z</time>
      </trkpt>
      <trkpt lat="38.8630110" lon="1.2530440">
        <ele>8.0</ele>
        <time>2020-02-21T12:51:39Z</time>
      </trkpt>
      <trkpt lat="38.8630070" lon="1.2530350">
        <ele>8.0</ele>
        <time>2020-02-21T12:51:40Z</time>
      </trkpt>
      <trkpt lat="38.8630060" lon="1.2530310">
        <ele>8.0</ele>
        <time>2020-02-21T12:51:41Z</time>
      </trkpt>
      <trkpt lat="38.8630040" lon="1.2530280">
        <ele>8.1</ele>
        <time>2020-02-21T12:51:42Z</time>
      </trkpt>
      <trkpt lat="38.8630030" lon="1.2530240">
        <ele>8.1</ele>
        <time>2020-02-21T12:51:43Z</time>
      </trkpt>
      <trkpt lat="38.8630020" lon="1.2530210">
        <ele>8.1</ele>
        <time>2020-02-21T12:51:44Z</time>
      </trkpt>
      <trkpt lat="38.8630010" lon="1.2530170">
        <ele>8.1</ele>
        <time>2020-02-21T12:51:45Z</time>
      </trkpt>
      <trkpt lat="38.8630000" lon="1.2530140">
        <ele>8.1</ele>
        <time>2020-02-21T12:51:46Z</time>
      </trkpt>
      <trkpt lat="38.8629990" lon="1.2530100">
        <ele>8.1</ele>
        <time>2020-02-21T12:51:47Z</time>
      </trkpt>
      <trkpt lat="38.8629970" lon="1.2530070">
        <ele>8.1</ele>
        <time>2020-02-21T12:51:48Z</time>
      </trkpt>
      <trkpt lat="38.8629960" lon="1.2530030">
        <ele>8.2</ele>
        <time>2020-02-21T12:51:49Z</time>
      </trkpt>
      <trkpt lat="38.8629950" lon="1.2530000">
        <ele>8.2</ele>
        <time>2020-02-21T12:51:50Z</time>
      </trkpt>
      <trkpt lat="38.8629970" lon="1.2529910">
        <ele>8.2</ele>
        <time>2020-02-21T12:51:51Z</time>
      </trkpt>
      <trkpt lat="38.8630000" lon="1.2529890">
        <ele>8.2</ele>
        <time>2020-02-21T12:51:52Z</time>
      </trkpt>
      <trkpt lat="38.8629920" lon="1.2529860">
        <ele>8.3</ele>
        <time>2020-02-21T12:51:53Z</time>
      </trkpt>
      <trkpt lat="38.8629930" lon="1.2529810">
        <ele>8.3</ele>
        <time>2020-02-21T12:51:54Z</time>
      </trkpt>
      <trkpt lat="38.8629910" lon="1.2529700">
        <ele>8.3</ele>
        <time>2020-02-21T12:51:55Z</time>
      </trkpt>
      <trkpt lat="38.8629950" lon="1.2529570">
        <ele>8.4</ele>
        <time>2020-02-21T12:51:56Z</time>
      </trkpt>
      <trkpt lat="38.8630000" lon="1.2529380">
        <ele>8.5</ele>
        <time>2020-02-21T12:51:57Z</time>
      </trkpt>
      <trkpt lat="38.8630020" lon="1.2529240">
        <ele>8.6</ele>
        <time>2020-02-21T12:51:58Z</time>
      </trkpt>
      <trkpt lat="38.8629980" lon="1.2529150">
        <ele>8.7</ele>
        <time>2020-02-21T12:51:59Z</time>
      </trkpt>
      <trkpt lat="38.8630020" lon="1.2529060">
        <ele>8.8</ele>
        <time>2020-02-21T12:52:00Z</time>
      </trkpt>
      <trkpt lat="38.8630040" lon="1.2529040">
        <ele>8.9</ele>
        <time>2020-02-21T12:52:01Z</time>
      </trkpt>
      <trkpt lat="38.8630000" lon="1.2528960">
        <ele>9.0</ele>
        <time>2020-02-21T12:52:02Z</time>
      </trkpt>
      <trkpt lat="38.8630070" lon="1.2528900">
        <ele>9.1</ele>
        <time>2020-02-21T12:52:03Z</time>
      </trkpt>
      <trkpt lat="38.8630070" lon="1.2528840">
        <ele>9.1</ele>
        <time>2020-02-21T12:52:04Z</time>
      </trkpt>
      <trkpt lat="38.8630050" lon="1.2528810">
        <ele>9.2</ele>
        <time>2020-02-21T12:52:05Z</time>
      </trkpt>
      <trkpt lat="38.8630030" lon="1.2528940">
        <ele>9.3</ele>
        <time>2020-02-21T12:52:06Z</time>
      </trkpt>
      <trkpt lat="38.8629930" lon="1.2528900">
        <ele>9.5</ele>
        <time>2020-02-21T12:52:07Z</time>
      </trkpt>
      <trkpt lat="38.8629920" lon="1.2528900">
        <ele>9.5</ele>
        <time>2020-02-21T12:52:08Z</time>
      </trkpt>
      <trkpt lat="38.8629830" lon="1.2528890">
        <ele>9.6</ele>
        <time>2020-02-21T12:52:09Z</time>
      </trkpt>
      <trkpt lat="38.8629720" lon="1.2528890">
        <ele>9.8</ele>
        <time>2020-02-21T12:52:10Z</time>
      </trkpt>
      <trkpt lat="38.8629620" lon="1.2528830">
        <ele>9.9</ele>
        <time>2020-02-21T12:52:11Z</time>
      </trkpt>
      <trkpt lat="38.8629460" lon="1.2528770">
        <ele>10.2</ele>
        <time>2020-02-21T12:52:12Z</time>
      </trkpt>
      <trkpt lat="38.8629400" lon="1.2528740">
        <ele>10.3</ele>
        <time>2020-02-21T12:52:13Z</time>
      </trkpt>
      <trkpt lat="38.8629350" lon="1.2528700">
        <ele>10.4</ele>
        <time>2020-02-21T12:52:14Z</time>
      </trkpt>
      <trkpt lat="38.8629170" lon="1.2528670">
        <ele>10.6</ele>
        <time>2020-02-21T12:52:15Z</time>
      </trkpt>
      <trkpt lat="38.8629130" lon="1.2528660">
        <ele>10.7</ele>
        <time>2020-02-21T12:52:16Z</time>
      </trkpt>
      <trkpt lat="38.8629110" lon="1.2528710">
        <ele>10.7</ele>
        <time>2020-02-21T12:52:17Z</time>
      </trkpt>
      <trkpt lat="38.8629060" lon="1.2528630">
        <ele>10.9</ele>
        <time>2020-02-21T12:52:18Z</time>
      </trkpt>
      <trkpt lat="38.8628960" lon="1.2528460">
        <ele>11.1</ele>
        <time>2020-02-21T12:52:19Z</time>
      </trkpt>
      <trkpt lat="38.8628900" lon="1.2528380">
        <ele>11.2</ele>
        <time>2020-02-21T12:52:20Z</time>
      </trkpt>
      <trkpt lat="38.8628820" lon="1.2528240">
        <ele>11.4</ele>
        <time>2020-02-21T12:52:21Z</time>
      </trkpt>
      <trkpt lat="38.8628680" lon="1.2528150">
        <ele>11.8</ele>
        <time>2020-02-21T12:52:22Z</time>
      </trkpt>
      <trkpt lat="38.8628480" lon="1.2527920">
        <ele>12.3</ele>
        <time>2020-02-21T12:52:23Z</time>
      </trkpt>
      <trkpt lat="38.8628410" lon="1.2527810">
        <ele>12.5</ele>
        <time>2020-02-21T12:52:24Z</time>
      </trkpt>
      <trkpt lat="38.8628230" lon="1.2527530">
        <ele>13.0</ele>
        <time>2020-02-21T12:52:25Z</time>
      </trkpt>
      <trkpt lat="38.8628150" lon="1.2527470">
        <ele>13.1</ele>
        <time>2020-02-21T12:52:26Z</time>
      </trkpt>
      <trkpt lat="38.8628020" lon="1.2527520">
        <ele>13.3</ele>
        <time>2020-02-21T12:52:27Z</time>
      </trkpt>
      <trkpt lat="38.8628040" lon="1.2527480">
        <ele>13.4</ele>
        <time>2020-02-21T12:52:28Z</time>
      </trkpt>
      <trkpt lat="38.8628040" lon="1.2527450">
        <ele>13.4</ele>
        <time>2020-02-21T12:52:29Z</time>
      </trkpt>
      <trkpt lat="38.8628050" lon="1.2527420">
        <ele>13.5</ele>
        <time>2020-02-21T12:52:30Z</time>
      </trkpt>
      <trkpt lat="38.8628140" lon="1.2527280">
        <ele>13.7</ele>
        <time>2020-02-21T12:52:31Z</time>
      </trkpt>
      <trkpt lat="38.8628220" lon="1.2527250">
        <ele>13.8</ele>
        <time>2020-02-21T12:52:32Z</time>
      </trkpt>
      <trkpt lat="38.8628310" lon="1.2527190">
        <ele>14.0</ele>
        <time>2020-02-21T12:52:33Z</time>
      </trkpt>
      <trkpt lat="38.8628350" lon="1.2527090">
        <ele>14.1</ele>
        <time>2020-02-21T12:52:34Z</time>
      </trkpt>
      <trkpt lat="38.8628440" lon="1.2527020">
        <ele>14.3</ele>
        <time>2020-02-21T12:52:35Z</time>
      </trkpt>
      <trkpt lat="38.8628660" lon="1.2527110">
        <ele>14.5</ele>
        <time>2020-02-21T12:52:36Z</time>
      </trkpt>
      <trkpt lat="38.8628730" lon="1.2527070">
        <ele>14.6</ele>
        <time>2020-02-21T12:52:37Z</time>
      </trkpt>
      <trkpt lat="38.8628740" lon="1.2527040">
        <ele>14.6</ele>
        <time>2020-02-21T12:52:38Z</time>
      </trkpt>
      <trkpt lat="38.8628730" lon="1.2527050">
        <ele>14.7</ele>
        <time>2020-02-21T12:52:39Z</time>
      </trkpt>
      <trkpt lat="38.8628730" lon="1.2527030">
        <ele>14.7</ele>
        <time>2020-02-21T12:52:40Z</time>
      </trkpt>
      <trkpt lat="38.8628710" lon="1.2527030">
        <ele>14.7</ele>
        <time>2020-02-21T12:52:41Z</time>
      </trkpt>
      <trkpt lat="38.8628740" lon="1.2527050">
        <ele>14.7</ele>
        <time>2020-02-21T12:52:42Z</time>
      </trkpt>
      <trkpt lat="38.8628730" lon="1.2527050">
        <ele>14.7</ele>
        <time>2020-02-21T12:52:43Z</time>
      </trkpt>
      <trkpt lat="38.8628750" lon="1.2527000">
        <ele>14.8</ele>
        <time>2020-02-21T12:52:44Z</time>
      </trkpt>
      <trkpt lat="38.8628740" lon="1.2526970">
        <ele>14.8</ele>
        <time>2020-02-21T12:52:45Z</time>
      </trkpt>
      <trkpt lat="38.8628740" lon="1.2526970">
        <ele>14.8</ele>
        <time>2020-02-21T12:52:46Z</time>
      </trkpt>
      <trkpt lat="38.8628740" lon="1.2526960">
        <ele>14.8</ele>
        <time>2020-02-21T12:52:47Z</time>
      </trkpt>
      <trkpt lat="38.8628630" lon="1.2525970">
        <ele>15.5</ele>
        <time>2020-02-21T12:53:06Z</time>
      </trkpt>
      <trkpt lat="38.8628520" lon="1.2525910">
        <ele>15.6</ele>
        <time>2020-02-21T12:53:07Z</time>
      </trkpt>
      <trkpt lat="38.8628530" lon="1.2525910">
        <ele>15.6</ele>
        <time>2020-02-21T12:53:08Z</time>
      </trkpt>
      <trkpt lat="38.8628530" lon="1.2525910">
        <ele>15.6</ele>
        <time>2020-02-21T12:53:09Z</time>
      </trkpt>
      <trkpt lat="38.8628520" lon="1.2525910">
        <ele>15.7</ele>
        <time>2020-02-21T12:53:10Z</time>
      </trkpt>
      <trkpt lat="38.8628520" lon="1.2525890">
        <ele>15.7</ele>
        <time>2020-02-21T12:53:11Z</time>
      </trkpt>
      <trkpt lat="38.8628530" lon="1.2525820">
        <ele>15.7</ele>
        <time>2020-02-21T12:53:12Z</time>
      </trkpt>
      <trkpt lat="38.8628560" lon="1.2525830">
        <ele>15.8</ele>
        <time>2020-02-21T12:53:13Z</time>
      </trkpt>
      <trkpt lat="38.8628530" lon="1.2525760">
        <ele>15.8</ele>
        <time>2020-02-21T12:53:14Z</time>
      </trkpt>
      <trkpt lat="38.8628480" lon="1.2525750">
        <ele>15.9</ele>
        <time>2020-02-21T12:53:15Z</time>
      </trkpt>
      <trkpt lat="38.8628470" lon="1.2525690">
        <ele>15.9</ele>
        <time>2020-02-21T12:53:16Z</time>
      </trkpt>
      <trkpt lat="38.8628430" lon="1.2525690">
        <ele>15.9</ele>
        <time>2020-02-21T12:53:17Z</time>
      </trkpt>
      <trkpt lat="38.8628410" lon="1.2525670">
        <ele>16.0</ele>
        <time>2020-02-21T12:53:18Z</time>
      </trkpt>
      <trkpt lat="38.8628390" lon="1.2525560">
        <ele>16.0</ele>
        <time>2020-02-21T12:53:19Z</time>
      </trkpt>
      <trkpt lat="38.8628440" lon="1.2525490">
        <ele>16.1</ele>
        <time>2020-02-21T12:53:20Z</time>
      </trkpt>
      <trkpt lat="38.8628430" lon="1.2525340">
        <ele>16.2</ele>
        <time>2020-02-21T12:53:21Z</time>
      </trkpt>
      <trkpt lat="38.8628430" lon="1.2525120">
        <ele>16.4</ele>
        <time>2020-02-21T12:53:22Z</time>
      </trkpt>
      <trkpt lat="38.8628330" lon="1.2524980">
        <ele>16.5</ele>
        <time>2020-02-21T12:53:23Z</time>
      </trkpt>
      <trkpt lat="38.8628300" lon="1.2524840">
        <ele>16.6</ele>
        <time>2020-02-21T12:53:24Z</time>
      </trkpt>
      <trkpt lat="38.8628210" lon="1.2524750">
        <ele>16.7</ele>
        <time>2020-02-21T12:53:25Z</time>
      </trkpt>
      <trkpt lat="38.8628110" lon="1.2524640">
        <ele>16.9</ele>
        <time>2020-02-21T12:53:26Z</time>
      </trkpt>
      <trkpt lat="38.8628050" lon="1.2524630">
        <ele>17.0</ele>
        <time>2020-02-21T12:53:27Z</time>
      </trkpt>
      <trkpt lat="38.8627980" lon="1.2524610">
        <ele>17.1</ele>
        <time>2020-02-21T12:53:28Z</time>
      </trkpt>
      <trkpt lat="38.8627950" lon="1.2524670">
        <ele>17.1</ele>
        <time>2020-02-21T12:53:29Z</time>
      </trkpt>
      <trkpt lat="38.8627920" lon="1.2524610">
        <ele>17.2</ele>
        <time>2020-02-21T12:53:30Z</time>
      </trkpt>
      <trkpt lat="38.8627890" lon="1.2524490">
        <ele>17.3</ele>
        <time>2020-02-21T12:53:31Z</time>
      </trkpt>
      <trkpt lat="38.8627890" lon="1.2524350">
        <ele>17.5</ele>
        <time>2020-02-21T12:53:32Z</time>
      </trkpt>
      <trkpt lat="38.8627880" lon="1.2524290">
        <ele>17.5</ele>
        <time>2020-02-21T12:53:33Z</time>
      </trkpt>
      <trkpt lat="38.8627830" lon="1.2524270">
        <ele>17.6</ele>
        <time>2020-02-21T12:53:34Z</time>
      </trkpt>
      <trkpt lat="38.8627780" lon="1.2524220">
        <ele>17.7</ele>
        <time>2020-02-21T12:53:35Z</time>
      </trkpt>
      <trkpt lat="38.8627690" lon="1.2524230">
        <ele>17.8</ele>
        <time>2020-02-21T12:53:36Z</time>
      </trkpt>
      <trkpt lat="38.8627600" lon="1.2524070">
        <ele>18.0</ele>
        <time>2020-02-21T12:53:37Z</time>
      </trkpt>
      <trkpt lat="38.8627540" lon="1.2524040">
        <ele>18.1</ele>
        <time>2020-02-21T12:53:38Z</time>
      </trkpt>
      <trkpt lat="38.8627500" lon="1.2523830">
        <ele>18.3</ele>
        <time>2020-02-21T12:53:39Z</time>
      </trkpt>
      <trkpt lat="38.8627380" lon="1.2523760">
        <ele>18.4</ele>
        <time>2020-02-21T12:53:40Z</time>
      </trkpt>
      <trkpt lat="38.8627290" lon="1.2523700">
        <ele>18.6</ele>
        <time>2020-02-21T12:53:41Z</time>
      </trkpt>
      <trkpt lat="38.8627250" lon="1.2523540">
        <ele>18.8</ele>
        <time>2020-02-21T12:53:42Z</time>
      </trkpt>
      <trkpt lat="38.8627180" lon="1.2523420">
        <ele>19.0</ele>
        <time>2020-02-21T12:53:43Z</time>
      </trkpt>
      <trkpt lat="38.8627120" lon="1.2523470">
        <ele>19.1</ele>
        <time>2020-02-21T12:53:44Z</time>
      </trkpt>
      <trkpt lat="38.8627070" lon="1.2523380">
        <ele>19.2</ele>
        <time>2020-02-21T12:53:45Z</time>
      </trkpt>
      <trkpt lat="38.8627010" lon="1.2523300">
        <ele>19.3</ele>
        <time>2020-02-21T12:53:46Z</time>
      </trkpt>
      <trkpt lat="38.8626950" lon="1.2523140">
        <ele>19.6</ele>
        <time>2020-02-21T12:53:47Z</time>
      </trkpt>
      <trkpt lat="38.8626950" lon="1.2523060">
        <ele>19.7</ele>
        <time>2020-02-21T12:53:48Z</time>
      </trkpt>
      <trkpt lat="38.8626960" lon="1.2523050">
        <ele>19.7</ele>
        <time>2020-02-21T12:53:49Z</time>
      </trkpt>
      <trkpt lat="38.8626870" lon="1.2523000">
        <ele>19.8</ele>
        <time>2020-02-21T12:53:50Z</time>
      </trkpt>
      <trkpt lat="38.8626890" lon="1.2523080">
        <ele>19.9</ele>
        <time>2020-02-21T12:53:51Z</time>
      </trkpt>
      <trkpt lat="38.8626920" lon="1.2523020">
        <ele>20.0</ele>
        <time>2020-02-21T12:53:52Z</time>
      </trkpt>
      <trkpt lat="38.8626890" lon="1.2523040">
        <ele>20.1</ele>
        <time>2020-02-21T12:53:53Z</time>
      </trkpt>
      <trkpt lat="38.8626900" lon="1.2523000">
        <ele>20.1</ele>
        <time>2020-02-21T12:53:54Z</time>
      </trkpt>
      <trkpt lat="38.8626880" lon="1.2522980">
        <ele>20.2</ele>
        <time>2020-02-21T12:53:55Z</time>
      </trkpt>
      <trkpt lat="38.8626930" lon="1.2523000">
        <ele>20.2</ele>
        <time>2020-02-21T12:53:56Z</time>
      </trkpt>
      <trkpt lat="38.8626970" lon="1.2523070">
        <ele>20.4</ele>
        <time>2020-02-21T12:53:57Z</time>
      </trkpt>
      <trkpt lat="38.8627020" lon="1.2523080">
        <ele>20.4</ele>
        <time>2020-02-21T12:53:58Z</time>
      </trkpt>
      <trkpt lat="38.8627040" lon="1.2523060">
        <ele>20.5</ele>
        <time>2020-02-21T12:53:59Z</time>
      </trkpt>
      <trkpt lat="38.8627060" lon="1.2522980">
        <ele>20.6</ele>
        <time>2020-02-21T12:54:00Z</time>
      </trkpt>
      <trkpt lat="38.8627050" lon="1.2522940">
        <ele>20.7</ele>
        <time>2020-02-21T12:54:01Z</time>
      </trkpt>
      <trkpt lat="38.8627030" lon="1.2522910">
        <ele>20.7</ele>
        <time>2020-02-21T12:54:02Z</time>
      </trkpt>
      <trkpt lat="38.8626980" lon="1.2522790">
        <ele>20.9</ele>
        <time>2020-02-21T12:54:03Z</time>
      </trkpt>
      <trkpt lat="38.8626950" lon="1.2522690">
        <ele>21.0</ele>
        <time>2020-02-21T12:54:04Z</time>
      </trkpt>
      <trkpt lat="38.8626930" lon="1.2522620">
        <ele>21.1</ele>
        <time>2020-02-21T12:54:05Z</time>
      </trkpt>
      <trkpt lat="38.8626920" lon="1.2522560">
        <ele>21.2</ele>
        <time>2020-02-21T12:54:06Z</time>
      </trkpt>
      <trkpt lat="38.8626870" lon="1.2522510">
        <ele>21.3</ele>
        <time>2020-02-21T12:54:07Z</time>
      </trkpt>
      <trkpt lat="38.8626780" lon="1.2522430">
        <ele>21.5</ele>
        <time>2020-02-21T12:54:08Z</time>
      </trkpt>
      <trkpt lat="38.8626710" lon="1.2522360">
        <ele>21.7</ele>
        <time>2020-02-21T12:54:09Z</time>
      </trkpt>
      <trkpt lat="38.8626690" lon="1.2522250">
        <ele>21.8</ele>
        <time>2020-02-21T12:54:10Z</time>
      </trkpt>
      <trkpt lat="38.8626710" lon="1.2522210">
        <ele>21.9</ele>
        <time>2020-02-21T12:54:11Z</time>
      </trkpt>
      <trkpt lat="38.8626690" lon="1.2522160">
        <ele>22.0</ele>
        <time>2020-02-21T12:54:12Z</time>
      </trkpt>
      <trkpt lat="38.8626730" lon="1.2522080">
        <ele>22.1</ele>
        <time>2020-02-21T12:54:13Z</time>
      </trkpt>
      <trkpt lat="38.8626740" lon="1.2521950">
        <ele>22.3</ele>
        <time>2020-02-21T12:54:14Z</time>
      </trkpt>
      <trkpt lat="38.8626790" lon="1.2521890">
        <ele>22.4</ele>
        <time>2020-02-21T12:54:15Z</time>
      </trkpt>
      <trkpt lat="38.8626930" lon="1.2521800">
        <ele>22.7</ele>
        <time>2020-02-21T12:54:16Z</time>
      </trkpt>
      <trkpt lat="38.8626960" lon="1.2521800">
        <ele>22.7</ele>
        <time>2020-02-21T12:54:17Z</time>
      </trkpt>
      <trkpt lat="38.8626900" lon="1.2521760">
        <ele>22.8</ele>
        <time>2020-02-21T12:54:18Z</time>
      </trkpt>
      <trkpt lat="38.8626870" lon="1.2521710">
        <ele>22.9</ele>
        <time>2020-02-21T12:54:19Z</time>
      </trkpt>
      <trkpt lat="38.8626910" lon="1.2521620">
        <ele>23.0</ele>
        <time>2020-02-21T12:54:20Z</time>
      </trkpt>
      <trkpt lat="38.8626920" lon="1.2521610">
        <ele>23.1</ele>
        <time>2020-02-21T12:54:21Z</time>
      </trkpt>
      <trkpt lat="38.8626920" lon="1.2521610">
        <ele>23.1</ele>
        <time>2020-02-21T12:54:22Z</time>
      </trkpt>
      <trkpt lat="38.8626930" lon="1.2521600">
        <ele>23.1</ele>
        <time>2020-02-21T12:54:23Z</time>
      </trkpt>
      <trkpt lat="38.8626940" lon="1.2521600">
        <ele>23.1</ele>
        <time>2020-02-21T12:54:24Z</time>
      </trkpt>
      <trkpt lat="38.8626940" lon="1.2521580">
        <ele>23.1</ele>
        <time>2020-02-21T12:54:25Z</time>
      </trkpt>
      <trkpt lat="38.8626990" lon="1.2521630">
        <ele>23.2</ele>
        <time>2020-02-21T12:54:26Z</time>
      </trkpt>
      <trkpt lat="38.8627090" lon="1.2521610">
        <ele>23.4</ele>
        <time>2020-02-21T12:54:27Z</time>
      </trkpt>
      <trkpt lat="38.8627180" lon="1.2521590">
        <ele>23.5</ele>
        <time>2020-02-21T12:54:28Z</time>
      </trkpt>
      <trkpt lat="38.8627260" lon="1.2521550">
        <ele>23.7</ele>
        <time>2020-02-21T12:54:29Z</time>
      </trkpt>
      <trkpt lat="38.8627410" lon="1.2521430">
        <ele>24.0</ele>
        <time>2020-02-21T12:54:30Z</time>
      </trkpt>
      <trkpt lat="38.8627510" lon="1.2521390">
        <ele>24.2</ele>
        <time>2020-02-21T12:54:31Z</time>
      </trkpt>
      <trkpt lat="38.8627530" lon="1.2521340">
        <ele>24.2</ele>
        <time>2020-02-21T12:54:32Z</time>
      </trkpt>
      <trkpt lat="38.8627600" lon="1.2521290">
        <ele>24.4</ele>
        <time>2020-02-21T12:54:33Z</time>
      </trkpt>
      <trkpt lat="38.8627610" lon="1.2521280">
        <ele>24.4</ele>
        <time>2020-02-21T12:54:34Z</time>
      </trkpt>
      <trkpt lat="38.8627600" lon="1.2521230">
        <ele>24.5</ele>
        <time>2020-02-21T12:54:35Z</time>
      </trkpt>
      <trkpt lat="38.8627700" lon="1.2521110">
        <ele>24.7</ele>
        <time>2020-02-21T12:54:36Z</time>
      </trkpt>
      <trkpt lat="38.8627730" lon="1.2521030">
        <ele>24.8</ele>
        <time>2020-02-21T12:54:37Z</time>
      </trkpt>
      <trkpt lat="38.8627770" lon="1.2520950">
        <ele>24.9</ele>
        <time>2020-02-21T12:54:38Z</time>
      </trkpt>
      <trkpt lat="38.8627820" lon="1.2520870">
        <ele>25.1</ele>
        <time>2020-02-21T12:54:39Z</time>
      </trkpt>
      <trkpt lat="38.8627860" lon="1.2520790">
        <ele>25.2</ele>
        <time>2020-02-21T12:54:40Z</time>
      </trkpt>
      <trkpt lat="38.8627910" lon="1.2520710">
        <ele>25.3</ele>
        <time>2020-02-21T12:54:41Z</time>
      </trkpt>
      <trkpt lat="38.8627970" lon="1.2520600">
        <ele>25.5</ele>
        <time>2020-02-21T12:54:42Z</time>
      </trkpt>
      <trkpt lat="38.8628030" lon="1.2520470">
        <ele>25.7</ele>
        <time>2020-02-21T12:54:43Z</time>
      </trkpt>
      <trkpt lat="38.8628090" lon="1.2520360">
        <ele>25.9</ele>
        <time>2020-02-21T12:54:44Z</time>
      </trkpt>
      <trkpt lat="38.8628160" lon="1.2520280">
        <ele>26.1</ele>
        <time>2020-02-21T12:54:45Z</time>
      </trkpt>
      <trkpt lat="38.8628250" lon="1.2520150">
        <ele>26.4</ele>
        <time>2020-02-21T12:54:46Z</time>
      </trkpt>
      <trkpt lat="38.8628350" lon="1.2520070">
        <ele>26.6</ele>
        <time>2020-02-21T12:54:47Z</time>
      </trkpt>
      <trkpt lat="38.8628360" lon="1.2519950">
        <ele>26.8</ele>
        <time>2020-02-21T12:54:48Z</time>
      </trkpt>
      <trkpt lat="38.8628330" lon="1.2519750">
        <ele>27.1</ele>
        <time>2020-02-21T12:54:49Z</time>
      </trkpt>
      <trkpt lat="38.8628290" lon="1.2519670">
        <ele>27.2</ele>
        <time>2020-02-21T12:54:50Z</time>
      </trkpt>
      <trkpt lat="38.8628210" lon="1.2519660">
        <ele>27.3</ele>
        <time>2020-02-21T12:54:51Z</time>
      </trkpt>
      <trkpt lat="38.8628320" lon="1.2519630">
        <ele>27.5</ele>
        <time>2020-02-21T12:54:52Z</time>
      </trkpt>
      <trkpt lat="38.8628210" lon="1.2519720">
        <ele>27.8</ele>
        <time>2020-02-21T12:54:53Z</time>
      </trkpt>
      <trkpt lat="38.8628210" lon="1.2519800">
        <ele>27.9</ele>
        <time>2020-02-21T12:54:54Z</time>
      </trkpt>
      <trkpt lat="38.8628260" lon="1.2519800">
        <ele>28.0</ele>
        <time>2020-02-21T12:54:55Z</time>
      </trkpt>
      <trkpt lat="38.8628220" lon="1.2519800">
        <ele>28.0</ele>
        <time>2020-02-21T12:54:56Z</time>
      </trkpt>
      <trkpt lat="38.8628180" lon="1.2519810">
        <ele>28.1</ele>
        <time>2020-02-21T12:54:57Z</time>
      </trkpt>
      <trkpt lat="38.8628170" lon="1.2519740">
        <ele>28.2</ele>
        <time>2020-02-21T12:54:58Z</time>
      </trkpt>
      <trkpt lat="38.8628140" lon="1.2519720">
        <ele>28.3</ele>
        <time>2020-02-21T12:54:59Z</time>
      </trkpt>
      <trkpt lat="38.8628100" lon="1.2519800">
        <ele>28.4</ele>
        <time>2020-02-21T12:55:00Z</time>
      </trkpt>
      <trkpt lat="38.8628020" lon="1.2519810">
        <ele>28.5</ele>
        <time>2020-02-21T12:55:01Z</time>
      </trkpt>
      <trkpt lat="38.8627960" lon="1.2519880">
        <ele>28.7</ele>
        <time>2020-02-21T12:55:02Z</time>
      </trkpt>
      <trkpt lat="38.8627950" lon="1.2519900">
        <ele>28.7</ele>
        <time>2020-02-21T12:55:03Z</time>
      </trkpt>
      <trkpt lat="38.8627890" lon="1.2519950">
        <ele>28.8</ele>
        <time>2020-02-21T12:55:04Z</time>
      </trkpt>
      <trkpt lat="38.8627730" lon="1.2520000">
        <ele>29.1</ele>
        <time>2020-02-21T12:55:05Z</time>
      </trkpt>
      <trkpt lat="38.8627720" lon="1.2520100">
        <ele>29.3</ele>
        <time>2020-02-21T12:55:06Z</time>
      </trkpt>
      <trkpt lat="38.8627660" lon="1.2520200">
        <ele>29.5</ele>
        <time>2020-02-21T12:55:07Z</time>
      </trkpt>
      <trkpt lat="38.8627560" lon="1.2520330">
        <ele>29.8</ele>
        <time>2020-02-21T12:55:08Z</time>
      </trkpt>
      <trkpt lat="38.8627410" lon="1.2520400">
        <ele>30.1</ele>
        <time>2020-02-21T12:55:09Z</time>
      </trkpt>
      <trkpt lat="38.8627240" lon="1.2520460">
        <ele>30.4</ele>
        <time>2020-02-21T12:55:10Z</time>
      </trkpt>
      <trkpt lat="38.8627140" lon="1.2520580">
        <ele>30.7</ele>
        <time>2020-02-21T12:55:11Z</time>
      </trkpt>
      <trkpt lat="38.8627070" lon="1.2520590">
        <ele>30.8</ele>
        <time>2020-02-21T12:55:12Z</time>
      </trkpt>
      <trkpt lat="38.8627000" lon="1.2520540">
        <ele>30.9</ele>
        <time>2020-02-21T12:55:13Z</time>
      </trkpt>
      <trkpt lat="38.8626940" lon="1.2520450">
        <ele>31.1</ele>
        <time>2020-02-21T12:55:14Z</time>
      </trkpt>
      <trkpt lat="38.8626920" lon="1.2520270">
        <ele>31.4</ele>
        <time>2020-02-21T12:55:15Z</time>
      </trkpt>
      <trkpt lat="38.8626870" lon="1.2520080">
        <ele>31.7</ele>
        <time>2020-02-21T12:55:16Z</time>
      </trkpt>
      <trkpt lat="38.8626830" lon="1.2519920">
        <ele>31.9</ele>
        <time>2020-02-21T12:55:17Z</time>
      </trkpt>
      <trkpt lat="38.8626810" lon="1.2519750">
        <ele>32.1</ele>
        <time>2020-02-21T12:55:18Z</time>
      </trkpt>
      <trkpt lat="38.8626730" lon="1.2519690">
        <ele>32.3</ele>
        <time>2020-02-21T12:55:19Z</time>
      </trkpt>
      <trkpt lat="38.8626630" lon="1.2519610">
        <ele>32.5</ele>
        <time>2020-02-21T12:55:20Z</time>
      </trkpt>
      <trkpt lat="38.8626560" lon="1.2519400">
        <ele>32.8</ele>
        <time>2020-02-21T12:55:21Z</time>
      </trkpt>
      <trkpt lat="38.8626540" lon="1.2519340">
        <ele>32.9</ele>
        <time>2020-02-21T12:55:22Z</time>
      </trkpt>
      <trkpt lat="38.8626500" lon="1.2519260">
        <ele>33.0</ele>
        <time>2020-02-21T12:55:23Z</time>
      </trkpt>
      <trkpt lat="38.8626410" lon="1.2519190">
        <ele>33.1</ele>
        <time>2020-02-21T12:55:24Z</time>
      </trkpt>
      <trkpt lat="38.8626390" lon="1.2519070">
        <ele>33.3</ele>
        <time>2020-02-21T12:55:25Z</time>
      </trkpt>
      <trkpt lat="38.8626360" lon="1.2519010">
        <ele>33.4</ele>
        <time>2020-02-21T12:55:26Z</time>
      </trkpt>
      <trkpt lat="38.8626390" lon="1.2518970">
        <ele>33.4</ele>
        <time>2020-02-21T12:55:27Z</time>
      </trkpt>
      <trkpt lat="38.8626370" lon="1.2518930">
        <ele>33.5</ele>
        <time>2020-02-21T12:55:28Z</time>
      </trkpt>
      <trkpt lat="38.8626390" lon="1.2518930">
        <ele>33.5</ele>
        <time>2020-02-21T12:55:29Z</time>
      </trkpt>
      <trkpt lat="38.8626360" lon="1.2518830">
        <ele>33.6</ele>
        <time>2020-02-21T12:55:30Z</time>
      </trkpt>
      <trkpt lat="38.8626330" lon="1.2518770">
        <ele>33.7</ele>
        <time>2020-02-21T12:55:31Z</time>
      </trkpt>
      <trkpt lat="38.8626390" lon="1.2518670">
        <ele>33.9</ele>
        <time>2020-02-21T12:55:32Z</time>
      </trkpt>
      <trkpt lat="38.8626420" lon="1.2518550">
        <ele>34.0</ele>
        <time>2020-02-21T12:55:33Z</time>
      </trkpt>
      <trkpt lat="38.8626470" lon="1.2518510">
        <ele>34.1</ele>
        <time>2020-02-21T12:55:34Z</time>
      </trkpt>
      <trkpt lat="38.8626470" lon="1.2518430">
        <ele>34.2</ele>
        <time>2020-02-21T12:55:35Z</time>
      </trkpt>
      <trkpt lat="38.8626510" lon="1.2518350">
        <ele>34.3</ele>
        <time>2020-02-21T12:55:36Z</time>
      </trkpt>
      <trkpt lat="38.8626480" lon="1.2518130">
        <ele>34.6</ele>
        <time>2020-02-21T12:55:37Z</time>
      </trkpt>
      <trkpt lat="38.8626500" lon="1.2518200">
        <ele>34.7</ele>
        <time>2020-02-21T12:55:38Z</time>
      </trkpt>
      <trkpt lat="38.8626570" lon="1.2518070">
        <ele>34.8</ele>
        <time>2020-02-21T12:55:39Z</time>
      </trkpt>
      <trkpt lat="38.8626610" lon="1.2518010">
        <ele>34.9</ele>
        <time>2020-02-21T12:55:40Z</time>
      </trkpt>
      <trkpt lat="38.8626530" lon="1.2517830">
        <ele>35.2</ele>
        <time>2020-02-21T12:55:41Z</time>
      </trkpt>
      <trkpt lat="38.8626430" lon="1.2517740">
        <ele>35.3</ele>
        <time>2020-02-21T12:55:42Z</time>
      </trkpt>
      <trkpt lat="38.8626320" lon="1.2517660">
        <ele>35.5</ele>
        <time>2020-02-21T12:55:43Z</time>
      </trkpt>
      <trkpt lat="38.8626270" lon="1.2517620">
        <ele>35.5</ele>
        <time>2020-02-21T12:55:44Z</time>
      </trkpt>
      <trkpt lat="38.8626200" lon="1.2517710">
        <ele>35.6</ele>
        <time>2020-02-21T12:55:45Z</time>
      </trkpt>
      <trkpt lat="38.8626130" lon="1.2517660">
        <ele>35.7</ele>
        <time>2020-02-21T12:55:46Z</time>
      </trkpt>
      <trkpt lat="38.8626020" lon="1.2517590">
        <ele>35.8</ele>
        <time>2020-02-21T12:55:47Z</time>
      </trkpt>
      <trkpt lat="38.8625940" lon="1.2517530">
        <ele>35.9</ele>
        <time>2020-02-21T12:55:48Z</time>
      </trkpt>
      <trkpt lat="38.8625930" lon="1.2517590">
        <ele>35.9</ele>
        <time>2020-02-21T12:55:49Z</time>
      </trkpt>
      <trkpt lat="38.8625890" lon="1.2517580">
        <ele>36.0</ele>
        <time>2020-02-21T12:55:50Z</time>
      </trkpt>
      <trkpt lat="38.8625820" lon="1.2517630">
        <ele>36.0</ele>
        <time>2020-02-21T12:55:51Z</time>
      </trkpt>
      <trkpt lat="38.8625690" lon="1.2517730">
        <ele>36.2</ele>
        <time>2020-02-21T12:55:52Z</time>
      </trkpt>
      <trkpt lat="38.8625560" lon="1.2517690">
        <ele>36.3</ele>
        <time>2020-02-21T12:55:53Z</time>
      </trkpt>
      <trkpt lat="38.8625510" lon="1.2517660">
        <ele>36.4</ele>
        <time>2020-02-21T12:55:54Z</time>
      </trkpt>
      <trkpt lat="38.8625430" lon="1.2517550">
        <ele>36.5</ele>
        <time>2020-02-21T12:55:55Z</time>
      </trkpt>
      <trkpt lat="38.8625390" lon="1.2517480">
        <ele>36.5</ele>
        <time>2020-02-21T12:55:56Z</time>
      </trkpt>
      <trkpt lat="38.8625320" lon="1.2517360">
        <ele>36.6</ele>
        <time>2020-02-21T12:55:57Z</time>
      </trkpt>
      <trkpt lat="38.8625130" lon="1.2517150">
        <ele>36.9</ele>
        <time>2020-02-21T12:55:58Z</time>
      </trkpt>
      <trkpt lat="38.8625060" lon="1.2517070">
        <ele>37.0</ele>
        <time>2020-02-21T12:55:59Z</time>
      </trkpt>
      <trkpt lat="38.8625000" lon="1.2517000">
        <ele>37.0</ele>
        <time>2020-02-21T12:56:00Z</time>
      </trkpt>
      <trkpt lat="38.8624920" lon="1.2517040">
        <ele>37.1</ele>
        <time>2020-02-21T12:56:01Z</time>
      </trkpt>
      <trkpt lat="38.8624870" lon="1.2517070">
        <ele>37.2</ele>
        <time>2020-02-21T12:56:02Z</time>
      </trkpt>
      <trkpt lat="38.8624840" lon="1.2517070">
        <ele>37.2</ele>
        <time>2020-02-21T12:56:03Z</time>
      </trkpt>
      <trkpt lat="38.8624760" lon="1.2517020">
        <ele>37.4</ele>
        <time>2020-02-21T12:56:04Z</time>
      </trkpt>
      <trkpt lat="38.8624680" lon="1.2517050">
        <ele>37.5</ele>
        <time>2020-02-21T12:56:05Z</time>
      </trkpt>
      <trkpt lat="38.8624510" lon="1.2516970">
        <ele>37.7</ele>
        <time>2020-02-21T12:56:06Z</time>
      </trkpt>
      <trkpt lat="38.8624420" lon="1.2516900">
        <ele>37.9</ele>
        <time>2020-02-21T12:56:07Z</time>
      </trkpt>
      <trkpt lat="38.8624330" lon="1.2516840">
        <ele>38.0</ele>
        <time>2020-02-21T12:56:08Z</time>
      </trkpt>
      <trkpt lat="38.8624240" lon="1.2516780">
        <ele>38.2</ele>
        <time>2020-02-21T12:56:09Z</time>
      </trkpt>
      <trkpt lat="38.8624180" lon="1.2516740">
        <ele>38.3</ele>
        <time>2020-02-21T12:56:10Z</time>
      </trkpt>
      <trkpt lat="38.8624110" lon="1.2516700">
        <ele>38.4</ele>
        <time>2020-02-21T12:56:11Z</time>
      </trkpt>
      <trkpt lat="38.8624050" lon="1.2516660">
        <ele>38.5</ele>
        <time>2020-02-21T12:56:12Z</time>
      </trkpt>
      <trkpt lat="38.8623990" lon="1.2516620">
        <ele>38.5</ele>
        <time>2020-02-21T12:56:13Z</time>
      </trkpt>
      <trkpt lat="38.8623900" lon="1.2516720">
        <ele>38.7</ele>
        <time>2020-02-21T12:56:14Z</time>
      </trkpt>
      <trkpt lat="38.8623650" lon="1.2516730">
        <ele>39.1</ele>
        <time>2020-02-21T12:56:15Z</time>
      </trkpt>
      <trkpt lat="38.8623600" lon="1.2516690">
        <ele>39.1</ele>
        <time>2020-02-21T12:56:16Z</time>
      </trkpt>
      <trkpt lat="38.8623590" lon="1.2516680">
        <ele>39.1</ele>
        <time>2020-02-21T12:56:17Z</time>
      </trkpt>
      <trkpt lat="38.8623510" lon="1.2516720">
        <ele>39.3</ele>
        <time>2020-02-21T12:56:18Z</time>
      </trkpt>
      <trkpt lat="38.8623370" lon="1.2516840">
        <ele>39.5</ele>
        <time>2020-02-21T12:56:19Z</time>
      </trkpt>
      <trkpt lat="38.8623230" lon="1.2516820">
        <ele>39.7</ele>
        <time>2020-02-21T12:56:20Z</time>
      </trkpt>
      <trkpt lat="38.8623090" lon="1.2516700">
        <ele>39.9</ele>
        <time>2020-02-21T12:56:21Z</time>
      </trkpt>
      <trkpt lat="38.8622960" lon="1.2516660">
        <ele>40.1</ele>
        <time>2020-02-21T12:56:22Z</time>
      </trkpt>
      <trkpt lat="38.8622900" lon="1.2516620">
        <ele>40.1</ele>
        <time>2020-02-21T12:56:23Z</time>
      </trkpt>
      <trkpt lat="38.8622900" lon="1.2516590">
        <ele>40.2</ele>
        <time>2020-02-21T12:56:24Z</time>
      </trkpt>
      <trkpt lat="38.8622900" lon="1.2516580">
        <ele>40.2</ele>
        <time>2020-02-21T12:56:25Z</time>
      </trkpt>
      <trkpt lat="38.8622870" lon="1.2516510">
        <ele>40.2</ele>
        <time>2020-02-21T12:56:26Z</time>
      </trkpt>
      <trkpt lat="38.8622780" lon="1.2516560">
        <ele>40.3</ele>
        <time>2020-02-21T12:56:27Z</time>
      </trkpt>
      <trkpt lat="38.8622660" lon="1.2516560">
        <ele>40.5</ele>
        <time>2020-02-21T12:56:28Z</time>
      </trkpt>
      <trkpt lat="38.8622580" lon="1.2516480">
        <ele>40.6</ele>
        <time>2020-02-21T12:56:29Z</time>
      </trkpt>
      <trkpt lat="38.8622500" lon="1.2516400">
        <ele>40.7</ele>
        <time>2020-02-21T12:56:30Z</time>
      </trkpt>
      <trkpt lat="38.8622440" lon="1.2516320">
        <ele>40.7</ele>
        <time>2020-02-21T12:56:31Z</time>
      </trkpt>
      <trkpt lat="38.8622410" lon="1.2516320">
        <ele>40.8</ele>
        <time>2020-02-21T12:56:32Z</time>
      </trkpt>
      <trkpt lat="38.8622310" lon="1.2516200">
        <ele>40.9</ele>
        <time>2020-02-21T12:56:33Z</time>
      </trkpt>
      <trkpt lat="38.8622260" lon="1.2516070">
        <ele>41.0</ele>
        <time>2020-02-21T12:56:34Z</time>
      </trkpt>
      <trkpt lat="38.8622240" lon="1.2516010">
        <ele>41.1</ele>
        <time>2020-02-21T12:56:35Z</time>
      </trkpt>
      <trkpt lat="38.8622320" lon="1.2516030">
        <ele>41.2</ele>
        <time>2020-02-21T12:56:36Z</time>
      </trkpt>
      <trkpt lat="38.8622460" lon="1.2516130">
        <ele>41.3</ele>
        <time>2020-02-21T12:56:37Z</time>
      </trkpt>
      <trkpt lat="38.8622440" lon="1.2516090">
        <ele>41.3</ele>
        <time>2020-02-21T12:56:38Z</time>
      </trkpt>
      <trkpt lat="38.8622450" lon="1.2516120">
        <ele>41.4</ele>
        <time>2020-02-21T12:56:39Z</time>
      </trkpt>
      <trkpt lat="38.8622520" lon="1.2516080">
        <ele>41.4</ele>
        <time>2020-02-21T12:56:40Z</time>
      </trkpt>
      <trkpt lat="38.8622620" lon="1.2516070">
        <ele>41.5</ele>
        <time>2020-02-21T12:56:41Z</time>
      </trkpt>
      <trkpt lat="38.8622660" lon="1.2516120">
        <ele>41.6</ele>
        <time>2020-02-21T12:56:42Z</time>
      </trkpt>
      <trkpt lat="38.8622680" lon="1.2516190">
        <ele>41.7</ele>
        <time>2020-02-21T12:56:43Z</time>
      </trkpt>
      <trkpt lat="38.8622730" lon="1.2516200">
        <ele>41.7</ele>
        <time>2020-02-21T12:56:44Z</time>
      </trkpt>
      <trkpt lat="38.8622730" lon="1.2516200">
        <ele>41.7</ele>
        <time>2020-02-21T12:56:45Z</time>
      </trkpt>
      <trkpt lat="38.8622740" lon="1.2516200">
        <ele>41.7</ele>
        <time>2020-02-21T12:56:46Z</time>
      </trkpt>
      <trkpt lat="38.8622750" lon="1.2516200">
        <ele>41.7</ele>
        <time>2020-02-21T12:56:47Z</time>
      </trkpt>
      <trkpt lat="38.8622820" lon="1.2516200">
        <ele>41.8</ele>
        <time>2020-02-21T12:56:48Z</time>
      </trkpt>
      <trkpt lat="38.8622890" lon="1.2516190">
        <ele>41.9</ele>
        <time>2020-02-21T12:56:49Z</time>
      </trkpt>
      <trkpt lat="38.8622940" lon="1.2516220">
        <ele>41.9</ele>
        <time>2020-02-21T12:56:50Z</time>
      </trkpt>
      <trkpt lat="38.8622940" lon="1.2516150">
        <ele>42.0</ele>
        <time>2020-02-21T12:56:51Z</time>
      </trkpt>
      <trkpt lat="38.8622740" lon="1.2515610">
        <ele>42.4</ele>
        <time>2020-02-21T12:57:12Z</time>
      </trkpt>
      <trkpt lat="38.8622730" lon="1.2515680">
        <ele>42.5</ele>
        <time>2020-02-21T12:57:13Z</time>
      </trkpt>
      <trkpt lat="38.8622680" lon="1.2515670">
        <ele>42.5</ele>
        <time>2020-02-21T12:57:14Z</time>
      </trkpt>
      <trkpt lat="38.8622560" lon="1.2515600">
        <ele>42.7</ele>
        <time>2020-02-21T12:57:15Z</time>
      </trkpt>
      <trkpt lat="38.8622450" lon="1.2515590">
        <ele>42.8</ele>
        <time>2020-02-21T12:57:16Z</time>
      </trkpt>
      <trkpt lat="38.8622320" lon="1.2515580">
        <ele>42.9</ele>
        <time>2020-02-21T12:57:17Z</time>
      </trkpt>
      <trkpt lat="38.8622230" lon="1.2515570">
        <ele>43.0</ele>
        <time>2020-02-21T12:57:18Z</time>
      </trkpt>
      <trkpt lat="38.8622150" lon="1.2515590">
        <ele>43.1</ele>
        <time>2020-02-21T12:57:19Z</time>
      </trkpt>
      <trkpt lat="38.8622020" lon="1.2515570">
        <ele>43.2</ele>
        <time>2020-02-21T12:57:20Z</time>
      </trkpt>
      <trkpt lat="38.8621960" lon="1.2515570">
        <ele>43.3</ele>
        <time>2020-02-21T12:57:21Z</time>
      </trkpt>
      <trkpt lat="38.8621900" lon="1.2515580">
        <ele>43.3</ele>
        <time>2020-02-21T12:57:22Z</time>
      </trkpt>
      <trkpt lat="38.8621840" lon="1.2515580">
        <ele>43.4</ele>
        <time>2020-02-21T12:57:23Z</time>
      </trkpt>
      <trkpt lat="38.8621780" lon="1.2515580">
        <ele>43.5</ele>
        <time>2020-02-21T12:57:24Z</time>
      </trkpt>
      <trkpt lat="38.8621550" lon="1.2515530">
        <ele>43.9</ele>
        <time>2020-02-21T12:57:25Z</time>
      </trkpt>
      <trkpt lat="38.8621460" lon="1.2515500">
        <ele>44.0</ele>
        <time>2020-02-21T12:57:26Z</time>
      </trkpt>
      <trkpt lat="38.8621370" lon="1.2515470">
        <ele>44.2</ele>
        <time>2020-02-21T12:57:27Z</time>
      </trkpt>
      <trkpt lat="38.8621250" lon="1.2515450">
        <ele>44.4</ele>
        <time>2020-02-21T12:57:28Z</time>
      </trkpt>
      <trkpt lat="38.8621260" lon="1.2515490">
        <ele>44.4</ele>
        <time>2020-02-21T12:57:29Z</time>
      </trkpt>
      <trkpt lat="38.8621280" lon="1.2515520">
        <ele>44.5</ele>
        <time>2020-02-21T12:57:30Z</time>
      </trkpt>
      <trkpt lat="38.8621200" lon="1.2515560">
        <ele>44.6</ele>
        <time>2020-02-21T12:57:31Z</time>
      </trkpt>
      <trkpt lat="38.8621130" lon="1.2515650">
        <ele>44.8</ele>
        <time>2020-02-21T12:57:32Z</time>
      </trkpt>
      <trkpt lat="38.8621000" lon="1.2515700">
        <ele>45.0</ele>
        <time>2020-02-21T12:57:33Z</time>
      </trkpt>
      <trkpt lat="38.8620800" lon="1.2515680">
        <ele>45.3</ele>
        <time>2020-02-21T12:57:34Z</time>
      </trkpt>
      <trkpt lat="38.8620740" lon="1.2515760">
        <ele>45.5</ele>
        <time>2020-02-21T12:57:35Z</time>
      </trkpt>
      <trkpt lat="38.8620650" lon="1.2515780">
        <ele>45.6</ele>
        <time>2020-02-21T12:57:36Z</time>
      </trkpt>
      <trkpt lat="38.8620470" lon="1.2515740">
        <ele>45.9</ele>
        <time>2020-02-21T12:57:37Z</time>
      </trkpt>
      <trkpt lat="38.8620380" lon="1.2515670">
        <ele>46.1</ele>
        <time>2020-02-21T12:57:38Z</time>
      </trkpt>
      <trkpt lat="38.8620330" lon="1.2515710">
        <ele>46.2</ele>
        <time>2020-02-21T12:57:39Z</time>
      </trkpt>
      <trkpt lat="38.8620240" lon="1.2515780">
        <ele>46.4</ele>
        <time>2020-02-21T12:57:40Z</time>
      </trkpt>
      <trkpt lat="38.8620110" lon="1.2515780">
        <ele>46.6</ele>
        <time>2020-02-21T12:57:41Z</time>
      </trkpt>
      <trkpt lat="38.8620020" lon="1.2515820">
        <ele>46.8</ele>
        <time>2020-02-21T12:57:42Z</time>
      </trkpt>
      <trkpt lat="38.8619840" lon="1.2515880">
        <ele>47.1</ele>
        <time>2020-02-21T12:57:43Z</time>
      </trkpt>
      <trkpt lat="38.8619700" lon="1.2515900">
        <ele>47.2</ele>
        <time>2020-02-21T12:57:44Z</time>
      </trkpt>
      <trkpt lat="38.8619620" lon="1.2515920">
        <ele>47.3</ele>
        <time>2020-02-21T12:57:45Z</time>
      </trkpt>
      <trkpt lat="38.8619550" lon="1.2515920">
        <ele>47.4</ele>
        <time>2020-02-21T12:57:46Z</time>
      </trkpt>
      <trkpt lat="38.8619420" lon="1.2515810">
        <ele>47.6</ele>
        <time>2020-02-21T12:57:47Z</time>
      </trkpt>
      <trkpt lat="38.8619460" lon="1.2515830">
        <ele>47.7</ele>
        <time>2020-02-21T12:57:48Z</time>
      </trkpt>
      <trkpt lat="38.8619540" lon="1.2515910">
        <ele>47.8</ele>
        <time>2020-02-21T12:57:49Z</time>
      </trkpt>
      <trkpt lat="38.8619530" lon="1.2515920">
        <ele>47.8</ele>
        <time>2020-02-21T12:57:50Z</time>
      </trkpt>
      <trkpt lat="38.8619490" lon="1.2515900">
        <ele>47.8</ele>
        <time>2020-02-21T12:57:51Z</time>
      </trkpt>
      <trkpt lat="38.8619450" lon="1.2515960">
        <ele>47.9</ele>
        <time>2020-02-21T12:57:52Z</time>
      </trkpt>
      <trkpt lat="38.8619520" lon="1.2515860">
        <ele>48.0</ele>
        <time>2020-02-21T12:57:53Z</time>
      </trkpt>
      <trkpt lat="38.8619580" lon="1.2515780">
        <ele>48.1</ele>
        <time>2020-02-21T12:57:54Z</time>
      </trkpt>
      <trkpt lat="38.8619600" lon="1.2515700">
        <ele>48.2</ele>
        <time>2020-02-21T12:57:55Z</time>
      </trkpt>
      <trkpt lat="38.8619590" lon="1.2515810">
        <ele>48.3</ele>
        <time>2020-02-21T12:57:56Z</time>
      </trkpt>
      <trkpt lat="38.8619530" lon="1.2515840">
        <ele>48.4</ele>
        <time>2020-02-21T12:57:57Z</time>
      </trkpt>
      <trkpt lat="38.8619640" lon="1.2515740">
        <ele>48.6</ele>
        <time>2020-02-21T12:57:58Z</time>
      </trkpt>
      <trkpt lat="38.8619730" lon="1.2515640">
        <ele>48.7</ele>
        <time>2020-02-21T12:57:59Z</time>
      </trkpt>
      <trkpt lat="38.8619790" lon="1.2515570">
        <ele>48.8</ele>
        <time>2020-02-21T12:58:00Z</time>
      </trkpt>
      <trkpt lat="38.8619810" lon="1.2515560">
        <ele>48.8</ele>
        <time>2020-02-21T12:58:01Z</time>
      </trkpt>
      <trkpt lat="38.8619820" lon="1.2515570">
        <ele>48.8</ele>
        <time>2020-02-21T12:58:02Z</time>
      </trkpt>
      <trkpt lat="38.8619910" lon="1.2515490">
        <ele>49.0</ele>
        <time>2020-02-21T12:58:03Z</time>
      </trkpt>
      <trkpt lat="38.8619960" lon="1.2515530">
        <ele>49.1</ele>
        <time>2020-02-21T12:58:04Z</time>
      </trkpt>
      <trkpt lat="38.8620000" lon="1.2515440">
        <ele>49.2</ele>
        <time>2020-02-21T12:58:05Z</time>
      </trkpt>
      <trkpt lat="38.8620020" lon="1.2515370">
        <ele>49.3</ele>
        <time>2020-02-21T12:58:06Z</time>
      </trkpt>
      <trkpt lat="38.8620030" lon="1.2515350">
        <ele>49.4</ele>
        <time>2020-02-21T12:58:07Z</time>
      </trkpt>
      <trkpt lat="38.8620050" lon="1.2515360">
        <ele>49.4</ele>
        <time>2020-02-21T12:58:08Z</time>
      </trkpt>
      <trkpt lat="38.8620070" lon="1.2515360">
        <ele>49.5</ele>
        <time>2020-02-21T12:58:09Z</time>
      </trkpt>
      <trkpt lat="38.8620070" lon="1.2515360">
        <ele>49.5</ele>
        <time>2020-02-21T12:58:10Z</time>
      </trkpt>
      <trkpt lat="38.8620070" lon="1.2515360">
        <ele>49.5</ele>
        <time>2020-02-21T12:58:11Z</time>
      </trkpt>
      <trkpt lat="38.8620080" lon="1.2515350">
        <ele>49.5</ele>
        <time>2020-02-21T12:58:12Z</time>
      </trkpt>
      <trkpt lat="38.8620080" lon="1.2515350">
        <ele>49.5</ele>
        <time>2020-02-21T12:58:13Z</time>
      </trkpt>
      <trkpt lat="38.8620080" lon="1.2515350">
        <ele>49.5</ele>
        <time>2020-02-21T12:58:14Z</time>
      </trkpt>
      <trkpt lat="38.8620080" lon="1.2515350">
        <ele>49.5</ele>
        <time>2020-02-21T12:58:15Z</time>
      </trkpt>
      <trkpt lat="38.8620090" lon="1.2515350">
        <ele>49.5</ele>
        <time>2020-02-21T12:58:16Z</time>
      </trkpt>
      <trkpt lat="38.8620610" lon="1.2514620">
        <ele>51.2</ele>
        <time>2020-02-21T12:59:17Z</time>
      </trkpt>
      <trkpt lat="38.8620800" lon="1.2514560">
        <ele>51.6</ele>
        <time>2020-02-21T12:59:18Z</time>
      </trkpt>
      <trkpt lat="38.8620790" lon="1.2514370">
        <ele>51.9</ele>
        <time>2020-02-21T12:59:19Z</time>
      </trkpt>
      <trkpt lat="38.8620750" lon="1.2514360">
        <ele>52.0</ele>
        <time>2020-02-21T12:59:20Z</time>
      </trkpt>
      <trkpt lat="38.8620720" lon="1.2514370">
        <ele>52.1</ele>
        <time>2020-02-21T12:59:21Z</time>
      </trkpt>
      <trkpt lat="38.8620760" lon="1.2514310">
        <ele>52.2</ele>
        <time>2020-02-21T12:59:22Z</time>
      </trkpt>
      <trkpt lat="38.8620760" lon="1.2514310">
        <ele>52.2</ele>
        <time>2020-02-21T12:59:23Z</time>
      </trkpt>
      <trkpt lat="38.8620770" lon="1.2514290">
        <ele>52.3</ele>
        <time>2020-02-21T12:59:24Z</time>
      </trkpt>
      <trkpt lat="38.8620750" lon="1.2514260">
        <ele>52.3</ele>
        <time>2020-02-21T12:59:25Z</time>
      </trkpt>
      <trkpt lat="38.8620740" lon="1.2514260">
        <ele>52.4</ele>
        <time>2020-02-21T12:59:26Z</time>
      </trkpt>
      <trkpt lat="38.8620750" lon="1.2514160">
        <ele>52.5</ele>
        <time>2020-02-21T12:59:27Z</time>
      </trkpt>
      <trkpt lat="38.8620800" lon="1.2514050">
        <ele>52.7</ele>
        <time>2020-02-21T12:59:28Z</time>
      </trkpt>
      <trkpt lat="38.8620860" lon="1.2513950">
        <ele>53.0</ele>
        <time>2020-02-21T12:59:29Z</time>
      </trkpt>
      <trkpt lat="38.8620910" lon="1.2513850">
        <ele>53.2</ele>
        <time>2020-02-21T12:59:30Z</time>
      </trkpt>
      <trkpt lat="38.8620970" lon="1.2513750">
        <ele>53.4</ele>
        <time>2020-02-21T12:59:31Z</time>
      </trkpt>
      <trkpt lat="38.8621020" lon="1.2513660">
        <ele>53.6</ele>
        <time>2020-02-21T12:59:32Z</time>
      </trkpt>
      <trkpt lat="38.8621070" lon="1.2513560">
        <ele>53.8</ele>
        <time>2020-02-21T13:00:10Z</time>
      </trkpt>
      <trkpt lat="38.8621130" lon="1.2513460">
        <ele>54.0</ele>
        <time>2020-02-21T13:00:11Z</time>
      </trkpt>
      <trkpt lat="38.8621180" lon="1.2513360">
        <ele>54.2</ele>
        <time>2020-02-21T13:00:12Z</time>
      </trkpt>
      <trkpt lat="38.8621240" lon="1.2513260">
        <ele>54.4</ele>
        <time>2020-02-21T13:00:13Z</time>
      </trkpt>
      <trkpt lat="38.8621290" lon="1.2513160">
        <ele>54.6</ele>
        <time>2020-02-21T13:00:14Z</time>
      </trkpt>
      <trkpt lat="38.8621250" lon="1.2512970">
        <ele>55.0</ele>
        <time>2020-02-21T13:00:15Z</time>
      </trkpt>
      <trkpt lat="38.8621210" lon="1.2512830">
        <ele>55.3</ele>
        <time>2020-02-21T13:00:16Z</time>
      </trkpt>
      <trkpt lat="38.8621260" lon="1.2512770">
        <ele>55.4</ele>
        <time>2020-02-21T13:00:17Z</time>
      </trkpt>
      <trkpt lat="38.8621090" lon="1.2512630">
        <ele>55.9</ele>
        <time>2020-02-21T13:00:18Z</time>
      </trkpt>
      <trkpt lat="38.8620960" lon="1.2512550">
        <ele>56.3</ele>
        <time>2020-02-21T13:00:19Z</time>
      </trkpt>
      <trkpt lat="38.8620850" lon="1.2512430">
        <ele>56.7</ele>
        <time>2020-02-21T13:00:20Z</time>
      </trkpt>
      <trkpt lat="38.8620770" lon="1.2512270">
        <ele>57.0</ele>
        <time>2020-02-21T13:00:21Z</time>
      </trkpt>
      <trkpt lat="38.8620720" lon="1.2512120">
        <ele>57.4</ele>
        <time>2020-02-21T13:00:22Z</time>
      </trkpt>
      <trkpt lat="38.8620680" lon="1.2512020">
        <ele>57.6</ele>
        <time>2020-02-21T13:00:23Z</time>
      </trkpt>
      <trkpt lat="38.8620700" lon="1.2511960">
        <ele>57.7</ele>
        <time>2020-02-21T13:00:24Z</time>
      </trkpt>
      <trkpt lat="38.8620650" lon="1.2512020">
        <ele>57.9</ele>
        <time>2020-02-21T13:00:25Z</time>
      </trkpt>
      <trkpt lat="38.8620640" lon="1.2511920">
        <ele>58.0</ele>
        <time>2020-02-21T13:00:26Z</time>
      </trkpt>
      <trkpt lat="38.8620570" lon="1.2511900">
        <ele>58.2</ele>
        <time>2020-02-21T13:00:27Z</time>
      </trkpt>
      <trkpt lat="38.8620560" lon="1.2511880">
        <ele>58.3</ele>
        <time>2020-02-21T13:00:28Z</time>
      </trkpt>
      <trkpt lat="38.8620570" lon="1.2511870">
        <ele>58.3</ele>
        <time>2020-02-21T13:00:29Z</time>
      </trkpt>
      <trkpt lat="38.8620570" lon="1.2511860">
        <ele>58.3</ele>
        <time>2020-02-21T13:00:30Z</time>
      </trkpt>
      <trkpt lat="38.8620550" lon="1.2511840">
        <ele>58.4</ele>
        <time>2020-02-21T13:00:31Z</time>
      </trkpt>
      <trkpt lat="38.8620550" lon="1.2511860">
        <ele>58.4</ele>
        <time>2020-02-21T13:00:32Z</time>
      </trkpt>
      <trkpt lat="38.8620540" lon="1.2511850">
        <ele>58.4</ele>
        <time>2020-02-21T13:00:33Z</time>
      </trkpt>
      <trkpt lat="38.8620540" lon="1.2511860">
        <ele>58.5</ele>
        <time>2020-02-21T13:00:34Z</time>
      </trkpt>
      <trkpt lat="38.8620550" lon="1.2511860">
        <ele>58.5</ele>
        <time>2020-02-21T13:00:35Z</time>
      </trkpt>
      <trkpt lat="38.8619970" lon="1.2511170">
        <ele>60.5</ele>
        <time>2020-02-21T13:01:22Z</time>
      </trkpt>
      <trkpt lat="38.8620040" lon="1.2511050">
        <ele>60.8</ele>
        <time>2020-02-21T13:01:23Z</time>
      </trkpt>
      <trkpt lat="38.8620000" lon="1.2510890">
        <ele>61.2</ele>
        <time>2020-02-21T13:01:24Z</time>
      </trkpt>
      <trkpt lat="38.8620040" lon="1.2510870">
        <ele>61.3</ele>
        <time>2020-02-21T13:01:25Z</time>
      </trkpt>
      <trkpt lat="38.8620060" lon="1.2510820">
        <ele>61.5</ele>
        <time>2020-02-21T13:01:26Z</time>
      </trkpt>
      <trkpt lat="38.8619990" lon="1.2510910">
        <ele>61.8</ele>
        <time>2020-02-21T13:01:27Z</time>
      </trkpt>
      <trkpt lat="38.8619900" lon="1.2510960">
        <ele>62.0</ele>
        <time>2020-02-21T13:01:28Z</time>
      </trkpt>
      <trkpt lat="38.8619860" lon="1.2510870">
        <ele>62.3</ele>
        <time>2020-02-21T13:01:29Z</time>
      </trkpt>
      <trkpt lat="38.8619800" lon="1.2510660">
        <ele>62.7</ele>
        <time>2020-02-21T13:01:30Z</time>
      </trkpt>
      <trkpt lat="38.8619740" lon="1.2510590">
        <ele>62.9</ele>
        <time>2020-02-21T13:01:31Z</time>
      </trkpt>
      <trkpt lat="38.8619720" lon="1.2510540">
        <ele>63.1</ele>
        <time>2020-02-21T13:01:32Z</time>
      </trkpt>
      <trkpt lat="38.8619790" lon="1.2510560">
        <ele>63.3</ele>
        <time>2020-02-21T13:01:33Z</time>
      </trkpt>
      <trkpt lat="38.8619800" lon="1.2510550">
        <ele>63.3</ele>
        <time>2020-02-21T13:01:34Z</time>
      </trkpt>
      <trkpt lat="38.8619810" lon="1.2510520">
        <ele>63.4</ele>
        <time>2020-02-21T13:01:35Z</time>
      </trkpt>
      <trkpt lat="38.8619820" lon="1.2510270">
        <ele>63.9</ele>
        <time>2020-02-21T13:01:36Z</time>
      </trkpt>
      <trkpt lat="38.8619810" lon="1.2510150">
        <ele>64.1</ele>
        <time>2020-02-21T13:01:37Z</time>
      </trkpt>
      <trkpt lat="38.8619850" lon="1.2510080">
        <ele>64.3</ele>
        <time>2020-02-21T13:01:38Z</time>
      </trkpt>
      <trkpt lat="38.8619900" lon="1.2509990">
        <ele>64.5</ele>
        <time>2020-02-21T13:01:39Z</time>
      </trkpt>
      <trkpt lat="38.8619920" lon="1.2509910">
        <ele>64.7</ele>
        <time>2020-02-21T13:01:40Z</time>
      </trkpt>
      <trkpt lat="38.8619910" lon="1.2509730">
        <ele>65.1</ele>
        <time>2020-02-21T13:01:41Z</time>
      </trkpt>
      <trkpt lat="38.8619920" lon="1.2509540">
        <ele>65.4</ele>
        <time>2020-02-21T13:01:42Z</time>
      </trkpt>
      <trkpt lat="38.8619960" lon="1.2509410">
        <ele>65.7</ele>
        <time>2020-02-21T13:01:43Z</time>
      </trkpt>
      <trkpt lat="38.8619940" lon="1.2509580">
        <ele>66.0</ele>
        <time>2020-02-21T13:01:44Z</time>
      </trkpt>
      <trkpt lat="38.8619940" lon="1.2509550">
        <ele>66.1</ele>
        <time>2020-02-21T13:01:45Z</time>
      </trkpt>
      <trkpt lat="38.8619940" lon="1.2509480">
        <ele>66.2</ele>
        <time>2020-02-21T13:01:46Z</time>
      </trkpt>
      <trkpt lat="38.8619930" lon="1.2509420">
        <ele>66.4</ele>
        <time>2020-02-21T13:01:47Z</time>
      </trkpt>
      <trkpt lat="38.8619910" lon="1.2509240">
        <ele>66.7</ele>
        <time>2020-02-21T13:01:48Z</time>
      </trkpt>
      <trkpt lat="38.8620060" lon="1.2509280">
        <ele>67.1</ele>
        <time>2020-02-21T13:01:49Z</time>
      </trkpt>
      <trkpt lat="38.8620140" lon="1.2509330">
        <ele>67.3</ele>
        <time>2020-02-21T13:01:50Z</time>
      </trkpt>
      <trkpt lat="38.8620210" lon="1.2509360">
        <ele>67.4</ele>
        <time>2020-02-21T13:01:51Z</time>
      </trkpt>
      <trkpt lat="38.8620280" lon="1.2509350">
        <ele>67.6</ele>
        <time>2020-02-21T13:01:52Z</time>
      </trkpt>
      <trkpt lat="38.8620210" lon="1.2509300">
        <ele>67.8</ele>
        <time>2020-02-21T13:01:53Z</time>
      </trkpt>
      <trkpt lat="38.8620280" lon="1.2509350">
        <ele>68.0</ele>
        <time>2020-02-21T13:01:54Z</time>
      </trkpt>
      <trkpt lat="38.8620350" lon="1.2509300">
        <ele>68.2</ele>
        <time>2020-02-21T13:01:55Z</time>
      </trkpt>
      <trkpt lat="38.8620410" lon="1.2509370">
        <ele>68.4</ele>
        <time>2020-02-21T13:01:56Z</time>
      </trkpt>
      <trkpt lat="38.8620450" lon="1.2509390">
        <ele>68.4</ele>
        <time>2020-02-21T13:01:57Z</time>
      </trkpt>
      <trkpt lat="38.8620470" lon="1.2509320">
        <ele>68.6</ele>
        <time>2020-02-21T13:01:58Z</time>
      </trkpt>
      <trkpt lat="38.8620490" lon="1.2509260">
        <ele>68.7</ele>
        <time>2020-02-21T13:01:59Z</time>
      </trkpt>
      <trkpt lat="38.8620580" lon="1.2509250">
        <ele>68.9</ele>
        <time>2020-02-21T13:02:00Z</time>
      </trkpt>
      <trkpt lat="38.8620630" lon="1.2509410">
        <ele>69.1</ele>
        <time>2020-02-21T13:02:01Z</time>
      </trkpt>
      <trkpt lat="38.8620630" lon="1.2509490">
        <ele>69.3</ele>
        <time>2020-02-21T13:02:02Z</time>
      </trkpt>
      <trkpt lat="38.8620630" lon="1.2509580">
        <ele>69.4</ele>
        <time>2020-02-21T13:02:03Z</time>
      </trkpt>
      <trkpt lat="38.8620560" lon="1.2509650">
        <ele>69.6</ele>
        <time>2020-02-21T13:02:04Z</time>
      </trkpt>
      <trkpt lat="38.8620530" lon="1.2509680">
        <ele>69.7</ele>
        <time>2020-02-21T13:02:05Z</time>
      </trkpt>
      <trkpt lat="38.8620560" lon="1.2509680">
        <ele>69.7</ele>
        <time>2020-02-21T13:02:06Z</time>
      </trkpt>
      <trkpt lat="38.8620550" lon="1.2509690">
        <ele>69.8</ele>
        <time>2020-02-21T13:02:07Z</time>
      </trkpt>
      <trkpt lat="38.8620480" lon="1.2509730">
        <ele>69.9</ele>
        <time>2020-02-21T13:02:08Z</time>
      </trkpt>
      <trkpt lat="38.8620530" lon="1.2509820">
        <ele>70.1</ele>
        <time>2020-02-21T13:02:09Z</time>
      </trkpt>
      <trkpt lat="38.8620580" lon="1.2509930">
        <ele>70.3</ele>
        <time>2020-02-21T13:02:10Z</time>
      </trkpt>
      <trkpt lat="38.8620730" lon="1.2509990">
        <ele>70.6</ele>
        <time>2020-02-21T13:02:11Z</time>
      </trkpt>
      <trkpt lat="38.8620820" lon="1.2510010">
        <ele>70.8</ele>
        <time>2020-02-21T13:02:12Z</time>
      </trkpt>
      <trkpt lat="38.8620910" lon="1.2509980">
        <ele>71.0</ele>
        <time>2020-02-21T13:02:13Z</time>
      </trkpt>
      <trkpt lat="38.8621050" lon="1.2509940">
        <ele>71.3</ele>
        <time>2020-02-21T13:02:14Z</time>
      </trkpt>
      <trkpt lat="38.8621140" lon="1.2510000">
        <ele>71.6</ele>
        <time>2020-02-21T13:02:15Z</time>
      </trkpt>
      <trkpt lat="38.8621170" lon="1.2510070">
        <ele>71.7</ele>
        <time>2020-02-21T13:02:16Z</time>
      </trkpt>
      <trkpt lat="38.8621220" lon="1.2510100">
        <ele>71.8</ele>
        <time>2020-02-21T13:02:17Z</time>
      </trkpt>
      <trkpt lat="38.8621270" lon="1.2510100">
        <ele>71.9</ele>
        <time>2020-02-21T13:02:18Z</time>
      </trkpt>
      <trkpt lat="38.8621330" lon="1.2510100">
        <ele>72.0</ele>
        <time>2020-02-21T13:02:19Z</time>
      </trkpt>
      <trkpt lat="38.8621390" lon="1.2510100">
        <ele>72.2</ele>
        <time>2020-02-21T13:02:20Z</time>
      </trkpt>
      <trkpt lat="38.8621440" lon="1.2510090">
        <ele>72.3</ele>
        <time>2020-02-21T13:02:21Z</time>
      </trkpt>
      <trkpt lat="38.8621500" lon="1.2510090">
        <ele>72.4</ele>
        <time>2020-02-21T13:02:22Z</time>
      </trkpt>
      <trkpt lat="38.8621550" lon="1.2510090">
        <ele>72.5</ele>
        <time>2020-02-21T13:02:23Z</time>
      </trkpt>
      <trkpt lat="38.8621610" lon="1.2510090">
        <ele>72.6</ele>
        <time>2020-02-21T13:02:24Z</time>
      </trkpt>
      <trkpt lat="38.8621670" lon="1.2510090">
        <ele>72.7</ele>
        <time>2020-02-21T13:02:25Z</time>
      </trkpt>
      <trkpt lat="38.8621720" lon="1.2510090">
        <ele>72.8</ele>
        <time>2020-02-21T13:02:26Z</time>
      </trkpt>
      <trkpt lat="38.8621780" lon="1.2510090">
        <ele>72.9</ele>
        <time>2020-02-21T13:02:27Z</time>
      </trkpt>
      <trkpt lat="38.8621840" lon="1.2510090">
        <ele>73.1</ele>
        <time>2020-02-21T13:02:31Z</time>
      </trkpt>
      <trkpt lat="38.8621890" lon="1.2510080">
        <ele>73.2</ele>
        <time>2020-02-21T13:02:32Z</time>
      </trkpt>
      <trkpt lat="38.8621950" lon="1.2510080">
        <ele>73.3</ele>
        <time>2020-02-21T13:02:33Z</time>
      </trkpt>
      <trkpt lat="38.8622000" lon="1.2510080">
        <ele>73.4</ele>
        <time>2020-02-21T13:02:34Z</time>
      </trkpt>
      <trkpt lat="38.8622060" lon="1.2510080">
        <ele>73.5</ele>
        <time>2020-02-21T13:02:35Z</time>
      </trkpt>
      <trkpt lat="38.8622240" lon="1.2510100">
        <ele>73.9</ele>
        <time>2020-02-21T13:02:36Z</time>
      </trkpt>
      <trkpt lat="38.8622330" lon="1.2510200">
        <ele>74.1</ele>
        <time>2020-02-21T13:02:37Z</time>
      </trkpt>
      <trkpt lat="38.8622440" lon="1.2510240">
        <ele>74.3</ele>
        <time>2020-02-21T13:02:38Z</time>
      </trkpt>
      <trkpt lat="38.8622460" lon="1.2510360">
        <ele>74.5</ele>
        <time>2020-02-21T13:02:39Z</time>
      </trkpt>
      <trkpt lat="38.8622400" lon="1.2510380">
        <ele>74.6</ele>
        <time>2020-02-21T13:02:40Z</time>
      </trkpt>
      <trkpt lat="38.8622500" lon="1.2510340">
        <ele>74.8</ele>
        <time>2020-02-21T13:02:41Z</time>
      </trkpt>
      <trkpt lat="38.8622570" lon="1.2510320">
        <ele>75.0</ele>
        <time>2020-02-21T13:02:42Z</time>
      </trkpt>
      <trkpt lat="38.8622640" lon="1.2510290">
        <ele>75.1</ele>
        <time>2020-02-21T13:02:43Z</time>
      </trkpt>
      <trkpt lat="38.8622680" lon="1.2510270">
        <ele>75.1</ele>
        <time>2020-02-21T13:02:44Z</time>
      </trkpt>
      <trkpt lat="38.8622750" lon="1.2510200">
        <ele>75.3</ele>
        <time>2020-02-21T13:02:45Z</time>
      </trkpt>
      <trkpt lat="38.8622800" lon="1.2510150">
        <ele>75.4</ele>
        <time>2020-02-21T13:02:46Z</time>
      </trkpt>
      <trkpt lat="38.8622870" lon="1.2510190">
        <ele>75.5</ele>
        <time>2020-02-21T13:02:47Z</time>
      </trkpt>
      <trkpt lat="38.8622970" lon="1.2510180">
        <ele>75.7</ele>
        <time>2020-02-21T13:02:48Z</time>
      </trkpt>
      <trkpt lat="38.8623080" lon="1.2510170">
        <ele>75.8</ele>
        <time>2020-02-21T13:02:49Z</time>
      </trkpt>
      <trkpt lat="38.8623030" lon="1.2510160">
        <ele>75.9</ele>
        <time>2020-02-21T13:02:50Z</time>
      </trkpt>
      <trkpt lat="38.8623070" lon="1.2510210">
        <ele>76.0</ele>
        <time>2020-02-21T13:02:51Z</time>
      </trkpt>
      <trkpt lat="38.8623070" lon="1.2510190">
        <ele>76.0</ele>
        <time>2020-02-21T13:02:52Z</time>
      </trkpt>
      <trkpt lat="38.8623100" lon="1.2510210">
        <ele>76.1</ele>
        <time>2020-02-21T13:02:53Z</time>
      </trkpt>
      <trkpt lat="38.8623170" lon="1.2510270">
        <ele>76.2</ele>
        <time>2020-02-21T13:02:54Z</time>
      </trkpt>
      <trkpt lat="38.8623210" lon="1.2510420">
        <ele>76.4</ele>
        <time>2020-02-21T13:02:55Z</time>
      </trkpt>
      <trkpt lat="38.8623240" lon="1.2510520">
        <ele>76.5</ele>
        <time>2020-02-21T13:02:56Z</time>
      </trkpt>
      <trkpt lat="38.8623240" lon="1.2510520">
        <ele>76.5</ele>
        <time>2020-02-21T13:02:57Z</time>
      </trkpt>
      <trkpt lat="38.8623330" lon="1.2510560">
        <ele>76.7</ele>
        <time>2020-02-21T13:02:58Z</time>
      </trkpt>
      <trkpt lat="38.8623340" lon="1.2510580">
        <ele>76.7</ele>
        <time>2020-02-21T13:02:59Z</time>
      </trkpt>
      <trkpt lat="38.8623380" lon="1.2510570">
        <ele>76.8</ele>
        <time>2020-02-21T13:03:00Z</time>
      </trkpt>
      <trkpt lat="38.8623360" lon="1.2510510">
        <ele>76.9</ele>
        <time>2020-02-21T13:03:01Z</time>
      </trkpt>
      <trkpt lat="38.8623350" lon="1.2510530">
        <ele>76.9</ele>
        <time>2020-02-21T13:03:02Z</time>
      </trkpt>
      <trkpt lat="38.8623510" lon="1.2510560">
        <ele>77.2</ele>
        <time>2020-02-21T13:03:03Z</time>
      </trkpt>
      <trkpt lat="38.8623620" lon="1.2510520">
        <ele>77.4</ele>
        <time>2020-02-21T13:03:04Z</time>
      </trkpt>
      <trkpt lat="38.8623640" lon="1.2510520">
        <ele>77.5</ele>
        <time>2020-02-21T13:03:05Z</time>
      </trkpt>
      <trkpt lat="38.8623680" lon="1.2510520">
        <ele>77.6</ele>
        <time>2020-02-21T13:03:06Z</time>
      </trkpt>
      <trkpt lat="38.8623720" lon="1.2510480">
        <ele>77.6</ele>
        <time>2020-02-21T13:03:07Z</time>
      </trkpt>
      <trkpt lat="38.8623800" lon="1.2510440">
        <ele>77.8</ele>
        <time>2020-02-21T13:03:08Z</time>
      </trkpt>
      <trkpt lat="38.8623820" lon="1.2510370">
        <ele>77.9</ele>
        <time>2020-02-21T13:03:09Z</time>
      </trkpt>
      <trkpt lat="38.8623790" lon="1.2510210">
        <ele>78.1</ele>
        <time>2020-02-21T13:03:10Z</time>
      </trkpt>
      <trkpt lat="38.8623800" lon="1.2510170">
        <ele>78.2</ele>
        <time>2020-02-21T13:03:11Z</time>
      </trkpt>
      <trkpt lat="38.8623810" lon="1.2510050">
        <ele>78.4</ele>
        <time>2020-02-21T13:03:12Z</time>
      </trkpt>
      <trkpt lat="38.8623840" lon="1.2510060">
        <ele>78.4</ele>
        <time>2020-02-21T13:03:13Z</time>
      </trkpt>
      <trkpt lat="38.8623830" lon="1.2510130">
        <ele>78.5</ele>
        <time>2020-02-21T13:03:14Z</time>
      </trkpt>
      <trkpt lat="38.8623820" lon="1.2510150">
        <ele>78.6</ele>
        <time>2020-02-21T13:03:15Z</time>
      </trkpt>
      <trkpt lat="38.8623820" lon="1.2510130">
        <ele>78.6</ele>
        <time>2020-02-21T13:03:16Z</time>
      </trkpt>
      <trkpt lat="38.8623850" lon="1.2510140">
        <ele>78.6</ele>
        <time>2020-02-21T13:03:17Z</time>
      </trkpt>
      <trkpt lat="38.8623860" lon="1.2510130">
        <ele>78.7</ele>
        <time>2020-02-21T13:03:18Z</time>
      </trkpt>
      <trkpt lat="38.8624530" lon="1.2510630">
        <ele>80.1</ele>
        <time>2020-02-21T13:03:44Z</time>
      </trkpt>
      <trkpt lat="38.8624600" lon="1.2510580">
        <ele>80.3</ele>
        <time>2020-02-21T13:03:45Z</time>
      </trkpt>
      <trkpt lat="38.8624690" lon="1.2510500">
        <ele>80.5</ele>
        <time>2020-02-21T13:03:46Z</time>
      </trkpt>
      <trkpt lat="38.8624810" lon="1.2510550">
        <ele>80.7</ele>
        <time>2020-02-21T13:03:47Z</time>
      </trkpt>
      <trkpt lat="38.8624890" lon="1.2510590">
        <ele>80.9</ele>
        <time>2020-02-21T13:03:48Z</time>
      </trkpt>
      <trkpt lat="38.8624960" lon="1.2510640">
        <ele>81.0</ele>
        <time>2020-02-21T13:03:49Z</time>
      </trkpt>
      <trkpt lat="38.8625030" lon="1.2510690">
        <ele>81.2</ele>
        <time>2020-02-21T13:03:50Z</time>
      </trkpt>
      <trkpt lat="38.8625210" lon="1.2510670">
        <ele>81.6</ele>
        <time>2020-02-21T13:03:51Z</time>
      </trkpt>
      <trkpt lat="38.8625250" lon="1.2510650">
        <ele>81.6</ele>
        <time>2020-02-21T13:03:52Z</time>
      </trkpt>
      <trkpt lat="38.8625300" lon="1.2510630">
        <ele>81.8</ele>
        <time>2020-02-21T13:03:53Z</time>
      </trkpt>
      <trkpt lat="38.8625340" lon="1.2510610">
        <ele>81.8</ele>
        <time>2020-02-21T13:03:54Z</time>
      </trkpt>
      <trkpt lat="38.8625390" lon="1.2510590">
        <ele>82.0</ele>
        <time>2020-02-21T13:03:55Z</time>
      </trkpt>
      <trkpt lat="38.8625500" lon="1.2510460">
        <ele>82.3</ele>
        <time>2020-02-21T13:03:56Z</time>
      </trkpt>
      <trkpt lat="38.8625620" lon="1.2510350">
        <ele>82.6</ele>
        <time>2020-02-21T13:03:57Z</time>
      </trkpt>
      <trkpt lat="38.8625780" lon="1.2510240">
        <ele>83.0</ele>
        <time>2020-02-21T13:03:58Z</time>
      </trkpt>
      <trkpt lat="38.8625820" lon="1.2510170">
        <ele>83.1</ele>
        <time>2020-02-21T13:03:59Z</time>
      </trkpt>
      <trkpt lat="38.8625850" lon="1.2510090">
        <ele>83.2</ele>
        <time>2020-02-21T13:04:00Z</time>
      </trkpt>
      <trkpt lat="38.8625890" lon="1.2510020">
        <ele>83.3</ele>
        <time>2020-02-21T13:04:01Z</time>
      </trkpt>
      <trkpt lat="38.8625840" lon="1.2509800">
        <ele>83.7</ele>
        <time>2020-02-21T13:04:02Z</time>
      </trkpt>
      <trkpt lat="38.8625890" lon="1.2509680">
        <ele>83.9</ele>
        <time>2020-02-21T13:04:03Z</time>
      </trkpt>
      <trkpt lat="38.8625920" lon="1.2509580">
        <ele>84.0</ele>
        <time>2020-02-21T13:04:04Z</time>
      </trkpt>
      <trkpt lat="38.8625980" lon="1.2509490">
        <ele>84.2</ele>
        <time>2020-02-21T13:04:05Z</time>
      </trkpt>
      <trkpt lat="38.8626050" lon="1.2509400">
        <ele>84.4</ele>
        <time>2020-02-21T13:04:06Z</time>
      </trkpt>
      <trkpt lat="38.8626170" lon="1.2509400">
        <ele>84.6</ele>
        <time>2020-02-21T13:04:07Z</time>
      </trkpt>
      <trkpt lat="38.8626270" lon="1.2509390">
        <ele>84.8</ele>
        <time>2020-02-21T13:04:08Z</time>
      </trkpt>
      <trkpt lat="38.8626250" lon="1.2509360">
        <ele>84.8</ele>
        <time>2020-02-21T13:04:09Z</time>
      </trkpt>
      <trkpt lat="38.8626310" lon="1.2509310">
        <ele>84.9</ele>
        <time>2020-02-21T13:04:10Z</time>
      </trkpt>
      <trkpt lat="38.8626380" lon="1.2509330">
        <ele>85.1</ele>
        <time>2020-02-21T13:04:11Z</time>
      </trkpt>
      <trkpt lat="38.8626350" lon="1.2509370">
        <ele>85.1</ele>
        <time>2020-02-21T13:04:12Z</time>
      </trkpt>
      <trkpt lat="38.8626350" lon="1.2509370">
        <ele>85.1</ele>
        <time>2020-02-21T13:04:13Z</time>
      </trkpt>
      <trkpt lat="38.8626350" lon="1.2509360">
        <ele>85.1</ele>
        <time>2020-02-21T13:04:14Z</time>
      </trkpt>
      <trkpt lat="38.8626360" lon="1.2509520">
        <ele>85.3</ele>
        <time>2020-02-21T13:04:15Z</time>
      </trkpt>
      <trkpt lat="38.8626360" lon="1.2509540">
        <ele>85.4</ele>
        <time>2020-02-21T13:04:16Z</time>
      </trkpt>
      <trkpt lat="38.8626390" lon="1.2509540">
        <ele>85.4</ele>
        <time>2020-02-21T13:04:17Z</time>
      </trkpt>
      <trkpt lat="38.8626470" lon="1.2509530">
        <ele>85.5</ele>
        <time>2020-02-21T13:04:18Z</time>
      </trkpt>
      <trkpt lat="38.8626490" lon="1.2509500">
        <ele>85.6</ele>
        <time>2020-02-21T13:04:19Z</time>
      </trkpt>
      <trkpt lat="38.8626550" lon="1.2509390">
        <ele>85.8</ele>
        <time>2020-02-21T13:04:20Z</time>
      </trkpt>
      <trkpt lat="38.8626680" lon="1.2509240">
        <ele>86.1</ele>
        <time>2020-02-21T13:04:21Z</time>
      </trkpt>
      <trkpt lat="38.8626720" lon="1.2509160">
        <ele>86.2</ele>
        <time>2020-02-21T13:04:22Z</time>
      </trkpt>
      <trkpt lat="38.8626780" lon="1.2508990">
        <ele>86.4</ele>
        <time>2020-02-21T13:04:23Z</time>
      </trkpt>
      <trkpt lat="38.8626780" lon="1.2508900">
        <ele>86.5</ele>
        <time>2020-02-21T13:04:24Z</time>
      </trkpt>
      <trkpt lat="38.8626720" lon="1.2508840">
        <ele>86.7</ele>
        <time>2020-02-21T13:04:25Z</time>
      </trkpt>
      <trkpt lat="38.8626700" lon="1.2508790">
        <ele>86.7</ele>
        <time>2020-02-21T13:04:26Z</time>
      </trkpt>
      <trkpt lat="38.8626670" lon="1.2508730">
        <ele>86.8</ele>
        <time>2020-02-21T13:04:27Z</time>
      </trkpt>
      <trkpt lat="38.8626640" lon="1.2508680">
        <ele>86.9</ele>
        <time>2020-02-21T13:04:28Z</time>
      </trkpt>
      <trkpt lat="38.8626610" lon="1.2508620">
        <ele>87.0</ele>
        <time>2020-02-21T13:04:29Z</time>
      </trkpt>
      <trkpt lat="38.8626590" lon="1.2508570">
        <ele>87.1</ele>
        <time>2020-02-21T13:04:30Z</time>
      </trkpt>
      <trkpt lat="38.8626560" lon="1.2508510">
        <ele>87.2</ele>
        <time>2020-02-21T13:04:31Z</time>
      </trkpt>
      <trkpt lat="38.8626490" lon="1.2508500">
        <ele>87.3</ele>
        <time>2020-02-21T13:04:32Z</time>
      </trkpt>
      <trkpt lat="38.8626230" lon="1.2508510">
        <ele>87.8</ele>
        <time>2020-02-21T13:04:33Z</time>
      </trkpt>
      <trkpt lat="38.8626230" lon="1.2508530">
        <ele>87.8</ele>
        <time>2020-02-21T13:04:34Z</time>
      </trkpt>
      <trkpt lat="38.8626170" lon="1.2508460">
        <ele>87.9</ele>
        <time>2020-02-21T13:04:35Z</time>
      </trkpt>
      <trkpt lat="38.8626200" lon="1.2508400">
        <ele>88.0</ele>
        <time>2020-02-21T13:04:36Z</time>
      </trkpt>
      <trkpt lat="38.8626090" lon="1.2508340">
        <ele>88.2</ele>
        <time>2020-02-21T13:04:37Z</time>
      </trkpt>
      <trkpt lat="38.8625970" lon="1.2508320">
        <ele>88.3</ele>
        <time>2020-02-21T13:04:38Z</time>
      </trkpt>
      <trkpt lat="38.8625860" lon="1.2508360">
        <ele>88.4</ele>
        <time>2020-02-21T13:04:39Z</time>
      </trkpt>
      <trkpt lat="38.8625810" lon="1.2508440">
        <ele>88.5</ele>
        <time>2020-02-21T13:04:40Z</time>
      </trkpt>
      <trkpt lat="38.8625750" lon="1.2508480">
        <ele>88.5</ele>
        <time>2020-02-21T13:04:41Z</time>
      </trkpt>
      <trkpt lat="38.8625700" lon="1.2508450">
        <ele>88.6</ele>
        <time>2020-02-21T13:04:42Z</time>
      </trkpt>
      <trkpt lat="38.8625670" lon="1.2508460">
        <ele>88.6</ele>
        <time>2020-02-21T13:04:43Z</time>
      </trkpt>
      <trkpt lat="38.8625620" lon="1.2508390">
        <ele>88.7</ele>
        <time>2020-02-21T13:04:44Z</time>
      </trkpt>
      <trkpt lat="38.8625480" lon="1.2508470">
        <ele>88.8</ele>
        <time>2020-02-21T13:04:45Z</time>
      </trkpt>
      <trkpt lat="38.8625360" lon="1.2508430">
        <ele>88.9</ele>
        <time>2020-02-21T13:04:46Z</time>
      </trkpt>
      <trkpt lat="38.8625260" lon="1.2508430">
        <ele>89.0</ele>
        <time>2020-02-21T13:04:47Z</time>
      </trkpt>
      <trkpt lat="38.8625140" lon="1.2508340">
        <ele>89.1</ele>
        <time>2020-02-21T13:04:48Z</time>
      </trkpt>
      <trkpt lat="38.8625040" lon="1.2508330">
        <ele>89.2</ele>
        <time>2020-02-21T13:04:49Z</time>
      </trkpt>
      <trkpt lat="38.8625000" lon="1.2508330">
        <ele>89.3</ele>
        <time>2020-02-21T13:04:50Z</time>
      </trkpt>
      <trkpt lat="38.8624970" lon="1.2508310">
        <ele>89.3</ele>
        <time>2020-02-21T13:04:51Z</time>
      </trkpt>
      <trkpt lat="38.8624880" lon="1.2508340">
        <ele>89.4</ele>
        <time>2020-02-21T13:04:52Z</time>
      </trkpt>
      <trkpt lat="38.8624820" lon="1.2508280">
        <ele>89.4</ele>
        <time>2020-02-21T13:04:53Z</time>
      </trkpt>
      <trkpt lat="38.8624750" lon="1.2508220">
        <ele>89.5</ele>
        <time>2020-02-21T13:04:54Z</time>
      </trkpt>
      <trkpt lat="38.8624720" lon="1.2508160">
        <ele>89.6</ele>
        <time>2020-02-21T13:04:55Z</time>
      </trkpt>
      <trkpt lat="38.8624710" lon="1.2508100">
        <ele>89.6</ele>
        <time>2020-02-21T13:04:56Z</time>
      </trkpt>
      <trkpt lat="38.8624740" lon="1.2508100">
        <ele>89.6</ele>
        <time>2020-02-21T13:04:57Z</time>
      </trkpt>
      <trkpt lat="38.8624770" lon="1.2508090">
        <ele>89.7</ele>
        <time>2020-02-21T13:04:58Z</time>
      </trkpt>
      <trkpt lat="38.8624760" lon="1.2508100">
        <ele>89.7</ele>
        <time>2020-02-21T13:04:59Z</time>
      </trkpt>
      <trkpt lat="38.8624870" lon="1.2508100">
        <ele>89.8</ele>
        <time>2020-02-21T13:05:00Z</time>
      </trkpt>
      <trkpt lat="38.8624960" lon="1.2508090">
        <ele>89.9</ele>
        <time>2020-02-21T13:05:01Z</time>
      </trkpt>
      <trkpt lat="38.8625020" lon="1.2508090">
        <ele>89.9</ele>
        <time>2020-02-21T13:05:02Z</time>
      </trkpt>
      <trkpt lat="38.8624950" lon="1.2508060">
        <ele>90.0</ele>
        <time>2020-02-21T13:05:03Z</time>
      </trkpt>
      <trkpt lat="38.8624740" lon="1.2508220">
        <ele>90.2</ele>
        <time>2020-02-21T13:05:04Z</time>
      </trkpt>
      <trkpt lat="38.8624710" lon="1.2508240">
        <ele>90.2</ele>
        <time>2020-02-21T13:05:05Z</time>
      </trkpt>
      <trkpt lat="38.8624660" lon="1.2508230">
        <ele>90.3</ele>
        <time>2020-02-21T13:05:06Z</time>
      </trkpt>
      <trkpt lat="38.8624700" lon="1.2508200">
        <ele>90.3</ele>
        <time>2020-02-21T13:05:07Z</time>
      </trkpt>
      <trkpt lat="38.8624740" lon="1.2508130">
        <ele>90.4</ele>
        <time>2020-02-21T13:05:08Z</time>
      </trkpt>
      <trkpt lat="38.8624800" lon="1.2508100">
        <ele>90.4</ele>
        <time>2020-02-21T13:05:09Z</time>
      </trkpt>
      <trkpt lat="38.8624710" lon="1.2508110">
        <ele>90.5</ele>
        <time>2020-02-21T13:05:10Z</time>
      </trkpt>
      <trkpt lat="38.8624750" lon="1.2508070">
        <ele>90.6</ele>
        <time>2020-02-21T13:05:11Z</time>
      </trkpt>
      <trkpt lat="38.8624750" lon="1.2508110">
        <ele>90.7</ele>
        <time>2020-02-21T13:05:12Z</time>
      </trkpt>
      <trkpt lat="38.8624840" lon="1.2508100">
        <ele>90.8</ele>
        <time>2020-02-21T13:05:13Z</time>
      </trkpt>
      <trkpt lat="38.8624850" lon="1.2508100">
        <ele>90.8</ele>
        <time>2020-02-21T13:05:14Z</time>
      </trkpt>
      <trkpt lat="38.8624700" lon="1.2508030">
        <ele>91.0</ele>
        <time>2020-02-21T13:05:15Z</time>
      </trkpt>
      <trkpt lat="38.8624680" lon="1.2507950">
        <ele>91.1</ele>
        <time>2020-02-21T13:05:16Z</time>
      </trkpt>
      <trkpt lat="38.8624670" lon="1.2507910">
        <ele>91.2</ele>
        <time>2020-02-21T13:05:17Z</time>
      </trkpt>
      <trkpt lat="38.8625500" lon="1.2508050">
        <ele>92.4</ele>
        <time>2020-02-21T13:06:32Z</time>
      </trkpt>
      <trkpt lat="38.8625620" lon="1.2507960">
        <ele>92.6</ele>
        <time>2020-02-21T13:06:33Z</time>
      </trkpt>
      <trkpt lat="38.8625660" lon="1.2507850">
        <ele>92.7</ele>
        <time>2020-02-21T13:06:34Z</time>
      </trkpt>
      <trkpt lat="38.8625770" lon="1.2507770">
        <ele>92.9</ele>
        <time>2020-02-21T13:06:35Z</time>
      </trkpt>
      <trkpt lat="38.8625830" lon="1.2507640">
        <ele>93.0</ele>
        <time>2020-02-21T13:06:36Z</time>
      </trkpt>
      <trkpt lat="38.8625850" lon="1.2507520">
        <ele>93.2</ele>
        <time>2020-02-21T13:06:37Z</time>
      </trkpt>
      <trkpt lat="38.8626050" lon="1.2507350">
        <ele>93.6</ele>
        <time>2020-02-21T13:06:38Z</time>
      </trkpt>
      <trkpt lat="38.8626130" lon="1.2507320">
        <ele>93.7</ele>
        <time>2020-02-21T13:06:39Z</time>
      </trkpt>
      <trkpt lat="38.8626220" lon="1.2507280">
        <ele>93.8</ele>
        <time>2020-02-21T13:06:40Z</time>
      </trkpt>
      <trkpt lat="38.8626270" lon="1.2507180">
        <ele>94.0</ele>
        <time>2020-02-21T13:06:41Z</time>
      </trkpt>
      <trkpt lat="38.8626490" lon="1.2507200">
        <ele>94.3</ele>
        <time>2020-02-21T13:06:42Z</time>
      </trkpt>
      <trkpt lat="38.8626790" lon="1.2507180">
        <ele>94.6</ele>
        <time>2020-02-21T13:06:43Z</time>
      </trkpt>
      <trkpt lat="38.8626900" lon="1.2507130">
        <ele>94.7</ele>
        <time>2020-02-21T13:06:44Z</time>
      </trkpt>
      <trkpt lat="38.8627110" lon="1.2507160">
        <ele>94.9</ele>
        <time>2020-02-21T13:06:45Z</time>
      </trkpt>
      <trkpt lat="38.8627230" lon="1.2507190">
        <ele>95.0</ele>
        <time>2020-02-21T13:06:46Z</time>
      </trkpt>
      <trkpt lat="38.8627370" lon="1.2507280">
        <ele>95.2</ele>
        <time>2020-02-21T13:06:47Z</time>
      </trkpt>
      <trkpt lat="38.8627480" lon="1.2507190">
        <ele>95.3</ele>
        <time>2020-02-21T13:06:48Z</time>
      </trkpt>
      <trkpt lat="38.8627570" lon="1.2507050">
        <ele>95.4</ele>
        <time>2020-02-21T13:06:49Z</time>
      </trkpt>
      <trkpt lat="38.8627670" lon="1.2506810">
        <ele>95.6</ele>
        <time>2020-02-21T13:06:50Z</time>
      </trkpt>
      <trkpt lat="38.8627760" lon="1.2506760">
        <ele>95.7</ele>
        <time>2020-02-21T13:06:51Z</time>
      </trkpt>
      <trkpt lat="38.8627850" lon="1.2506700">
        <ele>95.8</ele>
        <time>2020-02-21T13:06:52Z</time>
      </trkpt>
      <trkpt lat="38.8627950" lon="1.2506570">
        <ele>96.0</ele>
        <time>2020-02-21T13:06:53Z</time>
      </trkpt>
      <trkpt lat="38.8628020" lon="1.2506440">
        <ele>96.1</ele>
        <time>2020-02-21T13:06:54Z</time>
      </trkpt>
      <trkpt lat="38.8628030" lon="1.2506420">
        <ele>96.1</ele>
        <time>2020-02-21T13:06:55Z</time>
      </trkpt>
      <trkpt lat="38.8627840" lon="1.2506310">
        <ele>96.5</ele>
        <time>2020-02-21T13:06:56Z</time>
      </trkpt>
      <trkpt lat="38.8627850" lon="1.2506280">
        <ele>96.5</ele>
        <time>2020-02-21T13:06:57Z</time>
      </trkpt>
      <trkpt lat="38.8627820" lon="1.2506230">
        <ele>96.6</ele>
        <time>2020-02-21T13:06:58Z</time>
      </trkpt>
      <trkpt lat="38.8627810" lon="1.2506100">
        <ele>96.7</ele>
        <time>2020-02-21T13:06:59Z</time>
      </trkpt>
      <trkpt lat="38.8627840" lon="1.2506050">
        <ele>96.8</ele>
        <time>2020-02-21T13:07:00Z</time>
      </trkpt>
      <trkpt lat="38.8627830" lon="1.2505970">
        <ele>96.9</ele>
        <time>2020-02-21T13:07:01Z</time>
      </trkpt>
      <trkpt lat="38.8627860" lon="1.2505970">
        <ele>97.0</ele>
        <time>2020-02-21T13:07:02Z</time>
      </trkpt>
      <trkpt lat="38.8627820" lon="1.2505900">
        <ele>97.1</ele>
        <time>2020-02-21T13:07:03Z</time>
      </trkpt>
      <trkpt lat="38.8627770" lon="1.2505820">
        <ele>97.2</ele>
        <time>2020-02-21T13:07:04Z</time>
      </trkpt>
      <trkpt lat="38.8627760" lon="1.2505930">
        <ele>97.3</ele>
        <time>2020-02-21T13:07:05Z</time>
      </trkpt>
      <trkpt lat="38.8627700" lon="1.2505940">
        <ele>97.4</ele>
        <time>2020-02-21T13:07:06Z</time>
      </trkpt>
      <trkpt lat="38.8627640" lon="1.2505940">
        <ele>97.5</ele>
        <time>2020-02-21T13:07:07Z</time>
      </trkpt>
      <trkpt lat="38.8627560" lon="1.2505930">
        <ele>97.6</ele>
        <time>2020-02-21T13:07:08Z</time>
      </trkpt>
      <trkpt lat="38.8627450" lon="1.2505920">
        <ele>97.8</ele>
        <time>2020-02-21T13:07:09Z</time>
      </trkpt>
      <trkpt lat="38.8627300" lon="1.2505880">
        <ele>98.0</ele>
        <time>2020-02-21T13:07:10Z</time>
      </trkpt>
      <trkpt lat="38.8627270" lon="1.2505920">
        <ele>98.1</ele>
        <time>2020-02-21T13:07:11Z</time>
      </trkpt>
      <trkpt lat="38.8627130" lon="1.2505970">
        <ele>98.3</ele>
        <time>2020-02-21T13:07:12Z</time>
      </trkpt>
      <trkpt lat="38.8627000" lon="1.2506000">
        <ele>98.5</ele>
        <time>2020-02-21T13:07:13Z</time>
      </trkpt>
      <trkpt lat="38.8626880" lon="1.2506050">
        <ele>98.7</ele>
        <time>2020-02-21T13:07:14Z</time>
      </trkpt>
      <trkpt lat="38.8626800" lon="1.2506070">
        <ele>98.9</ele>
        <time>2020-02-21T13:07:15Z</time>
      </trkpt>
      <trkpt lat="38.8626720" lon="1.2506070">
        <ele>99.0</ele>
        <time>2020-02-21T13:07:16Z</time>
      </trkpt>
      <trkpt lat="38.8626640" lon="1.2506230">
        <ele>99.2</ele>
        <time>2020-02-21T13:07:17Z</time>
      </trkpt>
      <trkpt lat="38.8626570" lon="1.2506190">
        <ele>99.3</ele>
        <time>2020-02-21T13:07:18Z</time>
      </trkpt>
      <trkpt lat="38.8626520" lon="1.2506220">
        <ele>99.4</ele>
        <time>2020-02-21T13:07:19Z</time>
      </trkpt>
      <trkpt lat="38.8626450" lon="1.2506220">
        <ele>99.5</ele>
        <time>2020-02-21T13:07:20Z</time>
      </trkpt>
      <trkpt lat="38.8626360" lon="1.2506250">
        <ele>99.6</ele>
        <time>2020-02-21T13:07:21Z</time>
      </trkpt>
      <trkpt lat="38.8626280" lon="1.2506260">
        <ele>99.7</ele>
        <time>2020-02-21T13:07:22Z</time>
      </trkpt>
      <trkpt lat="38.8626200" lon="1.2506280">
        <ele>99.7</ele>
        <time>2020-02-21T13:07:23Z</time>
      </trkpt>
      <trkpt lat="38.8626150" lon="1.2506310">
        <ele>99.8</ele>
        <time>2020-02-21T13:07:24Z</time>
      </trkpt>
      <trkpt lat="38.8625940" lon="1.2506550">
        <ele>100.1</ele>
        <time>2020-02-21T13:07:25Z</time>
      </trkpt>
      <trkpt lat="38.8625810" lon="1.2506570">
        <ele>100.2</ele>
        <time>2020-02-21T13:07:26Z</time>
      </trkpt>
      <trkpt lat="38.8625700" lon="1.2506520">
        <ele>100.3</ele>
        <time>2020-02-21T13:07:27Z</time>
      </trkpt>
      <trkpt lat="38.8625580" lon="1.2506520">
        <ele>100.4</ele>
        <time>2020-02-21T13:07:28Z</time>
      </trkpt>
      <trkpt lat="38.8625530" lon="1.2506560">
        <ele>100.5</ele>
        <time>2020-02-21T13:07:29Z</time>
      </trkpt>
      <trkpt lat="38.8625460" lon="1.2506630">
        <ele>100.6</ele>
        <time>2020-02-21T13:07:30Z</time>
      </trkpt>
      <trkpt lat="38.8625360" lon="1.2506680">
        <ele>100.7</ele>
        <time>2020-02-21T13:07:31Z</time>
      </trkpt>
      <trkpt lat="38.8625300" lon="1.2506730">
        <ele>100.7</ele>
        <time>2020-02-21T13:07:32Z</time>
      </trkpt>
      <trkpt lat="38.8625230" lon="1.2506770">
        <ele>100.8</ele>
        <time>2020-02-21T13:07:33Z</time>
      </trkpt>
      <trkpt lat="38.8625080" lon="1.2506810">
        <ele>100.9</ele>
        <time>2020-02-21T13:07:34Z</time>
      </trkpt>
      <trkpt lat="38.8625000" lon="1.2506790">
        <ele>101.0</ele>
        <time>2020-02-21T13:07:35Z</time>
      </trkpt>
      <trkpt lat="38.8624910" lon="1.2506770">
        <ele>101.1</ele>
        <time>2020-02-21T13:07:36Z</time>
      </trkpt>
      <trkpt lat="38.8624820" lon="1.2506750">
        <ele>101.2</ele>
        <time>2020-02-21T13:07:37Z</time>
      </trkpt>
      <trkpt lat="38.8624710" lon="1.2506740">
        <ele>101.3</ele>
        <time>2020-02-21T13:07:38Z</time>
      </trkpt>
      <trkpt lat="38.8624580" lon="1.2506720">
        <ele>101.4</ele>
        <time>2020-02-21T13:07:39Z</time>
      </trkpt>
      <trkpt lat="38.8624480" lon="1.2506720">
        <ele>101.5</ele>
        <time>2020-02-21T13:07:40Z</time>
      </trkpt>
      <trkpt lat="38.8624430" lon="1.2506660">
        <ele>101.5</ele>
        <time>2020-02-21T13:07:41Z</time>
      </trkpt>
      <trkpt lat="38.8624360" lon="1.2506580">
        <ele>101.6</ele>
        <time>2020-02-21T13:07:42Z</time>
      </trkpt>
      <trkpt lat="38.8624350" lon="1.2506520">
        <ele>101.6</ele>
        <time>2020-02-21T13:07:43Z</time>
      </trkpt>
      <trkpt lat="38.8624230" lon="1.2506450">
        <ele>101.8</ele>
        <time>2020-02-21T13:07:44Z</time>
      </trkpt>
      <trkpt lat="38.8624200" lon="1.2506430">
        <ele>101.8</ele>
        <time>2020-02-21T13:07:45Z</time>
      </trkpt>
      <trkpt lat="38.8624190" lon="1.2506390">
        <ele>101.8</ele>
        <time>2020-02-21T13:07:46Z</time>
      </trkpt>
      <trkpt lat="38.8624190" lon="1.2506330">
        <ele>101.8</ele>
        <time>2020-02-21T13:07:47Z</time>
      </trkpt>
      <trkpt lat="38.8624100" lon="1.2506290">
        <ele>101.9</ele>
        <time>2020-02-21T13:07:48Z</time>
      </trkpt>
      <trkpt lat="38.8624030" lon="1.2506250">
        <ele>102.0</ele>
        <time>2020-02-21T13:07:49Z</time>
      </trkpt>
      <trkpt lat="38.8624010" lon="1.2506190">
        <ele>102.0</ele>
        <time>2020-02-21T13:07:50Z</time>
      </trkpt>
      <trkpt lat="38.8623990" lon="1.2506110">
        <ele>102.1</ele>
        <time>2020-02-21T13:07:51Z</time>
      </trkpt>
      <trkpt lat="38.8623970" lon="1.2505880">
        <ele>102.2</ele>
        <time>2020-02-21T13:07:52Z</time>
      </trkpt>
      <trkpt lat="38.8624040" lon="1.2505920">
        <ele>102.3</ele>
        <time>2020-02-21T13:07:53Z</time>
      </trkpt>
      <trkpt lat="38.8623980" lon="1.2505840">
        <ele>102.4</ele>
        <time>2020-02-21T13:07:54Z</time>
      </trkpt>
      <trkpt lat="38.8623980" lon="1.2505850">
        <ele>102.4</ele>
        <time>2020-02-21T13:07:55Z</time>
      </trkpt>
      <trkpt lat="38.8623990" lon="1.2505780">
        <ele>102.4</ele>
        <time>2020-02-21T13:07:56Z</time>
      </trkpt>
      <trkpt lat="38.8624070" lon="1.2505820">
        <ele>102.5</ele>
        <time>2020-02-21T13:07:57Z</time>
      </trkpt>
      <trkpt lat="38.8624050" lon="1.2505720">
        <ele>102.6</ele>
        <time>2020-02-21T13:07:58Z</time>
      </trkpt>
      <trkpt lat="38.8624000" lon="1.2505670">
        <ele>102.6</ele>
        <time>2020-02-21T13:07:59Z</time>
      </trkpt>
      <trkpt lat="38.8623910" lon="1.2505620">
        <ele>102.7</ele>
        <time>2020-02-21T13:08:00Z</time>
      </trkpt>
      <trkpt lat="38.8623780" lon="1.2505480">
        <ele>102.9</ele>
        <time>2020-02-21T13:08:01Z</time>
      </trkpt>
      <trkpt lat="38.8623660" lon="1.2505320">
        <ele>103.1</ele>
        <time>2020-02-21T13:08:02Z</time>
      </trkpt>
      <trkpt lat="38.8623580" lon="1.2505190">
        <ele>103.2</ele>
        <time>2020-02-21T13:08:03Z</time>
      </trkpt>
      <trkpt lat="38.8623480" lon="1.2505100">
        <ele>103.3</ele>
        <time>2020-02-21T13:08:04Z</time>
      </trkpt>
      <trkpt lat="38.8623330" lon="1.2505020">
        <ele>103.5</ele>
        <time>2020-02-21T13:08:05Z</time>
      </trkpt>
      <trkpt lat="38.8623230" lon="1.2504920">
        <ele>103.6</ele>
        <time>2020-02-21T13:08:06Z</time>
      </trkpt>
      <trkpt lat="38.8623150" lon="1.2504840">
        <ele>103.7</ele>
        <time>2020-02-21T13:08:07Z</time>
      </trkpt>
      <trkpt lat="38.8623060" lon="1.2504810">
        <ele>103.7</ele>
        <time>2020-02-21T13:08:08Z</time>
      </trkpt>
      <trkpt lat="38.8622940" lon="1.2504700">
        <ele>103.8</ele>
        <time>2020-02-21T13:08:09Z</time>
      </trkpt>
      <trkpt lat="38.8622900" lon="1.2504630">
        <ele>103.9</ele>
        <time>2020-02-21T13:08:10Z</time>
      </trkpt>
      <trkpt lat="38.8622840" lon="1.2504540">
        <ele>103.9</ele>
        <time>2020-02-21T13:08:11Z</time>
      </trkpt>
      <trkpt lat="38.8622790" lon="1.2504370">
        <ele>104.0</ele>
        <time>2020-02-21T13:08:12Z</time>
      </trkpt>
      <trkpt lat="38.8622780" lon="1.2504310">
        <ele>104.1</ele>
        <time>2020-02-21T13:08:13Z</time>
      </trkpt>
      <trkpt lat="38.8622690" lon="1.2504140">
        <ele>104.2</ele>
        <time>2020-02-21T13:08:14Z</time>
      </trkpt>
      <trkpt lat="38.8622600" lon="1.2503930">
        <ele>104.3</ele>
        <time>2020-02-21T13:08:15Z</time>
      </trkpt>
      <trkpt lat="38.8622560" lon="1.2503770">
        <ele>104.4</ele>
        <time>2020-02-21T13:08:16Z</time>
      </trkpt>
      <trkpt lat="38.8622570" lon="1.2503710">
        <ele>104.4</ele>
        <time>2020-02-21T13:08:17Z</time>
      </trkpt>
      <trkpt lat="38.8622520" lon="1.2503640">
        <ele>104.5</ele>
        <time>2020-02-21T13:08:18Z</time>
      </trkpt>
      <trkpt lat="38.8622480" lon="1.2503480">
        <ele>104.6</ele>
        <time>2020-02-21T13:08:19Z</time>
      </trkpt>
      <trkpt lat="38.8622460" lon="1.2503360">
        <ele>104.6</ele>
        <time>2020-02-21T13:08:20Z</time>
      </trkpt>
      <trkpt lat="38.8622430" lon="1.2503160">
        <ele>104.7</ele>
        <time>2020-02-21T13:08:21Z</time>
      </trkpt>
      <trkpt lat="38.8622490" lon="1.2503150">
        <ele>104.8</ele>
        <time>2020-02-21T13:08:22Z</time>
      </trkpt>
      <trkpt lat="38.8622570" lon="1.2503250">
        <ele>104.9</ele>
        <time>2020-02-21T13:08:23Z</time>
      </trkpt>
      <trkpt lat="38.8622620" lon="1.2503240">
        <ele>104.9</ele>
        <time>2020-02-21T13:08:24Z</time>
      </trkpt>
      <trkpt lat="38.8622600" lon="1.2503270">
        <ele>104.9</ele>
        <time>2020-02-21T13:08:25Z</time>
      </trkpt>
      <trkpt lat="38.8622560" lon="1.2503280">
        <ele>104.9</ele>
        <time>2020-02-21T13:08:26Z</time>
      </trkpt>
      <trkpt lat="38.8622510" lon="1.2503320">
        <ele>105.0</ele>
        <time>2020-02-21T13:08:27Z</time>
      </trkpt>
      <trkpt lat="38.8622460" lon="1.2503400">
        <ele>105.0</ele>
        <time>2020-02-21T13:08:28Z</time>
      </trkpt>
      <trkpt lat="38.8622450" lon="1.2503400">
        <ele>105.0</ele>
        <time>2020-02-21T13:08:29Z</time>
      </trkpt>
      <trkpt lat="38.8622450" lon="1.2503400">
        <ele>105.0</ele>
        <time>2020-02-21T13:08:30Z</time>
      </trkpt>
      <trkpt lat="38.8622430" lon="1.2503400">
        <ele>105.1</ele>
        <time>2020-02-21T13:08:31Z</time>
      </trkpt>
      <trkpt lat="38.8622430" lon="1.2503400">
        <ele>105.1</ele>
        <time>2020-02-21T13:08:32Z</time>
      </trkpt>
      <trkpt lat="38.8622200" lon="1.2502840">
        <ele>105.5</ele>
        <time>2020-02-21T13:09:26Z</time>
      </trkpt>
      <trkpt lat="38.8622140" lon="1.2502770">
        <ele>105.6</ele>
        <time>2020-02-21T13:09:27Z</time>
      </trkpt>
      <trkpt lat="38.8622050" lon="1.2502620">
        <ele>105.8</ele>
        <time>2020-02-21T13:09:28Z</time>
      </trkpt>
      <trkpt lat="38.8621980" lon="1.2502430">
        <ele>106.0</ele>
        <time>2020-02-21T13:09:29Z</time>
      </trkpt>
      <trkpt lat="38.8621980" lon="1.2502340">
        <ele>106.0</ele>
        <time>2020-02-21T13:09:30Z</time>
      </trkpt>
      <trkpt lat="38.8621970" lon="1.2502260">
        <ele>106.1</ele>
        <time>2020-02-21T13:09:31Z</time>
      </trkpt>
      <trkpt lat="38.8621960" lon="1.2502170">
        <ele>106.2</ele>
        <time>2020-02-21T13:09:32Z</time>
      </trkpt>
      <trkpt lat="38.8621890" lon="1.2501980">
        <ele>106.4</ele>
        <time>2020-02-21T13:09:33Z</time>
      </trkpt>
      <trkpt lat="38.8621880" lon="1.2501890">
        <ele>106.4</ele>
        <time>2020-02-21T13:09:34Z</time>
      </trkpt>
      <trkpt lat="38.8621890" lon="1.2501720">
        <ele>106.6</ele>
        <time>2020-02-21T13:09:35Z</time>
      </trkpt>
      <trkpt lat="38.8621870" lon="1.2501550">
        <ele>106.7</ele>
        <time>2020-02-21T13:09:36Z</time>
      </trkpt>
      <trkpt lat="38.8621920" lon="1.2501520">
        <ele>106.8</ele>
        <time>2020-02-21T13:09:37Z</time>
      </trkpt>
      <trkpt lat="38.8621920" lon="1.2501470">
        <ele>106.8</ele>
        <time>2020-02-21T13:09:38Z</time>
      </trkpt>
      <trkpt lat="38.8621870" lon="1.2501360">
        <ele>106.9</ele>
        <time>2020-02-21T13:09:39Z</time>
      </trkpt>
      <trkpt lat="38.8621780" lon="1.2501180">
        <ele>107.1</ele>
        <time>2020-02-21T13:09:40Z</time>
      </trkpt>
      <trkpt lat="38.8621780" lon="1.2500970">
        <ele>107.3</ele>
        <time>2020-02-21T13:09:41Z</time>
      </trkpt>
      <trkpt lat="38.8621760" lon="1.2500840">
        <ele>107.4</ele>
        <time>2020-02-21T13:09:42Z</time>
      </trkpt>
      <trkpt lat="38.8621720" lon="1.2500750">
        <ele>107.4</ele>
        <time>2020-02-21T13:09:43Z</time>
      </trkpt>
      <trkpt lat="38.8621680" lon="1.2500670">
        <ele>107.5</ele>
        <time>2020-02-21T13:09:44Z</time>
      </trkpt>
      <trkpt lat="38.8621720" lon="1.2500610">
        <ele>107.6</ele>
        <time>2020-02-21T13:09:45Z</time>
      </trkpt>
      <trkpt lat="38.8621700" lon="1.2500550">
        <ele>107.7</ele>
        <time>2020-02-21T13:09:46Z</time>
      </trkpt>
      <trkpt lat="38.8621690" lon="1.2500390">
        <ele>107.8</ele>
        <time>2020-02-21T13:09:47Z</time>
      </trkpt>
      <trkpt lat="38.8621670" lon="1.2500360">
        <ele>107.8</ele>
        <time>2020-02-21T13:09:48Z</time>
      </trkpt>
      <trkpt lat="38.8621680" lon="1.2500310">
        <ele>107.9</ele>
        <time>2020-02-21T13:09:49Z</time>
      </trkpt>
      <trkpt lat="38.8621650" lon="1.2500160">
        <ele>108.0</ele>
        <time>2020-02-21T13:09:50Z</time>
      </trkpt>
      <trkpt lat="38.8621650" lon="1.2499970">
        <ele>108.2</ele>
        <time>2020-02-21T13:09:51Z</time>
      </trkpt>
      <trkpt lat="38.8621670" lon="1.2499780">
        <ele>108.4</ele>
        <time>2020-02-21T13:09:52Z</time>
      </trkpt>
      <trkpt lat="38.8621650" lon="1.2499500">
        <ele>108.7</ele>
        <time>2020-02-21T13:09:53Z</time>
      </trkpt>
      <trkpt lat="38.8621610" lon="1.2499300">
        <ele>108.9</ele>
        <time>2020-02-21T13:09:54Z</time>
      </trkpt>
      <trkpt lat="38.8621590" lon="1.2499160">
        <ele>109.0</ele>
        <time>2020-02-21T13:09:55Z</time>
      </trkpt>
      <trkpt lat="38.8621540" lon="1.2499000">
        <ele>109.2</ele>
        <time>2020-02-21T13:09:56Z</time>
      </trkpt>
      <trkpt lat="38.8621540" lon="1.2498930">
        <ele>109.3</ele>
        <time>2020-02-21T13:09:57Z</time>
      </trkpt>
      <trkpt lat="38.8621410" lon="1.2498540">
        <ele>109.7</ele>
        <time>2020-02-21T13:09:58Z</time>
      </trkpt>
      <trkpt lat="38.8621350" lon="1.2498460">
        <ele>109.9</ele>
        <time>2020-02-21T13:09:59Z</time>
      </trkpt>
      <trkpt lat="38.8621400" lon="1.2498620">
        <ele>110.0</ele>
        <time>2020-02-21T13:10:00Z</time>
      </trkpt>
      <trkpt lat="38.8621350" lon="1.2498520">
        <ele>110.1</ele>
        <time>2020-02-21T13:10:01Z</time>
      </trkpt>
      <trkpt lat="38.8621400" lon="1.2498470">
        <ele>110.2</ele>
        <time>2020-02-21T13:10:02Z</time>
      </trkpt>
      <trkpt lat="38.8621390" lon="1.2498480">
        <ele>110.2</ele>
        <time>2020-02-21T13:10:03Z</time>
      </trkpt>
      <trkpt lat="38.8621390" lon="1.2498370">
        <ele>110.3</ele>
        <time>2020-02-21T13:10:04Z</time>
      </trkpt>
      <trkpt lat="38.8621340" lon="1.2498210">
        <ele>110.4</ele>
        <time>2020-02-21T13:10:05Z</time>
      </trkpt>
      <trkpt lat="38.8621250" lon="1.2498090">
        <ele>110.5</ele>
        <time>2020-02-21T13:10:06Z</time>
      </trkpt>
      <trkpt lat="38.8621240" lon="1.2497960">
        <ele>110.6</ele>
        <time>2020-02-21T13:10:07Z</time>
      </trkpt>
      <trkpt lat="38.8621240" lon="1.2497840">
        <ele>110.7</ele>
        <time>2020-02-21T13:10:08Z</time>
      </trkpt>
      <trkpt lat="38.8621220" lon="1.2497740">
        <ele>110.8</ele>
        <time>2020-02-21T13:10:09Z</time>
      </trkpt>
      <trkpt lat="38.8621120" lon="1.2497350">
        <ele>111.1</ele>
        <time>2020-02-21T13:10:10Z</time>
      </trkpt>
      <trkpt lat="38.8621100" lon="1.2497290">
        <ele>111.2</ele>
        <time>2020-02-21T13:10:11Z</time>
      </trkpt>
      <trkpt lat="38.8620940" lon="1.2497240">
        <ele>111.4</ele>
        <time>2020-02-21T13:10:12Z</time>
      </trkpt>
      <trkpt lat="38.8620950" lon="1.2497220">
        <ele>111.4</ele>
        <time>2020-02-21T13:10:13Z</time>
      </trkpt>
      <trkpt lat="38.8620990" lon="1.2497110">
        <ele>111.5</ele>
        <time>2020-02-21T13:10:14Z</time>
      </trkpt>
      <trkpt lat="38.8621080" lon="1.2497070">
        <ele>111.6</ele>
        <time>2020-02-21T13:10:15Z</time>
      </trkpt>
      <trkpt lat="38.8621130" lon="1.2497060">
        <ele>111.7</ele>
        <time>2020-02-21T13:10:16Z</time>
      </trkpt>
      <trkpt lat="38.8621160" lon="1.2497040">
        <ele>111.7</ele>
        <time>2020-02-21T13:10:17Z</time>
      </trkpt>
      <trkpt lat="38.8621250" lon="1.2497050">
        <ele>111.9</ele>
        <time>2020-02-21T13:10:18Z</time>
      </trkpt>
      <trkpt lat="38.8621270" lon="1.2496960">
        <ele>111.9</ele>
        <time>2020-02-21T13:10:19Z</time>
      </trkpt>
      <trkpt lat="38.8621280" lon="1.2496930">
        <ele>112.0</ele>
        <time>2020-02-21T13:10:20Z</time>
      </trkpt>
      <trkpt lat="38.8621300" lon="1.2496900">
        <ele>112.0</ele>
        <time>2020-02-21T13:10:21Z</time>
      </trkpt>
      <trkpt lat="38.8621310" lon="1.2496850">
        <ele>112.1</ele>
        <time>2020-02-21T13:10:22Z</time>
      </trkpt>
      <trkpt lat="38.8621330" lon="1.2496760">
        <ele>112.2</ele>
        <time>2020-02-21T13:10:23Z</time>
      </trkpt>
      <trkpt lat="38.8621310" lon="1.2496620">
        <ele>112.3</ele>
        <time>2020-02-21T13:10:24Z</time>
      </trkpt>
      <trkpt lat="38.8621250" lon="1.2496350">
        <ele>112.4</ele>
        <time>2020-02-21T13:10:25Z</time>
      </trkpt>
      <trkpt lat="38.8621250" lon="1.2496250">
        <ele>112.5</ele>
        <time>2020-02-21T13:10:26Z</time>
      </trkpt>
      <trkpt lat="38.8621260" lon="1.2496140">
        <ele>112.6</ele>
        <time>2020-02-21T13:10:27Z</time>
      </trkpt>
      <trkpt lat="38.8621250" lon="1.2496060">
        <ele>112.6</ele>
        <time>2020-02-21T13:10:28Z</time>
      </trkpt>
      <trkpt lat="38.8621250" lon="1.2495940">
        <ele>112.7</ele>
        <time>2020-02-21T13:10:29Z</time>
      </trkpt>
      <trkpt lat="38.8621210" lon="1.2495770">
        <ele>112.8</ele>
        <time>2020-02-21T13:10:30Z</time>
      </trkpt>
      <trkpt lat="38.8621190" lon="1.2495630">
        <ele>112.9</ele>
        <time>2020-02-21T13:10:31Z</time>
      </trkpt>
      <trkpt lat="38.8621180" lon="1.2495530">
        <ele>112.9</ele>
        <time>2020-02-21T13:10:32Z</time>
      </trkpt>
      <trkpt lat="38.8621170" lon="1.2495400">
        <ele>113.0</ele>
        <time>2020-02-21T13:10:33Z</time>
      </trkpt>
      <trkpt lat="38.8621120" lon="1.2495260">
        <ele>113.1</ele>
        <time>2020-02-21T13:10:34Z</time>
      </trkpt>
      <trkpt lat="38.8621070" lon="1.2495090">
        <ele>113.2</ele>
        <time>2020-02-21T13:10:35Z</time>
      </trkpt>
      <trkpt lat="38.8621120" lon="1.2494950">
        <ele>113.3</ele>
        <time>2020-02-21T13:10:36Z</time>
      </trkpt>
      <trkpt lat="38.8621130" lon="1.2494820">
        <ele>113.4</ele>
        <time>2020-02-21T13:10:37Z</time>
      </trkpt>
      <trkpt lat="38.8621150" lon="1.2494670">
        <ele>113.5</ele>
        <time>2020-02-21T13:10:38Z</time>
      </trkpt>
      <trkpt lat="38.8621170" lon="1.2494570">
        <ele>113.5</ele>
        <time>2020-02-21T13:10:39Z</time>
      </trkpt>
      <trkpt lat="38.8621210" lon="1.2494500">
        <ele>113.6</ele>
        <time>2020-02-21T13:10:40Z</time>
      </trkpt>
      <trkpt lat="38.8621200" lon="1.2494390">
        <ele>113.6</ele>
        <time>2020-02-21T13:10:41Z</time>
      </trkpt>
      <trkpt lat="38.8621200" lon="1.2494290">
        <ele>113.7</ele>
        <time>2020-02-21T13:10:42Z</time>
      </trkpt>
      <trkpt lat="38.8621190" lon="1.2494180">
        <ele>113.7</ele>
        <time>2020-02-21T13:10:43Z</time>
      </trkpt>
      <trkpt lat="38.8621180" lon="1.2494080">
        <ele>113.8</ele>
        <time>2020-02-21T13:10:44Z</time>
      </trkpt>
      <trkpt lat="38.8621200" lon="1.2493920">
        <ele>113.8</ele>
        <time>2020-02-21T13:10:45Z</time>
      </trkpt>
      <trkpt lat="38.8621190" lon="1.2493720">
        <ele>113.9</ele>
        <time>2020-02-21T13:10:46Z</time>
      </trkpt>
      <trkpt lat="38.8621250" lon="1.2493740">
        <ele>114.0</ele>
        <time>2020-02-21T13:10:47Z</time>
      </trkpt>
      <trkpt lat="38.8621140" lon="1.2493620">
        <ele>114.1</ele>
        <time>2020-02-21T13:10:48Z</time>
      </trkpt>
      <trkpt lat="38.8621070" lon="1.2493540">
        <ele>114.1</ele>
        <time>2020-02-21T13:10:49Z</time>
      </trkpt>
      <trkpt lat="38.8621070" lon="1.2493490">
        <ele>114.1</ele>
        <time>2020-02-21T13:10:50Z</time>
      </trkpt>
      <trkpt lat="38.8621010" lon="1.2493390">
        <ele>114.2</ele>
        <time>2020-02-21T13:10:51Z</time>
      </trkpt>
      <trkpt lat="38.8621050" lon="1.2493280">
        <ele>114.3</ele>
        <time>2020-02-21T13:10:52Z</time>
      </trkpt>
      <trkpt lat="38.8621030" lon="1.2493140">
        <ele>114.3</ele>
        <time>2020-02-21T13:10:53Z</time>
      </trkpt>
      <trkpt lat="38.8621010" lon="1.2493040">
        <ele>114.4</ele>
        <time>2020-02-21T13:10:54Z</time>
      </trkpt>
      <trkpt lat="38.8621000" lon="1.2492800">
        <ele>114.5</ele>
        <time>2020-02-21T13:10:55Z</time>
      </trkpt>
      <trkpt lat="38.8621000" lon="1.2492640">
        <ele>114.6</ele>
        <time>2020-02-21T13:10:56Z</time>
      </trkpt>
      <trkpt lat="38.8621000" lon="1.2492490">
        <ele>114.6</ele>
        <time>2020-02-21T13:10:57Z</time>
      </trkpt>
      <trkpt lat="38.8620970" lon="1.2492330">
        <ele>114.7</ele>
        <time>2020-02-21T13:10:58Z</time>
      </trkpt>
      <trkpt lat="38.8620920" lon="1.2492160">
        <ele>114.9</ele>
        <time>2020-02-21T13:10:59Z</time>
      </trkpt>
      <trkpt lat="38.8620860" lon="1.2492050">
        <ele>115.0</ele>
        <time>2020-02-21T13:11:00Z</time>
      </trkpt>
      <trkpt lat="38.8620840" lon="1.2491940">
        <ele>115.1</ele>
        <time>2020-02-21T13:11:01Z</time>
      </trkpt>
      <trkpt lat="38.8620730" lon="1.2491800">
        <ele>115.2</ele>
        <time>2020-02-21T13:11:02Z</time>
      </trkpt>
      <trkpt lat="38.8620680" lon="1.2491730">
        <ele>115.3</ele>
        <time>2020-02-21T13:11:03Z</time>
      </trkpt>
      <trkpt lat="38.8620650" lon="1.2491630">
        <ele>115.3</ele>
        <time>2020-02-21T13:11:04Z</time>
      </trkpt>
      <trkpt lat="38.8620610" lon="1.2491590">
        <ele>115.4</ele>
        <time>2020-02-21T13:11:05Z</time>
      </trkpt>
      <trkpt lat="38.8620600" lon="1.2491430">
        <ele>115.5</ele>
        <time>2020-02-21T13:11:06Z</time>
      </trkpt>
      <trkpt lat="38.8620630" lon="1.2491280">
        <ele>115.6</ele>
        <time>2020-02-21T13:11:07Z</time>
      </trkpt>
      <trkpt lat="38.8620670" lon="1.2491160">
        <ele>115.7</ele>
        <time>2020-02-21T13:11:08Z</time>
      </trkpt>
      <trkpt lat="38.8620690" lon="1.2491060">
        <ele>115.7</ele>
        <time>2020-02-21T13:11:09Z</time>
      </trkpt>
      <trkpt lat="38.8620700" lon="1.2490920">
        <ele>115.8</ele>
        <time>2020-02-21T13:11:10Z</time>
      </trkpt>
      <trkpt lat="38.8620710" lon="1.2490780">
        <ele>115.9</ele>
        <time>2020-02-21T13:11:11Z</time>
      </trkpt>
      <trkpt lat="38.8620790" lon="1.2490710">
        <ele>116.0</ele>
        <time>2020-02-21T13:11:12Z</time>
      </trkpt>
      <trkpt lat="38.8620850" lon="1.2490520">
        <ele>116.1</ele>
        <time>2020-02-21T13:11:13Z</time>
      </trkpt>
      <trkpt lat="38.8620940" lon="1.2490400">
        <ele>116.2</ele>
        <time>2020-02-21T13:11:14Z</time>
      </trkpt>
      <trkpt lat="38.8620990" lon="1.2490200">
        <ele>116.3</ele>
        <time>2020-02-21T13:11:15Z</time>
      </trkpt>
      <trkpt lat="38.8621020" lon="1.2490120">
        <ele>116.4</ele>
        <time>2020-02-21T13:11:16Z</time>
      </trkpt>
      <trkpt lat="38.8621040" lon="1.2490040">
        <ele>116.4</ele>
        <time>2020-02-21T13:11:17Z</time>
      </trkpt>
      <trkpt lat="38.8621070" lon="1.2489960">
        <ele>116.5</ele>
        <time>2020-02-21T13:11:18Z</time>
      </trkpt>
      <trkpt lat="38.8621100" lon="1.2489880">
        <ele>116.5</ele>
        <time>2020-02-21T13:11:19Z</time>
      </trkpt>
      <trkpt lat="38.8621000" lon="1.2489560">
        <ele>116.8</ele>
        <time>2020-02-21T13:11:20Z</time>
      </trkpt>
      <trkpt lat="38.8620930" lon="1.2489460">
        <ele>116.8</ele>
        <time>2020-02-21T13:11:21Z</time>
      </trkpt>
      <trkpt lat="38.8620560" lon="1.2489460">
        <ele>117.1</ele>
        <time>2020-02-21T13:11:22Z</time>
      </trkpt>
      <trkpt lat="38.8620440" lon="1.2489460">
        <ele>117.2</ele>
        <time>2020-02-21T13:11:23Z</time>
      </trkpt>
      <trkpt lat="38.8620000" lon="1.2489550">
        <ele>117.6</ele>
        <time>2020-02-21T13:11:24Z</time>
      </trkpt>
      <trkpt lat="38.8619820" lon="1.2489620">
        <ele>117.8</ele>
        <time>2020-02-21T13:11:25Z</time>
      </trkpt>
      <trkpt lat="38.8619430" lon="1.2489410">
        <ele>118.1</ele>
        <time>2020-02-21T13:11:26Z</time>
      </trkpt>
      <trkpt lat="38.8619210" lon="1.2489190">
        <ele>118.3</ele>
        <time>2020-02-21T13:11:27Z</time>
      </trkpt>
      <trkpt lat="38.8619070" lon="1.2489160">
        <ele>118.4</ele>
        <time>2020-02-21T13:11:28Z</time>
      </trkpt>
      <trkpt lat="38.8618910" lon="1.2489130">
        <ele>118.5</ele>
        <time>2020-02-21T13:11:29Z</time>
      </trkpt>
      <trkpt lat="38.8618730" lon="1.2489150">
        <ele>118.6</ele>
        <time>2020-02-21T13:11:30Z</time>
      </trkpt>
      <trkpt lat="38.8618620" lon="1.2489130">
        <ele>118.7</ele>
        <time>2020-02-21T13:11:31Z</time>
      </trkpt>
      <trkpt lat="38.8618510" lon="1.2489010">
        <ele>118.7</ele>
        <time>2020-02-21T13:11:32Z</time>
      </trkpt>
      <trkpt lat="38.8618410" lon="1.2488880">
        <ele>118.8</ele>
        <time>2020-02-21T13:11:33Z</time>
      </trkpt>
      <trkpt lat="38.8618260" lon="1.2488790">
        <ele>118.9</ele>
        <time>2020-02-21T13:11:34Z</time>
      </trkpt>
      <trkpt lat="38.8618180" lon="1.2488750">
        <ele>119.0</ele>
        <time>2020-02-21T13:11:35Z</time>
      </trkpt>
      <trkpt lat="38.8618050" lon="1.2488870">
        <ele>119.0</ele>
        <time>2020-02-21T13:11:36Z</time>
      </trkpt>
      <trkpt lat="38.8617890" lon="1.2488910">
        <ele>119.1</ele>
        <time>2020-02-21T13:11:37Z</time>
      </trkpt>
      <trkpt lat="38.8617700" lon="1.2488920">
        <ele>119.2</ele>
        <time>2020-02-21T13:11:38Z</time>
      </trkpt>
      <trkpt lat="38.8617490" lon="1.2488950">
        <ele>119.4</ele>
        <time>2020-02-21T13:11:39Z</time>
      </trkpt>
      <trkpt lat="38.8617370" lon="1.2489040">
        <ele>119.4</ele>
        <time>2020-02-21T13:11:40Z</time>
      </trkpt>
      <trkpt lat="38.8617180" lon="1.2489280">
        <ele>119.5</ele>
        <time>2020-02-21T13:11:41Z</time>
      </trkpt>
      <trkpt lat="38.8617100" lon="1.2489360">
        <ele>119.5</ele>
        <time>2020-02-21T13:11:42Z</time>
      </trkpt>
      <trkpt lat="38.8616970" lon="1.2489480">
        <ele>119.6</ele>
        <time>2020-02-21T13:11:43Z</time>
      </trkpt>
      <trkpt lat="38.8616870" lon="1.2489570">
        <ele>119.6</ele>
        <time>2020-02-21T13:11:44Z</time>
      </trkpt>
      <trkpt lat="38.8616750" lon="1.2489810">
        <ele>119.7</ele>
        <time>2020-02-21T13:11:45Z</time>
      </trkpt>
      <trkpt lat="38.8616700" lon="1.2489900">
        <ele>119.7</ele>
        <time>2020-02-21T13:11:46Z</time>
      </trkpt>
      <trkpt lat="38.8616660" lon="1.2490000">
        <ele>119.7</ele>
        <time>2020-02-21T13:11:47Z</time>
      </trkpt>
      <trkpt lat="38.8616500" lon="1.2490190">
        <ele>119.8</ele>
        <time>2020-02-21T13:11:48Z</time>
      </trkpt>
      <trkpt lat="38.8616400" lon="1.2490250">
        <ele>119.8</ele>
        <time>2020-02-21T13:11:49Z</time>
      </trkpt>
      <trkpt lat="38.8616290" lon="1.2490310">
        <ele>119.9</ele>
        <time>2020-02-21T13:11:50Z</time>
      </trkpt>
      <trkpt lat="38.8616080" lon="1.2490590">
        <ele>120.0</ele>
        <time>2020-02-21T13:11:51Z</time>
      </trkpt>
      <trkpt lat="38.8616010" lon="1.2490670">
        <ele>120.0</ele>
        <time>2020-02-21T13:11:52Z</time>
      </trkpt>
      <trkpt lat="38.8615860" lon="1.2490800">
        <ele>120.0</ele>
        <time>2020-02-21T13:11:53Z</time>
      </trkpt>
      <trkpt lat="38.8615780" lon="1.2490860">
        <ele>120.1</ele>
        <time>2020-02-21T13:11:54Z</time>
      </trkpt>
      <trkpt lat="38.8615590" lon="1.2490950">
        <ele>120.1</ele>
        <time>2020-02-21T13:11:55Z</time>
      </trkpt>
      <trkpt lat="38.8615510" lon="1.2491010">
        <ele>120.2</ele>
        <time>2020-02-21T13:11:56Z</time>
      </trkpt>
      <trkpt lat="38.8615430" lon="1.2491080">
        <ele>120.2</ele>
        <time>2020-02-21T13:11:57Z</time>
      </trkpt>
      <trkpt lat="38.8615320" lon="1.2491210">
        <ele>120.2</ele>
        <time>2020-02-21T13:11:58Z</time>
      </trkpt>
      <trkpt lat="38.8615230" lon="1.2491360">
        <ele>120.3</ele>
        <time>2020-02-21T13:11:59Z</time>
      </trkpt>
      <trkpt lat="38.8615100" lon="1.2491480">
        <ele>120.4</ele>
        <time>2020-02-21T13:12:00Z</time>
      </trkpt>
      <trkpt lat="38.8614950" lon="1.2491650">
        <ele>120.5</ele>
        <time>2020-02-21T13:12:01Z</time>
      </trkpt>
      <trkpt lat="38.8614860" lon="1.2491790">
        <ele>120.6</ele>
        <time>2020-02-21T13:12:02Z</time>
      </trkpt>
      <trkpt lat="38.8614840" lon="1.2491980">
        <ele>120.6</ele>
        <time>2020-02-21T13:12:03Z</time>
      </trkpt>
      <trkpt lat="38.8614710" lon="1.2492390">
        <ele>120.8</ele>
        <time>2020-02-21T13:12:04Z</time>
      </trkpt>
      <trkpt lat="38.8614680" lon="1.2492570">
        <ele>120.9</ele>
        <time>2020-02-21T13:12:05Z</time>
      </trkpt>
      <trkpt lat="38.8614660" lon="1.2492760">
        <ele>121.0</ele>
        <time>2020-02-21T13:12:06Z</time>
      </trkpt>
      <trkpt lat="38.8614610" lon="1.2492990">
        <ele>121.1</ele>
        <time>2020-02-21T13:12:07Z</time>
      </trkpt>
      <trkpt lat="38.8614330" lon="1.2493250">
        <ele>121.3</ele>
        <time>2020-02-21T13:12:08Z</time>
      </trkpt>
      <trkpt lat="38.8614250" lon="1.2493350">
        <ele>121.4</ele>
        <time>2020-02-21T13:12:09Z</time>
      </trkpt>
      <trkpt lat="38.8614140" lon="1.2493460">
        <ele>121.4</ele>
        <time>2020-02-21T13:12:10Z</time>
      </trkpt>
      <trkpt lat="38.8614040" lon="1.2493620">
        <ele>121.5</ele>
        <time>2020-02-21T13:12:11Z</time>
      </trkpt>
      <trkpt lat="38.8613850" lon="1.2493830">
        <ele>121.7</ele>
        <time>2020-02-21T13:12:12Z</time>
      </trkpt>
      <trkpt lat="38.8613760" lon="1.2493890">
        <ele>121.8</ele>
        <time>2020-02-21T13:12:13Z</time>
      </trkpt>
      <trkpt lat="38.8613660" lon="1.2493960">
        <ele>121.9</ele>
        <time>2020-02-21T13:12:14Z</time>
      </trkpt>
      <trkpt lat="38.8613540" lon="1.2494110">
        <ele>122.0</ele>
        <time>2020-02-21T13:12:15Z</time>
      </trkpt>
      <trkpt lat="38.8613380" lon="1.2494190">
        <ele>122.2</ele>
        <time>2020-02-21T13:12:16Z</time>
      </trkpt>
      <trkpt lat="38.8613240" lon="1.2494300">
        <ele>122.4</ele>
        <time>2020-02-21T13:12:17Z</time>
      </trkpt>
      <trkpt lat="38.8613130" lon="1.2494420">
        <ele>122.5</ele>
        <time>2020-02-21T13:12:18Z</time>
      </trkpt>
      <trkpt lat="38.8613000" lon="1.2494540">
        <ele>122.7</ele>
        <time>2020-02-21T13:12:19Z</time>
      </trkpt>
      <trkpt lat="38.8612940" lon="1.2494720">
        <ele>122.9</ele>
        <time>2020-02-21T13:12:20Z</time>
      </trkpt>
      <trkpt lat="38.8612900" lon="1.2494820">
        <ele>123.0</ele>
        <time>2020-02-21T13:12:21Z</time>
      </trkpt>
      <trkpt lat="38.8612810" lon="1.2494820">
        <ele>123.1</ele>
        <time>2020-02-21T13:12:22Z</time>
      </trkpt>
      <trkpt lat="38.8612830" lon="1.2494850">
        <ele>123.1</ele>
        <time>2020-02-21T13:12:23Z</time>
      </trkpt>
      <trkpt lat="38.8612860" lon="1.2494920">
        <ele>123.2</ele>
        <time>2020-02-21T13:12:24Z</time>
      </trkpt>
      <trkpt lat="38.8612860" lon="1.2494920">
        <ele>123.2</ele>
        <time>2020-02-21T13:12:25Z</time>
      </trkpt>
      <trkpt lat="38.8612840" lon="1.2494940">
        <ele>123.2</ele>
        <time>2020-02-21T13:12:26Z</time>
      </trkpt>
      <trkpt lat="38.8612850" lon="1.2494930">
        <ele>123.2</ele>
        <time>2020-02-21T13:12:27Z</time>
      </trkpt>
      <trkpt lat="38.8612850" lon="1.2494930">
        <ele>123.2</ele>
        <time>2020-02-21T13:12:28Z</time>
      </trkpt>
      <trkpt lat="38.8612820" lon="1.2494880">
        <ele>123.3</ele>
        <time>2020-02-21T13:12:29Z</time>
      </trkpt>
      <trkpt lat="38.8612780" lon="1.2494910">
        <ele>123.4</ele>
        <time>2020-02-21T13:12:30Z</time>
      </trkpt>
      <trkpt lat="38.8612710" lon="1.2494800">
        <ele>123.5</ele>
        <time>2020-02-21T13:12:31Z</time>
      </trkpt>
      <trkpt lat="38.8612680" lon="1.2494810">
        <ele>123.5</ele>
        <time>2020-02-21T13:12:32Z</time>
      </trkpt>
      <trkpt lat="38.8612670" lon="1.2494870">
        <ele>123.6</ele>
        <time>2020-02-21T13:12:33Z</time>
      </trkpt>
      <trkpt lat="38.8612640" lon="1.2494850">
        <ele>123.6</ele>
        <time>2020-02-21T13:12:34Z</time>
      </trkpt>
      <trkpt lat="38.8612600" lon="1.2494910">
        <ele>123.7</ele>
        <time>2020-02-21T13:12:35Z</time>
      </trkpt>
      <trkpt lat="38.8612520" lon="1.2494970">
        <ele>123.8</ele>
        <time>2020-02-21T13:12:36Z</time>
      </trkpt>
      <trkpt lat="38.8612390" lon="1.2495050">
        <ele>124.0</ele>
        <time>2020-02-21T13:12:37Z</time>
      </trkpt>
      <trkpt lat="38.8612250" lon="1.2495140">
        <ele>124.2</ele>
        <time>2020-02-21T13:12:38Z</time>
      </trkpt>
      <trkpt lat="38.8612160" lon="1.2495180">
        <ele>124.4</ele>
        <time>2020-02-21T13:12:39Z</time>
      </trkpt>
      <trkpt lat="38.8612120" lon="1.2495210">
        <ele>124.4</ele>
        <time>2020-02-21T13:12:40Z</time>
      </trkpt>
      <trkpt lat="38.8612040" lon="1.2495220">
        <ele>124.6</ele>
        <time>2020-02-21T13:12:41Z</time>
      </trkpt>
      <trkpt lat="38.8611960" lon="1.2495290">
        <ele>124.7</ele>
        <time>2020-02-21T13:12:42Z</time>
      </trkpt>
      <trkpt lat="38.8611890" lon="1.2495330">
        <ele>124.8</ele>
        <time>2020-02-21T13:12:43Z</time>
      </trkpt>
      <trkpt lat="38.8611820" lon="1.2495400">
        <ele>125.0</ele>
        <time>2020-02-21T13:12:44Z</time>
      </trkpt>
      <trkpt lat="38.8611620" lon="1.2495500">
        <ele>125.3</ele>
        <time>2020-02-21T13:12:45Z</time>
      </trkpt>
      <trkpt lat="38.8611560" lon="1.2495570">
        <ele>125.4</ele>
        <time>2020-02-21T13:12:46Z</time>
      </trkpt>
      <trkpt lat="38.8611470" lon="1.2495580">
        <ele>125.6</ele>
        <time>2020-02-21T13:12:47Z</time>
      </trkpt>
      <trkpt lat="38.8611380" lon="1.2495570">
        <ele>125.7</ele>
        <time>2020-02-21T13:12:48Z</time>
      </trkpt>
      <trkpt lat="38.8611350" lon="1.2495560">
        <ele>125.8</ele>
        <time>2020-02-21T13:12:49Z</time>
      </trkpt>
      <trkpt lat="38.8611310" lon="1.2495550">
        <ele>125.8</ele>
        <time>2020-02-21T13:12:50Z</time>
      </trkpt>
      <trkpt lat="38.8611250" lon="1.2495550">
        <ele>125.9</ele>
        <time>2020-02-21T13:12:51Z</time>
      </trkpt>
      <trkpt lat="38.8611140" lon="1.2495500">
        <ele>126.1</ele>
        <time>2020-02-21T13:12:52Z</time>
      </trkpt>
      <trkpt lat="38.8611020" lon="1.2495560">
        <ele>126.3</ele>
        <time>2020-02-21T13:12:53Z</time>
      </trkpt>
      <trkpt lat="38.8610900" lon="1.2495620">
        <ele>126.5</ele>
        <time>2020-02-21T13:12:54Z</time>
      </trkpt>
      <trkpt lat="38.8610950" lon="1.2495860">
        <ele>126.8</ele>
        <time>2020-02-21T13:12:55Z</time>
      </trkpt>
      <trkpt lat="38.8610930" lon="1.2495860">
        <ele>126.8</ele>
        <time>2020-02-21T13:12:56Z</time>
      </trkpt>
      <trkpt lat="38.8610870" lon="1.2495840">
        <ele>126.9</ele>
        <time>2020-02-21T13:12:57Z</time>
      </trkpt>
      <trkpt lat="38.8610700" lon="1.2495760">
        <ele>127.2</ele>
        <time>2020-02-21T13:12:58Z</time>
      </trkpt>
      <trkpt lat="38.8610540" lon="1.2495610">
        <ele>127.5</ele>
        <time>2020-02-21T13:12:59Z</time>
      </trkpt>
      <trkpt lat="38.8610490" lon="1.2495540">
        <ele>127.6</ele>
        <time>2020-02-21T13:13:00Z</time>
      </trkpt>
      <trkpt lat="38.8610560" lon="1.2495590">
        <ele>127.7</ele>
        <time>2020-02-21T13:13:01Z</time>
      </trkpt>
      <trkpt lat="38.8610550" lon="1.2495560">
        <ele>127.8</ele>
        <time>2020-02-21T13:13:02Z</time>
      </trkpt>
      <trkpt lat="38.8610600" lon="1.2495580">
        <ele>127.8</ele>
        <time>2020-02-21T13:13:03Z</time>
      </trkpt>
      <trkpt lat="38.8610710" lon="1.2495770">
        <ele>128.1</ele>
        <time>2020-02-21T13:13:04Z</time>
      </trkpt>
      <trkpt lat="38.8610710" lon="1.2495750">
        <ele>128.1</ele>
        <time>2020-02-21T13:13:05Z</time>
      </trkpt>
      <trkpt lat="38.8610620" lon="1.2495800">
        <ele>128.3</ele>
        <time>2020-02-21T13:13:06Z</time>
      </trkpt>
      <trkpt lat="38.8610610" lon="1.2495800">
        <ele>128.3</ele>
        <time>2020-02-21T13:13:07Z</time>
      </trkpt>
      <trkpt lat="38.8610610" lon="1.2495790">
        <ele>128.3</ele>
        <time>2020-02-21T13:13:08Z</time>
      </trkpt>
      <trkpt lat="38.8610590" lon="1.2495790">
        <ele>128.3</ele>
        <time>2020-02-21T13:13:09Z</time>
      </trkpt>
      <trkpt lat="38.8610580" lon="1.2495760">
        <ele>128.4</ele>
        <time>2020-02-21T13:13:10Z</time>
      </trkpt>
      <trkpt lat="38.8610530" lon="1.2495620">
        <ele>128.5</ele>
        <time>2020-02-21T13:13:11Z</time>
      </trkpt>
      <trkpt lat="38.8610470" lon="1.2495500">
        <ele>128.7</ele>
        <time>2020-02-21T13:13:12Z</time>
      </trkpt>
      <trkpt lat="38.8610350" lon="1.2495330">
        <ele>128.9</ele>
        <time>2020-02-21T13:13:13Z</time>
      </trkpt>
      <trkpt lat="38.8610350" lon="1.2495160">
        <ele>129.1</ele>
        <time>2020-02-21T13:13:14Z</time>
      </trkpt>
      <trkpt lat="38.8610300" lon="1.2495000">
        <ele>129.3</ele>
        <time>2020-02-21T13:13:15Z</time>
      </trkpt>
      <trkpt lat="38.8610280" lon="1.2494910">
        <ele>129.4</ele>
        <time>2020-02-21T13:13:16Z</time>
      </trkpt>
      <trkpt lat="38.8610210" lon="1.2494750">
        <ele>129.6</ele>
        <time>2020-02-21T13:13:17Z</time>
      </trkpt>
      <trkpt lat="38.8610240" lon="1.2494680">
        <ele>129.7</ele>
        <time>2020-02-21T13:13:18Z</time>
      </trkpt>
      <trkpt lat="38.8610320" lon="1.2494620">
        <ele>129.8</ele>
        <time>2020-02-21T13:13:19Z</time>
      </trkpt>
      <trkpt lat="38.8610340" lon="1.2494560">
        <ele>129.9</ele>
        <time>2020-02-21T13:13:20Z</time>
      </trkpt>
      <trkpt lat="38.8610430" lon="1.2494250">
        <ele>130.2</ele>
        <time>2020-02-21T13:13:21Z</time>
      </trkpt>
      <trkpt lat="38.8610440" lon="1.2494180">
        <ele>130.3</ele>
        <time>2020-02-21T13:13:22Z</time>
      </trkpt>
      <trkpt lat="38.8610450" lon="1.2494100">
        <ele>130.4</ele>
        <time>2020-02-21T13:13:23Z</time>
      </trkpt>
      <trkpt lat="38.8610460" lon="1.2494000">
        <ele>130.5</ele>
        <time>2020-02-21T13:13:24Z</time>
      </trkpt>
      <trkpt lat="38.8610430" lon="1.2493980">
        <ele>130.5</ele>
        <time>2020-02-21T13:13:25Z</time>
      </trkpt>
      <trkpt lat="38.8610470" lon="1.2493900">
        <ele>130.6</ele>
        <time>2020-02-21T13:13:26Z</time>
      </trkpt>
      <trkpt lat="38.8610500" lon="1.2493790">
        <ele>130.7</ele>
        <time>2020-02-21T13:13:27Z</time>
      </trkpt>
      <trkpt lat="38.8610450" lon="1.2493660">
        <ele>130.9</ele>
        <time>2020-02-21T13:13:28Z</time>
      </trkpt>
      <trkpt lat="38.8610390" lon="1.2493440">
        <ele>131.1</ele>
        <time>2020-02-21T13:13:29Z</time>
      </trkpt>
      <trkpt lat="38.8610380" lon="1.2493350">
        <ele>131.2</ele>
        <time>2020-02-21T13:13:30Z</time>
      </trkpt>
      <trkpt lat="38.8610360" lon="1.2493270">
        <ele>131.3</ele>
        <time>2020-02-21T13:13:31Z</time>
      </trkpt>
      <trkpt lat="38.8610350" lon="1.2493180">
        <ele>131.4</ele>
        <time>2020-02-21T13:13:32Z</time>
      </trkpt>
      <trkpt lat="38.8610340" lon="1.2493100">
        <ele>131.4</ele>
        <time>2020-02-21T13:13:33Z</time>
      </trkpt>
      <trkpt lat="38.8610350" lon="1.2492920">
        <ele>131.6</ele>
        <time>2020-02-21T13:13:34Z</time>
      </trkpt>
      <trkpt lat="38.8610340" lon="1.2492800">
        <ele>131.7</ele>
        <time>2020-02-21T13:13:35Z</time>
      </trkpt>
      <trkpt lat="38.8610310" lon="1.2492730">
        <ele>131.7</ele>
        <time>2020-02-21T13:13:36Z</time>
      </trkpt>
      <trkpt lat="38.8610280" lon="1.2492700">
        <ele>131.8</ele>
        <time>2020-02-21T13:13:37Z</time>
      </trkpt>
      <trkpt lat="38.8610290" lon="1.2492620">
        <ele>131.8</ele>
        <time>2020-02-21T13:13:38Z</time>
      </trkpt>
      <trkpt lat="38.8610310" lon="1.2492550">
        <ele>131.9</ele>
        <time>2020-02-21T13:13:39Z</time>
      </trkpt>
      <trkpt lat="38.8610330" lon="1.2492440">
        <ele>132.0</ele>
        <time>2020-02-21T13:13:40Z</time>
      </trkpt>
      <trkpt lat="38.8610330" lon="1.2492400">
        <ele>132.0</ele>
        <time>2020-02-21T13:13:41Z</time>
      </trkpt>
      <trkpt lat="38.8610360" lon="1.2492300">
        <ele>132.1</ele>
        <time>2020-02-21T13:13:42Z</time>
      </trkpt>
      <trkpt lat="38.8610390" lon="1.2492210">
        <ele>132.1</ele>
        <time>2020-02-21T13:13:43Z</time>
      </trkpt>
      <trkpt lat="38.8610460" lon="1.2492040">
        <ele>132.3</ele>
        <time>2020-02-21T13:13:44Z</time>
      </trkpt>
      <trkpt lat="38.8610570" lon="1.2491980">
        <ele>132.4</ele>
        <time>2020-02-21T13:13:45Z</time>
      </trkpt>
      <trkpt lat="38.8610700" lon="1.2491860">
        <ele>132.5</ele>
        <time>2020-02-21T13:13:46Z</time>
      </trkpt>
      <trkpt lat="38.8610740" lon="1.2491770">
        <ele>132.6</ele>
        <time>2020-02-21T13:13:47Z</time>
      </trkpt>
      <trkpt lat="38.8610770" lon="1.2491690">
        <ele>132.7</ele>
        <time>2020-02-21T13:13:48Z</time>
      </trkpt>
      <trkpt lat="38.8610810" lon="1.2491600">
        <ele>132.7</ele>
        <time>2020-02-21T13:13:49Z</time>
      </trkpt>
      <trkpt lat="38.8610850" lon="1.2491510">
        <ele>132.8</ele>
        <time>2020-02-21T13:13:50Z</time>
      </trkpt>
      <trkpt lat="38.8610880" lon="1.2491460">
        <ele>132.9</ele>
        <time>2020-02-21T13:13:51Z</time>
      </trkpt>
      <trkpt lat="38.8610900" lon="1.2491320">
        <ele>133.0</ele>
        <time>2020-02-21T13:13:52Z</time>
      </trkpt>
      <trkpt lat="38.8610950" lon="1.2491080">
        <ele>133.2</ele>
        <time>2020-02-21T13:13:53Z</time>
      </trkpt>
      <trkpt lat="38.8611060" lon="1.2490850">
        <ele>133.4</ele>
        <time>2020-02-21T13:13:54Z</time>
      </trkpt>
      <trkpt lat="38.8611130" lon="1.2490710">
        <ele>133.6</ele>
        <time>2020-02-21T13:13:55Z</time>
      </trkpt>
      <trkpt lat="38.8611200" lon="1.2490580">
        <ele>133.7</ele>
        <time>2020-02-21T13:13:56Z</time>
      </trkpt>
      <trkpt lat="38.8611310" lon="1.2490460">
        <ele>133.9</ele>
        <time>2020-02-21T13:13:57Z</time>
      </trkpt>
      <trkpt lat="38.8611400" lon="1.2490360">
        <ele>134.0</ele>
        <time>2020-02-21T13:13:58Z</time>
      </trkpt>
      <trkpt lat="38.8611460" lon="1.2490290">
        <ele>134.2</ele>
        <time>2020-02-21T13:13:59Z</time>
      </trkpt>
      <trkpt lat="38.8611470" lon="1.2490240">
        <ele>134.2</ele>
        <time>2020-02-21T13:14:00Z</time>
      </trkpt>
      <trkpt lat="38.8611470" lon="1.2490260">
        <ele>134.2</ele>
        <time>2020-02-21T13:14:01Z</time>
      </trkpt>
      <trkpt lat="38.8611480" lon="1.2490240">
        <ele>134.3</ele>
        <time>2020-02-21T13:14:02Z</time>
      </trkpt>
      <trkpt lat="38.8611480" lon="1.2490240">
        <ele>134.3</ele>
        <time>2020-02-21T13:14:03Z</time>
      </trkpt>
      <trkpt lat="38.8611480" lon="1.2490230">
        <ele>134.3</ele>
        <time>2020-02-21T13:14:04Z</time>
      </trkpt>
      <trkpt lat="38.8611480" lon="1.2490240">
        <ele>134.3</ele>
        <time>2020-02-21T13:14:05Z</time>
      </trkpt>
      <trkpt lat="38.8611480" lon="1.2490220">
        <ele>134.3</ele>
        <time>2020-02-21T13:14:06Z</time>
      </trkpt>
      <trkpt lat="38.8611480" lon="1.2490210">
        <ele>134.3</ele>
        <time>2020-02-21T13:14:07Z</time>
      </trkpt>
      <trkpt lat="38.8611480" lon="1.2490200">
        <ele>134.3</ele>
        <time>2020-02-21T13:14:08Z</time>
      </trkpt>
      <trkpt lat="38.8611470" lon="1.2490200">
        <ele>134.3</ele>
        <time>2020-02-21T13:14:09Z</time>
      </trkpt>
      <trkpt lat="38.8611980" lon="1.2489580">
        <ele>135.9</ele>
        <time>2020-02-21T13:15:58Z</time>
      </trkpt>
      <trkpt lat="38.8612000" lon="1.2489490">
        <ele>136.0</ele>
        <time>2020-02-21T13:15:59Z</time>
      </trkpt>
      <trkpt lat="38.8611980" lon="1.2489400">
        <ele>136.1</ele>
        <time>2020-02-21T13:16:00Z</time>
      </trkpt>
      <trkpt lat="38.8612050" lon="1.2489340">
        <ele>136.2</ele>
        <time>2020-02-21T13:16:01Z</time>
      </trkpt>
      <trkpt lat="38.8612110" lon="1.2489250">
        <ele>136.3</ele>
        <time>2020-02-21T13:16:02Z</time>
      </trkpt>
      <trkpt lat="38.8612220" lon="1.2489180">
        <ele>136.5</ele>
        <time>2020-02-21T13:16:03Z</time>
      </trkpt>
      <trkpt lat="38.8612290" lon="1.2489100">
        <ele>136.6</ele>
        <time>2020-02-21T13:16:04Z</time>
      </trkpt>
      <trkpt lat="38.8612290" lon="1.2488850">
        <ele>136.9</ele>
        <time>2020-02-21T13:16:05Z</time>
      </trkpt>
      <trkpt lat="38.8612350" lon="1.2488750">
        <ele>137.1</ele>
        <time>2020-02-21T13:16:06Z</time>
      </trkpt>
      <trkpt lat="38.8612400" lon="1.2488650">
        <ele>137.2</ele>
        <time>2020-02-21T13:16:07Z</time>
      </trkpt>
      <trkpt lat="38.8612460" lon="1.2488460">
        <ele>137.5</ele>
        <time>2020-02-21T13:16:08Z</time>
      </trkpt>
      <trkpt lat="38.8612500" lon="1.2488270">
        <ele>137.8</ele>
        <time>2020-02-21T13:16:09Z</time>
      </trkpt>
      <trkpt lat="38.8612650" lon="1.2488070">
        <ele>138.1</ele>
        <time>2020-02-21T13:16:10Z</time>
      </trkpt>
      <trkpt lat="38.8612690" lon="1.2487970">
        <ele>138.3</ele>
        <time>2020-02-21T13:16:11Z</time>
      </trkpt>
      <trkpt lat="38.8612730" lon="1.2487880">
        <ele>138.4</ele>
        <time>2020-02-21T13:16:12Z</time>
      </trkpt>
      <trkpt lat="38.8612840" lon="1.2487730">
        <ele>138.7</ele>
        <time>2020-02-21T13:16:13Z</time>
      </trkpt>
      <trkpt lat="38.8612920" lon="1.2487590">
        <ele>138.9</ele>
        <time>2020-02-21T13:16:14Z</time>
      </trkpt>
      <trkpt lat="38.8613040" lon="1.2487340">
        <ele>139.3</ele>
        <time>2020-02-21T13:16:15Z</time>
      </trkpt>
      <trkpt lat="38.8613060" lon="1.2487240">
        <ele>139.5</ele>
        <time>2020-02-21T13:16:16Z</time>
      </trkpt>
      <trkpt lat="38.8613090" lon="1.2487130">
        <ele>139.7</ele>
        <time>2020-02-21T13:16:17Z</time>
      </trkpt>
      <trkpt lat="38.8613170" lon="1.2486970">
        <ele>140.0</ele>
        <time>2020-02-21T13:16:18Z</time>
      </trkpt>
      <trkpt lat="38.8613230" lon="1.2486790">
        <ele>140.3</ele>
        <time>2020-02-21T13:16:19Z</time>
      </trkpt>
      <trkpt lat="38.8613300" lon="1.2486600">
        <ele>140.6</ele>
        <time>2020-02-21T13:16:20Z</time>
      </trkpt>
      <trkpt lat="38.8613400" lon="1.2486510">
        <ele>140.8</ele>
        <time>2020-02-21T13:16:21Z</time>
      </trkpt>
      <trkpt lat="38.8613460" lon="1.2486360">
        <ele>141.1</ele>
        <time>2020-02-21T13:16:22Z</time>
      </trkpt>
      <trkpt lat="38.8613540" lon="1.2486190">
        <ele>141.4</ele>
        <time>2020-02-21T13:16:23Z</time>
      </trkpt>
      <trkpt lat="38.8613710" lon="1.2486070">
        <ele>141.8</ele>
        <time>2020-02-21T13:16:24Z</time>
      </trkpt>
      <trkpt lat="38.8613790" lon="1.2485880">
        <ele>142.1</ele>
        <time>2020-02-21T13:16:25Z</time>
      </trkpt>
      <trkpt lat="38.8613840" lon="1.2485600">
        <ele>142.5</ele>
        <time>2020-02-21T13:16:26Z</time>
      </trkpt>
      <trkpt lat="38.8613880" lon="1.2485500">
        <ele>142.7</ele>
        <time>2020-02-21T13:16:27Z</time>
      </trkpt>
      <trkpt lat="38.8613910" lon="1.2485410">
        <ele>142.8</ele>
        <time>2020-02-21T13:16:28Z</time>
      </trkpt>
      <trkpt lat="38.8613910" lon="1.2485220">
        <ele>143.1</ele>
        <time>2020-02-21T13:16:29Z</time>
      </trkpt>
      <trkpt lat="38.8614010" lon="1.2485060">
        <ele>143.5</ele>
        <time>2020-02-21T13:16:30Z</time>
      </trkpt>
      <trkpt lat="38.8614040" lon="1.2484890">
        <ele>143.7</ele>
        <time>2020-02-21T13:16:31Z</time>
      </trkpt>
      <trkpt lat="38.8614080" lon="1.2484780">
        <ele>144.0</ele>
        <time>2020-02-21T13:16:32Z</time>
      </trkpt>
      <trkpt lat="38.8614090" lon="1.2484660">
        <ele>144.2</ele>
        <time>2020-02-21T13:16:33Z</time>
      </trkpt>
      <trkpt lat="38.8614160" lon="1.2484500">
        <ele>144.5</ele>
        <time>2020-02-21T13:16:34Z</time>
      </trkpt>
      <trkpt lat="38.8614250" lon="1.2484330">
        <ele>144.8</ele>
        <time>2020-02-21T13:16:35Z</time>
      </trkpt>
      <trkpt lat="38.8614340" lon="1.2484180">
        <ele>145.1</ele>
        <time>2020-02-21T13:16:36Z</time>
      </trkpt>
      <trkpt lat="38.8614350" lon="1.2483980">
        <ele>145.5</ele>
        <time>2020-02-21T13:16:37Z</time>
      </trkpt>
      <trkpt lat="38.8614350" lon="1.2483820">
        <ele>145.8</ele>
        <time>2020-02-21T13:16:38Z</time>
      </trkpt>
      <trkpt lat="38.8614380" lon="1.2483620">
        <ele>146.2</ele>
        <time>2020-02-21T13:16:39Z</time>
      </trkpt>
      <trkpt lat="38.8614470" lon="1.2483370">
        <ele>146.6</ele>
        <time>2020-02-21T13:16:40Z</time>
      </trkpt>
      <trkpt lat="38.8614510" lon="1.2483280">
        <ele>146.8</ele>
        <time>2020-02-21T13:16:41Z</time>
      </trkpt>
      <trkpt lat="38.8614560" lon="1.2483190">
        <ele>147.0</ele>
        <time>2020-02-21T13:16:42Z</time>
      </trkpt>
      <trkpt lat="38.8614770" lon="1.2482930">
        <ele>147.6</ele>
        <time>2020-02-21T13:16:43Z</time>
      </trkpt>
      <trkpt lat="38.8614830" lon="1.2482820">
        <ele>147.9</ele>
        <time>2020-02-21T13:16:44Z</time>
      </trkpt>
      <trkpt lat="38.8614990" lon="1.2482660">
        <ele>148.3</ele>
        <time>2020-02-21T13:16:45Z</time>
      </trkpt>
      <trkpt lat="38.8615090" lon="1.2482520">
        <ele>148.6</ele>
        <time>2020-02-21T13:16:46Z</time>
      </trkpt>
      <trkpt lat="38.8615260" lon="1.2482360">
        <ele>149.1</ele>
        <time>2020-02-21T13:16:47Z</time>
      </trkpt>
      <trkpt lat="38.8615330" lon="1.2482270">
        <ele>149.3</ele>
        <time>2020-02-21T13:16:48Z</time>
      </trkpt>
      <trkpt lat="38.8615390" lon="1.2482190">
        <ele>149.5</ele>
        <time>2020-02-21T13:16:49Z</time>
      </trkpt>
      <trkpt lat="38.8615500" lon="1.2482100">
        <ele>149.8</ele>
        <time>2020-02-21T13:16:50Z</time>
      </trkpt>
      <trkpt lat="38.8615690" lon="1.2482120">
        <ele>150.3</ele>
        <time>2020-02-21T13:16:51Z</time>
      </trkpt>
      <trkpt lat="38.8615790" lon="1.2482030">
        <ele>150.5</ele>
        <time>2020-02-21T13:16:52Z</time>
      </trkpt>
      <trkpt lat="38.8615840" lon="1.2481830">
        <ele>150.9</ele>
        <time>2020-02-21T13:16:53Z</time>
      </trkpt>
      <trkpt lat="38.8615920" lon="1.2481680">
        <ele>151.2</ele>
        <time>2020-02-21T13:16:54Z</time>
      </trkpt>
      <trkpt lat="38.8615990" lon="1.2481510">
        <ele>151.5</ele>
        <time>2020-02-21T13:16:55Z</time>
      </trkpt>
      <trkpt lat="38.8616000" lon="1.2481280">
        <ele>151.9</ele>
        <time>2020-02-21T13:16:56Z</time>
      </trkpt>
      <trkpt lat="38.8616040" lon="1.2481090">
        <ele>152.2</ele>
        <time>2020-02-21T13:16:57Z</time>
      </trkpt>
      <trkpt lat="38.8616020" lon="1.2480880">
        <ele>152.6</ele>
        <time>2020-02-21T13:16:58Z</time>
      </trkpt>
      <trkpt lat="38.8616050" lon="1.2480780">
        <ele>152.8</ele>
        <time>2020-02-21T13:16:59Z</time>
      </trkpt>
      <trkpt lat="38.8616080" lon="1.2480640">
        <ele>153.1</ele>
        <time>2020-02-21T13:17:00Z</time>
      </trkpt>
      <trkpt lat="38.8616090" lon="1.2480440">
        <ele>153.4</ele>
        <time>2020-02-21T13:17:01Z</time>
      </trkpt>
      <trkpt lat="38.8616150" lon="1.2480280">
        <ele>153.7</ele>
        <time>2020-02-21T13:17:02Z</time>
      </trkpt>
      <trkpt lat="38.8616180" lon="1.2480070">
        <ele>154.0</ele>
        <time>2020-02-21T13:17:03Z</time>
      </trkpt>
      <trkpt lat="38.8616240" lon="1.2479930">
        <ele>154.3</ele>
        <time>2020-02-21T13:17:04Z</time>
      </trkpt>
      <trkpt lat="38.8616330" lon="1.2479890">
        <ele>154.5</ele>
        <time>2020-02-21T13:17:05Z</time>
      </trkpt>
      <trkpt lat="38.8616370" lon="1.2479810">
        <ele>154.6</ele>
        <time>2020-02-21T13:17:06Z</time>
      </trkpt>
      <trkpt lat="38.8616310" lon="1.2479700">
        <ele>154.8</ele>
        <time>2020-02-21T13:17:07Z</time>
      </trkpt>
      <trkpt lat="38.8616350" lon="1.2479580">
        <ele>155.0</ele>
        <time>2020-02-21T13:17:08Z</time>
      </trkpt>
      <trkpt lat="38.8616470" lon="1.2479340">
        <ele>155.5</ele>
        <time>2020-02-21T13:17:09Z</time>
      </trkpt>
      <trkpt lat="38.8616530" lon="1.2479240">
        <ele>155.7</ele>
        <time>2020-02-21T13:17:10Z</time>
      </trkpt>
      <trkpt lat="38.8616580" lon="1.2479150">
        <ele>155.8</ele>
        <time>2020-02-21T13:17:11Z</time>
      </trkpt>
      <trkpt lat="38.8616650" lon="1.2479040">
        <ele>156.0</ele>
        <time>2020-02-21T13:17:12Z</time>
      </trkpt>
      <trkpt lat="38.8616710" lon="1.2478890">
        <ele>156.3</ele>
        <time>2020-02-21T13:17:13Z</time>
      </trkpt>
      <trkpt lat="38.8616760" lon="1.2478770">
        <ele>156.5</ele>
        <time>2020-02-21T13:17:14Z</time>
      </trkpt>
      <trkpt lat="38.8616830" lon="1.2478600">
        <ele>156.8</ele>
        <time>2020-02-21T13:17:15Z</time>
      </trkpt>
      <trkpt lat="38.8616930" lon="1.2478450">
        <ele>157.0</ele>
        <time>2020-02-21T13:17:16Z</time>
      </trkpt>
      <trkpt lat="38.8617100" lon="1.2478170">
        <ele>157.5</ele>
        <time>2020-02-21T13:17:17Z</time>
      </trkpt>
      <trkpt lat="38.8617120" lon="1.2478000">
        <ele>157.8</ele>
        <time>2020-02-21T13:17:18Z</time>
      </trkpt>
      <trkpt lat="38.8617230" lon="1.2477810">
        <ele>158.1</ele>
        <time>2020-02-21T13:17:19Z</time>
      </trkpt>
      <trkpt lat="38.8617380" lon="1.2477610">
        <ele>158.5</ele>
        <time>2020-02-21T13:17:20Z</time>
      </trkpt>
      <trkpt lat="38.8617420" lon="1.2477520">
        <ele>158.7</ele>
        <time>2020-02-21T13:17:21Z</time>
      </trkpt>
      <trkpt lat="38.8617460" lon="1.2477430">
        <ele>158.8</ele>
        <time>2020-02-21T13:17:22Z</time>
      </trkpt>
      <trkpt lat="38.8617660" lon="1.2477250">
        <ele>159.3</ele>
        <time>2020-02-21T13:17:23Z</time>
      </trkpt>
      <trkpt lat="38.8617740" lon="1.2477190">
        <ele>159.5</ele>
        <time>2020-02-21T13:17:24Z</time>
      </trkpt>
      <trkpt lat="38.8617820" lon="1.2477120">
        <ele>159.7</ele>
        <time>2020-02-21T13:17:25Z</time>
      </trkpt>
      <trkpt lat="38.8617820" lon="1.2477070">
        <ele>159.7</ele>
        <time>2020-02-21T13:17:26Z</time>
      </trkpt>
      <trkpt lat="38.8617910" lon="1.2476990">
        <ele>159.9</ele>
        <time>2020-02-21T13:17:27Z</time>
      </trkpt>
      <trkpt lat="38.8617930" lon="1.2476950">
        <ele>160.0</ele>
        <time>2020-02-21T13:17:28Z</time>
      </trkpt>
      <trkpt lat="38.8618030" lon="1.2476890">
        <ele>160.2</ele>
        <time>2020-02-21T13:17:29Z</time>
      </trkpt>
      <trkpt lat="38.8618120" lon="1.2476730">
        <ele>160.5</ele>
        <time>2020-02-21T13:17:30Z</time>
      </trkpt>
      <trkpt lat="38.8618160" lon="1.2476640">
        <ele>160.6</ele>
        <time>2020-02-21T13:17:31Z</time>
      </trkpt>
      <trkpt lat="38.8618200" lon="1.2476540">
        <ele>160.8</ele>
        <time>2020-02-21T13:17:32Z</time>
      </trkpt>
      <trkpt lat="38.8618240" lon="1.2476440">
        <ele>161.0</ele>
        <time>2020-02-21T13:17:33Z</time>
      </trkpt>
      <trkpt lat="38.8618290" lon="1.2476330">
        <ele>161.1</ele>
        <time>2020-02-21T13:17:34Z</time>
      </trkpt>
      <trkpt lat="38.8618360" lon="1.2476230">
        <ele>161.3</ele>
        <time>2020-02-21T13:17:35Z</time>
      </trkpt>
      <trkpt lat="38.8618480" lon="1.2476150">
        <ele>161.5</ele>
        <time>2020-02-21T13:17:36Z</time>
      </trkpt>
      <trkpt lat="38.8618590" lon="1.2475970">
        <ele>161.8</ele>
        <time>2020-02-21T13:17:37Z</time>
      </trkpt>
      <trkpt lat="38.8618600" lon="1.2475880">
        <ele>161.9</ele>
        <time>2020-02-21T13:17:38Z</time>
      </trkpt>
      <trkpt lat="38.8618650" lon="1.2475800">
        <ele>162.0</ele>
        <time>2020-02-21T13:17:39Z</time>
      </trkpt>
      <trkpt lat="38.8618760" lon="1.2475680">
        <ele>162.3</ele>
        <time>2020-02-21T13:17:40Z</time>
      </trkpt>
      <trkpt lat="38.8618930" lon="1.2475560">
        <ele>162.5</ele>
        <time>2020-02-21T13:17:41Z</time>
      </trkpt>
      <trkpt lat="38.8619110" lon="1.2475530">
        <ele>162.8</ele>
        <time>2020-02-21T13:17:42Z</time>
      </trkpt>
      <trkpt lat="38.8619220" lon="1.2475430">
        <ele>163.0</ele>
        <time>2020-02-21T13:17:43Z</time>
      </trkpt>
      <trkpt lat="38.8619420" lon="1.2475270">
        <ele>163.4</ele>
        <time>2020-02-21T13:17:44Z</time>
      </trkpt>
      <trkpt lat="38.8619510" lon="1.2475210">
        <ele>163.6</ele>
        <time>2020-02-21T13:17:45Z</time>
      </trkpt>
      <trkpt lat="38.8619600" lon="1.2475160">
        <ele>163.7</ele>
        <time>2020-02-21T13:17:46Z</time>
      </trkpt>
      <trkpt lat="38.8619740" lon="1.2475020">
        <ele>164.0</ele>
        <time>2020-02-21T13:17:47Z</time>
      </trkpt>
      <trkpt lat="38.8619870" lon="1.2474910">
        <ele>164.3</ele>
        <time>2020-02-21T13:17:48Z</time>
      </trkpt>
      <trkpt lat="38.8620070" lon="1.2474680">
        <ele>164.8</ele>
        <time>2020-02-21T13:17:49Z</time>
      </trkpt>
      <trkpt lat="38.8620190" lon="1.2474600">
        <ele>165.0</ele>
        <time>2020-02-21T13:17:50Z</time>
      </trkpt>
      <trkpt lat="38.8620300" lon="1.2474480">
        <ele>165.2</ele>
        <time>2020-02-21T13:17:51Z</time>
      </trkpt>
      <trkpt lat="38.8620370" lon="1.2474360">
        <ele>165.4</ele>
        <time>2020-02-21T13:17:52Z</time>
      </trkpt>
      <trkpt lat="38.8620500" lon="1.2474180">
        <ele>165.7</ele>
        <time>2020-02-21T13:17:53Z</time>
      </trkpt>
      <trkpt lat="38.8620550" lon="1.2473990">
        <ele>165.9</ele>
        <time>2020-02-21T13:17:54Z</time>
      </trkpt>
      <trkpt lat="38.8620760" lon="1.2473970">
        <ele>166.2</ele>
        <time>2020-02-21T13:17:55Z</time>
      </trkpt>
      <trkpt lat="38.8620850" lon="1.2473820">
        <ele>166.4</ele>
        <time>2020-02-21T13:17:56Z</time>
      </trkpt>
      <trkpt lat="38.8620930" lon="1.2473670">
        <ele>166.6</ele>
        <time>2020-02-21T13:17:57Z</time>
      </trkpt>
      <trkpt lat="38.8621100" lon="1.2473550">
        <ele>166.9</ele>
        <time>2020-02-21T13:17:58Z</time>
      </trkpt>
      <trkpt lat="38.8621240" lon="1.2473560">
        <ele>167.1</ele>
        <time>2020-02-21T13:17:59Z</time>
      </trkpt>
      <trkpt lat="38.8621510" lon="1.2473520">
        <ele>167.6</ele>
        <time>2020-02-21T13:18:00Z</time>
      </trkpt>
      <trkpt lat="38.8621660" lon="1.2473460">
        <ele>167.8</ele>
        <time>2020-02-21T13:18:01Z</time>
      </trkpt>
      <trkpt lat="38.8621800" lon="1.2473430">
        <ele>168.1</ele>
        <time>2020-02-21T13:18:02Z</time>
      </trkpt>
      <trkpt lat="38.8621930" lon="1.2473360">
        <ele>168.3</ele>
        <time>2020-02-21T13:18:03Z</time>
      </trkpt>
      <trkpt lat="38.8622170" lon="1.2473120">
        <ele>168.8</ele>
        <time>2020-02-21T13:18:04Z</time>
      </trkpt>
      <trkpt lat="38.8622410" lon="1.2472930">
        <ele>169.2</ele>
        <time>2020-02-21T13:18:05Z</time>
      </trkpt>
      <trkpt lat="38.8622550" lon="1.2472840">
        <ele>169.5</ele>
        <time>2020-02-21T13:18:06Z</time>
      </trkpt>
      <trkpt lat="38.8622690" lon="1.2472700">
        <ele>169.7</ele>
        <time>2020-02-21T13:18:07Z</time>
      </trkpt>
      <trkpt lat="38.8622950" lon="1.2472580">
        <ele>170.1</ele>
        <time>2020-02-21T13:18:08Z</time>
      </trkpt>
      <trkpt lat="38.8623040" lon="1.2472520">
        <ele>170.3</ele>
        <time>2020-02-21T13:18:09Z</time>
      </trkpt>
      <trkpt lat="38.8623180" lon="1.2472450">
        <ele>170.5</ele>
        <time>2020-02-21T13:18:10Z</time>
      </trkpt>
      <trkpt lat="38.8623310" lon="1.2472390">
        <ele>170.7</ele>
        <time>2020-02-21T13:18:11Z</time>
      </trkpt>
      <trkpt lat="38.8623590" lon="1.2472220">
        <ele>171.1</ele>
        <time>2020-02-21T13:18:12Z</time>
      </trkpt>
      <trkpt lat="38.8623670" lon="1.2472140">
        <ele>171.3</ele>
        <time>2020-02-21T13:18:13Z</time>
      </trkpt>
      <trkpt lat="38.8623830" lon="1.2472040">
        <ele>171.5</ele>
        <time>2020-02-21T13:18:14Z</time>
      </trkpt>
      <trkpt lat="38.8624020" lon="1.2472000">
        <ele>171.8</ele>
        <time>2020-02-21T13:18:15Z</time>
      </trkpt>
      <trkpt lat="38.8624180" lon="1.2471890">
        <ele>172.1</ele>
        <time>2020-02-21T13:18:16Z</time>
      </trkpt>
      <trkpt lat="38.8624330" lon="1.2471780">
        <ele>172.3</ele>
        <time>2020-02-21T13:18:17Z</time>
      </trkpt>
      <trkpt lat="38.8624490" lon="1.2471790">
        <ele>172.5</ele>
        <time>2020-02-21T13:18:18Z</time>
      </trkpt>
      <trkpt lat="38.8624580" lon="1.2471640">
        <ele>172.8</ele>
        <time>2020-02-21T13:18:19Z</time>
      </trkpt>
      <trkpt lat="38.8624720" lon="1.2471520">
        <ele>173.0</ele>
        <time>2020-02-21T13:18:20Z</time>
      </trkpt>
      <trkpt lat="38.8624840" lon="1.2471360">
        <ele>173.3</ele>
        <time>2020-02-21T13:18:21Z</time>
      </trkpt>
      <trkpt lat="38.8624940" lon="1.2471130">
        <ele>173.6</ele>
        <time>2020-02-21T13:18:22Z</time>
      </trkpt>
      <trkpt lat="38.8625070" lon="1.2471050">
        <ele>173.9</ele>
        <time>2020-02-21T13:18:23Z</time>
      </trkpt>
      <trkpt lat="38.8625270" lon="1.2471080">
        <ele>174.3</ele>
        <time>2020-02-21T13:18:24Z</time>
      </trkpt>
      <trkpt lat="38.8625380" lon="1.2471150">
        <ele>174.5</ele>
        <time>2020-02-21T13:18:25Z</time>
      </trkpt>
      <trkpt lat="38.8625490" lon="1.2471230">
        <ele>174.7</ele>
        <time>2020-02-21T13:18:26Z</time>
      </trkpt>
      <trkpt lat="38.8625750" lon="1.2471170">
        <ele>175.5</ele>
        <time>2020-02-21T13:18:27Z</time>
      </trkpt>
      <trkpt lat="38.8625850" lon="1.2471120">
        <ele>175.5</ele>
        <time>2020-02-21T13:18:28Z</time>
      </trkpt>
      <trkpt lat="38.8626040" lon="1.2470970">
        <ele>175.6</ele>
        <time>2020-02-21T13:18:29Z</time>
      </trkpt>
      <trkpt lat="38.8626140" lon="1.2470990">
        <ele>175.6</ele>
        <time>2020-02-21T13:18:30Z</time>
      </trkpt>
      <trkpt lat="38.8626230" lon="1.2471000">
        <ele>175.6</ele>
        <time>2020-02-21T13:18:31Z</time>
      </trkpt>
      <trkpt lat="38.8626390" lon="1.2471010">
        <ele>175.7</ele>
        <time>2020-02-21T13:18:32Z</time>
      </trkpt>
      <trkpt lat="38.8626510" lon="1.2471090">
        <ele>175.7</ele>
        <time>2020-02-21T13:18:33Z</time>
      </trkpt>
      <trkpt lat="38.8626640" lon="1.2471140">
        <ele>175.7</ele>
        <time>2020-02-21T13:18:34Z</time>
      </trkpt>
      <trkpt lat="38.8626850" lon="1.2471190">
        <ele>175.8</ele>
        <time>2020-02-21T13:18:35Z</time>
      </trkpt>
      <trkpt lat="38.8627140" lon="1.2471190">
        <ele>175.9</ele>
        <time>2020-02-21T13:18:36Z</time>
      </trkpt>
      <trkpt lat="38.8627220" lon="1.2471180">
        <ele>175.9</ele>
        <time>2020-02-21T13:18:37Z</time>
      </trkpt>
      <trkpt lat="38.8627410" lon="1.2471170">
        <ele>176.0</ele>
        <time>2020-02-21T13:18:38Z</time>
      </trkpt>
      <trkpt lat="38.8627570" lon="1.2471230">
        <ele>176.0</ele>
        <time>2020-02-21T13:18:39Z</time>
      </trkpt>
      <trkpt lat="38.8627840" lon="1.2471330">
        <ele>176.1</ele>
        <time>2020-02-21T13:18:40Z</time>
      </trkpt>
      <trkpt lat="38.8627950" lon="1.2471380">
        <ele>176.1</ele>
        <time>2020-02-21T13:18:41Z</time>
      </trkpt>
      <trkpt lat="38.8628280" lon="1.2471350">
        <ele>176.2</ele>
        <time>2020-02-21T13:18:42Z</time>
      </trkpt>
      <trkpt lat="38.8628370" lon="1.2471370">
        <ele>176.2</ele>
        <time>2020-02-21T13:18:43Z</time>
      </trkpt>
      <trkpt lat="38.8628740" lon="1.2471440">
        <ele>176.4</ele>
        <time>2020-02-21T13:18:44Z</time>
      </trkpt>
      <trkpt lat="38.8628870" lon="1.2471490">
        <ele>176.4</ele>
        <time>2020-02-21T13:18:45Z</time>
      </trkpt>
      <trkpt lat="38.8629220" lon="1.2471580">
        <ele>176.6</ele>
        <time>2020-02-21T13:18:46Z</time>
      </trkpt>
      <trkpt lat="38.8629340" lon="1.2471610">
        <ele>176.6</ele>
        <time>2020-02-21T13:18:47Z</time>
      </trkpt>
      <trkpt lat="38.8629580" lon="1.2471710">
        <ele>176.7</ele>
        <time>2020-02-21T13:18:48Z</time>
      </trkpt>
      <trkpt lat="38.8629690" lon="1.2471760">
        <ele>176.8</ele>
        <time>2020-02-21T13:18:49Z</time>
      </trkpt>
      <trkpt lat="38.8630050" lon="1.2471920">
        <ele>177.0</ele>
        <time>2020-02-21T13:18:50Z</time>
      </trkpt>
      <trkpt lat="38.8630160" lon="1.2471970">
        <ele>177.0</ele>
        <time>2020-02-21T13:18:51Z</time>
      </trkpt>
      <trkpt lat="38.8630470" lon="1.2472070">
        <ele>177.3</ele>
        <time>2020-02-21T13:18:52Z</time>
      </trkpt>
      <trkpt lat="38.8630570" lon="1.2472120">
        <ele>177.3</ele>
        <time>2020-02-21T13:18:53Z</time>
      </trkpt>
      <trkpt lat="38.8630900" lon="1.2472240">
        <ele>177.6</ele>
        <time>2020-02-21T13:18:54Z</time>
      </trkpt>
      <trkpt lat="38.8631010" lon="1.2472300">
        <ele>177.7</ele>
        <time>2020-02-21T13:18:55Z</time>
      </trkpt>
      <trkpt lat="38.8631310" lon="1.2472440">
        <ele>178.0</ele>
        <time>2020-02-21T13:18:56Z</time>
      </trkpt>
      <trkpt lat="38.8631370" lon="1.2472460">
        <ele>178.0</ele>
        <time>2020-02-21T13:18:57Z</time>
      </trkpt>
      <trkpt lat="38.8631590" lon="1.2472500">
        <ele>178.3</ele>
        <time>2020-02-21T13:18:58Z</time>
      </trkpt>
      <trkpt lat="38.8631680" lon="1.2472560">
        <ele>178.4</ele>
        <time>2020-02-21T13:18:59Z</time>
      </trkpt>
      <trkpt lat="38.8631860" lon="1.2472590">
        <ele>178.5</ele>
        <time>2020-02-21T13:19:00Z</time>
      </trkpt>
      <trkpt lat="38.8632000" lon="1.2472480">
        <ele>178.7</ele>
        <time>2020-02-21T13:19:01Z</time>
      </trkpt>
      <trkpt lat="38.8632290" lon="1.2472260">
        <ele>179.1</ele>
        <time>2020-02-21T13:19:02Z</time>
      </trkpt>
      <trkpt lat="38.8632380" lon="1.2472230">
        <ele>179.3</ele>
        <time>2020-02-21T13:19:03Z</time>
      </trkpt>
      <trkpt lat="38.8632540" lon="1.2472200">
        <ele>179.4</ele>
        <time>2020-02-21T13:19:04Z</time>
      </trkpt>
      <trkpt lat="38.8632730" lon="1.2472230">
        <ele>179.7</ele>
        <time>2020-02-21T13:19:05Z</time>
      </trkpt>
      <trkpt lat="38.8633010" lon="1.2472210">
        <ele>180.1</ele>
        <time>2020-02-21T13:19:06Z</time>
      </trkpt>
      <trkpt lat="38.8633090" lon="1.2472180">
        <ele>180.2</ele>
        <time>2020-02-21T13:19:07Z</time>
      </trkpt>
      <trkpt lat="38.8633310" lon="1.2472250">
        <ele>180.6</ele>
        <time>2020-02-21T13:19:08Z</time>
      </trkpt>
      <trkpt lat="38.8633410" lon="1.2472230">
        <ele>180.8</ele>
        <time>2020-02-21T13:19:09Z</time>
      </trkpt>
      <trkpt lat="38.8633640" lon="1.2472160">
        <ele>181.1</ele>
        <time>2020-02-21T13:19:10Z</time>
      </trkpt>
      <trkpt lat="38.8633760" lon="1.2472070">
        <ele>181.3</ele>
        <time>2020-02-21T13:19:11Z</time>
      </trkpt>
      <trkpt lat="38.8633920" lon="1.2471970">
        <ele>181.6</ele>
        <time>2020-02-21T13:19:12Z</time>
      </trkpt>
      <trkpt lat="38.8634050" lon="1.2471900">
        <ele>181.8</ele>
        <time>2020-02-21T13:19:13Z</time>
      </trkpt>
      <trkpt lat="38.8634250" lon="1.2471720">
        <ele>182.2</ele>
        <time>2020-02-21T13:19:14Z</time>
      </trkpt>
      <trkpt lat="38.8634310" lon="1.2471670">
        <ele>182.3</ele>
        <time>2020-02-21T13:19:15Z</time>
      </trkpt>
      <trkpt lat="38.8634380" lon="1.2471610">
        <ele>182.5</ele>
        <time>2020-02-21T13:19:16Z</time>
      </trkpt>
      <trkpt lat="38.8634480" lon="1.2471450">
        <ele>182.7</ele>
        <time>2020-02-21T13:19:17Z</time>
      </trkpt>
      <trkpt lat="38.8634580" lon="1.2471340">
        <ele>182.9</ele>
        <time>2020-02-21T13:19:18Z</time>
      </trkpt>
      <trkpt lat="38.8634680" lon="1.2471370">
        <ele>183.1</ele>
        <time>2020-02-21T13:19:19Z</time>
      </trkpt>
      <trkpt lat="38.8634830" lon="1.2471390">
        <ele>183.3</ele>
        <time>2020-02-21T13:19:20Z</time>
      </trkpt>
      <trkpt lat="38.8634890" lon="1.2471270">
        <ele>183.5</ele>
        <time>2020-02-21T13:19:21Z</time>
      </trkpt>
      <trkpt lat="38.8634980" lon="1.2471130">
        <ele>183.7</ele>
        <time>2020-02-21T13:19:22Z</time>
      </trkpt>
      <trkpt lat="38.8635000" lon="1.2470890">
        <ele>184.0</ele>
        <time>2020-02-21T13:19:23Z</time>
      </trkpt>
      <trkpt lat="38.8635120" lon="1.2470720">
        <ele>184.2</ele>
        <time>2020-02-21T13:19:24Z</time>
      </trkpt>
      <trkpt lat="38.8635200" lon="1.2470610">
        <ele>184.4</ele>
        <time>2020-02-21T13:19:25Z</time>
      </trkpt>
      <trkpt lat="38.8635290" lon="1.2470380">
        <ele>184.6</ele>
        <time>2020-02-21T13:19:26Z</time>
      </trkpt>
      <trkpt lat="38.8635330" lon="1.2470260">
        <ele>184.8</ele>
        <time>2020-02-21T13:19:27Z</time>
      </trkpt>
      <trkpt lat="38.8635370" lon="1.2470150">
        <ele>184.9</ele>
        <time>2020-02-21T13:19:28Z</time>
      </trkpt>
      <trkpt lat="38.8635580" lon="1.2470070">
        <ele>185.1</ele>
        <time>2020-02-21T13:19:29Z</time>
      </trkpt>
      <trkpt lat="38.8635660" lon="1.2470020">
        <ele>185.2</ele>
        <time>2020-02-21T13:19:30Z</time>
      </trkpt>
      <trkpt lat="38.8635750" lon="1.2469980">
        <ele>185.4</ele>
        <time>2020-02-21T13:19:31Z</time>
      </trkpt>
      <trkpt lat="38.8635800" lon="1.2469870">
        <ele>185.5</ele>
        <time>2020-02-21T13:19:32Z</time>
      </trkpt>
      <trkpt lat="38.8635910" lon="1.2469960">
        <ele>185.6</ele>
        <time>2020-02-21T13:19:33Z</time>
      </trkpt>
      <trkpt lat="38.8636070" lon="1.2469980">
        <ele>185.8</ele>
        <time>2020-02-21T13:19:34Z</time>
      </trkpt>
      <trkpt lat="38.8636070" lon="1.2469790">
        <ele>186.1</ele>
        <time>2020-02-21T13:19:35Z</time>
      </trkpt>
      <trkpt lat="38.8636090" lon="1.2469710">
        <ele>186.1</ele>
        <time>2020-02-21T13:19:36Z</time>
      </trkpt>
      <trkpt lat="38.8636060" lon="1.2469550">
        <ele>186.4</ele>
        <time>2020-02-21T13:19:37Z</time>
      </trkpt>
      <trkpt lat="38.8636170" lon="1.2469280">
        <ele>186.6</ele>
        <time>2020-02-21T13:19:38Z</time>
      </trkpt>
      <trkpt lat="38.8636210" lon="1.2469190">
        <ele>186.7</ele>
        <time>2020-02-21T13:19:39Z</time>
      </trkpt>
      <trkpt lat="38.8636240" lon="1.2469090">
        <ele>186.8</ele>
        <time>2020-02-21T13:19:40Z</time>
      </trkpt>
      <trkpt lat="38.8636330" lon="1.2468860">
        <ele>187.1</ele>
        <time>2020-02-21T13:19:41Z</time>
      </trkpt>
      <trkpt lat="38.8636470" lon="1.2468770">
        <ele>187.3</ele>
        <time>2020-02-21T13:19:42Z</time>
      </trkpt>
      <trkpt lat="38.8636600" lon="1.2468700">
        <ele>187.4</ele>
        <time>2020-02-21T13:19:43Z</time>
      </trkpt>
      <trkpt lat="38.8636700" lon="1.2468560">
        <ele>187.6</ele>
        <time>2020-02-21T13:19:44Z</time>
      </trkpt>
      <trkpt lat="38.8636850" lon="1.2468320">
        <ele>187.9</ele>
        <time>2020-02-21T13:19:45Z</time>
      </trkpt>
      <trkpt lat="38.8636920" lon="1.2468210">
        <ele>188.0</ele>
        <time>2020-02-21T13:19:46Z</time>
      </trkpt>
      <trkpt lat="38.8637000" lon="1.2468090">
        <ele>188.1</ele>
        <time>2020-02-21T13:19:47Z</time>
      </trkpt>
      <trkpt lat="38.8637140" lon="1.2467950">
        <ele>188.4</ele>
        <time>2020-02-21T13:19:48Z</time>
      </trkpt>
      <trkpt lat="38.8637230" lon="1.2467790">
        <ele>188.5</ele>
        <time>2020-02-21T13:19:49Z</time>
      </trkpt>
      <trkpt lat="38.8637320" lon="1.2467640">
        <ele>188.7</ele>
        <time>2020-02-21T13:19:50Z</time>
      </trkpt>
      <trkpt lat="38.8637490" lon="1.2467570">
        <ele>188.9</ele>
        <time>2020-02-21T13:19:51Z</time>
      </trkpt>
      <trkpt lat="38.8637620" lon="1.2467480">
        <ele>189.1</ele>
        <time>2020-02-21T13:19:52Z</time>
      </trkpt>
      <trkpt lat="38.8637750" lon="1.2467440">
        <ele>189.2</ele>
        <time>2020-02-21T13:19:53Z</time>
      </trkpt>
      <trkpt lat="38.8638020" lon="1.2467180">
        <ele>189.6</ele>
        <time>2020-02-21T13:19:54Z</time>
      </trkpt>
      <trkpt lat="38.8638080" lon="1.2467080">
        <ele>189.7</ele>
        <time>2020-02-21T13:19:55Z</time>
      </trkpt>
      <trkpt lat="38.8638140" lon="1.2466900">
        <ele>189.9</ele>
        <time>2020-02-21T13:19:56Z</time>
      </trkpt>
      <trkpt lat="38.8638190" lon="1.2466670">
        <ele>190.1</ele>
        <time>2020-02-21T13:19:57Z</time>
      </trkpt>
      <trkpt lat="38.8638250" lon="1.2466490">
        <ele>190.3</ele>
        <time>2020-02-21T13:19:58Z</time>
      </trkpt>
      <trkpt lat="38.8638300" lon="1.2466300">
        <ele>190.5</ele>
        <time>2020-02-21T13:19:59Z</time>
      </trkpt>
      <trkpt lat="38.8638330" lon="1.2466160">
        <ele>190.6</ele>
        <time>2020-02-21T13:20:00Z</time>
      </trkpt>
      <trkpt lat="38.8638400" lon="1.2466080">
        <ele>190.7</ele>
        <time>2020-02-21T13:20:01Z</time>
      </trkpt>
      <trkpt lat="38.8638490" lon="1.2465960">
        <ele>190.8</ele>
        <time>2020-02-21T13:20:02Z</time>
      </trkpt>
      <trkpt lat="38.8638500" lon="1.2465790">
        <ele>191.0</ele>
        <time>2020-02-21T13:20:03Z</time>
      </trkpt>
      <trkpt lat="38.8638620" lon="1.2465600">
        <ele>191.2</ele>
        <time>2020-02-21T13:20:04Z</time>
      </trkpt>
      <trkpt lat="38.8638690" lon="1.2465400">
        <ele>191.4</ele>
        <time>2020-02-21T13:20:05Z</time>
      </trkpt>
      <trkpt lat="38.8638750" lon="1.2465320">
        <ele>191.5</ele>
        <time>2020-02-21T13:20:06Z</time>
      </trkpt>
      <trkpt lat="38.8638790" lon="1.2465260">
        <ele>191.6</ele>
        <time>2020-02-21T13:20:07Z</time>
      </trkpt>
      <trkpt lat="38.8638860" lon="1.2465130">
        <ele>191.7</ele>
        <time>2020-02-21T13:20:08Z</time>
      </trkpt>
      <trkpt lat="38.8638990" lon="1.2464930">
        <ele>192.0</ele>
        <time>2020-02-21T13:20:09Z</time>
      </trkpt>
      <trkpt lat="38.8639050" lon="1.2464820">
        <ele>192.1</ele>
        <time>2020-02-21T13:20:10Z</time>
      </trkpt>
      <trkpt lat="38.8639150" lon="1.2464740">
        <ele>192.3</ele>
        <time>2020-02-21T13:20:11Z</time>
      </trkpt>
      <trkpt lat="38.8639240" lon="1.2464600">
        <ele>192.4</ele>
        <time>2020-02-21T13:20:12Z</time>
      </trkpt>
      <trkpt lat="38.8639390" lon="1.2464340">
        <ele>192.8</ele>
        <time>2020-02-21T13:20:13Z</time>
      </trkpt>
      <trkpt lat="38.8639420" lon="1.2464220">
        <ele>192.9</ele>
        <time>2020-02-21T13:20:14Z</time>
      </trkpt>
      <trkpt lat="38.8639450" lon="1.2464090">
        <ele>193.0</ele>
        <time>2020-02-21T13:20:15Z</time>
      </trkpt>
      <trkpt lat="38.8639470" lon="1.2463740">
        <ele>193.4</ele>
        <time>2020-02-21T13:20:16Z</time>
      </trkpt>
      <trkpt lat="38.8639480" lon="1.2463630">
        <ele>193.5</ele>
        <time>2020-02-21T13:20:17Z</time>
      </trkpt>
      <trkpt lat="38.8639450" lon="1.2463470">
        <ele>193.7</ele>
        <time>2020-02-21T13:20:18Z</time>
      </trkpt>
      <trkpt lat="38.8639430" lon="1.2463260">
        <ele>193.9</ele>
        <time>2020-02-21T13:20:19Z</time>
      </trkpt>
      <trkpt lat="38.8639470" lon="1.2463120">
        <ele>194.0</ele>
        <time>2020-02-21T13:20:20Z</time>
      </trkpt>
      <trkpt lat="38.8639490" lon="1.2462970">
        <ele>194.2</ele>
        <time>2020-02-21T13:20:21Z</time>
      </trkpt>
      <trkpt lat="38.8639530" lon="1.2462870">
        <ele>194.3</ele>
        <time>2020-02-21T13:20:22Z</time>
      </trkpt>
      <trkpt lat="38.8639560" lon="1.2462830">
        <ele>194.3</ele>
        <time>2020-02-21T13:20:23Z</time>
      </trkpt>
      <trkpt lat="38.8639600" lon="1.2462860">
        <ele>194.4</ele>
        <time>2020-02-21T13:20:24Z</time>
      </trkpt>
      <trkpt lat="38.8639610" lon="1.2462850">
        <ele>194.4</ele>
        <time>2020-02-21T13:20:25Z</time>
      </trkpt>
      <trkpt lat="38.8639610" lon="1.2462850">
        <ele>194.4</ele>
        <time>2020-02-21T13:20:26Z</time>
      </trkpt>
      <trkpt lat="38.8639610" lon="1.2462840">
        <ele>194.4</ele>
        <time>2020-02-21T13:20:27Z</time>
      </trkpt>
      <trkpt lat="38.8639610" lon="1.2462840">
        <ele>194.4</ele>
        <time>2020-02-21T13:20:28Z</time>
      </trkpt>
      <trkpt lat="38.8639610" lon="1.2462840">
        <ele>194.4</ele>
        <time>2020-02-21T13:20:29Z</time>
      </trkpt>
      <trkpt lat="38.8639610" lon="1.2462840">
        <ele>194.4</ele>
        <time>2020-02-21T13:20:30Z</time>
      </trkpt>
      <trkpt lat="38.8639610" lon="1.2462840">
        <ele>194.4</ele>
        <time>2020-02-21T13:20:31Z</time>
      </trkpt>
      <trkpt lat="38.8639610" lon="1.2462840">
        <ele>194.4</ele>
        <time>2020-02-21T13:20:32Z</time>
      </trkpt>
      <trkpt lat="38.8639810" lon="1.2462440">
        <ele>194.8</ele>
        <time>2020-02-21T13:26:26Z</time>
      </trkpt>
      <trkpt lat="38.8639980" lon="1.2462320">
        <ele>195.1</ele>
        <time>2020-02-21T13:26:27Z</time>
      </trkpt>
      <trkpt lat="38.8640140" lon="1.2462230">
        <ele>195.3</ele>
        <time>2020-02-21T13:26:28Z</time>
      </trkpt>
      <trkpt lat="38.8640120" lon="1.2462270">
        <ele>195.4</ele>
        <time>2020-02-21T13:26:29Z</time>
      </trkpt>
      <trkpt lat="38.8640110" lon="1.2462320">
        <ele>195.4</ele>
        <time>2020-02-21T13:26:30Z</time>
      </trkpt>
      <trkpt lat="38.8640020" lon="1.2462340">
        <ele>195.6</ele>
        <time>2020-02-21T13:26:31Z</time>
      </trkpt>
      <trkpt lat="38.8640030" lon="1.2462380">
        <ele>195.6</ele>
        <time>2020-02-21T13:26:32Z</time>
      </trkpt>
      <trkpt lat="38.8640040" lon="1.2462380">
        <ele>195.6</ele>
        <time>2020-02-21T13:26:33Z</time>
      </trkpt>
      <trkpt lat="38.8640050" lon="1.2462400">
        <ele>195.6</ele>
        <time>2020-02-21T13:26:34Z</time>
      </trkpt>
      <trkpt lat="38.8640030" lon="1.2462310">
        <ele>195.7</ele>
        <time>2020-02-21T13:26:35Z</time>
      </trkpt>
      <trkpt lat="38.8640010" lon="1.2462260">
        <ele>195.8</ele>
        <time>2020-02-21T13:26:36Z</time>
      </trkpt>
      <trkpt lat="38.8640010" lon="1.2462240">
        <ele>195.8</ele>
        <time>2020-02-21T13:26:37Z</time>
      </trkpt>
      <trkpt lat="38.8640010" lon="1.2462250">
        <ele>195.8</ele>
        <time>2020-02-21T13:26:38Z</time>
      </trkpt>
      <trkpt lat="38.8640020" lon="1.2462230">
        <ele>195.9</ele>
        <time>2020-02-21T13:26:39Z</time>
      </trkpt>
      <trkpt lat="38.8640030" lon="1.2462220">
        <ele>195.9</ele>
        <time>2020-02-21T13:26:40Z</time>
      </trkpt>
      <trkpt lat="38.8640030" lon="1.2462220">
        <ele>195.9</ele>
        <time>2020-02-21T13:26:41Z</time>
      </trkpt>
      <trkpt lat="38.8640030" lon="1.2462220">
        <ele>195.9</ele>
        <time>2020-02-21T13:26:42Z</time>
      </trkpt>
      <trkpt lat="38.8640030" lon="1.2462220">
        <ele>195.9</ele>
        <time>2020-02-21T13:26:43Z</time>
      </trkpt>
      <trkpt lat="38.8640030" lon="1.2462210">
        <ele>195.9</ele>
        <time>2020-02-21T13:26:44Z</time>
      </trkpt>
      <trkpt lat="38.8640030" lon="1.2462210">
        <ele>195.9</ele>
        <time>2020-02-21T13:26:45Z</time>
      </trkpt>
      <trkpt lat="38.8639580" lon="1.2462920">
        <ele>196.9</ele>
        <time>2020-02-21T13:34:23Z</time>
      </trkpt>
      <trkpt lat="38.8639510" lon="1.2462930">
        <ele>197.0</ele>
        <time>2020-02-21T13:34:24Z</time>
      </trkpt>
      <trkpt lat="38.8639490" lon="1.2462910">
        <ele>197.0</ele>
        <time>2020-02-21T13:34:25Z</time>
      </trkpt>
      <trkpt lat="38.8639440" lon="1.2462950">
        <ele>197.1</ele>
        <time>2020-02-21T13:34:26Z</time>
      </trkpt>
      <trkpt lat="38.8639350" lon="1.2462960">
        <ele>197.2</ele>
        <time>2020-02-21T13:34:27Z</time>
      </trkpt>
      <trkpt lat="38.8639340" lon="1.2462980">
        <ele>197.3</ele>
        <time>2020-02-21T13:34:28Z</time>
      </trkpt>
      <trkpt lat="38.8639380" lon="1.2462970">
        <ele>197.3</ele>
        <time>2020-02-21T13:34:29Z</time>
      </trkpt>
      <trkpt lat="38.8639420" lon="1.2462950">
        <ele>197.4</ele>
        <time>2020-02-21T13:34:30Z</time>
      </trkpt>
      <trkpt lat="38.8639470" lon="1.2462940">
        <ele>197.5</ele>
        <time>2020-02-21T13:34:31Z</time>
      </trkpt>
      <trkpt lat="38.8639510" lon="1.2462930">
        <ele>197.5</ele>
        <time>2020-02-21T13:34:32Z</time>
      </trkpt>
      <trkpt lat="38.8639550" lon="1.2462920">
        <ele>197.6</ele>
        <time>2020-02-21T13:34:33Z</time>
      </trkpt>
      <trkpt lat="38.8639590" lon="1.2462910">
        <ele>197.7</ele>
        <time>2020-02-21T13:34:34Z</time>
      </trkpt>
      <trkpt lat="38.8639630" lon="1.2462900">
        <ele>197.7</ele>
        <time>2020-02-21T13:34:35Z</time>
      </trkpt>
      <trkpt lat="38.8639670" lon="1.2462880">
        <ele>197.8</ele>
        <time>2020-02-21T13:34:36Z</time>
      </trkpt>
      <trkpt lat="38.8639710" lon="1.2462870">
        <ele>197.9</ele>
        <time>2020-02-21T13:34:37Z</time>
      </trkpt>
      <trkpt lat="38.8639750" lon="1.2462860">
        <ele>197.9</ele>
        <time>2020-02-21T13:34:38Z</time>
      </trkpt>
      <trkpt lat="38.8639800" lon="1.2462850">
        <ele>198.0</ele>
        <time>2020-02-21T13:34:39Z</time>
      </trkpt>
      <trkpt lat="38.8639840" lon="1.2462840">
        <ele>198.1</ele>
        <time>2020-02-21T13:34:40Z</time>
      </trkpt>
      <trkpt lat="38.8639880" lon="1.2462820">
        <ele>198.1</ele>
        <time>2020-02-21T13:34:41Z</time>
      </trkpt>
      <trkpt lat="38.8639920" lon="1.2462810">
        <ele>198.2</ele>
        <time>2020-02-21T13:35:50Z</time>
      </trkpt>
      <trkpt lat="38.8639960" lon="1.2462800">
        <ele>198.2</ele>
        <time>2020-02-21T13:35:51Z</time>
      </trkpt>
      <trkpt lat="38.8640100" lon="1.2462640">
        <ele>198.5</ele>
        <time>2020-02-21T13:35:52Z</time>
      </trkpt>
      <trkpt lat="38.8640310" lon="1.2462650">
        <ele>198.9</ele>
        <time>2020-02-21T13:35:53Z</time>
      </trkpt>
      <trkpt lat="38.8640470" lon="1.2462750">
        <ele>199.1</ele>
        <time>2020-02-21T13:35:54Z</time>
      </trkpt>
      <trkpt lat="38.8640630" lon="1.2462840">
        <ele>199.4</ele>
        <time>2020-02-21T13:35:55Z</time>
      </trkpt>
      <trkpt lat="38.8640900" lon="1.2463030">
        <ele>199.8</ele>
        <time>2020-02-21T13:35:56Z</time>
      </trkpt>
      <trkpt lat="38.8640990" lon="1.2463080">
        <ele>200.0</ele>
        <time>2020-02-21T13:35:57Z</time>
      </trkpt>
      <trkpt lat="38.8641140" lon="1.2463140">
        <ele>200.2</ele>
        <time>2020-02-21T13:35:58Z</time>
      </trkpt>
      <trkpt lat="38.8641260" lon="1.2463220">
        <ele>200.4</ele>
        <time>2020-02-21T13:35:59Z</time>
      </trkpt>
      <trkpt lat="38.8641560" lon="1.2463360">
        <ele>200.9</ele>
        <time>2020-02-21T13:36:00Z</time>
      </trkpt>
      <trkpt lat="38.8641680" lon="1.2463390">
        <ele>201.1</ele>
        <time>2020-02-21T13:36:01Z</time>
      </trkpt>
      <trkpt lat="38.8642040" lon="1.2463380">
        <ele>201.6</ele>
        <time>2020-02-21T13:36:02Z</time>
      </trkpt>
      <trkpt lat="38.8642150" lon="1.2463370">
        <ele>201.8</ele>
        <time>2020-02-21T13:36:03Z</time>
      </trkpt>
      <trkpt lat="38.8642490" lon="1.2463520">
        <ele>202.3</ele>
        <time>2020-02-21T13:36:04Z</time>
      </trkpt>
      <trkpt lat="38.8642580" lon="1.2463560">
        <ele>202.5</ele>
        <time>2020-02-21T13:36:05Z</time>
      </trkpt>
      <trkpt lat="38.8642870" lon="1.2463610">
        <ele>202.9</ele>
        <time>2020-02-21T13:36:06Z</time>
      </trkpt>
      <trkpt lat="38.8642950" lon="1.2463600">
        <ele>203.0</ele>
        <time>2020-02-21T13:36:07Z</time>
      </trkpt>
      <trkpt lat="38.8643090" lon="1.2463630">
        <ele>203.2</ele>
        <time>2020-02-21T13:36:08Z</time>
      </trkpt>
      <trkpt lat="38.8643280" lon="1.2463660">
        <ele>203.4</ele>
        <time>2020-02-21T13:36:09Z</time>
      </trkpt>
      <trkpt lat="38.8643410" lon="1.2463730">
        <ele>203.6</ele>
        <time>2020-02-21T13:36:10Z</time>
      </trkpt>
      <trkpt lat="38.8643580" lon="1.2463780">
        <ele>203.8</ele>
        <time>2020-02-21T13:36:11Z</time>
      </trkpt>
      <trkpt lat="38.8643870" lon="1.2463880">
        <ele>204.2</ele>
        <time>2020-02-21T13:36:12Z</time>
      </trkpt>
      <trkpt lat="38.8643970" lon="1.2463900">
        <ele>204.4</ele>
        <time>2020-02-21T13:36:13Z</time>
      </trkpt>
      <trkpt lat="38.8644100" lon="1.2463850">
        <ele>204.5</ele>
        <time>2020-02-21T13:36:14Z</time>
      </trkpt>
      <trkpt lat="38.8644310" lon="1.2463770">
        <ele>204.8</ele>
        <time>2020-02-21T13:36:15Z</time>
      </trkpt>
      <trkpt lat="38.8644490" lon="1.2463660">
        <ele>205.1</ele>
        <time>2020-02-21T13:36:16Z</time>
      </trkpt>
      <trkpt lat="38.8644610" lon="1.2463570">
        <ele>205.2</ele>
        <time>2020-02-21T13:36:17Z</time>
      </trkpt>
      <trkpt lat="38.8644760" lon="1.2463540">
        <ele>205.4</ele>
        <time>2020-02-21T13:36:18Z</time>
      </trkpt>
      <trkpt lat="38.8644910" lon="1.2463500">
        <ele>205.6</ele>
        <time>2020-02-21T13:36:19Z</time>
      </trkpt>
      <trkpt lat="38.8645180" lon="1.2463390">
        <ele>205.9</ele>
        <time>2020-02-21T13:36:20Z</time>
      </trkpt>
      <trkpt lat="38.8645270" lon="1.2463360">
        <ele>206.1</ele>
        <time>2020-02-21T13:36:21Z</time>
      </trkpt>
      <trkpt lat="38.8645300" lon="1.2463280">
        <ele>206.2</ele>
        <time>2020-02-21T13:36:22Z</time>
      </trkpt>
      <trkpt lat="38.8645370" lon="1.2463180">
        <ele>206.3</ele>
        <time>2020-02-21T13:36:23Z</time>
      </trkpt>
      <trkpt lat="38.8645530" lon="1.2463140">
        <ele>206.5</ele>
        <time>2020-02-21T13:36:24Z</time>
      </trkpt>
      <trkpt lat="38.8645670" lon="1.2463130">
        <ele>206.7</ele>
        <time>2020-02-21T13:36:25Z</time>
      </trkpt>
      <trkpt lat="38.8645820" lon="1.2463150">
        <ele>206.9</ele>
        <time>2020-02-21T13:36:26Z</time>
      </trkpt>
      <trkpt lat="38.8645940" lon="1.2463060">
        <ele>207.0</ele>
        <time>2020-02-21T13:36:27Z</time>
      </trkpt>
      <trkpt lat="38.8646110" lon="1.2462970">
        <ele>207.3</ele>
        <time>2020-02-21T13:36:28Z</time>
      </trkpt>
      <trkpt lat="38.8646260" lon="1.2462940">
        <ele>207.4</ele>
        <time>2020-02-21T13:36:29Z</time>
      </trkpt>
      <trkpt lat="38.8646420" lon="1.2463000">
        <ele>207.6</ele>
        <time>2020-02-21T13:36:30Z</time>
      </trkpt>
      <trkpt lat="38.8646700" lon="1.2462800">
        <ele>208.0</ele>
        <time>2020-02-21T13:36:31Z</time>
      </trkpt>
      <trkpt lat="38.8646780" lon="1.2462760">
        <ele>208.1</ele>
        <time>2020-02-21T13:36:32Z</time>
      </trkpt>
      <trkpt lat="38.8646970" lon="1.2462750">
        <ele>208.4</ele>
        <time>2020-02-21T13:36:33Z</time>
      </trkpt>
      <trkpt lat="38.8647120" lon="1.2462680">
        <ele>208.6</ele>
        <time>2020-02-21T13:36:34Z</time>
      </trkpt>
      <trkpt lat="38.8647380" lon="1.2462560">
        <ele>209.0</ele>
        <time>2020-02-21T13:36:35Z</time>
      </trkpt>
      <trkpt lat="38.8647470" lon="1.2462540">
        <ele>209.1</ele>
        <time>2020-02-21T13:36:36Z</time>
      </trkpt>
      <trkpt lat="38.8647640" lon="1.2462520">
        <ele>209.3</ele>
        <time>2020-02-21T13:36:37Z</time>
      </trkpt>
      <trkpt lat="38.8647800" lon="1.2462510">
        <ele>209.5</ele>
        <time>2020-02-21T13:36:38Z</time>
      </trkpt>
      <trkpt lat="38.8647910" lon="1.2462460">
        <ele>209.7</ele>
        <time>2020-02-21T13:36:39Z</time>
      </trkpt>
      <trkpt lat="38.8648040" lon="1.2462340">
        <ele>209.9</ele>
        <time>2020-02-21T13:36:40Z</time>
      </trkpt>
      <trkpt lat="38.8648220" lon="1.2462260">
        <ele>210.2</ele>
        <time>2020-02-21T13:36:41Z</time>
      </trkpt>
      <trkpt lat="38.8648380" lon="1.2462320">
        <ele>210.4</ele>
        <time>2020-02-21T13:36:42Z</time>
      </trkpt>
      <trkpt lat="38.8648610" lon="1.2462220">
        <ele>210.7</ele>
        <time>2020-02-21T13:36:43Z</time>
      </trkpt>
      <trkpt lat="38.8648650" lon="1.2462150">
        <ele>210.8</ele>
        <time>2020-02-21T13:36:44Z</time>
      </trkpt>
      <trkpt lat="38.8648700" lon="1.2462070">
        <ele>210.9</ele>
        <time>2020-02-21T13:36:45Z</time>
      </trkpt>
      <trkpt lat="38.8648860" lon="1.2462020">
        <ele>211.1</ele>
        <time>2020-02-21T13:36:46Z</time>
      </trkpt>
      <trkpt lat="38.8649020" lon="1.2461950">
        <ele>211.3</ele>
        <time>2020-02-21T13:36:47Z</time>
      </trkpt>
      <trkpt lat="38.8649170" lon="1.2461920">
        <ele>211.5</ele>
        <time>2020-02-21T13:36:48Z</time>
      </trkpt>
      <trkpt lat="38.8649340" lon="1.2461920">
        <ele>211.7</ele>
        <time>2020-02-21T13:36:49Z</time>
      </trkpt>
      <trkpt lat="38.8649500" lon="1.2462030">
        <ele>212.0</ele>
        <time>2020-02-21T13:36:50Z</time>
      </trkpt>
      <trkpt lat="38.8649640" lon="1.2462140">
        <ele>212.2</ele>
        <time>2020-02-21T13:36:51Z</time>
      </trkpt>
      <trkpt lat="38.8649860" lon="1.2462090">
        <ele>212.4</ele>
        <time>2020-02-21T13:36:52Z</time>
      </trkpt>
      <trkpt lat="38.8649940" lon="1.2462100">
        <ele>212.5</ele>
        <time>2020-02-21T13:36:53Z</time>
      </trkpt>
      <trkpt lat="38.8650010" lon="1.2462110">
        <ele>212.6</ele>
        <time>2020-02-21T13:36:54Z</time>
      </trkpt>
      <trkpt lat="38.8650120" lon="1.2462220">
        <ele>212.8</ele>
        <time>2020-02-21T13:36:55Z</time>
      </trkpt>
      <trkpt lat="38.8650220" lon="1.2462440">
        <ele>213.0</ele>
        <time>2020-02-21T13:36:56Z</time>
      </trkpt>
      <trkpt lat="38.8650230" lon="1.2462600">
        <ele>213.1</ele>
        <time>2020-02-21T13:36:57Z</time>
      </trkpt>
      <trkpt lat="38.8650380" lon="1.2462800">
        <ele>213.4</ele>
        <time>2020-02-21T13:36:58Z</time>
      </trkpt>
      <trkpt lat="38.8650370" lon="1.2462990">
        <ele>213.6</ele>
        <time>2020-02-21T13:36:59Z</time>
      </trkpt>
      <trkpt lat="38.8650230" lon="1.2463200">
        <ele>213.8</ele>
        <time>2020-02-21T13:37:00Z</time>
      </trkpt>
      <trkpt lat="38.8650150" lon="1.2463370">
        <ele>214.0</ele>
        <time>2020-02-21T13:37:01Z</time>
      </trkpt>
      <trkpt lat="38.8649990" lon="1.2463520">
        <ele>214.2</ele>
        <time>2020-02-21T13:37:02Z</time>
      </trkpt>
      <trkpt lat="38.8649850" lon="1.2463860">
        <ele>214.6</ele>
        <time>2020-02-21T13:37:03Z</time>
      </trkpt>
      <trkpt lat="38.8649830" lon="1.2463940">
        <ele>214.6</ele>
        <time>2020-02-21T13:37:04Z</time>
      </trkpt>
      <trkpt lat="38.8649670" lon="1.2464300">
        <ele>215.0</ele>
        <time>2020-02-21T13:37:05Z</time>
      </trkpt>
      <trkpt lat="38.8649600" lon="1.2464420">
        <ele>215.1</ele>
        <time>2020-02-21T13:37:06Z</time>
      </trkpt>
      <trkpt lat="38.8649490" lon="1.2464490">
        <ele>215.3</ele>
        <time>2020-02-21T13:37:07Z</time>
      </trkpt>
      <trkpt lat="38.8649500" lon="1.2464760">
        <ele>215.5</ele>
        <time>2020-02-21T13:37:08Z</time>
      </trkpt>
      <trkpt lat="38.8649470" lon="1.2464950">
        <ele>215.6</ele>
        <time>2020-02-21T13:37:09Z</time>
      </trkpt>
      <trkpt lat="38.8649470" lon="1.2465130">
        <ele>215.8</ele>
        <time>2020-02-21T13:37:10Z</time>
      </trkpt>
      <trkpt lat="38.8649440" lon="1.2465320">
        <ele>215.9</ele>
        <time>2020-02-21T13:37:11Z</time>
      </trkpt>
      <trkpt lat="38.8649400" lon="1.2465490">
        <ele>216.1</ele>
        <time>2020-02-21T13:37:12Z</time>
      </trkpt>
      <trkpt lat="38.8649380" lon="1.2465640">
        <ele>216.2</ele>
        <time>2020-02-21T13:37:13Z</time>
      </trkpt>
      <trkpt lat="38.8649320" lon="1.2465820">
        <ele>216.4</ele>
        <time>2020-02-21T13:37:14Z</time>
      </trkpt>
      <trkpt lat="38.8649240" lon="1.2466160">
        <ele>216.8</ele>
        <time>2020-02-21T13:37:15Z</time>
      </trkpt>
      <trkpt lat="38.8649180" lon="1.2466320">
        <ele>216.9</ele>
        <time>2020-02-21T13:37:16Z</time>
      </trkpt>
      <trkpt lat="38.8649230" lon="1.2466580">
        <ele>217.2</ele>
        <time>2020-02-21T13:37:17Z</time>
      </trkpt>
      <trkpt lat="38.8649220" lon="1.2466740">
        <ele>217.3</ele>
        <time>2020-02-21T13:37:18Z</time>
      </trkpt>
      <trkpt lat="38.8649220" lon="1.2466910">
        <ele>217.5</ele>
        <time>2020-02-21T13:37:19Z</time>
      </trkpt>
      <trkpt lat="38.8649240" lon="1.2467270">
        <ele>217.9</ele>
        <time>2020-02-21T13:37:20Z</time>
      </trkpt>
      <trkpt lat="38.8649250" lon="1.2467380">
        <ele>218.1</ele>
        <time>2020-02-21T13:37:21Z</time>
      </trkpt>
      <trkpt lat="38.8649320" lon="1.2467780">
        <ele>218.6</ele>
        <time>2020-02-21T13:37:22Z</time>
      </trkpt>
      <trkpt lat="38.8649360" lon="1.2467890">
        <ele>218.7</ele>
        <time>2020-02-21T13:37:23Z</time>
      </trkpt>
      <trkpt lat="38.8649440" lon="1.2468230">
        <ele>219.2</ele>
        <time>2020-02-21T13:37:24Z</time>
      </trkpt>
      <trkpt lat="38.8649480" lon="1.2468330">
        <ele>219.4</ele>
        <time>2020-02-21T13:37:25Z</time>
      </trkpt>
      <trkpt lat="38.8649590" lon="1.2468410">
        <ele>219.6</ele>
        <time>2020-02-21T13:37:26Z</time>
      </trkpt>
      <trkpt lat="38.8649740" lon="1.2468610">
        <ele>220.0</ele>
        <time>2020-02-21T13:37:27Z</time>
      </trkpt>
      <trkpt lat="38.8649850" lon="1.2468980">
        <ele>220.6</ele>
        <time>2020-02-21T13:37:28Z</time>
      </trkpt>
      <trkpt lat="38.8649880" lon="1.2469080">
        <ele>220.8</ele>
        <time>2020-02-21T13:37:29Z</time>
      </trkpt>
      <trkpt lat="38.8649960" lon="1.2469200">
        <ele>221.0</ele>
        <time>2020-02-21T13:37:30Z</time>
      </trkpt>
      <trkpt lat="38.8650050" lon="1.2469400">
        <ele>221.4</ele>
        <time>2020-02-21T13:37:31Z</time>
      </trkpt>
      <trkpt lat="38.8650090" lon="1.2469500">
        <ele>221.5</ele>
        <time>2020-02-21T13:37:32Z</time>
      </trkpt>
      <trkpt lat="38.8650180" lon="1.2469580">
        <ele>221.7</ele>
        <time>2020-02-21T13:37:33Z</time>
      </trkpt>
      <trkpt lat="38.8650260" lon="1.2469670">
        <ele>222.0</ele>
        <time>2020-02-21T13:37:34Z</time>
      </trkpt>
      <trkpt lat="38.8650360" lon="1.2469870">
        <ele>222.3</ele>
        <time>2020-02-21T13:37:35Z</time>
      </trkpt>
      <trkpt lat="38.8650400" lon="1.2469990">
        <ele>222.5</ele>
        <time>2020-02-21T13:37:36Z</time>
      </trkpt>
      <trkpt lat="38.8650440" lon="1.2470100">
        <ele>222.6</ele>
        <time>2020-02-21T13:37:37Z</time>
      </trkpt>
      <trkpt lat="38.8650470" lon="1.2470280">
        <ele>222.9</ele>
        <time>2020-02-21T13:37:38Z</time>
      </trkpt>
      <trkpt lat="38.8650520" lon="1.2470530">
        <ele>223.2</ele>
        <time>2020-02-21T13:37:39Z</time>
      </trkpt>
      <trkpt lat="38.8650700" lon="1.2470820">
        <ele>223.8</ele>
        <time>2020-02-21T13:37:40Z</time>
      </trkpt>
      <trkpt lat="38.8650740" lon="1.2470920">
        <ele>223.9</ele>
        <time>2020-02-21T13:37:41Z</time>
      </trkpt>
      <trkpt lat="38.8650880" lon="1.2471230">
        <ele>224.4</ele>
        <time>2020-02-21T13:37:42Z</time>
      </trkpt>
      <trkpt lat="38.8650940" lon="1.2471360">
        <ele>224.6</ele>
        <time>2020-02-21T13:37:43Z</time>
      </trkpt>
      <trkpt lat="38.8651060" lon="1.2471540">
        <ele>224.9</ele>
        <time>2020-02-21T13:37:44Z</time>
      </trkpt>
      <trkpt lat="38.8651150" lon="1.2471690">
        <ele>225.1</ele>
        <time>2020-02-21T13:37:45Z</time>
      </trkpt>
      <trkpt lat="38.8651240" lon="1.2471960">
        <ele>225.5</ele>
        <time>2020-02-21T13:37:46Z</time>
      </trkpt>
      <trkpt lat="38.8651280" lon="1.2472030">
        <ele>225.6</ele>
        <time>2020-02-21T13:37:47Z</time>
      </trkpt>
      <trkpt lat="38.8651310" lon="1.2472110">
        <ele>225.7</ele>
        <time>2020-02-21T13:37:48Z</time>
      </trkpt>
      <trkpt lat="38.8651380" lon="1.2472290">
        <ele>226.0</ele>
        <time>2020-02-21T13:37:49Z</time>
      </trkpt>
      <trkpt lat="38.8651420" lon="1.2472480">
        <ele>226.2</ele>
        <time>2020-02-21T13:37:50Z</time>
      </trkpt>
      <trkpt lat="38.8651500" lon="1.2472660">
        <ele>226.5</ele>
        <time>2020-02-21T13:37:51Z</time>
      </trkpt>
      <trkpt lat="38.8651560" lon="1.2472890">
        <ele>226.8</ele>
        <time>2020-02-21T13:37:52Z</time>
      </trkpt>
      <trkpt lat="38.8651600" lon="1.2473060">
        <ele>227.1</ele>
        <time>2020-02-21T13:37:53Z</time>
      </trkpt>
      <trkpt lat="38.8651630" lon="1.2473240">
        <ele>227.3</ele>
        <time>2020-02-21T13:37:54Z</time>
      </trkpt>
      <trkpt lat="38.8651720" lon="1.2473530">
        <ele>227.7</ele>
        <time>2020-02-21T13:37:55Z</time>
      </trkpt>
      <trkpt lat="38.8651710" lon="1.2473620">
        <ele>227.8</ele>
        <time>2020-02-21T13:37:56Z</time>
      </trkpt>
      <trkpt lat="38.8651830" lon="1.2473830">
        <ele>228.2</ele>
        <time>2020-02-21T13:37:57Z</time>
      </trkpt>
      <trkpt lat="38.8651850" lon="1.2473970">
        <ele>228.3</ele>
        <time>2020-02-21T13:37:58Z</time>
      </trkpt>
      <trkpt lat="38.8651880" lon="1.2474110">
        <ele>228.5</ele>
        <time>2020-02-21T13:37:59Z</time>
      </trkpt>
      <trkpt lat="38.8651910" lon="1.2474290">
        <ele>228.7</ele>
        <time>2020-02-21T13:38:00Z</time>
      </trkpt>
      <trkpt lat="38.8651950" lon="1.2474470">
        <ele>228.9</ele>
        <time>2020-02-21T13:38:01Z</time>
      </trkpt>
      <trkpt lat="38.8652070" lon="1.2474790">
        <ele>229.3</ele>
        <time>2020-02-21T13:38:02Z</time>
      </trkpt>
      <trkpt lat="38.8652120" lon="1.2474890">
        <ele>229.5</ele>
        <time>2020-02-21T13:38:03Z</time>
      </trkpt>
      <trkpt lat="38.8652210" lon="1.2475110">
        <ele>229.7</ele>
        <time>2020-02-21T13:38:04Z</time>
      </trkpt>
      <trkpt lat="38.8652260" lon="1.2475290">
        <ele>229.9</ele>
        <time>2020-02-21T13:38:05Z</time>
      </trkpt>
      <trkpt lat="38.8652330" lon="1.2475460">
        <ele>230.1</ele>
        <time>2020-02-21T13:38:06Z</time>
      </trkpt>
      <trkpt lat="38.8652380" lon="1.2475700">
        <ele>230.4</ele>
        <time>2020-02-21T13:38:07Z</time>
      </trkpt>
      <trkpt lat="38.8652400" lon="1.2475910">
        <ele>230.6</ele>
        <time>2020-02-21T13:38:08Z</time>
      </trkpt>
      <trkpt lat="38.8652420" lon="1.2476150">
        <ele>230.8</ele>
        <time>2020-02-21T13:38:09Z</time>
      </trkpt>
      <trkpt lat="38.8652520" lon="1.2476350">
        <ele>231.0</ele>
        <time>2020-02-21T13:38:10Z</time>
      </trkpt>
      <trkpt lat="38.8652550" lon="1.2476500">
        <ele>231.2</ele>
        <time>2020-02-21T13:38:11Z</time>
      </trkpt>
      <trkpt lat="38.8652580" lon="1.2476650">
        <ele>231.3</ele>
        <time>2020-02-21T13:38:12Z</time>
      </trkpt>
      <trkpt lat="38.8652740" lon="1.2476970">
        <ele>231.7</ele>
        <time>2020-02-21T13:38:13Z</time>
      </trkpt>
      <trkpt lat="38.8652780" lon="1.2477080">
        <ele>231.8</ele>
        <time>2020-02-21T13:38:14Z</time>
      </trkpt>
      <trkpt lat="38.8652930" lon="1.2477380">
        <ele>232.1</ele>
        <time>2020-02-21T13:38:15Z</time>
      </trkpt>
      <trkpt lat="38.8652980" lon="1.2477470">
        <ele>232.2</ele>
        <time>2020-02-21T13:38:16Z</time>
      </trkpt>
      <trkpt lat="38.8653060" lon="1.2477660">
        <ele>232.4</ele>
        <time>2020-02-21T13:38:17Z</time>
      </trkpt>
      <trkpt lat="38.8653140" lon="1.2477820">
        <ele>232.5</ele>
        <time>2020-02-21T13:38:18Z</time>
      </trkpt>
      <trkpt lat="38.8653210" lon="1.2477960">
        <ele>232.7</ele>
        <time>2020-02-21T13:38:19Z</time>
      </trkpt>
      <trkpt lat="38.8653250" lon="1.2478210">
        <ele>232.9</ele>
        <time>2020-02-21T13:38:20Z</time>
      </trkpt>
      <trkpt lat="38.8653250" lon="1.2478450">
        <ele>233.2</ele>
        <time>2020-02-21T13:38:21Z</time>
      </trkpt>
      <trkpt lat="38.8653290" lon="1.2478590">
        <ele>233.3</ele>
        <time>2020-02-21T13:38:22Z</time>
      </trkpt>
      <trkpt lat="38.8653220" lon="1.2478960">
        <ele>233.6</ele>
        <time>2020-02-21T13:38:23Z</time>
      </trkpt>
      <trkpt lat="38.8653240" lon="1.2479070">
        <ele>233.7</ele>
        <time>2020-02-21T13:38:24Z</time>
      </trkpt>
      <trkpt lat="38.8653310" lon="1.2479260">
        <ele>233.9</ele>
        <time>2020-02-21T13:38:25Z</time>
      </trkpt>
      <trkpt lat="38.8653390" lon="1.2479450">
        <ele>234.1</ele>
        <time>2020-02-21T13:38:26Z</time>
      </trkpt>
      <trkpt lat="38.8653470" lon="1.2479630">
        <ele>234.3</ele>
        <time>2020-02-21T13:38:27Z</time>
      </trkpt>
      <trkpt lat="38.8653520" lon="1.2479840">
        <ele>234.5</ele>
        <time>2020-02-21T13:38:28Z</time>
      </trkpt>
      <trkpt lat="38.8653590" lon="1.2480030">
        <ele>234.7</ele>
        <time>2020-02-21T13:38:29Z</time>
      </trkpt>
      <trkpt lat="38.8653640" lon="1.2480180">
        <ele>234.8</ele>
        <time>2020-02-21T13:38:30Z</time>
      </trkpt>
      <trkpt lat="38.8653830" lon="1.2480120">
        <ele>235.0</ele>
        <time>2020-02-21T13:38:31Z</time>
      </trkpt>
      <trkpt lat="38.8653930" lon="1.2480070">
        <ele>235.1</ele>
        <time>2020-02-21T13:38:32Z</time>
      </trkpt>
      <trkpt lat="38.8654040" lon="1.2480020">
        <ele>235.2</ele>
        <time>2020-02-21T13:38:33Z</time>
      </trkpt>
      <trkpt lat="38.8654210" lon="1.2479730">
        <ele>235.5</ele>
        <time>2020-02-21T13:38:34Z</time>
      </trkpt>
      <trkpt lat="38.8654230" lon="1.2479610">
        <ele>235.7</ele>
        <time>2020-02-21T13:38:35Z</time>
      </trkpt>
      <trkpt lat="38.8654370" lon="1.2479180">
        <ele>236.1</ele>
        <time>2020-02-21T13:38:36Z</time>
      </trkpt>
      <trkpt lat="38.8654420" lon="1.2479050">
        <ele>236.2</ele>
        <time>2020-02-21T13:38:37Z</time>
      </trkpt>
      <trkpt lat="38.8654550" lon="1.2478780">
        <ele>236.4</ele>
        <time>2020-02-21T13:38:38Z</time>
      </trkpt>
      <trkpt lat="38.8654620" lon="1.2478670">
        <ele>236.6</ele>
        <time>2020-02-21T13:38:39Z</time>
      </trkpt>
      <trkpt lat="38.8654680" lon="1.2478560">
        <ele>236.7</ele>
        <time>2020-02-21T13:38:40Z</time>
      </trkpt>
      <trkpt lat="38.8654820" lon="1.2478430">
        <ele>236.8</ele>
        <time>2020-02-21T13:38:41Z</time>
      </trkpt>
      <trkpt lat="38.8654940" lon="1.2478260">
        <ele>237.0</ele>
        <time>2020-02-21T13:38:42Z</time>
      </trkpt>
      <trkpt lat="38.8654990" lon="1.2478190">
        <ele>237.1</ele>
        <time>2020-02-21T13:38:43Z</time>
      </trkpt>
      <trkpt lat="38.8655120" lon="1.2477980">
        <ele>237.3</ele>
        <time>2020-02-21T13:38:44Z</time>
      </trkpt>
      <trkpt lat="38.8655330" lon="1.2477720">
        <ele>237.6</ele>
        <time>2020-02-21T13:38:45Z</time>
      </trkpt>
      <trkpt lat="38.8655570" lon="1.2477430">
        <ele>238.0</ele>
        <time>2020-02-21T13:38:46Z</time>
      </trkpt>
      <trkpt lat="38.8655810" lon="1.2477080">
        <ele>238.4</ele>
        <time>2020-02-21T13:38:47Z</time>
      </trkpt>
      <trkpt lat="38.8655870" lon="1.2476970">
        <ele>238.5</ele>
        <time>2020-02-21T13:38:48Z</time>
      </trkpt>
      <trkpt lat="38.8656150" lon="1.2476730">
        <ele>238.8</ele>
        <time>2020-02-21T13:38:49Z</time>
      </trkpt>
      <trkpt lat="38.8656250" lon="1.2476650">
        <ele>239.0</ele>
        <time>2020-02-21T13:38:50Z</time>
      </trkpt>
      <trkpt lat="38.8656360" lon="1.2476540">
        <ele>239.1</ele>
        <time>2020-02-21T13:38:51Z</time>
      </trkpt>
      <trkpt lat="38.8656400" lon="1.2476350">
        <ele>239.3</ele>
        <time>2020-02-21T13:38:52Z</time>
      </trkpt>
      <trkpt lat="38.8656480" lon="1.2476140">
        <ele>239.5</ele>
        <time>2020-02-21T13:38:53Z</time>
      </trkpt>
      <trkpt lat="38.8656570" lon="1.2476020">
        <ele>239.6</ele>
        <time>2020-02-21T13:38:54Z</time>
      </trkpt>
      <trkpt lat="38.8656710" lon="1.2475660">
        <ele>240.0</ele>
        <time>2020-02-21T13:38:55Z</time>
      </trkpt>
      <trkpt lat="38.8656740" lon="1.2475530">
        <ele>240.2</ele>
        <time>2020-02-21T13:38:56Z</time>
      </trkpt>
      <trkpt lat="38.8656820" lon="1.2475310">
        <ele>240.4</ele>
        <time>2020-02-21T13:38:57Z</time>
      </trkpt>
      <trkpt lat="38.8656820" lon="1.2475180">
        <ele>240.5</ele>
        <time>2020-02-21T13:38:58Z</time>
      </trkpt>
      <trkpt lat="38.8656920" lon="1.2474840">
        <ele>240.9</ele>
        <time>2020-02-21T13:38:59Z</time>
      </trkpt>
      <trkpt lat="38.8656940" lon="1.2474720">
        <ele>241.0</ele>
        <time>2020-02-21T13:39:00Z</time>
      </trkpt>
      <trkpt lat="38.8657060" lon="1.2474350">
        <ele>241.4</ele>
        <time>2020-02-21T13:39:01Z</time>
      </trkpt>
      <trkpt lat="38.8657070" lon="1.2474240">
        <ele>241.5</ele>
        <time>2020-02-21T13:39:02Z</time>
      </trkpt>
      <trkpt lat="38.8657140" lon="1.2473920">
        <ele>241.9</ele>
        <time>2020-02-21T13:39:03Z</time>
      </trkpt>
      <trkpt lat="38.8657190" lon="1.2473770">
        <ele>242.1</ele>
        <time>2020-02-21T13:39:04Z</time>
      </trkpt>
      <trkpt lat="38.8657280" lon="1.2473440">
        <ele>242.5</ele>
        <time>2020-02-21T13:39:05Z</time>
      </trkpt>
      <trkpt lat="38.8657400" lon="1.2473160">
        <ele>242.8</ele>
        <time>2020-02-21T13:39:06Z</time>
      </trkpt>
      <trkpt lat="38.8657510" lon="1.2473110">
        <ele>243.0</ele>
        <time>2020-02-21T13:39:07Z</time>
      </trkpt>
      <trkpt lat="38.8657770" lon="1.2472920">
        <ele>243.4</ele>
        <time>2020-02-21T13:39:08Z</time>
      </trkpt>
      <trkpt lat="38.8657850" lon="1.2472860">
        <ele>243.5</ele>
        <time>2020-02-21T13:39:09Z</time>
      </trkpt>
      <trkpt lat="38.8658130" lon="1.2472700">
        <ele>243.9</ele>
        <time>2020-02-21T13:39:10Z</time>
      </trkpt>
      <trkpt lat="38.8658230" lon="1.2472670">
        <ele>244.1</ele>
        <time>2020-02-21T13:39:11Z</time>
      </trkpt>
      <trkpt lat="38.8658390" lon="1.2472680">
        <ele>244.3</ele>
        <time>2020-02-21T13:39:12Z</time>
      </trkpt>
      <trkpt lat="38.8658530" lon="1.2472890">
        <ele>244.6</ele>
        <time>2020-02-21T13:39:13Z</time>
      </trkpt>
      <trkpt lat="38.8658750" lon="1.2473140">
        <ele>245.0</ele>
        <time>2020-02-21T13:39:14Z</time>
      </trkpt>
      <trkpt lat="38.8658800" lon="1.2473210">
        <ele>245.1</ele>
        <time>2020-02-21T13:39:15Z</time>
      </trkpt>
      <trkpt lat="38.8658900" lon="1.2473310">
        <ele>245.3</ele>
        <time>2020-02-21T13:39:16Z</time>
      </trkpt>
      <trkpt lat="38.8659010" lon="1.2473520">
        <ele>245.6</ele>
        <time>2020-02-21T13:39:17Z</time>
      </trkpt>
      <trkpt lat="38.8659170" lon="1.2473870">
        <ele>246.0</ele>
        <time>2020-02-21T13:39:18Z</time>
      </trkpt>
      <trkpt lat="38.8659230" lon="1.2474000">
        <ele>246.1</ele>
        <time>2020-02-21T13:39:19Z</time>
      </trkpt>
      <trkpt lat="38.8659350" lon="1.2474350">
        <ele>246.5</ele>
        <time>2020-02-21T13:39:20Z</time>
      </trkpt>
      <trkpt lat="38.8659380" lon="1.2474470">
        <ele>246.6</ele>
        <time>2020-02-21T13:39:21Z</time>
      </trkpt>
      <trkpt lat="38.8659440" lon="1.2474830">
        <ele>247.0</ele>
        <time>2020-02-21T13:39:22Z</time>
      </trkpt>
      <trkpt lat="38.8659450" lon="1.2474950">
        <ele>247.1</ele>
        <time>2020-02-21T13:39:23Z</time>
      </trkpt>
      <trkpt lat="38.8659340" lon="1.2475420">
        <ele>247.5</ele>
        <time>2020-02-21T13:39:24Z</time>
      </trkpt>
      <trkpt lat="38.8659310" lon="1.2475570">
        <ele>247.6</ele>
        <time>2020-02-21T13:39:25Z</time>
      </trkpt>
      <trkpt lat="38.8659290" lon="1.2475960">
        <ele>247.9</ele>
        <time>2020-02-21T13:39:26Z</time>
      </trkpt>
      <trkpt lat="38.8659280" lon="1.2476090">
        <ele>248.0</ele>
        <time>2020-02-21T13:39:27Z</time>
      </trkpt>
      <trkpt lat="38.8659220" lon="1.2476480">
        <ele>248.3</ele>
        <time>2020-02-21T13:39:28Z</time>
      </trkpt>
      <trkpt lat="38.8659210" lon="1.2476610">
        <ele>248.4</ele>
        <time>2020-02-21T13:39:29Z</time>
      </trkpt>
      <trkpt lat="38.8659230" lon="1.2477000">
        <ele>248.7</ele>
        <time>2020-02-21T13:39:30Z</time>
      </trkpt>
      <trkpt lat="38.8659230" lon="1.2477120">
        <ele>248.8</ele>
        <time>2020-02-21T13:39:31Z</time>
      </trkpt>
      <trkpt lat="38.8659250" lon="1.2477320">
        <ele>248.9</ele>
        <time>2020-02-21T13:39:32Z</time>
      </trkpt>
      <trkpt lat="38.8659250" lon="1.2477540">
        <ele>249.1</ele>
        <time>2020-02-21T13:39:33Z</time>
      </trkpt>
      <trkpt lat="38.8659180" lon="1.2477890">
        <ele>249.4</ele>
        <time>2020-02-21T13:39:34Z</time>
      </trkpt>
      <trkpt lat="38.8659180" lon="1.2478010">
        <ele>249.5</ele>
        <time>2020-02-21T13:39:35Z</time>
      </trkpt>
      <trkpt lat="38.8659100" lon="1.2478420">
        <ele>249.8</ele>
        <time>2020-02-21T13:39:36Z</time>
      </trkpt>
      <trkpt lat="38.8659050" lon="1.2478570">
        <ele>249.9</ele>
        <time>2020-02-21T13:39:37Z</time>
      </trkpt>
      <trkpt lat="38.8658950" lon="1.2478970">
        <ele>250.2</ele>
        <time>2020-02-21T13:39:38Z</time>
      </trkpt>
      <trkpt lat="38.8658930" lon="1.2479060">
        <ele>250.3</ele>
        <time>2020-02-21T13:39:39Z</time>
      </trkpt>
      <trkpt lat="38.8658890" lon="1.2479480">
        <ele>250.6</ele>
        <time>2020-02-21T13:39:40Z</time>
      </trkpt>
      <trkpt lat="38.8658870" lon="1.2479640">
        <ele>250.7</ele>
        <time>2020-02-21T13:39:41Z</time>
      </trkpt>
      <trkpt lat="38.8658870" lon="1.2480060">
        <ele>251.0</ele>
        <time>2020-02-21T13:39:42Z</time>
      </trkpt>
      <trkpt lat="38.8658870" lon="1.2480170">
        <ele>251.1</ele>
        <time>2020-02-21T13:39:43Z</time>
      </trkpt>
      <trkpt lat="38.8658800" lon="1.2480530">
        <ele>251.4</ele>
        <time>2020-02-21T13:39:44Z</time>
      </trkpt>
      <trkpt lat="38.8658780" lon="1.2480650">
        <ele>251.4</ele>
        <time>2020-02-21T13:39:45Z</time>
      </trkpt>
      <trkpt lat="38.8658740" lon="1.2481130">
        <ele>251.8</ele>
        <time>2020-02-21T13:39:46Z</time>
      </trkpt>
      <trkpt lat="38.8658730" lon="1.2481300">
        <ele>251.9</ele>
        <time>2020-02-21T13:39:47Z</time>
      </trkpt>
      <trkpt lat="38.8658710" lon="1.2481720">
        <ele>252.3</ele>
        <time>2020-02-21T13:39:48Z</time>
      </trkpt>
      <trkpt lat="38.8658600" lon="1.2481880">
        <ele>252.4</ele>
        <time>2020-02-21T13:39:49Z</time>
      </trkpt>
      <trkpt lat="38.8658640" lon="1.2482160">
        <ele>252.7</ele>
        <time>2020-02-21T13:39:50Z</time>
      </trkpt>
      <trkpt lat="38.8658620" lon="1.2482550">
        <ele>253.0</ele>
        <time>2020-02-21T13:39:51Z</time>
      </trkpt>
      <trkpt lat="38.8658600" lon="1.2482680">
        <ele>253.1</ele>
        <time>2020-02-21T13:39:52Z</time>
      </trkpt>
      <trkpt lat="38.8658510" lon="1.2483050">
        <ele>253.4</ele>
        <time>2020-02-21T13:39:53Z</time>
      </trkpt>
      <trkpt lat="38.8658500" lon="1.2483520">
        <ele>253.8</ele>
        <time>2020-02-21T13:39:54Z</time>
      </trkpt>
      <trkpt lat="38.8658490" lon="1.2483650">
        <ele>253.9</ele>
        <time>2020-02-21T13:39:55Z</time>
      </trkpt>
      <trkpt lat="38.8658360" lon="1.2483900">
        <ele>254.2</ele>
        <time>2020-02-21T13:39:56Z</time>
      </trkpt>
      <trkpt lat="38.8658320" lon="1.2484060">
        <ele>254.3</ele>
        <time>2020-02-21T13:39:57Z</time>
      </trkpt>
      <trkpt lat="38.8658280" lon="1.2484520">
        <ele>254.7</ele>
        <time>2020-02-21T13:39:58Z</time>
      </trkpt>
      <trkpt lat="38.8658270" lon="1.2484700">
        <ele>254.9</ele>
        <time>2020-02-21T13:39:59Z</time>
      </trkpt>
      <trkpt lat="38.8658160" lon="1.2485200">
        <ele>255.3</ele>
        <time>2020-02-21T13:40:00Z</time>
      </trkpt>
      <trkpt lat="38.8658100" lon="1.2485350">
        <ele>255.5</ele>
        <time>2020-02-21T13:40:01Z</time>
      </trkpt>
      <trkpt lat="38.8658110" lon="1.2485720">
        <ele>255.8</ele>
        <time>2020-02-21T13:40:02Z</time>
      </trkpt>
      <trkpt lat="38.8658100" lon="1.2485870">
        <ele>255.9</ele>
        <time>2020-02-21T13:40:03Z</time>
      </trkpt>
      <trkpt lat="38.8658130" lon="1.2486260">
        <ele>256.3</ele>
        <time>2020-02-21T13:40:04Z</time>
      </trkpt>
      <trkpt lat="38.8658110" lon="1.2486400">
        <ele>256.4</ele>
        <time>2020-02-21T13:40:05Z</time>
      </trkpt>
      <trkpt lat="38.8658060" lon="1.2486760">
        <ele>256.7</ele>
        <time>2020-02-21T13:40:06Z</time>
      </trkpt>
      <trkpt lat="38.8658030" lon="1.2486870">
        <ele>256.8</ele>
        <time>2020-02-21T13:40:07Z</time>
      </trkpt>
      <trkpt lat="38.8658170" lon="1.2487340">
        <ele>257.2</ele>
        <time>2020-02-21T13:40:08Z</time>
      </trkpt>
      <trkpt lat="38.8658210" lon="1.2487490">
        <ele>257.4</ele>
        <time>2020-02-21T13:40:09Z</time>
      </trkpt>
      <trkpt lat="38.8658350" lon="1.2487590">
        <ele>257.6</ele>
        <time>2020-02-21T13:40:10Z</time>
      </trkpt>
      <trkpt lat="38.8658500" lon="1.2487620">
        <ele>257.7</ele>
        <time>2020-02-21T13:40:11Z</time>
      </trkpt>
      <trkpt lat="38.8658800" lon="1.2487560">
        <ele>258.1</ele>
        <time>2020-02-21T13:40:12Z</time>
      </trkpt>
      <trkpt lat="38.8658890" lon="1.2487510">
        <ele>258.2</ele>
        <time>2020-02-21T13:40:13Z</time>
      </trkpt>
      <trkpt lat="38.8659150" lon="1.2487170">
        <ele>258.6</ele>
        <time>2020-02-21T13:40:14Z</time>
      </trkpt>
      <trkpt lat="38.8659200" lon="1.2487040">
        <ele>258.8</ele>
        <time>2020-02-21T13:40:15Z</time>
      </trkpt>
      <trkpt lat="38.8659270" lon="1.2486840">
        <ele>259.0</ele>
        <time>2020-02-21T13:40:16Z</time>
      </trkpt>
      <trkpt lat="38.8659320" lon="1.2486620">
        <ele>259.2</ele>
        <time>2020-02-21T13:40:17Z</time>
      </trkpt>
      <trkpt lat="38.8659450" lon="1.2486290">
        <ele>259.5</ele>
        <time>2020-02-21T13:40:18Z</time>
      </trkpt>
      <trkpt lat="38.8659500" lon="1.2486130">
        <ele>259.6</ele>
        <time>2020-02-21T13:40:19Z</time>
      </trkpt>
      <trkpt lat="38.8659620" lon="1.2485710">
        <ele>260.1</ele>
        <time>2020-02-21T13:40:20Z</time>
      </trkpt>
      <trkpt lat="38.8659660" lon="1.2485600">
        <ele>260.2</ele>
        <time>2020-02-21T13:40:21Z</time>
      </trkpt>
      <trkpt lat="38.8659760" lon="1.2485360">
        <ele>260.5</ele>
        <time>2020-02-21T13:40:22Z</time>
      </trkpt>
      <trkpt lat="38.8659800" lon="1.2485200">
        <ele>260.6</ele>
        <time>2020-02-21T13:40:23Z</time>
      </trkpt>
      <trkpt lat="38.8659970" lon="1.2484910">
        <ele>261.0</ele>
        <time>2020-02-21T13:40:24Z</time>
      </trkpt>
      <trkpt lat="38.8660020" lon="1.2484800">
        <ele>261.1</ele>
        <time>2020-02-21T13:40:25Z</time>
      </trkpt>
      <trkpt lat="38.8660200" lon="1.2484480">
        <ele>261.5</ele>
        <time>2020-02-21T13:40:26Z</time>
      </trkpt>
      <trkpt lat="38.8660260" lon="1.2484340">
        <ele>261.7</ele>
        <time>2020-02-21T13:40:27Z</time>
      </trkpt>
      <trkpt lat="38.8660440" lon="1.2484000">
        <ele>262.1</ele>
        <time>2020-02-21T13:40:28Z</time>
      </trkpt>
      <trkpt lat="38.8660460" lon="1.2483910">
        <ele>262.2</ele>
        <time>2020-02-21T13:40:29Z</time>
      </trkpt>
      <trkpt lat="38.8660590" lon="1.2483750">
        <ele>262.4</ele>
        <time>2020-02-21T13:40:30Z</time>
      </trkpt>
      <trkpt lat="38.8660680" lon="1.2483620">
        <ele>262.6</ele>
        <time>2020-02-21T13:40:31Z</time>
      </trkpt>
      <trkpt lat="38.8660760" lon="1.2483440">
        <ele>262.8</ele>
        <time>2020-02-21T13:40:32Z</time>
      </trkpt>
      <trkpt lat="38.8660890" lon="1.2483260">
        <ele>263.1</ele>
        <time>2020-02-21T13:40:33Z</time>
      </trkpt>
      <trkpt lat="38.8660990" lon="1.2483100">
        <ele>263.3</ele>
        <time>2020-02-21T13:40:34Z</time>
      </trkpt>
      <trkpt lat="38.8661100" lon="1.2482950">
        <ele>263.5</ele>
        <time>2020-02-21T13:40:35Z</time>
      </trkpt>
      <trkpt lat="38.8661220" lon="1.2482820">
        <ele>263.8</ele>
        <time>2020-02-21T13:40:36Z</time>
      </trkpt>
      <trkpt lat="38.8661300" lon="1.2482690">
        <ele>263.9</ele>
        <time>2020-02-21T13:40:37Z</time>
      </trkpt>
      <trkpt lat="38.8661440" lon="1.2482480">
        <ele>264.2</ele>
        <time>2020-02-21T13:40:38Z</time>
      </trkpt>
      <trkpt lat="38.8661500" lon="1.2482360">
        <ele>264.4</ele>
        <time>2020-02-21T13:40:39Z</time>
      </trkpt>
      <trkpt lat="38.8661560" lon="1.2482230">
        <ele>264.6</ele>
        <time>2020-02-21T13:40:40Z</time>
      </trkpt>
      <trkpt lat="38.8661630" lon="1.2481990">
        <ele>264.8</ele>
        <time>2020-02-21T13:40:41Z</time>
      </trkpt>
      <trkpt lat="38.8661700" lon="1.2481840">
        <ele>265.0</ele>
        <time>2020-02-21T13:40:42Z</time>
      </trkpt>
      <trkpt lat="38.8661850" lon="1.2481540">
        <ele>265.4</ele>
        <time>2020-02-21T13:40:43Z</time>
      </trkpt>
      <trkpt lat="38.8661910" lon="1.2481390">
        <ele>265.6</ele>
        <time>2020-02-21T13:40:44Z</time>
      </trkpt>
      <trkpt lat="38.8662070" lon="1.2481020">
        <ele>266.0</ele>
        <time>2020-02-21T13:40:45Z</time>
      </trkpt>
      <trkpt lat="38.8662140" lon="1.2480940">
        <ele>266.2</ele>
        <time>2020-02-21T13:40:46Z</time>
      </trkpt>
      <trkpt lat="38.8662240" lon="1.2480560">
        <ele>266.7</ele>
        <time>2020-02-21T13:40:47Z</time>
      </trkpt>
      <trkpt lat="38.8662230" lon="1.2480450">
        <ele>266.8</ele>
        <time>2020-02-21T13:40:48Z</time>
      </trkpt>
      <trkpt lat="38.8662460" lon="1.2480130">
        <ele>267.3</ele>
        <time>2020-02-21T13:40:49Z</time>
      </trkpt>
      <trkpt lat="38.8662520" lon="1.2480040">
        <ele>267.4</ele>
        <time>2020-02-21T13:40:50Z</time>
      </trkpt>
      <trkpt lat="38.8662610" lon="1.2479830">
        <ele>267.6</ele>
        <time>2020-02-21T13:40:51Z</time>
      </trkpt>
      <trkpt lat="38.8662670" lon="1.2479670">
        <ele>267.8</ele>
        <time>2020-02-21T13:40:52Z</time>
      </trkpt>
      <trkpt lat="38.8662760" lon="1.2479430">
        <ele>268.2</ele>
        <time>2020-02-21T13:40:53Z</time>
      </trkpt>
      <trkpt lat="38.8662820" lon="1.2479340">
        <ele>268.3</ele>
        <time>2020-02-21T13:40:54Z</time>
      </trkpt>
      <trkpt lat="38.8662870" lon="1.2479260">
        <ele>268.4</ele>
        <time>2020-02-21T13:40:55Z</time>
      </trkpt>
      <trkpt lat="38.8662950" lon="1.2479000">
        <ele>268.7</ele>
        <time>2020-02-21T13:40:56Z</time>
      </trkpt>
      <trkpt lat="38.8662960" lon="1.2478870">
        <ele>268.9</ele>
        <time>2020-02-21T13:40:57Z</time>
      </trkpt>
      <trkpt lat="38.8662960" lon="1.2478730">
        <ele>269.0</ele>
        <time>2020-02-21T13:40:58Z</time>
      </trkpt>
      <trkpt lat="38.8663140" lon="1.2478460">
        <ele>269.4</ele>
        <time>2020-02-21T13:40:59Z</time>
      </trkpt>
      <trkpt lat="38.8663230" lon="1.2478360">
        <ele>269.6</ele>
        <time>2020-02-21T13:41:00Z</time>
      </trkpt>
      <trkpt lat="38.8663400" lon="1.2478080">
        <ele>269.9</ele>
        <time>2020-02-21T13:41:01Z</time>
      </trkpt>
      <trkpt lat="38.8663460" lon="1.2477980">
        <ele>270.1</ele>
        <time>2020-02-21T13:41:02Z</time>
      </trkpt>
      <trkpt lat="38.8663520" lon="1.2477800">
        <ele>270.3</ele>
        <time>2020-02-21T13:41:03Z</time>
      </trkpt>
      <trkpt lat="38.8663520" lon="1.2477700">
        <ele>270.4</ele>
        <time>2020-02-21T13:41:04Z</time>
      </trkpt>
      <trkpt lat="38.8663520" lon="1.2477600">
        <ele>270.5</ele>
        <time>2020-02-21T13:41:05Z</time>
      </trkpt>
      <trkpt lat="38.8663520" lon="1.2477500">
        <ele>270.6</ele>
        <time>2020-02-21T13:41:06Z</time>
      </trkpt>
      <trkpt lat="38.8663550" lon="1.2477340">
        <ele>270.7</ele>
        <time>2020-02-21T13:41:07Z</time>
      </trkpt>
      <trkpt lat="38.8663650" lon="1.2477140">
        <ele>271.0</ele>
        <time>2020-02-21T13:41:08Z</time>
      </trkpt>
      <trkpt lat="38.8663830" lon="1.2476830">
        <ele>271.3</ele>
        <time>2020-02-21T13:41:09Z</time>
      </trkpt>
      <trkpt lat="38.8663860" lon="1.2476700">
        <ele>271.5</ele>
        <time>2020-02-21T13:41:10Z</time>
      </trkpt>
      <trkpt lat="38.8663950" lon="1.2476580">
        <ele>271.7</ele>
        <time>2020-02-21T13:41:11Z</time>
      </trkpt>
      <trkpt lat="38.8663990" lon="1.2476390">
        <ele>271.9</ele>
        <time>2020-02-21T13:41:12Z</time>
      </trkpt>
      <trkpt lat="38.8664050" lon="1.2476280">
        <ele>272.0</ele>
        <time>2020-02-21T13:41:13Z</time>
      </trkpt>
      <trkpt lat="38.8664150" lon="1.2476060">
        <ele>272.3</ele>
        <time>2020-02-21T13:41:14Z</time>
      </trkpt>
      <trkpt lat="38.8664170" lon="1.2475820">
        <ele>272.5</ele>
        <time>2020-02-21T13:41:15Z</time>
      </trkpt>
      <trkpt lat="38.8664270" lon="1.2475640">
        <ele>272.7</ele>
        <time>2020-02-21T13:41:16Z</time>
      </trkpt>
      <trkpt lat="38.8664390" lon="1.2475570">
        <ele>272.9</ele>
        <time>2020-02-21T13:41:17Z</time>
      </trkpt>
      <trkpt lat="38.8664500" lon="1.2475430">
        <ele>273.1</ele>
        <time>2020-02-21T13:41:18Z</time>
      </trkpt>
      <trkpt lat="38.8664550" lon="1.2475330">
        <ele>273.2</ele>
        <time>2020-02-21T13:41:19Z</time>
      </trkpt>
      <trkpt lat="38.8664590" lon="1.2475100">
        <ele>273.5</ele>
        <time>2020-02-21T13:41:20Z</time>
      </trkpt>
      <trkpt lat="38.8664640" lon="1.2474970">
        <ele>273.6</ele>
        <time>2020-02-21T13:41:21Z</time>
      </trkpt>
      <trkpt lat="38.8664720" lon="1.2474840">
        <ele>273.8</ele>
        <time>2020-02-21T13:41:22Z</time>
      </trkpt>
      <trkpt lat="38.8664790" lon="1.2474740">
        <ele>273.9</ele>
        <time>2020-02-21T13:41:23Z</time>
      </trkpt>
      <trkpt lat="38.8664890" lon="1.2474610">
        <ele>274.2</ele>
        <time>2020-02-21T13:41:24Z</time>
      </trkpt>
      <trkpt lat="38.8664940" lon="1.2474600">
        <ele>274.2</ele>
        <time>2020-02-21T13:41:25Z</time>
      </trkpt>
      <trkpt lat="38.8665040" lon="1.2474500">
        <ele>274.4</ele>
        <time>2020-02-21T13:41:26Z</time>
      </trkpt>
      <trkpt lat="38.8665160" lon="1.2474250">
        <ele>274.8</ele>
        <time>2020-02-21T13:41:27Z</time>
      </trkpt>
      <trkpt lat="38.8665210" lon="1.2474150">
        <ele>274.9</ele>
        <time>2020-02-21T13:41:28Z</time>
      </trkpt>
      <trkpt lat="38.8665270" lon="1.2474050">
        <ele>275.0</ele>
        <time>2020-02-21T13:41:29Z</time>
      </trkpt>
      <trkpt lat="38.8665390" lon="1.2473910">
        <ele>275.2</ele>
        <time>2020-02-21T13:41:30Z</time>
      </trkpt>
      <trkpt lat="38.8665540" lon="1.2473830">
        <ele>275.5</ele>
        <time>2020-02-21T13:41:31Z</time>
      </trkpt>
      <trkpt lat="38.8665510" lon="1.2473740">
        <ele>275.6</ele>
        <time>2020-02-21T13:41:32Z</time>
      </trkpt>
      <trkpt lat="38.8665580" lon="1.2473690">
        <ele>275.7</ele>
        <time>2020-02-21T13:41:33Z</time>
      </trkpt>
      <trkpt lat="38.8665690" lon="1.2473600">
        <ele>275.9</ele>
        <time>2020-02-21T13:41:34Z</time>
      </trkpt>
      <trkpt lat="38.8665790" lon="1.2473520">
        <ele>276.0</ele>
        <time>2020-02-21T13:41:35Z</time>
      </trkpt>
      <trkpt lat="38.8665860" lon="1.2473230">
        <ele>276.4</ele>
        <time>2020-02-21T13:41:36Z</time>
      </trkpt>
      <trkpt lat="38.8665860" lon="1.2473060">
        <ele>276.6</ele>
        <time>2020-02-21T13:41:37Z</time>
      </trkpt>
      <trkpt lat="38.8665870" lon="1.2472880">
        <ele>276.8</ele>
        <time>2020-02-21T13:41:38Z</time>
      </trkpt>
      <trkpt lat="38.8665900" lon="1.2472510">
        <ele>277.2</ele>
        <time>2020-02-21T13:41:39Z</time>
      </trkpt>
      <trkpt lat="38.8665950" lon="1.2472140">
        <ele>277.6</ele>
        <time>2020-02-21T13:41:40Z</time>
      </trkpt>
      <trkpt lat="38.8666140" lon="1.2471800">
        <ele>278.1</ele>
        <time>2020-02-21T13:41:41Z</time>
      </trkpt>
      <trkpt lat="38.8666310" lon="1.2471370">
        <ele>278.6</ele>
        <time>2020-02-21T13:41:42Z</time>
      </trkpt>
      <trkpt lat="38.8666390" lon="1.2471240">
        <ele>278.8</ele>
        <time>2020-02-21T13:41:43Z</time>
      </trkpt>
      <trkpt lat="38.8666530" lon="1.2471150">
        <ele>279.1</ele>
        <time>2020-02-21T13:41:44Z</time>
      </trkpt>
      <trkpt lat="38.8666740" lon="1.2471140">
        <ele>279.4</ele>
        <time>2020-02-21T13:41:45Z</time>
      </trkpt>
      <trkpt lat="38.8666980" lon="1.2471300">
        <ele>279.8</ele>
        <time>2020-02-21T13:41:46Z</time>
      </trkpt>
      <trkpt lat="38.8667190" lon="1.2471540">
        <ele>280.2</ele>
        <time>2020-02-21T13:41:47Z</time>
      </trkpt>
      <trkpt lat="38.8667360" lon="1.2472060">
        <ele>280.9</ele>
        <time>2020-02-21T13:41:48Z</time>
      </trkpt>
      <trkpt lat="38.8667380" lon="1.2472290">
        <ele>281.1</ele>
        <time>2020-02-21T13:41:49Z</time>
      </trkpt>
      <trkpt lat="38.8667310" lon="1.2472740">
        <ele>281.6</ele>
        <time>2020-02-21T13:41:50Z</time>
      </trkpt>
      <trkpt lat="38.8667120" lon="1.2473110">
        <ele>282.1</ele>
        <time>2020-02-21T13:41:51Z</time>
      </trkpt>
      <trkpt lat="38.8666930" lon="1.2473600">
        <ele>282.6</ele>
        <time>2020-02-21T13:41:52Z</time>
      </trkpt>
      <trkpt lat="38.8666840" lon="1.2473790">
        <ele>282.9</ele>
        <time>2020-02-21T13:41:53Z</time>
      </trkpt>
      <trkpt lat="38.8666670" lon="1.2474120">
        <ele>283.2</ele>
        <time>2020-02-21T13:41:54Z</time>
      </trkpt>
      <trkpt lat="38.8666480" lon="1.2474400">
        <ele>283.6</ele>
        <time>2020-02-21T13:41:55Z</time>
      </trkpt>
      <trkpt lat="38.8666420" lon="1.2474800">
        <ele>283.9</ele>
        <time>2020-02-21T13:41:56Z</time>
      </trkpt>
      <trkpt lat="38.8666370" lon="1.2474940">
        <ele>284.1</ele>
        <time>2020-02-21T13:41:57Z</time>
      </trkpt>
      <trkpt lat="38.8666310" lon="1.2475200">
        <ele>284.3</ele>
        <time>2020-02-21T13:41:58Z</time>
      </trkpt>
      <trkpt lat="38.8666350" lon="1.2475340">
        <ele>284.4</ele>
        <time>2020-02-21T13:41:59Z</time>
      </trkpt>
      <trkpt lat="38.8666480" lon="1.2475300">
        <ele>284.6</ele>
        <time>2020-02-21T13:42:00Z</time>
      </trkpt>
      <trkpt lat="38.8666440" lon="1.2475100">
        <ele>284.8</ele>
        <time>2020-02-21T13:42:01Z</time>
      </trkpt>
      <trkpt lat="38.8666350" lon="1.2475040">
        <ele>284.9</ele>
        <time>2020-02-21T13:42:02Z</time>
      </trkpt>
      <trkpt lat="38.8666360" lon="1.2475030">
        <ele>284.9</ele>
        <time>2020-02-21T13:42:03Z</time>
      </trkpt>
      <trkpt lat="38.8666350" lon="1.2475020">
        <ele>284.9</ele>
        <time>2020-02-21T13:42:04Z</time>
      </trkpt>
      <trkpt lat="38.8666350" lon="1.2475030">
        <ele>284.9</ele>
        <time>2020-02-21T13:42:05Z</time>
      </trkpt>
      <trkpt lat="38.8666350" lon="1.2475020">
        <ele>284.9</ele>
        <time>2020-02-21T13:42:06Z</time>
      </trkpt>
      <trkpt lat="38.8666340" lon="1.2475020">
        <ele>284.9</ele>
        <time>2020-02-21T13:42:07Z</time>
      </trkpt>
      <trkpt lat="38.8666340" lon="1.2475010">
        <ele>285.0</ele>
        <time>2020-02-21T13:42:08Z</time>
      </trkpt>
      <trkpt lat="38.8666350" lon="1.2474990">
        <ele>285.0</ele>
        <time>2020-02-21T13:42:09Z</time>
      </trkpt>
      <trkpt lat="38.8666340" lon="1.2474990">
        <ele>285.0</ele>
        <time>2020-02-21T13:42:10Z</time>
      </trkpt>
      <trkpt lat="38.8666310" lon="1.2475590">
        <ele>285.5</ele>
        <time>2020-02-21T13:42:36Z</time>
      </trkpt>
      <trkpt lat="38.8666300" lon="1.2475670">
        <ele>285.6</ele>
        <time>2020-02-21T13:42:37Z</time>
      </trkpt>
      <trkpt lat="38.8666290" lon="1.2475770">
        <ele>285.7</ele>
        <time>2020-02-21T13:42:38Z</time>
      </trkpt>
      <trkpt lat="38.8666360" lon="1.2475930">
        <ele>285.9</ele>
        <time>2020-02-21T13:42:39Z</time>
      </trkpt>
      <trkpt lat="38.8666390" lon="1.2476070">
        <ele>286.0</ele>
        <time>2020-02-21T13:42:40Z</time>
      </trkpt>
      <trkpt lat="38.8666420" lon="1.2476220">
        <ele>286.1</ele>
        <time>2020-02-21T13:42:41Z</time>
      </trkpt>
      <trkpt lat="38.8666420" lon="1.2476580">
        <ele>286.5</ele>
        <time>2020-02-21T13:42:42Z</time>
      </trkpt>
      <trkpt lat="38.8666360" lon="1.2476930">
        <ele>286.8</ele>
        <time>2020-02-21T13:42:43Z</time>
      </trkpt>
      <trkpt lat="38.8666350" lon="1.2477400">
        <ele>287.3</ele>
        <time>2020-02-21T13:42:44Z</time>
      </trkpt>
      <trkpt lat="38.8666340" lon="1.2477530">
        <ele>287.4</ele>
        <time>2020-02-21T13:42:45Z</time>
      </trkpt>
      <trkpt lat="38.8666440" lon="1.2477890">
        <ele>287.8</ele>
        <time>2020-02-21T13:42:46Z</time>
      </trkpt>
      <trkpt lat="38.8666460" lon="1.2478020">
        <ele>287.9</ele>
        <time>2020-02-21T13:42:47Z</time>
      </trkpt>
      <trkpt lat="38.8666510" lon="1.2478420">
        <ele>288.3</ele>
        <time>2020-02-21T13:42:48Z</time>
      </trkpt>
      <trkpt lat="38.8666520" lon="1.2478540">
        <ele>288.4</ele>
        <time>2020-02-21T13:42:49Z</time>
      </trkpt>
      <trkpt lat="38.8666610" lon="1.2478960">
        <ele>288.8</ele>
        <time>2020-02-21T13:42:50Z</time>
      </trkpt>
      <trkpt lat="38.8666680" lon="1.2479090">
        <ele>289.0</ele>
        <time>2020-02-21T13:42:51Z</time>
      </trkpt>
      <trkpt lat="38.8667000" lon="1.2479320">
        <ele>289.4</ele>
        <time>2020-02-21T13:42:52Z</time>
      </trkpt>
      <trkpt lat="38.8667130" lon="1.2479310">
        <ele>289.6</ele>
        <time>2020-02-21T13:42:53Z</time>
      </trkpt>
      <trkpt lat="38.8667450" lon="1.2479200">
        <ele>290.0</ele>
        <time>2020-02-21T13:42:54Z</time>
      </trkpt>
      <trkpt lat="38.8667650" lon="1.2478930">
        <ele>290.3</ele>
        <time>2020-02-21T13:42:55Z</time>
      </trkpt>
      <trkpt lat="38.8667820" lon="1.2478550">
        <ele>290.8</ele>
        <time>2020-02-21T13:42:56Z</time>
      </trkpt>
      <trkpt lat="38.8667840" lon="1.2478430">
        <ele>290.9</ele>
        <time>2020-02-21T13:42:57Z</time>
      </trkpt>
      <trkpt lat="38.8667890" lon="1.2477980">
        <ele>291.3</ele>
        <time>2020-02-21T13:42:58Z</time>
      </trkpt>
      <trkpt lat="38.8667900" lon="1.2477810">
        <ele>291.5</ele>
        <time>2020-02-21T13:42:59Z</time>
      </trkpt>
      <trkpt lat="38.8667960" lon="1.2477400">
        <ele>291.9</ele>
        <time>2020-02-21T13:43:00Z</time>
      </trkpt>
      <trkpt lat="38.8667990" lon="1.2477260">
        <ele>292.1</ele>
        <time>2020-02-21T13:43:01Z</time>
      </trkpt>
      <trkpt lat="38.8668160" lon="1.2476990">
        <ele>292.5</ele>
        <time>2020-02-21T13:43:02Z</time>
      </trkpt>
      <trkpt lat="38.8668240" lon="1.2476860">
        <ele>292.6</ele>
        <time>2020-02-21T13:43:03Z</time>
      </trkpt>
      <trkpt lat="38.8668410" lon="1.2476540">
        <ele>293.1</ele>
        <time>2020-02-21T13:43:04Z</time>
      </trkpt>
      <trkpt lat="38.8668450" lon="1.2476400">
        <ele>293.2</ele>
        <time>2020-02-21T13:43:05Z</time>
      </trkpt>
      <trkpt lat="38.8668480" lon="1.2476200">
        <ele>293.5</ele>
        <time>2020-02-21T13:43:06Z</time>
      </trkpt>
      <trkpt lat="38.8668620" lon="1.2476090">
        <ele>293.7</ele>
        <time>2020-02-21T13:43:07Z</time>
      </trkpt>
      <trkpt lat="38.8668760" lon="1.2476010">
        <ele>293.9</ele>
        <time>2020-02-21T13:43:08Z</time>
      </trkpt>
      <trkpt lat="38.8668920" lon="1.2475910">
        <ele>294.2</ele>
        <time>2020-02-21T13:43:09Z</time>
      </trkpt>
      <trkpt lat="38.8669150" lon="1.2475690">
        <ele>294.6</ele>
        <time>2020-02-21T13:43:10Z</time>
      </trkpt>
      <trkpt lat="38.8669450" lon="1.2475480">
        <ele>295.0</ele>
        <time>2020-02-21T13:43:11Z</time>
      </trkpt>
      <trkpt lat="38.8669530" lon="1.2475430">
        <ele>295.1</ele>
        <time>2020-02-21T13:43:12Z</time>
      </trkpt>
      <trkpt lat="38.8669760" lon="1.2475150">
        <ele>295.5</ele>
        <time>2020-02-21T13:43:13Z</time>
      </trkpt>
      <trkpt lat="38.8669830" lon="1.2475080">
        <ele>295.6</ele>
        <time>2020-02-21T13:43:14Z</time>
      </trkpt>
      <trkpt lat="38.8669960" lon="1.2474990">
        <ele>295.8</ele>
        <time>2020-02-21T13:43:15Z</time>
      </trkpt>
      <trkpt lat="38.8670140" lon="1.2474930">
        <ele>296.0</ele>
        <time>2020-02-21T13:43:16Z</time>
      </trkpt>
      <trkpt lat="38.8670400" lon="1.2474700">
        <ele>296.4</ele>
        <time>2020-02-21T13:43:17Z</time>
      </trkpt>
      <trkpt lat="38.8670480" lon="1.2474610">
        <ele>296.5</ele>
        <time>2020-02-21T13:43:18Z</time>
      </trkpt>
      <trkpt lat="38.8670730" lon="1.2474370">
        <ele>296.9</ele>
        <time>2020-02-21T13:43:19Z</time>
      </trkpt>
      <trkpt lat="38.8670790" lon="1.2474300">
        <ele>297.0</ele>
        <time>2020-02-21T13:43:20Z</time>
      </trkpt>
      <trkpt lat="38.8671070" lon="1.2474210">
        <ele>297.4</ele>
        <time>2020-02-21T13:43:21Z</time>
      </trkpt>
      <trkpt lat="38.8671170" lon="1.2474190">
        <ele>297.5</ele>
        <time>2020-02-21T13:43:22Z</time>
      </trkpt>
      <trkpt lat="38.8671330" lon="1.2474060">
        <ele>297.7</ele>
        <time>2020-02-21T13:43:23Z</time>
      </trkpt>
      <trkpt lat="38.8671470" lon="1.2473970">
        <ele>297.8</ele>
        <time>2020-02-21T13:43:24Z</time>
      </trkpt>
      <trkpt lat="38.8671630" lon="1.2473890">
        <ele>298.0</ele>
        <time>2020-02-21T13:43:25Z</time>
      </trkpt>
      <trkpt lat="38.8671780" lon="1.2473790">
        <ele>298.2</ele>
        <time>2020-02-21T13:43:26Z</time>
      </trkpt>
      <trkpt lat="38.8672060" lon="1.2473680">
        <ele>298.5</ele>
        <time>2020-02-21T13:43:27Z</time>
      </trkpt>
      <trkpt lat="38.8672150" lon="1.2473650">
        <ele>298.7</ele>
        <time>2020-02-21T13:43:28Z</time>
      </trkpt>
      <trkpt lat="38.8672420" lon="1.2473670">
        <ele>299.0</ele>
        <time>2020-02-21T13:43:29Z</time>
      </trkpt>
      <trkpt lat="38.8672520" lon="1.2473650">
        <ele>299.1</ele>
        <time>2020-02-21T13:43:30Z</time>
      </trkpt>
      <trkpt lat="38.8672900" lon="1.2473480">
        <ele>299.6</ele>
        <time>2020-02-21T13:43:31Z</time>
      </trkpt>
      <trkpt lat="38.8673030" lon="1.2473420">
        <ele>299.7</ele>
        <time>2020-02-21T13:43:32Z</time>
      </trkpt>
      <trkpt lat="38.8673330" lon="1.2473470">
        <ele>300.1</ele>
        <time>2020-02-21T13:43:33Z</time>
      </trkpt>
      <trkpt lat="38.8673410" lon="1.2473440">
        <ele>300.2</ele>
        <time>2020-02-21T13:43:34Z</time>
      </trkpt>
      <trkpt lat="38.8673590" lon="1.2473340">
        <ele>300.5</ele>
        <time>2020-02-21T13:43:35Z</time>
      </trkpt>
      <trkpt lat="38.8673700" lon="1.2473320">
        <ele>300.6</ele>
        <time>2020-02-21T13:43:36Z</time>
      </trkpt>
      <trkpt lat="38.8673900" lon="1.2473150">
        <ele>301.0</ele>
        <time>2020-02-21T13:43:37Z</time>
      </trkpt>
      <trkpt lat="38.8673960" lon="1.2473080">
        <ele>301.1</ele>
        <time>2020-02-21T13:43:38Z</time>
      </trkpt>
      <trkpt lat="38.8674020" lon="1.2473020">
        <ele>301.2</ele>
        <time>2020-02-21T13:43:39Z</time>
      </trkpt>
      <trkpt lat="38.8674290" lon="1.2472940">
        <ele>301.6</ele>
        <time>2020-02-21T13:43:40Z</time>
      </trkpt>
      <trkpt lat="38.8674400" lon="1.2472890">
        <ele>301.8</ele>
        <time>2020-02-21T13:43:41Z</time>
      </trkpt>
      <trkpt lat="38.8674650" lon="1.2472700">
        <ele>302.2</ele>
        <time>2020-02-21T13:43:42Z</time>
      </trkpt>
      <trkpt lat="38.8674700" lon="1.2472610">
        <ele>302.3</ele>
        <time>2020-02-21T13:43:43Z</time>
      </trkpt>
      <trkpt lat="38.8674790" lon="1.2472460">
        <ele>302.5</ele>
        <time>2020-02-21T13:43:44Z</time>
      </trkpt>
      <trkpt lat="38.8675000" lon="1.2472340">
        <ele>302.8</ele>
        <time>2020-02-21T13:43:45Z</time>
      </trkpt>
      <trkpt lat="38.8675260" lon="1.2472070">
        <ele>303.3</ele>
        <time>2020-02-21T13:43:46Z</time>
      </trkpt>
      <trkpt lat="38.8675360" lon="1.2471990">
        <ele>303.5</ele>
        <time>2020-02-21T13:43:47Z</time>
      </trkpt>
      <trkpt lat="38.8675660" lon="1.2471820">
        <ele>303.9</ele>
        <time>2020-02-21T13:43:48Z</time>
      </trkpt>
      <trkpt lat="38.8675730" lon="1.2471790">
        <ele>304.0</ele>
        <time>2020-02-21T13:43:49Z</time>
      </trkpt>
      <trkpt lat="38.8675880" lon="1.2471800">
        <ele>304.3</ele>
        <time>2020-02-21T13:43:50Z</time>
      </trkpt>
      <trkpt lat="38.8676030" lon="1.2471760">
        <ele>304.5</ele>
        <time>2020-02-21T13:43:51Z</time>
      </trkpt>
      <trkpt lat="38.8676340" lon="1.2471690">
        <ele>305.0</ele>
        <time>2020-02-21T13:43:52Z</time>
      </trkpt>
      <trkpt lat="38.8676470" lon="1.2471710">
        <ele>305.2</ele>
        <time>2020-02-21T13:43:53Z</time>
      </trkpt>
      <trkpt lat="38.8676610" lon="1.2471790">
        <ele>305.4</ele>
        <time>2020-02-21T13:43:54Z</time>
      </trkpt>
      <trkpt lat="38.8676710" lon="1.2471910">
        <ele>306.0</ele>
        <time>2020-02-21T13:43:55Z</time>
      </trkpt>
      <trkpt lat="38.8676710" lon="1.2472010">
        <ele>306.0</ele>
        <time>2020-02-21T13:43:56Z</time>
      </trkpt>
      <trkpt lat="38.8676720" lon="1.2472270">
        <ele>306.1</ele>
        <time>2020-02-21T13:43:57Z</time>
      </trkpt>
      <trkpt lat="38.8676690" lon="1.2472640">
        <ele>306.3</ele>
        <time>2020-02-21T13:43:58Z</time>
      </trkpt>
      <trkpt lat="38.8676750" lon="1.2472920">
        <ele>306.3</ele>
        <time>2020-02-21T13:43:59Z</time>
      </trkpt>
      <trkpt lat="38.8676700" lon="1.2473100">
        <ele>306.4</ele>
        <time>2020-02-21T13:44:00Z</time>
      </trkpt>
      <trkpt lat="38.8676920" lon="1.2473420">
        <ele>306.4</ele>
        <time>2020-02-21T13:44:01Z</time>
      </trkpt>
      <trkpt lat="38.8677000" lon="1.2473550">
        <ele>306.5</ele>
        <time>2020-02-21T13:44:02Z</time>
      </trkpt>
      <trkpt lat="38.8677350" lon="1.2473740">
        <ele>306.4</ele>
        <time>2020-02-21T13:44:03Z</time>
      </trkpt>
      <trkpt lat="38.8677500" lon="1.2473790">
        <ele>306.4</ele>
        <time>2020-02-21T13:44:04Z</time>
      </trkpt>
      <trkpt lat="38.8677860" lon="1.2473620">
        <ele>306.2</ele>
        <time>2020-02-21T13:44:05Z</time>
      </trkpt>
      <trkpt lat="38.8678280" lon="1.2473250">
        <ele>305.9</ele>
        <time>2020-02-21T13:44:06Z</time>
      </trkpt>
      <trkpt lat="38.8678520" lon="1.2472850">
        <ele>305.7</ele>
        <time>2020-02-21T13:44:07Z</time>
      </trkpt>
      <trkpt lat="38.8678920" lon="1.2472400">
        <ele>305.3</ele>
        <time>2020-02-21T13:44:08Z</time>
      </trkpt>
      <trkpt lat="38.8679260" lon="1.2471880">
        <ele>305.0</ele>
        <time>2020-02-21T13:44:09Z</time>
      </trkpt>
      <trkpt lat="38.8679640" lon="1.2471310">
        <ele>304.7</ele>
        <time>2020-02-21T13:44:10Z</time>
      </trkpt>
      <trkpt lat="38.8679990" lon="1.2470890">
        <ele>304.4</ele>
        <time>2020-02-21T13:44:11Z</time>
      </trkpt>
      <trkpt lat="38.8680360" lon="1.2470330">
        <ele>304.0</ele>
        <time>2020-02-21T13:44:12Z</time>
      </trkpt>
      <trkpt lat="38.8680900" lon="1.2469680">
        <ele>303.1</ele>
        <time>2020-02-21T13:44:13Z</time>
      </trkpt>
      <trkpt lat="38.8681580" lon="1.2468990">
        <ele>302.1</ele>
        <time>2020-02-21T13:44:14Z</time>
      </trkpt>
      <trkpt lat="38.8682260" lon="1.2468210">
        <ele>301.4</ele>
        <time>2020-02-21T13:44:15Z</time>
      </trkpt>
      <trkpt lat="38.8682940" lon="1.2467480">
        <ele>300.6</ele>
        <time>2020-02-21T13:44:16Z</time>
      </trkpt>
      <trkpt lat="38.8683610" lon="1.2466810">
        <ele>299.9</ele>
        <time>2020-02-21T13:44:17Z</time>
      </trkpt>
      <trkpt lat="38.8684230" lon="1.2466180">
        <ele>299.3</ele>
        <time>2020-02-21T13:44:18Z</time>
      </trkpt>
      <trkpt lat="38.8684880" lon="1.2465640">
        <ele>298.7</ele>
        <time>2020-02-21T13:44:19Z</time>
      </trkpt>
      <trkpt lat="38.8685640" lon="1.2465070">
        <ele>298.0</ele>
        <time>2020-02-21T13:44:20Z</time>
      </trkpt>
      <trkpt lat="38.8686260" lon="1.2464370">
        <ele>297.4</ele>
        <time>2020-02-21T13:44:21Z</time>
      </trkpt>
      <trkpt lat="38.8686900" lon="1.2463610">
        <ele>296.9</ele>
        <time>2020-02-21T13:44:22Z</time>
      </trkpt>
      <trkpt lat="38.8687650" lon="1.2462660">
        <ele>296.3</ele>
        <time>2020-02-21T13:44:23Z</time>
      </trkpt>
      <trkpt lat="38.8688420" lon="1.2461770">
        <ele>295.6</ele>
        <time>2020-02-21T13:44:24Z</time>
      </trkpt>
      <trkpt lat="38.8689090" lon="1.2460870">
        <ele>295.1</ele>
        <time>2020-02-21T13:44:25Z</time>
      </trkpt>
      <trkpt lat="38.8689850" lon="1.2460080">
        <ele>294.7</ele>
        <time>2020-02-21T13:44:26Z</time>
      </trkpt>
      <trkpt lat="38.8690660" lon="1.2459380">
        <ele>294.3</ele>
        <time>2020-02-21T13:44:27Z</time>
      </trkpt>
      <trkpt lat="38.8691450" lon="1.2458770">
        <ele>294.0</ele>
        <time>2020-02-21T13:44:28Z</time>
      </trkpt>
      <trkpt lat="38.8692250" lon="1.2458170">
        <ele>293.7</ele>
        <time>2020-02-21T13:44:29Z</time>
      </trkpt>
      <trkpt lat="38.8693060" lon="1.2457610">
        <ele>293.7</ele>
        <time>2020-02-21T13:44:30Z</time>
      </trkpt>
      <trkpt lat="38.8693830" lon="1.2457150">
        <ele>293.7</ele>
        <time>2020-02-21T13:44:31Z</time>
      </trkpt>
      <trkpt lat="38.8694580" lon="1.2456620">
        <ele>293.7</ele>
        <time>2020-02-21T13:44:32Z</time>
      </trkpt>
      <trkpt lat="38.8695300" lon="1.2456280">
        <ele>293.7</ele>
        <time>2020-02-21T13:44:33Z</time>
      </trkpt>
      <trkpt lat="38.8696070" lon="1.2456030">
        <ele>293.8</ele>
        <time>2020-02-21T13:44:34Z</time>
      </trkpt>
      <trkpt lat="38.8696760" lon="1.2455830">
        <ele>293.9</ele>
        <time>2020-02-21T13:44:35Z</time>
      </trkpt>
      <trkpt lat="38.8697390" lon="1.2455560">
        <ele>293.9</ele>
        <time>2020-02-21T13:44:36Z</time>
      </trkpt>
      <trkpt lat="38.8697960" lon="1.2455280">
        <ele>294.0</ele>
        <time>2020-02-21T13:44:37Z</time>
      </trkpt>
      <trkpt lat="38.8698480" lon="1.2455070">
        <ele>294.1</ele>
        <time>2020-02-21T13:44:38Z</time>
      </trkpt>
      <trkpt lat="38.8698950" lon="1.2454820">
        <ele>294.1</ele>
        <time>2020-02-21T13:44:39Z</time>
      </trkpt>
      <trkpt lat="38.8699450" lon="1.2454760">
        <ele>294.2</ele>
        <time>2020-02-21T13:44:40Z</time>
      </trkpt>
      <trkpt lat="38.8699990" lon="1.2454830">
        <ele>294.2</ele>
        <time>2020-02-21T13:44:41Z</time>
      </trkpt>
      <trkpt lat="38.8700510" lon="1.2455160">
        <ele>294.1</ele>
        <time>2020-02-21T13:44:42Z</time>
      </trkpt>
      <trkpt lat="38.8700840" lon="1.2455600">
        <ele>294.0</ele>
        <time>2020-02-21T13:44:43Z</time>
      </trkpt>
      <trkpt lat="38.8701060" lon="1.2456180">
        <ele>293.8</ele>
        <time>2020-02-21T13:44:44Z</time>
      </trkpt>
      <trkpt lat="38.8700990" lon="1.2456740">
        <ele>293.6</ele>
        <time>2020-02-21T13:44:45Z</time>
      </trkpt>
      <trkpt lat="38.8700890" lon="1.2457250">
        <ele>293.4</ele>
        <time>2020-02-21T13:44:46Z</time>
      </trkpt>
      <trkpt lat="38.8700910" lon="1.2457820">
        <ele>293.2</ele>
        <time>2020-02-21T13:44:47Z</time>
      </trkpt>
      <trkpt lat="38.8700880" lon="1.2458490">
        <ele>292.9</ele>
        <time>2020-02-21T13:44:48Z</time>
      </trkpt>
      <trkpt lat="38.8700920" lon="1.2459180">
        <ele>292.6</ele>
        <time>2020-02-21T13:44:49Z</time>
      </trkpt>
      <trkpt lat="38.8700990" lon="1.2459920">
        <ele>292.3</ele>
        <time>2020-02-21T13:44:50Z</time>
      </trkpt>
      <trkpt lat="38.8701080" lon="1.2460670">
        <ele>291.9</ele>
        <time>2020-02-21T13:44:51Z</time>
      </trkpt>
      <trkpt lat="38.8701160" lon="1.2461510">
        <ele>291.3</ele>
        <time>2020-02-21T13:44:52Z</time>
      </trkpt>
      <trkpt lat="38.8701170" lon="1.2462410">
        <ele>290.7</ele>
        <time>2020-02-21T13:44:53Z</time>
      </trkpt>
      <trkpt lat="38.8701230" lon="1.2463340">
        <ele>290.0</ele>
        <time>2020-02-21T13:44:54Z</time>
      </trkpt>
      <trkpt lat="38.8701300" lon="1.2464270">
        <ele>289.4</ele>
        <time>2020-02-21T13:44:55Z</time>
      </trkpt>
      <trkpt lat="38.8701350" lon="1.2465220">
        <ele>288.6</ele>
        <time>2020-02-21T13:44:56Z</time>
      </trkpt>
      <trkpt lat="38.8701400" lon="1.2466180">
        <ele>287.8</ele>
        <time>2020-02-21T13:44:57Z</time>
      </trkpt>
      <trkpt lat="38.8701390" lon="1.2467150">
        <ele>287.1</ele>
        <time>2020-02-21T13:44:58Z</time>
      </trkpt>
      <trkpt lat="38.8701300" lon="1.2468140">
        <ele>286.3</ele>
        <time>2020-02-21T13:44:59Z</time>
      </trkpt>
      <trkpt lat="38.8701200" lon="1.2469140">
        <ele>285.6</ele>
        <time>2020-02-21T13:45:00Z</time>
      </trkpt>
      <trkpt lat="38.8701070" lon="1.2470140">
        <ele>284.8</ele>
        <time>2020-02-21T13:45:01Z</time>
      </trkpt>
      <trkpt lat="38.8700960" lon="1.2471150">
        <ele>283.9</ele>
        <time>2020-02-21T13:45:02Z</time>
      </trkpt>
      <trkpt lat="38.8701020" lon="1.2472140">
        <ele>283.1</ele>
        <time>2020-02-21T13:45:03Z</time>
      </trkpt>
      <trkpt lat="38.8701060" lon="1.2473120">
        <ele>282.2</ele>
        <time>2020-02-21T13:45:04Z</time>
      </trkpt>
      <trkpt lat="38.8701200" lon="1.2474000">
        <ele>281.4</ele>
        <time>2020-02-21T13:45:05Z</time>
      </trkpt>
      <trkpt lat="38.8701300" lon="1.2474810">
        <ele>280.7</ele>
        <time>2020-02-21T13:45:06Z</time>
      </trkpt>
      <trkpt lat="38.8701390" lon="1.2475630">
        <ele>280.0</ele>
        <time>2020-02-21T13:45:07Z</time>
      </trkpt>
      <trkpt lat="38.8701160" lon="1.2476410">
        <ele>279.3</ele>
        <time>2020-02-21T13:45:08Z</time>
      </trkpt>
      <trkpt lat="38.8700840" lon="1.2477160">
        <ele>278.4</ele>
        <time>2020-02-21T13:45:09Z</time>
      </trkpt>
      <trkpt lat="38.8700320" lon="1.2477800">
        <ele>277.8</ele>
        <time>2020-02-21T13:45:10Z</time>
      </trkpt>
      <trkpt lat="38.8699800" lon="1.2478520">
        <ele>277.1</ele>
        <time>2020-02-21T13:45:11Z</time>
      </trkpt>
      <trkpt lat="38.8699460" lon="1.2479450">
        <ele>276.2</ele>
        <time>2020-02-21T13:45:12Z</time>
      </trkpt>
      <trkpt lat="38.8699200" lon="1.2480490">
        <ele>275.3</ele>
        <time>2020-02-21T13:45:13Z</time>
      </trkpt>
      <trkpt lat="38.8699000" lon="1.2481580">
        <ele>274.6</ele>
        <time>2020-02-21T13:45:14Z</time>
      </trkpt>
      <trkpt lat="38.8698840" lon="1.2482650">
        <ele>274.0</ele>
        <time>2020-02-21T13:45:15Z</time>
      </trkpt>
      <trkpt lat="38.8698590" lon="1.2483710">
        <ele>273.4</ele>
        <time>2020-02-21T13:45:16Z</time>
      </trkpt>
      <trkpt lat="38.8698560" lon="1.2484780">
        <ele>272.8</ele>
        <time>2020-02-21T13:45:17Z</time>
      </trkpt>
      <trkpt lat="38.8698610" lon="1.2485880">
        <ele>272.0</ele>
        <time>2020-02-21T13:45:18Z</time>
      </trkpt>
      <trkpt lat="38.8698740" lon="1.2486980">
        <ele>271.4</ele>
        <time>2020-02-21T13:45:19Z</time>
      </trkpt>
      <trkpt lat="38.8698800" lon="1.2488050">
        <ele>270.8</ele>
        <time>2020-02-21T13:45:20Z</time>
      </trkpt>
      <trkpt lat="38.8698990" lon="1.2488990">
        <ele>270.2</ele>
        <time>2020-02-21T13:45:21Z</time>
      </trkpt>
      <trkpt lat="38.8699150" lon="1.2489890">
        <ele>269.3</ele>
        <time>2020-02-21T13:45:22Z</time>
      </trkpt>
      <trkpt lat="38.8699220" lon="1.2490800">
        <ele>268.7</ele>
        <time>2020-02-21T13:45:23Z</time>
      </trkpt>
      <trkpt lat="38.8699340" lon="1.2491760">
        <ele>268.1</ele>
        <time>2020-02-21T13:45:24Z</time>
      </trkpt>
      <trkpt lat="38.8699530" lon="1.2492710">
        <ele>267.5</ele>
        <time>2020-02-21T13:45:25Z</time>
      </trkpt>
      <trkpt lat="38.8699720" lon="1.2493610">
        <ele>266.9</ele>
        <time>2020-02-21T13:45:26Z</time>
      </trkpt>
      <trkpt lat="38.8699850" lon="1.2494500">
        <ele>266.2</ele>
        <time>2020-02-21T13:45:27Z</time>
      </trkpt>
      <trkpt lat="38.8699860" lon="1.2495400">
        <ele>265.7</ele>
        <time>2020-02-21T13:45:28Z</time>
      </trkpt>
      <trkpt lat="38.8699900" lon="1.2496300">
        <ele>265.0</ele>
        <time>2020-02-21T13:45:29Z</time>
      </trkpt>
      <trkpt lat="38.8699990" lon="1.2497180">
        <ele>264.4</ele>
        <time>2020-02-21T13:45:30Z</time>
      </trkpt>
      <trkpt lat="38.8700080" lon="1.2498070">
        <ele>263.7</ele>
        <time>2020-02-21T13:45:31Z</time>
      </trkpt>
      <trkpt lat="38.8700120" lon="1.2499000">
        <ele>263.0</ele>
        <time>2020-02-21T13:45:32Z</time>
      </trkpt>
      <trkpt lat="38.8700250" lon="1.2499910">
        <ele>262.2</ele>
        <time>2020-02-21T13:45:33Z</time>
      </trkpt>
      <trkpt lat="38.8700360" lon="1.2500840">
        <ele>261.4</ele>
        <time>2020-02-21T13:45:34Z</time>
      </trkpt>
      <trkpt lat="38.8700470" lon="1.2501760">
        <ele>260.6</ele>
        <time>2020-02-21T13:45:35Z</time>
      </trkpt>
      <trkpt lat="38.8700560" lon="1.2502690">
        <ele>259.9</ele>
        <time>2020-02-21T13:45:36Z</time>
      </trkpt>
      <trkpt lat="38.8700610" lon="1.2503630">
        <ele>259.0</ele>
        <time>2020-02-21T13:45:37Z</time>
      </trkpt>
      <trkpt lat="38.8700690" lon="1.2504560">
        <ele>258.2</ele>
        <time>2020-02-21T13:45:38Z</time>
      </trkpt>
      <trkpt lat="38.8700960" lon="1.2505450">
        <ele>257.4</ele>
        <time>2020-02-21T13:45:39Z</time>
      </trkpt>
      <trkpt lat="38.8701140" lon="1.2506390">
        <ele>256.5</ele>
        <time>2020-02-21T13:45:40Z</time>
      </trkpt>
      <trkpt lat="38.8701420" lon="1.2507310">
        <ele>255.4</ele>
        <time>2020-02-21T13:45:41Z</time>
      </trkpt>
      <trkpt lat="38.8701700" lon="1.2508260">
        <ele>254.3</ele>
        <time>2020-02-21T13:45:42Z</time>
      </trkpt>
      <trkpt lat="38.8701910" lon="1.2509240">
        <ele>253.0</ele>
        <time>2020-02-21T13:45:43Z</time>
      </trkpt>
      <trkpt lat="38.8702160" lon="1.2510250">
        <ele>252.1</ele>
        <time>2020-02-21T13:45:44Z</time>
      </trkpt>
      <trkpt lat="38.8702400" lon="1.2511310">
        <ele>251.2</ele>
        <time>2020-02-21T13:45:45Z</time>
      </trkpt>
      <trkpt lat="38.8702660" lon="1.2512420">
        <ele>250.2</ele>
        <time>2020-02-21T13:45:46Z</time>
      </trkpt>
      <trkpt lat="38.8703040" lon="1.2513480">
        <ele>249.4</ele>
        <time>2020-02-21T13:45:47Z</time>
      </trkpt>
      <trkpt lat="38.8703540" lon="1.2514510">
        <ele>248.6</ele>
        <time>2020-02-21T13:45:48Z</time>
      </trkpt>
      <trkpt lat="38.8704030" lon="1.2515560">
        <ele>247.7</ele>
        <time>2020-02-21T13:45:49Z</time>
      </trkpt>
      <trkpt lat="38.8704510" lon="1.2516600">
        <ele>247.0</ele>
        <time>2020-02-21T13:45:50Z</time>
      </trkpt>
      <trkpt lat="38.8704980" lon="1.2517640">
        <ele>246.3</ele>
        <time>2020-02-21T13:45:51Z</time>
      </trkpt>
      <trkpt lat="38.8705470" lon="1.2518660">
        <ele>245.8</ele>
        <time>2020-02-21T13:45:52Z</time>
      </trkpt>
      <trkpt lat="38.8705890" lon="1.2519700">
        <ele>245.1</ele>
        <time>2020-02-21T13:45:53Z</time>
      </trkpt>
      <trkpt lat="38.8706360" lon="1.2520650">
        <ele>244.5</ele>
        <time>2020-02-21T13:45:54Z</time>
      </trkpt>
      <trkpt lat="38.8706830" lon="1.2521610">
        <ele>243.9</ele>
        <time>2020-02-21T13:45:55Z</time>
      </trkpt>
      <trkpt lat="38.8707300" lon="1.2522510">
        <ele>243.2</ele>
        <time>2020-02-21T13:45:56Z</time>
      </trkpt>
      <trkpt lat="38.8707760" lon="1.2523280">
        <ele>242.5</ele>
        <time>2020-02-21T13:45:57Z</time>
      </trkpt>
      <trkpt lat="38.8708130" lon="1.2523970">
        <ele>241.8</ele>
        <time>2020-02-21T13:45:58Z</time>
      </trkpt>
      <trkpt lat="38.8708360" lon="1.2524590">
        <ele>241.3</ele>
        <time>2020-02-21T13:45:59Z</time>
      </trkpt>
      <trkpt lat="38.8708570" lon="1.2524980">
        <ele>240.8</ele>
        <time>2020-02-21T13:46:00Z</time>
      </trkpt>
      <trkpt lat="38.8708740" lon="1.2525310">
        <ele>241.0</ele>
        <time>2020-02-21T13:46:01Z</time>
      </trkpt>
      <trkpt lat="38.8708830" lon="1.2525660">
        <ele>241.2</ele>
        <time>2020-02-21T13:46:02Z</time>
      </trkpt>
      <trkpt lat="38.8708930" lon="1.2526040">
        <ele>241.4</ele>
        <time>2020-02-21T13:46:03Z</time>
      </trkpt>
      <trkpt lat="38.8709250" lon="1.2526170">
        <ele>242.3</ele>
        <time>2020-02-21T13:46:04Z</time>
      </trkpt>
      <trkpt lat="38.8709360" lon="1.2526160">
        <ele>242.6</ele>
        <time>2020-02-21T13:46:05Z</time>
      </trkpt>
      <trkpt lat="38.8709700" lon="1.2526230">
        <ele>243.6</ele>
        <time>2020-02-21T13:46:06Z</time>
      </trkpt>
      <trkpt lat="38.8709800" lon="1.2526320">
        <ele>243.9</ele>
        <time>2020-02-21T13:46:07Z</time>
      </trkpt>
      <trkpt lat="38.8710150" lon="1.2526430">
        <ele>244.2</ele>
        <time>2020-02-21T13:46:08Z</time>
      </trkpt>
      <trkpt lat="38.8710260" lon="1.2526480">
        <ele>244.3</ele>
        <time>2020-02-21T13:46:09Z</time>
      </trkpt>
      <trkpt lat="38.8710630" lon="1.2526430">
        <ele>244.6</ele>
        <time>2020-02-21T13:46:10Z</time>
      </trkpt>
      <trkpt lat="38.8710740" lon="1.2526440">
        <ele>244.8</ele>
        <time>2020-02-21T13:46:11Z</time>
      </trkpt>
      <trkpt lat="38.8711090" lon="1.2526420">
        <ele>245.9</ele>
        <time>2020-02-21T13:46:12Z</time>
      </trkpt>
      <trkpt lat="38.8711200" lon="1.2526340">
        <ele>246.2</ele>
        <time>2020-02-21T13:46:13Z</time>
      </trkpt>
      <trkpt lat="38.8711460" lon="1.2526530">
        <ele>247.1</ele>
        <time>2020-02-21T13:46:14Z</time>
      </trkpt>
      <trkpt lat="38.8711540" lon="1.2526590">
        <ele>247.3</ele>
        <time>2020-02-21T13:46:15Z</time>
      </trkpt>
      <trkpt lat="38.8711710" lon="1.2526700">
        <ele>247.4</ele>
        <time>2020-02-21T13:46:16Z</time>
      </trkpt>
      <trkpt lat="38.8711900" lon="1.2526690">
        <ele>247.5</ele>
        <time>2020-02-21T13:46:17Z</time>
      </trkpt>
      <trkpt lat="38.8712210" lon="1.2526730">
        <ele>247.6</ele>
        <time>2020-02-21T13:46:18Z</time>
      </trkpt>
      <trkpt lat="38.8712310" lon="1.2526760">
        <ele>247.6</ele>
        <time>2020-02-21T13:46:19Z</time>
      </trkpt>
      <trkpt lat="38.8712630" lon="1.2526850">
        <ele>248.4</ele>
        <time>2020-02-21T13:46:20Z</time>
      </trkpt>
      <trkpt lat="38.8712740" lon="1.2526860">
        <ele>248.7</ele>
        <time>2020-02-21T13:46:21Z</time>
      </trkpt>
      <trkpt lat="38.8713110" lon="1.2526910">
        <ele>249.9</ele>
        <time>2020-02-21T13:46:22Z</time>
      </trkpt>
      <trkpt lat="38.8713250" lon="1.2526940">
        <ele>250.3</ele>
        <time>2020-02-21T13:46:23Z</time>
      </trkpt>
      <trkpt lat="38.8713530" lon="1.2526950">
        <ele>250.7</ele>
        <time>2020-02-21T13:46:24Z</time>
      </trkpt>
      <trkpt lat="38.8713880" lon="1.2526940">
        <ele>251.1</ele>
        <time>2020-02-21T13:46:25Z</time>
      </trkpt>
      <trkpt lat="38.8713990" lon="1.2526970">
        <ele>251.3</ele>
        <time>2020-02-21T13:46:26Z</time>
      </trkpt>
      <trkpt lat="38.8714290" lon="1.2527010">
        <ele>251.7</ele>
        <time>2020-02-21T13:46:27Z</time>
      </trkpt>
      <trkpt lat="38.8714380" lon="1.2527000">
        <ele>251.8</ele>
        <time>2020-02-21T13:46:28Z</time>
      </trkpt>
      <trkpt lat="38.8714780" lon="1.2526940">
        <ele>252.4</ele>
        <time>2020-02-21T13:46:29Z</time>
      </trkpt>
      <trkpt lat="38.8714970" lon="1.2526970">
        <ele>252.7</ele>
        <time>2020-02-21T13:46:30Z</time>
      </trkpt>
      <trkpt lat="38.8715260" lon="1.2527060">
        <ele>253.1</ele>
        <time>2020-02-21T13:46:31Z</time>
      </trkpt>
      <trkpt lat="38.8715550" lon="1.2527050">
        <ele>253.3</ele>
        <time>2020-02-21T13:46:32Z</time>
      </trkpt>
      <trkpt lat="38.8715900" lon="1.2527080">
        <ele>253.7</ele>
        <time>2020-02-21T13:46:33Z</time>
      </trkpt>
      <trkpt lat="38.8716020" lon="1.2527110">
        <ele>253.8</ele>
        <time>2020-02-21T13:46:34Z</time>
      </trkpt>
      <trkpt lat="38.8716310" lon="1.2527030">
        <ele>254.3</ele>
        <time>2020-02-21T13:46:35Z</time>
      </trkpt>
      <trkpt lat="38.8716410" lon="1.2527040">
        <ele>254.4</ele>
        <time>2020-02-21T13:46:36Z</time>
      </trkpt>
      <trkpt lat="38.8716710" lon="1.2527050">
        <ele>254.9</ele>
        <time>2020-02-21T13:46:37Z</time>
      </trkpt>
      <trkpt lat="38.8716840" lon="1.2527080">
        <ele>255.1</ele>
        <time>2020-02-21T13:46:38Z</time>
      </trkpt>
      <trkpt lat="38.8717130" lon="1.2527140">
        <ele>255.2</ele>
        <time>2020-02-21T13:46:39Z</time>
      </trkpt>
      <trkpt lat="38.8717470" lon="1.2527140">
        <ele>255.3</ele>
        <time>2020-02-21T13:46:40Z</time>
      </trkpt>
      <trkpt lat="38.8717560" lon="1.2527160">
        <ele>255.3</ele>
        <time>2020-02-21T13:46:41Z</time>
      </trkpt>
      <trkpt lat="38.8717940" lon="1.2527250">
        <ele>255.6</ele>
        <time>2020-02-21T13:46:42Z</time>
      </trkpt>
      <trkpt lat="38.8718060" lon="1.2527270">
        <ele>255.7</ele>
        <time>2020-02-21T13:46:43Z</time>
      </trkpt>
      <trkpt lat="38.8718370" lon="1.2527370">
        <ele>256.2</ele>
        <time>2020-02-21T13:46:44Z</time>
      </trkpt>
      <trkpt lat="38.8718640" lon="1.2527410">
        <ele>256.5</ele>
        <time>2020-02-21T13:46:45Z</time>
      </trkpt>
      <trkpt lat="38.8718940" lon="1.2527510">
        <ele>257.2</ele>
        <time>2020-02-21T13:46:46Z</time>
      </trkpt>
      <trkpt lat="38.8719030" lon="1.2527520">
        <ele>257.3</ele>
        <time>2020-02-21T13:46:47Z</time>
      </trkpt>
      <trkpt lat="38.8719320" lon="1.2527590">
        <ele>258.0</ele>
        <time>2020-02-21T13:46:48Z</time>
      </trkpt>
      <trkpt lat="38.8719440" lon="1.2527630">
        <ele>258.2</ele>
        <time>2020-02-21T13:46:49Z</time>
      </trkpt>
      <trkpt lat="38.8719740" lon="1.2527640">
        <ele>258.3</ele>
        <time>2020-02-21T13:46:50Z</time>
      </trkpt>
      <trkpt lat="38.8719820" lon="1.2527600">
        <ele>258.2</ele>
        <time>2020-02-21T13:46:51Z</time>
      </trkpt>
      <trkpt lat="38.8720070" lon="1.2527690">
        <ele>258.1</ele>
        <time>2020-02-21T13:46:52Z</time>
      </trkpt>
      <trkpt lat="38.8720170" lon="1.2527740">
        <ele>258.0</ele>
        <time>2020-02-21T13:46:53Z</time>
      </trkpt>
      <trkpt lat="38.8720460" lon="1.2527750">
        <ele>258.0</ele>
        <time>2020-02-21T13:46:54Z</time>
      </trkpt>
      <trkpt lat="38.8720550" lon="1.2527740">
        <ele>258.1</ele>
        <time>2020-02-21T13:46:55Z</time>
      </trkpt>
      <trkpt lat="38.8720890" lon="1.2527740">
        <ele>258.7</ele>
        <time>2020-02-21T13:46:56Z</time>
      </trkpt>
      <trkpt lat="38.8720990" lon="1.2527750">
        <ele>258.9</ele>
        <time>2020-02-21T13:46:57Z</time>
      </trkpt>
      <trkpt lat="38.8721310" lon="1.2527880">
        <ele>259.4</ele>
        <time>2020-02-21T13:46:58Z</time>
      </trkpt>
      <trkpt lat="38.8721390" lon="1.2527940">
        <ele>259.4</ele>
        <time>2020-02-21T13:46:59Z</time>
      </trkpt>
      <trkpt lat="38.8721720" lon="1.2528000">
        <ele>259.3</ele>
        <time>2020-02-21T13:47:00Z</time>
      </trkpt>
      <trkpt lat="38.8721820" lon="1.2528020">
        <ele>259.3</ele>
        <time>2020-02-21T13:47:01Z</time>
      </trkpt>
      <trkpt lat="38.8721990" lon="1.2528030">
        <ele>259.2</ele>
        <time>2020-02-21T13:47:02Z</time>
      </trkpt>
      <trkpt lat="38.8722140" lon="1.2528120">
        <ele>259.2</ele>
        <time>2020-02-21T13:47:03Z</time>
      </trkpt>
      <trkpt lat="38.8722410" lon="1.2528330">
        <ele>259.6</ele>
        <time>2020-02-21T13:47:04Z</time>
      </trkpt>
      <trkpt lat="38.8722730" lon="1.2528500">
        <ele>260.1</ele>
        <time>2020-02-21T13:47:05Z</time>
      </trkpt>
      <trkpt lat="38.8722850" lon="1.2528570">
        <ele>260.3</ele>
        <time>2020-02-21T13:47:06Z</time>
      </trkpt>
      <trkpt lat="38.8723160" lon="1.2528650">
        <ele>260.5</ele>
        <time>2020-02-21T13:47:07Z</time>
      </trkpt>
      <trkpt lat="38.8723270" lon="1.2528670">
        <ele>260.4</ele>
        <time>2020-02-21T13:47:08Z</time>
      </trkpt>
      <trkpt lat="38.8723390" lon="1.2528700">
        <ele>260.4</ele>
        <time>2020-02-21T13:47:09Z</time>
      </trkpt>
      <trkpt lat="38.8723540" lon="1.2528700">
        <ele>260.3</ele>
        <time>2020-02-21T13:47:10Z</time>
      </trkpt>
      <trkpt lat="38.8723890" lon="1.2528800">
        <ele>260.2</ele>
        <time>2020-02-21T13:47:11Z</time>
      </trkpt>
      <trkpt lat="38.8724000" lon="1.2528840">
        <ele>260.2</ele>
        <time>2020-02-21T13:47:12Z</time>
      </trkpt>
      <trkpt lat="38.8724160" lon="1.2528970">
        <ele>260.2</ele>
        <time>2020-02-21T13:47:13Z</time>
      </trkpt>
      <trkpt lat="38.8724320" lon="1.2529010">
        <ele>260.3</ele>
        <time>2020-02-21T13:47:14Z</time>
      </trkpt>
      <trkpt lat="38.8724650" lon="1.2529010">
        <ele>260.3</ele>
        <time>2020-02-21T13:47:15Z</time>
      </trkpt>
      <trkpt lat="38.8724720" lon="1.2529040">
        <ele>260.3</ele>
        <time>2020-02-21T13:47:16Z</time>
      </trkpt>
      <trkpt lat="38.8724870" lon="1.2529080">
        <ele>260.4</ele>
        <time>2020-02-21T13:47:17Z</time>
      </trkpt>
      <trkpt lat="38.8725020" lon="1.2529110">
        <ele>260.5</ele>
        <time>2020-02-21T13:47:18Z</time>
      </trkpt>
      <trkpt lat="38.8725110" lon="1.2529110">
        <ele>260.5</ele>
        <time>2020-02-21T13:47:19Z</time>
      </trkpt>
      <trkpt lat="38.8725290" lon="1.2529150">
        <ele>260.6</ele>
        <time>2020-02-21T13:47:20Z</time>
      </trkpt>
      <trkpt lat="38.8725500" lon="1.2529280">
        <ele>260.8</ele>
        <time>2020-02-21T13:47:21Z</time>
      </trkpt>
      <trkpt lat="38.8725600" lon="1.2529330">
        <ele>260.8</ele>
        <time>2020-02-21T13:47:22Z</time>
      </trkpt>
      <trkpt lat="38.8725690" lon="1.2529380">
        <ele>260.8</ele>
        <time>2020-02-21T13:47:23Z</time>
      </trkpt>
      <trkpt lat="38.8725860" lon="1.2529430">
        <ele>260.8</ele>
        <time>2020-02-21T13:47:24Z</time>
      </trkpt>
      <trkpt lat="38.8726020" lon="1.2529450">
        <ele>260.7</ele>
        <time>2020-02-21T13:47:25Z</time>
      </trkpt>
      <trkpt lat="38.8726310" lon="1.2529560">
        <ele>260.6</ele>
        <time>2020-02-21T13:47:26Z</time>
      </trkpt>
      <trkpt lat="38.8726380" lon="1.2529630">
        <ele>260.5</ele>
        <time>2020-02-21T13:47:27Z</time>
      </trkpt>
      <trkpt lat="38.8726600" lon="1.2529870">
        <ele>260.4</ele>
        <time>2020-02-21T13:47:28Z</time>
      </trkpt>
      <trkpt lat="38.8726700" lon="1.2530030">
        <ele>260.3</ele>
        <time>2020-02-21T13:47:29Z</time>
      </trkpt>
      <trkpt lat="38.8726940" lon="1.2530270">
        <ele>260.1</ele>
        <time>2020-02-21T13:47:30Z</time>
      </trkpt>
      <trkpt lat="38.8727020" lon="1.2530340">
        <ele>260.1</ele>
        <time>2020-02-21T13:47:31Z</time>
      </trkpt>
      <trkpt lat="38.8727130" lon="1.2530420">
        <ele>260.0</ele>
        <time>2020-02-21T13:47:32Z</time>
      </trkpt>
      <trkpt lat="38.8727280" lon="1.2530520">
        <ele>259.9</ele>
        <time>2020-02-21T13:47:33Z</time>
      </trkpt>
      <trkpt lat="38.8727420" lon="1.2530590">
        <ele>259.8</ele>
        <time>2020-02-21T13:47:34Z</time>
      </trkpt>
      <trkpt lat="38.8727550" lon="1.2530710">
        <ele>259.8</ele>
        <time>2020-02-21T13:47:35Z</time>
      </trkpt>
      <trkpt lat="38.8727760" lon="1.2530760">
        <ele>259.7</ele>
        <time>2020-02-21T13:47:36Z</time>
      </trkpt>
      <trkpt lat="38.8727870" lon="1.2530780">
        <ele>259.6</ele>
        <time>2020-02-21T13:47:37Z</time>
      </trkpt>
      <trkpt lat="38.8727980" lon="1.2530810">
        <ele>259.5</ele>
        <time>2020-02-21T13:47:38Z</time>
      </trkpt>
      <trkpt lat="38.8728100" lon="1.2530880">
        <ele>259.6</ele>
        <time>2020-02-21T13:47:39Z</time>
      </trkpt>
      <trkpt lat="38.8728240" lon="1.2530930">
        <ele>259.6</ele>
        <time>2020-02-21T13:47:40Z</time>
      </trkpt>
      <trkpt lat="38.8728370" lon="1.2530980">
        <ele>259.6</ele>
        <time>2020-02-21T13:47:41Z</time>
      </trkpt>
      <trkpt lat="38.8728510" lon="1.2531040">
        <ele>259.6</ele>
        <time>2020-02-21T13:47:42Z</time>
      </trkpt>
      <trkpt lat="38.8728710" lon="1.2531110">
        <ele>259.7</ele>
        <time>2020-02-21T13:47:43Z</time>
      </trkpt>
      <trkpt lat="38.8728860" lon="1.2531120">
        <ele>259.7</ele>
        <time>2020-02-21T13:47:44Z</time>
      </trkpt>
      <trkpt lat="38.8729040" lon="1.2531170">
        <ele>259.6</ele>
        <time>2020-02-21T13:47:45Z</time>
      </trkpt>
      <trkpt lat="38.8729200" lon="1.2531200">
        <ele>259.5</ele>
        <time>2020-02-21T13:47:46Z</time>
      </trkpt>
      <trkpt lat="38.8729470" lon="1.2531220">
        <ele>259.3</ele>
        <time>2020-02-21T13:47:47Z</time>
      </trkpt>
      <trkpt lat="38.8729580" lon="1.2531250">
        <ele>259.2</ele>
        <time>2020-02-21T13:47:48Z</time>
      </trkpt>
      <trkpt lat="38.8729860" lon="1.2531270">
        <ele>259.0</ele>
        <time>2020-02-21T13:47:49Z</time>
      </trkpt>
      <trkpt lat="38.8729950" lon="1.2531280">
        <ele>258.9</ele>
        <time>2020-02-21T13:47:50Z</time>
      </trkpt>
      <trkpt lat="38.8730090" lon="1.2531410">
        <ele>258.8</ele>
        <time>2020-02-21T13:47:51Z</time>
      </trkpt>
      <trkpt lat="38.8730250" lon="1.2531520">
        <ele>258.7</ele>
        <time>2020-02-21T13:47:52Z</time>
      </trkpt>
      <trkpt lat="38.8730480" lon="1.2531570">
        <ele>258.5</ele>
        <time>2020-02-21T13:47:53Z</time>
      </trkpt>
      <trkpt lat="38.8730590" lon="1.2531560">
        <ele>258.5</ele>
        <time>2020-02-21T13:47:54Z</time>
      </trkpt>
      <trkpt lat="38.8730700" lon="1.2531560">
        <ele>258.4</ele>
        <time>2020-02-21T13:47:55Z</time>
      </trkpt>
      <trkpt lat="38.8730980" lon="1.2531540">
        <ele>258.2</ele>
        <time>2020-02-21T13:47:56Z</time>
      </trkpt>
      <trkpt lat="38.8731080" lon="1.2531540">
        <ele>258.2</ele>
        <time>2020-02-21T13:47:57Z</time>
      </trkpt>
      <trkpt lat="38.8731290" lon="1.2531610">
        <ele>258.0</ele>
        <time>2020-02-21T13:47:58Z</time>
      </trkpt>
      <trkpt lat="38.8731410" lon="1.2531690">
        <ele>258.0</ele>
        <time>2020-02-21T13:47:59Z</time>
      </trkpt>
      <trkpt lat="38.8731720" lon="1.2531770">
        <ele>257.9</ele>
        <time>2020-02-21T13:48:00Z</time>
      </trkpt>
      <trkpt lat="38.8731860" lon="1.2531800">
        <ele>257.9</ele>
        <time>2020-02-21T13:48:01Z</time>
      </trkpt>
      <trkpt lat="38.8732160" lon="1.2531850">
        <ele>257.9</ele>
        <time>2020-02-21T13:48:02Z</time>
      </trkpt>
      <trkpt lat="38.8732260" lon="1.2531920">
        <ele>257.9</ele>
        <time>2020-02-21T13:48:03Z</time>
      </trkpt>
      <trkpt lat="38.8732600" lon="1.2532010">
        <ele>257.9</ele>
        <time>2020-02-21T13:48:04Z</time>
      </trkpt>
      <trkpt lat="38.8732690" lon="1.2532070">
        <ele>257.9</ele>
        <time>2020-02-21T13:48:05Z</time>
      </trkpt>
      <trkpt lat="38.8733070" lon="1.2532210">
        <ele>257.9</ele>
        <time>2020-02-21T13:48:06Z</time>
      </trkpt>
      <trkpt lat="38.8733200" lon="1.2532300">
        <ele>257.9</ele>
        <time>2020-02-21T13:48:07Z</time>
      </trkpt>
      <trkpt lat="38.8733460" lon="1.2532480">
        <ele>257.9</ele>
        <time>2020-02-21T13:48:08Z</time>
      </trkpt>
      <trkpt lat="38.8733790" lon="1.2532670">
        <ele>257.9</ele>
        <time>2020-02-21T13:48:09Z</time>
      </trkpt>
      <trkpt lat="38.8734170" lon="1.2532860">
        <ele>257.9</ele>
        <time>2020-02-21T13:48:10Z</time>
      </trkpt>
      <trkpt lat="38.8734620" lon="1.2533150">
        <ele>257.9</ele>
        <time>2020-02-21T13:48:11Z</time>
      </trkpt>
      <trkpt lat="38.8735070" lon="1.2533410">
        <ele>257.9</ele>
        <time>2020-02-21T13:48:12Z</time>
      </trkpt>
      <trkpt lat="38.8735610" lon="1.2533650">
        <ele>257.9</ele>
        <time>2020-02-21T13:48:13Z</time>
      </trkpt>
      <trkpt lat="38.8736220" lon="1.2533630">
        <ele>257.9</ele>
        <time>2020-02-21T13:48:14Z</time>
      </trkpt>
      <trkpt lat="38.8736780" lon="1.2533590">
        <ele>257.9</ele>
        <time>2020-02-21T13:48:15Z</time>
      </trkpt>
      <trkpt lat="38.8737340" lon="1.2533580">
        <ele>257.9</ele>
        <time>2020-02-21T13:48:16Z</time>
      </trkpt>
      <trkpt lat="38.8737890" lon="1.2533720">
        <ele>257.9</ele>
        <time>2020-02-21T13:48:17Z</time>
      </trkpt>
      <trkpt lat="38.8738350" lon="1.2533750">
        <ele>257.8</ele>
        <time>2020-02-21T13:48:18Z</time>
      </trkpt>
      <trkpt lat="38.8738940" lon="1.2533960">
        <ele>257.8</ele>
        <time>2020-02-21T13:48:19Z</time>
      </trkpt>
      <trkpt lat="38.8739420" lon="1.2534180">
        <ele>257.8</ele>
        <time>2020-02-21T13:48:20Z</time>
      </trkpt>
      <trkpt lat="38.8739840" lon="1.2534440">
        <ele>257.7</ele>
        <time>2020-02-21T13:48:21Z</time>
      </trkpt>
      <trkpt lat="38.8740180" lon="1.2534740">
        <ele>257.7</ele>
        <time>2020-02-21T13:48:22Z</time>
      </trkpt>
      <trkpt lat="38.8740420" lon="1.2535020">
        <ele>257.6</ele>
        <time>2020-02-21T13:48:23Z</time>
      </trkpt>
      <trkpt lat="38.8740730" lon="1.2535350">
        <ele>257.5</ele>
        <time>2020-02-21T13:48:24Z</time>
      </trkpt>
      <trkpt lat="38.8741090" lon="1.2535730">
        <ele>257.4</ele>
        <time>2020-02-21T13:48:25Z</time>
      </trkpt>
      <trkpt lat="38.8741310" lon="1.2535940">
        <ele>257.3</ele>
        <time>2020-02-21T13:48:26Z</time>
      </trkpt>
      <trkpt lat="38.8741660" lon="1.2536250">
        <ele>257.2</ele>
        <time>2020-02-21T13:48:27Z</time>
      </trkpt>
      <trkpt lat="38.8741830" lon="1.2536590">
        <ele>257.0</ele>
        <time>2020-02-21T13:48:28Z</time>
      </trkpt>
      <trkpt lat="38.8742180" lon="1.2536900">
        <ele>256.8</ele>
        <time>2020-02-21T13:48:29Z</time>
      </trkpt>
      <trkpt lat="38.8742510" lon="1.2537150">
        <ele>256.6</ele>
        <time>2020-02-21T13:48:30Z</time>
      </trkpt>
      <trkpt lat="38.8742780" lon="1.2537460">
        <ele>256.4</ele>
        <time>2020-02-21T13:48:31Z</time>
      </trkpt>
      <trkpt lat="38.8743150" lon="1.2537840">
        <ele>256.1</ele>
        <time>2020-02-21T13:48:32Z</time>
      </trkpt>
      <trkpt lat="38.8743490" lon="1.2538270">
        <ele>255.8</ele>
        <time>2020-02-21T13:48:33Z</time>
      </trkpt>
      <trkpt lat="38.8743800" lon="1.2538760">
        <ele>255.4</ele>
        <time>2020-02-21T13:48:34Z</time>
      </trkpt>
      <trkpt lat="38.8744180" lon="1.2539230">
        <ele>254.9</ele>
        <time>2020-02-21T13:48:35Z</time>
      </trkpt>
      <trkpt lat="38.8744480" lon="1.2539710">
        <ele>254.5</ele>
        <time>2020-02-21T13:48:36Z</time>
      </trkpt>
      <trkpt lat="38.8744770" lon="1.2540180">
        <ele>254.0</ele>
        <time>2020-02-21T13:48:37Z</time>
      </trkpt>
      <trkpt lat="38.8745040" lon="1.2540630">
        <ele>253.5</ele>
        <time>2020-02-21T13:48:38Z</time>
      </trkpt>
      <trkpt lat="38.8745360" lon="1.2540980">
        <ele>253.1</ele>
        <time>2020-02-21T13:48:39Z</time>
      </trkpt>
      <trkpt lat="38.8745820" lon="1.2541350">
        <ele>252.6</ele>
        <time>2020-02-21T13:48:40Z</time>
      </trkpt>
      <trkpt lat="38.8746160" lon="1.2541790">
        <ele>252.2</ele>
        <time>2020-02-21T13:48:41Z</time>
      </trkpt>
      <trkpt lat="38.8746480" lon="1.2542190">
        <ele>251.5</ele>
        <time>2020-02-21T13:48:42Z</time>
      </trkpt>
      <trkpt lat="38.8746760" lon="1.2542520">
        <ele>251.0</ele>
        <time>2020-02-21T13:48:43Z</time>
      </trkpt>
      <trkpt lat="38.8746990" lon="1.2542810">
        <ele>250.7</ele>
        <time>2020-02-21T13:48:44Z</time>
      </trkpt>
      <trkpt lat="38.8747330" lon="1.2543160">
        <ele>250.3</ele>
        <time>2020-02-21T13:48:45Z</time>
      </trkpt>
      <trkpt lat="38.8747660" lon="1.2543490">
        <ele>249.8</ele>
        <time>2020-02-21T13:48:46Z</time>
      </trkpt>
      <trkpt lat="38.8748110" lon="1.2543620">
        <ele>249.3</ele>
        <time>2020-02-21T13:48:47Z</time>
      </trkpt>
      <trkpt lat="38.8748520" lon="1.2543720">
        <ele>248.9</ele>
        <time>2020-02-21T13:48:48Z</time>
      </trkpt>
      <trkpt lat="38.8749060" lon="1.2543640">
        <ele>248.2</ele>
        <time>2020-02-21T13:48:49Z</time>
      </trkpt>
      <trkpt lat="38.8749620" lon="1.2543520">
        <ele>247.5</ele>
        <time>2020-02-21T13:48:50Z</time>
      </trkpt>
      <trkpt lat="38.8750050" lon="1.2543320">
        <ele>246.9</ele>
        <time>2020-02-21T13:48:51Z</time>
      </trkpt>
      <trkpt lat="38.8750500" lon="1.2543040">
        <ele>246.4</ele>
        <time>2020-02-21T13:48:52Z</time>
      </trkpt>
      <trkpt lat="38.8750740" lon="1.2542740">
        <ele>246.1</ele>
        <time>2020-02-21T13:48:53Z</time>
      </trkpt>
      <trkpt lat="38.8751060" lon="1.2542360">
        <ele>245.7</ele>
        <time>2020-02-21T13:48:54Z</time>
      </trkpt>
      <trkpt lat="38.8751260" lon="1.2541880">
        <ele>245.3</ele>
        <time>2020-02-21T13:48:55Z</time>
      </trkpt>
      <trkpt lat="38.8751430" lon="1.2541320">
        <ele>244.8</ele>
        <time>2020-02-21T13:48:56Z</time>
      </trkpt>
      <trkpt lat="38.8751650" lon="1.2540620">
        <ele>244.2</ele>
        <time>2020-02-21T13:48:57Z</time>
      </trkpt>
      <trkpt lat="38.8751770" lon="1.2539900">
        <ele>243.8</ele>
        <time>2020-02-21T13:48:58Z</time>
      </trkpt>
      <trkpt lat="38.8751880" lon="1.2539120">
        <ele>243.4</ele>
        <time>2020-02-21T13:48:59Z</time>
      </trkpt>
      <trkpt lat="38.8751830" lon="1.2538290">
        <ele>243.0</ele>
        <time>2020-02-21T13:49:00Z</time>
      </trkpt>
      <trkpt lat="38.8751820" lon="1.2537440">
        <ele>242.7</ele>
        <time>2020-02-21T13:49:01Z</time>
      </trkpt>
      <trkpt lat="38.8751710" lon="1.2536510">
        <ele>242.3</ele>
        <time>2020-02-21T13:49:02Z</time>
      </trkpt>
      <trkpt lat="38.8751580" lon="1.2535590">
        <ele>241.9</ele>
        <time>2020-02-21T13:49:03Z</time>
      </trkpt>
      <trkpt lat="38.8751360" lon="1.2534760">
        <ele>241.5</ele>
        <time>2020-02-21T13:49:04Z</time>
      </trkpt>
      <trkpt lat="38.8751190" lon="1.2533990">
        <ele>241.2</ele>
        <time>2020-02-21T13:49:05Z</time>
      </trkpt>
      <trkpt lat="38.8751080" lon="1.2533150">
        <ele>240.9</ele>
        <time>2020-02-21T13:49:06Z</time>
      </trkpt>
      <trkpt lat="38.8750860" lon="1.2532500">
        <ele>240.6</ele>
        <time>2020-02-21T13:49:07Z</time>
      </trkpt>
      <trkpt lat="38.8750700" lon="1.2531740">
        <ele>240.4</ele>
        <time>2020-02-21T13:49:08Z</time>
      </trkpt>
      <trkpt lat="38.8750550" lon="1.2530950">
        <ele>240.0</ele>
        <time>2020-02-21T13:49:09Z</time>
      </trkpt>
      <trkpt lat="38.8750370" lon="1.2530210">
        <ele>239.6</ele>
        <time>2020-02-21T13:49:10Z</time>
      </trkpt>
      <trkpt lat="38.8750110" lon="1.2529280">
        <ele>239.1</ele>
        <time>2020-02-21T13:49:11Z</time>
      </trkpt>
      <trkpt lat="38.8749930" lon="1.2528520">
        <ele>238.6</ele>
        <time>2020-02-21T13:49:12Z</time>
      </trkpt>
      <trkpt lat="38.8749750" lon="1.2527810">
        <ele>238.2</ele>
        <time>2020-02-21T13:49:13Z</time>
      </trkpt>
      <trkpt lat="38.8749570" lon="1.2527100">
        <ele>237.8</ele>
        <time>2020-02-21T13:49:14Z</time>
      </trkpt>
      <trkpt lat="38.8749460" lon="1.2526320">
        <ele>237.3</ele>
        <time>2020-02-21T13:49:15Z</time>
      </trkpt>
      <trkpt lat="38.8749350" lon="1.2525560">
        <ele>236.8</ele>
        <time>2020-02-21T13:49:16Z</time>
      </trkpt>
      <trkpt lat="38.8749320" lon="1.2524770">
        <ele>236.2</ele>
        <time>2020-02-21T13:49:17Z</time>
      </trkpt>
      <trkpt lat="38.8749320" lon="1.2523990">
        <ele>235.5</ele>
        <time>2020-02-21T13:49:18Z</time>
      </trkpt>
      <trkpt lat="38.8749230" lon="1.2523430">
        <ele>234.9</ele>
        <time>2020-02-21T13:49:19Z</time>
      </trkpt>
      <trkpt lat="38.8749260" lon="1.2522980">
        <ele>234.5</ele>
        <time>2020-02-21T13:49:20Z</time>
      </trkpt>
      <trkpt lat="38.8749210" lon="1.2522560">
        <ele>234.0</ele>
        <time>2020-02-21T13:49:21Z</time>
      </trkpt>
      <trkpt lat="38.8749290" lon="1.2522680">
        <ele>233.8</ele>
        <time>2020-02-21T13:49:22Z</time>
      </trkpt>
      <trkpt lat="38.8749410" lon="1.2522880">
        <ele>233.5</ele>
        <time>2020-02-21T13:49:23Z</time>
      </trkpt>
      <trkpt lat="38.8749690" lon="1.2523110">
        <ele>233.0</ele>
        <time>2020-02-21T13:49:24Z</time>
      </trkpt>
      <trkpt lat="38.8749780" lon="1.2523160">
        <ele>232.8</ele>
        <time>2020-02-21T13:49:25Z</time>
      </trkpt>
      <trkpt lat="38.8750100" lon="1.2523160">
        <ele>232.3</ele>
        <time>2020-02-21T13:49:26Z</time>
      </trkpt>
      <trkpt lat="38.8750200" lon="1.2523160">
        <ele>232.1</ele>
        <time>2020-02-21T13:49:27Z</time>
      </trkpt>
      <trkpt lat="38.8750560" lon="1.2523260">
        <ele>231.5</ele>
        <time>2020-02-21T13:49:28Z</time>
      </trkpt>
      <trkpt lat="38.8750660" lon="1.2523280">
        <ele>231.4</ele>
        <time>2020-02-21T13:49:29Z</time>
      </trkpt>
      <trkpt lat="38.8750960" lon="1.2523340">
        <ele>230.9</ele>
        <time>2020-02-21T13:49:30Z</time>
      </trkpt>
      <trkpt lat="38.8751020" lon="1.2523400">
        <ele>230.7</ele>
        <time>2020-02-21T13:49:31Z</time>
      </trkpt>
      <trkpt lat="38.8751120" lon="1.2523330">
        <ele>230.5</ele>
        <time>2020-02-21T13:49:32Z</time>
      </trkpt>
      <trkpt lat="38.8751190" lon="1.2523270">
        <ele>230.4</ele>
        <time>2020-02-21T13:49:33Z</time>
      </trkpt>
      <trkpt lat="38.8751250" lon="1.2523340">
        <ele>230.2</ele>
        <time>2020-02-21T13:49:34Z</time>
      </trkpt>
      <trkpt lat="38.8751240" lon="1.2523360">
        <ele>230.2</ele>
        <time>2020-02-21T13:49:35Z</time>
      </trkpt>
      <trkpt lat="38.8751230" lon="1.2523370">
        <ele>230.2</ele>
        <time>2020-02-21T13:49:36Z</time>
      </trkpt>
      <trkpt lat="38.8751310" lon="1.2523420">
        <ele>230.0</ele>
        <time>2020-02-21T13:49:37Z</time>
      </trkpt>
      <trkpt lat="38.8751690" lon="1.2523620">
        <ele>229.4</ele>
        <time>2020-02-21T13:49:38Z</time>
      </trkpt>
      <trkpt lat="38.8751830" lon="1.2523710">
        <ele>229.2</ele>
        <time>2020-02-21T13:49:39Z</time>
      </trkpt>
      <trkpt lat="38.8752240" lon="1.2523760">
        <ele>228.7</ele>
        <time>2020-02-21T13:49:40Z</time>
      </trkpt>
      <trkpt lat="38.8752690" lon="1.2523820">
        <ele>228.1</ele>
        <time>2020-02-21T13:49:41Z</time>
      </trkpt>
      <trkpt lat="38.8753220" lon="1.2523850">
        <ele>227.3</ele>
        <time>2020-02-21T13:49:42Z</time>
      </trkpt>
      <trkpt lat="38.8753670" lon="1.2523910">
        <ele>226.6</ele>
        <time>2020-02-21T13:49:43Z</time>
      </trkpt>
      <trkpt lat="38.8754170" lon="1.2523940">
        <ele>225.8</ele>
        <time>2020-02-21T13:49:44Z</time>
      </trkpt>
      <trkpt lat="38.8754600" lon="1.2523930">
        <ele>225.1</ele>
        <time>2020-02-21T13:49:45Z</time>
      </trkpt>
      <trkpt lat="38.8755160" lon="1.2523900">
        <ele>224.4</ele>
        <time>2020-02-21T13:49:46Z</time>
      </trkpt>
      <trkpt lat="38.8755670" lon="1.2523790">
        <ele>223.6</ele>
        <time>2020-02-21T13:49:47Z</time>
      </trkpt>
      <trkpt lat="38.8756160" lon="1.2523420">
        <ele>222.7</ele>
        <time>2020-02-21T13:49:48Z</time>
      </trkpt>
      <trkpt lat="38.8756660" lon="1.2523170">
        <ele>221.8</ele>
        <time>2020-02-21T13:49:49Z</time>
      </trkpt>
      <trkpt lat="38.8757160" lon="1.2522860">
        <ele>220.9</ele>
        <time>2020-02-21T13:49:50Z</time>
      </trkpt>
      <trkpt lat="38.8757730" lon="1.2522610">
        <ele>219.8</ele>
        <time>2020-02-21T13:49:51Z</time>
      </trkpt>
      <trkpt lat="38.8758210" lon="1.2522400">
        <ele>218.8</ele>
        <time>2020-02-21T13:49:52Z</time>
      </trkpt>
      <trkpt lat="38.8758680" lon="1.2522400">
        <ele>217.9</ele>
        <time>2020-02-21T13:49:53Z</time>
      </trkpt>
      <trkpt lat="38.8759240" lon="1.2522460">
        <ele>217.0</ele>
        <time>2020-02-21T13:49:54Z</time>
      </trkpt>
      <trkpt lat="38.8759710" lon="1.2522610">
        <ele>216.2</ele>
        <time>2020-02-21T13:49:55Z</time>
      </trkpt>
      <trkpt lat="38.8760170" lon="1.2522790">
        <ele>215.4</ele>
        <time>2020-02-21T13:49:56Z</time>
      </trkpt>
      <trkpt lat="38.8760600" lon="1.2523090">
        <ele>214.6</ele>
        <time>2020-02-21T13:49:57Z</time>
      </trkpt>
      <trkpt lat="38.8760990" lon="1.2523360">
        <ele>214.0</ele>
        <time>2020-02-21T13:49:58Z</time>
      </trkpt>
      <trkpt lat="38.8761200" lon="1.2523610">
        <ele>213.6</ele>
        <time>2020-02-21T13:49:59Z</time>
      </trkpt>
      <trkpt lat="38.8761420" lon="1.2523940">
        <ele>213.2</ele>
        <time>2020-02-21T13:50:00Z</time>
      </trkpt>
      <trkpt lat="38.8761650" lon="1.2524180">
        <ele>212.8</ele>
        <time>2020-02-21T13:50:01Z</time>
      </trkpt>
      <trkpt lat="38.8761970" lon="1.2524490">
        <ele>212.3</ele>
        <time>2020-02-21T13:50:02Z</time>
      </trkpt>
      <trkpt lat="38.8762250" lon="1.2524750">
        <ele>211.9</ele>
        <time>2020-02-21T13:50:03Z</time>
      </trkpt>
      <trkpt lat="38.8762560" lon="1.2524870">
        <ele>211.1</ele>
        <time>2020-02-21T13:50:04Z</time>
      </trkpt>
      <trkpt lat="38.8762830" lon="1.2524620">
        <ele>211.3</ele>
        <time>2020-02-21T13:50:05Z</time>
      </trkpt>
      <trkpt lat="38.8762940" lon="1.2524400">
        <ele>211.3</ele>
        <time>2020-02-21T13:50:06Z</time>
      </trkpt>
      <trkpt lat="38.8763110" lon="1.2524080">
        <ele>211.5</ele>
        <time>2020-02-21T13:50:07Z</time>
      </trkpt>
      <trkpt lat="38.8763140" lon="1.2523660">
        <ele>211.6</ele>
        <time>2020-02-21T13:50:08Z</time>
      </trkpt>
      <trkpt lat="38.8763150" lon="1.2523260">
        <ele>211.7</ele>
        <time>2020-02-21T13:50:09Z</time>
      </trkpt>
      <trkpt lat="38.8763110" lon="1.2522860">
        <ele>211.8</ele>
        <time>2020-02-21T13:50:10Z</time>
      </trkpt>
      <trkpt lat="38.8763150" lon="1.2522400">
        <ele>211.9</ele>
        <time>2020-02-21T13:50:11Z</time>
      </trkpt>
      <trkpt lat="38.8763180" lon="1.2521970">
        <ele>212.0</ele>
        <time>2020-02-21T13:50:12Z</time>
      </trkpt>
      <trkpt lat="38.8763230" lon="1.2521550">
        <ele>212.0</ele>
        <time>2020-02-21T13:50:13Z</time>
      </trkpt>
      <trkpt lat="38.8763300" lon="1.2521130">
        <ele>212.0</ele>
        <time>2020-02-21T13:50:14Z</time>
      </trkpt>
      <trkpt lat="38.8763440" lon="1.2520720">
        <ele>212.1</ele>
        <time>2020-02-21T13:50:15Z</time>
      </trkpt>
      <trkpt lat="38.8763700" lon="1.2520430">
        <ele>212.1</ele>
        <time>2020-02-21T13:50:16Z</time>
      </trkpt>
      <trkpt lat="38.8763890" lon="1.2520180">
        <ele>212.1</ele>
        <time>2020-02-21T13:50:17Z</time>
      </trkpt>
      <trkpt lat="38.8764110" lon="1.2519750">
        <ele>212.1</ele>
        <time>2020-02-21T13:50:18Z</time>
      </trkpt>
      <trkpt lat="38.8764380" lon="1.2519410">
        <ele>212.1</ele>
        <time>2020-02-21T13:50:19Z</time>
      </trkpt>
      <trkpt lat="38.8764720" lon="1.2519130">
        <ele>212.1</ele>
        <time>2020-02-21T13:50:20Z</time>
      </trkpt>
      <trkpt lat="38.8764970" lon="1.2518960">
        <ele>212.1</ele>
        <time>2020-02-21T13:50:21Z</time>
      </trkpt>
      <trkpt lat="38.8765230" lon="1.2518770">
        <ele>212.1</ele>
        <time>2020-02-21T13:50:22Z</time>
      </trkpt>
      <trkpt lat="38.8765490" lon="1.2518640">
        <ele>212.1</ele>
        <time>2020-02-21T13:50:23Z</time>
      </trkpt>
      <trkpt lat="38.8765720" lon="1.2518440">
        <ele>212.0</ele>
        <time>2020-02-21T13:50:24Z</time>
      </trkpt>
      <trkpt lat="38.8765980" lon="1.2518200">
        <ele>212.0</ele>
        <time>2020-02-21T13:50:25Z</time>
      </trkpt>
      <trkpt lat="38.8766280" lon="1.2517940">
        <ele>212.0</ele>
        <time>2020-02-21T13:50:26Z</time>
      </trkpt>
      <trkpt lat="38.8766690" lon="1.2517630">
        <ele>211.9</ele>
        <time>2020-02-21T13:50:27Z</time>
      </trkpt>
      <trkpt lat="38.8767030" lon="1.2517390">
        <ele>211.8</ele>
        <time>2020-02-21T13:50:28Z</time>
      </trkpt>
      <trkpt lat="38.8767400" lon="1.2517100">
        <ele>211.7</ele>
        <time>2020-02-21T13:50:29Z</time>
      </trkpt>
      <trkpt lat="38.8767710" lon="1.2516640">
        <ele>211.6</ele>
        <time>2020-02-21T13:50:30Z</time>
      </trkpt>
      <trkpt lat="38.8767960" lon="1.2516220">
        <ele>211.5</ele>
        <time>2020-02-21T13:50:31Z</time>
      </trkpt>
      <trkpt lat="38.8768350" lon="1.2516000">
        <ele>211.3</ele>
        <time>2020-02-21T13:50:32Z</time>
      </trkpt>
      <trkpt lat="38.8768590" lon="1.2515680">
        <ele>211.2</ele>
        <time>2020-02-21T13:50:33Z</time>
      </trkpt>
      <trkpt lat="38.8768810" lon="1.2515440">
        <ele>211.1</ele>
        <time>2020-02-21T13:50:34Z</time>
      </trkpt>
      <trkpt lat="38.8768990" lon="1.2515160">
        <ele>211.1</ele>
        <time>2020-02-21T13:50:35Z</time>
      </trkpt>
      <trkpt lat="38.8769210" lon="1.2514750">
        <ele>210.9</ele>
        <time>2020-02-21T13:50:36Z</time>
      </trkpt>
      <trkpt lat="38.8769510" lon="1.2514430">
        <ele>210.8</ele>
        <time>2020-02-21T13:50:37Z</time>
      </trkpt>
      <trkpt lat="38.8769900" lon="1.2514090">
        <ele>210.6</ele>
        <time>2020-02-21T13:50:38Z</time>
      </trkpt>
      <trkpt lat="38.8770210" lon="1.2513720">
        <ele>210.5</ele>
        <time>2020-02-21T13:50:39Z</time>
      </trkpt>
      <trkpt lat="38.8770500" lon="1.2513380">
        <ele>210.3</ele>
        <time>2020-02-21T13:50:40Z</time>
      </trkpt>
      <trkpt lat="38.8770770" lon="1.2512940">
        <ele>210.1</ele>
        <time>2020-02-21T13:50:41Z</time>
      </trkpt>
      <trkpt lat="38.8771060" lon="1.2512500">
        <ele>209.9</ele>
        <time>2020-02-21T13:50:42Z</time>
      </trkpt>
      <trkpt lat="38.8771400" lon="1.2512130">
        <ele>209.8</ele>
        <time>2020-02-21T13:50:43Z</time>
      </trkpt>
      <trkpt lat="38.8771710" lon="1.2511710">
        <ele>209.6</ele>
        <time>2020-02-21T13:50:44Z</time>
      </trkpt>
      <trkpt lat="38.8772040" lon="1.2511290">
        <ele>209.5</ele>
        <time>2020-02-21T13:50:45Z</time>
      </trkpt>
      <trkpt lat="38.8772370" lon="1.2510880">
        <ele>209.4</ele>
        <time>2020-02-21T13:50:46Z</time>
      </trkpt>
      <trkpt lat="38.8772720" lon="1.2510400">
        <ele>209.3</ele>
        <time>2020-02-21T13:50:47Z</time>
      </trkpt>
      <trkpt lat="38.8773010" lon="1.2509900">
        <ele>209.2</ele>
        <time>2020-02-21T13:50:48Z</time>
      </trkpt>
      <trkpt lat="38.8773300" lon="1.2509310">
        <ele>209.2</ele>
        <time>2020-02-21T13:50:49Z</time>
      </trkpt>
      <trkpt lat="38.8773650" lon="1.2508830">
        <ele>209.2</ele>
        <time>2020-02-21T13:50:50Z</time>
      </trkpt>
      <trkpt lat="38.8774040" lon="1.2508310">
        <ele>209.1</ele>
        <time>2020-02-21T13:50:51Z</time>
      </trkpt>
      <trkpt lat="38.8774400" lon="1.2507910">
        <ele>209.0</ele>
        <time>2020-02-21T13:50:52Z</time>
      </trkpt>
      <trkpt lat="38.8774780" lon="1.2507470">
        <ele>208.8</ele>
        <time>2020-02-21T13:50:53Z</time>
      </trkpt>
      <trkpt lat="38.8775090" lon="1.2507010">
        <ele>208.7</ele>
        <time>2020-02-21T13:50:54Z</time>
      </trkpt>
      <trkpt lat="38.8775440" lon="1.2506440">
        <ele>208.5</ele>
        <time>2020-02-21T13:50:55Z</time>
      </trkpt>
      <trkpt lat="38.8775750" lon="1.2505930">
        <ele>208.3</ele>
        <time>2020-02-21T13:50:56Z</time>
      </trkpt>
      <trkpt lat="38.8776090" lon="1.2505440">
        <ele>208.2</ele>
        <time>2020-02-21T13:50:57Z</time>
      </trkpt>
      <trkpt lat="38.8776480" lon="1.2504980">
        <ele>208.1</ele>
        <time>2020-02-21T13:50:58Z</time>
      </trkpt>
      <trkpt lat="38.8776910" lon="1.2504340">
        <ele>208.1</ele>
        <time>2020-02-21T13:50:59Z</time>
      </trkpt>
      <trkpt lat="38.8777330" lon="1.2503750">
        <ele>208.0</ele>
        <time>2020-02-21T13:51:00Z</time>
      </trkpt>
      <trkpt lat="38.8777780" lon="1.2503110">
        <ele>208.0</ele>
        <time>2020-02-21T13:51:01Z</time>
      </trkpt>
      <trkpt lat="38.8778250" lon="1.2502490">
        <ele>208.0</ele>
        <time>2020-02-21T13:51:02Z</time>
      </trkpt>
      <trkpt lat="38.8778740" lon="1.2502010">
        <ele>208.0</ele>
        <time>2020-02-21T13:51:03Z</time>
      </trkpt>
      <trkpt lat="38.8779200" lon="1.2501510">
        <ele>208.0</ele>
        <time>2020-02-21T13:51:04Z</time>
      </trkpt>
      <trkpt lat="38.8779620" lon="1.2501050">
        <ele>208.1</ele>
        <time>2020-02-21T13:51:05Z</time>
      </trkpt>
      <trkpt lat="38.8780020" lon="1.2500560">
        <ele>208.1</ele>
        <time>2020-02-21T13:51:06Z</time>
      </trkpt>
      <trkpt lat="38.8780440" lon="1.2500030">
        <ele>208.2</ele>
        <time>2020-02-21T13:51:07Z</time>
      </trkpt>
      <trkpt lat="38.8780850" lon="1.2499540">
        <ele>208.3</ele>
        <time>2020-02-21T13:51:08Z</time>
      </trkpt>
      <trkpt lat="38.8781260" lon="1.2498970">
        <ele>208.4</ele>
        <time>2020-02-21T13:51:09Z</time>
      </trkpt>
      <trkpt lat="38.8781650" lon="1.2498460">
        <ele>208.5</ele>
        <time>2020-02-21T13:51:10Z</time>
      </trkpt>
      <trkpt lat="38.8782050" lon="1.2497980">
        <ele>208.6</ele>
        <time>2020-02-21T13:51:11Z</time>
      </trkpt>
      <trkpt lat="38.8782360" lon="1.2497560">
        <ele>208.7</ele>
        <time>2020-02-21T13:51:12Z</time>
      </trkpt>
      <trkpt lat="38.8782630" lon="1.2497060">
        <ele>208.8</ele>
        <time>2020-02-21T13:51:13Z</time>
      </trkpt>
      <trkpt lat="38.8782910" lon="1.2496580">
        <ele>208.9</ele>
        <time>2020-02-21T13:51:14Z</time>
      </trkpt>
      <trkpt lat="38.8783280" lon="1.2496190">
        <ele>208.9</ele>
        <time>2020-02-21T13:51:15Z</time>
      </trkpt>
      <trkpt lat="38.8783810" lon="1.2495680">
        <ele>208.9</ele>
        <time>2020-02-21T13:51:16Z</time>
      </trkpt>
      <trkpt lat="38.8784130" lon="1.2495230">
        <ele>208.9</ele>
        <time>2020-02-21T13:51:17Z</time>
      </trkpt>
      <trkpt lat="38.8784500" lon="1.2494870">
        <ele>208.9</ele>
        <time>2020-02-21T13:51:18Z</time>
      </trkpt>
      <trkpt lat="38.8784900" lon="1.2494480">
        <ele>208.9</ele>
        <time>2020-02-21T13:51:19Z</time>
      </trkpt>
      <trkpt lat="38.8785300" lon="1.2493880">
        <ele>208.9</ele>
        <time>2020-02-21T13:51:20Z</time>
      </trkpt>
      <trkpt lat="38.8785640" lon="1.2493420">
        <ele>208.9</ele>
        <time>2020-02-21T13:51:21Z</time>
      </trkpt>
      <trkpt lat="38.8785980" lon="1.2492880">
        <ele>208.9</ele>
        <time>2020-02-21T13:51:22Z</time>
      </trkpt>
      <trkpt lat="38.8786320" lon="1.2492350">
        <ele>208.9</ele>
        <time>2020-02-21T13:51:23Z</time>
      </trkpt>
      <trkpt lat="38.8786550" lon="1.2492120">
        <ele>208.9</ele>
        <time>2020-02-21T13:51:24Z</time>
      </trkpt>
      <trkpt lat="38.8786910" lon="1.2491700">
        <ele>208.9</ele>
        <time>2020-02-21T13:51:25Z</time>
      </trkpt>
      <trkpt lat="38.8787200" lon="1.2491260">
        <ele>208.9</ele>
        <time>2020-02-21T13:51:26Z</time>
      </trkpt>
      <trkpt lat="38.8787500" lon="1.2490910">
        <ele>208.9</ele>
        <time>2020-02-21T13:51:27Z</time>
      </trkpt>
      <trkpt lat="38.8787780" lon="1.2490590">
        <ele>208.9</ele>
        <time>2020-02-21T13:51:28Z</time>
      </trkpt>
      <trkpt lat="38.8787990" lon="1.2490240">
        <ele>208.9</ele>
        <time>2020-02-21T13:51:29Z</time>
      </trkpt>
      <trkpt lat="38.8788210" lon="1.2489900">
        <ele>208.9</ele>
        <time>2020-02-21T13:51:30Z</time>
      </trkpt>
      <trkpt lat="38.8788530" lon="1.2489420">
        <ele>208.9</ele>
        <time>2020-02-21T13:51:31Z</time>
      </trkpt>
      <trkpt lat="38.8788690" lon="1.2489040">
        <ele>208.9</ele>
        <time>2020-02-21T13:51:32Z</time>
      </trkpt>
      <trkpt lat="38.8788960" lon="1.2488730">
        <ele>208.9</ele>
        <time>2020-02-21T13:51:33Z</time>
      </trkpt>
      <trkpt lat="38.8789240" lon="1.2488380">
        <ele>208.9</ele>
        <time>2020-02-21T13:51:34Z</time>
      </trkpt>
      <trkpt lat="38.8789450" lon="1.2487950">
        <ele>209.0</ele>
        <time>2020-02-21T13:51:35Z</time>
      </trkpt>
      <trkpt lat="38.8789670" lon="1.2487540">
        <ele>209.0</ele>
        <time>2020-02-21T13:51:36Z</time>
      </trkpt>
      <trkpt lat="38.8789870" lon="1.2487160">
        <ele>209.0</ele>
        <time>2020-02-21T13:51:37Z</time>
      </trkpt>
      <trkpt lat="38.8790140" lon="1.2486780">
        <ele>209.0</ele>
        <time>2020-02-21T13:51:38Z</time>
      </trkpt>
      <trkpt lat="38.8790410" lon="1.2486410">
        <ele>209.1</ele>
        <time>2020-02-21T13:51:39Z</time>
      </trkpt>
      <trkpt lat="38.8790670" lon="1.2486110">
        <ele>209.1</ele>
        <time>2020-02-21T13:51:40Z</time>
      </trkpt>
      <trkpt lat="38.8791020" lon="1.2485780">
        <ele>209.2</ele>
        <time>2020-02-21T13:51:41Z</time>
      </trkpt>
      <trkpt lat="38.8791280" lon="1.2485350">
        <ele>209.3</ele>
        <time>2020-02-21T13:51:42Z</time>
      </trkpt>
      <trkpt lat="38.8791560" lon="1.2484950">
        <ele>209.4</ele>
        <time>2020-02-21T13:51:43Z</time>
      </trkpt>
      <trkpt lat="38.8791700" lon="1.2484440">
        <ele>209.5</ele>
        <time>2020-02-21T13:51:44Z</time>
      </trkpt>
      <trkpt lat="38.8791890" lon="1.2483850">
        <ele>209.6</ele>
        <time>2020-02-21T13:51:45Z</time>
      </trkpt>
      <trkpt lat="38.8792090" lon="1.2483350">
        <ele>209.7</ele>
        <time>2020-02-21T13:51:46Z</time>
      </trkpt>
      <trkpt lat="38.8792320" lon="1.2482820">
        <ele>209.8</ele>
        <time>2020-02-21T13:51:47Z</time>
      </trkpt>
      <trkpt lat="38.8792470" lon="1.2482290">
        <ele>209.8</ele>
        <time>2020-02-21T13:51:48Z</time>
      </trkpt>
      <trkpt lat="38.8792680" lon="1.2481860">
        <ele>209.8</ele>
        <time>2020-02-21T13:51:49Z</time>
      </trkpt>
      <trkpt lat="38.8792860" lon="1.2481430">
        <ele>209.9</ele>
        <time>2020-02-21T13:51:50Z</time>
      </trkpt>
      <trkpt lat="38.8793090" lon="1.2480930">
        <ele>209.9</ele>
        <time>2020-02-21T13:51:51Z</time>
      </trkpt>
      <trkpt lat="38.8793250" lon="1.2480340">
        <ele>209.8</ele>
        <time>2020-02-21T13:51:52Z</time>
      </trkpt>
      <trkpt lat="38.8793450" lon="1.2479680">
        <ele>209.8</ele>
        <time>2020-02-21T13:51:53Z</time>
      </trkpt>
      <trkpt lat="38.8793630" lon="1.2479060">
        <ele>209.8</ele>
        <time>2020-02-21T13:51:54Z</time>
      </trkpt>
      <trkpt lat="38.8793810" lon="1.2478590">
        <ele>209.7</ele>
        <time>2020-02-21T13:51:55Z</time>
      </trkpt>
      <trkpt lat="38.8793920" lon="1.2478160">
        <ele>209.7</ele>
        <time>2020-02-21T13:51:56Z</time>
      </trkpt>
      <trkpt lat="38.8794080" lon="1.2477750">
        <ele>209.6</ele>
        <time>2020-02-21T13:51:57Z</time>
      </trkpt>
      <trkpt lat="38.8794270" lon="1.2477220">
        <ele>209.5</ele>
        <time>2020-02-21T13:51:58Z</time>
      </trkpt>
      <trkpt lat="38.8794420" lon="1.2476710">
        <ele>209.4</ele>
        <time>2020-02-21T13:51:59Z</time>
      </trkpt>
      <trkpt lat="38.8794530" lon="1.2476200">
        <ele>209.3</ele>
        <time>2020-02-21T13:52:00Z</time>
      </trkpt>
      <trkpt lat="38.8794590" lon="1.2475630">
        <ele>209.2</ele>
        <time>2020-02-21T13:52:01Z</time>
      </trkpt>
      <trkpt lat="38.8794640" lon="1.2475050">
        <ele>209.1</ele>
        <time>2020-02-21T13:52:02Z</time>
      </trkpt>
      <trkpt lat="38.8794740" lon="1.2474610">
        <ele>209.0</ele>
        <time>2020-02-21T13:52:03Z</time>
      </trkpt>
      <trkpt lat="38.8794810" lon="1.2474130">
        <ele>208.9</ele>
        <time>2020-02-21T13:52:04Z</time>
      </trkpt>
      <trkpt lat="38.8794900" lon="1.2473630">
        <ele>208.8</ele>
        <time>2020-02-21T13:52:05Z</time>
      </trkpt>
      <trkpt lat="38.8794980" lon="1.2473210">
        <ele>208.7</ele>
        <time>2020-02-21T13:52:06Z</time>
      </trkpt>
      <trkpt lat="38.8795110" lon="1.2472810">
        <ele>208.7</ele>
        <time>2020-02-21T13:52:07Z</time>
      </trkpt>
      <trkpt lat="38.8795250" lon="1.2472360">
        <ele>208.6</ele>
        <time>2020-02-21T13:52:08Z</time>
      </trkpt>
      <trkpt lat="38.8795390" lon="1.2471890">
        <ele>208.5</ele>
        <time>2020-02-21T13:52:09Z</time>
      </trkpt>
      <trkpt lat="38.8795540" lon="1.2471370">
        <ele>208.4</ele>
        <time>2020-02-21T13:52:10Z</time>
      </trkpt>
      <trkpt lat="38.8795700" lon="1.2470960">
        <ele>208.3</ele>
        <time>2020-02-21T13:52:11Z</time>
      </trkpt>
      <trkpt lat="38.8795770" lon="1.2470510">
        <ele>208.2</ele>
        <time>2020-02-21T13:52:12Z</time>
      </trkpt>
      <trkpt lat="38.8795870" lon="1.2470060">
        <ele>208.0</ele>
        <time>2020-02-21T13:52:13Z</time>
      </trkpt>
      <trkpt lat="38.8796080" lon="1.2469520">
        <ele>207.8</ele>
        <time>2020-02-21T13:52:14Z</time>
      </trkpt>
      <trkpt lat="38.8796220" lon="1.2469000">
        <ele>208.1</ele>
        <time>2020-02-21T13:52:15Z</time>
      </trkpt>
      <trkpt lat="38.8796060" lon="1.2468530">
        <ele>208.2</ele>
        <time>2020-02-21T13:52:16Z</time>
      </trkpt>
      <trkpt lat="38.8796010" lon="1.2468130">
        <ele>208.3</ele>
        <time>2020-02-21T13:52:17Z</time>
      </trkpt>
      <trkpt lat="38.8796060" lon="1.2467680">
        <ele>208.4</ele>
        <time>2020-02-21T13:52:18Z</time>
      </trkpt>
      <trkpt lat="38.8796070" lon="1.2467270">
        <ele>208.5</ele>
        <time>2020-02-21T13:52:19Z</time>
      </trkpt>
      <trkpt lat="38.8796090" lon="1.2466800">
        <ele>208.6</ele>
        <time>2020-02-21T13:52:20Z</time>
      </trkpt>
      <trkpt lat="38.8796110" lon="1.2466370">
        <ele>208.7</ele>
        <time>2020-02-21T13:52:21Z</time>
      </trkpt>
      <trkpt lat="38.8796150" lon="1.2465970">
        <ele>208.8</ele>
        <time>2020-02-21T13:52:22Z</time>
      </trkpt>
      <trkpt lat="38.8796200" lon="1.2465550">
        <ele>208.9</ele>
        <time>2020-02-21T13:52:23Z</time>
      </trkpt>
      <trkpt lat="38.8796270" lon="1.2464980">
        <ele>209.0</ele>
        <time>2020-02-21T13:52:24Z</time>
      </trkpt>
      <trkpt lat="38.8796340" lon="1.2464430">
        <ele>209.1</ele>
        <time>2020-02-21T13:52:25Z</time>
      </trkpt>
      <trkpt lat="38.8796360" lon="1.2464020">
        <ele>209.2</ele>
        <time>2020-02-21T13:52:26Z</time>
      </trkpt>
      <trkpt lat="38.8796440" lon="1.2463550">
        <ele>209.4</ele>
        <time>2020-02-21T13:52:27Z</time>
      </trkpt>
      <trkpt lat="38.8796570" lon="1.2463090">
        <ele>209.4</ele>
        <time>2020-02-21T13:52:28Z</time>
      </trkpt>
      <trkpt lat="38.8796690" lon="1.2462680">
        <ele>209.4</ele>
        <time>2020-02-21T13:52:29Z</time>
      </trkpt>
      <trkpt lat="38.8796780" lon="1.2462190">
        <ele>209.3</ele>
        <time>2020-02-21T13:52:30Z</time>
      </trkpt>
      <trkpt lat="38.8796860" lon="1.2461620">
        <ele>209.3</ele>
        <time>2020-02-21T13:52:31Z</time>
      </trkpt>
      <trkpt lat="38.8797060" lon="1.2461030">
        <ele>209.2</ele>
        <time>2020-02-21T13:52:32Z</time>
      </trkpt>
      <trkpt lat="38.8797210" lon="1.2460450">
        <ele>209.2</ele>
        <time>2020-02-21T13:52:33Z</time>
      </trkpt>
      <trkpt lat="38.8797320" lon="1.2459920">
        <ele>209.2</ele>
        <time>2020-02-21T13:52:34Z</time>
      </trkpt>
      <trkpt lat="38.8797340" lon="1.2459450">
        <ele>209.1</ele>
        <time>2020-02-21T13:52:35Z</time>
      </trkpt>
      <trkpt lat="38.8797430" lon="1.2458980">
        <ele>209.1</ele>
        <time>2020-02-21T13:52:36Z</time>
      </trkpt>
      <trkpt lat="38.8797530" lon="1.2458460">
        <ele>209.0</ele>
        <time>2020-02-21T13:52:37Z</time>
      </trkpt>
      <trkpt lat="38.8797660" lon="1.2457990">
        <ele>209.0</ele>
        <time>2020-02-21T13:52:38Z</time>
      </trkpt>
      <trkpt lat="38.8797750" lon="1.2457440">
        <ele>209.0</ele>
        <time>2020-02-21T13:52:39Z</time>
      </trkpt>
      <trkpt lat="38.8797870" lon="1.2456830">
        <ele>208.9</ele>
        <time>2020-02-21T13:52:40Z</time>
      </trkpt>
      <trkpt lat="38.8798020" lon="1.2456330">
        <ele>208.9</ele>
        <time>2020-02-21T13:52:41Z</time>
      </trkpt>
      <trkpt lat="38.8798160" lon="1.2455760">
        <ele>208.9</ele>
        <time>2020-02-21T13:52:42Z</time>
      </trkpt>
      <trkpt lat="38.8798310" lon="1.2455160">
        <ele>208.9</ele>
        <time>2020-02-21T13:52:43Z</time>
      </trkpt>
      <trkpt lat="38.8798440" lon="1.2454560">
        <ele>208.6</ele>
        <time>2020-02-21T13:52:44Z</time>
      </trkpt>
      <trkpt lat="38.8798550" lon="1.2453990">
        <ele>208.3</ele>
        <time>2020-02-21T13:52:45Z</time>
      </trkpt>
      <trkpt lat="38.8798710" lon="1.2453320">
        <ele>208.1</ele>
        <time>2020-02-21T13:52:46Z</time>
      </trkpt>
      <trkpt lat="38.8798840" lon="1.2452770">
        <ele>207.9</ele>
        <time>2020-02-21T13:52:47Z</time>
      </trkpt>
      <trkpt lat="38.8799080" lon="1.2452200">
        <ele>207.7</ele>
        <time>2020-02-21T13:52:48Z</time>
      </trkpt>
      <trkpt lat="38.8799270" lon="1.2451680">
        <ele>207.6</ele>
        <time>2020-02-21T13:52:49Z</time>
      </trkpt>
      <trkpt lat="38.8799460" lon="1.2451150">
        <ele>207.4</ele>
        <time>2020-02-21T13:52:50Z</time>
      </trkpt>
      <trkpt lat="38.8799690" lon="1.2450670">
        <ele>207.2</ele>
        <time>2020-02-21T13:52:51Z</time>
      </trkpt>
      <trkpt lat="38.8799890" lon="1.2450170">
        <ele>207.1</ele>
        <time>2020-02-21T13:52:52Z</time>
      </trkpt>
      <trkpt lat="38.8800110" lon="1.2449630">
        <ele>206.9</ele>
        <time>2020-02-21T13:52:53Z</time>
      </trkpt>
      <trkpt lat="38.8800230" lon="1.2449040">
        <ele>206.7</ele>
        <time>2020-02-21T13:52:54Z</time>
      </trkpt>
      <trkpt lat="38.8800380" lon="1.2448490">
        <ele>206.5</ele>
        <time>2020-02-21T13:52:55Z</time>
      </trkpt>
      <trkpt lat="38.8800500" lon="1.2447920">
        <ele>206.2</ele>
        <time>2020-02-21T13:52:56Z</time>
      </trkpt>
      <trkpt lat="38.8800530" lon="1.2447350">
        <ele>206.0</ele>
        <time>2020-02-21T13:52:57Z</time>
      </trkpt>
      <trkpt lat="38.8800620" lon="1.2446790">
        <ele>205.6</ele>
        <time>2020-02-21T13:52:58Z</time>
      </trkpt>
      <trkpt lat="38.8800670" lon="1.2446190">
        <ele>205.3</ele>
        <time>2020-02-21T13:52:59Z</time>
      </trkpt>
      <trkpt lat="38.8800660" lon="1.2445520">
        <ele>204.8</ele>
        <time>2020-02-21T13:53:00Z</time>
      </trkpt>
      <trkpt lat="38.8800610" lon="1.2444850">
        <ele>204.2</ele>
        <time>2020-02-21T13:53:01Z</time>
      </trkpt>
      <trkpt lat="38.8800520" lon="1.2444150">
        <ele>203.6</ele>
        <time>2020-02-21T13:53:02Z</time>
      </trkpt>
      <trkpt lat="38.8800390" lon="1.2443520">
        <ele>203.1</ele>
        <time>2020-02-21T13:53:03Z</time>
      </trkpt>
      <trkpt lat="38.8800240" lon="1.2442890">
        <ele>202.6</ele>
        <time>2020-02-21T13:53:04Z</time>
      </trkpt>
      <trkpt lat="38.8800090" lon="1.2442170">
        <ele>202.0</ele>
        <time>2020-02-21T13:53:05Z</time>
      </trkpt>
      <trkpt lat="38.8799960" lon="1.2441470">
        <ele>201.4</ele>
        <time>2020-02-21T13:53:06Z</time>
      </trkpt>
      <trkpt lat="38.8799810" lon="1.2440700">
        <ele>200.5</ele>
        <time>2020-02-21T13:53:07Z</time>
      </trkpt>
      <trkpt lat="38.8799700" lon="1.2439890">
        <ele>199.6</ele>
        <time>2020-02-21T13:53:08Z</time>
      </trkpt>
      <trkpt lat="38.8799620" lon="1.2439020">
        <ele>198.6</ele>
        <time>2020-02-21T13:53:09Z</time>
      </trkpt>
      <trkpt lat="38.8799620" lon="1.2438150">
        <ele>197.7</ele>
        <time>2020-02-21T13:53:10Z</time>
      </trkpt>
      <trkpt lat="38.8799630" lon="1.2437090">
        <ele>196.7</ele>
        <time>2020-02-21T13:53:11Z</time>
      </trkpt>
      <trkpt lat="38.8799590" lon="1.2435980">
        <ele>195.6</ele>
        <time>2020-02-21T13:53:12Z</time>
      </trkpt>
      <trkpt lat="38.8799570" lon="1.2434920">
        <ele>194.6</ele>
        <time>2020-02-21T13:53:13Z</time>
      </trkpt>
      <trkpt lat="38.8799520" lon="1.2433790">
        <ele>193.5</ele>
        <time>2020-02-21T13:53:14Z</time>
      </trkpt>
      <trkpt lat="38.8799500" lon="1.2432510">
        <ele>192.5</ele>
        <time>2020-02-21T13:53:15Z</time>
      </trkpt>
      <trkpt lat="38.8799580" lon="1.2431220">
        <ele>191.4</ele>
        <time>2020-02-21T13:53:16Z</time>
      </trkpt>
      <trkpt lat="38.8799600" lon="1.2429940">
        <ele>190.3</ele>
        <time>2020-02-21T13:53:17Z</time>
      </trkpt>
      <trkpt lat="38.8799670" lon="1.2428680">
        <ele>189.1</ele>
        <time>2020-02-21T13:53:18Z</time>
      </trkpt>
      <trkpt lat="38.8799770" lon="1.2427340">
        <ele>188.2</ele>
        <time>2020-02-21T13:53:19Z</time>
      </trkpt>
      <trkpt lat="38.8799860" lon="1.2425940">
        <ele>187.6</ele>
        <time>2020-02-21T13:53:20Z</time>
      </trkpt>
      <trkpt lat="38.8799870" lon="1.2424570">
        <ele>187.0</ele>
        <time>2020-02-21T13:53:21Z</time>
      </trkpt>
      <trkpt lat="38.8799860" lon="1.2423200">
        <ele>186.5</ele>
        <time>2020-02-21T13:53:22Z</time>
      </trkpt>
      <trkpt lat="38.8799820" lon="1.2421870">
        <ele>186.1</ele>
        <time>2020-02-21T13:53:23Z</time>
      </trkpt>
      <trkpt lat="38.8799770" lon="1.2420540">
        <ele>185.8</ele>
        <time>2020-02-21T13:53:24Z</time>
      </trkpt>
      <trkpt lat="38.8799680" lon="1.2419210">
        <ele>185.5</ele>
        <time>2020-02-21T13:53:25Z</time>
      </trkpt>
      <trkpt lat="38.8799730" lon="1.2417830">
        <ele>185.1</ele>
        <time>2020-02-21T13:53:26Z</time>
      </trkpt>
      <trkpt lat="38.8799610" lon="1.2416510">
        <ele>184.8</ele>
        <time>2020-02-21T13:53:27Z</time>
      </trkpt>
      <trkpt lat="38.8799400" lon="1.2415220">
        <ele>184.5</ele>
        <time>2020-02-21T13:53:28Z</time>
      </trkpt>
      <trkpt lat="38.8799160" lon="1.2413950">
        <ele>184.1</ele>
        <time>2020-02-21T13:53:29Z</time>
      </trkpt>
      <trkpt lat="38.8798990" lon="1.2412700">
        <ele>183.8</ele>
        <time>2020-02-21T13:53:30Z</time>
      </trkpt>
      <trkpt lat="38.8798720" lon="1.2411520">
        <ele>183.5</ele>
        <time>2020-02-21T13:53:31Z</time>
      </trkpt>
      <trkpt lat="38.8798550" lon="1.2410330">
        <ele>183.2</ele>
        <time>2020-02-21T13:53:32Z</time>
      </trkpt>
      <trkpt lat="38.8798370" lon="1.2409160">
        <ele>182.9</ele>
        <time>2020-02-21T13:53:33Z</time>
      </trkpt>
      <trkpt lat="38.8798210" lon="1.2408020">
        <ele>182.7</ele>
        <time>2020-02-21T13:53:34Z</time>
      </trkpt>
      <trkpt lat="38.8798050" lon="1.2406920">
        <ele>182.4</ele>
        <time>2020-02-21T13:53:35Z</time>
      </trkpt>
      <trkpt lat="38.8797960" lon="1.2405840">
        <ele>182.2</ele>
        <time>2020-02-21T13:53:36Z</time>
      </trkpt>
      <trkpt lat="38.8797820" lon="1.2404810">
        <ele>182.0</ele>
        <time>2020-02-21T13:53:37Z</time>
      </trkpt>
      <trkpt lat="38.8797780" lon="1.2403800">
        <ele>181.8</ele>
        <time>2020-02-21T13:53:38Z</time>
      </trkpt>
      <trkpt lat="38.8797770" lon="1.2402810">
        <ele>181.5</ele>
        <time>2020-02-21T13:53:39Z</time>
      </trkpt>
      <trkpt lat="38.8797770" lon="1.2401860">
        <ele>180.4</ele>
        <time>2020-02-21T13:53:40Z</time>
      </trkpt>
      <trkpt lat="38.8797750" lon="1.2400920">
        <ele>179.7</ele>
        <time>2020-02-21T13:53:41Z</time>
      </trkpt>
      <trkpt lat="38.8797710" lon="1.2399960">
        <ele>178.9</ele>
        <time>2020-02-21T13:53:42Z</time>
      </trkpt>
      <trkpt lat="38.8797670" lon="1.2399010">
        <ele>177.9</ele>
        <time>2020-02-21T13:53:43Z</time>
      </trkpt>
      <trkpt lat="38.8797670" lon="1.2398070">
        <ele>177.3</ele>
        <time>2020-02-21T13:53:44Z</time>
      </trkpt>
      <trkpt lat="38.8797720" lon="1.2397100">
        <ele>176.6</ele>
        <time>2020-02-21T13:53:45Z</time>
      </trkpt>
      <trkpt lat="38.8797720" lon="1.2396100">
        <ele>176.0</ele>
        <time>2020-02-21T13:53:46Z</time>
      </trkpt>
      <trkpt lat="38.8797690" lon="1.2395090">
        <ele>175.3</ele>
        <time>2020-02-21T13:53:47Z</time>
      </trkpt>
      <trkpt lat="38.8797660" lon="1.2394080">
        <ele>174.7</ele>
        <time>2020-02-21T13:53:48Z</time>
      </trkpt>
      <trkpt lat="38.8797640" lon="1.2393050">
        <ele>174.1</ele>
        <time>2020-02-21T13:53:49Z</time>
      </trkpt>
      <trkpt lat="38.8797700" lon="1.2392020">
        <ele>173.5</ele>
        <time>2020-02-21T13:53:50Z</time>
      </trkpt>
      <trkpt lat="38.8797770" lon="1.2390980">
        <ele>172.5</ele>
        <time>2020-02-21T13:53:51Z</time>
      </trkpt>
      <trkpt lat="38.8797830" lon="1.2389880">
        <ele>171.9</ele>
        <time>2020-02-21T13:53:52Z</time>
      </trkpt>
      <trkpt lat="38.8797870" lon="1.2388800">
        <ele>171.3</ele>
        <time>2020-02-21T13:53:53Z</time>
      </trkpt>
      <trkpt lat="38.8797880" lon="1.2387820">
        <ele>170.7</ele>
        <time>2020-02-21T13:53:54Z</time>
      </trkpt>
      <trkpt lat="38.8797930" lon="1.2386930">
        <ele>170.2</ele>
        <time>2020-02-21T13:53:55Z</time>
      </trkpt>
      <trkpt lat="38.8797980" lon="1.2386150">
        <ele>169.8</ele>
        <time>2020-02-21T13:53:56Z</time>
      </trkpt>
      <trkpt lat="38.8798040" lon="1.2385360">
        <ele>169.4</ele>
        <time>2020-02-21T13:53:57Z</time>
      </trkpt>
      <trkpt lat="38.8798080" lon="1.2384570">
        <ele>169.0</ele>
        <time>2020-02-21T13:53:58Z</time>
      </trkpt>
      <trkpt lat="38.8798120" lon="1.2383750">
        <ele>168.7</ele>
        <time>2020-02-21T13:53:59Z</time>
      </trkpt>
      <trkpt lat="38.8798170" lon="1.2382920">
        <ele>168.3</ele>
        <time>2020-02-21T13:54:00Z</time>
      </trkpt>
      <trkpt lat="38.8798230" lon="1.2382060">
        <ele>167.8</ele>
        <time>2020-02-21T13:54:01Z</time>
      </trkpt>
      <trkpt lat="38.8798280" lon="1.2381130">
        <ele>167.3</ele>
        <time>2020-02-21T13:54:02Z</time>
      </trkpt>
      <trkpt lat="38.8798380" lon="1.2380170">
        <ele>166.8</ele>
        <time>2020-02-21T13:54:03Z</time>
      </trkpt>
      <trkpt lat="38.8798450" lon="1.2379210">
        <ele>166.1</ele>
        <time>2020-02-21T13:54:04Z</time>
      </trkpt>
      <trkpt lat="38.8798510" lon="1.2378240">
        <ele>165.5</ele>
        <time>2020-02-21T13:54:05Z</time>
      </trkpt>
      <trkpt lat="38.8798540" lon="1.2377300">
        <ele>164.9</ele>
        <time>2020-02-21T13:54:06Z</time>
      </trkpt>
      <trkpt lat="38.8798640" lon="1.2376400">
        <ele>164.3</ele>
        <time>2020-02-21T13:54:07Z</time>
      </trkpt>
      <trkpt lat="38.8798790" lon="1.2375550">
        <ele>162.5</ele>
        <time>2020-02-21T13:54:08Z</time>
      </trkpt>
      <trkpt lat="38.8799060" lon="1.2374740">
        <ele>161.4</ele>
        <time>2020-02-21T13:54:09Z</time>
      </trkpt>
      <trkpt lat="38.8799460" lon="1.2373940">
        <ele>160.4</ele>
        <time>2020-02-21T13:54:10Z</time>
      </trkpt>
      <trkpt lat="38.8799950" lon="1.2373130">
        <ele>159.3</ele>
        <time>2020-02-21T13:54:11Z</time>
      </trkpt>
      <trkpt lat="38.8800520" lon="1.2372330">
        <ele>158.1</ele>
        <time>2020-02-21T13:54:12Z</time>
      </trkpt>
      <trkpt lat="38.8801130" lon="1.2371510">
        <ele>156.9</ele>
        <time>2020-02-21T13:54:13Z</time>
      </trkpt>
      <trkpt lat="38.8801750" lon="1.2370660">
        <ele>155.8</ele>
        <time>2020-02-21T13:54:14Z</time>
      </trkpt>
      <trkpt lat="38.8802390" lon="1.2369810">
        <ele>154.7</ele>
        <time>2020-02-21T13:54:15Z</time>
      </trkpt>
      <trkpt lat="38.8803040" lon="1.2368970">
        <ele>153.7</ele>
        <time>2020-02-21T13:54:16Z</time>
      </trkpt>
      <trkpt lat="38.8803700" lon="1.2368170">
        <ele>152.8</ele>
        <time>2020-02-21T13:54:17Z</time>
      </trkpt>
      <trkpt lat="38.8804360" lon="1.2367360">
        <ele>151.7</ele>
        <time>2020-02-21T13:54:18Z</time>
      </trkpt>
      <trkpt lat="38.8805000" lon="1.2366530">
        <ele>150.7</ele>
        <time>2020-02-21T13:54:19Z</time>
      </trkpt>
      <trkpt lat="38.8805650" lon="1.2365680">
        <ele>149.6</ele>
        <time>2020-02-21T13:54:20Z</time>
      </trkpt>
      <trkpt lat="38.8806360" lon="1.2364850">
        <ele>148.5</ele>
        <time>2020-02-21T13:54:21Z</time>
      </trkpt>
      <trkpt lat="38.8807080" lon="1.2363990">
        <ele>147.1</ele>
        <time>2020-02-21T13:54:22Z</time>
      </trkpt>
      <trkpt lat="38.8807800" lon="1.2363100">
        <ele>145.9</ele>
        <time>2020-02-21T13:54:23Z</time>
      </trkpt>
      <trkpt lat="38.8808520" lon="1.2362210">
        <ele>144.8</ele>
        <time>2020-02-21T13:54:24Z</time>
      </trkpt>
      <trkpt lat="38.8809220" lon="1.2361280">
        <ele>143.6</ele>
        <time>2020-02-21T13:54:25Z</time>
      </trkpt>
      <trkpt lat="38.8809930" lon="1.2360370">
        <ele>142.3</ele>
        <time>2020-02-21T13:54:26Z</time>
      </trkpt>
      <trkpt lat="38.8810640" lon="1.2359430">
        <ele>141.0</ele>
        <time>2020-02-21T13:54:27Z</time>
      </trkpt>
      <trkpt lat="38.8811380" lon="1.2358520">
        <ele>139.5</ele>
        <time>2020-02-21T13:54:28Z</time>
      </trkpt>
      <trkpt lat="38.8812100" lon="1.2357590">
        <ele>138.0</ele>
        <time>2020-02-21T13:54:29Z</time>
      </trkpt>
      <trkpt lat="38.8812820" lon="1.2356660">
        <ele>136.4</ele>
        <time>2020-02-21T13:54:30Z</time>
      </trkpt>
      <trkpt lat="38.8813520" lon="1.2355720">
        <ele>134.7</ele>
        <time>2020-02-21T13:54:31Z</time>
      </trkpt>
      <trkpt lat="38.8814220" lon="1.2354840">
        <ele>133.1</ele>
        <time>2020-02-21T13:54:32Z</time>
      </trkpt>
      <trkpt lat="38.8814900" lon="1.2353980">
        <ele>131.6</ele>
        <time>2020-02-21T13:54:33Z</time>
      </trkpt>
      <trkpt lat="38.8815640" lon="1.2353100">
        <ele>129.9</ele>
        <time>2020-02-21T13:54:34Z</time>
      </trkpt>
      <trkpt lat="38.8816380" lon="1.2352160">
        <ele>128.2</ele>
        <time>2020-02-21T13:54:35Z</time>
      </trkpt>
      <trkpt lat="38.8817170" lon="1.2351250">
        <ele>126.5</ele>
        <time>2020-02-21T13:54:36Z</time>
      </trkpt>
      <trkpt lat="38.8817950" lon="1.2350350">
        <ele>124.7</ele>
        <time>2020-02-21T13:54:37Z</time>
      </trkpt>
      <trkpt lat="38.8818740" lon="1.2349480">
        <ele>122.8</ele>
        <time>2020-02-21T13:54:38Z</time>
      </trkpt>
      <trkpt lat="38.8819540" lon="1.2348620">
        <ele>121.7</ele>
        <time>2020-02-21T13:54:39Z</time>
      </trkpt>
      <trkpt lat="38.8820350" lon="1.2347730">
        <ele>120.5</ele>
        <time>2020-02-21T13:54:40Z</time>
      </trkpt>
      <trkpt lat="38.8821170" lon="1.2346870">
        <ele>119.5</ele>
        <time>2020-02-21T13:54:41Z</time>
      </trkpt>
      <trkpt lat="38.8821980" lon="1.2346000">
        <ele>118.5</ele>
        <time>2020-02-21T13:54:42Z</time>
      </trkpt>
      <trkpt lat="38.8822800" lon="1.2345170">
        <ele>117.6</ele>
        <time>2020-02-21T13:54:43Z</time>
      </trkpt>
      <trkpt lat="38.8823640" lon="1.2344350">
        <ele>116.7</ele>
        <time>2020-02-21T13:54:44Z</time>
      </trkpt>
      <trkpt lat="38.8824480" lon="1.2343460">
        <ele>115.8</ele>
        <time>2020-02-21T13:54:45Z</time>
      </trkpt>
      <trkpt lat="38.8825320" lon="1.2342560">
        <ele>114.9</ele>
        <time>2020-02-21T13:54:46Z</time>
      </trkpt>
      <trkpt lat="38.8826170" lon="1.2341690">
        <ele>114.0</ele>
        <time>2020-02-21T13:54:47Z</time>
      </trkpt>
      <trkpt lat="38.8826980" lon="1.2340830">
        <ele>113.1</ele>
        <time>2020-02-21T13:54:48Z</time>
      </trkpt>
      <trkpt lat="38.8827750" lon="1.2339980">
        <ele>112.3</ele>
        <time>2020-02-21T13:54:49Z</time>
      </trkpt>
      <trkpt lat="38.8828480" lon="1.2339130">
        <ele>111.5</ele>
        <time>2020-02-21T13:54:50Z</time>
      </trkpt>
      <trkpt lat="38.8829200" lon="1.2338330">
        <ele>110.5</ele>
        <time>2020-02-21T13:54:51Z</time>
      </trkpt>
      <trkpt lat="38.8829900" lon="1.2337510">
        <ele>109.7</ele>
        <time>2020-02-21T13:54:52Z</time>
      </trkpt>
      <trkpt lat="38.8830610" lon="1.2336740">
        <ele>108.8</ele>
        <time>2020-02-21T13:54:53Z</time>
      </trkpt>
      <trkpt lat="38.8831330" lon="1.2335930">
        <ele>107.9</ele>
        <time>2020-02-21T13:54:54Z</time>
      </trkpt>
      <trkpt lat="38.8832030" lon="1.2335120">
        <ele>107.0</ele>
        <time>2020-02-21T13:54:55Z</time>
      </trkpt>
      <trkpt lat="38.8832680" lon="1.2334370">
        <ele>106.1</ele>
        <time>2020-02-21T13:54:56Z</time>
      </trkpt>
      <trkpt lat="38.8833240" lon="1.2333720">
        <ele>105.2</ele>
        <time>2020-02-21T13:54:57Z</time>
      </trkpt>
      <trkpt lat="38.8833700" lon="1.2333250">
        <ele>104.6</ele>
        <time>2020-02-21T13:54:58Z</time>
      </trkpt>
      <trkpt lat="38.8834100" lon="1.2333060">
        <ele>104.1</ele>
        <time>2020-02-21T13:54:59Z</time>
      </trkpt>
      <trkpt lat="38.8834530" lon="1.2333120">
        <ele>103.5</ele>
        <time>2020-02-21T13:55:00Z</time>
      </trkpt>
      <trkpt lat="38.8834910" lon="1.2333480">
        <ele>103.2</ele>
        <time>2020-02-21T13:55:01Z</time>
      </trkpt>
      <trkpt lat="38.8835090" lon="1.2334000">
        <ele>103.5</ele>
        <time>2020-02-21T13:55:02Z</time>
      </trkpt>
      <trkpt lat="38.8835180" lon="1.2334540">
        <ele>103.7</ele>
        <time>2020-02-21T13:55:03Z</time>
      </trkpt>
      <trkpt lat="38.8835180" lon="1.2335110">
        <ele>104.0</ele>
        <time>2020-02-21T13:55:04Z</time>
      </trkpt>
      <trkpt lat="38.8835200" lon="1.2335730">
        <ele>104.4</ele>
        <time>2020-02-21T13:55:05Z</time>
      </trkpt>
      <trkpt lat="38.8835290" lon="1.2336300">
        <ele>104.8</ele>
        <time>2020-02-21T13:55:06Z</time>
      </trkpt>
      <trkpt lat="38.8835410" lon="1.2336840">
        <ele>105.0</ele>
        <time>2020-02-21T13:55:07Z</time>
      </trkpt>
      <trkpt lat="38.8835510" lon="1.2337410">
        <ele>105.3</ele>
        <time>2020-02-21T13:55:08Z</time>
      </trkpt>
      <trkpt lat="38.8835620" lon="1.2337970">
        <ele>105.4</ele>
        <time>2020-02-21T13:55:09Z</time>
      </trkpt>
      <trkpt lat="38.8835660" lon="1.2338560">
        <ele>105.5</ele>
        <time>2020-02-21T13:55:10Z</time>
      </trkpt>
      <trkpt lat="38.8835830" lon="1.2339120">
        <ele>105.6</ele>
        <time>2020-02-21T13:55:11Z</time>
      </trkpt>
      <trkpt lat="38.8836000" lon="1.2339630">
        <ele>105.6</ele>
        <time>2020-02-21T13:55:12Z</time>
      </trkpt>
      <trkpt lat="38.8836200" lon="1.2340140">
        <ele>105.6</ele>
        <time>2020-02-21T13:55:13Z</time>
      </trkpt>
      <trkpt lat="38.8836350" lon="1.2340650">
        <ele>105.7</ele>
        <time>2020-02-21T13:55:14Z</time>
      </trkpt>
      <trkpt lat="38.8836480" lon="1.2341170">
        <ele>105.7</ele>
        <time>2020-02-21T13:55:15Z</time>
      </trkpt>
      <trkpt lat="38.8836620" lon="1.2341740">
        <ele>105.7</ele>
        <time>2020-02-21T13:55:16Z</time>
      </trkpt>
      <trkpt lat="38.8836770" lon="1.2342320">
        <ele>105.7</ele>
        <time>2020-02-21T13:55:17Z</time>
      </trkpt>
      <trkpt lat="38.8836900" lon="1.2342900">
        <ele>105.7</ele>
        <time>2020-02-21T13:55:18Z</time>
      </trkpt>
      <trkpt lat="38.8837120" lon="1.2343470">
        <ele>105.7</ele>
        <time>2020-02-21T13:55:19Z</time>
      </trkpt>
      <trkpt lat="38.8837290" lon="1.2344030">
        <ele>105.7</ele>
        <time>2020-02-21T13:55:20Z</time>
      </trkpt>
      <trkpt lat="38.8837520" lon="1.2344570">
        <ele>105.8</ele>
        <time>2020-02-21T13:55:21Z</time>
      </trkpt>
      <trkpt lat="38.8837730" lon="1.2345140">
        <ele>105.9</ele>
        <time>2020-02-21T13:55:22Z</time>
      </trkpt>
      <trkpt lat="38.8837940" lon="1.2345730">
        <ele>106.0</ele>
        <time>2020-02-21T13:55:23Z</time>
      </trkpt>
      <trkpt lat="38.8838150" lon="1.2346330">
        <ele>106.1</ele>
        <time>2020-02-21T13:55:24Z</time>
      </trkpt>
      <trkpt lat="38.8838370" lon="1.2346930">
        <ele>106.2</ele>
        <time>2020-02-21T13:55:25Z</time>
      </trkpt>
      <trkpt lat="38.8838580" lon="1.2347520">
        <ele>106.3</ele>
        <time>2020-02-21T13:55:26Z</time>
      </trkpt>
      <trkpt lat="38.8838760" lon="1.2348100">
        <ele>106.5</ele>
        <time>2020-02-21T13:55:27Z</time>
      </trkpt>
      <trkpt lat="38.8839010" lon="1.2348640">
        <ele>106.6</ele>
        <time>2020-02-21T13:55:28Z</time>
      </trkpt>
      <trkpt lat="38.8839290" lon="1.2349200">
        <ele>106.7</ele>
        <time>2020-02-21T13:55:29Z</time>
      </trkpt>
      <trkpt lat="38.8839570" lon="1.2349770">
        <ele>106.8</ele>
        <time>2020-02-21T13:55:30Z</time>
      </trkpt>
      <trkpt lat="38.8839830" lon="1.2350340">
        <ele>106.9</ele>
        <time>2020-02-21T13:55:31Z</time>
      </trkpt>
      <trkpt lat="38.8840070" lon="1.2350920">
        <ele>107.1</ele>
        <time>2020-02-21T13:55:32Z</time>
      </trkpt>
      <trkpt lat="38.8840280" lon="1.2351500">
        <ele>107.2</ele>
        <time>2020-02-21T13:55:33Z</time>
      </trkpt>
      <trkpt lat="38.8840530" lon="1.2352060">
        <ele>107.4</ele>
        <time>2020-02-21T13:55:34Z</time>
      </trkpt>
      <trkpt lat="38.8840800" lon="1.2352610">
        <ele>107.5</ele>
        <time>2020-02-21T13:55:35Z</time>
      </trkpt>
      <trkpt lat="38.8841120" lon="1.2353150">
        <ele>107.7</ele>
        <time>2020-02-21T13:55:36Z</time>
      </trkpt>
      <trkpt lat="38.8841450" lon="1.2353680">
        <ele>107.9</ele>
        <time>2020-02-21T13:55:37Z</time>
      </trkpt>
      <trkpt lat="38.8841710" lon="1.2354240">
        <ele>108.0</ele>
        <time>2020-02-21T13:55:38Z</time>
      </trkpt>
      <trkpt lat="38.8842020" lon="1.2354720">
        <ele>108.1</ele>
        <time>2020-02-21T13:55:39Z</time>
      </trkpt>
      <trkpt lat="38.8842240" lon="1.2355250">
        <ele>108.2</ele>
        <time>2020-02-21T13:55:40Z</time>
      </trkpt>
      <trkpt lat="38.8842470" lon="1.2355770">
        <ele>108.3</ele>
        <time>2020-02-21T13:55:41Z</time>
      </trkpt>
      <trkpt lat="38.8842720" lon="1.2356300">
        <ele>108.5</ele>
        <time>2020-02-21T13:55:42Z</time>
      </trkpt>
      <trkpt lat="38.8842880" lon="1.2356880">
        <ele>108.6</ele>
        <time>2020-02-21T13:55:43Z</time>
      </trkpt>
      <trkpt lat="38.8843170" lon="1.2357330">
        <ele>108.7</ele>
        <time>2020-02-21T13:55:44Z</time>
      </trkpt>
      <trkpt lat="38.8843450" lon="1.2357810">
        <ele>108.9</ele>
        <time>2020-02-21T13:55:45Z</time>
      </trkpt>
      <trkpt lat="38.8843660" lon="1.2358350">
        <ele>109.1</ele>
        <time>2020-02-21T13:55:46Z</time>
      </trkpt>
      <trkpt lat="38.8843890" lon="1.2358880">
        <ele>109.2</ele>
        <time>2020-02-21T13:55:47Z</time>
      </trkpt>
      <trkpt lat="38.8844130" lon="1.2359380">
        <ele>109.3</ele>
        <time>2020-02-21T13:55:48Z</time>
      </trkpt>
      <trkpt lat="38.8844370" lon="1.2359880">
        <ele>109.4</ele>
        <time>2020-02-21T13:55:49Z</time>
      </trkpt>
      <trkpt lat="38.8844620" lon="1.2360390">
        <ele>109.6</ele>
        <time>2020-02-21T13:55:50Z</time>
      </trkpt>
      <trkpt lat="38.8844840" lon="1.2360890">
        <ele>109.8</ele>
        <time>2020-02-21T13:55:51Z</time>
      </trkpt>
      <trkpt lat="38.8844990" lon="1.2361430">
        <ele>110.0</ele>
        <time>2020-02-21T13:55:52Z</time>
      </trkpt>
      <trkpt lat="38.8845210" lon="1.2361920">
        <ele>110.2</ele>
        <time>2020-02-21T13:55:53Z</time>
      </trkpt>
      <trkpt lat="38.8845340" lon="1.2362470">
        <ele>110.3</ele>
        <time>2020-02-21T13:55:54Z</time>
      </trkpt>
      <trkpt lat="38.8845560" lon="1.2362970">
        <ele>110.5</ele>
        <time>2020-02-21T13:55:55Z</time>
      </trkpt>
      <trkpt lat="38.8845810" lon="1.2363440">
        <ele>110.7</ele>
        <time>2020-02-21T13:55:56Z</time>
      </trkpt>
      <trkpt lat="38.8846000" lon="1.2363990">
        <ele>110.9</ele>
        <time>2020-02-21T13:55:57Z</time>
      </trkpt>
      <trkpt lat="38.8846250" lon="1.2364490">
        <ele>111.1</ele>
        <time>2020-02-21T13:55:58Z</time>
      </trkpt>
      <trkpt lat="38.8846550" lon="1.2364960">
        <ele>111.2</ele>
        <time>2020-02-21T13:55:59Z</time>
      </trkpt>
      <trkpt lat="38.8846760" lon="1.2365500">
        <ele>111.4</ele>
        <time>2020-02-21T13:56:00Z</time>
      </trkpt>
      <trkpt lat="38.8847000" lon="1.2366010">
        <ele>111.4</ele>
        <time>2020-02-21T13:56:01Z</time>
      </trkpt>
      <trkpt lat="38.8847280" lon="1.2366500">
        <ele>111.2</ele>
        <time>2020-02-21T13:56:02Z</time>
      </trkpt>
      <trkpt lat="38.8847530" lon="1.2366990">
        <ele>111.0</ele>
        <time>2020-02-21T13:56:03Z</time>
      </trkpt>
      <trkpt lat="38.8847850" lon="1.2367420">
        <ele>111.0</ele>
        <time>2020-02-21T13:56:04Z</time>
      </trkpt>
      <trkpt lat="38.8848240" lon="1.2367820">
        <ele>111.0</ele>
        <time>2020-02-21T13:56:05Z</time>
      </trkpt>
      <trkpt lat="38.8848640" lon="1.2368220">
        <ele>110.8</ele>
        <time>2020-02-21T13:56:06Z</time>
      </trkpt>
      <trkpt lat="38.8848960" lon="1.2368730">
        <ele>110.8</ele>
        <time>2020-02-21T13:56:07Z</time>
      </trkpt>
      <trkpt lat="38.8849300" lon="1.2369210">
        <ele>111.0</ele>
        <time>2020-02-21T13:56:08Z</time>
      </trkpt>
      <trkpt lat="38.8849640" lon="1.2369730">
        <ele>110.9</ele>
        <time>2020-02-21T13:56:09Z</time>
      </trkpt>
      <trkpt lat="38.8849970" lon="1.2370210">
        <ele>110.7</ele>
        <time>2020-02-21T13:56:10Z</time>
      </trkpt>
      <trkpt lat="38.8850240" lon="1.2370750">
        <ele>110.7</ele>
        <time>2020-02-21T13:56:11Z</time>
      </trkpt>
      <trkpt lat="38.8850540" lon="1.2371250">
        <ele>110.7</ele>
        <time>2020-02-21T13:56:12Z</time>
      </trkpt>
      <trkpt lat="38.8850790" lon="1.2371770">
        <ele>110.4</ele>
        <time>2020-02-21T13:56:13Z</time>
      </trkpt>
      <trkpt lat="38.8851070" lon="1.2372270">
        <ele>110.4</ele>
        <time>2020-02-21T13:56:14Z</time>
      </trkpt>
      <trkpt lat="38.8851320" lon="1.2372780">
        <ele>110.4</ele>
        <time>2020-02-21T13:56:15Z</time>
      </trkpt>
      <trkpt lat="38.8851600" lon="1.2373290">
        <ele>110.5</ele>
        <time>2020-02-21T13:56:16Z</time>
      </trkpt>
      <trkpt lat="38.8851800" lon="1.2373850">
        <ele>110.5</ele>
        <time>2020-02-21T13:56:17Z</time>
      </trkpt>
      <trkpt lat="38.8852070" lon="1.2374370">
        <ele>110.6</ele>
        <time>2020-02-21T13:56:18Z</time>
      </trkpt>
      <trkpt lat="38.8852290" lon="1.2374920">
        <ele>110.8</ele>
        <time>2020-02-21T13:56:19Z</time>
      </trkpt>
      <trkpt lat="38.8852650" lon="1.2375410">
        <ele>110.9</ele>
        <time>2020-02-21T13:56:20Z</time>
      </trkpt>
      <trkpt lat="38.8852970" lon="1.2375860">
        <ele>111.0</ele>
        <time>2020-02-21T13:56:21Z</time>
      </trkpt>
      <trkpt lat="38.8853290" lon="1.2376320">
        <ele>110.8</ele>
        <time>2020-02-21T13:56:22Z</time>
      </trkpt>
      <trkpt lat="38.8853600" lon="1.2376790">
        <ele>110.8</ele>
        <time>2020-02-21T13:56:23Z</time>
      </trkpt>
      <trkpt lat="38.8853860" lon="1.2377290">
        <ele>110.9</ele>
        <time>2020-02-21T13:56:24Z</time>
      </trkpt>
      <trkpt lat="38.8854140" lon="1.2377780">
        <ele>111.0</ele>
        <time>2020-02-21T13:56:25Z</time>
      </trkpt>
      <trkpt lat="38.8854420" lon="1.2378210">
        <ele>111.1</ele>
        <time>2020-02-21T13:56:26Z</time>
      </trkpt>
      <trkpt lat="38.8854690" lon="1.2378680">
        <ele>111.3</ele>
        <time>2020-02-21T13:56:27Z</time>
      </trkpt>
      <trkpt lat="38.8854970" lon="1.2379120">
        <ele>111.9</ele>
        <time>2020-02-21T13:56:28Z</time>
      </trkpt>
      <trkpt lat="38.8855170" lon="1.2379630">
        <ele>112.5</ele>
        <time>2020-02-21T13:56:29Z</time>
      </trkpt>
      <trkpt lat="38.8855380" lon="1.2380090">
        <ele>113.0</ele>
        <time>2020-02-21T13:56:30Z</time>
      </trkpt>
      <trkpt lat="38.8855550" lon="1.2380540">
        <ele>113.4</ele>
        <time>2020-02-21T13:56:31Z</time>
      </trkpt>
      <trkpt lat="38.8855680" lon="1.2381060">
        <ele>113.8</ele>
        <time>2020-02-21T13:56:32Z</time>
      </trkpt>
      <trkpt lat="38.8855780" lon="1.2381540">
        <ele>114.3</ele>
        <time>2020-02-21T13:56:33Z</time>
      </trkpt>
      <trkpt lat="38.8855910" lon="1.2382040">
        <ele>114.8</ele>
        <time>2020-02-21T13:56:34Z</time>
      </trkpt>
      <trkpt lat="38.8856020" lon="1.2382530">
        <ele>115.3</ele>
        <time>2020-02-21T13:56:35Z</time>
      </trkpt>
      <trkpt lat="38.8856030" lon="1.2383080">
        <ele>115.8</ele>
        <time>2020-02-21T13:56:36Z</time>
      </trkpt>
      <trkpt lat="38.8856040" lon="1.2383560">
        <ele>116.2</ele>
        <time>2020-02-21T13:56:37Z</time>
      </trkpt>
      <trkpt lat="38.8856020" lon="1.2384020">
        <ele>116.4</ele>
        <time>2020-02-21T13:56:38Z</time>
      </trkpt>
      <trkpt lat="38.8856100" lon="1.2384440">
        <ele>116.7</ele>
        <time>2020-02-21T13:56:39Z</time>
      </trkpt>
      <trkpt lat="38.8856100" lon="1.2384910">
        <ele>116.9</ele>
        <time>2020-02-21T13:56:40Z</time>
      </trkpt>
      <trkpt lat="38.8856040" lon="1.2385430">
        <ele>117.3</ele>
        <time>2020-02-21T13:56:41Z</time>
      </trkpt>
      <trkpt lat="38.8855990" lon="1.2385940">
        <ele>117.7</ele>
        <time>2020-02-21T13:56:42Z</time>
      </trkpt>
      <trkpt lat="38.8856070" lon="1.2386420">
        <ele>118.0</ele>
        <time>2020-02-21T13:56:43Z</time>
      </trkpt>
      <trkpt lat="38.8856170" lon="1.2386880">
        <ele>118.2</ele>
        <time>2020-02-21T13:56:44Z</time>
      </trkpt>
      <trkpt lat="38.8856260" lon="1.2387360">
        <ele>118.4</ele>
        <time>2020-02-21T13:56:45Z</time>
      </trkpt>
      <trkpt lat="38.8856310" lon="1.2387820">
        <ele>118.6</ele>
        <time>2020-02-21T13:56:46Z</time>
      </trkpt>
      <trkpt lat="38.8856320" lon="1.2388300">
        <ele>119.0</ele>
        <time>2020-02-21T13:56:47Z</time>
      </trkpt>
      <trkpt lat="38.8856390" lon="1.2388760">
        <ele>119.2</ele>
        <time>2020-02-21T13:56:48Z</time>
      </trkpt>
      <trkpt lat="38.8856450" lon="1.2389190">
        <ele>119.2</ele>
        <time>2020-02-21T13:56:49Z</time>
      </trkpt>
      <trkpt lat="38.8856570" lon="1.2389600">
        <ele>119.2</ele>
        <time>2020-02-21T13:56:50Z</time>
      </trkpt>
      <trkpt lat="38.8856830" lon="1.2389990">
        <ele>119.2</ele>
        <time>2020-02-21T13:56:51Z</time>
      </trkpt>
      <trkpt lat="38.8856860" lon="1.2390380">
        <ele>119.2</ele>
        <time>2020-02-21T13:56:52Z</time>
      </trkpt>
      <trkpt lat="38.8857000" lon="1.2390710">
        <ele>119.3</ele>
        <time>2020-02-21T13:56:53Z</time>
      </trkpt>
      <trkpt lat="38.8857240" lon="1.2391010">
        <ele>119.3</ele>
        <time>2020-02-21T13:56:54Z</time>
      </trkpt>
      <trkpt lat="38.8857510" lon="1.2391330">
        <ele>119.3</ele>
        <time>2020-02-21T13:56:55Z</time>
      </trkpt>
      <trkpt lat="38.8857840" lon="1.2391500">
        <ele>119.3</ele>
        <time>2020-02-21T13:56:56Z</time>
      </trkpt>
      <trkpt lat="38.8858160" lon="1.2391710">
        <ele>119.3</ele>
        <time>2020-02-21T13:56:57Z</time>
      </trkpt>
      <trkpt lat="38.8858470" lon="1.2391950">
        <ele>119.3</ele>
        <time>2020-02-21T13:56:58Z</time>
      </trkpt>
      <trkpt lat="38.8858860" lon="1.2392250">
        <ele>119.3</ele>
        <time>2020-02-21T13:56:59Z</time>
      </trkpt>
      <trkpt lat="38.8859270" lon="1.2392500">
        <ele>119.4</ele>
        <time>2020-02-21T13:57:00Z</time>
      </trkpt>
      <trkpt lat="38.8859490" lon="1.2392580">
        <ele>119.4</ele>
        <time>2020-02-21T13:57:01Z</time>
      </trkpt>
      <trkpt lat="38.8860000" lon="1.2392600">
        <ele>119.4</ele>
        <time>2020-02-21T13:57:02Z</time>
      </trkpt>
      <trkpt lat="38.8860560" lon="1.2392570">
        <ele>119.4</ele>
        <time>2020-02-21T13:57:03Z</time>
      </trkpt>
      <trkpt lat="38.8860980" lon="1.2392280">
        <ele>119.5</ele>
        <time>2020-02-21T13:57:04Z</time>
      </trkpt>
      <trkpt lat="38.8861270" lon="1.2392000">
        <ele>118.1</ele>
        <time>2020-02-21T13:57:05Z</time>
      </trkpt>
      <trkpt lat="38.8861540" lon="1.2391640">
        <ele>117.7</ele>
        <time>2020-02-21T13:57:06Z</time>
      </trkpt>
      <trkpt lat="38.8861870" lon="1.2391180">
        <ele>117.2</ele>
        <time>2020-02-21T13:57:07Z</time>
      </trkpt>
      <trkpt lat="38.8862140" lon="1.2390710">
        <ele>116.8</ele>
        <time>2020-02-21T13:57:08Z</time>
      </trkpt>
      <trkpt lat="38.8862330" lon="1.2390180">
        <ele>116.4</ele>
        <time>2020-02-21T13:57:09Z</time>
      </trkpt>
      <trkpt lat="38.8862600" lon="1.2389580">
        <ele>115.6</ele>
        <time>2020-02-21T13:57:10Z</time>
      </trkpt>
      <trkpt lat="38.8862960" lon="1.2388900">
        <ele>114.7</ele>
        <time>2020-02-21T13:57:11Z</time>
      </trkpt>
      <trkpt lat="38.8863270" lon="1.2388280">
        <ele>114.0</ele>
        <time>2020-02-21T13:57:12Z</time>
      </trkpt>
      <trkpt lat="38.8863550" lon="1.2387680">
        <ele>113.4</ele>
        <time>2020-02-21T13:57:13Z</time>
      </trkpt>
      <trkpt lat="38.8863810" lon="1.2387020">
        <ele>112.7</ele>
        <time>2020-02-21T13:57:14Z</time>
      </trkpt>
      <trkpt lat="38.8864090" lon="1.2386210">
        <ele>111.9</ele>
        <time>2020-02-21T13:57:15Z</time>
      </trkpt>
      <trkpt lat="38.8864380" lon="1.2385430">
        <ele>111.1</ele>
        <time>2020-02-21T13:57:16Z</time>
      </trkpt>
      <trkpt lat="38.8864720" lon="1.2384600">
        <ele>110.5</ele>
        <time>2020-02-21T13:57:17Z</time>
      </trkpt>
      <trkpt lat="38.8865060" lon="1.2383770">
        <ele>109.9</ele>
        <time>2020-02-21T13:57:18Z</time>
      </trkpt>
      <trkpt lat="38.8865420" lon="1.2382860">
        <ele>109.3</ele>
        <time>2020-02-21T13:57:19Z</time>
      </trkpt>
      <trkpt lat="38.8865780" lon="1.2381930">
        <ele>108.3</ele>
        <time>2020-02-21T13:57:20Z</time>
      </trkpt>
      <trkpt lat="38.8866040" lon="1.2381200">
        <ele>107.7</ele>
        <time>2020-02-21T13:57:21Z</time>
      </trkpt>
      <trkpt lat="38.8866360" lon="1.2380480">
        <ele>106.3</ele>
        <time>2020-02-21T13:57:22Z</time>
      </trkpt>
      <trkpt lat="38.8866720" lon="1.2379900">
        <ele>105.5</ele>
        <time>2020-02-21T13:57:23Z</time>
      </trkpt>
      <trkpt lat="38.8867080" lon="1.2379270">
        <ele>104.6</ele>
        <time>2020-02-21T13:57:24Z</time>
      </trkpt>
      <trkpt lat="38.8867460" lon="1.2378580">
        <ele>103.9</ele>
        <time>2020-02-21T13:57:25Z</time>
      </trkpt>
      <trkpt lat="38.8867950" lon="1.2377680">
        <ele>103.1</ele>
        <time>2020-02-21T13:57:26Z</time>
      </trkpt>
      <trkpt lat="38.8868430" lon="1.2376910">
        <ele>102.3</ele>
        <time>2020-02-21T13:57:27Z</time>
      </trkpt>
      <trkpt lat="38.8868880" lon="1.2376160">
        <ele>101.5</ele>
        <time>2020-02-21T13:57:28Z</time>
      </trkpt>
      <trkpt lat="38.8869440" lon="1.2375390">
        <ele>100.7</ele>
        <time>2020-02-21T13:57:29Z</time>
      </trkpt>
      <trkpt lat="38.8870050" lon="1.2374650">
        <ele>99.7</ele>
        <time>2020-02-21T13:57:30Z</time>
      </trkpt>
      <trkpt lat="38.8870610" lon="1.2373890">
        <ele>98.4</ele>
        <time>2020-02-21T13:57:31Z</time>
      </trkpt>
      <trkpt lat="38.8871300" lon="1.2373240">
        <ele>97.1</ele>
        <time>2020-02-21T13:57:32Z</time>
      </trkpt>
      <trkpt lat="38.8871990" lon="1.2372720">
        <ele>96.4</ele>
        <time>2020-02-21T13:57:33Z</time>
      </trkpt>
      <trkpt lat="38.8872750" lon="1.2372300">
        <ele>95.9</ele>
        <time>2020-02-21T13:57:34Z</time>
      </trkpt>
      <trkpt lat="38.8873560" lon="1.2372300">
        <ele>95.4</ele>
        <time>2020-02-21T13:57:35Z</time>
      </trkpt>
      <trkpt lat="38.8874400" lon="1.2372550">
        <ele>94.8</ele>
        <time>2020-02-21T13:57:36Z</time>
      </trkpt>
      <trkpt lat="38.8875240" lon="1.2373010">
        <ele>94.2</ele>
        <time>2020-02-21T13:57:37Z</time>
      </trkpt>
      <trkpt lat="38.8876100" lon="1.2373360">
        <ele>93.6</ele>
        <time>2020-02-21T13:57:38Z</time>
      </trkpt>
      <trkpt lat="38.8876960" lon="1.2373710">
        <ele>92.7</ele>
        <time>2020-02-21T13:57:39Z</time>
      </trkpt>
      <trkpt lat="38.8877810" lon="1.2374140">
        <ele>91.7</ele>
        <time>2020-02-21T13:57:40Z</time>
      </trkpt>
      <trkpt lat="38.8878630" lon="1.2374680">
        <ele>91.1</ele>
        <time>2020-02-21T13:57:41Z</time>
      </trkpt>
      <trkpt lat="38.8879460" lon="1.2375260">
        <ele>90.4</ele>
        <time>2020-02-21T13:57:42Z</time>
      </trkpt>
      <trkpt lat="38.8880090" lon="1.2376150">
        <ele>89.5</ele>
        <time>2020-02-21T13:57:43Z</time>
      </trkpt>
      <trkpt lat="38.8880640" lon="1.2377210">
        <ele>88.4</ele>
        <time>2020-02-21T13:57:44Z</time>
      </trkpt>
      <trkpt lat="38.8881160" lon="1.2378330">
        <ele>87.3</ele>
        <time>2020-02-21T13:57:45Z</time>
      </trkpt>
      <trkpt lat="38.8881570" lon="1.2379510">
        <ele>86.2</ele>
        <time>2020-02-21T13:57:46Z</time>
      </trkpt>
      <trkpt lat="38.8881950" lon="1.2380710">
        <ele>85.2</ele>
        <time>2020-02-21T13:57:47Z</time>
      </trkpt>
      <trkpt lat="38.8882400" lon="1.2381880">
        <ele>84.1</ele>
        <time>2020-02-21T13:57:48Z</time>
      </trkpt>
      <trkpt lat="38.8882800" lon="1.2383080">
        <ele>82.9</ele>
        <time>2020-02-21T13:57:49Z</time>
      </trkpt>
      <trkpt lat="38.8883250" lon="1.2384290">
        <ele>81.6</ele>
        <time>2020-02-21T13:57:50Z</time>
      </trkpt>
      <trkpt lat="38.8883730" lon="1.2385500">
        <ele>80.3</ele>
        <time>2020-02-21T13:57:51Z</time>
      </trkpt>
      <trkpt lat="38.8884230" lon="1.2386730">
        <ele>79.3</ele>
        <time>2020-02-21T13:57:52Z</time>
      </trkpt>
      <trkpt lat="38.8884750" lon="1.2387960">
        <ele>78.7</ele>
        <time>2020-02-21T13:57:53Z</time>
      </trkpt>
      <trkpt lat="38.8885250" lon="1.2389160">
        <ele>78.7</ele>
        <time>2020-02-21T13:57:54Z</time>
      </trkpt>
      <trkpt lat="38.8885810" lon="1.2390370">
        <ele>79.4</ele>
        <time>2020-02-21T13:57:55Z</time>
      </trkpt>
      <trkpt lat="38.8886690" lon="1.2391330">
        <ele>80.7</ele>
        <time>2020-02-21T13:57:56Z</time>
      </trkpt>
      <trkpt lat="38.8887790" lon="1.2391970">
        <ele>82.5</ele>
        <time>2020-02-21T13:57:57Z</time>
      </trkpt>
      <trkpt lat="38.8889010" lon="1.2392190">
        <ele>84.5</ele>
        <time>2020-02-21T13:57:58Z</time>
      </trkpt>
      <trkpt lat="38.8890130" lon="1.2391970">
        <ele>86.3</ele>
        <time>2020-02-21T13:57:59Z</time>
      </trkpt>
      <trkpt lat="38.8891140" lon="1.2391650">
        <ele>88.0</ele>
        <time>2020-02-21T13:58:00Z</time>
      </trkpt>
      <trkpt lat="38.8892030" lon="1.2391140">
        <ele>89.4</ele>
        <time>2020-02-21T13:58:01Z</time>
      </trkpt>
      <trkpt lat="38.8892820" lon="1.2390620">
        <ele>91.4</ele>
        <time>2020-02-21T13:58:02Z</time>
      </trkpt>
      <trkpt lat="38.8893460" lon="1.2390050">
        <ele>92.3</ele>
        <time>2020-02-21T13:58:03Z</time>
      </trkpt>
      <trkpt lat="38.8894000" lon="1.2389470">
        <ele>93.1</ele>
        <time>2020-02-21T13:58:04Z</time>
      </trkpt>
      <trkpt lat="38.8894460" lon="1.2389040">
        <ele>93.8</ele>
        <time>2020-02-21T13:58:05Z</time>
      </trkpt>
      <trkpt lat="38.8894840" lon="1.2388690">
        <ele>94.4</ele>
        <time>2020-02-21T13:58:06Z</time>
      </trkpt>
      <trkpt lat="38.8895150" lon="1.2388390">
        <ele>94.8</ele>
        <time>2020-02-21T13:58:07Z</time>
      </trkpt>
      <trkpt lat="38.8895440" lon="1.2388040">
        <ele>95.3</ele>
        <time>2020-02-21T13:58:08Z</time>
      </trkpt>
      <trkpt lat="38.8895720" lon="1.2387930">
        <ele>95.6</ele>
        <time>2020-02-21T13:58:09Z</time>
      </trkpt>
      <trkpt lat="38.8895980" lon="1.2387710">
        <ele>96.0</ele>
        <time>2020-02-21T13:58:10Z</time>
      </trkpt>
      <trkpt lat="38.8896070" lon="1.2387610">
        <ele>96.1</ele>
        <time>2020-02-21T13:58:11Z</time>
      </trkpt>
      <trkpt lat="38.8896390" lon="1.2387320">
        <ele>96.6</ele>
        <time>2020-02-21T13:58:12Z</time>
      </trkpt>
      <trkpt lat="38.8896480" lon="1.2387200">
        <ele>96.8</ele>
        <time>2020-02-21T13:58:13Z</time>
      </trkpt>
      <trkpt lat="38.8896740" lon="1.2386930">
        <ele>97.2</ele>
        <time>2020-02-21T13:58:14Z</time>
      </trkpt>
      <trkpt lat="38.8896830" lon="1.2386870">
        <ele>97.4</ele>
        <time>2020-02-21T13:58:15Z</time>
      </trkpt>
      <trkpt lat="38.8897090" lon="1.2386690">
        <ele>97.7</ele>
        <time>2020-02-21T13:58:16Z</time>
      </trkpt>
      <trkpt lat="38.8897160" lon="1.2386620">
        <ele>97.8</ele>
        <time>2020-02-21T13:58:17Z</time>
      </trkpt>
      <trkpt lat="38.8897330" lon="1.2386530">
        <ele>98.0</ele>
        <time>2020-02-21T13:58:18Z</time>
      </trkpt>
      <trkpt lat="38.8897510" lon="1.2386470">
        <ele>98.2</ele>
        <time>2020-02-21T13:58:19Z</time>
      </trkpt>
      <trkpt lat="38.8897840" lon="1.2386480">
        <ele>98.5</ele>
        <time>2020-02-21T13:58:20Z</time>
      </trkpt>
      <trkpt lat="38.8897940" lon="1.2386570">
        <ele>98.7</ele>
        <time>2020-02-21T13:58:21Z</time>
      </trkpt>
      <trkpt lat="38.8898130" lon="1.2386580">
        <ele>98.9</ele>
        <time>2020-02-21T13:58:22Z</time>
      </trkpt>
      <trkpt lat="38.8898270" lon="1.2386470">
        <ele>99.1</ele>
        <time>2020-02-21T13:58:23Z</time>
      </trkpt>
      <trkpt lat="38.8898450" lon="1.2386410">
        <ele>99.3</ele>
        <time>2020-02-21T13:58:24Z</time>
      </trkpt>
      <trkpt lat="38.8898610" lon="1.2386320">
        <ele>99.5</ele>
        <time>2020-02-21T13:58:25Z</time>
      </trkpt>
      <trkpt lat="38.8898900" lon="1.2386140">
        <ele>99.9</ele>
        <time>2020-02-21T13:58:26Z</time>
      </trkpt>
      <trkpt lat="38.8899010" lon="1.2386080">
        <ele>100.1</ele>
        <time>2020-02-21T13:58:27Z</time>
      </trkpt>
      <trkpt lat="38.8899240" lon="1.2386090">
        <ele>100.4</ele>
        <time>2020-02-21T13:58:28Z</time>
      </trkpt>
      <trkpt lat="38.8899340" lon="1.2386130">
        <ele>100.5</ele>
        <time>2020-02-21T13:58:29Z</time>
      </trkpt>
      <trkpt lat="38.8899430" lon="1.2386180">
        <ele>100.6</ele>
        <time>2020-02-21T13:58:30Z</time>
      </trkpt>
      <trkpt lat="38.8899590" lon="1.2386210">
        <ele>100.8</ele>
        <time>2020-02-21T13:58:31Z</time>
      </trkpt>
      <trkpt lat="38.8899770" lon="1.2386250">
        <ele>101.0</ele>
        <time>2020-02-21T13:58:32Z</time>
      </trkpt>
      <trkpt lat="38.8900040" lon="1.2386290">
        <ele>101.3</ele>
        <time>2020-02-21T13:58:33Z</time>
      </trkpt>
      <trkpt lat="38.8900140" lon="1.2386260">
        <ele>101.5</ele>
        <time>2020-02-21T13:58:34Z</time>
      </trkpt>
      <trkpt lat="38.8900280" lon="1.2386250">
        <ele>101.6</ele>
        <time>2020-02-21T13:58:35Z</time>
      </trkpt>
      <trkpt lat="38.8900410" lon="1.2386320">
        <ele>101.8</ele>
        <time>2020-02-21T13:58:36Z</time>
      </trkpt>
      <trkpt lat="38.8900520" lon="1.2386480">
        <ele>102.0</ele>
        <time>2020-02-21T13:58:37Z</time>
      </trkpt>
      <trkpt lat="38.8900690" lon="1.2386470">
        <ele>102.2</ele>
        <time>2020-02-21T13:58:38Z</time>
      </trkpt>
      <trkpt lat="38.8901050" lon="1.2386350">
        <ele>102.6</ele>
        <time>2020-02-21T13:58:39Z</time>
      </trkpt>
      <trkpt lat="38.8901160" lon="1.2386310">
        <ele>102.8</ele>
        <time>2020-02-21T13:58:40Z</time>
      </trkpt>
      <trkpt lat="38.8901310" lon="1.2386230">
        <ele>103.0</ele>
        <time>2020-02-21T13:58:41Z</time>
      </trkpt>
      <trkpt lat="38.8901470" lon="1.2386300">
        <ele>103.1</ele>
        <time>2020-02-21T13:58:42Z</time>
      </trkpt>
      <trkpt lat="38.8901610" lon="1.2386460">
        <ele>103.3</ele>
        <time>2020-02-21T13:58:43Z</time>
      </trkpt>
      <trkpt lat="38.8901760" lon="1.2386490">
        <ele>103.5</ele>
        <time>2020-02-21T13:58:44Z</time>
      </trkpt>
      <trkpt lat="38.8901880" lon="1.2386580">
        <ele>103.6</ele>
        <time>2020-02-21T13:58:45Z</time>
      </trkpt>
      <trkpt lat="38.8902020" lon="1.2386790">
        <ele>103.8</ele>
        <time>2020-02-21T13:58:46Z</time>
      </trkpt>
      <trkpt lat="38.8902300" lon="1.2386850">
        <ele>104.1</ele>
        <time>2020-02-21T13:58:47Z</time>
      </trkpt>
      <trkpt lat="38.8902380" lon="1.2386830">
        <ele>104.2</ele>
        <time>2020-02-21T13:58:48Z</time>
      </trkpt>
      <trkpt lat="38.8902660" lon="1.2386910">
        <ele>104.5</ele>
        <time>2020-02-21T13:58:49Z</time>
      </trkpt>
      <trkpt lat="38.8902740" lon="1.2386960">
        <ele>104.6</ele>
        <time>2020-02-21T13:58:50Z</time>
      </trkpt>
      <trkpt lat="38.8902870" lon="1.2387020">
        <ele>104.7</ele>
        <time>2020-02-21T13:58:51Z</time>
      </trkpt>
      <trkpt lat="38.8903000" lon="1.2387130">
        <ele>104.9</ele>
        <time>2020-02-21T13:58:52Z</time>
      </trkpt>
      <trkpt lat="38.8903130" lon="1.2387260">
        <ele>105.0</ele>
        <time>2020-02-21T13:58:53Z</time>
      </trkpt>
      <trkpt lat="38.8903280" lon="1.2387340">
        <ele>105.1</ele>
        <time>2020-02-21T13:58:54Z</time>
      </trkpt>
      <trkpt lat="38.8903430" lon="1.2387400">
        <ele>105.3</ele>
        <time>2020-02-21T13:58:55Z</time>
      </trkpt>
      <trkpt lat="38.8903550" lon="1.2387480">
        <ele>105.4</ele>
        <time>2020-02-21T13:58:56Z</time>
      </trkpt>
      <trkpt lat="38.8903810" lon="1.2387610">
        <ele>105.6</ele>
        <time>2020-02-21T13:58:57Z</time>
      </trkpt>
      <trkpt lat="38.8903910" lon="1.2387650">
        <ele>105.7</ele>
        <time>2020-02-21T13:58:58Z</time>
      </trkpt>
      <trkpt lat="38.8904220" lon="1.2387720">
        <ele>106.0</ele>
        <time>2020-02-21T13:58:59Z</time>
      </trkpt>
      <trkpt lat="38.8904330" lon="1.2387710">
        <ele>106.1</ele>
        <time>2020-02-21T13:59:00Z</time>
      </trkpt>
      <trkpt lat="38.8904500" lon="1.2387700">
        <ele>106.2</ele>
        <time>2020-02-21T13:59:01Z</time>
      </trkpt>
      <trkpt lat="38.8904640" lon="1.2387710">
        <ele>106.3</ele>
        <time>2020-02-21T13:59:02Z</time>
      </trkpt>
      <trkpt lat="38.8904780" lon="1.2387760">
        <ele>106.4</ele>
        <time>2020-02-21T13:59:03Z</time>
      </trkpt>
      <trkpt lat="38.8904980" lon="1.2387790">
        <ele>106.5</ele>
        <time>2020-02-21T13:59:04Z</time>
      </trkpt>
      <trkpt lat="38.8905290" lon="1.2387840">
        <ele>106.7</ele>
        <time>2020-02-21T13:59:05Z</time>
      </trkpt>
      <trkpt lat="38.8905390" lon="1.2387850">
        <ele>106.8</ele>
        <time>2020-02-21T13:59:06Z</time>
      </trkpt>
      <trkpt lat="38.8905540" lon="1.2387900">
        <ele>106.9</ele>
        <time>2020-02-21T13:59:07Z</time>
      </trkpt>
      <trkpt lat="38.8905710" lon="1.2387960">
        <ele>107.0</ele>
        <time>2020-02-21T13:59:08Z</time>
      </trkpt>
      <trkpt lat="38.8906000" lon="1.2388060">
        <ele>107.1</ele>
        <time>2020-02-21T13:59:09Z</time>
      </trkpt>
      <trkpt lat="38.8906100" lon="1.2388100">
        <ele>107.2</ele>
        <time>2020-02-21T13:59:10Z</time>
      </trkpt>
      <trkpt lat="38.8906350" lon="1.2388330">
        <ele>107.3</ele>
        <time>2020-02-21T13:59:11Z</time>
      </trkpt>
      <trkpt lat="38.8906430" lon="1.2388400">
        <ele>107.3</ele>
        <time>2020-02-21T13:59:12Z</time>
      </trkpt>
      <trkpt lat="38.8906730" lon="1.2388460">
        <ele>107.4</ele>
        <time>2020-02-21T13:59:13Z</time>
      </trkpt>
      <trkpt lat="38.8906820" lon="1.2388480">
        <ele>107.4</ele>
        <time>2020-02-21T13:59:14Z</time>
      </trkpt>
      <trkpt lat="38.8907000" lon="1.2388530">
        <ele>107.5</ele>
        <time>2020-02-21T13:59:15Z</time>
      </trkpt>
      <trkpt lat="38.8907180" lon="1.2388580">
        <ele>107.5</ele>
        <time>2020-02-21T13:59:16Z</time>
      </trkpt>
      <trkpt lat="38.8907450" lon="1.2388660">
        <ele>107.6</ele>
        <time>2020-02-21T13:59:17Z</time>
      </trkpt>
      <trkpt lat="38.8907540" lon="1.2388660">
        <ele>107.6</ele>
        <time>2020-02-21T13:59:18Z</time>
      </trkpt>
      <trkpt lat="38.8907710" lon="1.2388670">
        <ele>107.7</ele>
        <time>2020-02-21T13:59:19Z</time>
      </trkpt>
      <trkpt lat="38.8907890" lon="1.2388760">
        <ele>107.7</ele>
        <time>2020-02-21T13:59:20Z</time>
      </trkpt>
      <trkpt lat="38.8908240" lon="1.2388810">
        <ele>107.8</ele>
        <time>2020-02-21T13:59:21Z</time>
      </trkpt>
      <trkpt lat="38.8908340" lon="1.2388840">
        <ele>107.9</ele>
        <time>2020-02-21T13:59:22Z</time>
      </trkpt>
      <trkpt lat="38.8908650" lon="1.2388850">
        <ele>108.0</ele>
        <time>2020-02-21T13:59:23Z</time>
      </trkpt>
      <trkpt lat="38.8908770" lon="1.2388860">
        <ele>108.0</ele>
        <time>2020-02-21T13:59:24Z</time>
      </trkpt>
      <trkpt lat="38.8909140" lon="1.2388830">
        <ele>108.1</ele>
        <time>2020-02-21T13:59:25Z</time>
      </trkpt>
      <trkpt lat="38.8909250" lon="1.2388810">
        <ele>108.1</ele>
        <time>2020-02-21T13:59:26Z</time>
      </trkpt>
      <trkpt lat="38.8909630" lon="1.2388770">
        <ele>108.3</ele>
        <time>2020-02-21T13:59:27Z</time>
      </trkpt>
      <trkpt lat="38.8909760" lon="1.2388730">
        <ele>108.3</ele>
        <time>2020-02-21T13:59:28Z</time>
      </trkpt>
      <trkpt lat="38.8909890" lon="1.2388720">
        <ele>108.3</ele>
        <time>2020-02-21T13:59:29Z</time>
      </trkpt>
      <trkpt lat="38.8910090" lon="1.2388750">
        <ele>108.4</ele>
        <time>2020-02-21T13:59:30Z</time>
      </trkpt>
      <trkpt lat="38.8910380" lon="1.2388770">
        <ele>108.5</ele>
        <time>2020-02-21T13:59:31Z</time>
      </trkpt>
      <trkpt lat="38.8910720" lon="1.2388760">
        <ele>108.5</ele>
        <time>2020-02-21T13:59:32Z</time>
      </trkpt>
      <trkpt lat="38.8910830" lon="1.2388770">
        <ele>108.6</ele>
        <time>2020-02-21T13:59:33Z</time>
      </trkpt>
      <trkpt lat="38.8911110" lon="1.2388710">
        <ele>108.7</ele>
        <time>2020-02-21T13:59:34Z</time>
      </trkpt>
      <trkpt lat="38.8911520" lon="1.2388750">
        <ele>108.8</ele>
        <time>2020-02-21T13:59:35Z</time>
      </trkpt>
      <trkpt lat="38.8911680" lon="1.2388780">
        <ele>108.8</ele>
        <time>2020-02-21T13:59:36Z</time>
      </trkpt>
      <trkpt lat="38.8912030" lon="1.2388750">
        <ele>108.9</ele>
        <time>2020-02-21T13:59:37Z</time>
      </trkpt>
      <trkpt lat="38.8912420" lon="1.2388690">
        <ele>109.0</ele>
        <time>2020-02-21T13:59:38Z</time>
      </trkpt>
      <trkpt lat="38.8912730" lon="1.2388680">
        <ele>109.1</ele>
        <time>2020-02-21T13:59:39Z</time>
      </trkpt>
      <trkpt lat="38.8913070" lon="1.2388630">
        <ele>109.2</ele>
        <time>2020-02-21T13:59:40Z</time>
      </trkpt>
      <trkpt lat="38.8913380" lon="1.2388560">
        <ele>109.3</ele>
        <time>2020-02-21T13:59:41Z</time>
      </trkpt>
      <trkpt lat="38.8913710" lon="1.2388390">
        <ele>109.3</ele>
        <time>2020-02-21T13:59:42Z</time>
      </trkpt>
      <trkpt lat="38.8914000" lon="1.2388320">
        <ele>109.4</ele>
        <time>2020-02-21T13:59:43Z</time>
      </trkpt>
      <trkpt lat="38.8914290" lon="1.2388290">
        <ele>109.4</ele>
        <time>2020-02-21T13:59:44Z</time>
      </trkpt>
      <trkpt lat="38.8914590" lon="1.2388360">
        <ele>109.5</ele>
        <time>2020-02-21T13:59:45Z</time>
      </trkpt>
      <trkpt lat="38.8914990" lon="1.2388230">
        <ele>109.5</ele>
        <time>2020-02-21T13:59:46Z</time>
      </trkpt>
      <trkpt lat="38.8915130" lon="1.2388180">
        <ele>109.5</ele>
        <time>2020-02-21T13:59:47Z</time>
      </trkpt>
      <trkpt lat="38.8915480" lon="1.2388130">
        <ele>109.5</ele>
        <time>2020-02-21T13:59:48Z</time>
      </trkpt>
      <trkpt lat="38.8915840" lon="1.2388060">
        <ele>109.5</ele>
        <time>2020-02-21T13:59:49Z</time>
      </trkpt>
      <trkpt lat="38.8916150" lon="1.2388050">
        <ele>109.5</ele>
        <time>2020-02-21T13:59:50Z</time>
      </trkpt>
      <trkpt lat="38.8916470" lon="1.2387990">
        <ele>109.5</ele>
        <time>2020-02-21T13:59:51Z</time>
      </trkpt>
      <trkpt lat="38.8916800" lon="1.2388000">
        <ele>109.5</ele>
        <time>2020-02-21T13:59:52Z</time>
      </trkpt>
      <trkpt lat="38.8917130" lon="1.2387980">
        <ele>109.5</ele>
        <time>2020-02-21T13:59:53Z</time>
      </trkpt>
      <trkpt lat="38.8917460" lon="1.2387910">
        <ele>109.6</ele>
        <time>2020-02-21T13:59:54Z</time>
      </trkpt>
      <trkpt lat="38.8917740" lon="1.2387860">
        <ele>109.6</ele>
        <time>2020-02-21T13:59:55Z</time>
      </trkpt>
      <trkpt lat="38.8918070" lon="1.2387800">
        <ele>109.6</ele>
        <time>2020-02-21T13:59:56Z</time>
      </trkpt>
      <trkpt lat="38.8918340" lon="1.2387720">
        <ele>109.6</ele>
        <time>2020-02-21T13:59:57Z</time>
      </trkpt>
      <trkpt lat="38.8918660" lon="1.2387620">
        <ele>109.6</ele>
        <time>2020-02-21T13:59:58Z</time>
      </trkpt>
      <trkpt lat="38.8918950" lon="1.2387530">
        <ele>109.6</ele>
        <time>2020-02-21T13:59:59Z</time>
      </trkpt>
      <trkpt lat="38.8919300" lon="1.2387380">
        <ele>109.6</ele>
        <time>2020-02-21T14:00:00Z</time>
      </trkpt>
      <trkpt lat="38.8919670" lon="1.2387160">
        <ele>109.6</ele>
        <time>2020-02-21T14:00:01Z</time>
      </trkpt>
      <trkpt lat="38.8920040" lon="1.2386960">
        <ele>109.6</ele>
        <time>2020-02-21T14:00:02Z</time>
      </trkpt>
      <trkpt lat="38.8920440" lon="1.2386870">
        <ele>109.6</ele>
        <time>2020-02-21T14:00:03Z</time>
      </trkpt>
      <trkpt lat="38.8920830" lon="1.2386730">
        <ele>109.6</ele>
        <time>2020-02-21T14:00:04Z</time>
      </trkpt>
      <trkpt lat="38.8921290" lon="1.2386450">
        <ele>109.6</ele>
        <time>2020-02-21T14:00:05Z</time>
      </trkpt>
      <trkpt lat="38.8921730" lon="1.2386190">
        <ele>109.6</ele>
        <time>2020-02-21T14:00:06Z</time>
      </trkpt>
      <trkpt lat="38.8922100" lon="1.2385930">
        <ele>109.7</ele>
        <time>2020-02-21T14:00:07Z</time>
      </trkpt>
      <trkpt lat="38.8922450" lon="1.2385700">
        <ele>109.8</ele>
        <time>2020-02-21T14:00:08Z</time>
      </trkpt>
      <trkpt lat="38.8922830" lon="1.2385400">
        <ele>109.8</ele>
        <time>2020-02-21T14:00:09Z</time>
      </trkpt>
      <trkpt lat="38.8923220" lon="1.2385100">
        <ele>109.9</ele>
        <time>2020-02-21T14:00:10Z</time>
      </trkpt>
      <trkpt lat="38.8923640" lon="1.2384800">
        <ele>109.9</ele>
        <time>2020-02-21T14:00:11Z</time>
      </trkpt>
      <trkpt lat="38.8924060" lon="1.2384550">
        <ele>110.0</ele>
        <time>2020-02-21T14:00:12Z</time>
      </trkpt>
      <trkpt lat="38.8924520" lon="1.2384310">
        <ele>110.0</ele>
        <time>2020-02-21T14:00:13Z</time>
      </trkpt>
      <trkpt lat="38.8924970" lon="1.2384150">
        <ele>110.0</ele>
        <time>2020-02-21T14:00:14Z</time>
      </trkpt>
      <trkpt lat="38.8925410" lon="1.2383970">
        <ele>110.1</ele>
        <time>2020-02-21T14:00:15Z</time>
      </trkpt>
      <trkpt lat="38.8925870" lon="1.2383570">
        <ele>110.1</ele>
        <time>2020-02-21T14:00:16Z</time>
      </trkpt>
      <trkpt lat="38.8926270" lon="1.2383310">
        <ele>110.1</ele>
        <time>2020-02-21T14:00:17Z</time>
      </trkpt>
      <trkpt lat="38.8926430" lon="1.2382980">
        <ele>110.2</ele>
        <time>2020-02-21T14:00:18Z</time>
      </trkpt>
      <trkpt lat="38.8926370" lon="1.2382550">
        <ele>110.2</ele>
        <time>2020-02-21T14:00:19Z</time>
      </trkpt>
      <trkpt lat="38.8926340" lon="1.2382450">
        <ele>110.2</ele>
        <time>2020-02-21T14:00:20Z</time>
      </trkpt>
      <trkpt lat="38.8926300" lon="1.2382480">
        <ele>110.2</ele>
        <time>2020-02-21T14:00:21Z</time>
      </trkpt>
      <trkpt lat="38.8926330" lon="1.2382450">
        <ele>110.2</ele>
        <time>2020-02-21T14:00:22Z</time>
      </trkpt>
      <trkpt lat="38.8926340" lon="1.2382270">
        <ele>110.2</ele>
        <time>2020-02-21T14:00:23Z</time>
      </trkpt>
      <trkpt lat="38.8926200" lon="1.2382120">
        <ele>110.2</ele>
        <time>2020-02-21T14:00:24Z</time>
      </trkpt>
      <trkpt lat="38.8926110" lon="1.2382020">
        <ele>110.2</ele>
        <time>2020-02-21T14:00:25Z</time>
      </trkpt>
      <trkpt lat="38.8926080" lon="1.2381980">
        <ele>110.2</ele>
        <time>2020-02-21T14:00:26Z</time>
      </trkpt>
      <trkpt lat="38.8926060" lon="1.2381980">
        <ele>110.2</ele>
        <time>2020-02-21T14:00:27Z</time>
      </trkpt>
      <trkpt lat="38.8925990" lon="1.2382090">
        <ele>110.2</ele>
        <time>2020-02-21T14:00:28Z</time>
      </trkpt>
      <trkpt lat="38.8925900" lon="1.2382100">
        <ele>110.2</ele>
        <time>2020-02-21T14:00:29Z</time>
      </trkpt>
      <trkpt lat="38.8925830" lon="1.2382140">
        <ele>110.2</ele>
        <time>2020-02-21T14:00:30Z</time>
      </trkpt>
      <trkpt lat="38.8925750" lon="1.2382260">
        <ele>110.3</ele>
        <time>2020-02-21T14:00:31Z</time>
      </trkpt>
      <trkpt lat="38.8925640" lon="1.2382300">
        <ele>110.3</ele>
        <time>2020-02-21T14:00:32Z</time>
      </trkpt>
      <trkpt lat="38.8925970" lon="1.2382250">
        <ele>110.3</ele>
        <time>2020-02-21T14:00:33Z</time>
      </trkpt>
      <trkpt lat="38.8926330" lon="1.2382240">
        <ele>110.3</ele>
        <time>2020-02-21T14:02:01Z</time>
      </trkpt>
      <trkpt lat="38.8926690" lon="1.2382220">
        <ele>110.3</ele>
        <time>2020-02-21T14:02:02Z</time>
      </trkpt>
      <trkpt lat="38.8927260" lon="1.2382030">
        <ele>110.4</ele>
        <time>2020-02-21T14:02:03Z</time>
      </trkpt>
      <trkpt lat="38.8927660" lon="1.2381820">
        <ele>110.7</ele>
        <time>2020-02-21T14:02:04Z</time>
      </trkpt>
      <trkpt lat="38.8928070" lon="1.2381520">
        <ele>110.9</ele>
        <time>2020-02-21T14:02:05Z</time>
      </trkpt>
      <trkpt lat="38.8928540" lon="1.2381180">
        <ele>111.1</ele>
        <time>2020-02-21T14:02:06Z</time>
      </trkpt>
      <trkpt lat="38.8928970" lon="1.2380880">
        <ele>111.3</ele>
        <time>2020-02-21T14:02:07Z</time>
      </trkpt>
      <trkpt lat="38.8929370" lon="1.2380570">
        <ele>111.4</ele>
        <time>2020-02-21T14:02:08Z</time>
      </trkpt>
      <trkpt lat="38.8929780" lon="1.2380270">
        <ele>111.6</ele>
        <time>2020-02-21T14:02:09Z</time>
      </trkpt>
      <trkpt lat="38.8930160" lon="1.2379920">
        <ele>111.8</ele>
        <time>2020-02-21T14:02:10Z</time>
      </trkpt>
      <trkpt lat="38.8930550" lon="1.2379440">
        <ele>112.0</ele>
        <time>2020-02-21T14:02:11Z</time>
      </trkpt>
      <trkpt lat="38.8930940" lon="1.2378920">
        <ele>112.3</ele>
        <time>2020-02-21T14:02:12Z</time>
      </trkpt>
      <trkpt lat="38.8931220" lon="1.2378460">
        <ele>112.3</ele>
        <time>2020-02-21T14:02:13Z</time>
      </trkpt>
      <trkpt lat="38.8931370" lon="1.2378010">
        <ele>112.3</ele>
        <time>2020-02-21T14:02:14Z</time>
      </trkpt>
      <trkpt lat="38.8931600" lon="1.2377530">
        <ele>112.3</ele>
        <time>2020-02-21T14:02:15Z</time>
      </trkpt>
      <trkpt lat="38.8931820" lon="1.2377080">
        <ele>112.4</ele>
        <time>2020-02-21T14:02:16Z</time>
      </trkpt>
      <trkpt lat="38.8931960" lon="1.2376750">
        <ele>112.4</ele>
        <time>2020-02-21T14:02:17Z</time>
      </trkpt>
      <trkpt lat="38.8931990" lon="1.2376180">
        <ele>112.4</ele>
        <time>2020-02-21T14:02:18Z</time>
      </trkpt>
      <trkpt lat="38.8932000" lon="1.2375550">
        <ele>112.4</ele>
        <time>2020-02-21T14:02:19Z</time>
      </trkpt>
      <trkpt lat="38.8931990" lon="1.2375000">
        <ele>112.5</ele>
        <time>2020-02-21T14:02:20Z</time>
      </trkpt>
      <trkpt lat="38.8932060" lon="1.2374400">
        <ele>112.5</ele>
        <time>2020-02-21T14:02:21Z</time>
      </trkpt>
      <trkpt lat="38.8932130" lon="1.2373900">
        <ele>112.5</ele>
        <time>2020-02-21T14:02:22Z</time>
      </trkpt>
      <trkpt lat="38.8932200" lon="1.2373430">
        <ele>112.5</ele>
        <time>2020-02-21T14:02:23Z</time>
      </trkpt>
      <trkpt lat="38.8932230" lon="1.2372810">
        <ele>112.5</ele>
        <time>2020-02-21T14:02:24Z</time>
      </trkpt>
      <trkpt lat="38.8932320" lon="1.2372280">
        <ele>112.6</ele>
        <time>2020-02-21T14:02:25Z</time>
      </trkpt>
      <trkpt lat="38.8932420" lon="1.2371760">
        <ele>112.6</ele>
        <time>2020-02-21T14:02:26Z</time>
      </trkpt>
      <trkpt lat="38.8932530" lon="1.2371250">
        <ele>112.6</ele>
        <time>2020-02-21T14:02:27Z</time>
      </trkpt>
      <trkpt lat="38.8932670" lon="1.2370760">
        <ele>112.6</ele>
        <time>2020-02-21T14:02:28Z</time>
      </trkpt>
      <trkpt lat="38.8932780" lon="1.2370270">
        <ele>112.7</ele>
        <time>2020-02-21T14:02:29Z</time>
      </trkpt>
      <trkpt lat="38.8932800" lon="1.2369870">
        <ele>112.6</ele>
        <time>2020-02-21T14:02:30Z</time>
      </trkpt>
      <trkpt lat="38.8932960" lon="1.2369280">
        <ele>112.5</ele>
        <time>2020-02-21T14:02:31Z</time>
      </trkpt>
      <trkpt lat="38.8932940" lon="1.2368760">
        <ele>112.3</ele>
        <time>2020-02-21T14:02:32Z</time>
      </trkpt>
      <trkpt lat="38.8933010" lon="1.2368170">
        <ele>112.2</ele>
        <time>2020-02-21T14:02:33Z</time>
      </trkpt>
      <trkpt lat="38.8933010" lon="1.2367450">
        <ele>112.1</ele>
        <time>2020-02-21T14:02:34Z</time>
      </trkpt>
      <trkpt lat="38.8932990" lon="1.2366840">
        <ele>111.9</ele>
        <time>2020-02-21T14:02:35Z</time>
      </trkpt>
      <trkpt lat="38.8933070" lon="1.2366350">
        <ele>111.9</ele>
        <time>2020-02-21T14:02:36Z</time>
      </trkpt>
      <trkpt lat="38.8933080" lon="1.2365850">
        <ele>111.8</ele>
        <time>2020-02-21T14:02:37Z</time>
      </trkpt>
      <trkpt lat="38.8933140" lon="1.2365370">
        <ele>111.7</ele>
        <time>2020-02-21T14:02:38Z</time>
      </trkpt>
      <trkpt lat="38.8933270" lon="1.2364730">
        <ele>111.7</ele>
        <time>2020-02-21T14:02:39Z</time>
      </trkpt>
      <trkpt lat="38.8933310" lon="1.2364230">
        <ele>111.7</ele>
        <time>2020-02-21T14:02:40Z</time>
      </trkpt>
      <trkpt lat="38.8933370" lon="1.2363680">
        <ele>111.7</ele>
        <time>2020-02-21T14:02:41Z</time>
      </trkpt>
      <trkpt lat="38.8933430" lon="1.2363100">
        <ele>111.6</ele>
        <time>2020-02-21T14:02:42Z</time>
      </trkpt>
      <trkpt lat="38.8933610" lon="1.2362600">
        <ele>111.6</ele>
        <time>2020-02-21T14:02:43Z</time>
      </trkpt>
      <trkpt lat="38.8933750" lon="1.2362080">
        <ele>111.5</ele>
        <time>2020-02-21T14:02:44Z</time>
      </trkpt>
      <trkpt lat="38.8933900" lon="1.2361560">
        <ele>111.4</ele>
        <time>2020-02-21T14:02:45Z</time>
      </trkpt>
      <trkpt lat="38.8934050" lon="1.2361000">
        <ele>111.2</ele>
        <time>2020-02-21T14:02:46Z</time>
      </trkpt>
      <trkpt lat="38.8934180" lon="1.2360450">
        <ele>111.1</ele>
        <time>2020-02-21T14:02:47Z</time>
      </trkpt>
      <trkpt lat="38.8934350" lon="1.2359960">
        <ele>111.0</ele>
        <time>2020-02-21T14:02:48Z</time>
      </trkpt>
      <trkpt lat="38.8934630" lon="1.2359420">
        <ele>110.9</ele>
        <time>2020-02-21T14:02:49Z</time>
      </trkpt>
      <trkpt lat="38.8934950" lon="1.2358930">
        <ele>110.8</ele>
        <time>2020-02-21T14:02:50Z</time>
      </trkpt>
      <trkpt lat="38.8935140" lon="1.2358420">
        <ele>110.7</ele>
        <time>2020-02-21T14:02:51Z</time>
      </trkpt>
      <trkpt lat="38.8935460" lon="1.2357950">
        <ele>110.6</ele>
        <time>2020-02-21T14:02:52Z</time>
      </trkpt>
      <trkpt lat="38.8935700" lon="1.2357460">
        <ele>110.5</ele>
        <time>2020-02-21T14:02:53Z</time>
      </trkpt>
      <trkpt lat="38.8935990" lon="1.2357070">
        <ele>110.4</ele>
        <time>2020-02-21T14:02:54Z</time>
      </trkpt>
      <trkpt lat="38.8936430" lon="1.2356500">
        <ele>110.3</ele>
        <time>2020-02-21T14:02:55Z</time>
      </trkpt>
      <trkpt lat="38.8936740" lon="1.2356190">
        <ele>110.1</ele>
        <time>2020-02-21T14:02:56Z</time>
      </trkpt>
      <trkpt lat="38.8937100" lon="1.2355820">
        <ele>110.0</ele>
        <time>2020-02-21T14:02:57Z</time>
      </trkpt>
      <trkpt lat="38.8937390" lon="1.2355480">
        <ele>109.9</ele>
        <time>2020-02-21T14:02:58Z</time>
      </trkpt>
      <trkpt lat="38.8937770" lon="1.2355130">
        <ele>109.7</ele>
        <time>2020-02-21T14:02:59Z</time>
      </trkpt>
      <trkpt lat="38.8938120" lon="1.2354860">
        <ele>109.6</ele>
        <time>2020-02-21T14:03:00Z</time>
      </trkpt>
      <trkpt lat="38.8938580" lon="1.2354520">
        <ele>109.4</ele>
        <time>2020-02-21T14:03:01Z</time>
      </trkpt>
      <trkpt lat="38.8939050" lon="1.2354250">
        <ele>109.2</ele>
        <time>2020-02-21T14:03:02Z</time>
      </trkpt>
      <trkpt lat="38.8939520" lon="1.2354040">
        <ele>109.0</ele>
        <time>2020-02-21T14:03:03Z</time>
      </trkpt>
      <trkpt lat="38.8939950" lon="1.2353730">
        <ele>108.8</ele>
        <time>2020-02-21T14:03:04Z</time>
      </trkpt>
      <trkpt lat="38.8940430" lon="1.2353470">
        <ele>108.6</ele>
        <time>2020-02-21T14:03:05Z</time>
      </trkpt>
      <trkpt lat="38.8940930" lon="1.2353340">
        <ele>108.5</ele>
        <time>2020-02-21T14:03:06Z</time>
      </trkpt>
      <trkpt lat="38.8941490" lon="1.2353410">
        <ele>108.3</ele>
        <time>2020-02-21T14:03:07Z</time>
      </trkpt>
      <trkpt lat="38.8942050" lon="1.2353540">
        <ele>108.1</ele>
        <time>2020-02-21T14:03:08Z</time>
      </trkpt>
      <trkpt lat="38.8942530" lon="1.2353540">
        <ele>107.9</ele>
        <time>2020-02-21T14:03:09Z</time>
      </trkpt>
      <trkpt lat="38.8943180" lon="1.2353530">
        <ele>107.6</ele>
        <time>2020-02-21T14:03:10Z</time>
      </trkpt>
      <trkpt lat="38.8943780" lon="1.2353570">
        <ele>107.4</ele>
        <time>2020-02-21T14:03:11Z</time>
      </trkpt>
      <trkpt lat="38.8944330" lon="1.2353650">
        <ele>107.2</ele>
        <time>2020-02-21T14:03:12Z</time>
      </trkpt>
      <trkpt lat="38.8944900" lon="1.2353690">
        <ele>107.0</ele>
        <time>2020-02-21T14:03:13Z</time>
      </trkpt>
      <trkpt lat="38.8945510" lon="1.2353630">
        <ele>106.8</ele>
        <time>2020-02-21T14:03:14Z</time>
      </trkpt>
      <trkpt lat="38.8946070" lon="1.2353660">
        <ele>106.6</ele>
        <time>2020-02-21T14:03:15Z</time>
      </trkpt>
      <trkpt lat="38.8946620" lon="1.2353720">
        <ele>106.4</ele>
        <time>2020-02-21T14:03:16Z</time>
      </trkpt>
      <trkpt lat="38.8947130" lon="1.2353930">
        <ele>106.3</ele>
        <time>2020-02-21T14:03:17Z</time>
      </trkpt>
      <trkpt lat="38.8947800" lon="1.2354100">
        <ele>106.0</ele>
        <time>2020-02-21T14:03:18Z</time>
      </trkpt>
      <trkpt lat="38.8948460" lon="1.2354250">
        <ele>105.7</ele>
        <time>2020-02-21T14:03:19Z</time>
      </trkpt>
      <trkpt lat="38.8949090" lon="1.2354390">
        <ele>105.5</ele>
        <time>2020-02-21T14:03:20Z</time>
      </trkpt>
      <trkpt lat="38.8949670" lon="1.2354460">
        <ele>105.2</ele>
        <time>2020-02-21T14:03:21Z</time>
      </trkpt>
      <trkpt lat="38.8950260" lon="1.2354530">
        <ele>105.0</ele>
        <time>2020-02-21T14:03:22Z</time>
      </trkpt>
      <trkpt lat="38.8950840" lon="1.2354620">
        <ele>104.8</ele>
        <time>2020-02-21T14:03:23Z</time>
      </trkpt>
      <trkpt lat="38.8951540" lon="1.2354690">
        <ele>104.5</ele>
        <time>2020-02-21T14:03:24Z</time>
      </trkpt>
      <trkpt lat="38.8952120" lon="1.2354650">
        <ele>104.3</ele>
        <time>2020-02-21T14:03:25Z</time>
      </trkpt>
      <trkpt lat="38.8952710" lon="1.2354740">
        <ele>104.1</ele>
        <time>2020-02-21T14:03:26Z</time>
      </trkpt>
      <trkpt lat="38.8953280" lon="1.2354850">
        <ele>103.9</ele>
        <time>2020-02-21T14:03:27Z</time>
      </trkpt>
      <trkpt lat="38.8953880" lon="1.2354910">
        <ele>103.7</ele>
        <time>2020-02-21T14:03:28Z</time>
      </trkpt>
      <trkpt lat="38.8954450" lon="1.2354930">
        <ele>103.6</ele>
        <time>2020-02-21T14:03:29Z</time>
      </trkpt>
      <trkpt lat="38.8954960" lon="1.2354860">
        <ele>103.5</ele>
        <time>2020-02-21T14:03:30Z</time>
      </trkpt>
      <trkpt lat="38.8955510" lon="1.2354800">
        <ele>103.4</ele>
        <time>2020-02-21T14:03:31Z</time>
      </trkpt>
      <trkpt lat="38.8956140" lon="1.2354700">
        <ele>103.2</ele>
        <time>2020-02-21T14:03:32Z</time>
      </trkpt>
      <trkpt lat="38.8956800" lon="1.2354690">
        <ele>102.9</ele>
        <time>2020-02-21T14:03:33Z</time>
      </trkpt>
      <trkpt lat="38.8957460" lon="1.2354600">
        <ele>102.4</ele>
        <time>2020-02-21T14:03:34Z</time>
      </trkpt>
      <trkpt lat="38.8958220" lon="1.2354550">
        <ele>102.0</ele>
        <time>2020-02-21T14:03:35Z</time>
      </trkpt>
      <trkpt lat="38.8958910" lon="1.2354530">
        <ele>101.6</ele>
        <time>2020-02-21T14:03:36Z</time>
      </trkpt>
      <trkpt lat="38.8959480" lon="1.2354370">
        <ele>101.2</ele>
        <time>2020-02-21T14:03:37Z</time>
      </trkpt>
      <trkpt lat="38.8960140" lon="1.2354280">
        <ele>100.8</ele>
        <time>2020-02-21T14:03:38Z</time>
      </trkpt>
      <trkpt lat="38.8960840" lon="1.2354170">
        <ele>100.3</ele>
        <time>2020-02-21T14:03:39Z</time>
      </trkpt>
      <trkpt lat="38.8961510" lon="1.2354110">
        <ele>100.0</ele>
        <time>2020-02-21T14:03:40Z</time>
      </trkpt>
      <trkpt lat="38.8962180" lon="1.2354020">
        <ele>99.8</ele>
        <time>2020-02-21T14:03:41Z</time>
      </trkpt>
      <trkpt lat="38.8962970" lon="1.2353920">
        <ele>99.5</ele>
        <time>2020-02-21T14:03:42Z</time>
      </trkpt>
      <trkpt lat="38.8963730" lon="1.2353800">
        <ele>99.2</ele>
        <time>2020-02-21T14:03:43Z</time>
      </trkpt>
      <trkpt lat="38.8964480" lon="1.2353610">
        <ele>99.0</ele>
        <time>2020-02-21T14:03:44Z</time>
      </trkpt>
      <trkpt lat="38.8965130" lon="1.2353420">
        <ele>98.8</ele>
        <time>2020-02-21T14:03:45Z</time>
      </trkpt>
      <trkpt lat="38.8965810" lon="1.2353130">
        <ele>98.6</ele>
        <time>2020-02-21T14:03:46Z</time>
      </trkpt>
      <trkpt lat="38.8966510" lon="1.2352840">
        <ele>98.3</ele>
        <time>2020-02-21T14:03:47Z</time>
      </trkpt>
      <trkpt lat="38.8967230" lon="1.2352490">
        <ele>98.1</ele>
        <time>2020-02-21T14:03:48Z</time>
      </trkpt>
      <trkpt lat="38.8967910" lon="1.2352070">
        <ele>97.5</ele>
        <time>2020-02-21T14:03:49Z</time>
      </trkpt>
      <trkpt lat="38.8968610" lon="1.2351620">
        <ele>97.1</ele>
        <time>2020-02-21T14:03:50Z</time>
      </trkpt>
      <trkpt lat="38.8969230" lon="1.2351060">
        <ele>96.8</ele>
        <time>2020-02-21T14:03:51Z</time>
      </trkpt>
      <trkpt lat="38.8969880" lon="1.2350510">
        <ele>96.5</ele>
        <time>2020-02-21T14:03:52Z</time>
      </trkpt>
      <trkpt lat="38.8970540" lon="1.2349950">
        <ele>96.1</ele>
        <time>2020-02-21T14:03:53Z</time>
      </trkpt>
      <trkpt lat="38.8971210" lon="1.2349480">
        <ele>95.8</ele>
        <time>2020-02-21T14:03:54Z</time>
      </trkpt>
      <trkpt lat="38.8971850" lon="1.2349010">
        <ele>95.5</ele>
        <time>2020-02-21T14:03:55Z</time>
      </trkpt>
      <trkpt lat="38.8972500" lon="1.2348540">
        <ele>95.3</ele>
        <time>2020-02-21T14:03:56Z</time>
      </trkpt>
      <trkpt lat="38.8973140" lon="1.2348120">
        <ele>95.2</ele>
        <time>2020-02-21T14:03:57Z</time>
      </trkpt>
      <trkpt lat="38.8973820" lon="1.2347810">
        <ele>95.0</ele>
        <time>2020-02-21T14:03:58Z</time>
      </trkpt>
      <trkpt lat="38.8974460" lon="1.2347440">
        <ele>94.9</ele>
        <time>2020-02-21T14:03:59Z</time>
      </trkpt>
      <trkpt lat="38.8975060" lon="1.2347070">
        <ele>94.8</ele>
        <time>2020-02-21T14:04:00Z</time>
      </trkpt>
      <trkpt lat="38.8975680" lon="1.2346770">
        <ele>94.8</ele>
        <time>2020-02-21T14:04:01Z</time>
      </trkpt>
      <trkpt lat="38.8976320" lon="1.2346560">
        <ele>94.8</ele>
        <time>2020-02-21T14:04:02Z</time>
      </trkpt>
      <trkpt lat="38.8976930" lon="1.2346300">
        <ele>94.8</ele>
        <time>2020-02-21T14:04:03Z</time>
      </trkpt>
      <trkpt lat="38.8977490" lon="1.2345900">
        <ele>94.8</ele>
        <time>2020-02-21T14:04:04Z</time>
      </trkpt>
      <trkpt lat="38.8978030" lon="1.2345560">
        <ele>94.8</ele>
        <time>2020-02-21T14:04:05Z</time>
      </trkpt>
      <trkpt lat="38.8978590" lon="1.2345270">
        <ele>94.9</ele>
        <time>2020-02-21T14:04:06Z</time>
      </trkpt>
      <trkpt lat="38.8979150" lon="1.2345010">
        <ele>94.9</ele>
        <time>2020-02-21T14:04:07Z</time>
      </trkpt>
      <trkpt lat="38.8979660" lon="1.2344690">
        <ele>94.9</ele>
        <time>2020-02-21T14:04:08Z</time>
      </trkpt>
      <trkpt lat="38.8980210" lon="1.2344500">
        <ele>94.9</ele>
        <time>2020-02-21T14:04:09Z</time>
      </trkpt>
      <trkpt lat="38.8980760" lon="1.2344450">
        <ele>95.2</ele>
        <time>2020-02-21T14:04:10Z</time>
      </trkpt>
      <trkpt lat="38.8981320" lon="1.2344430">
        <ele>95.5</ele>
        <time>2020-02-21T14:04:11Z</time>
      </trkpt>
      <trkpt lat="38.8981860" lon="1.2344370">
        <ele>95.8</ele>
        <time>2020-02-21T14:04:12Z</time>
      </trkpt>
      <trkpt lat="38.8982380" lon="1.2344360">
        <ele>96.0</ele>
        <time>2020-02-21T14:04:13Z</time>
      </trkpt>
      <trkpt lat="38.8982920" lon="1.2344500">
        <ele>96.3</ele>
        <time>2020-02-21T14:04:14Z</time>
      </trkpt>
      <trkpt lat="38.8983410" lon="1.2344390">
        <ele>96.5</ele>
        <time>2020-02-21T14:04:15Z</time>
      </trkpt>
      <trkpt lat="38.8983900" lon="1.2344320">
        <ele>96.7</ele>
        <time>2020-02-21T14:04:16Z</time>
      </trkpt>
      <trkpt lat="38.8984410" lon="1.2344280">
        <ele>96.9</ele>
        <time>2020-02-21T14:04:17Z</time>
      </trkpt>
      <trkpt lat="38.8984910" lon="1.2344330">
        <ele>97.2</ele>
        <time>2020-02-21T14:04:18Z</time>
      </trkpt>
      <trkpt lat="38.8985420" lon="1.2344300">
        <ele>97.4</ele>
        <time>2020-02-21T14:04:19Z</time>
      </trkpt>
      <trkpt lat="38.8985930" lon="1.2344310">
        <ele>97.6</ele>
        <time>2020-02-21T14:04:20Z</time>
      </trkpt>
      <trkpt lat="38.8986440" lon="1.2344380">
        <ele>97.8</ele>
        <time>2020-02-21T14:04:21Z</time>
      </trkpt>
      <trkpt lat="38.8986960" lon="1.2344520">
        <ele>98.0</ele>
        <time>2020-02-21T14:04:22Z</time>
      </trkpt>
      <trkpt lat="38.8987480" lon="1.2344640">
        <ele>98.2</ele>
        <time>2020-02-21T14:04:23Z</time>
      </trkpt>
      <trkpt lat="38.8987990" lon="1.2344700">
        <ele>98.5</ele>
        <time>2020-02-21T14:04:24Z</time>
      </trkpt>
      <trkpt lat="38.8988520" lon="1.2344630">
        <ele>98.7</ele>
        <time>2020-02-21T14:04:25Z</time>
      </trkpt>
      <trkpt lat="38.8989020" lon="1.2344730">
        <ele>99.0</ele>
        <time>2020-02-21T14:04:26Z</time>
      </trkpt>
      <trkpt lat="38.8989530" lon="1.2344760">
        <ele>99.3</ele>
        <time>2020-02-21T14:04:27Z</time>
      </trkpt>
      <trkpt lat="38.8990020" lon="1.2344790">
        <ele>99.6</ele>
        <time>2020-02-21T14:04:28Z</time>
      </trkpt>
      <trkpt lat="38.8990520" lon="1.2344790">
        <ele>99.9</ele>
        <time>2020-02-21T14:04:29Z</time>
      </trkpt>
      <trkpt lat="38.8991040" lon="1.2344690">
        <ele>100.2</ele>
        <time>2020-02-21T14:04:30Z</time>
      </trkpt>
      <trkpt lat="38.8991530" lon="1.2344670">
        <ele>100.5</ele>
        <time>2020-02-21T14:04:31Z</time>
      </trkpt>
      <trkpt lat="38.8992030" lon="1.2344730">
        <ele>100.7</ele>
        <time>2020-02-21T14:04:32Z</time>
      </trkpt>
      <trkpt lat="38.8992520" lon="1.2344760">
        <ele>101.0</ele>
        <time>2020-02-21T14:04:33Z</time>
      </trkpt>
      <trkpt lat="38.8993010" lon="1.2344730">
        <ele>101.2</ele>
        <time>2020-02-21T14:04:34Z</time>
      </trkpt>
      <trkpt lat="38.8993490" lon="1.2344800">
        <ele>101.3</ele>
        <time>2020-02-21T14:04:35Z</time>
      </trkpt>
      <trkpt lat="38.8993970" lon="1.2344830">
        <ele>101.4</ele>
        <time>2020-02-21T14:04:36Z</time>
      </trkpt>
      <trkpt lat="38.8994470" lon="1.2344790">
        <ele>101.5</ele>
        <time>2020-02-21T14:04:37Z</time>
      </trkpt>
      <trkpt lat="38.8994960" lon="1.2344800">
        <ele>101.6</ele>
        <time>2020-02-21T14:04:38Z</time>
      </trkpt>
      <trkpt lat="38.8995430" lon="1.2344930">
        <ele>101.7</ele>
        <time>2020-02-21T14:04:39Z</time>
      </trkpt>
      <trkpt lat="38.8995910" lon="1.2345060">
        <ele>101.9</ele>
        <time>2020-02-21T14:04:40Z</time>
      </trkpt>
      <trkpt lat="38.8996390" lon="1.2345100">
        <ele>102.0</ele>
        <time>2020-02-21T14:04:41Z</time>
      </trkpt>
      <trkpt lat="38.8996880" lon="1.2345070">
        <ele>102.2</ele>
        <time>2020-02-21T14:04:42Z</time>
      </trkpt>
      <trkpt lat="38.8997370" lon="1.2345020">
        <ele>102.4</ele>
        <time>2020-02-21T14:04:43Z</time>
      </trkpt>
      <trkpt lat="38.8997850" lon="1.2345050">
        <ele>102.7</ele>
        <time>2020-02-21T14:04:44Z</time>
      </trkpt>
      <trkpt lat="38.8998310" lon="1.2345000">
        <ele>102.9</ele>
        <time>2020-02-21T14:04:45Z</time>
      </trkpt>
      <trkpt lat="38.8998780" lon="1.2344980">
        <ele>103.1</ele>
        <time>2020-02-21T14:04:46Z</time>
      </trkpt>
      <trkpt lat="38.8999250" lon="1.2344980">
        <ele>103.0</ele>
        <time>2020-02-21T14:04:47Z</time>
      </trkpt>
      <trkpt lat="38.8999730" lon="1.2345000">
        <ele>102.8</ele>
        <time>2020-02-21T14:04:48Z</time>
      </trkpt>
      <trkpt lat="38.9000170" lon="1.2345000">
        <ele>102.7</ele>
        <time>2020-02-21T14:04:49Z</time>
      </trkpt>
      <trkpt lat="38.9000590" lon="1.2344960">
        <ele>102.6</ele>
        <time>2020-02-21T14:04:50Z</time>
      </trkpt>
      <trkpt lat="38.9000910" lon="1.2345070">
        <ele>102.4</ele>
        <time>2020-02-21T14:04:51Z</time>
      </trkpt>
      <trkpt lat="38.9001300" lon="1.2345110">
        <ele>102.3</ele>
        <time>2020-02-21T14:04:52Z</time>
      </trkpt>
      <trkpt lat="38.9001750" lon="1.2345090">
        <ele>102.2</ele>
        <time>2020-02-21T14:04:53Z</time>
      </trkpt>
      <trkpt lat="38.9002220" lon="1.2345110">
        <ele>102.0</ele>
        <time>2020-02-21T14:04:54Z</time>
      </trkpt>
      <trkpt lat="38.9002590" lon="1.2345090">
        <ele>101.9</ele>
        <time>2020-02-21T14:04:55Z</time>
      </trkpt>
      <trkpt lat="38.9003060" lon="1.2345110">
        <ele>101.7</ele>
        <time>2020-02-21T14:04:56Z</time>
      </trkpt>
      <trkpt lat="38.9003570" lon="1.2345130">
        <ele>101.8</ele>
        <time>2020-02-21T14:04:57Z</time>
      </trkpt>
      <trkpt lat="38.9004070" lon="1.2345170">
        <ele>101.8</ele>
        <time>2020-02-21T14:04:58Z</time>
      </trkpt>
      <trkpt lat="38.9004580" lon="1.2345150">
        <ele>101.9</ele>
        <time>2020-02-21T14:04:59Z</time>
      </trkpt>
      <trkpt lat="38.9005100" lon="1.2345180">
        <ele>102.0</ele>
        <time>2020-02-21T14:05:00Z</time>
      </trkpt>
      <trkpt lat="38.9005550" lon="1.2345280">
        <ele>102.0</ele>
        <time>2020-02-21T14:05:01Z</time>
      </trkpt>
      <trkpt lat="38.9005910" lon="1.2345420">
        <ele>102.1</ele>
        <time>2020-02-21T14:05:02Z</time>
      </trkpt>
      <trkpt lat="38.9006300" lon="1.2345410">
        <ele>102.1</ele>
        <time>2020-02-21T14:05:03Z</time>
      </trkpt>
      <trkpt lat="38.9006600" lon="1.2345540">
        <ele>102.2</ele>
        <time>2020-02-21T14:05:04Z</time>
      </trkpt>
      <trkpt lat="38.9007050" lon="1.2345590">
        <ele>102.3</ele>
        <time>2020-02-21T14:05:05Z</time>
      </trkpt>
      <trkpt lat="38.9007530" lon="1.2345620">
        <ele>102.3</ele>
        <time>2020-02-21T14:05:06Z</time>
      </trkpt>
      <trkpt lat="38.9007960" lon="1.2345590">
        <ele>102.3</ele>
        <time>2020-02-21T14:05:07Z</time>
      </trkpt>
      <trkpt lat="38.9008350" lon="1.2345600">
        <ele>102.3</ele>
        <time>2020-02-21T14:05:08Z</time>
      </trkpt>
      <trkpt lat="38.9008870" lon="1.2345680">
        <ele>102.3</ele>
        <time>2020-02-21T14:05:09Z</time>
      </trkpt>
      <trkpt lat="38.9009330" lon="1.2345690">
        <ele>102.3</ele>
        <time>2020-02-21T14:05:10Z</time>
      </trkpt>
      <trkpt lat="38.9009780" lon="1.2345750">
        <ele>102.3</ele>
        <time>2020-02-21T14:05:11Z</time>
      </trkpt>
      <trkpt lat="38.9010180" lon="1.2345830">
        <ele>102.3</ele>
        <time>2020-02-21T14:05:12Z</time>
      </trkpt>
      <trkpt lat="38.9010600" lon="1.2345790">
        <ele>102.4</ele>
        <time>2020-02-21T14:05:13Z</time>
      </trkpt>
      <trkpt lat="38.9010990" lon="1.2345750">
        <ele>102.4</ele>
        <time>2020-02-21T14:05:14Z</time>
      </trkpt>
      <trkpt lat="38.9011520" lon="1.2345690">
        <ele>102.4</ele>
        <time>2020-02-21T14:05:15Z</time>
      </trkpt>
      <trkpt lat="38.9011950" lon="1.2345670">
        <ele>102.4</ele>
        <time>2020-02-21T14:05:16Z</time>
      </trkpt>
      <trkpt lat="38.9012520" lon="1.2345620">
        <ele>102.5</ele>
        <time>2020-02-21T14:05:17Z</time>
      </trkpt>
      <trkpt lat="38.9013040" lon="1.2345630">
        <ele>102.5</ele>
        <time>2020-02-21T14:05:18Z</time>
      </trkpt>
      <trkpt lat="38.9013540" lon="1.2345610">
        <ele>102.6</ele>
        <time>2020-02-21T14:05:19Z</time>
      </trkpt>
      <trkpt lat="38.9014070" lon="1.2345540">
        <ele>102.6</ele>
        <time>2020-02-21T14:05:20Z</time>
      </trkpt>
      <trkpt lat="38.9014500" lon="1.2345560">
        <ele>102.7</ele>
        <time>2020-02-21T14:05:21Z</time>
      </trkpt>
      <trkpt lat="38.9014950" lon="1.2345550">
        <ele>102.7</ele>
        <time>2020-02-21T14:05:22Z</time>
      </trkpt>
      <trkpt lat="38.9015360" lon="1.2345560">
        <ele>102.7</ele>
        <time>2020-02-21T14:05:23Z</time>
      </trkpt>
      <trkpt lat="38.9015840" lon="1.2345540">
        <ele>102.7</ele>
        <time>2020-02-21T14:05:24Z</time>
      </trkpt>
      <trkpt lat="38.9016210" lon="1.2345550">
        <ele>102.8</ele>
        <time>2020-02-21T14:05:25Z</time>
      </trkpt>
      <trkpt lat="38.9016660" lon="1.2345620">
        <ele>102.8</ele>
        <time>2020-02-21T14:05:26Z</time>
      </trkpt>
      <trkpt lat="38.9017090" lon="1.2345610">
        <ele>102.8</ele>
        <time>2020-02-21T14:05:27Z</time>
      </trkpt>
      <trkpt lat="38.9017500" lon="1.2345660">
        <ele>102.8</ele>
        <time>2020-02-21T14:05:28Z</time>
      </trkpt>
      <trkpt lat="38.9018040" lon="1.2345670">
        <ele>102.9</ele>
        <time>2020-02-21T14:05:29Z</time>
      </trkpt>
      <trkpt lat="38.9018590" lon="1.2345700">
        <ele>102.9</ele>
        <time>2020-02-21T14:05:30Z</time>
      </trkpt>
      <trkpt lat="38.9019070" lon="1.2345730">
        <ele>102.9</ele>
        <time>2020-02-21T14:05:31Z</time>
      </trkpt>
      <trkpt lat="38.9019630" lon="1.2345880">
        <ele>102.9</ele>
        <time>2020-02-21T14:05:32Z</time>
      </trkpt>
      <trkpt lat="38.9020160" lon="1.2345950">
        <ele>103.0</ele>
        <time>2020-02-21T14:05:33Z</time>
      </trkpt>
      <trkpt lat="38.9020730" lon="1.2346090">
        <ele>102.8</ele>
        <time>2020-02-21T14:05:34Z</time>
      </trkpt>
      <trkpt lat="38.9021260" lon="1.2346200">
        <ele>102.7</ele>
        <time>2020-02-21T14:05:35Z</time>
      </trkpt>
      <trkpt lat="38.9021740" lon="1.2346310">
        <ele>102.5</ele>
        <time>2020-02-21T14:05:36Z</time>
      </trkpt>
      <trkpt lat="38.9022190" lon="1.2346490">
        <ele>102.2</ele>
        <time>2020-02-21T14:05:37Z</time>
      </trkpt>
      <trkpt lat="38.9022640" lon="1.2346600">
        <ele>102.0</ele>
        <time>2020-02-21T14:05:38Z</time>
      </trkpt>
      <trkpt lat="38.9023140" lon="1.2346790">
        <ele>101.8</ele>
        <time>2020-02-21T14:05:39Z</time>
      </trkpt>
      <trkpt lat="38.9023640" lon="1.2347150">
        <ele>101.7</ele>
        <time>2020-02-21T14:05:40Z</time>
      </trkpt>
      <trkpt lat="38.9024130" lon="1.2347460">
        <ele>101.6</ele>
        <time>2020-02-21T14:05:41Z</time>
      </trkpt>
      <trkpt lat="38.9024640" lon="1.2347710">
        <ele>101.6</ele>
        <time>2020-02-21T14:05:42Z</time>
      </trkpt>
      <trkpt lat="38.9025060" lon="1.2347980">
        <ele>101.6</ele>
        <time>2020-02-21T14:05:43Z</time>
      </trkpt>
      <trkpt lat="38.9025560" lon="1.2348290">
        <ele>101.5</ele>
        <time>2020-02-21T14:05:44Z</time>
      </trkpt>
      <trkpt lat="38.9026080" lon="1.2348650">
        <ele>101.5</ele>
        <time>2020-02-21T14:05:45Z</time>
      </trkpt>
      <trkpt lat="38.9026440" lon="1.2348950">
        <ele>101.5</ele>
        <time>2020-02-21T14:05:46Z</time>
      </trkpt>
      <trkpt lat="38.9026800" lon="1.2349120">
        <ele>101.5</ele>
        <time>2020-02-21T14:05:47Z</time>
      </trkpt>
      <trkpt lat="38.9027220" lon="1.2349350">
        <ele>101.5</ele>
        <time>2020-02-21T14:05:48Z</time>
      </trkpt>
      <trkpt lat="38.9027640" lon="1.2349530">
        <ele>101.4</ele>
        <time>2020-02-21T14:05:49Z</time>
      </trkpt>
      <trkpt lat="38.9028040" lon="1.2349860">
        <ele>101.4</ele>
        <time>2020-02-21T14:05:50Z</time>
      </trkpt>
      <trkpt lat="38.9028530" lon="1.2350130">
        <ele>101.3</ele>
        <time>2020-02-21T14:05:51Z</time>
      </trkpt>
      <trkpt lat="38.9029120" lon="1.2350460">
        <ele>101.1</ele>
        <time>2020-02-21T14:05:52Z</time>
      </trkpt>
      <trkpt lat="38.9029740" lon="1.2351020">
        <ele>100.9</ele>
        <time>2020-02-21T14:05:53Z</time>
      </trkpt>
      <trkpt lat="38.9030250" lon="1.2351310">
        <ele>100.6</ele>
        <time>2020-02-21T14:05:54Z</time>
      </trkpt>
      <trkpt lat="38.9030740" lon="1.2351560">
        <ele>100.4</ele>
        <time>2020-02-21T14:05:55Z</time>
      </trkpt>
      <trkpt lat="38.9031220" lon="1.2351850">
        <ele>100.2</ele>
        <time>2020-02-21T14:05:56Z</time>
      </trkpt>
      <trkpt lat="38.9031640" lon="1.2352130">
        <ele>100.0</ele>
        <time>2020-02-21T14:05:57Z</time>
      </trkpt>
      <trkpt lat="38.9032010" lon="1.2352320">
        <ele>99.5</ele>
        <time>2020-02-21T14:05:58Z</time>
      </trkpt>
      <trkpt lat="38.9032340" lon="1.2352470">
        <ele>99.4</ele>
        <time>2020-02-21T14:05:59Z</time>
      </trkpt>
      <trkpt lat="38.9032650" lon="1.2352480">
        <ele>99.3</ele>
        <time>2020-02-21T14:06:00Z</time>
      </trkpt>
      <trkpt lat="38.9033000" lon="1.2352220">
        <ele>99.3</ele>
        <time>2020-02-21T14:06:01Z</time>
      </trkpt>
      <trkpt lat="38.9033100" lon="1.2352030">
        <ele>99.2</ele>
        <time>2020-02-21T14:06:02Z</time>
      </trkpt>
      <trkpt lat="38.9033280" lon="1.2351490">
        <ele>99.1</ele>
        <time>2020-02-21T14:06:03Z</time>
      </trkpt>
      <trkpt lat="38.9033540" lon="1.2350940">
        <ele>99.0</ele>
        <time>2020-02-21T14:06:04Z</time>
      </trkpt>
      <trkpt lat="38.9033810" lon="1.2350360">
        <ele>98.9</ele>
        <time>2020-02-21T14:06:05Z</time>
      </trkpt>
      <trkpt lat="38.9034000" lon="1.2349630">
        <ele>98.8</ele>
        <time>2020-02-21T14:06:06Z</time>
      </trkpt>
      <trkpt lat="38.9034240" lon="1.2348930">
        <ele>98.7</ele>
        <time>2020-02-21T14:06:07Z</time>
      </trkpt>
      <trkpt lat="38.9034560" lon="1.2348140">
        <ele>98.6</ele>
        <time>2020-02-21T14:06:08Z</time>
      </trkpt>
      <trkpt lat="38.9034880" lon="1.2347150">
        <ele>98.6</ele>
        <time>2020-02-21T14:06:09Z</time>
      </trkpt>
      <trkpt lat="38.9035190" lon="1.2346090">
        <ele>98.6</ele>
        <time>2020-02-21T14:06:10Z</time>
      </trkpt>
      <trkpt lat="38.9035520" lon="1.2345110">
        <ele>98.6</ele>
        <time>2020-02-21T14:06:11Z</time>
      </trkpt>
      <trkpt lat="38.9035950" lon="1.2344050">
        <ele>98.6</ele>
        <time>2020-02-21T14:06:12Z</time>
      </trkpt>
      <trkpt lat="38.9036450" lon="1.2343050">
        <ele>98.7</ele>
        <time>2020-02-21T14:06:13Z</time>
      </trkpt>
      <trkpt lat="38.9036930" lon="1.2342030">
        <ele>98.8</ele>
        <time>2020-02-21T14:06:14Z</time>
      </trkpt>
      <trkpt lat="38.9037540" lon="1.2341080">
        <ele>98.9</ele>
        <time>2020-02-21T14:06:15Z</time>
      </trkpt>
      <trkpt lat="38.9038180" lon="1.2340150">
        <ele>99.1</ele>
        <time>2020-02-21T14:06:16Z</time>
      </trkpt>
      <trkpt lat="38.9038760" lon="1.2339390">
        <ele>99.3</ele>
        <time>2020-02-21T14:06:17Z</time>
      </trkpt>
      <trkpt lat="38.9039440" lon="1.2338640">
        <ele>99.6</ele>
        <time>2020-02-21T14:06:18Z</time>
      </trkpt>
      <trkpt lat="38.9040100" lon="1.2338110">
        <ele>99.6</ele>
        <time>2020-02-21T14:06:19Z</time>
      </trkpt>
      <trkpt lat="38.9040660" lon="1.2337520">
        <ele>99.6</ele>
        <time>2020-02-21T14:06:20Z</time>
      </trkpt>
      <trkpt lat="38.9041270" lon="1.2337210">
        <ele>99.6</ele>
        <time>2020-02-21T14:06:21Z</time>
      </trkpt>
      <trkpt lat="38.9041880" lon="1.2337000">
        <ele>99.6</ele>
        <time>2020-02-21T14:06:22Z</time>
      </trkpt>
      <trkpt lat="38.9042470" lon="1.2336820">
        <ele>99.6</ele>
        <time>2020-02-21T14:06:23Z</time>
      </trkpt>
      <trkpt lat="38.9042980" lon="1.2336650">
        <ele>99.6</ele>
        <time>2020-02-21T14:06:24Z</time>
      </trkpt>
      <trkpt lat="38.9043520" lon="1.2336500">
        <ele>99.7</ele>
        <time>2020-02-21T14:06:25Z</time>
      </trkpt>
      <trkpt lat="38.9044020" lon="1.2336190">
        <ele>99.7</ele>
        <time>2020-02-21T14:06:26Z</time>
      </trkpt>
      <trkpt lat="38.9044540" lon="1.2335980">
        <ele>99.7</ele>
        <time>2020-02-21T14:06:27Z</time>
      </trkpt>
      <trkpt lat="38.9045010" lon="1.2335780">
        <ele>99.8</ele>
        <time>2020-02-21T14:06:28Z</time>
      </trkpt>
      <trkpt lat="38.9045490" lon="1.2335570">
        <ele>99.9</ele>
        <time>2020-02-21T14:06:29Z</time>
      </trkpt>
      <trkpt lat="38.9045950" lon="1.2335280">
        <ele>100.0</ele>
        <time>2020-02-21T14:06:30Z</time>
      </trkpt>
      <trkpt lat="38.9046410" lon="1.2335040">
        <ele>100.2</ele>
        <time>2020-02-21T14:06:31Z</time>
      </trkpt>
      <trkpt lat="38.9046850" lon="1.2334740">
        <ele>100.3</ele>
        <time>2020-02-21T14:06:32Z</time>
      </trkpt>
      <trkpt lat="38.9047270" lon="1.2334380">
        <ele>100.4</ele>
        <time>2020-02-21T14:06:33Z</time>
      </trkpt>
      <trkpt lat="38.9047700" lon="1.2334090">
        <ele>100.5</ele>
        <time>2020-02-21T14:06:34Z</time>
      </trkpt>
      <trkpt lat="38.9048110" lon="1.2333760">
        <ele>100.5</ele>
        <time>2020-02-21T14:06:35Z</time>
      </trkpt>
      <trkpt lat="38.9048540" lon="1.2333410">
        <ele>100.6</ele>
        <time>2020-02-21T14:06:36Z</time>
      </trkpt>
      <trkpt lat="38.9048930" lon="1.2333010">
        <ele>100.6</ele>
        <time>2020-02-21T14:06:37Z</time>
      </trkpt>
      <trkpt lat="38.9049240" lon="1.2332540">
        <ele>100.6</ele>
        <time>2020-02-21T14:06:38Z</time>
      </trkpt>
      <trkpt lat="38.9049560" lon="1.2332100">
        <ele>100.6</ele>
        <time>2020-02-21T14:06:39Z</time>
      </trkpt>
      <trkpt lat="38.9049840" lon="1.2331600">
        <ele>100.6</ele>
        <time>2020-02-21T14:06:40Z</time>
      </trkpt>
      <trkpt lat="38.9050140" lon="1.2331080">
        <ele>100.7</ele>
        <time>2020-02-21T14:06:41Z</time>
      </trkpt>
      <trkpt lat="38.9050410" lon="1.2330630">
        <ele>100.7</ele>
        <time>2020-02-21T14:06:42Z</time>
      </trkpt>
      <trkpt lat="38.9050680" lon="1.2330260">
        <ele>100.7</ele>
        <time>2020-02-21T14:06:43Z</time>
      </trkpt>
      <trkpt lat="38.9050940" lon="1.2329860">
        <ele>100.7</ele>
        <time>2020-02-21T14:06:44Z</time>
      </trkpt>
      <trkpt lat="38.9051210" lon="1.2329440">
        <ele>100.7</ele>
        <time>2020-02-21T14:06:45Z</time>
      </trkpt>
      <trkpt lat="38.9051470" lon="1.2329000">
        <ele>100.7</ele>
        <time>2020-02-21T14:06:46Z</time>
      </trkpt>
      <trkpt lat="38.9051650" lon="1.2328490">
        <ele>100.8</ele>
        <time>2020-02-21T14:06:47Z</time>
      </trkpt>
      <trkpt lat="38.9051940" lon="1.2328030">
        <ele>100.9</ele>
        <time>2020-02-21T14:06:48Z</time>
      </trkpt>
      <trkpt lat="38.9052200" lon="1.2327500">
        <ele>101.0</ele>
        <time>2020-02-21T14:06:49Z</time>
      </trkpt>
      <trkpt lat="38.9052430" lon="1.2327040">
        <ele>101.1</ele>
        <time>2020-02-21T14:06:50Z</time>
      </trkpt>
      <trkpt lat="38.9052590" lon="1.2326500">
        <ele>101.2</ele>
        <time>2020-02-21T14:06:51Z</time>
      </trkpt>
      <trkpt lat="38.9052770" lon="1.2326020">
        <ele>101.3</ele>
        <time>2020-02-21T14:06:52Z</time>
      </trkpt>
      <trkpt lat="38.9052910" lon="1.2325540">
        <ele>101.5</ele>
        <time>2020-02-21T14:06:53Z</time>
      </trkpt>
      <trkpt lat="38.9053160" lon="1.2325140">
        <ele>101.7</ele>
        <time>2020-02-21T14:06:54Z</time>
      </trkpt>
      <trkpt lat="38.9053380" lon="1.2324730">
        <ele>101.8</ele>
        <time>2020-02-21T14:06:55Z</time>
      </trkpt>
      <trkpt lat="38.9053640" lon="1.2324350">
        <ele>102.0</ele>
        <time>2020-02-21T14:06:56Z</time>
      </trkpt>
      <trkpt lat="38.9053830" lon="1.2323910">
        <ele>102.1</ele>
        <time>2020-02-21T14:06:57Z</time>
      </trkpt>
      <trkpt lat="38.9053980" lon="1.2323470">
        <ele>102.2</ele>
        <time>2020-02-21T14:06:58Z</time>
      </trkpt>
      <trkpt lat="38.9054120" lon="1.2323070">
        <ele>102.4</ele>
        <time>2020-02-21T14:06:59Z</time>
      </trkpt>
      <trkpt lat="38.9054230" lon="1.2322680">
        <ele>102.5</ele>
        <time>2020-02-21T14:07:00Z</time>
      </trkpt>
      <trkpt lat="38.9054330" lon="1.2322280">
        <ele>102.7</ele>
        <time>2020-02-21T14:07:01Z</time>
      </trkpt>
      <trkpt lat="38.9054460" lon="1.2321920">
        <ele>102.8</ele>
        <time>2020-02-21T14:07:02Z</time>
      </trkpt>
      <trkpt lat="38.9054620" lon="1.2321550">
        <ele>103.0</ele>
        <time>2020-02-21T14:07:03Z</time>
      </trkpt>
      <trkpt lat="38.9054730" lon="1.2321190">
        <ele>103.1</ele>
        <time>2020-02-21T14:07:04Z</time>
      </trkpt>
      <trkpt lat="38.9054810" lon="1.2320760">
        <ele>103.3</ele>
        <time>2020-02-21T14:07:05Z</time>
      </trkpt>
      <trkpt lat="38.9054950" lon="1.2320280">
        <ele>103.4</ele>
        <time>2020-02-21T14:07:06Z</time>
      </trkpt>
      <trkpt lat="38.9055090" lon="1.2319740">
        <ele>103.7</ele>
        <time>2020-02-21T14:07:07Z</time>
      </trkpt>
      <trkpt lat="38.9055240" lon="1.2319160">
        <ele>103.7</ele>
        <time>2020-02-21T14:07:08Z</time>
      </trkpt>
      <trkpt lat="38.9055410" lon="1.2318500">
        <ele>103.8</ele>
        <time>2020-02-21T14:07:09Z</time>
      </trkpt>
      <trkpt lat="38.9055600" lon="1.2317800">
        <ele>103.8</ele>
        <time>2020-02-21T14:07:10Z</time>
      </trkpt>
      <trkpt lat="38.9055770" lon="1.2317320">
        <ele>103.8</ele>
        <time>2020-02-21T14:07:11Z</time>
      </trkpt>
      <trkpt lat="38.9055870" lon="1.2316710">
        <ele>103.8</ele>
        <time>2020-02-21T14:07:12Z</time>
      </trkpt>
      <trkpt lat="38.9056000" lon="1.2316220">
        <ele>103.9</ele>
        <time>2020-02-21T14:07:13Z</time>
      </trkpt>
      <trkpt lat="38.9056110" lon="1.2315850">
        <ele>103.9</ele>
        <time>2020-02-21T14:07:14Z</time>
      </trkpt>
      <trkpt lat="38.9056160" lon="1.2315400">
        <ele>103.9</ele>
        <time>2020-02-21T14:07:15Z</time>
      </trkpt>
      <trkpt lat="38.9056300" lon="1.2314860">
        <ele>104.0</ele>
        <time>2020-02-21T14:07:16Z</time>
      </trkpt>
      <trkpt lat="38.9056430" lon="1.2314450">
        <ele>104.0</ele>
        <time>2020-02-21T14:07:17Z</time>
      </trkpt>
      <trkpt lat="38.9056660" lon="1.2313790">
        <ele>104.2</ele>
        <time>2020-02-21T14:07:18Z</time>
      </trkpt>
      <trkpt lat="38.9056890" lon="1.2313170">
        <ele>104.3</ele>
        <time>2020-02-21T14:07:19Z</time>
      </trkpt>
      <trkpt lat="38.9057040" lon="1.2312850">
        <ele>104.4</ele>
        <time>2020-02-21T14:07:20Z</time>
      </trkpt>
      <trkpt lat="38.9057280" lon="1.2312260">
        <ele>104.5</ele>
        <time>2020-02-21T14:07:21Z</time>
      </trkpt>
      <trkpt lat="38.9057420" lon="1.2311920">
        <ele>104.6</ele>
        <time>2020-02-21T14:07:22Z</time>
      </trkpt>
      <trkpt lat="38.9057490" lon="1.2311380">
        <ele>104.7</ele>
        <time>2020-02-21T14:07:23Z</time>
      </trkpt>
      <trkpt lat="38.9057690" lon="1.2310750">
        <ele>104.8</ele>
        <time>2020-02-21T14:07:24Z</time>
      </trkpt>
      <trkpt lat="38.9057770" lon="1.2310300">
        <ele>104.8</ele>
        <time>2020-02-21T14:07:25Z</time>
      </trkpt>
      <trkpt lat="38.9057970" lon="1.2309640">
        <ele>104.9</ele>
        <time>2020-02-21T14:07:26Z</time>
      </trkpt>
      <trkpt lat="38.9058120" lon="1.2309100">
        <ele>104.9</ele>
        <time>2020-02-21T14:07:27Z</time>
      </trkpt>
      <trkpt lat="38.9058320" lon="1.2308560">
        <ele>104.9</ele>
        <time>2020-02-21T14:07:28Z</time>
      </trkpt>
      <trkpt lat="38.9058520" lon="1.2308130">
        <ele>104.9</ele>
        <time>2020-02-21T14:07:29Z</time>
      </trkpt>
      <trkpt lat="38.9058850" lon="1.2307760">
        <ele>104.9</ele>
        <time>2020-02-21T14:07:30Z</time>
      </trkpt>
      <trkpt lat="38.9059090" lon="1.2307270">
        <ele>104.9</ele>
        <time>2020-02-21T14:07:31Z</time>
      </trkpt>
      <trkpt lat="38.9059370" lon="1.2306680">
        <ele>104.9</ele>
        <time>2020-02-21T14:07:32Z</time>
      </trkpt>
      <trkpt lat="38.9059710" lon="1.2305970">
        <ele>104.9</ele>
        <time>2020-02-21T14:07:33Z</time>
      </trkpt>
      <trkpt lat="38.9060020" lon="1.2305270">
        <ele>104.8</ele>
        <time>2020-02-21T14:07:34Z</time>
      </trkpt>
      <trkpt lat="38.9060300" lon="1.2304680">
        <ele>104.8</ele>
        <time>2020-02-21T14:07:35Z</time>
      </trkpt>
      <trkpt lat="38.9060550" lon="1.2304020">
        <ele>104.6</ele>
        <time>2020-02-21T14:07:36Z</time>
      </trkpt>
      <trkpt lat="38.9060770" lon="1.2303410">
        <ele>104.5</ele>
        <time>2020-02-21T14:07:37Z</time>
      </trkpt>
      <trkpt lat="38.9061140" lon="1.2302630">
        <ele>104.3</ele>
        <time>2020-02-21T14:07:38Z</time>
      </trkpt>
      <trkpt lat="38.9061510" lon="1.2301950">
        <ele>104.1</ele>
        <time>2020-02-21T14:07:39Z</time>
      </trkpt>
      <trkpt lat="38.9061920" lon="1.2301230">
        <ele>103.8</ele>
        <time>2020-02-21T14:07:40Z</time>
      </trkpt>
      <trkpt lat="38.9062260" lon="1.2300560">
        <ele>103.6</ele>
        <time>2020-02-21T14:07:41Z</time>
      </trkpt>
      <trkpt lat="38.9062670" lon="1.2299930">
        <ele>103.3</ele>
        <time>2020-02-21T14:07:42Z</time>
      </trkpt>
      <trkpt lat="38.9063240" lon="1.2299270">
        <ele>103.0</ele>
        <time>2020-02-21T14:07:43Z</time>
      </trkpt>
      <trkpt lat="38.9063760" lon="1.2298610">
        <ele>102.6</ele>
        <time>2020-02-21T14:07:44Z</time>
      </trkpt>
      <trkpt lat="38.9064090" lon="1.2298180">
        <ele>102.4</ele>
        <time>2020-02-21T14:07:45Z</time>
      </trkpt>
      <trkpt lat="38.9064630" lon="1.2297320">
        <ele>101.9</ele>
        <time>2020-02-21T14:07:46Z</time>
      </trkpt>
      <trkpt lat="38.9065160" lon="1.2296540">
        <ele>101.5</ele>
        <time>2020-02-21T14:07:47Z</time>
      </trkpt>
      <trkpt lat="38.9065690" lon="1.2295840">
        <ele>101.0</ele>
        <time>2020-02-21T14:07:48Z</time>
      </trkpt>
      <trkpt lat="38.9066290" lon="1.2295180">
        <ele>100.6</ele>
        <time>2020-02-21T14:07:49Z</time>
      </trkpt>
      <trkpt lat="38.9066800" lon="1.2294550">
        <ele>100.3</ele>
        <time>2020-02-21T14:07:50Z</time>
      </trkpt>
      <trkpt lat="38.9067390" lon="1.2293690">
        <ele>99.9</ele>
        <time>2020-02-21T14:07:51Z</time>
      </trkpt>
      <trkpt lat="38.9067990" lon="1.2292920">
        <ele>99.5</ele>
        <time>2020-02-21T14:07:52Z</time>
      </trkpt>
      <trkpt lat="38.9068540" lon="1.2292190">
        <ele>99.0</ele>
        <time>2020-02-21T14:07:53Z</time>
      </trkpt>
      <trkpt lat="38.9069150" lon="1.2291330">
        <ele>98.5</ele>
        <time>2020-02-21T14:07:54Z</time>
      </trkpt>
      <trkpt lat="38.9069720" lon="1.2290530">
        <ele>98.0</ele>
        <time>2020-02-21T14:07:55Z</time>
      </trkpt>
      <trkpt lat="38.9070360" lon="1.2289840">
        <ele>97.4</ele>
        <time>2020-02-21T14:07:56Z</time>
      </trkpt>
      <trkpt lat="38.9070860" lon="1.2289230">
        <ele>97.0</ele>
        <time>2020-02-21T14:07:57Z</time>
      </trkpt>
      <trkpt lat="38.9071220" lon="1.2288760">
        <ele>96.3</ele>
        <time>2020-02-21T14:07:58Z</time>
      </trkpt>
      <trkpt lat="38.9071510" lon="1.2288480">
        <ele>96.0</ele>
        <time>2020-02-21T14:07:59Z</time>
      </trkpt>
      <trkpt lat="38.9071790" lon="1.2288570">
        <ele>95.8</ele>
        <time>2020-02-21T14:08:00Z</time>
      </trkpt>
      <trkpt lat="38.9071960" lon="1.2288930">
        <ele>95.5</ele>
        <time>2020-02-21T14:08:01Z</time>
      </trkpt>
      <trkpt lat="38.9072390" lon="1.2289560">
        <ele>95.0</ele>
        <time>2020-02-21T14:08:02Z</time>
      </trkpt>
      <trkpt lat="38.9072860" lon="1.2290190">
        <ele>94.4</ele>
        <time>2020-02-21T14:08:03Z</time>
      </trkpt>
      <trkpt lat="38.9073420" lon="1.2290860">
        <ele>93.6</ele>
        <time>2020-02-21T14:08:04Z</time>
      </trkpt>
      <trkpt lat="38.9073960" lon="1.2291560">
        <ele>92.7</ele>
        <time>2020-02-21T14:08:05Z</time>
      </trkpt>
      <trkpt lat="38.9074540" lon="1.2292280">
        <ele>91.5</ele>
        <time>2020-02-21T14:08:06Z</time>
      </trkpt>
      <trkpt lat="38.9075110" lon="1.2293050">
        <ele>90.1</ele>
        <time>2020-02-21T14:08:07Z</time>
      </trkpt>
      <trkpt lat="38.9075820" lon="1.2293750">
        <ele>89.0</ele>
        <time>2020-02-21T14:08:08Z</time>
      </trkpt>
      <trkpt lat="38.9076590" lon="1.2294430">
        <ele>87.7</ele>
        <time>2020-02-21T14:08:09Z</time>
      </trkpt>
      <trkpt lat="38.9077360" lon="1.2295150">
        <ele>86.5</ele>
        <time>2020-02-21T14:08:10Z</time>
      </trkpt>
      <trkpt lat="38.9078140" lon="1.2295900">
        <ele>85.4</ele>
        <time>2020-02-21T14:08:11Z</time>
      </trkpt>
      <trkpt lat="38.9078950" lon="1.2296720">
        <ele>84.5</ele>
        <time>2020-02-21T14:08:12Z</time>
      </trkpt>
      <trkpt lat="38.9079720" lon="1.2297610">
        <ele>83.2</ele>
        <time>2020-02-21T14:08:13Z</time>
      </trkpt>
      <trkpt lat="38.9080550" lon="1.2298380">
        <ele>81.9</ele>
        <time>2020-02-21T14:08:14Z</time>
      </trkpt>
      <trkpt lat="38.9081300" lon="1.2299120">
        <ele>80.7</ele>
        <time>2020-02-21T14:08:15Z</time>
      </trkpt>
      <trkpt lat="38.9082030" lon="1.2299790">
        <ele>79.4</ele>
        <time>2020-02-21T14:08:16Z</time>
      </trkpt>
      <trkpt lat="38.9082760" lon="1.2300290">
        <ele>78.0</ele>
        <time>2020-02-21T14:08:17Z</time>
      </trkpt>
      <trkpt lat="38.9083540" lon="1.2300350">
        <ele>77.1</ele>
        <time>2020-02-21T14:08:18Z</time>
      </trkpt>
      <trkpt lat="38.9084350" lon="1.2300070">
        <ele>76.0</ele>
        <time>2020-02-21T14:08:19Z</time>
      </trkpt>
      <trkpt lat="38.9085060" lon="1.2299470">
        <ele>75.3</ele>
        <time>2020-02-21T14:08:20Z</time>
      </trkpt>
      <trkpt lat="38.9085730" lon="1.2298840">
        <ele>74.6</ele>
        <time>2020-02-21T14:08:21Z</time>
      </trkpt>
      <trkpt lat="38.9086500" lon="1.2298290">
        <ele>73.8</ele>
        <time>2020-02-21T14:08:22Z</time>
      </trkpt>
      <trkpt lat="38.9087260" lon="1.2297600">
        <ele>72.9</ele>
        <time>2020-02-21T14:08:23Z</time>
      </trkpt>
      <trkpt lat="38.9088040" lon="1.2296880">
        <ele>71.9</ele>
        <time>2020-02-21T14:08:24Z</time>
      </trkpt>
      <trkpt lat="38.9088760" lon="1.2296140">
        <ele>71.2</ele>
        <time>2020-02-21T14:08:25Z</time>
      </trkpt>
      <trkpt lat="38.9089400" lon="1.2295340">
        <ele>70.6</ele>
        <time>2020-02-21T14:08:26Z</time>
      </trkpt>
      <trkpt lat="38.9090030" lon="1.2294550">
        <ele>69.9</ele>
        <time>2020-02-21T14:08:27Z</time>
      </trkpt>
      <trkpt lat="38.9090610" lon="1.2293740">
        <ele>69.2</ele>
        <time>2020-02-21T14:08:28Z</time>
      </trkpt>
      <trkpt lat="38.9091140" lon="1.2292820">
        <ele>68.7</ele>
        <time>2020-02-21T14:08:29Z</time>
      </trkpt>
      <trkpt lat="38.9091590" lon="1.2291830">
        <ele>68.2</ele>
        <time>2020-02-21T14:08:30Z</time>
      </trkpt>
      <trkpt lat="38.9092050" lon="1.2290810">
        <ele>67.8</ele>
        <time>2020-02-21T14:08:31Z</time>
      </trkpt>
      <trkpt lat="38.9092620" lon="1.2289890">
        <ele>67.4</ele>
        <time>2020-02-21T14:08:32Z</time>
      </trkpt>
      <trkpt lat="38.9093240" lon="1.2289060">
        <ele>67.0</ele>
        <time>2020-02-21T14:08:33Z</time>
      </trkpt>
      <trkpt lat="38.9093840" lon="1.2288310">
        <ele>66.7</ele>
        <time>2020-02-21T14:08:34Z</time>
      </trkpt>
      <trkpt lat="38.9094500" lon="1.2287620">
        <ele>66.3</ele>
        <time>2020-02-21T14:08:35Z</time>
      </trkpt>
      <trkpt lat="38.9095290" lon="1.2287270">
        <ele>65.8</ele>
        <time>2020-02-21T14:08:36Z</time>
      </trkpt>
      <trkpt lat="38.9096140" lon="1.2287310">
        <ele>65.0</ele>
        <time>2020-02-21T14:08:37Z</time>
      </trkpt>
      <trkpt lat="38.9097020" lon="1.2287360">
        <ele>64.0</ele>
        <time>2020-02-21T14:08:38Z</time>
      </trkpt>
      <trkpt lat="38.9097890" lon="1.2287270">
        <ele>62.8</ele>
        <time>2020-02-21T14:08:39Z</time>
      </trkpt>
      <trkpt lat="38.9098750" lon="1.2287330">
        <ele>61.8</ele>
        <time>2020-02-21T14:08:40Z</time>
      </trkpt>
      <trkpt lat="38.9099570" lon="1.2287410">
        <ele>60.7</ele>
        <time>2020-02-21T14:08:41Z</time>
      </trkpt>
      <trkpt lat="38.9100400" lon="1.2287480">
        <ele>59.6</ele>
        <time>2020-02-21T14:08:42Z</time>
      </trkpt>
      <trkpt lat="38.9101250" lon="1.2287630">
        <ele>58.4</ele>
        <time>2020-02-21T14:08:43Z</time>
      </trkpt>
      <trkpt lat="38.9102160" lon="1.2287640">
        <ele>57.2</ele>
        <time>2020-02-21T14:08:44Z</time>
      </trkpt>
      <trkpt lat="38.9102940" lon="1.2287080">
        <ele>55.8</ele>
        <time>2020-02-21T14:08:45Z</time>
      </trkpt>
      <trkpt lat="38.9103500" lon="1.2286230">
        <ele>54.2</ele>
        <time>2020-02-21T14:08:46Z</time>
      </trkpt>
      <trkpt lat="38.9103980" lon="1.2285360">
        <ele>53.0</ele>
        <time>2020-02-21T14:08:47Z</time>
      </trkpt>
      <trkpt lat="38.9104470" lon="1.2284510">
        <ele>51.8</ele>
        <time>2020-02-21T14:08:48Z</time>
      </trkpt>
      <trkpt lat="38.9105060" lon="1.2283690">
        <ele>50.2</ele>
        <time>2020-02-21T14:08:49Z</time>
      </trkpt>
      <trkpt lat="38.9105740" lon="1.2282760">
        <ele>48.6</ele>
        <time>2020-02-21T14:08:50Z</time>
      </trkpt>
      <trkpt lat="38.9106390" lon="1.2281830">
        <ele>47.2</ele>
        <time>2020-02-21T14:08:51Z</time>
      </trkpt>
      <trkpt lat="38.9107030" lon="1.2280820">
        <ele>45.6</ele>
        <time>2020-02-21T14:08:52Z</time>
      </trkpt>
      <trkpt lat="38.9107810" lon="1.2279880">
        <ele>44.2</ele>
        <time>2020-02-21T14:08:53Z</time>
      </trkpt>
      <trkpt lat="38.9108530" lon="1.2278910">
        <ele>42.8</ele>
        <time>2020-02-21T14:08:54Z</time>
      </trkpt>
      <trkpt lat="38.9109170" lon="1.2277880">
        <ele>41.2</ele>
        <time>2020-02-21T14:08:55Z</time>
      </trkpt>
      <trkpt lat="38.9109900" lon="1.2276980">
        <ele>39.7</ele>
        <time>2020-02-21T14:08:56Z</time>
      </trkpt>
      <trkpt lat="38.9110640" lon="1.2276100">
        <ele>38.5</ele>
        <time>2020-02-21T14:08:57Z</time>
      </trkpt>
      <trkpt lat="38.9111330" lon="1.2275230">
        <ele>37.5</ele>
        <time>2020-02-21T14:08:58Z</time>
      </trkpt>
      <trkpt lat="38.9112000" lon="1.2274430">
        <ele>36.8</ele>
        <time>2020-02-21T14:08:59Z</time>
      </trkpt>
      <trkpt lat="38.9112580" lon="1.2273630">
        <ele>36.2</ele>
        <time>2020-02-21T14:09:00Z</time>
      </trkpt>
      <trkpt lat="38.9113260" lon="1.2273010">
        <ele>35.3</ele>
        <time>2020-02-21T14:09:01Z</time>
      </trkpt>
      <trkpt lat="38.9114000" lon="1.2272460">
        <ele>34.5</ele>
        <time>2020-02-21T14:09:02Z</time>
      </trkpt>
      <trkpt lat="38.9114700" lon="1.2271890">
        <ele>33.8</ele>
        <time>2020-02-21T14:09:03Z</time>
      </trkpt>
      <trkpt lat="38.9115300" lon="1.2271240">
        <ele>32.8</ele>
        <time>2020-02-21T14:09:04Z</time>
      </trkpt>
      <trkpt lat="38.9116030" lon="1.2270640">
        <ele>31.8</ele>
        <time>2020-02-21T14:09:05Z</time>
      </trkpt>
      <trkpt lat="38.9116670" lon="1.2269940">
        <ele>30.8</ele>
        <time>2020-02-21T14:09:06Z</time>
      </trkpt>
      <trkpt lat="38.9117280" lon="1.2269220">
        <ele>29.7</ele>
        <time>2020-02-21T14:09:07Z</time>
      </trkpt>
      <trkpt lat="38.9117900" lon="1.2268520">
        <ele>29.4</ele>
        <time>2020-02-21T14:09:08Z</time>
      </trkpt>
      <trkpt lat="38.9118570" lon="1.2267830">
        <ele>29.1</ele>
        <time>2020-02-21T14:09:09Z</time>
      </trkpt>
      <trkpt lat="38.9119250" lon="1.2267210">
        <ele>28.7</ele>
        <time>2020-02-21T14:09:10Z</time>
      </trkpt>
      <trkpt lat="38.9119950" lon="1.2266700">
        <ele>28.3</ele>
        <time>2020-02-21T14:09:11Z</time>
      </trkpt>
      <trkpt lat="38.9120720" lon="1.2266330">
        <ele>27.9</ele>
        <time>2020-02-21T14:09:12Z</time>
      </trkpt>
      <trkpt lat="38.9121490" lon="1.2265980">
        <ele>27.3</ele>
        <time>2020-02-21T14:09:13Z</time>
      </trkpt>
      <trkpt lat="38.9122240" lon="1.2265710">
        <ele>26.8</ele>
        <time>2020-02-21T14:09:14Z</time>
      </trkpt>
      <trkpt lat="38.9122950" lon="1.2265360">
        <ele>26.3</ele>
        <time>2020-02-21T14:09:15Z</time>
      </trkpt>
      <trkpt lat="38.9123630" lon="1.2264900">
        <ele>25.8</ele>
        <time>2020-02-21T14:09:16Z</time>
      </trkpt>
      <trkpt lat="38.9124270" lon="1.2264280">
        <ele>25.2</ele>
        <time>2020-02-21T14:09:17Z</time>
      </trkpt>
      <trkpt lat="38.9124920" lon="1.2263870">
        <ele>24.6</ele>
        <time>2020-02-21T14:09:18Z</time>
      </trkpt>
      <trkpt lat="38.9125580" lon="1.2263550">
        <ele>24.1</ele>
        <time>2020-02-21T14:09:19Z</time>
      </trkpt>
      <trkpt lat="38.9126210" lon="1.2263330">
        <ele>23.7</ele>
        <time>2020-02-21T14:09:20Z</time>
      </trkpt>
      <trkpt lat="38.9126860" lon="1.2263170">
        <ele>23.2</ele>
        <time>2020-02-21T14:09:21Z</time>
      </trkpt>
      <trkpt lat="38.9127380" lon="1.2262780">
        <ele>22.8</ele>
        <time>2020-02-21T14:09:22Z</time>
      </trkpt>
      <trkpt lat="38.9127810" lon="1.2262280">
        <ele>22.5</ele>
        <time>2020-02-21T14:09:23Z</time>
      </trkpt>
      <trkpt lat="38.9128180" lon="1.2261720">
        <ele>22.1</ele>
        <time>2020-02-21T14:09:24Z</time>
      </trkpt>
      <trkpt lat="38.9128480" lon="1.2261100">
        <ele>21.7</ele>
        <time>2020-02-21T14:09:25Z</time>
      </trkpt>
      <trkpt lat="38.9128870" lon="1.2260590">
        <ele>21.3</ele>
        <time>2020-02-21T14:09:26Z</time>
      </trkpt>
      <trkpt lat="38.9129290" lon="1.2260080">
        <ele>20.8</ele>
        <time>2020-02-21T14:09:27Z</time>
      </trkpt>
      <trkpt lat="38.9129740" lon="1.2259590">
        <ele>20.3</ele>
        <time>2020-02-21T14:09:28Z</time>
      </trkpt>
      <trkpt lat="38.9130120" lon="1.2259080">
        <ele>19.8</ele>
        <time>2020-02-21T14:09:29Z</time>
      </trkpt>
      <trkpt lat="38.9130460" lon="1.2258540">
        <ele>19.4</ele>
        <time>2020-02-21T14:09:30Z</time>
      </trkpt>
      <trkpt lat="38.9130740" lon="1.2257850">
        <ele>18.9</ele>
        <time>2020-02-21T14:09:31Z</time>
      </trkpt>
      <trkpt lat="38.9130990" lon="1.2257030">
        <ele>18.5</ele>
        <time>2020-02-21T14:09:32Z</time>
      </trkpt>
      <trkpt lat="38.9130990" lon="1.2256370">
        <ele>18.2</ele>
        <time>2020-02-21T14:09:33Z</time>
      </trkpt>
      <trkpt lat="38.9130890" lon="1.2255840">
        <ele>17.9</ele>
        <time>2020-02-21T14:09:34Z</time>
      </trkpt>
      <trkpt lat="38.9130750" lon="1.2255390">
        <ele>17.7</ele>
        <time>2020-02-21T14:09:35Z</time>
      </trkpt>
      <trkpt lat="38.9130680" lon="1.2255260">
        <ele>17.6</ele>
        <time>2020-02-21T14:09:36Z</time>
      </trkpt>
      <trkpt lat="38.9130670" lon="1.2255040">
        <ele>17.5</ele>
        <time>2020-02-21T14:09:37Z</time>
      </trkpt>
      <trkpt lat="38.9130670" lon="1.2254870">
        <ele>17.5</ele>
        <time>2020-02-21T14:09:38Z</time>
      </trkpt>
      <trkpt lat="38.9130920" lon="1.2254820">
        <ele>17.3</ele>
        <time>2020-02-21T14:09:39Z</time>
      </trkpt>
      <trkpt lat="38.9131090" lon="1.2254880">
        <ele>17.2</ele>
        <time>2020-02-21T14:09:40Z</time>
      </trkpt>
      <trkpt lat="38.9131270" lon="1.2254940">
        <ele>17.1</ele>
        <time>2020-02-21T14:09:41Z</time>
      </trkpt>
      <trkpt lat="38.9131760" lon="1.2254970">
        <ele>16.9</ele>
        <time>2020-02-21T14:09:42Z</time>
      </trkpt>
      <trkpt lat="38.9132210" lon="1.2255100">
        <ele>16.7</ele>
        <time>2020-02-21T14:09:43Z</time>
      </trkpt>
      <trkpt lat="38.9132550" lon="1.2255360">
        <ele>16.5</ele>
        <time>2020-02-21T14:09:44Z</time>
      </trkpt>
      <trkpt lat="38.9132860" lon="1.2255690">
        <ele>16.3</ele>
        <time>2020-02-21T14:09:45Z</time>
      </trkpt>
      <trkpt lat="38.9133170" lon="1.2256060">
        <ele>16.1</ele>
        <time>2020-02-21T14:09:46Z</time>
      </trkpt>
      <trkpt lat="38.9133340" lon="1.2256490">
        <ele>15.9</ele>
        <time>2020-02-21T14:09:47Z</time>
      </trkpt>
      <trkpt lat="38.9133690" lon="1.2256640">
        <ele>15.8</ele>
        <time>2020-02-21T14:09:48Z</time>
      </trkpt>
      <trkpt lat="38.9133820" lon="1.2256630">
        <ele>15.7</ele>
        <time>2020-02-21T14:09:49Z</time>
      </trkpt>
      <trkpt lat="38.9133960" lon="1.2256110">
        <ele>15.5</ele>
        <time>2020-02-21T14:09:50Z</time>
      </trkpt>
      <trkpt lat="38.9133920" lon="1.2255490">
        <ele>15.2</ele>
        <time>2020-02-21T14:09:51Z</time>
      </trkpt>
      <trkpt lat="38.9134020" lon="1.2254860">
        <ele>15.0</ele>
        <time>2020-02-21T14:09:52Z</time>
      </trkpt>
      <trkpt lat="38.9134180" lon="1.2254150">
        <ele>14.7</ele>
        <time>2020-02-21T14:09:53Z</time>
      </trkpt>
      <trkpt lat="38.9134260" lon="1.2253510">
        <ele>14.6</ele>
        <time>2020-02-21T14:09:54Z</time>
      </trkpt>
      <trkpt lat="38.9134340" lon="1.2252850">
        <ele>14.4</ele>
        <time>2020-02-21T14:09:55Z</time>
      </trkpt>
      <trkpt lat="38.9134450" lon="1.2252170">
        <ele>14.2</ele>
        <time>2020-02-21T14:09:56Z</time>
      </trkpt>
      <trkpt lat="38.9134550" lon="1.2251590">
        <ele>14.0</ele>
        <time>2020-02-21T14:09:57Z</time>
      </trkpt>
      <trkpt lat="38.9134270" lon="1.2251480">
        <ele>13.9</ele>
        <time>2020-02-21T14:09:58Z</time>
      </trkpt>
      <trkpt lat="38.9133950" lon="1.2251370">
        <ele>13.8</ele>
        <time>2020-02-21T14:09:59Z</time>
      </trkpt>
      <trkpt lat="38.9133550" lon="1.2251440">
        <ele>13.7</ele>
        <time>2020-02-21T14:10:00Z</time>
      </trkpt>
      <trkpt lat="38.9132980" lon="1.2251540">
        <ele>13.6</ele>
        <time>2020-02-21T14:10:01Z</time>
      </trkpt>
      <trkpt lat="38.9132390" lon="1.2251520">
        <ele>13.4</ele>
        <time>2020-02-21T14:10:02Z</time>
      </trkpt>
      <trkpt lat="38.9131800" lon="1.2251430">
        <ele>13.4</ele>
        <time>2020-02-21T14:10:03Z</time>
      </trkpt>
      <trkpt lat="38.9131300" lon="1.2251360">
        <ele>13.3</ele>
        <time>2020-02-21T14:10:04Z</time>
      </trkpt>
      <trkpt lat="38.9130770" lon="1.2251090">
        <ele>13.2</ele>
        <time>2020-02-21T14:10:05Z</time>
      </trkpt>
      <trkpt lat="38.9130170" lon="1.2251030">
        <ele>13.0</ele>
        <time>2020-02-21T14:10:06Z</time>
      </trkpt>
      <trkpt lat="38.9129720" lon="1.2251260">
        <ele>12.9</ele>
        <time>2020-02-21T14:10:07Z</time>
      </trkpt>
      <trkpt lat="38.9129310" lon="1.2251390">
        <ele>12.7</ele>
        <time>2020-02-21T14:10:08Z</time>
      </trkpt>
      <trkpt lat="38.9128890" lon="1.2251460">
        <ele>12.6</ele>
        <time>2020-02-21T14:10:09Z</time>
      </trkpt>
      <trkpt lat="38.9128480" lon="1.2251500">
        <ele>12.5</ele>
        <time>2020-02-21T14:10:10Z</time>
      </trkpt>
      <trkpt lat="38.9128200" lon="1.2251600">
        <ele>12.3</ele>
        <time>2020-02-21T14:10:11Z</time>
      </trkpt>
      <trkpt lat="38.9128060" lon="1.2251970">
        <ele>12.3</ele>
        <time>2020-02-21T14:10:12Z</time>
      </trkpt>
      <trkpt lat="38.9128010" lon="1.2252140">
        <ele>12.3</ele>
        <time>2020-02-21T14:10:13Z</time>
      </trkpt>
      <trkpt lat="38.9127930" lon="1.2251960">
        <ele>12.3</ele>
        <time>2020-02-21T14:10:14Z</time>
      </trkpt>
      <trkpt lat="38.9127850" lon="1.2251850">
        <ele>12.3</ele>
        <time>2020-02-21T14:10:15Z</time>
      </trkpt>
      <trkpt lat="38.9127770" lon="1.2251730">
        <ele>12.3</ele>
        <time>2020-02-21T14:10:16Z</time>
      </trkpt>
      <trkpt lat="38.9127690" lon="1.2251620">
        <ele>12.3</ele>
        <time>2020-02-21T14:10:17Z</time>
      </trkpt>
      <trkpt lat="38.9127610" lon="1.2251510">
        <ele>12.3</ele>
        <time>2020-02-21T14:10:18Z</time>
      </trkpt>
      <trkpt lat="38.9127860" lon="1.2251190">
        <ele>12.3</ele>
        <time>2020-02-21T14:10:19Z</time>
      </trkpt>
      <trkpt lat="38.9128220" lon="1.2250910">
        <ele>12.3</ele>
        <time>2020-02-21T14:10:20Z</time>
      </trkpt>
      <trkpt lat="38.9128640" lon="1.2250690">
        <ele>12.2</ele>
        <time>2020-02-21T14:10:21Z</time>
      </trkpt>
      <trkpt lat="38.9128800" lon="1.2250270">
        <ele>12.2</ele>
        <time>2020-02-21T14:10:22Z</time>
      </trkpt>
      <trkpt lat="38.9129290" lon="1.2250040">
        <ele>12.2</ele>
        <time>2020-02-21T14:10:23Z</time>
      </trkpt>
      <trkpt lat="38.9129770" lon="1.2249820">
        <ele>12.2</ele>
        <time>2020-02-21T14:10:24Z</time>
      </trkpt>
      <trkpt lat="38.9130210" lon="1.2249610">
        <ele>12.2</ele>
        <time>2020-02-21T14:10:25Z</time>
      </trkpt>
      <trkpt lat="38.9130470" lon="1.2249220">
        <ele>12.2</ele>
        <time>2020-02-21T14:10:26Z</time>
      </trkpt>
      <trkpt lat="38.9130790" lon="1.2249000">
        <ele>12.2</ele>
        <time>2020-02-21T14:10:27Z</time>
      </trkpt>
      <trkpt lat="38.9131100" lon="1.2248820">
        <ele>12.2</ele>
        <time>2020-02-21T14:10:28Z</time>
      </trkpt>
      <trkpt lat="38.9131410" lon="1.2248640">
        <ele>12.2</ele>
        <time>2020-02-21T14:10:29Z</time>
      </trkpt>
      <trkpt lat="38.9131700" lon="1.2248480">
        <ele>12.2</ele>
        <time>2020-02-21T14:10:30Z</time>
      </trkpt>
      <trkpt lat="38.9132040" lon="1.2248220">
        <ele>12.2</ele>
        <time>2020-02-21T14:10:31Z</time>
      </trkpt>
      <trkpt lat="38.9132380" lon="1.2248020">
        <ele>12.2</ele>
        <time>2020-02-21T14:10:32Z</time>
      </trkpt>
      <trkpt lat="38.9132710" lon="1.2247940">
        <ele>12.2</ele>
        <time>2020-02-21T14:10:33Z</time>
      </trkpt>
      <trkpt lat="38.9132820" lon="1.2247900">
        <ele>12.2</ele>
        <time>2020-02-21T14:10:34Z</time>
      </trkpt>
      <trkpt lat="38.9133020" lon="1.2247810">
        <ele>12.2</ele>
        <time>2020-02-21T14:10:35Z</time>
      </trkpt>
      <trkpt lat="38.9132950" lon="1.2247810">
        <ele>12.1</ele>
        <time>2020-02-21T14:10:36Z</time>
      </trkpt>
      <trkpt lat="38.9132770" lon="1.2247780">
        <ele>12.1</ele>
        <time>2020-02-21T14:10:37Z</time>
      </trkpt>
      <trkpt lat="38.9132620" lon="1.2247550">
        <ele>12.1</ele>
        <time>2020-02-21T14:10:38Z</time>
      </trkpt>
      <trkpt lat="38.9132530" lon="1.2247300">
        <ele>12.1</ele>
        <time>2020-02-21T14:10:39Z</time>
      </trkpt>
      <trkpt lat="38.9132500" lon="1.2247240">
        <ele>12.1</ele>
        <time>2020-02-21T14:10:40Z</time>
      </trkpt>
      <trkpt lat="38.9132470" lon="1.2247210">
        <ele>12.1</ele>
        <time>2020-02-21T14:10:41Z</time>
      </trkpt>
      <trkpt lat="38.9132480" lon="1.2247210">
        <ele>12.1</ele>
        <time>2020-02-21T14:10:42Z</time>
      </trkpt>
      <trkpt lat="38.9132470" lon="1.2247010">
        <ele>12.1</ele>
        <time>2020-02-21T14:10:43Z</time>
      </trkpt>
      <trkpt lat="38.9132550" lon="1.2246830">
        <ele>12.1</ele>
        <time>2020-02-21T14:10:44Z</time>
      </trkpt>
      <trkpt lat="38.9132740" lon="1.2246570">
        <ele>12.1</ele>
        <time>2020-02-21T14:10:45Z</time>
      </trkpt>
      <trkpt lat="38.9132890" lon="1.2246300">
        <ele>12.1</ele>
        <time>2020-02-21T14:10:46Z</time>
      </trkpt>
      <trkpt lat="38.9132880" lon="1.2246250">
        <ele>12.1</ele>
        <time>2020-02-21T14:10:47Z</time>
      </trkpt>
      <trkpt lat="38.9132990" lon="1.2246150">
        <ele>12.1</ele>
        <time>2020-02-21T14:10:48Z</time>
      </trkpt>
      <trkpt lat="38.9132880" lon="1.2245940">
        <ele>12.1</ele>
        <time>2020-02-21T14:10:49Z</time>
      </trkpt>
      <trkpt lat="38.9132960" lon="1.2245800">
        <ele>12.1</ele>
        <time>2020-02-21T14:10:50Z</time>
      </trkpt>
      <trkpt lat="38.9133010" lon="1.2245630">
        <ele>12.1</ele>
        <time>2020-02-21T14:10:51Z</time>
      </trkpt>
      <trkpt lat="38.9133030" lon="1.2245520">
        <ele>12.1</ele>
        <time>2020-02-21T14:10:52Z</time>
      </trkpt>
      <trkpt lat="38.9133060" lon="1.2245400">
        <ele>12.1</ele>
        <time>2020-02-21T14:10:53Z</time>
      </trkpt>
      <trkpt lat="38.9133080" lon="1.2245290">
        <ele>12.1</ele>
        <time>2020-02-21T14:10:54Z</time>
      </trkpt>
      <trkpt lat="38.9133100" lon="1.2245170">
        <ele>12.1</ele>
        <time>2020-02-21T14:10:55Z</time>
      </trkpt>
      <trkpt lat="38.9133120" lon="1.2245060">
        <ele>12.1</ele>
        <time>2020-02-21T14:10:56Z</time>
      </trkpt>
      <trkpt lat="38.9133140" lon="1.2244940">
        <ele>12.1</ele>
        <time>2020-02-21T14:10:57Z</time>
      </trkpt>
      <trkpt lat="38.9133160" lon="1.2244820">
        <ele>12.1</ele>
        <time>2020-02-21T14:10:58Z</time>
      </trkpt>
      <trkpt lat="38.9133190" lon="1.2244710">
        <ele>12.1</ele>
        <time>2020-02-21T14:10:59Z</time>
      </trkpt>
      <trkpt lat="38.9133210" lon="1.2244590">
        <ele>12.1</ele>
        <time>2020-02-21T14:31:04Z</time>
      </trkpt>
      <trkpt lat="38.9133230" lon="1.2244480">
        <ele>12.1</ele>
        <time>2020-02-21T14:31:05Z</time>
      </trkpt>
      <trkpt lat="38.9133250" lon="1.2244360">
        <ele>12.1</ele>
        <time>2020-02-21T14:31:06Z</time>
      </trkpt>
      <trkpt lat="38.9133370" lon="1.2244300">
        <ele>12.1</ele>
        <time>2020-02-21T14:31:07Z</time>
      </trkpt>
      <trkpt lat="38.9133420" lon="1.2244250">
        <ele>12.1</ele>
        <time>2020-02-21T14:31:08Z</time>
      </trkpt>
      <trkpt lat="38.9133480" lon="1.2244210">
        <ele>12.1</ele>
        <time>2020-02-21T14:31:09Z</time>
      </trkpt>
      <trkpt lat="38.9133530" lon="1.2244160">
        <ele>12.1</ele>
        <time>2020-02-21T14:31:10Z</time>
      </trkpt>
      <trkpt lat="38.9133590" lon="1.2244120">
        <ele>12.1</ele>
        <time>2020-02-21T14:31:11Z</time>
      </trkpt>
      <trkpt lat="38.9133770" lon="1.2244100">
        <ele>12.1</ele>
        <time>2020-02-21T14:31:12Z</time>
      </trkpt>
      <trkpt lat="38.9133900" lon="1.2244120">
        <ele>12.1</ele>
        <time>2020-02-21T14:31:13Z</time>
      </trkpt>
      <trkpt lat="38.9133990" lon="1.2244110">
        <ele>12.1</ele>
        <time>2020-02-21T14:31:14Z</time>
      </trkpt>
      <trkpt lat="38.9134080" lon="1.2244050">
        <ele>12.1</ele>
        <time>2020-02-21T14:31:15Z</time>
      </trkpt>
      <trkpt lat="38.9134160" lon="1.2244010">
        <ele>12.1</ele>
        <time>2020-02-21T14:31:16Z</time>
      </trkpt>
      <trkpt lat="38.9134110" lon="1.2244000">
        <ele>12.1</ele>
        <time>2020-02-21T14:31:17Z</time>
      </trkpt>
      <trkpt lat="38.9134070" lon="1.2244050">
        <ele>12.1</ele>
        <time>2020-02-21T14:31:18Z</time>
      </trkpt>
      <trkpt lat="38.9134040" lon="1.2244100">
        <ele>12.1</ele>
        <time>2020-02-21T14:31:19Z</time>
      </trkpt>
      <trkpt lat="38.9134000" lon="1.2244150">
        <ele>12.1</ele>
        <time>2020-02-21T14:31:20Z</time>
      </trkpt>
      <trkpt lat="38.9133960" lon="1.2244200">
        <ele>12.1</ele>
        <time>2020-02-21T14:31:21Z</time>
      </trkpt>
      <trkpt lat="38.9133920" lon="1.2244250">
        <ele>12.1</ele>
        <time>2020-02-21T14:31:22Z</time>
      </trkpt>
      <trkpt lat="38.9133880" lon="1.2244300">
        <ele>12.1</ele>
        <time>2020-02-21T14:31:23Z</time>
      </trkpt>
      <trkpt lat="38.9133850" lon="1.2244340">
        <ele>12.1</ele>
        <time>2020-02-21T14:31:24Z</time>
      </trkpt>
      <trkpt lat="38.9133810" lon="1.2244390">
        <ele>12.1</ele>
        <time>2020-02-21T14:31:25Z</time>
      </trkpt>
      <trkpt lat="38.9133770" lon="1.2244440">
        <ele>12.1</ele>
        <time>2020-02-21T14:31:26Z</time>
      </trkpt>
      <trkpt lat="38.9133730" lon="1.2244490">
        <ele>12.1</ele>
        <time>2020-02-21T14:31:27Z</time>
      </trkpt>
      <trkpt lat="38.9133690" lon="1.2244540">
        <ele>12.1</ele>
        <time>2020-02-21T14:31:28Z</time>
      </trkpt>
      <trkpt lat="38.9133660" lon="1.2244590">
        <ele>12.1</ele>
        <time>2020-02-21T14:44:33Z</time>
      </trkpt>
      <trkpt lat="38.9133620" lon="1.2244640">
        <ele>12.1</ele>
        <time>2020-02-21T14:44:34Z</time>
      </trkpt>
      <trkpt lat="38.9133580" lon="1.2244690">
        <ele>12.1</ele>
        <time>2020-02-21T14:44:35Z</time>
      </trkpt>
      <trkpt lat="38.9133410" lon="1.2244790">
        <ele>12.1</ele>
        <time>2020-02-21T14:44:36Z</time>
      </trkpt>
      <trkpt lat="38.9133290" lon="1.2244820">
        <ele>12.1</ele>
        <time>2020-02-21T14:44:37Z</time>
      </trkpt>
      <trkpt lat="38.9133030" lon="1.2245060">
        <ele>12.0</ele>
        <time>2020-02-21T14:44:38Z</time>
      </trkpt>
      <trkpt lat="38.9132950" lon="1.2245100">
        <ele>12.0</ele>
        <time>2020-02-21T14:44:39Z</time>
      </trkpt>
      <trkpt lat="38.9132840" lon="1.2245170">
        <ele>12.0</ele>
        <time>2020-02-21T14:44:40Z</time>
      </trkpt>
      <trkpt lat="38.9132810" lon="1.2245200">
        <ele>12.0</ele>
        <time>2020-02-21T14:44:41Z</time>
      </trkpt>
      <trkpt lat="38.9132820" lon="1.2245190">
        <ele>12.0</ele>
        <time>2020-02-21T14:44:42Z</time>
      </trkpt>
      <trkpt lat="38.9132800" lon="1.2245190">
        <ele>12.0</ele>
        <time>2020-02-21T14:44:43Z</time>
      </trkpt>
      <trkpt lat="38.9132770" lon="1.2245210">
        <ele>12.0</ele>
        <time>2020-02-21T14:44:44Z</time>
      </trkpt>
      <trkpt lat="38.9132780" lon="1.2245210">
        <ele>12.0</ele>
        <time>2020-02-21T14:44:45Z</time>
      </trkpt>
      <trkpt lat="38.9132780" lon="1.2245200">
        <ele>12.0</ele>
        <time>2020-02-21T14:44:46Z</time>
      </trkpt>
      <trkpt lat="38.9132780" lon="1.2245210">
        <ele>12.0</ele>
        <time>2020-02-21T14:44:47Z</time>
      </trkpt>
      <trkpt lat="38.9132780" lon="1.2245210">
        <ele>12.0</ele>
        <time>2020-02-21T14:44:48Z</time>
      </trkpt>
      <trkpt lat="38.9132780" lon="1.2245210">
        <ele>12.0</ele>
        <time>2020-02-21T14:44:49Z</time>
      </trkpt>
      <trkpt lat="38.9132790" lon="1.2245220">
        <ele>12.0</ele>
        <time>2020-02-21T14:44:50Z</time>
      </trkpt>
      <trkpt lat="38.9132790" lon="1.2245220">
        <ele>12.0</ele>
        <time>2020-02-21T14:44:51Z</time>
      </trkpt>
      <trkpt lat="38.9132790" lon="1.2245220">
        <ele>12.0</ele>
        <time>2020-02-21T14:44:52Z</time>
      </trkpt>
      <trkpt lat="38.9132790" lon="1.2245220">
        <ele>12.0</ele>
        <time>2020-02-21T14:44:53Z</time>
      </trkpt>
      <trkpt lat="38.9132790" lon="1.2245220">
        <ele>12.0</ele>
        <time>2020-02-21T14:44:54Z</time>
      </trkpt>
      <trkpt lat="38.9133670" lon="1.2245080">
        <ele>12.0</ele>
        <time>2020-02-21T14:54:07Z</time>
      </trkpt>
      <trkpt lat="38.9134020" lon="1.2245130">
        <ele>12.0</ele>
        <time>2020-02-21T14:54:08Z</time>
      </trkpt>
      <trkpt lat="38.9134460" lon="1.2245220">
        <ele>12.0</ele>
        <time>2020-02-21T14:54:09Z</time>
      </trkpt>
      <trkpt lat="38.9134860" lon="1.2245230">
        <ele>12.0</ele>
        <time>2020-02-21T14:54:10Z</time>
      </trkpt>
      <trkpt lat="38.9135270" lon="1.2245240">
        <ele>12.0</ele>
        <time>2020-02-21T14:54:11Z</time>
      </trkpt>
      <trkpt lat="38.9135760" lon="1.2245300">
        <ele>12.0</ele>
        <time>2020-02-21T14:54:12Z</time>
      </trkpt>
      <trkpt lat="38.9136260" lon="1.2245380">
        <ele>12.0</ele>
        <time>2020-02-21T14:54:13Z</time>
      </trkpt>
      <trkpt lat="38.9136740" lon="1.2245450">
        <ele>12.0</ele>
        <time>2020-02-21T14:54:14Z</time>
      </trkpt>
      <trkpt lat="38.9137190" lon="1.2245560">
        <ele>12.0</ele>
        <time>2020-02-21T14:54:15Z</time>
      </trkpt>
      <trkpt lat="38.9137570" lon="1.2245720">
        <ele>12.0</ele>
        <time>2020-02-21T14:54:16Z</time>
      </trkpt>
      <trkpt lat="38.9137820" lon="1.2245900">
        <ele>12.0</ele>
        <time>2020-02-21T14:54:17Z</time>
      </trkpt>
      <trkpt lat="38.9138050" lon="1.2246140">
        <ele>12.0</ele>
        <time>2020-02-21T14:54:18Z</time>
      </trkpt>
      <trkpt lat="38.9138070" lon="1.2246640">
        <ele>12.0</ele>
        <time>2020-02-21T14:54:19Z</time>
      </trkpt>
      <trkpt lat="38.9138150" lon="1.2247160">
        <ele>12.0</ele>
        <time>2020-02-21T14:54:20Z</time>
      </trkpt>
      <trkpt lat="38.9138200" lon="1.2247630">
        <ele>12.0</ele>
        <time>2020-02-21T14:54:21Z</time>
      </trkpt>
      <trkpt lat="38.9138230" lon="1.2248190">
        <ele>12.1</ele>
        <time>2020-02-21T14:54:22Z</time>
      </trkpt>
      <trkpt lat="38.9138290" lon="1.2248700">
        <ele>12.1</ele>
        <time>2020-02-21T14:54:23Z</time>
      </trkpt>
      <trkpt lat="38.9138360" lon="1.2249280">
        <ele>12.2</ele>
        <time>2020-02-21T14:54:24Z</time>
      </trkpt>
      <trkpt lat="38.9138460" lon="1.2249820">
        <ele>12.2</ele>
        <time>2020-02-21T14:54:25Z</time>
      </trkpt>
      <trkpt lat="38.9138610" lon="1.2250320">
        <ele>12.3</ele>
        <time>2020-02-21T14:54:26Z</time>
      </trkpt>
      <trkpt lat="38.9138740" lon="1.2250780">
        <ele>12.4</ele>
        <time>2020-02-21T14:54:27Z</time>
      </trkpt>
      <trkpt lat="38.9138940" lon="1.2251130">
        <ele>12.5</ele>
        <time>2020-02-21T14:54:28Z</time>
      </trkpt>
      <trkpt lat="38.9139160" lon="1.2251470">
        <ele>12.6</ele>
        <time>2020-02-21T14:54:29Z</time>
      </trkpt>
      <trkpt lat="38.9139290" lon="1.2251880">
        <ele>12.7</ele>
        <time>2020-02-21T14:54:30Z</time>
      </trkpt>
      <trkpt lat="38.9139400" lon="1.2252280">
        <ele>12.9</ele>
        <time>2020-02-21T14:54:31Z</time>
      </trkpt>
      <trkpt lat="38.9139570" lon="1.2252590">
        <ele>12.9</ele>
        <time>2020-02-21T14:54:32Z</time>
      </trkpt>
      <trkpt lat="38.9139990" lon="1.2252700">
        <ele>13.2</ele>
        <time>2020-02-21T14:54:33Z</time>
      </trkpt>
      <trkpt lat="38.9140170" lon="1.2252640">
        <ele>13.3</ele>
        <time>2020-02-21T14:54:34Z</time>
      </trkpt>
      <trkpt lat="38.9140500" lon="1.2252290">
        <ele>13.5</ele>
        <time>2020-02-21T14:54:35Z</time>
      </trkpt>
      <trkpt lat="38.9140740" lon="1.2251980">
        <ele>13.7</ele>
        <time>2020-02-21T14:54:36Z</time>
      </trkpt>
      <trkpt lat="38.9140970" lon="1.2251670">
        <ele>13.9</ele>
        <time>2020-02-21T14:54:37Z</time>
      </trkpt>
      <trkpt lat="38.9141230" lon="1.2251430">
        <ele>14.1</ele>
        <time>2020-02-21T14:54:38Z</time>
      </trkpt>
      <trkpt lat="38.9141600" lon="1.2251060">
        <ele>14.3</ele>
        <time>2020-02-21T14:54:39Z</time>
      </trkpt>
      <trkpt lat="38.9141940" lon="1.2250620">
        <ele>14.6</ele>
        <time>2020-02-21T14:54:40Z</time>
      </trkpt>
      <trkpt lat="38.9142410" lon="1.2250200">
        <ele>15.0</ele>
        <time>2020-02-21T14:54:41Z</time>
      </trkpt>
      <trkpt lat="38.9142860" lon="1.2249880">
        <ele>15.3</ele>
        <time>2020-02-21T14:54:42Z</time>
      </trkpt>
      <trkpt lat="38.9143330" lon="1.2249500">
        <ele>15.7</ele>
        <time>2020-02-21T14:54:43Z</time>
      </trkpt>
      <trkpt lat="38.9143710" lon="1.2249090">
        <ele>16.0</ele>
        <time>2020-02-21T14:54:44Z</time>
      </trkpt>
      <trkpt lat="38.9143990" lon="1.2248660">
        <ele>16.3</ele>
        <time>2020-02-21T14:54:45Z</time>
      </trkpt>
      <trkpt lat="38.9144270" lon="1.2248280">
        <ele>16.6</ele>
        <time>2020-02-21T14:54:46Z</time>
      </trkpt>
      <trkpt lat="38.9144560" lon="1.2247910">
        <ele>16.9</ele>
        <time>2020-02-21T14:54:47Z</time>
      </trkpt>
      <trkpt lat="38.9144710" lon="1.2247590">
        <ele>17.1</ele>
        <time>2020-02-21T14:54:48Z</time>
      </trkpt>
      <trkpt lat="38.9144850" lon="1.2247150">
        <ele>17.3</ele>
        <time>2020-02-21T14:54:49Z</time>
      </trkpt>
      <trkpt lat="38.9144960" lon="1.2246710">
        <ele>17.6</ele>
        <time>2020-02-21T14:54:50Z</time>
      </trkpt>
      <trkpt lat="38.9145050" lon="1.2246290">
        <ele>17.8</ele>
        <time>2020-02-21T14:54:51Z</time>
      </trkpt>
      <trkpt lat="38.9145040" lon="1.2245860">
        <ele>18.1</ele>
        <time>2020-02-21T14:54:52Z</time>
      </trkpt>
      <trkpt lat="38.9144980" lon="1.2245430">
        <ele>18.3</ele>
        <time>2020-02-21T14:54:53Z</time>
      </trkpt>
      <trkpt lat="38.9145000" lon="1.2244970">
        <ele>18.6</ele>
        <time>2020-02-21T14:54:54Z</time>
      </trkpt>
      <trkpt lat="38.9145010" lon="1.2244590">
        <ele>18.8</ele>
        <time>2020-02-21T14:54:55Z</time>
      </trkpt>
      <trkpt lat="38.9145090" lon="1.2244210">
        <ele>19.0</ele>
        <time>2020-02-21T14:54:56Z</time>
      </trkpt>
      <trkpt lat="38.9145130" lon="1.2243860">
        <ele>19.2</ele>
        <time>2020-02-21T14:54:57Z</time>
      </trkpt>
      <trkpt lat="38.9145150" lon="1.2243460">
        <ele>19.4</ele>
        <time>2020-02-21T14:54:58Z</time>
      </trkpt>
      <trkpt lat="38.9145150" lon="1.2243340">
        <ele>19.5</ele>
        <time>2020-02-21T14:54:59Z</time>
      </trkpt>
      <trkpt lat="38.9145120" lon="1.2242990">
        <ele>19.7</ele>
        <time>2020-02-21T14:55:00Z</time>
      </trkpt>
      <trkpt lat="38.9145060" lon="1.2242540">
        <ele>19.9</ele>
        <time>2020-02-21T14:55:01Z</time>
      </trkpt>
      <trkpt lat="38.9145040" lon="1.2242390">
        <ele>20.0</ele>
        <time>2020-02-21T14:55:02Z</time>
      </trkpt>
      <trkpt lat="38.9145050" lon="1.2241970">
        <ele>20.2</ele>
        <time>2020-02-21T14:55:03Z</time>
      </trkpt>
      <trkpt lat="38.9145070" lon="1.2241830">
        <ele>20.3</ele>
        <time>2020-02-21T14:55:04Z</time>
      </trkpt>
      <trkpt lat="38.9145200" lon="1.2241390">
        <ele>20.5</ele>
        <time>2020-02-21T14:55:05Z</time>
      </trkpt>
      <trkpt lat="38.9145250" lon="1.2241240">
        <ele>20.6</ele>
        <time>2020-02-21T14:55:06Z</time>
      </trkpt>
      <trkpt lat="38.9145340" lon="1.2241030">
        <ele>20.7</ele>
        <time>2020-02-21T14:55:07Z</time>
      </trkpt>
      <trkpt lat="38.9145330" lon="1.2240860">
        <ele>20.8</ele>
        <time>2020-02-21T14:55:08Z</time>
      </trkpt>
      <trkpt lat="38.9145460" lon="1.2240490">
        <ele>21.0</ele>
        <time>2020-02-21T14:55:09Z</time>
      </trkpt>
      <trkpt lat="38.9145510" lon="1.2240380">
        <ele>21.0</ele>
        <time>2020-02-21T14:55:10Z</time>
      </trkpt>
      <trkpt lat="38.9145550" lon="1.2240120">
        <ele>21.2</ele>
        <time>2020-02-21T14:55:11Z</time>
      </trkpt>
      <trkpt lat="38.9145520" lon="1.2239950">
        <ele>21.2</ele>
        <time>2020-02-21T14:55:12Z</time>
      </trkpt>
      <trkpt lat="38.9145600" lon="1.2239480">
        <ele>21.5</ele>
        <time>2020-02-21T14:55:13Z</time>
      </trkpt>
      <trkpt lat="38.9145630" lon="1.2239340">
        <ele>21.5</ele>
        <time>2020-02-21T14:55:14Z</time>
      </trkpt>
      <trkpt lat="38.9145740" lon="1.2238890">
        <ele>21.7</ele>
        <time>2020-02-21T14:55:15Z</time>
      </trkpt>
      <trkpt lat="38.9145770" lon="1.2238760">
        <ele>21.8</ele>
        <time>2020-02-21T14:55:16Z</time>
      </trkpt>
      <trkpt lat="38.9145790" lon="1.2238330">
        <ele>22.0</ele>
        <time>2020-02-21T14:55:17Z</time>
      </trkpt>
      <trkpt lat="38.9145780" lon="1.2238150">
        <ele>22.1</ele>
        <time>2020-02-21T14:55:18Z</time>
      </trkpt>
      <trkpt lat="38.9145850" lon="1.2237980">
        <ele>22.1</ele>
        <time>2020-02-21T14:55:19Z</time>
      </trkpt>
      <trkpt lat="38.9145920" lon="1.2237840">
        <ele>22.2</ele>
        <time>2020-02-21T14:55:20Z</time>
      </trkpt>
      <trkpt lat="38.9146080" lon="1.2237490">
        <ele>22.4</ele>
        <time>2020-02-21T14:55:21Z</time>
      </trkpt>
      <trkpt lat="38.9146110" lon="1.2237370">
        <ele>22.4</ele>
        <time>2020-02-21T14:55:22Z</time>
      </trkpt>
      <trkpt lat="38.9146200" lon="1.2237110">
        <ele>22.6</ele>
        <time>2020-02-21T14:55:23Z</time>
      </trkpt>
      <trkpt lat="38.9146220" lon="1.2236970">
        <ele>22.6</ele>
        <time>2020-02-21T14:55:24Z</time>
      </trkpt>
      <trkpt lat="38.9146250" lon="1.2236840">
        <ele>22.7</ele>
        <time>2020-02-21T14:55:25Z</time>
      </trkpt>
      <trkpt lat="38.9146380" lon="1.2236500">
        <ele>22.8</ele>
        <time>2020-02-21T14:55:26Z</time>
      </trkpt>
      <trkpt lat="38.9146500" lon="1.2236080">
        <ele>23.0</ele>
        <time>2020-02-21T14:55:27Z</time>
      </trkpt>
      <trkpt lat="38.9146550" lon="1.2235980">
        <ele>23.0</ele>
        <time>2020-02-21T14:55:28Z</time>
      </trkpt>
      <trkpt lat="38.9146740" lon="1.2235690">
        <ele>23.2</ele>
        <time>2020-02-21T14:55:29Z</time>
      </trkpt>
      <trkpt lat="38.9146800" lon="1.2235580">
        <ele>23.2</ele>
        <time>2020-02-21T14:55:30Z</time>
      </trkpt>
      <trkpt lat="38.9146900" lon="1.2235390">
        <ele>23.3</ele>
        <time>2020-02-21T14:55:31Z</time>
      </trkpt>
      <trkpt lat="38.9147010" lon="1.2235270">
        <ele>23.4</ele>
        <time>2020-02-21T14:55:32Z</time>
      </trkpt>
      <trkpt lat="38.9147140" lon="1.2234910">
        <ele>23.6</ele>
        <time>2020-02-21T14:55:33Z</time>
      </trkpt>
      <trkpt lat="38.9147180" lon="1.2234780">
        <ele>23.6</ele>
        <time>2020-02-21T14:55:34Z</time>
      </trkpt>
      <trkpt lat="38.9147270" lon="1.2234450">
        <ele>23.7</ele>
        <time>2020-02-21T14:55:35Z</time>
      </trkpt>
      <trkpt lat="38.9147280" lon="1.2234310">
        <ele>23.8</ele>
        <time>2020-02-21T14:55:36Z</time>
      </trkpt>
      <trkpt lat="38.9147330" lon="1.2233830">
        <ele>23.9</ele>
        <time>2020-02-21T14:55:37Z</time>
      </trkpt>
      <trkpt lat="38.9147360" lon="1.2233640">
        <ele>24.0</ele>
        <time>2020-02-21T14:55:38Z</time>
      </trkpt>
      <trkpt lat="38.9147500" lon="1.2233220">
        <ele>24.2</ele>
        <time>2020-02-21T14:55:39Z</time>
      </trkpt>
      <trkpt lat="38.9147550" lon="1.2233060">
        <ele>24.2</ele>
        <time>2020-02-21T14:55:40Z</time>
      </trkpt>
      <trkpt lat="38.9147670" lon="1.2232860">
        <ele>24.3</ele>
        <time>2020-02-21T14:55:41Z</time>
      </trkpt>
      <trkpt lat="38.9147760" lon="1.2232680">
        <ele>24.4</ele>
        <time>2020-02-21T14:55:42Z</time>
      </trkpt>
      <trkpt lat="38.9147840" lon="1.2232290">
        <ele>24.5</ele>
        <time>2020-02-21T14:55:43Z</time>
      </trkpt>
      <trkpt lat="38.9147880" lon="1.2232130">
        <ele>24.6</ele>
        <time>2020-02-21T14:55:44Z</time>
      </trkpt>
      <trkpt lat="38.9147970" lon="1.2231660">
        <ele>24.8</ele>
        <time>2020-02-21T14:55:45Z</time>
      </trkpt>
      <trkpt lat="38.9147980" lon="1.2231520">
        <ele>24.8</ele>
        <time>2020-02-21T14:55:46Z</time>
      </trkpt>
      <trkpt lat="38.9148030" lon="1.2231140">
        <ele>24.9</ele>
        <time>2020-02-21T14:55:47Z</time>
      </trkpt>
      <trkpt lat="38.9148070" lon="1.2231020">
        <ele>25.0</ele>
        <time>2020-02-21T14:55:48Z</time>
      </trkpt>
      <trkpt lat="38.9148200" lon="1.2230720">
        <ele>25.1</ele>
        <time>2020-02-21T14:55:49Z</time>
      </trkpt>
      <trkpt lat="38.9148260" lon="1.2230610">
        <ele>25.1</ele>
        <time>2020-02-21T14:55:50Z</time>
      </trkpt>
      <trkpt lat="38.9148440" lon="1.2230290">
        <ele>25.3</ele>
        <time>2020-02-21T14:55:51Z</time>
      </trkpt>
      <trkpt lat="38.9148450" lon="1.2230140">
        <ele>25.3</ele>
        <time>2020-02-21T14:55:52Z</time>
      </trkpt>
      <trkpt lat="38.9148540" lon="1.2229810">
        <ele>25.5</ele>
        <time>2020-02-21T14:55:53Z</time>
      </trkpt>
      <trkpt lat="38.9148700" lon="1.2229810">
        <ele>25.6</ele>
        <time>2020-02-21T14:55:54Z</time>
      </trkpt>
      <trkpt lat="38.9148820" lon="1.2229700">
        <ele>25.7</ele>
        <time>2020-02-21T14:55:55Z</time>
      </trkpt>
      <trkpt lat="38.9148950" lon="1.2229540">
        <ele>25.7</ele>
        <time>2020-02-21T14:55:56Z</time>
      </trkpt>
      <trkpt lat="38.9149120" lon="1.2229210">
        <ele>25.9</ele>
        <time>2020-02-21T14:55:57Z</time>
      </trkpt>
      <trkpt lat="38.9149170" lon="1.2229100">
        <ele>26.0</ele>
        <time>2020-02-21T14:55:58Z</time>
      </trkpt>
      <trkpt lat="38.9149350" lon="1.2228950">
        <ele>26.1</ele>
        <time>2020-02-21T14:55:59Z</time>
      </trkpt>
      <trkpt lat="38.9149460" lon="1.2228890">
        <ele>26.2</ele>
        <time>2020-02-21T14:56:00Z</time>
      </trkpt>
      <trkpt lat="38.9149560" lon="1.2228830">
        <ele>26.2</ele>
        <time>2020-02-21T14:56:01Z</time>
      </trkpt>
      <trkpt lat="38.9149780" lon="1.2228750">
        <ele>26.3</ele>
        <time>2020-02-21T14:56:02Z</time>
      </trkpt>
      <trkpt lat="38.9149890" lon="1.2228760">
        <ele>26.4</ele>
        <time>2020-02-21T14:56:03Z</time>
      </trkpt>
      <trkpt lat="38.9150160" lon="1.2228690">
        <ele>26.5</ele>
        <time>2020-02-21T14:56:04Z</time>
      </trkpt>
      <trkpt lat="38.9150260" lon="1.2228660">
        <ele>26.6</ele>
        <time>2020-02-21T14:56:05Z</time>
      </trkpt>
      <trkpt lat="38.9150470" lon="1.2228640">
        <ele>26.7</ele>
        <time>2020-02-21T14:56:06Z</time>
      </trkpt>
      <trkpt lat="38.9150620" lon="1.2228650">
        <ele>26.8</ele>
        <time>2020-02-21T14:56:07Z</time>
      </trkpt>
      <trkpt lat="38.9150850" lon="1.2228730">
        <ele>26.9</ele>
        <time>2020-02-21T14:56:08Z</time>
      </trkpt>
      <trkpt lat="38.9151000" lon="1.2228770">
        <ele>26.9</ele>
        <time>2020-02-21T14:56:09Z</time>
      </trkpt>
      <trkpt lat="38.9151160" lon="1.2228800">
        <ele>27.0</ele>
        <time>2020-02-21T14:56:10Z</time>
      </trkpt>
      <trkpt lat="38.9151360" lon="1.2228690">
        <ele>27.1</ele>
        <time>2020-02-21T14:56:11Z</time>
      </trkpt>
      <trkpt lat="38.9151480" lon="1.2228630">
        <ele>27.2</ele>
        <time>2020-02-21T14:56:12Z</time>
      </trkpt>
      <trkpt lat="38.9151590" lon="1.2228580">
        <ele>27.2</ele>
        <time>2020-02-21T14:56:13Z</time>
      </trkpt>
      <trkpt lat="38.9151890" lon="1.2228420">
        <ele>27.4</ele>
        <time>2020-02-21T14:56:14Z</time>
      </trkpt>
      <trkpt lat="38.9152010" lon="1.2228330">
        <ele>27.4</ele>
        <time>2020-02-21T14:56:15Z</time>
      </trkpt>
      <trkpt lat="38.9152310" lon="1.2228170">
        <ele>27.6</ele>
        <time>2020-02-21T14:56:16Z</time>
      </trkpt>
      <trkpt lat="38.9152370" lon="1.2228120">
        <ele>27.6</ele>
        <time>2020-02-21T14:56:17Z</time>
      </trkpt>
      <trkpt lat="38.9152540" lon="1.2228040">
        <ele>27.7</ele>
        <time>2020-02-21T14:56:18Z</time>
      </trkpt>
      <trkpt lat="38.9152700" lon="1.2227950">
        <ele>27.8</ele>
        <time>2020-02-21T14:56:19Z</time>
      </trkpt>
      <trkpt lat="38.9152850" lon="1.2227860">
        <ele>27.8</ele>
        <time>2020-02-21T14:56:20Z</time>
      </trkpt>
      <trkpt lat="38.9152980" lon="1.2227830">
        <ele>27.9</ele>
        <time>2020-02-21T14:56:21Z</time>
      </trkpt>
      <trkpt lat="38.9153090" lon="1.2227820">
        <ele>28.0</ele>
        <time>2020-02-21T14:56:22Z</time>
      </trkpt>
      <trkpt lat="38.9153220" lon="1.2227930">
        <ele>28.0</ele>
        <time>2020-02-21T14:56:23Z</time>
      </trkpt>
      <trkpt lat="38.9153340" lon="1.2227800">
        <ele>28.1</ele>
        <time>2020-02-21T14:56:24Z</time>
      </trkpt>
      <trkpt lat="38.9153530" lon="1.2227700">
        <ele>28.2</ele>
        <time>2020-02-21T14:56:25Z</time>
      </trkpt>
      <trkpt lat="38.9153650" lon="1.2227630">
        <ele>28.2</ele>
        <time>2020-02-21T14:56:26Z</time>
      </trkpt>
      <trkpt lat="38.9153780" lon="1.2227550">
        <ele>28.3</ele>
        <time>2020-02-21T14:56:27Z</time>
      </trkpt>
      <trkpt lat="38.9153930" lon="1.2227410">
        <ele>28.4</ele>
        <time>2020-02-21T14:56:28Z</time>
      </trkpt>
      <trkpt lat="38.9154070" lon="1.2227300">
        <ele>28.4</ele>
        <time>2020-02-21T14:56:29Z</time>
      </trkpt>
      <trkpt lat="38.9154210" lon="1.2227230">
        <ele>28.5</ele>
        <time>2020-02-21T14:56:30Z</time>
      </trkpt>
      <trkpt lat="38.9154380" lon="1.2227180">
        <ele>28.5</ele>
        <time>2020-02-21T14:56:31Z</time>
      </trkpt>
      <trkpt lat="38.9154660" lon="1.2226970">
        <ele>28.6</ele>
        <time>2020-02-21T14:56:32Z</time>
      </trkpt>
      <trkpt lat="38.9154760" lon="1.2226920">
        <ele>28.7</ele>
        <time>2020-02-21T14:56:33Z</time>
      </trkpt>
      <trkpt lat="38.9154920" lon="1.2226600">
        <ele>28.8</ele>
        <time>2020-02-21T14:56:34Z</time>
      </trkpt>
      <trkpt lat="38.9154960" lon="1.2226500">
        <ele>28.8</ele>
        <time>2020-02-21T14:56:35Z</time>
      </trkpt>
      <trkpt lat="38.9155140" lon="1.2226130">
        <ele>28.9</ele>
        <time>2020-02-21T14:56:36Z</time>
      </trkpt>
      <trkpt lat="38.9155220" lon="1.2226060">
        <ele>28.9</ele>
        <time>2020-02-21T14:56:37Z</time>
      </trkpt>
      <trkpt lat="38.9155500" lon="1.2225950">
        <ele>29.0</ele>
        <time>2020-02-21T14:56:38Z</time>
      </trkpt>
      <trkpt lat="38.9155610" lon="1.2225890">
        <ele>29.1</ele>
        <time>2020-02-21T14:56:39Z</time>
      </trkpt>
      <trkpt lat="38.9155780" lon="1.2225830">
        <ele>29.1</ele>
        <time>2020-02-21T14:56:40Z</time>
      </trkpt>
      <trkpt lat="38.9155920" lon="1.2225790">
        <ele>29.2</ele>
        <time>2020-02-21T14:56:41Z</time>
      </trkpt>
      <trkpt lat="38.9156190" lon="1.2225820">
        <ele>29.2</ele>
        <time>2020-02-21T14:56:42Z</time>
      </trkpt>
      <trkpt lat="38.9156310" lon="1.2225800">
        <ele>29.3</ele>
        <time>2020-02-21T14:56:43Z</time>
      </trkpt>
      <trkpt lat="38.9156690" lon="1.2225750">
        <ele>29.4</ele>
        <time>2020-02-21T14:56:44Z</time>
      </trkpt>
      <trkpt lat="38.9156810" lon="1.2225710">
        <ele>29.4</ele>
        <time>2020-02-21T14:56:45Z</time>
      </trkpt>
      <trkpt lat="38.9156910" lon="1.2225550">
        <ele>29.5</ele>
        <time>2020-02-21T14:56:46Z</time>
      </trkpt>
      <trkpt lat="38.9157030" lon="1.2225420">
        <ele>29.5</ele>
        <time>2020-02-21T14:56:47Z</time>
      </trkpt>
      <trkpt lat="38.9157300" lon="1.2225240">
        <ele>29.6</ele>
        <time>2020-02-21T14:56:48Z</time>
      </trkpt>
      <trkpt lat="38.9157420" lon="1.2225170">
        <ele>29.6</ele>
        <time>2020-02-21T14:56:49Z</time>
      </trkpt>
      <trkpt lat="38.9157650" lon="1.2224950">
        <ele>29.7</ele>
        <time>2020-02-21T14:56:50Z</time>
      </trkpt>
      <trkpt lat="38.9157770" lon="1.2224960">
        <ele>29.7</ele>
        <time>2020-02-21T14:56:51Z</time>
      </trkpt>
      <trkpt lat="38.9157860" lon="1.2224850">
        <ele>29.8</ele>
        <time>2020-02-21T14:56:52Z</time>
      </trkpt>
      <trkpt lat="38.9158000" lon="1.2224730">
        <ele>29.8</ele>
        <time>2020-02-21T14:56:53Z</time>
      </trkpt>
      <trkpt lat="38.9158250" lon="1.2224480">
        <ele>29.9</ele>
        <time>2020-02-21T14:56:54Z</time>
      </trkpt>
      <trkpt lat="38.9158320" lon="1.2224410">
        <ele>29.9</ele>
        <time>2020-02-21T14:56:55Z</time>
      </trkpt>
      <trkpt lat="38.9158460" lon="1.2224250">
        <ele>29.9</ele>
        <time>2020-02-21T14:56:56Z</time>
      </trkpt>
      <trkpt lat="38.9158540" lon="1.2224090">
        <ele>29.9</ele>
        <time>2020-02-21T14:56:57Z</time>
      </trkpt>
      <trkpt lat="38.9158740" lon="1.2223740">
        <ele>30.0</ele>
        <time>2020-02-21T14:56:58Z</time>
      </trkpt>
      <trkpt lat="38.9158800" lon="1.2223600">
        <ele>30.0</ele>
        <time>2020-02-21T14:56:59Z</time>
      </trkpt>
      <trkpt lat="38.9158970" lon="1.2223320">
        <ele>30.0</ele>
        <time>2020-02-21T14:57:00Z</time>
      </trkpt>
      <trkpt lat="38.9159040" lon="1.2223220">
        <ele>30.1</ele>
        <time>2020-02-21T14:57:01Z</time>
      </trkpt>
      <trkpt lat="38.9159130" lon="1.2222910">
        <ele>30.1</ele>
        <time>2020-02-21T14:57:02Z</time>
      </trkpt>
      <trkpt lat="38.9159140" lon="1.2222820">
        <ele>30.1</ele>
        <time>2020-02-21T14:57:03Z</time>
      </trkpt>
      <trkpt lat="38.9159150" lon="1.2222720">
        <ele>30.1</ele>
        <time>2020-02-21T14:57:04Z</time>
      </trkpt>
      <trkpt lat="38.9159260" lon="1.2222510">
        <ele>30.2</ele>
        <time>2020-02-21T14:57:05Z</time>
      </trkpt>
      <trkpt lat="38.9159320" lon="1.2222320">
        <ele>30.2</ele>
        <time>2020-02-21T14:57:06Z</time>
      </trkpt>
      <trkpt lat="38.9159390" lon="1.2221900">
        <ele>30.3</ele>
        <time>2020-02-21T14:57:07Z</time>
      </trkpt>
      <trkpt lat="38.9159420" lon="1.2221760">
        <ele>30.3</ele>
        <time>2020-02-21T14:57:08Z</time>
      </trkpt>
      <trkpt lat="38.9159590" lon="1.2221420">
        <ele>30.3</ele>
        <time>2020-02-21T14:57:09Z</time>
      </trkpt>
      <trkpt lat="38.9159630" lon="1.2221310">
        <ele>30.4</ele>
        <time>2020-02-21T14:57:10Z</time>
      </trkpt>
      <trkpt lat="38.9159660" lon="1.2220870">
        <ele>30.5</ele>
        <time>2020-02-21T14:57:11Z</time>
      </trkpt>
      <trkpt lat="38.9159670" lon="1.2220680">
        <ele>30.5</ele>
        <time>2020-02-21T14:57:12Z</time>
      </trkpt>
      <trkpt lat="38.9159770" lon="1.2220260">
        <ele>30.6</ele>
        <time>2020-02-21T14:57:13Z</time>
      </trkpt>
      <trkpt lat="38.9159820" lon="1.2219920">
        <ele>30.7</ele>
        <time>2020-02-21T14:57:14Z</time>
      </trkpt>
      <trkpt lat="38.9159910" lon="1.2219570">
        <ele>30.7</ele>
        <time>2020-02-21T14:57:15Z</time>
      </trkpt>
      <trkpt lat="38.9159870" lon="1.2219200">
        <ele>30.8</ele>
        <time>2020-02-21T14:57:16Z</time>
      </trkpt>
      <trkpt lat="38.9159990" lon="1.2218730">
        <ele>30.9</ele>
        <time>2020-02-21T14:57:17Z</time>
      </trkpt>
      <trkpt lat="38.9160040" lon="1.2218540">
        <ele>30.9</ele>
        <time>2020-02-21T14:57:18Z</time>
      </trkpt>
      <trkpt lat="38.9160090" lon="1.2218040">
        <ele>31.0</ele>
        <time>2020-02-21T14:57:19Z</time>
      </trkpt>
      <trkpt lat="38.9160100" lon="1.2217840">
        <ele>31.0</ele>
        <time>2020-02-21T14:57:20Z</time>
      </trkpt>
      <trkpt lat="38.9160360" lon="1.2217680">
        <ele>31.0</ele>
        <time>2020-02-21T14:57:21Z</time>
      </trkpt>
      <trkpt lat="38.9160640" lon="1.2217710">
        <ele>31.3</ele>
        <time>2020-02-21T14:57:22Z</time>
      </trkpt>
      <trkpt lat="38.9160870" lon="1.2217980">
        <ele>31.6</ele>
        <time>2020-02-21T14:57:23Z</time>
      </trkpt>
      <trkpt lat="38.9161200" lon="1.2218120">
        <ele>32.3</ele>
        <time>2020-02-21T14:57:24Z</time>
      </trkpt>
      <trkpt lat="38.9161330" lon="1.2218140">
        <ele>32.1</ele>
        <time>2020-02-21T14:57:25Z</time>
      </trkpt>
      <trkpt lat="38.9161500" lon="1.2218110">
        <ele>32.5</ele>
        <time>2020-02-21T14:57:26Z</time>
      </trkpt>
      <trkpt lat="38.9161670" lon="1.2218160">
        <ele>32.4</ele>
        <time>2020-02-21T14:57:27Z</time>
      </trkpt>
      <trkpt lat="38.9162010" lon="1.2218070">
        <ele>32.8</ele>
        <time>2020-02-21T14:57:28Z</time>
      </trkpt>
      <trkpt lat="38.9162100" lon="1.2218040">
        <ele>32.7</ele>
        <time>2020-02-21T14:57:29Z</time>
      </trkpt>
      <trkpt lat="38.9162440" lon="1.2217800">
        <ele>32.7</ele>
        <time>2020-02-21T14:57:30Z</time>
      </trkpt>
      <trkpt lat="38.9162560" lon="1.2217720">
        <ele>33.0</ele>
        <time>2020-02-21T14:57:31Z</time>
      </trkpt>
      <trkpt lat="38.9162750" lon="1.2217670">
        <ele>32.9</ele>
        <time>2020-02-21T14:57:32Z</time>
      </trkpt>
      <trkpt lat="38.9162910" lon="1.2217660">
        <ele>33.1</ele>
        <time>2020-02-21T14:57:33Z</time>
      </trkpt>
      <trkpt lat="38.9163130" lon="1.2217560">
        <ele>32.6</ele>
        <time>2020-02-21T14:57:34Z</time>
      </trkpt>
      <trkpt lat="38.9163210" lon="1.2217530">
        <ele>32.8</ele>
        <time>2020-02-21T14:57:35Z</time>
      </trkpt>
      <trkpt lat="38.9163280" lon="1.2217490">
        <ele>32.6</ele>
        <time>2020-02-21T14:57:36Z</time>
      </trkpt>
      <trkpt lat="38.9163570" lon="1.2217230">
        <ele>32.8</ele>
        <time>2020-02-21T14:57:37Z</time>
      </trkpt>
      <trkpt lat="38.9163660" lon="1.2217110">
        <ele>32.3</ele>
        <time>2020-02-21T14:57:38Z</time>
      </trkpt>
      <trkpt lat="38.9163970" lon="1.2216910">
        <ele>32.5</ele>
        <time>2020-02-21T14:57:39Z</time>
      </trkpt>
      <trkpt lat="38.9164080" lon="1.2216890">
        <ele>32.4</ele>
        <time>2020-02-21T14:57:40Z</time>
      </trkpt>
      <trkpt lat="38.9164450" lon="1.2216820">
        <ele>32.6</ele>
        <time>2020-02-21T14:57:41Z</time>
      </trkpt>
      <trkpt lat="38.9164560" lon="1.2216770">
        <ele>32.8</ele>
        <time>2020-02-21T14:57:42Z</time>
      </trkpt>
      <trkpt lat="38.9164930" lon="1.2216780">
        <ele>33.0</ele>
        <time>2020-02-21T14:57:43Z</time>
      </trkpt>
      <trkpt lat="38.9165050" lon="1.2216800">
        <ele>32.9</ele>
        <time>2020-02-21T14:57:44Z</time>
      </trkpt>
      <trkpt lat="38.9165480" lon="1.2216830">
        <ele>33.4</ele>
        <time>2020-02-21T14:57:45Z</time>
      </trkpt>
      <trkpt lat="38.9165630" lon="1.2216890">
        <ele>33.3</ele>
        <time>2020-02-21T14:57:46Z</time>
      </trkpt>
      <trkpt lat="38.9166030" lon="1.2216940">
        <ele>33.6</ele>
        <time>2020-02-21T14:57:47Z</time>
      </trkpt>
      <trkpt lat="38.9166160" lon="1.2216950">
        <ele>33.8</ele>
        <time>2020-02-21T14:57:48Z</time>
      </trkpt>
      <trkpt lat="38.9166490" lon="1.2216870">
        <ele>34.0</ele>
        <time>2020-02-21T14:57:49Z</time>
      </trkpt>
      <trkpt lat="38.9166580" lon="1.2216850">
        <ele>33.9</ele>
        <time>2020-02-21T14:57:50Z</time>
      </trkpt>
      <trkpt lat="38.9166840" lon="1.2216940">
        <ele>34.3</ele>
        <time>2020-02-21T14:57:51Z</time>
      </trkpt>
      <trkpt lat="38.9166940" lon="1.2216930">
        <ele>34.2</ele>
        <time>2020-02-21T14:57:52Z</time>
      </trkpt>
      <trkpt lat="38.9167210" lon="1.2216940">
        <ele>34.3</ele>
        <time>2020-02-21T14:57:53Z</time>
      </trkpt>
      <trkpt lat="38.9167310" lon="1.2216950">
        <ele>34.2</ele>
        <time>2020-02-21T14:57:54Z</time>
      </trkpt>
      <trkpt lat="38.9167510" lon="1.2217240">
        <ele>34.5</ele>
        <time>2020-02-21T14:57:55Z</time>
      </trkpt>
      <trkpt lat="38.9167720" lon="1.2217540">
        <ele>34.4</ele>
        <time>2020-02-21T14:57:56Z</time>
      </trkpt>
      <trkpt lat="38.9167950" lon="1.2217780">
        <ele>34.6</ele>
        <time>2020-02-21T14:57:57Z</time>
      </trkpt>
      <trkpt lat="38.9168170" lon="1.2218020">
        <ele>34.8</ele>
        <time>2020-02-21T14:57:58Z</time>
      </trkpt>
      <trkpt lat="38.9168260" lon="1.2218090">
        <ele>34.7</ele>
        <time>2020-02-21T14:57:59Z</time>
      </trkpt>
      <trkpt lat="38.9168490" lon="1.2218390">
        <ele>34.6</ele>
        <time>2020-02-21T14:58:00Z</time>
      </trkpt>
      <trkpt lat="38.9168590" lon="1.2218430">
        <ele>34.8</ele>
        <time>2020-02-21T14:58:01Z</time>
      </trkpt>
      <trkpt lat="38.9168880" lon="1.2218540">
        <ele>34.6</ele>
        <time>2020-02-21T14:58:02Z</time>
      </trkpt>
      <trkpt lat="38.9168980" lon="1.2218610">
        <ele>34.5</ele>
        <time>2020-02-21T14:58:03Z</time>
      </trkpt>
      <trkpt lat="38.9169250" lon="1.2218800">
        <ele>34.3</ele>
        <time>2020-02-21T14:58:04Z</time>
      </trkpt>
      <trkpt lat="38.9169330" lon="1.2218870">
        <ele>34.5</ele>
        <time>2020-02-21T14:58:05Z</time>
      </trkpt>
      <trkpt lat="38.9169480" lon="1.2219200">
        <ele>34.4</ele>
        <time>2020-02-21T14:58:06Z</time>
      </trkpt>
      <trkpt lat="38.9169550" lon="1.2219430">
        <ele>34.6</ele>
        <time>2020-02-21T14:58:07Z</time>
      </trkpt>
      <trkpt lat="38.9169620" lon="1.2219610">
        <ele>34.4</ele>
        <time>2020-02-21T14:58:08Z</time>
      </trkpt>
      <trkpt lat="38.9169640" lon="1.2220040">
        <ele>34.7</ele>
        <time>2020-02-21T14:58:09Z</time>
      </trkpt>
      <trkpt lat="38.9169650" lon="1.2220210">
        <ele>35.1</ele>
        <time>2020-02-21T14:58:10Z</time>
      </trkpt>
      <trkpt lat="38.9169600" lon="1.2220600">
        <ele>35.4</ele>
        <time>2020-02-21T14:58:11Z</time>
      </trkpt>
      <trkpt lat="38.9169560" lon="1.2220730">
        <ele>35.3</ele>
        <time>2020-02-21T14:58:12Z</time>
      </trkpt>
      <trkpt lat="38.9169540" lon="1.2220930">
        <ele>35.2</ele>
        <time>2020-02-21T14:58:13Z</time>
      </trkpt>
      <trkpt lat="38.9169610" lon="1.2221120">
        <ele>35.6</ele>
        <time>2020-02-21T14:58:14Z</time>
      </trkpt>
      <trkpt lat="38.9169740" lon="1.2221210">
        <ele>35.5</ele>
        <time>2020-02-21T14:58:15Z</time>
      </trkpt>
      <trkpt lat="38.9169930" lon="1.2221210">
        <ele>35.2</ele>
        <time>2020-02-21T14:58:16Z</time>
      </trkpt>
      <trkpt lat="38.9170230" lon="1.2221380">
        <ele>34.9</ele>
        <time>2020-02-21T14:58:17Z</time>
      </trkpt>
      <trkpt lat="38.9170340" lon="1.2221440">
        <ele>35.3</ele>
        <time>2020-02-21T14:58:18Z</time>
      </trkpt>
      <trkpt lat="38.9170500" lon="1.2221800">
        <ele>35.0</ele>
        <time>2020-02-21T14:58:19Z</time>
      </trkpt>
      <trkpt lat="38.9170550" lon="1.2221950">
        <ele>35.4</ele>
        <time>2020-02-21T14:58:20Z</time>
      </trkpt>
      <trkpt lat="38.9170650" lon="1.2222110">
        <ele>35.3</ele>
        <time>2020-02-21T14:58:21Z</time>
      </trkpt>
      <trkpt lat="38.9170750" lon="1.2222570">
        <ele>35.8</ele>
        <time>2020-02-21T14:58:22Z</time>
      </trkpt>
      <trkpt lat="38.9170770" lon="1.2222720">
        <ele>36.2</ele>
        <time>2020-02-21T14:58:23Z</time>
      </trkpt>
      <trkpt lat="38.9170750" lon="1.2222970">
        <ele>36.1</ele>
        <time>2020-02-21T14:58:24Z</time>
      </trkpt>
      <trkpt lat="38.9170720" lon="1.2223130">
        <ele>36.0</ele>
        <time>2020-02-21T14:58:25Z</time>
      </trkpt>
      <trkpt lat="38.9170660" lon="1.2223260">
        <ele>36.4</ele>
        <time>2020-02-21T14:58:26Z</time>
      </trkpt>
      <trkpt lat="38.9170560" lon="1.2223450">
        <ele>36.3</ele>
        <time>2020-02-21T14:58:27Z</time>
      </trkpt>
      <trkpt lat="38.9170470" lon="1.2223700">
        <ele>36.9</ele>
        <time>2020-02-21T14:58:28Z</time>
      </trkpt>
      <trkpt lat="38.9170470" lon="1.2223740">
        <ele>36.8</ele>
        <time>2020-02-21T14:58:29Z</time>
      </trkpt>
      <trkpt lat="38.9170460" lon="1.2223780">
        <ele>36.6</ele>
        <time>2020-02-21T14:58:30Z</time>
      </trkpt>
      <trkpt lat="38.9170450" lon="1.2223820">
        <ele>36.5</ele>
        <time>2020-02-21T14:58:31Z</time>
      </trkpt>
      <trkpt lat="38.9170450" lon="1.2223860">
        <ele>36.4</ele>
        <time>2020-02-21T14:58:32Z</time>
      </trkpt>
      <trkpt lat="38.9170440" lon="1.2223900">
        <ele>36.3</ele>
        <time>2020-02-21T14:58:33Z</time>
      </trkpt>
      <trkpt lat="38.9170310" lon="1.2224210">
        <ele>36.7</ele>
        <time>2020-02-21T14:58:34Z</time>
      </trkpt>
      <trkpt lat="38.9170260" lon="1.2224330">
        <ele>36.6</ele>
        <time>2020-02-21T14:58:35Z</time>
      </trkpt>
      <trkpt lat="38.9170070" lon="1.2224590">
        <ele>37.0</ele>
        <time>2020-02-21T14:58:36Z</time>
      </trkpt>
      <trkpt lat="38.9169950" lon="1.2224710">
        <ele>36.9</ele>
        <time>2020-02-21T14:58:37Z</time>
      </trkpt>
      <trkpt lat="38.9169740" lon="1.2224990">
        <ele>37.3</ele>
        <time>2020-02-21T14:58:38Z</time>
      </trkpt>
      <trkpt lat="38.9169680" lon="1.2225090">
        <ele>37.2</ele>
        <time>2020-02-21T14:58:39Z</time>
      </trkpt>
      <trkpt lat="38.9169540" lon="1.2225440">
        <ele>37.5</ele>
        <time>2020-02-21T14:58:40Z</time>
      </trkpt>
      <trkpt lat="38.9169530" lon="1.2225600">
        <ele>37.4</ele>
        <time>2020-02-21T14:58:41Z</time>
      </trkpt>
      <trkpt lat="38.9169420" lon="1.2225950">
        <ele>37.8</ele>
        <time>2020-02-21T14:58:42Z</time>
      </trkpt>
      <trkpt lat="38.9169350" lon="1.2226020">
        <ele>37.7</ele>
        <time>2020-02-21T14:58:43Z</time>
      </trkpt>
      <trkpt lat="38.9169090" lon="1.2226290">
        <ele>38.0</ele>
        <time>2020-02-21T14:58:44Z</time>
      </trkpt>
      <trkpt lat="38.9169020" lon="1.2226390">
        <ele>37.9</ele>
        <time>2020-02-21T14:58:45Z</time>
      </trkpt>
      <trkpt lat="38.9168790" lon="1.2226710">
        <ele>38.4</ele>
        <time>2020-02-21T14:58:46Z</time>
      </trkpt>
      <trkpt lat="38.9168720" lon="1.2226820">
        <ele>38.2</ele>
        <time>2020-02-21T14:58:47Z</time>
      </trkpt>
      <trkpt lat="38.9168510" lon="1.2227070">
        <ele>38.6</ele>
        <time>2020-02-21T14:58:48Z</time>
      </trkpt>
      <trkpt lat="38.9168380" lon="1.2227210">
        <ele>38.6</ele>
        <time>2020-02-21T14:58:49Z</time>
      </trkpt>
      <trkpt lat="38.9168230" lon="1.2227300">
        <ele>38.5</ele>
        <time>2020-02-21T14:58:50Z</time>
      </trkpt>
      <trkpt lat="38.9168090" lon="1.2227300">
        <ele>38.4</ele>
        <time>2020-02-21T14:58:51Z</time>
      </trkpt>
      <trkpt lat="38.9167910" lon="1.2227430">
        <ele>38.3</ele>
        <time>2020-02-21T14:58:52Z</time>
      </trkpt>
      <trkpt lat="38.9167660" lon="1.2227820">
        <ele>38.7</ele>
        <time>2020-02-21T14:58:53Z</time>
      </trkpt>
      <trkpt lat="38.9167580" lon="1.2227930">
        <ele>39.1</ele>
        <time>2020-02-21T14:58:54Z</time>
      </trkpt>
      <trkpt lat="38.9167350" lon="1.2228170">
        <ele>39.0</ele>
        <time>2020-02-21T14:58:55Z</time>
      </trkpt>
      <trkpt lat="38.9167120" lon="1.2228370">
        <ele>39.3</ele>
        <time>2020-02-21T14:58:56Z</time>
      </trkpt>
      <trkpt lat="38.9166990" lon="1.2228530">
        <ele>39.2</ele>
        <time>2020-02-21T14:58:57Z</time>
      </trkpt>
      <trkpt lat="38.9166910" lon="1.2228720">
        <ele>39.1</ele>
        <time>2020-02-21T14:58:58Z</time>
      </trkpt>
      <trkpt lat="38.9166800" lon="1.2229130">
        <ele>39.3</ele>
        <time>2020-02-21T14:58:59Z</time>
      </trkpt>
      <trkpt lat="38.9166760" lon="1.2229270">
        <ele>39.6</ele>
        <time>2020-02-21T14:59:00Z</time>
      </trkpt>
      <trkpt lat="38.9166530" lon="1.2229500">
        <ele>39.5</ele>
        <time>2020-02-21T14:59:01Z</time>
      </trkpt>
      <trkpt lat="38.9166320" lon="1.2229850">
        <ele>39.7</ele>
        <time>2020-02-21T14:59:02Z</time>
      </trkpt>
      <trkpt lat="38.9166250" lon="1.2230000">
        <ele>39.6</ele>
        <time>2020-02-21T14:59:03Z</time>
      </trkpt>
      <trkpt lat="38.9166100" lon="1.2230350">
        <ele>39.8</ele>
        <time>2020-02-21T14:59:04Z</time>
      </trkpt>
      <trkpt lat="38.9166040" lon="1.2230450">
        <ele>40.0</ele>
        <time>2020-02-21T14:59:05Z</time>
      </trkpt>
      <trkpt lat="38.9165850" lon="1.2230790">
        <ele>39.9</ele>
        <time>2020-02-21T14:59:06Z</time>
      </trkpt>
      <trkpt lat="38.9165770" lon="1.2230930">
        <ele>40.1</ele>
        <time>2020-02-21T14:59:07Z</time>
      </trkpt>
      <trkpt lat="38.9165810" lon="1.2231170">
        <ele>40.0</ele>
        <time>2020-02-21T14:59:08Z</time>
      </trkpt>
      <trkpt lat="38.9165670" lon="1.2231330">
        <ele>40.4</ele>
        <time>2020-02-21T14:59:09Z</time>
      </trkpt>
      <trkpt lat="38.9165510" lon="1.2231630">
        <ele>40.3</ele>
        <time>2020-02-21T14:59:10Z</time>
      </trkpt>
      <trkpt lat="38.9165450" lon="1.2231730">
        <ele>40.1</ele>
        <time>2020-02-21T14:59:11Z</time>
      </trkpt>
      <trkpt lat="38.9165310" lon="1.2232070">
        <ele>40.4</ele>
        <time>2020-02-21T14:59:12Z</time>
      </trkpt>
      <trkpt lat="38.9165270" lon="1.2232170">
        <ele>40.7</ele>
        <time>2020-02-21T14:59:13Z</time>
      </trkpt>
      <trkpt lat="38.9165170" lon="1.2232330">
        <ele>40.6</ele>
        <time>2020-02-21T14:59:14Z</time>
      </trkpt>
      <trkpt lat="38.9165050" lon="1.2232470">
        <ele>40.5</ele>
        <time>2020-02-21T14:59:15Z</time>
      </trkpt>
      <trkpt lat="38.9164970" lon="1.2232660">
        <ele>40.8</ele>
        <time>2020-02-21T14:59:16Z</time>
      </trkpt>
      <trkpt lat="38.9164920" lon="1.2232830">
        <ele>40.7</ele>
        <time>2020-02-21T14:59:17Z</time>
      </trkpt>
      <trkpt lat="38.9164800" lon="1.2232900">
        <ele>40.5</ele>
        <time>2020-02-21T14:59:18Z</time>
      </trkpt>
      <trkpt lat="38.9164650" lon="1.2233010">
        <ele>40.4</ele>
        <time>2020-02-21T14:59:19Z</time>
      </trkpt>
      <trkpt lat="38.9164450" lon="1.2233280">
        <ele>40.8</ele>
        <time>2020-02-21T14:59:20Z</time>
      </trkpt>
      <trkpt lat="38.9164390" lon="1.2233390">
        <ele>40.7</ele>
        <time>2020-02-21T14:59:21Z</time>
      </trkpt>
      <trkpt lat="38.9164210" lon="1.2233830">
        <ele>41.0</ele>
        <time>2020-02-21T14:59:22Z</time>
      </trkpt>
      <trkpt lat="38.9164150" lon="1.2233950">
        <ele>41.4</ele>
        <time>2020-02-21T14:59:23Z</time>
      </trkpt>
      <trkpt lat="38.9164040" lon="1.2234070">
        <ele>41.3</ele>
        <time>2020-02-21T14:59:24Z</time>
      </trkpt>
      <trkpt lat="38.9163970" lon="1.2234220">
        <ele>41.2</ele>
        <time>2020-02-21T14:59:25Z</time>
      </trkpt>
      <trkpt lat="38.9163890" lon="1.2234400">
        <ele>41.6</ele>
        <time>2020-02-21T14:59:26Z</time>
      </trkpt>
      <trkpt lat="38.9163770" lon="1.2234560">
        <ele>41.4</ele>
        <time>2020-02-21T14:59:27Z</time>
      </trkpt>
      <trkpt lat="38.9163570" lon="1.2234930">
        <ele>41.8</ele>
        <time>2020-02-21T14:59:28Z</time>
      </trkpt>
      <trkpt lat="38.9163490" lon="1.2235030">
        <ele>41.7</ele>
        <time>2020-02-21T14:59:29Z</time>
      </trkpt>
      <trkpt lat="38.9163260" lon="1.2235340">
        <ele>42.0</ele>
        <time>2020-02-21T14:59:30Z</time>
      </trkpt>
      <trkpt lat="38.9163040" lon="1.2235700">
        <ele>42.4</ele>
        <time>2020-02-21T14:59:31Z</time>
      </trkpt>
      <trkpt lat="38.9162980" lon="1.2235810">
        <ele>42.3</ele>
        <time>2020-02-21T14:59:32Z</time>
      </trkpt>
      <trkpt lat="38.9162940" lon="1.2236040">
        <ele>42.6</ele>
        <time>2020-02-21T14:59:33Z</time>
      </trkpt>
      <trkpt lat="38.9162870" lon="1.2236220">
        <ele>42.5</ele>
        <time>2020-02-21T14:59:34Z</time>
      </trkpt>
      <trkpt lat="38.9162730" lon="1.2236530">
        <ele>42.8</ele>
        <time>2020-02-21T14:59:35Z</time>
      </trkpt>
      <trkpt lat="38.9162680" lon="1.2236640">
        <ele>42.7</ele>
        <time>2020-02-21T14:59:36Z</time>
      </trkpt>
      <trkpt lat="38.9162530" lon="1.2236970">
        <ele>42.9</ele>
        <time>2020-02-21T14:59:37Z</time>
      </trkpt>
      <trkpt lat="38.9162450" lon="1.2237440">
        <ele>43.2</ele>
        <time>2020-02-21T14:59:38Z</time>
      </trkpt>
      <trkpt lat="38.9162410" lon="1.2237610">
        <ele>43.1</ele>
        <time>2020-02-21T14:59:39Z</time>
      </trkpt>
      <trkpt lat="38.9162210" lon="1.2238060">
        <ele>43.3</ele>
        <time>2020-02-21T14:59:40Z</time>
      </trkpt>
      <trkpt lat="38.9162110" lon="1.2238260">
        <ele>43.6</ele>
        <time>2020-02-21T14:59:41Z</time>
      </trkpt>
      <trkpt lat="38.9161910" lon="1.2238610">
        <ele>43.8</ele>
        <time>2020-02-21T14:59:42Z</time>
      </trkpt>
      <trkpt lat="38.9161780" lon="1.2238990">
        <ele>44.0</ele>
        <time>2020-02-21T14:59:43Z</time>
      </trkpt>
      <trkpt lat="38.9161610" lon="1.2239390">
        <ele>44.2</ele>
        <time>2020-02-21T14:59:44Z</time>
      </trkpt>
      <trkpt lat="38.9161550" lon="1.2239530">
        <ele>44.3</ele>
        <time>2020-02-21T14:59:45Z</time>
      </trkpt>
      <trkpt lat="38.9161420" lon="1.2239910">
        <ele>44.5</ele>
        <time>2020-02-21T14:59:46Z</time>
      </trkpt>
      <trkpt lat="38.9161370" lon="1.2240010">
        <ele>44.5</ele>
        <time>2020-02-21T14:59:47Z</time>
      </trkpt>
      <trkpt lat="38.9161180" lon="1.2240370">
        <ele>44.8</ele>
        <time>2020-02-21T14:59:48Z</time>
      </trkpt>
      <trkpt lat="38.9161140" lon="1.2240450">
        <ele>44.8</ele>
        <time>2020-02-21T14:59:49Z</time>
      </trkpt>
      <trkpt lat="38.9161160" lon="1.2240710">
        <ele>45.0</ele>
        <time>2020-02-21T14:59:50Z</time>
      </trkpt>
      <trkpt lat="38.9161110" lon="1.2240900">
        <ele>45.1</ele>
        <time>2020-02-21T14:59:51Z</time>
      </trkpt>
      <trkpt lat="38.9161030" lon="1.2241110">
        <ele>45.2</ele>
        <time>2020-02-21T14:59:52Z</time>
      </trkpt>
      <trkpt lat="38.9160930" lon="1.2241270">
        <ele>45.3</ele>
        <time>2020-02-21T14:59:53Z</time>
      </trkpt>
      <trkpt lat="38.9160830" lon="1.2241400">
        <ele>45.4</ele>
        <time>2020-02-21T14:59:54Z</time>
      </trkpt>
      <trkpt lat="38.9160710" lon="1.2241610">
        <ele>45.6</ele>
        <time>2020-02-21T14:59:55Z</time>
      </trkpt>
      <trkpt lat="38.9160590" lon="1.2242000">
        <ele>45.8</ele>
        <time>2020-02-21T14:59:56Z</time>
      </trkpt>
      <trkpt lat="38.9160540" lon="1.2242170">
        <ele>45.9</ele>
        <time>2020-02-21T14:59:57Z</time>
      </trkpt>
      <trkpt lat="38.9160340" lon="1.2242550">
        <ele>46.2</ele>
        <time>2020-02-21T14:59:58Z</time>
      </trkpt>
      <trkpt lat="38.9160260" lon="1.2242670">
        <ele>46.3</ele>
        <time>2020-02-21T14:59:59Z</time>
      </trkpt>
      <trkpt lat="38.9160200" lon="1.2242850">
        <ele>46.4</ele>
        <time>2020-02-21T15:00:00Z</time>
      </trkpt>
      <trkpt lat="38.9160150" lon="1.2243110">
        <ele>46.5</ele>
        <time>2020-02-21T15:00:01Z</time>
      </trkpt>
      <trkpt lat="38.9160030" lon="1.2243490">
        <ele>46.7</ele>
        <time>2020-02-21T15:00:02Z</time>
      </trkpt>
      <trkpt lat="38.9159950" lon="1.2243610">
        <ele>46.8</ele>
        <time>2020-02-21T15:00:03Z</time>
      </trkpt>
      <trkpt lat="38.9159860" lon="1.2243960">
        <ele>47.0</ele>
        <time>2020-02-21T15:00:04Z</time>
      </trkpt>
      <trkpt lat="38.9159690" lon="1.2244260">
        <ele>47.1</ele>
        <time>2020-02-21T15:00:05Z</time>
      </trkpt>
      <trkpt lat="38.9159560" lon="1.2244600">
        <ele>47.3</ele>
        <time>2020-02-21T15:00:06Z</time>
      </trkpt>
      <trkpt lat="38.9159380" lon="1.2245050">
        <ele>47.6</ele>
        <time>2020-02-21T15:00:07Z</time>
      </trkpt>
      <trkpt lat="38.9159320" lon="1.2245210">
        <ele>47.6</ele>
        <time>2020-02-21T15:00:08Z</time>
      </trkpt>
      <trkpt lat="38.9159140" lon="1.2245630">
        <ele>47.9</ele>
        <time>2020-02-21T15:00:09Z</time>
      </trkpt>
      <trkpt lat="38.9159090" lon="1.2245820">
        <ele>48.0</ele>
        <time>2020-02-21T15:00:10Z</time>
      </trkpt>
      <trkpt lat="38.9159000" lon="1.2246200">
        <ele>48.1</ele>
        <time>2020-02-21T15:00:11Z</time>
      </trkpt>
      <trkpt lat="38.9158920" lon="1.2246580">
        <ele>48.3</ele>
        <time>2020-02-21T15:00:12Z</time>
      </trkpt>
      <trkpt lat="38.9158780" lon="1.2246930">
        <ele>48.4</ele>
        <time>2020-02-21T15:00:13Z</time>
      </trkpt>
      <trkpt lat="38.9158630" lon="1.2247370">
        <ele>48.6</ele>
        <time>2020-02-21T15:00:14Z</time>
      </trkpt>
      <trkpt lat="38.9158500" lon="1.2247830">
        <ele>48.7</ele>
        <time>2020-02-21T15:00:15Z</time>
      </trkpt>
      <trkpt lat="38.9158380" lon="1.2248270">
        <ele>48.9</ele>
        <time>2020-02-21T15:00:16Z</time>
      </trkpt>
      <trkpt lat="38.9158220" lon="1.2248830">
        <ele>49.1</ele>
        <time>2020-02-21T15:00:17Z</time>
      </trkpt>
      <trkpt lat="38.9158060" lon="1.2249400">
        <ele>49.3</ele>
        <time>2020-02-21T15:00:18Z</time>
      </trkpt>
      <trkpt lat="38.9157960" lon="1.2249810">
        <ele>49.4</ele>
        <time>2020-02-21T15:00:19Z</time>
      </trkpt>
      <trkpt lat="38.9157850" lon="1.2250250">
        <ele>49.5</ele>
        <time>2020-02-21T15:00:20Z</time>
      </trkpt>
      <trkpt lat="38.9157680" lon="1.2250680">
        <ele>49.6</ele>
        <time>2020-02-21T15:00:21Z</time>
      </trkpt>
      <trkpt lat="38.9157610" lon="1.2251030">
        <ele>49.7</ele>
        <time>2020-02-21T15:00:22Z</time>
      </trkpt>
      <trkpt lat="38.9157560" lon="1.2251540">
        <ele>49.8</ele>
        <time>2020-02-21T15:00:23Z</time>
      </trkpt>
      <trkpt lat="38.9157500" lon="1.2252020">
        <ele>50.0</ele>
        <time>2020-02-21T15:00:24Z</time>
      </trkpt>
      <trkpt lat="38.9157390" lon="1.2252530">
        <ele>50.1</ele>
        <time>2020-02-21T15:00:25Z</time>
      </trkpt>
      <trkpt lat="38.9157320" lon="1.2253010">
        <ele>50.2</ele>
        <time>2020-02-21T15:00:26Z</time>
      </trkpt>
      <trkpt lat="38.9157280" lon="1.2253470">
        <ele>50.3</ele>
        <time>2020-02-21T15:00:27Z</time>
      </trkpt>
      <trkpt lat="38.9157220" lon="1.2253880">
        <ele>50.4</ele>
        <time>2020-02-21T15:00:28Z</time>
      </trkpt>
      <trkpt lat="38.9157200" lon="1.2254250">
        <ele>50.5</ele>
        <time>2020-02-21T15:00:29Z</time>
      </trkpt>
      <trkpt lat="38.9157180" lon="1.2254660">
        <ele>50.5</ele>
        <time>2020-02-21T15:00:30Z</time>
      </trkpt>
      <trkpt lat="38.9157020" lon="1.2255110">
        <ele>50.6</ele>
        <time>2020-02-21T15:00:31Z</time>
      </trkpt>
      <trkpt lat="38.9156910" lon="1.2255430">
        <ele>50.7</ele>
        <time>2020-02-21T15:00:32Z</time>
      </trkpt>
      <trkpt lat="38.9157010" lon="1.2256000">
        <ele>50.8</ele>
        <time>2020-02-21T15:00:33Z</time>
      </trkpt>
      <trkpt lat="38.9157040" lon="1.2256250">
        <ele>50.9</ele>
        <time>2020-02-21T15:00:34Z</time>
      </trkpt>
      <trkpt lat="38.9157140" lon="1.2256700">
        <ele>51.0</ele>
        <time>2020-02-21T15:00:35Z</time>
      </trkpt>
      <trkpt lat="38.9157170" lon="1.2257110">
        <ele>51.1</ele>
        <time>2020-02-21T15:00:36Z</time>
      </trkpt>
      <trkpt lat="38.9157290" lon="1.2257600">
        <ele>51.3</ele>
        <time>2020-02-21T15:00:37Z</time>
      </trkpt>
      <trkpt lat="38.9157530" lon="1.2257870">
        <ele>51.3</ele>
        <time>2020-02-21T15:00:38Z</time>
      </trkpt>
      <trkpt lat="38.9157750" lon="1.2258350">
        <ele>51.4</ele>
        <time>2020-02-21T15:00:39Z</time>
      </trkpt>
      <trkpt lat="38.9157900" lon="1.2258650">
        <ele>51.5</ele>
        <time>2020-02-21T15:00:40Z</time>
      </trkpt>
      <trkpt lat="38.9158080" lon="1.2258980">
        <ele>51.6</ele>
        <time>2020-02-21T15:00:41Z</time>
      </trkpt>
      <trkpt lat="38.9158240" lon="1.2259330">
        <ele>51.7</ele>
        <time>2020-02-21T15:00:42Z</time>
      </trkpt>
      <trkpt lat="38.9158390" lon="1.2259690">
        <ele>51.7</ele>
        <time>2020-02-21T15:00:43Z</time>
      </trkpt>
      <trkpt lat="38.9158570" lon="1.2260020">
        <ele>51.8</ele>
        <time>2020-02-21T15:00:44Z</time>
      </trkpt>
      <trkpt lat="38.9158680" lon="1.2260490">
        <ele>51.9</ele>
        <time>2020-02-21T15:00:45Z</time>
      </trkpt>
      <trkpt lat="38.9158740" lon="1.2260660">
        <ele>51.9</ele>
        <time>2020-02-21T15:00:46Z</time>
      </trkpt>
      <trkpt lat="38.9158710" lon="1.2261050">
        <ele>52.0</ele>
        <time>2020-02-21T15:00:47Z</time>
      </trkpt>
      <trkpt lat="38.9158610" lon="1.2261400">
        <ele>52.1</ele>
        <time>2020-02-21T15:00:48Z</time>
      </trkpt>
      <trkpt lat="38.9158490" lon="1.2261750">
        <ele>52.2</ele>
        <time>2020-02-21T15:00:49Z</time>
      </trkpt>
      <trkpt lat="38.9158260" lon="1.2262120">
        <ele>52.4</ele>
        <time>2020-02-21T15:00:50Z</time>
      </trkpt>
      <trkpt lat="38.9158200" lon="1.2262260">
        <ele>52.5</ele>
        <time>2020-02-21T15:00:51Z</time>
      </trkpt>
      <trkpt lat="38.9158150" lon="1.2262750">
        <ele>52.8</ele>
        <time>2020-02-21T15:00:52Z</time>
      </trkpt>
      <trkpt lat="38.9158120" lon="1.2262910">
        <ele>53.1</ele>
        <time>2020-02-21T15:00:53Z</time>
      </trkpt>
      <trkpt lat="38.9158040" lon="1.2263250">
        <ele>53.7</ele>
        <time>2020-02-21T15:00:54Z</time>
      </trkpt>
      <trkpt lat="38.9158110" lon="1.2263530">
        <ele>54.1</ele>
        <time>2020-02-21T15:00:55Z</time>
      </trkpt>
      <trkpt lat="38.9158110" lon="1.2263700">
        <ele>54.3</ele>
        <time>2020-02-21T15:00:56Z</time>
      </trkpt>
      <trkpt lat="38.9158120" lon="1.2263870">
        <ele>54.5</ele>
        <time>2020-02-21T15:00:57Z</time>
      </trkpt>
      <trkpt lat="38.9158250" lon="1.2264000">
        <ele>54.7</ele>
        <time>2020-02-21T15:00:58Z</time>
      </trkpt>
      <trkpt lat="38.9158330" lon="1.2264210">
        <ele>55.0</ele>
        <time>2020-02-21T15:00:59Z</time>
      </trkpt>
      <trkpt lat="38.9158480" lon="1.2264530">
        <ele>55.4</ele>
        <time>2020-02-21T15:01:00Z</time>
      </trkpt>
      <trkpt lat="38.9158520" lon="1.2264650">
        <ele>55.6</ele>
        <time>2020-02-21T15:01:01Z</time>
      </trkpt>
      <trkpt lat="38.9158590" lon="1.2264850">
        <ele>55.8</ele>
        <time>2020-02-21T15:01:02Z</time>
      </trkpt>
      <trkpt lat="38.9158670" lon="1.2265020">
        <ele>56.0</ele>
        <time>2020-02-21T15:01:03Z</time>
      </trkpt>
      <trkpt lat="38.9158720" lon="1.2265380">
        <ele>56.3</ele>
        <time>2020-02-21T15:01:04Z</time>
      </trkpt>
      <trkpt lat="38.9158740" lon="1.2265530">
        <ele>56.4</ele>
        <time>2020-02-21T15:01:05Z</time>
      </trkpt>
      <trkpt lat="38.9158810" lon="1.2265800">
        <ele>56.6</ele>
        <time>2020-02-21T15:01:06Z</time>
      </trkpt>
      <trkpt lat="38.9158820" lon="1.2265990">
        <ele>56.8</ele>
        <time>2020-02-21T15:01:07Z</time>
      </trkpt>
      <trkpt lat="38.9158920" lon="1.2266390">
        <ele>57.1</ele>
        <time>2020-02-21T15:01:08Z</time>
      </trkpt>
      <trkpt lat="38.9158920" lon="1.2266470">
        <ele>57.2</ele>
        <time>2020-02-21T15:01:09Z</time>
      </trkpt>
      <trkpt lat="38.9158980" lon="1.2266660">
        <ele>57.4</ele>
        <time>2020-02-21T15:01:10Z</time>
      </trkpt>
      <trkpt lat="38.9159100" lon="1.2266750">
        <ele>57.5</ele>
        <time>2020-02-21T15:01:11Z</time>
      </trkpt>
      <trkpt lat="38.9159240" lon="1.2266860">
        <ele>57.7</ele>
        <time>2020-02-21T15:01:12Z</time>
      </trkpt>
      <trkpt lat="38.9159390" lon="1.2267010">
        <ele>57.9</ele>
        <time>2020-02-21T15:01:13Z</time>
      </trkpt>
      <trkpt lat="38.9159530" lon="1.2267360">
        <ele>58.2</ele>
        <time>2020-02-21T15:01:14Z</time>
      </trkpt>
      <trkpt lat="38.9159590" lon="1.2267460">
        <ele>58.3</ele>
        <time>2020-02-21T15:01:15Z</time>
      </trkpt>
      <trkpt lat="38.9159580" lon="1.2267620">
        <ele>58.4</ele>
        <time>2020-02-21T15:01:16Z</time>
      </trkpt>
      <trkpt lat="38.9159540" lon="1.2267850">
        <ele>58.6</ele>
        <time>2020-02-21T15:01:17Z</time>
      </trkpt>
      <trkpt lat="38.9159470" lon="1.2267900">
        <ele>58.7</ele>
        <time>2020-02-21T15:01:18Z</time>
      </trkpt>
      <trkpt lat="38.9159470" lon="1.2268000">
        <ele>58.7</ele>
        <time>2020-02-21T15:01:19Z</time>
      </trkpt>
      <trkpt lat="38.9159550" lon="1.2268260">
        <ele>58.9</ele>
        <time>2020-02-21T15:01:20Z</time>
      </trkpt>
      <trkpt lat="38.9159610" lon="1.2268450">
        <ele>59.0</ele>
        <time>2020-02-21T15:01:21Z</time>
      </trkpt>
      <trkpt lat="38.9159650" lon="1.2268520">
        <ele>59.0</ele>
        <time>2020-02-21T15:01:22Z</time>
      </trkpt>
      <trkpt lat="38.9159740" lon="1.2268650">
        <ele>59.1</ele>
        <time>2020-02-21T15:01:23Z</time>
      </trkpt>
      <trkpt lat="38.9159850" lon="1.2268870">
        <ele>59.2</ele>
        <time>2020-02-21T15:01:24Z</time>
      </trkpt>
      <trkpt lat="38.9159860" lon="1.2269070">
        <ele>59.3</ele>
        <time>2020-02-21T15:01:25Z</time>
      </trkpt>
      <trkpt lat="38.9159860" lon="1.2269360">
        <ele>59.4</ele>
        <time>2020-02-21T15:01:26Z</time>
      </trkpt>
      <trkpt lat="38.9159860" lon="1.2269530">
        <ele>59.5</ele>
        <time>2020-02-21T15:01:27Z</time>
      </trkpt>
      <trkpt lat="38.9159850" lon="1.2269710">
        <ele>59.6</ele>
        <time>2020-02-21T15:01:28Z</time>
      </trkpt>
      <trkpt lat="38.9159900" lon="1.2269850">
        <ele>59.7</ele>
        <time>2020-02-21T15:01:29Z</time>
      </trkpt>
      <trkpt lat="38.9159980" lon="1.2270100">
        <ele>59.8</ele>
        <time>2020-02-21T15:01:30Z</time>
      </trkpt>
      <trkpt lat="38.9160090" lon="1.2270230">
        <ele>59.9</ele>
        <time>2020-02-21T15:01:31Z</time>
      </trkpt>
      <trkpt lat="38.9160120" lon="1.2270530">
        <ele>60.0</ele>
        <time>2020-02-21T15:01:32Z</time>
      </trkpt>
      <trkpt lat="38.9160240" lon="1.2270890">
        <ele>60.1</ele>
        <time>2020-02-21T15:01:33Z</time>
      </trkpt>
      <trkpt lat="38.9160280" lon="1.2271020">
        <ele>60.1</ele>
        <time>2020-02-21T15:01:34Z</time>
      </trkpt>
      <trkpt lat="38.9160460" lon="1.2271280">
        <ele>60.2</ele>
        <time>2020-02-21T15:01:35Z</time>
      </trkpt>
      <trkpt lat="38.9160530" lon="1.2271370">
        <ele>60.2</ele>
        <time>2020-02-21T15:01:36Z</time>
      </trkpt>
      <trkpt lat="38.9160630" lon="1.2271570">
        <ele>60.3</ele>
        <time>2020-02-21T15:01:37Z</time>
      </trkpt>
      <trkpt lat="38.9160670" lon="1.2271810">
        <ele>60.4</ele>
        <time>2020-02-21T15:01:38Z</time>
      </trkpt>
      <trkpt lat="38.9160670" lon="1.2272040">
        <ele>60.4</ele>
        <time>2020-02-21T15:01:39Z</time>
      </trkpt>
      <trkpt lat="38.9160780" lon="1.2272240">
        <ele>60.5</ele>
        <time>2020-02-21T15:01:40Z</time>
      </trkpt>
      <trkpt lat="38.9160930" lon="1.2272420">
        <ele>60.6</ele>
        <time>2020-02-21T15:01:41Z</time>
      </trkpt>
      <trkpt lat="38.9160960" lon="1.2272590">
        <ele>60.6</ele>
        <time>2020-02-21T15:01:42Z</time>
      </trkpt>
      <trkpt lat="38.9161000" lon="1.2272830">
        <ele>60.7</ele>
        <time>2020-02-21T15:01:43Z</time>
      </trkpt>
      <trkpt lat="38.9160950" lon="1.2272980">
        <ele>60.7</ele>
        <time>2020-02-21T15:01:44Z</time>
      </trkpt>
      <trkpt lat="38.9160920" lon="1.2273340">
        <ele>60.8</ele>
        <time>2020-02-21T15:01:45Z</time>
      </trkpt>
      <trkpt lat="38.9160930" lon="1.2273480">
        <ele>60.9</ele>
        <time>2020-02-21T15:01:46Z</time>
      </trkpt>
      <trkpt lat="38.9161000" lon="1.2273880">
        <ele>61.0</ele>
        <time>2020-02-21T15:01:47Z</time>
      </trkpt>
      <trkpt lat="38.9161050" lon="1.2273980">
        <ele>61.0</ele>
        <time>2020-02-21T15:01:48Z</time>
      </trkpt>
      <trkpt lat="38.9161250" lon="1.2274290">
        <ele>61.2</ele>
        <time>2020-02-21T15:01:49Z</time>
      </trkpt>
      <trkpt lat="38.9161310" lon="1.2274390">
        <ele>61.3</ele>
        <time>2020-02-21T15:01:50Z</time>
      </trkpt>
      <trkpt lat="38.9161400" lon="1.2274760">
        <ele>61.4</ele>
        <time>2020-02-21T15:01:51Z</time>
      </trkpt>
      <trkpt lat="38.9161440" lon="1.2274900">
        <ele>61.5</ele>
        <time>2020-02-21T15:01:52Z</time>
      </trkpt>
      <trkpt lat="38.9161400" lon="1.2275310">
        <ele>61.7</ele>
        <time>2020-02-21T15:01:53Z</time>
      </trkpt>
      <trkpt lat="38.9161370" lon="1.2275430">
        <ele>61.8</ele>
        <time>2020-02-21T15:01:54Z</time>
      </trkpt>
      <trkpt lat="38.9161260" lon="1.2275850">
        <ele>62.0</ele>
        <time>2020-02-21T15:01:55Z</time>
      </trkpt>
      <trkpt lat="38.9161210" lon="1.2275970">
        <ele>62.1</ele>
        <time>2020-02-21T15:01:56Z</time>
      </trkpt>
      <trkpt lat="38.9161090" lon="1.2276380">
        <ele>62.2</ele>
        <time>2020-02-21T15:01:57Z</time>
      </trkpt>
      <trkpt lat="38.9161040" lon="1.2276530">
        <ele>62.2</ele>
        <time>2020-02-21T15:01:58Z</time>
      </trkpt>
      <trkpt lat="38.9160890" lon="1.2276970">
        <ele>62.3</ele>
        <time>2020-02-21T15:01:59Z</time>
      </trkpt>
      <trkpt lat="38.9160830" lon="1.2277110">
        <ele>62.4</ele>
        <time>2020-02-21T15:02:00Z</time>
      </trkpt>
      <trkpt lat="38.9160670" lon="1.2277430">
        <ele>62.5</ele>
        <time>2020-02-21T15:02:01Z</time>
      </trkpt>
      <trkpt lat="38.9160460" lon="1.2277800">
        <ele>62.6</ele>
        <time>2020-02-21T15:02:02Z</time>
      </trkpt>
      <trkpt lat="38.9160400" lon="1.2277920">
        <ele>62.7</ele>
        <time>2020-02-21T15:02:03Z</time>
      </trkpt>
      <trkpt lat="38.9160260" lon="1.2278270">
        <ele>62.8</ele>
        <time>2020-02-21T15:02:04Z</time>
      </trkpt>
      <trkpt lat="38.9160200" lon="1.2278410">
        <ele>62.8</ele>
        <time>2020-02-21T15:02:05Z</time>
      </trkpt>
      <trkpt lat="38.9160110" lon="1.2278800">
        <ele>63.0</ele>
        <time>2020-02-21T15:02:06Z</time>
      </trkpt>
      <trkpt lat="38.9159960" lon="1.2279170">
        <ele>63.1</ele>
        <time>2020-02-21T15:02:07Z</time>
      </trkpt>
      <trkpt lat="38.9159800" lon="1.2279580">
        <ele>63.2</ele>
        <time>2020-02-21T15:02:08Z</time>
      </trkpt>
      <trkpt lat="38.9159720" lon="1.2279680">
        <ele>63.2</ele>
        <time>2020-02-21T15:02:09Z</time>
      </trkpt>
      <trkpt lat="38.9159610" lon="1.2280050">
        <ele>63.3</ele>
        <time>2020-02-21T15:02:10Z</time>
      </trkpt>
      <trkpt lat="38.9159450" lon="1.2280570">
        <ele>63.5</ele>
        <time>2020-02-21T15:02:11Z</time>
      </trkpt>
      <trkpt lat="38.9159420" lon="1.2280800">
        <ele>63.5</ele>
        <time>2020-02-21T15:02:12Z</time>
      </trkpt>
      <trkpt lat="38.9159280" lon="1.2281240">
        <ele>63.6</ele>
        <time>2020-02-21T15:02:13Z</time>
      </trkpt>
      <trkpt lat="38.9159230" lon="1.2281390">
        <ele>63.7</ele>
        <time>2020-02-21T15:02:14Z</time>
      </trkpt>
      <trkpt lat="38.9159130" lon="1.2281850">
        <ele>63.7</ele>
        <time>2020-02-21T15:02:15Z</time>
      </trkpt>
      <trkpt lat="38.9158930" lon="1.2282290">
        <ele>63.8</ele>
        <time>2020-02-21T15:02:16Z</time>
      </trkpt>
      <trkpt lat="38.9158850" lon="1.2282430">
        <ele>63.9</ele>
        <time>2020-02-21T15:02:17Z</time>
      </trkpt>
      <trkpt lat="38.9158680" lon="1.2282830">
        <ele>64.0</ele>
        <time>2020-02-21T15:02:18Z</time>
      </trkpt>
      <trkpt lat="38.9158520" lon="1.2283130">
        <ele>64.0</ele>
        <time>2020-02-21T15:02:19Z</time>
      </trkpt>
      <trkpt lat="38.9158330" lon="1.2283540">
        <ele>64.1</ele>
        <time>2020-02-21T15:02:20Z</time>
      </trkpt>
      <trkpt lat="38.9158290" lon="1.2283670">
        <ele>64.2</ele>
        <time>2020-02-21T15:02:21Z</time>
      </trkpt>
      <trkpt lat="38.9158100" lon="1.2284110">
        <ele>64.3</ele>
        <time>2020-02-21T15:02:22Z</time>
      </trkpt>
      <trkpt lat="38.9158020" lon="1.2284280">
        <ele>64.3</ele>
        <time>2020-02-21T15:02:23Z</time>
      </trkpt>
      <trkpt lat="38.9157880" lon="1.2284710">
        <ele>64.4</ele>
        <time>2020-02-21T15:02:24Z</time>
      </trkpt>
      <trkpt lat="38.9157770" lon="1.2285120">
        <ele>64.6</ele>
        <time>2020-02-21T15:02:25Z</time>
      </trkpt>
      <trkpt lat="38.9157640" lon="1.2285520">
        <ele>64.7</ele>
        <time>2020-02-21T15:02:26Z</time>
      </trkpt>
      <trkpt lat="38.9157460" lon="1.2285870">
        <ele>64.8</ele>
        <time>2020-02-21T15:02:27Z</time>
      </trkpt>
      <trkpt lat="38.9157320" lon="1.2286240">
        <ele>64.9</ele>
        <time>2020-02-21T15:02:28Z</time>
      </trkpt>
      <trkpt lat="38.9157260" lon="1.2286580">
        <ele>65.0</ele>
        <time>2020-02-21T15:02:29Z</time>
      </trkpt>
      <trkpt lat="38.9157140" lon="1.2287050">
        <ele>65.2</ele>
        <time>2020-02-21T15:02:30Z</time>
      </trkpt>
      <trkpt lat="38.9156980" lon="1.2287380">
        <ele>65.3</ele>
        <time>2020-02-21T15:02:31Z</time>
      </trkpt>
      <trkpt lat="38.9156790" lon="1.2287850">
        <ele>65.4</ele>
        <time>2020-02-21T15:02:32Z</time>
      </trkpt>
      <trkpt lat="38.9156700" lon="1.2288040">
        <ele>65.5</ele>
        <time>2020-02-21T15:02:33Z</time>
      </trkpt>
      <trkpt lat="38.9156570" lon="1.2288410">
        <ele>65.6</ele>
        <time>2020-02-21T15:02:34Z</time>
      </trkpt>
      <trkpt lat="38.9156470" lon="1.2288780">
        <ele>65.8</ele>
        <time>2020-02-21T15:02:35Z</time>
      </trkpt>
      <trkpt lat="38.9156380" lon="1.2289130">
        <ele>65.9</ele>
        <time>2020-02-21T15:02:36Z</time>
      </trkpt>
      <trkpt lat="38.9156270" lon="1.2289510">
        <ele>66.0</ele>
        <time>2020-02-21T15:02:37Z</time>
      </trkpt>
      <trkpt lat="38.9156110" lon="1.2289880">
        <ele>66.1</ele>
        <time>2020-02-21T15:02:38Z</time>
      </trkpt>
      <trkpt lat="38.9155980" lon="1.2290220">
        <ele>66.2</ele>
        <time>2020-02-21T15:02:39Z</time>
      </trkpt>
      <trkpt lat="38.9155840" lon="1.2290720">
        <ele>66.3</ele>
        <time>2020-02-21T15:02:40Z</time>
      </trkpt>
      <trkpt lat="38.9155790" lon="1.2290890">
        <ele>66.3</ele>
        <time>2020-02-21T15:02:41Z</time>
      </trkpt>
      <trkpt lat="38.9155670" lon="1.2291260">
        <ele>66.4</ele>
        <time>2020-02-21T15:02:42Z</time>
      </trkpt>
      <trkpt lat="38.9155580" lon="1.2291600">
        <ele>66.5</ele>
        <time>2020-02-21T15:02:43Z</time>
      </trkpt>
      <trkpt lat="38.9155440" lon="1.2291960">
        <ele>66.6</ele>
        <time>2020-02-21T15:02:44Z</time>
      </trkpt>
      <trkpt lat="38.9155320" lon="1.2292300">
        <ele>66.7</ele>
        <time>2020-02-21T15:02:45Z</time>
      </trkpt>
      <trkpt lat="38.9155210" lon="1.2292680">
        <ele>66.7</ele>
        <time>2020-02-21T15:02:46Z</time>
      </trkpt>
      <trkpt lat="38.9155110" lon="1.2293050">
        <ele>66.8</ele>
        <time>2020-02-21T15:02:47Z</time>
      </trkpt>
      <trkpt lat="38.9155000" lon="1.2293390">
        <ele>66.9</ele>
        <time>2020-02-21T15:02:48Z</time>
      </trkpt>
      <trkpt lat="38.9154900" lon="1.2293890">
        <ele>67.0</ele>
        <time>2020-02-21T15:02:49Z</time>
      </trkpt>
      <trkpt lat="38.9154860" lon="1.2294070">
        <ele>67.1</ele>
        <time>2020-02-21T15:02:50Z</time>
      </trkpt>
      <trkpt lat="38.9154850" lon="1.2294560">
        <ele>67.2</ele>
        <time>2020-02-21T15:02:51Z</time>
      </trkpt>
      <trkpt lat="38.9154860" lon="1.2294730">
        <ele>67.2</ele>
        <time>2020-02-21T15:02:52Z</time>
      </trkpt>
      <trkpt lat="38.9154890" lon="1.2295100">
        <ele>67.3</ele>
        <time>2020-02-21T15:02:53Z</time>
      </trkpt>
      <trkpt lat="38.9155010" lon="1.2295510">
        <ele>67.7</ele>
        <time>2020-02-21T15:02:54Z</time>
      </trkpt>
      <trkpt lat="38.9155120" lon="1.2295940">
        <ele>67.7</ele>
        <time>2020-02-21T15:02:55Z</time>
      </trkpt>
      <trkpt lat="38.9155350" lon="1.2296310">
        <ele>67.7</ele>
        <time>2020-02-21T15:02:56Z</time>
      </trkpt>
      <trkpt lat="38.9155460" lon="1.2296420">
        <ele>67.7</ele>
        <time>2020-02-21T15:02:57Z</time>
      </trkpt>
      <trkpt lat="38.9155710" lon="1.2296650">
        <ele>67.7</ele>
        <time>2020-02-21T15:02:58Z</time>
      </trkpt>
      <trkpt lat="38.9155980" lon="1.2296750">
        <ele>67.7</ele>
        <time>2020-02-21T15:02:59Z</time>
      </trkpt>
      <trkpt lat="38.9156260" lon="1.2297020">
        <ele>67.7</ele>
        <time>2020-02-21T15:03:00Z</time>
      </trkpt>
      <trkpt lat="38.9156550" lon="1.2297320">
        <ele>67.6</ele>
        <time>2020-02-21T15:03:01Z</time>
      </trkpt>
      <trkpt lat="38.9156820" lon="1.2297560">
        <ele>67.6</ele>
        <time>2020-02-21T15:03:02Z</time>
      </trkpt>
      <trkpt lat="38.9157060" lon="1.2298000">
        <ele>67.6</ele>
        <time>2020-02-21T15:03:03Z</time>
      </trkpt>
      <trkpt lat="38.9157340" lon="1.2298180">
        <ele>67.6</ele>
        <time>2020-02-21T15:03:04Z</time>
      </trkpt>
      <trkpt lat="38.9157750" lon="1.2298380">
        <ele>67.6</ele>
        <time>2020-02-21T15:03:05Z</time>
      </trkpt>
      <trkpt lat="38.9158190" lon="1.2298570">
        <ele>67.6</ele>
        <time>2020-02-21T15:03:06Z</time>
      </trkpt>
      <trkpt lat="38.9158630" lon="1.2298770">
        <ele>67.5</ele>
        <time>2020-02-21T15:03:07Z</time>
      </trkpt>
      <trkpt lat="38.9159100" lon="1.2299010">
        <ele>67.4</ele>
        <time>2020-02-21T15:03:08Z</time>
      </trkpt>
      <trkpt lat="38.9159630" lon="1.2299330">
        <ele>67.3</ele>
        <time>2020-02-21T15:03:09Z</time>
      </trkpt>
      <trkpt lat="38.9160110" lon="1.2299730">
        <ele>67.2</ele>
        <time>2020-02-21T15:03:10Z</time>
      </trkpt>
      <trkpt lat="38.9160690" lon="1.2300210">
        <ele>67.0</ele>
        <time>2020-02-21T15:03:11Z</time>
      </trkpt>
      <trkpt lat="38.9161310" lon="1.2300580">
        <ele>66.8</ele>
        <time>2020-02-21T15:03:12Z</time>
      </trkpt>
      <trkpt lat="38.9162020" lon="1.2301020">
        <ele>66.7</ele>
        <time>2020-02-21T15:03:13Z</time>
      </trkpt>
      <trkpt lat="38.9162560" lon="1.2301380">
        <ele>66.6</ele>
        <time>2020-02-21T15:03:14Z</time>
      </trkpt>
      <trkpt lat="38.9163160" lon="1.2301970">
        <ele>65.7</ele>
        <time>2020-02-21T15:03:15Z</time>
      </trkpt>
      <trkpt lat="38.9163750" lon="1.2302740">
        <ele>64.6</ele>
        <time>2020-02-21T15:03:16Z</time>
      </trkpt>
      <trkpt lat="38.9164450" lon="1.2303590">
        <ele>63.4</ele>
        <time>2020-02-21T15:03:17Z</time>
      </trkpt>
      <trkpt lat="38.9164990" lon="1.2304630">
        <ele>62.0</ele>
        <time>2020-02-21T15:03:18Z</time>
      </trkpt>
      <trkpt lat="38.9165460" lon="1.2305420">
        <ele>60.4</ele>
        <time>2020-02-21T15:03:19Z</time>
      </trkpt>
      <trkpt lat="38.9166130" lon="1.2305660">
        <ele>58.7</ele>
        <time>2020-02-21T15:03:20Z</time>
      </trkpt>
      <trkpt lat="38.9166900" lon="1.2305410">
        <ele>56.6</ele>
        <time>2020-02-21T15:03:21Z</time>
      </trkpt>
      <trkpt lat="38.9167660" lon="1.2304700">
        <ele>54.9</ele>
        <time>2020-02-21T15:03:22Z</time>
      </trkpt>
      <trkpt lat="38.9168340" lon="1.2303910">
        <ele>54.4</ele>
        <time>2020-02-21T15:03:23Z</time>
      </trkpt>
      <trkpt lat="38.9169090" lon="1.2303120">
        <ele>53.9</ele>
        <time>2020-02-21T15:03:24Z</time>
      </trkpt>
      <trkpt lat="38.9169870" lon="1.2302240">
        <ele>53.6</ele>
        <time>2020-02-21T15:03:25Z</time>
      </trkpt>
      <trkpt lat="38.9170660" lon="1.2301290">
        <ele>53.4</ele>
        <time>2020-02-21T15:03:26Z</time>
      </trkpt>
      <trkpt lat="38.9171440" lon="1.2300410">
        <ele>53.6</ele>
        <time>2020-02-21T15:03:27Z</time>
      </trkpt>
      <trkpt lat="38.9172210" lon="1.2299540">
        <ele>54.1</ele>
        <time>2020-02-21T15:03:28Z</time>
      </trkpt>
      <trkpt lat="38.9173030" lon="1.2298810">
        <ele>54.7</ele>
        <time>2020-02-21T15:03:29Z</time>
      </trkpt>
      <trkpt lat="38.9173780" lon="1.2298000">
        <ele>55.6</ele>
        <time>2020-02-21T15:03:30Z</time>
      </trkpt>
      <trkpt lat="38.9174440" lon="1.2297300">
        <ele>56.5</ele>
        <time>2020-02-21T15:03:31Z</time>
      </trkpt>
      <trkpt lat="38.9175050" lon="1.2296700">
        <ele>57.2</ele>
        <time>2020-02-21T15:03:32Z</time>
      </trkpt>
      <trkpt lat="38.9175560" lon="1.2296080">
        <ele>57.9</ele>
        <time>2020-02-21T15:03:33Z</time>
      </trkpt>
      <trkpt lat="38.9176030" lon="1.2295530">
        <ele>58.4</ele>
        <time>2020-02-21T15:03:34Z</time>
      </trkpt>
      <trkpt lat="38.9176440" lon="1.2295030">
        <ele>58.8</ele>
        <time>2020-02-21T15:03:35Z</time>
      </trkpt>
      <trkpt lat="38.9176920" lon="1.2294810">
        <ele>59.2</ele>
        <time>2020-02-21T15:03:36Z</time>
      </trkpt>
      <trkpt lat="38.9177330" lon="1.2294570">
        <ele>59.5</ele>
        <time>2020-02-21T15:03:37Z</time>
      </trkpt>
      <trkpt lat="38.9177710" lon="1.2294330">
        <ele>59.8</ele>
        <time>2020-02-21T15:03:38Z</time>
      </trkpt>
      <trkpt lat="38.9178060" lon="1.2294150">
        <ele>60.1</ele>
        <time>2020-02-21T15:03:39Z</time>
      </trkpt>
      <trkpt lat="38.9178380" lon="1.2293960">
        <ele>60.3</ele>
        <time>2020-02-21T15:03:40Z</time>
      </trkpt>
      <trkpt lat="38.9178710" lon="1.2293860">
        <ele>60.5</ele>
        <time>2020-02-21T15:03:41Z</time>
      </trkpt>
      <trkpt lat="38.9179000" lon="1.2293720">
        <ele>60.7</ele>
        <time>2020-02-21T15:03:42Z</time>
      </trkpt>
      <trkpt lat="38.9179230" lon="1.2293530">
        <ele>60.8</ele>
        <time>2020-02-21T15:03:43Z</time>
      </trkpt>
      <trkpt lat="38.9179580" lon="1.2293390">
        <ele>61.0</ele>
        <time>2020-02-21T15:03:44Z</time>
      </trkpt>
      <trkpt lat="38.9179690" lon="1.2293300">
        <ele>61.1</ele>
        <time>2020-02-21T15:03:45Z</time>
      </trkpt>
      <trkpt lat="38.9180070" lon="1.2293240">
        <ele>61.3</ele>
        <time>2020-02-21T15:03:46Z</time>
      </trkpt>
      <trkpt lat="38.9180210" lon="1.2293230">
        <ele>61.4</ele>
        <time>2020-02-21T15:03:47Z</time>
      </trkpt>
      <trkpt lat="38.9180490" lon="1.2293220">
        <ele>61.5</ele>
        <time>2020-02-21T15:03:48Z</time>
      </trkpt>
      <trkpt lat="38.9180830" lon="1.2293110">
        <ele>61.7</ele>
        <time>2020-02-21T15:03:49Z</time>
      </trkpt>
      <trkpt lat="38.9180920" lon="1.2293070">
        <ele>61.8</ele>
        <time>2020-02-21T15:03:50Z</time>
      </trkpt>
      <trkpt lat="38.9181250" lon="1.2293030">
        <ele>62.0</ele>
        <time>2020-02-21T15:03:51Z</time>
      </trkpt>
      <trkpt lat="38.9181360" lon="1.2293020">
        <ele>62.0</ele>
        <time>2020-02-21T15:03:52Z</time>
      </trkpt>
      <trkpt lat="38.9181670" lon="1.2292830">
        <ele>62.3</ele>
        <time>2020-02-21T15:03:53Z</time>
      </trkpt>
      <trkpt lat="38.9181780" lon="1.2292780">
        <ele>62.4</ele>
        <time>2020-02-21T15:03:54Z</time>
      </trkpt>
      <trkpt lat="38.9182130" lon="1.2292610">
        <ele>62.7</ele>
        <time>2020-02-21T15:03:55Z</time>
      </trkpt>
      <trkpt lat="38.9182230" lon="1.2292510">
        <ele>62.8</ele>
        <time>2020-02-21T15:03:56Z</time>
      </trkpt>
      <trkpt lat="38.9182510" lon="1.2292210">
        <ele>63.2</ele>
        <time>2020-02-21T15:03:57Z</time>
      </trkpt>
      <trkpt lat="38.9182600" lon="1.2292140">
        <ele>63.3</ele>
        <time>2020-02-21T15:03:58Z</time>
      </trkpt>
      <trkpt lat="38.9182880" lon="1.2292020">
        <ele>63.5</ele>
        <time>2020-02-21T15:03:59Z</time>
      </trkpt>
      <trkpt lat="38.9182980" lon="1.2292010">
        <ele>63.6</ele>
        <time>2020-02-21T15:04:00Z</time>
      </trkpt>
      <trkpt lat="38.9183230" lon="1.2291880">
        <ele>63.9</ele>
        <time>2020-02-21T15:04:01Z</time>
      </trkpt>
      <trkpt lat="38.9183580" lon="1.2291800">
        <ele>64.2</ele>
        <time>2020-02-21T15:04:02Z</time>
      </trkpt>
      <trkpt lat="38.9183700" lon="1.2291790">
        <ele>64.2</ele>
        <time>2020-02-21T15:04:03Z</time>
      </trkpt>
      <trkpt lat="38.9184050" lon="1.2291780">
        <ele>64.3</ele>
        <time>2020-02-21T15:04:04Z</time>
      </trkpt>
      <trkpt lat="38.9184170" lon="1.2291830">
        <ele>64.4</ele>
        <time>2020-02-21T15:04:05Z</time>
      </trkpt>
      <trkpt lat="38.9184510" lon="1.2291600">
        <ele>64.5</ele>
        <time>2020-02-21T15:04:06Z</time>
      </trkpt>
      <trkpt lat="38.9184620" lon="1.2291500">
        <ele>64.5</ele>
        <time>2020-02-21T15:04:07Z</time>
      </trkpt>
      <trkpt lat="38.9184910" lon="1.2291490">
        <ele>64.6</ele>
        <time>2020-02-21T15:04:08Z</time>
      </trkpt>
      <trkpt lat="38.9185170" lon="1.2291360">
        <ele>64.7</ele>
        <time>2020-02-21T15:04:09Z</time>
      </trkpt>
      <trkpt lat="38.9185500" lon="1.2291140">
        <ele>64.8</ele>
        <time>2020-02-21T15:04:10Z</time>
      </trkpt>
      <trkpt lat="38.9185610" lon="1.2291080">
        <ele>64.9</ele>
        <time>2020-02-21T15:04:11Z</time>
      </trkpt>
      <trkpt lat="38.9185960" lon="1.2290860">
        <ele>65.0</ele>
        <time>2020-02-21T15:04:12Z</time>
      </trkpt>
      <trkpt lat="38.9186070" lon="1.2290790">
        <ele>65.0</ele>
        <time>2020-02-21T15:04:13Z</time>
      </trkpt>
      <trkpt lat="38.9186390" lon="1.2290600">
        <ele>65.1</ele>
        <time>2020-02-21T15:04:14Z</time>
      </trkpt>
      <trkpt lat="38.9186470" lon="1.2290560">
        <ele>65.1</ele>
        <time>2020-02-21T15:04:15Z</time>
      </trkpt>
      <trkpt lat="38.9186740" lon="1.2290400">
        <ele>65.2</ele>
        <time>2020-02-21T15:04:16Z</time>
      </trkpt>
      <trkpt lat="38.9186850" lon="1.2290360">
        <ele>65.3</ele>
        <time>2020-02-21T15:04:17Z</time>
      </trkpt>
      <trkpt lat="38.9187150" lon="1.2290290">
        <ele>65.4</ele>
        <time>2020-02-21T15:04:18Z</time>
      </trkpt>
      <trkpt lat="38.9187250" lon="1.2290280">
        <ele>65.4</ele>
        <time>2020-02-21T15:04:19Z</time>
      </trkpt>
      <trkpt lat="38.9187550" lon="1.2290150">
        <ele>65.5</ele>
        <time>2020-02-21T15:04:20Z</time>
      </trkpt>
      <trkpt lat="38.9187650" lon="1.2290090">
        <ele>65.6</ele>
        <time>2020-02-21T15:04:21Z</time>
      </trkpt>
      <trkpt lat="38.9187890" lon="1.2289900">
        <ele>65.9</ele>
        <time>2020-02-21T15:04:22Z</time>
      </trkpt>
      <trkpt lat="38.9187970" lon="1.2289850">
        <ele>65.9</ele>
        <time>2020-02-21T15:04:23Z</time>
      </trkpt>
      <trkpt lat="38.9188320" lon="1.2289710">
        <ele>66.4</ele>
        <time>2020-02-21T15:04:24Z</time>
      </trkpt>
      <trkpt lat="38.9188440" lon="1.2289650">
        <ele>66.5</ele>
        <time>2020-02-21T15:04:25Z</time>
      </trkpt>
      <trkpt lat="38.9188730" lon="1.2289470">
        <ele>66.9</ele>
        <time>2020-02-21T15:04:26Z</time>
      </trkpt>
      <trkpt lat="38.9188830" lon="1.2289390">
        <ele>67.0</ele>
        <time>2020-02-21T15:04:27Z</time>
      </trkpt>
      <trkpt lat="38.9189160" lon="1.2289130">
        <ele>67.5</ele>
        <time>2020-02-21T15:04:28Z</time>
      </trkpt>
      <trkpt lat="38.9189260" lon="1.2289020">
        <ele>67.6</ele>
        <time>2020-02-21T15:04:29Z</time>
      </trkpt>
      <trkpt lat="38.9189560" lon="1.2288910">
        <ele>68.0</ele>
        <time>2020-02-21T15:04:30Z</time>
      </trkpt>
      <trkpt lat="38.9189630" lon="1.2288880">
        <ele>68.1</ele>
        <time>2020-02-21T15:04:31Z</time>
      </trkpt>
      <trkpt lat="38.9189880" lon="1.2288770">
        <ele>68.4</ele>
        <time>2020-02-21T15:04:32Z</time>
      </trkpt>
      <trkpt lat="38.9189980" lon="1.2288730">
        <ele>68.5</ele>
        <time>2020-02-21T15:04:33Z</time>
      </trkpt>
      <trkpt lat="38.9190300" lon="1.2288700">
        <ele>68.9</ele>
        <time>2020-02-21T15:04:34Z</time>
      </trkpt>
      <trkpt lat="38.9190410" lon="1.2288680">
        <ele>69.0</ele>
        <time>2020-02-21T15:04:35Z</time>
      </trkpt>
      <trkpt lat="38.9190680" lon="1.2288600">
        <ele>69.3</ele>
        <time>2020-02-21T15:04:36Z</time>
      </trkpt>
      <trkpt lat="38.9191030" lon="1.2288490">
        <ele>69.8</ele>
        <time>2020-02-21T15:04:37Z</time>
      </trkpt>
      <trkpt lat="38.9191140" lon="1.2288440">
        <ele>69.9</ele>
        <time>2020-02-21T15:04:38Z</time>
      </trkpt>
      <trkpt lat="38.9191340" lon="1.2288370">
        <ele>70.2</ele>
        <time>2020-02-21T15:04:39Z</time>
      </trkpt>
      <trkpt lat="38.9191490" lon="1.2288340">
        <ele>70.4</ele>
        <time>2020-02-21T15:04:40Z</time>
      </trkpt>
      <trkpt lat="38.9191660" lon="1.2288320">
        <ele>70.6</ele>
        <time>2020-02-21T15:04:41Z</time>
      </trkpt>
      <trkpt lat="38.9191850" lon="1.2288350">
        <ele>70.8</ele>
        <time>2020-02-21T15:04:42Z</time>
      </trkpt>
      <trkpt lat="38.9192180" lon="1.2288360">
        <ele>71.3</ele>
        <time>2020-02-21T15:04:43Z</time>
      </trkpt>
      <trkpt lat="38.9192290" lon="1.2288330">
        <ele>71.4</ele>
        <time>2020-02-21T15:04:44Z</time>
      </trkpt>
      <trkpt lat="38.9192590" lon="1.2288280">
        <ele>71.8</ele>
        <time>2020-02-21T15:04:45Z</time>
      </trkpt>
      <trkpt lat="38.9192690" lon="1.2288260">
        <ele>71.9</ele>
        <time>2020-02-21T15:04:46Z</time>
      </trkpt>
      <trkpt lat="38.9193030" lon="1.2288250">
        <ele>72.4</ele>
        <time>2020-02-21T15:04:47Z</time>
      </trkpt>
      <trkpt lat="38.9193130" lon="1.2288230">
        <ele>72.5</ele>
        <time>2020-02-21T15:04:48Z</time>
      </trkpt>
      <trkpt lat="38.9193450" lon="1.2288140">
        <ele>72.9</ele>
        <time>2020-02-21T15:04:49Z</time>
      </trkpt>
      <trkpt lat="38.9193570" lon="1.2288150">
        <ele>73.1</ele>
        <time>2020-02-21T15:04:50Z</time>
      </trkpt>
      <trkpt lat="38.9193860" lon="1.2288020">
        <ele>73.5</ele>
        <time>2020-02-21T15:04:51Z</time>
      </trkpt>
      <trkpt lat="38.9193950" lon="1.2287980">
        <ele>73.6</ele>
        <time>2020-02-21T15:04:52Z</time>
      </trkpt>
      <trkpt lat="38.9194110" lon="1.2288000">
        <ele>73.8</ele>
        <time>2020-02-21T15:04:53Z</time>
      </trkpt>
      <trkpt lat="38.9194300" lon="1.2287940">
        <ele>74.1</ele>
        <time>2020-02-21T15:04:54Z</time>
      </trkpt>
      <trkpt lat="38.9194670" lon="1.2287870">
        <ele>74.6</ele>
        <time>2020-02-21T15:04:55Z</time>
      </trkpt>
      <trkpt lat="38.9194770" lon="1.2287860">
        <ele>74.7</ele>
        <time>2020-02-21T15:04:56Z</time>
      </trkpt>
      <trkpt lat="38.9195090" lon="1.2287730">
        <ele>75.2</ele>
        <time>2020-02-21T15:04:57Z</time>
      </trkpt>
      <trkpt lat="38.9195190" lon="1.2287700">
        <ele>75.3</ele>
        <time>2020-02-21T15:04:58Z</time>
      </trkpt>
      <trkpt lat="38.9195510" lon="1.2287630">
        <ele>75.7</ele>
        <time>2020-02-21T15:04:59Z</time>
      </trkpt>
      <trkpt lat="38.9195620" lon="1.2287630">
        <ele>75.9</ele>
        <time>2020-02-21T15:05:00Z</time>
      </trkpt>
      <trkpt lat="38.9195920" lon="1.2287630">
        <ele>76.3</ele>
        <time>2020-02-21T15:05:01Z</time>
      </trkpt>
      <trkpt lat="38.9196030" lon="1.2287590">
        <ele>76.4</ele>
        <time>2020-02-21T15:05:02Z</time>
      </trkpt>
      <trkpt lat="38.9196330" lon="1.2287560">
        <ele>76.8</ele>
        <time>2020-02-21T15:05:03Z</time>
      </trkpt>
      <trkpt lat="38.9196400" lon="1.2287540">
        <ele>76.9</ele>
        <time>2020-02-21T15:05:04Z</time>
      </trkpt>
      <trkpt lat="38.9196680" lon="1.2287440">
        <ele>77.3</ele>
        <time>2020-02-21T15:05:05Z</time>
      </trkpt>
      <trkpt lat="38.9196810" lon="1.2287410">
        <ele>77.4</ele>
        <time>2020-02-21T15:05:06Z</time>
      </trkpt>
      <trkpt lat="38.9197180" lon="1.2287270">
        <ele>77.9</ele>
        <time>2020-02-21T15:05:07Z</time>
      </trkpt>
      <trkpt lat="38.9197310" lon="1.2287200">
        <ele>78.1</ele>
        <time>2020-02-21T15:05:08Z</time>
      </trkpt>
      <trkpt lat="38.9197490" lon="1.2287090">
        <ele>78.4</ele>
        <time>2020-02-21T15:05:09Z</time>
      </trkpt>
      <trkpt lat="38.9197640" lon="1.2287060">
        <ele>78.6</ele>
        <time>2020-02-21T15:05:10Z</time>
      </trkpt>
      <trkpt lat="38.9198000" lon="1.2286930">
        <ele>79.1</ele>
        <time>2020-02-21T15:05:11Z</time>
      </trkpt>
      <trkpt lat="38.9198110" lon="1.2286920">
        <ele>79.2</ele>
        <time>2020-02-21T15:05:12Z</time>
      </trkpt>
      <trkpt lat="38.9198420" lon="1.2286930">
        <ele>79.6</ele>
        <time>2020-02-21T15:05:13Z</time>
      </trkpt>
      <trkpt lat="38.9198510" lon="1.2286920">
        <ele>79.8</ele>
        <time>2020-02-21T15:05:14Z</time>
      </trkpt>
      <trkpt lat="38.9198840" lon="1.2286840">
        <ele>80.2</ele>
        <time>2020-02-21T15:05:15Z</time>
      </trkpt>
      <trkpt lat="38.9198960" lon="1.2286780">
        <ele>80.4</ele>
        <time>2020-02-21T15:05:16Z</time>
      </trkpt>
      <trkpt lat="38.9199250" lon="1.2286640">
        <ele>80.8</ele>
        <time>2020-02-21T15:05:17Z</time>
      </trkpt>
      <trkpt lat="38.9199330" lon="1.2286620">
        <ele>80.9</ele>
        <time>2020-02-21T15:05:18Z</time>
      </trkpt>
      <trkpt lat="38.9199670" lon="1.2286630">
        <ele>81.3</ele>
        <time>2020-02-21T15:05:19Z</time>
      </trkpt>
      <trkpt lat="38.9199780" lon="1.2286620">
        <ele>81.5</ele>
        <time>2020-02-21T15:05:20Z</time>
      </trkpt>
      <trkpt lat="38.9199960" lon="1.2286650">
        <ele>81.7</ele>
        <time>2020-02-21T15:05:21Z</time>
      </trkpt>
      <trkpt lat="38.9200130" lon="1.2286590">
        <ele>81.9</ele>
        <time>2020-02-21T15:05:22Z</time>
      </trkpt>
      <trkpt lat="38.9200450" lon="1.2286490">
        <ele>82.4</ele>
        <time>2020-02-21T15:05:23Z</time>
      </trkpt>
      <trkpt lat="38.9200560" lon="1.2286460">
        <ele>82.5</ele>
        <time>2020-02-21T15:05:24Z</time>
      </trkpt>
      <trkpt lat="38.9200890" lon="1.2286480">
        <ele>82.9</ele>
        <time>2020-02-21T15:05:25Z</time>
      </trkpt>
      <trkpt lat="38.9201000" lon="1.2286520">
        <ele>83.1</ele>
        <time>2020-02-21T15:05:26Z</time>
      </trkpt>
      <trkpt lat="38.9201330" lon="1.2286420">
        <ele>83.5</ele>
        <time>2020-02-21T15:05:27Z</time>
      </trkpt>
      <trkpt lat="38.9201440" lon="1.2286410">
        <ele>83.6</ele>
        <time>2020-02-21T15:05:28Z</time>
      </trkpt>
      <trkpt lat="38.9201780" lon="1.2286430">
        <ele>84.0</ele>
        <time>2020-02-21T15:05:29Z</time>
      </trkpt>
      <trkpt lat="38.9201880" lon="1.2286460">
        <ele>84.1</ele>
        <time>2020-02-21T15:05:30Z</time>
      </trkpt>
      <trkpt lat="38.9202060" lon="1.2286490">
        <ele>84.4</ele>
        <time>2020-02-21T15:05:31Z</time>
      </trkpt>
      <trkpt lat="38.9202230" lon="1.2286470">
        <ele>84.5</ele>
        <time>2020-02-21T15:05:32Z</time>
      </trkpt>
      <trkpt lat="38.9202550" lon="1.2286310">
        <ele>84.9</ele>
        <time>2020-02-21T15:05:33Z</time>
      </trkpt>
      <trkpt lat="38.9202650" lon="1.2286260">
        <ele>85.1</ele>
        <time>2020-02-21T15:05:34Z</time>
      </trkpt>
      <trkpt lat="38.9202940" lon="1.2286190">
        <ele>85.4</ele>
        <time>2020-02-21T15:05:35Z</time>
      </trkpt>
      <trkpt lat="38.9203040" lon="1.2286160">
        <ele>85.5</ele>
        <time>2020-02-21T15:05:36Z</time>
      </trkpt>
      <trkpt lat="38.9203380" lon="1.2286100">
        <ele>85.9</ele>
        <time>2020-02-21T15:05:37Z</time>
      </trkpt>
      <trkpt lat="38.9203490" lon="1.2286060">
        <ele>86.0</ele>
        <time>2020-02-21T15:05:38Z</time>
      </trkpt>
      <trkpt lat="38.9203850" lon="1.2286040">
        <ele>86.3</ele>
        <time>2020-02-21T15:05:39Z</time>
      </trkpt>
      <trkpt lat="38.9203960" lon="1.2286030">
        <ele>86.4</ele>
        <time>2020-02-21T15:05:40Z</time>
      </trkpt>
      <trkpt lat="38.9204260" lon="1.2285930">
        <ele>86.7</ele>
        <time>2020-02-21T15:05:41Z</time>
      </trkpt>
      <trkpt lat="38.9204360" lon="1.2285890">
        <ele>86.8</ele>
        <time>2020-02-21T15:05:42Z</time>
      </trkpt>
      <trkpt lat="38.9204640" lon="1.2285770">
        <ele>87.1</ele>
        <time>2020-02-21T15:05:43Z</time>
      </trkpt>
      <trkpt lat="38.9204740" lon="1.2285750">
        <ele>87.2</ele>
        <time>2020-02-21T15:05:44Z</time>
      </trkpt>
      <trkpt lat="38.9205120" lon="1.2285670">
        <ele>87.5</ele>
        <time>2020-02-21T15:05:45Z</time>
      </trkpt>
      <trkpt lat="38.9205250" lon="1.2285650">
        <ele>87.6</ele>
        <time>2020-02-21T15:05:46Z</time>
      </trkpt>
      <trkpt lat="38.9205490" lon="1.2285550">
        <ele>87.8</ele>
        <time>2020-02-21T15:05:47Z</time>
      </trkpt>
      <trkpt lat="38.9205570" lon="1.2285490">
        <ele>87.8</ele>
        <time>2020-02-21T15:05:48Z</time>
      </trkpt>
      <trkpt lat="38.9205650" lon="1.2285430">
        <ele>87.9</ele>
        <time>2020-02-21T15:05:49Z</time>
      </trkpt>
      <trkpt lat="38.9205820" lon="1.2285380">
        <ele>88.0</ele>
        <time>2020-02-21T15:05:50Z</time>
      </trkpt>
      <trkpt lat="38.9205940" lon="1.2285290">
        <ele>88.1</ele>
        <time>2020-02-21T15:05:51Z</time>
      </trkpt>
      <trkpt lat="38.9206060" lon="1.2285170">
        <ele>88.2</ele>
        <time>2020-02-21T15:05:52Z</time>
      </trkpt>
      <trkpt lat="38.9206260" lon="1.2285090">
        <ele>88.3</ele>
        <time>2020-02-21T15:05:53Z</time>
      </trkpt>
      <trkpt lat="38.9206580" lon="1.2284960">
        <ele>88.5</ele>
        <time>2020-02-21T15:05:54Z</time>
      </trkpt>
      <trkpt lat="38.9206690" lon="1.2284920">
        <ele>88.6</ele>
        <time>2020-02-21T15:05:55Z</time>
      </trkpt>
      <trkpt lat="38.9206940" lon="1.2284790">
        <ele>88.7</ele>
        <time>2020-02-21T15:05:56Z</time>
      </trkpt>
      <trkpt lat="38.9207020" lon="1.2284740">
        <ele>88.8</ele>
        <time>2020-02-21T15:05:57Z</time>
      </trkpt>
      <trkpt lat="38.9207300" lon="1.2284670">
        <ele>88.9</ele>
        <time>2020-02-21T15:05:58Z</time>
      </trkpt>
      <trkpt lat="38.9207400" lon="1.2284650">
        <ele>88.9</ele>
        <time>2020-02-21T15:05:59Z</time>
      </trkpt>
      <trkpt lat="38.9207700" lon="1.2284600">
        <ele>89.0</ele>
        <time>2020-02-21T15:06:00Z</time>
      </trkpt>
      <trkpt lat="38.9207790" lon="1.2284580">
        <ele>89.0</ele>
        <time>2020-02-21T15:06:01Z</time>
      </trkpt>
      <trkpt lat="38.9207900" lon="1.2284540">
        <ele>89.1</ele>
        <time>2020-02-21T15:06:02Z</time>
      </trkpt>
      <trkpt lat="38.9208120" lon="1.2284530">
        <ele>89.1</ele>
        <time>2020-02-21T15:06:03Z</time>
      </trkpt>
      <trkpt lat="38.9208310" lon="1.2284470">
        <ele>89.2</ele>
        <time>2020-02-21T15:06:04Z</time>
      </trkpt>
      <trkpt lat="38.9208430" lon="1.2284370">
        <ele>89.2</ele>
        <time>2020-02-21T15:06:05Z</time>
      </trkpt>
      <trkpt lat="38.9208520" lon="1.2284260">
        <ele>89.2</ele>
        <time>2020-02-21T15:06:06Z</time>
      </trkpt>
      <trkpt lat="38.9208640" lon="1.2284150">
        <ele>89.3</ele>
        <time>2020-02-21T15:06:07Z</time>
      </trkpt>
      <trkpt lat="38.9208770" lon="1.2284110">
        <ele>89.3</ele>
        <time>2020-02-21T15:06:08Z</time>
      </trkpt>
      <trkpt lat="38.9208970" lon="1.2284010">
        <ele>89.3</ele>
        <time>2020-02-21T15:06:09Z</time>
      </trkpt>
      <trkpt lat="38.9209160" lon="1.2283930">
        <ele>89.4</ele>
        <time>2020-02-21T15:06:10Z</time>
      </trkpt>
      <trkpt lat="38.9209290" lon="1.2283880">
        <ele>89.4</ele>
        <time>2020-02-21T15:06:11Z</time>
      </trkpt>
      <trkpt lat="38.9209530" lon="1.2283870">
        <ele>89.4</ele>
        <time>2020-02-21T15:06:12Z</time>
      </trkpt>
      <trkpt lat="38.9209630" lon="1.2283820">
        <ele>89.4</ele>
        <time>2020-02-21T15:06:13Z</time>
      </trkpt>
      <trkpt lat="38.9209950" lon="1.2283700">
        <ele>89.5</ele>
        <time>2020-02-21T15:06:14Z</time>
      </trkpt>
      <trkpt lat="38.9210040" lon="1.2283690">
        <ele>89.5</ele>
        <time>2020-02-21T15:06:15Z</time>
      </trkpt>
      <trkpt lat="38.9210200" lon="1.2283640">
        <ele>89.5</ele>
        <time>2020-02-21T15:06:16Z</time>
      </trkpt>
      <trkpt lat="38.9210320" lon="1.2283570">
        <ele>89.6</ele>
        <time>2020-02-21T15:06:17Z</time>
      </trkpt>
      <trkpt lat="38.9210700" lon="1.2283560">
        <ele>89.9</ele>
        <time>2020-02-21T15:06:18Z</time>
      </trkpt>
      <trkpt lat="38.9210840" lon="1.2283560">
        <ele>90.0</ele>
        <time>2020-02-21T15:06:19Z</time>
      </trkpt>
      <trkpt lat="38.9211020" lon="1.2283470">
        <ele>90.2</ele>
        <time>2020-02-21T15:06:20Z</time>
      </trkpt>
      <trkpt lat="38.9211150" lon="1.2283440">
        <ele>90.3</ele>
        <time>2020-02-21T15:06:21Z</time>
      </trkpt>
      <trkpt lat="38.9211450" lon="1.2283330">
        <ele>90.5</ele>
        <time>2020-02-21T15:06:22Z</time>
      </trkpt>
      <trkpt lat="38.9211540" lon="1.2283310">
        <ele>90.6</ele>
        <time>2020-02-21T15:06:23Z</time>
      </trkpt>
      <trkpt lat="38.9211870" lon="1.2283300">
        <ele>90.8</ele>
        <time>2020-02-21T15:06:24Z</time>
      </trkpt>
      <trkpt lat="38.9211950" lon="1.2283290">
        <ele>90.9</ele>
        <time>2020-02-21T15:06:25Z</time>
      </trkpt>
      <trkpt lat="38.9212260" lon="1.2283190">
        <ele>91.1</ele>
        <time>2020-02-21T15:06:26Z</time>
      </trkpt>
      <trkpt lat="38.9212330" lon="1.2283140">
        <ele>91.1</ele>
        <time>2020-02-21T15:06:27Z</time>
      </trkpt>
      <trkpt lat="38.9212650" lon="1.2282990">
        <ele>91.4</ele>
        <time>2020-02-21T15:06:28Z</time>
      </trkpt>
      <trkpt lat="38.9212740" lon="1.2282950">
        <ele>91.4</ele>
        <time>2020-02-21T15:06:29Z</time>
      </trkpt>
      <trkpt lat="38.9213080" lon="1.2282870">
        <ele>91.6</ele>
        <time>2020-02-21T15:06:30Z</time>
      </trkpt>
      <trkpt lat="38.9213180" lon="1.2282850">
        <ele>91.6</ele>
        <time>2020-02-21T15:06:31Z</time>
      </trkpt>
      <trkpt lat="38.9213310" lon="1.2282800">
        <ele>91.7</ele>
        <time>2020-02-21T15:06:32Z</time>
      </trkpt>
      <trkpt lat="38.9213510" lon="1.2282810">
        <ele>91.7</ele>
        <time>2020-02-21T15:06:33Z</time>
      </trkpt>
      <trkpt lat="38.9213810" lon="1.2282770">
        <ele>91.8</ele>
        <time>2020-02-21T15:06:34Z</time>
      </trkpt>
      <trkpt lat="38.9213920" lon="1.2282760">
        <ele>91.9</ele>
        <time>2020-02-21T15:06:35Z</time>
      </trkpt>
      <trkpt lat="38.9214220" lon="1.2282710">
        <ele>91.9</ele>
        <time>2020-02-21T15:06:36Z</time>
      </trkpt>
      <trkpt lat="38.9214330" lon="1.2282690">
        <ele>92.0</ele>
        <time>2020-02-21T15:06:37Z</time>
      </trkpt>
      <trkpt lat="38.9214610" lon="1.2282710">
        <ele>92.1</ele>
        <time>2020-02-21T15:06:38Z</time>
      </trkpt>
      <trkpt lat="38.9214710" lon="1.2282700">
        <ele>92.1</ele>
        <time>2020-02-21T15:06:39Z</time>
      </trkpt>
      <trkpt lat="38.9214880" lon="1.2282790">
        <ele>92.2</ele>
        <time>2020-02-21T15:06:40Z</time>
      </trkpt>
      <trkpt lat="38.9215010" lon="1.2282880">
        <ele>92.2</ele>
        <time>2020-02-21T15:06:41Z</time>
      </trkpt>
      <trkpt lat="38.9215360" lon="1.2283010">
        <ele>92.3</ele>
        <time>2020-02-21T15:06:42Z</time>
      </trkpt>
      <trkpt lat="38.9215480" lon="1.2283050">
        <ele>92.4</ele>
        <time>2020-02-21T15:06:43Z</time>
      </trkpt>
      <trkpt lat="38.9215750" lon="1.2283020">
        <ele>92.5</ele>
        <time>2020-02-21T15:06:44Z</time>
      </trkpt>
      <trkpt lat="38.9215860" lon="1.2283010">
        <ele>92.6</ele>
        <time>2020-02-21T15:06:45Z</time>
      </trkpt>
      <trkpt lat="38.9216180" lon="1.2283060">
        <ele>92.7</ele>
        <time>2020-02-21T15:06:46Z</time>
      </trkpt>
      <trkpt lat="38.9216300" lon="1.2283070">
        <ele>92.7</ele>
        <time>2020-02-21T15:06:47Z</time>
      </trkpt>
      <trkpt lat="38.9216710" lon="1.2283190">
        <ele>92.8</ele>
        <time>2020-02-21T15:06:48Z</time>
      </trkpt>
      <trkpt lat="38.9216860" lon="1.2283260">
        <ele>92.8</ele>
        <time>2020-02-21T15:06:49Z</time>
      </trkpt>
      <trkpt lat="38.9217160" lon="1.2283360">
        <ele>92.9</ele>
        <time>2020-02-21T15:06:50Z</time>
      </trkpt>
      <trkpt lat="38.9217460" lon="1.2283500">
        <ele>93.0</ele>
        <time>2020-02-21T15:06:51Z</time>
      </trkpt>
      <trkpt lat="38.9217700" lon="1.2283650">
        <ele>93.1</ele>
        <time>2020-02-21T15:06:52Z</time>
      </trkpt>
      <trkpt lat="38.9218110" lon="1.2283800">
        <ele>93.2</ele>
        <time>2020-02-21T15:06:53Z</time>
      </trkpt>
      <trkpt lat="38.9218270" lon="1.2283850">
        <ele>93.2</ele>
        <time>2020-02-21T15:06:54Z</time>
      </trkpt>
      <trkpt lat="38.9218540" lon="1.2284040">
        <ele>93.3</ele>
        <time>2020-02-21T15:06:55Z</time>
      </trkpt>
      <trkpt lat="38.9218830" lon="1.2284190">
        <ele>93.4</ele>
        <time>2020-02-21T15:06:56Z</time>
      </trkpt>
      <trkpt lat="38.9219150" lon="1.2284390">
        <ele>93.7</ele>
        <time>2020-02-21T15:06:57Z</time>
      </trkpt>
      <trkpt lat="38.9219250" lon="1.2284440">
        <ele>93.8</ele>
        <time>2020-02-21T15:06:58Z</time>
      </trkpt>
      <trkpt lat="38.9219590" lon="1.2284610">
        <ele>94.0</ele>
        <time>2020-02-21T15:06:59Z</time>
      </trkpt>
      <trkpt lat="38.9219700" lon="1.2284710">
        <ele>94.1</ele>
        <time>2020-02-21T15:07:00Z</time>
      </trkpt>
      <trkpt lat="38.9219990" lon="1.2284850">
        <ele>94.3</ele>
        <time>2020-02-21T15:07:01Z</time>
      </trkpt>
      <trkpt lat="38.9220260" lon="1.2285050">
        <ele>94.6</ele>
        <time>2020-02-21T15:07:02Z</time>
      </trkpt>
      <trkpt lat="38.9220520" lon="1.2285340">
        <ele>94.8</ele>
        <time>2020-02-21T15:07:03Z</time>
      </trkpt>
      <trkpt lat="38.9220840" lon="1.2285530">
        <ele>95.1</ele>
        <time>2020-02-21T15:07:04Z</time>
      </trkpt>
      <trkpt lat="38.9220960" lon="1.2285620">
        <ele>95.1</ele>
        <time>2020-02-21T15:07:05Z</time>
      </trkpt>
      <trkpt lat="38.9221250" lon="1.2285890">
        <ele>94.9</ele>
        <time>2020-02-21T15:07:06Z</time>
      </trkpt>
      <trkpt lat="38.9221350" lon="1.2285970">
        <ele>94.9</ele>
        <time>2020-02-21T15:07:07Z</time>
      </trkpt>
      <trkpt lat="38.9221620" lon="1.2286260">
        <ele>94.8</ele>
        <time>2020-02-21T15:07:08Z</time>
      </trkpt>
      <trkpt lat="38.9221920" lon="1.2286480">
        <ele>94.6</ele>
        <time>2020-02-21T15:07:09Z</time>
      </trkpt>
      <trkpt lat="38.9222000" lon="1.2286530">
        <ele>94.6</ele>
        <time>2020-02-21T15:07:10Z</time>
      </trkpt>
      <trkpt lat="38.9222250" lon="1.2286670">
        <ele>94.5</ele>
        <time>2020-02-21T15:07:11Z</time>
      </trkpt>
      <trkpt lat="38.9222340" lon="1.2286770">
        <ele>94.4</ele>
        <time>2020-02-21T15:07:12Z</time>
      </trkpt>
      <trkpt lat="38.9222630" lon="1.2287020">
        <ele>94.3</ele>
        <time>2020-02-21T15:07:13Z</time>
      </trkpt>
      <trkpt lat="38.9222740" lon="1.2287110">
        <ele>94.2</ele>
        <time>2020-02-21T15:07:14Z</time>
      </trkpt>
      <trkpt lat="38.9223030" lon="1.2287240">
        <ele>94.1</ele>
        <time>2020-02-21T15:07:15Z</time>
      </trkpt>
      <trkpt lat="38.9223440" lon="1.2287430">
        <ele>93.9</ele>
        <time>2020-02-21T15:07:16Z</time>
      </trkpt>
      <trkpt lat="38.9223580" lon="1.2287540">
        <ele>93.8</ele>
        <time>2020-02-21T15:07:17Z</time>
      </trkpt>
      <trkpt lat="38.9223790" lon="1.2287760">
        <ele>93.7</ele>
        <time>2020-02-21T15:07:18Z</time>
      </trkpt>
      <trkpt lat="38.9224070" lon="1.2288000">
        <ele>93.5</ele>
        <time>2020-02-21T15:07:19Z</time>
      </trkpt>
      <trkpt lat="38.9224210" lon="1.2288080">
        <ele>93.4</ele>
        <time>2020-02-21T15:07:20Z</time>
      </trkpt>
      <trkpt lat="38.9224550" lon="1.2288090">
        <ele>93.2</ele>
        <time>2020-02-21T15:07:21Z</time>
      </trkpt>
      <trkpt lat="38.9224670" lon="1.2288160">
        <ele>93.2</ele>
        <time>2020-02-21T15:07:22Z</time>
      </trkpt>
      <trkpt lat="38.9224990" lon="1.2288480">
        <ele>93.0</ele>
        <time>2020-02-21T15:07:23Z</time>
      </trkpt>
      <trkpt lat="38.9225090" lon="1.2288590">
        <ele>92.9</ele>
        <time>2020-02-21T15:07:24Z</time>
      </trkpt>
      <trkpt lat="38.9225340" lon="1.2288770">
        <ele>92.8</ele>
        <time>2020-02-21T15:07:25Z</time>
      </trkpt>
      <trkpt lat="38.9225730" lon="1.2288820">
        <ele>92.6</ele>
        <time>2020-02-21T15:07:26Z</time>
      </trkpt>
      <trkpt lat="38.9225850" lon="1.2288850">
        <ele>92.5</ele>
        <time>2020-02-21T15:07:27Z</time>
      </trkpt>
      <trkpt lat="38.9226130" lon="1.2288940">
        <ele>92.4</ele>
        <time>2020-02-21T15:07:28Z</time>
      </trkpt>
      <trkpt lat="38.9226440" lon="1.2289090">
        <ele>92.2</ele>
        <time>2020-02-21T15:07:29Z</time>
      </trkpt>
      <trkpt lat="38.9226520" lon="1.2289120">
        <ele>92.2</ele>
        <time>2020-02-21T15:07:30Z</time>
      </trkpt>
      <trkpt lat="38.9226770" lon="1.2289280">
        <ele>92.0</ele>
        <time>2020-02-21T15:07:31Z</time>
      </trkpt>
      <trkpt lat="38.9226870" lon="1.2289360">
        <ele>92.0</ele>
        <time>2020-02-21T15:07:32Z</time>
      </trkpt>
      <trkpt lat="38.9227130" lon="1.2289710">
        <ele>91.8</ele>
        <time>2020-02-21T15:07:33Z</time>
      </trkpt>
      <trkpt lat="38.9227240" lon="1.2289840">
        <ele>91.7</ele>
        <time>2020-02-21T15:07:34Z</time>
      </trkpt>
      <trkpt lat="38.9227550" lon="1.2290020">
        <ele>91.5</ele>
        <time>2020-02-21T15:07:35Z</time>
      </trkpt>
      <trkpt lat="38.9227880" lon="1.2290130">
        <ele>91.3</ele>
        <time>2020-02-21T15:07:36Z</time>
      </trkpt>
      <trkpt lat="38.9228170" lon="1.2290400">
        <ele>91.1</ele>
        <time>2020-02-21T15:07:37Z</time>
      </trkpt>
      <trkpt lat="38.9228450" lon="1.2290580">
        <ele>90.8</ele>
        <time>2020-02-21T15:07:38Z</time>
      </trkpt>
      <trkpt lat="38.9228710" lon="1.2290750">
        <ele>90.6</ele>
        <time>2020-02-21T15:07:39Z</time>
      </trkpt>
      <trkpt lat="38.9228990" lon="1.2290880">
        <ele>90.4</ele>
        <time>2020-02-21T15:07:40Z</time>
      </trkpt>
      <trkpt lat="38.9229270" lon="1.2291040">
        <ele>90.2</ele>
        <time>2020-02-21T15:07:41Z</time>
      </trkpt>
      <trkpt lat="38.9229590" lon="1.2291310">
        <ele>90.0</ele>
        <time>2020-02-21T15:07:42Z</time>
      </trkpt>
      <trkpt lat="38.9229860" lon="1.2291540">
        <ele>89.8</ele>
        <time>2020-02-21T15:07:43Z</time>
      </trkpt>
      <trkpt lat="38.9230130" lon="1.2291810">
        <ele>89.5</ele>
        <time>2020-02-21T15:07:44Z</time>
      </trkpt>
      <trkpt lat="38.9230420" lon="1.2291980">
        <ele>89.3</ele>
        <time>2020-02-21T15:07:45Z</time>
      </trkpt>
      <trkpt lat="38.9230790" lon="1.2292190">
        <ele>89.1</ele>
        <time>2020-02-21T15:07:46Z</time>
      </trkpt>
      <trkpt lat="38.9231100" lon="1.2292460">
        <ele>88.8</ele>
        <time>2020-02-21T15:07:47Z</time>
      </trkpt>
      <trkpt lat="38.9231440" lon="1.2292700">
        <ele>88.6</ele>
        <time>2020-02-21T15:07:48Z</time>
      </trkpt>
      <trkpt lat="38.9231830" lon="1.2293000">
        <ele>88.3</ele>
        <time>2020-02-21T15:07:49Z</time>
      </trkpt>
      <trkpt lat="38.9232210" lon="1.2293320">
        <ele>87.9</ele>
        <time>2020-02-21T15:07:50Z</time>
      </trkpt>
      <trkpt lat="38.9232590" lon="1.2293590">
        <ele>87.6</ele>
        <time>2020-02-21T15:07:51Z</time>
      </trkpt>
      <trkpt lat="38.9233040" lon="1.2293930">
        <ele>87.2</ele>
        <time>2020-02-21T15:07:52Z</time>
      </trkpt>
      <trkpt lat="38.9233480" lon="1.2294040">
        <ele>86.8</ele>
        <time>2020-02-21T15:07:53Z</time>
      </trkpt>
      <trkpt lat="38.9233950" lon="1.2294430">
        <ele>86.5</ele>
        <time>2020-02-21T15:07:54Z</time>
      </trkpt>
      <trkpt lat="38.9234480" lon="1.2294680">
        <ele>86.0</ele>
        <time>2020-02-21T15:07:55Z</time>
      </trkpt>
      <trkpt lat="38.9235050" lon="1.2294920">
        <ele>85.5</ele>
        <time>2020-02-21T15:07:56Z</time>
      </trkpt>
      <trkpt lat="38.9235570" lon="1.2295060">
        <ele>85.1</ele>
        <time>2020-02-21T15:07:57Z</time>
      </trkpt>
      <trkpt lat="38.9236040" lon="1.2295180">
        <ele>84.7</ele>
        <time>2020-02-21T15:07:58Z</time>
      </trkpt>
      <trkpt lat="38.9236550" lon="1.2295290">
        <ele>84.3</ele>
        <time>2020-02-21T15:07:59Z</time>
      </trkpt>
      <trkpt lat="38.9237070" lon="1.2295400">
        <ele>83.8</ele>
        <time>2020-02-21T15:08:00Z</time>
      </trkpt>
      <trkpt lat="38.9237650" lon="1.2295370">
        <ele>83.3</ele>
        <time>2020-02-21T15:08:01Z</time>
      </trkpt>
      <trkpt lat="38.9238220" lon="1.2295390">
        <ele>82.7</ele>
        <time>2020-02-21T15:08:02Z</time>
      </trkpt>
      <trkpt lat="38.9238760" lon="1.2295420">
        <ele>82.2</ele>
        <time>2020-02-21T15:08:03Z</time>
      </trkpt>
      <trkpt lat="38.9239370" lon="1.2295430">
        <ele>81.6</ele>
        <time>2020-02-21T15:08:04Z</time>
      </trkpt>
      <trkpt lat="38.9239850" lon="1.2295490">
        <ele>81.2</ele>
        <time>2020-02-21T15:08:05Z</time>
      </trkpt>
      <trkpt lat="38.9240320" lon="1.2295510">
        <ele>80.7</ele>
        <time>2020-02-21T15:08:06Z</time>
      </trkpt>
      <trkpt lat="38.9240790" lon="1.2295680">
        <ele>80.3</ele>
        <time>2020-02-21T15:08:07Z</time>
      </trkpt>
      <trkpt lat="38.9241200" lon="1.2295970">
        <ele>79.8</ele>
        <time>2020-02-21T15:08:08Z</time>
      </trkpt>
      <trkpt lat="38.9241680" lon="1.2296170">
        <ele>79.3</ele>
        <time>2020-02-21T15:08:09Z</time>
      </trkpt>
      <trkpt lat="38.9242170" lon="1.2296330">
        <ele>78.7</ele>
        <time>2020-02-21T15:08:10Z</time>
      </trkpt>
      <trkpt lat="38.9242710" lon="1.2296500">
        <ele>78.1</ele>
        <time>2020-02-21T15:08:11Z</time>
      </trkpt>
      <trkpt lat="38.9243230" lon="1.2296670">
        <ele>77.4</ele>
        <time>2020-02-21T15:08:12Z</time>
      </trkpt>
      <trkpt lat="38.9243730" lon="1.2296860">
        <ele>76.8</ele>
        <time>2020-02-21T15:08:13Z</time>
      </trkpt>
      <trkpt lat="38.9244210" lon="1.2297050">
        <ele>76.1</ele>
        <time>2020-02-21T15:08:14Z</time>
      </trkpt>
      <trkpt lat="38.9244720" lon="1.2297280">
        <ele>75.3</ele>
        <time>2020-02-21T15:08:15Z</time>
      </trkpt>
      <trkpt lat="38.9245320" lon="1.2297520">
        <ele>74.5</ele>
        <time>2020-02-21T15:08:16Z</time>
      </trkpt>
      <trkpt lat="38.9245880" lon="1.2297720">
        <ele>73.7</ele>
        <time>2020-02-21T15:08:17Z</time>
      </trkpt>
      <trkpt lat="38.9246420" lon="1.2297970">
        <ele>72.9</ele>
        <time>2020-02-21T15:08:18Z</time>
      </trkpt>
      <trkpt lat="38.9247120" lon="1.2298010">
        <ele>72.0</ele>
        <time>2020-02-21T15:08:19Z</time>
      </trkpt>
      <trkpt lat="38.9247800" lon="1.2298000">
        <ele>71.1</ele>
        <time>2020-02-21T15:08:20Z</time>
      </trkpt>
      <trkpt lat="38.9248640" lon="1.2297870">
        <ele>70.0</ele>
        <time>2020-02-21T15:08:21Z</time>
      </trkpt>
      <trkpt lat="38.9249460" lon="1.2297690">
        <ele>68.8</ele>
        <time>2020-02-21T15:08:22Z</time>
      </trkpt>
      <trkpt lat="38.9250080" lon="1.2297590">
        <ele>68.0</ele>
        <time>2020-02-21T15:08:23Z</time>
      </trkpt>
      <trkpt lat="38.9250680" lon="1.2297450">
        <ele>67.1</ele>
        <time>2020-02-21T15:08:24Z</time>
      </trkpt>
      <trkpt lat="38.9251310" lon="1.2297380">
        <ele>66.1</ele>
        <time>2020-02-21T15:08:25Z</time>
      </trkpt>
      <trkpt lat="38.9251970" lon="1.2297310">
        <ele>65.0</ele>
        <time>2020-02-21T15:08:26Z</time>
      </trkpt>
      <trkpt lat="38.9252700" lon="1.2297180">
        <ele>63.8</ele>
        <time>2020-02-21T15:08:27Z</time>
      </trkpt>
      <trkpt lat="38.9253460" lon="1.2297110">
        <ele>62.6</ele>
        <time>2020-02-21T15:08:28Z</time>
      </trkpt>
      <trkpt lat="38.9254300" lon="1.2297090">
        <ele>61.1</ele>
        <time>2020-02-21T15:08:29Z</time>
      </trkpt>
      <trkpt lat="38.9255180" lon="1.2297140">
        <ele>59.6</ele>
        <time>2020-02-21T15:08:30Z</time>
      </trkpt>
      <trkpt lat="38.9255990" lon="1.2297030">
        <ele>58.1</ele>
        <time>2020-02-21T15:08:31Z</time>
      </trkpt>
      <trkpt lat="38.9256810" lon="1.2296920">
        <ele>56.6</ele>
        <time>2020-02-21T15:08:32Z</time>
      </trkpt>
      <trkpt lat="38.9257640" lon="1.2296740">
        <ele>55.0</ele>
        <time>2020-02-21T15:08:33Z</time>
      </trkpt>
      <trkpt lat="38.9258540" lon="1.2296470">
        <ele>53.4</ele>
        <time>2020-02-21T15:08:34Z</time>
      </trkpt>
      <trkpt lat="38.9259330" lon="1.2296240">
        <ele>52.0</ele>
        <time>2020-02-21T15:08:35Z</time>
      </trkpt>
      <trkpt lat="38.9260090" lon="1.2295990">
        <ele>50.7</ele>
        <time>2020-02-21T15:08:36Z</time>
      </trkpt>
      <trkpt lat="38.9260860" lon="1.2295790">
        <ele>49.4</ele>
        <time>2020-02-21T15:08:37Z</time>
      </trkpt>
      <trkpt lat="38.9261630" lon="1.2295630">
        <ele>48.1</ele>
        <time>2020-02-21T15:08:38Z</time>
      </trkpt>
      <trkpt lat="38.9262350" lon="1.2295420">
        <ele>46.8</ele>
        <time>2020-02-21T15:08:39Z</time>
      </trkpt>
      <trkpt lat="38.9263100" lon="1.2295110">
        <ele>45.5</ele>
        <time>2020-02-21T15:08:40Z</time>
      </trkpt>
      <trkpt lat="38.9263860" lon="1.2294780">
        <ele>44.1</ele>
        <time>2020-02-21T15:08:41Z</time>
      </trkpt>
      <trkpt lat="38.9264640" lon="1.2294430">
        <ele>42.5</ele>
        <time>2020-02-21T15:08:42Z</time>
      </trkpt>
      <trkpt lat="38.9265440" lon="1.2294140">
        <ele>40.9</ele>
        <time>2020-02-21T15:08:43Z</time>
      </trkpt>
      <trkpt lat="38.9266210" lon="1.2293860">
        <ele>39.4</ele>
        <time>2020-02-21T15:08:44Z</time>
      </trkpt>
      <trkpt lat="38.9267000" lon="1.2293620">
        <ele>37.8</ele>
        <time>2020-02-21T15:08:45Z</time>
      </trkpt>
      <trkpt lat="38.9267780" lon="1.2293450">
        <ele>36.2</ele>
        <time>2020-02-21T15:08:46Z</time>
      </trkpt>
      <trkpt lat="38.9268530" lon="1.2293240">
        <ele>34.5</ele>
        <time>2020-02-21T15:08:47Z</time>
      </trkpt>
      <trkpt lat="38.9269270" lon="1.2292940">
        <ele>33.0</ele>
        <time>2020-02-21T15:08:48Z</time>
      </trkpt>
      <trkpt lat="38.9270080" lon="1.2292710">
        <ele>31.9</ele>
        <time>2020-02-21T15:08:49Z</time>
      </trkpt>
      <trkpt lat="38.9270870" lon="1.2292430">
        <ele>30.8</ele>
        <time>2020-02-21T15:08:50Z</time>
      </trkpt>
      <trkpt lat="38.9271630" lon="1.2292260">
        <ele>29.6</ele>
        <time>2020-02-21T15:08:51Z</time>
      </trkpt>
      <trkpt lat="38.9272360" lon="1.2292070">
        <ele>28.4</ele>
        <time>2020-02-21T15:08:52Z</time>
      </trkpt>
      <trkpt lat="38.9273100" lon="1.2291980">
        <ele>26.9</ele>
        <time>2020-02-21T15:08:53Z</time>
      </trkpt>
      <trkpt lat="38.9273820" lon="1.2291880">
        <ele>25.5</ele>
        <time>2020-02-21T15:08:54Z</time>
      </trkpt>
      <trkpt lat="38.9274500" lon="1.2292020">
        <ele>28.0</ele>
        <time>2020-02-21T15:08:55Z</time>
      </trkpt>
      <trkpt lat="38.9275020" lon="1.2292440">
        <ele>28.1</ele>
        <time>2020-02-21T15:08:56Z</time>
      </trkpt>
      <trkpt lat="38.9275350" lon="1.2293280">
        <ele>27.2</ele>
        <time>2020-02-21T15:08:57Z</time>
      </trkpt>
      <trkpt lat="38.9275530" lon="1.2294310">
        <ele>26.8</ele>
        <time>2020-02-21T15:08:58Z</time>
      </trkpt>
      <trkpt lat="38.9275550" lon="1.2295380">
        <ele>26.4</ele>
        <time>2020-02-21T15:08:59Z</time>
      </trkpt>
      <trkpt lat="38.9275550" lon="1.2296490">
        <ele>26.1</ele>
        <time>2020-02-21T15:09:00Z</time>
      </trkpt>
      <trkpt lat="38.9275380" lon="1.2297560">
        <ele>25.8</ele>
        <time>2020-02-21T15:09:01Z</time>
      </trkpt>
      <trkpt lat="38.9275240" lon="1.2298670">
        <ele>25.6</ele>
        <time>2020-02-21T15:09:02Z</time>
      </trkpt>
      <trkpt lat="38.9275030" lon="1.2299790">
        <ele>25.3</ele>
        <time>2020-02-21T15:09:03Z</time>
      </trkpt>
      <trkpt lat="38.9274900" lon="1.2300900">
        <ele>25.2</ele>
        <time>2020-02-21T15:09:04Z</time>
      </trkpt>
      <trkpt lat="38.9274800" lon="1.2301930">
        <ele>25.1</ele>
        <time>2020-02-21T15:09:05Z</time>
      </trkpt>
      <trkpt lat="38.9274650" lon="1.2302900">
        <ele>25.1</ele>
        <time>2020-02-21T15:09:06Z</time>
      </trkpt>
      <trkpt lat="38.9274500" lon="1.2303830">
        <ele>25.1</ele>
        <time>2020-02-21T15:09:07Z</time>
      </trkpt>
      <trkpt lat="38.9274190" lon="1.2304630">
        <ele>25.1</ele>
        <time>2020-02-21T15:09:08Z</time>
      </trkpt>
      <trkpt lat="38.9273770" lon="1.2305250">
        <ele>25.2</ele>
        <time>2020-02-21T15:09:09Z</time>
      </trkpt>
      <trkpt lat="38.9273310" lon="1.2305810">
        <ele>25.3</ele>
        <time>2020-02-21T15:09:10Z</time>
      </trkpt>
      <trkpt lat="38.9272790" lon="1.2306250">
        <ele>25.4</ele>
        <time>2020-02-21T15:09:11Z</time>
      </trkpt>
      <trkpt lat="38.9272260" lon="1.2306740">
        <ele>25.5</ele>
        <time>2020-02-21T15:09:12Z</time>
      </trkpt>
      <trkpt lat="38.9271670" lon="1.2307100">
        <ele>25.7</ele>
        <time>2020-02-21T15:09:13Z</time>
      </trkpt>
      <trkpt lat="38.9271100" lon="1.2307480">
        <ele>25.9</ele>
        <time>2020-02-21T15:09:14Z</time>
      </trkpt>
      <trkpt lat="38.9270530" lon="1.2307900">
        <ele>26.0</ele>
        <time>2020-02-21T15:09:15Z</time>
      </trkpt>
      <trkpt lat="38.9269930" lon="1.2308290">
        <ele>26.1</ele>
        <time>2020-02-21T15:09:16Z</time>
      </trkpt>
      <trkpt lat="38.9269290" lon="1.2308670">
        <ele>26.2</ele>
        <time>2020-02-21T15:09:17Z</time>
      </trkpt>
      <trkpt lat="38.9268660" lon="1.2309100">
        <ele>26.3</ele>
        <time>2020-02-21T15:09:18Z</time>
      </trkpt>
      <trkpt lat="38.9268090" lon="1.2309600">
        <ele>26.4</ele>
        <time>2020-02-21T15:09:19Z</time>
      </trkpt>
      <trkpt lat="38.9267600" lon="1.2310070">
        <ele>26.6</ele>
        <time>2020-02-21T15:09:20Z</time>
      </trkpt>
      <trkpt lat="38.9267060" lon="1.2310440">
        <ele>26.9</ele>
        <time>2020-02-21T15:09:21Z</time>
      </trkpt>
      <trkpt lat="38.9266460" lon="1.2310720">
        <ele>27.1</ele>
        <time>2020-02-21T15:09:22Z</time>
      </trkpt>
      <trkpt lat="38.9265940" lon="1.2311010">
        <ele>27.3</ele>
        <time>2020-02-21T15:09:23Z</time>
      </trkpt>
      <trkpt lat="38.9265470" lon="1.2311280">
        <ele>27.4</ele>
        <time>2020-02-21T15:09:24Z</time>
      </trkpt>
      <trkpt lat="38.9265040" lon="1.2311630">
        <ele>27.5</ele>
        <time>2020-02-21T15:09:25Z</time>
      </trkpt>
      <trkpt lat="38.9264630" lon="1.2311910">
        <ele>27.6</ele>
        <time>2020-02-21T15:09:26Z</time>
      </trkpt>
      <trkpt lat="38.9264280" lon="1.2312220">
        <ele>27.7</ele>
        <time>2020-02-21T15:09:27Z</time>
      </trkpt>
      <trkpt lat="38.9263950" lon="1.2312520">
        <ele>27.7</ele>
        <time>2020-02-21T15:09:28Z</time>
      </trkpt>
      <trkpt lat="38.9263660" lon="1.2312950">
        <ele>27.8</ele>
        <time>2020-02-21T15:09:29Z</time>
      </trkpt>
      <trkpt lat="38.9263330" lon="1.2313290">
        <ele>27.8</ele>
        <time>2020-02-21T15:09:30Z</time>
      </trkpt>
      <trkpt lat="38.9263000" lon="1.2313600">
        <ele>27.7</ele>
        <time>2020-02-21T15:09:31Z</time>
      </trkpt>
      <trkpt lat="38.9262660" lon="1.2313910">
        <ele>27.6</ele>
        <time>2020-02-21T15:09:32Z</time>
      </trkpt>
      <trkpt lat="38.9262310" lon="1.2314170">
        <ele>27.5</ele>
        <time>2020-02-21T15:09:33Z</time>
      </trkpt>
      <trkpt lat="38.9261950" lon="1.2314420">
        <ele>27.4</ele>
        <time>2020-02-21T15:09:34Z</time>
      </trkpt>
      <trkpt lat="38.9261510" lon="1.2314620">
        <ele>27.3</ele>
        <time>2020-02-21T15:09:35Z</time>
      </trkpt>
      <trkpt lat="38.9261010" lon="1.2314820">
        <ele>27.1</ele>
        <time>2020-02-21T15:09:36Z</time>
      </trkpt>
      <trkpt lat="38.9260520" lon="1.2315300">
        <ele>26.9</ele>
        <time>2020-02-21T15:09:37Z</time>
      </trkpt>
      <trkpt lat="38.9260010" lon="1.2315860">
        <ele>26.6</ele>
        <time>2020-02-21T15:09:38Z</time>
      </trkpt>
      <trkpt lat="38.9259410" lon="1.2316360">
        <ele>26.3</ele>
        <time>2020-02-21T15:09:39Z</time>
      </trkpt>
      <trkpt lat="38.9258800" lon="1.2316800">
        <ele>26.1</ele>
        <time>2020-02-21T15:09:40Z</time>
      </trkpt>
      <trkpt lat="38.9258190" lon="1.2317310">
        <ele>25.8</ele>
        <time>2020-02-21T15:09:41Z</time>
      </trkpt>
      <trkpt lat="38.9257540" lon="1.2317810">
        <ele>25.5</ele>
        <time>2020-02-21T15:09:42Z</time>
      </trkpt>
      <trkpt lat="38.9256850" lon="1.2318320">
        <ele>25.1</ele>
        <time>2020-02-21T15:09:43Z</time>
      </trkpt>
      <trkpt lat="38.9256150" lon="1.2318890">
        <ele>24.7</ele>
        <time>2020-02-21T15:09:44Z</time>
      </trkpt>
      <trkpt lat="38.9255450" lon="1.2319550">
        <ele>24.3</ele>
        <time>2020-02-21T15:09:45Z</time>
      </trkpt>
      <trkpt lat="38.9254700" lon="1.2320170">
        <ele>24.0</ele>
        <time>2020-02-21T15:09:46Z</time>
      </trkpt>
      <trkpt lat="38.9254070" lon="1.2320940">
        <ele>23.7</ele>
        <time>2020-02-21T15:09:47Z</time>
      </trkpt>
      <trkpt lat="38.9253650" lon="1.2321950">
        <ele>23.5</ele>
        <time>2020-02-21T15:09:48Z</time>
      </trkpt>
      <trkpt lat="38.9253410" lon="1.2323010">
        <ele>23.5</ele>
        <time>2020-02-21T15:09:49Z</time>
      </trkpt>
      <trkpt lat="38.9253500" lon="1.2324070">
        <ele>23.6</ele>
        <time>2020-02-21T15:09:50Z</time>
      </trkpt>
      <trkpt lat="38.9254020" lon="1.2324730">
        <ele>23.9</ele>
        <time>2020-02-21T15:09:51Z</time>
      </trkpt>
      <trkpt lat="38.9254590" lon="1.2325170">
        <ele>24.2</ele>
        <time>2020-02-21T15:09:52Z</time>
      </trkpt>
      <trkpt lat="38.9255270" lon="1.2325350">
        <ele>24.5</ele>
        <time>2020-02-21T15:09:53Z</time>
      </trkpt>
      <trkpt lat="38.9255900" lon="1.2325340">
        <ele>25.0</ele>
        <time>2020-02-21T15:09:54Z</time>
      </trkpt>
      <trkpt lat="38.9256480" lon="1.2325270">
        <ele>25.4</ele>
        <time>2020-02-21T15:09:55Z</time>
      </trkpt>
      <trkpt lat="38.9257020" lon="1.2325360">
        <ele>25.8</ele>
        <time>2020-02-21T15:09:56Z</time>
      </trkpt>
      <trkpt lat="38.9257530" lon="1.2325460">
        <ele>26.2</ele>
        <time>2020-02-21T15:09:57Z</time>
      </trkpt>
      <trkpt lat="38.9257910" lon="1.2325630">
        <ele>26.6</ele>
        <time>2020-02-21T15:09:58Z</time>
      </trkpt>
      <trkpt lat="38.9258210" lon="1.2325790">
        <ele>26.9</ele>
        <time>2020-02-21T15:09:59Z</time>
      </trkpt>
      <trkpt lat="38.9258480" lon="1.2325810">
        <ele>27.2</ele>
        <time>2020-02-21T15:10:00Z</time>
      </trkpt>
      <trkpt lat="38.9258850" lon="1.2325850">
        <ele>27.5</ele>
        <time>2020-02-21T15:10:01Z</time>
      </trkpt>
      <trkpt lat="38.9258970" lon="1.2325870">
        <ele>27.6</ele>
        <time>2020-02-21T15:10:02Z</time>
      </trkpt>
      <trkpt lat="38.9259280" lon="1.2326030">
        <ele>27.9</ele>
        <time>2020-02-21T15:10:03Z</time>
      </trkpt>
      <trkpt lat="38.9259600" lon="1.2325960">
        <ele>28.2</ele>
        <time>2020-02-21T15:10:04Z</time>
      </trkpt>
      <trkpt lat="38.9259930" lon="1.2326130">
        <ele>28.5</ele>
        <time>2020-02-21T15:10:05Z</time>
      </trkpt>
      <trkpt lat="38.9260200" lon="1.2326240">
        <ele>28.8</ele>
        <time>2020-02-21T15:10:06Z</time>
      </trkpt>
      <trkpt lat="38.9260550" lon="1.2326380">
        <ele>29.1</ele>
        <time>2020-02-21T15:10:07Z</time>
      </trkpt>
      <trkpt lat="38.9260660" lon="1.2326430">
        <ele>29.2</ele>
        <time>2020-02-21T15:10:08Z</time>
      </trkpt>
      <trkpt lat="38.9261040" lon="1.2326420">
        <ele>29.5</ele>
        <time>2020-02-21T15:10:09Z</time>
      </trkpt>
      <trkpt lat="38.9261180" lon="1.2326430">
        <ele>29.6</ele>
        <time>2020-02-21T15:10:10Z</time>
      </trkpt>
      <trkpt lat="38.9261460" lon="1.2326470">
        <ele>29.8</ele>
        <time>2020-02-21T15:10:11Z</time>
      </trkpt>
      <trkpt lat="38.9261870" lon="1.2326540">
        <ele>30.2</ele>
        <time>2020-02-21T15:10:12Z</time>
      </trkpt>
      <trkpt lat="38.9262020" lon="1.2326580">
        <ele>30.3</ele>
        <time>2020-02-21T15:10:13Z</time>
      </trkpt>
      <trkpt lat="38.9262280" lon="1.2326750">
        <ele>30.5</ele>
        <time>2020-02-21T15:10:14Z</time>
      </trkpt>
      <trkpt lat="38.9262720" lon="1.2326880">
        <ele>30.8</ele>
        <time>2020-02-21T15:10:15Z</time>
      </trkpt>
      <trkpt lat="38.9262880" lon="1.2326920">
        <ele>31.0</ele>
        <time>2020-02-21T15:10:16Z</time>
      </trkpt>
      <trkpt lat="38.9263260" lon="1.2326960">
        <ele>31.3</ele>
        <time>2020-02-21T15:10:17Z</time>
      </trkpt>
      <trkpt lat="38.9263600" lon="1.2327050">
        <ele>31.5</ele>
        <time>2020-02-21T15:10:18Z</time>
      </trkpt>
      <trkpt lat="38.9263980" lon="1.2327200">
        <ele>31.8</ele>
        <time>2020-02-21T15:10:19Z</time>
      </trkpt>
      <trkpt lat="38.9264380" lon="1.2327390">
        <ele>32.1</ele>
        <time>2020-02-21T15:10:20Z</time>
      </trkpt>
      <trkpt lat="38.9264790" lon="1.2327600">
        <ele>32.4</ele>
        <time>2020-02-21T15:10:21Z</time>
      </trkpt>
      <trkpt lat="38.9265110" lon="1.2327760">
        <ele>32.6</ele>
        <time>2020-02-21T15:10:22Z</time>
      </trkpt>
      <trkpt lat="38.9265440" lon="1.2328050">
        <ele>32.8</ele>
        <time>2020-02-21T15:10:23Z</time>
      </trkpt>
      <trkpt lat="38.9265830" lon="1.2328290">
        <ele>33.1</ele>
        <time>2020-02-21T15:10:24Z</time>
      </trkpt>
      <trkpt lat="38.9265990" lon="1.2328420">
        <ele>33.2</ele>
        <time>2020-02-21T15:10:25Z</time>
      </trkpt>
      <trkpt lat="38.9266210" lon="1.2328730">
        <ele>33.3</ele>
        <time>2020-02-21T15:10:26Z</time>
      </trkpt>
      <trkpt lat="38.9266450" lon="1.2328970">
        <ele>33.5</ele>
        <time>2020-02-21T15:10:27Z</time>
      </trkpt>
      <trkpt lat="38.9266700" lon="1.2329150">
        <ele>33.6</ele>
        <time>2020-02-21T15:10:28Z</time>
      </trkpt>
      <trkpt lat="38.9267060" lon="1.2329380">
        <ele>33.7</ele>
        <time>2020-02-21T15:10:29Z</time>
      </trkpt>
      <trkpt lat="38.9267220" lon="1.2329460">
        <ele>33.8</ele>
        <time>2020-02-21T15:10:30Z</time>
      </trkpt>
      <trkpt lat="38.9267550" lon="1.2329700">
        <ele>33.9</ele>
        <time>2020-02-21T15:10:31Z</time>
      </trkpt>
      <trkpt lat="38.9267640" lon="1.2329800">
        <ele>33.9</ele>
        <time>2020-02-21T15:10:32Z</time>
      </trkpt>
      <trkpt lat="38.9267940" lon="1.2330100">
        <ele>34.0</ele>
        <time>2020-02-21T15:10:33Z</time>
      </trkpt>
      <trkpt lat="38.9268190" lon="1.2330440">
        <ele>34.0</ele>
        <time>2020-02-21T15:10:34Z</time>
      </trkpt>
      <trkpt lat="38.9268300" lon="1.2330550">
        <ele>34.0</ele>
        <time>2020-02-21T15:10:35Z</time>
      </trkpt>
      <trkpt lat="38.9268620" lon="1.2330980">
        <ele>34.1</ele>
        <time>2020-02-21T15:10:36Z</time>
      </trkpt>
      <trkpt lat="38.9268860" lon="1.2331320">
        <ele>34.1</ele>
        <time>2020-02-21T15:10:37Z</time>
      </trkpt>
      <trkpt lat="38.9269150" lon="1.2331610">
        <ele>34.1</ele>
        <time>2020-02-21T15:10:38Z</time>
      </trkpt>
      <trkpt lat="38.9269470" lon="1.2331920">
        <ele>34.1</ele>
        <time>2020-02-21T15:10:39Z</time>
      </trkpt>
      <trkpt lat="38.9269770" lon="1.2332260">
        <ele>34.1</ele>
        <time>2020-02-21T15:10:40Z</time>
      </trkpt>
      <trkpt lat="38.9269870" lon="1.2332370">
        <ele>34.1</ele>
        <time>2020-02-21T15:10:41Z</time>
      </trkpt>
      <trkpt lat="38.9270220" lon="1.2332660">
        <ele>34.1</ele>
        <time>2020-02-21T15:10:42Z</time>
      </trkpt>
      <trkpt lat="38.9270540" lon="1.2332950">
        <ele>34.1</ele>
        <time>2020-02-21T15:10:43Z</time>
      </trkpt>
      <trkpt lat="38.9270740" lon="1.2333300">
        <ele>34.1</ele>
        <time>2020-02-21T15:10:44Z</time>
      </trkpt>
      <trkpt lat="38.9271050" lon="1.2333620">
        <ele>34.1</ele>
        <time>2020-02-21T15:10:45Z</time>
      </trkpt>
      <trkpt lat="38.9271290" lon="1.2333970">
        <ele>34.1</ele>
        <time>2020-02-21T15:10:46Z</time>
      </trkpt>
      <trkpt lat="38.9271580" lon="1.2334290">
        <ele>34.0</ele>
        <time>2020-02-21T15:10:47Z</time>
      </trkpt>
      <trkpt lat="38.9271970" lon="1.2334590">
        <ele>34.0</ele>
        <time>2020-02-21T15:10:48Z</time>
      </trkpt>
      <trkpt lat="38.9272490" lon="1.2334850">
        <ele>34.0</ele>
        <time>2020-02-21T15:10:49Z</time>
      </trkpt>
      <trkpt lat="38.9273100" lon="1.2335120">
        <ele>33.9</ele>
        <time>2020-02-21T15:10:50Z</time>
      </trkpt>
      <trkpt lat="38.9273770" lon="1.2335280">
        <ele>33.7</ele>
        <time>2020-02-21T15:10:51Z</time>
      </trkpt>
      <trkpt lat="38.9274330" lon="1.2335390">
        <ele>33.5</ele>
        <time>2020-02-21T15:10:52Z</time>
      </trkpt>
      <trkpt lat="38.9274990" lon="1.2335210">
        <ele>33.2</ele>
        <time>2020-02-21T15:10:53Z</time>
      </trkpt>
      <trkpt lat="38.9275790" lon="1.2334900">
        <ele>32.9</ele>
        <time>2020-02-21T15:10:54Z</time>
      </trkpt>
      <trkpt lat="38.9276440" lon="1.2334330">
        <ele>32.6</ele>
        <time>2020-02-21T15:10:55Z</time>
      </trkpt>
      <trkpt lat="38.9276980" lon="1.2333590">
        <ele>32.3</ele>
        <time>2020-02-21T15:10:56Z</time>
      </trkpt>
      <trkpt lat="38.9277440" lon="1.2332750">
        <ele>32.1</ele>
        <time>2020-02-21T15:10:57Z</time>
      </trkpt>
      <trkpt lat="38.9277730" lon="1.2331850">
        <ele>31.8</ele>
        <time>2020-02-21T15:10:58Z</time>
      </trkpt>
      <trkpt lat="38.9278010" lon="1.2330920">
        <ele>31.5</ele>
        <time>2020-02-21T15:10:59Z</time>
      </trkpt>
      <trkpt lat="38.9278450" lon="1.2329970">
        <ele>31.2</ele>
        <time>2020-02-21T15:11:00Z</time>
      </trkpt>
      <trkpt lat="38.9278880" lon="1.2329010">
        <ele>30.9</ele>
        <time>2020-02-21T15:11:01Z</time>
      </trkpt>
      <trkpt lat="38.9279380" lon="1.2328000">
        <ele>30.5</ele>
        <time>2020-02-21T15:11:02Z</time>
      </trkpt>
      <trkpt lat="38.9279940" lon="1.2327090">
        <ele>30.2</ele>
        <time>2020-02-21T15:11:03Z</time>
      </trkpt>
      <trkpt lat="38.9280510" lon="1.2326260">
        <ele>29.9</ele>
        <time>2020-02-21T15:11:04Z</time>
      </trkpt>
      <trkpt lat="38.9281130" lon="1.2325460">
        <ele>29.7</ele>
        <time>2020-02-21T15:11:05Z</time>
      </trkpt>
      <trkpt lat="38.9281650" lon="1.2324710">
        <ele>29.5</ele>
        <time>2020-02-21T15:11:06Z</time>
      </trkpt>
      <trkpt lat="38.9282280" lon="1.2323850">
        <ele>29.3</ele>
        <time>2020-02-21T15:11:07Z</time>
      </trkpt>
      <trkpt lat="38.9282870" lon="1.2323020">
        <ele>29.2</ele>
        <time>2020-02-21T15:11:08Z</time>
      </trkpt>
      <trkpt lat="38.9283470" lon="1.2322250">
        <ele>29.1</ele>
        <time>2020-02-21T15:11:09Z</time>
      </trkpt>
      <trkpt lat="38.9284000" lon="1.2321480">
        <ele>29.1</ele>
        <time>2020-02-21T15:11:10Z</time>
      </trkpt>
      <trkpt lat="38.9284570" lon="1.2320780">
        <ele>29.1</ele>
        <time>2020-02-21T15:11:11Z</time>
      </trkpt>
      <trkpt lat="38.9285150" lon="1.2320200">
        <ele>29.2</ele>
        <time>2020-02-21T15:11:12Z</time>
      </trkpt>
      <trkpt lat="38.9285690" lon="1.2319580">
        <ele>29.3</ele>
        <time>2020-02-21T15:11:13Z</time>
      </trkpt>
      <trkpt lat="38.9286190" lon="1.2319040">
        <ele>29.4</ele>
        <time>2020-02-21T15:11:14Z</time>
      </trkpt>
      <trkpt lat="38.9286720" lon="1.2318720">
        <ele>29.6</ele>
        <time>2020-02-21T15:11:15Z</time>
      </trkpt>
      <trkpt lat="38.9287270" lon="1.2318660">
        <ele>29.8</ele>
        <time>2020-02-21T15:11:16Z</time>
      </trkpt>
      <trkpt lat="38.9287710" lon="1.2318700">
        <ele>29.9</ele>
        <time>2020-02-21T15:11:17Z</time>
      </trkpt>
      <trkpt lat="38.9288040" lon="1.2318930">
        <ele>30.1</ele>
        <time>2020-02-21T15:11:18Z</time>
      </trkpt>
      <trkpt lat="38.9288290" lon="1.2319270">
        <ele>30.3</ele>
        <time>2020-02-21T15:11:19Z</time>
      </trkpt>
      <trkpt lat="38.9288470" lon="1.2319710">
        <ele>30.4</ele>
        <time>2020-02-21T15:11:20Z</time>
      </trkpt>
      <trkpt lat="38.9288510" lon="1.2320260">
        <ele>30.6</ele>
        <time>2020-02-21T15:11:21Z</time>
      </trkpt>
      <trkpt lat="38.9288540" lon="1.2320820">
        <ele>30.8</ele>
        <time>2020-02-21T15:11:22Z</time>
      </trkpt>
      <trkpt lat="38.9288520" lon="1.2321320">
        <ele>31.0</ele>
        <time>2020-02-21T15:11:23Z</time>
      </trkpt>
      <trkpt lat="38.9288510" lon="1.2321810">
        <ele>31.2</ele>
        <time>2020-02-21T15:11:24Z</time>
      </trkpt>
      <trkpt lat="38.9288570" lon="1.2322300">
        <ele>31.3</ele>
        <time>2020-02-21T15:11:25Z</time>
      </trkpt>
      <trkpt lat="38.9288620" lon="1.2322820">
        <ele>31.5</ele>
        <time>2020-02-21T15:11:26Z</time>
      </trkpt>
      <trkpt lat="38.9288500" lon="1.2323390">
        <ele>31.7</ele>
        <time>2020-02-21T15:11:27Z</time>
      </trkpt>
      <trkpt lat="38.9288490" lon="1.2323930">
        <ele>31.8</ele>
        <time>2020-02-21T15:11:28Z</time>
      </trkpt>
      <trkpt lat="38.9288400" lon="1.2324480">
        <ele>32.0</ele>
        <time>2020-02-21T15:11:29Z</time>
      </trkpt>
      <trkpt lat="38.9288320" lon="1.2325010">
        <ele>32.1</ele>
        <time>2020-02-21T15:11:30Z</time>
      </trkpt>
      <trkpt lat="38.9288190" lon="1.2325530">
        <ele>32.2</ele>
        <time>2020-02-21T15:11:31Z</time>
      </trkpt>
      <trkpt lat="38.9288140" lon="1.2326040">
        <ele>32.3</ele>
        <time>2020-02-21T15:11:32Z</time>
      </trkpt>
      <trkpt lat="38.9288110" lon="1.2326590">
        <ele>32.4</ele>
        <time>2020-02-21T15:11:33Z</time>
      </trkpt>
      <trkpt lat="38.9288220" lon="1.2327170">
        <ele>32.5</ele>
        <time>2020-02-21T15:11:34Z</time>
      </trkpt>
      <trkpt lat="38.9288170" lon="1.2327710">
        <ele>32.5</ele>
        <time>2020-02-21T15:11:35Z</time>
      </trkpt>
      <trkpt lat="38.9288170" lon="1.2328270">
        <ele>32.6</ele>
        <time>2020-02-21T15:11:36Z</time>
      </trkpt>
      <trkpt lat="38.9288170" lon="1.2328810">
        <ele>32.6</ele>
        <time>2020-02-21T15:11:37Z</time>
      </trkpt>
      <trkpt lat="38.9288150" lon="1.2329330">
        <ele>32.6</ele>
        <time>2020-02-21T15:11:38Z</time>
      </trkpt>
      <trkpt lat="38.9288190" lon="1.2329880">
        <ele>32.5</ele>
        <time>2020-02-21T15:11:39Z</time>
      </trkpt>
      <trkpt lat="38.9288180" lon="1.2330450">
        <ele>32.5</ele>
        <time>2020-02-21T15:11:40Z</time>
      </trkpt>
      <trkpt lat="38.9288090" lon="1.2331020">
        <ele>32.4</ele>
        <time>2020-02-21T15:11:41Z</time>
      </trkpt>
      <trkpt lat="38.9287990" lon="1.2331600">
        <ele>32.3</ele>
        <time>2020-02-21T15:11:42Z</time>
      </trkpt>
      <trkpt lat="38.9287870" lon="1.2332210">
        <ele>32.2</ele>
        <time>2020-02-21T15:11:43Z</time>
      </trkpt>
      <trkpt lat="38.9287740" lon="1.2332850">
        <ele>32.1</ele>
        <time>2020-02-21T15:11:44Z</time>
      </trkpt>
      <trkpt lat="38.9287650" lon="1.2333490">
        <ele>32.1</ele>
        <time>2020-02-21T15:11:45Z</time>
      </trkpt>
      <trkpt lat="38.9287520" lon="1.2334100">
        <ele>32.1</ele>
        <time>2020-02-21T15:11:46Z</time>
      </trkpt>
      <trkpt lat="38.9287370" lon="1.2334690">
        <ele>32.1</ele>
        <time>2020-02-21T15:11:47Z</time>
      </trkpt>
      <trkpt lat="38.9287260" lon="1.2335310">
        <ele>32.1</ele>
        <time>2020-02-21T15:11:48Z</time>
      </trkpt>
      <trkpt lat="38.9287170" lon="1.2336080">
        <ele>32.1</ele>
        <time>2020-02-21T15:11:49Z</time>
      </trkpt>
      <trkpt lat="38.9286980" lon="1.2337060">
        <ele>32.0</ele>
        <time>2020-02-21T15:11:50Z</time>
      </trkpt>
      <trkpt lat="38.9286790" lon="1.2338260">
        <ele>31.9</ele>
        <time>2020-02-21T15:11:51Z</time>
      </trkpt>
      <trkpt lat="38.9286500" lon="1.2339560">
        <ele>31.7</ele>
        <time>2020-02-21T15:11:52Z</time>
      </trkpt>
      <trkpt lat="38.9286220" lon="1.2340980">
        <ele>31.4</ele>
        <time>2020-02-21T15:11:53Z</time>
      </trkpt>
      <trkpt lat="38.9286020" lon="1.2342520">
        <ele>31.1</ele>
        <time>2020-02-21T15:11:54Z</time>
      </trkpt>
      <trkpt lat="38.9285750" lon="1.2344020">
        <ele>30.7</ele>
        <time>2020-02-21T15:11:55Z</time>
      </trkpt>
      <trkpt lat="38.9285660" lon="1.2345460">
        <ele>30.3</ele>
        <time>2020-02-21T15:11:56Z</time>
      </trkpt>
      <trkpt lat="38.9285500" lon="1.2346810">
        <ele>30.0</ele>
        <time>2020-02-21T15:11:57Z</time>
      </trkpt>
      <trkpt lat="38.9285310" lon="1.2348060">
        <ele>29.6</ele>
        <time>2020-02-21T15:11:58Z</time>
      </trkpt>
      <trkpt lat="38.9284990" lon="1.2349200">
        <ele>29.2</ele>
        <time>2020-02-21T15:11:59Z</time>
      </trkpt>
      <trkpt lat="38.9284370" lon="1.2350060">
        <ele>28.8</ele>
        <time>2020-02-21T15:12:00Z</time>
      </trkpt>
      <trkpt lat="38.9283540" lon="1.2350750">
        <ele>28.4</ele>
        <time>2020-02-21T15:12:01Z</time>
      </trkpt>
      <trkpt lat="38.9282660" lon="1.2351320">
        <ele>28.1</ele>
        <time>2020-02-21T15:12:02Z</time>
      </trkpt>
      <trkpt lat="38.9281770" lon="1.2351910">
        <ele>27.7</ele>
        <time>2020-02-21T15:12:03Z</time>
      </trkpt>
      <trkpt lat="38.9280930" lon="1.2352590">
        <ele>27.3</ele>
        <time>2020-02-21T15:12:04Z</time>
      </trkpt>
      <trkpt lat="38.9280170" lon="1.2353430">
        <ele>26.9</ele>
        <time>2020-02-21T15:12:05Z</time>
      </trkpt>
      <trkpt lat="38.9279580" lon="1.2354490">
        <ele>26.4</ele>
        <time>2020-02-21T15:12:06Z</time>
      </trkpt>
      <trkpt lat="38.9279080" lon="1.2355650">
        <ele>25.8</ele>
        <time>2020-02-21T15:12:07Z</time>
      </trkpt>
      <trkpt lat="38.9278630" lon="1.2356850">
        <ele>25.3</ele>
        <time>2020-02-21T15:12:08Z</time>
      </trkpt>
      <trkpt lat="38.9278240" lon="1.2358070">
        <ele>24.8</ele>
        <time>2020-02-21T15:12:09Z</time>
      </trkpt>
      <trkpt lat="38.9277880" lon="1.2359320">
        <ele>24.3</ele>
        <time>2020-02-21T15:12:10Z</time>
      </trkpt>
      <trkpt lat="38.9277810" lon="1.2360580">
        <ele>23.8</ele>
        <time>2020-02-21T15:12:11Z</time>
      </trkpt>
      <trkpt lat="38.9277770" lon="1.2361770">
        <ele>23.3</ele>
        <time>2020-02-21T15:12:12Z</time>
      </trkpt>
      <trkpt lat="38.9277810" lon="1.2362780">
        <ele>22.9</ele>
        <time>2020-02-21T15:12:13Z</time>
      </trkpt>
      <trkpt lat="38.9277990" lon="1.2363640">
        <ele>22.6</ele>
        <time>2020-02-21T15:12:14Z</time>
      </trkpt>
      <trkpt lat="38.9278460" lon="1.2364270">
        <ele>22.3</ele>
        <time>2020-02-21T15:12:15Z</time>
      </trkpt>
      <trkpt lat="38.9279190" lon="1.2364630">
        <ele>21.9</ele>
        <time>2020-02-21T15:12:16Z</time>
      </trkpt>
      <trkpt lat="38.9280100" lon="1.2364570">
        <ele>21.2</ele>
        <time>2020-02-21T15:12:17Z</time>
      </trkpt>
      <trkpt lat="38.9280950" lon="1.2364010">
        <ele>20.6</ele>
        <time>2020-02-21T15:12:18Z</time>
      </trkpt>
      <trkpt lat="38.9281850" lon="1.2363530">
        <ele>20.0</ele>
        <time>2020-02-21T15:12:19Z</time>
      </trkpt>
      <trkpt lat="38.9282780" lon="1.2363210">
        <ele>19.5</ele>
        <time>2020-02-21T15:12:20Z</time>
      </trkpt>
      <trkpt lat="38.9283650" lon="1.2363110">
        <ele>19.7</ele>
        <time>2020-02-21T15:12:21Z</time>
      </trkpt>
      <trkpt lat="38.9284450" lon="1.2363130">
        <ele>20.5</ele>
        <time>2020-02-21T15:12:22Z</time>
      </trkpt>
      <trkpt lat="38.9285180" lon="1.2363190">
        <ele>21.6</ele>
        <time>2020-02-21T15:12:23Z</time>
      </trkpt>
      <trkpt lat="38.9285820" lon="1.2362980">
        <ele>22.7</ele>
        <time>2020-02-21T15:12:24Z</time>
      </trkpt>
      <trkpt lat="38.9286290" lon="1.2362810">
        <ele>23.5</ele>
        <time>2020-02-21T15:12:25Z</time>
      </trkpt>
      <trkpt lat="38.9286680" lon="1.2362600">
        <ele>24.0</ele>
        <time>2020-02-21T15:12:26Z</time>
      </trkpt>
      <trkpt lat="38.9287000" lon="1.2362430">
        <ele>24.4</ele>
        <time>2020-02-21T15:12:27Z</time>
      </trkpt>
      <trkpt lat="38.9287370" lon="1.2362450">
        <ele>24.8</ele>
        <time>2020-02-21T15:12:28Z</time>
      </trkpt>
      <trkpt lat="38.9287470" lon="1.2362490">
        <ele>24.9</ele>
        <time>2020-02-21T15:12:29Z</time>
      </trkpt>
      <trkpt lat="38.9287610" lon="1.2362500">
        <ele>25.1</ele>
        <time>2020-02-21T15:12:30Z</time>
      </trkpt>
      <trkpt lat="38.9287750" lon="1.2362440">
        <ele>25.2</ele>
        <time>2020-02-21T15:12:31Z</time>
      </trkpt>
      <trkpt lat="38.9288070" lon="1.2362460">
        <ele>25.6</ele>
        <time>2020-02-21T15:12:32Z</time>
      </trkpt>
      <trkpt lat="38.9288170" lon="1.2362440">
        <ele>25.8</ele>
        <time>2020-02-21T15:12:33Z</time>
      </trkpt>
      <trkpt lat="38.9288460" lon="1.2362380">
        <ele>26.2</ele>
        <time>2020-02-21T15:12:34Z</time>
      </trkpt>
      <trkpt lat="38.9288550" lon="1.2362320">
        <ele>26.3</ele>
        <time>2020-02-21T15:12:35Z</time>
      </trkpt>
      <trkpt lat="38.9288890" lon="1.2362240">
        <ele>26.8</ele>
        <time>2020-02-21T15:12:36Z</time>
      </trkpt>
      <trkpt lat="38.9288990" lon="1.2362200">
        <ele>27.0</ele>
        <time>2020-02-21T15:12:37Z</time>
      </trkpt>
      <trkpt lat="38.9289260" lon="1.2362210">
        <ele>27.3</ele>
        <time>2020-02-21T15:12:38Z</time>
      </trkpt>
      <trkpt lat="38.9289360" lon="1.2362220">
        <ele>27.4</ele>
        <time>2020-02-21T15:12:39Z</time>
      </trkpt>
      <trkpt lat="38.9289710" lon="1.2362170">
        <ele>27.9</ele>
        <time>2020-02-21T15:12:40Z</time>
      </trkpt>
      <trkpt lat="38.9289820" lon="1.2362150">
        <ele>28.0</ele>
        <time>2020-02-21T15:12:41Z</time>
      </trkpt>
      <trkpt lat="38.9290190" lon="1.2362050">
        <ele>28.4</ele>
        <time>2020-02-21T15:12:42Z</time>
      </trkpt>
      <trkpt lat="38.9290290" lon="1.2362000">
        <ele>28.6</ele>
        <time>2020-02-21T15:12:43Z</time>
      </trkpt>
      <trkpt lat="38.9290550" lon="1.2361850">
        <ele>28.8</ele>
        <time>2020-02-21T15:12:44Z</time>
      </trkpt>
      <trkpt lat="38.9290630" lon="1.2361800">
        <ele>28.8</ele>
        <time>2020-02-21T15:12:45Z</time>
      </trkpt>
      <trkpt lat="38.9290910" lon="1.2361750">
        <ele>29.1</ele>
        <time>2020-02-21T15:12:46Z</time>
      </trkpt>
      <trkpt lat="38.9291230" lon="1.2361630">
        <ele>29.3</ele>
        <time>2020-02-21T15:12:47Z</time>
      </trkpt>
      <trkpt lat="38.9291330" lon="1.2361590">
        <ele>29.4</ele>
        <time>2020-02-21T15:12:48Z</time>
      </trkpt>
      <trkpt lat="38.9291620" lon="1.2361410">
        <ele>29.6</ele>
        <time>2020-02-21T15:12:49Z</time>
      </trkpt>
      <trkpt lat="38.9291680" lon="1.2361310">
        <ele>29.7</ele>
        <time>2020-02-21T15:12:50Z</time>
      </trkpt>
      <trkpt lat="38.9291950" lon="1.2361120">
        <ele>30.0</ele>
        <time>2020-02-21T15:12:51Z</time>
      </trkpt>
      <trkpt lat="38.9292030" lon="1.2361040">
        <ele>30.2</ele>
        <time>2020-02-21T15:12:52Z</time>
      </trkpt>
      <trkpt lat="38.9292180" lon="1.2360910">
        <ele>30.4</ele>
        <time>2020-02-21T15:12:53Z</time>
      </trkpt>
      <trkpt lat="38.9292370" lon="1.2360890">
        <ele>30.7</ele>
        <time>2020-02-21T15:12:54Z</time>
      </trkpt>
      <trkpt lat="38.9292500" lon="1.2360810">
        <ele>30.8</ele>
        <time>2020-02-21T15:12:55Z</time>
      </trkpt>
      <trkpt lat="38.9292660" lon="1.2360680">
        <ele>31.0</ele>
        <time>2020-02-21T15:12:56Z</time>
      </trkpt>
      <trkpt lat="38.9292920" lon="1.2360400">
        <ele>31.4</ele>
        <time>2020-02-21T15:12:57Z</time>
      </trkpt>
      <trkpt lat="38.9293010" lon="1.2360310">
        <ele>31.5</ele>
        <time>2020-02-21T15:12:58Z</time>
      </trkpt>
      <trkpt lat="38.9293200" lon="1.2360220">
        <ele>31.8</ele>
        <time>2020-02-21T15:12:59Z</time>
      </trkpt>
      <trkpt lat="38.9293340" lon="1.2360140">
        <ele>32.0</ele>
        <time>2020-02-21T15:13:00Z</time>
      </trkpt>
      <trkpt lat="38.9293530" lon="1.2360070">
        <ele>32.3</ele>
        <time>2020-02-21T15:13:01Z</time>
      </trkpt>
      <trkpt lat="38.9293680" lon="1.2360100">
        <ele>32.5</ele>
        <time>2020-02-21T15:13:02Z</time>
      </trkpt>
      <trkpt lat="38.9293960" lon="1.2360100">
        <ele>32.8</ele>
        <time>2020-02-21T15:13:03Z</time>
      </trkpt>
      <trkpt lat="38.9294060" lon="1.2360090">
        <ele>33.0</ele>
        <time>2020-02-21T15:13:04Z</time>
      </trkpt>
      <trkpt lat="38.9294300" lon="1.2360100">
        <ele>33.2</ele>
        <time>2020-02-21T15:13:05Z</time>
      </trkpt>
      <trkpt lat="38.9294400" lon="1.2360150">
        <ele>33.4</ele>
        <time>2020-02-21T15:13:06Z</time>
      </trkpt>
      <trkpt lat="38.9294490" lon="1.2360190">
        <ele>33.5</ele>
        <time>2020-02-21T15:13:07Z</time>
      </trkpt>
      <trkpt lat="38.9294590" lon="1.2360180">
        <ele>33.6</ele>
        <time>2020-02-21T15:13:08Z</time>
      </trkpt>
      <trkpt lat="38.9294730" lon="1.2360130">
        <ele>33.7</ele>
        <time>2020-02-21T15:13:09Z</time>
      </trkpt>
      <trkpt lat="38.9294830" lon="1.2360140">
        <ele>33.9</ele>
        <time>2020-02-21T15:13:10Z</time>
      </trkpt>
      <trkpt lat="38.9295060" lon="1.2360210">
        <ele>34.1</ele>
        <time>2020-02-21T15:13:11Z</time>
      </trkpt>
      <trkpt lat="38.9295170" lon="1.2360210">
        <ele>34.3</ele>
        <time>2020-02-21T15:13:12Z</time>
      </trkpt>
      <trkpt lat="38.9295280" lon="1.2360210">
        <ele>34.4</ele>
        <time>2020-02-21T15:13:13Z</time>
      </trkpt>
      <trkpt lat="38.9295530" lon="1.2360400">
        <ele>34.7</ele>
        <time>2020-02-21T15:13:14Z</time>
      </trkpt>
      <trkpt lat="38.9295600" lon="1.2360480">
        <ele>34.8</ele>
        <time>2020-02-21T15:13:15Z</time>
      </trkpt>
      <trkpt lat="38.9295660" lon="1.2360400">
        <ele>34.9</ele>
        <time>2020-02-21T15:13:16Z</time>
      </trkpt>
      <trkpt lat="38.9295890" lon="1.2360660">
        <ele>35.1</ele>
        <time>2020-02-21T15:13:17Z</time>
      </trkpt>
      <trkpt lat="38.9296050" lon="1.2360980">
        <ele>35.3</ele>
        <time>2020-02-21T15:13:18Z</time>
      </trkpt>
      <trkpt lat="38.9296100" lon="1.2361090">
        <ele>35.4</ele>
        <time>2020-02-21T15:13:19Z</time>
      </trkpt>
      <trkpt lat="38.9296210" lon="1.2361210">
        <ele>35.5</ele>
        <time>2020-02-21T15:13:20Z</time>
      </trkpt>
      <trkpt lat="38.9296310" lon="1.2361390">
        <ele>35.6</ele>
        <time>2020-02-21T15:13:21Z</time>
      </trkpt>
      <trkpt lat="38.9296460" lon="1.2361550">
        <ele>35.7</ele>
        <time>2020-02-21T15:13:22Z</time>
      </trkpt>
      <trkpt lat="38.9296500" lon="1.2361710">
        <ele>35.8</ele>
        <time>2020-02-21T15:13:23Z</time>
      </trkpt>
      <trkpt lat="38.9296560" lon="1.2361850">
        <ele>35.9</ele>
        <time>2020-02-21T15:13:24Z</time>
      </trkpt>
      <trkpt lat="38.9296610" lon="1.2362040">
        <ele>36.0</ele>
        <time>2020-02-21T15:13:25Z</time>
      </trkpt>
      <trkpt lat="38.9296720" lon="1.2362220">
        <ele>36.1</ele>
        <time>2020-02-21T15:13:26Z</time>
      </trkpt>
      <trkpt lat="38.9296810" lon="1.2362300">
        <ele>36.1</ele>
        <time>2020-02-21T15:13:27Z</time>
      </trkpt>
      <trkpt lat="38.9296830" lon="1.2362510">
        <ele>36.2</ele>
        <time>2020-02-21T15:13:28Z</time>
      </trkpt>
      <trkpt lat="38.9296990" lon="1.2362590">
        <ele>36.3</ele>
        <time>2020-02-21T15:13:29Z</time>
      </trkpt>
      <trkpt lat="38.9297190" lon="1.2362780">
        <ele>36.4</ele>
        <time>2020-02-21T15:13:30Z</time>
      </trkpt>
      <trkpt lat="38.9297260" lon="1.2362860">
        <ele>36.4</ele>
        <time>2020-02-21T15:13:31Z</time>
      </trkpt>
      <trkpt lat="38.9297340" lon="1.2362940">
        <ele>36.5</ele>
        <time>2020-02-21T15:13:32Z</time>
      </trkpt>
      <trkpt lat="38.9297410" lon="1.2363090">
        <ele>36.6</ele>
        <time>2020-02-21T15:13:33Z</time>
      </trkpt>
      <trkpt lat="38.9297520" lon="1.2363210">
        <ele>36.6</ele>
        <time>2020-02-21T15:13:34Z</time>
      </trkpt>
      <trkpt lat="38.9297630" lon="1.2363340">
        <ele>36.7</ele>
        <time>2020-02-21T15:13:35Z</time>
      </trkpt>
      <trkpt lat="38.9297730" lon="1.2363440">
        <ele>36.8</ele>
        <time>2020-02-21T15:13:36Z</time>
      </trkpt>
      <trkpt lat="38.9297790" lon="1.2363540">
        <ele>36.8</ele>
        <time>2020-02-21T15:13:37Z</time>
      </trkpt>
      <trkpt lat="38.9297890" lon="1.2363540">
        <ele>36.9</ele>
        <time>2020-02-21T15:13:38Z</time>
      </trkpt>
      <trkpt lat="38.9298040" lon="1.2363580">
        <ele>37.0</ele>
        <time>2020-02-21T15:13:39Z</time>
      </trkpt>
      <trkpt lat="38.9298330" lon="1.2363270">
        <ele>37.1</ele>
        <time>2020-02-21T15:13:40Z</time>
      </trkpt>
      <trkpt lat="38.9298450" lon="1.2363160">
        <ele>37.2</ele>
        <time>2020-02-21T15:13:41Z</time>
      </trkpt>
      <trkpt lat="38.9298720" lon="1.2363090">
        <ele>37.3</ele>
        <time>2020-02-21T15:13:42Z</time>
      </trkpt>
      <trkpt lat="38.9298800" lon="1.2363050">
        <ele>37.3</ele>
        <time>2020-02-21T15:13:43Z</time>
      </trkpt>
      <trkpt lat="38.9298990" lon="1.2363140">
        <ele>37.3</ele>
        <time>2020-02-21T15:13:44Z</time>
      </trkpt>
      <trkpt lat="38.9299140" lon="1.2362900">
        <ele>37.4</ele>
        <time>2020-02-21T15:13:45Z</time>
      </trkpt>
      <trkpt lat="38.9299330" lon="1.2362640">
        <ele>37.5</ele>
        <time>2020-02-21T15:13:46Z</time>
      </trkpt>
      <trkpt lat="38.9299550" lon="1.2362410">
        <ele>37.5</ele>
        <time>2020-02-21T15:13:47Z</time>
      </trkpt>
      <trkpt lat="38.9299800" lon="1.2362160">
        <ele>37.5</ele>
        <time>2020-02-21T15:13:48Z</time>
      </trkpt>
      <trkpt lat="38.9299860" lon="1.2362110">
        <ele>37.5</ele>
        <time>2020-02-21T15:13:49Z</time>
      </trkpt>
      <trkpt lat="38.9300070" lon="1.2361830">
        <ele>37.5</ele>
        <time>2020-02-21T15:13:50Z</time>
      </trkpt>
      <trkpt lat="38.9300350" lon="1.2361480">
        <ele>37.5</ele>
        <time>2020-02-21T15:13:51Z</time>
      </trkpt>
      <trkpt lat="38.9300440" lon="1.2361370">
        <ele>37.5</ele>
        <time>2020-02-21T15:13:52Z</time>
      </trkpt>
      <trkpt lat="38.9300650" lon="1.2361090">
        <ele>37.4</ele>
        <time>2020-02-21T15:13:53Z</time>
      </trkpt>
      <trkpt lat="38.9300710" lon="1.2361010">
        <ele>37.4</ele>
        <time>2020-02-21T15:13:54Z</time>
      </trkpt>
      <trkpt lat="38.9300820" lon="1.2360610">
        <ele>37.3</ele>
        <time>2020-02-21T15:13:55Z</time>
      </trkpt>
      <trkpt lat="38.9300860" lon="1.2360490">
        <ele>37.3</ele>
        <time>2020-02-21T15:13:56Z</time>
      </trkpt>
      <trkpt lat="38.9300940" lon="1.2360310">
        <ele>37.3</ele>
        <time>2020-02-21T15:13:57Z</time>
      </trkpt>
      <trkpt lat="38.9300900" lon="1.2360140">
        <ele>37.2</ele>
        <time>2020-02-21T15:13:58Z</time>
      </trkpt>
      <trkpt lat="38.9300960" lon="1.2359930">
        <ele>37.2</ele>
        <time>2020-02-21T15:13:59Z</time>
      </trkpt>
      <trkpt lat="38.9301060" lon="1.2359730">
        <ele>37.1</ele>
        <time>2020-02-21T15:14:00Z</time>
      </trkpt>
      <trkpt lat="38.9301280" lon="1.2359490">
        <ele>37.1</ele>
        <time>2020-02-21T15:14:01Z</time>
      </trkpt>
      <trkpt lat="38.9301360" lon="1.2359390">
        <ele>37.0</ele>
        <time>2020-02-21T15:14:02Z</time>
      </trkpt>
      <trkpt lat="38.9301460" lon="1.2359240">
        <ele>37.0</ele>
        <time>2020-02-21T15:14:03Z</time>
      </trkpt>
      <trkpt lat="38.9301570" lon="1.2359090">
        <ele>37.0</ele>
        <time>2020-02-21T15:14:04Z</time>
      </trkpt>
      <trkpt lat="38.9301690" lon="1.2358910">
        <ele>36.9</ele>
        <time>2020-02-21T15:14:05Z</time>
      </trkpt>
      <trkpt lat="38.9301750" lon="1.2358710">
        <ele>36.9</ele>
        <time>2020-02-21T15:14:06Z</time>
      </trkpt>
      <trkpt lat="38.9301790" lon="1.2358560">
        <ele>36.9</ele>
        <time>2020-02-21T15:14:07Z</time>
      </trkpt>
      <trkpt lat="38.9301910" lon="1.2358450">
        <ele>36.9</ele>
        <time>2020-02-21T15:14:08Z</time>
      </trkpt>
      <trkpt lat="38.9301930" lon="1.2358310">
        <ele>36.9</ele>
        <time>2020-02-21T15:14:09Z</time>
      </trkpt>
      <trkpt lat="38.9301960" lon="1.2358140">
        <ele>36.9</ele>
        <time>2020-02-21T15:14:10Z</time>
      </trkpt>
      <trkpt lat="38.9302000" lon="1.2357910">
        <ele>36.9</ele>
        <time>2020-02-21T15:14:11Z</time>
      </trkpt>
      <trkpt lat="38.9302060" lon="1.2357720">
        <ele>36.9</ele>
        <time>2020-02-21T15:14:12Z</time>
      </trkpt>
      <trkpt lat="38.9302140" lon="1.2357530">
        <ele>37.0</ele>
        <time>2020-02-21T15:14:13Z</time>
      </trkpt>
      <trkpt lat="38.9302180" lon="1.2357360">
        <ele>37.0</ele>
        <time>2020-02-21T15:14:14Z</time>
      </trkpt>
      <trkpt lat="38.9302260" lon="1.2357180">
        <ele>37.0</ele>
        <time>2020-02-21T15:14:15Z</time>
      </trkpt>
      <trkpt lat="38.9302350" lon="1.2357010">
        <ele>37.0</ele>
        <time>2020-02-21T15:14:16Z</time>
      </trkpt>
      <trkpt lat="38.9302400" lon="1.2356770">
        <ele>37.1</ele>
        <time>2020-02-21T15:14:17Z</time>
      </trkpt>
      <trkpt lat="38.9302450" lon="1.2356610">
        <ele>37.1</ele>
        <time>2020-02-21T15:14:18Z</time>
      </trkpt>
      <trkpt lat="38.9302500" lon="1.2356400">
        <ele>37.2</ele>
        <time>2020-02-21T15:14:19Z</time>
      </trkpt>
      <trkpt lat="38.9302640" lon="1.2356210">
        <ele>37.3</ele>
        <time>2020-02-21T15:14:20Z</time>
      </trkpt>
      <trkpt lat="38.9302650" lon="1.2356010">
        <ele>37.3</ele>
        <time>2020-02-21T15:14:21Z</time>
      </trkpt>
      <trkpt lat="38.9302710" lon="1.2355820">
        <ele>37.4</ele>
        <time>2020-02-21T15:14:22Z</time>
      </trkpt>
      <trkpt lat="38.9302860" lon="1.2355700">
        <ele>37.5</ele>
        <time>2020-02-21T15:14:23Z</time>
      </trkpt>
      <trkpt lat="38.9302860" lon="1.2355520">
        <ele>37.5</ele>
        <time>2020-02-21T15:14:24Z</time>
      </trkpt>
      <trkpt lat="38.9302920" lon="1.2355440">
        <ele>37.6</ele>
        <time>2020-02-21T15:14:25Z</time>
      </trkpt>
      <trkpt lat="38.9303040" lon="1.2355330">
        <ele>37.7</ele>
        <time>2020-02-21T15:14:26Z</time>
      </trkpt>
      <trkpt lat="38.9303110" lon="1.2355160">
        <ele>37.9</ele>
        <time>2020-02-21T15:14:27Z</time>
      </trkpt>
      <trkpt lat="38.9303150" lon="1.2355080">
        <ele>37.9</ele>
        <time>2020-02-21T15:14:28Z</time>
      </trkpt>
      <trkpt lat="38.9303330" lon="1.2355080">
        <ele>38.1</ele>
        <time>2020-02-21T15:14:29Z</time>
      </trkpt>
      <trkpt lat="38.9303470" lon="1.2355100">
        <ele>38.2</ele>
        <time>2020-02-21T15:14:30Z</time>
      </trkpt>
      <trkpt lat="38.9303630" lon="1.2355000">
        <ele>38.4</ele>
        <time>2020-02-21T15:14:31Z</time>
      </trkpt>
      <trkpt lat="38.9303920" lon="1.2354970">
        <ele>38.7</ele>
        <time>2020-02-21T15:14:32Z</time>
      </trkpt>
      <trkpt lat="38.9304010" lon="1.2354950">
        <ele>38.8</ele>
        <time>2020-02-21T15:14:33Z</time>
      </trkpt>
      <trkpt lat="38.9304170" lon="1.2354890">
        <ele>39.0</ele>
        <time>2020-02-21T15:14:34Z</time>
      </trkpt>
      <trkpt lat="38.9304330" lon="1.2354760">
        <ele>39.1</ele>
        <time>2020-02-21T15:14:35Z</time>
      </trkpt>
      <trkpt lat="38.9304610" lon="1.2354660">
        <ele>39.4</ele>
        <time>2020-02-21T15:14:36Z</time>
      </trkpt>
      <trkpt lat="38.9304700" lon="1.2354620">
        <ele>39.4</ele>
        <time>2020-02-21T15:14:37Z</time>
      </trkpt>
      <trkpt lat="38.9304960" lon="1.2354570">
        <ele>39.6</ele>
        <time>2020-02-21T15:14:38Z</time>
      </trkpt>
      <trkpt lat="38.9305070" lon="1.2354520">
        <ele>39.7</ele>
        <time>2020-02-21T15:14:39Z</time>
      </trkpt>
      <trkpt lat="38.9305340" lon="1.2354530">
        <ele>39.9</ele>
        <time>2020-02-21T15:14:40Z</time>
      </trkpt>
      <trkpt lat="38.9305450" lon="1.2354540">
        <ele>39.9</ele>
        <time>2020-02-21T15:14:41Z</time>
      </trkpt>
      <trkpt lat="38.9305740" lon="1.2354560">
        <ele>40.1</ele>
        <time>2020-02-21T15:14:42Z</time>
      </trkpt>
      <trkpt lat="38.9305840" lon="1.2354550">
        <ele>40.2</ele>
        <time>2020-02-21T15:14:43Z</time>
      </trkpt>
      <trkpt lat="38.9306030" lon="1.2354510">
        <ele>40.3</ele>
        <time>2020-02-21T15:14:44Z</time>
      </trkpt>
      <trkpt lat="38.9306200" lon="1.2354510">
        <ele>40.3</ele>
        <time>2020-02-21T15:14:45Z</time>
      </trkpt>
      <trkpt lat="38.9306350" lon="1.2354490">
        <ele>40.4</ele>
        <time>2020-02-21T15:14:46Z</time>
      </trkpt>
      <trkpt lat="38.9306530" lon="1.2354410">
        <ele>40.5</ele>
        <time>2020-02-21T15:14:47Z</time>
      </trkpt>
      <trkpt lat="38.9306860" lon="1.2354290">
        <ele>40.5</ele>
        <time>2020-02-21T15:14:48Z</time>
      </trkpt>
      <trkpt lat="38.9306970" lon="1.2354190">
        <ele>40.6</ele>
        <time>2020-02-21T15:14:49Z</time>
      </trkpt>
      <trkpt lat="38.9307310" lon="1.2353960">
        <ele>40.6</ele>
        <time>2020-02-21T15:14:50Z</time>
      </trkpt>
      <trkpt lat="38.9307420" lon="1.2353890">
        <ele>40.6</ele>
        <time>2020-02-21T15:14:51Z</time>
      </trkpt>
      <trkpt lat="38.9307680" lon="1.2353650">
        <ele>40.5</ele>
        <time>2020-02-21T15:14:52Z</time>
      </trkpt>
      <trkpt lat="38.9307780" lon="1.2353570">
        <ele>40.5</ele>
        <time>2020-02-21T15:14:53Z</time>
      </trkpt>
      <trkpt lat="38.9308070" lon="1.2353400">
        <ele>40.4</ele>
        <time>2020-02-21T15:14:54Z</time>
      </trkpt>
      <trkpt lat="38.9308160" lon="1.2353300">
        <ele>40.4</ele>
        <time>2020-02-21T15:14:55Z</time>
      </trkpt>
      <trkpt lat="38.9308430" lon="1.2353140">
        <ele>40.2</ele>
        <time>2020-02-21T15:14:56Z</time>
      </trkpt>
      <trkpt lat="38.9308530" lon="1.2353120">
        <ele>40.2</ele>
        <time>2020-02-21T15:14:57Z</time>
      </trkpt>
      <trkpt lat="38.9308750" lon="1.2352910">
        <ele>40.1</ele>
        <time>2020-02-21T15:14:58Z</time>
      </trkpt>
      <trkpt lat="38.9308830" lon="1.2352840">
        <ele>40.0</ele>
        <time>2020-02-21T15:14:59Z</time>
      </trkpt>
      <trkpt lat="38.9309100" lon="1.2352710">
        <ele>39.8</ele>
        <time>2020-02-21T15:15:00Z</time>
      </trkpt>
      <trkpt lat="38.9309190" lon="1.2352650">
        <ele>39.7</ele>
        <time>2020-02-21T15:15:01Z</time>
      </trkpt>
      <trkpt lat="38.9309480" lon="1.2352510">
        <ele>39.5</ele>
        <time>2020-02-21T15:15:02Z</time>
      </trkpt>
      <trkpt lat="38.9309580" lon="1.2352460">
        <ele>39.4</ele>
        <time>2020-02-21T15:15:03Z</time>
      </trkpt>
      <trkpt lat="38.9309690" lon="1.2352360">
        <ele>39.3</ele>
        <time>2020-02-21T15:15:04Z</time>
      </trkpt>
      <trkpt lat="38.9309850" lon="1.2352280">
        <ele>39.2</ele>
        <time>2020-02-21T15:15:05Z</time>
      </trkpt>
      <trkpt lat="38.9310120" lon="1.2352140">
        <ele>39.0</ele>
        <time>2020-02-21T15:15:06Z</time>
      </trkpt>
      <trkpt lat="38.9310220" lon="1.2352050">
        <ele>39.0</ele>
        <time>2020-02-21T15:15:07Z</time>
      </trkpt>
      <trkpt lat="38.9310480" lon="1.2351770">
        <ele>38.8</ele>
        <time>2020-02-21T15:15:08Z</time>
      </trkpt>
      <trkpt lat="38.9310570" lon="1.2351650">
        <ele>38.8</ele>
        <time>2020-02-21T15:15:09Z</time>
      </trkpt>
      <trkpt lat="38.9310730" lon="1.2351660">
        <ele>38.8</ele>
        <time>2020-02-21T15:15:10Z</time>
      </trkpt>
      <trkpt lat="38.9310870" lon="1.2351550">
        <ele>38.8</ele>
        <time>2020-02-21T15:15:11Z</time>
      </trkpt>
      <trkpt lat="38.9311000" lon="1.2351480">
        <ele>38.8</ele>
        <time>2020-02-21T15:15:12Z</time>
      </trkpt>
      <trkpt lat="38.9311160" lon="1.2351350">
        <ele>38.8</ele>
        <time>2020-02-21T15:15:13Z</time>
      </trkpt>
      <trkpt lat="38.9311470" lon="1.2351190">
        <ele>38.9</ele>
        <time>2020-02-21T15:15:14Z</time>
      </trkpt>
      <trkpt lat="38.9311530" lon="1.2351150">
        <ele>38.9</ele>
        <time>2020-02-21T15:15:15Z</time>
      </trkpt>
      <trkpt lat="38.9311760" lon="1.2351100">
        <ele>38.9</ele>
        <time>2020-02-21T15:15:16Z</time>
      </trkpt>
      <trkpt lat="38.9311860" lon="1.2351070">
        <ele>38.9</ele>
        <time>2020-02-21T15:15:17Z</time>
      </trkpt>
      <trkpt lat="38.9311950" lon="1.2351040">
        <ele>38.9</ele>
        <time>2020-02-21T15:15:18Z</time>
      </trkpt>
      <trkpt lat="38.9312110" lon="1.2350980">
        <ele>39.0</ele>
        <time>2020-02-21T15:15:19Z</time>
      </trkpt>
      <trkpt lat="38.9312290" lon="1.2350930">
        <ele>39.1</ele>
        <time>2020-02-21T15:15:20Z</time>
      </trkpt>
      <trkpt lat="38.9312490" lon="1.2350910">
        <ele>39.2</ele>
        <time>2020-02-21T15:15:21Z</time>
      </trkpt>
      <trkpt lat="38.9312640" lon="1.2350910">
        <ele>39.3</ele>
        <time>2020-02-21T15:15:22Z</time>
      </trkpt>
      <trkpt lat="38.9312700" lon="1.2350880">
        <ele>39.3</ele>
        <time>2020-02-21T15:15:23Z</time>
      </trkpt>
      <trkpt lat="38.9312800" lon="1.2350910">
        <ele>39.4</ele>
        <time>2020-02-21T15:15:24Z</time>
      </trkpt>
      <trkpt lat="38.9312940" lon="1.2350870">
        <ele>39.5</ele>
        <time>2020-02-21T15:15:25Z</time>
      </trkpt>
      <trkpt lat="38.9313270" lon="1.2350720">
        <ele>39.8</ele>
        <time>2020-02-21T15:15:26Z</time>
      </trkpt>
      <trkpt lat="38.9313360" lon="1.2350670">
        <ele>39.8</ele>
        <time>2020-02-21T15:15:27Z</time>
      </trkpt>
      <trkpt lat="38.9313530" lon="1.2350620">
        <ele>40.0</ele>
        <time>2020-02-21T15:15:28Z</time>
      </trkpt>
      <trkpt lat="38.9313720" lon="1.2350600">
        <ele>40.0</ele>
        <time>2020-02-21T15:15:29Z</time>
      </trkpt>
      <trkpt lat="38.9313870" lon="1.2350660">
        <ele>40.1</ele>
        <time>2020-02-21T15:15:30Z</time>
      </trkpt>
      <trkpt lat="38.9314010" lon="1.2350750">
        <ele>40.2</ele>
        <time>2020-02-21T15:15:31Z</time>
      </trkpt>
      <trkpt lat="38.9314320" lon="1.2350800">
        <ele>40.3</ele>
        <time>2020-02-21T15:15:32Z</time>
      </trkpt>
      <trkpt lat="38.9314440" lon="1.2350840">
        <ele>40.3</ele>
        <time>2020-02-21T15:15:33Z</time>
      </trkpt>
      <trkpt lat="38.9314710" lon="1.2350950">
        <ele>40.5</ele>
        <time>2020-02-21T15:15:34Z</time>
      </trkpt>
      <trkpt lat="38.9314800" lon="1.2351020">
        <ele>40.5</ele>
        <time>2020-02-21T15:15:35Z</time>
      </trkpt>
      <trkpt lat="38.9315110" lon="1.2351030">
        <ele>40.6</ele>
        <time>2020-02-21T15:15:36Z</time>
      </trkpt>
      <trkpt lat="38.9315260" lon="1.2351040">
        <ele>40.6</ele>
        <time>2020-02-21T15:15:37Z</time>
      </trkpt>
      <trkpt lat="38.9315560" lon="1.2351050">
        <ele>40.7</ele>
        <time>2020-02-21T15:15:38Z</time>
      </trkpt>
      <trkpt lat="38.9315910" lon="1.2351070">
        <ele>40.8</ele>
        <time>2020-02-21T15:15:39Z</time>
      </trkpt>
      <trkpt lat="38.9316020" lon="1.2351080">
        <ele>40.8</ele>
        <time>2020-02-21T15:15:40Z</time>
      </trkpt>
      <trkpt lat="38.9316310" lon="1.2351090">
        <ele>40.9</ele>
        <time>2020-02-21T15:15:41Z</time>
      </trkpt>
      <trkpt lat="38.9316410" lon="1.2351080">
        <ele>40.9</ele>
        <time>2020-02-21T15:15:42Z</time>
      </trkpt>
      <trkpt lat="38.9316700" lon="1.2351180">
        <ele>41.0</ele>
        <time>2020-02-21T15:15:43Z</time>
      </trkpt>
      <trkpt lat="38.9317010" lon="1.2351390">
        <ele>41.0</ele>
        <time>2020-02-21T15:15:44Z</time>
      </trkpt>
      <trkpt lat="38.9317290" lon="1.2351540">
        <ele>41.2</ele>
        <time>2020-02-21T15:15:45Z</time>
      </trkpt>
      <trkpt lat="38.9317670" lon="1.2351700">
        <ele>41.4</ele>
        <time>2020-02-21T15:15:46Z</time>
      </trkpt>
      <trkpt lat="38.9317810" lon="1.2351750">
        <ele>41.4</ele>
        <time>2020-02-21T15:15:47Z</time>
      </trkpt>
      <trkpt lat="38.9318080" lon="1.2351720">
        <ele>41.6</ele>
        <time>2020-02-21T15:15:48Z</time>
      </trkpt>
      <trkpt lat="38.9318360" lon="1.2351740">
        <ele>41.8</ele>
        <time>2020-02-21T15:15:49Z</time>
      </trkpt>
      <trkpt lat="38.9318790" lon="1.2351870">
        <ele>42.1</ele>
        <time>2020-02-21T15:15:50Z</time>
      </trkpt>
      <trkpt lat="38.9318960" lon="1.2351930">
        <ele>42.3</ele>
        <time>2020-02-21T15:15:51Z</time>
      </trkpt>
      <trkpt lat="38.9319260" lon="1.2351880">
        <ele>42.6</ele>
        <time>2020-02-21T15:15:52Z</time>
      </trkpt>
      <trkpt lat="38.9319620" lon="1.2351980">
        <ele>43.1</ele>
        <time>2020-02-21T15:15:53Z</time>
      </trkpt>
      <trkpt lat="38.9319950" lon="1.2352130">
        <ele>43.7</ele>
        <time>2020-02-21T15:15:54Z</time>
      </trkpt>
      <trkpt lat="38.9320300" lon="1.2352190">
        <ele>44.2</ele>
        <time>2020-02-21T15:15:55Z</time>
      </trkpt>
      <trkpt lat="38.9320720" lon="1.2352190">
        <ele>44.9</ele>
        <time>2020-02-21T15:15:56Z</time>
      </trkpt>
      <trkpt lat="38.9320870" lon="1.2352230">
        <ele>45.1</ele>
        <time>2020-02-21T15:15:57Z</time>
      </trkpt>
      <trkpt lat="38.9321140" lon="1.2352300">
        <ele>45.5</ele>
        <time>2020-02-21T15:15:58Z</time>
      </trkpt>
      <trkpt lat="38.9321560" lon="1.2352350">
        <ele>46.3</ele>
        <time>2020-02-21T15:15:59Z</time>
      </trkpt>
      <trkpt lat="38.9321700" lon="1.2352450">
        <ele>46.6</ele>
        <time>2020-02-21T15:16:00Z</time>
      </trkpt>
      <trkpt lat="38.9322070" lon="1.2352560">
        <ele>47.2</ele>
        <time>2020-02-21T15:16:01Z</time>
      </trkpt>
      <trkpt lat="38.9322470" lon="1.2352670">
        <ele>47.9</ele>
        <time>2020-02-21T15:16:02Z</time>
      </trkpt>
      <trkpt lat="38.9322900" lon="1.2352880">
        <ele>48.7</ele>
        <time>2020-02-21T15:16:03Z</time>
      </trkpt>
      <trkpt lat="38.9323320" lon="1.2352900">
        <ele>48.5</ele>
        <time>2020-02-21T15:16:04Z</time>
      </trkpt>
      <trkpt lat="38.9323730" lon="1.2353000">
        <ele>48.3</ele>
        <time>2020-02-21T15:16:05Z</time>
      </trkpt>
      <trkpt lat="38.9324150" lon="1.2353340">
        <ele>48.0</ele>
        <time>2020-02-21T15:16:06Z</time>
      </trkpt>
      <trkpt lat="38.9324490" lon="1.2353560">
        <ele>47.8</ele>
        <time>2020-02-21T15:16:07Z</time>
      </trkpt>
      <trkpt lat="38.9324870" lon="1.2353830">
        <ele>47.6</ele>
        <time>2020-02-21T15:16:08Z</time>
      </trkpt>
      <trkpt lat="38.9325260" lon="1.2354030">
        <ele>47.4</ele>
        <time>2020-02-21T15:16:09Z</time>
      </trkpt>
      <trkpt lat="38.9325640" lon="1.2354320">
        <ele>47.2</ele>
        <time>2020-02-21T15:16:10Z</time>
      </trkpt>
      <trkpt lat="38.9326030" lon="1.2354580">
        <ele>47.0</ele>
        <time>2020-02-21T15:16:11Z</time>
      </trkpt>
      <trkpt lat="38.9326330" lon="1.2354980">
        <ele>46.8</ele>
        <time>2020-02-21T15:16:12Z</time>
      </trkpt>
      <trkpt lat="38.9326620" lon="1.2355400">
        <ele>46.6</ele>
        <time>2020-02-21T15:16:13Z</time>
      </trkpt>
      <trkpt lat="38.9326850" lon="1.2355840">
        <ele>46.4</ele>
        <time>2020-02-21T15:16:14Z</time>
      </trkpt>
      <trkpt lat="38.9327130" lon="1.2356350">
        <ele>45.9</ele>
        <time>2020-02-21T15:16:15Z</time>
      </trkpt>
      <trkpt lat="38.9327530" lon="1.2356960">
        <ele>45.7</ele>
        <time>2020-02-21T15:16:16Z</time>
      </trkpt>
      <trkpt lat="38.9327890" lon="1.2357480">
        <ele>45.6</ele>
        <time>2020-02-21T15:16:17Z</time>
      </trkpt>
      <trkpt lat="38.9328230" lon="1.2358050">
        <ele>45.5</ele>
        <time>2020-02-21T15:16:18Z</time>
      </trkpt>
      <trkpt lat="38.9328540" lon="1.2358600">
        <ele>45.4</ele>
        <time>2020-02-21T15:16:19Z</time>
      </trkpt>
      <trkpt lat="38.9328890" lon="1.2359180">
        <ele>45.2</ele>
        <time>2020-02-21T15:16:20Z</time>
      </trkpt>
      <trkpt lat="38.9329300" lon="1.2359810">
        <ele>45.1</ele>
        <time>2020-02-21T15:16:21Z</time>
      </trkpt>
      <trkpt lat="38.9329720" lon="1.2360420">
        <ele>44.9</ele>
        <time>2020-02-21T15:16:22Z</time>
      </trkpt>
      <trkpt lat="38.9330160" lon="1.2361030">
        <ele>44.7</ele>
        <time>2020-02-21T15:16:23Z</time>
      </trkpt>
      <trkpt lat="38.9330570" lon="1.2361580">
        <ele>44.6</ele>
        <time>2020-02-21T15:16:24Z</time>
      </trkpt>
      <trkpt lat="38.9330990" lon="1.2362170">
        <ele>44.5</ele>
        <time>2020-02-21T15:16:25Z</time>
      </trkpt>
      <trkpt lat="38.9331380" lon="1.2362770">
        <ele>44.4</ele>
        <time>2020-02-21T15:16:26Z</time>
      </trkpt>
      <trkpt lat="38.9331770" lon="1.2363280">
        <ele>44.3</ele>
        <time>2020-02-21T15:16:27Z</time>
      </trkpt>
      <trkpt lat="38.9332130" lon="1.2363800">
        <ele>44.3</ele>
        <time>2020-02-21T15:16:28Z</time>
      </trkpt>
      <trkpt lat="38.9332430" lon="1.2364400">
        <ele>44.2</ele>
        <time>2020-02-21T15:16:29Z</time>
      </trkpt>
      <trkpt lat="38.9332790" lon="1.2365040">
        <ele>44.1</ele>
        <time>2020-02-21T15:16:30Z</time>
      </trkpt>
      <trkpt lat="38.9333150" lon="1.2365750">
        <ele>44.0</ele>
        <time>2020-02-21T15:16:31Z</time>
      </trkpt>
      <trkpt lat="38.9333540" lon="1.2366320">
        <ele>44.0</ele>
        <time>2020-02-21T15:16:32Z</time>
      </trkpt>
      <trkpt lat="38.9333910" lon="1.2366750">
        <ele>43.9</ele>
        <time>2020-02-21T15:16:33Z</time>
      </trkpt>
      <trkpt lat="38.9334290" lon="1.2367250">
        <ele>43.9</ele>
        <time>2020-02-21T15:16:34Z</time>
      </trkpt>
      <trkpt lat="38.9334650" lon="1.2367590">
        <ele>43.8</ele>
        <time>2020-02-21T15:16:35Z</time>
      </trkpt>
      <trkpt lat="38.9334940" lon="1.2368100">
        <ele>43.8</ele>
        <time>2020-02-21T15:16:36Z</time>
      </trkpt>
      <trkpt lat="38.9335270" lon="1.2368600">
        <ele>43.7</ele>
        <time>2020-02-21T15:16:37Z</time>
      </trkpt>
      <trkpt lat="38.9335570" lon="1.2369060">
        <ele>43.7</ele>
        <time>2020-02-21T15:16:38Z</time>
      </trkpt>
      <trkpt lat="38.9335840" lon="1.2369560">
        <ele>43.6</ele>
        <time>2020-02-21T15:16:39Z</time>
      </trkpt>
      <trkpt lat="38.9336080" lon="1.2369980">
        <ele>43.5</ele>
        <time>2020-02-21T15:16:40Z</time>
      </trkpt>
      <trkpt lat="38.9336340" lon="1.2370460">
        <ele>43.4</ele>
        <time>2020-02-21T15:16:41Z</time>
      </trkpt>
      <trkpt lat="38.9336620" lon="1.2370910">
        <ele>43.4</ele>
        <time>2020-02-21T15:16:42Z</time>
      </trkpt>
      <trkpt lat="38.9336910" lon="1.2371350">
        <ele>43.3</ele>
        <time>2020-02-21T15:16:43Z</time>
      </trkpt>
      <trkpt lat="38.9337290" lon="1.2371810">
        <ele>43.1</ele>
        <time>2020-02-21T15:16:44Z</time>
      </trkpt>
      <trkpt lat="38.9337610" lon="1.2372350">
        <ele>43.0</ele>
        <time>2020-02-21T15:16:45Z</time>
      </trkpt>
      <trkpt lat="38.9337900" lon="1.2372620">
        <ele>43.2</ele>
        <time>2020-02-21T15:16:46Z</time>
      </trkpt>
      <trkpt lat="38.9338280" lon="1.2373250">
        <ele>43.4</ele>
        <time>2020-02-21T15:16:47Z</time>
      </trkpt>
      <trkpt lat="38.9338530" lon="1.2373690">
        <ele>43.4</ele>
        <time>2020-02-21T15:16:48Z</time>
      </trkpt>
      <trkpt lat="38.9338800" lon="1.2374050">
        <ele>43.3</ele>
        <time>2020-02-21T15:16:49Z</time>
      </trkpt>
      <trkpt lat="38.9339100" lon="1.2374180">
        <ele>43.1</ele>
        <time>2020-02-21T15:16:50Z</time>
      </trkpt>
      <trkpt lat="38.9339490" lon="1.2374040">
        <ele>42.9</ele>
        <time>2020-02-21T15:16:51Z</time>
      </trkpt>
      <trkpt lat="38.9340000" lon="1.2373660">
        <ele>42.1</ele>
        <time>2020-02-21T15:16:52Z</time>
      </trkpt>
      <trkpt lat="38.9340650" lon="1.2373270">
        <ele>41.6</ele>
        <time>2020-02-21T15:16:53Z</time>
      </trkpt>
      <trkpt lat="38.9341310" lon="1.2373130">
        <ele>41.1</ele>
        <time>2020-02-21T15:16:54Z</time>
      </trkpt>
      <trkpt lat="38.9342030" lon="1.2372930">
        <ele>40.5</ele>
        <time>2020-02-21T15:16:55Z</time>
      </trkpt>
      <trkpt lat="38.9342860" lon="1.2372650">
        <ele>39.7</ele>
        <time>2020-02-21T15:16:56Z</time>
      </trkpt>
      <trkpt lat="38.9343720" lon="1.2372420">
        <ele>38.8</ele>
        <time>2020-02-21T15:16:57Z</time>
      </trkpt>
      <trkpt lat="38.9344550" lon="1.2372260">
        <ele>37.9</ele>
        <time>2020-02-21T15:16:58Z</time>
      </trkpt>
      <trkpt lat="38.9345420" lon="1.2372090">
        <ele>36.9</ele>
        <time>2020-02-21T15:16:59Z</time>
      </trkpt>
      <trkpt lat="38.9346330" lon="1.2371920">
        <ele>36.0</ele>
        <time>2020-02-21T15:17:00Z</time>
      </trkpt>
      <trkpt lat="38.9347240" lon="1.2371730">
        <ele>35.1</ele>
        <time>2020-02-21T15:17:01Z</time>
      </trkpt>
      <trkpt lat="38.9348140" lon="1.2371610">
        <ele>34.0</ele>
        <time>2020-02-21T15:17:02Z</time>
      </trkpt>
      <trkpt lat="38.9349050" lon="1.2371470">
        <ele>33.0</ele>
        <time>2020-02-21T15:17:03Z</time>
      </trkpt>
      <trkpt lat="38.9349950" lon="1.2371370">
        <ele>32.0</ele>
        <time>2020-02-21T15:17:04Z</time>
      </trkpt>
      <trkpt lat="38.9350830" lon="1.2371410">
        <ele>31.0</ele>
        <time>2020-02-21T15:17:05Z</time>
      </trkpt>
      <trkpt lat="38.9351780" lon="1.2371400">
        <ele>30.0</ele>
        <time>2020-02-21T15:17:06Z</time>
      </trkpt>
      <trkpt lat="38.9352750" lon="1.2371400">
        <ele>28.9</ele>
        <time>2020-02-21T15:17:07Z</time>
      </trkpt>
      <trkpt lat="38.9353710" lon="1.2371360">
        <ele>27.8</ele>
        <time>2020-02-21T15:17:08Z</time>
      </trkpt>
      <trkpt lat="38.9354690" lon="1.2371280">
        <ele>26.6</ele>
        <time>2020-02-21T15:17:09Z</time>
      </trkpt>
      <trkpt lat="38.9355690" lon="1.2371100">
        <ele>26.3</ele>
        <time>2020-02-21T15:17:10Z</time>
      </trkpt>
      <trkpt lat="38.9356720" lon="1.2370950">
        <ele>26.1</ele>
        <time>2020-02-21T15:17:11Z</time>
      </trkpt>
      <trkpt lat="38.9357760" lon="1.2370840">
        <ele>25.7</ele>
        <time>2020-02-21T15:17:12Z</time>
      </trkpt>
      <trkpt lat="38.9358800" lon="1.2370810">
        <ele>25.3</ele>
        <time>2020-02-21T15:17:13Z</time>
      </trkpt>
      <trkpt lat="38.9359850" lon="1.2370840">
        <ele>24.9</ele>
        <time>2020-02-21T15:17:14Z</time>
      </trkpt>
      <trkpt lat="38.9360880" lon="1.2370920">
        <ele>24.4</ele>
        <time>2020-02-21T15:17:15Z</time>
      </trkpt>
      <trkpt lat="38.9361900" lon="1.2371120">
        <ele>24.0</ele>
        <time>2020-02-21T15:17:16Z</time>
      </trkpt>
      <trkpt lat="38.9362910" lon="1.2371420">
        <ele>23.4</ele>
        <time>2020-02-21T15:17:17Z</time>
      </trkpt>
      <trkpt lat="38.9363890" lon="1.2371780">
        <ele>23.2</ele>
        <time>2020-02-21T15:17:18Z</time>
      </trkpt>
      <trkpt lat="38.9364860" lon="1.2372080">
        <ele>23.4</ele>
        <time>2020-02-21T15:17:19Z</time>
      </trkpt>
      <trkpt lat="38.9365810" lon="1.2372430">
        <ele>23.4</ele>
        <time>2020-02-21T15:17:20Z</time>
      </trkpt>
      <trkpt lat="38.9366740" lon="1.2372830">
        <ele>23.8</ele>
        <time>2020-02-21T15:17:21Z</time>
      </trkpt>
      <trkpt lat="38.9367630" lon="1.2373300">
        <ele>23.9</ele>
        <time>2020-02-21T15:17:22Z</time>
      </trkpt>
      <trkpt lat="38.9368500" lon="1.2373870">
        <ele>23.4</ele>
        <time>2020-02-21T15:17:23Z</time>
      </trkpt>
      <trkpt lat="38.9369370" lon="1.2374420">
        <ele>23.3</ele>
        <time>2020-02-21T15:17:24Z</time>
      </trkpt>
      <trkpt lat="38.9370230" lon="1.2374950">
        <ele>22.9</ele>
        <time>2020-02-21T15:17:25Z</time>
      </trkpt>
      <trkpt lat="38.9371000" lon="1.2375690">
        <ele>22.5</ele>
        <time>2020-02-21T15:17:26Z</time>
      </trkpt>
      <trkpt lat="38.9371760" lon="1.2376470">
        <ele>22.1</ele>
        <time>2020-02-21T15:17:27Z</time>
      </trkpt>
      <trkpt lat="38.9372500" lon="1.2377290">
        <ele>21.6</ele>
        <time>2020-02-21T15:17:28Z</time>
      </trkpt>
      <trkpt lat="38.9373120" lon="1.2378220">
        <ele>21.1</ele>
        <time>2020-02-21T15:17:29Z</time>
      </trkpt>
      <trkpt lat="38.9373740" lon="1.2379140">
        <ele>20.7</ele>
        <time>2020-02-21T15:17:30Z</time>
      </trkpt>
      <trkpt lat="38.9374320" lon="1.2380080">
        <ele>20.3</ele>
        <time>2020-02-21T15:17:31Z</time>
      </trkpt>
      <trkpt lat="38.9374880" lon="1.2381070">
        <ele>19.9</ele>
        <time>2020-02-21T15:17:32Z</time>
      </trkpt>
      <trkpt lat="38.9375500" lon="1.2382030">
        <ele>19.5</ele>
        <time>2020-02-21T15:17:33Z</time>
      </trkpt>
      <trkpt lat="38.9376060" lon="1.2383070">
        <ele>19.1</ele>
        <time>2020-02-21T15:17:34Z</time>
      </trkpt>
      <trkpt lat="38.9376650" lon="1.2384050">
        <ele>18.7</ele>
        <time>2020-02-21T15:17:35Z</time>
      </trkpt>
      <trkpt lat="38.9377200" lon="1.2385080">
        <ele>18.3</ele>
        <time>2020-02-21T15:17:36Z</time>
      </trkpt>
      <trkpt lat="38.9377740" lon="1.2386120">
        <ele>18.0</ele>
        <time>2020-02-21T15:17:37Z</time>
      </trkpt>
      <trkpt lat="38.9378290" lon="1.2387170">
        <ele>17.9</ele>
        <time>2020-02-21T15:17:38Z</time>
      </trkpt>
      <trkpt lat="38.9378770" lon="1.2388270">
        <ele>17.8</ele>
        <time>2020-02-21T15:17:39Z</time>
      </trkpt>
      <trkpt lat="38.9379300" lon="1.2389390">
        <ele>17.7</ele>
        <time>2020-02-21T15:17:40Z</time>
      </trkpt>
      <trkpt lat="38.9379750" lon="1.2390610">
        <ele>17.4</ele>
        <time>2020-02-21T15:17:41Z</time>
      </trkpt>
      <trkpt lat="38.9380260" lon="1.2391820">
        <ele>17.1</ele>
        <time>2020-02-21T15:17:42Z</time>
      </trkpt>
      <trkpt lat="38.9380780" lon="1.2393000">
        <ele>16.8</ele>
        <time>2020-02-21T15:17:43Z</time>
      </trkpt>
      <trkpt lat="38.9381290" lon="1.2394130">
        <ele>16.7</ele>
        <time>2020-02-21T15:17:44Z</time>
      </trkpt>
      <trkpt lat="38.9381900" lon="1.2395130">
        <ele>16.5</ele>
        <time>2020-02-21T15:17:45Z</time>
      </trkpt>
      <trkpt lat="38.9382570" lon="1.2396050">
        <ele>16.5</ele>
        <time>2020-02-21T15:17:46Z</time>
      </trkpt>
      <trkpt lat="38.9383280" lon="1.2396850">
        <ele>16.5</ele>
        <time>2020-02-21T15:17:47Z</time>
      </trkpt>
      <trkpt lat="38.9383970" lon="1.2397570">
        <ele>16.6</ele>
        <time>2020-02-21T15:17:48Z</time>
      </trkpt>
      <trkpt lat="38.9384560" lon="1.2398330">
        <ele>16.8</ele>
        <time>2020-02-21T15:17:49Z</time>
      </trkpt>
      <trkpt lat="38.9385120" lon="1.2399100">
        <ele>16.9</ele>
        <time>2020-02-21T15:17:50Z</time>
      </trkpt>
      <trkpt lat="38.9385630" lon="1.2399850">
        <ele>17.1</ele>
        <time>2020-02-21T15:17:51Z</time>
      </trkpt>
      <trkpt lat="38.9386190" lon="1.2400470">
        <ele>17.2</ele>
        <time>2020-02-21T15:17:52Z</time>
      </trkpt>
      <trkpt lat="38.9386740" lon="1.2401070">
        <ele>17.4</ele>
        <time>2020-02-21T15:17:53Z</time>
      </trkpt>
      <trkpt lat="38.9387260" lon="1.2401650">
        <ele>17.5</ele>
        <time>2020-02-21T15:17:54Z</time>
      </trkpt>
      <trkpt lat="38.9387730" lon="1.2402270">
        <ele>17.6</ele>
        <time>2020-02-21T15:17:55Z</time>
      </trkpt>
      <trkpt lat="38.9388200" lon="1.2402880">
        <ele>17.8</ele>
        <time>2020-02-21T15:17:56Z</time>
      </trkpt>
      <trkpt lat="38.9388640" lon="1.2403450">
        <ele>17.9</ele>
        <time>2020-02-21T15:17:57Z</time>
      </trkpt>
      <trkpt lat="38.9389100" lon="1.2404000">
        <ele>18.0</ele>
        <time>2020-02-21T15:17:58Z</time>
      </trkpt>
      <trkpt lat="38.9389520" lon="1.2404580">
        <ele>18.1</ele>
        <time>2020-02-21T15:17:59Z</time>
      </trkpt>
      <trkpt lat="38.9389780" lon="1.2405280">
        <ele>18.3</ele>
        <time>2020-02-21T15:18:00Z</time>
      </trkpt>
      <trkpt lat="38.9390020" lon="1.2406000">
        <ele>18.5</ele>
        <time>2020-02-21T15:18:01Z</time>
      </trkpt>
      <trkpt lat="38.9390230" lon="1.2406650">
        <ele>18.7</ele>
        <time>2020-02-21T15:18:02Z</time>
      </trkpt>
      <trkpt lat="38.9390340" lon="1.2407280">
        <ele>18.9</ele>
        <time>2020-02-21T15:18:03Z</time>
      </trkpt>
      <trkpt lat="38.9390520" lon="1.2407950">
        <ele>19.1</ele>
        <time>2020-02-21T15:18:04Z</time>
      </trkpt>
      <trkpt lat="38.9390680" lon="1.2408650">
        <ele>19.4</ele>
        <time>2020-02-21T15:18:05Z</time>
      </trkpt>
      <trkpt lat="38.9390840" lon="1.2409270">
        <ele>19.7</ele>
        <time>2020-02-21T15:18:06Z</time>
      </trkpt>
      <trkpt lat="38.9391010" lon="1.2409850">
        <ele>20.0</ele>
        <time>2020-02-21T15:18:07Z</time>
      </trkpt>
      <trkpt lat="38.9391140" lon="1.2410440">
        <ele>20.3</ele>
        <time>2020-02-21T15:18:08Z</time>
      </trkpt>
      <trkpt lat="38.9391200" lon="1.2411060">
        <ele>20.5</ele>
        <time>2020-02-21T15:18:09Z</time>
      </trkpt>
      <trkpt lat="38.9391370" lon="1.2411540">
        <ele>20.8</ele>
        <time>2020-02-21T15:18:10Z</time>
      </trkpt>
      <trkpt lat="38.9391380" lon="1.2411980">
        <ele>21.0</ele>
        <time>2020-02-21T15:18:11Z</time>
      </trkpt>
      <trkpt lat="38.9391460" lon="1.2412340">
        <ele>21.3</ele>
        <time>2020-02-21T15:18:12Z</time>
      </trkpt>
      <trkpt lat="38.9391610" lon="1.2412670">
        <ele>21.6</ele>
        <time>2020-02-21T15:18:13Z</time>
      </trkpt>
      <trkpt lat="38.9391750" lon="1.2413090">
        <ele>21.9</ele>
        <time>2020-02-21T15:18:14Z</time>
      </trkpt>
      <trkpt lat="38.9391800" lon="1.2413230">
        <ele>22.0</ele>
        <time>2020-02-21T15:18:15Z</time>
      </trkpt>
      <trkpt lat="38.9391780" lon="1.2413720">
        <ele>22.4</ele>
        <time>2020-02-21T15:18:16Z</time>
      </trkpt>
      <trkpt lat="38.9391750" lon="1.2413910">
        <ele>22.6</ele>
        <time>2020-02-21T15:18:17Z</time>
      </trkpt>
      <trkpt lat="38.9391730" lon="1.2414270">
        <ele>22.9</ele>
        <time>2020-02-21T15:18:18Z</time>
      </trkpt>
      <trkpt lat="38.9391710" lon="1.2414780">
        <ele>23.3</ele>
        <time>2020-02-21T15:18:19Z</time>
      </trkpt>
      <trkpt lat="38.9391680" lon="1.2414940">
        <ele>23.5</ele>
        <time>2020-02-21T15:18:20Z</time>
      </trkpt>
      <trkpt lat="38.9391650" lon="1.2415310">
        <ele>23.8</ele>
        <time>2020-02-21T15:18:21Z</time>
      </trkpt>
      <trkpt lat="38.9391700" lon="1.2415780">
        <ele>24.3</ele>
        <time>2020-02-21T15:18:22Z</time>
      </trkpt>
      <trkpt lat="38.9391730" lon="1.2415930">
        <ele>24.4</ele>
        <time>2020-02-21T15:18:23Z</time>
      </trkpt>
      <trkpt lat="38.9391820" lon="1.2416330">
        <ele>24.9</ele>
        <time>2020-02-21T15:18:24Z</time>
      </trkpt>
      <trkpt lat="38.9391850" lon="1.2416470">
        <ele>25.1</ele>
        <time>2020-02-21T15:18:25Z</time>
      </trkpt>
      <trkpt lat="38.9391900" lon="1.2416850">
        <ele>25.5</ele>
        <time>2020-02-21T15:18:26Z</time>
      </trkpt>
      <trkpt lat="38.9391920" lon="1.2416990">
        <ele>25.6</ele>
        <time>2020-02-21T15:18:27Z</time>
      </trkpt>
      <trkpt lat="38.9391890" lon="1.2417340">
        <ele>26.0</ele>
        <time>2020-02-21T15:18:28Z</time>
      </trkpt>
      <trkpt lat="38.9391970" lon="1.2417760">
        <ele>26.5</ele>
        <time>2020-02-21T15:18:29Z</time>
      </trkpt>
      <trkpt lat="38.9391970" lon="1.2417950">
        <ele>26.7</ele>
        <time>2020-02-21T15:18:30Z</time>
      </trkpt>
      <trkpt lat="38.9391990" lon="1.2418400">
        <ele>27.2</ele>
        <time>2020-02-21T15:18:31Z</time>
      </trkpt>
      <trkpt lat="38.9392060" lon="1.2418840">
        <ele>27.6</ele>
        <time>2020-02-21T15:18:32Z</time>
      </trkpt>
      <trkpt lat="38.9392080" lon="1.2418960">
        <ele>27.7</ele>
        <time>2020-02-21T15:18:33Z</time>
      </trkpt>
      <trkpt lat="38.9392240" lon="1.2419280">
        <ele>28.1</ele>
        <time>2020-02-21T15:18:34Z</time>
      </trkpt>
      <trkpt lat="38.9392350" lon="1.2419710">
        <ele>28.5</ele>
        <time>2020-02-21T15:18:35Z</time>
      </trkpt>
      <trkpt lat="38.9392380" lon="1.2419840">
        <ele>28.6</ele>
        <time>2020-02-21T15:18:36Z</time>
      </trkpt>
      <trkpt lat="38.9392480" lon="1.2420200">
        <ele>28.8</ele>
        <time>2020-02-21T15:18:37Z</time>
      </trkpt>
      <trkpt lat="38.9392520" lon="1.2420380">
        <ele>29.0</ele>
        <time>2020-02-21T15:18:38Z</time>
      </trkpt>
      <trkpt lat="38.9392580" lon="1.2420720">
        <ele>29.3</ele>
        <time>2020-02-21T15:18:39Z</time>
      </trkpt>
      <trkpt lat="38.9392760" lon="1.2421090">
        <ele>29.6</ele>
        <time>2020-02-21T15:18:40Z</time>
      </trkpt>
      <trkpt lat="38.9392830" lon="1.2421260">
        <ele>29.7</ele>
        <time>2020-02-21T15:18:41Z</time>
      </trkpt>
      <trkpt lat="38.9393020" lon="1.2421600">
        <ele>29.9</ele>
        <time>2020-02-21T15:18:42Z</time>
      </trkpt>
      <trkpt lat="38.9393090" lon="1.2421730">
        <ele>30.0</ele>
        <time>2020-02-21T15:18:43Z</time>
      </trkpt>
      <trkpt lat="38.9393310" lon="1.2421990">
        <ele>30.3</ele>
        <time>2020-02-21T15:18:44Z</time>
      </trkpt>
      <trkpt lat="38.9393380" lon="1.2422060">
        <ele>30.3</ele>
        <time>2020-02-21T15:18:45Z</time>
      </trkpt>
      <trkpt lat="38.9393540" lon="1.2422170">
        <ele>30.5</ele>
        <time>2020-02-21T15:18:46Z</time>
      </trkpt>
      <trkpt lat="38.9393700" lon="1.2422280">
        <ele>30.6</ele>
        <time>2020-02-21T15:18:47Z</time>
      </trkpt>
      <trkpt lat="38.9393740" lon="1.2422460">
        <ele>30.7</ele>
        <time>2020-02-21T15:18:48Z</time>
      </trkpt>
      <trkpt lat="38.9393870" lon="1.2422660">
        <ele>31.0</ele>
        <time>2020-02-21T15:18:49Z</time>
      </trkpt>
      <trkpt lat="38.9394100" lon="1.2422940">
        <ele>31.6</ele>
        <time>2020-02-21T15:18:50Z</time>
      </trkpt>
      <trkpt lat="38.9394190" lon="1.2422990">
        <ele>31.6</ele>
        <time>2020-02-21T15:18:51Z</time>
      </trkpt>
      <trkpt lat="38.9394460" lon="1.2423310">
        <ele>31.9</ele>
        <time>2020-02-21T15:18:52Z</time>
      </trkpt>
      <trkpt lat="38.9394540" lon="1.2423430">
        <ele>31.9</ele>
        <time>2020-02-21T15:18:53Z</time>
      </trkpt>
      <trkpt lat="38.9394680" lon="1.2423550">
        <ele>32.0</ele>
        <time>2020-02-21T15:18:54Z</time>
      </trkpt>
      <trkpt lat="38.9394790" lon="1.2423650">
        <ele>32.1</ele>
        <time>2020-02-21T15:18:55Z</time>
      </trkpt>
      <trkpt lat="38.9395080" lon="1.2423920">
        <ele>32.3</ele>
        <time>2020-02-21T15:18:56Z</time>
      </trkpt>
      <trkpt lat="38.9395200" lon="1.2424020">
        <ele>32.4</ele>
        <time>2020-02-21T15:18:57Z</time>
      </trkpt>
      <trkpt lat="38.9395450" lon="1.2424180">
        <ele>32.6</ele>
        <time>2020-02-21T15:18:58Z</time>
      </trkpt>
      <trkpt lat="38.9395790" lon="1.2424400">
        <ele>32.8</ele>
        <time>2020-02-21T15:18:59Z</time>
      </trkpt>
      <trkpt lat="38.9395890" lon="1.2424460">
        <ele>32.9</ele>
        <time>2020-02-21T15:19:00Z</time>
      </trkpt>
      <trkpt lat="38.9396010" lon="1.2424430">
        <ele>33.0</ele>
        <time>2020-02-21T15:19:01Z</time>
      </trkpt>
      <trkpt lat="38.9396190" lon="1.2424630">
        <ele>33.1</ele>
        <time>2020-02-21T15:19:02Z</time>
      </trkpt>
      <trkpt lat="38.9396410" lon="1.2424940">
        <ele>33.4</ele>
        <time>2020-02-21T15:19:03Z</time>
      </trkpt>
      <trkpt lat="38.9396480" lon="1.2425080">
        <ele>33.5</ele>
        <time>2020-02-21T15:19:04Z</time>
      </trkpt>
      <trkpt lat="38.9396610" lon="1.2425240">
        <ele>33.6</ele>
        <time>2020-02-21T15:19:05Z</time>
      </trkpt>
      <trkpt lat="38.9396750" lon="1.2425340">
        <ele>33.7</ele>
        <time>2020-02-21T15:19:06Z</time>
      </trkpt>
      <trkpt lat="38.9397010" lon="1.2425630">
        <ele>34.0</ele>
        <time>2020-02-21T15:19:07Z</time>
      </trkpt>
      <trkpt lat="38.9397070" lon="1.2425730">
        <ele>34.1</ele>
        <time>2020-02-21T15:19:08Z</time>
      </trkpt>
      <trkpt lat="38.9397180" lon="1.2425880">
        <ele>34.2</ele>
        <time>2020-02-21T15:19:09Z</time>
      </trkpt>
      <trkpt lat="38.9397310" lon="1.2426010">
        <ele>34.4</ele>
        <time>2020-02-21T15:19:10Z</time>
      </trkpt>
      <trkpt lat="38.9397460" lon="1.2426090">
        <ele>34.6</ele>
        <time>2020-02-21T15:19:11Z</time>
      </trkpt>
      <trkpt lat="38.9397540" lon="1.2426060">
        <ele>34.7</ele>
        <time>2020-02-21T15:19:12Z</time>
      </trkpt>
      <trkpt lat="38.9397650" lon="1.2426100">
        <ele>34.8</ele>
        <time>2020-02-21T15:19:13Z</time>
      </trkpt>
      <trkpt lat="38.9397910" lon="1.2426370">
        <ele>35.1</ele>
        <time>2020-02-21T15:19:14Z</time>
      </trkpt>
      <trkpt lat="38.9398000" lon="1.2426480">
        <ele>35.2</ele>
        <time>2020-02-21T15:19:15Z</time>
      </trkpt>
      <trkpt lat="38.9398170" lon="1.2426730">
        <ele>35.5</ele>
        <time>2020-02-21T15:19:16Z</time>
      </trkpt>
      <trkpt lat="38.9398250" lon="1.2426810">
        <ele>35.5</ele>
        <time>2020-02-21T15:19:17Z</time>
      </trkpt>
      <trkpt lat="38.9398530" lon="1.2427060">
        <ele>35.8</ele>
        <time>2020-02-21T15:19:18Z</time>
      </trkpt>
      <trkpt lat="38.9398610" lon="1.2427140">
        <ele>35.9</ele>
        <time>2020-02-21T15:19:19Z</time>
      </trkpt>
      <trkpt lat="38.9398890" lon="1.2427330">
        <ele>36.1</ele>
        <time>2020-02-21T15:19:20Z</time>
      </trkpt>
      <trkpt lat="38.9398990" lon="1.2427400">
        <ele>36.2</ele>
        <time>2020-02-21T15:19:21Z</time>
      </trkpt>
      <trkpt lat="38.9399280" lon="1.2427630">
        <ele>36.5</ele>
        <time>2020-02-21T15:19:22Z</time>
      </trkpt>
      <trkpt lat="38.9399400" lon="1.2427680">
        <ele>36.5</ele>
        <time>2020-02-21T15:19:23Z</time>
      </trkpt>
      <trkpt lat="38.9399710" lon="1.2427800">
        <ele>36.7</ele>
        <time>2020-02-21T15:19:24Z</time>
      </trkpt>
      <trkpt lat="38.9399780" lon="1.2427850">
        <ele>36.8</ele>
        <time>2020-02-21T15:19:25Z</time>
      </trkpt>
      <trkpt lat="38.9400050" lon="1.2428070">
        <ele>36.9</ele>
        <time>2020-02-21T15:19:26Z</time>
      </trkpt>
      <trkpt lat="38.9400150" lon="1.2428140">
        <ele>37.0</ele>
        <time>2020-02-21T15:19:27Z</time>
      </trkpt>
      <trkpt lat="38.9400420" lon="1.2428420">
        <ele>37.2</ele>
        <time>2020-02-21T15:19:28Z</time>
      </trkpt>
      <trkpt lat="38.9400530" lon="1.2428510">
        <ele>37.3</ele>
        <time>2020-02-21T15:19:29Z</time>
      </trkpt>
      <trkpt lat="38.9400840" lon="1.2428720">
        <ele>37.5</ele>
        <time>2020-02-21T15:19:30Z</time>
      </trkpt>
      <trkpt lat="38.9400950" lon="1.2428790">
        <ele>37.6</ele>
        <time>2020-02-21T15:19:31Z</time>
      </trkpt>
      <trkpt lat="38.9401290" lon="1.2428960">
        <ele>37.8</ele>
        <time>2020-02-21T15:19:32Z</time>
      </trkpt>
      <trkpt lat="38.9401410" lon="1.2429010">
        <ele>37.8</ele>
        <time>2020-02-21T15:19:33Z</time>
      </trkpt>
      <trkpt lat="38.9401670" lon="1.2429120">
        <ele>37.9</ele>
        <time>2020-02-21T15:19:34Z</time>
      </trkpt>
      <trkpt lat="38.9401770" lon="1.2429160">
        <ele>38.0</ele>
        <time>2020-02-21T15:19:35Z</time>
      </trkpt>
      <trkpt lat="38.9402080" lon="1.2429220">
        <ele>38.1</ele>
        <time>2020-02-21T15:19:36Z</time>
      </trkpt>
      <trkpt lat="38.9402170" lon="1.2429260">
        <ele>38.2</ele>
        <time>2020-02-21T15:19:37Z</time>
      </trkpt>
      <trkpt lat="38.9402460" lon="1.2429520">
        <ele>38.4</ele>
        <time>2020-02-21T15:19:38Z</time>
      </trkpt>
      <trkpt lat="38.9402540" lon="1.2429600">
        <ele>38.5</ele>
        <time>2020-02-21T15:19:39Z</time>
      </trkpt>
      <trkpt lat="38.9402750" lon="1.2429870">
        <ele>38.7</ele>
        <time>2020-02-21T15:19:40Z</time>
      </trkpt>
      <trkpt lat="38.9403030" lon="1.2430180">
        <ele>39.0</ele>
        <time>2020-02-21T15:19:41Z</time>
      </trkpt>
      <trkpt lat="38.9403140" lon="1.2430320">
        <ele>39.1</ele>
        <time>2020-02-21T15:19:42Z</time>
      </trkpt>
      <trkpt lat="38.9403410" lon="1.2430670">
        <ele>39.4</ele>
        <time>2020-02-21T15:19:43Z</time>
      </trkpt>
      <trkpt lat="38.9403480" lon="1.2430790">
        <ele>39.5</ele>
        <time>2020-02-21T15:19:44Z</time>
      </trkpt>
      <trkpt lat="38.9403620" lon="1.2431100">
        <ele>39.7</ele>
        <time>2020-02-21T15:19:45Z</time>
      </trkpt>
      <trkpt lat="38.9403700" lon="1.2431180">
        <ele>39.8</ele>
        <time>2020-02-21T15:19:46Z</time>
      </trkpt>
      <trkpt lat="38.9403880" lon="1.2431450">
        <ele>40.0</ele>
        <time>2020-02-21T15:19:47Z</time>
      </trkpt>
      <trkpt lat="38.9403930" lon="1.2431570">
        <ele>40.1</ele>
        <time>2020-02-21T15:19:48Z</time>
      </trkpt>
      <trkpt lat="38.9404150" lon="1.2431800">
        <ele>40.3</ele>
        <time>2020-02-21T15:19:49Z</time>
      </trkpt>
      <trkpt lat="38.9404220" lon="1.2431880">
        <ele>40.4</ele>
        <time>2020-02-21T15:19:50Z</time>
      </trkpt>
      <trkpt lat="38.9404400" lon="1.2432150">
        <ele>40.6</ele>
        <time>2020-02-21T15:19:51Z</time>
      </trkpt>
      <trkpt lat="38.9404450" lon="1.2432250">
        <ele>40.7</ele>
        <time>2020-02-21T15:19:52Z</time>
      </trkpt>
      <trkpt lat="38.9404550" lon="1.2432420">
        <ele>40.8</ele>
        <time>2020-02-21T15:19:53Z</time>
      </trkpt>
      <trkpt lat="38.9404670" lon="1.2432570">
        <ele>40.9</ele>
        <time>2020-02-21T15:19:54Z</time>
      </trkpt>
      <trkpt lat="38.9404760" lon="1.2432730">
        <ele>41.1</ele>
        <time>2020-02-21T15:19:55Z</time>
      </trkpt>
      <trkpt lat="38.9404830" lon="1.2432940">
        <ele>41.2</ele>
        <time>2020-02-21T15:19:56Z</time>
      </trkpt>
      <trkpt lat="38.9404900" lon="1.2433090">
        <ele>41.4</ele>
        <time>2020-02-21T15:19:57Z</time>
      </trkpt>
      <trkpt lat="38.9405040" lon="1.2433280">
        <ele>41.6</ele>
        <time>2020-02-21T15:19:58Z</time>
      </trkpt>
      <trkpt lat="38.9405130" lon="1.2433460">
        <ele>41.7</ele>
        <time>2020-02-21T15:19:59Z</time>
      </trkpt>
      <trkpt lat="38.9405250" lon="1.2433610">
        <ele>41.9</ele>
        <time>2020-02-21T15:20:00Z</time>
      </trkpt>
      <trkpt lat="38.9405440" lon="1.2433890">
        <ele>42.1</ele>
        <time>2020-02-21T15:20:01Z</time>
      </trkpt>
      <trkpt lat="38.9405500" lon="1.2433980">
        <ele>42.2</ele>
        <time>2020-02-21T15:20:02Z</time>
      </trkpt>
      <trkpt lat="38.9405700" lon="1.2434230">
        <ele>42.5</ele>
        <time>2020-02-21T15:20:03Z</time>
      </trkpt>
      <trkpt lat="38.9405750" lon="1.2434320">
        <ele>42.5</ele>
        <time>2020-02-21T15:20:04Z</time>
      </trkpt>
      <trkpt lat="38.9405870" lon="1.2434480">
        <ele>42.7</ele>
        <time>2020-02-21T15:20:05Z</time>
      </trkpt>
      <trkpt lat="38.9406000" lon="1.2434650">
        <ele>42.8</ele>
        <time>2020-02-21T15:20:06Z</time>
      </trkpt>
      <trkpt lat="38.9406120" lon="1.2434770">
        <ele>43.0</ele>
        <time>2020-02-21T15:20:07Z</time>
      </trkpt>
      <trkpt lat="38.9406290" lon="1.2434890">
        <ele>43.1</ele>
        <time>2020-02-21T15:20:08Z</time>
      </trkpt>
      <trkpt lat="38.9406540" lon="1.2435060">
        <ele>43.4</ele>
        <time>2020-02-21T15:20:09Z</time>
      </trkpt>
      <trkpt lat="38.9406620" lon="1.2435120">
        <ele>43.5</ele>
        <time>2020-02-21T15:20:10Z</time>
      </trkpt>
      <trkpt lat="38.9406730" lon="1.2435280">
        <ele>43.6</ele>
        <time>2020-02-21T15:20:11Z</time>
      </trkpt>
      <trkpt lat="38.9406880" lon="1.2435420">
        <ele>43.8</ele>
        <time>2020-02-21T15:20:12Z</time>
      </trkpt>
      <trkpt lat="38.9407020" lon="1.2435550">
        <ele>43.9</ele>
        <time>2020-02-21T15:20:13Z</time>
      </trkpt>
      <trkpt lat="38.9407180" lon="1.2435650">
        <ele>44.1</ele>
        <time>2020-02-21T15:20:14Z</time>
      </trkpt>
      <trkpt lat="38.9407340" lon="1.2435710">
        <ele>44.2</ele>
        <time>2020-02-21T15:20:15Z</time>
      </trkpt>
      <trkpt lat="38.9407480" lon="1.2435790">
        <ele>44.3</ele>
        <time>2020-02-21T15:20:16Z</time>
      </trkpt>
      <trkpt lat="38.9407790" lon="1.2435920">
        <ele>44.6</ele>
        <time>2020-02-21T15:20:17Z</time>
      </trkpt>
      <trkpt lat="38.9407910" lon="1.2435980">
        <ele>44.7</ele>
        <time>2020-02-21T15:20:18Z</time>
      </trkpt>
      <trkpt lat="38.9408200" lon="1.2436080">
        <ele>44.9</ele>
        <time>2020-02-21T15:20:19Z</time>
      </trkpt>
      <trkpt lat="38.9408290" lon="1.2436110">
        <ele>45.0</ele>
        <time>2020-02-21T15:20:20Z</time>
      </trkpt>
      <trkpt lat="38.9408550" lon="1.2436280">
        <ele>45.2</ele>
        <time>2020-02-21T15:20:21Z</time>
      </trkpt>
      <trkpt lat="38.9408760" lon="1.2436290">
        <ele>45.4</ele>
        <time>2020-02-21T15:20:22Z</time>
      </trkpt>
      <trkpt lat="38.9408890" lon="1.2436380">
        <ele>46.0</ele>
        <time>2020-02-21T15:20:23Z</time>
      </trkpt>
      <trkpt lat="38.9409010" lon="1.2436480">
        <ele>46.1</ele>
        <time>2020-02-21T15:20:24Z</time>
      </trkpt>
      <trkpt lat="38.9409180" lon="1.2436630">
        <ele>46.3</ele>
        <time>2020-02-21T15:20:25Z</time>
      </trkpt>
      <trkpt lat="38.9409370" lon="1.2436760">
        <ele>46.5</ele>
        <time>2020-02-21T15:20:26Z</time>
      </trkpt>
      <trkpt lat="38.9409510" lon="1.2436820">
        <ele>46.6</ele>
        <time>2020-02-21T15:20:27Z</time>
      </trkpt>
      <trkpt lat="38.9409770" lon="1.2437020">
        <ele>46.8</ele>
        <time>2020-02-21T15:20:28Z</time>
      </trkpt>
      <trkpt lat="38.9409860" lon="1.2437060">
        <ele>46.9</ele>
        <time>2020-02-21T15:20:29Z</time>
      </trkpt>
      <trkpt lat="38.9410030" lon="1.2437090">
        <ele>47.0</ele>
        <time>2020-02-21T15:20:30Z</time>
      </trkpt>
      <trkpt lat="38.9410190" lon="1.2437180">
        <ele>47.2</ele>
        <time>2020-02-21T15:20:31Z</time>
      </trkpt>
      <trkpt lat="38.9410300" lon="1.2437210">
        <ele>47.2</ele>
        <time>2020-02-21T15:20:32Z</time>
      </trkpt>
      <trkpt lat="38.9410370" lon="1.2437220">
        <ele>47.6</ele>
        <time>2020-02-21T15:20:33Z</time>
      </trkpt>
      <trkpt lat="38.9410370" lon="1.2437130">
        <ele>47.3</ele>
        <time>2020-02-21T15:20:34Z</time>
      </trkpt>
      <trkpt lat="38.9410310" lon="1.2437080">
        <ele>47.2</ele>
        <time>2020-02-21T15:20:35Z</time>
      </trkpt>
      <trkpt lat="38.9410310" lon="1.2437080">
        <ele>47.2</ele>
        <time>2020-02-21T15:20:36Z</time>
      </trkpt>
      <trkpt lat="38.9410310" lon="1.2437080">
        <ele>47.2</ele>
        <time>2020-02-21T15:20:37Z</time>
      </trkpt>
      <trkpt lat="38.9410310" lon="1.2437080">
        <ele>47.2</ele>
        <time>2020-02-21T15:20:38Z</time>
      </trkpt>
      <trkpt lat="38.9410310" lon="1.2437080">
        <ele>47.2</ele>
        <time>2020-02-21T15:20:39Z</time>
      </trkpt>
      <trkpt lat="38.9410310" lon="1.2437090">
        <ele>47.2</ele>
        <time>2020-02-21T15:20:40Z</time>
      </trkpt>
      <trkpt lat="38.9410310" lon="1.2437090">
        <ele>47.2</ele>
        <time>2020-02-21T15:20:41Z</time>
      </trkpt>
      <trkpt lat="38.9410310" lon="1.2437090">
        <ele>47.2</ele>
        <time>2020-02-21T15:20:42Z</time>
      </trkpt>
      <trkpt lat="38.9410310" lon="1.2437090">
        <ele>47.2</ele>
        <time>2020-02-21T15:20:43Z</time>
      </trkpt>
      <trkpt lat="38.9410670" lon="1.2437150">
        <ele>47.7</ele>
        <time>2020-02-21T15:21:27Z</time>
      </trkpt>
      <trkpt lat="38.9410720" lon="1.2437070">
        <ele>47.7</ele>
        <time>2020-02-21T15:21:28Z</time>
      </trkpt>
      <trkpt lat="38.9410680" lon="1.2436940">
        <ele>47.7</ele>
        <time>2020-02-21T15:21:29Z</time>
      </trkpt>
      <trkpt lat="38.9410610" lon="1.2436920">
        <ele>47.6</ele>
        <time>2020-02-21T15:21:30Z</time>
      </trkpt>
      <trkpt lat="38.9410510" lon="1.2436990">
        <ele>47.6</ele>
        <time>2020-02-21T15:21:31Z</time>
      </trkpt>
      <trkpt lat="38.9410430" lon="1.2437000">
        <ele>47.3</ele>
        <time>2020-02-21T15:21:32Z</time>
      </trkpt>
      <trkpt lat="38.9410390" lon="1.2437100">
        <ele>47.3</ele>
        <time>2020-02-21T15:21:33Z</time>
      </trkpt>
      <trkpt lat="38.9410440" lon="1.2437180">
        <ele>47.6</ele>
        <time>2020-02-21T15:21:34Z</time>
      </trkpt>
      <trkpt lat="38.9410510" lon="1.2437240">
        <ele>47.7</ele>
        <time>2020-02-21T15:21:35Z</time>
      </trkpt>
      <trkpt lat="38.9410570" lon="1.2437300">
        <ele>47.7</ele>
        <time>2020-02-21T15:21:36Z</time>
      </trkpt>
      <trkpt lat="38.9410630" lon="1.2437360">
        <ele>47.7</ele>
        <time>2020-02-21T15:21:37Z</time>
      </trkpt>
      <trkpt lat="38.9410690" lon="1.2437420">
        <ele>47.7</ele>
        <time>2020-02-21T15:21:38Z</time>
      </trkpt>
      <trkpt lat="38.9410760" lon="1.2437480">
        <ele>47.8</ele>
        <time>2020-02-21T15:21:39Z</time>
      </trkpt>
      <trkpt lat="38.9410820" lon="1.2437540">
        <ele>47.8</ele>
        <time>2020-02-21T15:21:40Z</time>
      </trkpt>
      <trkpt lat="38.9410880" lon="1.2437600">
        <ele>47.8</ele>
        <time>2020-02-21T15:21:41Z</time>
      </trkpt>
      <trkpt lat="38.9410940" lon="1.2437660">
        <ele>47.8</ele>
        <time>2020-02-21T15:21:42Z</time>
      </trkpt>
      <trkpt lat="38.9411010" lon="1.2437720">
        <ele>47.9</ele>
        <time>2020-02-21T15:21:52Z</time>
      </trkpt>
      <trkpt lat="38.9411070" lon="1.2437780">
        <ele>47.9</ele>
        <time>2020-02-21T15:21:53Z</time>
      </trkpt>
      <trkpt lat="38.9411230" lon="1.2437830">
        <ele>48.0</ele>
        <time>2020-02-21T15:21:54Z</time>
      </trkpt>
      <trkpt lat="38.9411420" lon="1.2437850">
        <ele>48.0</ele>
        <time>2020-02-21T15:21:55Z</time>
      </trkpt>
      <trkpt lat="38.9411690" lon="1.2437960">
        <ele>48.4</ele>
        <time>2020-02-21T15:21:56Z</time>
      </trkpt>
      <trkpt lat="38.9411990" lon="1.2438020">
        <ele>48.5</ele>
        <time>2020-02-21T15:21:57Z</time>
      </trkpt>
      <trkpt lat="38.9412280" lon="1.2438070">
        <ele>48.7</ele>
        <time>2020-02-21T15:21:58Z</time>
      </trkpt>
      <trkpt lat="38.9412600" lon="1.2438160">
        <ele>48.9</ele>
        <time>2020-02-21T15:21:59Z</time>
      </trkpt>
      <trkpt lat="38.9412890" lon="1.2438270">
        <ele>49.0</ele>
        <time>2020-02-21T15:22:00Z</time>
      </trkpt>
      <trkpt lat="38.9413130" lon="1.2438460">
        <ele>49.2</ele>
        <time>2020-02-21T15:22:01Z</time>
      </trkpt>
      <trkpt lat="38.9413420" lon="1.2438760">
        <ele>49.5</ele>
        <time>2020-02-21T15:22:02Z</time>
      </trkpt>
      <trkpt lat="38.9413520" lon="1.2438910">
        <ele>49.6</ele>
        <time>2020-02-21T15:22:03Z</time>
      </trkpt>
      <trkpt lat="38.9413660" lon="1.2439300">
        <ele>49.7</ele>
        <time>2020-02-21T15:22:04Z</time>
      </trkpt>
      <trkpt lat="38.9413790" lon="1.2439640">
        <ele>49.8</ele>
        <time>2020-02-21T15:22:05Z</time>
      </trkpt>
      <trkpt lat="38.9413840" lon="1.2439780">
        <ele>49.9</ele>
        <time>2020-02-21T15:22:06Z</time>
      </trkpt>
      <trkpt lat="38.9413990" lon="1.2440180">
        <ele>50.1</ele>
        <time>2020-02-21T15:22:07Z</time>
      </trkpt>
      <trkpt lat="38.9414030" lon="1.2440340">
        <ele>50.1</ele>
        <time>2020-02-21T15:22:08Z</time>
      </trkpt>
      <trkpt lat="38.9414200" lon="1.2440700">
        <ele>50.3</ele>
        <time>2020-02-21T15:22:09Z</time>
      </trkpt>
      <trkpt lat="38.9414260" lon="1.2440780">
        <ele>50.3</ele>
        <time>2020-02-21T15:22:10Z</time>
      </trkpt>
      <trkpt lat="38.9414440" lon="1.2441120">
        <ele>50.5</ele>
        <time>2020-02-21T15:22:11Z</time>
      </trkpt>
      <trkpt lat="38.9414500" lon="1.2441260">
        <ele>50.6</ele>
        <time>2020-02-21T15:22:12Z</time>
      </trkpt>
      <trkpt lat="38.9414670" lon="1.2441570">
        <ele>50.8</ele>
        <time>2020-02-21T15:22:13Z</time>
      </trkpt>
      <trkpt lat="38.9414710" lon="1.2441710">
        <ele>50.9</ele>
        <time>2020-02-21T15:22:14Z</time>
      </trkpt>
      <trkpt lat="38.9414830" lon="1.2442070">
        <ele>51.1</ele>
        <time>2020-02-21T15:22:15Z</time>
      </trkpt>
      <trkpt lat="38.9414850" lon="1.2442220">
        <ele>51.1</ele>
        <time>2020-02-21T15:22:16Z</time>
      </trkpt>
      <trkpt lat="38.9415010" lon="1.2442620">
        <ele>51.3</ele>
        <time>2020-02-21T15:22:17Z</time>
      </trkpt>
      <trkpt lat="38.9415070" lon="1.2442760">
        <ele>51.4</ele>
        <time>2020-02-21T15:22:18Z</time>
      </trkpt>
      <trkpt lat="38.9415300" lon="1.2443090">
        <ele>51.6</ele>
        <time>2020-02-21T15:22:19Z</time>
      </trkpt>
      <trkpt lat="38.9415400" lon="1.2443260">
        <ele>51.6</ele>
        <time>2020-02-21T15:22:20Z</time>
      </trkpt>
      <trkpt lat="38.9415610" lon="1.2443590">
        <ele>51.8</ele>
        <time>2020-02-21T15:22:21Z</time>
      </trkpt>
      <trkpt lat="38.9415860" lon="1.2443940">
        <ele>52.0</ele>
        <time>2020-02-21T15:22:22Z</time>
      </trkpt>
      <trkpt lat="38.9415930" lon="1.2444040">
        <ele>52.0</ele>
        <time>2020-02-21T15:22:23Z</time>
      </trkpt>
      <trkpt lat="38.9416140" lon="1.2444260">
        <ele>52.1</ele>
        <time>2020-02-21T15:22:24Z</time>
      </trkpt>
      <trkpt lat="38.9416370" lon="1.2444590">
        <ele>52.3</ele>
        <time>2020-02-21T15:22:25Z</time>
      </trkpt>
      <trkpt lat="38.9416430" lon="1.2444680">
        <ele>52.4</ele>
        <time>2020-02-21T15:22:26Z</time>
      </trkpt>
      <trkpt lat="38.9416680" lon="1.2445080">
        <ele>52.6</ele>
        <time>2020-02-21T15:22:27Z</time>
      </trkpt>
      <trkpt lat="38.9416770" lon="1.2445220">
        <ele>52.6</ele>
        <time>2020-02-21T15:22:28Z</time>
      </trkpt>
      <trkpt lat="38.9416930" lon="1.2445530">
        <ele>52.7</ele>
        <time>2020-02-21T15:22:29Z</time>
      </trkpt>
      <trkpt lat="38.9417110" lon="1.2445800">
        <ele>52.8</ele>
        <time>2020-02-21T15:22:30Z</time>
      </trkpt>
      <trkpt lat="38.9417310" lon="1.2446050">
        <ele>52.9</ele>
        <time>2020-02-21T15:22:31Z</time>
      </trkpt>
      <trkpt lat="38.9417520" lon="1.2446290">
        <ele>53.0</ele>
        <time>2020-02-21T15:22:32Z</time>
      </trkpt>
      <trkpt lat="38.9417760" lon="1.2446480">
        <ele>53.2</ele>
        <time>2020-02-21T15:22:33Z</time>
      </trkpt>
      <trkpt lat="38.9417980" lon="1.2446690">
        <ele>53.3</ele>
        <time>2020-02-21T15:22:34Z</time>
      </trkpt>
      <trkpt lat="38.9418040" lon="1.2446810">
        <ele>53.3</ele>
        <time>2020-02-21T15:22:35Z</time>
      </trkpt>
      <trkpt lat="38.9418320" lon="1.2447060">
        <ele>53.5</ele>
        <time>2020-02-21T15:22:36Z</time>
      </trkpt>
      <trkpt lat="38.9418420" lon="1.2447120">
        <ele>53.5</ele>
        <time>2020-02-21T15:22:37Z</time>
      </trkpt>
      <trkpt lat="38.9418580" lon="1.2447410">
        <ele>53.7</ele>
        <time>2020-02-21T15:22:38Z</time>
      </trkpt>
      <trkpt lat="38.9418830" lon="1.2447780">
        <ele>53.9</ele>
        <time>2020-02-21T15:22:39Z</time>
      </trkpt>
      <trkpt lat="38.9418920" lon="1.2447920">
        <ele>54.0</ele>
        <time>2020-02-21T15:22:40Z</time>
      </trkpt>
      <trkpt lat="38.9419190" lon="1.2448200">
        <ele>54.2</ele>
        <time>2020-02-21T15:22:41Z</time>
      </trkpt>
      <trkpt lat="38.9419280" lon="1.2448270">
        <ele>54.3</ele>
        <time>2020-02-21T15:22:42Z</time>
      </trkpt>
      <trkpt lat="38.9419590" lon="1.2448530">
        <ele>54.5</ele>
        <time>2020-02-21T15:22:43Z</time>
      </trkpt>
      <trkpt lat="38.9419690" lon="1.2448560">
        <ele>54.5</ele>
        <time>2020-02-21T15:22:44Z</time>
      </trkpt>
      <trkpt lat="38.9419880" lon="1.2448850">
        <ele>54.7</ele>
        <time>2020-02-21T15:22:45Z</time>
      </trkpt>
      <trkpt lat="38.9420080" lon="1.2449090">
        <ele>54.8</ele>
        <time>2020-02-21T15:22:46Z</time>
      </trkpt>
      <trkpt lat="38.9420390" lon="1.2449430">
        <ele>55.0</ele>
        <time>2020-02-21T15:22:47Z</time>
      </trkpt>
      <trkpt lat="38.9420500" lon="1.2449540">
        <ele>55.1</ele>
        <time>2020-02-21T15:22:48Z</time>
      </trkpt>
      <trkpt lat="38.9420740" lon="1.2449810">
        <ele>55.2</ele>
        <time>2020-02-21T15:22:49Z</time>
      </trkpt>
      <trkpt lat="38.9421010" lon="1.2450100">
        <ele>55.3</ele>
        <time>2020-02-21T15:22:50Z</time>
      </trkpt>
      <trkpt lat="38.9421260" lon="1.2450320">
        <ele>55.5</ele>
        <time>2020-02-21T15:22:51Z</time>
      </trkpt>
      <trkpt lat="38.9421630" lon="1.2450520">
        <ele>55.6</ele>
        <time>2020-02-21T15:22:52Z</time>
      </trkpt>
      <trkpt lat="38.9421750" lon="1.2450610">
        <ele>55.7</ele>
        <time>2020-02-21T15:22:53Z</time>
      </trkpt>
      <trkpt lat="38.9422030" lon="1.2450790">
        <ele>55.8</ele>
        <time>2020-02-21T15:22:54Z</time>
      </trkpt>
      <trkpt lat="38.9422300" lon="1.2450940">
        <ele>55.9</ele>
        <time>2020-02-21T15:22:55Z</time>
      </trkpt>
      <trkpt lat="38.9422600" lon="1.2451080">
        <ele>56.1</ele>
        <time>2020-02-21T15:22:56Z</time>
      </trkpt>
      <trkpt lat="38.9422890" lon="1.2451200">
        <ele>56.2</ele>
        <time>2020-02-21T15:22:57Z</time>
      </trkpt>
      <trkpt lat="38.9423230" lon="1.2451260">
        <ele>56.4</ele>
        <time>2020-02-21T15:22:58Z</time>
      </trkpt>
      <trkpt lat="38.9423520" lon="1.2451300">
        <ele>56.5</ele>
        <time>2020-02-21T15:22:59Z</time>
      </trkpt>
      <trkpt lat="38.9423840" lon="1.2451460">
        <ele>56.8</ele>
        <time>2020-02-21T15:23:00Z</time>
      </trkpt>
      <trkpt lat="38.9423930" lon="1.2451490">
        <ele>56.9</ele>
        <time>2020-02-21T15:23:01Z</time>
      </trkpt>
      <trkpt lat="38.9424270" lon="1.2451590">
        <ele>57.0</ele>
        <time>2020-02-21T15:23:02Z</time>
      </trkpt>
      <trkpt lat="38.9424400" lon="1.2451660">
        <ele>57.1</ele>
        <time>2020-02-21T15:23:03Z</time>
      </trkpt>
      <trkpt lat="38.9424800" lon="1.2451690">
        <ele>57.2</ele>
        <time>2020-02-21T15:23:04Z</time>
      </trkpt>
      <trkpt lat="38.9424940" lon="1.2451710">
        <ele>57.3</ele>
        <time>2020-02-21T15:23:05Z</time>
      </trkpt>
      <trkpt lat="38.9425220" lon="1.2451790">
        <ele>57.4</ele>
        <time>2020-02-21T15:23:06Z</time>
      </trkpt>
      <trkpt lat="38.9425620" lon="1.2451810">
        <ele>57.5</ele>
        <time>2020-02-21T15:23:07Z</time>
      </trkpt>
      <trkpt lat="38.9425770" lon="1.2451830">
        <ele>57.6</ele>
        <time>2020-02-21T15:23:08Z</time>
      </trkpt>
      <trkpt lat="38.9426150" lon="1.2451870">
        <ele>57.7</ele>
        <time>2020-02-21T15:23:09Z</time>
      </trkpt>
      <trkpt lat="38.9426270" lon="1.2451910">
        <ele>57.8</ele>
        <time>2020-02-21T15:23:10Z</time>
      </trkpt>
      <trkpt lat="38.9426620" lon="1.2452010">
        <ele>57.9</ele>
        <time>2020-02-21T15:23:11Z</time>
      </trkpt>
      <trkpt lat="38.9426740" lon="1.2452040">
        <ele>57.9</ele>
        <time>2020-02-21T15:23:12Z</time>
      </trkpt>
      <trkpt lat="38.9427030" lon="1.2452090">
        <ele>58.0</ele>
        <time>2020-02-21T15:23:13Z</time>
      </trkpt>
      <trkpt lat="38.9427430" lon="1.2452180">
        <ele>58.2</ele>
        <time>2020-02-21T15:23:14Z</time>
      </trkpt>
      <trkpt lat="38.9427740" lon="1.2452190">
        <ele>58.3</ele>
        <time>2020-02-21T15:23:15Z</time>
      </trkpt>
      <trkpt lat="38.9428010" lon="1.2452250">
        <ele>58.4</ele>
        <time>2020-02-21T15:23:16Z</time>
      </trkpt>
      <trkpt lat="38.9428420" lon="1.2452240">
        <ele>58.5</ele>
        <time>2020-02-21T15:23:17Z</time>
      </trkpt>
      <trkpt lat="38.9428580" lon="1.2452200">
        <ele>58.6</ele>
        <time>2020-02-21T15:23:18Z</time>
      </trkpt>
      <trkpt lat="38.9428940" lon="1.2452240">
        <ele>58.7</ele>
        <time>2020-02-21T15:23:19Z</time>
      </trkpt>
      <trkpt lat="38.9429080" lon="1.2452220">
        <ele>58.8</ele>
        <time>2020-02-21T15:23:20Z</time>
      </trkpt>
      <trkpt lat="38.9429470" lon="1.2452210">
        <ele>58.9</ele>
        <time>2020-02-21T15:23:21Z</time>
      </trkpt>
      <trkpt lat="38.9429640" lon="1.2452200">
        <ele>59.0</ele>
        <time>2020-02-21T15:23:22Z</time>
      </trkpt>
      <trkpt lat="38.9430020" lon="1.2452110">
        <ele>59.1</ele>
        <time>2020-02-21T15:23:23Z</time>
      </trkpt>
      <trkpt lat="38.9430160" lon="1.2452090">
        <ele>59.1</ele>
        <time>2020-02-21T15:23:24Z</time>
      </trkpt>
      <trkpt lat="38.9430640" lon="1.2452100">
        <ele>59.3</ele>
        <time>2020-02-21T15:23:25Z</time>
      </trkpt>
      <trkpt lat="38.9430860" lon="1.2452150">
        <ele>59.4</ele>
        <time>2020-02-21T15:23:26Z</time>
      </trkpt>
      <trkpt lat="38.9431150" lon="1.2452120">
        <ele>59.5</ele>
        <time>2020-02-21T15:23:27Z</time>
      </trkpt>
      <trkpt lat="38.9431450" lon="1.2451940">
        <ele>59.4</ele>
        <time>2020-02-21T15:23:28Z</time>
      </trkpt>
      <trkpt lat="38.9431720" lon="1.2451530">
        <ele>59.2</ele>
        <time>2020-02-21T15:23:29Z</time>
      </trkpt>
      <trkpt lat="38.9431990" lon="1.2451070">
        <ele>59.0</ele>
        <time>2020-02-21T15:23:30Z</time>
      </trkpt>
      <trkpt lat="38.9432220" lon="1.2450730">
        <ele>58.9</ele>
        <time>2020-02-21T15:23:31Z</time>
      </trkpt>
      <trkpt lat="38.9432460" lon="1.2450290">
        <ele>58.7</ele>
        <time>2020-02-21T15:23:32Z</time>
      </trkpt>
      <trkpt lat="38.9432530" lon="1.2450110">
        <ele>58.7</ele>
        <time>2020-02-21T15:23:33Z</time>
      </trkpt>
      <trkpt lat="38.9432630" lon="1.2449750">
        <ele>58.6</ele>
        <time>2020-02-21T15:23:34Z</time>
      </trkpt>
      <trkpt lat="38.9432830" lon="1.2449310">
        <ele>58.5</ele>
        <time>2020-02-21T15:23:35Z</time>
      </trkpt>
      <trkpt lat="38.9432910" lon="1.2449150">
        <ele>58.5</ele>
        <time>2020-02-21T15:23:36Z</time>
      </trkpt>
      <trkpt lat="38.9433070" lon="1.2448790">
        <ele>58.5</ele>
        <time>2020-02-21T15:23:37Z</time>
      </trkpt>
      <trkpt lat="38.9433230" lon="1.2448480">
        <ele>58.4</ele>
        <time>2020-02-21T15:23:38Z</time>
      </trkpt>
      <trkpt lat="38.9433610" lon="1.2448430">
        <ele>58.4</ele>
        <time>2020-02-21T15:23:39Z</time>
      </trkpt>
      <trkpt lat="38.9433950" lon="1.2448280">
        <ele>58.3</ele>
        <time>2020-02-21T15:23:40Z</time>
      </trkpt>
      <trkpt lat="38.9434300" lon="1.2447960">
        <ele>58.3</ele>
        <time>2020-02-21T15:23:41Z</time>
      </trkpt>
      <trkpt lat="38.9434540" lon="1.2447590">
        <ele>58.2</ele>
        <time>2020-02-21T15:23:42Z</time>
      </trkpt>
      <trkpt lat="38.9434830" lon="1.2447160">
        <ele>58.2</ele>
        <time>2020-02-21T15:23:43Z</time>
      </trkpt>
      <trkpt lat="38.9435080" lon="1.2446750">
        <ele>58.1</ele>
        <time>2020-02-21T15:23:44Z</time>
      </trkpt>
      <trkpt lat="38.9435360" lon="1.2446330">
        <ele>58.0</ele>
        <time>2020-02-21T15:23:45Z</time>
      </trkpt>
      <trkpt lat="38.9435600" lon="1.2445820">
        <ele>57.8</ele>
        <time>2020-02-21T15:23:46Z</time>
      </trkpt>
      <trkpt lat="38.9435880" lon="1.2445400">
        <ele>57.6</ele>
        <time>2020-02-21T15:23:47Z</time>
      </trkpt>
      <trkpt lat="38.9436140" lon="1.2445060">
        <ele>57.5</ele>
        <time>2020-02-21T15:23:48Z</time>
      </trkpt>
      <trkpt lat="38.9436440" lon="1.2444730">
        <ele>57.3</ele>
        <time>2020-02-21T15:23:49Z</time>
      </trkpt>
      <trkpt lat="38.9436730" lon="1.2444360">
        <ele>57.0</ele>
        <time>2020-02-21T15:23:50Z</time>
      </trkpt>
      <trkpt lat="38.9437020" lon="1.2443910">
        <ele>56.8</ele>
        <time>2020-02-21T15:23:51Z</time>
      </trkpt>
      <trkpt lat="38.9437270" lon="1.2443560">
        <ele>56.6</ele>
        <time>2020-02-21T15:23:52Z</time>
      </trkpt>
      <trkpt lat="38.9437550" lon="1.2443140">
        <ele>56.3</ele>
        <time>2020-02-21T15:23:53Z</time>
      </trkpt>
      <trkpt lat="38.9437800" lon="1.2442680">
        <ele>56.1</ele>
        <time>2020-02-21T15:23:54Z</time>
      </trkpt>
      <trkpt lat="38.9438060" lon="1.2442260">
        <ele>55.9</ele>
        <time>2020-02-21T15:23:55Z</time>
      </trkpt>
      <trkpt lat="38.9438350" lon="1.2441890">
        <ele>55.7</ele>
        <time>2020-02-21T15:23:56Z</time>
      </trkpt>
      <trkpt lat="38.9438650" lon="1.2441540">
        <ele>55.5</ele>
        <time>2020-02-21T15:23:57Z</time>
      </trkpt>
      <trkpt lat="38.9438970" lon="1.2441230">
        <ele>55.4</ele>
        <time>2020-02-21T15:23:58Z</time>
      </trkpt>
      <trkpt lat="38.9439430" lon="1.2441040">
        <ele>55.2</ele>
        <time>2020-02-21T15:23:59Z</time>
      </trkpt>
      <trkpt lat="38.9439670" lon="1.2440680">
        <ele>55.0</ele>
        <time>2020-02-21T15:24:00Z</time>
      </trkpt>
      <trkpt lat="38.9439700" lon="1.2440300">
        <ele>54.8</ele>
        <time>2020-02-21T15:24:01Z</time>
      </trkpt>
      <trkpt lat="38.9439630" lon="1.2439910">
        <ele>54.7</ele>
        <time>2020-02-21T15:24:02Z</time>
      </trkpt>
      <trkpt lat="38.9439490" lon="1.2439600">
        <ele>54.5</ele>
        <time>2020-02-21T15:24:03Z</time>
      </trkpt>
      <trkpt lat="38.9439370" lon="1.2439270">
        <ele>54.4</ele>
        <time>2020-02-21T15:24:04Z</time>
      </trkpt>
      <trkpt lat="38.9439290" lon="1.2438900">
        <ele>54.2</ele>
        <time>2020-02-21T15:24:05Z</time>
      </trkpt>
      <trkpt lat="38.9439290" lon="1.2438730">
        <ele>54.2</ele>
        <time>2020-02-21T15:24:06Z</time>
      </trkpt>
      <trkpt lat="38.9439300" lon="1.2438200">
        <ele>54.0</ele>
        <time>2020-02-21T15:24:07Z</time>
      </trkpt>
      <trkpt lat="38.9439310" lon="1.2437850">
        <ele>53.9</ele>
        <time>2020-02-21T15:24:08Z</time>
      </trkpt>
      <trkpt lat="38.9439260" lon="1.2437500">
        <ele>53.7</ele>
        <time>2020-02-21T15:24:09Z</time>
      </trkpt>
      <trkpt lat="38.9439210" lon="1.2437080">
        <ele>53.6</ele>
        <time>2020-02-21T15:24:10Z</time>
      </trkpt>
      <trkpt lat="38.9439210" lon="1.2436930">
        <ele>53.5</ele>
        <time>2020-02-21T15:24:11Z</time>
      </trkpt>
      <trkpt lat="38.9439330" lon="1.2436490">
        <ele>53.4</ele>
        <time>2020-02-21T15:24:12Z</time>
      </trkpt>
      <trkpt lat="38.9439360" lon="1.2436340">
        <ele>53.3</ele>
        <time>2020-02-21T15:24:13Z</time>
      </trkpt>
      <trkpt lat="38.9439500" lon="1.2435980">
        <ele>53.2</ele>
        <time>2020-02-21T15:24:14Z</time>
      </trkpt>
      <trkpt lat="38.9439580" lon="1.2435580">
        <ele>53.0</ele>
        <time>2020-02-21T15:24:15Z</time>
      </trkpt>
      <trkpt lat="38.9439690" lon="1.2435080">
        <ele>52.9</ele>
        <time>2020-02-21T15:24:16Z</time>
      </trkpt>
      <trkpt lat="38.9439910" lon="1.2434850">
        <ele>52.7</ele>
        <time>2020-02-21T15:24:17Z</time>
      </trkpt>
      <trkpt lat="38.9440160" lon="1.2434440">
        <ele>52.6</ele>
        <time>2020-02-21T15:24:18Z</time>
      </trkpt>
      <trkpt lat="38.9440310" lon="1.2433940">
        <ele>52.4</ele>
        <time>2020-02-21T15:24:19Z</time>
      </trkpt>
      <trkpt lat="38.9440230" lon="1.2433590">
        <ele>52.2</ele>
        <time>2020-02-21T15:24:20Z</time>
      </trkpt>
      <trkpt lat="38.9440000" lon="1.2433130">
        <ele>52.0</ele>
        <time>2020-02-21T15:24:21Z</time>
      </trkpt>
      <trkpt lat="38.9439880" lon="1.2432990">
        <ele>51.9</ele>
        <time>2020-02-21T15:24:22Z</time>
      </trkpt>
      <trkpt lat="38.9439760" lon="1.2432620">
        <ele>51.7</ele>
        <time>2020-02-21T15:24:23Z</time>
      </trkpt>
      <trkpt lat="38.9439780" lon="1.2432200">
        <ele>51.5</ele>
        <time>2020-02-21T15:24:24Z</time>
      </trkpt>
      <trkpt lat="38.9439710" lon="1.2431650">
        <ele>51.2</ele>
        <time>2020-02-21T15:24:25Z</time>
      </trkpt>
      <trkpt lat="38.9439630" lon="1.2431280">
        <ele>51.0</ele>
        <time>2020-02-21T15:24:26Z</time>
      </trkpt>
      <trkpt lat="38.9439490" lon="1.2430840">
        <ele>50.8</ele>
        <time>2020-02-21T15:24:27Z</time>
      </trkpt>
      <trkpt lat="38.9439270" lon="1.2430460">
        <ele>50.6</ele>
        <time>2020-02-21T15:24:28Z</time>
      </trkpt>
      <trkpt lat="38.9439160" lon="1.2430330">
        <ele>50.5</ele>
        <time>2020-02-21T15:24:29Z</time>
      </trkpt>
      <trkpt lat="38.9438930" lon="1.2430110">
        <ele>50.3</ele>
        <time>2020-02-21T15:24:30Z</time>
      </trkpt>
      <trkpt lat="38.9438760" lon="1.2429730">
        <ele>50.1</ele>
        <time>2020-02-21T15:24:31Z</time>
      </trkpt>
      <trkpt lat="38.9438760" lon="1.2429090">
        <ele>49.8</ele>
        <time>2020-02-21T15:24:32Z</time>
      </trkpt>
      <trkpt lat="38.9438830" lon="1.2428520">
        <ele>49.6</ele>
        <time>2020-02-21T15:24:33Z</time>
      </trkpt>
      <trkpt lat="38.9438800" lon="1.2428080">
        <ele>49.4</ele>
        <time>2020-02-21T15:24:34Z</time>
      </trkpt>
      <trkpt lat="38.9438730" lon="1.2427730">
        <ele>49.2</ele>
        <time>2020-02-21T15:24:35Z</time>
      </trkpt>
      <trkpt lat="38.9438750" lon="1.2427230">
        <ele>49.0</ele>
        <time>2020-02-21T15:24:36Z</time>
      </trkpt>
      <trkpt lat="38.9438580" lon="1.2426710">
        <ele>48.7</ele>
        <time>2020-02-21T15:24:37Z</time>
      </trkpt>
      <trkpt lat="38.9438510" lon="1.2426180">
        <ele>48.3</ele>
        <time>2020-02-21T15:24:38Z</time>
      </trkpt>
      <trkpt lat="38.9438640" lon="1.2425570">
        <ele>47.9</ele>
        <time>2020-02-21T15:24:39Z</time>
      </trkpt>
      <trkpt lat="38.9438750" lon="1.2425030">
        <ele>47.6</ele>
        <time>2020-02-21T15:24:40Z</time>
      </trkpt>
      <trkpt lat="38.9438710" lon="1.2424620">
        <ele>47.3</ele>
        <time>2020-02-21T15:24:41Z</time>
      </trkpt>
      <trkpt lat="38.9438700" lon="1.2424160">
        <ele>47.0</ele>
        <time>2020-02-21T15:24:42Z</time>
      </trkpt>
      <trkpt lat="38.9438730" lon="1.2423620">
        <ele>46.7</ele>
        <time>2020-02-21T15:24:43Z</time>
      </trkpt>
      <trkpt lat="38.9438750" lon="1.2422900">
        <ele>46.3</ele>
        <time>2020-02-21T15:24:44Z</time>
      </trkpt>
      <trkpt lat="38.9438770" lon="1.2422430">
        <ele>46.1</ele>
        <time>2020-02-21T15:24:45Z</time>
      </trkpt>
      <trkpt lat="38.9438820" lon="1.2422040">
        <ele>45.8</ele>
        <time>2020-02-21T15:24:46Z</time>
      </trkpt>
      <trkpt lat="38.9438770" lon="1.2421650">
        <ele>45.6</ele>
        <time>2020-02-21T15:24:47Z</time>
      </trkpt>
      <trkpt lat="38.9438630" lon="1.2421220">
        <ele>45.3</ele>
        <time>2020-02-21T15:24:48Z</time>
      </trkpt>
      <trkpt lat="38.9438590" lon="1.2421080">
        <ele>45.3</ele>
        <time>2020-02-21T15:24:49Z</time>
      </trkpt>
      <trkpt lat="38.9438630" lon="1.2420890">
        <ele>45.3</ele>
        <time>2020-02-21T15:24:50Z</time>
      </trkpt>
      <trkpt lat="38.9438670" lon="1.2420640">
        <ele>45.2</ele>
        <time>2020-02-21T15:24:51Z</time>
      </trkpt>
      <trkpt lat="38.9438680" lon="1.2420420">
        <ele>45.2</ele>
        <time>2020-02-21T15:24:52Z</time>
      </trkpt>
      <trkpt lat="38.9438780" lon="1.2420230">
        <ele>45.2</ele>
        <time>2020-02-21T15:24:53Z</time>
      </trkpt>
      <trkpt lat="38.9438800" lon="1.2420010">
        <ele>45.2</ele>
        <time>2020-02-21T15:24:54Z</time>
      </trkpt>
      <trkpt lat="38.9438820" lon="1.2419900">
        <ele>45.2</ele>
        <time>2020-02-21T15:24:55Z</time>
      </trkpt>
      <trkpt lat="38.9438830" lon="1.2419810">
        <ele>45.2</ele>
        <time>2020-02-21T15:24:56Z</time>
      </trkpt>
      <trkpt lat="38.9438870" lon="1.2419730">
        <ele>45.2</ele>
        <time>2020-02-21T15:24:57Z</time>
      </trkpt>
      <trkpt lat="38.9438870" lon="1.2419740">
        <ele>45.2</ele>
        <time>2020-02-21T15:24:58Z</time>
      </trkpt>
      <trkpt lat="38.9438850" lon="1.2419730">
        <ele>45.2</ele>
        <time>2020-02-21T15:24:59Z</time>
      </trkpt>
      <trkpt lat="38.9438850" lon="1.2419730">
        <ele>45.2</ele>
        <time>2020-02-21T15:25:00Z</time>
      </trkpt>
      <trkpt lat="38.9438870" lon="1.2419690">
        <ele>45.2</ele>
        <time>2020-02-21T15:25:01Z</time>
      </trkpt>
      <trkpt lat="38.9438880" lon="1.2419640">
        <ele>45.2</ele>
        <time>2020-02-21T15:25:02Z</time>
      </trkpt>
      <trkpt lat="38.9438850" lon="1.2419610">
        <ele>45.2</ele>
        <time>2020-02-21T15:25:03Z</time>
      </trkpt>
      <trkpt lat="38.9438850" lon="1.2419600">
        <ele>45.2</ele>
        <time>2020-02-21T15:25:04Z</time>
      </trkpt>
      <trkpt lat="38.9438850" lon="1.2419610">
        <ele>45.2</ele>
        <time>2020-02-21T15:25:05Z</time>
      </trkpt>
      <trkpt lat="38.9438860" lon="1.2419630">
        <ele>45.2</ele>
        <time>2020-02-21T15:25:06Z</time>
      </trkpt>
      <trkpt lat="38.9438870" lon="1.2419650">
        <ele>45.2</ele>
        <time>2020-02-21T15:25:07Z</time>
      </trkpt>
      <trkpt lat="38.9439140" lon="1.2419200">
        <ele>45.2</ele>
        <time>2020-02-21T15:25:16Z</time>
      </trkpt>
      <trkpt lat="38.9439020" lon="1.2418820">
        <ele>45.1</ele>
        <time>2020-02-21T15:25:17Z</time>
      </trkpt>
      <trkpt lat="38.9439080" lon="1.2418390">
        <ele>45.1</ele>
        <time>2020-02-21T15:25:18Z</time>
      </trkpt>
      <trkpt lat="38.9439220" lon="1.2418030">
        <ele>45.1</ele>
        <time>2020-02-21T15:25:19Z</time>
      </trkpt>
      <trkpt lat="38.9439550" lon="1.2417760">
        <ele>45.1</ele>
        <time>2020-02-21T15:25:20Z</time>
      </trkpt>
      <trkpt lat="38.9439680" lon="1.2417690">
        <ele>45.1</ele>
        <time>2020-02-21T15:25:21Z</time>
      </trkpt>
      <trkpt lat="38.9439990" lon="1.2417590">
        <ele>45.0</ele>
        <time>2020-02-21T15:25:22Z</time>
      </trkpt>
      <trkpt lat="38.9440320" lon="1.2417500">
        <ele>45.0</ele>
        <time>2020-02-21T15:25:23Z</time>
      </trkpt>
      <trkpt lat="38.9440550" lon="1.2417110">
        <ele>45.0</ele>
        <time>2020-02-21T15:25:24Z</time>
      </trkpt>
      <trkpt lat="38.9440820" lon="1.2416730">
        <ele>45.0</ele>
        <time>2020-02-21T15:25:25Z</time>
      </trkpt>
      <trkpt lat="38.9441050" lon="1.2416550">
        <ele>45.0</ele>
        <time>2020-02-21T15:25:26Z</time>
      </trkpt>
      <trkpt lat="38.9441340" lon="1.2416350">
        <ele>44.9</ele>
        <time>2020-02-21T15:25:27Z</time>
      </trkpt>
      <trkpt lat="38.9441410" lon="1.2416280">
        <ele>44.9</ele>
        <time>2020-02-21T15:25:28Z</time>
      </trkpt>
      <trkpt lat="38.9441360" lon="1.2415680">
        <ele>44.8</ele>
        <time>2020-02-21T15:25:29Z</time>
      </trkpt>
      <trkpt lat="38.9441290" lon="1.2415410">
        <ele>44.8</ele>
        <time>2020-02-21T15:25:30Z</time>
      </trkpt>
      <trkpt lat="38.9441100" lon="1.2414940">
        <ele>44.7</ele>
        <time>2020-02-21T15:25:31Z</time>
      </trkpt>
      <trkpt lat="38.9440910" lon="1.2414450">
        <ele>44.6</ele>
        <time>2020-02-21T15:25:32Z</time>
      </trkpt>
      <trkpt lat="38.9440820" lon="1.2413950">
        <ele>44.4</ele>
        <time>2020-02-21T15:25:33Z</time>
      </trkpt>
      <trkpt lat="38.9440720" lon="1.2413450">
        <ele>44.3</ele>
        <time>2020-02-21T15:25:34Z</time>
      </trkpt>
      <trkpt lat="38.9440690" lon="1.2412950">
        <ele>44.1</ele>
        <time>2020-02-21T15:25:35Z</time>
      </trkpt>
      <trkpt lat="38.9440620" lon="1.2412440">
        <ele>44.0</ele>
        <time>2020-02-21T15:25:36Z</time>
      </trkpt>
      <trkpt lat="38.9440580" lon="1.2411940">
        <ele>43.8</ele>
        <time>2020-02-21T15:25:37Z</time>
      </trkpt>
      <trkpt lat="38.9440680" lon="1.2411440">
        <ele>43.7</ele>
        <time>2020-02-21T15:25:38Z</time>
      </trkpt>
      <trkpt lat="38.9440740" lon="1.2410960">
        <ele>43.7</ele>
        <time>2020-02-21T15:25:39Z</time>
      </trkpt>
      <trkpt lat="38.9440780" lon="1.2410490">
        <ele>43.6</ele>
        <time>2020-02-21T15:25:40Z</time>
      </trkpt>
      <trkpt lat="38.9440920" lon="1.2409990">
        <ele>43.5</ele>
        <time>2020-02-21T15:25:41Z</time>
      </trkpt>
      <trkpt lat="38.9441080" lon="1.2409470">
        <ele>43.4</ele>
        <time>2020-02-21T15:25:42Z</time>
      </trkpt>
      <trkpt lat="38.9441230" lon="1.2408940">
        <ele>43.4</ele>
        <time>2020-02-21T15:25:43Z</time>
      </trkpt>
      <trkpt lat="38.9441410" lon="1.2408580">
        <ele>43.4</ele>
        <time>2020-02-21T15:25:44Z</time>
      </trkpt>
      <trkpt lat="38.9441560" lon="1.2408120">
        <ele>43.4</ele>
        <time>2020-02-21T15:25:45Z</time>
      </trkpt>
      <trkpt lat="38.9441610" lon="1.2407960">
        <ele>43.4</ele>
        <time>2020-02-21T15:25:46Z</time>
      </trkpt>
      <trkpt lat="38.9441800" lon="1.2407600">
        <ele>43.4</ele>
        <time>2020-02-21T15:25:47Z</time>
      </trkpt>
      <trkpt lat="38.9441960" lon="1.2407160">
        <ele>43.4</ele>
        <time>2020-02-21T15:25:48Z</time>
      </trkpt>
      <trkpt lat="38.9442300" lon="1.2406890">
        <ele>43.4</ele>
        <time>2020-02-21T15:25:49Z</time>
      </trkpt>
      <trkpt lat="38.9442640" lon="1.2406630">
        <ele>43.4</ele>
        <time>2020-02-21T15:25:50Z</time>
      </trkpt>
      <trkpt lat="38.9442940" lon="1.2406350">
        <ele>43.4</ele>
        <time>2020-02-21T15:25:51Z</time>
      </trkpt>
      <trkpt lat="38.9443180" lon="1.2406070">
        <ele>43.4</ele>
        <time>2020-02-21T15:25:52Z</time>
      </trkpt>
      <trkpt lat="38.9443410" lon="1.2405690">
        <ele>43.4</ele>
        <time>2020-02-21T15:25:53Z</time>
      </trkpt>
      <trkpt lat="38.9443680" lon="1.2405340">
        <ele>43.4</ele>
        <time>2020-02-21T15:25:54Z</time>
      </trkpt>
      <trkpt lat="38.9443900" lon="1.2404810">
        <ele>43.4</ele>
        <time>2020-02-21T15:25:55Z</time>
      </trkpt>
      <trkpt lat="38.9444210" lon="1.2404450">
        <ele>43.4</ele>
        <time>2020-02-21T15:25:56Z</time>
      </trkpt>
      <trkpt lat="38.9444470" lon="1.2404050">
        <ele>43.4</ele>
        <time>2020-02-21T15:25:57Z</time>
      </trkpt>
      <trkpt lat="38.9444680" lon="1.2403690">
        <ele>43.4</ele>
        <time>2020-02-21T15:25:58Z</time>
      </trkpt>
      <trkpt lat="38.9444920" lon="1.2403240">
        <ele>43.4</ele>
        <time>2020-02-21T15:25:59Z</time>
      </trkpt>
      <trkpt lat="38.9445180" lon="1.2402690">
        <ele>43.4</ele>
        <time>2020-02-21T15:26:00Z</time>
      </trkpt>
      <trkpt lat="38.9445590" lon="1.2402170">
        <ele>43.4</ele>
        <time>2020-02-21T15:26:01Z</time>
      </trkpt>
      <trkpt lat="38.9445880" lon="1.2401800">
        <ele>43.4</ele>
        <time>2020-02-21T15:26:02Z</time>
      </trkpt>
      <trkpt lat="38.9446110" lon="1.2401390">
        <ele>43.4</ele>
        <time>2020-02-21T15:26:03Z</time>
      </trkpt>
      <trkpt lat="38.9446380" lon="1.2400970">
        <ele>43.5</ele>
        <time>2020-02-21T15:26:04Z</time>
      </trkpt>
      <trkpt lat="38.9446630" lon="1.2400600">
        <ele>43.5</ele>
        <time>2020-02-21T15:26:05Z</time>
      </trkpt>
      <trkpt lat="38.9446940" lon="1.2400140">
        <ele>43.5</ele>
        <time>2020-02-21T15:26:06Z</time>
      </trkpt>
      <trkpt lat="38.9447330" lon="1.2399730">
        <ele>43.5</ele>
        <time>2020-02-21T15:26:07Z</time>
      </trkpt>
      <trkpt lat="38.9447750" lon="1.2399360">
        <ele>43.5</ele>
        <time>2020-02-21T15:26:08Z</time>
      </trkpt>
      <trkpt lat="38.9447980" lon="1.2398930">
        <ele>43.5</ele>
        <time>2020-02-21T15:26:09Z</time>
      </trkpt>
      <trkpt lat="38.9448240" lon="1.2398450">
        <ele>43.5</ele>
        <time>2020-02-21T15:26:10Z</time>
      </trkpt>
      <trkpt lat="38.9448470" lon="1.2398050">
        <ele>43.5</ele>
        <time>2020-02-21T15:26:11Z</time>
      </trkpt>
      <trkpt lat="38.9448700" lon="1.2397680">
        <ele>43.5</ele>
        <time>2020-02-21T15:26:12Z</time>
      </trkpt>
      <trkpt lat="38.9448920" lon="1.2397410">
        <ele>43.5</ele>
        <time>2020-02-21T15:26:13Z</time>
      </trkpt>
      <trkpt lat="38.9449190" lon="1.2397040">
        <ele>43.5</ele>
        <time>2020-02-21T15:26:14Z</time>
      </trkpt>
      <trkpt lat="38.9449440" lon="1.2396640">
        <ele>43.5</ele>
        <time>2020-02-21T15:26:15Z</time>
      </trkpt>
      <trkpt lat="38.9449690" lon="1.2396160">
        <ele>43.5</ele>
        <time>2020-02-21T15:26:16Z</time>
      </trkpt>
      <trkpt lat="38.9450000" lon="1.2395720">
        <ele>43.5</ele>
        <time>2020-02-21T15:26:17Z</time>
      </trkpt>
      <trkpt lat="38.9450260" lon="1.2395280">
        <ele>43.5</ele>
        <time>2020-02-21T15:26:18Z</time>
      </trkpt>
      <trkpt lat="38.9450500" lon="1.2394940">
        <ele>43.5</ele>
        <time>2020-02-21T15:26:19Z</time>
      </trkpt>
      <trkpt lat="38.9450750" lon="1.2394550">
        <ele>43.5</ele>
        <time>2020-02-21T15:26:20Z</time>
      </trkpt>
      <trkpt lat="38.9451060" lon="1.2394110">
        <ele>43.5</ele>
        <time>2020-02-21T15:26:21Z</time>
      </trkpt>
      <trkpt lat="38.9451460" lon="1.2393780">
        <ele>43.5</ele>
        <time>2020-02-21T15:26:22Z</time>
      </trkpt>
      <trkpt lat="38.9451810" lon="1.2393320">
        <ele>43.6</ele>
        <time>2020-02-21T15:26:23Z</time>
      </trkpt>
      <trkpt lat="38.9452060" lon="1.2392800">
        <ele>43.6</ele>
        <time>2020-02-21T15:26:24Z</time>
      </trkpt>
      <trkpt lat="38.9452380" lon="1.2392250">
        <ele>43.6</ele>
        <time>2020-02-21T15:26:25Z</time>
      </trkpt>
      <trkpt lat="38.9452660" lon="1.2391830">
        <ele>43.6</ele>
        <time>2020-02-21T15:26:26Z</time>
      </trkpt>
      <trkpt lat="38.9452970" lon="1.2391460">
        <ele>43.6</ele>
        <time>2020-02-21T15:26:27Z</time>
      </trkpt>
      <trkpt lat="38.9453300" lon="1.2391230">
        <ele>43.5</ele>
        <time>2020-02-21T15:26:28Z</time>
      </trkpt>
      <trkpt lat="38.9453640" lon="1.2390810">
        <ele>43.5</ele>
        <time>2020-02-21T15:26:29Z</time>
      </trkpt>
      <trkpt lat="38.9454020" lon="1.2390420">
        <ele>43.5</ele>
        <time>2020-02-21T15:26:30Z</time>
      </trkpt>
      <trkpt lat="38.9454310" lon="1.2390050">
        <ele>43.5</ele>
        <time>2020-02-21T15:26:31Z</time>
      </trkpt>
      <trkpt lat="38.9454600" lon="1.2389630">
        <ele>43.5</ele>
        <time>2020-02-21T15:26:32Z</time>
      </trkpt>
      <trkpt lat="38.9454960" lon="1.2389320">
        <ele>43.5</ele>
        <time>2020-02-21T15:26:33Z</time>
      </trkpt>
      <trkpt lat="38.9455250" lon="1.2388860">
        <ele>43.4</ele>
        <time>2020-02-21T15:26:34Z</time>
      </trkpt>
      <trkpt lat="38.9455560" lon="1.2388430">
        <ele>43.4</ele>
        <time>2020-02-21T15:26:35Z</time>
      </trkpt>
      <trkpt lat="38.9455850" lon="1.2388040">
        <ele>43.3</ele>
        <time>2020-02-21T15:26:36Z</time>
      </trkpt>
      <trkpt lat="38.9456100" lon="1.2387590">
        <ele>43.2</ele>
        <time>2020-02-21T15:26:37Z</time>
      </trkpt>
      <trkpt lat="38.9456310" lon="1.2387130">
        <ele>43.1</ele>
        <time>2020-02-21T15:26:38Z</time>
      </trkpt>
      <trkpt lat="38.9456500" lon="1.2386730">
        <ele>43.1</ele>
        <time>2020-02-21T15:26:39Z</time>
      </trkpt>
      <trkpt lat="38.9456650" lon="1.2386330">
        <ele>43.0</ele>
        <time>2020-02-21T15:26:40Z</time>
      </trkpt>
      <trkpt lat="38.9456870" lon="1.2385850">
        <ele>43.0</ele>
        <time>2020-02-21T15:26:41Z</time>
      </trkpt>
      <trkpt lat="38.9457120" lon="1.2385400">
        <ele>42.9</ele>
        <time>2020-02-21T15:26:42Z</time>
      </trkpt>
      <trkpt lat="38.9457320" lon="1.2384910">
        <ele>42.8</ele>
        <time>2020-02-21T15:26:43Z</time>
      </trkpt>
      <trkpt lat="38.9457450" lon="1.2384540">
        <ele>42.8</ele>
        <time>2020-02-21T15:26:44Z</time>
      </trkpt>
      <trkpt lat="38.9457710" lon="1.2384140">
        <ele>42.7</ele>
        <time>2020-02-21T15:26:45Z</time>
      </trkpt>
      <trkpt lat="38.9458020" lon="1.2383660">
        <ele>42.6</ele>
        <time>2020-02-21T15:26:46Z</time>
      </trkpt>
      <trkpt lat="38.9458330" lon="1.2383150">
        <ele>42.5</ele>
        <time>2020-02-21T15:26:47Z</time>
      </trkpt>
      <trkpt lat="38.9458640" lon="1.2382690">
        <ele>42.4</ele>
        <time>2020-02-21T15:26:48Z</time>
      </trkpt>
      <trkpt lat="38.9458970" lon="1.2382170">
        <ele>42.3</ele>
        <time>2020-02-21T15:26:49Z</time>
      </trkpt>
      <trkpt lat="38.9459290" lon="1.2381630">
        <ele>42.2</ele>
        <time>2020-02-21T15:26:50Z</time>
      </trkpt>
      <trkpt lat="38.9459440" lon="1.2381170">
        <ele>42.1</ele>
        <time>2020-02-21T15:26:51Z</time>
      </trkpt>
      <trkpt lat="38.9459700" lon="1.2380610">
        <ele>42.0</ele>
        <time>2020-02-21T15:26:52Z</time>
      </trkpt>
      <trkpt lat="38.9459960" lon="1.2380030">
        <ele>41.8</ele>
        <time>2020-02-21T15:26:53Z</time>
      </trkpt>
      <trkpt lat="38.9460190" lon="1.2379500">
        <ele>41.7</ele>
        <time>2020-02-21T15:26:54Z</time>
      </trkpt>
      <trkpt lat="38.9460330" lon="1.2378890">
        <ele>41.6</ele>
        <time>2020-02-21T15:26:55Z</time>
      </trkpt>
      <trkpt lat="38.9460390" lon="1.2378270">
        <ele>41.5</ele>
        <time>2020-02-21T15:26:56Z</time>
      </trkpt>
      <trkpt lat="38.9460450" lon="1.2377700">
        <ele>41.4</ele>
        <time>2020-02-21T15:26:57Z</time>
      </trkpt>
      <trkpt lat="38.9460410" lon="1.2377120">
        <ele>41.3</ele>
        <time>2020-02-21T15:26:58Z</time>
      </trkpt>
      <trkpt lat="38.9460370" lon="1.2376600">
        <ele>41.2</ele>
        <time>2020-02-21T15:26:59Z</time>
      </trkpt>
      <trkpt lat="38.9460230" lon="1.2375960">
        <ele>41.1</ele>
        <time>2020-02-21T15:27:00Z</time>
      </trkpt>
      <trkpt lat="38.9460110" lon="1.2375410">
        <ele>41.1</ele>
        <time>2020-02-21T15:27:01Z</time>
      </trkpt>
      <trkpt lat="38.9460040" lon="1.2374830">
        <ele>41.0</ele>
        <time>2020-02-21T15:27:02Z</time>
      </trkpt>
      <trkpt lat="38.9459970" lon="1.2374290">
        <ele>40.9</ele>
        <time>2020-02-21T15:27:03Z</time>
      </trkpt>
      <trkpt lat="38.9459910" lon="1.2373940">
        <ele>40.9</ele>
        <time>2020-02-21T15:27:04Z</time>
      </trkpt>
      <trkpt lat="38.9459790" lon="1.2373550">
        <ele>40.9</ele>
        <time>2020-02-21T15:27:05Z</time>
      </trkpt>
      <trkpt lat="38.9459680" lon="1.2373200">
        <ele>40.9</ele>
        <time>2020-02-21T15:27:06Z</time>
      </trkpt>
      <trkpt lat="38.9459730" lon="1.2372710">
        <ele>40.8</ele>
        <time>2020-02-21T15:27:07Z</time>
      </trkpt>
      <trkpt lat="38.9459770" lon="1.2372550">
        <ele>41.0</ele>
        <time>2020-02-21T15:27:08Z</time>
      </trkpt>
      <trkpt lat="38.9459970" lon="1.2372150">
        <ele>41.3</ele>
        <time>2020-02-21T15:27:09Z</time>
      </trkpt>
      <trkpt lat="38.9460070" lon="1.2371970">
        <ele>41.5</ele>
        <time>2020-02-21T15:27:10Z</time>
      </trkpt>
      <trkpt lat="38.9460440" lon="1.2371820">
        <ele>41.9</ele>
        <time>2020-02-21T15:27:11Z</time>
      </trkpt>
      <trkpt lat="38.9460560" lon="1.2371780">
        <ele>42.0</ele>
        <time>2020-02-21T15:27:12Z</time>
      </trkpt>
      <trkpt lat="38.9460960" lon="1.2371710">
        <ele>42.3</ele>
        <time>2020-02-21T15:27:13Z</time>
      </trkpt>
      <trkpt lat="38.9461090" lon="1.2371620">
        <ele>42.5</ele>
        <time>2020-02-21T15:27:14Z</time>
      </trkpt>
      <trkpt lat="38.9461370" lon="1.2371470">
        <ele>42.7</ele>
        <time>2020-02-21T15:27:15Z</time>
      </trkpt>
      <trkpt lat="38.9461470" lon="1.2371400">
        <ele>42.8</ele>
        <time>2020-02-21T15:27:16Z</time>
      </trkpt>
      <trkpt lat="38.9461740" lon="1.2371140">
        <ele>43.1</ele>
        <time>2020-02-21T15:27:17Z</time>
      </trkpt>
      <trkpt lat="38.9461840" lon="1.2371030">
        <ele>43.2</ele>
        <time>2020-02-21T15:27:18Z</time>
      </trkpt>
      <trkpt lat="38.9462110" lon="1.2370760">
        <ele>43.5</ele>
        <time>2020-02-21T15:27:19Z</time>
      </trkpt>
      <trkpt lat="38.9462190" lon="1.2370700">
        <ele>43.6</ele>
        <time>2020-02-21T15:27:20Z</time>
      </trkpt>
      <trkpt lat="38.9462480" lon="1.2370550">
        <ele>43.9</ele>
        <time>2020-02-21T15:27:21Z</time>
      </trkpt>
      <trkpt lat="38.9462580" lon="1.2370470">
        <ele>44.0</ele>
        <time>2020-02-21T15:27:22Z</time>
      </trkpt>
      <trkpt lat="38.9462820" lon="1.2370220">
        <ele>44.3</ele>
        <time>2020-02-21T15:27:23Z</time>
      </trkpt>
      <trkpt lat="38.9462900" lon="1.2370120">
        <ele>44.3</ele>
        <time>2020-02-21T15:27:24Z</time>
      </trkpt>
      <trkpt lat="38.9463140" lon="1.2369870">
        <ele>44.5</ele>
        <time>2020-02-21T15:27:25Z</time>
      </trkpt>
      <trkpt lat="38.9463180" lon="1.2369760">
        <ele>44.6</ele>
        <time>2020-02-21T15:27:26Z</time>
      </trkpt>
      <trkpt lat="38.9463310" lon="1.2369670">
        <ele>44.7</ele>
        <time>2020-02-21T15:27:27Z</time>
      </trkpt>
      <trkpt lat="38.9463440" lon="1.2369520">
        <ele>44.8</ele>
        <time>2020-02-21T15:27:28Z</time>
      </trkpt>
      <trkpt lat="38.9463710" lon="1.2369170">
        <ele>45.1</ele>
        <time>2020-02-21T15:27:29Z</time>
      </trkpt>
      <trkpt lat="38.9463820" lon="1.2369060">
        <ele>45.2</ele>
        <time>2020-02-21T15:27:30Z</time>
      </trkpt>
      <trkpt lat="38.9464220" lon="1.2368820">
        <ele>45.5</ele>
        <time>2020-02-21T15:27:31Z</time>
      </trkpt>
      <trkpt lat="38.9464390" lon="1.2368750">
        <ele>45.7</ele>
        <time>2020-02-21T15:27:32Z</time>
      </trkpt>
      <trkpt lat="38.9464650" lon="1.2368600">
        <ele>45.9</ele>
        <time>2020-02-21T15:27:33Z</time>
      </trkpt>
      <trkpt lat="38.9464900" lon="1.2368370">
        <ele>46.2</ele>
        <time>2020-02-21T15:27:34Z</time>
      </trkpt>
      <trkpt lat="38.9464950" lon="1.2368280">
        <ele>46.2</ele>
        <time>2020-02-21T15:27:35Z</time>
      </trkpt>
      <trkpt lat="38.9465260" lon="1.2368060">
        <ele>46.6</ele>
        <time>2020-02-21T15:27:36Z</time>
      </trkpt>
      <trkpt lat="38.9465320" lon="1.2368000">
        <ele>46.6</ele>
        <time>2020-02-21T15:27:37Z</time>
      </trkpt>
      <trkpt lat="38.9465530" lon="1.2367770">
        <ele>46.9</ele>
        <time>2020-02-21T15:27:38Z</time>
      </trkpt>
      <trkpt lat="38.9465600" lon="1.2367670">
        <ele>47.0</ele>
        <time>2020-02-21T15:27:39Z</time>
      </trkpt>
      <trkpt lat="38.9465830" lon="1.2367360">
        <ele>47.3</ele>
        <time>2020-02-21T15:27:40Z</time>
      </trkpt>
      <trkpt lat="38.9465900" lon="1.2367280">
        <ele>47.4</ele>
        <time>2020-02-21T15:27:41Z</time>
      </trkpt>
      <trkpt lat="38.9466110" lon="1.2367020">
        <ele>47.6</ele>
        <time>2020-02-21T15:27:42Z</time>
      </trkpt>
      <trkpt lat="38.9466170" lon="1.2366930">
        <ele>47.7</ele>
        <time>2020-02-21T15:27:43Z</time>
      </trkpt>
      <trkpt lat="38.9466330" lon="1.2366820">
        <ele>47.9</ele>
        <time>2020-02-21T15:27:44Z</time>
      </trkpt>
      <trkpt lat="38.9466450" lon="1.2366740">
        <ele>48.0</ele>
        <time>2020-02-21T15:27:45Z</time>
      </trkpt>
      <trkpt lat="38.9466700" lon="1.2366610">
        <ele>48.3</ele>
        <time>2020-02-21T15:27:46Z</time>
      </trkpt>
      <trkpt lat="38.9466790" lon="1.2366550">
        <ele>48.4</ele>
        <time>2020-02-21T15:27:47Z</time>
      </trkpt>
      <trkpt lat="38.9466930" lon="1.2366420">
        <ele>48.6</ele>
        <time>2020-02-21T15:27:48Z</time>
      </trkpt>
      <trkpt lat="38.9467090" lon="1.2366340">
        <ele>48.8</ele>
        <time>2020-02-21T15:27:49Z</time>
      </trkpt>
      <trkpt lat="38.9467350" lon="1.2366100">
        <ele>49.1</ele>
        <time>2020-02-21T15:27:50Z</time>
      </trkpt>
      <trkpt lat="38.9467440" lon="1.2366020">
        <ele>49.2</ele>
        <time>2020-02-21T15:27:51Z</time>
      </trkpt>
      <trkpt lat="38.9467590" lon="1.2365890">
        <ele>49.4</ele>
        <time>2020-02-21T15:27:52Z</time>
      </trkpt>
      <trkpt lat="38.9467660" lon="1.2365760">
        <ele>49.5</ele>
        <time>2020-02-21T15:27:53Z</time>
      </trkpt>
      <trkpt lat="38.9467910" lon="1.2365540">
        <ele>49.7</ele>
        <time>2020-02-21T15:27:54Z</time>
      </trkpt>
      <trkpt lat="38.9468000" lon="1.2365470">
        <ele>49.8</ele>
        <time>2020-02-21T15:27:55Z</time>
      </trkpt>
      <trkpt lat="38.9468290" lon="1.2365300">
        <ele>50.1</ele>
        <time>2020-02-21T15:27:56Z</time>
      </trkpt>
      <trkpt lat="38.9468370" lon="1.2365230">
        <ele>50.2</ele>
        <time>2020-02-21T15:27:57Z</time>
      </trkpt>
      <trkpt lat="38.9468570" lon="1.2364920">
        <ele>50.5</ele>
        <time>2020-02-21T15:27:58Z</time>
      </trkpt>
      <trkpt lat="38.9468640" lon="1.2364790">
        <ele>50.7</ele>
        <time>2020-02-21T15:27:59Z</time>
      </trkpt>
      <trkpt lat="38.9468880" lon="1.2364610">
        <ele>51.1</ele>
        <time>2020-02-21T15:28:00Z</time>
      </trkpt>
      <trkpt lat="38.9468980" lon="1.2364520">
        <ele>51.3</ele>
        <time>2020-02-21T15:28:01Z</time>
      </trkpt>
      <trkpt lat="38.9469160" lon="1.2364470">
        <ele>51.5</ele>
        <time>2020-02-21T15:28:02Z</time>
      </trkpt>
      <trkpt lat="38.9469270" lon="1.2364370">
        <ele>51.7</ele>
        <time>2020-02-21T15:28:03Z</time>
      </trkpt>
      <trkpt lat="38.9469440" lon="1.2364300">
        <ele>51.9</ele>
        <time>2020-02-21T15:28:04Z</time>
      </trkpt>
      <trkpt lat="38.9469560" lon="1.2364190">
        <ele>52.1</ele>
        <time>2020-02-21T15:28:05Z</time>
      </trkpt>
      <trkpt lat="38.9469760" lon="1.2363940">
        <ele>52.4</ele>
        <time>2020-02-21T15:28:06Z</time>
      </trkpt>
      <trkpt lat="38.9469950" lon="1.2363780">
        <ele>52.7</ele>
        <time>2020-02-21T15:28:07Z</time>
      </trkpt>
      <trkpt lat="38.9470030" lon="1.2363710">
        <ele>52.9</ele>
        <time>2020-02-21T15:28:08Z</time>
      </trkpt>
      <trkpt lat="38.9470100" lon="1.2363630">
        <ele>53.0</ele>
        <time>2020-02-21T15:28:09Z</time>
      </trkpt>
      <trkpt lat="38.9470380" lon="1.2363450">
        <ele>53.5</ele>
        <time>2020-02-21T15:28:10Z</time>
      </trkpt>
      <trkpt lat="38.9470470" lon="1.2363380">
        <ele>53.6</ele>
        <time>2020-02-21T15:28:11Z</time>
      </trkpt>
      <trkpt lat="38.9470720" lon="1.2363150">
        <ele>53.9</ele>
        <time>2020-02-21T15:28:12Z</time>
      </trkpt>
      <trkpt lat="38.9470790" lon="1.2363080">
        <ele>54.0</ele>
        <time>2020-02-21T15:28:13Z</time>
      </trkpt>
      <trkpt lat="38.9470950" lon="1.2362920">
        <ele>54.2</ele>
        <time>2020-02-21T15:28:14Z</time>
      </trkpt>
      <trkpt lat="38.9471070" lon="1.2362870">
        <ele>54.3</ele>
        <time>2020-02-21T15:28:15Z</time>
      </trkpt>
      <trkpt lat="38.9471210" lon="1.2362730">
        <ele>54.5</ele>
        <time>2020-02-21T15:28:16Z</time>
      </trkpt>
      <trkpt lat="38.9471290" lon="1.2362560">
        <ele>54.7</ele>
        <time>2020-02-21T15:28:17Z</time>
      </trkpt>
      <trkpt lat="38.9471370" lon="1.2362400">
        <ele>54.9</ele>
        <time>2020-02-21T15:28:18Z</time>
      </trkpt>
      <trkpt lat="38.9471470" lon="1.2362220">
        <ele>55.1</ele>
        <time>2020-02-21T15:28:19Z</time>
      </trkpt>
      <trkpt lat="38.9471560" lon="1.2362090">
        <ele>55.2</ele>
        <time>2020-02-21T15:28:20Z</time>
      </trkpt>
      <trkpt lat="38.9471690" lon="1.2361910">
        <ele>55.5</ele>
        <time>2020-02-21T15:28:21Z</time>
      </trkpt>
      <trkpt lat="38.9471970" lon="1.2361630">
        <ele>56.0</ele>
        <time>2020-02-21T15:28:22Z</time>
      </trkpt>
      <trkpt lat="38.9472080" lon="1.2361490">
        <ele>56.2</ele>
        <time>2020-02-21T15:28:23Z</time>
      </trkpt>
      <trkpt lat="38.9472390" lon="1.2361210">
        <ele>56.9</ele>
        <time>2020-02-21T15:28:24Z</time>
      </trkpt>
      <trkpt lat="38.9472490" lon="1.2361090">
        <ele>57.1</ele>
        <time>2020-02-21T15:28:25Z</time>
      </trkpt>
      <trkpt lat="38.9472610" lon="1.2360980">
        <ele>57.4</ele>
        <time>2020-02-21T15:28:26Z</time>
      </trkpt>
      <trkpt lat="38.9472730" lon="1.2360820">
        <ele>57.6</ele>
        <time>2020-02-21T15:28:27Z</time>
      </trkpt>
      <trkpt lat="38.9472910" lon="1.2360530">
        <ele>58.1</ele>
        <time>2020-02-21T15:28:28Z</time>
      </trkpt>
      <trkpt lat="38.9472960" lon="1.2360430">
        <ele>58.2</ele>
        <time>2020-02-21T15:28:29Z</time>
      </trkpt>
      <trkpt lat="38.9473070" lon="1.2360220">
        <ele>58.5</ele>
        <time>2020-02-21T15:28:30Z</time>
      </trkpt>
      <trkpt lat="38.9473160" lon="1.2360120">
        <ele>58.6</ele>
        <time>2020-02-21T15:28:31Z</time>
      </trkpt>
      <trkpt lat="38.9473390" lon="1.2359910">
        <ele>59.0</ele>
        <time>2020-02-21T15:28:32Z</time>
      </trkpt>
      <trkpt lat="38.9473450" lon="1.2359830">
        <ele>59.1</ele>
        <time>2020-02-21T15:28:33Z</time>
      </trkpt>
      <trkpt lat="38.9473590" lon="1.2359670">
        <ele>59.4</ele>
        <time>2020-02-21T15:28:34Z</time>
      </trkpt>
      <trkpt lat="38.9473730" lon="1.2359570">
        <ele>59.6</ele>
        <time>2020-02-21T15:28:35Z</time>
      </trkpt>
      <trkpt lat="38.9473830" lon="1.2359400">
        <ele>59.8</ele>
        <time>2020-02-21T15:28:36Z</time>
      </trkpt>
      <trkpt lat="38.9473890" lon="1.2359330">
        <ele>59.9</ele>
        <time>2020-02-21T15:28:37Z</time>
      </trkpt>
      <trkpt lat="38.9473950" lon="1.2359260">
        <ele>60.0</ele>
        <time>2020-02-21T15:28:38Z</time>
      </trkpt>
      <trkpt lat="38.9474010" lon="1.2359190">
        <ele>60.1</ele>
        <time>2020-02-21T15:28:39Z</time>
      </trkpt>
      <trkpt lat="38.9474140" lon="1.2359040">
        <ele>60.3</ele>
        <time>2020-02-21T15:28:40Z</time>
      </trkpt>
      <trkpt lat="38.9474250" lon="1.2358920">
        <ele>60.5</ele>
        <time>2020-02-21T15:28:41Z</time>
      </trkpt>
      <trkpt lat="38.9474350" lon="1.2358720">
        <ele>60.8</ele>
        <time>2020-02-21T15:28:42Z</time>
      </trkpt>
      <trkpt lat="38.9474430" lon="1.2358570">
        <ele>61.0</ele>
        <time>2020-02-21T15:28:43Z</time>
      </trkpt>
      <trkpt lat="38.9474610" lon="1.2358230">
        <ele>61.5</ele>
        <time>2020-02-21T15:28:44Z</time>
      </trkpt>
      <trkpt lat="38.9474640" lon="1.2358100">
        <ele>61.6</ele>
        <time>2020-02-21T15:28:45Z</time>
      </trkpt>
      <trkpt lat="38.9474700" lon="1.2357690">
        <ele>62.1</ele>
        <time>2020-02-21T15:28:46Z</time>
      </trkpt>
      <trkpt lat="38.9474720" lon="1.2357560">
        <ele>62.3</ele>
        <time>2020-02-21T15:28:47Z</time>
      </trkpt>
      <trkpt lat="38.9474890" lon="1.2357270">
        <ele>62.7</ele>
        <time>2020-02-21T15:28:48Z</time>
      </trkpt>
      <trkpt lat="38.9474930" lon="1.2357130">
        <ele>62.8</ele>
        <time>2020-02-21T15:28:49Z</time>
      </trkpt>
      <trkpt lat="38.9475020" lon="1.2356850">
        <ele>63.0</ele>
        <time>2020-02-21T15:28:50Z</time>
      </trkpt>
      <trkpt lat="38.9475040" lon="1.2356730">
        <ele>63.1</ele>
        <time>2020-02-21T15:28:51Z</time>
      </trkpt>
      <trkpt lat="38.9475050" lon="1.2356600">
        <ele>63.2</ele>
        <time>2020-02-21T15:28:52Z</time>
      </trkpt>
      <trkpt lat="38.9475190" lon="1.2356300">
        <ele>63.5</ele>
        <time>2020-02-21T15:28:53Z</time>
      </trkpt>
      <trkpt lat="38.9475240" lon="1.2356180">
        <ele>63.6</ele>
        <time>2020-02-21T15:28:54Z</time>
      </trkpt>
      <trkpt lat="38.9475320" lon="1.2355900">
        <ele>63.7</ele>
        <time>2020-02-21T15:28:55Z</time>
      </trkpt>
      <trkpt lat="38.9475380" lon="1.2355840">
        <ele>63.8</ele>
        <time>2020-02-21T15:28:56Z</time>
      </trkpt>
      <trkpt lat="38.9475430" lon="1.2355770">
        <ele>63.8</ele>
        <time>2020-02-21T15:28:57Z</time>
      </trkpt>
      <trkpt lat="38.9475540" lon="1.2355560">
        <ele>64.0</ele>
        <time>2020-02-21T15:28:58Z</time>
      </trkpt>
      <trkpt lat="38.9475610" lon="1.2355400">
        <ele>64.1</ele>
        <time>2020-02-21T15:28:59Z</time>
      </trkpt>
      <trkpt lat="38.9475710" lon="1.2355180">
        <ele>64.2</ele>
        <time>2020-02-21T15:29:00Z</time>
      </trkpt>
      <trkpt lat="38.9475830" lon="1.2355050">
        <ele>64.3</ele>
        <time>2020-02-21T15:29:01Z</time>
      </trkpt>
      <trkpt lat="38.9475960" lon="1.2354930">
        <ele>64.4</ele>
        <time>2020-02-21T15:29:02Z</time>
      </trkpt>
      <trkpt lat="38.9476030" lon="1.2354720">
        <ele>64.5</ele>
        <time>2020-02-21T15:29:03Z</time>
      </trkpt>
      <trkpt lat="38.9476160" lon="1.2354410">
        <ele>64.7</ele>
        <time>2020-02-21T15:29:04Z</time>
      </trkpt>
      <trkpt lat="38.9476190" lon="1.2354290">
        <ele>64.8</ele>
        <time>2020-02-21T15:29:05Z</time>
      </trkpt>
      <trkpt lat="38.9476320" lon="1.2353990">
        <ele>64.9</ele>
        <time>2020-02-21T15:29:06Z</time>
      </trkpt>
      <trkpt lat="38.9476370" lon="1.2353860">
        <ele>65.0</ele>
        <time>2020-02-21T15:29:07Z</time>
      </trkpt>
      <trkpt lat="38.9476520" lon="1.2353540">
        <ele>65.1</ele>
        <time>2020-02-21T15:29:08Z</time>
      </trkpt>
      <trkpt lat="38.9476580" lon="1.2353450">
        <ele>65.1</ele>
        <time>2020-02-21T15:29:09Z</time>
      </trkpt>
      <trkpt lat="38.9476770" lon="1.2353100">
        <ele>65.2</ele>
        <time>2020-02-21T15:29:10Z</time>
      </trkpt>
      <trkpt lat="38.9476820" lon="1.2352990">
        <ele>65.3</ele>
        <time>2020-02-21T15:29:11Z</time>
      </trkpt>
      <trkpt lat="38.9476930" lon="1.2352880">
        <ele>65.3</ele>
        <time>2020-02-21T15:29:12Z</time>
      </trkpt>
      <trkpt lat="38.9477050" lon="1.2352670">
        <ele>65.4</ele>
        <time>2020-02-21T15:29:13Z</time>
      </trkpt>
      <trkpt lat="38.9477270" lon="1.2352240">
        <ele>65.5</ele>
        <time>2020-02-21T15:29:14Z</time>
      </trkpt>
      <trkpt lat="38.9477360" lon="1.2352090">
        <ele>65.5</ele>
        <time>2020-02-21T15:29:15Z</time>
      </trkpt>
      <trkpt lat="38.9477570" lon="1.2351820">
        <ele>65.6</ele>
        <time>2020-02-21T15:29:16Z</time>
      </trkpt>
      <trkpt lat="38.9477620" lon="1.2351700">
        <ele>65.6</ele>
        <time>2020-02-21T15:29:17Z</time>
      </trkpt>
      <trkpt lat="38.9477760" lon="1.2351320">
        <ele>65.6</ele>
        <time>2020-02-21T15:29:18Z</time>
      </trkpt>
      <trkpt lat="38.9477780" lon="1.2351130">
        <ele>65.6</ele>
        <time>2020-02-21T15:29:19Z</time>
      </trkpt>
      <trkpt lat="38.9477970" lon="1.2350850">
        <ele>65.7</ele>
        <time>2020-02-21T15:29:20Z</time>
      </trkpt>
      <trkpt lat="38.9478160" lon="1.2350590">
        <ele>65.7</ele>
        <time>2020-02-21T15:29:21Z</time>
      </trkpt>
      <trkpt lat="38.9478320" lon="1.2350300">
        <ele>65.7</ele>
        <time>2020-02-21T15:29:22Z</time>
      </trkpt>
      <trkpt lat="38.9478390" lon="1.2350230">
        <ele>65.8</ele>
        <time>2020-02-21T15:29:23Z</time>
      </trkpt>
      <trkpt lat="38.9478550" lon="1.2349870">
        <ele>65.8</ele>
        <time>2020-02-21T15:29:24Z</time>
      </trkpt>
      <trkpt lat="38.9478580" lon="1.2349760">
        <ele>65.8</ele>
        <time>2020-02-21T15:29:25Z</time>
      </trkpt>
      <trkpt lat="38.9478750" lon="1.2349450">
        <ele>65.8</ele>
        <time>2020-02-21T15:29:26Z</time>
      </trkpt>
      <trkpt lat="38.9478990" lon="1.2349130">
        <ele>65.8</ele>
        <time>2020-02-21T15:29:27Z</time>
      </trkpt>
      <trkpt lat="38.9479060" lon="1.2349040">
        <ele>65.8</ele>
        <time>2020-02-21T15:29:28Z</time>
      </trkpt>
      <trkpt lat="38.9479440" lon="1.2348800">
        <ele>65.8</ele>
        <time>2020-02-21T15:29:29Z</time>
      </trkpt>
      <trkpt lat="38.9479780" lon="1.2348760">
        <ele>65.8</ele>
        <time>2020-02-21T15:29:30Z</time>
      </trkpt>
      <trkpt lat="38.9480110" lon="1.2348690">
        <ele>65.8</ele>
        <time>2020-02-21T15:29:31Z</time>
      </trkpt>
      <trkpt lat="38.9480420" lon="1.2348570">
        <ele>65.8</ele>
        <time>2020-02-21T15:29:32Z</time>
      </trkpt>
      <trkpt lat="38.9480710" lon="1.2348460">
        <ele>65.7</ele>
        <time>2020-02-21T15:29:33Z</time>
      </trkpt>
      <trkpt lat="38.9480990" lon="1.2348350">
        <ele>65.7</ele>
        <time>2020-02-21T15:29:34Z</time>
      </trkpt>
      <trkpt lat="38.9481330" lon="1.2348180">
        <ele>65.6</ele>
        <time>2020-02-21T15:29:35Z</time>
      </trkpt>
      <trkpt lat="38.9481440" lon="1.2348130">
        <ele>65.6</ele>
        <time>2020-02-21T15:29:36Z</time>
      </trkpt>
      <trkpt lat="38.9481800" lon="1.2348140">
        <ele>65.5</ele>
        <time>2020-02-21T15:29:37Z</time>
      </trkpt>
      <trkpt lat="38.9481940" lon="1.2348130">
        <ele>65.4</ele>
        <time>2020-02-21T15:29:38Z</time>
      </trkpt>
      <trkpt lat="38.9482220" lon="1.2348230">
        <ele>65.3</ele>
        <time>2020-02-21T15:29:39Z</time>
      </trkpt>
      <trkpt lat="38.9482580" lon="1.2348460">
        <ele>65.0</ele>
        <time>2020-02-21T15:29:40Z</time>
      </trkpt>
      <trkpt lat="38.9482710" lon="1.2348560">
        <ele>64.9</ele>
        <time>2020-02-21T15:29:41Z</time>
      </trkpt>
      <trkpt lat="38.9483040" lon="1.2348940">
        <ele>64.7</ele>
        <time>2020-02-21T15:29:42Z</time>
      </trkpt>
      <trkpt lat="38.9483150" lon="1.2349120">
        <ele>64.6</ele>
        <time>2020-02-21T15:29:43Z</time>
      </trkpt>
      <trkpt lat="38.9483440" lon="1.2349430">
        <ele>64.3</ele>
        <time>2020-02-21T15:29:44Z</time>
      </trkpt>
      <trkpt lat="38.9483810" lon="1.2349920">
        <ele>63.8</ele>
        <time>2020-02-21T15:29:45Z</time>
      </trkpt>
      <trkpt lat="38.9484140" lon="1.2350160">
        <ele>63.4</ele>
        <time>2020-02-21T15:29:46Z</time>
      </trkpt>
      <trkpt lat="38.9484480" lon="1.2350340">
        <ele>63.0</ele>
        <time>2020-02-21T15:29:47Z</time>
      </trkpt>
      <trkpt lat="38.9484860" lon="1.2350420">
        <ele>62.6</ele>
        <time>2020-02-21T15:29:48Z</time>
      </trkpt>
      <trkpt lat="38.9485210" lon="1.2350300">
        <ele>62.2</ele>
        <time>2020-02-21T15:29:49Z</time>
      </trkpt>
      <trkpt lat="38.9485520" lon="1.2350110">
        <ele>61.8</ele>
        <time>2020-02-21T15:29:50Z</time>
      </trkpt>
      <trkpt lat="38.9485860" lon="1.2349620">
        <ele>61.2</ele>
        <time>2020-02-21T15:29:51Z</time>
      </trkpt>
      <trkpt lat="38.9486300" lon="1.2348990">
        <ele>60.5</ele>
        <time>2020-02-21T15:29:52Z</time>
      </trkpt>
      <trkpt lat="38.9486740" lon="1.2348220">
        <ele>59.7</ele>
        <time>2020-02-21T15:29:53Z</time>
      </trkpt>
      <trkpt lat="38.9487170" lon="1.2347600">
        <ele>59.0</ele>
        <time>2020-02-21T15:29:54Z</time>
      </trkpt>
      <trkpt lat="38.9487600" lon="1.2346910">
        <ele>58.3</ele>
        <time>2020-02-21T15:29:55Z</time>
      </trkpt>
      <trkpt lat="38.9488050" lon="1.2346160">
        <ele>57.5</ele>
        <time>2020-02-21T15:29:56Z</time>
      </trkpt>
      <trkpt lat="38.9488570" lon="1.2345410">
        <ele>56.7</ele>
        <time>2020-02-21T15:29:57Z</time>
      </trkpt>
      <trkpt lat="38.9489100" lon="1.2344740">
        <ele>55.8</ele>
        <time>2020-02-21T15:29:58Z</time>
      </trkpt>
      <trkpt lat="38.9489590" lon="1.2344030">
        <ele>55.0</ele>
        <time>2020-02-21T15:29:59Z</time>
      </trkpt>
      <trkpt lat="38.9489940" lon="1.2343470">
        <ele>54.4</ele>
        <time>2020-02-21T15:30:00Z</time>
      </trkpt>
      <trkpt lat="38.9490310" lon="1.2342770">
        <ele>53.6</ele>
        <time>2020-02-21T15:30:01Z</time>
      </trkpt>
      <trkpt lat="38.9490830" lon="1.2341940">
        <ele>52.6</ele>
        <time>2020-02-21T15:30:02Z</time>
      </trkpt>
      <trkpt lat="38.9491210" lon="1.2341530">
        <ele>52.0</ele>
        <time>2020-02-21T15:30:03Z</time>
      </trkpt>
      <trkpt lat="38.9491790" lon="1.2341280">
        <ele>51.3</ele>
        <time>2020-02-21T15:30:04Z</time>
      </trkpt>
      <trkpt lat="38.9492550" lon="1.2341050">
        <ele>50.3</ele>
        <time>2020-02-21T15:30:05Z</time>
      </trkpt>
      <trkpt lat="38.9493480" lon="1.2340800">
        <ele>49.4</ele>
        <time>2020-02-21T15:30:06Z</time>
      </trkpt>
      <trkpt lat="38.9494400" lon="1.2340490">
        <ele>48.6</ele>
        <time>2020-02-21T15:30:07Z</time>
      </trkpt>
      <trkpt lat="38.9495280" lon="1.2340260">
        <ele>47.7</ele>
        <time>2020-02-21T15:30:08Z</time>
      </trkpt>
      <trkpt lat="38.9496190" lon="1.2339940">
        <ele>46.7</ele>
        <time>2020-02-21T15:30:09Z</time>
      </trkpt>
      <trkpt lat="38.9497100" lon="1.2339630">
        <ele>45.8</ele>
        <time>2020-02-21T15:30:10Z</time>
      </trkpt>
      <trkpt lat="38.9497940" lon="1.2339430">
        <ele>45.0</ele>
        <time>2020-02-21T15:30:11Z</time>
      </trkpt>
      <trkpt lat="38.9498650" lon="1.2339210">
        <ele>44.4</ele>
        <time>2020-02-21T15:30:12Z</time>
      </trkpt>
      <trkpt lat="38.9499280" lon="1.2338870">
        <ele>43.7</ele>
        <time>2020-02-21T15:30:13Z</time>
      </trkpt>
      <trkpt lat="38.9499850" lon="1.2338710">
        <ele>43.1</ele>
        <time>2020-02-21T15:30:14Z</time>
      </trkpt>
      <trkpt lat="38.9500350" lon="1.2338890">
        <ele>42.7</ele>
        <time>2020-02-21T15:30:15Z</time>
      </trkpt>
      <trkpt lat="38.9500770" lon="1.2339250">
        <ele>42.3</ele>
        <time>2020-02-21T15:30:16Z</time>
      </trkpt>
      <trkpt lat="38.9501040" lon="1.2339870">
        <ele>41.8</ele>
        <time>2020-02-21T15:30:17Z</time>
      </trkpt>
      <trkpt lat="38.9501240" lon="1.2340480">
        <ele>41.4</ele>
        <time>2020-02-21T15:30:18Z</time>
      </trkpt>
      <trkpt lat="38.9501410" lon="1.2341050">
        <ele>41.0</ele>
        <time>2020-02-21T15:30:19Z</time>
      </trkpt>
      <trkpt lat="38.9501700" lon="1.2341450">
        <ele>40.7</ele>
        <time>2020-02-21T15:30:20Z</time>
      </trkpt>
      <trkpt lat="38.9502010" lon="1.2341930">
        <ele>40.3</ele>
        <time>2020-02-21T15:30:21Z</time>
      </trkpt>
      <trkpt lat="38.9502430" lon="1.2342180">
        <ele>39.9</ele>
        <time>2020-02-21T15:30:22Z</time>
      </trkpt>
      <trkpt lat="38.9502800" lon="1.2342490">
        <ele>39.6</ele>
        <time>2020-02-21T15:30:23Z</time>
      </trkpt>
      <trkpt lat="38.9503220" lon="1.2342590">
        <ele>39.3</ele>
        <time>2020-02-21T15:30:24Z</time>
      </trkpt>
      <trkpt lat="38.9503690" lon="1.2342630">
        <ele>39.0</ele>
        <time>2020-02-21T15:30:25Z</time>
      </trkpt>
      <trkpt lat="38.9504140" lon="1.2342300">
        <ele>38.6</ele>
        <time>2020-02-21T15:30:26Z</time>
      </trkpt>
      <trkpt lat="38.9504610" lon="1.2341850">
        <ele>38.3</ele>
        <time>2020-02-21T15:30:27Z</time>
      </trkpt>
      <trkpt lat="38.9505070" lon="1.2341390">
        <ele>38.2</ele>
        <time>2020-02-21T15:30:28Z</time>
      </trkpt>
      <trkpt lat="38.9505510" lon="1.2340860">
        <ele>38.0</ele>
        <time>2020-02-21T15:30:29Z</time>
      </trkpt>
      <trkpt lat="38.9506030" lon="1.2340460">
        <ele>38.0</ele>
        <time>2020-02-21T15:30:30Z</time>
      </trkpt>
      <trkpt lat="38.9506500" lon="1.2339940">
        <ele>37.9</ele>
        <time>2020-02-21T15:30:31Z</time>
      </trkpt>
      <trkpt lat="38.9506960" lon="1.2339330">
        <ele>37.9</ele>
        <time>2020-02-21T15:30:32Z</time>
      </trkpt>
      <trkpt lat="38.9507270" lon="1.2338660">
        <ele>37.9</ele>
        <time>2020-02-21T15:30:33Z</time>
      </trkpt>
      <trkpt lat="38.9507700" lon="1.2338070">
        <ele>37.9</ele>
        <time>2020-02-21T15:30:34Z</time>
      </trkpt>
      <trkpt lat="38.9508230" lon="1.2337560">
        <ele>37.8</ele>
        <time>2020-02-21T15:30:35Z</time>
      </trkpt>
      <trkpt lat="38.9508820" lon="1.2337170">
        <ele>37.8</ele>
        <time>2020-02-21T15:30:36Z</time>
      </trkpt>
      <trkpt lat="38.9509390" lon="1.2336960">
        <ele>37.8</ele>
        <time>2020-02-21T15:30:37Z</time>
      </trkpt>
      <trkpt lat="38.9509950" lon="1.2336690">
        <ele>37.8</ele>
        <time>2020-02-21T15:30:38Z</time>
      </trkpt>
      <trkpt lat="38.9510550" lon="1.2336340">
        <ele>37.8</ele>
        <time>2020-02-21T15:30:39Z</time>
      </trkpt>
      <trkpt lat="38.9511170" lon="1.2336120">
        <ele>37.7</ele>
        <time>2020-02-21T15:30:40Z</time>
      </trkpt>
      <trkpt lat="38.9511790" lon="1.2335910">
        <ele>37.7</ele>
        <time>2020-02-21T15:30:41Z</time>
      </trkpt>
      <trkpt lat="38.9512400" lon="1.2335700">
        <ele>37.7</ele>
        <time>2020-02-21T15:30:42Z</time>
      </trkpt>
      <trkpt lat="38.9512960" lon="1.2335450">
        <ele>37.6</ele>
        <time>2020-02-21T15:30:43Z</time>
      </trkpt>
      <trkpt lat="38.9513530" lon="1.2335270">
        <ele>37.6</ele>
        <time>2020-02-21T15:30:44Z</time>
      </trkpt>
      <trkpt lat="38.9514110" lon="1.2335110">
        <ele>37.6</ele>
        <time>2020-02-21T15:30:45Z</time>
      </trkpt>
      <trkpt lat="38.9514680" lon="1.2334940">
        <ele>37.5</ele>
        <time>2020-02-21T15:30:46Z</time>
      </trkpt>
      <trkpt lat="38.9515260" lon="1.2334950">
        <ele>37.5</ele>
        <time>2020-02-21T15:30:47Z</time>
      </trkpt>
      <trkpt lat="38.9515830" lon="1.2335050">
        <ele>37.4</ele>
        <time>2020-02-21T15:30:48Z</time>
      </trkpt>
      <trkpt lat="38.9516330" lon="1.2335120">
        <ele>37.4</ele>
        <time>2020-02-21T15:30:49Z</time>
      </trkpt>
      <trkpt lat="38.9516750" lon="1.2335130">
        <ele>37.3</ele>
        <time>2020-02-21T15:30:50Z</time>
      </trkpt>
      <trkpt lat="38.9517150" lon="1.2335200">
        <ele>37.3</ele>
        <time>2020-02-21T15:30:51Z</time>
      </trkpt>
      <trkpt lat="38.9517570" lon="1.2335160">
        <ele>37.2</ele>
        <time>2020-02-21T15:30:52Z</time>
      </trkpt>
      <trkpt lat="38.9517990" lon="1.2335100">
        <ele>37.2</ele>
        <time>2020-02-21T15:30:53Z</time>
      </trkpt>
      <trkpt lat="38.9518440" lon="1.2335060">
        <ele>37.2</ele>
        <time>2020-02-21T15:30:54Z</time>
      </trkpt>
      <trkpt lat="38.9518890" lon="1.2335020">
        <ele>37.1</ele>
        <time>2020-02-21T15:30:55Z</time>
      </trkpt>
      <trkpt lat="38.9519320" lon="1.2334730">
        <ele>37.1</ele>
        <time>2020-02-21T15:30:56Z</time>
      </trkpt>
      <trkpt lat="38.9519820" lon="1.2334530">
        <ele>37.0</ele>
        <time>2020-02-21T15:30:57Z</time>
      </trkpt>
      <trkpt lat="38.9520350" lon="1.2334410">
        <ele>37.0</ele>
        <time>2020-02-21T15:30:58Z</time>
      </trkpt>
      <trkpt lat="38.9520830" lon="1.2334150">
        <ele>37.0</ele>
        <time>2020-02-21T15:30:59Z</time>
      </trkpt>
      <trkpt lat="38.9521320" lon="1.2333960">
        <ele>37.0</ele>
        <time>2020-02-21T15:31:00Z</time>
      </trkpt>
      <trkpt lat="38.9521800" lon="1.2333820">
        <ele>37.0</ele>
        <time>2020-02-21T15:31:01Z</time>
      </trkpt>
      <trkpt lat="38.9522330" lon="1.2333800">
        <ele>37.0</ele>
        <time>2020-02-21T15:31:02Z</time>
      </trkpt>
      <trkpt lat="38.9522840" lon="1.2333800">
        <ele>37.1</ele>
        <time>2020-02-21T15:31:03Z</time>
      </trkpt>
      <trkpt lat="38.9523350" lon="1.2333840">
        <ele>37.2</ele>
        <time>2020-02-21T15:31:04Z</time>
      </trkpt>
      <trkpt lat="38.9523840" lon="1.2333900">
        <ele>37.3</ele>
        <time>2020-02-21T15:31:05Z</time>
      </trkpt>
      <trkpt lat="38.9524350" lon="1.2334120">
        <ele>37.4</ele>
        <time>2020-02-21T15:31:06Z</time>
      </trkpt>
      <trkpt lat="38.9524830" lon="1.2334400">
        <ele>37.6</ele>
        <time>2020-02-21T15:31:07Z</time>
      </trkpt>
      <trkpt lat="38.9525270" lon="1.2334590">
        <ele>37.7</ele>
        <time>2020-02-21T15:31:08Z</time>
      </trkpt>
      <trkpt lat="38.9525690" lon="1.2334890">
        <ele>37.9</ele>
        <time>2020-02-21T15:31:09Z</time>
      </trkpt>
      <trkpt lat="38.9526160" lon="1.2335120">
        <ele>38.2</ele>
        <time>2020-02-21T15:31:10Z</time>
      </trkpt>
      <trkpt lat="38.9526630" lon="1.2335400">
        <ele>38.5</ele>
        <time>2020-02-21T15:31:11Z</time>
      </trkpt>
      <trkpt lat="38.9527060" lon="1.2335680">
        <ele>38.8</ele>
        <time>2020-02-21T15:31:12Z</time>
      </trkpt>
      <trkpt lat="38.9527480" lon="1.2336020">
        <ele>39.1</ele>
        <time>2020-02-21T15:31:13Z</time>
      </trkpt>
      <trkpt lat="38.9527870" lon="1.2336370">
        <ele>39.3</ele>
        <time>2020-02-21T15:31:14Z</time>
      </trkpt>
      <trkpt lat="38.9528190" lon="1.2336740">
        <ele>39.5</ele>
        <time>2020-02-21T15:31:15Z</time>
      </trkpt>
      <trkpt lat="38.9528450" lon="1.2337150">
        <ele>39.7</ele>
        <time>2020-02-21T15:31:16Z</time>
      </trkpt>
      <trkpt lat="38.9528750" lon="1.2337520">
        <ele>39.9</ele>
        <time>2020-02-21T15:31:17Z</time>
      </trkpt>
      <trkpt lat="38.9529060" lon="1.2337790">
        <ele>40.0</ele>
        <time>2020-02-21T15:31:18Z</time>
      </trkpt>
      <trkpt lat="38.9529350" lon="1.2338000">
        <ele>40.1</ele>
        <time>2020-02-21T15:31:19Z</time>
      </trkpt>
      <trkpt lat="38.9529600" lon="1.2338320">
        <ele>40.3</ele>
        <time>2020-02-21T15:31:20Z</time>
      </trkpt>
      <trkpt lat="38.9529860" lon="1.2338580">
        <ele>40.4</ele>
        <time>2020-02-21T15:31:21Z</time>
      </trkpt>
      <trkpt lat="38.9530120" lon="1.2338950">
        <ele>40.6</ele>
        <time>2020-02-21T15:31:22Z</time>
      </trkpt>
      <trkpt lat="38.9530350" lon="1.2339350">
        <ele>40.7</ele>
        <time>2020-02-21T15:31:23Z</time>
      </trkpt>
      <trkpt lat="38.9530520" lon="1.2339700">
        <ele>40.9</ele>
        <time>2020-02-21T15:31:24Z</time>
      </trkpt>
      <trkpt lat="38.9530690" lon="1.2340010">
        <ele>41.1</ele>
        <time>2020-02-21T15:31:25Z</time>
      </trkpt>
      <trkpt lat="38.9530850" lon="1.2340360">
        <ele>41.2</ele>
        <time>2020-02-21T15:31:26Z</time>
      </trkpt>
      <trkpt lat="38.9531060" lon="1.2340630">
        <ele>41.3</ele>
        <time>2020-02-21T15:31:27Z</time>
      </trkpt>
      <trkpt lat="38.9531270" lon="1.2340980">
        <ele>41.4</ele>
        <time>2020-02-21T15:31:28Z</time>
      </trkpt>
      <trkpt lat="38.9531500" lon="1.2341310">
        <ele>41.5</ele>
        <time>2020-02-21T15:31:29Z</time>
      </trkpt>
      <trkpt lat="38.9531820" lon="1.2341570">
        <ele>41.6</ele>
        <time>2020-02-21T15:31:30Z</time>
      </trkpt>
      <trkpt lat="38.9532050" lon="1.2341880">
        <ele>41.7</ele>
        <time>2020-02-21T15:31:31Z</time>
      </trkpt>
      <trkpt lat="38.9532210" lon="1.2342230">
        <ele>41.8</ele>
        <time>2020-02-21T15:31:32Z</time>
      </trkpt>
      <trkpt lat="38.9532340" lon="1.2342600">
        <ele>41.8</ele>
        <time>2020-02-21T15:31:33Z</time>
      </trkpt>
      <trkpt lat="38.9532490" lon="1.2342950">
        <ele>41.9</ele>
        <time>2020-02-21T15:31:34Z</time>
      </trkpt>
      <trkpt lat="38.9532640" lon="1.2343340">
        <ele>42.0</ele>
        <time>2020-02-21T15:31:35Z</time>
      </trkpt>
      <trkpt lat="38.9532760" lon="1.2343700">
        <ele>42.1</ele>
        <time>2020-02-21T15:31:36Z</time>
      </trkpt>
      <trkpt lat="38.9532920" lon="1.2344000">
        <ele>42.2</ele>
        <time>2020-02-21T15:31:37Z</time>
      </trkpt>
      <trkpt lat="38.9533120" lon="1.2344300">
        <ele>42.2</ele>
        <time>2020-02-21T15:31:38Z</time>
      </trkpt>
      <trkpt lat="38.9533280" lon="1.2344660">
        <ele>42.3</ele>
        <time>2020-02-21T15:31:39Z</time>
      </trkpt>
      <trkpt lat="38.9533450" lon="1.2345000">
        <ele>42.4</ele>
        <time>2020-02-21T15:31:40Z</time>
      </trkpt>
      <trkpt lat="38.9533610" lon="1.2345340">
        <ele>42.5</ele>
        <time>2020-02-21T15:31:41Z</time>
      </trkpt>
      <trkpt lat="38.9533750" lon="1.2345670">
        <ele>42.6</ele>
        <time>2020-02-21T15:31:42Z</time>
      </trkpt>
      <trkpt lat="38.9533800" lon="1.2346030">
        <ele>42.7</ele>
        <time>2020-02-21T15:31:43Z</time>
      </trkpt>
      <trkpt lat="38.9533910" lon="1.2346380">
        <ele>42.8</ele>
        <time>2020-02-21T15:31:44Z</time>
      </trkpt>
      <trkpt lat="38.9534020" lon="1.2346740">
        <ele>42.9</ele>
        <time>2020-02-21T15:31:45Z</time>
      </trkpt>
      <trkpt lat="38.9534190" lon="1.2347070">
        <ele>43.0</ele>
        <time>2020-02-21T15:31:46Z</time>
      </trkpt>
      <trkpt lat="38.9534340" lon="1.2347430">
        <ele>43.1</ele>
        <time>2020-02-21T15:31:47Z</time>
      </trkpt>
      <trkpt lat="38.9534450" lon="1.2347810">
        <ele>43.2</ele>
        <time>2020-02-21T15:31:48Z</time>
      </trkpt>
      <trkpt lat="38.9534530" lon="1.2348180">
        <ele>43.2</ele>
        <time>2020-02-21T15:31:49Z</time>
      </trkpt>
      <trkpt lat="38.9534660" lon="1.2348520">
        <ele>43.3</ele>
        <time>2020-02-21T15:31:50Z</time>
      </trkpt>
      <trkpt lat="38.9534750" lon="1.2348900">
        <ele>43.4</ele>
        <time>2020-02-21T15:31:51Z</time>
      </trkpt>
      <trkpt lat="38.9534870" lon="1.2349280">
        <ele>43.5</ele>
        <time>2020-02-21T15:31:52Z</time>
      </trkpt>
      <trkpt lat="38.9534970" lon="1.2349610">
        <ele>43.5</ele>
        <time>2020-02-21T15:31:53Z</time>
      </trkpt>
      <trkpt lat="38.9535080" lon="1.2349960">
        <ele>43.6</ele>
        <time>2020-02-21T15:31:54Z</time>
      </trkpt>
      <trkpt lat="38.9535260" lon="1.2350260">
        <ele>43.7</ele>
        <time>2020-02-21T15:31:55Z</time>
      </trkpt>
      <trkpt lat="38.9535490" lon="1.2350580">
        <ele>43.8</ele>
        <time>2020-02-21T15:31:56Z</time>
      </trkpt>
      <trkpt lat="38.9535570" lon="1.2351000">
        <ele>44.0</ele>
        <time>2020-02-21T15:31:57Z</time>
      </trkpt>
      <trkpt lat="38.9535690" lon="1.2351410">
        <ele>44.2</ele>
        <time>2020-02-21T15:31:58Z</time>
      </trkpt>
      <trkpt lat="38.9535800" lon="1.2351820">
        <ele>44.3</ele>
        <time>2020-02-21T15:31:59Z</time>
      </trkpt>
      <trkpt lat="38.9535970" lon="1.2352190">
        <ele>44.5</ele>
        <time>2020-02-21T15:32:00Z</time>
      </trkpt>
      <trkpt lat="38.9536160" lon="1.2352550">
        <ele>44.8</ele>
        <time>2020-02-21T15:32:01Z</time>
      </trkpt>
      <trkpt lat="38.9536310" lon="1.2352880">
        <ele>44.9</ele>
        <time>2020-02-21T15:32:02Z</time>
      </trkpt>
      <trkpt lat="38.9536470" lon="1.2353290">
        <ele>45.1</ele>
        <time>2020-02-21T15:32:03Z</time>
      </trkpt>
      <trkpt lat="38.9536640" lon="1.2353620">
        <ele>45.2</ele>
        <time>2020-02-21T15:32:04Z</time>
      </trkpt>
      <trkpt lat="38.9536900" lon="1.2354020">
        <ele>45.4</ele>
        <time>2020-02-21T15:32:05Z</time>
      </trkpt>
      <trkpt lat="38.9537160" lon="1.2354380">
        <ele>45.6</ele>
        <time>2020-02-21T15:32:06Z</time>
      </trkpt>
      <trkpt lat="38.9537280" lon="1.2354760">
        <ele>45.8</ele>
        <time>2020-02-21T15:32:07Z</time>
      </trkpt>
      <trkpt lat="38.9537380" lon="1.2355130">
        <ele>45.9</ele>
        <time>2020-02-21T15:32:08Z</time>
      </trkpt>
      <trkpt lat="38.9537510" lon="1.2355530">
        <ele>46.2</ele>
        <time>2020-02-21T15:32:09Z</time>
      </trkpt>
      <trkpt lat="38.9537540" lon="1.2355930">
        <ele>46.4</ele>
        <time>2020-02-21T15:32:10Z</time>
      </trkpt>
      <trkpt lat="38.9537580" lon="1.2356290">
        <ele>46.6</ele>
        <time>2020-02-21T15:32:11Z</time>
      </trkpt>
      <trkpt lat="38.9537640" lon="1.2356790">
        <ele>46.8</ele>
        <time>2020-02-21T15:32:12Z</time>
      </trkpt>
      <trkpt lat="38.9537660" lon="1.2356960">
        <ele>46.9</ele>
        <time>2020-02-21T15:32:13Z</time>
      </trkpt>
      <trkpt lat="38.9537540" lon="1.2357460">
        <ele>47.2</ele>
        <time>2020-02-21T15:32:14Z</time>
      </trkpt>
      <trkpt lat="38.9537460" lon="1.2357630">
        <ele>47.3</ele>
        <time>2020-02-21T15:32:15Z</time>
      </trkpt>
      <trkpt lat="38.9537270" lon="1.2357950">
        <ele>47.5</ele>
        <time>2020-02-21T15:32:16Z</time>
      </trkpt>
      <trkpt lat="38.9537280" lon="1.2358460">
        <ele>47.8</ele>
        <time>2020-02-21T15:32:17Z</time>
      </trkpt>
      <trkpt lat="38.9537260" lon="1.2358630">
        <ele>47.8</ele>
        <time>2020-02-21T15:32:18Z</time>
      </trkpt>
      <trkpt lat="38.9537110" lon="1.2359120">
        <ele>48.1</ele>
        <time>2020-02-21T15:32:19Z</time>
      </trkpt>
      <trkpt lat="38.9537040" lon="1.2359270">
        <ele>48.1</ele>
        <time>2020-02-21T15:32:20Z</time>
      </trkpt>
      <trkpt lat="38.9536990" lon="1.2359740">
        <ele>48.3</ele>
        <time>2020-02-21T15:32:21Z</time>
      </trkpt>
      <trkpt lat="38.9536990" lon="1.2359900">
        <ele>48.4</ele>
        <time>2020-02-21T15:32:22Z</time>
      </trkpt>
      <trkpt lat="38.9537080" lon="1.2360390">
        <ele>48.5</ele>
        <time>2020-02-21T15:32:23Z</time>
      </trkpt>
      <trkpt lat="38.9537120" lon="1.2360570">
        <ele>48.6</ele>
        <time>2020-02-21T15:32:24Z</time>
      </trkpt>
      <trkpt lat="38.9537080" lon="1.2361080">
        <ele>48.8</ele>
        <time>2020-02-21T15:32:25Z</time>
      </trkpt>
      <trkpt lat="38.9537090" lon="1.2361260">
        <ele>48.8</ele>
        <time>2020-02-21T15:32:26Z</time>
      </trkpt>
      <trkpt lat="38.9537100" lon="1.2361640">
        <ele>48.9</ele>
        <time>2020-02-21T15:32:27Z</time>
      </trkpt>
      <trkpt lat="38.9537180" lon="1.2362050">
        <ele>49.1</ele>
        <time>2020-02-21T15:32:28Z</time>
      </trkpt>
      <trkpt lat="38.9537190" lon="1.2362470">
        <ele>49.2</ele>
        <time>2020-02-21T15:32:29Z</time>
      </trkpt>
      <trkpt lat="38.9537190" lon="1.2362890">
        <ele>49.4</ele>
        <time>2020-02-21T15:32:30Z</time>
      </trkpt>
      <trkpt lat="38.9537140" lon="1.2363320">
        <ele>49.5</ele>
        <time>2020-02-21T15:32:31Z</time>
      </trkpt>
      <trkpt lat="38.9537130" lon="1.2363760">
        <ele>49.7</ele>
        <time>2020-02-21T15:32:32Z</time>
      </trkpt>
      <trkpt lat="38.9537180" lon="1.2364190">
        <ele>49.9</ele>
        <time>2020-02-21T15:32:33Z</time>
      </trkpt>
      <trkpt lat="38.9537210" lon="1.2364620">
        <ele>50.1</ele>
        <time>2020-02-21T15:32:34Z</time>
      </trkpt>
      <trkpt lat="38.9537290" lon="1.2365030">
        <ele>50.3</ele>
        <time>2020-02-21T15:32:35Z</time>
      </trkpt>
      <trkpt lat="38.9537350" lon="1.2365480">
        <ele>50.4</ele>
        <time>2020-02-21T15:32:36Z</time>
      </trkpt>
      <trkpt lat="38.9537210" lon="1.2365840">
        <ele>50.6</ele>
        <time>2020-02-21T15:32:37Z</time>
      </trkpt>
      <trkpt lat="38.9536980" lon="1.2366170">
        <ele>50.8</ele>
        <time>2020-02-21T15:32:38Z</time>
      </trkpt>
      <trkpt lat="38.9536800" lon="1.2366560">
        <ele>50.9</ele>
        <time>2020-02-21T15:32:39Z</time>
      </trkpt>
      <trkpt lat="38.9536760" lon="1.2367000">
        <ele>51.1</ele>
        <time>2020-02-21T15:32:40Z</time>
      </trkpt>
      <trkpt lat="38.9536630" lon="1.2367370">
        <ele>51.2</ele>
        <time>2020-02-21T15:32:41Z</time>
      </trkpt>
      <trkpt lat="38.9536490" lon="1.2367730">
        <ele>51.4</ele>
        <time>2020-02-21T15:32:42Z</time>
      </trkpt>
      <trkpt lat="38.9536320" lon="1.2368040">
        <ele>51.5</ele>
        <time>2020-02-21T15:32:43Z</time>
      </trkpt>
      <trkpt lat="38.9536130" lon="1.2368340">
        <ele>51.6</ele>
        <time>2020-02-21T15:32:44Z</time>
      </trkpt>
      <trkpt lat="38.9535970" lon="1.2368660">
        <ele>51.7</ele>
        <time>2020-02-21T15:32:45Z</time>
      </trkpt>
      <trkpt lat="38.9535900" lon="1.2369030">
        <ele>51.8</ele>
        <time>2020-02-21T15:32:46Z</time>
      </trkpt>
      <trkpt lat="38.9535800" lon="1.2369410">
        <ele>51.9</ele>
        <time>2020-02-21T15:32:47Z</time>
      </trkpt>
      <trkpt lat="38.9535630" lon="1.2369720">
        <ele>52.1</ele>
        <time>2020-02-21T15:32:48Z</time>
      </trkpt>
      <trkpt lat="38.9535430" lon="1.2370020">
        <ele>52.2</ele>
        <time>2020-02-21T15:32:49Z</time>
      </trkpt>
      <trkpt lat="38.9535290" lon="1.2370400">
        <ele>52.3</ele>
        <time>2020-02-21T15:32:50Z</time>
      </trkpt>
      <trkpt lat="38.9535180" lon="1.2370750">
        <ele>52.5</ele>
        <time>2020-02-21T15:32:51Z</time>
      </trkpt>
      <trkpt lat="38.9535100" lon="1.2371120">
        <ele>52.6</ele>
        <time>2020-02-21T15:32:52Z</time>
      </trkpt>
      <trkpt lat="38.9535040" lon="1.2371500">
        <ele>52.8</ele>
        <time>2020-02-21T15:32:53Z</time>
      </trkpt>
      <trkpt lat="38.9534930" lon="1.2371820">
        <ele>52.9</ele>
        <time>2020-02-21T15:32:54Z</time>
      </trkpt>
      <trkpt lat="38.9534790" lon="1.2372170">
        <ele>53.0</ele>
        <time>2020-02-21T15:32:55Z</time>
      </trkpt>
      <trkpt lat="38.9534800" lon="1.2372570">
        <ele>53.2</ele>
        <time>2020-02-21T15:32:56Z</time>
      </trkpt>
      <trkpt lat="38.9534800" lon="1.2372970">
        <ele>53.3</ele>
        <time>2020-02-21T15:32:57Z</time>
      </trkpt>
      <trkpt lat="38.9534840" lon="1.2373330">
        <ele>53.4</ele>
        <time>2020-02-21T15:32:58Z</time>
      </trkpt>
      <trkpt lat="38.9534870" lon="1.2373750">
        <ele>53.5</ele>
        <time>2020-02-21T15:32:59Z</time>
      </trkpt>
      <trkpt lat="38.9535050" lon="1.2374150">
        <ele>53.6</ele>
        <time>2020-02-21T15:33:00Z</time>
      </trkpt>
      <trkpt lat="38.9535210" lon="1.2374570">
        <ele>53.6</ele>
        <time>2020-02-21T15:33:01Z</time>
      </trkpt>
      <trkpt lat="38.9535310" lon="1.2375000">
        <ele>53.7</ele>
        <time>2020-02-21T15:33:02Z</time>
      </trkpt>
      <trkpt lat="38.9535420" lon="1.2375430">
        <ele>53.7</ele>
        <time>2020-02-21T15:33:03Z</time>
      </trkpt>
      <trkpt lat="38.9535620" lon="1.2375820">
        <ele>53.7</ele>
        <time>2020-02-21T15:33:04Z</time>
      </trkpt>
      <trkpt lat="38.9535740" lon="1.2376300">
        <ele>53.6</ele>
        <time>2020-02-21T15:33:05Z</time>
      </trkpt>
      <trkpt lat="38.9536010" lon="1.2376720">
        <ele>53.6</ele>
        <time>2020-02-21T15:33:06Z</time>
      </trkpt>
      <trkpt lat="38.9536180" lon="1.2377220">
        <ele>53.4</ele>
        <time>2020-02-21T15:33:07Z</time>
      </trkpt>
      <trkpt lat="38.9536350" lon="1.2377710">
        <ele>53.3</ele>
        <time>2020-02-21T15:33:08Z</time>
      </trkpt>
      <trkpt lat="38.9536480" lon="1.2378250">
        <ele>53.2</ele>
        <time>2020-02-21T15:33:09Z</time>
      </trkpt>
      <trkpt lat="38.9536630" lon="1.2378760">
        <ele>53.1</ele>
        <time>2020-02-21T15:33:10Z</time>
      </trkpt>
      <trkpt lat="38.9536810" lon="1.2379230">
        <ele>53.0</ele>
        <time>2020-02-21T15:33:11Z</time>
      </trkpt>
      <trkpt lat="38.9536990" lon="1.2379710">
        <ele>53.0</ele>
        <time>2020-02-21T15:33:12Z</time>
      </trkpt>
      <trkpt lat="38.9537090" lon="1.2380210">
        <ele>53.0</ele>
        <time>2020-02-21T15:33:13Z</time>
      </trkpt>
      <trkpt lat="38.9537350" lon="1.2380640">
        <ele>52.9</ele>
        <time>2020-02-21T15:33:14Z</time>
      </trkpt>
      <trkpt lat="38.9537550" lon="1.2381090">
        <ele>53.0</ele>
        <time>2020-02-21T15:33:15Z</time>
      </trkpt>
      <trkpt lat="38.9537730" lon="1.2381580">
        <ele>53.1</ele>
        <time>2020-02-21T15:33:16Z</time>
      </trkpt>
      <trkpt lat="38.9537900" lon="1.2382030">
        <ele>53.1</ele>
        <time>2020-02-21T15:33:17Z</time>
      </trkpt>
      <trkpt lat="38.9538080" lon="1.2382430">
        <ele>53.2</ele>
        <time>2020-02-21T15:33:18Z</time>
      </trkpt>
      <trkpt lat="38.9538230" lon="1.2382860">
        <ele>53.3</ele>
        <time>2020-02-21T15:33:19Z</time>
      </trkpt>
      <trkpt lat="38.9538400" lon="1.2383240">
        <ele>53.4</ele>
        <time>2020-02-21T15:33:20Z</time>
      </trkpt>
      <trkpt lat="38.9538560" lon="1.2383600">
        <ele>53.5</ele>
        <time>2020-02-21T15:33:21Z</time>
      </trkpt>
      <trkpt lat="38.9538710" lon="1.2383980">
        <ele>53.6</ele>
        <time>2020-02-21T15:33:22Z</time>
      </trkpt>
      <trkpt lat="38.9538840" lon="1.2384320">
        <ele>53.6</ele>
        <time>2020-02-21T15:33:23Z</time>
      </trkpt>
      <trkpt lat="38.9539020" lon="1.2384590">
        <ele>53.7</ele>
        <time>2020-02-21T15:33:24Z</time>
      </trkpt>
      <trkpt lat="38.9539240" lon="1.2384860">
        <ele>53.8</ele>
        <time>2020-02-21T15:33:25Z</time>
      </trkpt>
      <trkpt lat="38.9539550" lon="1.2384840">
        <ele>53.8</ele>
        <time>2020-02-21T15:33:26Z</time>
      </trkpt>
      <trkpt lat="38.9539850" lon="1.2384670">
        <ele>53.7</ele>
        <time>2020-02-21T15:33:27Z</time>
      </trkpt>
      <trkpt lat="38.9540150" lon="1.2384480">
        <ele>53.7</ele>
        <time>2020-02-21T15:33:28Z</time>
      </trkpt>
      <trkpt lat="38.9540410" lon="1.2384180">
        <ele>53.6</ele>
        <time>2020-02-21T15:33:29Z</time>
      </trkpt>
      <trkpt lat="38.9540680" lon="1.2383840">
        <ele>53.6</ele>
        <time>2020-02-21T15:33:30Z</time>
      </trkpt>
      <trkpt lat="38.9540990" lon="1.2383510">
        <ele>53.5</ele>
        <time>2020-02-21T15:33:31Z</time>
      </trkpt>
      <trkpt lat="38.9541270" lon="1.2383150">
        <ele>53.4</ele>
        <time>2020-02-21T15:33:32Z</time>
      </trkpt>
      <trkpt lat="38.9541510" lon="1.2382760">
        <ele>53.4</ele>
        <time>2020-02-21T15:33:33Z</time>
      </trkpt>
      <trkpt lat="38.9541830" lon="1.2382460">
        <ele>53.3</ele>
        <time>2020-02-21T15:33:34Z</time>
      </trkpt>
      <trkpt lat="38.9542180" lon="1.2382170">
        <ele>53.3</ele>
        <time>2020-02-21T15:33:35Z</time>
      </trkpt>
      <trkpt lat="38.9542500" lon="1.2381770">
        <ele>53.2</ele>
        <time>2020-02-21T15:33:36Z</time>
      </trkpt>
      <trkpt lat="38.9542810" lon="1.2381360">
        <ele>53.1</ele>
        <time>2020-02-21T15:33:37Z</time>
      </trkpt>
      <trkpt lat="38.9543190" lon="1.2380930">
        <ele>53.0</ele>
        <time>2020-02-21T15:33:38Z</time>
      </trkpt>
      <trkpt lat="38.9543500" lon="1.2380450">
        <ele>53.0</ele>
        <time>2020-02-21T15:33:39Z</time>
      </trkpt>
      <trkpt lat="38.9543770" lon="1.2379890">
        <ele>52.9</ele>
        <time>2020-02-21T15:33:40Z</time>
      </trkpt>
      <trkpt lat="38.9544020" lon="1.2379340">
        <ele>52.8</ele>
        <time>2020-02-21T15:33:41Z</time>
      </trkpt>
      <trkpt lat="38.9544350" lon="1.2378840">
        <ele>52.6</ele>
        <time>2020-02-21T15:33:42Z</time>
      </trkpt>
      <trkpt lat="38.9544610" lon="1.2378270">
        <ele>52.5</ele>
        <time>2020-02-21T15:33:43Z</time>
      </trkpt>
      <trkpt lat="38.9544950" lon="1.2377760">
        <ele>52.4</ele>
        <time>2020-02-21T15:33:44Z</time>
      </trkpt>
      <trkpt lat="38.9545260" lon="1.2377190">
        <ele>52.3</ele>
        <time>2020-02-21T15:33:45Z</time>
      </trkpt>
      <trkpt lat="38.9545610" lon="1.2376640">
        <ele>52.2</ele>
        <time>2020-02-21T15:33:46Z</time>
      </trkpt>
      <trkpt lat="38.9545870" lon="1.2375970">
        <ele>52.1</ele>
        <time>2020-02-21T15:33:47Z</time>
      </trkpt>
      <trkpt lat="38.9546180" lon="1.2375350">
        <ele>52.1</ele>
        <time>2020-02-21T15:33:48Z</time>
      </trkpt>
      <trkpt lat="38.9546440" lon="1.2374690">
        <ele>52.0</ele>
        <time>2020-02-21T15:33:49Z</time>
      </trkpt>
      <trkpt lat="38.9546700" lon="1.2374040">
        <ele>51.9</ele>
        <time>2020-02-21T15:33:50Z</time>
      </trkpt>
      <trkpt lat="38.9546890" lon="1.2373400">
        <ele>51.8</ele>
        <time>2020-02-21T15:33:51Z</time>
      </trkpt>
      <trkpt lat="38.9547180" lon="1.2372770">
        <ele>51.7</ele>
        <time>2020-02-21T15:33:52Z</time>
      </trkpt>
      <trkpt lat="38.9547390" lon="1.2372120">
        <ele>51.7</ele>
        <time>2020-02-21T15:33:53Z</time>
      </trkpt>
      <trkpt lat="38.9547620" lon="1.2371490">
        <ele>51.6</ele>
        <time>2020-02-21T15:33:54Z</time>
      </trkpt>
      <trkpt lat="38.9547780" lon="1.2370840">
        <ele>51.6</ele>
        <time>2020-02-21T15:33:55Z</time>
      </trkpt>
      <trkpt lat="38.9547920" lon="1.2370190">
        <ele>51.6</ele>
        <time>2020-02-21T15:33:56Z</time>
      </trkpt>
      <trkpt lat="38.9548090" lon="1.2369550">
        <ele>51.5</ele>
        <time>2020-02-21T15:33:57Z</time>
      </trkpt>
      <trkpt lat="38.9548220" lon="1.2368900">
        <ele>51.5</ele>
        <time>2020-02-21T15:33:58Z</time>
      </trkpt>
      <trkpt lat="38.9548370" lon="1.2368240">
        <ele>51.5</ele>
        <time>2020-02-21T15:33:59Z</time>
      </trkpt>
      <trkpt lat="38.9548540" lon="1.2367630">
        <ele>51.5</ele>
        <time>2020-02-21T15:34:00Z</time>
      </trkpt>
      <trkpt lat="38.9548640" lon="1.2366990">
        <ele>51.5</ele>
        <time>2020-02-21T15:34:01Z</time>
      </trkpt>
      <trkpt lat="38.9548810" lon="1.2366400">
        <ele>51.5</ele>
        <time>2020-02-21T15:34:02Z</time>
      </trkpt>
      <trkpt lat="38.9548970" lon="1.2365780">
        <ele>51.5</ele>
        <time>2020-02-21T15:34:03Z</time>
      </trkpt>
      <trkpt lat="38.9549090" lon="1.2365150">
        <ele>51.6</ele>
        <time>2020-02-21T15:34:04Z</time>
      </trkpt>
      <trkpt lat="38.9549190" lon="1.2364550">
        <ele>51.6</ele>
        <time>2020-02-21T15:34:05Z</time>
      </trkpt>
      <trkpt lat="38.9549310" lon="1.2363970">
        <ele>51.6</ele>
        <time>2020-02-21T15:34:06Z</time>
      </trkpt>
      <trkpt lat="38.9549450" lon="1.2363400">
        <ele>51.6</ele>
        <time>2020-02-21T15:34:07Z</time>
      </trkpt>
      <trkpt lat="38.9549570" lon="1.2362820">
        <ele>51.6</ele>
        <time>2020-02-21T15:34:08Z</time>
      </trkpt>
      <trkpt lat="38.9549680" lon="1.2362200">
        <ele>51.6</ele>
        <time>2020-02-21T15:34:09Z</time>
      </trkpt>
      <trkpt lat="38.9549800" lon="1.2361600">
        <ele>51.6</ele>
        <time>2020-02-21T15:34:10Z</time>
      </trkpt>
      <trkpt lat="38.9549940" lon="1.2360990">
        <ele>51.6</ele>
        <time>2020-02-21T15:34:11Z</time>
      </trkpt>
      <trkpt lat="38.9550080" lon="1.2360380">
        <ele>51.5</ele>
        <time>2020-02-21T15:34:12Z</time>
      </trkpt>
      <trkpt lat="38.9550240" lon="1.2359780">
        <ele>51.5</ele>
        <time>2020-02-21T15:34:13Z</time>
      </trkpt>
      <trkpt lat="38.9550410" lon="1.2359190">
        <ele>51.5</ele>
        <time>2020-02-21T15:34:14Z</time>
      </trkpt>
      <trkpt lat="38.9550560" lon="1.2358610">
        <ele>51.5</ele>
        <time>2020-02-21T15:34:15Z</time>
      </trkpt>
      <trkpt lat="38.9550670" lon="1.2358020">
        <ele>51.5</ele>
        <time>2020-02-21T15:34:16Z</time>
      </trkpt>
      <trkpt lat="38.9550800" lon="1.2357430">
        <ele>51.4</ele>
        <time>2020-02-21T15:34:17Z</time>
      </trkpt>
      <trkpt lat="38.9550950" lon="1.2356820">
        <ele>51.4</ele>
        <time>2020-02-21T15:34:18Z</time>
      </trkpt>
      <trkpt lat="38.9551090" lon="1.2356240">
        <ele>51.4</ele>
        <time>2020-02-21T15:34:19Z</time>
      </trkpt>
      <trkpt lat="38.9551230" lon="1.2355680">
        <ele>51.4</ele>
        <time>2020-02-21T15:34:20Z</time>
      </trkpt>
      <trkpt lat="38.9551400" lon="1.2355110">
        <ele>51.4</ele>
        <time>2020-02-21T15:34:21Z</time>
      </trkpt>
      <trkpt lat="38.9551500" lon="1.2354510">
        <ele>51.3</ele>
        <time>2020-02-21T15:34:22Z</time>
      </trkpt>
      <trkpt lat="38.9551610" lon="1.2353880">
        <ele>51.3</ele>
        <time>2020-02-21T15:34:23Z</time>
      </trkpt>
      <trkpt lat="38.9551700" lon="1.2353230">
        <ele>51.3</ele>
        <time>2020-02-21T15:34:24Z</time>
      </trkpt>
      <trkpt lat="38.9551820" lon="1.2352600">
        <ele>51.3</ele>
        <time>2020-02-21T15:34:25Z</time>
      </trkpt>
      <trkpt lat="38.9551940" lon="1.2351980">
        <ele>51.3</ele>
        <time>2020-02-21T15:34:26Z</time>
      </trkpt>
      <trkpt lat="38.9552070" lon="1.2351380">
        <ele>51.3</ele>
        <time>2020-02-21T15:34:27Z</time>
      </trkpt>
      <trkpt lat="38.9552190" lon="1.2350820">
        <ele>51.2</ele>
        <time>2020-02-21T15:34:28Z</time>
      </trkpt>
      <trkpt lat="38.9552320" lon="1.2350280">
        <ele>51.2</ele>
        <time>2020-02-21T15:34:29Z</time>
      </trkpt>
      <trkpt lat="38.9552450" lon="1.2349720">
        <ele>51.2</ele>
        <time>2020-02-21T15:34:30Z</time>
      </trkpt>
      <trkpt lat="38.9552570" lon="1.2349150">
        <ele>51.2</ele>
        <time>2020-02-21T15:34:31Z</time>
      </trkpt>
      <trkpt lat="38.9552690" lon="1.2348540">
        <ele>51.2</ele>
        <time>2020-02-21T15:34:32Z</time>
      </trkpt>
      <trkpt lat="38.9552840" lon="1.2347920">
        <ele>51.2</ele>
        <time>2020-02-21T15:34:33Z</time>
      </trkpt>
      <trkpt lat="38.9553010" lon="1.2347330">
        <ele>51.2</ele>
        <time>2020-02-21T15:34:34Z</time>
      </trkpt>
      <trkpt lat="38.9553220" lon="1.2346780">
        <ele>51.2</ele>
        <time>2020-02-21T15:34:35Z</time>
      </trkpt>
      <trkpt lat="38.9553440" lon="1.2346220">
        <ele>51.2</ele>
        <time>2020-02-21T15:34:36Z</time>
      </trkpt>
      <trkpt lat="38.9553650" lon="1.2345670">
        <ele>51.1</ele>
        <time>2020-02-21T15:34:37Z</time>
      </trkpt>
      <trkpt lat="38.9553870" lon="1.2345080">
        <ele>51.1</ele>
        <time>2020-02-21T15:34:38Z</time>
      </trkpt>
      <trkpt lat="38.9554120" lon="1.2344480">
        <ele>51.0</ele>
        <time>2020-02-21T15:34:39Z</time>
      </trkpt>
      <trkpt lat="38.9554230" lon="1.2343820">
        <ele>51.0</ele>
        <time>2020-02-21T15:34:40Z</time>
      </trkpt>
      <trkpt lat="38.9554460" lon="1.2343250">
        <ele>51.0</ele>
        <time>2020-02-21T15:34:41Z</time>
      </trkpt>
      <trkpt lat="38.9554700" lon="1.2342660">
        <ele>50.9</ele>
        <time>2020-02-21T15:34:42Z</time>
      </trkpt>
      <trkpt lat="38.9554980" lon="1.2342130">
        <ele>50.9</ele>
        <time>2020-02-21T15:34:43Z</time>
      </trkpt>
      <trkpt lat="38.9555330" lon="1.2341620">
        <ele>50.8</ele>
        <time>2020-02-21T15:34:44Z</time>
      </trkpt>
      <trkpt lat="38.9555690" lon="1.2341150">
        <ele>50.8</ele>
        <time>2020-02-21T15:34:45Z</time>
      </trkpt>
      <trkpt lat="38.9556100" lon="1.2340690">
        <ele>50.8</ele>
        <time>2020-02-21T15:34:46Z</time>
      </trkpt>
      <trkpt lat="38.9556500" lon="1.2340190">
        <ele>50.8</ele>
        <time>2020-02-21T15:34:47Z</time>
      </trkpt>
      <trkpt lat="38.9556910" lon="1.2339720">
        <ele>50.8</ele>
        <time>2020-02-21T15:34:48Z</time>
      </trkpt>
      <trkpt lat="38.9557350" lon="1.2339310">
        <ele>50.8</ele>
        <time>2020-02-21T15:34:49Z</time>
      </trkpt>
      <trkpt lat="38.9557820" lon="1.2338960">
        <ele>50.8</ele>
        <time>2020-02-21T15:34:50Z</time>
      </trkpt>
      <trkpt lat="38.9558290" lon="1.2338720">
        <ele>50.8</ele>
        <time>2020-02-21T15:34:51Z</time>
      </trkpt>
      <trkpt lat="38.9558790" lon="1.2338580">
        <ele>50.7</ele>
        <time>2020-02-21T15:34:52Z</time>
      </trkpt>
      <trkpt lat="38.9559330" lon="1.2338530">
        <ele>50.7</ele>
        <time>2020-02-21T15:34:53Z</time>
      </trkpt>
      <trkpt lat="38.9559900" lon="1.2338540">
        <ele>50.6</ele>
        <time>2020-02-21T15:34:54Z</time>
      </trkpt>
      <trkpt lat="38.9560490" lon="1.2338660">
        <ele>50.5</ele>
        <time>2020-02-21T15:34:55Z</time>
      </trkpt>
      <trkpt lat="38.9561060" lon="1.2338700">
        <ele>50.3</ele>
        <time>2020-02-21T15:34:56Z</time>
      </trkpt>
      <trkpt lat="38.9561640" lon="1.2338780">
        <ele>50.0</ele>
        <time>2020-02-21T15:34:57Z</time>
      </trkpt>
      <trkpt lat="38.9562230" lon="1.2338810">
        <ele>49.7</ele>
        <time>2020-02-21T15:34:58Z</time>
      </trkpt>
      <trkpt lat="38.9562850" lon="1.2338880">
        <ele>49.4</ele>
        <time>2020-02-21T15:34:59Z</time>
      </trkpt>
      <trkpt lat="38.9563500" lon="1.2338980">
        <ele>49.1</ele>
        <time>2020-02-21T15:35:00Z</time>
      </trkpt>
      <trkpt lat="38.9564170" lon="1.2339010">
        <ele>48.8</ele>
        <time>2020-02-21T15:35:01Z</time>
      </trkpt>
      <trkpt lat="38.9564870" lon="1.2339070">
        <ele>48.4</ele>
        <time>2020-02-21T15:35:02Z</time>
      </trkpt>
      <trkpt lat="38.9565620" lon="1.2339180">
        <ele>48.0</ele>
        <time>2020-02-21T15:35:03Z</time>
      </trkpt>
      <trkpt lat="38.9566390" lon="1.2339400">
        <ele>48.1</ele>
        <time>2020-02-21T15:35:04Z</time>
      </trkpt>
      <trkpt lat="38.9567040" lon="1.2339870">
        <ele>48.1</ele>
        <time>2020-02-21T15:35:05Z</time>
      </trkpt>
      <trkpt lat="38.9567610" lon="1.2340370">
        <ele>48.1</ele>
        <time>2020-02-21T15:35:06Z</time>
      </trkpt>
      <trkpt lat="38.9568150" lon="1.2340870">
        <ele>48.1</ele>
        <time>2020-02-21T15:35:07Z</time>
      </trkpt>
      <trkpt lat="38.9568700" lon="1.2341220">
        <ele>48.1</ele>
        <time>2020-02-21T15:35:08Z</time>
      </trkpt>
      <trkpt lat="38.9569240" lon="1.2341590">
        <ele>48.2</ele>
        <time>2020-02-21T15:35:09Z</time>
      </trkpt>
      <trkpt lat="38.9569750" lon="1.2341910">
        <ele>48.2</ele>
        <time>2020-02-21T15:35:10Z</time>
      </trkpt>
      <trkpt lat="38.9570230" lon="1.2342230">
        <ele>48.3</ele>
        <time>2020-02-21T15:35:11Z</time>
      </trkpt>
      <trkpt lat="38.9570670" lon="1.2342630">
        <ele>48.3</ele>
        <time>2020-02-21T15:35:12Z</time>
      </trkpt>
      <trkpt lat="38.9571120" lon="1.2342960">
        <ele>48.4</ele>
        <time>2020-02-21T15:35:13Z</time>
      </trkpt>
      <trkpt lat="38.9571570" lon="1.2343200">
        <ele>48.4</ele>
        <time>2020-02-21T15:35:14Z</time>
      </trkpt>
      <trkpt lat="38.9571990" lon="1.2343490">
        <ele>48.5</ele>
        <time>2020-02-21T15:35:15Z</time>
      </trkpt>
      <trkpt lat="38.9572430" lon="1.2343770">
        <ele>48.5</ele>
        <time>2020-02-21T15:35:16Z</time>
      </trkpt>
      <trkpt lat="38.9572860" lon="1.2344060">
        <ele>48.6</ele>
        <time>2020-02-21T15:35:17Z</time>
      </trkpt>
      <trkpt lat="38.9573280" lon="1.2344410">
        <ele>48.7</ele>
        <time>2020-02-21T15:35:18Z</time>
      </trkpt>
      <trkpt lat="38.9573640" lon="1.2344970">
        <ele>48.8</ele>
        <time>2020-02-21T15:35:19Z</time>
      </trkpt>
      <trkpt lat="38.9574100" lon="1.2345250">
        <ele>48.8</ele>
        <time>2020-02-21T15:35:20Z</time>
      </trkpt>
      <trkpt lat="38.9574550" lon="1.2345450">
        <ele>48.9</ele>
        <time>2020-02-21T15:35:21Z</time>
      </trkpt>
      <trkpt lat="38.9574980" lon="1.2345730">
        <ele>49.0</ele>
        <time>2020-02-21T15:35:22Z</time>
      </trkpt>
      <trkpt lat="38.9575410" lon="1.2346000">
        <ele>49.1</ele>
        <time>2020-02-21T15:35:23Z</time>
      </trkpt>
      <trkpt lat="38.9575830" lon="1.2346260">
        <ele>49.1</ele>
        <time>2020-02-21T15:35:24Z</time>
      </trkpt>
      <trkpt lat="38.9576230" lon="1.2346480">
        <ele>49.2</ele>
        <time>2020-02-21T15:35:25Z</time>
      </trkpt>
      <trkpt lat="38.9576560" lon="1.2346760">
        <ele>49.2</ele>
        <time>2020-02-21T15:35:26Z</time>
      </trkpt>
      <trkpt lat="38.9576960" lon="1.2347030">
        <ele>49.3</ele>
        <time>2020-02-21T15:35:27Z</time>
      </trkpt>
      <trkpt lat="38.9577380" lon="1.2347350">
        <ele>49.4</ele>
        <time>2020-02-21T15:35:28Z</time>
      </trkpt>
      <trkpt lat="38.9577780" lon="1.2347660">
        <ele>49.4</ele>
        <time>2020-02-21T15:35:29Z</time>
      </trkpt>
      <trkpt lat="38.9578200" lon="1.2347880">
        <ele>49.5</ele>
        <time>2020-02-21T15:35:30Z</time>
      </trkpt>
      <trkpt lat="38.9578600" lon="1.2348050">
        <ele>49.5</ele>
        <time>2020-02-21T15:35:31Z</time>
      </trkpt>
      <trkpt lat="38.9578980" lon="1.2348180">
        <ele>49.6</ele>
        <time>2020-02-21T15:35:32Z</time>
      </trkpt>
      <trkpt lat="38.9579360" lon="1.2348300">
        <ele>49.6</ele>
        <time>2020-02-21T15:35:33Z</time>
      </trkpt>
      <trkpt lat="38.9579770" lon="1.2348450">
        <ele>49.7</ele>
        <time>2020-02-21T15:35:34Z</time>
      </trkpt>
      <trkpt lat="38.9580180" lon="1.2348700">
        <ele>49.7</ele>
        <time>2020-02-21T15:35:35Z</time>
      </trkpt>
      <trkpt lat="38.9580620" lon="1.2348880">
        <ele>49.8</ele>
        <time>2020-02-21T15:35:36Z</time>
      </trkpt>
      <trkpt lat="38.9581050" lon="1.2349090">
        <ele>49.8</ele>
        <time>2020-02-21T15:35:37Z</time>
      </trkpt>
      <trkpt lat="38.9581490" lon="1.2349340">
        <ele>49.9</ele>
        <time>2020-02-21T15:35:38Z</time>
      </trkpt>
      <trkpt lat="38.9581920" lon="1.2349590">
        <ele>49.9</ele>
        <time>2020-02-21T15:35:39Z</time>
      </trkpt>
      <trkpt lat="38.9582340" lon="1.2349870">
        <ele>50.0</ele>
        <time>2020-02-21T15:35:40Z</time>
      </trkpt>
      <trkpt lat="38.9582740" lon="1.2350080">
        <ele>50.0</ele>
        <time>2020-02-21T15:35:41Z</time>
      </trkpt>
      <trkpt lat="38.9583130" lon="1.2350450">
        <ele>50.0</ele>
        <time>2020-02-21T15:35:42Z</time>
      </trkpt>
      <trkpt lat="38.9583550" lon="1.2350940">
        <ele>50.1</ele>
        <time>2020-02-21T15:35:43Z</time>
      </trkpt>
      <trkpt lat="38.9583890" lon="1.2351370">
        <ele>50.2</ele>
        <time>2020-02-21T15:35:44Z</time>
      </trkpt>
      <trkpt lat="38.9584210" lon="1.2351750">
        <ele>50.2</ele>
        <time>2020-02-21T15:35:45Z</time>
      </trkpt>
      <trkpt lat="38.9584480" lon="1.2352010">
        <ele>50.3</ele>
        <time>2020-02-21T15:35:46Z</time>
      </trkpt>
      <trkpt lat="38.9584780" lon="1.2352250">
        <ele>50.3</ele>
        <time>2020-02-21T15:35:47Z</time>
      </trkpt>
      <trkpt lat="38.9585160" lon="1.2352330">
        <ele>50.4</ele>
        <time>2020-02-21T15:35:48Z</time>
      </trkpt>
      <trkpt lat="38.9585730" lon="1.2352410">
        <ele>50.4</ele>
        <time>2020-02-21T15:35:49Z</time>
      </trkpt>
      <trkpt lat="38.9586390" lon="1.2352690">
        <ele>50.5</ele>
        <time>2020-02-21T15:35:50Z</time>
      </trkpt>
      <trkpt lat="38.9586790" lon="1.2352920">
        <ele>50.5</ele>
        <time>2020-02-21T15:35:51Z</time>
      </trkpt>
      <trkpt lat="38.9587130" lon="1.2352920">
        <ele>50.5</ele>
        <time>2020-02-21T15:35:52Z</time>
      </trkpt>
      <trkpt lat="38.9587600" lon="1.2353090">
        <ele>50.5</ele>
        <time>2020-02-21T15:35:53Z</time>
      </trkpt>
      <trkpt lat="38.9588050" lon="1.2353240">
        <ele>50.5</ele>
        <time>2020-02-21T15:35:54Z</time>
      </trkpt>
      <trkpt lat="38.9588510" lon="1.2353390">
        <ele>50.4</ele>
        <time>2020-02-21T15:35:55Z</time>
      </trkpt>
      <trkpt lat="38.9588840" lon="1.2353480">
        <ele>50.4</ele>
        <time>2020-02-21T15:35:56Z</time>
      </trkpt>
      <trkpt lat="38.9589300" lon="1.2353680">
        <ele>50.4</ele>
        <time>2020-02-21T15:35:57Z</time>
      </trkpt>
      <trkpt lat="38.9589870" lon="1.2354050">
        <ele>50.3</ele>
        <time>2020-02-21T15:35:58Z</time>
      </trkpt>
      <trkpt lat="38.9590330" lon="1.2354300">
        <ele>50.3</ele>
        <time>2020-02-21T15:35:59Z</time>
      </trkpt>
      <trkpt lat="38.9590860" lon="1.2354500">
        <ele>50.2</ele>
        <time>2020-02-21T15:36:00Z</time>
      </trkpt>
      <trkpt lat="38.9591240" lon="1.2354520">
        <ele>50.2</ele>
        <time>2020-02-21T15:36:01Z</time>
      </trkpt>
      <trkpt lat="38.9591750" lon="1.2354630">
        <ele>50.1</ele>
        <time>2020-02-21T15:36:02Z</time>
      </trkpt>
      <trkpt lat="38.9592210" lon="1.2354700">
        <ele>50.1</ele>
        <time>2020-02-21T15:36:03Z</time>
      </trkpt>
      <trkpt lat="38.9592640" lon="1.2354900">
        <ele>50.1</ele>
        <time>2020-02-21T15:36:04Z</time>
      </trkpt>
      <trkpt lat="38.9593130" lon="1.2355080">
        <ele>50.0</ele>
        <time>2020-02-21T15:36:05Z</time>
      </trkpt>
      <trkpt lat="38.9593650" lon="1.2355210">
        <ele>50.0</ele>
        <time>2020-02-21T15:36:06Z</time>
      </trkpt>
      <trkpt lat="38.9594230" lon="1.2355320">
        <ele>50.1</ele>
        <time>2020-02-21T15:36:07Z</time>
      </trkpt>
      <trkpt lat="38.9594770" lon="1.2355490">
        <ele>50.2</ele>
        <time>2020-02-21T15:36:08Z</time>
      </trkpt>
      <trkpt lat="38.9595280" lon="1.2355710">
        <ele>50.2</ele>
        <time>2020-02-21T15:36:09Z</time>
      </trkpt>
      <trkpt lat="38.9595750" lon="1.2355880">
        <ele>50.3</ele>
        <time>2020-02-21T15:36:10Z</time>
      </trkpt>
      <trkpt lat="38.9596130" lon="1.2356010">
        <ele>50.4</ele>
        <time>2020-02-21T15:36:11Z</time>
      </trkpt>
      <trkpt lat="38.9596800" lon="1.2356050">
        <ele>50.6</ele>
        <time>2020-02-21T15:36:12Z</time>
      </trkpt>
      <trkpt lat="38.9597320" lon="1.2356140">
        <ele>50.7</ele>
        <time>2020-02-21T15:36:13Z</time>
      </trkpt>
      <trkpt lat="38.9597660" lon="1.2356130">
        <ele>50.8</ele>
        <time>2020-02-21T15:36:14Z</time>
      </trkpt>
      <trkpt lat="38.9598090" lon="1.2356240">
        <ele>50.9</ele>
        <time>2020-02-21T15:36:15Z</time>
      </trkpt>
      <trkpt lat="38.9598460" lon="1.2356340">
        <ele>51.1</ele>
        <time>2020-02-21T15:36:16Z</time>
      </trkpt>
      <trkpt lat="38.9598790" lon="1.2356450">
        <ele>51.1</ele>
        <time>2020-02-21T15:36:17Z</time>
      </trkpt>
      <trkpt lat="38.9599090" lon="1.2356520">
        <ele>51.2</ele>
        <time>2020-02-21T15:36:18Z</time>
      </trkpt>
      <trkpt lat="38.9599470" lon="1.2356670">
        <ele>51.3</ele>
        <time>2020-02-21T15:36:19Z</time>
      </trkpt>
      <trkpt lat="38.9599630" lon="1.2356780">
        <ele>51.3</ele>
        <time>2020-02-21T15:36:20Z</time>
      </trkpt>
      <trkpt lat="38.9599940" lon="1.2356950">
        <ele>51.3</ele>
        <time>2020-02-21T15:36:21Z</time>
      </trkpt>
      <trkpt lat="38.9600290" lon="1.2357050">
        <ele>51.4</ele>
        <time>2020-02-21T15:36:22Z</time>
      </trkpt>
      <trkpt lat="38.9600630" lon="1.2357200">
        <ele>51.4</ele>
        <time>2020-02-21T15:36:23Z</time>
      </trkpt>
      <trkpt lat="38.9601010" lon="1.2357420">
        <ele>51.4</ele>
        <time>2020-02-21T15:36:24Z</time>
      </trkpt>
      <trkpt lat="38.9601500" lon="1.2357370">
        <ele>51.4</ele>
        <time>2020-02-21T15:36:25Z</time>
      </trkpt>
      <trkpt lat="38.9601880" lon="1.2357440">
        <ele>51.4</ele>
        <time>2020-02-21T15:36:26Z</time>
      </trkpt>
      <trkpt lat="38.9602320" lon="1.2357500">
        <ele>51.4</ele>
        <time>2020-02-21T15:36:27Z</time>
      </trkpt>
      <trkpt lat="38.9602740" lon="1.2357590">
        <ele>51.4</ele>
        <time>2020-02-21T15:36:28Z</time>
      </trkpt>
      <trkpt lat="38.9603220" lon="1.2357760">
        <ele>51.2</ele>
        <time>2020-02-21T15:36:29Z</time>
      </trkpt>
      <trkpt lat="38.9603660" lon="1.2357850">
        <ele>51.1</ele>
        <time>2020-02-21T15:36:30Z</time>
      </trkpt>
      <trkpt lat="38.9604110" lon="1.2357970">
        <ele>50.9</ele>
        <time>2020-02-21T15:36:31Z</time>
      </trkpt>
      <trkpt lat="38.9604550" lon="1.2358040">
        <ele>50.7</ele>
        <time>2020-02-21T15:36:32Z</time>
      </trkpt>
      <trkpt lat="38.9604920" lon="1.2358080">
        <ele>50.6</ele>
        <time>2020-02-21T15:36:33Z</time>
      </trkpt>
      <trkpt lat="38.9605340" lon="1.2358180">
        <ele>50.4</ele>
        <time>2020-02-21T15:36:34Z</time>
      </trkpt>
      <trkpt lat="38.9605740" lon="1.2358280">
        <ele>50.2</ele>
        <time>2020-02-21T15:36:35Z</time>
      </trkpt>
      <trkpt lat="38.9606050" lon="1.2358370">
        <ele>50.0</ele>
        <time>2020-02-21T15:36:36Z</time>
      </trkpt>
      <trkpt lat="38.9606400" lon="1.2358470">
        <ele>49.8</ele>
        <time>2020-02-21T15:36:37Z</time>
      </trkpt>
      <trkpt lat="38.9606880" lon="1.2358670">
        <ele>49.6</ele>
        <time>2020-02-21T15:36:38Z</time>
      </trkpt>
      <trkpt lat="38.9607330" lon="1.2358830">
        <ele>49.2</ele>
        <time>2020-02-21T15:36:39Z</time>
      </trkpt>
      <trkpt lat="38.9607690" lon="1.2359240">
        <ele>48.8</ele>
        <time>2020-02-21T15:36:40Z</time>
      </trkpt>
      <trkpt lat="38.9607880" lon="1.2359710">
        <ele>48.5</ele>
        <time>2020-02-21T15:36:41Z</time>
      </trkpt>
      <trkpt lat="38.9607850" lon="1.2360390">
        <ele>48.5</ele>
        <time>2020-02-21T15:36:42Z</time>
      </trkpt>
      <trkpt lat="38.9607610" lon="1.2360990">
        <ele>48.4</ele>
        <time>2020-02-21T15:36:43Z</time>
      </trkpt>
      <trkpt lat="38.9607200" lon="1.2361430">
        <ele>47.8</ele>
        <time>2020-02-21T15:36:44Z</time>
      </trkpt>
      <trkpt lat="38.9606980" lon="1.2362050">
        <ele>47.3</ele>
        <time>2020-02-21T15:36:45Z</time>
      </trkpt>
      <trkpt lat="38.9606800" lon="1.2362690">
        <ele>46.8</ele>
        <time>2020-02-21T15:36:46Z</time>
      </trkpt>
      <trkpt lat="38.9606570" lon="1.2363350">
        <ele>46.4</ele>
        <time>2020-02-21T15:36:47Z</time>
      </trkpt>
      <trkpt lat="38.9606370" lon="1.2364100">
        <ele>45.9</ele>
        <time>2020-02-21T15:36:48Z</time>
      </trkpt>
      <trkpt lat="38.9606190" lon="1.2364800">
        <ele>45.6</ele>
        <time>2020-02-21T15:36:49Z</time>
      </trkpt>
      <trkpt lat="38.9606040" lon="1.2365600">
        <ele>45.3</ele>
        <time>2020-02-21T15:36:50Z</time>
      </trkpt>
      <trkpt lat="38.9605810" lon="1.2366270">
        <ele>45.0</ele>
        <time>2020-02-21T15:36:51Z</time>
      </trkpt>
      <trkpt lat="38.9605580" lon="1.2366980">
        <ele>44.7</ele>
        <time>2020-02-21T15:36:52Z</time>
      </trkpt>
      <trkpt lat="38.9605330" lon="1.2367770">
        <ele>44.2</ele>
        <time>2020-02-21T15:36:53Z</time>
      </trkpt>
      <trkpt lat="38.9605080" lon="1.2368720">
        <ele>43.7</ele>
        <time>2020-02-21T15:36:54Z</time>
      </trkpt>
      <trkpt lat="38.9604820" lon="1.2369740">
        <ele>43.1</ele>
        <time>2020-02-21T15:36:55Z</time>
      </trkpt>
      <trkpt lat="38.9604650" lon="1.2370600">
        <ele>42.7</ele>
        <time>2020-02-21T15:36:56Z</time>
      </trkpt>
      <trkpt lat="38.9604410" lon="1.2371580">
        <ele>42.3</ele>
        <time>2020-02-21T15:36:57Z</time>
      </trkpt>
      <trkpt lat="38.9604170" lon="1.2372630">
        <ele>42.0</ele>
        <time>2020-02-21T15:36:58Z</time>
      </trkpt>
      <trkpt lat="38.9603860" lon="1.2373700">
        <ele>41.7</ele>
        <time>2020-02-21T15:36:59Z</time>
      </trkpt>
      <trkpt lat="38.9603590" lon="1.2374650">
        <ele>41.2</ele>
        <time>2020-02-21T15:37:00Z</time>
      </trkpt>
      <trkpt lat="38.9603320" lon="1.2375610">
        <ele>40.8</ele>
        <time>2020-02-21T15:37:01Z</time>
      </trkpt>
      <trkpt lat="38.9603050" lon="1.2376490">
        <ele>40.3</ele>
        <time>2020-02-21T15:37:02Z</time>
      </trkpt>
      <trkpt lat="38.9602800" lon="1.2377400">
        <ele>39.9</ele>
        <time>2020-02-21T15:37:03Z</time>
      </trkpt>
      <trkpt lat="38.9602670" lon="1.2378370">
        <ele>39.9</ele>
        <time>2020-02-21T15:37:04Z</time>
      </trkpt>
      <trkpt lat="38.9602530" lon="1.2379380">
        <ele>40.2</ele>
        <time>2020-02-21T15:37:05Z</time>
      </trkpt>
      <trkpt lat="38.9602240" lon="1.2380350">
        <ele>40.3</ele>
        <time>2020-02-21T15:37:06Z</time>
      </trkpt>
      <trkpt lat="38.9601940" lon="1.2381330">
        <ele>40.3</ele>
        <time>2020-02-21T15:37:07Z</time>
      </trkpt>
      <trkpt lat="38.9601680" lon="1.2382330">
        <ele>40.2</ele>
        <time>2020-02-21T15:37:08Z</time>
      </trkpt>
      <trkpt lat="38.9601440" lon="1.2383280">
        <ele>40.0</ele>
        <time>2020-02-21T15:37:09Z</time>
      </trkpt>
      <trkpt lat="38.9601180" lon="1.2384180">
        <ele>39.7</ele>
        <time>2020-02-21T15:37:10Z</time>
      </trkpt>
      <trkpt lat="38.9600890" lon="1.2385060">
        <ele>39.4</ele>
        <time>2020-02-21T15:37:11Z</time>
      </trkpt>
      <trkpt lat="38.9600570" lon="1.2385960">
        <ele>39.1</ele>
        <time>2020-02-21T15:37:12Z</time>
      </trkpt>
      <trkpt lat="38.9600380" lon="1.2386910">
        <ele>38.7</ele>
        <time>2020-02-21T15:37:13Z</time>
      </trkpt>
      <trkpt lat="38.9600310" lon="1.2387850">
        <ele>38.2</ele>
        <time>2020-02-21T15:37:14Z</time>
      </trkpt>
      <trkpt lat="38.9600100" lon="1.2388690">
        <ele>37.7</ele>
        <time>2020-02-21T15:37:15Z</time>
      </trkpt>
      <trkpt lat="38.9599820" lon="1.2389500">
        <ele>37.1</ele>
        <time>2020-02-21T15:37:16Z</time>
      </trkpt>
      <trkpt lat="38.9599470" lon="1.2390280">
        <ele>36.6</ele>
        <time>2020-02-21T15:37:17Z</time>
      </trkpt>
      <trkpt lat="38.9599260" lon="1.2391090">
        <ele>36.2</ele>
        <time>2020-02-21T15:37:18Z</time>
      </trkpt>
      <trkpt lat="38.9599030" lon="1.2391910">
        <ele>36.0</ele>
        <time>2020-02-21T15:37:19Z</time>
      </trkpt>
      <trkpt lat="38.9598850" lon="1.2392770">
        <ele>35.9</ele>
        <time>2020-02-21T15:37:20Z</time>
      </trkpt>
      <trkpt lat="38.9598710" lon="1.2393590">
        <ele>35.9</ele>
        <time>2020-02-21T15:37:21Z</time>
      </trkpt>
      <trkpt lat="38.9598580" lon="1.2394400">
        <ele>35.9</ele>
        <time>2020-02-21T15:37:22Z</time>
      </trkpt>
      <trkpt lat="38.9598440" lon="1.2395190">
        <ele>35.9</ele>
        <time>2020-02-21T15:37:23Z</time>
      </trkpt>
      <trkpt lat="38.9598190" lon="1.2395900">
        <ele>35.8</ele>
        <time>2020-02-21T15:37:24Z</time>
      </trkpt>
      <trkpt lat="38.9598030" lon="1.2396620">
        <ele>35.8</ele>
        <time>2020-02-21T15:37:25Z</time>
      </trkpt>
      <trkpt lat="38.9597860" lon="1.2397380">
        <ele>35.7</ele>
        <time>2020-02-21T15:37:26Z</time>
      </trkpt>
      <trkpt lat="38.9597700" lon="1.2398170">
        <ele>35.7</ele>
        <time>2020-02-21T15:37:27Z</time>
      </trkpt>
      <trkpt lat="38.9597440" lon="1.2398850">
        <ele>35.6</ele>
        <time>2020-02-21T15:37:28Z</time>
      </trkpt>
      <trkpt lat="38.9597150" lon="1.2399470">
        <ele>35.5</ele>
        <time>2020-02-21T15:37:29Z</time>
      </trkpt>
      <trkpt lat="38.9596950" lon="1.2400130">
        <ele>35.3</ele>
        <time>2020-02-21T15:37:30Z</time>
      </trkpt>
      <trkpt lat="38.9596730" lon="1.2400780">
        <ele>35.2</ele>
        <time>2020-02-21T15:37:31Z</time>
      </trkpt>
      <trkpt lat="38.9596570" lon="1.2401480">
        <ele>35.0</ele>
        <time>2020-02-21T15:37:32Z</time>
      </trkpt>
      <trkpt lat="38.9596370" lon="1.2402130">
        <ele>34.9</ele>
        <time>2020-02-21T15:37:33Z</time>
      </trkpt>
      <trkpt lat="38.9596180" lon="1.2402790">
        <ele>34.9</ele>
        <time>2020-02-21T15:37:34Z</time>
      </trkpt>
      <trkpt lat="38.9595990" lon="1.2403430">
        <ele>34.9</ele>
        <time>2020-02-21T15:37:35Z</time>
      </trkpt>
      <trkpt lat="38.9595830" lon="1.2404070">
        <ele>34.9</ele>
        <time>2020-02-21T15:37:36Z</time>
      </trkpt>
      <trkpt lat="38.9595780" lon="1.2404740">
        <ele>34.9</ele>
        <time>2020-02-21T15:37:37Z</time>
      </trkpt>
      <trkpt lat="38.9595610" lon="1.2405390">
        <ele>34.9</ele>
        <time>2020-02-21T15:37:38Z</time>
      </trkpt>
      <trkpt lat="38.9595410" lon="1.2406050">
        <ele>34.9</ele>
        <time>2020-02-21T15:37:39Z</time>
      </trkpt>
      <trkpt lat="38.9595220" lon="1.2406710">
        <ele>34.9</ele>
        <time>2020-02-21T15:37:40Z</time>
      </trkpt>
      <trkpt lat="38.9594990" lon="1.2407350">
        <ele>34.8</ele>
        <time>2020-02-21T15:37:41Z</time>
      </trkpt>
      <trkpt lat="38.9594790" lon="1.2408020">
        <ele>34.7</ele>
        <time>2020-02-21T15:37:42Z</time>
      </trkpt>
      <trkpt lat="38.9594600" lon="1.2408690">
        <ele>34.7</ele>
        <time>2020-02-21T15:37:43Z</time>
      </trkpt>
      <trkpt lat="38.9594360" lon="1.2409380">
        <ele>34.6</ele>
        <time>2020-02-21T15:37:44Z</time>
      </trkpt>
      <trkpt lat="38.9594220" lon="1.2410150">
        <ele>34.5</ele>
        <time>2020-02-21T15:37:45Z</time>
      </trkpt>
      <trkpt lat="38.9594120" lon="1.2410970">
        <ele>34.4</ele>
        <time>2020-02-21T15:37:46Z</time>
      </trkpt>
      <trkpt lat="38.9594020" lon="1.2411810">
        <ele>34.2</ele>
        <time>2020-02-21T15:37:47Z</time>
      </trkpt>
      <trkpt lat="38.9593820" lon="1.2412660">
        <ele>34.1</ele>
        <time>2020-02-21T15:37:48Z</time>
      </trkpt>
      <trkpt lat="38.9593640" lon="1.2413570">
        <ele>34.0</ele>
        <time>2020-02-21T15:37:49Z</time>
      </trkpt>
      <trkpt lat="38.9593410" lon="1.2414480">
        <ele>33.6</ele>
        <time>2020-02-21T15:37:50Z</time>
      </trkpt>
      <trkpt lat="38.9593080" lon="1.2415360">
        <ele>33.3</ele>
        <time>2020-02-21T15:37:51Z</time>
      </trkpt>
      <trkpt lat="38.9592880" lon="1.2416260">
        <ele>32.9</ele>
        <time>2020-02-21T15:37:52Z</time>
      </trkpt>
      <trkpt lat="38.9592670" lon="1.2417170">
        <ele>32.5</ele>
        <time>2020-02-21T15:37:53Z</time>
      </trkpt>
      <trkpt lat="38.9592420" lon="1.2418020">
        <ele>32.1</ele>
        <time>2020-02-21T15:37:54Z</time>
      </trkpt>
      <trkpt lat="38.9592210" lon="1.2418880">
        <ele>31.6</ele>
        <time>2020-02-21T15:37:55Z</time>
      </trkpt>
      <trkpt lat="38.9592000" lon="1.2419780">
        <ele>31.2</ele>
        <time>2020-02-21T15:37:56Z</time>
      </trkpt>
      <trkpt lat="38.9591820" lon="1.2420680">
        <ele>30.9</ele>
        <time>2020-02-21T15:37:57Z</time>
      </trkpt>
      <trkpt lat="38.9591570" lon="1.2421530">
        <ele>30.6</ele>
        <time>2020-02-21T15:37:58Z</time>
      </trkpt>
      <trkpt lat="38.9591310" lon="1.2422400">
        <ele>30.3</ele>
        <time>2020-02-21T15:37:59Z</time>
      </trkpt>
      <trkpt lat="38.9591000" lon="1.2423240">
        <ele>30.1</ele>
        <time>2020-02-21T15:38:00Z</time>
      </trkpt>
      <trkpt lat="38.9590790" lon="1.2424100">
        <ele>29.9</ele>
        <time>2020-02-21T15:38:01Z</time>
      </trkpt>
      <trkpt lat="38.9590550" lon="1.2424960">
        <ele>29.6</ele>
        <time>2020-02-21T15:38:02Z</time>
      </trkpt>
      <trkpt lat="38.9590290" lon="1.2425790">
        <ele>29.3</ele>
        <time>2020-02-21T15:38:03Z</time>
      </trkpt>
      <trkpt lat="38.9590130" lon="1.2426720">
        <ele>29.0</ele>
        <time>2020-02-21T15:38:04Z</time>
      </trkpt>
      <trkpt lat="38.9589920" lon="1.2427550">
        <ele>28.7</ele>
        <time>2020-02-21T15:38:05Z</time>
      </trkpt>
      <trkpt lat="38.9589630" lon="1.2428350">
        <ele>28.4</ele>
        <time>2020-02-21T15:38:06Z</time>
      </trkpt>
      <trkpt lat="38.9589400" lon="1.2429140">
        <ele>28.2</ele>
        <time>2020-02-21T15:38:07Z</time>
      </trkpt>
      <trkpt lat="38.9589210" lon="1.2429980">
        <ele>28.1</ele>
        <time>2020-02-21T15:38:08Z</time>
      </trkpt>
      <trkpt lat="38.9589110" lon="1.2430850">
        <ele>27.9</ele>
        <time>2020-02-21T15:38:09Z</time>
      </trkpt>
      <trkpt lat="38.9588910" lon="1.2431670">
        <ele>27.7</ele>
        <time>2020-02-21T15:38:10Z</time>
      </trkpt>
      <trkpt lat="38.9588710" lon="1.2432430">
        <ele>27.5</ele>
        <time>2020-02-21T15:38:11Z</time>
      </trkpt>
      <trkpt lat="38.9588480" lon="1.2433150">
        <ele>27.3</ele>
        <time>2020-02-21T15:38:12Z</time>
      </trkpt>
      <trkpt lat="38.9588220" lon="1.2433900">
        <ele>27.1</ele>
        <time>2020-02-21T15:38:13Z</time>
      </trkpt>
      <trkpt lat="38.9588000" lon="1.2434700">
        <ele>26.9</ele>
        <time>2020-02-21T15:38:14Z</time>
      </trkpt>
      <trkpt lat="38.9587770" lon="1.2435510">
        <ele>26.8</ele>
        <time>2020-02-21T15:38:15Z</time>
      </trkpt>
      <trkpt lat="38.9587580" lon="1.2436340">
        <ele>26.6</ele>
        <time>2020-02-21T15:38:16Z</time>
      </trkpt>
      <trkpt lat="38.9587360" lon="1.2437110">
        <ele>26.5</ele>
        <time>2020-02-21T15:38:17Z</time>
      </trkpt>
      <trkpt lat="38.9587160" lon="1.2437850">
        <ele>26.4</ele>
        <time>2020-02-21T15:38:18Z</time>
      </trkpt>
      <trkpt lat="38.9586980" lon="1.2438620">
        <ele>26.3</ele>
        <time>2020-02-21T15:38:19Z</time>
      </trkpt>
      <trkpt lat="38.9586780" lon="1.2439360">
        <ele>26.1</ele>
        <time>2020-02-21T15:38:20Z</time>
      </trkpt>
      <trkpt lat="38.9586510" lon="1.2440030">
        <ele>26.0</ele>
        <time>2020-02-21T15:38:21Z</time>
      </trkpt>
      <trkpt lat="38.9586220" lon="1.2440680">
        <ele>26.0</ele>
        <time>2020-02-21T15:38:22Z</time>
      </trkpt>
      <trkpt lat="38.9585910" lon="1.2441330">
        <ele>26.0</ele>
        <time>2020-02-21T15:38:23Z</time>
      </trkpt>
      <trkpt lat="38.9585670" lon="1.2442030">
        <ele>26.0</ele>
        <time>2020-02-21T15:38:24Z</time>
      </trkpt>
      <trkpt lat="38.9585460" lon="1.2442750">
        <ele>26.0</ele>
        <time>2020-02-21T15:38:25Z</time>
      </trkpt>
      <trkpt lat="38.9585260" lon="1.2443500">
        <ele>26.0</ele>
        <time>2020-02-21T15:38:26Z</time>
      </trkpt>
      <trkpt lat="38.9585050" lon="1.2444240">
        <ele>26.1</ele>
        <time>2020-02-21T15:38:27Z</time>
      </trkpt>
      <trkpt lat="38.9584880" lon="1.2445000">
        <ele>26.1</ele>
        <time>2020-02-21T15:38:28Z</time>
      </trkpt>
      <trkpt lat="38.9584650" lon="1.2445710">
        <ele>26.2</ele>
        <time>2020-02-21T15:38:29Z</time>
      </trkpt>
      <trkpt lat="38.9584440" lon="1.2446410">
        <ele>26.2</ele>
        <time>2020-02-21T15:38:30Z</time>
      </trkpt>
      <trkpt lat="38.9584300" lon="1.2447120">
        <ele>26.3</ele>
        <time>2020-02-21T15:38:31Z</time>
      </trkpt>
      <trkpt lat="38.9584100" lon="1.2447800">
        <ele>26.3</ele>
        <time>2020-02-21T15:38:32Z</time>
      </trkpt>
      <trkpt lat="38.9583870" lon="1.2448460">
        <ele>26.4</ele>
        <time>2020-02-21T15:38:33Z</time>
      </trkpt>
      <trkpt lat="38.9583730" lon="1.2449150">
        <ele>26.5</ele>
        <time>2020-02-21T15:38:34Z</time>
      </trkpt>
      <trkpt lat="38.9583620" lon="1.2449860">
        <ele>26.5</ele>
        <time>2020-02-21T15:38:35Z</time>
      </trkpt>
      <trkpt lat="38.9583460" lon="1.2450550">
        <ele>26.6</ele>
        <time>2020-02-21T15:38:36Z</time>
      </trkpt>
      <trkpt lat="38.9583280" lon="1.2451240">
        <ele>26.7</ele>
        <time>2020-02-21T15:38:37Z</time>
      </trkpt>
      <trkpt lat="38.9583070" lon="1.2451920">
        <ele>26.7</ele>
        <time>2020-02-21T15:38:38Z</time>
      </trkpt>
      <trkpt lat="38.9582890" lon="1.2452580">
        <ele>26.8</ele>
        <time>2020-02-21T15:38:39Z</time>
      </trkpt>
      <trkpt lat="38.9582730" lon="1.2453240">
        <ele>26.9</ele>
        <time>2020-02-21T15:38:40Z</time>
      </trkpt>
      <trkpt lat="38.9582540" lon="1.2453870">
        <ele>27.0</ele>
        <time>2020-02-21T15:38:41Z</time>
      </trkpt>
      <trkpt lat="38.9582450" lon="1.2454550">
        <ele>27.0</ele>
        <time>2020-02-21T15:38:42Z</time>
      </trkpt>
      <trkpt lat="38.9582290" lon="1.2455170">
        <ele>27.1</ele>
        <time>2020-02-21T15:38:43Z</time>
      </trkpt>
      <trkpt lat="38.9582110" lon="1.2455770">
        <ele>27.2</ele>
        <time>2020-02-21T15:38:44Z</time>
      </trkpt>
      <trkpt lat="38.9581940" lon="1.2456380">
        <ele>27.2</ele>
        <time>2020-02-21T15:38:45Z</time>
      </trkpt>
      <trkpt lat="38.9581780" lon="1.2457000">
        <ele>27.3</ele>
        <time>2020-02-21T15:38:46Z</time>
      </trkpt>
      <trkpt lat="38.9581640" lon="1.2457610">
        <ele>27.3</ele>
        <time>2020-02-21T15:38:47Z</time>
      </trkpt>
      <trkpt lat="38.9581450" lon="1.2458210">
        <ele>27.4</ele>
        <time>2020-02-21T15:38:48Z</time>
      </trkpt>
      <trkpt lat="38.9581300" lon="1.2458820">
        <ele>27.4</ele>
        <time>2020-02-21T15:38:49Z</time>
      </trkpt>
      <trkpt lat="38.9581160" lon="1.2459390">
        <ele>27.5</ele>
        <time>2020-02-21T15:38:50Z</time>
      </trkpt>
      <trkpt lat="38.9580970" lon="1.2459930">
        <ele>27.6</ele>
        <time>2020-02-21T15:38:51Z</time>
      </trkpt>
      <trkpt lat="38.9580850" lon="1.2460500">
        <ele>27.6</ele>
        <time>2020-02-21T15:38:52Z</time>
      </trkpt>
      <trkpt lat="38.9580670" lon="1.2461080">
        <ele>27.7</ele>
        <time>2020-02-21T15:38:53Z</time>
      </trkpt>
      <trkpt lat="38.9580550" lon="1.2461680">
        <ele>27.8</ele>
        <time>2020-02-21T15:38:54Z</time>
      </trkpt>
      <trkpt lat="38.9580530" lon="1.2462350">
        <ele>27.8</ele>
        <time>2020-02-21T15:38:55Z</time>
      </trkpt>
      <trkpt lat="38.9580520" lon="1.2462930">
        <ele>27.9</ele>
        <time>2020-02-21T15:38:56Z</time>
      </trkpt>
      <trkpt lat="38.9580430" lon="1.2463460">
        <ele>28.0</ele>
        <time>2020-02-21T15:38:57Z</time>
      </trkpt>
      <trkpt lat="38.9580410" lon="1.2463980">
        <ele>28.1</ele>
        <time>2020-02-21T15:38:58Z</time>
      </trkpt>
      <trkpt lat="38.9580340" lon="1.2464480">
        <ele>28.2</ele>
        <time>2020-02-21T15:38:59Z</time>
      </trkpt>
      <trkpt lat="38.9580240" lon="1.2464960">
        <ele>28.3</ele>
        <time>2020-02-21T15:39:00Z</time>
      </trkpt>
      <trkpt lat="38.9580110" lon="1.2465430">
        <ele>28.4</ele>
        <time>2020-02-21T15:39:01Z</time>
      </trkpt>
      <trkpt lat="38.9579980" lon="1.2465920">
        <ele>28.5</ele>
        <time>2020-02-21T15:39:02Z</time>
      </trkpt>
      <trkpt lat="38.9579700" lon="1.2466250">
        <ele>28.6</ele>
        <time>2020-02-21T15:39:03Z</time>
      </trkpt>
      <trkpt lat="38.9579390" lon="1.2466570">
        <ele>28.8</ele>
        <time>2020-02-21T15:39:04Z</time>
      </trkpt>
      <trkpt lat="38.9579230" lon="1.2466960">
        <ele>28.9</ele>
        <time>2020-02-21T15:39:05Z</time>
      </trkpt>
      <trkpt lat="38.9579120" lon="1.2467340">
        <ele>28.9</ele>
        <time>2020-02-21T15:39:06Z</time>
      </trkpt>
      <trkpt lat="38.9579040" lon="1.2467720">
        <ele>29.1</ele>
        <time>2020-02-21T15:39:07Z</time>
      </trkpt>
      <trkpt lat="38.9578930" lon="1.2468070">
        <ele>29.4</ele>
        <time>2020-02-21T15:39:08Z</time>
      </trkpt>
      <trkpt lat="38.9578850" lon="1.2468410">
        <ele>29.5</ele>
        <time>2020-02-21T15:39:09Z</time>
      </trkpt>
      <trkpt lat="38.9578770" lon="1.2468800">
        <ele>29.7</ele>
        <time>2020-02-21T15:39:10Z</time>
      </trkpt>
      <trkpt lat="38.9578980" lon="1.2469070">
        <ele>29.8</ele>
        <time>2020-02-21T15:39:11Z</time>
      </trkpt>
      <trkpt lat="38.9579090" lon="1.2469140">
        <ele>29.8</ele>
        <time>2020-02-21T15:39:12Z</time>
      </trkpt>
      <trkpt lat="38.9579330" lon="1.2469310">
        <ele>30.0</ele>
        <time>2020-02-21T15:39:13Z</time>
      </trkpt>
      <trkpt lat="38.9579580" lon="1.2469660">
        <ele>30.8</ele>
        <time>2020-02-21T15:39:14Z</time>
      </trkpt>
      <trkpt lat="38.9579660" lon="1.2469800">
        <ele>30.7</ele>
        <time>2020-02-21T15:39:15Z</time>
      </trkpt>
      <trkpt lat="38.9579880" lon="1.2470030">
        <ele>30.6</ele>
        <time>2020-02-21T15:39:16Z</time>
      </trkpt>
      <trkpt lat="38.9580190" lon="1.2470260">
        <ele>30.4</ele>
        <time>2020-02-21T15:39:17Z</time>
      </trkpt>
      <trkpt lat="38.9580560" lon="1.2470260">
        <ele>30.3</ele>
        <time>2020-02-21T15:39:18Z</time>
      </trkpt>
      <trkpt lat="38.9581040" lon="1.2470210">
        <ele>30.1</ele>
        <time>2020-02-21T15:39:19Z</time>
      </trkpt>
      <trkpt lat="38.9581580" lon="1.2470250">
        <ele>29.8</ele>
        <time>2020-02-21T15:39:20Z</time>
      </trkpt>
      <trkpt lat="38.9582180" lon="1.2470320">
        <ele>29.5</ele>
        <time>2020-02-21T15:39:21Z</time>
      </trkpt>
      <trkpt lat="38.9582800" lon="1.2470440">
        <ele>29.2</ele>
        <time>2020-02-21T15:39:22Z</time>
      </trkpt>
      <trkpt lat="38.9583250" lon="1.2470310">
        <ele>29.0</ele>
        <time>2020-02-21T15:39:23Z</time>
      </trkpt>
      <trkpt lat="38.9583670" lon="1.2470040">
        <ele>28.9</ele>
        <time>2020-02-21T15:39:24Z</time>
      </trkpt>
      <trkpt lat="38.9584170" lon="1.2469930">
        <ele>28.8</ele>
        <time>2020-02-21T15:39:25Z</time>
      </trkpt>
      <trkpt lat="38.9584650" lon="1.2469790">
        <ele>28.7</ele>
        <time>2020-02-21T15:39:26Z</time>
      </trkpt>
      <trkpt lat="38.9585130" lon="1.2469630">
        <ele>28.6</ele>
        <time>2020-02-21T15:39:27Z</time>
      </trkpt>
      <trkpt lat="38.9585730" lon="1.2469490">
        <ele>28.4</ele>
        <time>2020-02-21T15:39:28Z</time>
      </trkpt>
      <trkpt lat="38.9586310" lon="1.2469430">
        <ele>28.3</ele>
        <time>2020-02-21T15:39:29Z</time>
      </trkpt>
      <trkpt lat="38.9586820" lon="1.2469350">
        <ele>28.1</ele>
        <time>2020-02-21T15:39:30Z</time>
      </trkpt>
      <trkpt lat="38.9587360" lon="1.2469280">
        <ele>28.0</ele>
        <time>2020-02-21T15:39:31Z</time>
      </trkpt>
      <trkpt lat="38.9587920" lon="1.2469210">
        <ele>27.9</ele>
        <time>2020-02-21T15:39:32Z</time>
      </trkpt>
      <trkpt lat="38.9588510" lon="1.2469030">
        <ele>27.8</ele>
        <time>2020-02-21T15:39:33Z</time>
      </trkpt>
      <trkpt lat="38.9589000" lon="1.2468870">
        <ele>27.7</ele>
        <time>2020-02-21T15:39:34Z</time>
      </trkpt>
      <trkpt lat="38.9589550" lon="1.2468690">
        <ele>27.6</ele>
        <time>2020-02-21T15:39:35Z</time>
      </trkpt>
      <trkpt lat="38.9590060" lon="1.2468600">
        <ele>27.5</ele>
        <time>2020-02-21T15:39:36Z</time>
      </trkpt>
      <trkpt lat="38.9590670" lon="1.2468400">
        <ele>27.4</ele>
        <time>2020-02-21T15:39:37Z</time>
      </trkpt>
      <trkpt lat="38.9591150" lon="1.2468330">
        <ele>27.3</ele>
        <time>2020-02-21T15:39:38Z</time>
      </trkpt>
      <trkpt lat="38.9591530" lon="1.2468230">
        <ele>27.3</ele>
        <time>2020-02-21T15:39:39Z</time>
      </trkpt>
      <trkpt lat="38.9591940" lon="1.2468110">
        <ele>27.2</ele>
        <time>2020-02-21T15:39:40Z</time>
      </trkpt>
      <trkpt lat="38.9592440" lon="1.2468040">
        <ele>27.1</ele>
        <time>2020-02-21T15:39:41Z</time>
      </trkpt>
      <trkpt lat="38.9592920" lon="1.2467950">
        <ele>27.1</ele>
        <time>2020-02-21T15:39:42Z</time>
      </trkpt>
      <trkpt lat="38.9593450" lon="1.2467830">
        <ele>27.0</ele>
        <time>2020-02-21T15:39:43Z</time>
      </trkpt>
      <trkpt lat="38.9593930" lon="1.2467750">
        <ele>27.0</ele>
        <time>2020-02-21T15:39:44Z</time>
      </trkpt>
      <trkpt lat="38.9594490" lon="1.2467670">
        <ele>27.0</ele>
        <time>2020-02-21T15:39:45Z</time>
      </trkpt>
      <trkpt lat="38.9594910" lon="1.2467630">
        <ele>26.9</ele>
        <time>2020-02-21T15:39:46Z</time>
      </trkpt>
      <trkpt lat="38.9595430" lon="1.2467570">
        <ele>26.9</ele>
        <time>2020-02-21T15:39:47Z</time>
      </trkpt>
      <trkpt lat="38.9595870" lon="1.2467440">
        <ele>26.8</ele>
        <time>2020-02-21T15:39:48Z</time>
      </trkpt>
      <trkpt lat="38.9596290" lon="1.2467180">
        <ele>26.7</ele>
        <time>2020-02-21T15:39:49Z</time>
      </trkpt>
      <trkpt lat="38.9596740" lon="1.2466890">
        <ele>26.5</ele>
        <time>2020-02-21T15:39:50Z</time>
      </trkpt>
      <trkpt lat="38.9597150" lon="1.2466610">
        <ele>26.4</ele>
        <time>2020-02-21T15:39:51Z</time>
      </trkpt>
      <trkpt lat="38.9597670" lon="1.2466270">
        <ele>26.2</ele>
        <time>2020-02-21T15:39:52Z</time>
      </trkpt>
      <trkpt lat="38.9598090" lon="1.2465870">
        <ele>26.1</ele>
        <time>2020-02-21T15:39:53Z</time>
      </trkpt>
      <trkpt lat="38.9598630" lon="1.2465500">
        <ele>26.0</ele>
        <time>2020-02-21T15:39:54Z</time>
      </trkpt>
      <trkpt lat="38.9599150" lon="1.2465190">
        <ele>25.9</ele>
        <time>2020-02-21T15:39:55Z</time>
      </trkpt>
      <trkpt lat="38.9599560" lon="1.2464910">
        <ele>25.9</ele>
        <time>2020-02-21T15:39:56Z</time>
      </trkpt>
      <trkpt lat="38.9599980" lon="1.2464580">
        <ele>25.8</ele>
        <time>2020-02-21T15:39:57Z</time>
      </trkpt>
      <trkpt lat="38.9600420" lon="1.2464130">
        <ele>25.7</ele>
        <time>2020-02-21T15:39:58Z</time>
      </trkpt>
      <trkpt lat="38.9600760" lon="1.2463900">
        <ele>25.7</ele>
        <time>2020-02-21T15:39:59Z</time>
      </trkpt>
      <trkpt lat="38.9601390" lon="1.2463400">
        <ele>25.5</ele>
        <time>2020-02-21T15:40:00Z</time>
      </trkpt>
      <trkpt lat="38.9601890" lon="1.2463000">
        <ele>25.3</ele>
        <time>2020-02-21T15:40:01Z</time>
      </trkpt>
      <trkpt lat="38.9602380" lon="1.2462590">
        <ele>25.1</ele>
        <time>2020-02-21T15:40:02Z</time>
      </trkpt>
      <trkpt lat="38.9602820" lon="1.2462190">
        <ele>25.0</ele>
        <time>2020-02-21T15:40:03Z</time>
      </trkpt>
      <trkpt lat="38.9603300" lon="1.2461730">
        <ele>24.9</ele>
        <time>2020-02-21T15:40:04Z</time>
      </trkpt>
      <trkpt lat="38.9603750" lon="1.2461320">
        <ele>24.8</ele>
        <time>2020-02-21T15:40:05Z</time>
      </trkpt>
      <trkpt lat="38.9604180" lon="1.2460900">
        <ele>24.8</ele>
        <time>2020-02-21T15:40:06Z</time>
      </trkpt>
      <trkpt lat="38.9604640" lon="1.2460450">
        <ele>24.8</ele>
        <time>2020-02-21T15:40:07Z</time>
      </trkpt>
      <trkpt lat="38.9605140" lon="1.2459950">
        <ele>24.8</ele>
        <time>2020-02-21T15:40:08Z</time>
      </trkpt>
      <trkpt lat="38.9605450" lon="1.2459700">
        <ele>24.8</ele>
        <time>2020-02-21T15:40:09Z</time>
      </trkpt>
      <trkpt lat="38.9605950" lon="1.2459180">
        <ele>24.9</ele>
        <time>2020-02-21T15:40:10Z</time>
      </trkpt>
      <trkpt lat="38.9606330" lon="1.2458860">
        <ele>25.1</ele>
        <time>2020-02-21T15:40:11Z</time>
      </trkpt>
      <trkpt lat="38.9606780" lon="1.2458450">
        <ele>25.2</ele>
        <time>2020-02-21T15:40:12Z</time>
      </trkpt>
      <trkpt lat="38.9607280" lon="1.2458090">
        <ele>25.3</ele>
        <time>2020-02-21T15:40:13Z</time>
      </trkpt>
      <trkpt lat="38.9607550" lon="1.2457940">
        <ele>25.4</ele>
        <time>2020-02-21T15:40:14Z</time>
      </trkpt>
      <trkpt lat="38.9608060" lon="1.2457610">
        <ele>25.5</ele>
        <time>2020-02-21T15:40:15Z</time>
      </trkpt>
      <trkpt lat="38.9608570" lon="1.2457360">
        <ele>25.6</ele>
        <time>2020-02-21T15:40:16Z</time>
      </trkpt>
      <trkpt lat="38.9609000" lon="1.2457200">
        <ele>25.6</ele>
        <time>2020-02-21T15:40:17Z</time>
      </trkpt>
      <trkpt lat="38.9609410" lon="1.2457010">
        <ele>25.7</ele>
        <time>2020-02-21T15:40:18Z</time>
      </trkpt>
      <trkpt lat="38.9609960" lon="1.2456870">
        <ele>25.9</ele>
        <time>2020-02-21T15:40:19Z</time>
      </trkpt>
      <trkpt lat="38.9610430" lon="1.2456690">
        <ele>26.0</ele>
        <time>2020-02-21T15:40:20Z</time>
      </trkpt>
      <trkpt lat="38.9610900" lon="1.2456590">
        <ele>26.1</ele>
        <time>2020-02-21T15:40:21Z</time>
      </trkpt>
      <trkpt lat="38.9611350" lon="1.2456540">
        <ele>26.2</ele>
        <time>2020-02-21T15:40:22Z</time>
      </trkpt>
      <trkpt lat="38.9611820" lon="1.2456490">
        <ele>26.3</ele>
        <time>2020-02-21T15:40:23Z</time>
      </trkpt>
      <trkpt lat="38.9612430" lon="1.2456460">
        <ele>26.4</ele>
        <time>2020-02-21T15:40:24Z</time>
      </trkpt>
      <trkpt lat="38.9612970" lon="1.2456520">
        <ele>26.4</ele>
        <time>2020-02-21T15:40:25Z</time>
      </trkpt>
      <trkpt lat="38.9613420" lon="1.2456590">
        <ele>26.4</ele>
        <time>2020-02-21T15:40:26Z</time>
      </trkpt>
      <trkpt lat="38.9613860" lon="1.2456610">
        <ele>26.4</ele>
        <time>2020-02-21T15:40:27Z</time>
      </trkpt>
      <trkpt lat="38.9614290" lon="1.2456700">
        <ele>26.4</ele>
        <time>2020-02-21T15:40:28Z</time>
      </trkpt>
      <trkpt lat="38.9614720" lon="1.2456650">
        <ele>26.4</ele>
        <time>2020-02-21T15:40:29Z</time>
      </trkpt>
      <trkpt lat="38.9615190" lon="1.2456630">
        <ele>26.4</ele>
        <time>2020-02-21T15:40:30Z</time>
      </trkpt>
      <trkpt lat="38.9615620" lon="1.2456550">
        <ele>26.4</ele>
        <time>2020-02-21T15:40:31Z</time>
      </trkpt>
      <trkpt lat="38.9616070" lon="1.2456580">
        <ele>26.4</ele>
        <time>2020-02-21T15:40:32Z</time>
      </trkpt>
      <trkpt lat="38.9616530" lon="1.2456460">
        <ele>26.4</ele>
        <time>2020-02-21T15:40:33Z</time>
      </trkpt>
      <trkpt lat="38.9617000" lon="1.2456330">
        <ele>26.4</ele>
        <time>2020-02-21T15:40:34Z</time>
      </trkpt>
      <trkpt lat="38.9617230" lon="1.2456130">
        <ele>26.4</ele>
        <time>2020-02-21T15:40:35Z</time>
      </trkpt>
      <trkpt lat="38.9617640" lon="1.2456080">
        <ele>26.4</ele>
        <time>2020-02-21T15:40:36Z</time>
      </trkpt>
      <trkpt lat="38.9618150" lon="1.2456080">
        <ele>26.4</ele>
        <time>2020-02-21T15:40:37Z</time>
      </trkpt>
      <trkpt lat="38.9618560" lon="1.2456210">
        <ele>26.4</ele>
        <time>2020-02-21T15:40:38Z</time>
      </trkpt>
      <trkpt lat="38.9618910" lon="1.2456460">
        <ele>26.5</ele>
        <time>2020-02-21T15:40:39Z</time>
      </trkpt>
      <trkpt lat="38.9619210" lon="1.2456750">
        <ele>26.5</ele>
        <time>2020-02-21T15:40:40Z</time>
      </trkpt>
      <trkpt lat="38.9619520" lon="1.2456970">
        <ele>26.5</ele>
        <time>2020-02-21T15:40:41Z</time>
      </trkpt>
      <trkpt lat="38.9619770" lon="1.2457090">
        <ele>26.6</ele>
        <time>2020-02-21T15:40:42Z</time>
      </trkpt>
      <trkpt lat="38.9620060" lon="1.2457280">
        <ele>26.6</ele>
        <time>2020-02-21T15:40:43Z</time>
      </trkpt>
      <trkpt lat="38.9620260" lon="1.2457580">
        <ele>26.7</ele>
        <time>2020-02-21T15:40:44Z</time>
      </trkpt>
      <trkpt lat="38.9620570" lon="1.2457640">
        <ele>26.7</ele>
        <time>2020-02-21T15:40:45Z</time>
      </trkpt>
      <trkpt lat="38.9620650" lon="1.2457610">
        <ele>26.7</ele>
        <time>2020-02-21T15:40:46Z</time>
      </trkpt>
      <trkpt lat="38.9620990" lon="1.2457720">
        <ele>26.8</ele>
        <time>2020-02-21T15:40:47Z</time>
      </trkpt>
      <trkpt lat="38.9621100" lon="1.2457770">
        <ele>26.8</ele>
        <time>2020-02-21T15:40:48Z</time>
      </trkpt>
      <trkpt lat="38.9621400" lon="1.2457820">
        <ele>26.8</ele>
        <time>2020-02-21T15:40:49Z</time>
      </trkpt>
      <trkpt lat="38.9621700" lon="1.2457860">
        <ele>26.9</ele>
        <time>2020-02-21T15:40:50Z</time>
      </trkpt>
      <trkpt lat="38.9622130" lon="1.2457850">
        <ele>27.0</ele>
        <time>2020-02-21T15:40:51Z</time>
      </trkpt>
      <trkpt lat="38.9622300" lon="1.2457870">
        <ele>27.0</ele>
        <time>2020-02-21T15:40:52Z</time>
      </trkpt>
      <trkpt lat="38.9622580" lon="1.2457810">
        <ele>27.1</ele>
        <time>2020-02-21T15:40:53Z</time>
      </trkpt>
      <trkpt lat="38.9622970" lon="1.2457720">
        <ele>27.2</ele>
        <time>2020-02-21T15:40:54Z</time>
      </trkpt>
      <trkpt lat="38.9623090" lon="1.2457670">
        <ele>27.2</ele>
        <time>2020-02-21T15:40:55Z</time>
      </trkpt>
      <trkpt lat="38.9623400" lon="1.2457590">
        <ele>27.3</ele>
        <time>2020-02-21T15:40:56Z</time>
      </trkpt>
      <trkpt lat="38.9623680" lon="1.2457500">
        <ele>27.3</ele>
        <time>2020-02-21T15:40:57Z</time>
      </trkpt>
      <trkpt lat="38.9623990" lon="1.2457450">
        <ele>27.4</ele>
        <time>2020-02-21T15:40:58Z</time>
      </trkpt>
      <trkpt lat="38.9624300" lon="1.2457440">
        <ele>27.5</ele>
        <time>2020-02-21T15:40:59Z</time>
      </trkpt>
      <trkpt lat="38.9624690" lon="1.2457370">
        <ele>27.6</ele>
        <time>2020-02-21T15:41:00Z</time>
      </trkpt>
      <trkpt lat="38.9624820" lon="1.2457400">
        <ele>27.6</ele>
        <time>2020-02-21T15:41:01Z</time>
      </trkpt>
      <trkpt lat="38.9625180" lon="1.2457440">
        <ele>27.7</ele>
        <time>2020-02-21T15:41:02Z</time>
      </trkpt>
      <trkpt lat="38.9625310" lon="1.2457430">
        <ele>27.7</ele>
        <time>2020-02-21T15:41:03Z</time>
      </trkpt>
      <trkpt lat="38.9625680" lon="1.2457380">
        <ele>27.8</ele>
        <time>2020-02-21T15:41:04Z</time>
      </trkpt>
      <trkpt lat="38.9625820" lon="1.2457340">
        <ele>27.8</ele>
        <time>2020-02-21T15:41:05Z</time>
      </trkpt>
      <trkpt lat="38.9626140" lon="1.2457320">
        <ele>27.9</ele>
        <time>2020-02-21T15:41:06Z</time>
      </trkpt>
      <trkpt lat="38.9626500" lon="1.2457450">
        <ele>28.0</ele>
        <time>2020-02-21T15:41:07Z</time>
      </trkpt>
      <trkpt lat="38.9626790" lon="1.2457440">
        <ele>28.1</ele>
        <time>2020-02-21T15:41:08Z</time>
      </trkpt>
      <trkpt lat="38.9627120" lon="1.2457500">
        <ele>28.1</ele>
        <time>2020-02-21T15:41:09Z</time>
      </trkpt>
      <trkpt lat="38.9627200" lon="1.2457540">
        <ele>28.1</ele>
        <time>2020-02-21T15:41:10Z</time>
      </trkpt>
      <trkpt lat="38.9627560" lon="1.2457590">
        <ele>28.2</ele>
        <time>2020-02-21T15:41:11Z</time>
      </trkpt>
      <trkpt lat="38.9627680" lon="1.2457630">
        <ele>28.2</ele>
        <time>2020-02-21T15:41:12Z</time>
      </trkpt>
      <trkpt lat="38.9627980" lon="1.2457760">
        <ele>28.3</ele>
        <time>2020-02-21T15:41:13Z</time>
      </trkpt>
      <trkpt lat="38.9628070" lon="1.2457780">
        <ele>28.3</ele>
        <time>2020-02-21T15:41:14Z</time>
      </trkpt>
      <trkpt lat="38.9628380" lon="1.2457980">
        <ele>28.4</ele>
        <time>2020-02-21T15:41:15Z</time>
      </trkpt>
      <trkpt lat="38.9628460" lon="1.2458040">
        <ele>28.4</ele>
        <time>2020-02-21T15:41:16Z</time>
      </trkpt>
      <trkpt lat="38.9628700" lon="1.2458250">
        <ele>28.4</ele>
        <time>2020-02-21T15:41:17Z</time>
      </trkpt>
      <trkpt lat="38.9628770" lon="1.2458340">
        <ele>28.4</ele>
        <time>2020-02-21T15:41:18Z</time>
      </trkpt>
      <trkpt lat="38.9628990" lon="1.2458610">
        <ele>28.5</ele>
        <time>2020-02-21T15:41:19Z</time>
      </trkpt>
      <trkpt lat="38.9629250" lon="1.2458880">
        <ele>28.5</ele>
        <time>2020-02-21T15:41:20Z</time>
      </trkpt>
      <trkpt lat="38.9629350" lon="1.2458990">
        <ele>28.5</ele>
        <time>2020-02-21T15:41:21Z</time>
      </trkpt>
      <trkpt lat="38.9629640" lon="1.2459230">
        <ele>28.5</ele>
        <time>2020-02-21T15:41:22Z</time>
      </trkpt>
      <trkpt lat="38.9629720" lon="1.2459300">
        <ele>28.6</ele>
        <time>2020-02-21T15:41:23Z</time>
      </trkpt>
      <trkpt lat="38.9629990" lon="1.2459420">
        <ele>28.6</ele>
        <time>2020-02-21T15:41:24Z</time>
      </trkpt>
      <trkpt lat="38.9630270" lon="1.2459780">
        <ele>28.6</ele>
        <time>2020-02-21T15:41:25Z</time>
      </trkpt>
      <trkpt lat="38.9630400" lon="1.2459910">
        <ele>28.7</ele>
        <time>2020-02-21T15:41:26Z</time>
      </trkpt>
      <trkpt lat="38.9630620" lon="1.2460120">
        <ele>28.7</ele>
        <time>2020-02-21T15:41:27Z</time>
      </trkpt>
      <trkpt lat="38.9630860" lon="1.2460510">
        <ele>28.8</ele>
        <time>2020-02-21T15:41:28Z</time>
      </trkpt>
      <trkpt lat="38.9630940" lon="1.2460620">
        <ele>28.8</ele>
        <time>2020-02-21T15:41:29Z</time>
      </trkpt>
      <trkpt lat="38.9631260" lon="1.2460980">
        <ele>28.9</ele>
        <time>2020-02-21T15:41:30Z</time>
      </trkpt>
      <trkpt lat="38.9631380" lon="1.2461120">
        <ele>28.9</ele>
        <time>2020-02-21T15:41:31Z</time>
      </trkpt>
      <trkpt lat="38.9631700" lon="1.2461410">
        <ele>29.0</ele>
        <time>2020-02-21T15:41:32Z</time>
      </trkpt>
      <trkpt lat="38.9631970" lon="1.2461530">
        <ele>29.1</ele>
        <time>2020-02-21T15:41:33Z</time>
      </trkpt>
      <trkpt lat="38.9632270" lon="1.2461600">
        <ele>29.1</ele>
        <time>2020-02-21T15:41:34Z</time>
      </trkpt>
      <trkpt lat="38.9632660" lon="1.2461580">
        <ele>29.2</ele>
        <time>2020-02-21T15:41:35Z</time>
      </trkpt>
      <trkpt lat="38.9633060" lon="1.2461630">
        <ele>29.3</ele>
        <time>2020-02-21T15:41:36Z</time>
      </trkpt>
      <trkpt lat="38.9633490" lon="1.2461860">
        <ele>29.4</ele>
        <time>2020-02-21T15:41:37Z</time>
      </trkpt>
      <trkpt lat="38.9633820" lon="1.2462210">
        <ele>29.4</ele>
        <time>2020-02-21T15:41:38Z</time>
      </trkpt>
      <trkpt lat="38.9634200" lon="1.2462470">
        <ele>29.5</ele>
        <time>2020-02-21T15:41:39Z</time>
      </trkpt>
      <trkpt lat="38.9634610" lon="1.2462670">
        <ele>29.5</ele>
        <time>2020-02-21T15:41:40Z</time>
      </trkpt>
      <trkpt lat="38.9635010" lon="1.2462720">
        <ele>29.6</ele>
        <time>2020-02-21T15:41:41Z</time>
      </trkpt>
      <trkpt lat="38.9635400" lon="1.2462920">
        <ele>29.6</ele>
        <time>2020-02-21T15:41:42Z</time>
      </trkpt>
      <trkpt lat="38.9635770" lon="1.2463190">
        <ele>29.6</ele>
        <time>2020-02-21T15:41:43Z</time>
      </trkpt>
      <trkpt lat="38.9636050" lon="1.2463420">
        <ele>29.7</ele>
        <time>2020-02-21T15:41:44Z</time>
      </trkpt>
      <trkpt lat="38.9636350" lon="1.2463630">
        <ele>29.7</ele>
        <time>2020-02-21T15:41:45Z</time>
      </trkpt>
      <trkpt lat="38.9636630" lon="1.2463870">
        <ele>29.7</ele>
        <time>2020-02-21T15:41:46Z</time>
      </trkpt>
      <trkpt lat="38.9636920" lon="1.2464180">
        <ele>29.7</ele>
        <time>2020-02-21T15:41:47Z</time>
      </trkpt>
      <trkpt lat="38.9637270" lon="1.2464450">
        <ele>29.7</ele>
        <time>2020-02-21T15:41:48Z</time>
      </trkpt>
      <trkpt lat="38.9637530" lon="1.2464770">
        <ele>29.7</ele>
        <time>2020-02-21T15:41:49Z</time>
      </trkpt>
      <trkpt lat="38.9637810" lon="1.2465040">
        <ele>29.7</ele>
        <time>2020-02-21T15:41:50Z</time>
      </trkpt>
      <trkpt lat="38.9638150" lon="1.2465320">
        <ele>29.7</ele>
        <time>2020-02-21T15:41:51Z</time>
      </trkpt>
      <trkpt lat="38.9638500" lon="1.2465600">
        <ele>29.7</ele>
        <time>2020-02-21T15:41:52Z</time>
      </trkpt>
      <trkpt lat="38.9638750" lon="1.2466010">
        <ele>29.7</ele>
        <time>2020-02-21T15:41:53Z</time>
      </trkpt>
      <trkpt lat="38.9639010" lon="1.2466330">
        <ele>29.8</ele>
        <time>2020-02-21T15:41:54Z</time>
      </trkpt>
      <trkpt lat="38.9639260" lon="1.2466700">
        <ele>30.0</ele>
        <time>2020-02-21T15:41:55Z</time>
      </trkpt>
      <trkpt lat="38.9639520" lon="1.2467140">
        <ele>30.2</ele>
        <time>2020-02-21T15:41:56Z</time>
      </trkpt>
      <trkpt lat="38.9639730" lon="1.2467540">
        <ele>30.5</ele>
        <time>2020-02-21T15:41:57Z</time>
      </trkpt>
      <trkpt lat="38.9639920" lon="1.2468010">
        <ele>30.7</ele>
        <time>2020-02-21T15:41:58Z</time>
      </trkpt>
      <trkpt lat="38.9640060" lon="1.2468460">
        <ele>30.9</ele>
        <time>2020-02-21T15:41:59Z</time>
      </trkpt>
      <trkpt lat="38.9640120" lon="1.2468930">
        <ele>31.1</ele>
        <time>2020-02-21T15:42:00Z</time>
      </trkpt>
      <trkpt lat="38.9640250" lon="1.2469420">
        <ele>31.3</ele>
        <time>2020-02-21T15:42:01Z</time>
      </trkpt>
      <trkpt lat="38.9640380" lon="1.2469890">
        <ele>31.5</ele>
        <time>2020-02-21T15:42:02Z</time>
      </trkpt>
      <trkpt lat="38.9640570" lon="1.2470290">
        <ele>31.7</ele>
        <time>2020-02-21T15:42:03Z</time>
      </trkpt>
      <trkpt lat="38.9640730" lon="1.2470710">
        <ele>31.8</ele>
        <time>2020-02-21T15:42:04Z</time>
      </trkpt>
      <trkpt lat="38.9640860" lon="1.2471160">
        <ele>32.1</ele>
        <time>2020-02-21T15:42:05Z</time>
      </trkpt>
      <trkpt lat="38.9640910" lon="1.2471640">
        <ele>32.4</ele>
        <time>2020-02-21T15:42:06Z</time>
      </trkpt>
      <trkpt lat="38.9640920" lon="1.2471990">
        <ele>32.5</ele>
        <time>2020-02-21T15:42:07Z</time>
      </trkpt>
      <trkpt lat="38.9641000" lon="1.2472440">
        <ele>32.8</ele>
        <time>2020-02-21T15:42:08Z</time>
      </trkpt>
      <trkpt lat="38.9641040" lon="1.2472600">
        <ele>32.8</ele>
        <time>2020-02-21T15:42:09Z</time>
      </trkpt>
      <trkpt lat="38.9641280" lon="1.2473020">
        <ele>33.1</ele>
        <time>2020-02-21T15:42:10Z</time>
      </trkpt>
      <trkpt lat="38.9641360" lon="1.2473180">
        <ele>33.1</ele>
        <time>2020-02-21T15:42:11Z</time>
      </trkpt>
      <trkpt lat="38.9641570" lon="1.2473570">
        <ele>33.3</ele>
        <time>2020-02-21T15:42:12Z</time>
      </trkpt>
      <trkpt lat="38.9641720" lon="1.2473940">
        <ele>33.5</ele>
        <time>2020-02-21T15:42:13Z</time>
      </trkpt>
      <trkpt lat="38.9641960" lon="1.2474250">
        <ele>33.6</ele>
        <time>2020-02-21T15:42:14Z</time>
      </trkpt>
      <trkpt lat="38.9642140" lon="1.2474620">
        <ele>33.8</ele>
        <time>2020-02-21T15:42:15Z</time>
      </trkpt>
      <trkpt lat="38.9642280" lon="1.2474970">
        <ele>33.9</ele>
        <time>2020-02-21T15:42:16Z</time>
      </trkpt>
      <trkpt lat="38.9642440" lon="1.2475280">
        <ele>34.0</ele>
        <time>2020-02-21T15:42:17Z</time>
      </trkpt>
      <trkpt lat="38.9642460" lon="1.2475740">
        <ele>34.2</ele>
        <time>2020-02-21T15:42:18Z</time>
      </trkpt>
      <trkpt lat="38.9642560" lon="1.2476180">
        <ele>34.4</ele>
        <time>2020-02-21T15:42:19Z</time>
      </trkpt>
      <trkpt lat="38.9642620" lon="1.2476360">
        <ele>34.5</ele>
        <time>2020-02-21T15:42:20Z</time>
      </trkpt>
      <trkpt lat="38.9642730" lon="1.2476730">
        <ele>34.8</ele>
        <time>2020-02-21T15:42:21Z</time>
      </trkpt>
      <trkpt lat="38.9642840" lon="1.2477060">
        <ele>35.0</ele>
        <time>2020-02-21T15:42:22Z</time>
      </trkpt>
      <trkpt lat="38.9642950" lon="1.2477390">
        <ele>35.1</ele>
        <time>2020-02-21T15:42:23Z</time>
      </trkpt>
      <trkpt lat="38.9643120" lon="1.2477830">
        <ele>35.3</ele>
        <time>2020-02-21T15:42:24Z</time>
      </trkpt>
      <trkpt lat="38.9643380" lon="1.2478230">
        <ele>35.6</ele>
        <time>2020-02-21T15:42:25Z</time>
      </trkpt>
      <trkpt lat="38.9643470" lon="1.2478370">
        <ele>35.6</ele>
        <time>2020-02-21T15:42:26Z</time>
      </trkpt>
      <trkpt lat="38.9643560" lon="1.2478810">
        <ele>35.8</ele>
        <time>2020-02-21T15:42:27Z</time>
      </trkpt>
      <trkpt lat="38.9643620" lon="1.2479260">
        <ele>36.0</ele>
        <time>2020-02-21T15:42:28Z</time>
      </trkpt>
      <trkpt lat="38.9643740" lon="1.2479750">
        <ele>36.2</ele>
        <time>2020-02-21T15:42:29Z</time>
      </trkpt>
      <trkpt lat="38.9643750" lon="1.2479920">
        <ele>36.2</ele>
        <time>2020-02-21T15:42:30Z</time>
      </trkpt>
      <trkpt lat="38.9643830" lon="1.2480270">
        <ele>36.4</ele>
        <time>2020-02-21T15:42:31Z</time>
      </trkpt>
      <trkpt lat="38.9643790" lon="1.2480710">
        <ele>36.6</ele>
        <time>2020-02-21T15:42:32Z</time>
      </trkpt>
      <trkpt lat="38.9643750" lon="1.2480810">
        <ele>36.6</ele>
        <time>2020-02-21T15:42:33Z</time>
      </trkpt>
      <trkpt lat="38.9643600" lon="1.2481130">
        <ele>36.7</ele>
        <time>2020-02-21T15:42:34Z</time>
      </trkpt>
      <trkpt lat="38.9643530" lon="1.2481500">
        <ele>36.8</ele>
        <time>2020-02-21T15:42:35Z</time>
      </trkpt>
      <trkpt lat="38.9643470" lon="1.2481860">
        <ele>36.9</ele>
        <time>2020-02-21T15:42:36Z</time>
      </trkpt>
      <trkpt lat="38.9643460" lon="1.2482230">
        <ele>37.1</ele>
        <time>2020-02-21T15:42:37Z</time>
      </trkpt>
      <trkpt lat="38.9643410" lon="1.2482580">
        <ele>37.2</ele>
        <time>2020-02-21T15:42:38Z</time>
      </trkpt>
      <trkpt lat="38.9643480" lon="1.2483020">
        <ele>37.3</ele>
        <time>2020-02-21T15:42:39Z</time>
      </trkpt>
      <trkpt lat="38.9643550" lon="1.2483360">
        <ele>37.4</ele>
        <time>2020-02-21T15:42:40Z</time>
      </trkpt>
      <trkpt lat="38.9643590" lon="1.2483870">
        <ele>37.6</ele>
        <time>2020-02-21T15:42:41Z</time>
      </trkpt>
      <trkpt lat="38.9643600" lon="1.2484080">
        <ele>37.7</ele>
        <time>2020-02-21T15:42:42Z</time>
      </trkpt>
      <trkpt lat="38.9643680" lon="1.2484640">
        <ele>37.8</ele>
        <time>2020-02-21T15:42:43Z</time>
      </trkpt>
      <trkpt lat="38.9643740" lon="1.2484870">
        <ele>37.9</ele>
        <time>2020-02-21T15:42:44Z</time>
      </trkpt>
      <trkpt lat="38.9643720" lon="1.2485340">
        <ele>38.0</ele>
        <time>2020-02-21T15:42:45Z</time>
      </trkpt>
      <trkpt lat="38.9643820" lon="1.2485800">
        <ele>38.2</ele>
        <time>2020-02-21T15:42:46Z</time>
      </trkpt>
      <trkpt lat="38.9644000" lon="1.2486050">
        <ele>38.3</ele>
        <time>2020-02-21T15:42:47Z</time>
      </trkpt>
      <trkpt lat="38.9644100" lon="1.2486490">
        <ele>38.4</ele>
        <time>2020-02-21T15:42:48Z</time>
      </trkpt>
      <trkpt lat="38.9644210" lon="1.2486810">
        <ele>38.5</ele>
        <time>2020-02-21T15:42:49Z</time>
      </trkpt>
      <trkpt lat="38.9644330" lon="1.2487170">
        <ele>38.6</ele>
        <time>2020-02-21T15:42:50Z</time>
      </trkpt>
      <trkpt lat="38.9644470" lon="1.2487540">
        <ele>38.6</ele>
        <time>2020-02-21T15:42:51Z</time>
      </trkpt>
      <trkpt lat="38.9644570" lon="1.2487890">
        <ele>38.6</ele>
        <time>2020-02-21T15:42:52Z</time>
      </trkpt>
      <trkpt lat="38.9644690" lon="1.2488360">
        <ele>38.7</ele>
        <time>2020-02-21T15:42:53Z</time>
      </trkpt>
      <trkpt lat="38.9644700" lon="1.2488510">
        <ele>38.7</ele>
        <time>2020-02-21T15:42:54Z</time>
      </trkpt>
      <trkpt lat="38.9644850" lon="1.2488930">
        <ele>38.8</ele>
        <time>2020-02-21T15:42:55Z</time>
      </trkpt>
      <trkpt lat="38.9644910" lon="1.2489100">
        <ele>38.8</ele>
        <time>2020-02-21T15:42:56Z</time>
      </trkpt>
      <trkpt lat="38.9645120" lon="1.2489520">
        <ele>38.8</ele>
        <time>2020-02-21T15:42:57Z</time>
      </trkpt>
      <trkpt lat="38.9645200" lon="1.2489670">
        <ele>38.8</ele>
        <time>2020-02-21T15:42:58Z</time>
      </trkpt>
      <trkpt lat="38.9645310" lon="1.2490080">
        <ele>38.9</ele>
        <time>2020-02-21T15:42:59Z</time>
      </trkpt>
      <trkpt lat="38.9645420" lon="1.2490460">
        <ele>38.9</ele>
        <time>2020-02-21T15:43:00Z</time>
      </trkpt>
      <trkpt lat="38.9645590" lon="1.2490980">
        <ele>38.9</ele>
        <time>2020-02-21T15:43:01Z</time>
      </trkpt>
      <trkpt lat="38.9645940" lon="1.2491740">
        <ele>39.0</ele>
        <time>2020-02-21T15:43:02Z</time>
      </trkpt>
      <trkpt lat="38.9646170" lon="1.2492450">
        <ele>39.1</ele>
        <time>2020-02-21T15:43:03Z</time>
      </trkpt>
      <trkpt lat="38.9646270" lon="1.2493100">
        <ele>39.1</ele>
        <time>2020-02-21T15:43:04Z</time>
      </trkpt>
      <trkpt lat="38.9646320" lon="1.2493860">
        <ele>39.2</ele>
        <time>2020-02-21T15:43:05Z</time>
      </trkpt>
      <trkpt lat="38.9646080" lon="1.2494340">
        <ele>39.2</ele>
        <time>2020-02-21T15:43:06Z</time>
      </trkpt>
      <trkpt lat="38.9645660" lon="1.2494760">
        <ele>39.2</ele>
        <time>2020-02-21T15:43:07Z</time>
      </trkpt>
      <trkpt lat="38.9645290" lon="1.2495180">
        <ele>39.3</ele>
        <time>2020-02-21T15:43:08Z</time>
      </trkpt>
      <trkpt lat="38.9644930" lon="1.2495640">
        <ele>39.3</ele>
        <time>2020-02-21T15:43:09Z</time>
      </trkpt>
      <trkpt lat="38.9644610" lon="1.2496150">
        <ele>39.4</ele>
        <time>2020-02-21T15:43:10Z</time>
      </trkpt>
      <trkpt lat="38.9644260" lon="1.2496560">
        <ele>39.4</ele>
        <time>2020-02-21T15:43:11Z</time>
      </trkpt>
      <trkpt lat="38.9643790" lon="1.2496910">
        <ele>39.5</ele>
        <time>2020-02-21T15:43:12Z</time>
      </trkpt>
      <trkpt lat="38.9643280" lon="1.2497290">
        <ele>39.6</ele>
        <time>2020-02-21T15:43:13Z</time>
      </trkpt>
      <trkpt lat="38.9642820" lon="1.2497610">
        <ele>39.6</ele>
        <time>2020-02-21T15:43:14Z</time>
      </trkpt>
      <trkpt lat="38.9642440" lon="1.2497910">
        <ele>39.7</ele>
        <time>2020-02-21T15:43:15Z</time>
      </trkpt>
      <trkpt lat="38.9641990" lon="1.2498190">
        <ele>39.7</ele>
        <time>2020-02-21T15:43:16Z</time>
      </trkpt>
      <trkpt lat="38.9641670" lon="1.2498570">
        <ele>39.8</ele>
        <time>2020-02-21T15:43:17Z</time>
      </trkpt>
      <trkpt lat="38.9641390" lon="1.2499040">
        <ele>40.0</ele>
        <time>2020-02-21T15:43:18Z</time>
      </trkpt>
      <trkpt lat="38.9641230" lon="1.2499570">
        <ele>40.1</ele>
        <time>2020-02-21T15:43:19Z</time>
      </trkpt>
      <trkpt lat="38.9640750" lon="1.2499990">
        <ele>40.2</ele>
        <time>2020-02-21T15:43:20Z</time>
      </trkpt>
      <trkpt lat="38.9640290" lon="1.2500370">
        <ele>40.3</ele>
        <time>2020-02-21T15:43:21Z</time>
      </trkpt>
      <trkpt lat="38.9639790" lon="1.2500630">
        <ele>40.5</ele>
        <time>2020-02-21T15:43:22Z</time>
      </trkpt>
      <trkpt lat="38.9639400" lon="1.2501010">
        <ele>40.6</ele>
        <time>2020-02-21T15:43:23Z</time>
      </trkpt>
      <trkpt lat="38.9638980" lon="1.2501320">
        <ele>40.6</ele>
        <time>2020-02-21T15:43:24Z</time>
      </trkpt>
      <trkpt lat="38.9638620" lon="1.2501670">
        <ele>40.7</ele>
        <time>2020-02-21T15:43:25Z</time>
      </trkpt>
      <trkpt lat="38.9638240" lon="1.2502110">
        <ele>40.8</ele>
        <time>2020-02-21T15:43:26Z</time>
      </trkpt>
      <trkpt lat="38.9637830" lon="1.2502550">
        <ele>40.8</ele>
        <time>2020-02-21T15:43:27Z</time>
      </trkpt>
      <trkpt lat="38.9637490" lon="1.2502840">
        <ele>40.8</ele>
        <time>2020-02-21T15:43:28Z</time>
      </trkpt>
      <trkpt lat="38.9637220" lon="1.2503400">
        <ele>40.8</ele>
        <time>2020-02-21T15:43:29Z</time>
      </trkpt>
      <trkpt lat="38.9636950" lon="1.2503920">
        <ele>40.8</ele>
        <time>2020-02-21T15:43:30Z</time>
      </trkpt>
      <trkpt lat="38.9636710" lon="1.2504370">
        <ele>40.8</ele>
        <time>2020-02-21T15:43:31Z</time>
      </trkpt>
      <trkpt lat="38.9636470" lon="1.2504780">
        <ele>40.8</ele>
        <time>2020-02-21T15:43:32Z</time>
      </trkpt>
      <trkpt lat="38.9636200" lon="1.2505180">
        <ele>40.8</ele>
        <time>2020-02-21T15:43:33Z</time>
      </trkpt>
      <trkpt lat="38.9635870" lon="1.2505630">
        <ele>40.8</ele>
        <time>2020-02-21T15:43:34Z</time>
      </trkpt>
      <trkpt lat="38.9635530" lon="1.2506050">
        <ele>40.7</ele>
        <time>2020-02-21T15:43:35Z</time>
      </trkpt>
      <trkpt lat="38.9635200" lon="1.2506450">
        <ele>40.7</ele>
        <time>2020-02-21T15:43:36Z</time>
      </trkpt>
      <trkpt lat="38.9634940" lon="1.2506850">
        <ele>40.7</ele>
        <time>2020-02-21T15:43:37Z</time>
      </trkpt>
      <trkpt lat="38.9634770" lon="1.2507440">
        <ele>40.7</ele>
        <time>2020-02-21T15:43:38Z</time>
      </trkpt>
      <trkpt lat="38.9634580" lon="1.2507880">
        <ele>40.7</ele>
        <time>2020-02-21T15:43:39Z</time>
      </trkpt>
      <trkpt lat="38.9634380" lon="1.2508270">
        <ele>40.7</ele>
        <time>2020-02-21T15:43:40Z</time>
      </trkpt>
      <trkpt lat="38.9634210" lon="1.2508690">
        <ele>40.7</ele>
        <time>2020-02-21T15:43:41Z</time>
      </trkpt>
      <trkpt lat="38.9633940" lon="1.2509270">
        <ele>40.7</ele>
        <time>2020-02-21T15:43:42Z</time>
      </trkpt>
      <trkpt lat="38.9633780" lon="1.2509890">
        <ele>40.7</ele>
        <time>2020-02-21T15:43:43Z</time>
      </trkpt>
      <trkpt lat="38.9633550" lon="1.2510320">
        <ele>40.7</ele>
        <time>2020-02-21T15:43:44Z</time>
      </trkpt>
      <trkpt lat="38.9633230" lon="1.2510770">
        <ele>40.7</ele>
        <time>2020-02-21T15:43:45Z</time>
      </trkpt>
      <trkpt lat="38.9633030" lon="1.2511200">
        <ele>40.7</ele>
        <time>2020-02-21T15:43:46Z</time>
      </trkpt>
      <trkpt lat="38.9632810" lon="1.2511550">
        <ele>40.7</ele>
        <time>2020-02-21T15:43:47Z</time>
      </trkpt>
      <trkpt lat="38.9632500" lon="1.2511950">
        <ele>40.7</ele>
        <time>2020-02-21T15:43:48Z</time>
      </trkpt>
      <trkpt lat="38.9632140" lon="1.2512420">
        <ele>40.7</ele>
        <time>2020-02-21T15:43:49Z</time>
      </trkpt>
      <trkpt lat="38.9631960" lon="1.2512860">
        <ele>40.7</ele>
        <time>2020-02-21T15:43:50Z</time>
      </trkpt>
      <trkpt lat="38.9631900" lon="1.2513410">
        <ele>40.8</ele>
        <time>2020-02-21T15:43:51Z</time>
      </trkpt>
      <trkpt lat="38.9631710" lon="1.2513900">
        <ele>40.8</ele>
        <time>2020-02-21T15:43:52Z</time>
      </trkpt>
      <trkpt lat="38.9631490" lon="1.2514300">
        <ele>40.8</ele>
        <time>2020-02-21T15:43:53Z</time>
      </trkpt>
      <trkpt lat="38.9631280" lon="1.2514760">
        <ele>40.8</ele>
        <time>2020-02-21T15:43:54Z</time>
      </trkpt>
      <trkpt lat="38.9631060" lon="1.2515230">
        <ele>40.9</ele>
        <time>2020-02-21T15:43:55Z</time>
      </trkpt>
      <trkpt lat="38.9630870" lon="1.2515690">
        <ele>40.9</ele>
        <time>2020-02-21T15:43:56Z</time>
      </trkpt>
      <trkpt lat="38.9630670" lon="1.2516150">
        <ele>40.9</ele>
        <time>2020-02-21T15:43:57Z</time>
      </trkpt>
      <trkpt lat="38.9630500" lon="1.2516670">
        <ele>41.0</ele>
        <time>2020-02-21T15:43:58Z</time>
      </trkpt>
      <trkpt lat="38.9630330" lon="1.2517270">
        <ele>41.0</ele>
        <time>2020-02-21T15:43:59Z</time>
      </trkpt>
      <trkpt lat="38.9630130" lon="1.2517740">
        <ele>41.1</ele>
        <time>2020-02-21T15:44:00Z</time>
      </trkpt>
      <trkpt lat="38.9629980" lon="1.2518240">
        <ele>41.1</ele>
        <time>2020-02-21T15:44:01Z</time>
      </trkpt>
      <trkpt lat="38.9629880" lon="1.2518690">
        <ele>41.1</ele>
        <time>2020-02-21T15:44:02Z</time>
      </trkpt>
      <trkpt lat="38.9629860" lon="1.2519170">
        <ele>41.2</ele>
        <time>2020-02-21T15:44:03Z</time>
      </trkpt>
      <trkpt lat="38.9629750" lon="1.2519590">
        <ele>41.2</ele>
        <time>2020-02-21T15:44:04Z</time>
      </trkpt>
      <trkpt lat="38.9629650" lon="1.2520020">
        <ele>41.3</ele>
        <time>2020-02-21T15:44:05Z</time>
      </trkpt>
      <trkpt lat="38.9629540" lon="1.2520560">
        <ele>41.3</ele>
        <time>2020-02-21T15:44:06Z</time>
      </trkpt>
      <trkpt lat="38.9629390" lon="1.2521070">
        <ele>41.4</ele>
        <time>2020-02-21T15:44:07Z</time>
      </trkpt>
      <trkpt lat="38.9629140" lon="1.2521540">
        <ele>41.4</ele>
        <time>2020-02-21T15:44:08Z</time>
      </trkpt>
      <trkpt lat="38.9628910" lon="1.2521990">
        <ele>41.4</ele>
        <time>2020-02-21T15:44:09Z</time>
      </trkpt>
      <trkpt lat="38.9628660" lon="1.2522410">
        <ele>41.5</ele>
        <time>2020-02-21T15:44:10Z</time>
      </trkpt>
      <trkpt lat="38.9628360" lon="1.2522850">
        <ele>41.5</ele>
        <time>2020-02-21T15:44:11Z</time>
      </trkpt>
      <trkpt lat="38.9628070" lon="1.2523260">
        <ele>41.5</ele>
        <time>2020-02-21T15:44:12Z</time>
      </trkpt>
      <trkpt lat="38.9627870" lon="1.2523660">
        <ele>41.5</ele>
        <time>2020-02-21T15:44:13Z</time>
      </trkpt>
      <trkpt lat="38.9627690" lon="1.2524160">
        <ele>41.6</ele>
        <time>2020-02-21T15:44:14Z</time>
      </trkpt>
      <trkpt lat="38.9627490" lon="1.2524690">
        <ele>41.6</ele>
        <time>2020-02-21T15:44:15Z</time>
      </trkpt>
      <trkpt lat="38.9627280" lon="1.2525170">
        <ele>41.7</ele>
        <time>2020-02-21T15:44:16Z</time>
      </trkpt>
      <trkpt lat="38.9627110" lon="1.2525650">
        <ele>41.7</ele>
        <time>2020-02-21T15:44:17Z</time>
      </trkpt>
      <trkpt lat="38.9626940" lon="1.2526080">
        <ele>41.8</ele>
        <time>2020-02-21T15:44:18Z</time>
      </trkpt>
      <trkpt lat="38.9626860" lon="1.2526470">
        <ele>41.8</ele>
        <time>2020-02-21T15:44:19Z</time>
      </trkpt>
      <trkpt lat="38.9626750" lon="1.2526830">
        <ele>41.8</ele>
        <time>2020-02-21T15:44:20Z</time>
      </trkpt>
      <trkpt lat="38.9626570" lon="1.2527190">
        <ele>41.9</ele>
        <time>2020-02-21T15:44:21Z</time>
      </trkpt>
      <trkpt lat="38.9626380" lon="1.2527690">
        <ele>41.9</ele>
        <time>2020-02-21T15:44:22Z</time>
      </trkpt>
      <trkpt lat="38.9626130" lon="1.2528210">
        <ele>42.0</ele>
        <time>2020-02-21T15:44:23Z</time>
      </trkpt>
      <trkpt lat="38.9625920" lon="1.2528720">
        <ele>42.1</ele>
        <time>2020-02-21T15:44:24Z</time>
      </trkpt>
      <trkpt lat="38.9625790" lon="1.2529220">
        <ele>42.1</ele>
        <time>2020-02-21T15:44:25Z</time>
      </trkpt>
      <trkpt lat="38.9625630" lon="1.2529720">
        <ele>42.2</ele>
        <time>2020-02-21T15:44:26Z</time>
      </trkpt>
      <trkpt lat="38.9625450" lon="1.2530210">
        <ele>42.2</ele>
        <time>2020-02-21T15:44:27Z</time>
      </trkpt>
      <trkpt lat="38.9625310" lon="1.2530790">
        <ele>42.3</ele>
        <time>2020-02-21T15:44:28Z</time>
      </trkpt>
      <trkpt lat="38.9625210" lon="1.2531230">
        <ele>42.3</ele>
        <time>2020-02-21T15:44:29Z</time>
      </trkpt>
      <trkpt lat="38.9625050" lon="1.2531670">
        <ele>42.4</ele>
        <time>2020-02-21T15:44:30Z</time>
      </trkpt>
      <trkpt lat="38.9624800" lon="1.2531890">
        <ele>42.5</ele>
        <time>2020-02-21T15:44:31Z</time>
      </trkpt>
      <trkpt lat="38.9624490" lon="1.2532280">
        <ele>42.6</ele>
        <time>2020-02-21T15:44:32Z</time>
      </trkpt>
      <trkpt lat="38.9624170" lon="1.2532680">
        <ele>42.6</ele>
        <time>2020-02-21T15:44:33Z</time>
      </trkpt>
      <trkpt lat="38.9623900" lon="1.2533040">
        <ele>42.7</ele>
        <time>2020-02-21T15:44:34Z</time>
      </trkpt>
      <trkpt lat="38.9623720" lon="1.2533400">
        <ele>42.7</ele>
        <time>2020-02-21T15:44:35Z</time>
      </trkpt>
      <trkpt lat="38.9623400" lon="1.2533730">
        <ele>42.8</ele>
        <time>2020-02-21T15:44:36Z</time>
      </trkpt>
      <trkpt lat="38.9623150" lon="1.2534120">
        <ele>42.9</ele>
        <time>2020-02-21T15:44:37Z</time>
      </trkpt>
      <trkpt lat="38.9622970" lon="1.2534550">
        <ele>42.9</ele>
        <time>2020-02-21T15:44:38Z</time>
      </trkpt>
      <trkpt lat="38.9622800" lon="1.2534980">
        <ele>43.0</ele>
        <time>2020-02-21T15:44:39Z</time>
      </trkpt>
      <trkpt lat="38.9622560" lon="1.2535460">
        <ele>43.0</ele>
        <time>2020-02-21T15:44:40Z</time>
      </trkpt>
      <trkpt lat="38.9622160" lon="1.2536020">
        <ele>43.1</ele>
        <time>2020-02-21T15:44:41Z</time>
      </trkpt>
      <trkpt lat="38.9621980" lon="1.2536390">
        <ele>43.1</ele>
        <time>2020-02-21T15:44:42Z</time>
      </trkpt>
      <trkpt lat="38.9621780" lon="1.2536830">
        <ele>43.2</ele>
        <time>2020-02-21T15:44:43Z</time>
      </trkpt>
      <trkpt lat="38.9621520" lon="1.2537190">
        <ele>43.2</ele>
        <time>2020-02-21T15:44:44Z</time>
      </trkpt>
      <trkpt lat="38.9621230" lon="1.2537650">
        <ele>43.3</ele>
        <time>2020-02-21T15:44:45Z</time>
      </trkpt>
      <trkpt lat="38.9621060" lon="1.2538080">
        <ele>43.4</ele>
        <time>2020-02-21T15:44:46Z</time>
      </trkpt>
      <trkpt lat="38.9620890" lon="1.2538500">
        <ele>43.4</ele>
        <time>2020-02-21T15:44:47Z</time>
      </trkpt>
      <trkpt lat="38.9620800" lon="1.2538990">
        <ele>43.5</ele>
        <time>2020-02-21T15:44:48Z</time>
      </trkpt>
      <trkpt lat="38.9620630" lon="1.2539400">
        <ele>43.5</ele>
        <time>2020-02-21T15:44:49Z</time>
      </trkpt>
      <trkpt lat="38.9620460" lon="1.2539810">
        <ele>43.6</ele>
        <time>2020-02-21T15:44:50Z</time>
      </trkpt>
      <trkpt lat="38.9620380" lon="1.2540240">
        <ele>43.7</ele>
        <time>2020-02-21T15:44:51Z</time>
      </trkpt>
      <trkpt lat="38.9620240" lon="1.2540650">
        <ele>43.8</ele>
        <time>2020-02-21T15:44:52Z</time>
      </trkpt>
      <trkpt lat="38.9620060" lon="1.2541060">
        <ele>43.9</ele>
        <time>2020-02-21T15:44:53Z</time>
      </trkpt>
      <trkpt lat="38.9619820" lon="1.2541430">
        <ele>44.0</ele>
        <time>2020-02-21T15:44:54Z</time>
      </trkpt>
      <trkpt lat="38.9619550" lon="1.2541770">
        <ele>44.1</ele>
        <time>2020-02-21T15:44:55Z</time>
      </trkpt>
      <trkpt lat="38.9619370" lon="1.2542190">
        <ele>44.2</ele>
        <time>2020-02-21T15:44:56Z</time>
      </trkpt>
      <trkpt lat="38.9619070" lon="1.2542490">
        <ele>44.4</ele>
        <time>2020-02-21T15:44:57Z</time>
      </trkpt>
      <trkpt lat="38.9618850" lon="1.2542710">
        <ele>44.5</ele>
        <time>2020-02-21T15:44:58Z</time>
      </trkpt>
      <trkpt lat="38.9618650" lon="1.2543010">
        <ele>44.5</ele>
        <time>2020-02-21T15:44:59Z</time>
      </trkpt>
      <trkpt lat="38.9618420" lon="1.2543250">
        <ele>44.6</ele>
        <time>2020-02-21T15:45:00Z</time>
      </trkpt>
      <trkpt lat="38.9618240" lon="1.2543510">
        <ele>44.7</ele>
        <time>2020-02-21T15:45:01Z</time>
      </trkpt>
      <trkpt lat="38.9617910" lon="1.2543730">
        <ele>44.8</ele>
        <time>2020-02-21T15:45:02Z</time>
      </trkpt>
      <trkpt lat="38.9617700" lon="1.2544000">
        <ele>44.9</ele>
        <time>2020-02-21T15:45:03Z</time>
      </trkpt>
      <trkpt lat="38.9617610" lon="1.2544100">
        <ele>45.0</ele>
        <time>2020-02-21T15:45:04Z</time>
      </trkpt>
      <trkpt lat="38.9617450" lon="1.2544540">
        <ele>45.1</ele>
        <time>2020-02-21T15:45:05Z</time>
      </trkpt>
      <trkpt lat="38.9617400" lon="1.2544750">
        <ele>45.2</ele>
        <time>2020-02-21T15:45:06Z</time>
      </trkpt>
      <trkpt lat="38.9617170" lon="1.2545110">
        <ele>45.3</ele>
        <time>2020-02-21T15:45:07Z</time>
      </trkpt>
      <trkpt lat="38.9617100" lon="1.2545270">
        <ele>45.4</ele>
        <time>2020-02-21T15:45:08Z</time>
      </trkpt>
      <trkpt lat="38.9617000" lon="1.2545510">
        <ele>45.4</ele>
        <time>2020-02-21T15:45:09Z</time>
      </trkpt>
      <trkpt lat="38.9616940" lon="1.2545650">
        <ele>45.5</ele>
        <time>2020-02-21T15:45:10Z</time>
      </trkpt>
      <trkpt lat="38.9616720" lon="1.2545960">
        <ele>45.6</ele>
        <time>2020-02-21T15:45:11Z</time>
      </trkpt>
      <trkpt lat="38.9616620" lon="1.2546080">
        <ele>45.7</ele>
        <time>2020-02-21T15:45:12Z</time>
      </trkpt>
      <trkpt lat="38.9616460" lon="1.2546410">
        <ele>45.8</ele>
        <time>2020-02-21T15:45:13Z</time>
      </trkpt>
      <trkpt lat="38.9616280" lon="1.2546740">
        <ele>45.9</ele>
        <time>2020-02-21T15:45:14Z</time>
      </trkpt>
      <trkpt lat="38.9616220" lon="1.2546840">
        <ele>45.9</ele>
        <time>2020-02-21T15:45:15Z</time>
      </trkpt>
      <trkpt lat="38.9616100" lon="1.2547180">
        <ele>46.0</ele>
        <time>2020-02-21T15:45:16Z</time>
      </trkpt>
      <trkpt lat="38.9616070" lon="1.2547290">
        <ele>46.1</ele>
        <time>2020-02-21T15:45:17Z</time>
      </trkpt>
      <trkpt lat="38.9616020" lon="1.2547700">
        <ele>46.2</ele>
        <time>2020-02-21T15:45:18Z</time>
      </trkpt>
      <trkpt lat="38.9615950" lon="1.2547840">
        <ele>46.3</ele>
        <time>2020-02-21T15:45:19Z</time>
      </trkpt>
      <trkpt lat="38.9615830" lon="1.2548020">
        <ele>46.3</ele>
        <time>2020-02-21T15:45:20Z</time>
      </trkpt>
      <trkpt lat="38.9615750" lon="1.2548180">
        <ele>46.4</ele>
        <time>2020-02-21T15:45:21Z</time>
      </trkpt>
      <trkpt lat="38.9615650" lon="1.2548360">
        <ele>46.5</ele>
        <time>2020-02-21T15:45:22Z</time>
      </trkpt>
      <trkpt lat="38.9615660" lon="1.2548630">
        <ele>46.5</ele>
        <time>2020-02-21T15:45:23Z</time>
      </trkpt>
      <trkpt lat="38.9615690" lon="1.2549010">
        <ele>46.7</ele>
        <time>2020-02-21T15:45:24Z</time>
      </trkpt>
      <trkpt lat="38.9615680" lon="1.2549130">
        <ele>46.7</ele>
        <time>2020-02-21T15:45:25Z</time>
      </trkpt>
      <trkpt lat="38.9615600" lon="1.2549320">
        <ele>46.8</ele>
        <time>2020-02-21T15:45:26Z</time>
      </trkpt>
      <trkpt lat="38.9615520" lon="1.2549460">
        <ele>46.8</ele>
        <time>2020-02-21T15:45:27Z</time>
      </trkpt>
      <trkpt lat="38.9615400" lon="1.2549830">
        <ele>47.0</ele>
        <time>2020-02-21T15:45:28Z</time>
      </trkpt>
      <trkpt lat="38.9615350" lon="1.2549960">
        <ele>47.0</ele>
        <time>2020-02-21T15:45:29Z</time>
      </trkpt>
      <trkpt lat="38.9615120" lon="1.2550180">
        <ele>47.2</ele>
        <time>2020-02-21T15:45:30Z</time>
      </trkpt>
      <trkpt lat="38.9615160" lon="1.2550650">
        <ele>47.3</ele>
        <time>2020-02-21T15:45:31Z</time>
      </trkpt>
      <trkpt lat="38.9615200" lon="1.2550820">
        <ele>47.4</ele>
        <time>2020-02-21T15:45:32Z</time>
      </trkpt>
      <trkpt lat="38.9615280" lon="1.2551150">
        <ele>47.5</ele>
        <time>2020-02-21T15:45:33Z</time>
      </trkpt>
      <trkpt lat="38.9615280" lon="1.2551310">
        <ele>47.6</ele>
        <time>2020-02-21T15:45:34Z</time>
      </trkpt>
      <trkpt lat="38.9615240" lon="1.2551780">
        <ele>47.8</ele>
        <time>2020-02-21T15:45:35Z</time>
      </trkpt>
      <trkpt lat="38.9615220" lon="1.2551940">
        <ele>47.8</ele>
        <time>2020-02-21T15:45:36Z</time>
      </trkpt>
      <trkpt lat="38.9615270" lon="1.2552290">
        <ele>48.0</ele>
        <time>2020-02-21T15:45:37Z</time>
      </trkpt>
      <trkpt lat="38.9615280" lon="1.2552430">
        <ele>48.0</ele>
        <time>2020-02-21T15:45:38Z</time>
      </trkpt>
      <trkpt lat="38.9615340" lon="1.2552790">
        <ele>48.2</ele>
        <time>2020-02-21T15:45:39Z</time>
      </trkpt>
      <trkpt lat="38.9615450" lon="1.2553140">
        <ele>48.3</ele>
        <time>2020-02-21T15:45:40Z</time>
      </trkpt>
      <trkpt lat="38.9615650" lon="1.2553560">
        <ele>48.5</ele>
        <time>2020-02-21T15:45:41Z</time>
      </trkpt>
      <trkpt lat="38.9615720" lon="1.2553710">
        <ele>48.6</ele>
        <time>2020-02-21T15:45:42Z</time>
      </trkpt>
      <trkpt lat="38.9615850" lon="1.2554130">
        <ele>48.8</ele>
        <time>2020-02-21T15:45:43Z</time>
      </trkpt>
      <trkpt lat="38.9615900" lon="1.2554310">
        <ele>48.8</ele>
        <time>2020-02-21T15:45:44Z</time>
      </trkpt>
      <trkpt lat="38.9615990" lon="1.2554810">
        <ele>49.0</ele>
        <time>2020-02-21T15:45:45Z</time>
      </trkpt>
      <trkpt lat="38.9616070" lon="1.2554960">
        <ele>49.1</ele>
        <time>2020-02-21T15:45:46Z</time>
      </trkpt>
      <trkpt lat="38.9616200" lon="1.2555280">
        <ele>49.2</ele>
        <time>2020-02-21T15:45:47Z</time>
      </trkpt>
      <trkpt lat="38.9616470" lon="1.2555670">
        <ele>49.4</ele>
        <time>2020-02-21T15:45:48Z</time>
      </trkpt>
      <trkpt lat="38.9616560" lon="1.2555820">
        <ele>49.5</ele>
        <time>2020-02-21T15:45:49Z</time>
      </trkpt>
      <trkpt lat="38.9616780" lon="1.2556100">
        <ele>49.6</ele>
        <time>2020-02-21T15:45:50Z</time>
      </trkpt>
      <trkpt lat="38.9616990" lon="1.2556350">
        <ele>49.8</ele>
        <time>2020-02-21T15:45:51Z</time>
      </trkpt>
      <trkpt lat="38.9617220" lon="1.2556590">
        <ele>49.7</ele>
        <time>2020-02-21T15:45:52Z</time>
      </trkpt>
      <trkpt lat="38.9617510" lon="1.2556870">
        <ele>49.6</ele>
        <time>2020-02-21T15:45:53Z</time>
      </trkpt>
      <trkpt lat="38.9617600" lon="1.2556990">
        <ele>49.5</ele>
        <time>2020-02-21T15:45:54Z</time>
      </trkpt>
      <trkpt lat="38.9617830" lon="1.2557370">
        <ele>49.4</ele>
        <time>2020-02-21T15:45:55Z</time>
      </trkpt>
      <trkpt lat="38.9618070" lon="1.2557740">
        <ele>49.3</ele>
        <time>2020-02-21T15:45:56Z</time>
      </trkpt>
      <trkpt lat="38.9618330" lon="1.2558020">
        <ele>49.2</ele>
        <time>2020-02-21T15:45:57Z</time>
      </trkpt>
      <trkpt lat="38.9618510" lon="1.2558280">
        <ele>49.1</ele>
        <time>2020-02-21T15:45:58Z</time>
      </trkpt>
      <trkpt lat="38.9618730" lon="1.2558800">
        <ele>48.9</ele>
        <time>2020-02-21T15:45:59Z</time>
      </trkpt>
      <trkpt lat="38.9618880" lon="1.2559350">
        <ele>48.8</ele>
        <time>2020-02-21T15:46:00Z</time>
      </trkpt>
      <trkpt lat="38.9618910" lon="1.2560000">
        <ele>48.6</ele>
        <time>2020-02-21T15:46:01Z</time>
      </trkpt>
      <trkpt lat="38.9618940" lon="1.2560560">
        <ele>48.4</ele>
        <time>2020-02-21T15:46:02Z</time>
      </trkpt>
      <trkpt lat="38.9619030" lon="1.2561070">
        <ele>48.3</ele>
        <time>2020-02-21T15:46:03Z</time>
      </trkpt>
      <trkpt lat="38.9619250" lon="1.2561590">
        <ele>48.1</ele>
        <time>2020-02-21T15:46:04Z</time>
      </trkpt>
      <trkpt lat="38.9619580" lon="1.2562050">
        <ele>47.9</ele>
        <time>2020-02-21T15:46:05Z</time>
      </trkpt>
      <trkpt lat="38.9619980" lon="1.2562410">
        <ele>47.7</ele>
        <time>2020-02-21T15:46:06Z</time>
      </trkpt>
      <trkpt lat="38.9620430" lon="1.2562740">
        <ele>47.6</ele>
        <time>2020-02-21T15:46:07Z</time>
      </trkpt>
      <trkpt lat="38.9620860" lon="1.2562940">
        <ele>47.4</ele>
        <time>2020-02-21T15:46:08Z</time>
      </trkpt>
      <trkpt lat="38.9621280" lon="1.2563110">
        <ele>47.2</ele>
        <time>2020-02-21T15:46:09Z</time>
      </trkpt>
      <trkpt lat="38.9621670" lon="1.2563260">
        <ele>47.1</ele>
        <time>2020-02-21T15:46:10Z</time>
      </trkpt>
      <trkpt lat="38.9622070" lon="1.2563550">
        <ele>47.0</ele>
        <time>2020-02-21T15:46:11Z</time>
      </trkpt>
      <trkpt lat="38.9622350" lon="1.2564040">
        <ele>46.8</ele>
        <time>2020-02-21T15:46:12Z</time>
      </trkpt>
      <trkpt lat="38.9622510" lon="1.2564460">
        <ele>46.7</ele>
        <time>2020-02-21T15:46:13Z</time>
      </trkpt>
      <trkpt lat="38.9622680" lon="1.2564990">
        <ele>46.0</ele>
        <time>2020-02-21T15:46:14Z</time>
      </trkpt>
      <trkpt lat="38.9622830" lon="1.2565560">
        <ele>45.5</ele>
        <time>2020-02-21T15:46:15Z</time>
      </trkpt>
      <trkpt lat="38.9622880" lon="1.2566060">
        <ele>45.0</ele>
        <time>2020-02-21T15:46:16Z</time>
      </trkpt>
      <trkpt lat="38.9622920" lon="1.2566620">
        <ele>44.6</ele>
        <time>2020-02-21T15:46:17Z</time>
      </trkpt>
      <trkpt lat="38.9622940" lon="1.2567200">
        <ele>44.2</ele>
        <time>2020-02-21T15:46:18Z</time>
      </trkpt>
      <trkpt lat="38.9623020" lon="1.2567750">
        <ele>43.9</ele>
        <time>2020-02-21T15:46:19Z</time>
      </trkpt>
      <trkpt lat="38.9623250" lon="1.2568270">
        <ele>43.6</ele>
        <time>2020-02-21T15:46:20Z</time>
      </trkpt>
      <trkpt lat="38.9623520" lon="1.2568850">
        <ele>43.2</ele>
        <time>2020-02-21T15:46:21Z</time>
      </trkpt>
      <trkpt lat="38.9623790" lon="1.2569380">
        <ele>42.9</ele>
        <time>2020-02-21T15:46:22Z</time>
      </trkpt>
      <trkpt lat="38.9624030" lon="1.2569990">
        <ele>42.5</ele>
        <time>2020-02-21T15:46:23Z</time>
      </trkpt>
      <trkpt lat="38.9624190" lon="1.2570580">
        <ele>42.0</ele>
        <time>2020-02-21T15:46:24Z</time>
      </trkpt>
      <trkpt lat="38.9624320" lon="1.2571220">
        <ele>41.5</ele>
        <time>2020-02-21T15:46:25Z</time>
      </trkpt>
      <trkpt lat="38.9624280" lon="1.2571750">
        <ele>41.2</ele>
        <time>2020-02-21T15:46:26Z</time>
      </trkpt>
      <trkpt lat="38.9624200" lon="1.2572290">
        <ele>40.8</ele>
        <time>2020-02-21T15:46:27Z</time>
      </trkpt>
      <trkpt lat="38.9624190" lon="1.2572970">
        <ele>40.4</ele>
        <time>2020-02-21T15:46:28Z</time>
      </trkpt>
      <trkpt lat="38.9624380" lon="1.2573700">
        <ele>39.8</ele>
        <time>2020-02-21T15:46:29Z</time>
      </trkpt>
      <trkpt lat="38.9624450" lon="1.2574380">
        <ele>39.2</ele>
        <time>2020-02-21T15:46:30Z</time>
      </trkpt>
      <trkpt lat="38.9624430" lon="1.2575010">
        <ele>38.4</ele>
        <time>2020-02-21T15:46:31Z</time>
      </trkpt>
      <trkpt lat="38.9624550" lon="1.2575640">
        <ele>37.8</ele>
        <time>2020-02-21T15:46:32Z</time>
      </trkpt>
      <trkpt lat="38.9624630" lon="1.2576300">
        <ele>37.3</ele>
        <time>2020-02-21T15:46:33Z</time>
      </trkpt>
      <trkpt lat="38.9624630" lon="1.2577050">
        <ele>36.8</ele>
        <time>2020-02-21T15:46:34Z</time>
      </trkpt>
      <trkpt lat="38.9624620" lon="1.2577750">
        <ele>36.4</ele>
        <time>2020-02-21T15:46:35Z</time>
      </trkpt>
      <trkpt lat="38.9624500" lon="1.2578590">
        <ele>36.0</ele>
        <time>2020-02-21T15:46:36Z</time>
      </trkpt>
      <trkpt lat="38.9624260" lon="1.2579480">
        <ele>35.5</ele>
        <time>2020-02-21T15:46:37Z</time>
      </trkpt>
      <trkpt lat="38.9624130" lon="1.2580310">
        <ele>34.9</ele>
        <time>2020-02-21T15:46:38Z</time>
      </trkpt>
      <trkpt lat="38.9624020" lon="1.2581000">
        <ele>34.5</ele>
        <time>2020-02-21T15:46:39Z</time>
      </trkpt>
      <trkpt lat="38.9623920" lon="1.2581630">
        <ele>34.1</ele>
        <time>2020-02-21T15:46:40Z</time>
      </trkpt>
      <trkpt lat="38.9623860" lon="1.2582280">
        <ele>33.8</ele>
        <time>2020-02-21T15:46:41Z</time>
      </trkpt>
      <trkpt lat="38.9623790" lon="1.2582880">
        <ele>33.4</ele>
        <time>2020-02-21T15:46:42Z</time>
      </trkpt>
      <trkpt lat="38.9623570" lon="1.2583570">
        <ele>32.8</ele>
        <time>2020-02-21T15:46:43Z</time>
      </trkpt>
      <trkpt lat="38.9623430" lon="1.2584240">
        <ele>32.3</ele>
        <time>2020-02-21T15:46:44Z</time>
      </trkpt>
      <trkpt lat="38.9623300" lon="1.2585000">
        <ele>31.8</ele>
        <time>2020-02-21T15:46:45Z</time>
      </trkpt>
      <trkpt lat="38.9623230" lon="1.2585780">
        <ele>31.4</ele>
        <time>2020-02-21T15:46:46Z</time>
      </trkpt>
      <trkpt lat="38.9623110" lon="1.2586440">
        <ele>30.9</ele>
        <time>2020-02-21T15:46:47Z</time>
      </trkpt>
      <trkpt lat="38.9622980" lon="1.2587130">
        <ele>30.6</ele>
        <time>2020-02-21T15:46:48Z</time>
      </trkpt>
      <trkpt lat="38.9622850" lon="1.2587790">
        <ele>30.4</ele>
        <time>2020-02-21T15:46:49Z</time>
      </trkpt>
      <trkpt lat="38.9622710" lon="1.2588540">
        <ele>30.0</ele>
        <time>2020-02-21T15:46:50Z</time>
      </trkpt>
      <trkpt lat="38.9622590" lon="1.2589290">
        <ele>29.6</ele>
        <time>2020-02-21T15:46:51Z</time>
      </trkpt>
      <trkpt lat="38.9622630" lon="1.2590010">
        <ele>29.2</ele>
        <time>2020-02-21T15:46:52Z</time>
      </trkpt>
      <trkpt lat="38.9622640" lon="1.2590720">
        <ele>28.9</ele>
        <time>2020-02-21T15:46:53Z</time>
      </trkpt>
      <trkpt lat="38.9622530" lon="1.2591420">
        <ele>28.6</ele>
        <time>2020-02-21T15:46:54Z</time>
      </trkpt>
      <trkpt lat="38.9622300" lon="1.2592150">
        <ele>28.3</ele>
        <time>2020-02-21T15:46:55Z</time>
      </trkpt>
      <trkpt lat="38.9622140" lon="1.2592870">
        <ele>28.0</ele>
        <time>2020-02-21T15:46:56Z</time>
      </trkpt>
      <trkpt lat="38.9622040" lon="1.2593570">
        <ele>27.7</ele>
        <time>2020-02-21T15:46:57Z</time>
      </trkpt>
      <trkpt lat="38.9621960" lon="1.2594140">
        <ele>27.4</ele>
        <time>2020-02-21T15:46:58Z</time>
      </trkpt>
      <trkpt lat="38.9621860" lon="1.2594960">
        <ele>27.0</ele>
        <time>2020-02-21T15:46:59Z</time>
      </trkpt>
      <trkpt lat="38.9621780" lon="1.2595770">
        <ele>26.6</ele>
        <time>2020-02-21T15:47:00Z</time>
      </trkpt>
      <trkpt lat="38.9621730" lon="1.2596560">
        <ele>26.1</ele>
        <time>2020-02-21T15:47:01Z</time>
      </trkpt>
      <trkpt lat="38.9621610" lon="1.2597320">
        <ele>25.8</ele>
        <time>2020-02-21T15:47:02Z</time>
      </trkpt>
      <trkpt lat="38.9621490" lon="1.2598060">
        <ele>25.5</ele>
        <time>2020-02-21T15:47:03Z</time>
      </trkpt>
      <trkpt lat="38.9621430" lon="1.2598840">
        <ele>25.2</ele>
        <time>2020-02-21T15:47:04Z</time>
      </trkpt>
      <trkpt lat="38.9621390" lon="1.2599680">
        <ele>24.8</ele>
        <time>2020-02-21T15:47:05Z</time>
      </trkpt>
      <trkpt lat="38.9621390" lon="1.2600470">
        <ele>24.4</ele>
        <time>2020-02-21T15:47:06Z</time>
      </trkpt>
      <trkpt lat="38.9621370" lon="1.2601450">
        <ele>24.0</ele>
        <time>2020-02-21T15:47:07Z</time>
      </trkpt>
      <trkpt lat="38.9621310" lon="1.2602400">
        <ele>23.7</ele>
        <time>2020-02-21T15:47:08Z</time>
      </trkpt>
      <trkpt lat="38.9621210" lon="1.2603260">
        <ele>23.5</ele>
        <time>2020-02-21T15:47:09Z</time>
      </trkpt>
      <trkpt lat="38.9621040" lon="1.2604340">
        <ele>23.3</ele>
        <time>2020-02-21T15:47:10Z</time>
      </trkpt>
      <trkpt lat="38.9620910" lon="1.2605380">
        <ele>23.1</ele>
        <time>2020-02-21T15:47:11Z</time>
      </trkpt>
      <trkpt lat="38.9620820" lon="1.2606290">
        <ele>22.9</ele>
        <time>2020-02-21T15:47:12Z</time>
      </trkpt>
      <trkpt lat="38.9620740" lon="1.2607140">
        <ele>22.8</ele>
        <time>2020-02-21T15:47:13Z</time>
      </trkpt>
      <trkpt lat="38.9620680" lon="1.2607920">
        <ele>22.6</ele>
        <time>2020-02-21T15:47:14Z</time>
      </trkpt>
      <trkpt lat="38.9620600" lon="1.2608800">
        <ele>22.4</ele>
        <time>2020-02-21T15:47:15Z</time>
      </trkpt>
      <trkpt lat="38.9620520" lon="1.2609650">
        <ele>22.3</ele>
        <time>2020-02-21T15:47:16Z</time>
      </trkpt>
      <trkpt lat="38.9620410" lon="1.2610480">
        <ele>22.1</ele>
        <time>2020-02-21T15:47:17Z</time>
      </trkpt>
      <trkpt lat="38.9620310" lon="1.2611340">
        <ele>21.9</ele>
        <time>2020-02-21T15:47:18Z</time>
      </trkpt>
      <trkpt lat="38.9620220" lon="1.2612190">
        <ele>21.7</ele>
        <time>2020-02-21T15:47:19Z</time>
      </trkpt>
      <trkpt lat="38.9620140" lon="1.2613040">
        <ele>21.5</ele>
        <time>2020-02-21T15:47:20Z</time>
      </trkpt>
      <trkpt lat="38.9620070" lon="1.2613860">
        <ele>21.4</ele>
        <time>2020-02-21T15:47:21Z</time>
      </trkpt>
      <trkpt lat="38.9620000" lon="1.2614680">
        <ele>21.2</ele>
        <time>2020-02-21T15:47:22Z</time>
      </trkpt>
      <trkpt lat="38.9619940" lon="1.2615500">
        <ele>21.1</ele>
        <time>2020-02-21T15:47:23Z</time>
      </trkpt>
      <trkpt lat="38.9619830" lon="1.2616280">
        <ele>20.9</ele>
        <time>2020-02-21T15:47:24Z</time>
      </trkpt>
      <trkpt lat="38.9619740" lon="1.2617000">
        <ele>20.8</ele>
        <time>2020-02-21T15:47:25Z</time>
      </trkpt>
      <trkpt lat="38.9619580" lon="1.2617740">
        <ele>20.7</ele>
        <time>2020-02-21T15:47:26Z</time>
      </trkpt>
      <trkpt lat="38.9619350" lon="1.2618470">
        <ele>20.6</ele>
        <time>2020-02-21T15:47:27Z</time>
      </trkpt>
      <trkpt lat="38.9619220" lon="1.2619200">
        <ele>20.5</ele>
        <time>2020-02-21T15:47:28Z</time>
      </trkpt>
      <trkpt lat="38.9619300" lon="1.2619890">
        <ele>20.2</ele>
        <time>2020-02-21T15:47:29Z</time>
      </trkpt>
      <trkpt lat="38.9619290" lon="1.2620580">
        <ele>20.1</ele>
        <time>2020-02-21T15:47:30Z</time>
      </trkpt>
      <trkpt lat="38.9619230" lon="1.2621260">
        <ele>19.9</ele>
        <time>2020-02-21T15:47:31Z</time>
      </trkpt>
      <trkpt lat="38.9619180" lon="1.2621990">
        <ele>19.7</ele>
        <time>2020-02-21T15:47:32Z</time>
      </trkpt>
      <trkpt lat="38.9619210" lon="1.2622680">
        <ele>19.6</ele>
        <time>2020-02-21T15:47:33Z</time>
      </trkpt>
      <trkpt lat="38.9619130" lon="1.2623300">
        <ele>19.5</ele>
        <time>2020-02-21T15:47:34Z</time>
      </trkpt>
      <trkpt lat="38.9619080" lon="1.2623940">
        <ele>19.3</ele>
        <time>2020-02-21T15:47:35Z</time>
      </trkpt>
      <trkpt lat="38.9619060" lon="1.2624580">
        <ele>19.1</ele>
        <time>2020-02-21T15:47:36Z</time>
      </trkpt>
      <trkpt lat="38.9618870" lon="1.2625190">
        <ele>19.0</ele>
        <time>2020-02-21T15:47:37Z</time>
      </trkpt>
      <trkpt lat="38.9618750" lon="1.2625800">
        <ele>18.9</ele>
        <time>2020-02-21T15:47:38Z</time>
      </trkpt>
      <trkpt lat="38.9618740" lon="1.2626410">
        <ele>18.8</ele>
        <time>2020-02-21T15:47:39Z</time>
      </trkpt>
      <trkpt lat="38.9618610" lon="1.2627030">
        <ele>18.7</ele>
        <time>2020-02-21T15:47:40Z</time>
      </trkpt>
      <trkpt lat="38.9618430" lon="1.2627700">
        <ele>18.5</ele>
        <time>2020-02-21T15:47:41Z</time>
      </trkpt>
      <trkpt lat="38.9618200" lon="1.2628360">
        <ele>18.3</ele>
        <time>2020-02-21T15:47:42Z</time>
      </trkpt>
      <trkpt lat="38.9618030" lon="1.2629070">
        <ele>18.2</ele>
        <time>2020-02-21T15:47:43Z</time>
      </trkpt>
      <trkpt lat="38.9617940" lon="1.2629750">
        <ele>18.0</ele>
        <time>2020-02-21T15:47:44Z</time>
      </trkpt>
      <trkpt lat="38.9617810" lon="1.2630430">
        <ele>17.9</ele>
        <time>2020-02-21T15:47:45Z</time>
      </trkpt>
      <trkpt lat="38.9617810" lon="1.2631120">
        <ele>17.6</ele>
        <time>2020-02-21T15:47:46Z</time>
      </trkpt>
      <trkpt lat="38.9617770" lon="1.2631830">
        <ele>17.3</ele>
        <time>2020-02-21T15:47:47Z</time>
      </trkpt>
      <trkpt lat="38.9617780" lon="1.2632520">
        <ele>17.2</ele>
        <time>2020-02-21T15:47:48Z</time>
      </trkpt>
      <trkpt lat="38.9617760" lon="1.2633210">
        <ele>17.1</ele>
        <time>2020-02-21T15:47:49Z</time>
      </trkpt>
      <trkpt lat="38.9617760" lon="1.2633880">
        <ele>16.9</ele>
        <time>2020-02-21T15:47:50Z</time>
      </trkpt>
      <trkpt lat="38.9617870" lon="1.2634570">
        <ele>16.8</ele>
        <time>2020-02-21T15:47:51Z</time>
      </trkpt>
      <trkpt lat="38.9617950" lon="1.2635340">
        <ele>16.6</ele>
        <time>2020-02-21T15:47:52Z</time>
      </trkpt>
      <trkpt lat="38.9617910" lon="1.2636100">
        <ele>16.5</ele>
        <time>2020-02-21T15:47:53Z</time>
      </trkpt>
      <trkpt lat="38.9617870" lon="1.2636890">
        <ele>16.3</ele>
        <time>2020-02-21T15:47:54Z</time>
      </trkpt>
      <trkpt lat="38.9617920" lon="1.2637680">
        <ele>16.2</ele>
        <time>2020-02-21T15:47:55Z</time>
      </trkpt>
      <trkpt lat="38.9617940" lon="1.2638460">
        <ele>16.1</ele>
        <time>2020-02-21T15:47:56Z</time>
      </trkpt>
      <trkpt lat="38.9617890" lon="1.2639240">
        <ele>16.0</ele>
        <time>2020-02-21T15:47:57Z</time>
      </trkpt>
      <trkpt lat="38.9617840" lon="1.2639900">
        <ele>16.0</ele>
        <time>2020-02-21T15:47:58Z</time>
      </trkpt>
      <trkpt lat="38.9617840" lon="1.2640420">
        <ele>15.9</ele>
        <time>2020-02-21T15:47:59Z</time>
      </trkpt>
      <trkpt lat="38.9617830" lon="1.2640790">
        <ele>15.9</ele>
        <time>2020-02-21T15:48:00Z</time>
      </trkpt>
      <trkpt lat="38.9617880" lon="1.2640920">
        <ele>15.9</ele>
        <time>2020-02-21T15:48:01Z</time>
      </trkpt>
      <trkpt lat="38.9617860" lon="1.2641000">
        <ele>15.9</ele>
        <time>2020-02-21T15:48:02Z</time>
      </trkpt>
      <trkpt lat="38.9617850" lon="1.2641000">
        <ele>15.9</ele>
        <time>2020-02-21T15:48:03Z</time>
      </trkpt>
      <trkpt lat="38.9617900" lon="1.2640990">
        <ele>15.9</ele>
        <time>2020-02-21T15:48:04Z</time>
      </trkpt>
      <trkpt lat="38.9617930" lon="1.2641030">
        <ele>15.9</ele>
        <time>2020-02-21T15:48:05Z</time>
      </trkpt>
      <trkpt lat="38.9618010" lon="1.2641050">
        <ele>15.8</ele>
        <time>2020-02-21T15:48:06Z</time>
      </trkpt>
      <trkpt lat="38.9618070" lon="1.2641070">
        <ele>15.8</ele>
        <time>2020-02-21T15:48:07Z</time>
      </trkpt>
      <trkpt lat="38.9618150" lon="1.2641080">
        <ele>15.8</ele>
        <time>2020-02-21T15:48:08Z</time>
      </trkpt>
      <trkpt lat="38.9618200" lon="1.2641130">
        <ele>15.8</ele>
        <time>2020-02-21T15:48:09Z</time>
      </trkpt>
      <trkpt lat="38.9618190" lon="1.2641170">
        <ele>15.8</ele>
        <time>2020-02-21T15:48:10Z</time>
      </trkpt>
      <trkpt lat="38.9618230" lon="1.2641200">
        <ele>15.8</ele>
        <time>2020-02-21T15:48:11Z</time>
      </trkpt>
      <trkpt lat="38.9618260" lon="1.2641230">
        <ele>15.8</ele>
        <time>2020-02-21T15:48:12Z</time>
      </trkpt>
      <trkpt lat="38.9618540" lon="1.2642040">
        <ele>15.6</ele>
        <time>2020-02-21T15:48:48Z</time>
      </trkpt>
      <trkpt lat="38.9618450" lon="1.2642190">
        <ele>15.6</ele>
        <time>2020-02-21T15:48:49Z</time>
      </trkpt>
      <trkpt lat="38.9618210" lon="1.2642470">
        <ele>15.5</ele>
        <time>2020-02-21T15:48:50Z</time>
      </trkpt>
      <trkpt lat="38.9618010" lon="1.2642850">
        <ele>15.5</ele>
        <time>2020-02-21T15:48:51Z</time>
      </trkpt>
      <trkpt lat="38.9617810" lon="1.2643320">
        <ele>15.4</ele>
        <time>2020-02-21T15:48:52Z</time>
      </trkpt>
      <trkpt lat="38.9617810" lon="1.2643820">
        <ele>15.3</ele>
        <time>2020-02-21T15:48:53Z</time>
      </trkpt>
      <trkpt lat="38.9617710" lon="1.2644350">
        <ele>15.2</ele>
        <time>2020-02-21T15:48:54Z</time>
      </trkpt>
      <trkpt lat="38.9617670" lon="1.2644790">
        <ele>15.2</ele>
        <time>2020-02-21T15:48:55Z</time>
      </trkpt>
      <trkpt lat="38.9617680" lon="1.2645190">
        <ele>15.1</ele>
        <time>2020-02-21T15:48:56Z</time>
      </trkpt>
      <trkpt lat="38.9617760" lon="1.2645570">
        <ele>15.0</ele>
        <time>2020-02-21T15:48:57Z</time>
      </trkpt>
      <trkpt lat="38.9617830" lon="1.2646120">
        <ele>15.0</ele>
        <time>2020-02-21T15:48:58Z</time>
      </trkpt>
      <trkpt lat="38.9617890" lon="1.2646630">
        <ele>14.9</ele>
        <time>2020-02-21T15:48:59Z</time>
      </trkpt>
      <trkpt lat="38.9617920" lon="1.2646860">
        <ele>14.9</ele>
        <time>2020-02-21T15:49:00Z</time>
      </trkpt>
      <trkpt lat="38.9617990" lon="1.2647230">
        <ele>14.8</ele>
        <time>2020-02-21T15:49:01Z</time>
      </trkpt>
      <trkpt lat="38.9618080" lon="1.2647750">
        <ele>14.7</ele>
        <time>2020-02-21T15:49:02Z</time>
      </trkpt>
      <trkpt lat="38.9618160" lon="1.2648220">
        <ele>14.6</ele>
        <time>2020-02-21T15:49:03Z</time>
      </trkpt>
      <trkpt lat="38.9618240" lon="1.2648710">
        <ele>14.6</ele>
        <time>2020-02-21T15:49:04Z</time>
      </trkpt>
      <trkpt lat="38.9618330" lon="1.2649160">
        <ele>14.5</ele>
        <time>2020-02-21T15:49:05Z</time>
      </trkpt>
      <trkpt lat="38.9618440" lon="1.2649690">
        <ele>14.4</ele>
        <time>2020-02-21T15:49:06Z</time>
      </trkpt>
      <trkpt lat="38.9618540" lon="1.2650180">
        <ele>14.3</ele>
        <time>2020-02-21T15:49:07Z</time>
      </trkpt>
      <trkpt lat="38.9618670" lon="1.2650580">
        <ele>14.3</ele>
        <time>2020-02-21T15:49:08Z</time>
      </trkpt>
      <trkpt lat="38.9618860" lon="1.2651040">
        <ele>14.2</ele>
        <time>2020-02-21T15:49:09Z</time>
      </trkpt>
      <trkpt lat="38.9619020" lon="1.2651530">
        <ele>14.1</ele>
        <time>2020-02-21T15:49:10Z</time>
      </trkpt>
      <trkpt lat="38.9619160" lon="1.2651980">
        <ele>14.0</ele>
        <time>2020-02-21T15:49:11Z</time>
      </trkpt>
      <trkpt lat="38.9619320" lon="1.2652630">
        <ele>13.9</ele>
        <time>2020-02-21T15:49:12Z</time>
      </trkpt>
      <trkpt lat="38.9619380" lon="1.2652960">
        <ele>13.9</ele>
        <time>2020-02-21T15:49:13Z</time>
      </trkpt>
      <trkpt lat="38.9619540" lon="1.2653590">
        <ele>13.8</ele>
        <time>2020-02-21T15:49:14Z</time>
      </trkpt>
      <trkpt lat="38.9619670" lon="1.2654140">
        <ele>13.8</ele>
        <time>2020-02-21T15:49:15Z</time>
      </trkpt>
      <trkpt lat="38.9619770" lon="1.2654630">
        <ele>13.7</ele>
        <time>2020-02-21T15:49:16Z</time>
      </trkpt>
      <trkpt lat="38.9619900" lon="1.2655140">
        <ele>13.6</ele>
        <time>2020-02-21T15:49:17Z</time>
      </trkpt>
      <trkpt lat="38.9620060" lon="1.2655680">
        <ele>13.5</ele>
        <time>2020-02-21T15:49:18Z</time>
      </trkpt>
      <trkpt lat="38.9620130" lon="1.2656120">
        <ele>13.4</ele>
        <time>2020-02-21T15:49:19Z</time>
      </trkpt>
      <trkpt lat="38.9620310" lon="1.2656660">
        <ele>13.3</ele>
        <time>2020-02-21T15:49:20Z</time>
      </trkpt>
      <trkpt lat="38.9620400" lon="1.2657300">
        <ele>13.3</ele>
        <time>2020-02-21T15:49:21Z</time>
      </trkpt>
      <trkpt lat="38.9620560" lon="1.2657860">
        <ele>13.2</ele>
        <time>2020-02-21T15:49:22Z</time>
      </trkpt>
      <trkpt lat="38.9620710" lon="1.2658290">
        <ele>13.1</ele>
        <time>2020-02-21T15:49:23Z</time>
      </trkpt>
      <trkpt lat="38.9620800" lon="1.2658680">
        <ele>13.2</ele>
        <time>2020-02-21T15:49:24Z</time>
      </trkpt>
      <trkpt lat="38.9620950" lon="1.2659310">
        <ele>13.2</ele>
        <time>2020-02-21T15:49:25Z</time>
      </trkpt>
      <trkpt lat="38.9621050" lon="1.2659770">
        <ele>13.2</ele>
        <time>2020-02-21T15:49:26Z</time>
      </trkpt>
      <trkpt lat="38.9621190" lon="1.2660340">
        <ele>13.2</ele>
        <time>2020-02-21T15:49:27Z</time>
      </trkpt>
      <trkpt lat="38.9621350" lon="1.2660900">
        <ele>13.2</ele>
        <time>2020-02-21T15:49:28Z</time>
      </trkpt>
      <trkpt lat="38.9621430" lon="1.2661640">
        <ele>13.2</ele>
        <time>2020-02-21T15:49:29Z</time>
      </trkpt>
      <trkpt lat="38.9621620" lon="1.2662240">
        <ele>13.2</ele>
        <time>2020-02-21T15:49:30Z</time>
      </trkpt>
      <trkpt lat="38.9621850" lon="1.2662900">
        <ele>13.2</ele>
        <time>2020-02-21T15:49:31Z</time>
      </trkpt>
      <trkpt lat="38.9621950" lon="1.2663300">
        <ele>13.2</ele>
        <time>2020-02-21T15:49:32Z</time>
      </trkpt>
      <trkpt lat="38.9622130" lon="1.2663830">
        <ele>13.2</ele>
        <time>2020-02-21T15:49:33Z</time>
      </trkpt>
      <trkpt lat="38.9622360" lon="1.2664390">
        <ele>13.2</ele>
        <time>2020-02-21T15:49:34Z</time>
      </trkpt>
      <trkpt lat="38.9622580" lon="1.2664880">
        <ele>13.3</ele>
        <time>2020-02-21T15:49:35Z</time>
      </trkpt>
      <trkpt lat="38.9622790" lon="1.2665460">
        <ele>13.4</ele>
        <time>2020-02-21T15:49:36Z</time>
      </trkpt>
      <trkpt lat="38.9622930" lon="1.2665850">
        <ele>13.4</ele>
        <time>2020-02-21T15:49:37Z</time>
      </trkpt>
      <trkpt lat="38.9623060" lon="1.2666260">
        <ele>13.4</ele>
        <time>2020-02-21T15:49:38Z</time>
      </trkpt>
      <trkpt lat="38.9623280" lon="1.2666890">
        <ele>13.5</ele>
        <time>2020-02-21T15:49:39Z</time>
      </trkpt>
      <trkpt lat="38.9623440" lon="1.2667550">
        <ele>13.6</ele>
        <time>2020-02-21T15:49:40Z</time>
      </trkpt>
      <trkpt lat="38.9623550" lon="1.2667890">
        <ele>13.6</ele>
        <time>2020-02-21T15:49:41Z</time>
      </trkpt>
      <trkpt lat="38.9623700" lon="1.2668370">
        <ele>13.6</ele>
        <time>2020-02-21T15:49:42Z</time>
      </trkpt>
      <trkpt lat="38.9623870" lon="1.2668990">
        <ele>13.7</ele>
        <time>2020-02-21T15:49:43Z</time>
      </trkpt>
      <trkpt lat="38.9624050" lon="1.2669600">
        <ele>13.7</ele>
        <time>2020-02-21T15:49:44Z</time>
      </trkpt>
      <trkpt lat="38.9624250" lon="1.2670160">
        <ele>13.8</ele>
        <time>2020-02-21T15:49:45Z</time>
      </trkpt>
      <trkpt lat="38.9624420" lon="1.2670720">
        <ele>13.8</ele>
        <time>2020-02-21T15:49:46Z</time>
      </trkpt>
      <trkpt lat="38.9624590" lon="1.2671320">
        <ele>13.9</ele>
        <time>2020-02-21T15:49:47Z</time>
      </trkpt>
      <trkpt lat="38.9624810" lon="1.2671920">
        <ele>14.0</ele>
        <time>2020-02-21T15:49:48Z</time>
      </trkpt>
      <trkpt lat="38.9625070" lon="1.2672610">
        <ele>14.2</ele>
        <time>2020-02-21T15:49:49Z</time>
      </trkpt>
      <trkpt lat="38.9625320" lon="1.2673160">
        <ele>14.3</ele>
        <time>2020-02-21T15:49:50Z</time>
      </trkpt>
      <trkpt lat="38.9625670" lon="1.2673740">
        <ele>14.3</ele>
        <time>2020-02-21T15:49:51Z</time>
      </trkpt>
      <trkpt lat="38.9625980" lon="1.2674250">
        <ele>14.4</ele>
        <time>2020-02-21T15:49:52Z</time>
      </trkpt>
      <trkpt lat="38.9626200" lon="1.2674700">
        <ele>14.4</ele>
        <time>2020-02-21T15:49:53Z</time>
      </trkpt>
      <trkpt lat="38.9626510" lon="1.2675330">
        <ele>14.5</ele>
        <time>2020-02-21T15:49:54Z</time>
      </trkpt>
      <trkpt lat="38.9626750" lon="1.2675950">
        <ele>14.5</ele>
        <time>2020-02-21T15:49:55Z</time>
      </trkpt>
      <trkpt lat="38.9627160" lon="1.2676660">
        <ele>14.4</ele>
        <time>2020-02-21T15:49:56Z</time>
      </trkpt>
      <trkpt lat="38.9627340" lon="1.2676990">
        <ele>14.4</ele>
        <time>2020-02-21T15:49:57Z</time>
      </trkpt>
      <trkpt lat="38.9627660" lon="1.2677480">
        <ele>14.3</ele>
        <time>2020-02-21T15:49:58Z</time>
      </trkpt>
      <trkpt lat="38.9627900" lon="1.2677860">
        <ele>14.2</ele>
        <time>2020-02-21T15:49:59Z</time>
      </trkpt>
      <trkpt lat="38.9628290" lon="1.2678350">
        <ele>14.1</ele>
        <time>2020-02-21T15:50:00Z</time>
      </trkpt>
      <trkpt lat="38.9628590" lon="1.2678870">
        <ele>14.0</ele>
        <time>2020-02-21T15:50:01Z</time>
      </trkpt>
      <trkpt lat="38.9629010" lon="1.2679400">
        <ele>13.9</ele>
        <time>2020-02-21T15:50:02Z</time>
      </trkpt>
      <trkpt lat="38.9629370" lon="1.2679860">
        <ele>13.8</ele>
        <time>2020-02-21T15:50:03Z</time>
      </trkpt>
      <trkpt lat="38.9629710" lon="1.2680440">
        <ele>13.7</ele>
        <time>2020-02-21T15:50:04Z</time>
      </trkpt>
      <trkpt lat="38.9630060" lon="1.2680990">
        <ele>13.7</ele>
        <time>2020-02-21T15:50:05Z</time>
      </trkpt>
      <trkpt lat="38.9630420" lon="1.2681600">
        <ele>13.6</ele>
        <time>2020-02-21T15:50:06Z</time>
      </trkpt>
      <trkpt lat="38.9630790" lon="1.2682180">
        <ele>13.6</ele>
        <time>2020-02-21T15:50:07Z</time>
      </trkpt>
      <trkpt lat="38.9631100" lon="1.2682640">
        <ele>13.5</ele>
        <time>2020-02-21T15:50:08Z</time>
      </trkpt>
      <trkpt lat="38.9631420" lon="1.2683080">
        <ele>13.5</ele>
        <time>2020-02-21T15:50:09Z</time>
      </trkpt>
      <trkpt lat="38.9631710" lon="1.2683500">
        <ele>13.4</ele>
        <time>2020-02-21T15:50:10Z</time>
      </trkpt>
      <trkpt lat="38.9632030" lon="1.2683830">
        <ele>13.4</ele>
        <time>2020-02-21T15:50:11Z</time>
      </trkpt>
      <trkpt lat="38.9632340" lon="1.2684170">
        <ele>13.3</ele>
        <time>2020-02-21T15:50:12Z</time>
      </trkpt>
      <trkpt lat="38.9632470" lon="1.2684320">
        <ele>13.3</ele>
        <time>2020-02-21T15:50:13Z</time>
      </trkpt>
      <trkpt lat="38.9632780" lon="1.2684610">
        <ele>13.3</ele>
        <time>2020-02-21T15:50:14Z</time>
      </trkpt>
      <trkpt lat="38.9633080" lon="1.2684930">
        <ele>13.2</ele>
        <time>2020-02-21T15:50:15Z</time>
      </trkpt>
      <trkpt lat="38.9633340" lon="1.2685230">
        <ele>13.2</ele>
        <time>2020-02-21T15:50:16Z</time>
      </trkpt>
      <trkpt lat="38.9633650" lon="1.2685650">
        <ele>13.1</ele>
        <time>2020-02-21T15:50:17Z</time>
      </trkpt>
      <trkpt lat="38.9633910" lon="1.2686060">
        <ele>13.1</ele>
        <time>2020-02-21T15:50:18Z</time>
      </trkpt>
      <trkpt lat="38.9634140" lon="1.2686420">
        <ele>13.0</ele>
        <time>2020-02-21T15:50:19Z</time>
      </trkpt>
      <trkpt lat="38.9634430" lon="1.2686820">
        <ele>12.9</ele>
        <time>2020-02-21T15:50:20Z</time>
      </trkpt>
      <trkpt lat="38.9634710" lon="1.2687250">
        <ele>12.8</ele>
        <time>2020-02-21T15:50:21Z</time>
      </trkpt>
      <trkpt lat="38.9634990" lon="1.2687620">
        <ele>12.7</ele>
        <time>2020-02-21T15:50:22Z</time>
      </trkpt>
      <trkpt lat="38.9635250" lon="1.2688040">
        <ele>12.7</ele>
        <time>2020-02-21T15:50:23Z</time>
      </trkpt>
      <trkpt lat="38.9635450" lon="1.2688320">
        <ele>12.6</ele>
        <time>2020-02-21T15:50:24Z</time>
      </trkpt>
      <trkpt lat="38.9635640" lon="1.2688660">
        <ele>12.5</ele>
        <time>2020-02-21T15:50:25Z</time>
      </trkpt>
      <trkpt lat="38.9635950" lon="1.2689390">
        <ele>12.3</ele>
        <time>2020-02-21T15:50:26Z</time>
      </trkpt>
      <trkpt lat="38.9636110" lon="1.2689930">
        <ele>12.2</ele>
        <time>2020-02-21T15:50:27Z</time>
      </trkpt>
      <trkpt lat="38.9636470" lon="1.2690460">
        <ele>12.1</ele>
        <time>2020-02-21T15:50:28Z</time>
      </trkpt>
      <trkpt lat="38.9636800" lon="1.2690990">
        <ele>12.0</ele>
        <time>2020-02-21T15:50:29Z</time>
      </trkpt>
      <trkpt lat="38.9637130" lon="1.2691570">
        <ele>11.9</ele>
        <time>2020-02-21T15:50:30Z</time>
      </trkpt>
      <trkpt lat="38.9637450" lon="1.2692070">
        <ele>11.7</ele>
        <time>2020-02-21T15:50:31Z</time>
      </trkpt>
      <trkpt lat="38.9637600" lon="1.2692370">
        <ele>11.6</ele>
        <time>2020-02-21T15:50:32Z</time>
      </trkpt>
      <trkpt lat="38.9637990" lon="1.2692910">
        <ele>11.5</ele>
        <time>2020-02-21T15:50:33Z</time>
      </trkpt>
      <trkpt lat="38.9638310" lon="1.2693440">
        <ele>11.3</ele>
        <time>2020-02-21T15:50:34Z</time>
      </trkpt>
      <trkpt lat="38.9638630" lon="1.2694000">
        <ele>11.1</ele>
        <time>2020-02-21T15:50:35Z</time>
      </trkpt>
      <trkpt lat="38.9639030" lon="1.2694540">
        <ele>10.9</ele>
        <time>2020-02-21T15:50:36Z</time>
      </trkpt>
      <trkpt lat="38.9639400" lon="1.2695090">
        <ele>10.7</ele>
        <time>2020-02-21T15:50:37Z</time>
      </trkpt>
      <trkpt lat="38.9639780" lon="1.2695700">
        <ele>10.6</ele>
        <time>2020-02-21T15:50:38Z</time>
      </trkpt>
      <trkpt lat="38.9640090" lon="1.2696230">
        <ele>10.5</ele>
        <time>2020-02-21T15:50:39Z</time>
      </trkpt>
      <trkpt lat="38.9640370" lon="1.2696810">
        <ele>10.4</ele>
        <time>2020-02-21T15:50:40Z</time>
      </trkpt>
      <trkpt lat="38.9640750" lon="1.2697290">
        <ele>10.4</ele>
        <time>2020-02-21T15:50:41Z</time>
      </trkpt>
      <trkpt lat="38.9641090" lon="1.2697800">
        <ele>10.3</ele>
        <time>2020-02-21T15:50:42Z</time>
      </trkpt>
      <trkpt lat="38.9641470" lon="1.2698380">
        <ele>10.3</ele>
        <time>2020-02-21T15:50:43Z</time>
      </trkpt>
      <trkpt lat="38.9641870" lon="1.2698920">
        <ele>10.3</ele>
        <time>2020-02-21T15:50:44Z</time>
      </trkpt>
      <trkpt lat="38.9642250" lon="1.2699370">
        <ele>10.2</ele>
        <time>2020-02-21T15:50:45Z</time>
      </trkpt>
      <trkpt lat="38.9642730" lon="1.2700030">
        <ele>10.2</ele>
        <time>2020-02-21T15:50:46Z</time>
      </trkpt>
      <trkpt lat="38.9643140" lon="1.2700580">
        <ele>10.2</ele>
        <time>2020-02-21T15:50:47Z</time>
      </trkpt>
      <trkpt lat="38.9643590" lon="1.2701210">
        <ele>10.1</ele>
        <time>2020-02-21T15:50:48Z</time>
      </trkpt>
      <trkpt lat="38.9644010" lon="1.2701870">
        <ele>10.0</ele>
        <time>2020-02-21T15:50:49Z</time>
      </trkpt>
      <trkpt lat="38.9644450" lon="1.2702400">
        <ele>9.9</ele>
        <time>2020-02-21T15:50:50Z</time>
      </trkpt>
      <trkpt lat="38.9644810" lon="1.2702830">
        <ele>9.7</ele>
        <time>2020-02-21T15:50:51Z</time>
      </trkpt>
      <trkpt lat="38.9645170" lon="1.2703330">
        <ele>9.5</ele>
        <time>2020-02-21T15:50:52Z</time>
      </trkpt>
      <trkpt lat="38.9645640" lon="1.2703990">
        <ele>9.3</ele>
        <time>2020-02-21T15:50:53Z</time>
      </trkpt>
      <trkpt lat="38.9646000" lon="1.2704600">
        <ele>9.0</ele>
        <time>2020-02-21T15:50:54Z</time>
      </trkpt>
      <trkpt lat="38.9646460" lon="1.2705290">
        <ele>8.7</ele>
        <time>2020-02-21T15:50:55Z</time>
      </trkpt>
      <trkpt lat="38.9646880" lon="1.2705980">
        <ele>8.4</ele>
        <time>2020-02-21T15:50:56Z</time>
      </trkpt>
      <trkpt lat="38.9647300" lon="1.2706750">
        <ele>8.0</ele>
        <time>2020-02-21T15:50:57Z</time>
      </trkpt>
      <trkpt lat="38.9647720" lon="1.2707380">
        <ele>7.6</ele>
        <time>2020-02-21T15:50:58Z</time>
      </trkpt>
      <trkpt lat="38.9648040" lon="1.2708130">
        <ele>7.1</ele>
        <time>2020-02-21T15:50:59Z</time>
      </trkpt>
      <trkpt lat="38.9648330" lon="1.2708920">
        <ele>6.6</ele>
        <time>2020-02-21T15:51:00Z</time>
      </trkpt>
      <trkpt lat="38.9648580" lon="1.2709850">
        <ele>6.1</ele>
        <time>2020-02-21T15:51:01Z</time>
      </trkpt>
      <trkpt lat="38.9648840" lon="1.2710660">
        <ele>5.7</ele>
        <time>2020-02-21T15:51:02Z</time>
      </trkpt>
      <trkpt lat="38.9649200" lon="1.2711560">
        <ele>5.5</ele>
        <time>2020-02-21T15:51:03Z</time>
      </trkpt>
      <trkpt lat="38.9649380" lon="1.2712400">
        <ele>5.3</ele>
        <time>2020-02-21T15:51:04Z</time>
      </trkpt>
      <trkpt lat="38.9649630" lon="1.2713280">
        <ele>5.2</ele>
        <time>2020-02-21T15:51:05Z</time>
      </trkpt>
      <trkpt lat="38.9649870" lon="1.2714230">
        <ele>5.1</ele>
        <time>2020-02-21T15:51:06Z</time>
      </trkpt>
      <trkpt lat="38.9650120" lon="1.2715150">
        <ele>5.1</ele>
        <time>2020-02-21T15:51:07Z</time>
      </trkpt>
      <trkpt lat="38.9650330" lon="1.2716250">
        <ele>5.1</ele>
        <time>2020-02-21T15:51:08Z</time>
      </trkpt>
      <trkpt lat="38.9650410" lon="1.2717110">
        <ele>5.3</ele>
        <time>2020-02-21T15:51:09Z</time>
      </trkpt>
      <trkpt lat="38.9650500" lon="1.2717990">
        <ele>5.4</ele>
        <time>2020-02-21T15:51:10Z</time>
      </trkpt>
      <trkpt lat="38.9650490" lon="1.2718780">
        <ele>5.6</ele>
        <time>2020-02-21T15:51:11Z</time>
      </trkpt>
      <trkpt lat="38.9650540" lon="1.2719610">
        <ele>5.9</ele>
        <time>2020-02-21T15:51:12Z</time>
      </trkpt>
      <trkpt lat="38.9650570" lon="1.2720380">
        <ele>6.2</ele>
        <time>2020-02-21T15:51:13Z</time>
      </trkpt>
      <trkpt lat="38.9650530" lon="1.2721140">
        <ele>6.4</ele>
        <time>2020-02-21T15:51:14Z</time>
      </trkpt>
      <trkpt lat="38.9650510" lon="1.2721910">
        <ele>6.7</ele>
        <time>2020-02-21T15:51:15Z</time>
      </trkpt>
      <trkpt lat="38.9650480" lon="1.2722620">
        <ele>6.9</ele>
        <time>2020-02-21T15:51:16Z</time>
      </trkpt>
      <trkpt lat="38.9650510" lon="1.2723370">
        <ele>7.2</ele>
        <time>2020-02-21T15:51:17Z</time>
      </trkpt>
      <trkpt lat="38.9650380" lon="1.2723970">
        <ele>7.4</ele>
        <time>2020-02-21T15:51:18Z</time>
      </trkpt>
      <trkpt lat="38.9650240" lon="1.2724530">
        <ele>7.7</ele>
        <time>2020-02-21T15:51:19Z</time>
      </trkpt>
      <trkpt lat="38.9650060" lon="1.2725100">
        <ele>7.9</ele>
        <time>2020-02-21T15:51:20Z</time>
      </trkpt>
      <trkpt lat="38.9649860" lon="1.2725600">
        <ele>8.1</ele>
        <time>2020-02-21T15:51:21Z</time>
      </trkpt>
      <trkpt lat="38.9649820" lon="1.2726160">
        <ele>8.3</ele>
        <time>2020-02-21T15:51:22Z</time>
      </trkpt>
      <trkpt lat="38.9649770" lon="1.2726720">
        <ele>8.5</ele>
        <time>2020-02-21T15:51:23Z</time>
      </trkpt>
      <trkpt lat="38.9649730" lon="1.2727260">
        <ele>8.7</ele>
        <time>2020-02-21T15:51:24Z</time>
      </trkpt>
      <trkpt lat="38.9649600" lon="1.2727790">
        <ele>8.9</ele>
        <time>2020-02-21T15:51:25Z</time>
      </trkpt>
      <trkpt lat="38.9649450" lon="1.2728280">
        <ele>9.1</ele>
        <time>2020-02-21T15:51:26Z</time>
      </trkpt>
      <trkpt lat="38.9649240" lon="1.2728760">
        <ele>9.3</ele>
        <time>2020-02-21T15:51:27Z</time>
      </trkpt>
      <trkpt lat="38.9649060" lon="1.2729280">
        <ele>9.5</ele>
        <time>2020-02-21T15:51:28Z</time>
      </trkpt>
      <trkpt lat="38.9648920" lon="1.2729830">
        <ele>9.8</ele>
        <time>2020-02-21T15:51:29Z</time>
      </trkpt>
      <trkpt lat="38.9648740" lon="1.2730300">
        <ele>9.9</ele>
        <time>2020-02-21T15:51:30Z</time>
      </trkpt>
      <trkpt lat="38.9648610" lon="1.2730730">
        <ele>10.1</ele>
        <time>2020-02-21T15:51:31Z</time>
      </trkpt>
      <trkpt lat="38.9648540" lon="1.2731200">
        <ele>10.3</ele>
        <time>2020-02-21T15:51:32Z</time>
      </trkpt>
      <trkpt lat="38.9648340" lon="1.2731620">
        <ele>10.4</ele>
        <time>2020-02-21T15:51:33Z</time>
      </trkpt>
      <trkpt lat="38.9648240" lon="1.2732130">
        <ele>10.6</ele>
        <time>2020-02-21T15:51:34Z</time>
      </trkpt>
      <trkpt lat="38.9648100" lon="1.2732580">
        <ele>10.7</ele>
        <time>2020-02-21T15:51:35Z</time>
      </trkpt>
      <trkpt lat="38.9648000" lon="1.2733050">
        <ele>10.9</ele>
        <time>2020-02-21T15:51:36Z</time>
      </trkpt>
      <trkpt lat="38.9647900" lon="1.2733520">
        <ele>11.1</ele>
        <time>2020-02-21T15:51:37Z</time>
      </trkpt>
      <trkpt lat="38.9647790" lon="1.2733980">
        <ele>11.2</ele>
        <time>2020-02-21T15:51:38Z</time>
      </trkpt>
      <trkpt lat="38.9647680" lon="1.2734430">
        <ele>11.4</ele>
        <time>2020-02-21T15:51:39Z</time>
      </trkpt>
      <trkpt lat="38.9647620" lon="1.2734910">
        <ele>11.5</ele>
        <time>2020-02-21T15:51:40Z</time>
      </trkpt>
      <trkpt lat="38.9647460" lon="1.2735390">
        <ele>11.7</ele>
        <time>2020-02-21T15:51:41Z</time>
      </trkpt>
      <trkpt lat="38.9647300" lon="1.2735810">
        <ele>11.9</ele>
        <time>2020-02-21T15:51:42Z</time>
      </trkpt>
      <trkpt lat="38.9647380" lon="1.2736330">
        <ele>12.1</ele>
        <time>2020-02-21T15:51:43Z</time>
      </trkpt>
      <trkpt lat="38.9647290" lon="1.2736780">
        <ele>12.3</ele>
        <time>2020-02-21T15:51:44Z</time>
      </trkpt>
      <trkpt lat="38.9647140" lon="1.2737230">
        <ele>12.4</ele>
        <time>2020-02-21T15:51:45Z</time>
      </trkpt>
      <trkpt lat="38.9647040" lon="1.2737740">
        <ele>12.6</ele>
        <time>2020-02-21T15:51:46Z</time>
      </trkpt>
      <trkpt lat="38.9646960" lon="1.2738230">
        <ele>12.8</ele>
        <time>2020-02-21T15:51:47Z</time>
      </trkpt>
      <trkpt lat="38.9646870" lon="1.2738700">
        <ele>12.9</ele>
        <time>2020-02-21T15:51:48Z</time>
      </trkpt>
      <trkpt lat="38.9646720" lon="1.2739140">
        <ele>13.0</ele>
        <time>2020-02-21T15:51:49Z</time>
      </trkpt>
      <trkpt lat="38.9646610" lon="1.2739620">
        <ele>13.1</ele>
        <time>2020-02-21T15:51:50Z</time>
      </trkpt>
      <trkpt lat="38.9646540" lon="1.2740100">
        <ele>13.2</ele>
        <time>2020-02-21T15:51:51Z</time>
      </trkpt>
      <trkpt lat="38.9646530" lon="1.2740610">
        <ele>13.3</ele>
        <time>2020-02-21T15:51:52Z</time>
      </trkpt>
      <trkpt lat="38.9646510" lon="1.2741260">
        <ele>13.4</ele>
        <time>2020-02-21T15:51:53Z</time>
      </trkpt>
      <trkpt lat="38.9646460" lon="1.2741830">
        <ele>13.6</ele>
        <time>2020-02-21T15:51:54Z</time>
      </trkpt>
      <trkpt lat="38.9646410" lon="1.2742430">
        <ele>13.7</ele>
        <time>2020-02-21T15:51:55Z</time>
      </trkpt>
      <trkpt lat="38.9646420" lon="1.2742850">
        <ele>13.9</ele>
        <time>2020-02-21T15:51:56Z</time>
      </trkpt>
      <trkpt lat="38.9646420" lon="1.2743400">
        <ele>14.0</ele>
        <time>2020-02-21T15:51:57Z</time>
      </trkpt>
      <trkpt lat="38.9646460" lon="1.2743910">
        <ele>14.2</ele>
        <time>2020-02-21T15:51:58Z</time>
      </trkpt>
      <trkpt lat="38.9646510" lon="1.2744720">
        <ele>14.5</ele>
        <time>2020-02-21T15:51:59Z</time>
      </trkpt>
      <trkpt lat="38.9646580" lon="1.2745110">
        <ele>14.6</ele>
        <time>2020-02-21T15:52:00Z</time>
      </trkpt>
      <trkpt lat="38.9646700" lon="1.2745530">
        <ele>14.7</ele>
        <time>2020-02-21T15:52:01Z</time>
      </trkpt>
      <trkpt lat="38.9646770" lon="1.2745990">
        <ele>14.9</ele>
        <time>2020-02-21T15:52:02Z</time>
      </trkpt>
      <trkpt lat="38.9646830" lon="1.2746520">
        <ele>15.0</ele>
        <time>2020-02-21T15:52:03Z</time>
      </trkpt>
      <trkpt lat="38.9646860" lon="1.2746990">
        <ele>15.1</ele>
        <time>2020-02-21T15:52:04Z</time>
      </trkpt>
      <trkpt lat="38.9646840" lon="1.2747550">
        <ele>15.3</ele>
        <time>2020-02-21T15:52:05Z</time>
      </trkpt>
      <trkpt lat="38.9646820" lon="1.2747760">
        <ele>15.3</ele>
        <time>2020-02-21T15:52:06Z</time>
      </trkpt>
      <trkpt lat="38.9646860" lon="1.2748320">
        <ele>15.5</ele>
        <time>2020-02-21T15:52:07Z</time>
      </trkpt>
      <trkpt lat="38.9646910" lon="1.2748900">
        <ele>15.6</ele>
        <time>2020-02-21T15:52:08Z</time>
      </trkpt>
      <trkpt lat="38.9647040" lon="1.2749490">
        <ele>15.7</ele>
        <time>2020-02-21T15:52:09Z</time>
      </trkpt>
      <trkpt lat="38.9647130" lon="1.2750060">
        <ele>15.9</ele>
        <time>2020-02-21T15:52:10Z</time>
      </trkpt>
      <trkpt lat="38.9647260" lon="1.2750530">
        <ele>15.9</ele>
        <time>2020-02-21T15:52:11Z</time>
      </trkpt>
      <trkpt lat="38.9647400" lon="1.2751030">
        <ele>16.0</ele>
        <time>2020-02-21T15:52:12Z</time>
      </trkpt>
      <trkpt lat="38.9647450" lon="1.2751400">
        <ele>16.1</ele>
        <time>2020-02-21T15:52:13Z</time>
      </trkpt>
      <trkpt lat="38.9647600" lon="1.2751880">
        <ele>16.1</ele>
        <time>2020-02-21T15:52:14Z</time>
      </trkpt>
      <trkpt lat="38.9647770" lon="1.2752380">
        <ele>16.2</ele>
        <time>2020-02-21T15:52:15Z</time>
      </trkpt>
      <trkpt lat="38.9647930" lon="1.2752910">
        <ele>16.2</ele>
        <time>2020-02-21T15:52:16Z</time>
      </trkpt>
      <trkpt lat="38.9648080" lon="1.2753510">
        <ele>16.3</ele>
        <time>2020-02-21T15:52:17Z</time>
      </trkpt>
      <trkpt lat="38.9648240" lon="1.2754030">
        <ele>16.5</ele>
        <time>2020-02-21T15:52:18Z</time>
      </trkpt>
      <trkpt lat="38.9648350" lon="1.2754570">
        <ele>16.7</ele>
        <time>2020-02-21T15:52:19Z</time>
      </trkpt>
      <trkpt lat="38.9648460" lon="1.2755030">
        <ele>16.8</ele>
        <time>2020-02-21T15:52:20Z</time>
      </trkpt>
      <trkpt lat="38.9648560" lon="1.2755490">
        <ele>16.9</ele>
        <time>2020-02-21T15:52:21Z</time>
      </trkpt>
      <trkpt lat="38.9648720" lon="1.2756040">
        <ele>17.1</ele>
        <time>2020-02-21T15:52:22Z</time>
      </trkpt>
      <trkpt lat="38.9648910" lon="1.2756620">
        <ele>17.1</ele>
        <time>2020-02-21T15:52:23Z</time>
      </trkpt>
      <trkpt lat="38.9649080" lon="1.2757160">
        <ele>17.1</ele>
        <time>2020-02-21T15:52:24Z</time>
      </trkpt>
      <trkpt lat="38.9649280" lon="1.2757670">
        <ele>17.2</ele>
        <time>2020-02-21T15:52:25Z</time>
      </trkpt>
      <trkpt lat="38.9649490" lon="1.2758210">
        <ele>17.2</ele>
        <time>2020-02-21T15:52:26Z</time>
      </trkpt>
      <trkpt lat="38.9649700" lon="1.2758760">
        <ele>17.2</ele>
        <time>2020-02-21T15:52:27Z</time>
      </trkpt>
      <trkpt lat="38.9649950" lon="1.2759320">
        <ele>17.2</ele>
        <time>2020-02-21T15:52:28Z</time>
      </trkpt>
      <trkpt lat="38.9650120" lon="1.2759850">
        <ele>17.2</ele>
        <time>2020-02-21T15:52:29Z</time>
      </trkpt>
      <trkpt lat="38.9650320" lon="1.2760370">
        <ele>17.1</ele>
        <time>2020-02-21T15:52:30Z</time>
      </trkpt>
      <trkpt lat="38.9650480" lon="1.2760930">
        <ele>17.1</ele>
        <time>2020-02-21T15:52:31Z</time>
      </trkpt>
      <trkpt lat="38.9650620" lon="1.2761410">
        <ele>17.1</ele>
        <time>2020-02-21T15:52:32Z</time>
      </trkpt>
      <trkpt lat="38.9650720" lon="1.2762040">
        <ele>17.0</ele>
        <time>2020-02-21T15:52:33Z</time>
      </trkpt>
      <trkpt lat="38.9650810" lon="1.2762660">
        <ele>17.0</ele>
        <time>2020-02-21T15:52:34Z</time>
      </trkpt>
      <trkpt lat="38.9650910" lon="1.2763140">
        <ele>17.0</ele>
        <time>2020-02-21T15:52:35Z</time>
      </trkpt>
      <trkpt lat="38.9651030" lon="1.2763640">
        <ele>16.9</ele>
        <time>2020-02-21T15:52:36Z</time>
      </trkpt>
      <trkpt lat="38.9651160" lon="1.2764170">
        <ele>16.9</ele>
        <time>2020-02-21T15:52:37Z</time>
      </trkpt>
      <trkpt lat="38.9651310" lon="1.2764540">
        <ele>16.9</ele>
        <time>2020-02-21T15:52:38Z</time>
      </trkpt>
      <trkpt lat="38.9651490" lon="1.2764970">
        <ele>16.8</ele>
        <time>2020-02-21T15:52:39Z</time>
      </trkpt>
      <trkpt lat="38.9651730" lon="1.2765280">
        <ele>16.8</ele>
        <time>2020-02-21T15:52:40Z</time>
      </trkpt>
      <trkpt lat="38.9651950" lon="1.2765700">
        <ele>16.8</ele>
        <time>2020-02-21T15:52:41Z</time>
      </trkpt>
      <trkpt lat="38.9652150" lon="1.2766210">
        <ele>16.7</ele>
        <time>2020-02-21T15:52:42Z</time>
      </trkpt>
      <trkpt lat="38.9652320" lon="1.2766550">
        <ele>16.7</ele>
        <time>2020-02-21T15:52:43Z</time>
      </trkpt>
      <trkpt lat="38.9652610" lon="1.2766900">
        <ele>16.6</ele>
        <time>2020-02-21T15:52:44Z</time>
      </trkpt>
      <trkpt lat="38.9652990" lon="1.2766960">
        <ele>16.5</ele>
        <time>2020-02-21T15:52:45Z</time>
      </trkpt>
      <trkpt lat="38.9653420" lon="1.2766700">
        <ele>16.4</ele>
        <time>2020-02-21T15:52:46Z</time>
      </trkpt>
      <trkpt lat="38.9653850" lon="1.2766410">
        <ele>16.4</ele>
        <time>2020-02-21T15:52:47Z</time>
      </trkpt>
      <trkpt lat="38.9654240" lon="1.2766060">
        <ele>16.3</ele>
        <time>2020-02-21T15:52:48Z</time>
      </trkpt>
      <trkpt lat="38.9654670" lon="1.2765710">
        <ele>16.2</ele>
        <time>2020-02-21T15:52:49Z</time>
      </trkpt>
      <trkpt lat="38.9655080" lon="1.2765400">
        <ele>16.1</ele>
        <time>2020-02-21T15:52:50Z</time>
      </trkpt>
      <trkpt lat="38.9655490" lon="1.2765120">
        <ele>16.0</ele>
        <time>2020-02-21T15:52:51Z</time>
      </trkpt>
      <trkpt lat="38.9655880" lon="1.2764760">
        <ele>15.9</ele>
        <time>2020-02-21T15:52:52Z</time>
      </trkpt>
      <trkpt lat="38.9656430" lon="1.2764500">
        <ele>15.7</ele>
        <time>2020-02-21T15:52:53Z</time>
      </trkpt>
      <trkpt lat="38.9657000" lon="1.2764260">
        <ele>15.6</ele>
        <time>2020-02-21T15:52:54Z</time>
      </trkpt>
      <trkpt lat="38.9657550" lon="1.2763990">
        <ele>15.4</ele>
        <time>2020-02-21T15:52:55Z</time>
      </trkpt>
      <trkpt lat="38.9658030" lon="1.2763760">
        <ele>15.3</ele>
        <time>2020-02-21T15:52:56Z</time>
      </trkpt>
      <trkpt lat="38.9658450" lon="1.2763490">
        <ele>15.2</ele>
        <time>2020-02-21T15:52:57Z</time>
      </trkpt>
      <trkpt lat="38.9658860" lon="1.2763180">
        <ele>15.0</ele>
        <time>2020-02-21T15:52:58Z</time>
      </trkpt>
      <trkpt lat="38.9659260" lon="1.2762830">
        <ele>14.9</ele>
        <time>2020-02-21T15:52:59Z</time>
      </trkpt>
      <trkpt lat="38.9659690" lon="1.2762450">
        <ele>14.8</ele>
        <time>2020-02-21T15:53:00Z</time>
      </trkpt>
      <trkpt lat="38.9660180" lon="1.2762090">
        <ele>14.6</ele>
        <time>2020-02-21T15:53:01Z</time>
      </trkpt>
      <trkpt lat="38.9660600" lon="1.2761800">
        <ele>14.4</ele>
        <time>2020-02-21T15:53:02Z</time>
      </trkpt>
      <trkpt lat="38.9661070" lon="1.2761440">
        <ele>14.3</ele>
        <time>2020-02-21T15:53:03Z</time>
      </trkpt>
      <trkpt lat="38.9661450" lon="1.2761150">
        <ele>14.1</ele>
        <time>2020-02-21T15:53:04Z</time>
      </trkpt>
      <trkpt lat="38.9661840" lon="1.2760900">
        <ele>14.0</ele>
        <time>2020-02-21T15:53:05Z</time>
      </trkpt>
      <trkpt lat="38.9662140" lon="1.2760730">
        <ele>13.9</ele>
        <time>2020-02-21T15:53:06Z</time>
      </trkpt>
      <trkpt lat="38.9662440" lon="1.2760620">
        <ele>13.8</ele>
        <time>2020-02-21T15:53:07Z</time>
      </trkpt>
      <trkpt lat="38.9662780" lon="1.2760480">
        <ele>13.7</ele>
        <time>2020-02-21T15:53:08Z</time>
      </trkpt>
      <trkpt lat="38.9663100" lon="1.2760300">
        <ele>13.6</ele>
        <time>2020-02-21T15:53:09Z</time>
      </trkpt>
      <trkpt lat="38.9663490" lon="1.2760100">
        <ele>13.4</ele>
        <time>2020-02-21T15:53:10Z</time>
      </trkpt>
      <trkpt lat="38.9663840" lon="1.2759780">
        <ele>13.3</ele>
        <time>2020-02-21T15:53:11Z</time>
      </trkpt>
      <trkpt lat="38.9664190" lon="1.2759500">
        <ele>13.2</ele>
        <time>2020-02-21T15:53:12Z</time>
      </trkpt>
      <trkpt lat="38.9664520" lon="1.2759300">
        <ele>13.1</ele>
        <time>2020-02-21T15:53:13Z</time>
      </trkpt>
      <trkpt lat="38.9664870" lon="1.2758930">
        <ele>12.9</ele>
        <time>2020-02-21T15:53:14Z</time>
      </trkpt>
      <trkpt lat="38.9665300" lon="1.2758620">
        <ele>12.8</ele>
        <time>2020-02-21T15:53:15Z</time>
      </trkpt>
      <trkpt lat="38.9665800" lon="1.2758410">
        <ele>12.6</ele>
        <time>2020-02-21T15:53:16Z</time>
      </trkpt>
      <trkpt lat="38.9666310" lon="1.2758200">
        <ele>12.4</ele>
        <time>2020-02-21T15:53:17Z</time>
      </trkpt>
      <trkpt lat="38.9666800" lon="1.2757940">
        <ele>12.2</ele>
        <time>2020-02-21T15:53:18Z</time>
      </trkpt>
      <trkpt lat="38.9667300" lon="1.2757620">
        <ele>12.0</ele>
        <time>2020-02-21T15:53:19Z</time>
      </trkpt>
      <trkpt lat="38.9667850" lon="1.2757130">
        <ele>11.8</ele>
        <time>2020-02-21T15:53:20Z</time>
      </trkpt>
      <trkpt lat="38.9668450" lon="1.2756910">
        <ele>11.6</ele>
        <time>2020-02-21T15:53:21Z</time>
      </trkpt>
      <trkpt lat="38.9669000" lon="1.2756690">
        <ele>11.4</ele>
        <time>2020-02-21T15:53:22Z</time>
      </trkpt>
      <trkpt lat="38.9669500" lon="1.2756320">
        <ele>11.3</ele>
        <time>2020-02-21T15:53:23Z</time>
      </trkpt>
      <trkpt lat="38.9670100" lon="1.2755770">
        <ele>11.1</ele>
        <time>2020-02-21T15:53:24Z</time>
      </trkpt>
      <trkpt lat="38.9670550" lon="1.2755430">
        <ele>11.0</ele>
        <time>2020-02-21T15:53:25Z</time>
      </trkpt>
      <trkpt lat="38.9670960" lon="1.2755160">
        <ele>10.8</ele>
        <time>2020-02-21T15:53:26Z</time>
      </trkpt>
      <trkpt lat="38.9671370" lon="1.2754830">
        <ele>10.6</ele>
        <time>2020-02-21T15:53:27Z</time>
      </trkpt>
      <trkpt lat="38.9671810" lon="1.2754490">
        <ele>10.5</ele>
        <time>2020-02-21T15:53:28Z</time>
      </trkpt>
      <trkpt lat="38.9672250" lon="1.2754130">
        <ele>10.3</ele>
        <time>2020-02-21T15:53:29Z</time>
      </trkpt>
      <trkpt lat="38.9672760" lon="1.2753790">
        <ele>10.2</ele>
        <time>2020-02-21T15:53:30Z</time>
      </trkpt>
      <trkpt lat="38.9673280" lon="1.2753430">
        <ele>10.0</ele>
        <time>2020-02-21T15:53:31Z</time>
      </trkpt>
      <trkpt lat="38.9673870" lon="1.2753010">
        <ele>9.7</ele>
        <time>2020-02-21T15:53:32Z</time>
      </trkpt>
      <trkpt lat="38.9674380" lon="1.2752590">
        <ele>9.5</ele>
        <time>2020-02-21T15:53:33Z</time>
      </trkpt>
      <trkpt lat="38.9674870" lon="1.2752120">
        <ele>9.3</ele>
        <time>2020-02-21T15:53:34Z</time>
      </trkpt>
      <trkpt lat="38.9675380" lon="1.2751690">
        <ele>9.0</ele>
        <time>2020-02-21T15:53:35Z</time>
      </trkpt>
      <trkpt lat="38.9675900" lon="1.2751210">
        <ele>8.8</ele>
        <time>2020-02-21T15:53:36Z</time>
      </trkpt>
      <trkpt lat="38.9676490" lon="1.2750740">
        <ele>8.7</ele>
        <time>2020-02-21T15:53:37Z</time>
      </trkpt>
      <trkpt lat="38.9677210" lon="1.2750290">
        <ele>8.5</ele>
        <time>2020-02-21T15:53:38Z</time>
      </trkpt>
      <trkpt lat="38.9677990" lon="1.2749800">
        <ele>8.2</ele>
        <time>2020-02-21T15:53:39Z</time>
      </trkpt>
      <trkpt lat="38.9678770" lon="1.2749450">
        <ele>7.9</ele>
        <time>2020-02-21T15:53:40Z</time>
      </trkpt>
      <trkpt lat="38.9679340" lon="1.2749090">
        <ele>7.7</ele>
        <time>2020-02-21T15:53:41Z</time>
      </trkpt>
      <trkpt lat="38.9679920" lon="1.2748640">
        <ele>7.4</ele>
        <time>2020-02-21T15:53:42Z</time>
      </trkpt>
      <trkpt lat="38.9680520" lon="1.2748180">
        <ele>7.2</ele>
        <time>2020-02-21T15:53:43Z</time>
      </trkpt>
      <trkpt lat="38.9681180" lon="1.2747690">
        <ele>6.9</ele>
        <time>2020-02-21T15:53:44Z</time>
      </trkpt>
      <trkpt lat="38.9681830" lon="1.2747230">
        <ele>6.6</ele>
        <time>2020-02-21T15:53:45Z</time>
      </trkpt>
      <trkpt lat="38.9682450" lon="1.2746850">
        <ele>6.3</ele>
        <time>2020-02-21T15:53:46Z</time>
      </trkpt>
      <trkpt lat="38.9683170" lon="1.2746480">
        <ele>5.9</ele>
        <time>2020-02-21T15:53:47Z</time>
      </trkpt>
      <trkpt lat="38.9683790" lon="1.2746090">
        <ele>5.3</ele>
        <time>2020-02-21T15:53:48Z</time>
      </trkpt>
      <trkpt lat="38.9684420" lon="1.2745810">
        <ele>5.1</ele>
        <time>2020-02-21T15:53:49Z</time>
      </trkpt>
      <trkpt lat="38.9684990" lon="1.2745420">
        <ele>4.9</ele>
        <time>2020-02-21T15:53:50Z</time>
      </trkpt>
      <trkpt lat="38.9685570" lon="1.2745050">
        <ele>4.7</ele>
        <time>2020-02-21T15:53:51Z</time>
      </trkpt>
      <trkpt lat="38.9686110" lon="1.2744690">
        <ele>4.6</ele>
        <time>2020-02-21T15:53:52Z</time>
      </trkpt>
      <trkpt lat="38.9686630" lon="1.2744310">
        <ele>4.3</ele>
        <time>2020-02-21T15:53:53Z</time>
      </trkpt>
      <trkpt lat="38.9687190" lon="1.2743970">
        <ele>4.1</ele>
        <time>2020-02-21T15:53:54Z</time>
      </trkpt>
      <trkpt lat="38.9687710" lon="1.2743670">
        <ele>4.0</ele>
        <time>2020-02-21T15:53:55Z</time>
      </trkpt>
      <trkpt lat="38.9688130" lon="1.2743280">
        <ele>3.9</ele>
        <time>2020-02-21T15:53:56Z</time>
      </trkpt>
      <trkpt lat="38.9688530" lon="1.2742840">
        <ele>3.8</ele>
        <time>2020-02-21T15:53:57Z</time>
      </trkpt>
      <trkpt lat="38.9688920" lon="1.2742490">
        <ele>3.7</ele>
        <time>2020-02-21T15:53:58Z</time>
      </trkpt>
      <trkpt lat="38.9689310" lon="1.2742170">
        <ele>3.6</ele>
        <time>2020-02-21T15:53:59Z</time>
      </trkpt>
      <trkpt lat="38.9689700" lon="1.2741900">
        <ele>3.5</ele>
        <time>2020-02-21T15:54:00Z</time>
      </trkpt>
      <trkpt lat="38.9690120" lon="1.2741850">
        <ele>3.4</ele>
        <time>2020-02-21T15:54:01Z</time>
      </trkpt>
      <trkpt lat="38.9690450" lon="1.2741700">
        <ele>3.3</ele>
        <time>2020-02-21T15:54:02Z</time>
      </trkpt>
      <trkpt lat="38.9690760" lon="1.2741610">
        <ele>3.3</ele>
        <time>2020-02-21T15:54:03Z</time>
      </trkpt>
      <trkpt lat="38.9691080" lon="1.2741710">
        <ele>3.3</ele>
        <time>2020-02-21T15:54:04Z</time>
      </trkpt>
      <trkpt lat="38.9691260" lon="1.2742100">
        <ele>3.3</ele>
        <time>2020-02-21T15:54:05Z</time>
      </trkpt>
      <trkpt lat="38.9691230" lon="1.2742270">
        <ele>3.3</ele>
        <time>2020-02-21T15:54:06Z</time>
      </trkpt>
      <trkpt lat="38.9691310" lon="1.2742640">
        <ele>3.3</ele>
        <time>2020-02-21T15:54:07Z</time>
      </trkpt>
      <trkpt lat="38.9691500" lon="1.2743020">
        <ele>3.3</ele>
        <time>2020-02-21T15:54:08Z</time>
      </trkpt>
      <trkpt lat="38.9691630" lon="1.2743470">
        <ele>3.2</ele>
        <time>2020-02-21T15:54:09Z</time>
      </trkpt>
      <trkpt lat="38.9691770" lon="1.2743900">
        <ele>3.2</ele>
        <time>2020-02-21T15:54:10Z</time>
      </trkpt>
      <trkpt lat="38.9691890" lon="1.2744310">
        <ele>3.2</ele>
        <time>2020-02-21T15:54:11Z</time>
      </trkpt>
      <trkpt lat="38.9691990" lon="1.2744680">
        <ele>3.2</ele>
        <time>2020-02-21T15:54:12Z</time>
      </trkpt>
      <trkpt lat="38.9692120" lon="1.2745050">
        <ele>3.2</ele>
        <time>2020-02-21T15:54:13Z</time>
      </trkpt>
      <trkpt lat="38.9692390" lon="1.2745410">
        <ele>3.2</ele>
        <time>2020-02-21T15:54:14Z</time>
      </trkpt>
      <trkpt lat="38.9692620" lon="1.2745860">
        <ele>3.2</ele>
        <time>2020-02-21T15:54:15Z</time>
      </trkpt>
      <trkpt lat="38.9692760" lon="1.2746390">
        <ele>3.1</ele>
        <time>2020-02-21T15:54:16Z</time>
      </trkpt>
      <trkpt lat="38.9692960" lon="1.2746890">
        <ele>3.1</ele>
        <time>2020-02-21T15:54:17Z</time>
      </trkpt>
      <trkpt lat="38.9693220" lon="1.2747400">
        <ele>3.1</ele>
        <time>2020-02-21T15:54:18Z</time>
      </trkpt>
      <trkpt lat="38.9693410" lon="1.2747930">
        <ele>3.0</ele>
        <time>2020-02-21T15:54:19Z</time>
      </trkpt>
      <trkpt lat="38.9693540" lon="1.2748500">
        <ele>3.0</ele>
        <time>2020-02-21T15:54:20Z</time>
      </trkpt>
      <trkpt lat="38.9693710" lon="1.2749050">
        <ele>2.9</ele>
        <time>2020-02-21T15:54:21Z</time>
      </trkpt>
      <trkpt lat="38.9693900" lon="1.2749590">
        <ele>2.9</ele>
        <time>2020-02-21T15:54:22Z</time>
      </trkpt>
      <trkpt lat="38.9694000" lon="1.2750180">
        <ele>2.8</ele>
        <time>2020-02-21T15:54:23Z</time>
      </trkpt>
      <trkpt lat="38.9694060" lon="1.2750780">
        <ele>2.8</ele>
        <time>2020-02-21T15:54:24Z</time>
      </trkpt>
      <trkpt lat="38.9694200" lon="1.2751360">
        <ele>2.7</ele>
        <time>2020-02-21T15:54:25Z</time>
      </trkpt>
      <trkpt lat="38.9694400" lon="1.2751940">
        <ele>2.6</ele>
        <time>2020-02-21T15:54:26Z</time>
      </trkpt>
      <trkpt lat="38.9694560" lon="1.2752540">
        <ele>2.6</ele>
        <time>2020-02-21T15:54:27Z</time>
      </trkpt>
      <trkpt lat="38.9694620" lon="1.2753160">
        <ele>2.5</ele>
        <time>2020-02-21T15:54:28Z</time>
      </trkpt>
      <trkpt lat="38.9694660" lon="1.2753800">
        <ele>2.5</ele>
        <time>2020-02-21T15:54:29Z</time>
      </trkpt>
      <trkpt lat="38.9694780" lon="1.2754430">
        <ele>2.4</ele>
        <time>2020-02-21T15:54:30Z</time>
      </trkpt>
      <trkpt lat="38.9694970" lon="1.2755030">
        <ele>2.4</ele>
        <time>2020-02-21T15:54:31Z</time>
      </trkpt>
      <trkpt lat="38.9695000" lon="1.2755700">
        <ele>2.3</ele>
        <time>2020-02-21T15:54:32Z</time>
      </trkpt>
      <trkpt lat="38.9695240" lon="1.2756310">
        <ele>2.3</ele>
        <time>2020-02-21T15:54:33Z</time>
      </trkpt>
      <trkpt lat="38.9695420" lon="1.2756940">
        <ele>2.2</ele>
        <time>2020-02-21T15:54:34Z</time>
      </trkpt>
      <trkpt lat="38.9695550" lon="1.2757610">
        <ele>2.1</ele>
        <time>2020-02-21T15:54:35Z</time>
      </trkpt>
      <trkpt lat="38.9695670" lon="1.2758260">
        <ele>2.0</ele>
        <time>2020-02-21T15:54:36Z</time>
      </trkpt>
      <trkpt lat="38.9695750" lon="1.2758930">
        <ele>2.0</ele>
        <time>2020-02-21T15:54:37Z</time>
      </trkpt>
      <trkpt lat="38.9695830" lon="1.2759570">
        <ele>1.9</ele>
        <time>2020-02-21T15:54:38Z</time>
      </trkpt>
      <trkpt lat="38.9695940" lon="1.2760210">
        <ele>1.7</ele>
        <time>2020-02-21T15:54:39Z</time>
      </trkpt>
      <trkpt lat="38.9696070" lon="1.2760830">
        <ele>1.7</ele>
        <time>2020-02-21T15:54:40Z</time>
      </trkpt>
      <trkpt lat="38.9696160" lon="1.2761480">
        <ele>1.7</ele>
        <time>2020-02-21T15:54:41Z</time>
      </trkpt>
      <trkpt lat="38.9696280" lon="1.2762100">
        <ele>1.6</ele>
        <time>2020-02-21T15:54:42Z</time>
      </trkpt>
      <trkpt lat="38.9696420" lon="1.2762680">
        <ele>1.6</ele>
        <time>2020-02-21T15:54:43Z</time>
      </trkpt>
      <trkpt lat="38.9696590" lon="1.2763260">
        <ele>1.6</ele>
        <time>2020-02-21T15:54:44Z</time>
      </trkpt>
      <trkpt lat="38.9696760" lon="1.2763860">
        <ele>1.6</ele>
        <time>2020-02-21T15:54:45Z</time>
      </trkpt>
      <trkpt lat="38.9696910" lon="1.2764470">
        <ele>1.5</ele>
        <time>2020-02-21T15:54:46Z</time>
      </trkpt>
      <trkpt lat="38.9697080" lon="1.2765090">
        <ele>1.5</ele>
        <time>2020-02-21T15:54:47Z</time>
      </trkpt>
      <trkpt lat="38.9697190" lon="1.2765740">
        <ele>1.5</ele>
        <time>2020-02-21T15:54:48Z</time>
      </trkpt>
      <trkpt lat="38.9697280" lon="1.2766410">
        <ele>1.5</ele>
        <time>2020-02-21T15:54:49Z</time>
      </trkpt>
      <trkpt lat="38.9697380" lon="1.2767030">
        <ele>1.4</ele>
        <time>2020-02-21T15:54:50Z</time>
      </trkpt>
      <trkpt lat="38.9697440" lon="1.2767660">
        <ele>1.4</ele>
        <time>2020-02-21T15:54:51Z</time>
      </trkpt>
      <trkpt lat="38.9697540" lon="1.2768280">
        <ele>1.5</ele>
        <time>2020-02-21T15:54:52Z</time>
      </trkpt>
      <trkpt lat="38.9697670" lon="1.2768910">
        <ele>1.5</ele>
        <time>2020-02-21T15:54:53Z</time>
      </trkpt>
      <trkpt lat="38.9697720" lon="1.2769560">
        <ele>1.6</ele>
        <time>2020-02-21T15:54:54Z</time>
      </trkpt>
      <trkpt lat="38.9697890" lon="1.2770180">
        <ele>1.6</ele>
        <time>2020-02-21T15:54:55Z</time>
      </trkpt>
      <trkpt lat="38.9698060" lon="1.2770840">
        <ele>1.7</ele>
        <time>2020-02-21T15:54:56Z</time>
      </trkpt>
      <trkpt lat="38.9698180" lon="1.2771500">
        <ele>1.9</ele>
        <time>2020-02-21T15:54:57Z</time>
      </trkpt>
      <trkpt lat="38.9698370" lon="1.2772110">
        <ele>2.1</ele>
        <time>2020-02-21T15:54:58Z</time>
      </trkpt>
      <trkpt lat="38.9698470" lon="1.2772720">
        <ele>2.3</ele>
        <time>2020-02-21T15:54:59Z</time>
      </trkpt>
      <trkpt lat="38.9698520" lon="1.2773370">
        <ele>2.5</ele>
        <time>2020-02-21T15:55:00Z</time>
      </trkpt>
      <trkpt lat="38.9698600" lon="1.2774000">
        <ele>2.7</ele>
        <time>2020-02-21T15:55:01Z</time>
      </trkpt>
      <trkpt lat="38.9698690" lon="1.2774660">
        <ele>2.8</ele>
        <time>2020-02-21T15:55:02Z</time>
      </trkpt>
      <trkpt lat="38.9698770" lon="1.2775320">
        <ele>3.0</ele>
        <time>2020-02-21T15:55:03Z</time>
      </trkpt>
      <trkpt lat="38.9698690" lon="1.2776010">
        <ele>3.2</ele>
        <time>2020-02-21T15:55:04Z</time>
      </trkpt>
      <trkpt lat="38.9698830" lon="1.2776640">
        <ele>3.5</ele>
        <time>2020-02-21T15:55:05Z</time>
      </trkpt>
      <trkpt lat="38.9698920" lon="1.2777280">
        <ele>3.5</ele>
        <time>2020-02-21T15:55:06Z</time>
      </trkpt>
      <trkpt lat="38.9699100" lon="1.2777900">
        <ele>3.6</ele>
        <time>2020-02-21T15:55:07Z</time>
      </trkpt>
      <trkpt lat="38.9699270" lon="1.2778520">
        <ele>3.7</ele>
        <time>2020-02-21T15:55:08Z</time>
      </trkpt>
      <trkpt lat="38.9699480" lon="1.2779110">
        <ele>3.8</ele>
        <time>2020-02-21T15:55:09Z</time>
      </trkpt>
      <trkpt lat="38.9699540" lon="1.2779690">
        <ele>3.8</ele>
        <time>2020-02-21T15:55:10Z</time>
      </trkpt>
      <trkpt lat="38.9699620" lon="1.2780270">
        <ele>3.9</ele>
        <time>2020-02-21T15:55:11Z</time>
      </trkpt>
      <trkpt lat="38.9699670" lon="1.2780830">
        <ele>3.9</ele>
        <time>2020-02-21T15:55:12Z</time>
      </trkpt>
      <trkpt lat="38.9699730" lon="1.2781400">
        <ele>4.0</ele>
        <time>2020-02-21T15:55:13Z</time>
      </trkpt>
      <trkpt lat="38.9699740" lon="1.2781940">
        <ele>4.0</ele>
        <time>2020-02-21T15:55:14Z</time>
      </trkpt>
      <trkpt lat="38.9699760" lon="1.2782490">
        <ele>4.1</ele>
        <time>2020-02-21T15:55:15Z</time>
      </trkpt>
      <trkpt lat="38.9699770" lon="1.2783090">
        <ele>4.2</ele>
        <time>2020-02-21T15:55:16Z</time>
      </trkpt>
      <trkpt lat="38.9699740" lon="1.2783680">
        <ele>4.3</ele>
        <time>2020-02-21T15:55:17Z</time>
      </trkpt>
      <trkpt lat="38.9699650" lon="1.2784260">
        <ele>4.4</ele>
        <time>2020-02-21T15:55:18Z</time>
      </trkpt>
      <trkpt lat="38.9699560" lon="1.2784810">
        <ele>4.4</ele>
        <time>2020-02-21T15:55:19Z</time>
      </trkpt>
      <trkpt lat="38.9699520" lon="1.2785320">
        <ele>4.5</ele>
        <time>2020-02-21T15:55:20Z</time>
      </trkpt>
      <trkpt lat="38.9699550" lon="1.2785790">
        <ele>4.6</ele>
        <time>2020-02-21T15:55:21Z</time>
      </trkpt>
      <trkpt lat="38.9699350" lon="1.2786250">
        <ele>4.7</ele>
        <time>2020-02-21T15:55:22Z</time>
      </trkpt>
      <trkpt lat="38.9699430" lon="1.2786670">
        <ele>4.8</ele>
        <time>2020-02-21T15:55:23Z</time>
      </trkpt>
      <trkpt lat="38.9699480" lon="1.2787110">
        <ele>4.8</ele>
        <time>2020-02-21T15:55:24Z</time>
      </trkpt>
      <trkpt lat="38.9699610" lon="1.2787530">
        <ele>4.9</ele>
        <time>2020-02-21T15:55:25Z</time>
      </trkpt>
      <trkpt lat="38.9699820" lon="1.2787960">
        <ele>5.0</ele>
        <time>2020-02-21T15:55:26Z</time>
      </trkpt>
      <trkpt lat="38.9700070" lon="1.2788380">
        <ele>5.1</ele>
        <time>2020-02-21T15:55:27Z</time>
      </trkpt>
      <trkpt lat="38.9700350" lon="1.2788760">
        <ele>5.2</ele>
        <time>2020-02-21T15:55:28Z</time>
      </trkpt>
      <trkpt lat="38.9700410" lon="1.2789360">
        <ele>5.3</ele>
        <time>2020-02-21T15:55:29Z</time>
      </trkpt>
      <trkpt lat="38.9700630" lon="1.2789820">
        <ele>5.4</ele>
        <time>2020-02-21T15:55:30Z</time>
      </trkpt>
      <trkpt lat="38.9700870" lon="1.2790270">
        <ele>5.5</ele>
        <time>2020-02-21T15:55:31Z</time>
      </trkpt>
      <trkpt lat="38.9701090" lon="1.2790700">
        <ele>5.6</ele>
        <time>2020-02-21T15:55:32Z</time>
      </trkpt>
      <trkpt lat="38.9701330" lon="1.2791110">
        <ele>5.7</ele>
        <time>2020-02-21T15:55:33Z</time>
      </trkpt>
      <trkpt lat="38.9701630" lon="1.2791580">
        <ele>5.8</ele>
        <time>2020-02-21T15:55:34Z</time>
      </trkpt>
      <trkpt lat="38.9701990" lon="1.2792010">
        <ele>6.0</ele>
        <time>2020-02-21T15:55:35Z</time>
      </trkpt>
      <trkpt lat="38.9702290" lon="1.2792260">
        <ele>6.1</ele>
        <time>2020-02-21T15:55:36Z</time>
      </trkpt>
      <trkpt lat="38.9702690" lon="1.2792700">
        <ele>6.3</ele>
        <time>2020-02-21T15:55:37Z</time>
      </trkpt>
      <trkpt lat="38.9702970" lon="1.2793050">
        <ele>6.4</ele>
        <time>2020-02-21T15:55:38Z</time>
      </trkpt>
      <trkpt lat="38.9703190" lon="1.2793360">
        <ele>6.4</ele>
        <time>2020-02-21T15:55:39Z</time>
      </trkpt>
      <trkpt lat="38.9703500" lon="1.2793710">
        <ele>6.5</ele>
        <time>2020-02-21T15:55:40Z</time>
      </trkpt>
      <trkpt lat="38.9703760" lon="1.2794050">
        <ele>6.6</ele>
        <time>2020-02-21T15:55:41Z</time>
      </trkpt>
      <trkpt lat="38.9704090" lon="1.2794570">
        <ele>6.7</ele>
        <time>2020-02-21T15:55:42Z</time>
      </trkpt>
      <trkpt lat="38.9704320" lon="1.2795020">
        <ele>6.8</ele>
        <time>2020-02-21T15:55:43Z</time>
      </trkpt>
      <trkpt lat="38.9704480" lon="1.2795450">
        <ele>6.8</ele>
        <time>2020-02-21T15:55:44Z</time>
      </trkpt>
      <trkpt lat="38.9704590" lon="1.2795840">
        <ele>6.9</ele>
        <time>2020-02-21T15:55:45Z</time>
      </trkpt>
      <trkpt lat="38.9704580" lon="1.2796270">
        <ele>6.9</ele>
        <time>2020-02-21T15:55:46Z</time>
      </trkpt>
      <trkpt lat="38.9704760" lon="1.2796730">
        <ele>6.9</ele>
        <time>2020-02-21T15:55:47Z</time>
      </trkpt>
      <trkpt lat="38.9704750" lon="1.2796720">
        <ele>6.9</ele>
        <time>2020-02-21T15:55:48Z</time>
      </trkpt>
      <trkpt lat="38.9704780" lon="1.2796700">
        <ele>6.9</ele>
        <time>2020-02-21T15:55:49Z</time>
      </trkpt>
      <trkpt lat="38.9704830" lon="1.2796650">
        <ele>6.9</ele>
        <time>2020-02-21T15:55:50Z</time>
      </trkpt>
      <trkpt lat="38.9704880" lon="1.2796670">
        <ele>6.9</ele>
        <time>2020-02-21T15:55:51Z</time>
      </trkpt>
      <trkpt lat="38.9704920" lon="1.2796680">
        <ele>6.9</ele>
        <time>2020-02-21T15:55:52Z</time>
      </trkpt>
      <trkpt lat="38.9704890" lon="1.2796560">
        <ele>6.9</ele>
        <time>2020-02-21T15:55:53Z</time>
      </trkpt>
      <trkpt lat="38.9704870" lon="1.2796400">
        <ele>6.9</ele>
        <time>2020-02-21T15:55:54Z</time>
      </trkpt>
      <trkpt lat="38.9704980" lon="1.2796530">
        <ele>6.9</ele>
        <time>2020-02-21T15:55:55Z</time>
      </trkpt>
      <trkpt lat="38.9705010" lon="1.2796580">
        <ele>6.9</ele>
        <time>2020-02-21T15:55:56Z</time>
      </trkpt>
      <trkpt lat="38.9705050" lon="1.2796630">
        <ele>6.9</ele>
        <time>2020-02-21T15:55:57Z</time>
      </trkpt>
      <trkpt lat="38.9705080" lon="1.2796680">
        <ele>6.9</ele>
        <time>2020-02-21T15:55:58Z</time>
      </trkpt>
      <trkpt lat="38.9705120" lon="1.2796730">
        <ele>6.9</ele>
        <time>2020-02-21T15:55:59Z</time>
      </trkpt>
      <trkpt lat="38.9705170" lon="1.2796810">
        <ele>6.9</ele>
        <time>2020-02-21T15:56:00Z</time>
      </trkpt>
      <trkpt lat="38.9705150" lon="1.2796850">
        <ele>6.9</ele>
        <time>2020-02-21T15:56:01Z</time>
      </trkpt>
      <trkpt lat="38.9705130" lon="1.2796850">
        <ele>6.9</ele>
        <time>2020-02-21T15:56:02Z</time>
      </trkpt>
      <trkpt lat="38.9705090" lon="1.2796890">
        <ele>6.9</ele>
        <time>2020-02-21T15:56:03Z</time>
      </trkpt>
      <trkpt lat="38.9704950" lon="1.2796840">
        <ele>6.9</ele>
        <time>2020-02-21T15:56:04Z</time>
      </trkpt>
      <trkpt lat="38.9704840" lon="1.2796950">
        <ele>6.9</ele>
        <time>2020-02-21T15:56:05Z</time>
      </trkpt>
      <trkpt lat="38.9704570" lon="1.2796990">
        <ele>6.9</ele>
        <time>2020-02-21T15:56:06Z</time>
      </trkpt>
      <trkpt lat="38.9704430" lon="1.2796920">
        <ele>6.9</ele>
        <time>2020-02-21T15:56:07Z</time>
      </trkpt>
      <trkpt lat="38.9704100" lon="1.2797070">
        <ele>6.9</ele>
        <time>2020-02-21T15:56:08Z</time>
      </trkpt>
      <trkpt lat="38.9703960" lon="1.2797130">
        <ele>6.9</ele>
        <time>2020-02-21T15:56:09Z</time>
      </trkpt>
      <trkpt lat="38.9703660" lon="1.2797250">
        <ele>6.9</ele>
        <time>2020-02-21T15:56:10Z</time>
      </trkpt>
      <trkpt lat="38.9703340" lon="1.2797370">
        <ele>6.9</ele>
        <time>2020-02-21T15:56:11Z</time>
      </trkpt>
      <trkpt lat="38.9702940" lon="1.2797690">
        <ele>6.9</ele>
        <time>2020-02-21T15:56:12Z</time>
      </trkpt>
      <trkpt lat="38.9702250" lon="1.2798180">
        <ele>6.9</ele>
        <time>2020-02-21T15:56:13Z</time>
      </trkpt>
      <trkpt lat="38.9701520" lon="1.2798530">
        <ele>6.9</ele>
        <time>2020-02-21T15:56:14Z</time>
      </trkpt>
      <trkpt lat="38.9701020" lon="1.2798720">
        <ele>6.9</ele>
        <time>2020-02-21T15:56:15Z</time>
      </trkpt>
      <trkpt lat="38.9700450" lon="1.2798850">
        <ele>6.9</ele>
        <time>2020-02-21T15:56:16Z</time>
      </trkpt>
      <trkpt lat="38.9700000" lon="1.2798980">
        <ele>6.9</ele>
        <time>2020-02-21T15:56:17Z</time>
      </trkpt>
      <trkpt lat="38.9699610" lon="1.2799010">
        <ele>6.9</ele>
        <time>2020-02-21T15:56:18Z</time>
      </trkpt>
      <trkpt lat="38.9699280" lon="1.2799220">
        <ele>6.9</ele>
        <time>2020-02-21T15:56:19Z</time>
      </trkpt>
      <trkpt lat="38.9699120" lon="1.2799360">
        <ele>6.9</ele>
        <time>2020-02-21T15:56:20Z</time>
      </trkpt>
      <trkpt lat="38.9699290" lon="1.2799300">
        <ele>6.9</ele>
        <time>2020-02-21T15:56:21Z</time>
      </trkpt>
      <trkpt lat="38.9699320" lon="1.2799270">
        <ele>6.9</ele>
        <time>2020-02-21T15:56:22Z</time>
      </trkpt>
      <trkpt lat="38.9699400" lon="1.2799280">
        <ele>6.9</ele>
        <time>2020-02-21T15:56:23Z</time>
      </trkpt>
      <trkpt lat="38.9699420" lon="1.2799310">
        <ele>6.9</ele>
        <time>2020-02-21T15:56:24Z</time>
      </trkpt>
      <trkpt lat="38.9699460" lon="1.2799330">
        <ele>6.9</ele>
        <time>2020-02-21T15:56:25Z</time>
      </trkpt>
      <trkpt lat="38.9699520" lon="1.2799310">
        <ele>6.9</ele>
        <time>2020-02-21T15:56:26Z</time>
      </trkpt>
      <trkpt lat="38.9699600" lon="1.2799310">
        <ele>6.9</ele>
        <time>2020-02-21T15:56:27Z</time>
      </trkpt>
      <trkpt lat="38.9699580" lon="1.2799320">
        <ele>6.9</ele>
        <time>2020-02-21T15:56:28Z</time>
      </trkpt>
      <trkpt lat="38.9699570" lon="1.2799330">
        <ele>6.9</ele>
        <time>2020-02-21T15:56:29Z</time>
      </trkpt>
      <trkpt lat="38.9699590" lon="1.2799330">
        <ele>6.9</ele>
        <time>2020-02-21T15:56:30Z</time>
      </trkpt>
      <trkpt lat="38.9699590" lon="1.2799320">
        <ele>6.9</ele>
        <time>2020-02-21T15:56:31Z</time>
      </trkpt>
      <trkpt lat="38.9699420" lon="1.2799390">
        <ele>6.9</ele>
        <time>2020-02-21T15:56:32Z</time>
      </trkpt>
      <trkpt lat="38.9699410" lon="1.2799400">
        <ele>6.9</ele>
        <time>2020-02-21T15:56:33Z</time>
      </trkpt>
      <trkpt lat="38.9699390" lon="1.2799470">
        <ele>6.9</ele>
        <time>2020-02-21T15:56:34Z</time>
      </trkpt>
      <trkpt lat="38.9699410" lon="1.2799490">
        <ele>6.9</ele>
        <time>2020-02-21T15:56:35Z</time>
      </trkpt>
      <trkpt lat="38.9699550" lon="1.2799550">
        <ele>6.9</ele>
        <time>2020-02-21T15:56:36Z</time>
      </trkpt>
      <trkpt lat="38.9700820" lon="1.2798890">
        <ele>6.9</ele>
        <time>2020-02-21T15:56:43Z</time>
      </trkpt>
      <trkpt lat="38.9701230" lon="1.2798940">
        <ele>6.9</ele>
        <time>2020-02-21T15:56:44Z</time>
      </trkpt>
      <trkpt lat="38.9701560" lon="1.2798940">
        <ele>6.9</ele>
        <time>2020-02-21T15:56:45Z</time>
      </trkpt>
      <trkpt lat="38.9701880" lon="1.2798850">
        <ele>6.9</ele>
        <time>2020-02-21T15:56:46Z</time>
      </trkpt>
      <trkpt lat="38.9702050" lon="1.2798790">
        <ele>6.9</ele>
        <time>2020-02-21T15:56:47Z</time>
      </trkpt>
      <trkpt lat="38.9702110" lon="1.2798760">
        <ele>6.9</ele>
        <time>2020-02-21T15:56:48Z</time>
      </trkpt>
      <trkpt lat="38.9702170" lon="1.2798720">
        <ele>6.9</ele>
        <time>2020-02-21T15:56:49Z</time>
      </trkpt>
      <trkpt lat="38.9702230" lon="1.2798690">
        <ele>6.9</ele>
        <time>2020-02-21T15:56:50Z</time>
      </trkpt>
      <trkpt lat="38.9702410" lon="1.2798520">
        <ele>6.9</ele>
        <time>2020-02-21T15:56:51Z</time>
      </trkpt>
      <trkpt lat="38.9702550" lon="1.2798420">
        <ele>6.9</ele>
        <time>2020-02-21T15:56:52Z</time>
      </trkpt>
      <trkpt lat="38.9702690" lon="1.2798320">
        <ele>6.9</ele>
        <time>2020-02-21T15:56:53Z</time>
      </trkpt>
      <trkpt lat="38.9702840" lon="1.2798220">
        <ele>6.9</ele>
        <time>2020-02-21T15:56:54Z</time>
      </trkpt>
      <trkpt lat="38.9702980" lon="1.2798120">
        <ele>6.9</ele>
        <time>2020-02-21T15:56:55Z</time>
      </trkpt>
      <trkpt lat="38.9703120" lon="1.2798020">
        <ele>6.9</ele>
        <time>2020-02-21T15:56:56Z</time>
      </trkpt>
      <trkpt lat="38.9703260" lon="1.2797930">
        <ele>6.9</ele>
        <time>2020-02-21T15:56:57Z</time>
      </trkpt>
      <trkpt lat="38.9703400" lon="1.2797830">
        <ele>6.9</ele>
        <time>2020-02-21T15:56:58Z</time>
      </trkpt>
      <trkpt lat="38.9703540" lon="1.2797730">
        <ele>6.9</ele>
        <time>2020-02-21T15:56:59Z</time>
      </trkpt>
      <trkpt lat="38.9703690" lon="1.2797630">
        <ele>6.9</ele>
        <time>2020-02-21T15:57:00Z</time>
      </trkpt>
      <trkpt lat="38.9703830" lon="1.2797530">
        <ele>6.9</ele>
        <time>2020-02-21T15:57:01Z</time>
      </trkpt>
      <trkpt lat="38.9703970" lon="1.2797430">
        <ele>6.9</ele>
        <time>2020-02-21T16:06:51Z</time>
      </trkpt>
      <trkpt lat="38.9704110" lon="1.2797330">
        <ele>6.9</ele>
        <time>2020-02-21T16:06:52Z</time>
      </trkpt>
      <trkpt lat="38.9704380" lon="1.2797410">
        <ele>6.9</ele>
        <time>2020-02-21T16:06:53Z</time>
      </trkpt>
      <trkpt lat="38.9704600" lon="1.2797490">
        <ele>6.9</ele>
        <time>2020-02-21T16:06:54Z</time>
      </trkpt>
      <trkpt lat="38.9704680" lon="1.2797540">
        <ele>6.9</ele>
        <time>2020-02-21T16:06:55Z</time>
      </trkpt>
      <trkpt lat="38.9704750" lon="1.2797590">
        <ele>6.9</ele>
        <time>2020-02-21T16:06:56Z</time>
      </trkpt>
      <trkpt lat="38.9704930" lon="1.2798100">
        <ele>6.3</ele>
        <time>2020-02-21T16:06:57Z</time>
      </trkpt>
      <trkpt lat="38.9704960" lon="1.2798530">
        <ele>6.1</ele>
        <time>2020-02-21T16:06:58Z</time>
      </trkpt>
      <trkpt lat="38.9704960" lon="1.2798710">
        <ele>6.1</ele>
        <time>2020-02-21T16:06:59Z</time>
      </trkpt>
      <trkpt lat="38.9704930" lon="1.2799090">
        <ele>6.0</ele>
        <time>2020-02-21T16:07:00Z</time>
      </trkpt>
      <trkpt lat="38.9704920" lon="1.2799190">
        <ele>5.9</ele>
        <time>2020-02-21T16:07:01Z</time>
      </trkpt>
      <trkpt lat="38.9704960" lon="1.2799680">
        <ele>5.8</ele>
        <time>2020-02-21T16:07:02Z</time>
      </trkpt>
      <trkpt lat="38.9704960" lon="1.2799830">
        <ele>5.8</ele>
        <time>2020-02-21T16:07:03Z</time>
      </trkpt>
      <trkpt lat="38.9705030" lon="1.2800210">
        <ele>5.7</ele>
        <time>2020-02-21T16:07:04Z</time>
      </trkpt>
      <trkpt lat="38.9705060" lon="1.2800380">
        <ele>5.7</ele>
        <time>2020-02-21T16:07:05Z</time>
      </trkpt>
      <trkpt lat="38.9705200" lon="1.2800690">
        <ele>5.7</ele>
        <time>2020-02-21T16:07:06Z</time>
      </trkpt>
      <trkpt lat="38.9705240" lon="1.2800860">
        <ele>5.6</ele>
        <time>2020-02-21T16:07:07Z</time>
      </trkpt>
      <trkpt lat="38.9705300" lon="1.2801220">
        <ele>5.6</ele>
        <time>2020-02-21T16:07:08Z</time>
      </trkpt>
      <trkpt lat="38.9705350" lon="1.2801580">
        <ele>5.6</ele>
        <time>2020-02-21T16:07:09Z</time>
      </trkpt>
      <trkpt lat="38.9705460" lon="1.2802040">
        <ele>5.5</ele>
        <time>2020-02-21T16:07:10Z</time>
      </trkpt>
      <trkpt lat="38.9705540" lon="1.2802490">
        <ele>5.4</ele>
        <time>2020-02-21T16:07:11Z</time>
      </trkpt>
      <trkpt lat="38.9705590" lon="1.2802970">
        <ele>5.4</ele>
        <time>2020-02-21T16:07:12Z</time>
      </trkpt>
      <trkpt lat="38.9705670" lon="1.2803470">
        <ele>5.3</ele>
        <time>2020-02-21T16:07:13Z</time>
      </trkpt>
      <trkpt lat="38.9705740" lon="1.2803920">
        <ele>5.3</ele>
        <time>2020-02-21T16:07:14Z</time>
      </trkpt>
      <trkpt lat="38.9705820" lon="1.2804410">
        <ele>5.3</ele>
        <time>2020-02-21T16:07:15Z</time>
      </trkpt>
      <trkpt lat="38.9705830" lon="1.2804970">
        <ele>5.2</ele>
        <time>2020-02-21T16:07:16Z</time>
      </trkpt>
      <trkpt lat="38.9705620" lon="1.2805400">
        <ele>5.2</ele>
        <time>2020-02-21T16:07:17Z</time>
      </trkpt>
      <trkpt lat="38.9705640" lon="1.2805890">
        <ele>5.1</ele>
        <time>2020-02-21T16:07:18Z</time>
      </trkpt>
      <trkpt lat="38.9705810" lon="1.2806340">
        <ele>5.1</ele>
        <time>2020-02-21T16:07:19Z</time>
      </trkpt>
      <trkpt lat="38.9705870" lon="1.2806770">
        <ele>5.0</ele>
        <time>2020-02-21T16:07:20Z</time>
      </trkpt>
      <trkpt lat="38.9705900" lon="1.2807380">
        <ele>5.0</ele>
        <time>2020-02-21T16:07:21Z</time>
      </trkpt>
      <trkpt lat="38.9705900" lon="1.2808000">
        <ele>4.9</ele>
        <time>2020-02-21T16:07:22Z</time>
      </trkpt>
      <trkpt lat="38.9705890" lon="1.2808560">
        <ele>4.9</ele>
        <time>2020-02-21T16:07:23Z</time>
      </trkpt>
      <trkpt lat="38.9705840" lon="1.2809090">
        <ele>4.8</ele>
        <time>2020-02-21T16:07:24Z</time>
      </trkpt>
      <trkpt lat="38.9705860" lon="1.2809660">
        <ele>4.8</ele>
        <time>2020-02-21T16:07:25Z</time>
      </trkpt>
      <trkpt lat="38.9705930" lon="1.2810260">
        <ele>4.8</ele>
        <time>2020-02-21T16:07:26Z</time>
      </trkpt>
      <trkpt lat="38.9705960" lon="1.2810800">
        <ele>4.8</ele>
        <time>2020-02-21T16:07:27Z</time>
      </trkpt>
      <trkpt lat="38.9705940" lon="1.2811170">
        <ele>4.7</ele>
        <time>2020-02-21T16:07:28Z</time>
      </trkpt>
      <trkpt lat="38.9706040" lon="1.2811670">
        <ele>4.7</ele>
        <time>2020-02-21T16:07:29Z</time>
      </trkpt>
      <trkpt lat="38.9706150" lon="1.2812220">
        <ele>4.7</ele>
        <time>2020-02-21T16:07:30Z</time>
      </trkpt>
      <trkpt lat="38.9706220" lon="1.2812790">
        <ele>4.7</ele>
        <time>2020-02-21T16:07:31Z</time>
      </trkpt>
      <trkpt lat="38.9706180" lon="1.2813270">
        <ele>4.7</ele>
        <time>2020-02-21T16:07:32Z</time>
      </trkpt>
      <trkpt lat="38.9706270" lon="1.2813840">
        <ele>4.6</ele>
        <time>2020-02-21T16:07:33Z</time>
      </trkpt>
      <trkpt lat="38.9706200" lon="1.2814250">
        <ele>4.6</ele>
        <time>2020-02-21T16:07:34Z</time>
      </trkpt>
      <trkpt lat="38.9706180" lon="1.2814690">
        <ele>4.6</ele>
        <time>2020-02-21T16:07:35Z</time>
      </trkpt>
      <trkpt lat="38.9706290" lon="1.2815160">
        <ele>4.6</ele>
        <time>2020-02-21T16:07:36Z</time>
      </trkpt>
      <trkpt lat="38.9706150" lon="1.2815600">
        <ele>4.6</ele>
        <time>2020-02-21T16:07:37Z</time>
      </trkpt>
      <trkpt lat="38.9706200" lon="1.2816080">
        <ele>4.6</ele>
        <time>2020-02-21T16:07:38Z</time>
      </trkpt>
      <trkpt lat="38.9706310" lon="1.2816580">
        <ele>4.6</ele>
        <time>2020-02-21T16:07:39Z</time>
      </trkpt>
      <trkpt lat="38.9706280" lon="1.2817050">
        <ele>4.5</ele>
        <time>2020-02-21T16:07:40Z</time>
      </trkpt>
      <trkpt lat="38.9706250" lon="1.2817570">
        <ele>4.5</ele>
        <time>2020-02-21T16:07:41Z</time>
      </trkpt>
      <trkpt lat="38.9706210" lon="1.2817980">
        <ele>4.5</ele>
        <time>2020-02-21T16:07:42Z</time>
      </trkpt>
      <trkpt lat="38.9706330" lon="1.2818290">
        <ele>4.5</ele>
        <time>2020-02-21T16:07:43Z</time>
      </trkpt>
      <trkpt lat="38.9706390" lon="1.2818410">
        <ele>4.5</ele>
        <time>2020-02-21T16:07:44Z</time>
      </trkpt>
      <trkpt lat="38.9706450" lon="1.2818610">
        <ele>4.5</ele>
        <time>2020-02-21T16:07:45Z</time>
      </trkpt>
      <trkpt lat="38.9706470" lon="1.2818560">
        <ele>4.5</ele>
        <time>2020-02-21T16:07:46Z</time>
      </trkpt>
      <trkpt lat="38.9706520" lon="1.2818510">
        <ele>4.5</ele>
        <time>2020-02-21T16:07:47Z</time>
      </trkpt>
      <trkpt lat="38.9706600" lon="1.2818450">
        <ele>4.5</ele>
        <time>2020-02-21T16:07:48Z</time>
      </trkpt>
      <trkpt lat="38.9706700" lon="1.2818340">
        <ele>4.5</ele>
        <time>2020-02-21T16:07:49Z</time>
      </trkpt>
      <trkpt lat="38.9707030" lon="1.2818150">
        <ele>4.5</ele>
        <time>2020-02-21T16:07:50Z</time>
      </trkpt>
      <trkpt lat="38.9707150" lon="1.2818050">
        <ele>4.5</ele>
        <time>2020-02-21T16:07:51Z</time>
      </trkpt>
      <trkpt lat="38.9707330" lon="1.2817920">
        <ele>4.5</ele>
        <time>2020-02-21T16:07:52Z</time>
      </trkpt>
      <trkpt lat="38.9707350" lon="1.2817990">
        <ele>4.5</ele>
        <time>2020-02-21T16:07:53Z</time>
      </trkpt>
      <trkpt lat="38.9707440" lon="1.2818000">
        <ele>4.5</ele>
        <time>2020-02-21T16:07:54Z</time>
      </trkpt>
      <trkpt lat="38.9707360" lon="1.2817970">
        <ele>4.5</ele>
        <time>2020-02-21T16:07:55Z</time>
      </trkpt>
      <trkpt lat="38.9707340" lon="1.2818090">
        <ele>4.5</ele>
        <time>2020-02-21T16:07:56Z</time>
      </trkpt>
      <trkpt lat="38.9707290" lon="1.2818050">
        <ele>4.5</ele>
        <time>2020-02-21T16:07:57Z</time>
      </trkpt>
      <trkpt lat="38.9707190" lon="1.2818060">
        <ele>4.5</ele>
        <time>2020-02-21T16:07:58Z</time>
      </trkpt>
      <trkpt lat="38.9707160" lon="1.2818010">
        <ele>4.5</ele>
        <time>2020-02-21T16:07:59Z</time>
      </trkpt>
      <trkpt lat="38.9706990" lon="1.2818060">
        <ele>4.4</ele>
        <time>2020-02-21T16:08:00Z</time>
      </trkpt>
      <trkpt lat="38.9706880" lon="1.2818160">
        <ele>4.4</ele>
        <time>2020-02-21T16:08:01Z</time>
      </trkpt>
      <trkpt lat="38.9706930" lon="1.2818580">
        <ele>4.4</ele>
        <time>2020-02-21T16:08:02Z</time>
      </trkpt>
      <trkpt lat="38.9707010" lon="1.2818760">
        <ele>4.4</ele>
        <time>2020-02-21T16:08:03Z</time>
      </trkpt>
      <trkpt lat="38.9707040" lon="1.2818990">
        <ele>4.3</ele>
        <time>2020-02-21T16:08:04Z</time>
      </trkpt>
      <trkpt lat="38.9707030" lon="1.2819170">
        <ele>4.3</ele>
        <time>2020-02-21T16:08:05Z</time>
      </trkpt>
      <trkpt lat="38.9707030" lon="1.2819610">
        <ele>4.3</ele>
        <time>2020-02-21T16:08:06Z</time>
      </trkpt>
      <trkpt lat="38.9707000" lon="1.2819770">
        <ele>4.3</ele>
        <time>2020-02-21T16:08:07Z</time>
      </trkpt>
      <trkpt lat="38.9706980" lon="1.2820100">
        <ele>4.3</ele>
        <time>2020-02-21T16:08:08Z</time>
      </trkpt>
      <trkpt lat="38.9706970" lon="1.2820240">
        <ele>4.3</ele>
        <time>2020-02-21T16:08:09Z</time>
      </trkpt>
      <trkpt lat="38.9706900" lon="1.2820460">
        <ele>4.3</ele>
        <time>2020-02-21T16:08:10Z</time>
      </trkpt>
      <trkpt lat="38.9706980" lon="1.2820650">
        <ele>4.2</ele>
        <time>2020-02-21T16:08:11Z</time>
      </trkpt>
      <trkpt lat="38.9707060" lon="1.2820870">
        <ele>4.2</ele>
        <time>2020-02-21T16:08:12Z</time>
      </trkpt>
      <trkpt lat="38.9707020" lon="1.2821100">
        <ele>4.2</ele>
        <time>2020-02-21T16:08:13Z</time>
      </trkpt>
      <trkpt lat="38.9707020" lon="1.2821220">
        <ele>4.2</ele>
        <time>2020-02-21T16:08:14Z</time>
      </trkpt>
      <trkpt lat="38.9707070" lon="1.2821460">
        <ele>4.2</ele>
        <time>2020-02-21T16:08:15Z</time>
      </trkpt>
      <trkpt lat="38.9707050" lon="1.2821920">
        <ele>4.3</ele>
        <time>2020-02-21T16:08:16Z</time>
      </trkpt>
      <trkpt lat="38.9707060" lon="1.2822100">
        <ele>4.3</ele>
        <time>2020-02-21T16:08:17Z</time>
      </trkpt>
      <trkpt lat="38.9707000" lon="1.2822700">
        <ele>4.3</ele>
        <time>2020-02-21T16:08:18Z</time>
      </trkpt>
      <trkpt lat="38.9707000" lon="1.2823120">
        <ele>4.4</ele>
        <time>2020-02-21T16:08:19Z</time>
      </trkpt>
      <trkpt lat="38.9707060" lon="1.2823500">
        <ele>4.4</ele>
        <time>2020-02-21T16:08:20Z</time>
      </trkpt>
      <trkpt lat="38.9707130" lon="1.2823890">
        <ele>4.5</ele>
        <time>2020-02-21T16:08:21Z</time>
      </trkpt>
      <trkpt lat="38.9707140" lon="1.2824280">
        <ele>4.6</ele>
        <time>2020-02-21T16:08:22Z</time>
      </trkpt>
      <trkpt lat="38.9707160" lon="1.2824700">
        <ele>4.6</ele>
        <time>2020-02-21T16:08:23Z</time>
      </trkpt>
      <trkpt lat="38.9707100" lon="1.2824890">
        <ele>4.7</ele>
        <time>2020-02-21T16:08:24Z</time>
      </trkpt>
      <trkpt lat="38.9707130" lon="1.2825430">
        <ele>4.7</ele>
        <time>2020-02-21T16:08:25Z</time>
      </trkpt>
      <trkpt lat="38.9707230" lon="1.2826000">
        <ele>4.8</ele>
        <time>2020-02-21T16:08:26Z</time>
      </trkpt>
      <trkpt lat="38.9707250" lon="1.2826300">
        <ele>4.8</ele>
        <time>2020-02-21T16:08:27Z</time>
      </trkpt>
      <trkpt lat="38.9707260" lon="1.2826770">
        <ele>4.9</ele>
        <time>2020-02-21T16:08:28Z</time>
      </trkpt>
      <trkpt lat="38.9707190" lon="1.2827210">
        <ele>4.9</ele>
        <time>2020-02-21T16:08:29Z</time>
      </trkpt>
      <trkpt lat="38.9707100" lon="1.2827740">
        <ele>4.9</ele>
        <time>2020-02-21T16:08:30Z</time>
      </trkpt>
      <trkpt lat="38.9707060" lon="1.2828220">
        <ele>4.9</ele>
        <time>2020-02-21T16:08:31Z</time>
      </trkpt>
      <trkpt lat="38.9707020" lon="1.2828690">
        <ele>5.0</ele>
        <time>2020-02-21T16:08:32Z</time>
      </trkpt>
      <trkpt lat="38.9707030" lon="1.2829110">
        <ele>5.0</ele>
        <time>2020-02-21T16:08:33Z</time>
      </trkpt>
      <trkpt lat="38.9706970" lon="1.2829650">
        <ele>5.0</ele>
        <time>2020-02-21T16:08:34Z</time>
      </trkpt>
      <trkpt lat="38.9706950" lon="1.2829850">
        <ele>5.0</ele>
        <time>2020-02-21T16:08:35Z</time>
      </trkpt>
      <trkpt lat="38.9706980" lon="1.2830340">
        <ele>5.0</ele>
        <time>2020-02-21T16:08:36Z</time>
      </trkpt>
      <trkpt lat="38.9707000" lon="1.2830740">
        <ele>5.0</ele>
        <time>2020-02-21T16:08:37Z</time>
      </trkpt>
      <trkpt lat="38.9707100" lon="1.2831180">
        <ele>5.1</ele>
        <time>2020-02-21T16:08:38Z</time>
      </trkpt>
      <trkpt lat="38.9707200" lon="1.2831590">
        <ele>5.1</ele>
        <time>2020-02-21T16:08:39Z</time>
      </trkpt>
      <trkpt lat="38.9707310" lon="1.2831970">
        <ele>5.1</ele>
        <time>2020-02-21T16:08:40Z</time>
      </trkpt>
      <trkpt lat="38.9707150" lon="1.2832260">
        <ele>5.1</ele>
        <time>2020-02-21T16:08:41Z</time>
      </trkpt>
      <trkpt lat="38.9707250" lon="1.2832600">
        <ele>5.1</ele>
        <time>2020-02-21T16:08:42Z</time>
      </trkpt>
      <trkpt lat="38.9707320" lon="1.2833060">
        <ele>5.1</ele>
        <time>2020-02-21T16:08:43Z</time>
      </trkpt>
      <trkpt lat="38.9707320" lon="1.2833240">
        <ele>5.1</ele>
        <time>2020-02-21T16:08:44Z</time>
      </trkpt>
      <trkpt lat="38.9707330" lon="1.2833660">
        <ele>5.1</ele>
        <time>2020-02-21T16:08:45Z</time>
      </trkpt>
      <trkpt lat="38.9707330" lon="1.2833800">
        <ele>5.1</ele>
        <time>2020-02-21T16:08:46Z</time>
      </trkpt>
      <trkpt lat="38.9707170" lon="1.2834150">
        <ele>5.1</ele>
        <time>2020-02-21T16:08:47Z</time>
      </trkpt>
      <trkpt lat="38.9707120" lon="1.2834560">
        <ele>5.1</ele>
        <time>2020-02-21T16:08:48Z</time>
      </trkpt>
      <trkpt lat="38.9707200" lon="1.2835020">
        <ele>5.2</ele>
        <time>2020-02-21T16:08:49Z</time>
      </trkpt>
      <trkpt lat="38.9707300" lon="1.2835450">
        <ele>5.2</ele>
        <time>2020-02-21T16:08:50Z</time>
      </trkpt>
      <trkpt lat="38.9707310" lon="1.2835920">
        <ele>5.2</ele>
        <time>2020-02-21T16:08:51Z</time>
      </trkpt>
      <trkpt lat="38.9707310" lon="1.2836070">
        <ele>5.3</ele>
        <time>2020-02-21T16:08:52Z</time>
      </trkpt>
      <trkpt lat="38.9707330" lon="1.2836540">
        <ele>5.3</ele>
        <time>2020-02-21T16:08:53Z</time>
      </trkpt>
      <trkpt lat="38.9707310" lon="1.2836700">
        <ele>5.3</ele>
        <time>2020-02-21T16:08:54Z</time>
      </trkpt>
      <trkpt lat="38.9707320" lon="1.2837230">
        <ele>5.3</ele>
        <time>2020-02-21T16:08:55Z</time>
      </trkpt>
      <trkpt lat="38.9707390" lon="1.2837670">
        <ele>5.4</ele>
        <time>2020-02-21T16:08:56Z</time>
      </trkpt>
      <trkpt lat="38.9707360" lon="1.2838120">
        <ele>5.4</ele>
        <time>2020-02-21T16:08:57Z</time>
      </trkpt>
      <trkpt lat="38.9707450" lon="1.2838510">
        <ele>5.4</ele>
        <time>2020-02-21T16:08:58Z</time>
      </trkpt>
      <trkpt lat="38.9707510" lon="1.2838990">
        <ele>5.4</ele>
        <time>2020-02-21T16:08:59Z</time>
      </trkpt>
      <trkpt lat="38.9707520" lon="1.2839520">
        <ele>5.5</ele>
        <time>2020-02-21T16:09:00Z</time>
      </trkpt>
      <trkpt lat="38.9707610" lon="1.2839890">
        <ele>5.5</ele>
        <time>2020-02-21T16:09:01Z</time>
      </trkpt>
      <trkpt lat="38.9707590" lon="1.2840350">
        <ele>5.5</ele>
        <time>2020-02-21T16:09:02Z</time>
      </trkpt>
      <trkpt lat="38.9707530" lon="1.2840830">
        <ele>5.6</ele>
        <time>2020-02-21T16:09:03Z</time>
      </trkpt>
      <trkpt lat="38.9707550" lon="1.2841290">
        <ele>5.6</ele>
        <time>2020-02-21T16:09:04Z</time>
      </trkpt>
      <trkpt lat="38.9707710" lon="1.2841890">
        <ele>5.6</ele>
        <time>2020-02-21T16:09:05Z</time>
      </trkpt>
      <trkpt lat="38.9707920" lon="1.2842460">
        <ele>5.7</ele>
        <time>2020-02-21T16:09:06Z</time>
      </trkpt>
      <trkpt lat="38.9707910" lon="1.2842830">
        <ele>5.7</ele>
        <time>2020-02-21T16:09:07Z</time>
      </trkpt>
      <trkpt lat="38.9707970" lon="1.2843270">
        <ele>5.8</ele>
        <time>2020-02-21T16:09:08Z</time>
      </trkpt>
      <trkpt lat="38.9707910" lon="1.2843800">
        <ele>5.8</ele>
        <time>2020-02-21T16:09:09Z</time>
      </trkpt>
      <trkpt lat="38.9707990" lon="1.2844320">
        <ele>5.9</ele>
        <time>2020-02-21T16:09:10Z</time>
      </trkpt>
      <trkpt lat="38.9707990" lon="1.2844540">
        <ele>6.0</ele>
        <time>2020-02-21T16:09:11Z</time>
      </trkpt>
      <trkpt lat="38.9707880" lon="1.2844960">
        <ele>5.9</ele>
        <time>2020-02-21T16:09:12Z</time>
      </trkpt>
      <trkpt lat="38.9707750" lon="1.2845460">
        <ele>5.9</ele>
        <time>2020-02-21T16:09:13Z</time>
      </trkpt>
      <trkpt lat="38.9707730" lon="1.2845660">
        <ele>5.9</ele>
        <time>2020-02-21T16:09:14Z</time>
      </trkpt>
      <trkpt lat="38.9707820" lon="1.2846220">
        <ele>5.9</ele>
        <time>2020-02-21T16:09:15Z</time>
      </trkpt>
      <trkpt lat="38.9707770" lon="1.2846580">
        <ele>5.9</ele>
        <time>2020-02-21T16:09:16Z</time>
      </trkpt>
      <trkpt lat="38.9707860" lon="1.2846970">
        <ele>5.1</ele>
        <time>2020-02-21T16:09:17Z</time>
      </trkpt>
      <trkpt lat="38.9708140" lon="1.2847050">
        <ele>4.9</ele>
        <time>2020-02-21T16:09:18Z</time>
      </trkpt>
      <trkpt lat="38.9708510" lon="1.2847130">
        <ele>4.7</ele>
        <time>2020-02-21T16:09:19Z</time>
      </trkpt>
      <trkpt lat="38.9708830" lon="1.2847120">
        <ele>4.6</ele>
        <time>2020-02-21T16:09:20Z</time>
      </trkpt>
      <trkpt lat="38.9709250" lon="1.2847150">
        <ele>4.4</ele>
        <time>2020-02-21T16:09:21Z</time>
      </trkpt>
      <trkpt lat="38.9709740" lon="1.2846890">
        <ele>4.2</ele>
        <time>2020-02-21T16:09:22Z</time>
      </trkpt>
      <trkpt lat="38.9710300" lon="1.2846990">
        <ele>4.0</ele>
        <time>2020-02-21T16:09:23Z</time>
      </trkpt>
      <trkpt lat="38.9710810" lon="1.2846910">
        <ele>3.9</ele>
        <time>2020-02-21T16:09:24Z</time>
      </trkpt>
      <trkpt lat="38.9711340" lon="1.2846920">
        <ele>3.7</ele>
        <time>2020-02-21T16:09:25Z</time>
      </trkpt>
      <trkpt lat="38.9711960" lon="1.2847020">
        <ele>3.6</ele>
        <time>2020-02-21T16:09:26Z</time>
      </trkpt>
      <trkpt lat="38.9712510" lon="1.2847000">
        <ele>3.5</ele>
        <time>2020-02-21T16:09:27Z</time>
      </trkpt>
      <trkpt lat="38.9712860" lon="1.2847040">
        <ele>3.4</ele>
        <time>2020-02-21T16:09:28Z</time>
      </trkpt>
      <trkpt lat="38.9713290" lon="1.2847010">
        <ele>3.3</ele>
        <time>2020-02-21T16:09:29Z</time>
      </trkpt>
      <trkpt lat="38.9713660" lon="1.2847090">
        <ele>3.2</ele>
        <time>2020-02-21T16:09:30Z</time>
      </trkpt>
      <trkpt lat="38.9713990" lon="1.2847100">
        <ele>3.2</ele>
        <time>2020-02-21T16:09:31Z</time>
      </trkpt>
      <trkpt lat="38.9714400" lon="1.2847260">
        <ele>3.2</ele>
        <time>2020-02-21T16:09:32Z</time>
      </trkpt>
      <trkpt lat="38.9714850" lon="1.2847400">
        <ele>3.1</ele>
        <time>2020-02-21T16:09:33Z</time>
      </trkpt>
      <trkpt lat="38.9715370" lon="1.2847330">
        <ele>3.1</ele>
        <time>2020-02-21T16:09:34Z</time>
      </trkpt>
      <trkpt lat="38.9715840" lon="1.2847380">
        <ele>3.1</ele>
        <time>2020-02-21T16:09:35Z</time>
      </trkpt>
      <trkpt lat="38.9716460" lon="1.2847280">
        <ele>3.1</ele>
        <time>2020-02-21T16:09:36Z</time>
      </trkpt>
      <trkpt lat="38.9717010" lon="1.2847220">
        <ele>3.1</ele>
        <time>2020-02-21T16:09:37Z</time>
      </trkpt>
      <trkpt lat="38.9717530" lon="1.2847220">
        <ele>3.1</ele>
        <time>2020-02-21T16:09:38Z</time>
      </trkpt>
      <trkpt lat="38.9718080" lon="1.2847040">
        <ele>3.1</ele>
        <time>2020-02-21T16:09:39Z</time>
      </trkpt>
      <trkpt lat="38.9718650" lon="1.2846950">
        <ele>3.1</ele>
        <time>2020-02-21T16:09:40Z</time>
      </trkpt>
      <trkpt lat="38.9719140" lon="1.2846890">
        <ele>3.2</ele>
        <time>2020-02-21T16:09:41Z</time>
      </trkpt>
      <trkpt lat="38.9719590" lon="1.2846810">
        <ele>3.2</ele>
        <time>2020-02-21T16:09:42Z</time>
      </trkpt>
      <trkpt lat="38.9720090" lon="1.2846800">
        <ele>3.3</ele>
        <time>2020-02-21T16:09:43Z</time>
      </trkpt>
      <trkpt lat="38.9720590" lon="1.2846830">
        <ele>3.3</ele>
        <time>2020-02-21T16:09:44Z</time>
      </trkpt>
      <trkpt lat="38.9720990" lon="1.2846840">
        <ele>3.4</ele>
        <time>2020-02-21T16:09:45Z</time>
      </trkpt>
      <trkpt lat="38.9721120" lon="1.2846950">
        <ele>3.5</ele>
        <time>2020-02-21T16:09:46Z</time>
      </trkpt>
      <trkpt lat="38.9721280" lon="1.2847390">
        <ele>3.6</ele>
        <time>2020-02-21T16:09:47Z</time>
      </trkpt>
      <trkpt lat="38.9721220" lon="1.2847790">
        <ele>3.8</ele>
        <time>2020-02-21T16:09:48Z</time>
      </trkpt>
      <trkpt lat="38.9721220" lon="1.2848330">
        <ele>4.0</ele>
        <time>2020-02-21T16:09:49Z</time>
      </trkpt>
      <trkpt lat="38.9721210" lon="1.2848890">
        <ele>4.3</ele>
        <time>2020-02-21T16:09:50Z</time>
      </trkpt>
      <trkpt lat="38.9721270" lon="1.2849450">
        <ele>4.7</ele>
        <time>2020-02-21T16:09:51Z</time>
      </trkpt>
      <trkpt lat="38.9721370" lon="1.2850050">
        <ele>4.9</ele>
        <time>2020-02-21T16:09:52Z</time>
      </trkpt>
      <trkpt lat="38.9721310" lon="1.2850510">
        <ele>5.2</ele>
        <time>2020-02-21T16:09:53Z</time>
      </trkpt>
      <trkpt lat="38.9721270" lon="1.2850910">
        <ele>5.5</ele>
        <time>2020-02-21T16:09:54Z</time>
      </trkpt>
      <trkpt lat="38.9721270" lon="1.2851340">
        <ele>5.6</ele>
        <time>2020-02-21T16:09:55Z</time>
      </trkpt>
      <trkpt lat="38.9721240" lon="1.2851850">
        <ele>5.7</ele>
        <time>2020-02-21T16:09:56Z</time>
      </trkpt>
      <trkpt lat="38.9721200" lon="1.2852360">
        <ele>5.5</ele>
        <time>2020-02-21T16:09:57Z</time>
      </trkpt>
      <trkpt lat="38.9721220" lon="1.2852900">
        <ele>5.5</ele>
        <time>2020-02-21T16:09:58Z</time>
      </trkpt>
      <trkpt lat="38.9721410" lon="1.2853530">
        <ele>5.4</ele>
        <time>2020-02-21T16:09:59Z</time>
      </trkpt>
      <trkpt lat="38.9721450" lon="1.2853960">
        <ele>5.2</ele>
        <time>2020-02-21T16:10:00Z</time>
      </trkpt>
      <trkpt lat="38.9721540" lon="1.2854460">
        <ele>4.9</ele>
        <time>2020-02-21T16:10:01Z</time>
      </trkpt>
      <trkpt lat="38.9721460" lon="1.2854950">
        <ele>4.8</ele>
        <time>2020-02-21T16:10:02Z</time>
      </trkpt>
      <trkpt lat="38.9721510" lon="1.2855370">
        <ele>4.7</ele>
        <time>2020-02-21T16:10:03Z</time>
      </trkpt>
      <trkpt lat="38.9721520" lon="1.2855720">
        <ele>4.7</ele>
        <time>2020-02-21T16:10:04Z</time>
      </trkpt>
      <trkpt lat="38.9721490" lon="1.2856100">
        <ele>4.6</ele>
        <time>2020-02-21T16:10:05Z</time>
      </trkpt>
      <trkpt lat="38.9721470" lon="1.2856300">
        <ele>4.2</ele>
        <time>2020-02-21T16:10:06Z</time>
      </trkpt>
      <trkpt lat="38.9721200" lon="1.2856410">
        <ele>4.2</ele>
        <time>2020-02-21T16:10:07Z</time>
      </trkpt>
      <trkpt lat="38.9721070" lon="1.2856410">
        <ele>4.3</ele>
        <time>2020-02-21T16:10:08Z</time>
      </trkpt>
      <trkpt lat="38.9720780" lon="1.2856530">
        <ele>4.2</ele>
        <time>2020-02-21T16:10:09Z</time>
      </trkpt>
      <trkpt lat="38.9720480" lon="1.2856710">
        <ele>3.8</ele>
        <time>2020-02-21T16:10:10Z</time>
      </trkpt>
      <trkpt lat="38.9720170" lon="1.2856920">
        <ele>3.7</ele>
        <time>2020-02-21T16:10:11Z</time>
      </trkpt>
      <trkpt lat="38.9719810" lon="1.2857160">
        <ele>3.4</ele>
        <time>2020-02-21T16:10:12Z</time>
      </trkpt>
      <trkpt lat="38.9719470" lon="1.2857460">
        <ele>3.2</ele>
        <time>2020-02-21T16:10:13Z</time>
      </trkpt>
      <trkpt lat="38.9719160" lon="1.2857780">
        <ele>3.4</ele>
        <time>2020-02-21T16:10:14Z</time>
      </trkpt>
      <trkpt lat="38.9718720" lon="1.2857950">
        <ele>3.4</ele>
        <time>2020-02-21T16:10:15Z</time>
      </trkpt>
      <trkpt lat="38.9718480" lon="1.2858070">
        <ele>3.6</ele>
        <time>2020-02-21T16:10:16Z</time>
      </trkpt>
      <trkpt lat="38.9718170" lon="1.2858290">
        <ele>3.7</ele>
        <time>2020-02-21T16:10:17Z</time>
      </trkpt>
      <trkpt lat="38.9717900" lon="1.2858600">
        <ele>3.7</ele>
        <time>2020-02-21T16:10:18Z</time>
      </trkpt>
      <trkpt lat="38.9717620" lon="1.2858910">
        <ele>3.8</ele>
        <time>2020-02-21T16:10:19Z</time>
      </trkpt>
      <trkpt lat="38.9717390" lon="1.2859130">
        <ele>3.9</ele>
        <time>2020-02-21T16:10:20Z</time>
      </trkpt>
      <trkpt lat="38.9717080" lon="1.2859480">
        <ele>3.8</ele>
        <time>2020-02-21T16:10:21Z</time>
      </trkpt>
      <trkpt lat="38.9716980" lon="1.2859600">
        <ele>3.6</ele>
        <time>2020-02-21T16:10:22Z</time>
      </trkpt>
      <trkpt lat="38.9716790" lon="1.2859900">
        <ele>3.7</ele>
        <time>2020-02-21T16:10:23Z</time>
      </trkpt>
      <trkpt lat="38.9716620" lon="1.2860210">
        <ele>3.5</ele>
        <time>2020-02-21T16:10:24Z</time>
      </trkpt>
      <trkpt lat="38.9716410" lon="1.2860530">
        <ele>3.3</ele>
        <time>2020-02-21T16:10:25Z</time>
      </trkpt>
      <trkpt lat="38.9716170" lon="1.2860810">
        <ele>3.5</ele>
        <time>2020-02-21T16:10:26Z</time>
      </trkpt>
      <trkpt lat="38.9716050" lon="1.2861140">
        <ele>3.4</ele>
        <time>2020-02-21T16:10:27Z</time>
      </trkpt>
      <trkpt lat="38.9715930" lon="1.2861450">
        <ele>3.2</ele>
        <time>2020-02-21T16:10:28Z</time>
      </trkpt>
      <trkpt lat="38.9715790" lon="1.2861580">
        <ele>3.5</ele>
        <time>2020-02-21T16:10:29Z</time>
      </trkpt>
      <trkpt lat="38.9715610" lon="1.2861630">
        <ele>3.5</ele>
        <time>2020-02-21T16:10:30Z</time>
      </trkpt>
      <trkpt lat="38.9715450" lon="1.2861740">
        <ele>3.5</ele>
        <time>2020-02-21T16:10:31Z</time>
      </trkpt>
      <trkpt lat="38.9715410" lon="1.2861790">
        <ele>3.5</ele>
        <time>2020-02-21T16:10:32Z</time>
      </trkpt>
      <trkpt lat="38.9715380" lon="1.2861830">
        <ele>3.5</ele>
        <time>2020-02-21T16:10:33Z</time>
      </trkpt>
      <trkpt lat="38.9715340" lon="1.2861880">
        <ele>3.5</ele>
        <time>2020-02-21T16:10:34Z</time>
      </trkpt>
      <trkpt lat="38.9715310" lon="1.2861930">
        <ele>3.5</ele>
        <time>2020-02-21T16:10:35Z</time>
      </trkpt>
      <trkpt lat="38.9715170" lon="1.2861990">
        <ele>3.5</ele>
        <time>2020-02-21T16:10:36Z</time>
      </trkpt>
      <trkpt lat="38.9715040" lon="1.2862070">
        <ele>3.5</ele>
        <time>2020-02-21T16:10:37Z</time>
      </trkpt>
      <trkpt lat="38.9714940" lon="1.2862100">
        <ele>3.5</ele>
        <time>2020-02-21T16:10:38Z</time>
      </trkpt>
      <trkpt lat="38.9714860" lon="1.2862370">
        <ele>3.5</ele>
        <time>2020-02-21T16:10:39Z</time>
      </trkpt>
      <trkpt lat="38.9714830" lon="1.2862350">
        <ele>3.5</ele>
        <time>2020-02-21T16:10:40Z</time>
      </trkpt>
      <trkpt lat="38.9714780" lon="1.2862390">
        <ele>3.4</ele>
        <time>2020-02-21T16:10:41Z</time>
      </trkpt>
      <trkpt lat="38.9714790" lon="1.2862520">
        <ele>3.4</ele>
        <time>2020-02-21T16:10:42Z</time>
      </trkpt>
      <trkpt lat="38.9714800" lon="1.2862500">
        <ele>3.4</ele>
        <time>2020-02-21T16:10:43Z</time>
      </trkpt>
      <trkpt lat="38.9714820" lon="1.2862390">
        <ele>3.3</ele>
        <time>2020-02-21T16:10:44Z</time>
      </trkpt>
      <trkpt lat="38.9714830" lon="1.2862450">
        <ele>3.2</ele>
        <time>2020-02-21T16:10:45Z</time>
      </trkpt>
      <trkpt lat="38.9714790" lon="1.2862380">
        <ele>3.2</ele>
        <time>2020-02-21T16:10:46Z</time>
      </trkpt>
      <trkpt lat="38.9714790" lon="1.2862370">
        <ele>3.2</ele>
        <time>2020-02-21T16:10:47Z</time>
      </trkpt>
      <trkpt lat="38.9714790" lon="1.2862380">
        <ele>3.2</ele>
        <time>2020-02-21T16:10:48Z</time>
      </trkpt>
      <trkpt lat="38.9714790" lon="1.2862380">
        <ele>3.2</ele>
        <time>2020-02-21T16:10:49Z</time>
      </trkpt>
      <trkpt lat="38.9714790" lon="1.2862380">
        <ele>3.2</ele>
        <time>2020-02-21T16:10:50Z</time>
      </trkpt>
      <trkpt lat="38.9714800" lon="1.2862410">
        <ele>3.2</ele>
        <time>2020-02-21T16:10:51Z</time>
      </trkpt>
      <trkpt lat="38.9714780" lon="1.2862490">
        <ele>3.1</ele>
        <time>2020-02-21T16:10:52Z</time>
      </trkpt>
      <trkpt lat="38.9714590" lon="1.2862980">
        <ele>2.8</ele>
        <time>2020-02-21T16:10:54Z</time>
      </trkpt>
      <trkpt lat="38.9714490" lon="1.2863270">
        <ele>2.8</ele>
        <time>2020-02-21T16:10:55Z</time>
      </trkpt>
      <trkpt lat="38.9714260" lon="1.2863670">
        <ele>2.9</ele>
        <time>2020-02-21T16:10:56Z</time>
      </trkpt>
      <trkpt lat="38.9714110" lon="1.2864130">
        <ele>3.0</ele>
        <time>2020-02-21T16:10:57Z</time>
      </trkpt>
      <trkpt lat="38.9713750" lon="1.2864380">
        <ele>3.0</ele>
        <time>2020-02-21T16:10:58Z</time>
      </trkpt>
      <trkpt lat="38.9713460" lon="1.2864740">
        <ele>3.0</ele>
        <time>2020-02-21T16:10:59Z</time>
      </trkpt>
      <trkpt lat="38.9713270" lon="1.2865120">
        <ele>3.1</ele>
        <time>2020-02-21T16:11:00Z</time>
      </trkpt>
      <trkpt lat="38.9712960" lon="1.2865530">
        <ele>3.3</ele>
        <time>2020-02-21T16:11:01Z</time>
      </trkpt>
      <trkpt lat="38.9712810" lon="1.2865900">
        <ele>3.5</ele>
        <time>2020-02-21T16:11:02Z</time>
      </trkpt>
      <trkpt lat="38.9712780" lon="1.2866270">
        <ele>3.6</ele>
        <time>2020-02-21T16:11:03Z</time>
      </trkpt>
      <trkpt lat="38.9712660" lon="1.2866630">
        <ele>3.7</ele>
        <time>2020-02-21T16:11:04Z</time>
      </trkpt>
      <trkpt lat="38.9712520" lon="1.2866990">
        <ele>3.9</ele>
        <time>2020-02-21T16:11:05Z</time>
      </trkpt>
      <trkpt lat="38.9712310" lon="1.2867360">
        <ele>3.7</ele>
        <time>2020-02-21T16:11:06Z</time>
      </trkpt>
      <trkpt lat="38.9712260" lon="1.2867910">
        <ele>3.5</ele>
        <time>2020-02-21T16:11:07Z</time>
      </trkpt>
      <trkpt lat="38.9712010" lon="1.2868350">
        <ele>3.3</ele>
        <time>2020-02-21T16:11:08Z</time>
      </trkpt>
      <trkpt lat="38.9711760" lon="1.2868900">
        <ele>3.0</ele>
        <time>2020-02-21T16:11:09Z</time>
      </trkpt>
      <trkpt lat="38.9711600" lon="1.2869380">
        <ele>2.8</ele>
        <time>2020-02-21T16:11:10Z</time>
      </trkpt>
      <trkpt lat="38.9711540" lon="1.2869850">
        <ele>2.6</ele>
        <time>2020-02-21T16:11:11Z</time>
      </trkpt>
      <trkpt lat="38.9711520" lon="1.2870340">
        <ele>2.4</ele>
        <time>2020-02-21T16:11:12Z</time>
      </trkpt>
      <trkpt lat="38.9711450" lon="1.2870770">
        <ele>2.2</ele>
        <time>2020-02-21T16:11:13Z</time>
      </trkpt>
      <trkpt lat="38.9711360" lon="1.2871160">
        <ele>1.8</ele>
        <time>2020-02-21T16:11:14Z</time>
      </trkpt>
      <trkpt lat="38.9711180" lon="1.2871640">
        <ele>2.0</ele>
        <time>2020-02-21T16:11:15Z</time>
      </trkpt>
      <trkpt lat="38.9710990" lon="1.2872130">
        <ele>2.1</ele>
        <time>2020-02-21T16:11:16Z</time>
      </trkpt>
      <trkpt lat="38.9710750" lon="1.2872570">
        <ele>2.3</ele>
        <time>2020-02-21T16:11:17Z</time>
      </trkpt>
      <trkpt lat="38.9710500" lon="1.2873050">
        <ele>2.4</ele>
        <time>2020-02-21T16:11:18Z</time>
      </trkpt>
      <trkpt lat="38.9710400" lon="1.2873590">
        <ele>2.6</ele>
        <time>2020-02-21T16:11:19Z</time>
      </trkpt>
      <trkpt lat="38.9710320" lon="1.2873820">
        <ele>2.6</ele>
        <time>2020-02-21T16:11:20Z</time>
      </trkpt>
      <trkpt lat="38.9710110" lon="1.2874280">
        <ele>2.8</ele>
        <time>2020-02-21T16:11:21Z</time>
      </trkpt>
      <trkpt lat="38.9709910" lon="1.2874680">
        <ele>2.9</ele>
        <time>2020-02-21T16:11:22Z</time>
      </trkpt>
      <trkpt lat="38.9709780" lon="1.2875100">
        <ele>3.0</ele>
        <time>2020-02-21T16:11:23Z</time>
      </trkpt>
      <trkpt lat="38.9709640" lon="1.2875460">
        <ele>3.2</ele>
        <time>2020-02-21T16:11:24Z</time>
      </trkpt>
      <trkpt lat="38.9709480" lon="1.2875850">
        <ele>3.3</ele>
        <time>2020-02-21T16:11:25Z</time>
      </trkpt>
      <trkpt lat="38.9709360" lon="1.2876250">
        <ele>3.2</ele>
        <time>2020-02-21T16:11:26Z</time>
      </trkpt>
      <trkpt lat="38.9709210" lon="1.2876650">
        <ele>3.2</ele>
        <time>2020-02-21T16:11:27Z</time>
      </trkpt>
      <trkpt lat="38.9709160" lon="1.2877040">
        <ele>3.4</ele>
        <time>2020-02-21T16:11:28Z</time>
      </trkpt>
      <trkpt lat="38.9709070" lon="1.2877520">
        <ele>3.3</ele>
        <time>2020-02-21T16:11:29Z</time>
      </trkpt>
      <trkpt lat="38.9708980" lon="1.2877870">
        <ele>3.3</ele>
        <time>2020-02-21T16:11:30Z</time>
      </trkpt>
      <trkpt lat="38.9708960" lon="1.2878220">
        <ele>3.2</ele>
        <time>2020-02-21T16:11:31Z</time>
      </trkpt>
      <trkpt lat="38.9708970" lon="1.2878620">
        <ele>3.2</ele>
        <time>2020-02-21T16:11:32Z</time>
      </trkpt>
      <trkpt lat="38.9708960" lon="1.2879250">
        <ele>3.1</ele>
        <time>2020-02-21T16:11:33Z</time>
      </trkpt>
      <trkpt lat="38.9709010" lon="1.2879550">
        <ele>3.1</ele>
        <time>2020-02-21T16:11:34Z</time>
      </trkpt>
      <trkpt lat="38.9709110" lon="1.2879990">
        <ele>3.0</ele>
        <time>2020-02-21T16:11:35Z</time>
      </trkpt>
      <trkpt lat="38.9709220" lon="1.2880360">
        <ele>2.8</ele>
        <time>2020-02-21T16:11:36Z</time>
      </trkpt>
      <trkpt lat="38.9709380" lon="1.2880740">
        <ele>2.7</ele>
        <time>2020-02-21T16:11:37Z</time>
      </trkpt>
      <trkpt lat="38.9709480" lon="1.2881180">
        <ele>2.7</ele>
        <time>2020-02-21T16:11:38Z</time>
      </trkpt>
      <trkpt lat="38.9709570" lon="1.2881700">
        <ele>2.4</ele>
        <time>2020-02-21T16:11:39Z</time>
      </trkpt>
      <trkpt lat="38.9709730" lon="1.2882200">
        <ele>2.3</ele>
        <time>2020-02-21T16:11:40Z</time>
      </trkpt>
      <trkpt lat="38.9709730" lon="1.2882760">
        <ele>2.3</ele>
        <time>2020-02-21T16:11:41Z</time>
      </trkpt>
      <trkpt lat="38.9709890" lon="1.2883100">
        <ele>2.1</ele>
        <time>2020-02-21T16:11:42Z</time>
      </trkpt>
      <trkpt lat="38.9710130" lon="1.2883540">
        <ele>2.1</ele>
        <time>2020-02-21T16:11:43Z</time>
      </trkpt>
      <trkpt lat="38.9710220" lon="1.2883750">
        <ele>1.9</ele>
        <time>2020-02-21T16:11:44Z</time>
      </trkpt>
      <trkpt lat="38.9710390" lon="1.2884240">
        <ele>1.9</ele>
        <time>2020-02-21T16:11:45Z</time>
      </trkpt>
      <trkpt lat="38.9710440" lon="1.2884700">
        <ele>1.9</ele>
        <time>2020-02-21T16:11:46Z</time>
      </trkpt>
      <trkpt lat="38.9710570" lon="1.2885070">
        <ele>1.9</ele>
        <time>2020-02-21T16:11:47Z</time>
      </trkpt>
      <trkpt lat="38.9710730" lon="1.2885440">
        <ele>1.9</ele>
        <time>2020-02-21T16:11:48Z</time>
      </trkpt>
      <trkpt lat="38.9710950" lon="1.2885770">
        <ele>1.8</ele>
        <time>2020-02-21T16:11:49Z</time>
      </trkpt>
      <trkpt lat="38.9710940" lon="1.2886290">
        <ele>1.8</ele>
        <time>2020-02-21T16:11:50Z</time>
      </trkpt>
      <trkpt lat="38.9710980" lon="1.2886760">
        <ele>1.8</ele>
        <time>2020-02-21T16:11:51Z</time>
      </trkpt>
      <trkpt lat="38.9711040" lon="1.2887150">
        <ele>1.8</ele>
        <time>2020-02-21T16:11:52Z</time>
      </trkpt>
      <trkpt lat="38.9711180" lon="1.2887650">
        <ele>1.8</ele>
        <time>2020-02-21T16:11:53Z</time>
      </trkpt>
      <trkpt lat="38.9711300" lon="1.2888050">
        <ele>1.6</ele>
        <time>2020-02-21T16:11:54Z</time>
      </trkpt>
      <trkpt lat="38.9711390" lon="1.2888380">
        <ele>1.7</ele>
        <time>2020-02-21T16:11:55Z</time>
      </trkpt>
      <trkpt lat="38.9711530" lon="1.2888820">
        <ele>1.7</ele>
        <time>2020-02-21T16:11:56Z</time>
      </trkpt>
      <trkpt lat="38.9711590" lon="1.2888970">
        <ele>1.6</ele>
        <time>2020-02-21T16:11:57Z</time>
      </trkpt>
      <trkpt lat="38.9711680" lon="1.2889310">
        <ele>1.6</ele>
        <time>2020-02-21T16:11:58Z</time>
      </trkpt>
      <trkpt lat="38.9711810" lon="1.2889720">
        <ele>1.6</ele>
        <time>2020-02-21T16:11:59Z</time>
      </trkpt>
      <trkpt lat="38.9712000" lon="1.2890040">
        <ele>1.5</ele>
        <time>2020-02-21T16:12:00Z</time>
      </trkpt>
      <trkpt lat="38.9712220" lon="1.2890420">
        <ele>1.3</ele>
        <time>2020-02-21T16:12:01Z</time>
      </trkpt>
      <trkpt lat="38.9712300" lon="1.2890550">
        <ele>1.4</ele>
        <time>2020-02-21T16:12:02Z</time>
      </trkpt>
      <trkpt lat="38.9712420" lon="1.2890920">
        <ele>1.4</ele>
        <time>2020-02-21T16:12:03Z</time>
      </trkpt>
      <trkpt lat="38.9712440" lon="1.2891350">
        <ele>1.4</ele>
        <time>2020-02-21T16:12:04Z</time>
      </trkpt>
      <trkpt lat="38.9712500" lon="1.2891730">
        <ele>1.4</ele>
        <time>2020-02-21T16:12:05Z</time>
      </trkpt>
      <trkpt lat="38.9712430" lon="1.2892200">
        <ele>1.5</ele>
        <time>2020-02-21T16:12:06Z</time>
      </trkpt>
      <trkpt lat="38.9712410" lon="1.2892330">
        <ele>1.5</ele>
        <time>2020-02-21T16:12:07Z</time>
      </trkpt>
      <trkpt lat="38.9712370" lon="1.2892830">
        <ele>1.6</ele>
        <time>2020-02-21T16:12:08Z</time>
      </trkpt>
      <trkpt lat="38.9712340" lon="1.2893000">
        <ele>1.6</ele>
        <time>2020-02-21T16:12:09Z</time>
      </trkpt>
      <trkpt lat="38.9712430" lon="1.2893370">
        <ele>1.6</ele>
        <time>2020-02-21T16:12:10Z</time>
      </trkpt>
      <trkpt lat="38.9712720" lon="1.2893740">
        <ele>1.5</ele>
        <time>2020-02-21T16:12:11Z</time>
      </trkpt>
      <trkpt lat="38.9712810" lon="1.2893890">
        <ele>1.5</ele>
        <time>2020-02-21T16:12:12Z</time>
      </trkpt>
      <trkpt lat="38.9712960" lon="1.2894320">
        <ele>1.5</ele>
        <time>2020-02-21T16:12:13Z</time>
      </trkpt>
      <trkpt lat="38.9713100" lon="1.2894740">
        <ele>1.5</ele>
        <time>2020-02-21T16:12:14Z</time>
      </trkpt>
      <trkpt lat="38.9713290" lon="1.2895180">
        <ele>1.5</ele>
        <time>2020-02-21T16:12:15Z</time>
      </trkpt>
      <trkpt lat="38.9713520" lon="1.2895700">
        <ele>1.6</ele>
        <time>2020-02-21T16:12:16Z</time>
      </trkpt>
      <trkpt lat="38.9713600" lon="1.2895940">
        <ele>1.5</ele>
        <time>2020-02-21T16:12:17Z</time>
      </trkpt>
      <trkpt lat="38.9713760" lon="1.2896340">
        <ele>1.6</ele>
        <time>2020-02-21T16:12:18Z</time>
      </trkpt>
      <trkpt lat="38.9713850" lon="1.2896500">
        <ele>1.7</ele>
        <time>2020-02-21T16:12:19Z</time>
      </trkpt>
      <trkpt lat="38.9713940" lon="1.2896640">
        <ele>1.6</ele>
        <time>2020-02-21T16:12:20Z</time>
      </trkpt>
      <trkpt lat="38.9714030" lon="1.2896840">
        <ele>1.6</ele>
        <time>2020-02-21T16:12:21Z</time>
      </trkpt>
      <trkpt lat="38.9714230" lon="1.2897160">
        <ele>1.5</ele>
        <time>2020-02-21T16:12:22Z</time>
      </trkpt>
      <trkpt lat="38.9714290" lon="1.2897450">
        <ele>1.6</ele>
        <time>2020-02-21T16:12:23Z</time>
      </trkpt>
      <trkpt lat="38.9714320" lon="1.2897610">
        <ele>1.6</ele>
        <time>2020-02-21T16:12:24Z</time>
      </trkpt>
      <trkpt lat="38.9714450" lon="1.2897860">
        <ele>1.7</ele>
        <time>2020-02-21T16:12:25Z</time>
      </trkpt>
      <trkpt lat="38.9714540" lon="1.2897980">
        <ele>1.7</ele>
        <time>2020-02-21T16:12:26Z</time>
      </trkpt>
      <trkpt lat="38.9714810" lon="1.2898290">
        <ele>1.7</ele>
        <time>2020-02-21T16:12:27Z</time>
      </trkpt>
      <trkpt lat="38.9715110" lon="1.2898330">
        <ele>1.5</ele>
        <time>2020-02-21T16:12:28Z</time>
      </trkpt>
      <trkpt lat="38.9715440" lon="1.2898450">
        <ele>1.4</ele>
        <time>2020-02-21T16:12:29Z</time>
      </trkpt>
      <trkpt lat="38.9715720" lon="1.2898690">
        <ele>1.3</ele>
        <time>2020-02-21T16:12:30Z</time>
      </trkpt>
      <trkpt lat="38.9715970" lon="1.2898910">
        <ele>1.1</ele>
        <time>2020-02-21T16:12:31Z</time>
      </trkpt>
      <trkpt lat="38.9716240" lon="1.2899200">
        <ele>1.1</ele>
        <time>2020-02-21T16:12:32Z</time>
      </trkpt>
      <trkpt lat="38.9716480" lon="1.2899550">
        <ele>1.2</ele>
        <time>2020-02-21T16:12:33Z</time>
      </trkpt>
      <trkpt lat="38.9716720" lon="1.2899920">
        <ele>1.0</ele>
        <time>2020-02-21T16:12:34Z</time>
      </trkpt>
      <trkpt lat="38.9716940" lon="1.2900310">
        <ele>1.0</ele>
        <time>2020-02-21T16:12:35Z</time>
      </trkpt>
      <trkpt lat="38.9717130" lon="1.2900700">
        <ele>1.2</ele>
        <time>2020-02-21T16:12:36Z</time>
      </trkpt>
      <trkpt lat="38.9717240" lon="1.2901040">
        <ele>1.3</ele>
        <time>2020-02-21T16:12:37Z</time>
      </trkpt>
      <trkpt lat="38.9717330" lon="1.2901610">
        <ele>1.4</ele>
        <time>2020-02-21T16:12:38Z</time>
      </trkpt>
      <trkpt lat="38.9717390" lon="1.2901860">
        <ele>1.5</ele>
        <time>2020-02-21T16:12:39Z</time>
      </trkpt>
      <trkpt lat="38.9717500" lon="1.2902290">
        <ele>1.6</ele>
        <time>2020-02-21T16:12:40Z</time>
      </trkpt>
      <trkpt lat="38.9717650" lon="1.2902730">
        <ele>1.6</ele>
        <time>2020-02-21T16:12:41Z</time>
      </trkpt>
      <trkpt lat="38.9717790" lon="1.2903200">
        <ele>1.6</ele>
        <time>2020-02-21T16:12:42Z</time>
      </trkpt>
      <trkpt lat="38.9717940" lon="1.2903610">
        <ele>1.5</ele>
        <time>2020-02-21T16:12:43Z</time>
      </trkpt>
      <trkpt lat="38.9718080" lon="1.2904070">
        <ele>1.5</ele>
        <time>2020-02-21T16:12:44Z</time>
      </trkpt>
      <trkpt lat="38.9718220" lon="1.2904620">
        <ele>1.3</ele>
        <time>2020-02-21T16:12:45Z</time>
      </trkpt>
      <trkpt lat="38.9718380" lon="1.2905140">
        <ele>1.4</ele>
        <time>2020-02-21T16:12:46Z</time>
      </trkpt>
      <trkpt lat="38.9718500" lon="1.2905450">
        <ele>1.4</ele>
        <time>2020-02-21T16:12:47Z</time>
      </trkpt>
      <trkpt lat="38.9718700" lon="1.2905850">
        <ele>1.3</ele>
        <time>2020-02-21T16:12:48Z</time>
      </trkpt>
      <trkpt lat="38.9718880" lon="1.2906220">
        <ele>1.4</ele>
        <time>2020-02-21T16:12:49Z</time>
      </trkpt>
      <trkpt lat="38.9719040" lon="1.2906610">
        <ele>1.4</ele>
        <time>2020-02-21T16:12:50Z</time>
      </trkpt>
      <trkpt lat="38.9719130" lon="1.2907090">
        <ele>1.4</ele>
        <time>2020-02-21T16:12:51Z</time>
      </trkpt>
      <trkpt lat="38.9719120" lon="1.2907600">
        <ele>1.5</ele>
        <time>2020-02-21T16:12:52Z</time>
      </trkpt>
      <trkpt lat="38.9719100" lon="1.2908030">
        <ele>1.5</ele>
        <time>2020-02-21T16:12:53Z</time>
      </trkpt>
      <trkpt lat="38.9719050" lon="1.2908600">
        <ele>1.6</ele>
        <time>2020-02-21T16:12:54Z</time>
      </trkpt>
      <trkpt lat="38.9719020" lon="1.2909090">
        <ele>1.6</ele>
        <time>2020-02-21T16:12:55Z</time>
      </trkpt>
      <trkpt lat="38.9718920" lon="1.2909460">
        <ele>1.7</ele>
        <time>2020-02-21T16:12:56Z</time>
      </trkpt>
      <trkpt lat="38.9718760" lon="1.2909830">
        <ele>1.8</ele>
        <time>2020-02-21T16:12:57Z</time>
      </trkpt>
      <trkpt lat="38.9718580" lon="1.2910140">
        <ele>1.8</ele>
        <time>2020-02-21T16:12:58Z</time>
      </trkpt>
      <trkpt lat="38.9718170" lon="1.2910260">
        <ele>2.0</ele>
        <time>2020-02-21T16:12:59Z</time>
      </trkpt>
      <trkpt lat="38.9718020" lon="1.2910440">
        <ele>2.0</ele>
        <time>2020-02-21T16:13:00Z</time>
      </trkpt>
      <trkpt lat="38.9717770" lon="1.2910660">
        <ele>2.2</ele>
        <time>2020-02-21T16:13:01Z</time>
      </trkpt>
      <trkpt lat="38.9717440" lon="1.2910850">
        <ele>2.2</ele>
        <time>2020-02-21T16:13:02Z</time>
      </trkpt>
      <trkpt lat="38.9717010" lon="1.2910890">
        <ele>2.3</ele>
        <time>2020-02-21T16:13:03Z</time>
      </trkpt>
      <trkpt lat="38.9716560" lon="1.2910960">
        <ele>2.4</ele>
        <time>2020-02-21T16:13:04Z</time>
      </trkpt>
      <trkpt lat="38.9716120" lon="1.2911020">
        <ele>2.6</ele>
        <time>2020-02-21T16:13:05Z</time>
      </trkpt>
      <trkpt lat="38.9715570" lon="1.2910940">
        <ele>2.7</ele>
        <time>2020-02-21T16:13:06Z</time>
      </trkpt>
      <trkpt lat="38.9715070" lon="1.2910840">
        <ele>2.8</ele>
        <time>2020-02-21T16:13:07Z</time>
      </trkpt>
      <trkpt lat="38.9714710" lon="1.2910860">
        <ele>2.9</ele>
        <time>2020-02-21T16:13:08Z</time>
      </trkpt>
      <trkpt lat="38.9714280" lon="1.2910810">
        <ele>2.9</ele>
        <time>2020-02-21T16:13:09Z</time>
      </trkpt>
      <trkpt lat="38.9713900" lon="1.2910740">
        <ele>3.0</ele>
        <time>2020-02-21T16:13:10Z</time>
      </trkpt>
      <trkpt lat="38.9713560" lon="1.2910730">
        <ele>3.1</ele>
        <time>2020-02-21T16:13:11Z</time>
      </trkpt>
      <trkpt lat="38.9713230" lon="1.2910780">
        <ele>3.1</ele>
        <time>2020-02-21T16:13:12Z</time>
      </trkpt>
      <trkpt lat="38.9712860" lon="1.2910830">
        <ele>3.2</ele>
        <time>2020-02-21T16:13:13Z</time>
      </trkpt>
      <trkpt lat="38.9712380" lon="1.2910860">
        <ele>3.2</ele>
        <time>2020-02-21T16:13:14Z</time>
      </trkpt>
      <trkpt lat="38.9711970" lon="1.2910990">
        <ele>3.3</ele>
        <time>2020-02-21T16:13:15Z</time>
      </trkpt>
      <trkpt lat="38.9711540" lon="1.2911100">
        <ele>3.3</ele>
        <time>2020-02-21T16:13:16Z</time>
      </trkpt>
      <trkpt lat="38.9711150" lon="1.2911310">
        <ele>3.4</ele>
        <time>2020-02-21T16:13:17Z</time>
      </trkpt>
      <trkpt lat="38.9710860" lon="1.2911640">
        <ele>3.4</ele>
        <time>2020-02-21T16:13:18Z</time>
      </trkpt>
      <trkpt lat="38.9710680" lon="1.2912090">
        <ele>3.4</ele>
        <time>2020-02-21T16:13:19Z</time>
      </trkpt>
      <trkpt lat="38.9710500" lon="1.2912500">
        <ele>3.4</ele>
        <time>2020-02-21T16:13:20Z</time>
      </trkpt>
      <trkpt lat="38.9710160" lon="1.2912960">
        <ele>3.4</ele>
        <time>2020-02-21T16:13:21Z</time>
      </trkpt>
      <trkpt lat="38.9709730" lon="1.2913420">
        <ele>3.4</ele>
        <time>2020-02-21T16:13:22Z</time>
      </trkpt>
      <trkpt lat="38.9709390" lon="1.2913640">
        <ele>3.4</ele>
        <time>2020-02-21T16:13:23Z</time>
      </trkpt>
      <trkpt lat="38.9709140" lon="1.2913930">
        <ele>3.4</ele>
        <time>2020-02-21T16:13:24Z</time>
      </trkpt>
      <trkpt lat="38.9708790" lon="1.2914080">
        <ele>3.4</ele>
        <time>2020-02-21T16:13:25Z</time>
      </trkpt>
      <trkpt lat="38.9708460" lon="1.2914270">
        <ele>3.4</ele>
        <time>2020-02-21T16:13:26Z</time>
      </trkpt>
      <trkpt lat="38.9708160" lon="1.2914480">
        <ele>3.4</ele>
        <time>2020-02-21T16:13:27Z</time>
      </trkpt>
      <trkpt lat="38.9708090" lon="1.2914580">
        <ele>3.4</ele>
        <time>2020-02-21T16:13:28Z</time>
      </trkpt>
      <trkpt lat="38.9708100" lon="1.2915010">
        <ele>3.3</ele>
        <time>2020-02-21T16:13:29Z</time>
      </trkpt>
      <trkpt lat="38.9708150" lon="1.2915160">
        <ele>3.3</ele>
        <time>2020-02-21T16:13:30Z</time>
      </trkpt>
      <trkpt lat="38.9708160" lon="1.2915610">
        <ele>3.3</ele>
        <time>2020-02-21T16:13:31Z</time>
      </trkpt>
      <trkpt lat="38.9708160" lon="1.2915770">
        <ele>3.3</ele>
        <time>2020-02-21T16:13:32Z</time>
      </trkpt>
      <trkpt lat="38.9708140" lon="1.2916050">
        <ele>3.2</ele>
        <time>2020-02-21T16:13:33Z</time>
      </trkpt>
      <trkpt lat="38.9708120" lon="1.2916170">
        <ele>3.2</ele>
        <time>2020-02-21T16:13:34Z</time>
      </trkpt>
      <trkpt lat="38.9708100" lon="1.2916300">
        <ele>3.2</ele>
        <time>2020-02-21T16:13:35Z</time>
      </trkpt>
      <trkpt lat="38.9707930" lon="1.2916580">
        <ele>3.2</ele>
        <time>2020-02-21T16:13:36Z</time>
      </trkpt>
      <trkpt lat="38.9707840" lon="1.2916640">
        <ele>3.2</ele>
        <time>2020-02-21T16:13:37Z</time>
      </trkpt>
      <trkpt lat="38.9707530" lon="1.2916810">
        <ele>3.2</ele>
        <time>2020-02-21T16:13:38Z</time>
      </trkpt>
      <trkpt lat="38.9707430" lon="1.2916860">
        <ele>3.2</ele>
        <time>2020-02-21T16:13:39Z</time>
      </trkpt>
      <trkpt lat="38.9707190" lon="1.2917030">
        <ele>3.3</ele>
        <time>2020-02-21T16:13:40Z</time>
      </trkpt>
      <trkpt lat="38.9707110" lon="1.2917090">
        <ele>3.2</ele>
        <time>2020-02-21T16:13:41Z</time>
      </trkpt>
      <trkpt lat="38.9706980" lon="1.2917120">
        <ele>3.2</ele>
        <time>2020-02-21T16:13:42Z</time>
      </trkpt>
      <trkpt lat="38.9706820" lon="1.2917250">
        <ele>3.3</ele>
        <time>2020-02-21T16:13:43Z</time>
      </trkpt>
      <trkpt lat="38.9706800" lon="1.2917470">
        <ele>3.3</ele>
        <time>2020-02-21T16:13:44Z</time>
      </trkpt>
      <trkpt lat="38.9706770" lon="1.2917620">
        <ele>3.2</ele>
        <time>2020-02-21T16:13:45Z</time>
      </trkpt>
      <trkpt lat="38.9706730" lon="1.2917780">
        <ele>3.2</ele>
        <time>2020-02-21T16:13:46Z</time>
      </trkpt>
      <trkpt lat="38.9706680" lon="1.2917920">
        <ele>3.2</ele>
        <time>2020-02-21T16:13:47Z</time>
      </trkpt>
      <trkpt lat="38.9706540" lon="1.2918110">
        <ele>3.1</ele>
        <time>2020-02-21T16:13:48Z</time>
      </trkpt>
      <trkpt lat="38.9706380" lon="1.2918500">
        <ele>3.1</ele>
        <time>2020-02-21T16:13:49Z</time>
      </trkpt>
      <trkpt lat="38.9706340" lon="1.2918690">
        <ele>3.1</ele>
        <time>2020-02-21T16:13:50Z</time>
      </trkpt>
      <trkpt lat="38.9706270" lon="1.2918910">
        <ele>3.0</ele>
        <time>2020-02-21T16:13:51Z</time>
      </trkpt>
      <trkpt lat="38.9706230" lon="1.2919090">
        <ele>3.0</ele>
        <time>2020-02-21T16:13:52Z</time>
      </trkpt>
      <trkpt lat="38.9706100" lon="1.2919300">
        <ele>3.0</ele>
        <time>2020-02-21T16:13:53Z</time>
      </trkpt>
      <trkpt lat="38.9706030" lon="1.2919390">
        <ele>3.0</ele>
        <time>2020-02-21T16:13:54Z</time>
      </trkpt>
      <trkpt lat="38.9705970" lon="1.2919470">
        <ele>3.0</ele>
        <time>2020-02-21T16:13:55Z</time>
      </trkpt>
      <trkpt lat="38.9705970" lon="1.2919670">
        <ele>3.0</ele>
        <time>2020-02-21T16:13:56Z</time>
      </trkpt>
      <trkpt lat="38.9706160" lon="1.2919670">
        <ele>3.0</ele>
        <time>2020-02-21T16:13:57Z</time>
      </trkpt>
      <trkpt lat="38.9706180" lon="1.2919650">
        <ele>3.0</ele>
        <time>2020-02-21T16:13:58Z</time>
      </trkpt>
      <trkpt lat="38.9706170" lon="1.2919690">
        <ele>3.0</ele>
        <time>2020-02-21T16:13:59Z</time>
      </trkpt>
      <trkpt lat="38.9706180" lon="1.2919700">
        <ele>3.0</ele>
        <time>2020-02-21T16:14:00Z</time>
      </trkpt>
      <trkpt lat="38.9706190" lon="1.2919720">
        <ele>3.0</ele>
        <time>2020-02-21T16:14:01Z</time>
      </trkpt>
      <trkpt lat="38.9706190" lon="1.2919710">
        <ele>3.0</ele>
        <time>2020-02-21T16:14:02Z</time>
      </trkpt>
      <trkpt lat="38.9706190" lon="1.2919710">
        <ele>3.0</ele>
        <time>2020-02-21T16:14:03Z</time>
      </trkpt>
      <trkpt lat="38.9706180" lon="1.2919730">
        <ele>3.0</ele>
        <time>2020-02-21T16:14:04Z</time>
      </trkpt>
      <trkpt lat="38.9706170" lon="1.2919730">
        <ele>3.0</ele>
        <time>2020-02-21T16:14:05Z</time>
      </trkpt>
      <trkpt lat="38.9706170" lon="1.2919750">
        <ele>3.0</ele>
        <time>2020-02-21T16:14:06Z</time>
      </trkpt>
      <trkpt lat="38.9705840" lon="1.2920150">
        <ele>3.0</ele>
        <time>2020-02-21T16:14:18Z</time>
      </trkpt>
      <trkpt lat="38.9705770" lon="1.2920330">
        <ele>3.0</ele>
        <time>2020-02-21T16:14:19Z</time>
      </trkpt>
      <trkpt lat="38.9705730" lon="1.2920450">
        <ele>3.0</ele>
        <time>2020-02-21T16:14:20Z</time>
      </trkpt>
      <trkpt lat="38.9705680" lon="1.2920710">
        <ele>3.0</ele>
        <time>2020-02-21T16:14:21Z</time>
      </trkpt>
      <trkpt lat="38.9705530" lon="1.2920890">
        <ele>3.1</ele>
        <time>2020-02-21T16:14:22Z</time>
      </trkpt>
      <trkpt lat="38.9705430" lon="1.2921030">
        <ele>3.1</ele>
        <time>2020-02-21T16:14:23Z</time>
      </trkpt>
      <trkpt lat="38.9705330" lon="1.2921160">
        <ele>3.1</ele>
        <time>2020-02-21T16:14:24Z</time>
      </trkpt>
      <trkpt lat="38.9705110" lon="1.2921540">
        <ele>3.2</ele>
        <time>2020-02-21T16:14:25Z</time>
      </trkpt>
      <trkpt lat="38.9704940" lon="1.2921880">
        <ele>3.3</ele>
        <time>2020-02-21T16:14:26Z</time>
      </trkpt>
      <trkpt lat="38.9704900" lon="1.2922000">
        <ele>3.3</ele>
        <time>2020-02-21T16:14:27Z</time>
      </trkpt>
      <trkpt lat="38.9704760" lon="1.2922310">
        <ele>3.4</ele>
        <time>2020-02-21T16:14:28Z</time>
      </trkpt>
      <trkpt lat="38.9704760" lon="1.2922670">
        <ele>3.3</ele>
        <time>2020-02-21T16:14:29Z</time>
      </trkpt>
      <trkpt lat="38.9704720" lon="1.2922850">
        <ele>3.3</ele>
        <time>2020-02-21T16:14:30Z</time>
      </trkpt>
      <trkpt lat="38.9704740" lon="1.2923110">
        <ele>3.3</ele>
        <time>2020-02-21T16:14:31Z</time>
      </trkpt>
      <trkpt lat="38.9704640" lon="1.2923500">
        <ele>3.3</ele>
        <time>2020-02-21T16:14:32Z</time>
      </trkpt>
      <trkpt lat="38.9704620" lon="1.2923640">
        <ele>3.3</ele>
        <time>2020-02-21T16:14:33Z</time>
      </trkpt>
      <trkpt lat="38.9704570" lon="1.2923990">
        <ele>3.2</ele>
        <time>2020-02-21T16:14:34Z</time>
      </trkpt>
      <trkpt lat="38.9704570" lon="1.2924400">
        <ele>3.1</ele>
        <time>2020-02-21T16:14:35Z</time>
      </trkpt>
      <trkpt lat="38.9704640" lon="1.2924570">
        <ele>3.1</ele>
        <time>2020-02-21T16:14:36Z</time>
      </trkpt>
      <trkpt lat="38.9704670" lon="1.2925020">
        <ele>3.1</ele>
        <time>2020-02-21T16:14:37Z</time>
      </trkpt>
      <trkpt lat="38.9704680" lon="1.2925190">
        <ele>3.1</ele>
        <time>2020-02-21T16:14:38Z</time>
      </trkpt>
      <trkpt lat="38.9704570" lon="1.2925550">
        <ele>3.0</ele>
        <time>2020-02-21T16:14:39Z</time>
      </trkpt>
      <trkpt lat="38.9704510" lon="1.2925660">
        <ele>3.3</ele>
        <time>2020-02-21T16:14:40Z</time>
      </trkpt>
      <trkpt lat="38.9704390" lon="1.2926000">
        <ele>3.3</ele>
        <time>2020-02-21T16:14:41Z</time>
      </trkpt>
      <trkpt lat="38.9704380" lon="1.2926130">
        <ele>3.2</ele>
        <time>2020-02-21T16:14:42Z</time>
      </trkpt>
      <trkpt lat="38.9704340" lon="1.2926540">
        <ele>3.2</ele>
        <time>2020-02-21T16:14:43Z</time>
      </trkpt>
      <trkpt lat="38.9704320" lon="1.2926680">
        <ele>3.2</ele>
        <time>2020-02-21T16:14:44Z</time>
      </trkpt>
      <trkpt lat="38.9704300" lon="1.2927170">
        <ele>3.2</ele>
        <time>2020-02-21T16:14:45Z</time>
      </trkpt>
      <trkpt lat="38.9704260" lon="1.2927310">
        <ele>3.2</ele>
        <time>2020-02-21T16:14:46Z</time>
      </trkpt>
      <trkpt lat="38.9704330" lon="1.2927670">
        <ele>3.1</ele>
        <time>2020-02-21T16:14:47Z</time>
      </trkpt>
      <trkpt lat="38.9704360" lon="1.2927840">
        <ele>3.1</ele>
        <time>2020-02-21T16:14:48Z</time>
      </trkpt>
      <trkpt lat="38.9704330" lon="1.2928350">
        <ele>3.2</ele>
        <time>2020-02-21T16:14:49Z</time>
      </trkpt>
      <trkpt lat="38.9704300" lon="1.2928510">
        <ele>3.2</ele>
        <time>2020-02-21T16:14:50Z</time>
      </trkpt>
      <trkpt lat="38.9704340" lon="1.2928980">
        <ele>3.3</ele>
        <time>2020-02-21T16:14:51Z</time>
      </trkpt>
      <trkpt lat="38.9704350" lon="1.2929170">
        <ele>3.5</ele>
        <time>2020-02-21T16:14:52Z</time>
      </trkpt>
      <trkpt lat="38.9704390" lon="1.2929560">
        <ele>3.8</ele>
        <time>2020-02-21T16:14:53Z</time>
      </trkpt>
      <trkpt lat="38.9704400" lon="1.2929980">
        <ele>4.1</ele>
        <time>2020-02-21T16:14:54Z</time>
      </trkpt>
      <trkpt lat="38.9704430" lon="1.2930120">
        <ele>4.1</ele>
        <time>2020-02-21T16:14:55Z</time>
      </trkpt>
      <trkpt lat="38.9704420" lon="1.2930340">
        <ele>4.1</ele>
        <time>2020-02-21T16:14:56Z</time>
      </trkpt>
      <trkpt lat="38.9704460" lon="1.2930540">
        <ele>4.3</ele>
        <time>2020-02-21T16:14:57Z</time>
      </trkpt>
      <trkpt lat="38.9704370" lon="1.2930990">
        <ele>4.5</ele>
        <time>2020-02-21T16:14:58Z</time>
      </trkpt>
      <trkpt lat="38.9704370" lon="1.2931160">
        <ele>4.5</ele>
        <time>2020-02-21T16:14:59Z</time>
      </trkpt>
      <trkpt lat="38.9704360" lon="1.2931500">
        <ele>4.5</ele>
        <time>2020-02-21T16:15:00Z</time>
      </trkpt>
      <trkpt lat="38.9704350" lon="1.2931630">
        <ele>4.5</ele>
        <time>2020-02-21T16:15:01Z</time>
      </trkpt>
      <trkpt lat="38.9704220" lon="1.2931950">
        <ele>4.3</ele>
        <time>2020-02-21T16:15:02Z</time>
      </trkpt>
      <trkpt lat="38.9704040" lon="1.2932260">
        <ele>4.3</ele>
        <time>2020-02-21T16:15:03Z</time>
      </trkpt>
      <trkpt lat="38.9703880" lon="1.2932640">
        <ele>3.7</ele>
        <time>2020-02-21T16:15:04Z</time>
      </trkpt>
      <trkpt lat="38.9703830" lon="1.2932770">
        <ele>4.1</ele>
        <time>2020-02-21T16:15:05Z</time>
      </trkpt>
      <trkpt lat="38.9703720" lon="1.2933110">
        <ele>3.4</ele>
        <time>2020-02-21T16:15:06Z</time>
      </trkpt>
      <trkpt lat="38.9703680" lon="1.2933210">
        <ele>3.4</ele>
        <time>2020-02-21T16:15:07Z</time>
      </trkpt>
      <trkpt lat="38.9703450" lon="1.2933560">
        <ele>3.0</ele>
        <time>2020-02-21T16:15:08Z</time>
      </trkpt>
      <trkpt lat="38.9703350" lon="1.2933940">
        <ele>2.4</ele>
        <time>2020-02-21T16:15:09Z</time>
      </trkpt>
      <trkpt lat="38.9703340" lon="1.2934010">
        <ele>2.4</ele>
        <time>2020-02-21T16:15:10Z</time>
      </trkpt>
      <trkpt lat="38.9703330" lon="1.2934210">
        <ele>2.4</ele>
        <time>2020-02-21T16:15:11Z</time>
      </trkpt>
      <trkpt lat="38.9703310" lon="1.2934440">
        <ele>1.9</ele>
        <time>2020-02-21T16:15:12Z</time>
      </trkpt>
      <trkpt lat="38.9703270" lon="1.2935000">
        <ele>1.6</ele>
        <time>2020-02-21T16:15:13Z</time>
      </trkpt>
      <trkpt lat="38.9703240" lon="1.2935220">
        <ele>1.3</ele>
        <time>2020-02-21T16:15:14Z</time>
      </trkpt>
      <trkpt lat="38.9703180" lon="1.2935560">
        <ele>2.1</ele>
        <time>2020-02-21T16:15:15Z</time>
      </trkpt>
      <trkpt lat="38.9703100" lon="1.2935950">
        <ele>2.1</ele>
        <time>2020-02-21T16:15:16Z</time>
      </trkpt>
      <trkpt lat="38.9702900" lon="1.2936240">
        <ele>2.1</ele>
        <time>2020-02-21T16:15:17Z</time>
      </trkpt>
      <trkpt lat="38.9702680" lon="1.2936500">
        <ele>3.1</ele>
        <time>2020-02-21T16:15:18Z</time>
      </trkpt>
      <trkpt lat="38.9702420" lon="1.2936690">
        <ele>3.9</ele>
        <time>2020-02-21T16:15:19Z</time>
      </trkpt>
      <trkpt lat="38.9702170" lon="1.2936870">
        <ele>4.6</ele>
        <time>2020-02-21T16:15:20Z</time>
      </trkpt>
      <trkpt lat="38.9701910" lon="1.2937200">
        <ele>4.6</ele>
        <time>2020-02-21T16:15:21Z</time>
      </trkpt>
      <trkpt lat="38.9701840" lon="1.2937320">
        <ele>5.0</ele>
        <time>2020-02-21T16:15:22Z</time>
      </trkpt>
      <trkpt lat="38.9701610" lon="1.2937640">
        <ele>5.0</ele>
        <time>2020-02-21T16:15:23Z</time>
      </trkpt>
      <trkpt lat="38.9701500" lon="1.2937720">
        <ele>4.9</ele>
        <time>2020-02-21T16:15:24Z</time>
      </trkpt>
      <trkpt lat="38.9701230" lon="1.2938170">
        <ele>4.1</ele>
        <time>2020-02-21T16:15:25Z</time>
      </trkpt>
      <trkpt lat="38.9701130" lon="1.2938360">
        <ele>4.6</ele>
        <time>2020-02-21T16:15:26Z</time>
      </trkpt>
      <trkpt lat="38.9700930" lon="1.2938690">
        <ele>3.8</ele>
        <time>2020-02-21T16:15:27Z</time>
      </trkpt>
      <trkpt lat="38.9700750" lon="1.2938990">
        <ele>3.6</ele>
        <time>2020-02-21T16:15:28Z</time>
      </trkpt>
      <trkpt lat="38.9700570" lon="1.2939320">
        <ele>3.6</ele>
        <time>2020-02-21T16:15:29Z</time>
      </trkpt>
      <trkpt lat="38.9700340" lon="1.2939700">
        <ele>3.7</ele>
        <time>2020-02-21T16:15:30Z</time>
      </trkpt>
      <trkpt lat="38.9700270" lon="1.2939830">
        <ele>3.7</ele>
        <time>2020-02-21T16:15:31Z</time>
      </trkpt>
      <trkpt lat="38.9700000" lon="1.2940080">
        <ele>3.9</ele>
        <time>2020-02-21T16:15:32Z</time>
      </trkpt>
      <trkpt lat="38.9699880" lon="1.2940140">
        <ele>3.9</ele>
        <time>2020-02-21T16:15:33Z</time>
      </trkpt>
      <trkpt lat="38.9699600" lon="1.2940200">
        <ele>4.8</ele>
        <time>2020-02-21T16:15:34Z</time>
      </trkpt>
      <trkpt lat="38.9699270" lon="1.2940310">
        <ele>5.0</ele>
        <time>2020-02-21T16:15:35Z</time>
      </trkpt>
      <trkpt lat="38.9698980" lon="1.2940480">
        <ele>5.9</ele>
        <time>2020-02-21T16:15:36Z</time>
      </trkpt>
      <trkpt lat="38.9698730" lon="1.2940680">
        <ele>6.6</ele>
        <time>2020-02-21T16:15:37Z</time>
      </trkpt>
      <trkpt lat="38.9698460" lon="1.2940840">
        <ele>6.5</ele>
        <time>2020-02-21T16:15:38Z</time>
      </trkpt>
      <trkpt lat="38.9698190" lon="1.2940970">
        <ele>7.0</ele>
        <time>2020-02-21T16:15:39Z</time>
      </trkpt>
      <trkpt lat="38.9697940" lon="1.2941120">
        <ele>7.0</ele>
        <time>2020-02-21T16:15:40Z</time>
      </trkpt>
      <trkpt lat="38.9697710" lon="1.2941310">
        <ele>6.6</ele>
        <time>2020-02-21T16:15:41Z</time>
      </trkpt>
      <trkpt lat="38.9697470" lon="1.2941590">
        <ele>6.3</ele>
        <time>2020-02-21T16:15:42Z</time>
      </trkpt>
      <trkpt lat="38.9697190" lon="1.2941920">
        <ele>7.0</ele>
        <time>2020-02-21T16:15:43Z</time>
      </trkpt>
      <trkpt lat="38.9697080" lon="1.2942010">
        <ele>6.2</ele>
        <time>2020-02-21T16:15:44Z</time>
      </trkpt>
      <trkpt lat="38.9696790" lon="1.2942350">
        <ele>7.0</ele>
        <time>2020-02-21T16:15:45Z</time>
      </trkpt>
      <trkpt lat="38.9696700" lon="1.2942480">
        <ele>6.4</ele>
        <time>2020-02-21T16:15:46Z</time>
      </trkpt>
      <trkpt lat="38.9696410" lon="1.2942880">
        <ele>6.5</ele>
        <time>2020-02-21T16:15:47Z</time>
      </trkpt>
      <trkpt lat="38.9696300" lon="1.2943040">
        <ele>6.5</ele>
        <time>2020-02-21T16:15:48Z</time>
      </trkpt>
      <trkpt lat="38.9696170" lon="1.2943150">
        <ele>7.2</ele>
        <time>2020-02-21T16:15:49Z</time>
      </trkpt>
      <trkpt lat="38.9696020" lon="1.2943270">
        <ele>6.4</ele>
        <time>2020-02-21T16:15:50Z</time>
      </trkpt>
      <trkpt lat="38.9695720" lon="1.2943520">
        <ele>6.9</ele>
        <time>2020-02-21T16:15:51Z</time>
      </trkpt>
      <trkpt lat="38.9695600" lon="1.2943630">
        <ele>6.9</ele>
        <time>2020-02-21T16:15:52Z</time>
      </trkpt>
      <trkpt lat="38.9695290" lon="1.2943790">
        <ele>6.1</ele>
        <time>2020-02-21T16:15:53Z</time>
      </trkpt>
      <trkpt lat="38.9694970" lon="1.2943900">
        <ele>6.3</ele>
        <time>2020-02-21T16:15:54Z</time>
      </trkpt>
      <trkpt lat="38.9694700" lon="1.2943960">
        <ele>6.3</ele>
        <time>2020-02-21T16:15:55Z</time>
      </trkpt>
      <trkpt lat="38.9694340" lon="1.2944070">
        <ele>6.2</ele>
        <time>2020-02-21T16:15:56Z</time>
      </trkpt>
      <trkpt lat="38.9694220" lon="1.2944100">
        <ele>6.2</ele>
        <time>2020-02-21T16:15:57Z</time>
      </trkpt>
      <trkpt lat="38.9693930" lon="1.2944410">
        <ele>4.6</ele>
        <time>2020-02-21T16:15:58Z</time>
      </trkpt>
      <trkpt lat="38.9693840" lon="1.2944510">
        <ele>4.5</ele>
        <time>2020-02-21T16:15:59Z</time>
      </trkpt>
      <trkpt lat="38.9693620" lon="1.2944700">
        <ele>3.1</ele>
        <time>2020-02-21T16:16:00Z</time>
      </trkpt>
      <trkpt lat="38.9693510" lon="1.2944750">
        <ele>3.1</ele>
        <time>2020-02-21T16:16:01Z</time>
      </trkpt>
      <trkpt lat="38.9693250" lon="1.2944940">
        <ele>3.1</ele>
        <time>2020-02-21T16:16:02Z</time>
      </trkpt>
      <trkpt lat="38.9693000" lon="1.2945170">
        <ele>2.1</ele>
        <time>2020-02-21T16:16:03Z</time>
      </trkpt>
      <trkpt lat="38.9692910" lon="1.2945260">
        <ele>2.1</ele>
        <time>2020-02-21T16:16:04Z</time>
      </trkpt>
      <trkpt lat="38.9692640" lon="1.2945450">
        <ele>1.5</ele>
        <time>2020-02-21T16:16:05Z</time>
      </trkpt>
      <trkpt lat="38.9692560" lon="1.2945530">
        <ele>1.5</ele>
        <time>2020-02-21T16:16:06Z</time>
      </trkpt>
      <trkpt lat="38.9692320" lon="1.2945840">
        <ele>2.0</ele>
        <time>2020-02-21T16:16:07Z</time>
      </trkpt>
      <trkpt lat="38.9692240" lon="1.2945970">
        <ele>1.3</ele>
        <time>2020-02-21T16:16:08Z</time>
      </trkpt>
      <trkpt lat="38.9692140" lon="1.2946600">
        <ele>1.4</ele>
        <time>2020-02-21T16:16:09Z</time>
      </trkpt>
      <trkpt lat="38.9692090" lon="1.2947090">
        <ele>0.9</ele>
        <time>2020-02-21T16:16:10Z</time>
      </trkpt>
      <trkpt lat="38.9692060" lon="1.2947310">
        <ele>0.5</ele>
        <time>2020-02-21T16:16:11Z</time>
      </trkpt>
      <trkpt lat="38.9691700" lon="1.2947570">
        <ele>0.5</ele>
        <time>2020-02-21T16:16:12Z</time>
      </trkpt>
      <trkpt lat="38.9691570" lon="1.2947650">
        <ele>0.5</ele>
        <time>2020-02-21T16:16:13Z</time>
      </trkpt>
      <trkpt lat="38.9691260" lon="1.2947890">
        <ele>0.8</ele>
        <time>2020-02-21T16:16:14Z</time>
      </trkpt>
      <trkpt lat="38.9691010" lon="1.2948170">
        <ele>0.5</ele>
        <time>2020-02-21T16:16:15Z</time>
      </trkpt>
      <trkpt lat="38.9690770" lon="1.2948410">
        <ele>0.8</ele>
        <time>2020-02-21T16:16:16Z</time>
      </trkpt>
      <trkpt lat="38.9690540" lon="1.2948590">
        <ele>0.3</ele>
        <time>2020-02-21T16:16:17Z</time>
      </trkpt>
      <trkpt lat="38.9690270" lon="1.2948970">
        <ele>0.1</ele>
        <time>2020-02-21T16:16:18Z</time>
      </trkpt>
      <trkpt lat="38.9690190" lon="1.2949130">
        <ele>0.1</ele>
        <time>2020-02-21T16:16:19Z</time>
      </trkpt>
      <trkpt lat="38.9690080" lon="1.2949560">
        <ele>0.2</ele>
        <time>2020-02-21T16:16:20Z</time>
      </trkpt>
      <trkpt lat="38.9689940" lon="1.2949930">
        <ele>0.1</ele>
        <time>2020-02-21T16:16:21Z</time>
      </trkpt>
      <trkpt lat="38.9689650" lon="1.2950070">
        <ele>0.3</ele>
        <time>2020-02-21T16:16:22Z</time>
      </trkpt>
      <trkpt lat="38.9689300" lon="1.2950200">
        <ele>0.4</ele>
        <time>2020-02-21T16:16:23Z</time>
      </trkpt>
      <trkpt lat="38.9688940" lon="1.2950220">
        <ele>0.6</ele>
        <time>2020-02-21T16:16:24Z</time>
      </trkpt>
      <trkpt lat="38.9688700" lon="1.2950180">
        <ele>0.9</ele>
        <time>2020-02-21T16:16:25Z</time>
      </trkpt>
      <trkpt lat="38.9688620" lon="1.2950430">
        <ele>0.9</ele>
        <time>2020-02-21T16:16:26Z</time>
      </trkpt>
      <trkpt lat="38.9688420" lon="1.2950680">
        <ele>0.6</ele>
        <time>2020-02-21T16:16:27Z</time>
      </trkpt>
      <trkpt lat="38.9688110" lon="1.2951130">
        <ele>0.4</ele>
        <time>2020-02-21T16:16:28Z</time>
      </trkpt>
      <trkpt lat="38.9687950" lon="1.2951300">
        <ele>0.4</ele>
        <time>2020-02-21T16:16:29Z</time>
      </trkpt>
      <trkpt lat="38.9687640" lon="1.2951550">
        <ele>0.2</ele>
        <time>2020-02-21T16:16:30Z</time>
      </trkpt>
      <trkpt lat="38.9687530" lon="1.2951630">
        <ele>0.2</ele>
        <time>2020-02-21T16:16:31Z</time>
      </trkpt>
      <trkpt lat="38.9687420" lon="1.2951740">
        <ele>0.5</ele>
        <time>2020-02-21T16:16:32Z</time>
      </trkpt>
      <trkpt lat="38.9687330" lon="1.2951910">
        <ele>0.2</ele>
        <time>2020-02-21T16:16:33Z</time>
      </trkpt>
      <trkpt lat="38.9687300" lon="1.2951980">
        <ele>0.2</ele>
        <time>2020-02-21T16:16:34Z</time>
      </trkpt>
      <trkpt lat="38.9687340" lon="1.2951960">
        <ele>0.2</ele>
        <time>2020-02-21T16:16:35Z</time>
      </trkpt>
      <trkpt lat="38.9687410" lon="1.2951920">
        <ele>0.2</ele>
        <time>2020-02-21T16:16:36Z</time>
      </trkpt>
      <trkpt lat="38.9687410" lon="1.2951930">
        <ele>0.2</ele>
        <time>2020-02-21T16:16:37Z</time>
      </trkpt>
      <trkpt lat="38.9687410" lon="1.2951930">
        <ele>0.2</ele>
        <time>2020-02-21T16:16:38Z</time>
      </trkpt>
      <trkpt lat="38.9687410" lon="1.2951930">
        <ele>0.2</ele>
        <time>2020-02-21T16:16:39Z</time>
      </trkpt>
      <trkpt lat="38.9687410" lon="1.2951930">
        <ele>0.2</ele>
        <time>2020-02-21T16:16:40Z</time>
      </trkpt>
      <trkpt lat="38.9687410" lon="1.2951940">
        <ele>0.2</ele>
        <time>2020-02-21T16:16:41Z</time>
      </trkpt>
      <trkpt lat="38.9687420" lon="1.2951940">
        <ele>0.2</ele>
        <time>2020-02-21T16:16:42Z</time>
      </trkpt>
      <trkpt lat="38.9687420" lon="1.2951940">
        <ele>0.2</ele>
        <time>2020-02-21T16:16:43Z</time>
      </trkpt>
      <trkpt lat="38.9687420" lon="1.2951940">
        <ele>0.2</ele>
        <time>2020-02-21T16:16:44Z</time>
      </trkpt>
      <trkpt lat="38.9687040" lon="1.2951460">
        <ele>1.0</ele>
        <time>2020-02-21T16:16:54Z</time>
      </trkpt>
      <trkpt lat="38.9686910" lon="1.2951400">
        <ele>1.5</ele>
        <time>2020-02-21T16:16:55Z</time>
      </trkpt>
      <trkpt lat="38.9686770" lon="1.2951280">
        <ele>1.7</ele>
        <time>2020-02-21T16:16:56Z</time>
      </trkpt>
      <trkpt lat="38.9686580" lon="1.2951210">
        <ele>1.8</ele>
        <time>2020-02-21T16:16:57Z</time>
      </trkpt>
      <trkpt lat="38.9686260" lon="1.2951140">
        <ele>2.0</ele>
        <time>2020-02-21T16:16:58Z</time>
      </trkpt>
      <trkpt lat="38.9686160" lon="1.2951110">
        <ele>2.1</ele>
        <time>2020-02-21T16:16:59Z</time>
      </trkpt>
      <trkpt lat="38.9685880" lon="1.2951080">
        <ele>2.2</ele>
        <time>2020-02-21T16:17:00Z</time>
      </trkpt>
      <trkpt lat="38.9685770" lon="1.2951050">
        <ele>2.2</ele>
        <time>2020-02-21T16:17:01Z</time>
      </trkpt>
      <trkpt lat="38.9685390" lon="1.2951030">
        <ele>2.4</ele>
        <time>2020-02-21T16:17:02Z</time>
      </trkpt>
      <trkpt lat="38.9685250" lon="1.2951050">
        <ele>2.5</ele>
        <time>2020-02-21T16:17:03Z</time>
      </trkpt>
      <trkpt lat="38.9684950" lon="1.2951060">
        <ele>2.6</ele>
        <time>2020-02-21T16:17:04Z</time>
      </trkpt>
      <trkpt lat="38.9684860" lon="1.2951060">
        <ele>2.7</ele>
        <time>2020-02-21T16:17:05Z</time>
      </trkpt>
      <trkpt lat="38.9684550" lon="1.2951150">
        <ele>2.8</ele>
        <time>2020-02-21T16:17:06Z</time>
      </trkpt>
      <trkpt lat="38.9684450" lon="1.2951180">
        <ele>2.8</ele>
        <time>2020-02-21T16:17:07Z</time>
      </trkpt>
      <trkpt lat="38.9684120" lon="1.2951220">
        <ele>3.0</ele>
        <time>2020-02-21T16:17:08Z</time>
      </trkpt>
      <trkpt lat="38.9683970" lon="1.2951240">
        <ele>3.0</ele>
        <time>2020-02-21T16:17:09Z</time>
      </trkpt>
      <trkpt lat="38.9683630" lon="1.2951390">
        <ele>3.2</ele>
        <time>2020-02-21T16:17:10Z</time>
      </trkpt>
      <trkpt lat="38.9683500" lon="1.2951400">
        <ele>3.2</ele>
        <time>2020-02-21T16:17:11Z</time>
      </trkpt>
      <trkpt lat="38.9683160" lon="1.2951330">
        <ele>3.5</ele>
        <time>2020-02-21T16:17:12Z</time>
      </trkpt>
      <trkpt lat="38.9683040" lon="1.2951270">
        <ele>3.5</ele>
        <time>2020-02-21T16:17:13Z</time>
      </trkpt>
      <trkpt lat="38.9682710" lon="1.2951180">
        <ele>3.7</ele>
        <time>2020-02-21T16:17:14Z</time>
      </trkpt>
      <trkpt lat="38.9682320" lon="1.2951180">
        <ele>3.9</ele>
        <time>2020-02-21T16:17:15Z</time>
      </trkpt>
      <trkpt lat="38.9682180" lon="1.2951210">
        <ele>3.9</ele>
        <time>2020-02-21T16:17:16Z</time>
      </trkpt>
      <trkpt lat="38.9681880" lon="1.2951200">
        <ele>4.1</ele>
        <time>2020-02-21T16:17:17Z</time>
      </trkpt>
      <trkpt lat="38.9681620" lon="1.2951030">
        <ele>4.2</ele>
        <time>2020-02-21T16:17:18Z</time>
      </trkpt>
      <trkpt lat="38.9681350" lon="1.2950980">
        <ele>4.3</ele>
        <time>2020-02-21T16:17:19Z</time>
      </trkpt>
      <trkpt lat="38.9681060" lon="1.2950880">
        <ele>4.5</ele>
        <time>2020-02-21T16:17:20Z</time>
      </trkpt>
      <trkpt lat="38.9680770" lon="1.2950870">
        <ele>4.7</ele>
        <time>2020-02-21T16:17:21Z</time>
      </trkpt>
      <trkpt lat="38.9680400" lon="1.2950780">
        <ele>4.9</ele>
        <time>2020-02-21T16:17:22Z</time>
      </trkpt>
      <trkpt lat="38.9680260" lon="1.2950740">
        <ele>5.0</ele>
        <time>2020-02-21T16:17:23Z</time>
      </trkpt>
      <trkpt lat="38.9679940" lon="1.2950800">
        <ele>5.2</ele>
        <time>2020-02-21T16:17:24Z</time>
      </trkpt>
      <trkpt lat="38.9679660" lon="1.2950890">
        <ele>5.4</ele>
        <time>2020-02-21T16:17:25Z</time>
      </trkpt>
      <trkpt lat="38.9679310" lon="1.2950770">
        <ele>5.6</ele>
        <time>2020-02-21T16:17:26Z</time>
      </trkpt>
      <trkpt lat="38.9678940" lon="1.2950790">
        <ele>5.7</ele>
        <time>2020-02-21T16:17:27Z</time>
      </trkpt>
      <trkpt lat="38.9678820" lon="1.2950800">
        <ele>5.8</ele>
        <time>2020-02-21T16:17:28Z</time>
      </trkpt>
      <trkpt lat="38.9678380" lon="1.2950660">
        <ele>6.0</ele>
        <time>2020-02-21T16:17:29Z</time>
      </trkpt>
      <trkpt lat="38.9678010" lon="1.2950560">
        <ele>6.2</ele>
        <time>2020-02-21T16:17:30Z</time>
      </trkpt>
      <trkpt lat="38.9677710" lon="1.2950490">
        <ele>6.4</ele>
        <time>2020-02-21T16:17:31Z</time>
      </trkpt>
      <trkpt lat="38.9677420" lon="1.2950450">
        <ele>6.5</ele>
        <time>2020-02-21T16:17:32Z</time>
      </trkpt>
      <trkpt lat="38.9677120" lon="1.2950570">
        <ele>6.6</ele>
        <time>2020-02-21T16:17:33Z</time>
      </trkpt>
      <trkpt lat="38.9676800" lon="1.2950530">
        <ele>6.8</ele>
        <time>2020-02-21T16:17:34Z</time>
      </trkpt>
      <trkpt lat="38.9676530" lon="1.2950600">
        <ele>6.9</ele>
        <time>2020-02-21T16:17:35Z</time>
      </trkpt>
      <trkpt lat="38.9676140" lon="1.2950640">
        <ele>7.1</ele>
        <time>2020-02-21T16:17:36Z</time>
      </trkpt>
      <trkpt lat="38.9676000" lon="1.2950650">
        <ele>7.1</ele>
        <time>2020-02-21T16:17:37Z</time>
      </trkpt>
      <trkpt lat="38.9675700" lon="1.2950710">
        <ele>7.2</ele>
        <time>2020-02-21T16:17:38Z</time>
      </trkpt>
      <trkpt lat="38.9675340" lon="1.2950750">
        <ele>7.4</ele>
        <time>2020-02-21T16:17:39Z</time>
      </trkpt>
      <trkpt lat="38.9675200" lon="1.2950750">
        <ele>7.4</ele>
        <time>2020-02-21T16:17:40Z</time>
      </trkpt>
      <trkpt lat="38.9674930" lon="1.2950770">
        <ele>7.5</ele>
        <time>2020-02-21T16:17:41Z</time>
      </trkpt>
      <trkpt lat="38.9674620" lon="1.2950830">
        <ele>7.6</ele>
        <time>2020-02-21T16:17:42Z</time>
      </trkpt>
      <trkpt lat="38.9674300" lon="1.2950920">
        <ele>8.2</ele>
        <time>2020-02-21T16:17:43Z</time>
      </trkpt>
      <trkpt lat="38.9674150" lon="1.2951340">
        <ele>8.2</ele>
        <time>2020-02-21T16:17:44Z</time>
      </trkpt>
      <trkpt lat="38.9674130" lon="1.2951530">
        <ele>8.2</ele>
        <time>2020-02-21T16:17:45Z</time>
      </trkpt>
      <trkpt lat="38.9674160" lon="1.2951980">
        <ele>8.3</ele>
        <time>2020-02-21T16:17:46Z</time>
      </trkpt>
      <trkpt lat="38.9674170" lon="1.2952470">
        <ele>8.3</ele>
        <time>2020-02-21T16:17:47Z</time>
      </trkpt>
      <trkpt lat="38.9674190" lon="1.2953000">
        <ele>8.3</ele>
        <time>2020-02-21T16:17:48Z</time>
      </trkpt>
      <trkpt lat="38.9674200" lon="1.2953500">
        <ele>8.3</ele>
        <time>2020-02-21T16:17:49Z</time>
      </trkpt>
      <trkpt lat="38.9674200" lon="1.2954040">
        <ele>8.4</ele>
        <time>2020-02-21T16:17:50Z</time>
      </trkpt>
      <trkpt lat="38.9674210" lon="1.2954550">
        <ele>8.4</ele>
        <time>2020-02-21T16:17:51Z</time>
      </trkpt>
      <trkpt lat="38.9674200" lon="1.2955030">
        <ele>8.4</ele>
        <time>2020-02-21T16:17:52Z</time>
      </trkpt>
      <trkpt lat="38.9674210" lon="1.2955460">
        <ele>8.5</ele>
        <time>2020-02-21T16:17:53Z</time>
      </trkpt>
      <trkpt lat="38.9674220" lon="1.2955840">
        <ele>8.5</ele>
        <time>2020-02-21T16:17:54Z</time>
      </trkpt>
      <trkpt lat="38.9674250" lon="1.2956210">
        <ele>8.5</ele>
        <time>2020-02-21T16:17:55Z</time>
      </trkpt>
      <trkpt lat="38.9674220" lon="1.2956610">
        <ele>8.6</ele>
        <time>2020-02-21T16:17:56Z</time>
      </trkpt>
      <trkpt lat="38.9674190" lon="1.2956990">
        <ele>8.6</ele>
        <time>2020-02-21T16:17:57Z</time>
      </trkpt>
      <trkpt lat="38.9674320" lon="1.2957330">
        <ele>8.6</ele>
        <time>2020-02-21T16:17:58Z</time>
      </trkpt>
      <trkpt lat="38.9674320" lon="1.2957790">
        <ele>8.7</ele>
        <time>2020-02-21T16:17:59Z</time>
      </trkpt>
      <trkpt lat="38.9674330" lon="1.2958280">
        <ele>8.7</ele>
        <time>2020-02-21T16:18:00Z</time>
      </trkpt>
      <trkpt lat="38.9674330" lon="1.2958750">
        <ele>8.7</ele>
        <time>2020-02-21T16:18:01Z</time>
      </trkpt>
      <trkpt lat="38.9674320" lon="1.2959190">
        <ele>8.8</ele>
        <time>2020-02-21T16:18:02Z</time>
      </trkpt>
      <trkpt lat="38.9674300" lon="1.2959560">
        <ele>8.8</ele>
        <time>2020-02-21T16:18:03Z</time>
      </trkpt>
      <trkpt lat="38.9674280" lon="1.2959940">
        <ele>8.9</ele>
        <time>2020-02-21T16:18:04Z</time>
      </trkpt>
      <trkpt lat="38.9674250" lon="1.2960380">
        <ele>8.9</ele>
        <time>2020-02-21T16:18:05Z</time>
      </trkpt>
      <trkpt lat="38.9674230" lon="1.2960810">
        <ele>9.0</ele>
        <time>2020-02-21T16:18:06Z</time>
      </trkpt>
      <trkpt lat="38.9674200" lon="1.2961210">
        <ele>9.0</ele>
        <time>2020-02-21T16:18:07Z</time>
      </trkpt>
      <trkpt lat="38.9674190" lon="1.2961340">
        <ele>9.0</ele>
        <time>2020-02-21T16:18:08Z</time>
      </trkpt>
      <trkpt lat="38.9674270" lon="1.2961800">
        <ele>9.0</ele>
        <time>2020-02-21T16:18:09Z</time>
      </trkpt>
      <trkpt lat="38.9674350" lon="1.2962350">
        <ele>9.1</ele>
        <time>2020-02-21T16:18:10Z</time>
      </trkpt>
      <trkpt lat="38.9674370" lon="1.2962620">
        <ele>9.1</ele>
        <time>2020-02-21T16:18:11Z</time>
      </trkpt>
      <trkpt lat="38.9674210" lon="1.2962670">
        <ele>9.1</ele>
        <time>2020-02-21T16:18:12Z</time>
      </trkpt>
      <trkpt lat="38.9673940" lon="1.2962860">
        <ele>9.2</ele>
        <time>2020-02-21T16:18:13Z</time>
      </trkpt>
      <trkpt lat="38.9673810" lon="1.2963170">
        <ele>9.2</ele>
        <time>2020-02-21T16:18:14Z</time>
      </trkpt>
      <trkpt lat="38.9673690" lon="1.2963500">
        <ele>9.2</ele>
        <time>2020-02-21T16:18:15Z</time>
      </trkpt>
      <trkpt lat="38.9673590" lon="1.2963860">
        <ele>9.3</ele>
        <time>2020-02-21T16:18:16Z</time>
      </trkpt>
      <trkpt lat="38.9673780" lon="1.2964180">
        <ele>9.3</ele>
        <time>2020-02-21T16:18:17Z</time>
      </trkpt>
      <trkpt lat="38.9673790" lon="1.2964770">
        <ele>9.4</ele>
        <time>2020-02-21T16:18:18Z</time>
      </trkpt>
      <trkpt lat="38.9673790" lon="1.2965020">
        <ele>9.4</ele>
        <time>2020-02-21T16:18:19Z</time>
      </trkpt>
      <trkpt lat="38.9673760" lon="1.2965590">
        <ele>9.5</ele>
        <time>2020-02-21T16:18:20Z</time>
      </trkpt>
      <trkpt lat="38.9673760" lon="1.2966010">
        <ele>9.6</ele>
        <time>2020-02-21T16:18:21Z</time>
      </trkpt>
      <trkpt lat="38.9673750" lon="1.2966430">
        <ele>9.7</ele>
        <time>2020-02-21T16:18:22Z</time>
      </trkpt>
      <trkpt lat="38.9673800" lon="1.2966840">
        <ele>9.8</ele>
        <time>2020-02-21T16:18:23Z</time>
      </trkpt>
      <trkpt lat="38.9673770" lon="1.2967200">
        <ele>9.6</ele>
        <time>2020-02-21T16:18:24Z</time>
      </trkpt>
      <trkpt lat="38.9673800" lon="1.2967770">
        <ele>9.4</ele>
        <time>2020-02-21T16:18:25Z</time>
      </trkpt>
      <trkpt lat="38.9673810" lon="1.2968010">
        <ele>9.3</ele>
        <time>2020-02-21T16:18:26Z</time>
      </trkpt>
      <trkpt lat="38.9673770" lon="1.2968420">
        <ele>9.1</ele>
        <time>2020-02-21T16:18:27Z</time>
      </trkpt>
      <trkpt lat="38.9673880" lon="1.2968860">
        <ele>8.9</ele>
        <time>2020-02-21T16:18:28Z</time>
      </trkpt>
      <trkpt lat="38.9673980" lon="1.2969320">
        <ele>8.8</ele>
        <time>2020-02-21T16:18:29Z</time>
      </trkpt>
      <trkpt lat="38.9673960" lon="1.2969820">
        <ele>8.6</ele>
        <time>2020-02-21T16:18:30Z</time>
      </trkpt>
      <trkpt lat="38.9673910" lon="1.2970320">
        <ele>8.4</ele>
        <time>2020-02-21T16:18:31Z</time>
      </trkpt>
      <trkpt lat="38.9673940" lon="1.2970790">
        <ele>8.2</ele>
        <time>2020-02-21T16:18:32Z</time>
      </trkpt>
      <trkpt lat="38.9673880" lon="1.2971250">
        <ele>8.1</ele>
        <time>2020-02-21T16:18:33Z</time>
      </trkpt>
      <trkpt lat="38.9673820" lon="1.2971680">
        <ele>7.9</ele>
        <time>2020-02-21T16:18:34Z</time>
      </trkpt>
      <trkpt lat="38.9673810" lon="1.2972220">
        <ele>7.8</ele>
        <time>2020-02-21T16:18:35Z</time>
      </trkpt>
      <trkpt lat="38.9673800" lon="1.2972450">
        <ele>7.7</ele>
        <time>2020-02-21T16:18:36Z</time>
      </trkpt>
      <trkpt lat="38.9673810" lon="1.2972920">
        <ele>7.6</ele>
        <time>2020-02-21T16:18:37Z</time>
      </trkpt>
      <trkpt lat="38.9673710" lon="1.2973470">
        <ele>7.3</ele>
        <time>2020-02-21T16:18:38Z</time>
      </trkpt>
      <trkpt lat="38.9673740" lon="1.2974010">
        <ele>7.3</ele>
        <time>2020-02-21T16:18:39Z</time>
      </trkpt>
      <trkpt lat="38.9673650" lon="1.2974470">
        <ele>7.2</ele>
        <time>2020-02-21T16:18:40Z</time>
      </trkpt>
      <trkpt lat="38.9673550" lon="1.2974940">
        <ele>7.2</ele>
        <time>2020-02-21T16:18:41Z</time>
      </trkpt>
      <trkpt lat="38.9673500" lon="1.2975290">
        <ele>7.1</ele>
        <time>2020-02-21T16:18:42Z</time>
      </trkpt>
      <trkpt lat="38.9673600" lon="1.2975730">
        <ele>7.1</ele>
        <time>2020-02-21T16:18:43Z</time>
      </trkpt>
      <trkpt lat="38.9673670" lon="1.2976250">
        <ele>7.0</ele>
        <time>2020-02-21T16:18:44Z</time>
      </trkpt>
      <trkpt lat="38.9673660" lon="1.2976670">
        <ele>6.9</ele>
        <time>2020-02-21T16:18:45Z</time>
      </trkpt>
      <trkpt lat="38.9673620" lon="1.2977050">
        <ele>6.8</ele>
        <time>2020-02-21T16:18:46Z</time>
      </trkpt>
      <trkpt lat="38.9673640" lon="1.2977510">
        <ele>6.8</ele>
        <time>2020-02-21T16:18:47Z</time>
      </trkpt>
      <trkpt lat="38.9673640" lon="1.2977880">
        <ele>6.7</ele>
        <time>2020-02-21T16:18:48Z</time>
      </trkpt>
      <trkpt lat="38.9673600" lon="1.2978330">
        <ele>6.6</ele>
        <time>2020-02-21T16:18:49Z</time>
      </trkpt>
      <trkpt lat="38.9673550" lon="1.2978470">
        <ele>6.6</ele>
        <time>2020-02-21T16:18:50Z</time>
      </trkpt>
      <trkpt lat="38.9673580" lon="1.2978570">
        <ele>6.6</ele>
        <time>2020-02-21T16:18:51Z</time>
      </trkpt>
      <trkpt lat="38.9673520" lon="1.2978910">
        <ele>6.5</ele>
        <time>2020-02-21T16:18:52Z</time>
      </trkpt>
      <trkpt lat="38.9673370" lon="1.2979360">
        <ele>6.4</ele>
        <time>2020-02-21T16:18:53Z</time>
      </trkpt>
      <trkpt lat="38.9673430" lon="1.2979700">
        <ele>6.3</ele>
        <time>2020-02-21T16:18:54Z</time>
      </trkpt>
      <trkpt lat="38.9673600" lon="1.2980070">
        <ele>6.2</ele>
        <time>2020-02-21T16:18:55Z</time>
      </trkpt>
      <trkpt lat="38.9673550" lon="1.2980590">
        <ele>6.1</ele>
        <time>2020-02-21T16:18:56Z</time>
      </trkpt>
      <trkpt lat="38.9673590" lon="1.2981080">
        <ele>6.0</ele>
        <time>2020-02-21T16:18:57Z</time>
      </trkpt>
      <trkpt lat="38.9673520" lon="1.2981480">
        <ele>5.9</ele>
        <time>2020-02-21T16:18:58Z</time>
      </trkpt>
      <trkpt lat="38.9673490" lon="1.2981930">
        <ele>5.8</ele>
        <time>2020-02-21T16:18:59Z</time>
      </trkpt>
      <trkpt lat="38.9673510" lon="1.2982050">
        <ele>5.8</ele>
        <time>2020-02-21T16:19:00Z</time>
      </trkpt>
      <trkpt lat="38.9673630" lon="1.2982430">
        <ele>5.7</ele>
        <time>2020-02-21T16:19:01Z</time>
      </trkpt>
      <trkpt lat="38.9673710" lon="1.2982910">
        <ele>5.6</ele>
        <time>2020-02-21T16:19:02Z</time>
      </trkpt>
      <trkpt lat="38.9673810" lon="1.2983400">
        <ele>5.5</ele>
        <time>2020-02-21T16:19:03Z</time>
      </trkpt>
      <trkpt lat="38.9673870" lon="1.2983800">
        <ele>5.4</ele>
        <time>2020-02-21T16:19:04Z</time>
      </trkpt>
      <trkpt lat="38.9673910" lon="1.2984210">
        <ele>5.3</ele>
        <time>2020-02-21T16:19:05Z</time>
      </trkpt>
      <trkpt lat="38.9673890" lon="1.2984660">
        <ele>5.2</ele>
        <time>2020-02-21T16:19:06Z</time>
      </trkpt>
      <trkpt lat="38.9673880" lon="1.2984940">
        <ele>5.1</ele>
        <time>2020-02-21T16:19:07Z</time>
      </trkpt>
      <trkpt lat="38.9673880" lon="1.2985040">
        <ele>5.1</ele>
        <time>2020-02-21T16:19:08Z</time>
      </trkpt>
      <trkpt lat="38.9673890" lon="1.2985130">
        <ele>5.1</ele>
        <time>2020-02-21T16:19:09Z</time>
      </trkpt>
      <trkpt lat="38.9673890" lon="1.2985230">
        <ele>5.1</ele>
        <time>2020-02-21T16:19:10Z</time>
      </trkpt>
      <trkpt lat="38.9673930" lon="1.2985670">
        <ele>4.9</ele>
        <time>2020-02-21T16:19:11Z</time>
      </trkpt>
      <trkpt lat="38.9673870" lon="1.2986020">
        <ele>4.8</ele>
        <time>2020-02-21T16:19:12Z</time>
      </trkpt>
      <trkpt lat="38.9673820" lon="1.2986410">
        <ele>4.6</ele>
        <time>2020-02-21T16:19:13Z</time>
      </trkpt>
      <trkpt lat="38.9673720" lon="1.2986890">
        <ele>4.5</ele>
        <time>2020-02-21T16:19:14Z</time>
      </trkpt>
      <trkpt lat="38.9673720" lon="1.2987100">
        <ele>4.5</ele>
        <time>2020-02-21T16:19:15Z</time>
      </trkpt>
      <trkpt lat="38.9673760" lon="1.2987610">
        <ele>4.4</ele>
        <time>2020-02-21T16:19:16Z</time>
      </trkpt>
      <trkpt lat="38.9673680" lon="1.2988210">
        <ele>4.3</ele>
        <time>2020-02-21T16:19:17Z</time>
      </trkpt>
      <trkpt lat="38.9673460" lon="1.2988770">
        <ele>4.2</ele>
        <time>2020-02-21T16:19:18Z</time>
      </trkpt>
      <trkpt lat="38.9673280" lon="1.2989410">
        <ele>4.1</ele>
        <time>2020-02-21T16:19:19Z</time>
      </trkpt>
      <trkpt lat="38.9673050" lon="1.2990030">
        <ele>4.1</ele>
        <time>2020-02-21T16:19:20Z</time>
      </trkpt>
      <trkpt lat="38.9672900" lon="1.2990600">
        <ele>4.1</ele>
        <time>2020-02-21T16:19:21Z</time>
      </trkpt>
      <trkpt lat="38.9672730" lon="1.2991110">
        <ele>4.0</ele>
        <time>2020-02-21T16:19:22Z</time>
      </trkpt>
      <trkpt lat="38.9672740" lon="1.2991650">
        <ele>4.0</ele>
        <time>2020-02-21T16:19:23Z</time>
      </trkpt>
      <trkpt lat="38.9672730" lon="1.2992150">
        <ele>4.0</ele>
        <time>2020-02-21T16:19:24Z</time>
      </trkpt>
      <trkpt lat="38.9672570" lon="1.2992740">
        <ele>4.0</ele>
        <time>2020-02-21T16:19:25Z</time>
      </trkpt>
      <trkpt lat="38.9672480" lon="1.2993270">
        <ele>4.0</ele>
        <time>2020-02-21T16:19:26Z</time>
      </trkpt>
      <trkpt lat="38.9672390" lon="1.2993870">
        <ele>3.9</ele>
        <time>2020-02-21T16:19:27Z</time>
      </trkpt>
      <trkpt lat="38.9672250" lon="1.2994450">
        <ele>3.9</ele>
        <time>2020-02-21T16:19:28Z</time>
      </trkpt>
      <trkpt lat="38.9672100" lon="1.2995100">
        <ele>3.9</ele>
        <time>2020-02-21T16:19:29Z</time>
      </trkpt>
      <trkpt lat="38.9672000" lon="1.2995670">
        <ele>3.9</ele>
        <time>2020-02-21T16:19:30Z</time>
      </trkpt>
      <trkpt lat="38.9671940" lon="1.2996280">
        <ele>3.9</ele>
        <time>2020-02-21T16:19:31Z</time>
      </trkpt>
      <trkpt lat="38.9672000" lon="1.2996760">
        <ele>3.9</ele>
        <time>2020-02-21T16:19:32Z</time>
      </trkpt>
      <trkpt lat="38.9671980" lon="1.2997110">
        <ele>3.9</ele>
        <time>2020-02-21T16:19:33Z</time>
      </trkpt>
      <trkpt lat="38.9671920" lon="1.2997660">
        <ele>3.9</ele>
        <time>2020-02-21T16:19:34Z</time>
      </trkpt>
      <trkpt lat="38.9672030" lon="1.2998050">
        <ele>3.9</ele>
        <time>2020-02-21T16:19:35Z</time>
      </trkpt>
      <trkpt lat="38.9672130" lon="1.2998630">
        <ele>3.9</ele>
        <time>2020-02-21T16:19:36Z</time>
      </trkpt>
      <trkpt lat="38.9672200" lon="1.2999120">
        <ele>3.9</ele>
        <time>2020-02-21T16:19:37Z</time>
      </trkpt>
      <trkpt lat="38.9672240" lon="1.2999540">
        <ele>3.8</ele>
        <time>2020-02-21T16:19:38Z</time>
      </trkpt>
      <trkpt lat="38.9672250" lon="1.2999950">
        <ele>3.8</ele>
        <time>2020-02-21T16:19:39Z</time>
      </trkpt>
      <trkpt lat="38.9672250" lon="1.3000430">
        <ele>3.8</ele>
        <time>2020-02-21T16:19:40Z</time>
      </trkpt>
      <trkpt lat="38.9672260" lon="1.3000980">
        <ele>3.8</ele>
        <time>2020-02-21T16:19:41Z</time>
      </trkpt>
      <trkpt lat="38.9672320" lon="1.3001390">
        <ele>3.8</ele>
        <time>2020-02-21T16:19:42Z</time>
      </trkpt>
      <trkpt lat="38.9672390" lon="1.3001850">
        <ele>3.8</ele>
        <time>2020-02-21T16:19:43Z</time>
      </trkpt>
      <trkpt lat="38.9672550" lon="1.3002250">
        <ele>3.7</ele>
        <time>2020-02-21T16:19:44Z</time>
      </trkpt>
      <trkpt lat="38.9672640" lon="1.3002750">
        <ele>3.7</ele>
        <time>2020-02-21T16:19:45Z</time>
      </trkpt>
      <trkpt lat="38.9672640" lon="1.3003180">
        <ele>3.7</ele>
        <time>2020-02-21T16:19:46Z</time>
      </trkpt>
      <trkpt lat="38.9672760" lon="1.3003500">
        <ele>3.7</ele>
        <time>2020-02-21T16:19:47Z</time>
      </trkpt>
      <trkpt lat="38.9672820" lon="1.3004020">
        <ele>3.6</ele>
        <time>2020-02-21T16:19:48Z</time>
      </trkpt>
      <trkpt lat="38.9672830" lon="1.3004210">
        <ele>3.6</ele>
        <time>2020-02-21T16:19:49Z</time>
      </trkpt>
      <trkpt lat="38.9672840" lon="1.3004700">
        <ele>3.6</ele>
        <time>2020-02-21T16:19:50Z</time>
      </trkpt>
      <trkpt lat="38.9672850" lon="1.3004870">
        <ele>3.6</ele>
        <time>2020-02-21T16:19:51Z</time>
      </trkpt>
      <trkpt lat="38.9672930" lon="1.3005270">
        <ele>3.5</ele>
        <time>2020-02-21T16:19:52Z</time>
      </trkpt>
      <trkpt lat="38.9673070" lon="1.3005660">
        <ele>3.5</ele>
        <time>2020-02-21T16:19:53Z</time>
      </trkpt>
      <trkpt lat="38.9673100" lon="1.3005800">
        <ele>3.5</ele>
        <time>2020-02-21T16:19:54Z</time>
      </trkpt>
      <trkpt lat="38.9673240" lon="1.3006270">
        <ele>3.4</ele>
        <time>2020-02-21T16:19:55Z</time>
      </trkpt>
      <trkpt lat="38.9673280" lon="1.3006460">
        <ele>3.4</ele>
        <time>2020-02-21T16:19:56Z</time>
      </trkpt>
      <trkpt lat="38.9673350" lon="1.3006820">
        <ele>3.4</ele>
        <time>2020-02-21T16:19:57Z</time>
      </trkpt>
      <trkpt lat="38.9673390" lon="1.3007200">
        <ele>3.4</ele>
        <time>2020-02-21T16:19:58Z</time>
      </trkpt>
      <trkpt lat="38.9673480" lon="1.3007600">
        <ele>3.3</ele>
        <time>2020-02-21T16:19:59Z</time>
      </trkpt>
      <trkpt lat="38.9673580" lon="1.3007980">
        <ele>3.3</ele>
        <time>2020-02-21T16:20:00Z</time>
      </trkpt>
      <trkpt lat="38.9673690" lon="1.3008320">
        <ele>3.3</ele>
        <time>2020-02-21T16:20:01Z</time>
      </trkpt>
      <trkpt lat="38.9673730" lon="1.3008720">
        <ele>3.2</ele>
        <time>2020-02-21T16:20:02Z</time>
      </trkpt>
      <trkpt lat="38.9673710" lon="1.3009110">
        <ele>3.2</ele>
        <time>2020-02-21T16:20:03Z</time>
      </trkpt>
      <trkpt lat="38.9673740" lon="1.3009520">
        <ele>3.2</ele>
        <time>2020-02-21T16:20:04Z</time>
      </trkpt>
      <trkpt lat="38.9673690" lon="1.3010110">
        <ele>3.1</ele>
        <time>2020-02-21T16:20:05Z</time>
      </trkpt>
      <trkpt lat="38.9673680" lon="1.3010370">
        <ele>3.1</ele>
        <time>2020-02-21T16:20:06Z</time>
      </trkpt>
      <trkpt lat="38.9673770" lon="1.3010890">
        <ele>3.0</ele>
        <time>2020-02-21T16:20:07Z</time>
      </trkpt>
      <trkpt lat="38.9673900" lon="1.3011420">
        <ele>3.0</ele>
        <time>2020-02-21T16:20:08Z</time>
      </trkpt>
      <trkpt lat="38.9674070" lon="1.3011880">
        <ele>3.0</ele>
        <time>2020-02-21T16:20:09Z</time>
      </trkpt>
      <trkpt lat="38.9674210" lon="1.3012340">
        <ele>2.9</ele>
        <time>2020-02-21T16:20:10Z</time>
      </trkpt>
      <trkpt lat="38.9674240" lon="1.3012790">
        <ele>2.9</ele>
        <time>2020-02-21T16:20:11Z</time>
      </trkpt>
      <trkpt lat="38.9674300" lon="1.3013190">
        <ele>2.8</ele>
        <time>2020-02-21T16:20:12Z</time>
      </trkpt>
      <trkpt lat="38.9674370" lon="1.3013690">
        <ele>2.8</ele>
        <time>2020-02-21T16:20:13Z</time>
      </trkpt>
      <trkpt lat="38.9674420" lon="1.3014120">
        <ele>2.8</ele>
        <time>2020-02-21T16:20:14Z</time>
      </trkpt>
      <trkpt lat="38.9674480" lon="1.3014480">
        <ele>2.7</ele>
        <time>2020-02-21T16:20:15Z</time>
      </trkpt>
      <trkpt lat="38.9674610" lon="1.3014980">
        <ele>2.7</ele>
        <time>2020-02-21T16:20:16Z</time>
      </trkpt>
      <trkpt lat="38.9674920" lon="1.3015430">
        <ele>2.6</ele>
        <time>2020-02-21T16:20:17Z</time>
      </trkpt>
      <trkpt lat="38.9675260" lon="1.3015990">
        <ele>2.6</ele>
        <time>2020-02-21T16:20:18Z</time>
      </trkpt>
      <trkpt lat="38.9675570" lon="1.3016320">
        <ele>2.6</ele>
        <time>2020-02-21T16:20:19Z</time>
      </trkpt>
      <trkpt lat="38.9675830" lon="1.3016590">
        <ele>2.6</ele>
        <time>2020-02-21T16:20:20Z</time>
      </trkpt>
      <trkpt lat="38.9676200" lon="1.3016770">
        <ele>2.6</ele>
        <time>2020-02-21T16:20:21Z</time>
      </trkpt>
      <trkpt lat="38.9676510" lon="1.3017080">
        <ele>2.6</ele>
        <time>2020-02-21T16:20:22Z</time>
      </trkpt>
      <trkpt lat="38.9676870" lon="1.3017390">
        <ele>2.5</ele>
        <time>2020-02-21T16:20:23Z</time>
      </trkpt>
      <trkpt lat="38.9677160" lon="1.3017550">
        <ele>2.5</ele>
        <time>2020-02-21T16:20:24Z</time>
      </trkpt>
      <trkpt lat="38.9677610" lon="1.3017770">
        <ele>2.5</ele>
        <time>2020-02-21T16:20:25Z</time>
      </trkpt>
      <trkpt lat="38.9678050" lon="1.3018110">
        <ele>2.6</ele>
        <time>2020-02-21T16:20:26Z</time>
      </trkpt>
      <trkpt lat="38.9678530" lon="1.3018340">
        <ele>2.6</ele>
        <time>2020-02-21T16:20:27Z</time>
      </trkpt>
      <trkpt lat="38.9678960" lon="1.3018660">
        <ele>2.6</ele>
        <time>2020-02-21T16:20:28Z</time>
      </trkpt>
      <trkpt lat="38.9679370" lon="1.3018760">
        <ele>2.6</ele>
        <time>2020-02-21T16:20:29Z</time>
      </trkpt>
      <trkpt lat="38.9679860" lon="1.3018940">
        <ele>2.6</ele>
        <time>2020-02-21T16:20:30Z</time>
      </trkpt>
      <trkpt lat="38.9680230" lon="1.3019300">
        <ele>2.6</ele>
        <time>2020-02-21T16:20:31Z</time>
      </trkpt>
      <trkpt lat="38.9680600" lon="1.3019570">
        <ele>2.6</ele>
        <time>2020-02-21T16:20:32Z</time>
      </trkpt>
      <trkpt lat="38.9680980" lon="1.3019760">
        <ele>2.8</ele>
        <time>2020-02-21T16:20:33Z</time>
      </trkpt>
      <trkpt lat="38.9681400" lon="1.3020010">
        <ele>3.0</ele>
        <time>2020-02-21T16:20:34Z</time>
      </trkpt>
      <trkpt lat="38.9681860" lon="1.3020290">
        <ele>3.1</ele>
        <time>2020-02-21T16:20:35Z</time>
      </trkpt>
      <trkpt lat="38.9682210" lon="1.3020500">
        <ele>3.2</ele>
        <time>2020-02-21T16:20:36Z</time>
      </trkpt>
      <trkpt lat="38.9682600" lon="1.3020850">
        <ele>3.2</ele>
        <time>2020-02-21T16:20:37Z</time>
      </trkpt>
      <trkpt lat="38.9683050" lon="1.3021210">
        <ele>3.3</ele>
        <time>2020-02-21T16:20:38Z</time>
      </trkpt>
      <trkpt lat="38.9683460" lon="1.3021430">
        <ele>3.3</ele>
        <time>2020-02-21T16:20:39Z</time>
      </trkpt>
      <trkpt lat="38.9683920" lon="1.3021670">
        <ele>3.4</ele>
        <time>2020-02-21T16:20:40Z</time>
      </trkpt>
      <trkpt lat="38.9684350" lon="1.3021940">
        <ele>3.4</ele>
        <time>2020-02-21T16:20:41Z</time>
      </trkpt>
      <trkpt lat="38.9684750" lon="1.3022130">
        <ele>3.4</ele>
        <time>2020-02-21T16:20:42Z</time>
      </trkpt>
      <trkpt lat="38.9685090" lon="1.3022290">
        <ele>3.4</ele>
        <time>2020-02-21T16:20:43Z</time>
      </trkpt>
      <trkpt lat="38.9685500" lon="1.3022520">
        <ele>3.4</ele>
        <time>2020-02-21T16:20:44Z</time>
      </trkpt>
      <trkpt lat="38.9685840" lon="1.3022840">
        <ele>3.4</ele>
        <time>2020-02-21T16:20:45Z</time>
      </trkpt>
      <trkpt lat="38.9686230" lon="1.3023180">
        <ele>3.3</ele>
        <time>2020-02-21T16:20:46Z</time>
      </trkpt>
      <trkpt lat="38.9686650" lon="1.3023410">
        <ele>3.2</ele>
        <time>2020-02-21T16:20:47Z</time>
      </trkpt>
      <trkpt lat="38.9687040" lon="1.3023700">
        <ele>3.1</ele>
        <time>2020-02-21T16:20:48Z</time>
      </trkpt>
      <trkpt lat="38.9687460" lon="1.3024060">
        <ele>3.0</ele>
        <time>2020-02-21T16:20:49Z</time>
      </trkpt>
      <trkpt lat="38.9687870" lon="1.3024360">
        <ele>2.9</ele>
        <time>2020-02-21T16:20:50Z</time>
      </trkpt>
      <trkpt lat="38.9688250" lon="1.3024660">
        <ele>2.8</ele>
        <time>2020-02-21T16:20:51Z</time>
      </trkpt>
      <trkpt lat="38.9688650" lon="1.3025040">
        <ele>2.7</ele>
        <time>2020-02-21T16:20:52Z</time>
      </trkpt>
      <trkpt lat="38.9689010" lon="1.3025400">
        <ele>2.6</ele>
        <time>2020-02-21T16:20:53Z</time>
      </trkpt>
      <trkpt lat="38.9689400" lon="1.3025810">
        <ele>2.6</ele>
        <time>2020-02-21T16:20:54Z</time>
      </trkpt>
      <trkpt lat="38.9689750" lon="1.3026180">
        <ele>2.6</ele>
        <time>2020-02-21T16:20:55Z</time>
      </trkpt>
      <trkpt lat="38.9690240" lon="1.3026610">
        <ele>2.5</ele>
        <time>2020-02-21T16:20:56Z</time>
      </trkpt>
      <trkpt lat="38.9690720" lon="1.3027080">
        <ele>2.5</ele>
        <time>2020-02-21T16:20:57Z</time>
      </trkpt>
      <trkpt lat="38.9691090" lon="1.3027480">
        <ele>2.6</ele>
        <time>2020-02-21T16:20:58Z</time>
      </trkpt>
      <trkpt lat="38.9691390" lon="1.3027940">
        <ele>2.6</ele>
        <time>2020-02-21T16:20:59Z</time>
      </trkpt>
      <trkpt lat="38.9691680" lon="1.3028340">
        <ele>2.6</ele>
        <time>2020-02-21T16:21:00Z</time>
      </trkpt>
      <trkpt lat="38.9692030" lon="1.3028800">
        <ele>2.6</ele>
        <time>2020-02-21T16:21:01Z</time>
      </trkpt>
      <trkpt lat="38.9692360" lon="1.3029300">
        <ele>2.6</ele>
        <time>2020-02-21T16:21:02Z</time>
      </trkpt>
      <trkpt lat="38.9692620" lon="1.3029860">
        <ele>2.5</ele>
        <time>2020-02-21T16:21:03Z</time>
      </trkpt>
      <trkpt lat="38.9692850" lon="1.3030390">
        <ele>2.4</ele>
        <time>2020-02-21T16:21:04Z</time>
      </trkpt>
      <trkpt lat="38.9693090" lon="1.3030860">
        <ele>2.4</ele>
        <time>2020-02-21T16:21:05Z</time>
      </trkpt>
      <trkpt lat="38.9693430" lon="1.3031360">
        <ele>2.4</ele>
        <time>2020-02-21T16:21:06Z</time>
      </trkpt>
      <trkpt lat="38.9693770" lon="1.3031910">
        <ele>2.5</ele>
        <time>2020-02-21T16:21:07Z</time>
      </trkpt>
      <trkpt lat="38.9694140" lon="1.3032460">
        <ele>2.5</ele>
        <time>2020-02-21T16:21:08Z</time>
      </trkpt>
      <trkpt lat="38.9694540" lon="1.3033030">
        <ele>2.4</ele>
        <time>2020-02-21T16:21:09Z</time>
      </trkpt>
      <trkpt lat="38.9694920" lon="1.3033660">
        <ele>2.3</ele>
        <time>2020-02-21T16:21:10Z</time>
      </trkpt>
      <trkpt lat="38.9695290" lon="1.3034320">
        <ele>2.3</ele>
        <time>2020-02-21T16:21:11Z</time>
      </trkpt>
      <trkpt lat="38.9695680" lon="1.3034810">
        <ele>2.2</ele>
        <time>2020-02-21T16:21:12Z</time>
      </trkpt>
      <trkpt lat="38.9696060" lon="1.3035350">
        <ele>2.2</ele>
        <time>2020-02-21T16:21:13Z</time>
      </trkpt>
      <trkpt lat="38.9696480" lon="1.3035940">
        <ele>2.1</ele>
        <time>2020-02-21T16:21:14Z</time>
      </trkpt>
      <trkpt lat="38.9696840" lon="1.3036540">
        <ele>2.1</ele>
        <time>2020-02-21T16:21:15Z</time>
      </trkpt>
      <trkpt lat="38.9697240" lon="1.3037010">
        <ele>2.1</ele>
        <time>2020-02-21T16:21:16Z</time>
      </trkpt>
      <trkpt lat="38.9697580" lon="1.3037480">
        <ele>2.1</ele>
        <time>2020-02-21T16:21:17Z</time>
      </trkpt>
      <trkpt lat="38.9697950" lon="1.3038040">
        <ele>2.1</ele>
        <time>2020-02-21T16:21:18Z</time>
      </trkpt>
      <trkpt lat="38.9698420" lon="1.3038610">
        <ele>2.1</ele>
        <time>2020-02-21T16:21:19Z</time>
      </trkpt>
      <trkpt lat="38.9698830" lon="1.3039120">
        <ele>2.2</ele>
        <time>2020-02-21T16:21:20Z</time>
      </trkpt>
      <trkpt lat="38.9699260" lon="1.3039570">
        <ele>2.3</ele>
        <time>2020-02-21T16:21:21Z</time>
      </trkpt>
      <trkpt lat="38.9699690" lon="1.3040010">
        <ele>2.4</ele>
        <time>2020-02-21T16:21:22Z</time>
      </trkpt>
      <trkpt lat="38.9700120" lon="1.3040480">
        <ele>2.6</ele>
        <time>2020-02-21T16:21:23Z</time>
      </trkpt>
      <trkpt lat="38.9700500" lon="1.3041010">
        <ele>2.9</ele>
        <time>2020-02-21T16:21:24Z</time>
      </trkpt>
      <trkpt lat="38.9700810" lon="1.3041400">
        <ele>3.1</ele>
        <time>2020-02-21T16:21:25Z</time>
      </trkpt>
      <trkpt lat="38.9701190" lon="1.3041870">
        <ele>3.4</ele>
        <time>2020-02-21T16:21:26Z</time>
      </trkpt>
      <trkpt lat="38.9701550" lon="1.3042380">
        <ele>3.8</ele>
        <time>2020-02-21T16:21:27Z</time>
      </trkpt>
      <trkpt lat="38.9701910" lon="1.3042840">
        <ele>4.2</ele>
        <time>2020-02-21T16:21:28Z</time>
      </trkpt>
      <trkpt lat="38.9702240" lon="1.3043220">
        <ele>4.5</ele>
        <time>2020-02-21T16:21:29Z</time>
      </trkpt>
      <trkpt lat="38.9702560" lon="1.3043500">
        <ele>4.7</ele>
        <time>2020-02-21T16:21:30Z</time>
      </trkpt>
      <trkpt lat="38.9702910" lon="1.3043380">
        <ele>4.7</ele>
        <time>2020-02-21T16:21:31Z</time>
      </trkpt>
      <trkpt lat="38.9703290" lon="1.3043230">
        <ele>4.6</ele>
        <time>2020-02-21T16:21:32Z</time>
      </trkpt>
      <trkpt lat="38.9703430" lon="1.3043210">
        <ele>4.6</ele>
        <time>2020-02-21T16:21:33Z</time>
      </trkpt>
      <trkpt lat="38.9703690" lon="1.3042970">
        <ele>4.6</ele>
        <time>2020-02-21T16:21:34Z</time>
      </trkpt>
      <trkpt lat="38.9704030" lon="1.3042900">
        <ele>4.5</ele>
        <time>2020-02-21T16:21:35Z</time>
      </trkpt>
      <trkpt lat="38.9704330" lon="1.3042840">
        <ele>4.5</ele>
        <time>2020-02-21T16:21:36Z</time>
      </trkpt>
      <trkpt lat="38.9704690" lon="1.3042670">
        <ele>4.5</ele>
        <time>2020-02-21T16:21:37Z</time>
      </trkpt>
      <trkpt lat="38.9705080" lon="1.3042530">
        <ele>4.5</ele>
        <time>2020-02-21T16:21:38Z</time>
      </trkpt>
      <trkpt lat="38.9705360" lon="1.3042210">
        <ele>4.6</ele>
        <time>2020-02-21T16:21:39Z</time>
      </trkpt>
      <trkpt lat="38.9705760" lon="1.3042020">
        <ele>4.6</ele>
        <time>2020-02-21T16:21:40Z</time>
      </trkpt>
      <trkpt lat="38.9706210" lon="1.3041780">
        <ele>4.7</ele>
        <time>2020-02-21T16:21:41Z</time>
      </trkpt>
      <trkpt lat="38.9706580" lon="1.3041640">
        <ele>4.7</ele>
        <time>2020-02-21T16:21:42Z</time>
      </trkpt>
      <trkpt lat="38.9706970" lon="1.3041410">
        <ele>4.7</ele>
        <time>2020-02-21T16:21:43Z</time>
      </trkpt>
      <trkpt lat="38.9707450" lon="1.3041300">
        <ele>4.7</ele>
        <time>2020-02-21T16:21:44Z</time>
      </trkpt>
      <trkpt lat="38.9707880" lon="1.3041180">
        <ele>4.7</ele>
        <time>2020-02-21T16:21:45Z</time>
      </trkpt>
      <trkpt lat="38.9708340" lon="1.3041020">
        <ele>4.7</ele>
        <time>2020-02-21T16:21:46Z</time>
      </trkpt>
      <trkpt lat="38.9708830" lon="1.3040760">
        <ele>4.6</ele>
        <time>2020-02-21T16:21:47Z</time>
      </trkpt>
      <trkpt lat="38.9709240" lon="1.3040630">
        <ele>4.5</ele>
        <time>2020-02-21T16:21:48Z</time>
      </trkpt>
      <trkpt lat="38.9709650" lon="1.3040580">
        <ele>4.5</ele>
        <time>2020-02-21T16:21:49Z</time>
      </trkpt>
      <trkpt lat="38.9709920" lon="1.3040370">
        <ele>4.4</ele>
        <time>2020-02-21T16:21:50Z</time>
      </trkpt>
      <trkpt lat="38.9710210" lon="1.3040220">
        <ele>4.4</ele>
        <time>2020-02-21T16:21:51Z</time>
      </trkpt>
      <trkpt lat="38.9710630" lon="1.3040230">
        <ele>4.3</ele>
        <time>2020-02-21T16:21:52Z</time>
      </trkpt>
      <trkpt lat="38.9711000" lon="1.3040090">
        <ele>4.3</ele>
        <time>2020-02-21T16:21:53Z</time>
      </trkpt>
      <trkpt lat="38.9711350" lon="1.3040000">
        <ele>4.3</ele>
        <time>2020-02-21T16:21:54Z</time>
      </trkpt>
      <trkpt lat="38.9711730" lon="1.3040000">
        <ele>4.3</ele>
        <time>2020-02-21T16:21:55Z</time>
      </trkpt>
      <trkpt lat="38.9712090" lon="1.3039930">
        <ele>4.3</ele>
        <time>2020-02-21T16:21:56Z</time>
      </trkpt>
      <trkpt lat="38.9712400" lon="1.3039820">
        <ele>4.3</ele>
        <time>2020-02-21T16:21:57Z</time>
      </trkpt>
      <trkpt lat="38.9712780" lon="1.3039840">
        <ele>4.3</ele>
        <time>2020-02-21T16:21:58Z</time>
      </trkpt>
      <trkpt lat="38.9713080" lon="1.3039850">
        <ele>4.3</ele>
        <time>2020-02-21T16:21:59Z</time>
      </trkpt>
      <trkpt lat="38.9713430" lon="1.3039840">
        <ele>4.4</ele>
        <time>2020-02-21T16:22:00Z</time>
      </trkpt>
      <trkpt lat="38.9713710" lon="1.3039770">
        <ele>4.4</ele>
        <time>2020-02-21T16:22:01Z</time>
      </trkpt>
      <trkpt lat="38.9713820" lon="1.3039800">
        <ele>4.4</ele>
        <time>2020-02-21T16:22:02Z</time>
      </trkpt>
      <trkpt lat="38.9714210" lon="1.3039670">
        <ele>4.4</ele>
        <time>2020-02-21T16:22:03Z</time>
      </trkpt>
      <trkpt lat="38.9714580" lon="1.3039630">
        <ele>4.4</ele>
        <time>2020-02-21T16:22:04Z</time>
      </trkpt>
      <trkpt lat="38.9715050" lon="1.3039630">
        <ele>4.4</ele>
        <time>2020-02-21T16:22:05Z</time>
      </trkpt>
      <trkpt lat="38.9715340" lon="1.3039500">
        <ele>4.4</ele>
        <time>2020-02-21T16:22:06Z</time>
      </trkpt>
      <trkpt lat="38.9715700" lon="1.3039570">
        <ele>4.3</ele>
        <time>2020-02-21T16:22:07Z</time>
      </trkpt>
      <trkpt lat="38.9716170" lon="1.3039680">
        <ele>4.3</ele>
        <time>2020-02-21T16:22:08Z</time>
      </trkpt>
      <trkpt lat="38.9716580" lon="1.3039690">
        <ele>4.2</ele>
        <time>2020-02-21T16:22:09Z</time>
      </trkpt>
      <trkpt lat="38.9716980" lon="1.3039590">
        <ele>4.1</ele>
        <time>2020-02-21T16:22:10Z</time>
      </trkpt>
      <trkpt lat="38.9717400" lon="1.3039490">
        <ele>3.9</ele>
        <time>2020-02-21T16:22:11Z</time>
      </trkpt>
      <trkpt lat="38.9717870" lon="1.3039460">
        <ele>3.7</ele>
        <time>2020-02-21T16:22:12Z</time>
      </trkpt>
      <trkpt lat="38.9718320" lon="1.3039570">
        <ele>3.5</ele>
        <time>2020-02-21T16:22:13Z</time>
      </trkpt>
      <trkpt lat="38.9718730" lon="1.3039550">
        <ele>3.2</ele>
        <time>2020-02-21T16:22:14Z</time>
      </trkpt>
      <trkpt lat="38.9719160" lon="1.3039590">
        <ele>2.8</ele>
        <time>2020-02-21T16:22:15Z</time>
      </trkpt>
      <trkpt lat="38.9719520" lon="1.3039570">
        <ele>2.5</ele>
        <time>2020-02-21T16:22:16Z</time>
      </trkpt>
      <trkpt lat="38.9719980" lon="1.3039680">
        <ele>2.1</ele>
        <time>2020-02-21T16:22:17Z</time>
      </trkpt>
      <trkpt lat="38.9720430" lon="1.3039720">
        <ele>1.7</ele>
        <time>2020-02-21T16:22:18Z</time>
      </trkpt>
      <trkpt lat="38.9720750" lon="1.3039670">
        <ele>1.4</ele>
        <time>2020-02-21T16:22:19Z</time>
      </trkpt>
      <trkpt lat="38.9721230" lon="1.3039770">
        <ele>1.0</ele>
        <time>2020-02-21T16:22:20Z</time>
      </trkpt>
      <trkpt lat="38.9721660" lon="1.3039830">
        <ele>0.7</ele>
        <time>2020-02-21T16:22:21Z</time>
      </trkpt>
      <trkpt lat="38.9722080" lon="1.3039960">
        <ele>0.4</ele>
        <time>2020-02-21T16:22:22Z</time>
      </trkpt>
      <trkpt lat="38.9722540" lon="1.3040160">
        <ele>0.3</ele>
        <time>2020-02-21T16:22:23Z</time>
      </trkpt>
      <trkpt lat="38.9722950" lon="1.3040380">
        <ele>0.2</ele>
        <time>2020-02-21T16:22:24Z</time>
      </trkpt>
      <trkpt lat="38.9723290" lon="1.3040610">
        <ele>0.2</ele>
        <time>2020-02-21T16:22:25Z</time>
      </trkpt>
      <trkpt lat="38.9723610" lon="1.3040830">
        <ele>0.2</ele>
        <time>2020-02-21T16:22:26Z</time>
      </trkpt>
      <trkpt lat="38.9723970" lon="1.3041070">
        <ele>0.2</ele>
        <time>2020-02-21T16:22:27Z</time>
      </trkpt>
      <trkpt lat="38.9724390" lon="1.3041290">
        <ele>0.2</ele>
        <time>2020-02-21T16:22:28Z</time>
      </trkpt>
      <trkpt lat="38.9724740" lon="1.3041660">
        <ele>0.1</ele>
        <time>2020-02-21T16:22:29Z</time>
      </trkpt>
      <trkpt lat="38.9725040" lon="1.3042230">
        <ele>0.1</ele>
        <time>2020-02-21T16:22:30Z</time>
      </trkpt>
      <trkpt lat="38.9725070" lon="1.3042780">
        <ele>0.1</ele>
        <time>2020-02-21T16:22:31Z</time>
      </trkpt>
      <trkpt lat="38.9725060" lon="1.3043320">
        <ele>0.1</ele>
        <time>2020-02-21T16:22:32Z</time>
      </trkpt>
      <trkpt lat="38.9725000" lon="1.3043890">
        <ele>0.1</ele>
        <time>2020-02-21T16:22:33Z</time>
      </trkpt>
      <trkpt lat="38.9724880" lon="1.3044440">
        <ele>0.1</ele>
        <time>2020-02-21T16:22:34Z</time>
      </trkpt>
      <trkpt lat="38.9724700" lon="1.3044950">
        <ele>0.1</ele>
        <time>2020-02-21T16:22:35Z</time>
      </trkpt>
      <trkpt lat="38.9724560" lon="1.3045390">
        <ele>0.1</ele>
        <time>2020-02-21T16:22:36Z</time>
      </trkpt>
      <trkpt lat="38.9724360" lon="1.3045980">
        <ele>0.1</ele>
        <time>2020-02-21T16:22:37Z</time>
      </trkpt>
      <trkpt lat="38.9724240" lon="1.3046480">
        <ele>0.1</ele>
        <time>2020-02-21T16:22:38Z</time>
      </trkpt>
      <trkpt lat="38.9724040" lon="1.3047090">
        <ele>0.1</ele>
        <time>2020-02-21T16:22:39Z</time>
      </trkpt>
      <trkpt lat="38.9723920" lon="1.3047660">
        <ele>0.1</ele>
        <time>2020-02-21T16:22:40Z</time>
      </trkpt>
      <trkpt lat="38.9723780" lon="1.3048270">
        <ele>0.1</ele>
        <time>2020-02-21T16:22:41Z</time>
      </trkpt>
      <trkpt lat="38.9723650" lon="1.3048920">
        <ele>0.1</ele>
        <time>2020-02-21T16:22:42Z</time>
      </trkpt>
      <trkpt lat="38.9723440" lon="1.3049630">
        <ele>0.2</ele>
        <time>2020-02-21T16:22:43Z</time>
      </trkpt>
      <trkpt lat="38.9723290" lon="1.3050200">
        <ele>0.2</ele>
        <time>2020-02-21T16:22:44Z</time>
      </trkpt>
      <trkpt lat="38.9723140" lon="1.3050660">
        <ele>0.3</ele>
        <time>2020-02-21T16:22:45Z</time>
      </trkpt>
      <trkpt lat="38.9722960" lon="1.3051220">
        <ele>0.3</ele>
        <time>2020-02-21T16:22:46Z</time>
      </trkpt>
      <trkpt lat="38.9722770" lon="1.3051760">
        <ele>0.4</ele>
        <time>2020-02-21T16:22:47Z</time>
      </trkpt>
      <trkpt lat="38.9722570" lon="1.3052390">
        <ele>0.4</ele>
        <time>2020-02-21T16:22:48Z</time>
      </trkpt>
      <trkpt lat="38.9722440" lon="1.3053010">
        <ele>0.5</ele>
        <time>2020-02-21T16:22:49Z</time>
      </trkpt>
      <trkpt lat="38.9722310" lon="1.3053680">
        <ele>0.6</ele>
        <time>2020-02-21T16:22:50Z</time>
      </trkpt>
      <trkpt lat="38.9722150" lon="1.3054300">
        <ele>0.7</ele>
        <time>2020-02-21T16:22:51Z</time>
      </trkpt>
      <trkpt lat="38.9722000" lon="1.3054940">
        <ele>0.8</ele>
        <time>2020-02-21T16:22:52Z</time>
      </trkpt>
      <trkpt lat="38.9721840" lon="1.3055640">
        <ele>0.8</ele>
        <time>2020-02-21T16:22:53Z</time>
      </trkpt>
      <trkpt lat="38.9721700" lon="1.3056260">
        <ele>0.7</ele>
        <time>2020-02-21T16:22:54Z</time>
      </trkpt>
      <trkpt lat="38.9721550" lon="1.3056920">
        <ele>0.6</ele>
        <time>2020-02-21T16:22:55Z</time>
      </trkpt>
      <trkpt lat="38.9721400" lon="1.3057510">
        <ele>0.6</ele>
        <time>2020-02-21T16:22:56Z</time>
      </trkpt>
      <trkpt lat="38.9721290" lon="1.3058130">
        <ele>0.4</ele>
        <time>2020-02-21T16:22:57Z</time>
      </trkpt>
      <trkpt lat="38.9721190" lon="1.3058800">
        <ele>0.3</ele>
        <time>2020-02-21T16:22:58Z</time>
      </trkpt>
      <trkpt lat="38.9721060" lon="1.3059520">
        <ele>0.1</ele>
        <time>2020-02-21T16:22:59Z</time>
      </trkpt>
      <trkpt lat="38.9720980" lon="1.3060080">
        <ele>-0.1</ele>
        <time>2020-02-21T16:23:00Z</time>
      </trkpt>
      <trkpt lat="38.9720990" lon="1.3060750">
        <ele>-0.3</ele>
        <time>2020-02-21T16:23:01Z</time>
      </trkpt>
      <trkpt lat="38.9721040" lon="1.3061450">
        <ele>-0.4</ele>
        <time>2020-02-21T16:23:02Z</time>
      </trkpt>
      <trkpt lat="38.9721200" lon="1.3062060">
        <ele>-0.6</ele>
        <time>2020-02-21T16:23:03Z</time>
      </trkpt>
      <trkpt lat="38.9721430" lon="1.3062680">
        <ele>-0.7</ele>
        <time>2020-02-21T16:23:04Z</time>
      </trkpt>
      <trkpt lat="38.9721770" lon="1.3063270">
        <ele>-0.8</ele>
        <time>2020-02-21T16:23:05Z</time>
      </trkpt>
      <trkpt lat="38.9722120" lon="1.3063770">
        <ele>-0.9</ele>
        <time>2020-02-21T16:23:06Z</time>
      </trkpt>
      <trkpt lat="38.9722440" lon="1.3064260">
        <ele>-1.0</ele>
        <time>2020-02-21T16:23:07Z</time>
      </trkpt>
      <trkpt lat="38.9722780" lon="1.3064730">
        <ele>-1.0</ele>
        <time>2020-02-21T16:23:08Z</time>
      </trkpt>
      <trkpt lat="38.9723100" lon="1.3065200">
        <ele>-1.0</ele>
        <time>2020-02-21T16:23:09Z</time>
      </trkpt>
      <trkpt lat="38.9723480" lon="1.3065660">
        <ele>-1.0</ele>
        <time>2020-02-21T16:23:10Z</time>
      </trkpt>
      <trkpt lat="38.9723880" lon="1.3066140">
        <ele>-1.0</ele>
        <time>2020-02-21T16:23:11Z</time>
      </trkpt>
      <trkpt lat="38.9724210" lon="1.3066610">
        <ele>-1.0</ele>
        <time>2020-02-21T16:23:12Z</time>
      </trkpt>
      <trkpt lat="38.9724500" lon="1.3067030">
        <ele>-1.0</ele>
        <time>2020-02-21T16:23:13Z</time>
      </trkpt>
      <trkpt lat="38.9724790" lon="1.3067560">
        <ele>-1.0</ele>
        <time>2020-02-21T16:23:14Z</time>
      </trkpt>
      <trkpt lat="38.9725130" lon="1.3068040">
        <ele>-0.9</ele>
        <time>2020-02-21T16:23:15Z</time>
      </trkpt>
      <trkpt lat="38.9725420" lon="1.3068510">
        <ele>-0.9</ele>
        <time>2020-02-21T16:23:16Z</time>
      </trkpt>
      <trkpt lat="38.9725790" lon="1.3068940">
        <ele>-0.8</ele>
        <time>2020-02-21T16:23:17Z</time>
      </trkpt>
      <trkpt lat="38.9726230" lon="1.3069360">
        <ele>-0.7</ele>
        <time>2020-02-21T16:23:18Z</time>
      </trkpt>
      <trkpt lat="38.9726420" lon="1.3069760">
        <ele>-0.6</ele>
        <time>2020-02-21T16:23:19Z</time>
      </trkpt>
      <trkpt lat="38.9726790" lon="1.3070130">
        <ele>-0.4</ele>
        <time>2020-02-21T16:23:20Z</time>
      </trkpt>
      <trkpt lat="38.9727100" lon="1.3070500">
        <ele>-0.3</ele>
        <time>2020-02-21T16:23:21Z</time>
      </trkpt>
      <trkpt lat="38.9727490" lon="1.3070880">
        <ele>-0.2</ele>
        <time>2020-02-21T16:23:22Z</time>
      </trkpt>
      <trkpt lat="38.9727890" lon="1.3071290">
        <ele>-0.1</ele>
        <time>2020-02-21T16:23:23Z</time>
      </trkpt>
      <trkpt lat="38.9728270" lon="1.3071680">
        <ele>0.0</ele>
        <time>2020-02-21T16:23:24Z</time>
      </trkpt>
      <trkpt lat="38.9728700" lon="1.3072060">
        <ele>0.0</ele>
        <time>2020-02-21T16:23:25Z</time>
      </trkpt>
      <trkpt lat="38.9729100" lon="1.3072420">
        <ele>0.1</ele>
        <time>2020-02-21T16:23:26Z</time>
      </trkpt>
      <trkpt lat="38.9729540" lon="1.3072740">
        <ele>0.2</ele>
        <time>2020-02-21T16:23:27Z</time>
      </trkpt>
      <trkpt lat="38.9729940" lon="1.3073190">
        <ele>0.4</ele>
        <time>2020-02-21T16:23:28Z</time>
      </trkpt>
      <trkpt lat="38.9730330" lon="1.3073610">
        <ele>0.6</ele>
        <time>2020-02-21T16:23:29Z</time>
      </trkpt>
      <trkpt lat="38.9730660" lon="1.3074110">
        <ele>0.8</ele>
        <time>2020-02-21T16:23:30Z</time>
      </trkpt>
      <trkpt lat="38.9730940" lon="1.3074660">
        <ele>1.0</ele>
        <time>2020-02-21T16:23:31Z</time>
      </trkpt>
      <trkpt lat="38.9731260" lon="1.3075110">
        <ele>1.2</ele>
        <time>2020-02-21T16:23:32Z</time>
      </trkpt>
      <trkpt lat="38.9731590" lon="1.3075500">
        <ele>1.4</ele>
        <time>2020-02-21T16:23:33Z</time>
      </trkpt>
      <trkpt lat="38.9731950" lon="1.3075830">
        <ele>1.6</ele>
        <time>2020-02-21T16:23:34Z</time>
      </trkpt>
      <trkpt lat="38.9732350" lon="1.3076230">
        <ele>1.8</ele>
        <time>2020-02-21T16:23:35Z</time>
      </trkpt>
      <trkpt lat="38.9732850" lon="1.3076450">
        <ele>1.9</ele>
        <time>2020-02-21T16:23:36Z</time>
      </trkpt>
      <trkpt lat="38.9733260" lon="1.3076850">
        <ele>2.0</ele>
        <time>2020-02-21T16:23:37Z</time>
      </trkpt>
      <trkpt lat="38.9733660" lon="1.3077210">
        <ele>2.1</ele>
        <time>2020-02-21T16:23:38Z</time>
      </trkpt>
      <trkpt lat="38.9734080" lon="1.3077520">
        <ele>2.2</ele>
        <time>2020-02-21T16:23:39Z</time>
      </trkpt>
      <trkpt lat="38.9734540" lon="1.3077620">
        <ele>2.2</ele>
        <time>2020-02-21T16:23:40Z</time>
      </trkpt>
      <trkpt lat="38.9735020" lon="1.3077880">
        <ele>2.3</ele>
        <time>2020-02-21T16:23:41Z</time>
      </trkpt>
      <trkpt lat="38.9735490" lon="1.3078080">
        <ele>2.3</ele>
        <time>2020-02-21T16:23:42Z</time>
      </trkpt>
      <trkpt lat="38.9736070" lon="1.3078320">
        <ele>2.3</ele>
        <time>2020-02-21T16:23:43Z</time>
      </trkpt>
      <trkpt lat="38.9736510" lon="1.3078540">
        <ele>2.3</ele>
        <time>2020-02-21T16:23:44Z</time>
      </trkpt>
      <trkpt lat="38.9736910" lon="1.3078700">
        <ele>2.3</ele>
        <time>2020-02-21T16:23:45Z</time>
      </trkpt>
      <trkpt lat="38.9737330" lon="1.3078820">
        <ele>2.4</ele>
        <time>2020-02-21T16:23:46Z</time>
      </trkpt>
      <trkpt lat="38.9737810" lon="1.3079110">
        <ele>2.4</ele>
        <time>2020-02-21T16:23:47Z</time>
      </trkpt>
      <trkpt lat="38.9738280" lon="1.3079310">
        <ele>2.4</ele>
        <time>2020-02-21T16:23:48Z</time>
      </trkpt>
      <trkpt lat="38.9738760" lon="1.3079400">
        <ele>2.4</ele>
        <time>2020-02-21T16:23:49Z</time>
      </trkpt>
      <trkpt lat="38.9739210" lon="1.3079460">
        <ele>2.4</ele>
        <time>2020-02-21T16:23:50Z</time>
      </trkpt>
      <trkpt lat="38.9739630" lon="1.3079600">
        <ele>2.4</ele>
        <time>2020-02-21T16:23:51Z</time>
      </trkpt>
      <trkpt lat="38.9740150" lon="1.3079680">
        <ele>2.4</ele>
        <time>2020-02-21T16:23:52Z</time>
      </trkpt>
      <trkpt lat="38.9740650" lon="1.3079750">
        <ele>2.5</ele>
        <time>2020-02-21T16:23:53Z</time>
      </trkpt>
      <trkpt lat="38.9741140" lon="1.3079770">
        <ele>2.4</ele>
        <time>2020-02-21T16:23:54Z</time>
      </trkpt>
      <trkpt lat="38.9741680" lon="1.3079710">
        <ele>2.4</ele>
        <time>2020-02-21T16:23:55Z</time>
      </trkpt>
      <trkpt lat="38.9742240" lon="1.3079630">
        <ele>2.3</ele>
        <time>2020-02-21T16:23:56Z</time>
      </trkpt>
      <trkpt lat="38.9742790" lon="1.3079550">
        <ele>2.2</ele>
        <time>2020-02-21T16:23:57Z</time>
      </trkpt>
      <trkpt lat="38.9743330" lon="1.3079530">
        <ele>2.0</ele>
        <time>2020-02-21T16:23:58Z</time>
      </trkpt>
      <trkpt lat="38.9743860" lon="1.3079550">
        <ele>1.9</ele>
        <time>2020-02-21T16:23:59Z</time>
      </trkpt>
      <trkpt lat="38.9744270" lon="1.3079540">
        <ele>1.8</ele>
        <time>2020-02-21T16:24:00Z</time>
      </trkpt>
      <trkpt lat="38.9744720" lon="1.3079530">
        <ele>1.7</ele>
        <time>2020-02-21T16:24:01Z</time>
      </trkpt>
      <trkpt lat="38.9745250" lon="1.3079540">
        <ele>1.6</ele>
        <time>2020-02-21T16:24:02Z</time>
      </trkpt>
      <trkpt lat="38.9745740" lon="1.3079580">
        <ele>1.6</ele>
        <time>2020-02-21T16:24:03Z</time>
      </trkpt>
      <trkpt lat="38.9746120" lon="1.3079710">
        <ele>1.6</ele>
        <time>2020-02-21T16:24:04Z</time>
      </trkpt>
      <trkpt lat="38.9746590" lon="1.3079700">
        <ele>1.6</ele>
        <time>2020-02-21T16:24:05Z</time>
      </trkpt>
      <trkpt lat="38.9747060" lon="1.3079650">
        <ele>1.6</ele>
        <time>2020-02-21T16:24:06Z</time>
      </trkpt>
      <trkpt lat="38.9747520" lon="1.3079600">
        <ele>1.6</ele>
        <time>2020-02-21T16:24:07Z</time>
      </trkpt>
      <trkpt lat="38.9747970" lon="1.3079650">
        <ele>1.6</ele>
        <time>2020-02-21T16:24:08Z</time>
      </trkpt>
      <trkpt lat="38.9748430" lon="1.3079700">
        <ele>1.6</ele>
        <time>2020-02-21T16:24:09Z</time>
      </trkpt>
      <trkpt lat="38.9748890" lon="1.3079720">
        <ele>1.6</ele>
        <time>2020-02-21T16:24:10Z</time>
      </trkpt>
      <trkpt lat="38.9749290" lon="1.3079680">
        <ele>1.5</ele>
        <time>2020-02-21T16:24:11Z</time>
      </trkpt>
      <trkpt lat="38.9749740" lon="1.3079620">
        <ele>1.5</ele>
        <time>2020-02-21T16:24:12Z</time>
      </trkpt>
      <trkpt lat="38.9750180" lon="1.3079590">
        <ele>1.4</ele>
        <time>2020-02-21T16:24:13Z</time>
      </trkpt>
      <trkpt lat="38.9750740" lon="1.3079630">
        <ele>1.3</ele>
        <time>2020-02-21T16:24:14Z</time>
      </trkpt>
      <trkpt lat="38.9751300" lon="1.3079630">
        <ele>1.2</ele>
        <time>2020-02-21T16:24:15Z</time>
      </trkpt>
      <trkpt lat="38.9751850" lon="1.3079560">
        <ele>1.0</ele>
        <time>2020-02-21T16:24:16Z</time>
      </trkpt>
      <trkpt lat="38.9752350" lon="1.3079380">
        <ele>0.9</ele>
        <time>2020-02-21T16:24:17Z</time>
      </trkpt>
      <trkpt lat="38.9752810" lon="1.3079370">
        <ele>0.8</ele>
        <time>2020-02-21T16:24:18Z</time>
      </trkpt>
      <trkpt lat="38.9753210" lon="1.3079450">
        <ele>0.8</ele>
        <time>2020-02-21T16:24:19Z</time>
      </trkpt>
      <trkpt lat="38.9753600" lon="1.3079480">
        <ele>0.7</ele>
        <time>2020-02-21T16:24:20Z</time>
      </trkpt>
      <trkpt lat="38.9754040" lon="1.3079450">
        <ele>0.7</ele>
        <time>2020-02-21T16:24:21Z</time>
      </trkpt>
      <trkpt lat="38.9754430" lon="1.3079350">
        <ele>0.7</ele>
        <time>2020-02-21T16:24:22Z</time>
      </trkpt>
      <trkpt lat="38.9754810" lon="1.3079300">
        <ele>0.7</ele>
        <time>2020-02-21T16:24:23Z</time>
      </trkpt>
      <trkpt lat="38.9755200" lon="1.3079290">
        <ele>0.7</ele>
        <time>2020-02-21T16:24:24Z</time>
      </trkpt>
      <trkpt lat="38.9755610" lon="1.3079210">
        <ele>0.7</ele>
        <time>2020-02-21T16:24:25Z</time>
      </trkpt>
      <trkpt lat="38.9755950" lon="1.3079180">
        <ele>0.7</ele>
        <time>2020-02-21T16:24:26Z</time>
      </trkpt>
      <trkpt lat="38.9756240" lon="1.3079290">
        <ele>0.7</ele>
        <time>2020-02-21T16:24:27Z</time>
      </trkpt>
      <trkpt lat="38.9756550" lon="1.3079460">
        <ele>0.7</ele>
        <time>2020-02-21T16:24:28Z</time>
      </trkpt>
      <trkpt lat="38.9756960" lon="1.3079520">
        <ele>0.7</ele>
        <time>2020-02-21T16:24:29Z</time>
      </trkpt>
      <trkpt lat="38.9757410" lon="1.3079600">
        <ele>0.7</ele>
        <time>2020-02-21T16:24:30Z</time>
      </trkpt>
      <trkpt lat="38.9757820" lon="1.3079730">
        <ele>0.7</ele>
        <time>2020-02-21T16:24:31Z</time>
      </trkpt>
      <trkpt lat="38.9758180" lon="1.3079770">
        <ele>0.7</ele>
        <time>2020-02-21T16:24:32Z</time>
      </trkpt>
      <trkpt lat="38.9758580" lon="1.3079770">
        <ele>0.7</ele>
        <time>2020-02-21T16:24:33Z</time>
      </trkpt>
      <trkpt lat="38.9758930" lon="1.3079770">
        <ele>0.7</ele>
        <time>2020-02-21T16:24:34Z</time>
      </trkpt>
      <trkpt lat="38.9759360" lon="1.3079900">
        <ele>0.7</ele>
        <time>2020-02-21T16:24:35Z</time>
      </trkpt>
      <trkpt lat="38.9759640" lon="1.3080000">
        <ele>0.7</ele>
        <time>2020-02-21T16:24:36Z</time>
      </trkpt>
      <trkpt lat="38.9760110" lon="1.3080240">
        <ele>0.8</ele>
        <time>2020-02-21T16:24:37Z</time>
      </trkpt>
      <trkpt lat="38.9760440" lon="1.3080420">
        <ele>0.8</ele>
        <time>2020-02-21T16:24:38Z</time>
      </trkpt>
      <trkpt lat="38.9760800" lon="1.3080600">
        <ele>0.9</ele>
        <time>2020-02-21T16:24:39Z</time>
      </trkpt>
      <trkpt lat="38.9761120" lon="1.3080710">
        <ele>0.9</ele>
        <time>2020-02-21T16:24:40Z</time>
      </trkpt>
      <trkpt lat="38.9761450" lon="1.3080780">
        <ele>0.8</ele>
        <time>2020-02-21T16:24:41Z</time>
      </trkpt>
      <trkpt lat="38.9761810" lon="1.3080690">
        <ele>0.8</ele>
        <time>2020-02-21T16:24:42Z</time>
      </trkpt>
      <trkpt lat="38.9762180" lon="1.3080320">
        <ele>0.8</ele>
        <time>2020-02-21T16:24:43Z</time>
      </trkpt>
      <trkpt lat="38.9762580" lon="1.3080000">
        <ele>0.8</ele>
        <time>2020-02-21T16:24:44Z</time>
      </trkpt>
      <trkpt lat="38.9763010" lon="1.3079820">
        <ele>0.7</ele>
        <time>2020-02-21T16:24:45Z</time>
      </trkpt>
      <trkpt lat="38.9763460" lon="1.3079670">
        <ele>0.7</ele>
        <time>2020-02-21T16:24:46Z</time>
      </trkpt>
      <trkpt lat="38.9763850" lon="1.3079530">
        <ele>0.6</ele>
        <time>2020-02-21T16:24:47Z</time>
      </trkpt>
      <trkpt lat="38.9764230" lon="1.3079400">
        <ele>0.6</ele>
        <time>2020-02-21T16:24:48Z</time>
      </trkpt>
      <trkpt lat="38.9764610" lon="1.3079300">
        <ele>0.6</ele>
        <time>2020-02-21T16:24:49Z</time>
      </trkpt>
      <trkpt lat="38.9765000" lon="1.3079120">
        <ele>0.5</ele>
        <time>2020-02-21T16:24:50Z</time>
      </trkpt>
      <trkpt lat="38.9765340" lon="1.3079020">
        <ele>0.5</ele>
        <time>2020-02-21T16:24:51Z</time>
      </trkpt>
      <trkpt lat="38.9765670" lon="1.3078970">
        <ele>0.4</ele>
        <time>2020-02-21T16:24:52Z</time>
      </trkpt>
      <trkpt lat="38.9766030" lon="1.3078900">
        <ele>0.4</ele>
        <time>2020-02-21T16:24:53Z</time>
      </trkpt>
      <trkpt lat="38.9766320" lon="1.3078820">
        <ele>0.3</ele>
        <time>2020-02-21T16:24:54Z</time>
      </trkpt>
      <trkpt lat="38.9766670" lon="1.3078720">
        <ele>0.3</ele>
        <time>2020-02-21T16:24:55Z</time>
      </trkpt>
      <trkpt lat="38.9767090" lon="1.3078670">
        <ele>0.3</ele>
        <time>2020-02-21T16:24:56Z</time>
      </trkpt>
      <trkpt lat="38.9767480" lon="1.3078510">
        <ele>0.2</ele>
        <time>2020-02-21T16:24:57Z</time>
      </trkpt>
      <trkpt lat="38.9767940" lon="1.3078510">
        <ele>0.2</ele>
        <time>2020-02-21T16:24:58Z</time>
      </trkpt>
      <trkpt lat="38.9768330" lon="1.3078470">
        <ele>0.1</ele>
        <time>2020-02-21T16:24:59Z</time>
      </trkpt>
      <trkpt lat="38.9768840" lon="1.3078460">
        <ele>0.1</ele>
        <time>2020-02-21T16:25:00Z</time>
      </trkpt>
      <trkpt lat="38.9769290" lon="1.3078420">
        <ele>0.1</ele>
        <time>2020-02-21T16:25:01Z</time>
      </trkpt>
      <trkpt lat="38.9769680" lon="1.3078340">
        <ele>0.1</ele>
        <time>2020-02-21T16:25:02Z</time>
      </trkpt>
      <trkpt lat="38.9770100" lon="1.3078300">
        <ele>0.0</ele>
        <time>2020-02-21T16:25:03Z</time>
      </trkpt>
      <trkpt lat="38.9770540" lon="1.3078260">
        <ele>0.0</ele>
        <time>2020-02-21T16:25:04Z</time>
      </trkpt>
      <trkpt lat="38.9770960" lon="1.3078080">
        <ele>0.0</ele>
        <time>2020-02-21T16:25:05Z</time>
      </trkpt>
      <trkpt lat="38.9771400" lon="1.3077960">
        <ele>0.0</ele>
        <time>2020-02-21T16:25:06Z</time>
      </trkpt>
      <trkpt lat="38.9771830" lon="1.3077770">
        <ele>0.0</ele>
        <time>2020-02-21T16:25:07Z</time>
      </trkpt>
      <trkpt lat="38.9772220" lon="1.3077720">
        <ele>0.0</ele>
        <time>2020-02-21T16:25:08Z</time>
      </trkpt>
      <trkpt lat="38.9772600" lon="1.3077610">
        <ele>0.0</ele>
        <time>2020-02-21T16:25:09Z</time>
      </trkpt>
      <trkpt lat="38.9773020" lon="1.3077470">
        <ele>0.0</ele>
        <time>2020-02-21T16:25:10Z</time>
      </trkpt>
      <trkpt lat="38.9773500" lon="1.3077400">
        <ele>0.0</ele>
        <time>2020-02-21T16:25:11Z</time>
      </trkpt>
      <trkpt lat="38.9773940" lon="1.3077380">
        <ele>0.0</ele>
        <time>2020-02-21T16:25:12Z</time>
      </trkpt>
      <trkpt lat="38.9774340" lon="1.3077250">
        <ele>0.0</ele>
        <time>2020-02-21T16:25:13Z</time>
      </trkpt>
      <trkpt lat="38.9774680" lon="1.3077170">
        <ele>0.1</ele>
        <time>2020-02-21T16:25:14Z</time>
      </trkpt>
      <trkpt lat="38.9775000" lon="1.3077110">
        <ele>0.2</ele>
        <time>2020-02-21T16:25:15Z</time>
      </trkpt>
      <trkpt lat="38.9775410" lon="1.3076920">
        <ele>0.3</ele>
        <time>2020-02-21T16:25:16Z</time>
      </trkpt>
      <trkpt lat="38.9775750" lon="1.3076740">
        <ele>0.4</ele>
        <time>2020-02-21T16:25:17Z</time>
      </trkpt>
      <trkpt lat="38.9776140" lon="1.3076440">
        <ele>0.5</ele>
        <time>2020-02-21T16:25:18Z</time>
      </trkpt>
      <trkpt lat="38.9776510" lon="1.3076210">
        <ele>0.6</ele>
        <time>2020-02-21T16:25:19Z</time>
      </trkpt>
      <trkpt lat="38.9776880" lon="1.3075960">
        <ele>0.7</ele>
        <time>2020-02-21T16:25:20Z</time>
      </trkpt>
      <trkpt lat="38.9777240" lon="1.3075730">
        <ele>0.8</ele>
        <time>2020-02-21T16:25:21Z</time>
      </trkpt>
      <trkpt lat="38.9777650" lon="1.3075490">
        <ele>0.9</ele>
        <time>2020-02-21T16:25:22Z</time>
      </trkpt>
      <trkpt lat="38.9778070" lon="1.3075240">
        <ele>1.0</ele>
        <time>2020-02-21T16:25:23Z</time>
      </trkpt>
      <trkpt lat="38.9778380" lon="1.3075070">
        <ele>1.1</ele>
        <time>2020-02-21T16:25:24Z</time>
      </trkpt>
      <trkpt lat="38.9778770" lon="1.3074800">
        <ele>1.1</ele>
        <time>2020-02-21T16:25:25Z</time>
      </trkpt>
      <trkpt lat="38.9779140" lon="1.3074500">
        <ele>1.2</ele>
        <time>2020-02-21T16:25:26Z</time>
      </trkpt>
      <trkpt lat="38.9779520" lon="1.3074240">
        <ele>1.2</ele>
        <time>2020-02-21T16:25:27Z</time>
      </trkpt>
      <trkpt lat="38.9779900" lon="1.3073990">
        <ele>1.2</ele>
        <time>2020-02-21T16:25:28Z</time>
      </trkpt>
      <trkpt lat="38.9780330" lon="1.3073720">
        <ele>1.2</ele>
        <time>2020-02-21T16:25:29Z</time>
      </trkpt>
      <trkpt lat="38.9780730" lon="1.3073410">
        <ele>1.2</ele>
        <time>2020-02-21T16:25:30Z</time>
      </trkpt>
      <trkpt lat="38.9781140" lon="1.3073120">
        <ele>1.2</ele>
        <time>2020-02-21T16:25:31Z</time>
      </trkpt>
      <trkpt lat="38.9781540" lon="1.3072880">
        <ele>1.2</ele>
        <time>2020-02-21T16:25:32Z</time>
      </trkpt>
      <trkpt lat="38.9781900" lon="1.3072640">
        <ele>1.2</ele>
        <time>2020-02-21T16:25:33Z</time>
      </trkpt>
      <trkpt lat="38.9782270" lon="1.3072400">
        <ele>1.2</ele>
        <time>2020-02-21T16:25:34Z</time>
      </trkpt>
      <trkpt lat="38.9782630" lon="1.3072150">
        <ele>1.3</ele>
        <time>2020-02-21T16:25:35Z</time>
      </trkpt>
      <trkpt lat="38.9782970" lon="1.3071810">
        <ele>1.3</ele>
        <time>2020-02-21T16:25:36Z</time>
      </trkpt>
      <trkpt lat="38.9783350" lon="1.3071570">
        <ele>1.3</ele>
        <time>2020-02-21T16:25:37Z</time>
      </trkpt>
      <trkpt lat="38.9783770" lon="1.3071360">
        <ele>1.4</ele>
        <time>2020-02-21T16:25:38Z</time>
      </trkpt>
      <trkpt lat="38.9784170" lon="1.3071070">
        <ele>1.6</ele>
        <time>2020-02-21T16:25:39Z</time>
      </trkpt>
      <trkpt lat="38.9784480" lon="1.3070860">
        <ele>1.7</ele>
        <time>2020-02-21T16:25:40Z</time>
      </trkpt>
      <trkpt lat="38.9784910" lon="1.3070480">
        <ele>1.8</ele>
        <time>2020-02-21T16:25:41Z</time>
      </trkpt>
      <trkpt lat="38.9785290" lon="1.3070240">
        <ele>2.0</ele>
        <time>2020-02-21T16:25:42Z</time>
      </trkpt>
      <trkpt lat="38.9785630" lon="1.3069930">
        <ele>2.1</ele>
        <time>2020-02-21T16:25:43Z</time>
      </trkpt>
      <trkpt lat="38.9786030" lon="1.3069640">
        <ele>2.3</ele>
        <time>2020-02-21T16:25:44Z</time>
      </trkpt>
      <trkpt lat="38.9786410" lon="1.3069260">
        <ele>2.5</ele>
        <time>2020-02-21T16:25:45Z</time>
      </trkpt>
      <trkpt lat="38.9786770" lon="1.3068980">
        <ele>2.6</ele>
        <time>2020-02-21T16:25:46Z</time>
      </trkpt>
      <trkpt lat="38.9787240" lon="1.3068860">
        <ele>2.7</ele>
        <time>2020-02-21T16:25:47Z</time>
      </trkpt>
      <trkpt lat="38.9787680" lon="1.3068580">
        <ele>2.8</ele>
        <time>2020-02-21T16:25:48Z</time>
      </trkpt>
      <trkpt lat="38.9788090" lon="1.3068300">
        <ele>2.8</ele>
        <time>2020-02-21T16:25:49Z</time>
      </trkpt>
      <trkpt lat="38.9788340" lon="1.3068070">
        <ele>2.8</ele>
        <time>2020-02-21T16:25:50Z</time>
      </trkpt>
      <trkpt lat="38.9788880" lon="1.3067800">
        <ele>2.7</ele>
        <time>2020-02-21T16:25:51Z</time>
      </trkpt>
      <trkpt lat="38.9789190" lon="1.3067490">
        <ele>2.6</ele>
        <time>2020-02-21T16:25:52Z</time>
      </trkpt>
      <trkpt lat="38.9789530" lon="1.3067070">
        <ele>2.5</ele>
        <time>2020-02-21T16:25:53Z</time>
      </trkpt>
      <trkpt lat="38.9789780" lon="1.3066610">
        <ele>2.5</ele>
        <time>2020-02-21T16:25:54Z</time>
      </trkpt>
      <trkpt lat="38.9789960" lon="1.3066160">
        <ele>2.4</ele>
        <time>2020-02-21T16:25:55Z</time>
      </trkpt>
      <trkpt lat="38.9790200" lon="1.3065610">
        <ele>2.3</ele>
        <time>2020-02-21T16:25:56Z</time>
      </trkpt>
      <trkpt lat="38.9790430" lon="1.3065090">
        <ele>2.2</ele>
        <time>2020-02-21T16:25:57Z</time>
      </trkpt>
      <trkpt lat="38.9790700" lon="1.3064540">
        <ele>2.2</ele>
        <time>2020-02-21T16:25:58Z</time>
      </trkpt>
      <trkpt lat="38.9790940" lon="1.3064100">
        <ele>2.1</ele>
        <time>2020-02-21T16:25:59Z</time>
      </trkpt>
      <trkpt lat="38.9791100" lon="1.3063620">
        <ele>2.1</ele>
        <time>2020-02-21T16:26:00Z</time>
      </trkpt>
      <trkpt lat="38.9791330" lon="1.3063030">
        <ele>2.1</ele>
        <time>2020-02-21T16:26:01Z</time>
      </trkpt>
      <trkpt lat="38.9791600" lon="1.3062510">
        <ele>2.1</ele>
        <time>2020-02-21T16:26:02Z</time>
      </trkpt>
      <trkpt lat="38.9791790" lon="1.3061970">
        <ele>2.1</ele>
        <time>2020-02-21T16:26:03Z</time>
      </trkpt>
      <trkpt lat="38.9792000" lon="1.3061440">
        <ele>2.1</ele>
        <time>2020-02-21T16:26:04Z</time>
      </trkpt>
      <trkpt lat="38.9792180" lon="1.3060950">
        <ele>2.1</ele>
        <time>2020-02-21T16:26:05Z</time>
      </trkpt>
      <trkpt lat="38.9792520" lon="1.3060450">
        <ele>2.1</ele>
        <time>2020-02-21T16:26:06Z</time>
      </trkpt>
      <trkpt lat="38.9792750" lon="1.3060000">
        <ele>2.1</ele>
        <time>2020-02-21T16:26:07Z</time>
      </trkpt>
      <trkpt lat="38.9792960" lon="1.3059570">
        <ele>2.0</ele>
        <time>2020-02-21T16:26:08Z</time>
      </trkpt>
      <trkpt lat="38.9793210" lon="1.3059110">
        <ele>2.0</ele>
        <time>2020-02-21T16:26:09Z</time>
      </trkpt>
      <trkpt lat="38.9793450" lon="1.3058740">
        <ele>1.9</ele>
        <time>2020-02-21T16:26:10Z</time>
      </trkpt>
      <trkpt lat="38.9793620" lon="1.3058330">
        <ele>1.9</ele>
        <time>2020-02-21T16:26:11Z</time>
      </trkpt>
      <trkpt lat="38.9793870" lon="1.3057950">
        <ele>1.9</ele>
        <time>2020-02-21T16:26:12Z</time>
      </trkpt>
      <trkpt lat="38.9794020" lon="1.3057470">
        <ele>1.8</ele>
        <time>2020-02-21T16:26:13Z</time>
      </trkpt>
      <trkpt lat="38.9794190" lon="1.3056910">
        <ele>1.7</ele>
        <time>2020-02-21T16:26:14Z</time>
      </trkpt>
      <trkpt lat="38.9794360" lon="1.3056530">
        <ele>1.6</ele>
        <time>2020-02-21T16:26:15Z</time>
      </trkpt>
      <trkpt lat="38.9794550" lon="1.3056200">
        <ele>1.6</ele>
        <time>2020-02-21T16:26:16Z</time>
      </trkpt>
      <trkpt lat="38.9794760" lon="1.3055870">
        <ele>1.5</ele>
        <time>2020-02-21T16:26:17Z</time>
      </trkpt>
      <trkpt lat="38.9794950" lon="1.3055510">
        <ele>1.5</ele>
        <time>2020-02-21T16:26:18Z</time>
      </trkpt>
      <trkpt lat="38.9795050" lon="1.3055050">
        <ele>1.5</ele>
        <time>2020-02-21T16:26:19Z</time>
      </trkpt>
      <trkpt lat="38.9795260" lon="1.3054660">
        <ele>1.5</ele>
        <time>2020-02-21T16:26:20Z</time>
      </trkpt>
      <trkpt lat="38.9795390" lon="1.3054310">
        <ele>1.5</ele>
        <time>2020-02-21T16:26:21Z</time>
      </trkpt>
      <trkpt lat="38.9795510" lon="1.3053940">
        <ele>1.6</ele>
        <time>2020-02-21T16:26:22Z</time>
      </trkpt>
      <trkpt lat="38.9795490" lon="1.3053370">
        <ele>1.6</ele>
        <time>2020-02-21T16:26:23Z</time>
      </trkpt>
      <trkpt lat="38.9795400" lon="1.3052790">
        <ele>1.7</ele>
        <time>2020-02-21T16:26:24Z</time>
      </trkpt>
      <trkpt lat="38.9795310" lon="1.3052280">
        <ele>1.8</ele>
        <time>2020-02-21T16:26:25Z</time>
      </trkpt>
      <trkpt lat="38.9795240" lon="1.3051790">
        <ele>1.9</ele>
        <time>2020-02-21T16:26:26Z</time>
      </trkpt>
      <trkpt lat="38.9795220" lon="1.3051330">
        <ele>1.9</ele>
        <time>2020-02-21T16:26:27Z</time>
      </trkpt>
      <trkpt lat="38.9795120" lon="1.3050830">
        <ele>2.0</ele>
        <time>2020-02-21T16:26:28Z</time>
      </trkpt>
      <trkpt lat="38.9795030" lon="1.3050270">
        <ele>2.1</ele>
        <time>2020-02-21T16:26:29Z</time>
      </trkpt>
      <trkpt lat="38.9794890" lon="1.3049780">
        <ele>2.1</ele>
        <time>2020-02-21T16:26:30Z</time>
      </trkpt>
      <trkpt lat="38.9794890" lon="1.3049220">
        <ele>2.1</ele>
        <time>2020-02-21T16:26:31Z</time>
      </trkpt>
      <trkpt lat="38.9794760" lon="1.3048800">
        <ele>2.2</ele>
        <time>2020-02-21T16:26:32Z</time>
      </trkpt>
      <trkpt lat="38.9794620" lon="1.3048460">
        <ele>2.2</ele>
        <time>2020-02-21T16:26:33Z</time>
      </trkpt>
      <trkpt lat="38.9794490" lon="1.3048040">
        <ele>2.4</ele>
        <time>2020-02-21T16:26:34Z</time>
      </trkpt>
      <trkpt lat="38.9794370" lon="1.3047640">
        <ele>2.5</ele>
        <time>2020-02-21T16:26:35Z</time>
      </trkpt>
      <trkpt lat="38.9794260" lon="1.3047150">
        <ele>2.5</ele>
        <time>2020-02-21T16:26:36Z</time>
      </trkpt>
      <trkpt lat="38.9794040" lon="1.3046650">
        <ele>2.6</ele>
        <time>2020-02-21T16:26:37Z</time>
      </trkpt>
      <trkpt lat="38.9793840" lon="1.3046220">
        <ele>2.7</ele>
        <time>2020-02-21T16:26:38Z</time>
      </trkpt>
      <trkpt lat="38.9793720" lon="1.3045710">
        <ele>2.7</ele>
        <time>2020-02-21T16:26:39Z</time>
      </trkpt>
      <trkpt lat="38.9793540" lon="1.3045180">
        <ele>2.8</ele>
        <time>2020-02-21T16:26:40Z</time>
      </trkpt>
      <trkpt lat="38.9793350" lon="1.3044580">
        <ele>2.8</ele>
        <time>2020-02-21T16:26:41Z</time>
      </trkpt>
      <trkpt lat="38.9793160" lon="1.3044120">
        <ele>2.8</ele>
        <time>2020-02-21T16:26:42Z</time>
      </trkpt>
      <trkpt lat="38.9793050" lon="1.3043680">
        <ele>2.9</ele>
        <time>2020-02-21T16:26:43Z</time>
      </trkpt>
      <trkpt lat="38.9792880" lon="1.3043340">
        <ele>2.9</ele>
        <time>2020-02-21T16:26:44Z</time>
      </trkpt>
      <trkpt lat="38.9792770" lon="1.3042870">
        <ele>2.9</ele>
        <time>2020-02-21T16:26:45Z</time>
      </trkpt>
      <trkpt lat="38.9792660" lon="1.3042430">
        <ele>2.9</ele>
        <time>2020-02-21T16:26:46Z</time>
      </trkpt>
      <trkpt lat="38.9792530" lon="1.3041890">
        <ele>2.9</ele>
        <time>2020-02-21T16:26:47Z</time>
      </trkpt>
      <trkpt lat="38.9792400" lon="1.3041360">
        <ele>2.9</ele>
        <time>2020-02-21T16:26:48Z</time>
      </trkpt>
      <trkpt lat="38.9792320" lon="1.3041140">
        <ele>2.9</ele>
        <time>2020-02-21T16:26:49Z</time>
      </trkpt>
      <trkpt lat="38.9792150" lon="1.3040640">
        <ele>2.9</ele>
        <time>2020-02-21T16:26:50Z</time>
      </trkpt>
      <trkpt lat="38.9792080" lon="1.3040190">
        <ele>2.9</ele>
        <time>2020-02-21T16:26:51Z</time>
      </trkpt>
      <trkpt lat="38.9791860" lon="1.3039660">
        <ele>2.8</ele>
        <time>2020-02-21T16:26:52Z</time>
      </trkpt>
      <trkpt lat="38.9791750" lon="1.3039220">
        <ele>2.8</ele>
        <time>2020-02-21T16:26:53Z</time>
      </trkpt>
      <trkpt lat="38.9791570" lon="1.3038730">
        <ele>2.8</ele>
        <time>2020-02-21T16:26:54Z</time>
      </trkpt>
      <trkpt lat="38.9791430" lon="1.3038280">
        <ele>2.8</ele>
        <time>2020-02-21T16:26:55Z</time>
      </trkpt>
      <trkpt lat="38.9791340" lon="1.3037750">
        <ele>2.8</ele>
        <time>2020-02-21T16:26:56Z</time>
      </trkpt>
      <trkpt lat="38.9791180" lon="1.3037290">
        <ele>2.8</ele>
        <time>2020-02-21T16:26:57Z</time>
      </trkpt>
      <trkpt lat="38.9791190" lon="1.3036590">
        <ele>2.9</ele>
        <time>2020-02-21T16:26:58Z</time>
      </trkpt>
      <trkpt lat="38.9791150" lon="1.3036020">
        <ele>2.9</ele>
        <time>2020-02-21T16:26:59Z</time>
      </trkpt>
      <trkpt lat="38.9791020" lon="1.3035520">
        <ele>3.0</ele>
        <time>2020-02-21T16:27:00Z</time>
      </trkpt>
      <trkpt lat="38.9790850" lon="1.3035030">
        <ele>3.1</ele>
        <time>2020-02-21T16:27:01Z</time>
      </trkpt>
      <trkpt lat="38.9790660" lon="1.3034460">
        <ele>3.3</ele>
        <time>2020-02-21T16:27:02Z</time>
      </trkpt>
      <trkpt lat="38.9790630" lon="1.3034010">
        <ele>3.4</ele>
        <time>2020-02-21T16:27:03Z</time>
      </trkpt>
      <trkpt lat="38.9790490" lon="1.3033550">
        <ele>3.6</ele>
        <time>2020-02-21T16:27:04Z</time>
      </trkpt>
      <trkpt lat="38.9790420" lon="1.3032990">
        <ele>3.9</ele>
        <time>2020-02-21T16:27:05Z</time>
      </trkpt>
      <trkpt lat="38.9790290" lon="1.3032450">
        <ele>4.2</ele>
        <time>2020-02-21T16:27:06Z</time>
      </trkpt>
      <trkpt lat="38.9790190" lon="1.3032020">
        <ele>4.4</ele>
        <time>2020-02-21T16:27:07Z</time>
      </trkpt>
      <trkpt lat="38.9789990" lon="1.3031530">
        <ele>4.7</ele>
        <time>2020-02-21T16:27:08Z</time>
      </trkpt>
      <trkpt lat="38.9789890" lon="1.3030930">
        <ele>4.9</ele>
        <time>2020-02-21T16:27:09Z</time>
      </trkpt>
      <trkpt lat="38.9789760" lon="1.3030460">
        <ele>5.0</ele>
        <time>2020-02-21T16:27:10Z</time>
      </trkpt>
      <trkpt lat="38.9789690" lon="1.3030020">
        <ele>5.1</ele>
        <time>2020-02-21T16:27:11Z</time>
      </trkpt>
      <trkpt lat="38.9789600" lon="1.3029610">
        <ele>5.2</ele>
        <time>2020-02-21T16:27:12Z</time>
      </trkpt>
      <trkpt lat="38.9789510" lon="1.3029280">
        <ele>5.2</ele>
        <time>2020-02-21T16:27:13Z</time>
      </trkpt>
      <trkpt lat="38.9789450" lon="1.3029260">
        <ele>5.3</ele>
        <time>2020-02-21T16:27:14Z</time>
      </trkpt>
      <trkpt lat="38.9789310" lon="1.3029130">
        <ele>5.3</ele>
        <time>2020-02-21T16:27:15Z</time>
      </trkpt>
      <trkpt lat="38.9789240" lon="1.3028980">
        <ele>5.4</ele>
        <time>2020-02-21T16:27:16Z</time>
      </trkpt>
      <trkpt lat="38.9789170" lon="1.3028650">
        <ele>6.0</ele>
        <time>2020-02-21T16:27:17Z</time>
      </trkpt>
      <trkpt lat="38.9789060" lon="1.3028540">
        <ele>6.0</ele>
        <time>2020-02-21T16:27:18Z</time>
      </trkpt>
      <trkpt lat="38.9789050" lon="1.3028410">
        <ele>6.0</ele>
        <time>2020-02-21T16:27:19Z</time>
      </trkpt>
      <trkpt lat="38.9789090" lon="1.3028400">
        <ele>6.0</ele>
        <time>2020-02-21T16:27:20Z</time>
      </trkpt>
      <trkpt lat="38.9789060" lon="1.3028400">
        <ele>6.0</ele>
        <time>2020-02-21T16:27:21Z</time>
      </trkpt>
      <trkpt lat="38.9789060" lon="1.3028400">
        <ele>6.0</ele>
        <time>2020-02-21T16:27:22Z</time>
      </trkpt>
      <trkpt lat="38.9789060" lon="1.3028400">
        <ele>6.0</ele>
        <time>2020-02-21T16:27:23Z</time>
      </trkpt>
      <trkpt lat="38.9789060" lon="1.3028410">
        <ele>6.0</ele>
        <time>2020-02-21T16:27:24Z</time>
      </trkpt>
      <trkpt lat="38.9789050" lon="1.3028410">
        <ele>6.0</ele>
        <time>2020-02-21T16:27:25Z</time>
      </trkpt>
      <trkpt lat="38.9789040" lon="1.3028420">
        <ele>6.0</ele>
        <time>2020-02-21T16:27:26Z</time>
      </trkpt>
      <trkpt lat="38.9789040" lon="1.3028440">
        <ele>6.0</ele>
        <time>2020-02-21T16:27:27Z</time>
      </trkpt>
      <trkpt lat="38.9789050" lon="1.3028420">
        <ele>6.0</ele>
        <time>2020-02-21T16:27:28Z</time>
      </trkpt>
      <trkpt lat="38.9789070" lon="1.3028430">
        <ele>6.0</ele>
        <time>2020-02-21T16:27:29Z</time>
      </trkpt>
      <trkpt lat="38.9789080" lon="1.3028430">
        <ele>6.0</ele>
        <time>2020-02-21T16:27:30Z</time>
      </trkpt>
      <trkpt lat="38.9789600" lon="1.3028640">
        <ele>6.0</ele>
        <time>2020-02-21T16:27:58Z</time>
      </trkpt>
      <trkpt lat="38.9789770" lon="1.3028580">
        <ele>6.0</ele>
        <time>2020-02-21T16:27:59Z</time>
      </trkpt>
      <trkpt lat="38.9789790" lon="1.3028610">
        <ele>6.0</ele>
        <time>2020-02-21T16:28:00Z</time>
      </trkpt>
      <trkpt lat="38.9789810" lon="1.3028600">
        <ele>6.0</ele>
        <time>2020-02-21T16:28:01Z</time>
      </trkpt>
      <trkpt lat="38.9789850" lon="1.3028660">
        <ele>6.0</ele>
        <time>2020-02-21T16:28:02Z</time>
      </trkpt>
      <trkpt lat="38.9789850" lon="1.3028660">
        <ele>6.0</ele>
        <time>2020-02-21T16:28:03Z</time>
      </trkpt>
      <trkpt lat="38.9789850" lon="1.3028680">
        <ele>6.0</ele>
        <time>2020-02-21T16:28:04Z</time>
      </trkpt>
      <trkpt lat="38.9789860" lon="1.3028720">
        <ele>6.0</ele>
        <time>2020-02-21T16:28:05Z</time>
      </trkpt>
      <trkpt lat="38.9789860" lon="1.3028720">
        <ele>6.0</ele>
        <time>2020-02-21T16:28:06Z</time>
      </trkpt>
      <trkpt lat="38.9789870" lon="1.3028720">
        <ele>6.0</ele>
        <time>2020-02-21T16:28:07Z</time>
      </trkpt>
      <trkpt lat="38.9789900" lon="1.3028770">
        <ele>6.0</ele>
        <time>2020-02-21T16:28:08Z</time>
      </trkpt>
      <trkpt lat="38.9789910" lon="1.3028760">
        <ele>6.0</ele>
        <time>2020-02-21T16:28:09Z</time>
      </trkpt>
      <trkpt lat="38.9789930" lon="1.3028730">
        <ele>6.0</ele>
        <time>2020-02-21T16:28:10Z</time>
      </trkpt>
      <trkpt lat="38.9790500" lon="1.3028600">
        <ele>6.7</ele>
        <time>2020-02-21T16:28:13Z</time>
      </trkpt>
      <trkpt lat="38.9790950" lon="1.3028450">
        <ele>6.9</ele>
        <time>2020-02-21T16:28:14Z</time>
      </trkpt>
      <trkpt lat="38.9791150" lon="1.3028420">
        <ele>7.1</ele>
        <time>2020-02-21T16:28:15Z</time>
      </trkpt>
      <trkpt lat="38.9791520" lon="1.3028390">
        <ele>7.3</ele>
        <time>2020-02-21T16:28:16Z</time>
      </trkpt>
      <trkpt lat="38.9791820" lon="1.3028270">
        <ele>7.4</ele>
        <time>2020-02-21T16:28:17Z</time>
      </trkpt>
      <trkpt lat="38.9792080" lon="1.3028210">
        <ele>7.6</ele>
        <time>2020-02-21T16:28:18Z</time>
      </trkpt>
      <trkpt lat="38.9792470" lon="1.3028260">
        <ele>7.8</ele>
        <time>2020-02-21T16:28:19Z</time>
      </trkpt>
      <trkpt lat="38.9792600" lon="1.3028290">
        <ele>7.8</ele>
        <time>2020-02-21T16:28:20Z</time>
      </trkpt>
      <trkpt lat="38.9792930" lon="1.3028240">
        <ele>8.0</ele>
        <time>2020-02-21T16:28:21Z</time>
      </trkpt>
      <trkpt lat="38.9793240" lon="1.3028160">
        <ele>8.3</ele>
        <time>2020-02-21T16:28:22Z</time>
      </trkpt>
      <trkpt lat="38.9793510" lon="1.3028070">
        <ele>8.4</ele>
        <time>2020-02-21T16:28:23Z</time>
      </trkpt>
      <trkpt lat="38.9793860" lon="1.3028050">
        <ele>8.6</ele>
        <time>2020-02-21T16:28:24Z</time>
      </trkpt>
      <trkpt lat="38.9793980" lon="1.3028070">
        <ele>8.6</ele>
        <time>2020-02-21T16:28:25Z</time>
      </trkpt>
      <trkpt lat="38.9794370" lon="1.3028040">
        <ele>8.8</ele>
        <time>2020-02-21T16:28:26Z</time>
      </trkpt>
      <trkpt lat="38.9794780" lon="1.3027800">
        <ele>9.0</ele>
        <time>2020-02-21T16:28:27Z</time>
      </trkpt>
      <trkpt lat="38.9795040" lon="1.3027690">
        <ele>9.1</ele>
        <time>2020-02-21T16:28:28Z</time>
      </trkpt>
      <trkpt lat="38.9795310" lon="1.3027630">
        <ele>9.2</ele>
        <time>2020-02-21T16:28:29Z</time>
      </trkpt>
      <trkpt lat="38.9795600" lon="1.3027450">
        <ele>9.6</ele>
        <time>2020-02-21T16:28:30Z</time>
      </trkpt>
      <trkpt lat="38.9795670" lon="1.3027440">
        <ele>9.6</ele>
        <time>2020-02-21T16:28:31Z</time>
      </trkpt>
      <trkpt lat="38.9795750" lon="1.3027320">
        <ele>9.6</ele>
        <time>2020-02-21T16:28:32Z</time>
      </trkpt>
      <trkpt lat="38.9795810" lon="1.3027190">
        <ele>9.7</ele>
        <time>2020-02-21T16:28:33Z</time>
      </trkpt>
      <trkpt lat="38.9795870" lon="1.3027050">
        <ele>9.7</ele>
        <time>2020-02-21T16:28:34Z</time>
      </trkpt>
      <trkpt lat="38.9795970" lon="1.3026620">
        <ele>9.7</ele>
        <time>2020-02-21T16:28:35Z</time>
      </trkpt>
      <trkpt lat="38.9795960" lon="1.3026480">
        <ele>9.7</ele>
        <time>2020-02-21T16:28:36Z</time>
      </trkpt>
      <trkpt lat="38.9795980" lon="1.3026120">
        <ele>9.8</ele>
        <time>2020-02-21T16:28:37Z</time>
      </trkpt>
      <trkpt lat="38.9796000" lon="1.3025730">
        <ele>9.9</ele>
        <time>2020-02-21T16:28:38Z</time>
      </trkpt>
      <trkpt lat="38.9795950" lon="1.3025350">
        <ele>9.9</ele>
        <time>2020-02-21T16:28:39Z</time>
      </trkpt>
      <trkpt lat="38.9795870" lon="1.3025010">
        <ele>10.0</ele>
        <time>2020-02-21T16:28:40Z</time>
      </trkpt>
      <trkpt lat="38.9795840" lon="1.3024630">
        <ele>10.1</ele>
        <time>2020-02-21T16:28:41Z</time>
      </trkpt>
      <trkpt lat="38.9795750" lon="1.3024240">
        <ele>10.2</ele>
        <time>2020-02-21T16:28:42Z</time>
      </trkpt>
      <trkpt lat="38.9795680" lon="1.3023800">
        <ele>10.3</ele>
        <time>2020-02-21T16:28:43Z</time>
      </trkpt>
      <trkpt lat="38.9795440" lon="1.3023270">
        <ele>10.5</ele>
        <time>2020-02-21T16:28:44Z</time>
      </trkpt>
      <trkpt lat="38.9795350" lon="1.3022830">
        <ele>10.6</ele>
        <time>2020-02-21T16:28:45Z</time>
      </trkpt>
      <trkpt lat="38.9795310" lon="1.3022710">
        <ele>10.7</ele>
        <time>2020-02-21T16:28:46Z</time>
      </trkpt>
      <trkpt lat="38.9795230" lon="1.3022300">
        <ele>10.8</ele>
        <time>2020-02-21T16:28:47Z</time>
      </trkpt>
      <trkpt lat="38.9795190" lon="1.3022150">
        <ele>10.8</ele>
        <time>2020-02-21T16:28:48Z</time>
      </trkpt>
      <trkpt lat="38.9795130" lon="1.3021650">
        <ele>11.0</ele>
        <time>2020-02-21T16:28:49Z</time>
      </trkpt>
      <trkpt lat="38.9795140" lon="1.3021420">
        <ele>11.1</ele>
        <time>2020-02-21T16:28:50Z</time>
      </trkpt>
      <trkpt lat="38.9795200" lon="1.3021000">
        <ele>11.2</ele>
        <time>2020-02-21T16:28:51Z</time>
      </trkpt>
      <trkpt lat="38.9795240" lon="1.3020880">
        <ele>11.3</ele>
        <time>2020-02-21T16:28:52Z</time>
      </trkpt>
      <trkpt lat="38.9795210" lon="1.3020510">
        <ele>11.4</ele>
        <time>2020-02-21T16:28:53Z</time>
      </trkpt>
      <trkpt lat="38.9795290" lon="1.3020060">
        <ele>11.6</ele>
        <time>2020-02-21T16:28:54Z</time>
      </trkpt>
      <trkpt lat="38.9795370" lon="1.3019900">
        <ele>11.7</ele>
        <time>2020-02-21T16:28:55Z</time>
      </trkpt>
      <trkpt lat="38.9795400" lon="1.3019680">
        <ele>11.8</ele>
        <time>2020-02-21T16:28:56Z</time>
      </trkpt>
      <trkpt lat="38.9795440" lon="1.3019510">
        <ele>11.9</ele>
        <time>2020-02-21T16:28:57Z</time>
      </trkpt>
      <trkpt lat="38.9795630" lon="1.3019220">
        <ele>12.0</ele>
        <time>2020-02-21T16:28:58Z</time>
      </trkpt>
      <trkpt lat="38.9795710" lon="1.3019110">
        <ele>12.1</ele>
        <time>2020-02-21T16:28:59Z</time>
      </trkpt>
      <trkpt lat="38.9796050" lon="1.3019240">
        <ele>12.3</ele>
        <time>2020-02-21T16:29:00Z</time>
      </trkpt>
      <trkpt lat="38.9796360" lon="1.3019220">
        <ele>13.1</ele>
        <time>2020-02-21T16:29:01Z</time>
      </trkpt>
      <trkpt lat="38.9796460" lon="1.3019150">
        <ele>13.1</ele>
        <time>2020-02-21T16:29:02Z</time>
      </trkpt>
      <trkpt lat="38.9796840" lon="1.3019100">
        <ele>13.4</ele>
        <time>2020-02-21T16:29:03Z</time>
      </trkpt>
      <trkpt lat="38.9796970" lon="1.3019070">
        <ele>13.5</ele>
        <time>2020-02-21T16:29:04Z</time>
      </trkpt>
      <trkpt lat="38.9797270" lon="1.3019020">
        <ele>13.7</ele>
        <time>2020-02-21T16:29:05Z</time>
      </trkpt>
      <trkpt lat="38.9797560" lon="1.3019050">
        <ele>13.9</ele>
        <time>2020-02-21T16:29:06Z</time>
      </trkpt>
      <trkpt lat="38.9797820" lon="1.3018950">
        <ele>14.0</ele>
        <time>2020-02-21T16:29:07Z</time>
      </trkpt>
      <trkpt lat="38.9798150" lon="1.3018850">
        <ele>14.2</ele>
        <time>2020-02-21T16:29:08Z</time>
      </trkpt>
      <trkpt lat="38.9798480" lon="1.3018720">
        <ele>14.4</ele>
        <time>2020-02-21T16:29:09Z</time>
      </trkpt>
      <trkpt lat="38.9798710" lon="1.3018540">
        <ele>14.5</ele>
        <time>2020-02-21T16:29:10Z</time>
      </trkpt>
      <trkpt lat="38.9799020" lon="1.3018440">
        <ele>14.6</ele>
        <time>2020-02-21T16:29:11Z</time>
      </trkpt>
      <trkpt lat="38.9799110" lon="1.3018430">
        <ele>14.7</ele>
        <time>2020-02-21T16:29:12Z</time>
      </trkpt>
      <trkpt lat="38.9799400" lon="1.3018520">
        <ele>14.8</ele>
        <time>2020-02-21T16:29:13Z</time>
      </trkpt>
      <trkpt lat="38.9799550" lon="1.3018520">
        <ele>14.8</ele>
        <time>2020-02-21T16:29:14Z</time>
      </trkpt>
      <trkpt lat="38.9799930" lon="1.3018540">
        <ele>15.0</ele>
        <time>2020-02-21T16:29:15Z</time>
      </trkpt>
      <trkpt lat="38.9800040" lon="1.3018560">
        <ele>15.0</ele>
        <time>2020-02-21T16:29:16Z</time>
      </trkpt>
      <trkpt lat="38.9800310" lon="1.3018610">
        <ele>15.1</ele>
        <time>2020-02-21T16:29:17Z</time>
      </trkpt>
      <trkpt lat="38.9800600" lon="1.3018720">
        <ele>15.1</ele>
        <time>2020-02-21T16:29:18Z</time>
      </trkpt>
      <trkpt lat="38.9800940" lon="1.3018740">
        <ele>15.2</ele>
        <time>2020-02-21T16:29:19Z</time>
      </trkpt>
      <trkpt lat="38.9801070" lon="1.3018720">
        <ele>15.3</ele>
        <time>2020-02-21T16:29:20Z</time>
      </trkpt>
      <trkpt lat="38.9801440" lon="1.3018690">
        <ele>15.4</ele>
        <time>2020-02-21T16:29:21Z</time>
      </trkpt>
      <trkpt lat="38.9801590" lon="1.3018670">
        <ele>15.5</ele>
        <time>2020-02-21T16:29:22Z</time>
      </trkpt>
      <trkpt lat="38.9801880" lon="1.3018620">
        <ele>15.6</ele>
        <time>2020-02-21T16:29:23Z</time>
      </trkpt>
      <trkpt lat="38.9802240" lon="1.3018510">
        <ele>15.7</ele>
        <time>2020-02-21T16:29:24Z</time>
      </trkpt>
      <trkpt lat="38.9802380" lon="1.3018430">
        <ele>15.8</ele>
        <time>2020-02-21T16:29:25Z</time>
      </trkpt>
      <trkpt lat="38.9802680" lon="1.3018250">
        <ele>15.9</ele>
        <time>2020-02-21T16:29:26Z</time>
      </trkpt>
      <trkpt lat="38.9802990" lon="1.3018130">
        <ele>16.0</ele>
        <time>2020-02-21T16:29:27Z</time>
      </trkpt>
      <trkpt lat="38.9803390" lon="1.3018090">
        <ele>16.1</ele>
        <time>2020-02-21T16:29:28Z</time>
      </trkpt>
      <trkpt lat="38.9803520" lon="1.3018070">
        <ele>16.2</ele>
        <time>2020-02-21T16:29:29Z</time>
      </trkpt>
      <trkpt lat="38.9803790" lon="1.3018010">
        <ele>16.3</ele>
        <time>2020-02-21T16:29:30Z</time>
      </trkpt>
      <trkpt lat="38.9804110" lon="1.3017930">
        <ele>16.4</ele>
        <time>2020-02-21T16:29:31Z</time>
      </trkpt>
      <trkpt lat="38.9804450" lon="1.3017780">
        <ele>16.5</ele>
        <time>2020-02-21T16:29:32Z</time>
      </trkpt>
      <trkpt lat="38.9804830" lon="1.3017610">
        <ele>16.6</ele>
        <time>2020-02-21T16:29:33Z</time>
      </trkpt>
      <trkpt lat="38.9805170" lon="1.3017440">
        <ele>16.6</ele>
        <time>2020-02-21T16:29:34Z</time>
      </trkpt>
      <trkpt lat="38.9805480" lon="1.3017310">
        <ele>16.7</ele>
        <time>2020-02-21T16:29:35Z</time>
      </trkpt>
      <trkpt lat="38.9805800" lon="1.3017150">
        <ele>16.8</ele>
        <time>2020-02-21T16:29:36Z</time>
      </trkpt>
      <trkpt lat="38.9806110" lon="1.3017080">
        <ele>16.9</ele>
        <time>2020-02-21T16:29:37Z</time>
      </trkpt>
      <trkpt lat="38.9806430" lon="1.3017040">
        <ele>16.9</ele>
        <time>2020-02-21T16:29:38Z</time>
      </trkpt>
      <trkpt lat="38.9806740" lon="1.3017000">
        <ele>17.0</ele>
        <time>2020-02-21T16:29:39Z</time>
      </trkpt>
      <trkpt lat="38.9806800" lon="1.3016990">
        <ele>17.0</ele>
        <time>2020-02-21T16:29:40Z</time>
      </trkpt>
      <trkpt lat="38.9806870" lon="1.3017020">
        <ele>17.0</ele>
        <time>2020-02-21T16:29:41Z</time>
      </trkpt>
      <trkpt lat="38.9807060" lon="1.3017150">
        <ele>17.1</ele>
        <time>2020-02-21T16:29:42Z</time>
      </trkpt>
      <trkpt lat="38.9807330" lon="1.3017290">
        <ele>17.1</ele>
        <time>2020-02-21T16:29:43Z</time>
      </trkpt>
      <trkpt lat="38.9807710" lon="1.3017430">
        <ele>17.2</ele>
        <time>2020-02-21T16:29:44Z</time>
      </trkpt>
      <trkpt lat="38.9808270" lon="1.3017660">
        <ele>17.4</ele>
        <time>2020-02-21T16:29:45Z</time>
      </trkpt>
      <trkpt lat="38.9808710" lon="1.3017490">
        <ele>17.5</ele>
        <time>2020-02-21T16:29:46Z</time>
      </trkpt>
      <trkpt lat="38.9809190" lon="1.3017340">
        <ele>17.6</ele>
        <time>2020-02-21T16:29:47Z</time>
      </trkpt>
      <trkpt lat="38.9809500" lon="1.3017190">
        <ele>17.7</ele>
        <time>2020-02-21T16:29:48Z</time>
      </trkpt>
      <trkpt lat="38.9809810" lon="1.3017210">
        <ele>17.8</ele>
        <time>2020-02-21T16:29:49Z</time>
      </trkpt>
      <trkpt lat="38.9810160" lon="1.3017310">
        <ele>17.9</ele>
        <time>2020-02-21T16:29:50Z</time>
      </trkpt>
      <trkpt lat="38.9810480" lon="1.3017250">
        <ele>17.9</ele>
        <time>2020-02-21T16:29:51Z</time>
      </trkpt>
      <trkpt lat="38.9810860" lon="1.3017110">
        <ele>18.0</ele>
        <time>2020-02-21T16:29:52Z</time>
      </trkpt>
      <trkpt lat="38.9811240" lon="1.3016940">
        <ele>18.1</ele>
        <time>2020-02-21T16:29:53Z</time>
      </trkpt>
      <trkpt lat="38.9811570" lon="1.3016930">
        <ele>18.1</ele>
        <time>2020-02-21T16:29:54Z</time>
      </trkpt>
      <trkpt lat="38.9811870" lon="1.3016840">
        <ele>18.2</ele>
        <time>2020-02-21T16:29:55Z</time>
      </trkpt>
      <trkpt lat="38.9812170" lon="1.3016810">
        <ele>18.2</ele>
        <time>2020-02-21T16:29:56Z</time>
      </trkpt>
      <trkpt lat="38.9812500" lon="1.3016810">
        <ele>18.3</ele>
        <time>2020-02-21T16:29:57Z</time>
      </trkpt>
      <trkpt lat="38.9812850" lon="1.3016800">
        <ele>18.4</ele>
        <time>2020-02-21T16:29:58Z</time>
      </trkpt>
      <trkpt lat="38.9813180" lon="1.3016730">
        <ele>18.4</ele>
        <time>2020-02-21T16:29:59Z</time>
      </trkpt>
      <trkpt lat="38.9813500" lon="1.3016690">
        <ele>18.5</ele>
        <time>2020-02-21T16:30:00Z</time>
      </trkpt>
      <trkpt lat="38.9813850" lon="1.3016760">
        <ele>18.6</ele>
        <time>2020-02-21T16:30:01Z</time>
      </trkpt>
      <trkpt lat="38.9814180" lon="1.3016830">
        <ele>18.7</ele>
        <time>2020-02-21T16:30:02Z</time>
      </trkpt>
      <trkpt lat="38.9814560" lon="1.3016940">
        <ele>18.8</ele>
        <time>2020-02-21T16:30:03Z</time>
      </trkpt>
      <trkpt lat="38.9814980" lon="1.3017010">
        <ele>18.8</ele>
        <time>2020-02-21T16:30:04Z</time>
      </trkpt>
      <trkpt lat="38.9815120" lon="1.3017040">
        <ele>18.9</ele>
        <time>2020-02-21T16:30:05Z</time>
      </trkpt>
      <trkpt lat="38.9815440" lon="1.3017040">
        <ele>18.9</ele>
        <time>2020-02-21T16:30:06Z</time>
      </trkpt>
      <trkpt lat="38.9815770" lon="1.3017030">
        <ele>19.0</ele>
        <time>2020-02-21T16:30:07Z</time>
      </trkpt>
      <trkpt lat="38.9816130" lon="1.3016960">
        <ele>19.1</ele>
        <time>2020-02-21T16:30:08Z</time>
      </trkpt>
      <trkpt lat="38.9816430" lon="1.3016910">
        <ele>19.1</ele>
        <time>2020-02-21T16:30:09Z</time>
      </trkpt>
      <trkpt lat="38.9816790" lon="1.3016850">
        <ele>19.1</ele>
        <time>2020-02-21T16:30:10Z</time>
      </trkpt>
      <trkpt lat="38.9816900" lon="1.3016840">
        <ele>19.1</ele>
        <time>2020-02-21T16:30:11Z</time>
      </trkpt>
      <trkpt lat="38.9817200" lon="1.3016830">
        <ele>19.2</ele>
        <time>2020-02-21T16:30:12Z</time>
      </trkpt>
      <trkpt lat="38.9817290" lon="1.3016850">
        <ele>19.2</ele>
        <time>2020-02-21T16:30:13Z</time>
      </trkpt>
      <trkpt lat="38.9817550" lon="1.3016890">
        <ele>19.2</ele>
        <time>2020-02-21T16:30:14Z</time>
      </trkpt>
      <trkpt lat="38.9817670" lon="1.3016910">
        <ele>19.2</ele>
        <time>2020-02-21T16:30:15Z</time>
      </trkpt>
      <trkpt lat="38.9818010" lon="1.3016870">
        <ele>19.2</ele>
        <time>2020-02-21T16:30:16Z</time>
      </trkpt>
      <trkpt lat="38.9818360" lon="1.3016870">
        <ele>19.3</ele>
        <time>2020-02-21T16:30:17Z</time>
      </trkpt>
      <trkpt lat="38.9818720" lon="1.3016870">
        <ele>19.3</ele>
        <time>2020-02-21T16:30:18Z</time>
      </trkpt>
      <trkpt lat="38.9819010" lon="1.3016930">
        <ele>19.3</ele>
        <time>2020-02-21T16:30:19Z</time>
      </trkpt>
      <trkpt lat="38.9819290" lon="1.3016960">
        <ele>19.4</ele>
        <time>2020-02-21T16:30:20Z</time>
      </trkpt>
      <trkpt lat="38.9819590" lon="1.3017060">
        <ele>19.4</ele>
        <time>2020-02-21T16:30:21Z</time>
      </trkpt>
      <trkpt lat="38.9819980" lon="1.3017260">
        <ele>19.3</ele>
        <time>2020-02-21T16:30:22Z</time>
      </trkpt>
      <trkpt lat="38.9820410" lon="1.3017410">
        <ele>19.3</ele>
        <time>2020-02-21T16:30:23Z</time>
      </trkpt>
      <trkpt lat="38.9820790" lon="1.3017480">
        <ele>19.3</ele>
        <time>2020-02-21T16:30:24Z</time>
      </trkpt>
      <trkpt lat="38.9821220" lon="1.3017470">
        <ele>19.2</ele>
        <time>2020-02-21T16:30:25Z</time>
      </trkpt>
      <trkpt lat="38.9821680" lon="1.3017540">
        <ele>19.2</ele>
        <time>2020-02-21T16:30:26Z</time>
      </trkpt>
      <trkpt lat="38.9822300" lon="1.3017570">
        <ele>19.1</ele>
        <time>2020-02-21T16:30:27Z</time>
      </trkpt>
      <trkpt lat="38.9822940" lon="1.3017610">
        <ele>19.1</ele>
        <time>2020-02-21T16:30:28Z</time>
      </trkpt>
      <trkpt lat="38.9823560" lon="1.3017660">
        <ele>19.0</ele>
        <time>2020-02-21T16:30:29Z</time>
      </trkpt>
      <trkpt lat="38.9824090" lon="1.3017730">
        <ele>18.7</ele>
        <time>2020-02-21T16:30:30Z</time>
      </trkpt>
      <trkpt lat="38.9824590" lon="1.3017850">
        <ele>18.4</ele>
        <time>2020-02-21T16:30:31Z</time>
      </trkpt>
      <trkpt lat="38.9825210" lon="1.3017980">
        <ele>18.0</ele>
        <time>2020-02-21T16:30:32Z</time>
      </trkpt>
      <trkpt lat="38.9825780" lon="1.3018160">
        <ele>17.6</ele>
        <time>2020-02-21T16:30:33Z</time>
      </trkpt>
      <trkpt lat="38.9826270" lon="1.3018330">
        <ele>17.3</ele>
        <time>2020-02-21T16:30:34Z</time>
      </trkpt>
      <trkpt lat="38.9826670" lon="1.3018500">
        <ele>17.1</ele>
        <time>2020-02-21T16:30:35Z</time>
      </trkpt>
      <trkpt lat="38.9827090" lon="1.3018780">
        <ele>16.5</ele>
        <time>2020-02-21T16:30:36Z</time>
      </trkpt>
      <trkpt lat="38.9827490" lon="1.3019050">
        <ele>16.3</ele>
        <time>2020-02-21T16:30:37Z</time>
      </trkpt>
      <trkpt lat="38.9827990" lon="1.3019320">
        <ele>16.1</ele>
        <time>2020-02-21T16:30:38Z</time>
      </trkpt>
      <trkpt lat="38.9828460" lon="1.3019560">
        <ele>15.9</ele>
        <time>2020-02-21T16:30:39Z</time>
      </trkpt>
      <trkpt lat="38.9828950" lon="1.3019770">
        <ele>15.7</ele>
        <time>2020-02-21T16:30:40Z</time>
      </trkpt>
      <trkpt lat="38.9829340" lon="1.3019960">
        <ele>15.5</ele>
        <time>2020-02-21T16:30:41Z</time>
      </trkpt>
      <trkpt lat="38.9829710" lon="1.3020220">
        <ele>15.3</ele>
        <time>2020-02-21T16:30:42Z</time>
      </trkpt>
      <trkpt lat="38.9830170" lon="1.3020320">
        <ele>14.8</ele>
        <time>2020-02-21T16:30:43Z</time>
      </trkpt>
      <trkpt lat="38.9830500" lon="1.3020300">
        <ele>14.9</ele>
        <time>2020-02-21T16:30:44Z</time>
      </trkpt>
      <trkpt lat="38.9830810" lon="1.3020190">
        <ele>14.9</ele>
        <time>2020-02-21T16:30:45Z</time>
      </trkpt>
      <trkpt lat="38.9830870" lon="1.3020170">
        <ele>14.9</ele>
        <time>2020-02-21T16:30:46Z</time>
      </trkpt>
      <trkpt lat="38.9831120" lon="1.3019980">
        <ele>14.9</ele>
        <time>2020-02-21T16:30:47Z</time>
      </trkpt>
      <trkpt lat="38.9831220" lon="1.3019910">
        <ele>14.9</ele>
        <time>2020-02-21T16:30:48Z</time>
      </trkpt>
      <trkpt lat="38.9831490" lon="1.3019700">
        <ele>15.0</ele>
        <time>2020-02-21T16:30:49Z</time>
      </trkpt>
      <trkpt lat="38.9831570" lon="1.3019600">
        <ele>15.0</ele>
        <time>2020-02-21T16:30:50Z</time>
      </trkpt>
      <trkpt lat="38.9831750" lon="1.3019260">
        <ele>15.0</ele>
        <time>2020-02-21T16:30:51Z</time>
      </trkpt>
      <trkpt lat="38.9831860" lon="1.3018870">
        <ele>15.0</ele>
        <time>2020-02-21T16:30:52Z</time>
      </trkpt>
      <trkpt lat="38.9832000" lon="1.3018360">
        <ele>15.0</ele>
        <time>2020-02-21T16:30:53Z</time>
      </trkpt>
      <trkpt lat="38.9832110" lon="1.3017860">
        <ele>15.1</ele>
        <time>2020-02-21T16:30:54Z</time>
      </trkpt>
      <trkpt lat="38.9832230" lon="1.3017400">
        <ele>15.1</ele>
        <time>2020-02-21T16:30:55Z</time>
      </trkpt>
      <trkpt lat="38.9832360" lon="1.3016900">
        <ele>15.1</ele>
        <time>2020-02-21T16:30:56Z</time>
      </trkpt>
      <trkpt lat="38.9832500" lon="1.3016480">
        <ele>15.1</ele>
        <time>2020-02-21T16:30:57Z</time>
      </trkpt>
      <trkpt lat="38.9832710" lon="1.3016120">
        <ele>15.2</ele>
        <time>2020-02-21T16:30:58Z</time>
      </trkpt>
      <trkpt lat="38.9832990" lon="1.3015750">
        <ele>15.2</ele>
        <time>2020-02-21T16:30:59Z</time>
      </trkpt>
      <trkpt lat="38.9833290" lon="1.3015310">
        <ele>15.2</ele>
        <time>2020-02-21T16:31:00Z</time>
      </trkpt>
      <trkpt lat="38.9833450" lon="1.3014960">
        <ele>15.3</ele>
        <time>2020-02-21T16:31:01Z</time>
      </trkpt>
      <trkpt lat="38.9833630" lon="1.3014510">
        <ele>15.3</ele>
        <time>2020-02-21T16:31:02Z</time>
      </trkpt>
      <trkpt lat="38.9833770" lon="1.3014100">
        <ele>15.3</ele>
        <time>2020-02-21T16:31:03Z</time>
      </trkpt>
      <trkpt lat="38.9833990" lon="1.3013760">
        <ele>15.3</ele>
        <time>2020-02-21T16:31:04Z</time>
      </trkpt>
      <trkpt lat="38.9834260" lon="1.3013450">
        <ele>15.3</ele>
        <time>2020-02-21T16:31:05Z</time>
      </trkpt>
      <trkpt lat="38.9834520" lon="1.3013070">
        <ele>15.3</ele>
        <time>2020-02-21T16:31:06Z</time>
      </trkpt>
      <trkpt lat="38.9834700" lon="1.3012620">
        <ele>15.3</ele>
        <time>2020-02-21T16:31:07Z</time>
      </trkpt>
      <trkpt lat="38.9834880" lon="1.3012170">
        <ele>15.4</ele>
        <time>2020-02-21T16:31:08Z</time>
      </trkpt>
      <trkpt lat="38.9835160" lon="1.3011690">
        <ele>15.4</ele>
        <time>2020-02-21T16:31:09Z</time>
      </trkpt>
      <trkpt lat="38.9835440" lon="1.3011150">
        <ele>15.4</ele>
        <time>2020-02-21T16:31:10Z</time>
      </trkpt>
      <trkpt lat="38.9835610" lon="1.3010660">
        <ele>15.4</ele>
        <time>2020-02-21T16:31:11Z</time>
      </trkpt>
      <trkpt lat="38.9835730" lon="1.3010170">
        <ele>15.5</ele>
        <time>2020-02-21T16:31:12Z</time>
      </trkpt>
      <trkpt lat="38.9835840" lon="1.3009770">
        <ele>15.5</ele>
        <time>2020-02-21T16:31:13Z</time>
      </trkpt>
      <trkpt lat="38.9835930" lon="1.3009250">
        <ele>15.5</ele>
        <time>2020-02-21T16:31:14Z</time>
      </trkpt>
      <trkpt lat="38.9836050" lon="1.3008690">
        <ele>15.4</ele>
        <time>2020-02-21T16:31:15Z</time>
      </trkpt>
      <trkpt lat="38.9836270" lon="1.3008040">
        <ele>15.4</ele>
        <time>2020-02-21T16:31:16Z</time>
      </trkpt>
      <trkpt lat="38.9836550" lon="1.3007470">
        <ele>15.4</ele>
        <time>2020-02-21T16:31:17Z</time>
      </trkpt>
      <trkpt lat="38.9836730" lon="1.3006900">
        <ele>15.4</ele>
        <time>2020-02-21T16:31:18Z</time>
      </trkpt>
      <trkpt lat="38.9836900" lon="1.3006420">
        <ele>15.4</ele>
        <time>2020-02-21T16:31:19Z</time>
      </trkpt>
      <trkpt lat="38.9837070" lon="1.3006090">
        <ele>15.3</ele>
        <time>2020-02-21T16:31:20Z</time>
      </trkpt>
      <trkpt lat="38.9837320" lon="1.3006230">
        <ele>15.2</ele>
        <time>2020-02-21T16:31:21Z</time>
      </trkpt>
      <trkpt lat="38.9837390" lon="1.3006330">
        <ele>15.2</ele>
        <time>2020-02-21T16:31:22Z</time>
      </trkpt>
      <trkpt lat="38.9837600" lon="1.3006550">
        <ele>15.1</ele>
        <time>2020-02-21T16:31:23Z</time>
      </trkpt>
      <trkpt lat="38.9837680" lon="1.3006670">
        <ele>15.1</ele>
        <time>2020-02-21T16:31:24Z</time>
      </trkpt>
      <trkpt lat="38.9837790" lon="1.3006990">
        <ele>15.0</ele>
        <time>2020-02-21T16:31:25Z</time>
      </trkpt>
      <trkpt lat="38.9838030" lon="1.3007420">
        <ele>14.9</ele>
        <time>2020-02-21T16:31:26Z</time>
      </trkpt>
      <trkpt lat="38.9838270" lon="1.3007610">
        <ele>14.8</ele>
        <time>2020-02-21T16:31:27Z</time>
      </trkpt>
      <trkpt lat="38.9838570" lon="1.3007850">
        <ele>14.8</ele>
        <time>2020-02-21T16:31:28Z</time>
      </trkpt>
      <trkpt lat="38.9838690" lon="1.3007970">
        <ele>14.7</ele>
        <time>2020-02-21T16:31:29Z</time>
      </trkpt>
      <trkpt lat="38.9838940" lon="1.3008270">
        <ele>14.7</ele>
        <time>2020-02-21T16:31:30Z</time>
      </trkpt>
      <trkpt lat="38.9839210" lon="1.3008510">
        <ele>14.6</ele>
        <time>2020-02-21T16:31:31Z</time>
      </trkpt>
      <trkpt lat="38.9839480" lon="1.3008690">
        <ele>14.6</ele>
        <time>2020-02-21T16:31:32Z</time>
      </trkpt>
      <trkpt lat="38.9839730" lon="1.3008880">
        <ele>14.6</ele>
        <time>2020-02-21T16:31:33Z</time>
      </trkpt>
      <trkpt lat="38.9840020" lon="1.3008870">
        <ele>14.5</ele>
        <time>2020-02-21T16:31:34Z</time>
      </trkpt>
      <trkpt lat="38.9840290" lon="1.3009020">
        <ele>14.5</ele>
        <time>2020-02-21T16:31:35Z</time>
      </trkpt>
      <trkpt lat="38.9840380" lon="1.3009060">
        <ele>14.5</ele>
        <time>2020-02-21T16:31:36Z</time>
      </trkpt>
      <trkpt lat="38.9840360" lon="1.3009030">
        <ele>14.5</ele>
        <time>2020-02-21T16:31:37Z</time>
      </trkpt>
      <trkpt lat="38.9840420" lon="1.3009090">
        <ele>14.5</ele>
        <time>2020-02-21T16:31:38Z</time>
      </trkpt>
      <trkpt lat="38.9840480" lon="1.3009110">
        <ele>14.5</ele>
        <time>2020-02-21T16:31:39Z</time>
      </trkpt>
      <trkpt lat="38.9840490" lon="1.3008910">
        <ele>14.5</ele>
        <time>2020-02-21T16:31:40Z</time>
      </trkpt>
      <trkpt lat="38.9840520" lon="1.3008730">
        <ele>14.4</ele>
        <time>2020-02-21T16:31:41Z</time>
      </trkpt>
      <trkpt lat="38.9840400" lon="1.3008590">
        <ele>14.4</ele>
        <time>2020-02-21T16:31:42Z</time>
      </trkpt>
      <trkpt lat="38.9840280" lon="1.3008460">
        <ele>14.4</ele>
        <time>2020-02-21T16:31:43Z</time>
      </trkpt>
      <trkpt lat="38.9840190" lon="1.3008410">
        <ele>14.4</ele>
        <time>2020-02-21T16:31:44Z</time>
      </trkpt>
      <trkpt lat="38.9840220" lon="1.3008380">
        <ele>14.4</ele>
        <time>2020-02-21T16:31:45Z</time>
      </trkpt>
      <trkpt lat="38.9840250" lon="1.3008360">
        <ele>14.4</ele>
        <time>2020-02-21T16:31:46Z</time>
      </trkpt>
      <trkpt lat="38.9840340" lon="1.3008390">
        <ele>14.4</ele>
        <time>2020-02-21T16:31:47Z</time>
      </trkpt>
      <trkpt lat="38.9840390" lon="1.3008410">
        <ele>14.4</ele>
        <time>2020-02-21T16:31:48Z</time>
      </trkpt>
      <trkpt lat="38.9840470" lon="1.3008400">
        <ele>14.4</ele>
        <time>2020-02-21T16:31:49Z</time>
      </trkpt>
      <trkpt lat="38.9844780" lon="1.3011510">
        <ele>13.7</ele>
        <time>2020-02-22T09:29:13Z</time>
      </trkpt>
      <trkpt lat="38.9845010" lon="1.3011700">
        <ele>13.6</ele>
        <time>2020-02-22T09:29:14Z</time>
      </trkpt>
      <trkpt lat="38.9845350" lon="1.3011960">
        <ele>13.6</ele>
        <time>2020-02-22T09:29:15Z</time>
      </trkpt>
      <trkpt lat="38.9845480" lon="1.3012030">
        <ele>13.6</ele>
        <time>2020-02-22T09:29:16Z</time>
      </trkpt>
      <trkpt lat="38.9845810" lon="1.3012210">
        <ele>13.6</ele>
        <time>2020-02-22T09:29:17Z</time>
      </trkpt>
      <trkpt lat="38.9845920" lon="1.3012280">
        <ele>13.6</ele>
        <time>2020-02-22T09:29:18Z</time>
      </trkpt>
      <trkpt lat="38.9846240" lon="1.3012500">
        <ele>13.6</ele>
        <time>2020-02-22T09:29:19Z</time>
      </trkpt>
      <trkpt lat="38.9846620" lon="1.3012700">
        <ele>13.6</ele>
        <time>2020-02-22T09:29:20Z</time>
      </trkpt>
      <trkpt lat="38.9846960" lon="1.3012960">
        <ele>13.7</ele>
        <time>2020-02-22T09:29:21Z</time>
      </trkpt>
      <trkpt lat="38.9847210" lon="1.3013320">
        <ele>13.7</ele>
        <time>2020-02-22T09:29:22Z</time>
      </trkpt>
      <trkpt lat="38.9847290" lon="1.3013440">
        <ele>13.7</ele>
        <time>2020-02-22T09:29:23Z</time>
      </trkpt>
      <trkpt lat="38.9847550" lon="1.3013580">
        <ele>13.8</ele>
        <time>2020-02-22T09:29:24Z</time>
      </trkpt>
      <trkpt lat="38.9847840" lon="1.3013790">
        <ele>13.8</ele>
        <time>2020-02-22T09:29:25Z</time>
      </trkpt>
      <trkpt lat="38.9848100" lon="1.3014040">
        <ele>13.8</ele>
        <time>2020-02-22T09:29:26Z</time>
      </trkpt>
      <trkpt lat="38.9848140" lon="1.3014090">
        <ele>13.8</ele>
        <time>2020-02-22T09:29:27Z</time>
      </trkpt>
      <trkpt lat="38.9848420" lon="1.3014390">
        <ele>14.5</ele>
        <time>2020-02-22T09:29:28Z</time>
      </trkpt>
      <trkpt lat="38.9848680" lon="1.3014580">
        <ele>14.7</ele>
        <time>2020-02-22T09:29:29Z</time>
      </trkpt>
      <trkpt lat="38.9849010" lon="1.3014700">
        <ele>15.0</ele>
        <time>2020-02-22T09:29:30Z</time>
      </trkpt>
      <trkpt lat="38.9849260" lon="1.3014990">
        <ele>15.4</ele>
        <time>2020-02-22T09:29:31Z</time>
      </trkpt>
      <trkpt lat="38.9849500" lon="1.3015220">
        <ele>15.6</ele>
        <time>2020-02-22T09:29:32Z</time>
      </trkpt>
      <trkpt lat="38.9849800" lon="1.3015400">
        <ele>15.9</ele>
        <time>2020-02-22T09:29:33Z</time>
      </trkpt>
      <trkpt lat="38.9850090" lon="1.3015590">
        <ele>16.2</ele>
        <time>2020-02-22T09:29:34Z</time>
      </trkpt>
      <trkpt lat="38.9850350" lon="1.3015690">
        <ele>16.4</ele>
        <time>2020-02-22T09:29:35Z</time>
      </trkpt>
      <trkpt lat="38.9850730" lon="1.3015900">
        <ele>16.7</ele>
        <time>2020-02-22T09:29:36Z</time>
      </trkpt>
      <trkpt lat="38.9850890" lon="1.3015990">
        <ele>16.8</ele>
        <time>2020-02-22T09:29:37Z</time>
      </trkpt>
      <trkpt lat="38.9851140" lon="1.3016210">
        <ele>17.1</ele>
        <time>2020-02-22T09:29:38Z</time>
      </trkpt>
      <trkpt lat="38.9851410" lon="1.3016370">
        <ele>17.3</ele>
        <time>2020-02-22T09:29:39Z</time>
      </trkpt>
      <trkpt lat="38.9851760" lon="1.3016620">
        <ele>17.6</ele>
        <time>2020-02-22T09:29:40Z</time>
      </trkpt>
      <trkpt lat="38.9851900" lon="1.3016700">
        <ele>17.7</ele>
        <time>2020-02-22T09:29:41Z</time>
      </trkpt>
      <trkpt lat="38.9852170" lon="1.3016850">
        <ele>17.9</ele>
        <time>2020-02-22T09:29:42Z</time>
      </trkpt>
      <trkpt lat="38.9852480" lon="1.3017000">
        <ele>18.0</ele>
        <time>2020-02-22T09:29:43Z</time>
      </trkpt>
      <trkpt lat="38.9852720" lon="1.3017180">
        <ele>18.2</ele>
        <time>2020-02-22T09:29:44Z</time>
      </trkpt>
      <trkpt lat="38.9853060" lon="1.3017340">
        <ele>18.3</ele>
        <time>2020-02-22T09:29:45Z</time>
      </trkpt>
      <trkpt lat="38.9853220" lon="1.3017370">
        <ele>18.4</ele>
        <time>2020-02-22T09:29:46Z</time>
      </trkpt>
      <trkpt lat="38.9853540" lon="1.3017540">
        <ele>18.5</ele>
        <time>2020-02-22T09:29:47Z</time>
      </trkpt>
      <trkpt lat="38.9853640" lon="1.3017600">
        <ele>18.6</ele>
        <time>2020-02-22T09:29:48Z</time>
      </trkpt>
      <trkpt lat="38.9854000" lon="1.3017830">
        <ele>18.8</ele>
        <time>2020-02-22T09:29:49Z</time>
      </trkpt>
      <trkpt lat="38.9854130" lon="1.3017920">
        <ele>18.9</ele>
        <time>2020-02-22T09:29:50Z</time>
      </trkpt>
      <trkpt lat="38.9854400" lon="1.3018140">
        <ele>19.1</ele>
        <time>2020-02-22T09:29:51Z</time>
      </trkpt>
      <trkpt lat="38.9854820" lon="1.3018440">
        <ele>19.5</ele>
        <time>2020-02-22T09:29:52Z</time>
      </trkpt>
      <trkpt lat="38.9855010" lon="1.3018580">
        <ele>19.7</ele>
        <time>2020-02-22T09:29:53Z</time>
      </trkpt>
      <trkpt lat="38.9855400" lon="1.3018900">
        <ele>20.0</ele>
        <time>2020-02-22T09:29:54Z</time>
      </trkpt>
      <trkpt lat="38.9855750" lon="1.3019120">
        <ele>20.2</ele>
        <time>2020-02-22T09:29:55Z</time>
      </trkpt>
      <trkpt lat="38.9855840" lon="1.3019190">
        <ele>20.3</ele>
        <time>2020-02-22T09:29:56Z</time>
      </trkpt>
      <trkpt lat="38.9856150" lon="1.3019500">
        <ele>20.5</ele>
        <time>2020-02-22T09:29:57Z</time>
      </trkpt>
      <trkpt lat="38.9856260" lon="1.3019620">
        <ele>20.6</ele>
        <time>2020-02-22T09:29:58Z</time>
      </trkpt>
      <trkpt lat="38.9856540" lon="1.3019860">
        <ele>20.8</ele>
        <time>2020-02-22T09:29:59Z</time>
      </trkpt>
      <trkpt lat="38.9856650" lon="1.3019940">
        <ele>20.9</ele>
        <time>2020-02-22T09:30:00Z</time>
      </trkpt>
      <trkpt lat="38.9856940" lon="1.3020070">
        <ele>21.1</ele>
        <time>2020-02-22T09:30:01Z</time>
      </trkpt>
      <trkpt lat="38.9857270" lon="1.3020230">
        <ele>21.4</ele>
        <time>2020-02-22T09:30:02Z</time>
      </trkpt>
      <trkpt lat="38.9857600" lon="1.3020330">
        <ele>21.7</ele>
        <time>2020-02-22T09:30:03Z</time>
      </trkpt>
      <trkpt lat="38.9857970" lon="1.3020350">
        <ele>21.8</ele>
        <time>2020-02-22T09:30:04Z</time>
      </trkpt>
      <trkpt lat="38.9858310" lon="1.3020440">
        <ele>22.0</ele>
        <time>2020-02-22T09:30:05Z</time>
      </trkpt>
      <trkpt lat="38.9858700" lon="1.3020510">
        <ele>22.2</ele>
        <time>2020-02-22T09:30:06Z</time>
      </trkpt>
      <trkpt lat="38.9859070" lon="1.3020630">
        <ele>22.4</ele>
        <time>2020-02-22T09:30:07Z</time>
      </trkpt>
      <trkpt lat="38.9859380" lon="1.3020870">
        <ele>22.5</ele>
        <time>2020-02-22T09:30:08Z</time>
      </trkpt>
      <trkpt lat="38.9859470" lon="1.3020960">
        <ele>22.6</ele>
        <time>2020-02-22T09:30:09Z</time>
      </trkpt>
      <trkpt lat="38.9859870" lon="1.3020830">
        <ele>22.8</ele>
        <time>2020-02-22T09:30:10Z</time>
      </trkpt>
      <trkpt lat="38.9860130" lon="1.3020710">
        <ele>23.5</ele>
        <time>2020-02-22T09:30:11Z</time>
      </trkpt>
      <trkpt lat="38.9860340" lon="1.3020420">
        <ele>23.6</ele>
        <time>2020-02-22T09:30:12Z</time>
      </trkpt>
      <trkpt lat="38.9860510" lon="1.3020080">
        <ele>23.7</ele>
        <time>2020-02-22T09:30:13Z</time>
      </trkpt>
      <trkpt lat="38.9860690" lon="1.3019720">
        <ele>23.7</ele>
        <time>2020-02-22T09:30:14Z</time>
      </trkpt>
      <trkpt lat="38.9860920" lon="1.3019310">
        <ele>23.8</ele>
        <time>2020-02-22T09:30:15Z</time>
      </trkpt>
      <trkpt lat="38.9861060" lon="1.3018920">
        <ele>23.9</ele>
        <time>2020-02-22T09:30:16Z</time>
      </trkpt>
      <trkpt lat="38.9861230" lon="1.3018520">
        <ele>24.0</ele>
        <time>2020-02-22T09:30:17Z</time>
      </trkpt>
      <trkpt lat="38.9861390" lon="1.3018170">
        <ele>24.1</ele>
        <time>2020-02-22T09:30:18Z</time>
      </trkpt>
      <trkpt lat="38.9861520" lon="1.3017860">
        <ele>24.2</ele>
        <time>2020-02-22T09:30:19Z</time>
      </trkpt>
      <trkpt lat="38.9861620" lon="1.3017610">
        <ele>24.2</ele>
        <time>2020-02-22T09:30:20Z</time>
      </trkpt>
      <trkpt lat="38.9861700" lon="1.3017450">
        <ele>24.3</ele>
        <time>2020-02-22T09:30:21Z</time>
      </trkpt>
      <trkpt lat="38.9861800" lon="1.3017120">
        <ele>24.4</ele>
        <time>2020-02-22T09:30:22Z</time>
      </trkpt>
      <trkpt lat="38.9861840" lon="1.3016990">
        <ele>24.4</ele>
        <time>2020-02-22T09:30:23Z</time>
      </trkpt>
      <trkpt lat="38.9861930" lon="1.3016580">
        <ele>24.5</ele>
        <time>2020-02-22T09:30:24Z</time>
      </trkpt>
      <trkpt lat="38.9861960" lon="1.3016460">
        <ele>24.7</ele>
        <time>2020-02-22T09:30:25Z</time>
      </trkpt>
      <trkpt lat="38.9862010" lon="1.3016320">
        <ele>24.7</ele>
        <time>2020-02-22T09:30:26Z</time>
      </trkpt>
      <trkpt lat="38.9862000" lon="1.3016290">
        <ele>24.7</ele>
        <time>2020-02-22T09:30:27Z</time>
      </trkpt>
      <trkpt lat="38.9862040" lon="1.3016350">
        <ele>24.7</ele>
        <time>2020-02-22T09:30:28Z</time>
      </trkpt>
      <trkpt lat="38.9862060" lon="1.3016420">
        <ele>24.7</ele>
        <time>2020-02-22T09:30:29Z</time>
      </trkpt>
      <trkpt lat="38.9862080" lon="1.3016480">
        <ele>24.7</ele>
        <time>2020-02-22T09:30:30Z</time>
      </trkpt>
      <trkpt lat="38.9862080" lon="1.3016510">
        <ele>24.7</ele>
        <time>2020-02-22T09:30:31Z</time>
      </trkpt>
      <trkpt lat="38.9862070" lon="1.3016540">
        <ele>24.7</ele>
        <time>2020-02-22T09:30:32Z</time>
      </trkpt>
      <trkpt lat="38.9862080" lon="1.3016600">
        <ele>24.6</ele>
        <time>2020-02-22T09:30:33Z</time>
      </trkpt>
      <trkpt lat="38.9862090" lon="1.3016630">
        <ele>24.6</ele>
        <time>2020-02-22T09:30:34Z</time>
      </trkpt>
      <trkpt lat="38.9862090" lon="1.3016630">
        <ele>24.6</ele>
        <time>2020-02-22T09:30:35Z</time>
      </trkpt>
      <trkpt lat="38.9862090" lon="1.3016630">
        <ele>24.6</ele>
        <time>2020-02-22T09:30:36Z</time>
      </trkpt>
      <trkpt lat="38.9862230" lon="1.3015960">
        <ele>24.5</ele>
        <time>2020-02-22T09:30:40Z</time>
      </trkpt>
      <trkpt lat="38.9862280" lon="1.3015740">
        <ele>24.5</ele>
        <time>2020-02-22T09:30:41Z</time>
      </trkpt>
      <trkpt lat="38.9862350" lon="1.3015240">
        <ele>24.3</ele>
        <time>2020-02-22T09:30:42Z</time>
      </trkpt>
      <trkpt lat="38.9862370" lon="1.3015010">
        <ele>24.2</ele>
        <time>2020-02-22T09:30:43Z</time>
      </trkpt>
      <trkpt lat="38.9862410" lon="1.3014480">
        <ele>24.1</ele>
        <time>2020-02-22T09:30:44Z</time>
      </trkpt>
      <trkpt lat="38.9862450" lon="1.3013980">
        <ele>23.9</ele>
        <time>2020-02-22T09:30:45Z</time>
      </trkpt>
      <trkpt lat="38.9862470" lon="1.3013370">
        <ele>23.8</ele>
        <time>2020-02-22T09:30:46Z</time>
      </trkpt>
      <trkpt lat="38.9862460" lon="1.3012760">
        <ele>23.7</ele>
        <time>2020-02-22T09:30:47Z</time>
      </trkpt>
      <trkpt lat="38.9862400" lon="1.3012120">
        <ele>23.5</ele>
        <time>2020-02-22T09:30:48Z</time>
      </trkpt>
      <trkpt lat="38.9862360" lon="1.3011500">
        <ele>23.4</ele>
        <time>2020-02-22T09:30:49Z</time>
      </trkpt>
      <trkpt lat="38.9862320" lon="1.3010850">
        <ele>23.2</ele>
        <time>2020-02-22T09:30:50Z</time>
      </trkpt>
      <trkpt lat="38.9862240" lon="1.3010300">
        <ele>23.1</ele>
        <time>2020-02-22T09:30:51Z</time>
      </trkpt>
      <trkpt lat="38.9862210" lon="1.3009820">
        <ele>23.1</ele>
        <time>2020-02-22T09:30:52Z</time>
      </trkpt>
      <trkpt lat="38.9862190" lon="1.3009170">
        <ele>22.9</ele>
        <time>2020-02-22T09:30:53Z</time>
      </trkpt>
      <trkpt lat="38.9862140" lon="1.3008440">
        <ele>22.8</ele>
        <time>2020-02-22T09:30:54Z</time>
      </trkpt>
      <trkpt lat="38.9862130" lon="1.3007840">
        <ele>22.7</ele>
        <time>2020-02-22T09:30:55Z</time>
      </trkpt>
      <trkpt lat="38.9862130" lon="1.3007180">
        <ele>22.6</ele>
        <time>2020-02-22T09:30:56Z</time>
      </trkpt>
      <trkpt lat="38.9862040" lon="1.3006520">
        <ele>22.5</ele>
        <time>2020-02-22T09:30:57Z</time>
      </trkpt>
      <trkpt lat="38.9861980" lon="1.3005850">
        <ele>22.3</ele>
        <time>2020-02-22T09:30:58Z</time>
      </trkpt>
      <trkpt lat="38.9861980" lon="1.3005240">
        <ele>22.2</ele>
        <time>2020-02-22T09:30:59Z</time>
      </trkpt>
      <trkpt lat="38.9861910" lon="1.3004590">
        <ele>22.0</ele>
        <time>2020-02-22T09:31:00Z</time>
      </trkpt>
      <trkpt lat="38.9861860" lon="1.3003880">
        <ele>21.8</ele>
        <time>2020-02-22T09:31:01Z</time>
      </trkpt>
      <trkpt lat="38.9861800" lon="1.3003220">
        <ele>21.6</ele>
        <time>2020-02-22T09:31:02Z</time>
      </trkpt>
      <trkpt lat="38.9861820" lon="1.3002480">
        <ele>21.3</ele>
        <time>2020-02-22T09:31:03Z</time>
      </trkpt>
      <trkpt lat="38.9861830" lon="1.3001770">
        <ele>21.0</ele>
        <time>2020-02-22T09:31:04Z</time>
      </trkpt>
      <trkpt lat="38.9861840" lon="1.3001080">
        <ele>20.7</ele>
        <time>2020-02-22T09:31:05Z</time>
      </trkpt>
      <trkpt lat="38.9861840" lon="1.3000440">
        <ele>20.5</ele>
        <time>2020-02-22T09:31:06Z</time>
      </trkpt>
      <trkpt lat="38.9861820" lon="1.2999810">
        <ele>20.2</ele>
        <time>2020-02-22T09:31:07Z</time>
      </trkpt>
      <trkpt lat="38.9861790" lon="1.2999100">
        <ele>19.9</ele>
        <time>2020-02-22T09:31:08Z</time>
      </trkpt>
      <trkpt lat="38.9861770" lon="1.2998430">
        <ele>19.6</ele>
        <time>2020-02-22T09:31:09Z</time>
      </trkpt>
      <trkpt lat="38.9861650" lon="1.2997600">
        <ele>19.2</ele>
        <time>2020-02-22T09:31:10Z</time>
      </trkpt>
      <trkpt lat="38.9861540" lon="1.2996890">
        <ele>18.8</ele>
        <time>2020-02-22T09:31:11Z</time>
      </trkpt>
      <trkpt lat="38.9861480" lon="1.2996140">
        <ele>18.4</ele>
        <time>2020-02-22T09:31:12Z</time>
      </trkpt>
      <trkpt lat="38.9861390" lon="1.2995400">
        <ele>17.9</ele>
        <time>2020-02-22T09:31:13Z</time>
      </trkpt>
      <trkpt lat="38.9861310" lon="1.2994640">
        <ele>17.4</ele>
        <time>2020-02-22T09:31:14Z</time>
      </trkpt>
      <trkpt lat="38.9861190" lon="1.2993870">
        <ele>16.8</ele>
        <time>2020-02-22T09:31:15Z</time>
      </trkpt>
      <trkpt lat="38.9861080" lon="1.2993120">
        <ele>16.3</ele>
        <time>2020-02-22T09:31:16Z</time>
      </trkpt>
      <trkpt lat="38.9860990" lon="1.2992330">
        <ele>15.8</ele>
        <time>2020-02-22T09:31:17Z</time>
      </trkpt>
      <trkpt lat="38.9860870" lon="1.2991580">
        <ele>15.3</ele>
        <time>2020-02-22T09:31:18Z</time>
      </trkpt>
      <trkpt lat="38.9860800" lon="1.2990910">
        <ele>14.9</ele>
        <time>2020-02-22T09:31:19Z</time>
      </trkpt>
      <trkpt lat="38.9860830" lon="1.2990200">
        <ele>14.4</ele>
        <time>2020-02-22T09:31:20Z</time>
      </trkpt>
      <trkpt lat="38.9860930" lon="1.2989390">
        <ele>14.2</ele>
        <time>2020-02-22T09:31:21Z</time>
      </trkpt>
      <trkpt lat="38.9860990" lon="1.2988580">
        <ele>13.9</ele>
        <time>2020-02-22T09:31:22Z</time>
      </trkpt>
      <trkpt lat="38.9860980" lon="1.2987860">
        <ele>13.7</ele>
        <time>2020-02-22T09:31:23Z</time>
      </trkpt>
      <trkpt lat="38.9860850" lon="1.2987380">
        <ele>13.5</ele>
        <time>2020-02-22T09:31:24Z</time>
      </trkpt>
      <trkpt lat="38.9860690" lon="1.2987070">
        <ele>13.4</ele>
        <time>2020-02-22T09:31:25Z</time>
      </trkpt>
      <trkpt lat="38.9860590" lon="1.2986620">
        <ele>13.2</ele>
        <time>2020-02-22T09:31:26Z</time>
      </trkpt>
      <trkpt lat="38.9860600" lon="1.2986460">
        <ele>13.2</ele>
        <time>2020-02-22T09:31:27Z</time>
      </trkpt>
      <trkpt lat="38.9860800" lon="1.2986030">
        <ele>13.1</ele>
        <time>2020-02-22T09:31:28Z</time>
      </trkpt>
      <trkpt lat="38.9860880" lon="1.2985860">
        <ele>13.1</ele>
        <time>2020-02-22T09:31:29Z</time>
      </trkpt>
      <trkpt lat="38.9861130" lon="1.2985490">
        <ele>13.0</ele>
        <time>2020-02-22T09:31:30Z</time>
      </trkpt>
      <trkpt lat="38.9861280" lon="1.2985000">
        <ele>12.9</ele>
        <time>2020-02-22T09:31:31Z</time>
      </trkpt>
      <trkpt lat="38.9861450" lon="1.2984570">
        <ele>12.8</ele>
        <time>2020-02-22T09:31:32Z</time>
      </trkpt>
      <trkpt lat="38.9861610" lon="1.2984070">
        <ele>12.7</ele>
        <time>2020-02-22T09:31:33Z</time>
      </trkpt>
      <trkpt lat="38.9861820" lon="1.2983500">
        <ele>12.6</ele>
        <time>2020-02-22T09:31:34Z</time>
      </trkpt>
      <trkpt lat="38.9862020" lon="1.2982880">
        <ele>12.5</ele>
        <time>2020-02-22T09:31:35Z</time>
      </trkpt>
      <trkpt lat="38.9862210" lon="1.2982290">
        <ele>12.4</ele>
        <time>2020-02-22T09:31:36Z</time>
      </trkpt>
      <trkpt lat="38.9862370" lon="1.2981670">
        <ele>12.3</ele>
        <time>2020-02-22T09:31:37Z</time>
      </trkpt>
      <trkpt lat="38.9862560" lon="1.2981090">
        <ele>12.2</ele>
        <time>2020-02-22T09:31:38Z</time>
      </trkpt>
      <trkpt lat="38.9862750" lon="1.2980540">
        <ele>12.1</ele>
        <time>2020-02-22T09:31:39Z</time>
      </trkpt>
      <trkpt lat="38.9862990" lon="1.2979910">
        <ele>12.0</ele>
        <time>2020-02-22T09:31:40Z</time>
      </trkpt>
      <trkpt lat="38.9863160" lon="1.2979310">
        <ele>11.9</ele>
        <time>2020-02-22T09:31:41Z</time>
      </trkpt>
      <trkpt lat="38.9863340" lon="1.2978710">
        <ele>11.9</ele>
        <time>2020-02-22T09:31:42Z</time>
      </trkpt>
      <trkpt lat="38.9863560" lon="1.2978160">
        <ele>11.9</ele>
        <time>2020-02-22T09:31:43Z</time>
      </trkpt>
      <trkpt lat="38.9863870" lon="1.2977600">
        <ele>11.8</ele>
        <time>2020-02-22T09:31:44Z</time>
      </trkpt>
      <trkpt lat="38.9864120" lon="1.2976970">
        <ele>11.7</ele>
        <time>2020-02-22T09:31:45Z</time>
      </trkpt>
      <trkpt lat="38.9864350" lon="1.2976360">
        <ele>11.7</ele>
        <time>2020-02-22T09:31:46Z</time>
      </trkpt>
      <trkpt lat="38.9864600" lon="1.2975720">
        <ele>11.6</ele>
        <time>2020-02-22T09:31:47Z</time>
      </trkpt>
      <trkpt lat="38.9864820" lon="1.2975090">
        <ele>11.6</ele>
        <time>2020-02-22T09:31:48Z</time>
      </trkpt>
      <trkpt lat="38.9865070" lon="1.2974560">
        <ele>11.6</ele>
        <time>2020-02-22T09:31:49Z</time>
      </trkpt>
      <trkpt lat="38.9865360" lon="1.2973970">
        <ele>11.5</ele>
        <time>2020-02-22T09:31:50Z</time>
      </trkpt>
      <trkpt lat="38.9865630" lon="1.2973260">
        <ele>11.5</ele>
        <time>2020-02-22T09:31:51Z</time>
      </trkpt>
      <trkpt lat="38.9865910" lon="1.2972590">
        <ele>11.5</ele>
        <time>2020-02-22T09:31:52Z</time>
      </trkpt>
      <trkpt lat="38.9866190" lon="1.2972010">
        <ele>11.4</ele>
        <time>2020-02-22T09:31:53Z</time>
      </trkpt>
      <trkpt lat="38.9866490" lon="1.2971520">
        <ele>11.4</ele>
        <time>2020-02-22T09:31:54Z</time>
      </trkpt>
      <trkpt lat="38.9866780" lon="1.2971010">
        <ele>11.3</ele>
        <time>2020-02-22T09:31:55Z</time>
      </trkpt>
      <trkpt lat="38.9867090" lon="1.2970420">
        <ele>11.3</ele>
        <time>2020-02-22T09:31:56Z</time>
      </trkpt>
      <trkpt lat="38.9867420" lon="1.2969820">
        <ele>11.3</ele>
        <time>2020-02-22T09:31:57Z</time>
      </trkpt>
      <trkpt lat="38.9867750" lon="1.2969280">
        <ele>11.3</ele>
        <time>2020-02-22T09:31:58Z</time>
      </trkpt>
      <trkpt lat="38.9868090" lon="1.2968760">
        <ele>11.2</ele>
        <time>2020-02-22T09:31:59Z</time>
      </trkpt>
      <trkpt lat="38.9868400" lon="1.2968260">
        <ele>11.2</ele>
        <time>2020-02-22T09:32:00Z</time>
      </trkpt>
      <trkpt lat="38.9868700" lon="1.2967780">
        <ele>11.2</ele>
        <time>2020-02-22T09:32:01Z</time>
      </trkpt>
      <trkpt lat="38.9869000" lon="1.2967280">
        <ele>11.2</ele>
        <time>2020-02-22T09:32:02Z</time>
      </trkpt>
      <trkpt lat="38.9869320" lon="1.2966820">
        <ele>11.2</ele>
        <time>2020-02-22T09:32:03Z</time>
      </trkpt>
      <trkpt lat="38.9869590" lon="1.2966260">
        <ele>11.2</ele>
        <time>2020-02-22T09:32:04Z</time>
      </trkpt>
      <trkpt lat="38.9869900" lon="1.2965630">
        <ele>11.3</ele>
        <time>2020-02-22T09:32:05Z</time>
      </trkpt>
      <trkpt lat="38.9870200" lon="1.2965130">
        <ele>11.3</ele>
        <time>2020-02-22T09:32:06Z</time>
      </trkpt>
      <trkpt lat="38.9870520" lon="1.2964620">
        <ele>11.4</ele>
        <time>2020-02-22T09:32:07Z</time>
      </trkpt>
      <trkpt lat="38.9870870" lon="1.2964050">
        <ele>11.4</ele>
        <time>2020-02-22T09:32:08Z</time>
      </trkpt>
      <trkpt lat="38.9871200" lon="1.2963500">
        <ele>11.5</ele>
        <time>2020-02-22T09:32:09Z</time>
      </trkpt>
      <trkpt lat="38.9871500" lon="1.2962960">
        <ele>11.3</ele>
        <time>2020-02-22T09:32:10Z</time>
      </trkpt>
      <trkpt lat="38.9871790" lon="1.2962400">
        <ele>11.1</ele>
        <time>2020-02-22T09:32:11Z</time>
      </trkpt>
      <trkpt lat="38.9872100" lon="1.2961890">
        <ele>10.9</ele>
        <time>2020-02-22T09:32:12Z</time>
      </trkpt>
      <trkpt lat="38.9872380" lon="1.2961300">
        <ele>10.6</ele>
        <time>2020-02-22T09:32:13Z</time>
      </trkpt>
      <trkpt lat="38.9872670" lon="1.2960750">
        <ele>10.4</ele>
        <time>2020-02-22T09:32:14Z</time>
      </trkpt>
      <trkpt lat="38.9873000" lon="1.2960180">
        <ele>10.2</ele>
        <time>2020-02-22T09:32:15Z</time>
      </trkpt>
      <trkpt lat="38.9873330" lon="1.2959610">
        <ele>9.9</ele>
        <time>2020-02-22T09:32:16Z</time>
      </trkpt>
      <trkpt lat="38.9873670" lon="1.2959070">
        <ele>9.8</ele>
        <time>2020-02-22T09:32:17Z</time>
      </trkpt>
      <trkpt lat="38.9873960" lon="1.2958520">
        <ele>9.7</ele>
        <time>2020-02-22T09:32:18Z</time>
      </trkpt>
      <trkpt lat="38.9874260" lon="1.2957930">
        <ele>9.6</ele>
        <time>2020-02-22T09:32:19Z</time>
      </trkpt>
      <trkpt lat="38.9874520" lon="1.2957430">
        <ele>9.6</ele>
        <time>2020-02-22T09:32:20Z</time>
      </trkpt>
      <trkpt lat="38.9874790" lon="1.2956910">
        <ele>9.6</ele>
        <time>2020-02-22T09:32:21Z</time>
      </trkpt>
      <trkpt lat="38.9875050" lon="1.2956440">
        <ele>9.6</ele>
        <time>2020-02-22T09:32:22Z</time>
      </trkpt>
      <trkpt lat="38.9875410" lon="1.2955990">
        <ele>9.5</ele>
        <time>2020-02-22T09:32:23Z</time>
      </trkpt>
      <trkpt lat="38.9875790" lon="1.2955530">
        <ele>9.5</ele>
        <time>2020-02-22T09:32:24Z</time>
      </trkpt>
      <trkpt lat="38.9876190" lon="1.2955070">
        <ele>9.4</ele>
        <time>2020-02-22T09:32:25Z</time>
      </trkpt>
      <trkpt lat="38.9876580" lon="1.2954640">
        <ele>9.4</ele>
        <time>2020-02-22T09:32:26Z</time>
      </trkpt>
      <trkpt lat="38.9876970" lon="1.2954200">
        <ele>9.4</ele>
        <time>2020-02-22T09:32:27Z</time>
      </trkpt>
      <trkpt lat="38.9877360" lon="1.2953720">
        <ele>9.3</ele>
        <time>2020-02-22T09:32:28Z</time>
      </trkpt>
      <trkpt lat="38.9877760" lon="1.2953320">
        <ele>9.3</ele>
        <time>2020-02-22T09:32:29Z</time>
      </trkpt>
      <trkpt lat="38.9878070" lon="1.2952820">
        <ele>9.3</ele>
        <time>2020-02-22T09:32:30Z</time>
      </trkpt>
      <trkpt lat="38.9878420" lon="1.2952460">
        <ele>9.2</ele>
        <time>2020-02-22T09:32:31Z</time>
      </trkpt>
      <trkpt lat="38.9878750" lon="1.2952070">
        <ele>9.2</ele>
        <time>2020-02-22T09:32:32Z</time>
      </trkpt>
      <trkpt lat="38.9879070" lon="1.2951690">
        <ele>9.2</ele>
        <time>2020-02-22T09:32:33Z</time>
      </trkpt>
      <trkpt lat="38.9879420" lon="1.2951400">
        <ele>9.1</ele>
        <time>2020-02-22T09:32:34Z</time>
      </trkpt>
      <trkpt lat="38.9879790" lon="1.2950950">
        <ele>9.1</ele>
        <time>2020-02-22T09:32:35Z</time>
      </trkpt>
      <trkpt lat="38.9880100" lon="1.2950500">
        <ele>9.1</ele>
        <time>2020-02-22T09:32:36Z</time>
      </trkpt>
      <trkpt lat="38.9880430" lon="1.2950100">
        <ele>9.2</ele>
        <time>2020-02-22T09:32:37Z</time>
      </trkpt>
      <trkpt lat="38.9880740" lon="1.2949700">
        <ele>9.2</ele>
        <time>2020-02-22T09:32:38Z</time>
      </trkpt>
      <trkpt lat="38.9881040" lon="1.2949400">
        <ele>9.3</ele>
        <time>2020-02-22T09:32:39Z</time>
      </trkpt>
      <trkpt lat="38.9881340" lon="1.2949030">
        <ele>9.4</ele>
        <time>2020-02-22T09:32:40Z</time>
      </trkpt>
      <trkpt lat="38.9881570" lon="1.2948620">
        <ele>9.5</ele>
        <time>2020-02-22T09:32:41Z</time>
      </trkpt>
      <trkpt lat="38.9881830" lon="1.2948280">
        <ele>9.6</ele>
        <time>2020-02-22T09:32:42Z</time>
      </trkpt>
      <trkpt lat="38.9882100" lon="1.2947940">
        <ele>9.6</ele>
        <time>2020-02-22T09:32:43Z</time>
      </trkpt>
      <trkpt lat="38.9882470" lon="1.2947720">
        <ele>9.7</ele>
        <time>2020-02-22T09:32:44Z</time>
      </trkpt>
      <trkpt lat="38.9882810" lon="1.2947620">
        <ele>9.9</ele>
        <time>2020-02-22T09:32:45Z</time>
      </trkpt>
      <trkpt lat="38.9883090" lon="1.2947740">
        <ele>10.0</ele>
        <time>2020-02-22T09:32:46Z</time>
      </trkpt>
      <trkpt lat="38.9883460" lon="1.2947920">
        <ele>10.1</ele>
        <time>2020-02-22T09:32:47Z</time>
      </trkpt>
      <trkpt lat="38.9883570" lon="1.2947980">
        <ele>10.1</ele>
        <time>2020-02-22T09:32:48Z</time>
      </trkpt>
      <trkpt lat="38.9883920" lon="1.2947960">
        <ele>10.2</ele>
        <time>2020-02-22T09:32:49Z</time>
      </trkpt>
      <trkpt lat="38.9884060" lon="1.2947980">
        <ele>10.3</ele>
        <time>2020-02-22T09:32:50Z</time>
      </trkpt>
      <trkpt lat="38.9884360" lon="1.2947930">
        <ele>10.3</ele>
        <time>2020-02-22T09:32:51Z</time>
      </trkpt>
      <trkpt lat="38.9884540" lon="1.2947910">
        <ele>10.4</ele>
        <time>2020-02-22T09:32:52Z</time>
      </trkpt>
      <trkpt lat="38.9884720" lon="1.2947940">
        <ele>10.4</ele>
        <time>2020-02-22T09:32:53Z</time>
      </trkpt>
      <trkpt lat="38.9885060" lon="1.2947930">
        <ele>10.5</ele>
        <time>2020-02-22T09:32:54Z</time>
      </trkpt>
      <trkpt lat="38.9885190" lon="1.2947950">
        <ele>10.5</ele>
        <time>2020-02-22T09:32:55Z</time>
      </trkpt>
      <trkpt lat="38.9885460" lon="1.2948000">
        <ele>10.6</ele>
        <time>2020-02-22T09:32:56Z</time>
      </trkpt>
      <trkpt lat="38.9885790" lon="1.2947970">
        <ele>10.7</ele>
        <time>2020-02-22T09:32:57Z</time>
      </trkpt>
      <trkpt lat="38.9885920" lon="1.2947950">
        <ele>10.8</ele>
        <time>2020-02-22T09:32:58Z</time>
      </trkpt>
      <trkpt lat="38.9886280" lon="1.2948070">
        <ele>11.0</ele>
        <time>2020-02-22T09:32:59Z</time>
      </trkpt>
      <trkpt lat="38.9886420" lon="1.2948200">
        <ele>11.1</ele>
        <time>2020-02-22T09:33:00Z</time>
      </trkpt>
      <trkpt lat="38.9886550" lon="1.2948200">
        <ele>11.2</ele>
        <time>2020-02-22T09:33:01Z</time>
      </trkpt>
      <trkpt lat="38.9886770" lon="1.2948170">
        <ele>11.3</ele>
        <time>2020-02-22T09:33:02Z</time>
      </trkpt>
      <trkpt lat="38.9887210" lon="1.2948120">
        <ele>11.6</ele>
        <time>2020-02-22T09:33:03Z</time>
      </trkpt>
      <trkpt lat="38.9887380" lon="1.2948060">
        <ele>11.7</ele>
        <time>2020-02-22T09:33:04Z</time>
      </trkpt>
      <trkpt lat="38.9887740" lon="1.2948210">
        <ele>12.0</ele>
        <time>2020-02-22T09:33:05Z</time>
      </trkpt>
      <trkpt lat="38.9887870" lon="1.2948250">
        <ele>12.1</ele>
        <time>2020-02-22T09:33:06Z</time>
      </trkpt>
      <trkpt lat="38.9888250" lon="1.2948190">
        <ele>12.3</ele>
        <time>2020-02-22T09:33:07Z</time>
      </trkpt>
      <trkpt lat="38.9888390" lon="1.2948150">
        <ele>12.4</ele>
        <time>2020-02-22T09:33:08Z</time>
      </trkpt>
      <trkpt lat="38.9888670" lon="1.2948100">
        <ele>12.6</ele>
        <time>2020-02-22T09:33:09Z</time>
      </trkpt>
      <trkpt lat="38.9888940" lon="1.2948020">
        <ele>12.7</ele>
        <time>2020-02-22T09:33:10Z</time>
      </trkpt>
      <trkpt lat="38.9889220" lon="1.2948020">
        <ele>12.9</ele>
        <time>2020-02-22T09:33:11Z</time>
      </trkpt>
      <trkpt lat="38.9889570" lon="1.2947990">
        <ele>13.1</ele>
        <time>2020-02-22T09:33:12Z</time>
      </trkpt>
      <trkpt lat="38.9889690" lon="1.2947980">
        <ele>13.2</ele>
        <time>2020-02-22T09:33:13Z</time>
      </trkpt>
      <trkpt lat="38.9889980" lon="1.2948070">
        <ele>13.4</ele>
        <time>2020-02-22T09:33:14Z</time>
      </trkpt>
      <trkpt lat="38.9890120" lon="1.2948060">
        <ele>13.5</ele>
        <time>2020-02-22T09:33:15Z</time>
      </trkpt>
      <trkpt lat="38.9890290" lon="1.2948020">
        <ele>13.7</ele>
        <time>2020-02-22T09:33:16Z</time>
      </trkpt>
      <trkpt lat="38.9890650" lon="1.2948060">
        <ele>13.9</ele>
        <time>2020-02-22T09:33:17Z</time>
      </trkpt>
      <trkpt lat="38.9890750" lon="1.2948050">
        <ele>14.0</ele>
        <time>2020-02-22T09:33:18Z</time>
      </trkpt>
      <trkpt lat="38.9890930" lon="1.2948030">
        <ele>14.1</ele>
        <time>2020-02-22T09:33:19Z</time>
      </trkpt>
      <trkpt lat="38.9891090" lon="1.2947980">
        <ele>14.2</ele>
        <time>2020-02-22T09:33:20Z</time>
      </trkpt>
      <trkpt lat="38.9891210" lon="1.2947960">
        <ele>14.3</ele>
        <time>2020-02-22T09:33:21Z</time>
      </trkpt>
      <trkpt lat="38.9891430" lon="1.2947950">
        <ele>14.5</ele>
        <time>2020-02-22T09:33:22Z</time>
      </trkpt>
      <trkpt lat="38.9891730" lon="1.2947880">
        <ele>14.7</ele>
        <time>2020-02-22T09:33:23Z</time>
      </trkpt>
      <trkpt lat="38.9891840" lon="1.2947860">
        <ele>14.8</ele>
        <time>2020-02-22T09:33:24Z</time>
      </trkpt>
      <trkpt lat="38.9892120" lon="1.2947780">
        <ele>15.0</ele>
        <time>2020-02-22T09:33:25Z</time>
      </trkpt>
      <trkpt lat="38.9892410" lon="1.2947890">
        <ele>15.3</ele>
        <time>2020-02-22T09:33:26Z</time>
      </trkpt>
      <trkpt lat="38.9892740" lon="1.2947850">
        <ele>15.6</ele>
        <time>2020-02-22T09:33:27Z</time>
      </trkpt>
      <trkpt lat="38.9892830" lon="1.2947810">
        <ele>15.7</ele>
        <time>2020-02-22T09:33:28Z</time>
      </trkpt>
      <trkpt lat="38.9892950" lon="1.2947750">
        <ele>15.8</ele>
        <time>2020-02-22T09:33:29Z</time>
      </trkpt>
      <trkpt lat="38.9893160" lon="1.2947680">
        <ele>16.0</ele>
        <time>2020-02-22T09:33:30Z</time>
      </trkpt>
      <trkpt lat="38.9893430" lon="1.2947680">
        <ele>16.3</ele>
        <time>2020-02-22T09:33:31Z</time>
      </trkpt>
      <trkpt lat="38.9893790" lon="1.2947800">
        <ele>16.6</ele>
        <time>2020-02-22T09:33:32Z</time>
      </trkpt>
      <trkpt lat="38.9894070" lon="1.2947740">
        <ele>16.8</ele>
        <time>2020-02-22T09:33:33Z</time>
      </trkpt>
      <trkpt lat="38.9894360" lon="1.2947760">
        <ele>17.0</ele>
        <time>2020-02-22T09:33:34Z</time>
      </trkpt>
      <trkpt lat="38.9894460" lon="1.2947790">
        <ele>17.1</ele>
        <time>2020-02-22T09:33:35Z</time>
      </trkpt>
      <trkpt lat="38.9894730" lon="1.2947750">
        <ele>17.3</ele>
        <time>2020-02-22T09:33:36Z</time>
      </trkpt>
      <trkpt lat="38.9895100" lon="1.2947770">
        <ele>17.6</ele>
        <time>2020-02-22T09:33:37Z</time>
      </trkpt>
      <trkpt lat="38.9895200" lon="1.2947760">
        <ele>17.7</ele>
        <time>2020-02-22T09:33:38Z</time>
      </trkpt>
      <trkpt lat="38.9895500" lon="1.2947750">
        <ele>17.9</ele>
        <time>2020-02-22T09:33:39Z</time>
      </trkpt>
      <trkpt lat="38.9895620" lon="1.2947810">
        <ele>18.1</ele>
        <time>2020-02-22T09:33:40Z</time>
      </trkpt>
      <trkpt lat="38.9896010" lon="1.2947810">
        <ele>18.4</ele>
        <time>2020-02-22T09:33:41Z</time>
      </trkpt>
      <trkpt lat="38.9896130" lon="1.2947800">
        <ele>18.5</ele>
        <time>2020-02-22T09:33:42Z</time>
      </trkpt>
      <trkpt lat="38.9896430" lon="1.2947740">
        <ele>18.8</ele>
        <time>2020-02-22T09:33:43Z</time>
      </trkpt>
      <trkpt lat="38.9896740" lon="1.2947700">
        <ele>18.9</ele>
        <time>2020-02-22T09:33:44Z</time>
      </trkpt>
      <trkpt lat="38.9897030" lon="1.2947700">
        <ele>19.1</ele>
        <time>2020-02-22T09:33:45Z</time>
      </trkpt>
      <trkpt lat="38.9897300" lon="1.2947690">
        <ele>19.3</ele>
        <time>2020-02-22T09:33:46Z</time>
      </trkpt>
      <trkpt lat="38.9897650" lon="1.2947820">
        <ele>19.4</ele>
        <time>2020-02-22T09:33:47Z</time>
      </trkpt>
      <trkpt lat="38.9898050" lon="1.2947700">
        <ele>19.6</ele>
        <time>2020-02-22T09:33:48Z</time>
      </trkpt>
      <trkpt lat="38.9898200" lon="1.2947710">
        <ele>19.6</ele>
        <time>2020-02-22T09:33:49Z</time>
      </trkpt>
      <trkpt lat="38.9898480" lon="1.2947650">
        <ele>19.7</ele>
        <time>2020-02-22T09:33:50Z</time>
      </trkpt>
      <trkpt lat="38.9898810" lon="1.2947730">
        <ele>19.9</ele>
        <time>2020-02-22T09:33:51Z</time>
      </trkpt>
      <trkpt lat="38.9899150" lon="1.2947640">
        <ele>20.0</ele>
        <time>2020-02-22T09:33:52Z</time>
      </trkpt>
      <trkpt lat="38.9899470" lon="1.2947500">
        <ele>20.1</ele>
        <time>2020-02-22T09:33:53Z</time>
      </trkpt>
      <trkpt lat="38.9899870" lon="1.2947420">
        <ele>20.2</ele>
        <time>2020-02-22T09:33:54Z</time>
      </trkpt>
      <trkpt lat="38.9900020" lon="1.2947400">
        <ele>20.2</ele>
        <time>2020-02-22T09:33:55Z</time>
      </trkpt>
      <trkpt lat="38.9900350" lon="1.2947480">
        <ele>20.3</ele>
        <time>2020-02-22T09:33:56Z</time>
      </trkpt>
      <trkpt lat="38.9900700" lon="1.2947480">
        <ele>20.4</ele>
        <time>2020-02-22T09:33:57Z</time>
      </trkpt>
      <trkpt lat="38.9901090" lon="1.2947590">
        <ele>20.5</ele>
        <time>2020-02-22T09:33:58Z</time>
      </trkpt>
      <trkpt lat="38.9901250" lon="1.2947640">
        <ele>20.5</ele>
        <time>2020-02-22T09:33:59Z</time>
      </trkpt>
      <trkpt lat="38.9901540" lon="1.2947800">
        <ele>20.6</ele>
        <time>2020-02-22T09:34:00Z</time>
      </trkpt>
      <trkpt lat="38.9901830" lon="1.2947860">
        <ele>20.7</ele>
        <time>2020-02-22T09:34:01Z</time>
      </trkpt>
      <trkpt lat="38.9902100" lon="1.2948000">
        <ele>20.8</ele>
        <time>2020-02-22T09:34:02Z</time>
      </trkpt>
      <trkpt lat="38.9902450" lon="1.2948220">
        <ele>20.9</ele>
        <time>2020-02-22T09:34:03Z</time>
      </trkpt>
      <trkpt lat="38.9902800" lon="1.2948340">
        <ele>21.0</ele>
        <time>2020-02-22T09:34:04Z</time>
      </trkpt>
      <trkpt lat="38.9903140" lon="1.2948520">
        <ele>21.1</ele>
        <time>2020-02-22T09:34:05Z</time>
      </trkpt>
      <trkpt lat="38.9903390" lon="1.2948700">
        <ele>21.2</ele>
        <time>2020-02-22T09:34:06Z</time>
      </trkpt>
      <trkpt lat="38.9903600" lon="1.2948950">
        <ele>21.6</ele>
        <time>2020-02-22T09:34:07Z</time>
      </trkpt>
      <trkpt lat="38.9903780" lon="1.2949390">
        <ele>21.7</ele>
        <time>2020-02-22T09:34:08Z</time>
      </trkpt>
      <trkpt lat="38.9903840" lon="1.2949550">
        <ele>21.8</ele>
        <time>2020-02-22T09:34:09Z</time>
      </trkpt>
      <trkpt lat="38.9904090" lon="1.2949940">
        <ele>21.9</ele>
        <time>2020-02-22T09:34:10Z</time>
      </trkpt>
      <trkpt lat="38.9904160" lon="1.2950090">
        <ele>21.9</ele>
        <time>2020-02-22T09:34:11Z</time>
      </trkpt>
      <trkpt lat="38.9904410" lon="1.2950400">
        <ele>22.0</ele>
        <time>2020-02-22T09:34:12Z</time>
      </trkpt>
      <trkpt lat="38.9904490" lon="1.2950490">
        <ele>22.3</ele>
        <time>2020-02-22T09:34:13Z</time>
      </trkpt>
      <trkpt lat="38.9904710" lon="1.2950880">
        <ele>22.5</ele>
        <time>2020-02-22T09:34:14Z</time>
      </trkpt>
      <trkpt lat="38.9904750" lon="1.2951020">
        <ele>22.6</ele>
        <time>2020-02-22T09:34:15Z</time>
      </trkpt>
      <trkpt lat="38.9904840" lon="1.2951370">
        <ele>22.7</ele>
        <time>2020-02-22T09:34:16Z</time>
      </trkpt>
      <trkpt lat="38.9904850" lon="1.2951800">
        <ele>22.9</ele>
        <time>2020-02-22T09:34:17Z</time>
      </trkpt>
      <trkpt lat="38.9904910" lon="1.2952170">
        <ele>23.0</ele>
        <time>2020-02-22T09:34:18Z</time>
      </trkpt>
      <trkpt lat="38.9904990" lon="1.2952530">
        <ele>23.1</ele>
        <time>2020-02-22T09:34:19Z</time>
      </trkpt>
      <trkpt lat="38.9905200" lon="1.2952930">
        <ele>23.3</ele>
        <time>2020-02-22T09:34:20Z</time>
      </trkpt>
      <trkpt lat="38.9905310" lon="1.2953080">
        <ele>23.3</ele>
        <time>2020-02-22T09:34:21Z</time>
      </trkpt>
      <trkpt lat="38.9905470" lon="1.2953370">
        <ele>23.4</ele>
        <time>2020-02-22T09:34:22Z</time>
      </trkpt>
      <trkpt lat="38.9905640" lon="1.2953760">
        <ele>23.6</ele>
        <time>2020-02-22T09:34:23Z</time>
      </trkpt>
      <trkpt lat="38.9905690" lon="1.2953900">
        <ele>23.7</ele>
        <time>2020-02-22T09:34:24Z</time>
      </trkpt>
      <trkpt lat="38.9905840" lon="1.2954310">
        <ele>23.8</ele>
        <time>2020-02-22T09:34:25Z</time>
      </trkpt>
      <trkpt lat="38.9906020" lon="1.2954790">
        <ele>24.1</ele>
        <time>2020-02-22T09:34:26Z</time>
      </trkpt>
      <trkpt lat="38.9906070" lon="1.2954970">
        <ele>24.1</ele>
        <time>2020-02-22T09:34:27Z</time>
      </trkpt>
      <trkpt lat="38.9906220" lon="1.2955460">
        <ele>24.3</ele>
        <time>2020-02-22T09:34:28Z</time>
      </trkpt>
      <trkpt lat="38.9906270" lon="1.2955670">
        <ele>24.4</ele>
        <time>2020-02-22T09:34:29Z</time>
      </trkpt>
      <trkpt lat="38.9906440" lon="1.2956110">
        <ele>24.6</ele>
        <time>2020-02-22T09:34:30Z</time>
      </trkpt>
      <trkpt lat="38.9906490" lon="1.2956260">
        <ele>24.7</ele>
        <time>2020-02-22T09:34:31Z</time>
      </trkpt>
      <trkpt lat="38.9906630" lon="1.2956680">
        <ele>25.0</ele>
        <time>2020-02-22T09:34:32Z</time>
      </trkpt>
      <trkpt lat="38.9906650" lon="1.2956810">
        <ele>25.1</ele>
        <time>2020-02-22T09:34:33Z</time>
      </trkpt>
      <trkpt lat="38.9906800" lon="1.2957230">
        <ele>25.3</ele>
        <time>2020-02-22T09:34:34Z</time>
      </trkpt>
      <trkpt lat="38.9906870" lon="1.2957370">
        <ele>25.4</ele>
        <time>2020-02-22T09:34:35Z</time>
      </trkpt>
      <trkpt lat="38.9907030" lon="1.2957720">
        <ele>25.7</ele>
        <time>2020-02-22T09:34:36Z</time>
      </trkpt>
      <trkpt lat="38.9907070" lon="1.2957820">
        <ele>25.9</ele>
        <time>2020-02-22T09:34:37Z</time>
      </trkpt>
      <trkpt lat="38.9907220" lon="1.2958210">
        <ele>26.2</ele>
        <time>2020-02-22T09:34:38Z</time>
      </trkpt>
      <trkpt lat="38.9907280" lon="1.2958320">
        <ele>26.2</ele>
        <time>2020-02-22T09:34:39Z</time>
      </trkpt>
      <trkpt lat="38.9907470" lon="1.2958650">
        <ele>26.4</ele>
        <time>2020-02-22T09:34:40Z</time>
      </trkpt>
      <trkpt lat="38.9907540" lon="1.2958760">
        <ele>26.5</ele>
        <time>2020-02-22T09:34:41Z</time>
      </trkpt>
      <trkpt lat="38.9907750" lon="1.2959070">
        <ele>26.7</ele>
        <time>2020-02-22T09:34:42Z</time>
      </trkpt>
      <trkpt lat="38.9907900" lon="1.2959510">
        <ele>26.9</ele>
        <time>2020-02-22T09:34:43Z</time>
      </trkpt>
      <trkpt lat="38.9907960" lon="1.2959670">
        <ele>27.0</ele>
        <time>2020-02-22T09:34:44Z</time>
      </trkpt>
      <trkpt lat="38.9908120" lon="1.2959970">
        <ele>27.1</ele>
        <time>2020-02-22T09:34:45Z</time>
      </trkpt>
      <trkpt lat="38.9908220" lon="1.2960300">
        <ele>27.3</ele>
        <time>2020-02-22T09:34:46Z</time>
      </trkpt>
      <trkpt lat="38.9908350" lon="1.2960700">
        <ele>27.5</ele>
        <time>2020-02-22T09:34:47Z</time>
      </trkpt>
      <trkpt lat="38.9908500" lon="1.2961070">
        <ele>27.7</ele>
        <time>2020-02-22T09:34:48Z</time>
      </trkpt>
      <trkpt lat="38.9908550" lon="1.2961180">
        <ele>27.8</ele>
        <time>2020-02-22T09:34:49Z</time>
      </trkpt>
      <trkpt lat="38.9908710" lon="1.2961490">
        <ele>27.9</ele>
        <time>2020-02-22T09:34:50Z</time>
      </trkpt>
      <trkpt lat="38.9908870" lon="1.2961810">
        <ele>28.1</ele>
        <time>2020-02-22T09:34:51Z</time>
      </trkpt>
      <trkpt lat="38.9908900" lon="1.2961950">
        <ele>28.2</ele>
        <time>2020-02-22T09:34:52Z</time>
      </trkpt>
      <trkpt lat="38.9909110" lon="1.2962250">
        <ele>28.5</ele>
        <time>2020-02-22T09:34:53Z</time>
      </trkpt>
      <trkpt lat="38.9909180" lon="1.2962370">
        <ele>28.5</ele>
        <time>2020-02-22T09:34:54Z</time>
      </trkpt>
      <trkpt lat="38.9909460" lon="1.2962740">
        <ele>28.8</ele>
        <time>2020-02-22T09:34:55Z</time>
      </trkpt>
      <trkpt lat="38.9909550" lon="1.2962870">
        <ele>28.9</ele>
        <time>2020-02-22T09:34:56Z</time>
      </trkpt>
      <trkpt lat="38.9909770" lon="1.2963290">
        <ele>29.2</ele>
        <time>2020-02-22T09:34:57Z</time>
      </trkpt>
      <trkpt lat="38.9909860" lon="1.2963430">
        <ele>29.3</ele>
        <time>2020-02-22T09:34:58Z</time>
      </trkpt>
      <trkpt lat="38.9910050" lon="1.2963700">
        <ele>29.5</ele>
        <time>2020-02-22T09:35:00Z</time>
      </trkpt>
      <trkpt lat="38.9910260" lon="1.2963970">
        <ele>29.7</ele>
        <time>2020-02-22T09:35:01Z</time>
      </trkpt>
      <trkpt lat="38.9910500" lon="1.2964260">
        <ele>29.9</ele>
        <time>2020-02-22T09:35:02Z</time>
      </trkpt>
      <trkpt lat="38.9910730" lon="1.2964470">
        <ele>30.1</ele>
        <time>2020-02-22T09:35:03Z</time>
      </trkpt>
      <trkpt lat="38.9911020" lon="1.2964600">
        <ele>30.2</ele>
        <time>2020-02-22T09:35:04Z</time>
      </trkpt>
      <trkpt lat="38.9911320" lon="1.2964750">
        <ele>30.4</ele>
        <time>2020-02-22T09:35:05Z</time>
      </trkpt>
      <trkpt lat="38.9911610" lon="1.2964950">
        <ele>30.6</ele>
        <time>2020-02-22T09:35:06Z</time>
      </trkpt>
      <trkpt lat="38.9911900" lon="1.2965130">
        <ele>30.7</ele>
        <time>2020-02-22T09:35:07Z</time>
      </trkpt>
      <trkpt lat="38.9911980" lon="1.2965230">
        <ele>30.8</ele>
        <time>2020-02-22T09:35:08Z</time>
      </trkpt>
      <trkpt lat="38.9912270" lon="1.2965510">
        <ele>30.9</ele>
        <time>2020-02-22T09:35:09Z</time>
      </trkpt>
      <trkpt lat="38.9912380" lon="1.2965620">
        <ele>31.0</ele>
        <time>2020-02-22T09:35:10Z</time>
      </trkpt>
      <trkpt lat="38.9912640" lon="1.2965800">
        <ele>31.1</ele>
        <time>2020-02-22T09:35:11Z</time>
      </trkpt>
      <trkpt lat="38.9912960" lon="1.2966070">
        <ele>31.2</ele>
        <time>2020-02-22T09:35:12Z</time>
      </trkpt>
      <trkpt lat="38.9913090" lon="1.2966160">
        <ele>31.3</ele>
        <time>2020-02-22T09:35:13Z</time>
      </trkpt>
      <trkpt lat="38.9913370" lon="1.2966390">
        <ele>31.4</ele>
        <time>2020-02-22T09:35:14Z</time>
      </trkpt>
      <trkpt lat="38.9913650" lon="1.2966620">
        <ele>31.5</ele>
        <time>2020-02-22T09:35:15Z</time>
      </trkpt>
      <trkpt lat="38.9913920" lon="1.2966850">
        <ele>31.5</ele>
        <time>2020-02-22T09:35:16Z</time>
      </trkpt>
      <trkpt lat="38.9914200" lon="1.2967140">
        <ele>31.6</ele>
        <time>2020-02-22T09:35:17Z</time>
      </trkpt>
      <trkpt lat="38.9914480" lon="1.2967480">
        <ele>31.7</ele>
        <time>2020-02-22T09:35:18Z</time>
      </trkpt>
      <trkpt lat="38.9914820" lon="1.2967640">
        <ele>31.7</ele>
        <time>2020-02-22T09:35:19Z</time>
      </trkpt>
      <trkpt lat="38.9915150" lon="1.2967840">
        <ele>31.8</ele>
        <time>2020-02-22T09:35:20Z</time>
      </trkpt>
      <trkpt lat="38.9915460" lon="1.2968140">
        <ele>31.8</ele>
        <time>2020-02-22T09:35:21Z</time>
      </trkpt>
      <trkpt lat="38.9915840" lon="1.2968360">
        <ele>31.9</ele>
        <time>2020-02-22T09:35:22Z</time>
      </trkpt>
      <trkpt lat="38.9916160" lon="1.2968640">
        <ele>32.0</ele>
        <time>2020-02-22T09:35:23Z</time>
      </trkpt>
      <trkpt lat="38.9916470" lon="1.2968890">
        <ele>32.0</ele>
        <time>2020-02-22T09:35:24Z</time>
      </trkpt>
      <trkpt lat="38.9916750" lon="1.2969000">
        <ele>32.1</ele>
        <time>2020-02-22T09:35:25Z</time>
      </trkpt>
      <trkpt lat="38.9917090" lon="1.2969210">
        <ele>32.2</ele>
        <time>2020-02-22T09:35:26Z</time>
      </trkpt>
      <trkpt lat="38.9917330" lon="1.2969490">
        <ele>32.3</ele>
        <time>2020-02-22T09:35:27Z</time>
      </trkpt>
      <trkpt lat="38.9917580" lon="1.2969690">
        <ele>32.4</ele>
        <time>2020-02-22T09:35:28Z</time>
      </trkpt>
      <trkpt lat="38.9917830" lon="1.2969900">
        <ele>32.5</ele>
        <time>2020-02-22T09:35:29Z</time>
      </trkpt>
      <trkpt lat="38.9918090" lon="1.2970190">
        <ele>32.6</ele>
        <time>2020-02-22T09:35:30Z</time>
      </trkpt>
      <trkpt lat="38.9918350" lon="1.2970520">
        <ele>32.6</ele>
        <time>2020-02-22T09:35:31Z</time>
      </trkpt>
      <trkpt lat="38.9918640" lon="1.2970730">
        <ele>32.7</ele>
        <time>2020-02-22T09:35:32Z</time>
      </trkpt>
      <trkpt lat="38.9918910" lon="1.2970950">
        <ele>32.7</ele>
        <time>2020-02-22T09:35:33Z</time>
      </trkpt>
      <trkpt lat="38.9919550" lon="1.2971350">
        <ele>32.8</ele>
        <time>2020-02-22T09:35:34Z</time>
      </trkpt>
      <trkpt lat="38.9919910" lon="1.2971660">
        <ele>32.8</ele>
        <time>2020-02-22T09:35:35Z</time>
      </trkpt>
      <trkpt lat="38.9920140" lon="1.2972000">
        <ele>32.8</ele>
        <time>2020-02-22T09:35:36Z</time>
      </trkpt>
      <trkpt lat="38.9920430" lon="1.2972300">
        <ele>32.9</ele>
        <time>2020-02-22T09:35:37Z</time>
      </trkpt>
      <trkpt lat="38.9920760" lon="1.2972610">
        <ele>32.9</ele>
        <time>2020-02-22T09:35:38Z</time>
      </trkpt>
      <trkpt lat="38.9921120" lon="1.2972890">
        <ele>33.1</ele>
        <time>2020-02-22T09:35:39Z</time>
      </trkpt>
      <trkpt lat="38.9921400" lon="1.2973150">
        <ele>33.2</ele>
        <time>2020-02-22T09:35:40Z</time>
      </trkpt>
      <trkpt lat="38.9921690" lon="1.2973460">
        <ele>33.2</ele>
        <time>2020-02-22T09:35:41Z</time>
      </trkpt>
      <trkpt lat="38.9921940" lon="1.2973750">
        <ele>33.3</ele>
        <time>2020-02-22T09:35:42Z</time>
      </trkpt>
      <trkpt lat="38.9922160" lon="1.2974170">
        <ele>33.4</ele>
        <time>2020-02-22T09:35:43Z</time>
      </trkpt>
      <trkpt lat="38.9922380" lon="1.2974540">
        <ele>33.5</ele>
        <time>2020-02-22T09:35:44Z</time>
      </trkpt>
      <trkpt lat="38.9922570" lon="1.2975000">
        <ele>33.6</ele>
        <time>2020-02-22T09:35:45Z</time>
      </trkpt>
      <trkpt lat="38.9922770" lon="1.2975450">
        <ele>33.7</ele>
        <time>2020-02-22T09:35:46Z</time>
      </trkpt>
      <trkpt lat="38.9922960" lon="1.2975800">
        <ele>33.8</ele>
        <time>2020-02-22T09:35:47Z</time>
      </trkpt>
      <trkpt lat="38.9923140" lon="1.2976160">
        <ele>33.9</ele>
        <time>2020-02-22T09:35:48Z</time>
      </trkpt>
      <trkpt lat="38.9923350" lon="1.2976540">
        <ele>34.0</ele>
        <time>2020-02-22T09:35:49Z</time>
      </trkpt>
      <trkpt lat="38.9923590" lon="1.2976920">
        <ele>34.2</ele>
        <time>2020-02-22T09:35:50Z</time>
      </trkpt>
      <trkpt lat="38.9923740" lon="1.2977400">
        <ele>34.3</ele>
        <time>2020-02-22T09:35:51Z</time>
      </trkpt>
      <trkpt lat="38.9923840" lon="1.2977800">
        <ele>34.4</ele>
        <time>2020-02-22T09:35:52Z</time>
      </trkpt>
      <trkpt lat="38.9923890" lon="1.2978200">
        <ele>34.5</ele>
        <time>2020-02-22T09:35:53Z</time>
      </trkpt>
      <trkpt lat="38.9924000" lon="1.2978650">
        <ele>34.6</ele>
        <time>2020-02-22T09:35:54Z</time>
      </trkpt>
      <trkpt lat="38.9924090" lon="1.2979110">
        <ele>34.8</ele>
        <time>2020-02-22T09:35:55Z</time>
      </trkpt>
      <trkpt lat="38.9924140" lon="1.2979510">
        <ele>34.9</ele>
        <time>2020-02-22T09:35:56Z</time>
      </trkpt>
      <trkpt lat="38.9924220" lon="1.2979960">
        <ele>35.0</ele>
        <time>2020-02-22T09:35:57Z</time>
      </trkpt>
      <trkpt lat="38.9924360" lon="1.2980350">
        <ele>35.2</ele>
        <time>2020-02-22T09:35:58Z</time>
      </trkpt>
      <trkpt lat="38.9924430" lon="1.2980760">
        <ele>35.3</ele>
        <time>2020-02-22T09:35:59Z</time>
      </trkpt>
      <trkpt lat="38.9924600" lon="1.2981110">
        <ele>35.5</ele>
        <time>2020-02-22T09:36:00Z</time>
      </trkpt>
      <trkpt lat="38.9924710" lon="1.2981540">
        <ele>35.8</ele>
        <time>2020-02-22T09:36:01Z</time>
      </trkpt>
      <trkpt lat="38.9924760" lon="1.2981900">
        <ele>36.0</ele>
        <time>2020-02-22T09:36:02Z</time>
      </trkpt>
      <trkpt lat="38.9924820" lon="1.2982320">
        <ele>36.2</ele>
        <time>2020-02-22T09:36:03Z</time>
      </trkpt>
      <trkpt lat="38.9924980" lon="1.2982750">
        <ele>36.4</ele>
        <time>2020-02-22T09:36:04Z</time>
      </trkpt>
      <trkpt lat="38.9925210" lon="1.2983250">
        <ele>36.7</ele>
        <time>2020-02-22T09:36:05Z</time>
      </trkpt>
      <trkpt lat="38.9925320" lon="1.2983440">
        <ele>36.8</ele>
        <time>2020-02-22T09:36:06Z</time>
      </trkpt>
      <trkpt lat="38.9925420" lon="1.2983770">
        <ele>37.0</ele>
        <time>2020-02-22T09:36:07Z</time>
      </trkpt>
      <trkpt lat="38.9925570" lon="1.2984210">
        <ele>37.2</ele>
        <time>2020-02-22T09:36:08Z</time>
      </trkpt>
      <trkpt lat="38.9925760" lon="1.2984610">
        <ele>37.4</ele>
        <time>2020-02-22T09:36:09Z</time>
      </trkpt>
      <trkpt lat="38.9925930" lon="1.2985030">
        <ele>37.6</ele>
        <time>2020-02-22T09:36:10Z</time>
      </trkpt>
      <trkpt lat="38.9926110" lon="1.2985460">
        <ele>37.7</ele>
        <time>2020-02-22T09:36:11Z</time>
      </trkpt>
      <trkpt lat="38.9926230" lon="1.2985860">
        <ele>37.9</ele>
        <time>2020-02-22T09:36:12Z</time>
      </trkpt>
      <trkpt lat="38.9926380" lon="1.2986210">
        <ele>38.0</ele>
        <time>2020-02-22T09:36:13Z</time>
      </trkpt>
      <trkpt lat="38.9926460" lon="1.2986570">
        <ele>38.1</ele>
        <time>2020-02-22T09:36:14Z</time>
      </trkpt>
      <trkpt lat="38.9926570" lon="1.2986940">
        <ele>38.2</ele>
        <time>2020-02-22T09:36:15Z</time>
      </trkpt>
      <trkpt lat="38.9926680" lon="1.2987290">
        <ele>38.2</ele>
        <time>2020-02-22T09:36:16Z</time>
      </trkpt>
      <trkpt lat="38.9926820" lon="1.2987750">
        <ele>38.4</ele>
        <time>2020-02-22T09:36:17Z</time>
      </trkpt>
      <trkpt lat="38.9926980" lon="1.2988240">
        <ele>38.5</ele>
        <time>2020-02-22T09:36:18Z</time>
      </trkpt>
      <trkpt lat="38.9927110" lon="1.2988680">
        <ele>38.6</ele>
        <time>2020-02-22T09:36:19Z</time>
      </trkpt>
      <trkpt lat="38.9927210" lon="1.2989040">
        <ele>38.7</ele>
        <time>2020-02-22T09:36:20Z</time>
      </trkpt>
      <trkpt lat="38.9927320" lon="1.2989390">
        <ele>38.8</ele>
        <time>2020-02-22T09:36:21Z</time>
      </trkpt>
      <trkpt lat="38.9927470" lon="1.2989730">
        <ele>38.9</ele>
        <time>2020-02-22T09:36:22Z</time>
      </trkpt>
      <trkpt lat="38.9927560" lon="1.2990140">
        <ele>39.0</ele>
        <time>2020-02-22T09:36:23Z</time>
      </trkpt>
      <trkpt lat="38.9927600" lon="1.2990520">
        <ele>39.0</ele>
        <time>2020-02-22T09:36:24Z</time>
      </trkpt>
      <trkpt lat="38.9927620" lon="1.2990920">
        <ele>39.1</ele>
        <time>2020-02-22T09:36:25Z</time>
      </trkpt>
      <trkpt lat="38.9927670" lon="1.2991340">
        <ele>39.2</ele>
        <time>2020-02-22T09:36:26Z</time>
      </trkpt>
      <trkpt lat="38.9927760" lon="1.2991670">
        <ele>39.3</ele>
        <time>2020-02-22T09:36:27Z</time>
      </trkpt>
      <trkpt lat="38.9927890" lon="1.2992020">
        <ele>39.4</ele>
        <time>2020-02-22T09:36:28Z</time>
      </trkpt>
      <trkpt lat="38.9927960" lon="1.2992520">
        <ele>39.5</ele>
        <time>2020-02-22T09:36:29Z</time>
      </trkpt>
      <trkpt lat="38.9927960" lon="1.2992710">
        <ele>39.5</ele>
        <time>2020-02-22T09:36:30Z</time>
      </trkpt>
      <trkpt lat="38.9927970" lon="1.2993130">
        <ele>39.6</ele>
        <time>2020-02-22T09:36:31Z</time>
      </trkpt>
      <trkpt lat="38.9928010" lon="1.2993650">
        <ele>39.7</ele>
        <time>2020-02-22T09:36:32Z</time>
      </trkpt>
      <trkpt lat="38.9928030" lon="1.2994110">
        <ele>39.8</ele>
        <time>2020-02-22T09:36:33Z</time>
      </trkpt>
      <trkpt lat="38.9927980" lon="1.2994530">
        <ele>39.8</ele>
        <time>2020-02-22T09:36:34Z</time>
      </trkpt>
      <trkpt lat="38.9927990" lon="1.2994990">
        <ele>39.9</ele>
        <time>2020-02-22T09:36:35Z</time>
      </trkpt>
      <trkpt lat="38.9928030" lon="1.2995440">
        <ele>39.9</ele>
        <time>2020-02-22T09:36:36Z</time>
      </trkpt>
      <trkpt lat="38.9928080" lon="1.2995810">
        <ele>40.0</ele>
        <time>2020-02-22T09:36:37Z</time>
      </trkpt>
      <trkpt lat="38.9928150" lon="1.2996160">
        <ele>40.0</ele>
        <time>2020-02-22T09:36:38Z</time>
      </trkpt>
      <trkpt lat="38.9928350" lon="1.2996770">
        <ele>40.0</ele>
        <time>2020-02-22T09:36:39Z</time>
      </trkpt>
      <trkpt lat="38.9928450" lon="1.2997080">
        <ele>40.0</ele>
        <time>2020-02-22T09:36:40Z</time>
      </trkpt>
      <trkpt lat="38.9928580" lon="1.2997510">
        <ele>40.0</ele>
        <time>2020-02-22T09:36:41Z</time>
      </trkpt>
      <trkpt lat="38.9928660" lon="1.2997990">
        <ele>40.0</ele>
        <time>2020-02-22T09:36:42Z</time>
      </trkpt>
      <trkpt lat="38.9928730" lon="1.2998380">
        <ele>40.0</ele>
        <time>2020-02-22T09:36:43Z</time>
      </trkpt>
      <trkpt lat="38.9928720" lon="1.2998760">
        <ele>40.0</ele>
        <time>2020-02-22T09:36:44Z</time>
      </trkpt>
      <trkpt lat="38.9928750" lon="1.2999200">
        <ele>40.1</ele>
        <time>2020-02-22T09:36:45Z</time>
      </trkpt>
      <trkpt lat="38.9928750" lon="1.2999590">
        <ele>40.1</ele>
        <time>2020-02-22T09:36:46Z</time>
      </trkpt>
      <trkpt lat="38.9928820" lon="1.2999990">
        <ele>40.1</ele>
        <time>2020-02-22T09:36:47Z</time>
      </trkpt>
      <trkpt lat="38.9928940" lon="1.3000400">
        <ele>40.2</ele>
        <time>2020-02-22T09:36:48Z</time>
      </trkpt>
      <trkpt lat="38.9929050" lon="1.3000850">
        <ele>40.3</ele>
        <time>2020-02-22T09:36:49Z</time>
      </trkpt>
      <trkpt lat="38.9929170" lon="1.3001290">
        <ele>40.4</ele>
        <time>2020-02-22T09:36:50Z</time>
      </trkpt>
      <trkpt lat="38.9929260" lon="1.3001740">
        <ele>40.5</ele>
        <time>2020-02-22T09:36:51Z</time>
      </trkpt>
      <trkpt lat="38.9929340" lon="1.3002210">
        <ele>40.6</ele>
        <time>2020-02-22T09:36:52Z</time>
      </trkpt>
      <trkpt lat="38.9929330" lon="1.3002620">
        <ele>40.6</ele>
        <time>2020-02-22T09:36:53Z</time>
      </trkpt>
      <trkpt lat="38.9929310" lon="1.3003020">
        <ele>40.7</ele>
        <time>2020-02-22T09:36:54Z</time>
      </trkpt>
      <trkpt lat="38.9929430" lon="1.3003430">
        <ele>40.8</ele>
        <time>2020-02-22T09:36:55Z</time>
      </trkpt>
      <trkpt lat="38.9929470" lon="1.3003930">
        <ele>40.9</ele>
        <time>2020-02-22T09:36:56Z</time>
      </trkpt>
      <trkpt lat="38.9929520" lon="1.3004370">
        <ele>40.9</ele>
        <time>2020-02-22T09:36:57Z</time>
      </trkpt>
      <trkpt lat="38.9929490" lon="1.3004780">
        <ele>40.9</ele>
        <time>2020-02-22T09:36:58Z</time>
      </trkpt>
      <trkpt lat="38.9929470" lon="1.3005230">
        <ele>40.9</ele>
        <time>2020-02-22T09:36:59Z</time>
      </trkpt>
      <trkpt lat="38.9929510" lon="1.3005650">
        <ele>40.9</ele>
        <time>2020-02-22T09:37:00Z</time>
      </trkpt>
      <trkpt lat="38.9929550" lon="1.3006110">
        <ele>40.9</ele>
        <time>2020-02-22T09:37:01Z</time>
      </trkpt>
      <trkpt lat="38.9929650" lon="1.3006510">
        <ele>40.9</ele>
        <time>2020-02-22T09:37:02Z</time>
      </trkpt>
      <trkpt lat="38.9929780" lon="1.3007000">
        <ele>40.9</ele>
        <time>2020-02-22T09:37:03Z</time>
      </trkpt>
      <trkpt lat="38.9930030" lon="1.3007450">
        <ele>40.9</ele>
        <time>2020-02-22T09:37:04Z</time>
      </trkpt>
      <trkpt lat="38.9930230" lon="1.3007800">
        <ele>40.9</ele>
        <time>2020-02-22T09:37:05Z</time>
      </trkpt>
      <trkpt lat="38.9930470" lon="1.3008120">
        <ele>40.9</ele>
        <time>2020-02-22T09:37:06Z</time>
      </trkpt>
      <trkpt lat="38.9930790" lon="1.3008410">
        <ele>40.9</ele>
        <time>2020-02-22T09:37:07Z</time>
      </trkpt>
      <trkpt lat="38.9931050" lon="1.3008720">
        <ele>40.9</ele>
        <time>2020-02-22T09:37:08Z</time>
      </trkpt>
      <trkpt lat="38.9931320" lon="1.3009100">
        <ele>40.9</ele>
        <time>2020-02-22T09:37:09Z</time>
      </trkpt>
      <trkpt lat="38.9931570" lon="1.3009570">
        <ele>40.9</ele>
        <time>2020-02-22T09:37:10Z</time>
      </trkpt>
      <trkpt lat="38.9931860" lon="1.3010060">
        <ele>40.9</ele>
        <time>2020-02-22T09:37:11Z</time>
      </trkpt>
      <trkpt lat="38.9932140" lon="1.3010380">
        <ele>40.8</ele>
        <time>2020-02-22T09:37:12Z</time>
      </trkpt>
      <trkpt lat="38.9932400" lon="1.3010740">
        <ele>40.8</ele>
        <time>2020-02-22T09:37:13Z</time>
      </trkpt>
      <trkpt lat="38.9932670" lon="1.3011030">
        <ele>40.8</ele>
        <time>2020-02-22T09:37:14Z</time>
      </trkpt>
      <trkpt lat="38.9932950" lon="1.3011290">
        <ele>40.8</ele>
        <time>2020-02-22T09:37:15Z</time>
      </trkpt>
      <trkpt lat="38.9933230" lon="1.3011610">
        <ele>40.8</ele>
        <time>2020-02-22T09:37:16Z</time>
      </trkpt>
      <trkpt lat="38.9933520" lon="1.3011750">
        <ele>40.8</ele>
        <time>2020-02-22T09:37:17Z</time>
      </trkpt>
      <trkpt lat="38.9933870" lon="1.3011790">
        <ele>40.8</ele>
        <time>2020-02-22T09:37:18Z</time>
      </trkpt>
      <trkpt lat="38.9933990" lon="1.3011790">
        <ele>40.8</ele>
        <time>2020-02-22T09:37:19Z</time>
      </trkpt>
      <trkpt lat="38.9934290" lon="1.3011880">
        <ele>40.8</ele>
        <time>2020-02-22T09:37:20Z</time>
      </trkpt>
      <trkpt lat="38.9934390" lon="1.3011920">
        <ele>40.8</ele>
        <time>2020-02-22T09:37:21Z</time>
      </trkpt>
      <trkpt lat="38.9934650" lon="1.3012140">
        <ele>40.8</ele>
        <time>2020-02-22T09:37:22Z</time>
      </trkpt>
      <trkpt lat="38.9934740" lon="1.3012240">
        <ele>40.8</ele>
        <time>2020-02-22T09:37:23Z</time>
      </trkpt>
      <trkpt lat="38.9934840" lon="1.3012640">
        <ele>41.4</ele>
        <time>2020-02-22T09:37:24Z</time>
      </trkpt>
      <trkpt lat="38.9934890" lon="1.3012730">
        <ele>41.5</ele>
        <time>2020-02-22T09:37:25Z</time>
      </trkpt>
      <trkpt lat="38.9934920" lon="1.3013180">
        <ele>41.6</ele>
        <time>2020-02-22T09:37:26Z</time>
      </trkpt>
      <trkpt lat="38.9934860" lon="1.3013350">
        <ele>41.7</ele>
        <time>2020-02-22T09:37:27Z</time>
      </trkpt>
      <trkpt lat="38.9934820" lon="1.3013750">
        <ele>41.8</ele>
        <time>2020-02-22T09:37:28Z</time>
      </trkpt>
      <trkpt lat="38.9934690" lon="1.3014170">
        <ele>41.9</ele>
        <time>2020-02-22T09:37:29Z</time>
      </trkpt>
      <trkpt lat="38.9934540" lon="1.3014660">
        <ele>42.1</ele>
        <time>2020-02-22T09:37:30Z</time>
      </trkpt>
      <trkpt lat="38.9934470" lon="1.3014830">
        <ele>42.2</ele>
        <time>2020-02-22T09:37:31Z</time>
      </trkpt>
      <trkpt lat="38.9934280" lon="1.3015250">
        <ele>42.4</ele>
        <time>2020-02-22T09:37:32Z</time>
      </trkpt>
      <trkpt lat="38.9934190" lon="1.3015380">
        <ele>42.4</ele>
        <time>2020-02-22T09:37:33Z</time>
      </trkpt>
      <trkpt lat="38.9934060" lon="1.3015740">
        <ele>42.6</ele>
        <time>2020-02-22T09:37:34Z</time>
      </trkpt>
      <trkpt lat="38.9934010" lon="1.3016140">
        <ele>42.7</ele>
        <time>2020-02-22T09:37:35Z</time>
      </trkpt>
      <trkpt lat="38.9933910" lon="1.3016590">
        <ele>42.9</ele>
        <time>2020-02-22T09:37:36Z</time>
      </trkpt>
      <trkpt lat="38.9933750" lon="1.3016940">
        <ele>43.0</ele>
        <time>2020-02-22T09:37:37Z</time>
      </trkpt>
      <trkpt lat="38.9933650" lon="1.3017320">
        <ele>43.1</ele>
        <time>2020-02-22T09:37:38Z</time>
      </trkpt>
      <trkpt lat="38.9933570" lon="1.3017690">
        <ele>43.2</ele>
        <time>2020-02-22T09:37:39Z</time>
      </trkpt>
      <trkpt lat="38.9933400" lon="1.3018040">
        <ele>43.4</ele>
        <time>2020-02-22T09:37:40Z</time>
      </trkpt>
      <trkpt lat="38.9933240" lon="1.3018400">
        <ele>43.5</ele>
        <time>2020-02-22T09:37:41Z</time>
      </trkpt>
      <trkpt lat="38.9933110" lon="1.3018840">
        <ele>43.6</ele>
        <time>2020-02-22T09:37:42Z</time>
      </trkpt>
      <trkpt lat="38.9932910" lon="1.3019240">
        <ele>43.7</ele>
        <time>2020-02-22T09:37:43Z</time>
      </trkpt>
      <trkpt lat="38.9932770" lon="1.3019600">
        <ele>43.8</ele>
        <time>2020-02-22T09:37:44Z</time>
      </trkpt>
      <trkpt lat="38.9932620" lon="1.3020010">
        <ele>44.0</ele>
        <time>2020-02-22T09:37:45Z</time>
      </trkpt>
      <trkpt lat="38.9932470" lon="1.3020350">
        <ele>44.1</ele>
        <time>2020-02-22T09:37:46Z</time>
      </trkpt>
      <trkpt lat="38.9932310" lon="1.3020650">
        <ele>44.2</ele>
        <time>2020-02-22T09:37:47Z</time>
      </trkpt>
      <trkpt lat="38.9932160" lon="1.3020990">
        <ele>44.4</ele>
        <time>2020-02-22T09:37:48Z</time>
      </trkpt>
      <trkpt lat="38.9931940" lon="1.3021340">
        <ele>44.5</ele>
        <time>2020-02-22T09:37:49Z</time>
      </trkpt>
      <trkpt lat="38.9931760" lon="1.3021680">
        <ele>44.6</ele>
        <time>2020-02-22T09:37:50Z</time>
      </trkpt>
      <trkpt lat="38.9931590" lon="1.3022140">
        <ele>44.8</ele>
        <time>2020-02-22T09:37:51Z</time>
      </trkpt>
      <trkpt lat="38.9931380" lon="1.3022480">
        <ele>44.9</ele>
        <time>2020-02-22T09:37:52Z</time>
      </trkpt>
      <trkpt lat="38.9931180" lon="1.3022800">
        <ele>45.0</ele>
        <time>2020-02-22T09:37:53Z</time>
      </trkpt>
      <trkpt lat="38.9930950" lon="1.3023140">
        <ele>45.2</ele>
        <time>2020-02-22T09:37:54Z</time>
      </trkpt>
      <trkpt lat="38.9930700" lon="1.3023470">
        <ele>45.3</ele>
        <time>2020-02-22T09:37:55Z</time>
      </trkpt>
      <trkpt lat="38.9930460" lon="1.3023980">
        <ele>45.6</ele>
        <time>2020-02-22T09:37:56Z</time>
      </trkpt>
      <trkpt lat="38.9930360" lon="1.3024190">
        <ele>45.7</ele>
        <time>2020-02-22T09:37:57Z</time>
      </trkpt>
      <trkpt lat="38.9930180" lon="1.3024550">
        <ele>46.0</ele>
        <time>2020-02-22T09:37:58Z</time>
      </trkpt>
      <trkpt lat="38.9930000" lon="1.3024880">
        <ele>46.1</ele>
        <time>2020-02-22T09:37:59Z</time>
      </trkpt>
      <trkpt lat="38.9929810" lon="1.3025200">
        <ele>46.3</ele>
        <time>2020-02-22T09:38:00Z</time>
      </trkpt>
      <trkpt lat="38.9929610" lon="1.3025460">
        <ele>46.5</ele>
        <time>2020-02-22T09:38:01Z</time>
      </trkpt>
      <trkpt lat="38.9929280" lon="1.3025700">
        <ele>46.7</ele>
        <time>2020-02-22T09:38:02Z</time>
      </trkpt>
      <trkpt lat="38.9929090" lon="1.3025980">
        <ele>46.8</ele>
        <time>2020-02-22T09:38:03Z</time>
      </trkpt>
      <trkpt lat="38.9928840" lon="1.3026240">
        <ele>46.9</ele>
        <time>2020-02-22T09:38:04Z</time>
      </trkpt>
      <trkpt lat="38.9928660" lon="1.3026510">
        <ele>47.1</ele>
        <time>2020-02-22T09:38:05Z</time>
      </trkpt>
      <trkpt lat="38.9928440" lon="1.3026800">
        <ele>47.2</ele>
        <time>2020-02-22T09:38:06Z</time>
      </trkpt>
      <trkpt lat="38.9928250" lon="1.3027170">
        <ele>47.3</ele>
        <time>2020-02-22T09:38:07Z</time>
      </trkpt>
      <trkpt lat="38.9927860" lon="1.3027430">
        <ele>47.5</ele>
        <time>2020-02-22T09:38:08Z</time>
      </trkpt>
      <trkpt lat="38.9927570" lon="1.3027750">
        <ele>47.7</ele>
        <time>2020-02-22T09:38:09Z</time>
      </trkpt>
      <trkpt lat="38.9927260" lon="1.3028010">
        <ele>47.9</ele>
        <time>2020-02-22T09:38:10Z</time>
      </trkpt>
      <trkpt lat="38.9927030" lon="1.3028290">
        <ele>48.0</ele>
        <time>2020-02-22T09:38:11Z</time>
      </trkpt>
      <trkpt lat="38.9926740" lon="1.3028520">
        <ele>48.1</ele>
        <time>2020-02-22T09:38:12Z</time>
      </trkpt>
      <trkpt lat="38.9926460" lon="1.3028760">
        <ele>48.3</ele>
        <time>2020-02-22T09:38:13Z</time>
      </trkpt>
      <trkpt lat="38.9926250" lon="1.3029080">
        <ele>48.4</ele>
        <time>2020-02-22T09:38:14Z</time>
      </trkpt>
      <trkpt lat="38.9926060" lon="1.3029350">
        <ele>48.5</ele>
        <time>2020-02-22T09:38:15Z</time>
      </trkpt>
      <trkpt lat="38.9925830" lon="1.3029630">
        <ele>48.6</ele>
        <time>2020-02-22T09:38:16Z</time>
      </trkpt>
      <trkpt lat="38.9925670" lon="1.3029960">
        <ele>48.7</ele>
        <time>2020-02-22T09:38:17Z</time>
      </trkpt>
      <trkpt lat="38.9925490" lon="1.3030230">
        <ele>48.8</ele>
        <time>2020-02-22T09:38:18Z</time>
      </trkpt>
      <trkpt lat="38.9925250" lon="1.3030540">
        <ele>48.9</ele>
        <time>2020-02-22T09:38:19Z</time>
      </trkpt>
      <trkpt lat="38.9925160" lon="1.3030660">
        <ele>48.9</ele>
        <time>2020-02-22T09:38:20Z</time>
      </trkpt>
      <trkpt lat="38.9924940" lon="1.3030940">
        <ele>49.0</ele>
        <time>2020-02-22T09:38:21Z</time>
      </trkpt>
      <trkpt lat="38.9924770" lon="1.3031320">
        <ele>49.3</ele>
        <time>2020-02-22T09:38:22Z</time>
      </trkpt>
      <trkpt lat="38.9924680" lon="1.3031670">
        <ele>49.5</ele>
        <time>2020-02-22T09:38:23Z</time>
      </trkpt>
      <trkpt lat="38.9924830" lon="1.3032140">
        <ele>49.8</ele>
        <time>2020-02-22T09:38:24Z</time>
      </trkpt>
      <trkpt lat="38.9924950" lon="1.3032280">
        <ele>49.9</ele>
        <time>2020-02-22T09:38:25Z</time>
      </trkpt>
      <trkpt lat="38.9925190" lon="1.3032610">
        <ele>50.2</ele>
        <time>2020-02-22T09:38:26Z</time>
      </trkpt>
      <trkpt lat="38.9925400" lon="1.3033020">
        <ele>50.5</ele>
        <time>2020-02-22T09:38:27Z</time>
      </trkpt>
      <trkpt lat="38.9925710" lon="1.3033300">
        <ele>50.7</ele>
        <time>2020-02-22T09:38:28Z</time>
      </trkpt>
      <trkpt lat="38.9926130" lon="1.3033420">
        <ele>50.9</ele>
        <time>2020-02-22T09:38:29Z</time>
      </trkpt>
      <trkpt lat="38.9926750" lon="1.3033720">
        <ele>51.3</ele>
        <time>2020-02-22T09:38:30Z</time>
      </trkpt>
      <trkpt lat="38.9927280" lon="1.3033870">
        <ele>51.5</ele>
        <time>2020-02-22T09:38:31Z</time>
      </trkpt>
      <trkpt lat="38.9927750" lon="1.3034000">
        <ele>51.8</ele>
        <time>2020-02-22T09:38:32Z</time>
      </trkpt>
      <trkpt lat="38.9928210" lon="1.3034160">
        <ele>52.0</ele>
        <time>2020-02-22T09:38:33Z</time>
      </trkpt>
      <trkpt lat="38.9928640" lon="1.3034360">
        <ele>52.2</ele>
        <time>2020-02-22T09:38:34Z</time>
      </trkpt>
      <trkpt lat="38.9929090" lon="1.3034630">
        <ele>52.5</ele>
        <time>2020-02-22T09:38:35Z</time>
      </trkpt>
      <trkpt lat="38.9929490" lon="1.3034880">
        <ele>52.7</ele>
        <time>2020-02-22T09:38:36Z</time>
      </trkpt>
      <trkpt lat="38.9929880" lon="1.3035070">
        <ele>52.9</ele>
        <time>2020-02-22T09:38:37Z</time>
      </trkpt>
      <trkpt lat="38.9930270" lon="1.3035090">
        <ele>53.1</ele>
        <time>2020-02-22T09:38:38Z</time>
      </trkpt>
      <trkpt lat="38.9930630" lon="1.3035150">
        <ele>53.3</ele>
        <time>2020-02-22T09:38:39Z</time>
      </trkpt>
      <trkpt lat="38.9930930" lon="1.3035360">
        <ele>53.4</ele>
        <time>2020-02-22T09:38:40Z</time>
      </trkpt>
      <trkpt lat="38.9931260" lon="1.3035560">
        <ele>53.6</ele>
        <time>2020-02-22T09:38:41Z</time>
      </trkpt>
      <trkpt lat="38.9931590" lon="1.3035840">
        <ele>53.8</ele>
        <time>2020-02-22T09:38:42Z</time>
      </trkpt>
      <trkpt lat="38.9931960" lon="1.3035970">
        <ele>53.9</ele>
        <time>2020-02-22T09:38:43Z</time>
      </trkpt>
      <trkpt lat="38.9932250" lon="1.3036070">
        <ele>54.1</ele>
        <time>2020-02-22T09:38:44Z</time>
      </trkpt>
      <trkpt lat="38.9932530" lon="1.3036160">
        <ele>54.2</ele>
        <time>2020-02-22T09:38:45Z</time>
      </trkpt>
      <trkpt lat="38.9932790" lon="1.3036400">
        <ele>54.4</ele>
        <time>2020-02-22T09:38:46Z</time>
      </trkpt>
      <trkpt lat="38.9933120" lon="1.3036580">
        <ele>54.5</ele>
        <time>2020-02-22T09:38:47Z</time>
      </trkpt>
      <trkpt lat="38.9933430" lon="1.3036720">
        <ele>54.7</ele>
        <time>2020-02-22T09:38:48Z</time>
      </trkpt>
      <trkpt lat="38.9933790" lon="1.3036820">
        <ele>54.8</ele>
        <time>2020-02-22T09:38:49Z</time>
      </trkpt>
      <trkpt lat="38.9934130" lon="1.3036890">
        <ele>55.0</ele>
        <time>2020-02-22T09:38:50Z</time>
      </trkpt>
      <trkpt lat="38.9934430" lon="1.3036960">
        <ele>55.2</ele>
        <time>2020-02-22T09:38:51Z</time>
      </trkpt>
      <trkpt lat="38.9934750" lon="1.3037000">
        <ele>55.3</ele>
        <time>2020-02-22T09:38:52Z</time>
      </trkpt>
      <trkpt lat="38.9935140" lon="1.3037050">
        <ele>55.5</ele>
        <time>2020-02-22T09:38:53Z</time>
      </trkpt>
      <trkpt lat="38.9935290" lon="1.3037040">
        <ele>55.6</ele>
        <time>2020-02-22T09:38:54Z</time>
      </trkpt>
      <trkpt lat="38.9935600" lon="1.3037040">
        <ele>55.8</ele>
        <time>2020-02-22T09:38:55Z</time>
      </trkpt>
      <trkpt lat="38.9935930" lon="1.3037070">
        <ele>55.9</ele>
        <time>2020-02-22T09:38:56Z</time>
      </trkpt>
      <trkpt lat="38.9936340" lon="1.3037110">
        <ele>56.1</ele>
        <time>2020-02-22T09:38:57Z</time>
      </trkpt>
      <trkpt lat="38.9936720" lon="1.3037200">
        <ele>56.4</ele>
        <time>2020-02-22T09:38:58Z</time>
      </trkpt>
      <trkpt lat="38.9937060" lon="1.3037210">
        <ele>56.5</ele>
        <time>2020-02-22T09:38:59Z</time>
      </trkpt>
      <trkpt lat="38.9937380" lon="1.3037270">
        <ele>56.7</ele>
        <time>2020-02-22T09:39:00Z</time>
      </trkpt>
      <trkpt lat="38.9937700" lon="1.3037250">
        <ele>56.9</ele>
        <time>2020-02-22T09:39:01Z</time>
      </trkpt>
      <trkpt lat="38.9938060" lon="1.3037230">
        <ele>57.1</ele>
        <time>2020-02-22T09:39:02Z</time>
      </trkpt>
      <trkpt lat="38.9938360" lon="1.3037170">
        <ele>57.2</ele>
        <time>2020-02-22T09:39:03Z</time>
      </trkpt>
      <trkpt lat="38.9938750" lon="1.3036950">
        <ele>57.5</ele>
        <time>2020-02-22T09:39:04Z</time>
      </trkpt>
      <trkpt lat="38.9938900" lon="1.3036850">
        <ele>57.6</ele>
        <time>2020-02-22T09:39:05Z</time>
      </trkpt>
      <trkpt lat="38.9939200" lon="1.3036620">
        <ele>57.8</ele>
        <time>2020-02-22T09:39:06Z</time>
      </trkpt>
      <trkpt lat="38.9939360" lon="1.3036230">
        <ele>57.7</ele>
        <time>2020-02-22T09:39:07Z</time>
      </trkpt>
      <trkpt lat="38.9939590" lon="1.3035850">
        <ele>57.4</ele>
        <time>2020-02-22T09:39:08Z</time>
      </trkpt>
      <trkpt lat="38.9939720" lon="1.3035510">
        <ele>57.1</ele>
        <time>2020-02-22T09:39:09Z</time>
      </trkpt>
      <trkpt lat="38.9939880" lon="1.3035040">
        <ele>56.8</ele>
        <time>2020-02-22T09:39:10Z</time>
      </trkpt>
      <trkpt lat="38.9940020" lon="1.3034510">
        <ele>56.5</ele>
        <time>2020-02-22T09:39:11Z</time>
      </trkpt>
      <trkpt lat="38.9940310" lon="1.3034040">
        <ele>56.1</ele>
        <time>2020-02-22T09:39:12Z</time>
      </trkpt>
      <trkpt lat="38.9940500" lon="1.3033610">
        <ele>55.8</ele>
        <time>2020-02-22T09:39:13Z</time>
      </trkpt>
      <trkpt lat="38.9940670" lon="1.3033060">
        <ele>55.5</ele>
        <time>2020-02-22T09:39:14Z</time>
      </trkpt>
      <trkpt lat="38.9940850" lon="1.3032500">
        <ele>55.2</ele>
        <time>2020-02-22T09:39:15Z</time>
      </trkpt>
      <trkpt lat="38.9941040" lon="1.3031890">
        <ele>54.8</ele>
        <time>2020-02-22T09:39:16Z</time>
      </trkpt>
      <trkpt lat="38.9941230" lon="1.3031360">
        <ele>54.5</ele>
        <time>2020-02-22T09:39:17Z</time>
      </trkpt>
      <trkpt lat="38.9941480" lon="1.3030830">
        <ele>54.0</ele>
        <time>2020-02-22T09:39:18Z</time>
      </trkpt>
      <trkpt lat="38.9941810" lon="1.3030310">
        <ele>53.5</ele>
        <time>2020-02-22T09:39:19Z</time>
      </trkpt>
      <trkpt lat="38.9942090" lon="1.3029810">
        <ele>53.3</ele>
        <time>2020-02-22T09:39:20Z</time>
      </trkpt>
      <trkpt lat="38.9942350" lon="1.3029430">
        <ele>53.2</ele>
        <time>2020-02-22T09:39:21Z</time>
      </trkpt>
      <trkpt lat="38.9942640" lon="1.3029140">
        <ele>53.1</ele>
        <time>2020-02-22T09:39:22Z</time>
      </trkpt>
      <trkpt lat="38.9942920" lon="1.3028890">
        <ele>53.2</ele>
        <time>2020-02-22T09:39:23Z</time>
      </trkpt>
      <trkpt lat="38.9943260" lon="1.3028720">
        <ele>53.3</ele>
        <time>2020-02-22T09:39:24Z</time>
      </trkpt>
      <trkpt lat="38.9943690" lon="1.3028530">
        <ele>53.3</ele>
        <time>2020-02-22T09:39:25Z</time>
      </trkpt>
      <trkpt lat="38.9944010" lon="1.3028430">
        <ele>53.3</ele>
        <time>2020-02-22T09:39:26Z</time>
      </trkpt>
      <trkpt lat="38.9944410" lon="1.3028280">
        <ele>53.3</ele>
        <time>2020-02-22T09:39:27Z</time>
      </trkpt>
      <trkpt lat="38.9944770" lon="1.3028100">
        <ele>53.3</ele>
        <time>2020-02-22T09:39:28Z</time>
      </trkpt>
      <trkpt lat="38.9945140" lon="1.3027830">
        <ele>53.3</ele>
        <time>2020-02-22T09:39:29Z</time>
      </trkpt>
      <trkpt lat="38.9945320" lon="1.3027780">
        <ele>53.3</ele>
        <time>2020-02-22T09:39:30Z</time>
      </trkpt>
      <trkpt lat="38.9945670" lon="1.3027740">
        <ele>53.3</ele>
        <time>2020-02-22T09:39:31Z</time>
      </trkpt>
      <trkpt lat="38.9945990" lon="1.3027570">
        <ele>53.3</ele>
        <time>2020-02-22T09:39:32Z</time>
      </trkpt>
      <trkpt lat="38.9946310" lon="1.3027420">
        <ele>53.3</ele>
        <time>2020-02-22T09:39:33Z</time>
      </trkpt>
      <trkpt lat="38.9946690" lon="1.3027230">
        <ele>53.3</ele>
        <time>2020-02-22T09:39:34Z</time>
      </trkpt>
      <trkpt lat="38.9947010" lon="1.3026890">
        <ele>53.3</ele>
        <time>2020-02-22T09:39:35Z</time>
      </trkpt>
      <trkpt lat="38.9947240" lon="1.3026380">
        <ele>53.4</ele>
        <time>2020-02-22T09:39:36Z</time>
      </trkpt>
      <trkpt lat="38.9947500" lon="1.3025900">
        <ele>53.4</ele>
        <time>2020-02-22T09:39:37Z</time>
      </trkpt>
      <trkpt lat="38.9947860" lon="1.3025480">
        <ele>53.5</ele>
        <time>2020-02-22T09:39:38Z</time>
      </trkpt>
      <trkpt lat="38.9948180" lon="1.3025140">
        <ele>53.6</ele>
        <time>2020-02-22T09:39:39Z</time>
      </trkpt>
      <trkpt lat="38.9948470" lon="1.3024770">
        <ele>53.6</ele>
        <time>2020-02-22T09:39:40Z</time>
      </trkpt>
      <trkpt lat="38.9948760" lon="1.3024450">
        <ele>53.7</ele>
        <time>2020-02-22T09:39:41Z</time>
      </trkpt>
      <trkpt lat="38.9949030" lon="1.3024100">
        <ele>53.7</ele>
        <time>2020-02-22T09:39:42Z</time>
      </trkpt>
      <trkpt lat="38.9949370" lon="1.3023800">
        <ele>53.8</ele>
        <time>2020-02-22T09:39:43Z</time>
      </trkpt>
      <trkpt lat="38.9949720" lon="1.3023460">
        <ele>53.9</ele>
        <time>2020-02-22T09:39:44Z</time>
      </trkpt>
      <trkpt lat="38.9950080" lon="1.3023100">
        <ele>53.9</ele>
        <time>2020-02-22T09:39:45Z</time>
      </trkpt>
      <trkpt lat="38.9950240" lon="1.3022950">
        <ele>54.0</ele>
        <time>2020-02-22T09:39:46Z</time>
      </trkpt>
      <trkpt lat="38.9950590" lon="1.3022540">
        <ele>53.7</ele>
        <time>2020-02-22T09:39:47Z</time>
      </trkpt>
      <trkpt lat="38.9950910" lon="1.3022110">
        <ele>53.4</ele>
        <time>2020-02-22T09:39:48Z</time>
      </trkpt>
      <trkpt lat="38.9951160" lon="1.3021690">
        <ele>53.2</ele>
        <time>2020-02-22T09:39:49Z</time>
      </trkpt>
      <trkpt lat="38.9951400" lon="1.3021330">
        <ele>53.1</ele>
        <time>2020-02-22T09:39:50Z</time>
      </trkpt>
      <trkpt lat="38.9951690" lon="1.3020990">
        <ele>53.1</ele>
        <time>2020-02-22T09:39:51Z</time>
      </trkpt>
      <trkpt lat="38.9951980" lon="1.3020660">
        <ele>53.1</ele>
        <time>2020-02-22T09:39:52Z</time>
      </trkpt>
      <trkpt lat="38.9952270" lon="1.3020330">
        <ele>53.1</ele>
        <time>2020-02-22T09:39:53Z</time>
      </trkpt>
      <trkpt lat="38.9952540" lon="1.3019960">
        <ele>53.1</ele>
        <time>2020-02-22T09:39:54Z</time>
      </trkpt>
      <trkpt lat="38.9952790" lon="1.3019580">
        <ele>53.2</ele>
        <time>2020-02-22T09:39:55Z</time>
      </trkpt>
      <trkpt lat="38.9953110" lon="1.3019130">
        <ele>53.3</ele>
        <time>2020-02-22T09:39:56Z</time>
      </trkpt>
      <trkpt lat="38.9953350" lon="1.3018850">
        <ele>53.4</ele>
        <time>2020-02-22T09:39:57Z</time>
      </trkpt>
      <trkpt lat="38.9953690" lon="1.3018500">
        <ele>53.5</ele>
        <time>2020-02-22T09:39:58Z</time>
      </trkpt>
      <trkpt lat="38.9953980" lon="1.3018230">
        <ele>53.5</ele>
        <time>2020-02-22T09:39:59Z</time>
      </trkpt>
      <trkpt lat="38.9954210" lon="1.3017920">
        <ele>53.6</ele>
        <time>2020-02-22T09:40:00Z</time>
      </trkpt>
      <trkpt lat="38.9954430" lon="1.3017670">
        <ele>53.6</ele>
        <time>2020-02-22T09:40:01Z</time>
      </trkpt>
      <trkpt lat="38.9954700" lon="1.3017340">
        <ele>53.7</ele>
        <time>2020-02-22T09:40:02Z</time>
      </trkpt>
      <trkpt lat="38.9954980" lon="1.3017060">
        <ele>53.7</ele>
        <time>2020-02-22T09:40:03Z</time>
      </trkpt>
      <trkpt lat="38.9955220" lon="1.3016690">
        <ele>53.7</ele>
        <time>2020-02-22T09:40:04Z</time>
      </trkpt>
      <trkpt lat="38.9955430" lon="1.3016330">
        <ele>53.8</ele>
        <time>2020-02-22T09:40:05Z</time>
      </trkpt>
      <trkpt lat="38.9955710" lon="1.3015970">
        <ele>54.0</ele>
        <time>2020-02-22T09:40:06Z</time>
      </trkpt>
      <trkpt lat="38.9956000" lon="1.3015710">
        <ele>54.1</ele>
        <time>2020-02-22T09:40:07Z</time>
      </trkpt>
      <trkpt lat="38.9956300" lon="1.3015350">
        <ele>54.2</ele>
        <time>2020-02-22T09:40:08Z</time>
      </trkpt>
      <trkpt lat="38.9956570" lon="1.3015050">
        <ele>54.4</ele>
        <time>2020-02-22T09:40:09Z</time>
      </trkpt>
      <trkpt lat="38.9956790" lon="1.3014760">
        <ele>54.5</ele>
        <time>2020-02-22T09:40:10Z</time>
      </trkpt>
      <trkpt lat="38.9957030" lon="1.3014500">
        <ele>54.6</ele>
        <time>2020-02-22T09:40:11Z</time>
      </trkpt>
      <trkpt lat="38.9957400" lon="1.3014260">
        <ele>54.7</ele>
        <time>2020-02-22T09:40:12Z</time>
      </trkpt>
      <trkpt lat="38.9957840" lon="1.3014000">
        <ele>54.8</ele>
        <time>2020-02-22T09:40:13Z</time>
      </trkpt>
      <trkpt lat="38.9958240" lon="1.3013690">
        <ele>55.0</ele>
        <time>2020-02-22T09:40:14Z</time>
      </trkpt>
      <trkpt lat="38.9958560" lon="1.3013620">
        <ele>55.1</ele>
        <time>2020-02-22T09:40:15Z</time>
      </trkpt>
      <trkpt lat="38.9958930" lon="1.3013440">
        <ele>55.2</ele>
        <time>2020-02-22T09:40:16Z</time>
      </trkpt>
      <trkpt lat="38.9959320" lon="1.3013420">
        <ele>55.3</ele>
        <time>2020-02-22T09:40:17Z</time>
      </trkpt>
      <trkpt lat="38.9959640" lon="1.3013400">
        <ele>55.5</ele>
        <time>2020-02-22T09:40:18Z</time>
      </trkpt>
      <trkpt lat="38.9960060" lon="1.3013490">
        <ele>55.6</ele>
        <time>2020-02-22T09:40:19Z</time>
      </trkpt>
      <trkpt lat="38.9960230" lon="1.3013530">
        <ele>55.7</ele>
        <time>2020-02-22T09:40:20Z</time>
      </trkpt>
      <trkpt lat="38.9960570" lon="1.3013590">
        <ele>55.8</ele>
        <time>2020-02-22T09:40:21Z</time>
      </trkpt>
      <trkpt lat="38.9960900" lon="1.3013750">
        <ele>56.0</ele>
        <time>2020-02-22T09:40:22Z</time>
      </trkpt>
      <trkpt lat="38.9961170" lon="1.3013910">
        <ele>56.1</ele>
        <time>2020-02-22T09:40:23Z</time>
      </trkpt>
      <trkpt lat="38.9961440" lon="1.3014070">
        <ele>56.3</ele>
        <time>2020-02-22T09:40:24Z</time>
      </trkpt>
      <trkpt lat="38.9961690" lon="1.3014230">
        <ele>56.4</ele>
        <time>2020-02-22T09:40:25Z</time>
      </trkpt>
      <trkpt lat="38.9961960" lon="1.3014390">
        <ele>56.6</ele>
        <time>2020-02-22T09:40:26Z</time>
      </trkpt>
      <trkpt lat="38.9962230" lon="1.3014600">
        <ele>56.8</ele>
        <time>2020-02-22T09:40:27Z</time>
      </trkpt>
      <trkpt lat="38.9962500" lon="1.3014750">
        <ele>57.0</ele>
        <time>2020-02-22T09:40:28Z</time>
      </trkpt>
      <trkpt lat="38.9962760" lon="1.3014930">
        <ele>57.2</ele>
        <time>2020-02-22T09:40:29Z</time>
      </trkpt>
      <trkpt lat="38.9963040" lon="1.3015120">
        <ele>57.4</ele>
        <time>2020-02-22T09:40:30Z</time>
      </trkpt>
      <trkpt lat="38.9963340" lon="1.3015310">
        <ele>57.6</ele>
        <time>2020-02-22T09:40:31Z</time>
      </trkpt>
      <trkpt lat="38.9963430" lon="1.3015310">
        <ele>57.6</ele>
        <time>2020-02-22T09:40:32Z</time>
      </trkpt>
      <trkpt lat="38.9963700" lon="1.3015410">
        <ele>57.8</ele>
        <time>2020-02-22T09:40:33Z</time>
      </trkpt>
      <trkpt lat="38.9964040" lon="1.3015600">
        <ele>58.0</ele>
        <time>2020-02-22T09:40:34Z</time>
      </trkpt>
      <trkpt lat="38.9964380" lon="1.3015740">
        <ele>58.2</ele>
        <time>2020-02-22T09:40:35Z</time>
      </trkpt>
      <trkpt lat="38.9964660" lon="1.3015930">
        <ele>58.3</ele>
        <time>2020-02-22T09:40:36Z</time>
      </trkpt>
      <trkpt lat="38.9964960" lon="1.3016040">
        <ele>58.5</ele>
        <time>2020-02-22T09:40:37Z</time>
      </trkpt>
      <trkpt lat="38.9965330" lon="1.3016150">
        <ele>58.7</ele>
        <time>2020-02-22T09:40:38Z</time>
      </trkpt>
      <trkpt lat="38.9965450" lon="1.3016230">
        <ele>58.8</ele>
        <time>2020-02-22T09:40:39Z</time>
      </trkpt>
      <trkpt lat="38.9965740" lon="1.3016400">
        <ele>58.9</ele>
        <time>2020-02-22T09:40:40Z</time>
      </trkpt>
      <trkpt lat="38.9966050" lon="1.3016570">
        <ele>59.1</ele>
        <time>2020-02-22T09:40:41Z</time>
      </trkpt>
      <trkpt lat="38.9966160" lon="1.3016640">
        <ele>59.2</ele>
        <time>2020-02-22T09:40:42Z</time>
      </trkpt>
      <trkpt lat="38.9966430" lon="1.3016740">
        <ele>59.3</ele>
        <time>2020-02-22T09:40:43Z</time>
      </trkpt>
      <trkpt lat="38.9966740" lon="1.3016860">
        <ele>59.5</ele>
        <time>2020-02-22T09:40:44Z</time>
      </trkpt>
      <trkpt lat="38.9966850" lon="1.3016910">
        <ele>59.6</ele>
        <time>2020-02-22T09:40:45Z</time>
      </trkpt>
      <trkpt lat="38.9967140" lon="1.3017030">
        <ele>59.8</ele>
        <time>2020-02-22T09:40:46Z</time>
      </trkpt>
      <trkpt lat="38.9967450" lon="1.3017140">
        <ele>60.1</ele>
        <time>2020-02-22T09:40:47Z</time>
      </trkpt>
      <trkpt lat="38.9967750" lon="1.3017250">
        <ele>60.3</ele>
        <time>2020-02-22T09:40:48Z</time>
      </trkpt>
      <trkpt lat="38.9968040" lon="1.3017480">
        <ele>60.5</ele>
        <time>2020-02-22T09:40:49Z</time>
      </trkpt>
      <trkpt lat="38.9968170" lon="1.3017570">
        <ele>60.6</ele>
        <time>2020-02-22T09:40:50Z</time>
      </trkpt>
      <trkpt lat="38.9968510" lon="1.3017730">
        <ele>60.9</ele>
        <time>2020-02-22T09:40:51Z</time>
      </trkpt>
      <trkpt lat="38.9968630" lon="1.3017830">
        <ele>61.0</ele>
        <time>2020-02-22T09:40:52Z</time>
      </trkpt>
      <trkpt lat="38.9968930" lon="1.3018030">
        <ele>61.3</ele>
        <time>2020-02-22T09:40:53Z</time>
      </trkpt>
      <trkpt lat="38.9969010" lon="1.3018090">
        <ele>61.4</ele>
        <time>2020-02-22T09:40:54Z</time>
      </trkpt>
      <trkpt lat="38.9969310" lon="1.3018210">
        <ele>61.6</ele>
        <time>2020-02-22T09:40:55Z</time>
      </trkpt>
      <trkpt lat="38.9969370" lon="1.3018280">
        <ele>61.7</ele>
        <time>2020-02-22T09:40:56Z</time>
      </trkpt>
      <trkpt lat="38.9969690" lon="1.3018330">
        <ele>62.0</ele>
        <time>2020-02-22T09:40:57Z</time>
      </trkpt>
      <trkpt lat="38.9969810" lon="1.3018340">
        <ele>62.1</ele>
        <time>2020-02-22T09:40:58Z</time>
      </trkpt>
      <trkpt lat="38.9970160" lon="1.3018420">
        <ele>62.3</ele>
        <time>2020-02-22T09:40:59Z</time>
      </trkpt>
      <trkpt lat="38.9970270" lon="1.3018410">
        <ele>62.4</ele>
        <time>2020-02-22T09:41:00Z</time>
      </trkpt>
      <trkpt lat="38.9970540" lon="1.3018570">
        <ele>62.7</ele>
        <time>2020-02-22T09:41:01Z</time>
      </trkpt>
      <trkpt lat="38.9970630" lon="1.3018600">
        <ele>62.7</ele>
        <time>2020-02-22T09:41:02Z</time>
      </trkpt>
      <trkpt lat="38.9970980" lon="1.3018820">
        <ele>63.1</ele>
        <time>2020-02-22T09:41:03Z</time>
      </trkpt>
      <trkpt lat="38.9971080" lon="1.3018900">
        <ele>63.2</ele>
        <time>2020-02-22T09:41:04Z</time>
      </trkpt>
      <trkpt lat="38.9971380" lon="1.3019010">
        <ele>63.4</ele>
        <time>2020-02-22T09:41:05Z</time>
      </trkpt>
      <trkpt lat="38.9971480" lon="1.3019030">
        <ele>63.5</ele>
        <time>2020-02-22T09:41:06Z</time>
      </trkpt>
      <trkpt lat="38.9971690" lon="1.3018990">
        <ele>63.7</ele>
        <time>2020-02-22T09:41:07Z</time>
      </trkpt>
      <trkpt lat="38.9971830" lon="1.3019070">
        <ele>63.8</ele>
        <time>2020-02-22T09:41:08Z</time>
      </trkpt>
      <trkpt lat="38.9972080" lon="1.3019290">
        <ele>64.0</ele>
        <time>2020-02-22T09:41:09Z</time>
      </trkpt>
      <trkpt lat="38.9972180" lon="1.3019350">
        <ele>64.1</ele>
        <time>2020-02-22T09:41:10Z</time>
      </trkpt>
      <trkpt lat="38.9972480" lon="1.3019540">
        <ele>64.3</ele>
        <time>2020-02-22T09:41:11Z</time>
      </trkpt>
      <trkpt lat="38.9972580" lon="1.3019600">
        <ele>64.4</ele>
        <time>2020-02-22T09:41:12Z</time>
      </trkpt>
      <trkpt lat="38.9972880" lon="1.3019760">
        <ele>64.6</ele>
        <time>2020-02-22T09:41:13Z</time>
      </trkpt>
      <trkpt lat="38.9972940" lon="1.3019810">
        <ele>64.6</ele>
        <time>2020-02-22T09:41:14Z</time>
      </trkpt>
      <trkpt lat="38.9973210" lon="1.3019930">
        <ele>64.8</ele>
        <time>2020-02-22T09:41:15Z</time>
      </trkpt>
      <trkpt lat="38.9973320" lon="1.3019990">
        <ele>64.9</ele>
        <time>2020-02-22T09:41:16Z</time>
      </trkpt>
      <trkpt lat="38.9973620" lon="1.3020120">
        <ele>65.0</ele>
        <time>2020-02-22T09:41:17Z</time>
      </trkpt>
      <trkpt lat="38.9973910" lon="1.3020240">
        <ele>65.2</ele>
        <time>2020-02-22T09:41:18Z</time>
      </trkpt>
      <trkpt lat="38.9974290" lon="1.3020320">
        <ele>65.4</ele>
        <time>2020-02-22T09:41:19Z</time>
      </trkpt>
      <trkpt lat="38.9974430" lon="1.3020330">
        <ele>65.4</ele>
        <time>2020-02-22T09:41:20Z</time>
      </trkpt>
      <trkpt lat="38.9974830" lon="1.3020300">
        <ele>65.6</ele>
        <time>2020-02-22T09:41:21Z</time>
      </trkpt>
      <trkpt lat="38.9974970" lon="1.3020280">
        <ele>65.6</ele>
        <time>2020-02-22T09:41:22Z</time>
      </trkpt>
      <trkpt lat="38.9975340" lon="1.3020230">
        <ele>65.7</ele>
        <time>2020-02-22T09:41:23Z</time>
      </trkpt>
      <trkpt lat="38.9975660" lon="1.3020230">
        <ele>65.7</ele>
        <time>2020-02-22T09:41:24Z</time>
      </trkpt>
      <trkpt lat="38.9976070" lon="1.3020000">
        <ele>65.8</ele>
        <time>2020-02-22T09:41:25Z</time>
      </trkpt>
      <trkpt lat="38.9976410" lon="1.3019740">
        <ele>65.9</ele>
        <time>2020-02-22T09:41:26Z</time>
      </trkpt>
      <trkpt lat="38.9976760" lon="1.3019480">
        <ele>66.0</ele>
        <time>2020-02-22T09:41:27Z</time>
      </trkpt>
      <trkpt lat="38.9977070" lon="1.3019280">
        <ele>66.0</ele>
        <time>2020-02-22T09:41:28Z</time>
      </trkpt>
      <trkpt lat="38.9977340" lon="1.3018900">
        <ele>66.1</ele>
        <time>2020-02-22T09:41:29Z</time>
      </trkpt>
      <trkpt lat="38.9977650" lon="1.3018450">
        <ele>66.1</ele>
        <time>2020-02-22T09:41:30Z</time>
      </trkpt>
      <trkpt lat="38.9977800" lon="1.3018270">
        <ele>66.1</ele>
        <time>2020-02-22T09:41:31Z</time>
      </trkpt>
      <trkpt lat="38.9978160" lon="1.3017910">
        <ele>66.1</ele>
        <time>2020-02-22T09:41:32Z</time>
      </trkpt>
      <trkpt lat="38.9978490" lon="1.3017560">
        <ele>66.1</ele>
        <time>2020-02-22T09:41:33Z</time>
      </trkpt>
      <trkpt lat="38.9978740" lon="1.3017140">
        <ele>66.1</ele>
        <time>2020-02-22T09:41:34Z</time>
      </trkpt>
      <trkpt lat="38.9979050" lon="1.3016740">
        <ele>66.1</ele>
        <time>2020-02-22T09:41:35Z</time>
      </trkpt>
      <trkpt lat="38.9979350" lon="1.3016350">
        <ele>66.1</ele>
        <time>2020-02-22T09:41:36Z</time>
      </trkpt>
      <trkpt lat="38.9979600" lon="1.3016020">
        <ele>66.0</ele>
        <time>2020-02-22T09:41:37Z</time>
      </trkpt>
      <trkpt lat="38.9979930" lon="1.3015640">
        <ele>66.0</ele>
        <time>2020-02-22T09:41:38Z</time>
      </trkpt>
      <trkpt lat="38.9980230" lon="1.3015320">
        <ele>66.0</ele>
        <time>2020-02-22T09:41:39Z</time>
      </trkpt>
      <trkpt lat="38.9980540" lon="1.3015040">
        <ele>66.1</ele>
        <time>2020-02-22T09:41:40Z</time>
      </trkpt>
      <trkpt lat="38.9980810" lon="1.3014720">
        <ele>66.1</ele>
        <time>2020-02-22T09:41:41Z</time>
      </trkpt>
      <trkpt lat="38.9981120" lon="1.3014340">
        <ele>66.1</ele>
        <time>2020-02-22T09:41:42Z</time>
      </trkpt>
      <trkpt lat="38.9981480" lon="1.3014040">
        <ele>66.1</ele>
        <time>2020-02-22T09:41:43Z</time>
      </trkpt>
      <trkpt lat="38.9981830" lon="1.3013760">
        <ele>66.1</ele>
        <time>2020-02-22T09:41:44Z</time>
      </trkpt>
      <trkpt lat="38.9982100" lon="1.3013400">
        <ele>66.1</ele>
        <time>2020-02-22T09:41:45Z</time>
      </trkpt>
      <trkpt lat="38.9982420" lon="1.3012970">
        <ele>66.2</ele>
        <time>2020-02-22T09:41:46Z</time>
      </trkpt>
      <trkpt lat="38.9982690" lon="1.3012600">
        <ele>66.2</ele>
        <time>2020-02-22T09:41:47Z</time>
      </trkpt>
      <trkpt lat="38.9983070" lon="1.3012230">
        <ele>66.2</ele>
        <time>2020-02-22T09:41:48Z</time>
      </trkpt>
      <trkpt lat="38.9983370" lon="1.3011860">
        <ele>66.3</ele>
        <time>2020-02-22T09:41:49Z</time>
      </trkpt>
      <trkpt lat="38.9983700" lon="1.3011460">
        <ele>66.3</ele>
        <time>2020-02-22T09:41:50Z</time>
      </trkpt>
      <trkpt lat="38.9984120" lon="1.3010950">
        <ele>66.4</ele>
        <time>2020-02-22T09:41:51Z</time>
      </trkpt>
      <trkpt lat="38.9984520" lon="1.3010480">
        <ele>66.5</ele>
        <time>2020-02-22T09:41:52Z</time>
      </trkpt>
      <trkpt lat="38.9984910" lon="1.3010070">
        <ele>66.6</ele>
        <time>2020-02-22T09:41:53Z</time>
      </trkpt>
      <trkpt lat="38.9985190" lon="1.3009650">
        <ele>66.7</ele>
        <time>2020-02-22T09:41:54Z</time>
      </trkpt>
      <trkpt lat="38.9985430" lon="1.3009250">
        <ele>66.9</ele>
        <time>2020-02-22T09:41:55Z</time>
      </trkpt>
      <trkpt lat="38.9985760" lon="1.3008770">
        <ele>67.1</ele>
        <time>2020-02-22T09:41:56Z</time>
      </trkpt>
      <trkpt lat="38.9985980" lon="1.3008280">
        <ele>67.2</ele>
        <time>2020-02-22T09:41:57Z</time>
      </trkpt>
      <trkpt lat="38.9986280" lon="1.3007910">
        <ele>67.3</ele>
        <time>2020-02-22T09:41:58Z</time>
      </trkpt>
      <trkpt lat="38.9986590" lon="1.3007400">
        <ele>67.4</ele>
        <time>2020-02-22T09:41:59Z</time>
      </trkpt>
      <trkpt lat="38.9986940" lon="1.3007080">
        <ele>67.6</ele>
        <time>2020-02-22T09:42:00Z</time>
      </trkpt>
      <trkpt lat="38.9987290" lon="1.3006760">
        <ele>67.7</ele>
        <time>2020-02-22T09:42:01Z</time>
      </trkpt>
      <trkpt lat="38.9987590" lon="1.3006490">
        <ele>67.8</ele>
        <time>2020-02-22T09:42:02Z</time>
      </trkpt>
      <trkpt lat="38.9987880" lon="1.3006200">
        <ele>67.9</ele>
        <time>2020-02-22T09:42:03Z</time>
      </trkpt>
      <trkpt lat="38.9988100" lon="1.3005810">
        <ele>68.0</ele>
        <time>2020-02-22T09:42:04Z</time>
      </trkpt>
      <trkpt lat="38.9988370" lon="1.3005380">
        <ele>68.1</ele>
        <time>2020-02-22T09:42:05Z</time>
      </trkpt>
      <trkpt lat="38.9988540" lon="1.3004980">
        <ele>68.2</ele>
        <time>2020-02-22T09:42:06Z</time>
      </trkpt>
      <trkpt lat="38.9988800" lon="1.3004500">
        <ele>68.3</ele>
        <time>2020-02-22T09:42:07Z</time>
      </trkpt>
      <trkpt lat="38.9989070" lon="1.3004030">
        <ele>68.4</ele>
        <time>2020-02-22T09:42:08Z</time>
      </trkpt>
      <trkpt lat="38.9989360" lon="1.3003730">
        <ele>68.5</ele>
        <time>2020-02-22T09:42:09Z</time>
      </trkpt>
      <trkpt lat="38.9989600" lon="1.3003390">
        <ele>68.5</ele>
        <time>2020-02-22T09:42:10Z</time>
      </trkpt>
      <trkpt lat="38.9989880" lon="1.3002990">
        <ele>68.6</ele>
        <time>2020-02-22T09:42:11Z</time>
      </trkpt>
      <trkpt lat="38.9990210" lon="1.3002570">
        <ele>68.7</ele>
        <time>2020-02-22T09:42:12Z</time>
      </trkpt>
      <trkpt lat="38.9990450" lon="1.3002250">
        <ele>68.7</ele>
        <time>2020-02-22T09:42:13Z</time>
      </trkpt>
      <trkpt lat="38.9990710" lon="1.3001930">
        <ele>68.8</ele>
        <time>2020-02-22T09:42:14Z</time>
      </trkpt>
      <trkpt lat="38.9990950" lon="1.3001510">
        <ele>68.8</ele>
        <time>2020-02-22T09:42:15Z</time>
      </trkpt>
      <trkpt lat="38.9991230" lon="1.3001140">
        <ele>68.9</ele>
        <time>2020-02-22T09:42:16Z</time>
      </trkpt>
      <trkpt lat="38.9991550" lon="1.3000810">
        <ele>69.0</ele>
        <time>2020-02-22T09:42:17Z</time>
      </trkpt>
      <trkpt lat="38.9991810" lon="1.3000480">
        <ele>69.0</ele>
        <time>2020-02-22T09:42:18Z</time>
      </trkpt>
      <trkpt lat="38.9992050" lon="1.3000060">
        <ele>69.1</ele>
        <time>2020-02-22T09:42:19Z</time>
      </trkpt>
      <trkpt lat="38.9992260" lon="1.2999640">
        <ele>69.1</ele>
        <time>2020-02-22T09:42:20Z</time>
      </trkpt>
      <trkpt lat="38.9992540" lon="1.2999330">
        <ele>69.1</ele>
        <time>2020-02-22T09:42:21Z</time>
      </trkpt>
      <trkpt lat="38.9992780" lon="1.2999010">
        <ele>69.1</ele>
        <time>2020-02-22T09:42:22Z</time>
      </trkpt>
      <trkpt lat="38.9993020" lon="1.2998650">
        <ele>69.1</ele>
        <time>2020-02-22T09:42:23Z</time>
      </trkpt>
      <trkpt lat="38.9993320" lon="1.2998290">
        <ele>69.1</ele>
        <time>2020-02-22T09:42:24Z</time>
      </trkpt>
      <trkpt lat="38.9993610" lon="1.2997940">
        <ele>69.1</ele>
        <time>2020-02-22T09:42:25Z</time>
      </trkpt>
      <trkpt lat="38.9993890" lon="1.2997610">
        <ele>69.2</ele>
        <time>2020-02-22T09:42:26Z</time>
      </trkpt>
      <trkpt lat="38.9994170" lon="1.2997300">
        <ele>69.2</ele>
        <time>2020-02-22T09:42:27Z</time>
      </trkpt>
      <trkpt lat="38.9994440" lon="1.2996910">
        <ele>69.2</ele>
        <time>2020-02-22T09:42:28Z</time>
      </trkpt>
      <trkpt lat="38.9994740" lon="1.2996620">
        <ele>69.2</ele>
        <time>2020-02-22T09:42:29Z</time>
      </trkpt>
      <trkpt lat="38.9994980" lon="1.2996180">
        <ele>69.2</ele>
        <time>2020-02-22T09:42:30Z</time>
      </trkpt>
      <trkpt lat="38.9995240" lon="1.2995750">
        <ele>69.2</ele>
        <time>2020-02-22T09:42:31Z</time>
      </trkpt>
      <trkpt lat="38.9995540" lon="1.2995420">
        <ele>69.3</ele>
        <time>2020-02-22T09:42:32Z</time>
      </trkpt>
      <trkpt lat="38.9995800" lon="1.2995030">
        <ele>69.3</ele>
        <time>2020-02-22T09:42:33Z</time>
      </trkpt>
      <trkpt lat="38.9995970" lon="1.2994620">
        <ele>69.3</ele>
        <time>2020-02-22T09:42:34Z</time>
      </trkpt>
      <trkpt lat="38.9996220" lon="1.2994220">
        <ele>69.4</ele>
        <time>2020-02-22T09:42:35Z</time>
      </trkpt>
      <trkpt lat="38.9996490" lon="1.2993790">
        <ele>69.4</ele>
        <time>2020-02-22T09:42:36Z</time>
      </trkpt>
      <trkpt lat="38.9996810" lon="1.2993560">
        <ele>69.5</ele>
        <time>2020-02-22T09:42:37Z</time>
      </trkpt>
      <trkpt lat="38.9997120" lon="1.2993270">
        <ele>69.6</ele>
        <time>2020-02-22T09:42:38Z</time>
      </trkpt>
      <trkpt lat="38.9997410" lon="1.2992930">
        <ele>69.6</ele>
        <time>2020-02-22T09:42:39Z</time>
      </trkpt>
      <trkpt lat="38.9997710" lon="1.2992520">
        <ele>69.7</ele>
        <time>2020-02-22T09:42:40Z</time>
      </trkpt>
      <trkpt lat="38.9997970" lon="1.2992110">
        <ele>69.7</ele>
        <time>2020-02-22T09:42:41Z</time>
      </trkpt>
      <trkpt lat="38.9998180" lon="1.2991720">
        <ele>69.8</ele>
        <time>2020-02-22T09:42:42Z</time>
      </trkpt>
      <trkpt lat="38.9998420" lon="1.2991420">
        <ele>69.8</ele>
        <time>2020-02-22T09:42:43Z</time>
      </trkpt>
      <trkpt lat="38.9998660" lon="1.2991070">
        <ele>69.9</ele>
        <time>2020-02-22T09:42:44Z</time>
      </trkpt>
      <trkpt lat="38.9998940" lon="1.2990800">
        <ele>69.9</ele>
        <time>2020-02-22T09:42:45Z</time>
      </trkpt>
      <trkpt lat="38.9999230" lon="1.2990480">
        <ele>69.9</ele>
        <time>2020-02-22T09:42:46Z</time>
      </trkpt>
      <trkpt lat="38.9999550" lon="1.2990180">
        <ele>70.0</ele>
        <time>2020-02-22T09:42:47Z</time>
      </trkpt>
      <trkpt lat="38.9999900" lon="1.2989840">
        <ele>70.0</ele>
        <time>2020-02-22T09:42:48Z</time>
      </trkpt>
      <trkpt lat="39.0000200" lon="1.2989610">
        <ele>70.0</ele>
        <time>2020-02-22T09:42:49Z</time>
      </trkpt>
      <trkpt lat="39.0000540" lon="1.2989340">
        <ele>70.1</ele>
        <time>2020-02-22T09:42:50Z</time>
      </trkpt>
      <trkpt lat="39.0000830" lon="1.2989090">
        <ele>70.1</ele>
        <time>2020-02-22T09:42:51Z</time>
      </trkpt>
      <trkpt lat="39.0001150" lon="1.2988800">
        <ele>70.1</ele>
        <time>2020-02-22T09:42:52Z</time>
      </trkpt>
      <trkpt lat="39.0001390" lon="1.2988540">
        <ele>70.1</ele>
        <time>2020-02-22T09:42:53Z</time>
      </trkpt>
      <trkpt lat="39.0001680" lon="1.2988270">
        <ele>70.1</ele>
        <time>2020-02-22T09:42:54Z</time>
      </trkpt>
      <trkpt lat="39.0001970" lon="1.2987920">
        <ele>70.1</ele>
        <time>2020-02-22T09:42:55Z</time>
      </trkpt>
      <trkpt lat="39.0002280" lon="1.2987580">
        <ele>70.1</ele>
        <time>2020-02-22T09:42:56Z</time>
      </trkpt>
      <trkpt lat="39.0002620" lon="1.2987230">
        <ele>70.1</ele>
        <time>2020-02-22T09:42:57Z</time>
      </trkpt>
      <trkpt lat="39.0002880" lon="1.2986860">
        <ele>70.1</ele>
        <time>2020-02-22T09:42:58Z</time>
      </trkpt>
      <trkpt lat="39.0003180" lon="1.2986460">
        <ele>70.1</ele>
        <time>2020-02-22T09:42:59Z</time>
      </trkpt>
      <trkpt lat="39.0003420" lon="1.2986190">
        <ele>70.1</ele>
        <time>2020-02-22T09:43:00Z</time>
      </trkpt>
      <trkpt lat="39.0003740" lon="1.2985920">
        <ele>70.0</ele>
        <time>2020-02-22T09:43:01Z</time>
      </trkpt>
      <trkpt lat="39.0004080" lon="1.2985580">
        <ele>70.0</ele>
        <time>2020-02-22T09:43:02Z</time>
      </trkpt>
      <trkpt lat="39.0004470" lon="1.2985390">
        <ele>69.9</ele>
        <time>2020-02-22T09:43:03Z</time>
      </trkpt>
      <trkpt lat="39.0004790" lon="1.2985120">
        <ele>69.9</ele>
        <time>2020-02-22T09:43:04Z</time>
      </trkpt>
      <trkpt lat="39.0005080" lon="1.2984760">
        <ele>69.8</ele>
        <time>2020-02-22T09:43:05Z</time>
      </trkpt>
      <trkpt lat="39.0005380" lon="1.2984440">
        <ele>69.6</ele>
        <time>2020-02-22T09:43:06Z</time>
      </trkpt>
      <trkpt lat="39.0005720" lon="1.2984290">
        <ele>69.5</ele>
        <time>2020-02-22T09:43:07Z</time>
      </trkpt>
      <trkpt lat="39.0006060" lon="1.2984140">
        <ele>69.4</ele>
        <time>2020-02-22T09:43:08Z</time>
      </trkpt>
      <trkpt lat="39.0006520" lon="1.2983980">
        <ele>69.3</ele>
        <time>2020-02-22T09:43:09Z</time>
      </trkpt>
      <trkpt lat="39.0007010" lon="1.2983740">
        <ele>69.1</ele>
        <time>2020-02-22T09:43:10Z</time>
      </trkpt>
      <trkpt lat="39.0007520" lon="1.2983470">
        <ele>68.9</ele>
        <time>2020-02-22T09:43:11Z</time>
      </trkpt>
      <trkpt lat="39.0008000" lon="1.2983180">
        <ele>68.7</ele>
        <time>2020-02-22T09:43:12Z</time>
      </trkpt>
      <trkpt lat="39.0008490" lon="1.2982870">
        <ele>68.5</ele>
        <time>2020-02-22T09:43:13Z</time>
      </trkpt>
      <trkpt lat="39.0009000" lon="1.2982510">
        <ele>68.4</ele>
        <time>2020-02-22T09:43:14Z</time>
      </trkpt>
      <trkpt lat="39.0009460" lon="1.2982230">
        <ele>68.2</ele>
        <time>2020-02-22T09:43:15Z</time>
      </trkpt>
      <trkpt lat="39.0009940" lon="1.2981950">
        <ele>68.0</ele>
        <time>2020-02-22T09:43:16Z</time>
      </trkpt>
      <trkpt lat="39.0010390" lon="1.2981700">
        <ele>67.8</ele>
        <time>2020-02-22T09:43:17Z</time>
      </trkpt>
      <trkpt lat="39.0010930" lon="1.2981440">
        <ele>67.5</ele>
        <time>2020-02-22T09:43:18Z</time>
      </trkpt>
      <trkpt lat="39.0011390" lon="1.2981160">
        <ele>67.3</ele>
        <time>2020-02-22T09:43:19Z</time>
      </trkpt>
      <trkpt lat="39.0011930" lon="1.2980740">
        <ele>67.0</ele>
        <time>2020-02-22T09:43:20Z</time>
      </trkpt>
      <trkpt lat="39.0012410" lon="1.2980380">
        <ele>66.5</ele>
        <time>2020-02-22T09:43:21Z</time>
      </trkpt>
      <trkpt lat="39.0012900" lon="1.2979930">
        <ele>66.1</ele>
        <time>2020-02-22T09:43:22Z</time>
      </trkpt>
      <trkpt lat="39.0013430" lon="1.2979420">
        <ele>65.7</ele>
        <time>2020-02-22T09:43:23Z</time>
      </trkpt>
      <trkpt lat="39.0013940" lon="1.2978860">
        <ele>65.3</ele>
        <time>2020-02-22T09:43:24Z</time>
      </trkpt>
      <trkpt lat="39.0014370" lon="1.2978460">
        <ele>65.0</ele>
        <time>2020-02-22T09:43:25Z</time>
      </trkpt>
      <trkpt lat="39.0014780" lon="1.2978140">
        <ele>64.7</ele>
        <time>2020-02-22T09:43:26Z</time>
      </trkpt>
      <trkpt lat="39.0015260" lon="1.2977810">
        <ele>64.3</ele>
        <time>2020-02-22T09:43:27Z</time>
      </trkpt>
      <trkpt lat="39.0015760" lon="1.2977520">
        <ele>64.0</ele>
        <time>2020-02-22T09:43:28Z</time>
      </trkpt>
      <trkpt lat="39.0016260" lon="1.2977210">
        <ele>63.7</ele>
        <time>2020-02-22T09:43:29Z</time>
      </trkpt>
      <trkpt lat="39.0016700" lon="1.2976860">
        <ele>63.5</ele>
        <time>2020-02-22T09:43:30Z</time>
      </trkpt>
      <trkpt lat="39.0017160" lon="1.2976450">
        <ele>63.2</ele>
        <time>2020-02-22T09:43:31Z</time>
      </trkpt>
      <trkpt lat="39.0017700" lon="1.2976020">
        <ele>62.9</ele>
        <time>2020-02-22T09:43:32Z</time>
      </trkpt>
      <trkpt lat="39.0018290" lon="1.2975480">
        <ele>62.6</ele>
        <time>2020-02-22T09:43:33Z</time>
      </trkpt>
      <trkpt lat="39.0018870" lon="1.2975010">
        <ele>62.3</ele>
        <time>2020-02-22T09:43:34Z</time>
      </trkpt>
      <trkpt lat="39.0019420" lon="1.2974580">
        <ele>62.0</ele>
        <time>2020-02-22T09:43:35Z</time>
      </trkpt>
      <trkpt lat="39.0020030" lon="1.2974170">
        <ele>61.8</ele>
        <time>2020-02-22T09:43:36Z</time>
      </trkpt>
      <trkpt lat="39.0020630" lon="1.2973730">
        <ele>61.6</ele>
        <time>2020-02-22T09:43:37Z</time>
      </trkpt>
      <trkpt lat="39.0021170" lon="1.2973190">
        <ele>61.3</ele>
        <time>2020-02-22T09:43:38Z</time>
      </trkpt>
      <trkpt lat="39.0021690" lon="1.2972510">
        <ele>61.1</ele>
        <time>2020-02-22T09:43:39Z</time>
      </trkpt>
      <trkpt lat="39.0022210" lon="1.2971960">
        <ele>60.8</ele>
        <time>2020-02-22T09:43:40Z</time>
      </trkpt>
      <trkpt lat="39.0022660" lon="1.2971390">
        <ele>60.6</ele>
        <time>2020-02-22T09:43:41Z</time>
      </trkpt>
      <trkpt lat="39.0023170" lon="1.2970770">
        <ele>60.2</ele>
        <time>2020-02-22T09:43:42Z</time>
      </trkpt>
      <trkpt lat="39.0023590" lon="1.2970330">
        <ele>60.0</ele>
        <time>2020-02-22T09:43:43Z</time>
      </trkpt>
      <trkpt lat="39.0024020" lon="1.2969990">
        <ele>59.6</ele>
        <time>2020-02-22T09:43:44Z</time>
      </trkpt>
      <trkpt lat="39.0024590" lon="1.2969520">
        <ele>59.2</ele>
        <time>2020-02-22T09:43:45Z</time>
      </trkpt>
      <trkpt lat="39.0025060" lon="1.2969200">
        <ele>58.9</ele>
        <time>2020-02-22T09:43:46Z</time>
      </trkpt>
      <trkpt lat="39.0025720" lon="1.2968880">
        <ele>58.5</ele>
        <time>2020-02-22T09:43:47Z</time>
      </trkpt>
      <trkpt lat="39.0026300" lon="1.2968440">
        <ele>58.1</ele>
        <time>2020-02-22T09:43:48Z</time>
      </trkpt>
      <trkpt lat="39.0026910" lon="1.2967960">
        <ele>57.7</ele>
        <time>2020-02-22T09:43:49Z</time>
      </trkpt>
      <trkpt lat="39.0027490" lon="1.2967490">
        <ele>57.4</ele>
        <time>2020-02-22T09:43:50Z</time>
      </trkpt>
      <trkpt lat="39.0028030" lon="1.2966950">
        <ele>57.1</ele>
        <time>2020-02-22T09:43:51Z</time>
      </trkpt>
      <trkpt lat="39.0028530" lon="1.2966460">
        <ele>56.8</ele>
        <time>2020-02-22T09:43:52Z</time>
      </trkpt>
      <trkpt lat="39.0029130" lon="1.2965920">
        <ele>56.5</ele>
        <time>2020-02-22T09:43:53Z</time>
      </trkpt>
      <trkpt lat="39.0029620" lon="1.2965380">
        <ele>56.4</ele>
        <time>2020-02-22T09:43:54Z</time>
      </trkpt>
      <trkpt lat="39.0029960" lon="1.2964990">
        <ele>56.3</ele>
        <time>2020-02-22T09:43:55Z</time>
      </trkpt>
      <trkpt lat="39.0030100" lon="1.2964810">
        <ele>56.2</ele>
        <time>2020-02-22T09:43:56Z</time>
      </trkpt>
      <trkpt lat="39.0030160" lon="1.2964720">
        <ele>56.2</ele>
        <time>2020-02-22T09:43:57Z</time>
      </trkpt>
      <trkpt lat="39.0030210" lon="1.2964670">
        <ele>56.2</ele>
        <time>2020-02-22T09:43:58Z</time>
      </trkpt>
      <trkpt lat="39.0030310" lon="1.2964720">
        <ele>56.2</ele>
        <time>2020-02-22T09:43:59Z</time>
      </trkpt>
      <trkpt lat="39.0030460" lon="1.2964700">
        <ele>56.2</ele>
        <time>2020-02-22T09:44:00Z</time>
      </trkpt>
      <trkpt lat="39.0030550" lon="1.2964600">
        <ele>56.2</ele>
        <time>2020-02-22T09:44:01Z</time>
      </trkpt>
      <trkpt lat="39.0030560" lon="1.2964570">
        <ele>56.2</ele>
        <time>2020-02-22T09:44:02Z</time>
      </trkpt>
      <trkpt lat="39.0030560" lon="1.2964590">
        <ele>56.2</ele>
        <time>2020-02-22T09:44:03Z</time>
      </trkpt>
      <trkpt lat="39.0030500" lon="1.2964650">
        <ele>56.2</ele>
        <time>2020-02-22T09:44:04Z</time>
      </trkpt>
      <trkpt lat="39.0030350" lon="1.2964820">
        <ele>56.2</ele>
        <time>2020-02-22T09:44:05Z</time>
      </trkpt>
      <trkpt lat="39.0030260" lon="1.2964880">
        <ele>56.2</ele>
        <time>2020-02-22T09:44:06Z</time>
      </trkpt>
      <trkpt lat="39.0030240" lon="1.2964940">
        <ele>56.1</ele>
        <time>2020-02-22T09:44:07Z</time>
      </trkpt>
      <trkpt lat="39.0030260" lon="1.2964980">
        <ele>56.1</ele>
        <time>2020-02-22T09:44:08Z</time>
      </trkpt>
      <trkpt lat="39.0030320" lon="1.2964980">
        <ele>56.1</ele>
        <time>2020-02-22T09:44:09Z</time>
      </trkpt>
      <trkpt lat="39.0030370" lon="1.2964990">
        <ele>56.5</ele>
        <time>2020-02-22T09:44:10Z</time>
      </trkpt>
      <trkpt lat="39.0030380" lon="1.2964950">
        <ele>56.1</ele>
        <time>2020-02-22T09:44:11Z</time>
      </trkpt>
      <trkpt lat="39.0030410" lon="1.2965010">
        <ele>56.5</ele>
        <time>2020-02-22T09:44:12Z</time>
      </trkpt>
      <trkpt lat="39.0030440" lon="1.2965180">
        <ele>56.7</ele>
        <time>2020-02-22T09:44:18Z</time>
      </trkpt>
      <trkpt lat="39.0030440" lon="1.2965200">
        <ele>56.7</ele>
        <time>2020-02-22T09:44:19Z</time>
      </trkpt>
      <trkpt lat="39.0030410" lon="1.2965260">
        <ele>56.7</ele>
        <time>2020-02-22T09:44:20Z</time>
      </trkpt>
      <trkpt lat="39.0030350" lon="1.2965270">
        <ele>56.8</ele>
        <time>2020-02-22T09:44:21Z</time>
      </trkpt>
      <trkpt lat="39.0030160" lon="1.2965330">
        <ele>57.0</ele>
        <time>2020-02-22T09:44:22Z</time>
      </trkpt>
      <trkpt lat="39.0029850" lon="1.2965480">
        <ele>57.3</ele>
        <time>2020-02-22T09:44:23Z</time>
      </trkpt>
      <trkpt lat="39.0029500" lon="1.2965690">
        <ele>57.6</ele>
        <time>2020-02-22T09:44:24Z</time>
      </trkpt>
      <trkpt lat="39.0029380" lon="1.2965760">
        <ele>57.8</ele>
        <time>2020-02-22T09:44:25Z</time>
      </trkpt>
      <trkpt lat="39.0029120" lon="1.2965960">
        <ele>58.1</ele>
        <time>2020-02-22T09:44:26Z</time>
      </trkpt>
      <trkpt lat="39.0028860" lon="1.2966140">
        <ele>58.4</ele>
        <time>2020-02-22T09:44:27Z</time>
      </trkpt>
      <trkpt lat="39.0028610" lon="1.2966440">
        <ele>58.7</ele>
        <time>2020-02-22T09:44:28Z</time>
      </trkpt>
      <trkpt lat="39.0028500" lon="1.2966570">
        <ele>58.9</ele>
        <time>2020-02-22T09:44:29Z</time>
      </trkpt>
      <trkpt lat="39.0028300" lon="1.2966880">
        <ele>59.2</ele>
        <time>2020-02-22T09:44:30Z</time>
      </trkpt>
      <trkpt lat="39.0028110" lon="1.2967240">
        <ele>59.5</ele>
        <time>2020-02-22T09:44:31Z</time>
      </trkpt>
      <trkpt lat="39.0028060" lon="1.2967550">
        <ele>59.8</ele>
        <time>2020-02-22T09:44:32Z</time>
      </trkpt>
      <trkpt lat="39.0028120" lon="1.2967530">
        <ele>59.9</ele>
        <time>2020-02-22T09:44:33Z</time>
      </trkpt>
      <trkpt lat="39.0028100" lon="1.2967440">
        <ele>59.9</ele>
        <time>2020-02-22T09:44:34Z</time>
      </trkpt>
      <trkpt lat="39.0028070" lon="1.2967310">
        <ele>60.0</ele>
        <time>2020-02-22T09:44:35Z</time>
      </trkpt>
      <trkpt lat="39.0028120" lon="1.2967680">
        <ele>60.3</ele>
        <time>2020-02-22T09:44:36Z</time>
      </trkpt>
      <trkpt lat="39.0028190" lon="1.2967830">
        <ele>60.5</ele>
        <time>2020-02-22T09:44:37Z</time>
      </trkpt>
      <trkpt lat="39.0028250" lon="1.2967980">
        <ele>60.6</ele>
        <time>2020-02-22T09:44:38Z</time>
      </trkpt>
      <trkpt lat="39.0028250" lon="1.2968020">
        <ele>60.6</ele>
        <time>2020-02-22T09:44:39Z</time>
      </trkpt>
      <trkpt lat="39.0028320" lon="1.2968180">
        <ele>60.8</ele>
        <time>2020-02-22T09:44:40Z</time>
      </trkpt>
      <trkpt lat="39.0028380" lon="1.2968350">
        <ele>60.9</ele>
        <time>2020-02-22T09:44:41Z</time>
      </trkpt>
      <trkpt lat="39.0028440" lon="1.2968390">
        <ele>60.9</ele>
        <time>2020-02-22T09:44:42Z</time>
      </trkpt>
      <trkpt lat="39.0028480" lon="1.2968360">
        <ele>61.0</ele>
        <time>2020-02-22T09:44:43Z</time>
      </trkpt>
      <trkpt lat="39.0028520" lon="1.2968330">
        <ele>61.0</ele>
        <time>2020-02-22T09:44:44Z</time>
      </trkpt>
      <trkpt lat="39.0028570" lon="1.2968310">
        <ele>61.1</ele>
        <time>2020-02-22T09:44:45Z</time>
      </trkpt>
      <trkpt lat="39.0028610" lon="1.2968280">
        <ele>61.1</ele>
        <time>2020-02-22T09:44:46Z</time>
      </trkpt>
      <trkpt lat="39.0028650" lon="1.2968250">
        <ele>61.1</ele>
        <time>2020-02-22T09:44:47Z</time>
      </trkpt>
      <trkpt lat="39.0028690" lon="1.2968220">
        <ele>61.2</ele>
        <time>2020-02-22T09:44:48Z</time>
      </trkpt>
      <trkpt lat="39.0028730" lon="1.2968190">
        <ele>61.2</ele>
        <time>2020-02-22T09:44:49Z</time>
      </trkpt>
      <trkpt lat="39.0029020" lon="1.2967960">
        <ele>61.5</ele>
        <time>2020-02-22T09:44:50Z</time>
      </trkpt>
      <trkpt lat="39.0029290" lon="1.2967770">
        <ele>61.7</ele>
        <time>2020-02-22T09:44:51Z</time>
      </trkpt>
      <trkpt lat="39.0029600" lon="1.2967530">
        <ele>62.0</ele>
        <time>2020-02-22T09:44:52Z</time>
      </trkpt>
      <trkpt lat="39.0029980" lon="1.2967310">
        <ele>62.4</ele>
        <time>2020-02-22T09:44:53Z</time>
      </trkpt>
      <trkpt lat="39.0030400" lon="1.2967210">
        <ele>62.7</ele>
        <time>2020-02-22T09:44:54Z</time>
      </trkpt>
      <trkpt lat="39.0030680" lon="1.2967280">
        <ele>63.0</ele>
        <time>2020-02-22T09:44:55Z</time>
      </trkpt>
      <trkpt lat="39.0030920" lon="1.2967460">
        <ele>63.2</ele>
        <time>2020-02-22T09:44:56Z</time>
      </trkpt>
      <trkpt lat="39.0031070" lon="1.2967850">
        <ele>63.5</ele>
        <time>2020-02-22T09:44:57Z</time>
      </trkpt>
      <trkpt lat="39.0031180" lon="1.2968350">
        <ele>63.8</ele>
        <time>2020-02-22T09:44:58Z</time>
      </trkpt>
      <trkpt lat="39.0031340" lon="1.2968770">
        <ele>64.0</ele>
        <time>2020-02-22T09:44:59Z</time>
      </trkpt>
      <trkpt lat="39.0031500" lon="1.2969060">
        <ele>64.2</ele>
        <time>2020-02-22T09:45:00Z</time>
      </trkpt>
      <trkpt lat="39.0031750" lon="1.2969450">
        <ele>64.5</ele>
        <time>2020-02-22T09:45:01Z</time>
      </trkpt>
      <trkpt lat="39.0031840" lon="1.2969610">
        <ele>64.6</ele>
        <time>2020-02-22T09:45:02Z</time>
      </trkpt>
      <trkpt lat="39.0031940" lon="1.2970010">
        <ele>64.8</ele>
        <time>2020-02-22T09:45:03Z</time>
      </trkpt>
      <trkpt lat="39.0032250" lon="1.2970330">
        <ele>65.1</ele>
        <time>2020-02-22T09:45:04Z</time>
      </trkpt>
      <trkpt lat="39.0032330" lon="1.2970480">
        <ele>65.2</ele>
        <time>2020-02-22T09:45:05Z</time>
      </trkpt>
      <trkpt lat="39.0032550" lon="1.2970850">
        <ele>65.3</ele>
        <time>2020-02-22T09:45:06Z</time>
      </trkpt>
      <trkpt lat="39.0032610" lon="1.2971000">
        <ele>65.4</ele>
        <time>2020-02-22T09:45:07Z</time>
      </trkpt>
      <trkpt lat="39.0032680" lon="1.2971240">
        <ele>65.5</ele>
        <time>2020-02-22T09:45:08Z</time>
      </trkpt>
      <trkpt lat="39.0032750" lon="1.2971420">
        <ele>65.6</ele>
        <time>2020-02-22T09:45:09Z</time>
      </trkpt>
      <trkpt lat="39.0032940" lon="1.2971720">
        <ele>65.8</ele>
        <time>2020-02-22T09:45:10Z</time>
      </trkpt>
      <trkpt lat="39.0032990" lon="1.2971880">
        <ele>65.8</ele>
        <time>2020-02-22T09:45:11Z</time>
      </trkpt>
      <trkpt lat="39.0033160" lon="1.2972050">
        <ele>65.9</ele>
        <time>2020-02-22T09:45:12Z</time>
      </trkpt>
      <trkpt lat="39.0033210" lon="1.2972240">
        <ele>66.0</ele>
        <time>2020-02-22T09:45:13Z</time>
      </trkpt>
      <trkpt lat="39.0033340" lon="1.2972330">
        <ele>66.1</ele>
        <time>2020-02-22T09:45:14Z</time>
      </trkpt>
      <trkpt lat="39.0033440" lon="1.2972530">
        <ele>66.2</ele>
        <time>2020-02-22T09:45:15Z</time>
      </trkpt>
      <trkpt lat="39.0033410" lon="1.2972890">
        <ele>66.3</ele>
        <time>2020-02-22T09:45:16Z</time>
      </trkpt>
      <trkpt lat="39.0033410" lon="1.2973020">
        <ele>66.4</ele>
        <time>2020-02-22T09:45:17Z</time>
      </trkpt>
      <trkpt lat="39.0033400" lon="1.2973160">
        <ele>66.5</ele>
        <time>2020-02-22T09:45:18Z</time>
      </trkpt>
      <trkpt lat="39.0033340" lon="1.2973360">
        <ele>66.5</ele>
        <time>2020-02-22T09:45:19Z</time>
      </trkpt>
      <trkpt lat="39.0033290" lon="1.2973630">
        <ele>66.6</ele>
        <time>2020-02-22T09:45:20Z</time>
      </trkpt>
      <trkpt lat="39.0033320" lon="1.2973740">
        <ele>69.8</ele>
        <time>2020-02-22T09:45:21Z</time>
      </trkpt>
      <trkpt lat="39.0033350" lon="1.2974230">
        <ele>70.2</ele>
        <time>2020-02-22T09:45:22Z</time>
      </trkpt>
      <trkpt lat="39.0033320" lon="1.2974390">
        <ele>70.3</ele>
        <time>2020-02-22T09:45:23Z</time>
      </trkpt>
      <trkpt lat="39.0033320" lon="1.2974620">
        <ele>70.5</ele>
        <time>2020-02-22T09:45:24Z</time>
      </trkpt>
      <trkpt lat="39.0033390" lon="1.2974790">
        <ele>70.7</ele>
        <time>2020-02-22T09:45:25Z</time>
      </trkpt>
      <trkpt lat="39.0033400" lon="1.2975140">
        <ele>70.9</ele>
        <time>2020-02-22T09:45:26Z</time>
      </trkpt>
      <trkpt lat="39.0033350" lon="1.2975270">
        <ele>71.1</ele>
        <time>2020-02-22T09:45:27Z</time>
      </trkpt>
      <trkpt lat="39.0033280" lon="1.2975440">
        <ele>71.2</ele>
        <time>2020-02-22T09:45:28Z</time>
      </trkpt>
      <trkpt lat="39.0033310" lon="1.2975650">
        <ele>71.5</ele>
        <time>2020-02-22T09:45:29Z</time>
      </trkpt>
      <trkpt lat="39.0033280" lon="1.2975930">
        <ele>71.7</ele>
        <time>2020-02-22T09:45:30Z</time>
      </trkpt>
      <trkpt lat="39.0033250" lon="1.2976010">
        <ele>71.8</ele>
        <time>2020-02-22T09:45:31Z</time>
      </trkpt>
      <trkpt lat="39.0033300" lon="1.2976200">
        <ele>72.0</ele>
        <time>2020-02-22T09:45:32Z</time>
      </trkpt>
      <trkpt lat="39.0033280" lon="1.2976390">
        <ele>72.2</ele>
        <time>2020-02-22T09:45:33Z</time>
      </trkpt>
      <trkpt lat="39.0033280" lon="1.2976610">
        <ele>72.4</ele>
        <time>2020-02-22T09:45:34Z</time>
      </trkpt>
      <trkpt lat="39.0033210" lon="1.2976770">
        <ele>72.5</ele>
        <time>2020-02-22T09:45:35Z</time>
      </trkpt>
      <trkpt lat="39.0033270" lon="1.2976940">
        <ele>72.7</ele>
        <time>2020-02-22T09:45:36Z</time>
      </trkpt>
      <trkpt lat="39.0033420" lon="1.2976970">
        <ele>72.9</ele>
        <time>2020-02-22T09:45:37Z</time>
      </trkpt>
      <trkpt lat="39.0033480" lon="1.2977080">
        <ele>73.0</ele>
        <time>2020-02-22T09:45:38Z</time>
      </trkpt>
      <trkpt lat="39.0033470" lon="1.2977190">
        <ele>73.1</ele>
        <time>2020-02-22T09:45:39Z</time>
      </trkpt>
      <trkpt lat="39.0033450" lon="1.2977350">
        <ele>73.3</ele>
        <time>2020-02-22T09:45:40Z</time>
      </trkpt>
      <trkpt lat="39.0033450" lon="1.2977530">
        <ele>73.4</ele>
        <time>2020-02-22T09:45:41Z</time>
      </trkpt>
      <trkpt lat="39.0033390" lon="1.2977900">
        <ele>73.8</ele>
        <time>2020-02-22T09:45:42Z</time>
      </trkpt>
      <trkpt lat="39.0033370" lon="1.2978030">
        <ele>74.0</ele>
        <time>2020-02-22T09:45:43Z</time>
      </trkpt>
      <trkpt lat="39.0033370" lon="1.2978260">
        <ele>74.2</ele>
        <time>2020-02-22T09:45:44Z</time>
      </trkpt>
      <trkpt lat="39.0033350" lon="1.2978470">
        <ele>74.4</ele>
        <time>2020-02-22T09:45:45Z</time>
      </trkpt>
      <trkpt lat="39.0033370" lon="1.2978780">
        <ele>74.7</ele>
        <time>2020-02-22T09:45:46Z</time>
      </trkpt>
      <trkpt lat="39.0033390" lon="1.2978890">
        <ele>74.8</ele>
        <time>2020-02-22T09:45:47Z</time>
      </trkpt>
      <trkpt lat="39.0033420" lon="1.2979000">
        <ele>74.9</ele>
        <time>2020-02-22T09:45:48Z</time>
      </trkpt>
      <trkpt lat="39.0033470" lon="1.2979430">
        <ele>75.3</ele>
        <time>2020-02-22T09:45:49Z</time>
      </trkpt>
      <trkpt lat="39.0033450" lon="1.2979550">
        <ele>75.4</ele>
        <time>2020-02-22T09:45:50Z</time>
      </trkpt>
      <trkpt lat="39.0033410" lon="1.2979720">
        <ele>75.6</ele>
        <time>2020-02-22T09:45:51Z</time>
      </trkpt>
      <trkpt lat="39.0033480" lon="1.2979960">
        <ele>75.8</ele>
        <time>2020-02-22T09:45:52Z</time>
      </trkpt>
      <trkpt lat="39.0033550" lon="1.2980200">
        <ele>76.1</ele>
        <time>2020-02-22T09:45:53Z</time>
      </trkpt>
      <trkpt lat="39.0033550" lon="1.2980350">
        <ele>76.2</ele>
        <time>2020-02-22T09:45:54Z</time>
      </trkpt>
      <trkpt lat="39.0033550" lon="1.2980490">
        <ele>76.3</ele>
        <time>2020-02-22T09:45:55Z</time>
      </trkpt>
      <trkpt lat="39.0033590" lon="1.2980820">
        <ele>76.6</ele>
        <time>2020-02-22T09:45:56Z</time>
      </trkpt>
      <trkpt lat="39.0033580" lon="1.2980960">
        <ele>76.8</ele>
        <time>2020-02-22T09:45:57Z</time>
      </trkpt>
      <trkpt lat="39.0033520" lon="1.2981190">
        <ele>77.0</ele>
        <time>2020-02-22T09:45:58Z</time>
      </trkpt>
      <trkpt lat="39.0033590" lon="1.2981350">
        <ele>77.1</ele>
        <time>2020-02-22T09:45:59Z</time>
      </trkpt>
      <trkpt lat="39.0033720" lon="1.2981490">
        <ele>77.4</ele>
        <time>2020-02-22T09:46:00Z</time>
      </trkpt>
      <trkpt lat="39.0033790" lon="1.2981590">
        <ele>77.5</ele>
        <time>2020-02-22T09:46:01Z</time>
      </trkpt>
      <trkpt lat="39.0033850" lon="1.2981680">
        <ele>77.6</ele>
        <time>2020-02-22T09:46:02Z</time>
      </trkpt>
      <trkpt lat="39.0033920" lon="1.2981870">
        <ele>77.8</ele>
        <time>2020-02-22T09:46:03Z</time>
      </trkpt>
      <trkpt lat="39.0033920" lon="1.2982050">
        <ele>78.0</ele>
        <time>2020-02-22T09:46:04Z</time>
      </trkpt>
      <trkpt lat="39.0033970" lon="1.2982230">
        <ele>78.2</ele>
        <time>2020-02-22T09:46:05Z</time>
      </trkpt>
      <trkpt lat="39.0034090" lon="1.2982390">
        <ele>78.4</ele>
        <time>2020-02-22T09:46:06Z</time>
      </trkpt>
      <trkpt lat="39.0034140" lon="1.2982550">
        <ele>78.5</ele>
        <time>2020-02-22T09:46:07Z</time>
      </trkpt>
      <trkpt lat="39.0034240" lon="1.2982740">
        <ele>78.7</ele>
        <time>2020-02-22T09:46:08Z</time>
      </trkpt>
      <trkpt lat="39.0034420" lon="1.2983080">
        <ele>79.1</ele>
        <time>2020-02-22T09:46:09Z</time>
      </trkpt>
      <trkpt lat="39.0034470" lon="1.2983170">
        <ele>79.1</ele>
        <time>2020-02-22T09:46:10Z</time>
      </trkpt>
      <trkpt lat="39.0034700" lon="1.2983530">
        <ele>79.5</ele>
        <time>2020-02-22T09:46:11Z</time>
      </trkpt>
      <trkpt lat="39.0034770" lon="1.2983640">
        <ele>79.6</ele>
        <time>2020-02-22T09:46:12Z</time>
      </trkpt>
      <trkpt lat="39.0034940" lon="1.2983800">
        <ele>79.7</ele>
        <time>2020-02-22T09:46:13Z</time>
      </trkpt>
      <trkpt lat="39.0035010" lon="1.2983870">
        <ele>79.8</ele>
        <time>2020-02-22T09:46:14Z</time>
      </trkpt>
      <trkpt lat="39.0035080" lon="1.2983940">
        <ele>79.9</ele>
        <time>2020-02-22T09:46:15Z</time>
      </trkpt>
      <trkpt lat="39.0035220" lon="1.2984020">
        <ele>80.0</ele>
        <time>2020-02-22T09:46:16Z</time>
      </trkpt>
      <trkpt lat="39.0035380" lon="1.2984030">
        <ele>80.1</ele>
        <time>2020-02-22T09:46:17Z</time>
      </trkpt>
      <trkpt lat="39.0035650" lon="1.2984190">
        <ele>80.4</ele>
        <time>2020-02-22T09:46:18Z</time>
      </trkpt>
      <trkpt lat="39.0035750" lon="1.2984310">
        <ele>80.5</ele>
        <time>2020-02-22T09:46:19Z</time>
      </trkpt>
      <trkpt lat="39.0036030" lon="1.2984500">
        <ele>80.7</ele>
        <time>2020-02-22T09:46:20Z</time>
      </trkpt>
      <trkpt lat="39.0036070" lon="1.2984570">
        <ele>80.7</ele>
        <time>2020-02-22T09:46:21Z</time>
      </trkpt>
      <trkpt lat="39.0036200" lon="1.2984720">
        <ele>80.8</ele>
        <time>2020-02-22T09:46:22Z</time>
      </trkpt>
      <trkpt lat="39.0036350" lon="1.2984820">
        <ele>80.9</ele>
        <time>2020-02-22T09:46:23Z</time>
      </trkpt>
      <trkpt lat="39.0036650" lon="1.2985010">
        <ele>81.1</ele>
        <time>2020-02-22T09:46:24Z</time>
      </trkpt>
      <trkpt lat="39.0036740" lon="1.2985080">
        <ele>81.2</ele>
        <time>2020-02-22T09:46:25Z</time>
      </trkpt>
      <trkpt lat="39.0037060" lon="1.2985160">
        <ele>81.4</ele>
        <time>2020-02-22T09:46:26Z</time>
      </trkpt>
      <trkpt lat="39.0037180" lon="1.2985150">
        <ele>81.4</ele>
        <time>2020-02-22T09:46:27Z</time>
      </trkpt>
      <trkpt lat="39.0037460" lon="1.2984990">
        <ele>81.6</ele>
        <time>2020-02-22T09:46:28Z</time>
      </trkpt>
      <trkpt lat="39.0037820" lon="1.2984970">
        <ele>81.8</ele>
        <time>2020-02-22T09:46:29Z</time>
      </trkpt>
      <trkpt lat="39.0037930" lon="1.2984980">
        <ele>81.8</ele>
        <time>2020-02-22T09:46:30Z</time>
      </trkpt>
      <trkpt lat="39.0038290" lon="1.2985030">
        <ele>82.0</ele>
        <time>2020-02-22T09:46:31Z</time>
      </trkpt>
      <trkpt lat="39.0038630" lon="1.2985100">
        <ele>82.2</ele>
        <time>2020-02-22T09:46:32Z</time>
      </trkpt>
      <trkpt lat="39.0038740" lon="1.2985090">
        <ele>82.2</ele>
        <time>2020-02-22T09:46:33Z</time>
      </trkpt>
      <trkpt lat="39.0038900" lon="1.2985200">
        <ele>82.2</ele>
        <time>2020-02-22T09:46:34Z</time>
      </trkpt>
      <trkpt lat="39.0039060" lon="1.2985300">
        <ele>82.2</ele>
        <time>2020-02-22T09:46:35Z</time>
      </trkpt>
      <trkpt lat="39.0039390" lon="1.2985260">
        <ele>82.2</ele>
        <time>2020-02-22T09:46:36Z</time>
      </trkpt>
      <trkpt lat="39.0039510" lon="1.2985230">
        <ele>82.2</ele>
        <time>2020-02-22T09:46:37Z</time>
      </trkpt>
      <trkpt lat="39.0039880" lon="1.2985050">
        <ele>82.2</ele>
        <time>2020-02-22T09:46:38Z</time>
      </trkpt>
      <trkpt lat="39.0040000" lon="1.2984950">
        <ele>82.2</ele>
        <time>2020-02-22T09:46:39Z</time>
      </trkpt>
      <trkpt lat="39.0040390" lon="1.2984950">
        <ele>82.1</ele>
        <time>2020-02-22T09:46:40Z</time>
      </trkpt>
      <trkpt lat="39.0040560" lon="1.2985000">
        <ele>82.1</ele>
        <time>2020-02-22T09:46:41Z</time>
      </trkpt>
      <trkpt lat="39.0040820" lon="1.2984910">
        <ele>82.1</ele>
        <time>2020-02-22T09:46:42Z</time>
      </trkpt>
      <trkpt lat="39.0041210" lon="1.2984800">
        <ele>82.1</ele>
        <time>2020-02-22T09:46:43Z</time>
      </trkpt>
      <trkpt lat="39.0041360" lon="1.2984740">
        <ele>82.1</ele>
        <time>2020-02-22T09:46:44Z</time>
      </trkpt>
      <trkpt lat="39.0041610" lon="1.2984610">
        <ele>82.0</ele>
        <time>2020-02-22T09:46:45Z</time>
      </trkpt>
      <trkpt lat="39.0041900" lon="1.2984410">
        <ele>82.0</ele>
        <time>2020-02-22T09:46:46Z</time>
      </trkpt>
      <trkpt lat="39.0041990" lon="1.2984360">
        <ele>82.0</ele>
        <time>2020-02-22T09:46:47Z</time>
      </trkpt>
      <trkpt lat="39.0042290" lon="1.2984140">
        <ele>81.9</ele>
        <time>2020-02-22T09:46:48Z</time>
      </trkpt>
      <trkpt lat="39.0042410" lon="1.2984060">
        <ele>81.9</ele>
        <time>2020-02-22T09:46:49Z</time>
      </trkpt>
      <trkpt lat="39.0042760" lon="1.2984130">
        <ele>81.8</ele>
        <time>2020-02-22T09:46:50Z</time>
      </trkpt>
      <trkpt lat="39.0042870" lon="1.2984170">
        <ele>81.8</ele>
        <time>2020-02-22T09:46:51Z</time>
      </trkpt>
      <trkpt lat="39.0043280" lon="1.2984120">
        <ele>81.8</ele>
        <time>2020-02-22T09:46:52Z</time>
      </trkpt>
      <trkpt lat="39.0043420" lon="1.2984040">
        <ele>81.7</ele>
        <time>2020-02-22T09:46:53Z</time>
      </trkpt>
      <trkpt lat="39.0043710" lon="1.2983900">
        <ele>81.7</ele>
        <time>2020-02-22T09:46:54Z</time>
      </trkpt>
      <trkpt lat="39.0043980" lon="1.2983710">
        <ele>81.6</ele>
        <time>2020-02-22T09:46:55Z</time>
      </trkpt>
      <trkpt lat="39.0044230" lon="1.2983590">
        <ele>81.6</ele>
        <time>2020-02-22T09:46:56Z</time>
      </trkpt>
      <trkpt lat="39.0044530" lon="1.2983620">
        <ele>81.5</ele>
        <time>2020-02-22T09:46:57Z</time>
      </trkpt>
      <trkpt lat="39.0044820" lon="1.2983600">
        <ele>81.5</ele>
        <time>2020-02-22T09:46:58Z</time>
      </trkpt>
      <trkpt lat="39.0044920" lon="1.2983620">
        <ele>81.5</ele>
        <time>2020-02-22T09:46:59Z</time>
      </trkpt>
      <trkpt lat="39.0045290" lon="1.2983520">
        <ele>81.4</ele>
        <time>2020-02-22T09:47:00Z</time>
      </trkpt>
      <trkpt lat="39.0045380" lon="1.2983470">
        <ele>81.4</ele>
        <time>2020-02-22T09:47:01Z</time>
      </trkpt>
      <trkpt lat="39.0045670" lon="1.2983380">
        <ele>81.3</ele>
        <time>2020-02-22T09:47:02Z</time>
      </trkpt>
      <trkpt lat="39.0045750" lon="1.2983370">
        <ele>81.3</ele>
        <time>2020-02-22T09:47:03Z</time>
      </trkpt>
      <trkpt lat="39.0046120" lon="1.2983310">
        <ele>81.2</ele>
        <time>2020-02-22T09:47:04Z</time>
      </trkpt>
      <trkpt lat="39.0046250" lon="1.2983260">
        <ele>81.2</ele>
        <time>2020-02-22T09:47:05Z</time>
      </trkpt>
      <trkpt lat="39.0046590" lon="1.2983300">
        <ele>81.1</ele>
        <time>2020-02-22T09:47:06Z</time>
      </trkpt>
      <trkpt lat="39.0046690" lon="1.2983310">
        <ele>81.1</ele>
        <time>2020-02-22T09:47:07Z</time>
      </trkpt>
      <trkpt lat="39.0047000" lon="1.2983310">
        <ele>81.1</ele>
        <time>2020-02-22T09:47:08Z</time>
      </trkpt>
      <trkpt lat="39.0047120" lon="1.2983330">
        <ele>81.0</ele>
        <time>2020-02-22T09:47:09Z</time>
      </trkpt>
      <trkpt lat="39.0047330" lon="1.2983270">
        <ele>81.0</ele>
        <time>2020-02-22T09:47:10Z</time>
      </trkpt>
      <trkpt lat="39.0047460" lon="1.2983230">
        <ele>80.9</ele>
        <time>2020-02-22T09:47:11Z</time>
      </trkpt>
      <trkpt lat="39.0047610" lon="1.2982930">
        <ele>80.8</ele>
        <time>2020-02-22T09:47:12Z</time>
      </trkpt>
      <trkpt lat="39.0047710" lon="1.2982730">
        <ele>80.8</ele>
        <time>2020-02-22T09:47:13Z</time>
      </trkpt>
      <trkpt lat="39.0047780" lon="1.2982570">
        <ele>80.7</ele>
        <time>2020-02-22T09:47:14Z</time>
      </trkpt>
      <trkpt lat="39.0047830" lon="1.2982130">
        <ele>80.5</ele>
        <time>2020-02-22T09:47:15Z</time>
      </trkpt>
      <trkpt lat="39.0047860" lon="1.2981950">
        <ele>80.5</ele>
        <time>2020-02-22T09:47:16Z</time>
      </trkpt>
      <trkpt lat="39.0048060" lon="1.2981630">
        <ele>80.4</ele>
        <time>2020-02-22T09:47:17Z</time>
      </trkpt>
      <trkpt lat="39.0048200" lon="1.2981330">
        <ele>80.3</ele>
        <time>2020-02-22T09:47:18Z</time>
      </trkpt>
      <trkpt lat="39.0048430" lon="1.2980860">
        <ele>80.1</ele>
        <time>2020-02-22T09:47:19Z</time>
      </trkpt>
      <trkpt lat="39.0048520" lon="1.2980680">
        <ele>80.1</ele>
        <time>2020-02-22T09:47:20Z</time>
      </trkpt>
      <trkpt lat="39.0048700" lon="1.2980170">
        <ele>79.9</ele>
        <time>2020-02-22T09:47:21Z</time>
      </trkpt>
      <trkpt lat="39.0048930" lon="1.2979680">
        <ele>79.6</ele>
        <time>2020-02-22T09:47:22Z</time>
      </trkpt>
      <trkpt lat="39.0049230" lon="1.2979310">
        <ele>79.5</ele>
        <time>2020-02-22T09:47:23Z</time>
      </trkpt>
      <trkpt lat="39.0049530" lon="1.2979100">
        <ele>79.4</ele>
        <time>2020-02-22T09:47:24Z</time>
      </trkpt>
      <trkpt lat="39.0050010" lon="1.2979170">
        <ele>78.8</ele>
        <time>2020-02-22T09:47:25Z</time>
      </trkpt>
      <trkpt lat="39.0050360" lon="1.2979250">
        <ele>78.7</ele>
        <time>2020-02-22T09:47:26Z</time>
      </trkpt>
      <trkpt lat="39.0050640" lon="1.2979430">
        <ele>78.6</ele>
        <time>2020-02-22T09:47:27Z</time>
      </trkpt>
      <trkpt lat="39.0050990" lon="1.2979660">
        <ele>78.5</ele>
        <time>2020-02-22T09:47:28Z</time>
      </trkpt>
      <trkpt lat="39.0051300" lon="1.2979900">
        <ele>78.4</ele>
        <time>2020-02-22T09:47:29Z</time>
      </trkpt>
      <trkpt lat="39.0051600" lon="1.2980070">
        <ele>78.3</ele>
        <time>2020-02-22T09:47:30Z</time>
      </trkpt>
      <trkpt lat="39.0051860" lon="1.2980370">
        <ele>78.2</ele>
        <time>2020-02-22T09:47:31Z</time>
      </trkpt>
      <trkpt lat="39.0052210" lon="1.2980590">
        <ele>78.1</ele>
        <time>2020-02-22T09:47:32Z</time>
      </trkpt>
      <trkpt lat="39.0052510" lon="1.2980780">
        <ele>78.0</ele>
        <time>2020-02-22T09:47:33Z</time>
      </trkpt>
      <trkpt lat="39.0052820" lon="1.2981010">
        <ele>77.9</ele>
        <time>2020-02-22T09:47:34Z</time>
      </trkpt>
      <trkpt lat="39.0053120" lon="1.2981260">
        <ele>77.8</ele>
        <time>2020-02-22T09:47:35Z</time>
      </trkpt>
      <trkpt lat="39.0053430" lon="1.2981410">
        <ele>77.6</ele>
        <time>2020-02-22T09:47:36Z</time>
      </trkpt>
      <trkpt lat="39.0053800" lon="1.2981730">
        <ele>77.5</ele>
        <time>2020-02-22T09:47:37Z</time>
      </trkpt>
      <trkpt lat="39.0054150" lon="1.2981990">
        <ele>77.3</ele>
        <time>2020-02-22T09:47:38Z</time>
      </trkpt>
      <trkpt lat="39.0054540" lon="1.2982170">
        <ele>77.2</ele>
        <time>2020-02-22T09:47:39Z</time>
      </trkpt>
      <trkpt lat="39.0055030" lon="1.2982430">
        <ele>77.0</ele>
        <time>2020-02-22T09:47:40Z</time>
      </trkpt>
      <trkpt lat="39.0055510" lon="1.2982650">
        <ele>76.9</ele>
        <time>2020-02-22T09:47:41Z</time>
      </trkpt>
      <trkpt lat="39.0055990" lon="1.2982830">
        <ele>76.5</ele>
        <time>2020-02-22T09:47:42Z</time>
      </trkpt>
      <trkpt lat="39.0056470" lon="1.2982950">
        <ele>76.3</ele>
        <time>2020-02-22T09:47:43Z</time>
      </trkpt>
      <trkpt lat="39.0057040" lon="1.2983000">
        <ele>76.0</ele>
        <time>2020-02-22T09:47:44Z</time>
      </trkpt>
      <trkpt lat="39.0057620" lon="1.2983030">
        <ele>75.8</ele>
        <time>2020-02-22T09:47:45Z</time>
      </trkpt>
      <trkpt lat="39.0058180" lon="1.2983070">
        <ele>75.6</ele>
        <time>2020-02-22T09:47:46Z</time>
      </trkpt>
      <trkpt lat="39.0058810" lon="1.2983150">
        <ele>75.2</ele>
        <time>2020-02-22T09:47:47Z</time>
      </trkpt>
      <trkpt lat="39.0059370" lon="1.2983190">
        <ele>74.8</ele>
        <time>2020-02-22T09:47:48Z</time>
      </trkpt>
      <trkpt lat="39.0060010" lon="1.2983270">
        <ele>74.3</ele>
        <time>2020-02-22T09:47:49Z</time>
      </trkpt>
      <trkpt lat="39.0060650" lon="1.2983390">
        <ele>73.7</ele>
        <time>2020-02-22T09:47:50Z</time>
      </trkpt>
      <trkpt lat="39.0061340" lon="1.2983460">
        <ele>72.7</ele>
        <time>2020-02-22T09:47:51Z</time>
      </trkpt>
      <trkpt lat="39.0061950" lon="1.2983370">
        <ele>72.1</ele>
        <time>2020-02-22T09:47:52Z</time>
      </trkpt>
      <trkpt lat="39.0062610" lon="1.2983280">
        <ele>71.6</ele>
        <time>2020-02-22T09:47:53Z</time>
      </trkpt>
      <trkpt lat="39.0063240" lon="1.2983180">
        <ele>71.1</ele>
        <time>2020-02-22T09:47:54Z</time>
      </trkpt>
      <trkpt lat="39.0063810" lon="1.2982920">
        <ele>70.7</ele>
        <time>2020-02-22T09:47:55Z</time>
      </trkpt>
      <trkpt lat="39.0064310" lon="1.2982740">
        <ele>70.3</ele>
        <time>2020-02-22T09:47:56Z</time>
      </trkpt>
      <trkpt lat="39.0064760" lon="1.2982610">
        <ele>69.9</ele>
        <time>2020-02-22T09:47:57Z</time>
      </trkpt>
      <trkpt lat="39.0065270" lon="1.2982600">
        <ele>69.5</ele>
        <time>2020-02-22T09:47:58Z</time>
      </trkpt>
      <trkpt lat="39.0065790" lon="1.2982550">
        <ele>69.1</ele>
        <time>2020-02-22T09:47:59Z</time>
      </trkpt>
      <trkpt lat="39.0066200" lon="1.2982650">
        <ele>68.8</ele>
        <time>2020-02-22T09:48:00Z</time>
      </trkpt>
      <trkpt lat="39.0066530" lon="1.2982940">
        <ele>68.5</ele>
        <time>2020-02-22T09:48:01Z</time>
      </trkpt>
      <trkpt lat="39.0066820" lon="1.2983190">
        <ele>64.2</ele>
        <time>2020-02-22T09:48:02Z</time>
      </trkpt>
      <trkpt lat="39.0066970" lon="1.2983490">
        <ele>64.0</ele>
        <time>2020-02-22T09:48:03Z</time>
      </trkpt>
      <trkpt lat="39.0066870" lon="1.2984020">
        <ele>63.7</ele>
        <time>2020-02-22T09:48:04Z</time>
      </trkpt>
      <trkpt lat="39.0066770" lon="1.2984210">
        <ele>63.6</ele>
        <time>2020-02-22T09:48:05Z</time>
      </trkpt>
      <trkpt lat="39.0066560" lon="1.2984490">
        <ele>63.3</ele>
        <time>2020-02-22T09:48:06Z</time>
      </trkpt>
      <trkpt lat="39.0066270" lon="1.2984800">
        <ele>63.0</ele>
        <time>2020-02-22T09:48:07Z</time>
      </trkpt>
      <trkpt lat="39.0065880" lon="1.2985160">
        <ele>62.7</ele>
        <time>2020-02-22T09:48:08Z</time>
      </trkpt>
      <trkpt lat="39.0065460" lon="1.2985600">
        <ele>62.2</ele>
        <time>2020-02-22T09:48:09Z</time>
      </trkpt>
      <trkpt lat="39.0065140" lon="1.2986020">
        <ele>61.9</ele>
        <time>2020-02-22T09:48:10Z</time>
      </trkpt>
      <trkpt lat="39.0064870" lon="1.2986440">
        <ele>61.5</ele>
        <time>2020-02-22T09:48:11Z</time>
      </trkpt>
      <trkpt lat="39.0064560" lon="1.2986870">
        <ele>61.1</ele>
        <time>2020-02-22T09:48:12Z</time>
      </trkpt>
      <trkpt lat="39.0064230" lon="1.2987300">
        <ele>60.7</ele>
        <time>2020-02-22T09:48:13Z</time>
      </trkpt>
      <trkpt lat="39.0063890" lon="1.2987730">
        <ele>60.3</ele>
        <time>2020-02-22T09:48:14Z</time>
      </trkpt>
      <trkpt lat="39.0063540" lon="1.2988250">
        <ele>59.7</ele>
        <time>2020-02-22T09:48:15Z</time>
      </trkpt>
      <trkpt lat="39.0063180" lon="1.2988700">
        <ele>59.2</ele>
        <time>2020-02-22T09:48:16Z</time>
      </trkpt>
      <trkpt lat="39.0062850" lon="1.2989190">
        <ele>58.6</ele>
        <time>2020-02-22T09:48:17Z</time>
      </trkpt>
      <trkpt lat="39.0062650" lon="1.2989690">
        <ele>58.1</ele>
        <time>2020-02-22T09:48:18Z</time>
      </trkpt>
      <trkpt lat="39.0062570" lon="1.2990260">
        <ele>57.5</ele>
        <time>2020-02-22T09:48:19Z</time>
      </trkpt>
      <trkpt lat="39.0062650" lon="1.2990930">
        <ele>56.9</ele>
        <time>2020-02-22T09:48:20Z</time>
      </trkpt>
      <trkpt lat="39.0062770" lon="1.2991520">
        <ele>56.3</ele>
        <time>2020-02-22T09:48:21Z</time>
      </trkpt>
      <trkpt lat="39.0062940" lon="1.2991830">
        <ele>55.9</ele>
        <time>2020-02-22T09:48:22Z</time>
      </trkpt>
      <trkpt lat="39.0063370" lon="1.2991960">
        <ele>55.4</ele>
        <time>2020-02-22T09:48:23Z</time>
      </trkpt>
      <trkpt lat="39.0063540" lon="1.2992030">
        <ele>55.3</ele>
        <time>2020-02-22T09:48:24Z</time>
      </trkpt>
      <trkpt lat="39.0063960" lon="1.2992010">
        <ele>54.9</ele>
        <time>2020-02-22T09:48:25Z</time>
      </trkpt>
      <trkpt lat="39.0064400" lon="1.2991840">
        <ele>54.4</ele>
        <time>2020-02-22T09:48:26Z</time>
      </trkpt>
      <trkpt lat="39.0064890" lon="1.2991650">
        <ele>54.0</ele>
        <time>2020-02-22T09:48:27Z</time>
      </trkpt>
      <trkpt lat="39.0065460" lon="1.2991540">
        <ele>53.5</ele>
        <time>2020-02-22T09:48:28Z</time>
      </trkpt>
      <trkpt lat="39.0066100" lon="1.2991320">
        <ele>52.9</ele>
        <time>2020-02-22T09:48:29Z</time>
      </trkpt>
      <trkpt lat="39.0066640" lon="1.2991080">
        <ele>52.5</ele>
        <time>2020-02-22T09:48:30Z</time>
      </trkpt>
      <trkpt lat="39.0067040" lon="1.2990910">
        <ele>52.1</ele>
        <time>2020-02-22T09:48:31Z</time>
      </trkpt>
      <trkpt lat="39.0067470" lon="1.2990800">
        <ele>51.7</ele>
        <time>2020-02-22T09:48:32Z</time>
      </trkpt>
      <trkpt lat="39.0067790" lon="1.2990640">
        <ele>51.5</ele>
        <time>2020-02-22T09:48:33Z</time>
      </trkpt>
      <trkpt lat="39.0068110" lon="1.2990510">
        <ele>51.3</ele>
        <time>2020-02-22T09:48:34Z</time>
      </trkpt>
      <trkpt lat="39.0068490" lon="1.2990320">
        <ele>51.0</ele>
        <time>2020-02-22T09:48:35Z</time>
      </trkpt>
      <trkpt lat="39.0068950" lon="1.2990130">
        <ele>50.6</ele>
        <time>2020-02-22T09:48:36Z</time>
      </trkpt>
      <trkpt lat="39.0069420" lon="1.2989910">
        <ele>50.1</ele>
        <time>2020-02-22T09:48:37Z</time>
      </trkpt>
      <trkpt lat="39.0069990" lon="1.2989690">
        <ele>49.7</ele>
        <time>2020-02-22T09:48:38Z</time>
      </trkpt>
      <trkpt lat="39.0070510" lon="1.2989440">
        <ele>49.2</ele>
        <time>2020-02-22T09:48:39Z</time>
      </trkpt>
      <trkpt lat="39.0071020" lon="1.2989140">
        <ele>48.6</ele>
        <time>2020-02-22T09:48:40Z</time>
      </trkpt>
      <trkpt lat="39.0071520" lon="1.2988870">
        <ele>48.1</ele>
        <time>2020-02-22T09:48:41Z</time>
      </trkpt>
      <trkpt lat="39.0072100" lon="1.2988640">
        <ele>47.4</ele>
        <time>2020-02-22T09:48:42Z</time>
      </trkpt>
      <trkpt lat="39.0072640" lon="1.2988500">
        <ele>46.8</ele>
        <time>2020-02-22T09:48:43Z</time>
      </trkpt>
      <trkpt lat="39.0073070" lon="1.2988380">
        <ele>46.2</ele>
        <time>2020-02-22T09:48:44Z</time>
      </trkpt>
      <trkpt lat="39.0073570" lon="1.2988280">
        <ele>45.5</ele>
        <time>2020-02-22T09:48:45Z</time>
      </trkpt>
      <trkpt lat="39.0073980" lon="1.2988190">
        <ele>45.0</ele>
        <time>2020-02-22T09:48:46Z</time>
      </trkpt>
      <trkpt lat="39.0074300" lon="1.2988310">
        <ele>44.5</ele>
        <time>2020-02-22T09:48:47Z</time>
      </trkpt>
      <trkpt lat="39.0074670" lon="1.2988700">
        <ele>41.7</ele>
        <time>2020-02-22T09:48:48Z</time>
      </trkpt>
      <trkpt lat="39.0075040" lon="1.2989160">
        <ele>40.8</ele>
        <time>2020-02-22T09:48:49Z</time>
      </trkpt>
      <trkpt lat="39.0075390" lon="1.2989610">
        <ele>39.9</ele>
        <time>2020-02-22T09:48:50Z</time>
      </trkpt>
      <trkpt lat="39.0075730" lon="1.2990170">
        <ele>38.9</ele>
        <time>2020-02-22T09:48:51Z</time>
      </trkpt>
      <trkpt lat="39.0075980" lon="1.2990570">
        <ele>38.1</ele>
        <time>2020-02-22T09:48:52Z</time>
      </trkpt>
      <trkpt lat="39.0076140" lon="1.2991030">
        <ele>36.2</ele>
        <time>2020-02-22T09:48:53Z</time>
      </trkpt>
      <trkpt lat="39.0076260" lon="1.2991440">
        <ele>35.7</ele>
        <time>2020-02-22T09:48:54Z</time>
      </trkpt>
      <trkpt lat="39.0076280" lon="1.2991650">
        <ele>35.5</ele>
        <time>2020-02-22T09:48:55Z</time>
      </trkpt>
      <trkpt lat="39.0076400" lon="1.2991830">
        <ele>35.2</ele>
        <time>2020-02-22T09:48:56Z</time>
      </trkpt>
      <trkpt lat="39.0076500" lon="1.2991950">
        <ele>35.0</ele>
        <time>2020-02-22T09:48:57Z</time>
      </trkpt>
      <trkpt lat="39.0076440" lon="1.2991970">
        <ele>34.9</ele>
        <time>2020-02-22T09:48:58Z</time>
      </trkpt>
      <trkpt lat="39.0076450" lon="1.2992010">
        <ele>34.9</ele>
        <time>2020-02-22T09:48:59Z</time>
      </trkpt>
      <trkpt lat="39.0076500" lon="1.2992070">
        <ele>34.8</ele>
        <time>2020-02-22T09:49:00Z</time>
      </trkpt>
      <trkpt lat="39.0076620" lon="1.2992100">
        <ele>34.6</ele>
        <time>2020-02-22T09:49:01Z</time>
      </trkpt>
      <trkpt lat="39.0076720" lon="1.2992110">
        <ele>34.4</ele>
        <time>2020-02-22T09:49:02Z</time>
      </trkpt>
      <trkpt lat="39.0076790" lon="1.2992120">
        <ele>34.3</ele>
        <time>2020-02-22T09:49:03Z</time>
      </trkpt>
      <trkpt lat="39.0076870" lon="1.2992120">
        <ele>34.3</ele>
        <time>2020-02-22T09:49:04Z</time>
      </trkpt>
      <trkpt lat="39.0076940" lon="1.2992130">
        <ele>34.2</ele>
        <time>2020-02-22T09:49:05Z</time>
      </trkpt>
      <trkpt lat="39.0077020" lon="1.2992140">
        <ele>34.1</ele>
        <time>2020-02-22T09:49:06Z</time>
      </trkpt>
      <trkpt lat="39.0077150" lon="1.2992070">
        <ele>33.9</ele>
        <time>2020-02-22T09:49:07Z</time>
      </trkpt>
      <trkpt lat="39.0077350" lon="1.2992040">
        <ele>33.7</ele>
        <time>2020-02-22T09:49:08Z</time>
      </trkpt>
      <trkpt lat="39.0077490" lon="1.2992040">
        <ele>33.6</ele>
        <time>2020-02-22T09:49:09Z</time>
      </trkpt>
      <trkpt lat="39.0077650" lon="1.2992000">
        <ele>33.4</ele>
        <time>2020-02-22T09:49:10Z</time>
      </trkpt>
      <trkpt lat="39.0078020" lon="1.2992080">
        <ele>33.0</ele>
        <time>2020-02-22T09:49:11Z</time>
      </trkpt>
      <trkpt lat="39.0078130" lon="1.2992110">
        <ele>32.8</ele>
        <time>2020-02-22T09:49:12Z</time>
      </trkpt>
      <trkpt lat="39.0078520" lon="1.2992020">
        <ele>32.3</ele>
        <time>2020-02-22T09:49:13Z</time>
      </trkpt>
      <trkpt lat="39.0078670" lon="1.2991960">
        <ele>32.1</ele>
        <time>2020-02-22T09:49:14Z</time>
      </trkpt>
      <trkpt lat="39.0078930" lon="1.2991810">
        <ele>31.7</ele>
        <time>2020-02-22T09:49:15Z</time>
      </trkpt>
      <trkpt lat="39.0079240" lon="1.2991730">
        <ele>31.2</ele>
        <time>2020-02-22T09:49:16Z</time>
      </trkpt>
      <trkpt lat="39.0079330" lon="1.2991750">
        <ele>31.0</ele>
        <time>2020-02-22T09:49:17Z</time>
      </trkpt>
      <trkpt lat="39.0079670" lon="1.2991740">
        <ele>30.5</ele>
        <time>2020-02-22T09:49:18Z</time>
      </trkpt>
      <trkpt lat="39.0079780" lon="1.2991690">
        <ele>30.3</ele>
        <time>2020-02-22T09:49:19Z</time>
      </trkpt>
      <trkpt lat="39.0080100" lon="1.2991600">
        <ele>29.9</ele>
        <time>2020-02-22T09:49:20Z</time>
      </trkpt>
      <trkpt lat="39.0080190" lon="1.2991560">
        <ele>29.7</ele>
        <time>2020-02-22T09:49:21Z</time>
      </trkpt>
      <trkpt lat="39.0080320" lon="1.2991510">
        <ele>29.5</ele>
        <time>2020-02-22T09:49:22Z</time>
      </trkpt>
      <trkpt lat="39.0080470" lon="1.2991470">
        <ele>29.3</ele>
        <time>2020-02-22T09:49:23Z</time>
      </trkpt>
      <trkpt lat="39.0080620" lon="1.2991480">
        <ele>29.1</ele>
        <time>2020-02-22T09:49:24Z</time>
      </trkpt>
      <trkpt lat="39.0080750" lon="1.2991470">
        <ele>28.9</ele>
        <time>2020-02-22T09:49:25Z</time>
      </trkpt>
      <trkpt lat="39.0081040" lon="1.2991410">
        <ele>28.2</ele>
        <time>2020-02-22T09:49:26Z</time>
      </trkpt>
      <trkpt lat="39.0081160" lon="1.2991370">
        <ele>27.9</ele>
        <time>2020-02-22T09:49:27Z</time>
      </trkpt>
      <trkpt lat="39.0081240" lon="1.2991410">
        <ele>27.7</ele>
        <time>2020-02-22T09:49:28Z</time>
      </trkpt>
      <trkpt lat="39.0081290" lon="1.2991380">
        <ele>27.6</ele>
        <time>2020-02-22T09:49:29Z</time>
      </trkpt>
      <trkpt lat="39.0081450" lon="1.2991350">
        <ele>27.2</ele>
        <time>2020-02-22T09:49:30Z</time>
      </trkpt>
      <trkpt lat="39.0081620" lon="1.2991180">
        <ele>26.8</ele>
        <time>2020-02-22T09:49:31Z</time>
      </trkpt>
      <trkpt lat="39.0081700" lon="1.2991110">
        <ele>26.6</ele>
        <time>2020-02-22T09:49:32Z</time>
      </trkpt>
      <trkpt lat="39.0081890" lon="1.2991060">
        <ele>26.1</ele>
        <time>2020-02-22T09:49:33Z</time>
      </trkpt>
      <trkpt lat="39.0082000" lon="1.2991070">
        <ele>25.9</ele>
        <time>2020-02-22T09:49:34Z</time>
      </trkpt>
      <trkpt lat="39.0082110" lon="1.2991080">
        <ele>25.7</ele>
        <time>2020-02-22T09:49:35Z</time>
      </trkpt>
      <trkpt lat="39.0082280" lon="1.2991060">
        <ele>25.2</ele>
        <time>2020-02-22T09:49:36Z</time>
      </trkpt>
      <trkpt lat="39.0082440" lon="1.2991100">
        <ele>24.8</ele>
        <time>2020-02-22T09:49:37Z</time>
      </trkpt>
      <trkpt lat="39.0082470" lon="1.2991150">
        <ele>24.7</ele>
        <time>2020-02-22T09:49:38Z</time>
      </trkpt>
      <trkpt lat="39.0082610" lon="1.2991190">
        <ele>24.3</ele>
        <time>2020-02-22T09:49:39Z</time>
      </trkpt>
      <trkpt lat="39.0082780" lon="1.2991210">
        <ele>23.9</ele>
        <time>2020-02-22T09:49:40Z</time>
      </trkpt>
      <trkpt lat="39.0083080" lon="1.2991210">
        <ele>23.3</ele>
        <time>2020-02-22T09:49:41Z</time>
      </trkpt>
      <trkpt lat="39.0083150" lon="1.2991210">
        <ele>23.1</ele>
        <time>2020-02-22T09:49:42Z</time>
      </trkpt>
      <trkpt lat="39.0083330" lon="1.2991270">
        <ele>22.8</ele>
        <time>2020-02-22T09:49:43Z</time>
      </trkpt>
      <trkpt lat="39.0083470" lon="1.2991320">
        <ele>22.5</ele>
        <time>2020-02-22T09:49:44Z</time>
      </trkpt>
      <trkpt lat="39.0083600" lon="1.2991360">
        <ele>22.3</ele>
        <time>2020-02-22T09:49:45Z</time>
      </trkpt>
      <trkpt lat="39.0083820" lon="1.2991420">
        <ele>22.0</ele>
        <time>2020-02-22T09:49:46Z</time>
      </trkpt>
      <trkpt lat="39.0083920" lon="1.2991370">
        <ele>21.9</ele>
        <time>2020-02-22T09:49:47Z</time>
      </trkpt>
      <trkpt lat="39.0084030" lon="1.2991310">
        <ele>21.7</ele>
        <time>2020-02-22T09:49:48Z</time>
      </trkpt>
      <trkpt lat="39.0084110" lon="1.2991260">
        <ele>21.6</ele>
        <time>2020-02-22T09:49:49Z</time>
      </trkpt>
      <trkpt lat="39.0084100" lon="1.2991200">
        <ele>21.5</ele>
        <time>2020-02-22T09:49:50Z</time>
      </trkpt>
      <trkpt lat="39.0084120" lon="1.2991190">
        <ele>21.5</ele>
        <time>2020-02-22T09:49:51Z</time>
      </trkpt>
      <trkpt lat="39.0084130" lon="1.2991180">
        <ele>21.5</ele>
        <time>2020-02-22T09:49:52Z</time>
      </trkpt>
      <trkpt lat="39.0084130" lon="1.2991160">
        <ele>21.5</ele>
        <time>2020-02-22T09:49:53Z</time>
      </trkpt>
      <trkpt lat="39.0084140" lon="1.2991150">
        <ele>21.4</ele>
        <time>2020-02-22T09:49:54Z</time>
      </trkpt>
      <trkpt lat="39.0084130" lon="1.2991160">
        <ele>21.4</ele>
        <time>2020-02-22T09:49:55Z</time>
      </trkpt>
      <trkpt lat="39.0084120" lon="1.2991160">
        <ele>21.4</ele>
        <time>2020-02-22T09:49:56Z</time>
      </trkpt>
      <trkpt lat="39.0084120" lon="1.2991170">
        <ele>21.4</ele>
        <time>2020-02-22T09:49:57Z</time>
      </trkpt>
      <trkpt lat="39.0084130" lon="1.2991170">
        <ele>21.4</ele>
        <time>2020-02-22T09:49:58Z</time>
      </trkpt>
      <trkpt lat="39.0084130" lon="1.2991170">
        <ele>21.4</ele>
        <time>2020-02-22T09:49:59Z</time>
      </trkpt>
      <trkpt lat="39.0084720" lon="1.2990590">
        <ele>20.7</ele>
        <time>2020-02-22T09:50:20Z</time>
      </trkpt>
      <trkpt lat="39.0084730" lon="1.2990510">
        <ele>20.7</ele>
        <time>2020-02-22T09:50:21Z</time>
      </trkpt>
      <trkpt lat="39.0084820" lon="1.2990570">
        <ele>20.6</ele>
        <time>2020-02-22T09:50:22Z</time>
      </trkpt>
      <trkpt lat="39.0084920" lon="1.2990490">
        <ele>20.5</ele>
        <time>2020-02-22T09:50:23Z</time>
      </trkpt>
      <trkpt lat="39.0085090" lon="1.2990320">
        <ele>20.4</ele>
        <time>2020-02-22T09:50:24Z</time>
      </trkpt>
      <trkpt lat="39.0085180" lon="1.2990340">
        <ele>20.3</ele>
        <time>2020-02-22T09:50:25Z</time>
      </trkpt>
      <trkpt lat="39.0085280" lon="1.2990160">
        <ele>20.2</ele>
        <time>2020-02-22T09:50:26Z</time>
      </trkpt>
      <trkpt lat="39.0085310" lon="1.2989980">
        <ele>20.1</ele>
        <time>2020-02-22T09:50:27Z</time>
      </trkpt>
      <trkpt lat="39.0085410" lon="1.2989860">
        <ele>20.0</ele>
        <time>2020-02-22T09:50:28Z</time>
      </trkpt>
      <trkpt lat="39.0085530" lon="1.2989750">
        <ele>19.9</ele>
        <time>2020-02-22T09:50:29Z</time>
      </trkpt>
      <trkpt lat="39.0085680" lon="1.2989550">
        <ele>19.7</ele>
        <time>2020-02-22T09:50:30Z</time>
      </trkpt>
      <trkpt lat="39.0085770" lon="1.2989430">
        <ele>19.7</ele>
        <time>2020-02-22T09:50:31Z</time>
      </trkpt>
      <trkpt lat="39.0085890" lon="1.2989320">
        <ele>19.7</ele>
        <time>2020-02-22T09:50:32Z</time>
      </trkpt>
      <trkpt lat="39.0085940" lon="1.2989330">
        <ele>19.7</ele>
        <time>2020-02-22T09:50:33Z</time>
      </trkpt>
      <trkpt lat="39.0086000" lon="1.2989330">
        <ele>19.7</ele>
        <time>2020-02-22T09:50:34Z</time>
      </trkpt>
      <trkpt lat="39.0086050" lon="1.2989340">
        <ele>19.7</ele>
        <time>2020-02-22T09:50:35Z</time>
      </trkpt>
      <trkpt lat="39.0086110" lon="1.2989350">
        <ele>19.7</ele>
        <time>2020-02-22T09:50:36Z</time>
      </trkpt>
      <trkpt lat="39.0086160" lon="1.2989360">
        <ele>19.7</ele>
        <time>2020-02-22T09:50:37Z</time>
      </trkpt>
      <trkpt lat="39.0086360" lon="1.2989210">
        <ele>19.6</ele>
        <time>2020-02-22T09:50:38Z</time>
      </trkpt>
      <trkpt lat="39.0086450" lon="1.2989110">
        <ele>19.6</ele>
        <time>2020-02-22T09:50:39Z</time>
      </trkpt>
      <trkpt lat="39.0086700" lon="1.2988970">
        <ele>19.6</ele>
        <time>2020-02-22T09:50:40Z</time>
      </trkpt>
      <trkpt lat="39.0086810" lon="1.2988940">
        <ele>19.6</ele>
        <time>2020-02-22T09:50:41Z</time>
      </trkpt>
      <trkpt lat="39.0087080" lon="1.2988740">
        <ele>19.5</ele>
        <time>2020-02-22T09:50:42Z</time>
      </trkpt>
      <trkpt lat="39.0087210" lon="1.2988580">
        <ele>19.4</ele>
        <time>2020-02-22T09:50:43Z</time>
      </trkpt>
      <trkpt lat="39.0087320" lon="1.2988480">
        <ele>19.3</ele>
        <time>2020-02-22T09:50:44Z</time>
      </trkpt>
      <trkpt lat="39.0087340" lon="1.2988460">
        <ele>19.3</ele>
        <time>2020-02-22T09:50:45Z</time>
      </trkpt>
      <trkpt lat="39.0087330" lon="1.2988450">
        <ele>19.3</ele>
        <time>2020-02-22T09:50:46Z</time>
      </trkpt>
      <trkpt lat="39.0087210" lon="1.2988480">
        <ele>19.2</ele>
        <time>2020-02-22T09:50:47Z</time>
      </trkpt>
      <trkpt lat="39.0087230" lon="1.2988450">
        <ele>19.2</ele>
        <time>2020-02-22T09:50:48Z</time>
      </trkpt>
      <trkpt lat="39.0087200" lon="1.2988470">
        <ele>19.2</ele>
        <time>2020-02-22T09:50:49Z</time>
      </trkpt>
      <trkpt lat="39.0087220" lon="1.2988530">
        <ele>19.1</ele>
        <time>2020-02-22T09:50:50Z</time>
      </trkpt>
      <trkpt lat="39.0087190" lon="1.2988610">
        <ele>19.1</ele>
        <time>2020-02-22T09:50:51Z</time>
      </trkpt>
      <trkpt lat="39.0087210" lon="1.2988560">
        <ele>19.0</ele>
        <time>2020-02-22T09:50:52Z</time>
      </trkpt>
      <trkpt lat="39.0087220" lon="1.2988570">
        <ele>19.0</ele>
        <time>2020-02-22T09:50:53Z</time>
      </trkpt>
      <trkpt lat="39.0087030" lon="1.2988560">
        <ele>18.9</ele>
        <time>2020-02-22T09:50:54Z</time>
      </trkpt>
      <trkpt lat="39.0087020" lon="1.2988580">
        <ele>18.8</ele>
        <time>2020-02-22T09:50:55Z</time>
      </trkpt>
      <trkpt lat="39.0086750" lon="1.2989180">
        <ele>18.9</ele>
        <time>2020-02-22T09:51:05Z</time>
      </trkpt>
      <trkpt lat="39.0086630" lon="1.2989440">
        <ele>18.8</ele>
        <time>2020-02-22T09:51:06Z</time>
      </trkpt>
      <trkpt lat="39.0086580" lon="1.2989820">
        <ele>18.7</ele>
        <time>2020-02-22T09:51:07Z</time>
      </trkpt>
      <trkpt lat="39.0086580" lon="1.2990040">
        <ele>18.5</ele>
        <time>2020-02-22T09:51:08Z</time>
      </trkpt>
      <trkpt lat="39.0086590" lon="1.2990150">
        <ele>18.5</ele>
        <time>2020-02-22T09:51:09Z</time>
      </trkpt>
      <trkpt lat="39.0086620" lon="1.2990280">
        <ele>18.3</ele>
        <time>2020-02-22T09:51:10Z</time>
      </trkpt>
      <trkpt lat="39.0086660" lon="1.2990390">
        <ele>18.2</ele>
        <time>2020-02-22T09:51:11Z</time>
      </trkpt>
      <trkpt lat="39.0086790" lon="1.2990420">
        <ele>18.1</ele>
        <time>2020-02-22T09:51:12Z</time>
      </trkpt>
      <trkpt lat="39.0086800" lon="1.2990420">
        <ele>18.1</ele>
        <time>2020-02-22T09:51:13Z</time>
      </trkpt>
      <trkpt lat="39.0086820" lon="1.2990470">
        <ele>17.7</ele>
        <time>2020-02-22T09:51:14Z</time>
      </trkpt>
      <trkpt lat="39.0086860" lon="1.2990440">
        <ele>17.6</ele>
        <time>2020-02-22T09:51:15Z</time>
      </trkpt>
      <trkpt lat="39.0086900" lon="1.2990470">
        <ele>17.5</ele>
        <time>2020-02-22T09:51:16Z</time>
      </trkpt>
      <trkpt lat="39.0087010" lon="1.2990410">
        <ele>17.4</ele>
        <time>2020-02-22T09:51:17Z</time>
      </trkpt>
      <trkpt lat="39.0087180" lon="1.2990350">
        <ele>17.0</ele>
        <time>2020-02-22T09:51:18Z</time>
      </trkpt>
      <trkpt lat="39.0087240" lon="1.2990370">
        <ele>16.9</ele>
        <time>2020-02-22T09:51:19Z</time>
      </trkpt>
      <trkpt lat="39.0087360" lon="1.2990380">
        <ele>16.8</ele>
        <time>2020-02-22T09:51:20Z</time>
      </trkpt>
      <trkpt lat="39.0087550" lon="1.2990310">
        <ele>16.4</ele>
        <time>2020-02-22T09:51:21Z</time>
      </trkpt>
      <trkpt lat="39.0087590" lon="1.2990310">
        <ele>16.4</ele>
        <time>2020-02-22T09:51:22Z</time>
      </trkpt>
      <trkpt lat="39.0087640" lon="1.2990310">
        <ele>16.4</ele>
        <time>2020-02-22T09:51:23Z</time>
      </trkpt>
      <trkpt lat="39.0087690" lon="1.2990310">
        <ele>16.4</ele>
        <time>2020-02-22T09:51:24Z</time>
      </trkpt>
      <trkpt lat="39.0087730" lon="1.2990310">
        <ele>16.4</ele>
        <time>2020-02-22T09:51:25Z</time>
      </trkpt>
      <trkpt lat="39.0087780" lon="1.2990310">
        <ele>16.4</ele>
        <time>2020-02-22T09:51:26Z</time>
      </trkpt>
      <trkpt lat="39.0087830" lon="1.2990340">
        <ele>16.3</ele>
        <time>2020-02-22T09:51:27Z</time>
      </trkpt>
      <trkpt lat="39.0087910" lon="1.2990430">
        <ele>16.3</ele>
        <time>2020-02-22T09:51:28Z</time>
      </trkpt>
      <trkpt lat="39.0088040" lon="1.2990440">
        <ele>16.3</ele>
        <time>2020-02-22T09:51:29Z</time>
      </trkpt>
      <trkpt lat="39.0088120" lon="1.2990500">
        <ele>16.3</ele>
        <time>2020-02-22T09:51:30Z</time>
      </trkpt>
      <trkpt lat="39.0088190" lon="1.2990520">
        <ele>16.2</ele>
        <time>2020-02-22T09:51:31Z</time>
      </trkpt>
      <trkpt lat="39.0088220" lon="1.2990340">
        <ele>16.2</ele>
        <time>2020-02-22T09:51:32Z</time>
      </trkpt>
      <trkpt lat="39.0088250" lon="1.2990330">
        <ele>16.1</ele>
        <time>2020-02-22T09:51:33Z</time>
      </trkpt>
      <trkpt lat="39.0088330" lon="1.2990360">
        <ele>16.2</ele>
        <time>2020-02-22T09:51:34Z</time>
      </trkpt>
      <trkpt lat="39.0088400" lon="1.2990400">
        <ele>16.2</ele>
        <time>2020-02-22T09:51:35Z</time>
      </trkpt>
      <trkpt lat="39.0088470" lon="1.2990360">
        <ele>16.1</ele>
        <time>2020-02-22T09:51:36Z</time>
      </trkpt>
      <trkpt lat="39.0088490" lon="1.2990380">
        <ele>16.1</ele>
        <time>2020-02-22T09:51:37Z</time>
      </trkpt>
      <trkpt lat="39.0088630" lon="1.2990460">
        <ele>16.0</ele>
        <time>2020-02-22T09:51:38Z</time>
      </trkpt>
      <trkpt lat="39.0088750" lon="1.2990490">
        <ele>16.0</ele>
        <time>2020-02-22T09:51:39Z</time>
      </trkpt>
      <trkpt lat="39.0088830" lon="1.2990520">
        <ele>15.9</ele>
        <time>2020-02-22T09:51:40Z</time>
      </trkpt>
      <trkpt lat="39.0088950" lon="1.2990510">
        <ele>15.9</ele>
        <time>2020-02-22T09:51:41Z</time>
      </trkpt>
      <trkpt lat="39.0089080" lon="1.2990510">
        <ele>15.8</ele>
        <time>2020-02-22T09:51:42Z</time>
      </trkpt>
      <trkpt lat="39.0089280" lon="1.2990380">
        <ele>15.7</ele>
        <time>2020-02-22T09:51:43Z</time>
      </trkpt>
      <trkpt lat="39.0089340" lon="1.2990340">
        <ele>15.7</ele>
        <time>2020-02-22T09:51:44Z</time>
      </trkpt>
      <trkpt lat="39.0089390" lon="1.2990300">
        <ele>15.7</ele>
        <time>2020-02-22T09:51:45Z</time>
      </trkpt>
      <trkpt lat="39.0089440" lon="1.2990290">
        <ele>15.7</ele>
        <time>2020-02-22T09:51:46Z</time>
      </trkpt>
      <trkpt lat="39.0089420" lon="1.2990310">
        <ele>15.6</ele>
        <time>2020-02-22T09:51:47Z</time>
      </trkpt>
      <trkpt lat="39.0089510" lon="1.2990260">
        <ele>15.6</ele>
        <time>2020-02-22T09:51:48Z</time>
      </trkpt>
      <trkpt lat="39.0089590" lon="1.2990260">
        <ele>15.6</ele>
        <time>2020-02-22T09:51:49Z</time>
      </trkpt>
      <trkpt lat="39.0089660" lon="1.2990200">
        <ele>15.5</ele>
        <time>2020-02-22T09:51:50Z</time>
      </trkpt>
      <trkpt lat="39.0089730" lon="1.2990170">
        <ele>15.5</ele>
        <time>2020-02-22T09:51:51Z</time>
      </trkpt>
      <trkpt lat="39.0089740" lon="1.2990210">
        <ele>15.5</ele>
        <time>2020-02-22T09:51:52Z</time>
      </trkpt>
      <trkpt lat="39.0089840" lon="1.2990200">
        <ele>15.5</ele>
        <time>2020-02-22T09:51:53Z</time>
      </trkpt>
      <trkpt lat="39.0089900" lon="1.2990190">
        <ele>15.5</ele>
        <time>2020-02-22T09:51:54Z</time>
      </trkpt>
      <trkpt lat="39.0089920" lon="1.2990190">
        <ele>15.5</ele>
        <time>2020-02-22T09:51:55Z</time>
      </trkpt>
      <trkpt lat="39.0089980" lon="1.2990200">
        <ele>15.4</ele>
        <time>2020-02-22T09:51:56Z</time>
      </trkpt>
      <trkpt lat="39.0089990" lon="1.2990180">
        <ele>15.4</ele>
        <time>2020-02-22T09:51:57Z</time>
      </trkpt>
      <trkpt lat="39.0090070" lon="1.2990030">
        <ele>15.4</ele>
        <time>2020-02-22T09:51:58Z</time>
      </trkpt>
      <trkpt lat="39.0090140" lon="1.2989900">
        <ele>15.3</ele>
        <time>2020-02-22T09:51:59Z</time>
      </trkpt>
      <trkpt lat="39.0090230" lon="1.2989810">
        <ele>15.3</ele>
        <time>2020-02-22T09:52:00Z</time>
      </trkpt>
      <trkpt lat="39.0090230" lon="1.2989800">
        <ele>15.3</ele>
        <time>2020-02-22T09:52:01Z</time>
      </trkpt>
      <trkpt lat="39.0090290" lon="1.2989820">
        <ele>15.3</ele>
        <time>2020-02-22T09:52:02Z</time>
      </trkpt>
      <trkpt lat="39.0090400" lon="1.2989860">
        <ele>15.3</ele>
        <time>2020-02-22T09:52:03Z</time>
      </trkpt>
      <trkpt lat="39.0090450" lon="1.2989930">
        <ele>15.2</ele>
        <time>2020-02-22T09:52:04Z</time>
      </trkpt>
      <trkpt lat="39.0090460" lon="1.2989980">
        <ele>15.2</ele>
        <time>2020-02-22T09:52:05Z</time>
      </trkpt>
      <trkpt lat="39.0090530" lon="1.2990030">
        <ele>15.2</ele>
        <time>2020-02-22T09:52:06Z</time>
      </trkpt>
      <trkpt lat="39.0090580" lon="1.2990060">
        <ele>15.2</ele>
        <time>2020-02-22T09:52:07Z</time>
      </trkpt>
      <trkpt lat="39.0090670" lon="1.2990190">
        <ele>15.2</ele>
        <time>2020-02-22T09:52:08Z</time>
      </trkpt>
      <trkpt lat="39.0090550" lon="1.2990210">
        <ele>15.1</ele>
        <time>2020-02-22T09:52:09Z</time>
      </trkpt>
      <trkpt lat="39.0090800" lon="1.2990060">
        <ele>15.1</ele>
        <time>2020-02-22T09:52:10Z</time>
      </trkpt>
      <trkpt lat="39.0090840" lon="1.2990130">
        <ele>15.1</ele>
        <time>2020-02-22T09:52:11Z</time>
      </trkpt>
      <trkpt lat="39.0090850" lon="1.2990140">
        <ele>15.1</ele>
        <time>2020-02-22T09:52:12Z</time>
      </trkpt>
      <trkpt lat="39.0090850" lon="1.2990140">
        <ele>15.1</ele>
        <time>2020-02-22T09:52:13Z</time>
      </trkpt>
      <trkpt lat="39.0090840" lon="1.2990130">
        <ele>15.1</ele>
        <time>2020-02-22T09:52:14Z</time>
      </trkpt>
      <trkpt lat="39.0090850" lon="1.2990130">
        <ele>15.1</ele>
        <time>2020-02-22T09:52:15Z</time>
      </trkpt>
      <trkpt lat="39.0090840" lon="1.2990130">
        <ele>15.1</ele>
        <time>2020-02-22T09:52:16Z</time>
      </trkpt>
      <trkpt lat="39.0090840" lon="1.2990140">
        <ele>15.1</ele>
        <time>2020-02-22T09:52:17Z</time>
      </trkpt>
      <trkpt lat="39.0090810" lon="1.2990160">
        <ele>15.1</ele>
        <time>2020-02-22T09:52:18Z</time>
      </trkpt>
      <trkpt lat="39.0090840" lon="1.2990220">
        <ele>15.1</ele>
        <time>2020-02-22T09:52:19Z</time>
      </trkpt>
      <trkpt lat="39.0090900" lon="1.2990290">
        <ele>15.0</ele>
        <time>2020-02-22T09:52:20Z</time>
      </trkpt>
      <trkpt lat="39.0090840" lon="1.2990250">
        <ele>15.0</ele>
        <time>2020-02-22T09:52:21Z</time>
      </trkpt>
      <trkpt lat="39.0090920" lon="1.2990290">
        <ele>15.0</ele>
        <time>2020-02-22T09:52:22Z</time>
      </trkpt>
      <trkpt lat="39.0090950" lon="1.2990290">
        <ele>15.0</ele>
        <time>2020-02-22T09:52:23Z</time>
      </trkpt>
      <trkpt lat="39.0091010" lon="1.2990300">
        <ele>15.0</ele>
        <time>2020-02-22T09:52:24Z</time>
      </trkpt>
      <trkpt lat="39.0091010" lon="1.2990300">
        <ele>15.0</ele>
        <time>2020-02-22T09:52:25Z</time>
      </trkpt>
      <trkpt lat="39.0091100" lon="1.2990230">
        <ele>15.0</ele>
        <time>2020-02-22T09:52:26Z</time>
      </trkpt>
      <trkpt lat="39.0091080" lon="1.2990220">
        <ele>15.0</ele>
        <time>2020-02-22T09:52:27Z</time>
      </trkpt>
      <trkpt lat="39.0091140" lon="1.2990260">
        <ele>15.0</ele>
        <time>2020-02-22T09:52:28Z</time>
      </trkpt>
      <trkpt lat="39.0091230" lon="1.2990330">
        <ele>15.0</ele>
        <time>2020-02-22T09:52:29Z</time>
      </trkpt>
      <trkpt lat="39.0091260" lon="1.2990360">
        <ele>15.0</ele>
        <time>2020-02-22T09:52:30Z</time>
      </trkpt>
      <trkpt lat="39.0091470" lon="1.2990490">
        <ele>14.9</ele>
        <time>2020-02-22T09:52:31Z</time>
      </trkpt>
      <trkpt lat="39.0091490" lon="1.2990560">
        <ele>14.9</ele>
        <time>2020-02-22T09:52:32Z</time>
      </trkpt>
      <trkpt lat="39.0091550" lon="1.2990590">
        <ele>14.9</ele>
        <time>2020-02-22T09:52:33Z</time>
      </trkpt>
      <trkpt lat="39.0091570" lon="1.2990590">
        <ele>14.9</ele>
        <time>2020-02-22T09:52:34Z</time>
      </trkpt>
      <trkpt lat="39.0091670" lon="1.2990620">
        <ele>14.9</ele>
        <time>2020-02-22T09:52:35Z</time>
      </trkpt>
      <trkpt lat="39.0091670" lon="1.2990600">
        <ele>14.9</ele>
        <time>2020-02-22T09:52:36Z</time>
      </trkpt>
      <trkpt lat="39.0091640" lon="1.2990580">
        <ele>14.9</ele>
        <time>2020-02-22T09:52:37Z</time>
      </trkpt>
      <trkpt lat="39.0091640" lon="1.2990580">
        <ele>14.9</ele>
        <time>2020-02-22T09:52:38Z</time>
      </trkpt>
      <trkpt lat="39.0091640" lon="1.2990570">
        <ele>14.9</ele>
        <time>2020-02-22T09:52:39Z</time>
      </trkpt>
      <trkpt lat="39.0091630" lon="1.2990570">
        <ele>14.9</ele>
        <time>2020-02-22T09:52:40Z</time>
      </trkpt>
      <trkpt lat="39.0091630" lon="1.2990560">
        <ele>14.9</ele>
        <time>2020-02-22T09:52:41Z</time>
      </trkpt>
      <trkpt lat="39.0091630" lon="1.2990560">
        <ele>14.9</ele>
        <time>2020-02-22T09:52:42Z</time>
      </trkpt>
      <trkpt lat="39.0091630" lon="1.2990560">
        <ele>14.9</ele>
        <time>2020-02-22T09:52:43Z</time>
      </trkpt>
      <trkpt lat="39.0091620" lon="1.2990550">
        <ele>14.9</ele>
        <time>2020-02-22T09:52:44Z</time>
      </trkpt>
      <trkpt lat="39.0091620" lon="1.2990550">
        <ele>14.9</ele>
        <time>2020-02-22T09:52:45Z</time>
      </trkpt>
      <trkpt lat="39.0091960" lon="1.2990770">
        <ele>14.9</ele>
        <time>2020-02-22T09:53:07Z</time>
      </trkpt>
      <trkpt lat="39.0092000" lon="1.2990850">
        <ele>14.9</ele>
        <time>2020-02-22T09:53:08Z</time>
      </trkpt>
      <trkpt lat="39.0092040" lon="1.2990960">
        <ele>14.9</ele>
        <time>2020-02-22T09:53:09Z</time>
      </trkpt>
      <trkpt lat="39.0092080" lon="1.2991110">
        <ele>14.9</ele>
        <time>2020-02-22T09:53:10Z</time>
      </trkpt>
      <trkpt lat="39.0092130" lon="1.2991260">
        <ele>14.9</ele>
        <time>2020-02-22T09:53:11Z</time>
      </trkpt>
      <trkpt lat="39.0092150" lon="1.2991400">
        <ele>14.9</ele>
        <time>2020-02-22T09:53:12Z</time>
      </trkpt>
      <trkpt lat="39.0092230" lon="1.2991500">
        <ele>14.9</ele>
        <time>2020-02-22T09:53:13Z</time>
      </trkpt>
      <trkpt lat="39.0092290" lon="1.2991500">
        <ele>14.9</ele>
        <time>2020-02-22T09:53:14Z</time>
      </trkpt>
      <trkpt lat="39.0092330" lon="1.2991500">
        <ele>14.9</ele>
        <time>2020-02-22T09:53:15Z</time>
      </trkpt>
      <trkpt lat="39.0092380" lon="1.2991610">
        <ele>14.9</ele>
        <time>2020-02-22T09:53:16Z</time>
      </trkpt>
      <trkpt lat="39.0092420" lon="1.2991690">
        <ele>14.9</ele>
        <time>2020-02-22T09:53:17Z</time>
      </trkpt>
      <trkpt lat="39.0092480" lon="1.2991870">
        <ele>14.9</ele>
        <time>2020-02-22T09:53:18Z</time>
      </trkpt>
      <trkpt lat="39.0092590" lon="1.2992030">
        <ele>14.9</ele>
        <time>2020-02-22T09:53:19Z</time>
      </trkpt>
      <trkpt lat="39.0092630" lon="1.2992060">
        <ele>14.9</ele>
        <time>2020-02-22T09:53:20Z</time>
      </trkpt>
      <trkpt lat="39.0092730" lon="1.2991940">
        <ele>14.9</ele>
        <time>2020-02-22T09:53:21Z</time>
      </trkpt>
      <trkpt lat="39.0092790" lon="1.2991870">
        <ele>14.9</ele>
        <time>2020-02-22T09:53:22Z</time>
      </trkpt>
      <trkpt lat="39.0092850" lon="1.2991860">
        <ele>14.9</ele>
        <time>2020-02-22T09:53:23Z</time>
      </trkpt>
      <trkpt lat="39.0092970" lon="1.2991900">
        <ele>14.6</ele>
        <time>2020-02-22T09:53:24Z</time>
      </trkpt>
      <trkpt lat="39.0093130" lon="1.2991970">
        <ele>14.4</ele>
        <time>2020-02-22T09:53:25Z</time>
      </trkpt>
      <trkpt lat="39.0093320" lon="1.2992100">
        <ele>14.2</ele>
        <time>2020-02-22T09:53:26Z</time>
      </trkpt>
      <trkpt lat="39.0093430" lon="1.2992220">
        <ele>14.1</ele>
        <time>2020-02-22T09:53:27Z</time>
      </trkpt>
      <trkpt lat="39.0093730" lon="1.2992410">
        <ele>13.9</ele>
        <time>2020-02-22T09:53:28Z</time>
      </trkpt>
      <trkpt lat="39.0093790" lon="1.2992460">
        <ele>13.8</ele>
        <time>2020-02-22T09:53:29Z</time>
      </trkpt>
      <trkpt lat="39.0094150" lon="1.2992460">
        <ele>13.6</ele>
        <time>2020-02-22T09:53:30Z</time>
      </trkpt>
      <trkpt lat="39.0094280" lon="1.2992470">
        <ele>13.5</ele>
        <time>2020-02-22T09:53:31Z</time>
      </trkpt>
      <trkpt lat="39.0094460" lon="1.2992490">
        <ele>13.4</ele>
        <time>2020-02-22T09:53:32Z</time>
      </trkpt>
      <trkpt lat="39.0094630" lon="1.2992360">
        <ele>13.4</ele>
        <time>2020-02-22T09:53:33Z</time>
      </trkpt>
      <trkpt lat="39.0095020" lon="1.2992350">
        <ele>13.2</ele>
        <time>2020-02-22T09:53:34Z</time>
      </trkpt>
      <trkpt lat="39.0095130" lon="1.2992320">
        <ele>13.1</ele>
        <time>2020-02-22T09:53:35Z</time>
      </trkpt>
      <trkpt lat="39.0095280" lon="1.2992310">
        <ele>13.1</ele>
        <time>2020-02-22T09:53:36Z</time>
      </trkpt>
      <trkpt lat="39.0095490" lon="1.2992420">
        <ele>13.0</ele>
        <time>2020-02-22T09:53:37Z</time>
      </trkpt>
      <trkpt lat="39.0095640" lon="1.2992390">
        <ele>12.9</ele>
        <time>2020-02-22T09:53:38Z</time>
      </trkpt>
      <trkpt lat="39.0095830" lon="1.2992570">
        <ele>12.9</ele>
        <time>2020-02-22T09:53:39Z</time>
      </trkpt>
      <trkpt lat="39.0096070" lon="1.2992770">
        <ele>12.7</ele>
        <time>2020-02-22T09:53:40Z</time>
      </trkpt>
      <trkpt lat="39.0096160" lon="1.2992870">
        <ele>12.7</ele>
        <time>2020-02-22T09:53:41Z</time>
      </trkpt>
      <trkpt lat="39.0096470" lon="1.2993040">
        <ele>12.6</ele>
        <time>2020-02-22T09:53:42Z</time>
      </trkpt>
      <trkpt lat="39.0096570" lon="1.2993120">
        <ele>12.6</ele>
        <time>2020-02-22T09:53:43Z</time>
      </trkpt>
      <trkpt lat="39.0096740" lon="1.2993280">
        <ele>12.5</ele>
        <time>2020-02-22T09:53:44Z</time>
      </trkpt>
      <trkpt lat="39.0096810" lon="1.2993460">
        <ele>12.4</ele>
        <time>2020-02-22T09:53:45Z</time>
      </trkpt>
      <trkpt lat="39.0096970" lon="1.2993800">
        <ele>12.3</ele>
        <time>2020-02-22T09:53:46Z</time>
      </trkpt>
      <trkpt lat="39.0097030" lon="1.2993910">
        <ele>12.3</ele>
        <time>2020-02-22T09:53:47Z</time>
      </trkpt>
      <trkpt lat="39.0097280" lon="1.2994280">
        <ele>12.3</ele>
        <time>2020-02-22T09:53:48Z</time>
      </trkpt>
      <trkpt lat="39.0097360" lon="1.2994400">
        <ele>12.3</ele>
        <time>2020-02-22T09:53:49Z</time>
      </trkpt>
      <trkpt lat="39.0097670" lon="1.2994690">
        <ele>12.3</ele>
        <time>2020-02-22T09:53:50Z</time>
      </trkpt>
      <trkpt lat="39.0097740" lon="1.2994850">
        <ele>12.3</ele>
        <time>2020-02-22T09:53:51Z</time>
      </trkpt>
      <trkpt lat="39.0097920" lon="1.2995130">
        <ele>12.4</ele>
        <time>2020-02-22T09:53:52Z</time>
      </trkpt>
      <trkpt lat="39.0097990" lon="1.2995470">
        <ele>12.5</ele>
        <time>2020-02-22T09:53:53Z</time>
      </trkpt>
      <trkpt lat="39.0098190" lon="1.2995890">
        <ele>12.6</ele>
        <time>2020-02-22T09:53:54Z</time>
      </trkpt>
      <trkpt lat="39.0098260" lon="1.2996080">
        <ele>12.6</ele>
        <time>2020-02-22T09:53:55Z</time>
      </trkpt>
      <trkpt lat="39.0098360" lon="1.2996480">
        <ele>12.7</ele>
        <time>2020-02-22T09:53:56Z</time>
      </trkpt>
      <trkpt lat="39.0098360" lon="1.2996600">
        <ele>12.7</ele>
        <time>2020-02-22T09:53:57Z</time>
      </trkpt>
      <trkpt lat="39.0098430" lon="1.2996950">
        <ele>12.8</ele>
        <time>2020-02-22T09:53:58Z</time>
      </trkpt>
      <trkpt lat="39.0098650" lon="1.2997360">
        <ele>12.9</ele>
        <time>2020-02-22T09:53:59Z</time>
      </trkpt>
      <trkpt lat="39.0098720" lon="1.2997510">
        <ele>13.0</ele>
        <time>2020-02-22T09:54:00Z</time>
      </trkpt>
      <trkpt lat="39.0098870" lon="1.2997850">
        <ele>13.0</ele>
        <time>2020-02-22T09:54:01Z</time>
      </trkpt>
      <trkpt lat="39.0098930" lon="1.2998200">
        <ele>13.1</ele>
        <time>2020-02-22T09:54:02Z</time>
      </trkpt>
      <trkpt lat="39.0098930" lon="1.2998320">
        <ele>13.1</ele>
        <time>2020-02-22T09:54:03Z</time>
      </trkpt>
      <trkpt lat="39.0099200" lon="1.2998790">
        <ele>13.4</ele>
        <time>2020-02-22T09:54:04Z</time>
      </trkpt>
      <trkpt lat="39.0099290" lon="1.2999020">
        <ele>13.5</ele>
        <time>2020-02-22T09:54:05Z</time>
      </trkpt>
      <trkpt lat="39.0099330" lon="1.2999380">
        <ele>13.7</ele>
        <time>2020-02-22T09:54:06Z</time>
      </trkpt>
      <trkpt lat="39.0099500" lon="1.2999810">
        <ele>13.9</ele>
        <time>2020-02-22T09:54:07Z</time>
      </trkpt>
      <trkpt lat="39.0099530" lon="1.2999970">
        <ele>14.0</ele>
        <time>2020-02-22T09:54:08Z</time>
      </trkpt>
      <trkpt lat="39.0099550" lon="1.3000330">
        <ele>14.1</ele>
        <time>2020-02-22T09:54:09Z</time>
      </trkpt>
      <trkpt lat="39.0099630" lon="1.3000740">
        <ele>14.3</ele>
        <time>2020-02-22T09:54:10Z</time>
      </trkpt>
      <trkpt lat="39.0099650" lon="1.3000890">
        <ele>14.4</ele>
        <time>2020-02-22T09:54:11Z</time>
      </trkpt>
      <trkpt lat="39.0099750" lon="1.3001230">
        <ele>14.5</ele>
        <time>2020-02-22T09:54:12Z</time>
      </trkpt>
      <trkpt lat="39.0099850" lon="1.3001690">
        <ele>14.7</ele>
        <time>2020-02-22T09:54:13Z</time>
      </trkpt>
      <trkpt lat="39.0099870" lon="1.3001880">
        <ele>14.8</ele>
        <time>2020-02-22T09:54:14Z</time>
      </trkpt>
      <trkpt lat="39.0099920" lon="1.3002390">
        <ele>15.0</ele>
        <time>2020-02-22T09:54:15Z</time>
      </trkpt>
      <trkpt lat="39.0099930" lon="1.3002600">
        <ele>15.1</ele>
        <time>2020-02-22T09:54:16Z</time>
      </trkpt>
      <trkpt lat="39.0100030" lon="1.3002980">
        <ele>15.2</ele>
        <time>2020-02-22T09:54:17Z</time>
      </trkpt>
      <trkpt lat="39.0100100" lon="1.3003450">
        <ele>15.4</ele>
        <time>2020-02-22T09:54:18Z</time>
      </trkpt>
      <trkpt lat="39.0100110" lon="1.3003590">
        <ele>15.4</ele>
        <time>2020-02-22T09:54:19Z</time>
      </trkpt>
      <trkpt lat="39.0100120" lon="1.3004000">
        <ele>15.5</ele>
        <time>2020-02-22T09:54:20Z</time>
      </trkpt>
      <trkpt lat="39.0100050" lon="1.3004360">
        <ele>15.7</ele>
        <time>2020-02-22T09:54:21Z</time>
      </trkpt>
      <trkpt lat="39.0100040" lon="1.3004860">
        <ele>15.8</ele>
        <time>2020-02-22T09:54:22Z</time>
      </trkpt>
      <trkpt lat="39.0100030" lon="1.3005320">
        <ele>16.0</ele>
        <time>2020-02-22T09:54:23Z</time>
      </trkpt>
      <trkpt lat="39.0100010" lon="1.3005450">
        <ele>16.0</ele>
        <time>2020-02-22T09:54:24Z</time>
      </trkpt>
      <trkpt lat="39.0100040" lon="1.3005840">
        <ele>16.1</ele>
        <time>2020-02-22T09:54:25Z</time>
      </trkpt>
      <trkpt lat="39.0100130" lon="1.3006220">
        <ele>16.2</ele>
        <time>2020-02-22T09:54:26Z</time>
      </trkpt>
      <trkpt lat="39.0100140" lon="1.3006370">
        <ele>16.3</ele>
        <time>2020-02-22T09:54:27Z</time>
      </trkpt>
      <trkpt lat="39.0100210" lon="1.3006800">
        <ele>16.4</ele>
        <time>2020-02-22T09:54:28Z</time>
      </trkpt>
      <trkpt lat="39.0100240" lon="1.3006980">
        <ele>16.5</ele>
        <time>2020-02-22T09:54:29Z</time>
      </trkpt>
      <trkpt lat="39.0100340" lon="1.3007410">
        <ele>16.6</ele>
        <time>2020-02-22T09:54:30Z</time>
      </trkpt>
      <trkpt lat="39.0100370" lon="1.3007550">
        <ele>16.7</ele>
        <time>2020-02-22T09:54:31Z</time>
      </trkpt>
      <trkpt lat="39.0100360" lon="1.3007930">
        <ele>16.8</ele>
        <time>2020-02-22T09:54:32Z</time>
      </trkpt>
      <trkpt lat="39.0100370" lon="1.3008090">
        <ele>16.8</ele>
        <time>2020-02-22T09:54:33Z</time>
      </trkpt>
      <trkpt lat="39.0100420" lon="1.3008520">
        <ele>17.0</ele>
        <time>2020-02-22T09:54:34Z</time>
      </trkpt>
      <trkpt lat="39.0100400" lon="1.3008880">
        <ele>17.1</ele>
        <time>2020-02-22T09:54:35Z</time>
      </trkpt>
      <trkpt lat="39.0100390" lon="1.3009110">
        <ele>17.2</ele>
        <time>2020-02-22T09:54:36Z</time>
      </trkpt>
      <trkpt lat="39.0100380" lon="1.3009330">
        <ele>17.3</ele>
        <time>2020-02-22T09:54:37Z</time>
      </trkpt>
      <trkpt lat="39.0100400" lon="1.3009740">
        <ele>17.5</ele>
        <time>2020-02-22T09:54:38Z</time>
      </trkpt>
      <trkpt lat="39.0100410" lon="1.3009880">
        <ele>17.6</ele>
        <time>2020-02-22T09:54:39Z</time>
      </trkpt>
      <trkpt lat="39.0100440" lon="1.3010300">
        <ele>17.8</ele>
        <time>2020-02-22T09:54:40Z</time>
      </trkpt>
      <trkpt lat="39.0100430" lon="1.3010430">
        <ele>17.9</ele>
        <time>2020-02-22T09:54:41Z</time>
      </trkpt>
      <trkpt lat="39.0100440" lon="1.3010780">
        <ele>18.1</ele>
        <time>2020-02-22T09:54:42Z</time>
      </trkpt>
      <trkpt lat="39.0100440" lon="1.3010910">
        <ele>18.2</ele>
        <time>2020-02-22T09:54:43Z</time>
      </trkpt>
      <trkpt lat="39.0100490" lon="1.3011250">
        <ele>18.4</ele>
        <time>2020-02-22T09:54:44Z</time>
      </trkpt>
      <trkpt lat="39.0100530" lon="1.3011420">
        <ele>18.6</ele>
        <time>2020-02-22T09:54:45Z</time>
      </trkpt>
      <trkpt lat="39.0100550" lon="1.3011790">
        <ele>18.7</ele>
        <time>2020-02-22T09:54:46Z</time>
      </trkpt>
      <trkpt lat="39.0100570" lon="1.3011920">
        <ele>18.7</ele>
        <time>2020-02-22T09:54:47Z</time>
      </trkpt>
      <trkpt lat="39.0100660" lon="1.3012050">
        <ele>18.7</ele>
        <time>2020-02-22T09:54:48Z</time>
      </trkpt>
      <trkpt lat="39.0100740" lon="1.3012320">
        <ele>18.7</ele>
        <time>2020-02-22T09:54:49Z</time>
      </trkpt>
      <trkpt lat="39.0100990" lon="1.3012650">
        <ele>18.7</ele>
        <time>2020-02-22T09:54:50Z</time>
      </trkpt>
      <trkpt lat="39.0101280" lon="1.3013150">
        <ele>18.7</ele>
        <time>2020-02-22T09:54:51Z</time>
      </trkpt>
      <trkpt lat="39.0101500" lon="1.3013630">
        <ele>18.7</ele>
        <time>2020-02-22T09:54:52Z</time>
      </trkpt>
      <trkpt lat="39.0101710" lon="1.3014110">
        <ele>18.7</ele>
        <time>2020-02-22T09:54:53Z</time>
      </trkpt>
      <trkpt lat="39.0101910" lon="1.3014450">
        <ele>18.7</ele>
        <time>2020-02-22T09:54:54Z</time>
      </trkpt>
      <trkpt lat="39.0102150" lon="1.3014850">
        <ele>18.8</ele>
        <time>2020-02-22T09:54:55Z</time>
      </trkpt>
      <trkpt lat="39.0102370" lon="1.3015320">
        <ele>18.8</ele>
        <time>2020-02-22T09:54:56Z</time>
      </trkpt>
      <trkpt lat="39.0102560" lon="1.3015630">
        <ele>18.8</ele>
        <time>2020-02-22T09:54:57Z</time>
      </trkpt>
      <trkpt lat="39.0102740" lon="1.3016020">
        <ele>18.8</ele>
        <time>2020-02-22T09:54:58Z</time>
      </trkpt>
      <trkpt lat="39.0102940" lon="1.3016440">
        <ele>18.9</ele>
        <time>2020-02-22T09:54:59Z</time>
      </trkpt>
      <trkpt lat="39.0103100" lon="1.3016780">
        <ele>18.9</ele>
        <time>2020-02-22T09:55:00Z</time>
      </trkpt>
      <trkpt lat="39.0103410" lon="1.3017120">
        <ele>18.9</ele>
        <time>2020-02-22T09:55:01Z</time>
      </trkpt>
      <trkpt lat="39.0103530" lon="1.3017270">
        <ele>19.0</ele>
        <time>2020-02-22T09:55:02Z</time>
      </trkpt>
      <trkpt lat="39.0103760" lon="1.3017610">
        <ele>19.0</ele>
        <time>2020-02-22T09:55:03Z</time>
      </trkpt>
      <trkpt lat="39.0104000" lon="1.3018070">
        <ele>19.0</ele>
        <time>2020-02-22T09:55:04Z</time>
      </trkpt>
      <trkpt lat="39.0104080" lon="1.3018270">
        <ele>19.1</ele>
        <time>2020-02-22T09:55:05Z</time>
      </trkpt>
      <trkpt lat="39.0104260" lon="1.3018550">
        <ele>19.1</ele>
        <time>2020-02-22T09:55:06Z</time>
      </trkpt>
      <trkpt lat="39.0104440" lon="1.3018830">
        <ele>19.2</ele>
        <time>2020-02-22T09:55:07Z</time>
      </trkpt>
      <trkpt lat="39.0104640" lon="1.3019170">
        <ele>19.2</ele>
        <time>2020-02-22T09:55:08Z</time>
      </trkpt>
      <trkpt lat="39.0104870" lon="1.3019570">
        <ele>19.3</ele>
        <time>2020-02-22T09:55:09Z</time>
      </trkpt>
      <trkpt lat="39.0105140" lon="1.3020000">
        <ele>19.4</ele>
        <time>2020-02-22T09:55:10Z</time>
      </trkpt>
      <trkpt lat="39.0105340" lon="1.3020300">
        <ele>19.4</ele>
        <time>2020-02-22T09:55:11Z</time>
      </trkpt>
      <trkpt lat="39.0105570" lon="1.3020620">
        <ele>19.5</ele>
        <time>2020-02-22T09:55:12Z</time>
      </trkpt>
      <trkpt lat="39.0105820" lon="1.3020900">
        <ele>19.5</ele>
        <time>2020-02-22T09:55:13Z</time>
      </trkpt>
      <trkpt lat="39.0106080" lon="1.3021070">
        <ele>19.6</ele>
        <time>2020-02-22T09:55:14Z</time>
      </trkpt>
      <trkpt lat="39.0106420" lon="1.3021170">
        <ele>19.7</ele>
        <time>2020-02-22T09:55:15Z</time>
      </trkpt>
      <trkpt lat="39.0106720" lon="1.3021240">
        <ele>19.8</ele>
        <time>2020-02-22T09:55:16Z</time>
      </trkpt>
      <trkpt lat="39.0107000" lon="1.3021240">
        <ele>19.9</ele>
        <time>2020-02-22T09:55:17Z</time>
      </trkpt>
      <trkpt lat="39.0107310" lon="1.3021310">
        <ele>20.0</ele>
        <time>2020-02-22T09:55:18Z</time>
      </trkpt>
      <trkpt lat="39.0107640" lon="1.3021420">
        <ele>20.1</ele>
        <time>2020-02-22T09:55:19Z</time>
      </trkpt>
      <trkpt lat="39.0107970" lon="1.3021490">
        <ele>20.2</ele>
        <time>2020-02-22T09:55:20Z</time>
      </trkpt>
      <trkpt lat="39.0108350" lon="1.3021570">
        <ele>20.3</ele>
        <time>2020-02-22T09:55:21Z</time>
      </trkpt>
      <trkpt lat="39.0108670" lon="1.3021630">
        <ele>20.4</ele>
        <time>2020-02-22T09:55:22Z</time>
      </trkpt>
      <trkpt lat="39.0109010" lon="1.3021680">
        <ele>20.5</ele>
        <time>2020-02-22T09:55:23Z</time>
      </trkpt>
      <trkpt lat="39.0109340" lon="1.3021810">
        <ele>20.6</ele>
        <time>2020-02-22T09:55:24Z</time>
      </trkpt>
      <trkpt lat="39.0109640" lon="1.3021880">
        <ele>20.7</ele>
        <time>2020-02-22T09:55:25Z</time>
      </trkpt>
      <trkpt lat="39.0109900" lon="1.3022030">
        <ele>20.9</ele>
        <time>2020-02-22T09:55:26Z</time>
      </trkpt>
      <trkpt lat="39.0110180" lon="1.3022180">
        <ele>21.1</ele>
        <time>2020-02-22T09:55:27Z</time>
      </trkpt>
      <trkpt lat="39.0110430" lon="1.3022360">
        <ele>21.2</ele>
        <time>2020-02-22T09:55:28Z</time>
      </trkpt>
      <trkpt lat="39.0110750" lon="1.3022640">
        <ele>21.4</ele>
        <time>2020-02-22T09:55:29Z</time>
      </trkpt>
      <trkpt lat="39.0111140" lon="1.3023000">
        <ele>21.6</ele>
        <time>2020-02-22T09:55:30Z</time>
      </trkpt>
      <trkpt lat="39.0111300" lon="1.3023170">
        <ele>21.7</ele>
        <time>2020-02-22T09:55:31Z</time>
      </trkpt>
      <trkpt lat="39.0111550" lon="1.3023360">
        <ele>21.9</ele>
        <time>2020-02-22T09:55:32Z</time>
      </trkpt>
      <trkpt lat="39.0111840" lon="1.3023520">
        <ele>22.1</ele>
        <time>2020-02-22T09:55:33Z</time>
      </trkpt>
      <trkpt lat="39.0112110" lon="1.3023770">
        <ele>22.2</ele>
        <time>2020-02-22T09:55:34Z</time>
      </trkpt>
      <trkpt lat="39.0112300" lon="1.3024040">
        <ele>22.4</ele>
        <time>2020-02-22T09:55:35Z</time>
      </trkpt>
      <trkpt lat="39.0112530" lon="1.3024230">
        <ele>22.5</ele>
        <time>2020-02-22T09:55:36Z</time>
      </trkpt>
      <trkpt lat="39.0112890" lon="1.3024420">
        <ele>22.8</ele>
        <time>2020-02-22T09:55:37Z</time>
      </trkpt>
      <trkpt lat="39.0113000" lon="1.3024470">
        <ele>22.8</ele>
        <time>2020-02-22T09:55:38Z</time>
      </trkpt>
      <trkpt lat="39.0113300" lon="1.3024720">
        <ele>23.1</ele>
        <time>2020-02-22T09:55:39Z</time>
      </trkpt>
      <trkpt lat="39.0113400" lon="1.3024800">
        <ele>23.2</ele>
        <time>2020-02-22T09:55:40Z</time>
      </trkpt>
      <trkpt lat="39.0113710" lon="1.3024890">
        <ele>23.4</ele>
        <time>2020-02-22T09:55:41Z</time>
      </trkpt>
      <trkpt lat="39.0113940" lon="1.3025130">
        <ele>23.6</ele>
        <time>2020-02-22T09:55:42Z</time>
      </trkpt>
      <trkpt lat="39.0114230" lon="1.3025400">
        <ele>23.9</ele>
        <time>2020-02-22T09:55:43Z</time>
      </trkpt>
      <trkpt lat="39.0114340" lon="1.3025480">
        <ele>24.0</ele>
        <time>2020-02-22T09:55:44Z</time>
      </trkpt>
      <trkpt lat="39.0114490" lon="1.3025520">
        <ele>24.2</ele>
        <time>2020-02-22T09:55:45Z</time>
      </trkpt>
      <trkpt lat="39.0114650" lon="1.3025530">
        <ele>24.3</ele>
        <time>2020-02-22T09:55:46Z</time>
      </trkpt>
      <trkpt lat="39.0114950" lon="1.3025410">
        <ele>24.6</ele>
        <time>2020-02-22T09:55:47Z</time>
      </trkpt>
      <trkpt lat="39.0115050" lon="1.3025370">
        <ele>24.7</ele>
        <time>2020-02-22T09:55:48Z</time>
      </trkpt>
      <trkpt lat="39.0115380" lon="1.3025290">
        <ele>25.0</ele>
        <time>2020-02-22T09:55:49Z</time>
      </trkpt>
      <trkpt lat="39.0115480" lon="1.3025240">
        <ele>25.1</ele>
        <time>2020-02-22T09:55:50Z</time>
      </trkpt>
      <trkpt lat="39.0115780" lon="1.3025040">
        <ele>25.4</ele>
        <time>2020-02-22T09:55:51Z</time>
      </trkpt>
      <trkpt lat="39.0115920" lon="1.3024930">
        <ele>25.6</ele>
        <time>2020-02-22T09:55:52Z</time>
      </trkpt>
      <trkpt lat="39.0116260" lon="1.3024680">
        <ele>25.9</ele>
        <time>2020-02-22T09:55:53Z</time>
      </trkpt>
      <trkpt lat="39.0116380" lon="1.3024570">
        <ele>26.0</ele>
        <time>2020-02-22T09:55:54Z</time>
      </trkpt>
      <trkpt lat="39.0116460" lon="1.3024560">
        <ele>26.0</ele>
        <time>2020-02-22T09:55:55Z</time>
      </trkpt>
      <trkpt lat="39.0116680" lon="1.3024390">
        <ele>26.3</ele>
        <time>2020-02-22T09:55:56Z</time>
      </trkpt>
      <trkpt lat="39.0116770" lon="1.3024250">
        <ele>26.4</ele>
        <time>2020-02-22T09:55:57Z</time>
      </trkpt>
      <trkpt lat="39.0116980" lon="1.3024250">
        <ele>26.5</ele>
        <time>2020-02-22T09:55:58Z</time>
      </trkpt>
      <trkpt lat="39.0117300" lon="1.3024310">
        <ele>26.9</ele>
        <time>2020-02-22T09:55:59Z</time>
      </trkpt>
      <trkpt lat="39.0117600" lon="1.3024350">
        <ele>27.2</ele>
        <time>2020-02-22T09:56:00Z</time>
      </trkpt>
      <trkpt lat="39.0118020" lon="1.3024510">
        <ele>27.6</ele>
        <time>2020-02-22T09:56:01Z</time>
      </trkpt>
      <trkpt lat="39.0118200" lon="1.3024570">
        <ele>27.8</ele>
        <time>2020-02-22T09:56:02Z</time>
      </trkpt>
      <trkpt lat="39.0118530" lon="1.3024610">
        <ele>28.0</ele>
        <time>2020-02-22T09:56:03Z</time>
      </trkpt>
      <trkpt lat="39.0118620" lon="1.3024640">
        <ele>28.1</ele>
        <time>2020-02-22T09:56:04Z</time>
      </trkpt>
      <trkpt lat="39.0118890" lon="1.3024700">
        <ele>28.3</ele>
        <time>2020-02-22T09:56:05Z</time>
      </trkpt>
      <trkpt lat="39.0118980" lon="1.3024720">
        <ele>28.4</ele>
        <time>2020-02-22T09:56:06Z</time>
      </trkpt>
      <trkpt lat="39.0119140" lon="1.3024740">
        <ele>28.5</ele>
        <time>2020-02-22T09:56:07Z</time>
      </trkpt>
      <trkpt lat="39.0119310" lon="1.3024780">
        <ele>28.7</ele>
        <time>2020-02-22T09:56:08Z</time>
      </trkpt>
      <trkpt lat="39.0119580" lon="1.3024870">
        <ele>28.9</ele>
        <time>2020-02-22T09:56:09Z</time>
      </trkpt>
      <trkpt lat="39.0119700" lon="1.3024910">
        <ele>29.1</ele>
        <time>2020-02-22T09:56:10Z</time>
      </trkpt>
      <trkpt lat="39.0119990" lon="1.3025070">
        <ele>29.4</ele>
        <time>2020-02-22T09:56:11Z</time>
      </trkpt>
      <trkpt lat="39.0120100" lon="1.3025140">
        <ele>29.5</ele>
        <time>2020-02-22T09:56:12Z</time>
      </trkpt>
      <trkpt lat="39.0120390" lon="1.3025280">
        <ele>29.7</ele>
        <time>2020-02-22T09:56:13Z</time>
      </trkpt>
      <trkpt lat="39.0120460" lon="1.3025400">
        <ele>29.8</ele>
        <time>2020-02-22T09:56:14Z</time>
      </trkpt>
      <trkpt lat="39.0120720" lon="1.3025800">
        <ele>30.1</ele>
        <time>2020-02-22T09:56:15Z</time>
      </trkpt>
      <trkpt lat="39.0120810" lon="1.3025940">
        <ele>30.2</ele>
        <time>2020-02-22T09:56:16Z</time>
      </trkpt>
      <trkpt lat="39.0121130" lon="1.3026260">
        <ele>30.5</ele>
        <time>2020-02-22T09:56:17Z</time>
      </trkpt>
      <trkpt lat="39.0121300" lon="1.3026400">
        <ele>30.7</ele>
        <time>2020-02-22T09:56:18Z</time>
      </trkpt>
      <trkpt lat="39.0121360" lon="1.3026480">
        <ele>30.7</ele>
        <time>2020-02-22T09:56:19Z</time>
      </trkpt>
      <trkpt lat="39.0121430" lon="1.3026560">
        <ele>30.8</ele>
        <time>2020-02-22T09:56:20Z</time>
      </trkpt>
      <trkpt lat="39.0121760" lon="1.3026780">
        <ele>31.0</ele>
        <time>2020-02-22T09:56:21Z</time>
      </trkpt>
      <trkpt lat="39.0121840" lon="1.3026910">
        <ele>31.1</ele>
        <time>2020-02-22T09:56:22Z</time>
      </trkpt>
      <trkpt lat="39.0121990" lon="1.3026990">
        <ele>31.2</ele>
        <time>2020-02-22T09:56:23Z</time>
      </trkpt>
      <trkpt lat="39.0122130" lon="1.3027080">
        <ele>31.4</ele>
        <time>2020-02-22T09:56:24Z</time>
      </trkpt>
      <trkpt lat="39.0122270" lon="1.3027260">
        <ele>31.5</ele>
        <time>2020-02-22T09:56:25Z</time>
      </trkpt>
      <trkpt lat="39.0122300" lon="1.3027470">
        <ele>31.6</ele>
        <time>2020-02-22T09:56:26Z</time>
      </trkpt>
      <trkpt lat="39.0122400" lon="1.3027570">
        <ele>31.7</ele>
        <time>2020-02-22T09:56:27Z</time>
      </trkpt>
      <trkpt lat="39.0122500" lon="1.3027720">
        <ele>31.9</ele>
        <time>2020-02-22T09:56:28Z</time>
      </trkpt>
      <trkpt lat="39.0122620" lon="1.3027830">
        <ele>32.0</ele>
        <time>2020-02-22T09:56:29Z</time>
      </trkpt>
      <trkpt lat="39.0122770" lon="1.3027860">
        <ele>32.1</ele>
        <time>2020-02-22T09:56:30Z</time>
      </trkpt>
      <trkpt lat="39.0123060" lon="1.3027880">
        <ele>32.3</ele>
        <time>2020-02-22T09:56:31Z</time>
      </trkpt>
      <trkpt lat="39.0123150" lon="1.3027890">
        <ele>32.4</ele>
        <time>2020-02-22T09:56:32Z</time>
      </trkpt>
      <trkpt lat="39.0123480" lon="1.3027930">
        <ele>32.6</ele>
        <time>2020-02-22T09:56:33Z</time>
      </trkpt>
      <trkpt lat="39.0123560" lon="1.3027990">
        <ele>32.7</ele>
        <time>2020-02-22T09:56:34Z</time>
      </trkpt>
      <trkpt lat="39.0123700" lon="1.3028030">
        <ele>32.8</ele>
        <time>2020-02-22T09:56:35Z</time>
      </trkpt>
      <trkpt lat="39.0123840" lon="1.3028050">
        <ele>32.9</ele>
        <time>2020-02-22T09:56:36Z</time>
      </trkpt>
      <trkpt lat="39.0124060" lon="1.3028100">
        <ele>33.0</ele>
        <time>2020-02-22T09:56:37Z</time>
      </trkpt>
      <trkpt lat="39.0124160" lon="1.3028090">
        <ele>33.1</ele>
        <time>2020-02-22T09:56:38Z</time>
      </trkpt>
      <trkpt lat="39.0124250" lon="1.3028070">
        <ele>33.1</ele>
        <time>2020-02-22T09:56:39Z</time>
      </trkpt>
      <trkpt lat="39.0124390" lon="1.3028120">
        <ele>33.2</ele>
        <time>2020-02-22T09:56:40Z</time>
      </trkpt>
      <trkpt lat="39.0124590" lon="1.3028040">
        <ele>33.4</ele>
        <time>2020-02-22T09:56:41Z</time>
      </trkpt>
      <trkpt lat="39.0124800" lon="1.3027740">
        <ele>33.6</ele>
        <time>2020-02-22T09:56:42Z</time>
      </trkpt>
      <trkpt lat="39.0124850" lon="1.3027650">
        <ele>33.7</ele>
        <time>2020-02-22T09:56:43Z</time>
      </trkpt>
      <trkpt lat="39.0125090" lon="1.3027370">
        <ele>33.9</ele>
        <time>2020-02-22T09:56:44Z</time>
      </trkpt>
      <trkpt lat="39.0125180" lon="1.3027270">
        <ele>34.0</ele>
        <time>2020-02-22T09:56:45Z</time>
      </trkpt>
      <trkpt lat="39.0125380" lon="1.3026940">
        <ele>34.3</ele>
        <time>2020-02-22T09:56:46Z</time>
      </trkpt>
      <trkpt lat="39.0125630" lon="1.3026580">
        <ele>34.6</ele>
        <time>2020-02-22T09:56:47Z</time>
      </trkpt>
      <trkpt lat="39.0125840" lon="1.3026280">
        <ele>34.8</ele>
        <time>2020-02-22T09:56:48Z</time>
      </trkpt>
      <trkpt lat="39.0125920" lon="1.3026260">
        <ele>34.9</ele>
        <time>2020-02-22T09:56:49Z</time>
      </trkpt>
      <trkpt lat="39.0126220" lon="1.3026050">
        <ele>35.1</ele>
        <time>2020-02-22T09:56:50Z</time>
      </trkpt>
      <trkpt lat="39.0126310" lon="1.3025960">
        <ele>35.2</ele>
        <time>2020-02-22T09:56:51Z</time>
      </trkpt>
      <trkpt lat="39.0126510" lon="1.3025650">
        <ele>35.5</ele>
        <time>2020-02-22T09:56:52Z</time>
      </trkpt>
      <trkpt lat="39.0126560" lon="1.3025560">
        <ele>35.5</ele>
        <time>2020-02-22T09:56:53Z</time>
      </trkpt>
      <trkpt lat="39.0126820" lon="1.3025230">
        <ele>35.8</ele>
        <time>2020-02-22T09:56:54Z</time>
      </trkpt>
      <trkpt lat="39.0126930" lon="1.3025040">
        <ele>35.9</ele>
        <time>2020-02-22T09:56:55Z</time>
      </trkpt>
      <trkpt lat="39.0127250" lon="1.3024720">
        <ele>36.2</ele>
        <time>2020-02-22T09:56:56Z</time>
      </trkpt>
      <trkpt lat="39.0127430" lon="1.3024600">
        <ele>36.3</ele>
        <time>2020-02-22T09:56:57Z</time>
      </trkpt>
      <trkpt lat="39.0127800" lon="1.3024320">
        <ele>36.6</ele>
        <time>2020-02-22T09:56:58Z</time>
      </trkpt>
      <trkpt lat="39.0128050" lon="1.3024200">
        <ele>36.8</ele>
        <time>2020-02-22T09:56:59Z</time>
      </trkpt>
      <trkpt lat="39.0128300" lon="1.3023940">
        <ele>37.0</ele>
        <time>2020-02-22T09:57:00Z</time>
      </trkpt>
      <trkpt lat="39.0128620" lon="1.3023640">
        <ele>37.2</ele>
        <time>2020-02-22T09:57:01Z</time>
      </trkpt>
      <trkpt lat="39.0128730" lon="1.3023550">
        <ele>37.2</ele>
        <time>2020-02-22T09:57:02Z</time>
      </trkpt>
      <trkpt lat="39.0128960" lon="1.3023200">
        <ele>37.4</ele>
        <time>2020-02-22T09:57:03Z</time>
      </trkpt>
      <trkpt lat="39.0129020" lon="1.3023060">
        <ele>37.5</ele>
        <time>2020-02-22T09:57:04Z</time>
      </trkpt>
      <trkpt lat="39.0129140" lon="1.3022670">
        <ele>37.6</ele>
        <time>2020-02-22T09:57:05Z</time>
      </trkpt>
      <trkpt lat="39.0129300" lon="1.3022260">
        <ele>37.8</ele>
        <time>2020-02-22T09:57:06Z</time>
      </trkpt>
      <trkpt lat="39.0129440" lon="1.3021910">
        <ele>38.0</ele>
        <time>2020-02-22T09:57:07Z</time>
      </trkpt>
      <trkpt lat="39.0129560" lon="1.3021520">
        <ele>38.1</ele>
        <time>2020-02-22T09:57:08Z</time>
      </trkpt>
      <trkpt lat="39.0129740" lon="1.3021200">
        <ele>38.3</ele>
        <time>2020-02-22T09:57:09Z</time>
      </trkpt>
      <trkpt lat="39.0129800" lon="1.3021140">
        <ele>38.3</ele>
        <time>2020-02-22T09:57:10Z</time>
      </trkpt>
      <trkpt lat="39.0129900" lon="1.3020770">
        <ele>38.5</ele>
        <time>2020-02-22T09:57:11Z</time>
      </trkpt>
      <trkpt lat="39.0130100" lon="1.3020370">
        <ele>38.6</ele>
        <time>2020-02-22T09:57:12Z</time>
      </trkpt>
      <trkpt lat="39.0130170" lon="1.3020200">
        <ele>38.7</ele>
        <time>2020-02-22T09:57:13Z</time>
      </trkpt>
      <trkpt lat="39.0130390" lon="1.3019700">
        <ele>38.9</ele>
        <time>2020-02-22T09:57:14Z</time>
      </trkpt>
      <trkpt lat="39.0130470" lon="1.3019490">
        <ele>39.0</ele>
        <time>2020-02-22T09:57:15Z</time>
      </trkpt>
      <trkpt lat="39.0130600" lon="1.3019180">
        <ele>39.1</ele>
        <time>2020-02-22T09:57:16Z</time>
      </trkpt>
      <trkpt lat="39.0130600" lon="1.3018810">
        <ele>39.3</ele>
        <time>2020-02-22T09:57:17Z</time>
      </trkpt>
      <trkpt lat="39.0130760" lon="1.3018370">
        <ele>39.4</ele>
        <time>2020-02-22T09:57:18Z</time>
      </trkpt>
      <trkpt lat="39.0130820" lon="1.3018220">
        <ele>39.5</ele>
        <time>2020-02-22T09:57:19Z</time>
      </trkpt>
      <trkpt lat="39.0131000" lon="1.3017920">
        <ele>39.6</ele>
        <time>2020-02-22T09:57:20Z</time>
      </trkpt>
      <trkpt lat="39.0131090" lon="1.3017800">
        <ele>39.7</ele>
        <time>2020-02-22T09:57:21Z</time>
      </trkpt>
      <trkpt lat="39.0131340" lon="1.3017550">
        <ele>39.8</ele>
        <time>2020-02-22T09:57:22Z</time>
      </trkpt>
      <trkpt lat="39.0131410" lon="1.3017490">
        <ele>39.9</ele>
        <time>2020-02-22T09:57:23Z</time>
      </trkpt>
      <trkpt lat="39.0131760" lon="1.3017340">
        <ele>40.1</ele>
        <time>2020-02-22T09:57:24Z</time>
      </trkpt>
      <trkpt lat="39.0131900" lon="1.3017280">
        <ele>40.1</ele>
        <time>2020-02-22T09:57:25Z</time>
      </trkpt>
      <trkpt lat="39.0132160" lon="1.3017170">
        <ele>40.3</ele>
        <time>2020-02-22T09:57:26Z</time>
      </trkpt>
      <trkpt lat="39.0132470" lon="1.3017040">
        <ele>40.5</ele>
        <time>2020-02-22T09:57:27Z</time>
      </trkpt>
      <trkpt lat="39.0132530" lon="1.3017020">
        <ele>40.6</ele>
        <time>2020-02-22T09:57:28Z</time>
      </trkpt>
      <trkpt lat="39.0132880" lon="1.3017060">
        <ele>40.7</ele>
        <time>2020-02-22T09:57:29Z</time>
      </trkpt>
      <trkpt lat="39.0133020" lon="1.3017060">
        <ele>40.8</ele>
        <time>2020-02-22T09:57:30Z</time>
      </trkpt>
      <trkpt lat="39.0133310" lon="1.3016970">
        <ele>40.9</ele>
        <time>2020-02-22T09:57:31Z</time>
      </trkpt>
      <trkpt lat="39.0133670" lon="1.3016920">
        <ele>41.0</ele>
        <time>2020-02-22T09:57:32Z</time>
      </trkpt>
      <trkpt lat="39.0133770" lon="1.3016900">
        <ele>41.1</ele>
        <time>2020-02-22T09:57:33Z</time>
      </trkpt>
      <trkpt lat="39.0134040" lon="1.3016880">
        <ele>41.2</ele>
        <time>2020-02-22T09:57:34Z</time>
      </trkpt>
      <trkpt lat="39.0134380" lon="1.3016790">
        <ele>41.3</ele>
        <time>2020-02-22T09:57:35Z</time>
      </trkpt>
      <trkpt lat="39.0134490" lon="1.3016740">
        <ele>41.3</ele>
        <time>2020-02-22T09:57:36Z</time>
      </trkpt>
      <trkpt lat="39.0134770" lon="1.3016680">
        <ele>41.5</ele>
        <time>2020-02-22T09:57:37Z</time>
      </trkpt>
      <trkpt lat="39.0135040" lon="1.3016640">
        <ele>41.6</ele>
        <time>2020-02-22T09:57:38Z</time>
      </trkpt>
      <trkpt lat="39.0135150" lon="1.3016630">
        <ele>41.6</ele>
        <time>2020-02-22T09:57:39Z</time>
      </trkpt>
      <trkpt lat="39.0135530" lon="1.3016570">
        <ele>41.8</ele>
        <time>2020-02-22T09:57:40Z</time>
      </trkpt>
      <trkpt lat="39.0135640" lon="1.3016560">
        <ele>41.8</ele>
        <time>2020-02-22T09:57:41Z</time>
      </trkpt>
      <trkpt lat="39.0135960" lon="1.3016610">
        <ele>42.0</ele>
        <time>2020-02-22T09:57:42Z</time>
      </trkpt>
      <trkpt lat="39.0136250" lon="1.3016660">
        <ele>42.1</ele>
        <time>2020-02-22T09:57:43Z</time>
      </trkpt>
      <trkpt lat="39.0136600" lon="1.3016670">
        <ele>42.3</ele>
        <time>2020-02-22T09:57:44Z</time>
      </trkpt>
      <trkpt lat="39.0136950" lon="1.3016630">
        <ele>42.4</ele>
        <time>2020-02-22T09:57:45Z</time>
      </trkpt>
      <trkpt lat="39.0137050" lon="1.3016650">
        <ele>42.5</ele>
        <time>2020-02-22T09:57:46Z</time>
      </trkpt>
      <trkpt lat="39.0137320" lon="1.3016740">
        <ele>42.6</ele>
        <time>2020-02-22T09:57:47Z</time>
      </trkpt>
      <trkpt lat="39.0137430" lon="1.3016800">
        <ele>42.7</ele>
        <time>2020-02-22T09:57:48Z</time>
      </trkpt>
      <trkpt lat="39.0137810" lon="1.3016820">
        <ele>42.8</ele>
        <time>2020-02-22T09:57:49Z</time>
      </trkpt>
      <trkpt lat="39.0137930" lon="1.3016810">
        <ele>42.9</ele>
        <time>2020-02-22T09:57:50Z</time>
      </trkpt>
      <trkpt lat="39.0138260" lon="1.3016840">
        <ele>43.0</ele>
        <time>2020-02-22T09:57:51Z</time>
      </trkpt>
      <trkpt lat="39.0138350" lon="1.3016870">
        <ele>43.0</ele>
        <time>2020-02-22T09:57:52Z</time>
      </trkpt>
      <trkpt lat="39.0138690" lon="1.3016950">
        <ele>43.2</ele>
        <time>2020-02-22T09:57:53Z</time>
      </trkpt>
      <trkpt lat="39.0138820" lon="1.3016990">
        <ele>43.2</ele>
        <time>2020-02-22T09:57:54Z</time>
      </trkpt>
      <trkpt lat="39.0139150" lon="1.3017020">
        <ele>43.4</ele>
        <time>2020-02-22T09:57:55Z</time>
      </trkpt>
      <trkpt lat="39.0139260" lon="1.3017040">
        <ele>43.4</ele>
        <time>2020-02-22T09:57:56Z</time>
      </trkpt>
      <trkpt lat="39.0139600" lon="1.3017160">
        <ele>43.6</ele>
        <time>2020-02-22T09:57:57Z</time>
      </trkpt>
      <trkpt lat="39.0139710" lon="1.3017200">
        <ele>43.6</ele>
        <time>2020-02-22T09:57:58Z</time>
      </trkpt>
      <trkpt lat="39.0140040" lon="1.3017320">
        <ele>43.8</ele>
        <time>2020-02-22T09:57:59Z</time>
      </trkpt>
      <trkpt lat="39.0140390" lon="1.3017400">
        <ele>44.0</ele>
        <time>2020-02-22T09:58:00Z</time>
      </trkpt>
      <trkpt lat="39.0140770" lon="1.3017480">
        <ele>44.2</ele>
        <time>2020-02-22T09:58:01Z</time>
      </trkpt>
      <trkpt lat="39.0140880" lon="1.3017510">
        <ele>44.2</ele>
        <time>2020-02-22T09:58:02Z</time>
      </trkpt>
      <trkpt lat="39.0141300" lon="1.3017580">
        <ele>44.4</ele>
        <time>2020-02-22T09:58:03Z</time>
      </trkpt>
      <trkpt lat="39.0141500" lon="1.3017600">
        <ele>44.5</ele>
        <time>2020-02-22T09:58:04Z</time>
      </trkpt>
      <trkpt lat="39.0141780" lon="1.3017660">
        <ele>44.7</ele>
        <time>2020-02-22T09:58:05Z</time>
      </trkpt>
      <trkpt lat="39.0142120" lon="1.3017670">
        <ele>44.8</ele>
        <time>2020-02-22T09:58:06Z</time>
      </trkpt>
      <trkpt lat="39.0142220" lon="1.3017690">
        <ele>44.8</ele>
        <time>2020-02-22T09:58:07Z</time>
      </trkpt>
      <trkpt lat="39.0142510" lon="1.3017780">
        <ele>45.0</ele>
        <time>2020-02-22T09:58:08Z</time>
      </trkpt>
      <trkpt lat="39.0142900" lon="1.3017870">
        <ele>45.1</ele>
        <time>2020-02-22T09:58:09Z</time>
      </trkpt>
      <trkpt lat="39.0143040" lon="1.3017930">
        <ele>45.2</ele>
        <time>2020-02-22T09:58:10Z</time>
      </trkpt>
      <trkpt lat="39.0143320" lon="1.3018030">
        <ele>45.3</ele>
        <time>2020-02-22T09:58:11Z</time>
      </trkpt>
      <trkpt lat="39.0143660" lon="1.3018110">
        <ele>45.5</ele>
        <time>2020-02-22T09:58:12Z</time>
      </trkpt>
      <trkpt lat="39.0143780" lon="1.3018140">
        <ele>45.5</ele>
        <time>2020-02-22T09:58:13Z</time>
      </trkpt>
      <trkpt lat="39.0144120" lon="1.3018190">
        <ele>45.7</ele>
        <time>2020-02-22T09:58:14Z</time>
      </trkpt>
      <trkpt lat="39.0144230" lon="1.3018230">
        <ele>45.7</ele>
        <time>2020-02-22T09:58:15Z</time>
      </trkpt>
      <trkpt lat="39.0144500" lon="1.3018310">
        <ele>45.9</ele>
        <time>2020-02-22T09:58:16Z</time>
      </trkpt>
      <trkpt lat="39.0144850" lon="1.3018360">
        <ele>46.1</ele>
        <time>2020-02-22T09:58:17Z</time>
      </trkpt>
      <trkpt lat="39.0144980" lon="1.3018400">
        <ele>46.2</ele>
        <time>2020-02-22T09:58:18Z</time>
      </trkpt>
      <trkpt lat="39.0145380" lon="1.3018570">
        <ele>46.4</ele>
        <time>2020-02-22T09:58:19Z</time>
      </trkpt>
      <trkpt lat="39.0145540" lon="1.3018630">
        <ele>46.5</ele>
        <time>2020-02-22T09:58:20Z</time>
      </trkpt>
      <trkpt lat="39.0145890" lon="1.3018720">
        <ele>46.7</ele>
        <time>2020-02-22T09:58:21Z</time>
      </trkpt>
      <trkpt lat="39.0146000" lon="1.3018770">
        <ele>46.7</ele>
        <time>2020-02-22T09:58:22Z</time>
      </trkpt>
      <trkpt lat="39.0146270" lon="1.3018870">
        <ele>46.9</ele>
        <time>2020-02-22T09:58:23Z</time>
      </trkpt>
      <trkpt lat="39.0146640" lon="1.3018960">
        <ele>47.1</ele>
        <time>2020-02-22T09:58:24Z</time>
      </trkpt>
      <trkpt lat="39.0146940" lon="1.3018990">
        <ele>47.2</ele>
        <time>2020-02-22T09:58:25Z</time>
      </trkpt>
      <trkpt lat="39.0147330" lon="1.3019050">
        <ele>47.4</ele>
        <time>2020-02-22T09:58:26Z</time>
      </trkpt>
      <trkpt lat="39.0147470" lon="1.3019050">
        <ele>47.5</ele>
        <time>2020-02-22T09:58:27Z</time>
      </trkpt>
      <trkpt lat="39.0147860" lon="1.3018970">
        <ele>47.7</ele>
        <time>2020-02-22T09:58:28Z</time>
      </trkpt>
      <trkpt lat="39.0147990" lon="1.3018940">
        <ele>47.7</ele>
        <time>2020-02-22T09:58:29Z</time>
      </trkpt>
      <trkpt lat="39.0148300" lon="1.3018920">
        <ele>47.9</ele>
        <time>2020-02-22T09:58:30Z</time>
      </trkpt>
      <trkpt lat="39.0148720" lon="1.3018890">
        <ele>48.1</ele>
        <time>2020-02-22T09:58:31Z</time>
      </trkpt>
      <trkpt lat="39.0148880" lon="1.3018880">
        <ele>48.2</ele>
        <time>2020-02-22T09:58:32Z</time>
      </trkpt>
      <trkpt lat="39.0149230" lon="1.3018880">
        <ele>48.4</ele>
        <time>2020-02-22T09:58:33Z</time>
      </trkpt>
      <trkpt lat="39.0149370" lon="1.3018900">
        <ele>48.5</ele>
        <time>2020-02-22T09:58:34Z</time>
      </trkpt>
      <trkpt lat="39.0149660" lon="1.3018970">
        <ele>48.7</ele>
        <time>2020-02-22T09:58:35Z</time>
      </trkpt>
      <trkpt lat="39.0149760" lon="1.3018960">
        <ele>48.8</ele>
        <time>2020-02-22T09:58:36Z</time>
      </trkpt>
      <trkpt lat="39.0150080" lon="1.3019070">
        <ele>49.0</ele>
        <time>2020-02-22T09:58:37Z</time>
      </trkpt>
      <trkpt lat="39.0150360" lon="1.3019130">
        <ele>49.2</ele>
        <time>2020-02-22T09:58:38Z</time>
      </trkpt>
      <trkpt lat="39.0150570" lon="1.3019150">
        <ele>49.3</ele>
        <time>2020-02-22T09:58:39Z</time>
      </trkpt>
      <trkpt lat="39.0150690" lon="1.3019210">
        <ele>49.4</ele>
        <time>2020-02-22T09:58:40Z</time>
      </trkpt>
      <trkpt lat="39.0150910" lon="1.3019270">
        <ele>49.5</ele>
        <time>2020-02-22T09:58:41Z</time>
      </trkpt>
      <trkpt lat="39.0151020" lon="1.3019280">
        <ele>49.6</ele>
        <time>2020-02-22T09:58:42Z</time>
      </trkpt>
      <trkpt lat="39.0151130" lon="1.3019300">
        <ele>49.7</ele>
        <time>2020-02-22T09:58:43Z</time>
      </trkpt>
      <trkpt lat="39.0151410" lon="1.3019390">
        <ele>49.9</ele>
        <time>2020-02-22T09:58:44Z</time>
      </trkpt>
      <trkpt lat="39.0151750" lon="1.3019440">
        <ele>50.2</ele>
        <time>2020-02-22T09:58:45Z</time>
      </trkpt>
      <trkpt lat="39.0151840" lon="1.3019460">
        <ele>50.2</ele>
        <time>2020-02-22T09:58:46Z</time>
      </trkpt>
      <trkpt lat="39.0152130" lon="1.3019570">
        <ele>50.5</ele>
        <time>2020-02-22T09:58:47Z</time>
      </trkpt>
      <trkpt lat="39.0152200" lon="1.3019600">
        <ele>50.5</ele>
        <time>2020-02-22T09:58:48Z</time>
      </trkpt>
      <trkpt lat="39.0152480" lon="1.3019770">
        <ele>50.8</ele>
        <time>2020-02-22T09:58:49Z</time>
      </trkpt>
      <trkpt lat="39.0152560" lon="1.3019830">
        <ele>50.8</ele>
        <time>2020-02-22T09:58:50Z</time>
      </trkpt>
      <trkpt lat="39.0152830" lon="1.3020140">
        <ele>51.1</ele>
        <time>2020-02-22T09:58:51Z</time>
      </trkpt>
      <trkpt lat="39.0152920" lon="1.3020270">
        <ele>51.2</ele>
        <time>2020-02-22T09:58:52Z</time>
      </trkpt>
      <trkpt lat="39.0153220" lon="1.3020520">
        <ele>51.5</ele>
        <time>2020-02-22T09:58:53Z</time>
      </trkpt>
      <trkpt lat="39.0153290" lon="1.3020730">
        <ele>51.6</ele>
        <time>2020-02-22T09:58:54Z</time>
      </trkpt>
      <trkpt lat="39.0153460" lon="1.3020700">
        <ele>51.7</ele>
        <time>2020-02-22T09:58:55Z</time>
      </trkpt>
      <trkpt lat="39.0153730" lon="1.3020760">
        <ele>51.9</ele>
        <time>2020-02-22T09:58:56Z</time>
      </trkpt>
      <trkpt lat="39.0153820" lon="1.3020800">
        <ele>52.0</ele>
        <time>2020-02-22T09:58:57Z</time>
      </trkpt>
      <trkpt lat="39.0154090" lon="1.3020910">
        <ele>52.2</ele>
        <time>2020-02-22T09:58:58Z</time>
      </trkpt>
      <trkpt lat="39.0154180" lon="1.3020940">
        <ele>52.3</ele>
        <time>2020-02-22T09:58:59Z</time>
      </trkpt>
      <trkpt lat="39.0154430" lon="1.3021020">
        <ele>52.5</ele>
        <time>2020-02-22T09:59:00Z</time>
      </trkpt>
      <trkpt lat="39.0154570" lon="1.3021050">
        <ele>52.6</ele>
        <time>2020-02-22T09:59:01Z</time>
      </trkpt>
      <trkpt lat="39.0154770" lon="1.3021210">
        <ele>52.8</ele>
        <time>2020-02-22T09:59:02Z</time>
      </trkpt>
      <trkpt lat="39.0154850" lon="1.3021190">
        <ele>52.8</ele>
        <time>2020-02-22T09:59:03Z</time>
      </trkpt>
      <trkpt lat="39.0154930" lon="1.3021180">
        <ele>52.9</ele>
        <time>2020-02-22T09:59:04Z</time>
      </trkpt>
      <trkpt lat="39.0155040" lon="1.3021280">
        <ele>53.0</ele>
        <time>2020-02-22T09:59:05Z</time>
      </trkpt>
      <trkpt lat="39.0155240" lon="1.3021420">
        <ele>53.2</ele>
        <time>2020-02-22T09:59:06Z</time>
      </trkpt>
      <trkpt lat="39.0155520" lon="1.3021510">
        <ele>53.4</ele>
        <time>2020-02-22T09:59:07Z</time>
      </trkpt>
      <trkpt lat="39.0155610" lon="1.3021540">
        <ele>53.5</ele>
        <time>2020-02-22T09:59:08Z</time>
      </trkpt>
      <trkpt lat="39.0155830" lon="1.3021800">
        <ele>53.8</ele>
        <time>2020-02-22T09:59:09Z</time>
      </trkpt>
      <trkpt lat="39.0156110" lon="1.3022070">
        <ele>54.0</ele>
        <time>2020-02-22T09:59:10Z</time>
      </trkpt>
      <trkpt lat="39.0156220" lon="1.3022130">
        <ele>54.1</ele>
        <time>2020-02-22T09:59:11Z</time>
      </trkpt>
      <trkpt lat="39.0156580" lon="1.3022280">
        <ele>54.4</ele>
        <time>2020-02-22T09:59:12Z</time>
      </trkpt>
      <trkpt lat="39.0156710" lon="1.3022360">
        <ele>54.5</ele>
        <time>2020-02-22T09:59:13Z</time>
      </trkpt>
      <trkpt lat="39.0156910" lon="1.3022550">
        <ele>54.7</ele>
        <time>2020-02-22T09:59:14Z</time>
      </trkpt>
      <trkpt lat="39.0156980" lon="1.3022680">
        <ele>54.8</ele>
        <time>2020-02-22T09:59:15Z</time>
      </trkpt>
      <trkpt lat="39.0157270" lon="1.3023000">
        <ele>55.1</ele>
        <time>2020-02-22T09:59:16Z</time>
      </trkpt>
      <trkpt lat="39.0157360" lon="1.3023100">
        <ele>55.2</ele>
        <time>2020-02-22T09:59:17Z</time>
      </trkpt>
      <trkpt lat="39.0157640" lon="1.3023370">
        <ele>55.4</ele>
        <time>2020-02-22T09:59:18Z</time>
      </trkpt>
      <trkpt lat="39.0157740" lon="1.3023440">
        <ele>55.5</ele>
        <time>2020-02-22T09:59:19Z</time>
      </trkpt>
      <trkpt lat="39.0158000" lon="1.3023660">
        <ele>55.7</ele>
        <time>2020-02-22T09:59:20Z</time>
      </trkpt>
      <trkpt lat="39.0158060" lon="1.3023750">
        <ele>55.8</ele>
        <time>2020-02-22T09:59:21Z</time>
      </trkpt>
      <trkpt lat="39.0158200" lon="1.3023810">
        <ele>55.9</ele>
        <time>2020-02-22T09:59:22Z</time>
      </trkpt>
      <trkpt lat="39.0158330" lon="1.3023870">
        <ele>56.0</ele>
        <time>2020-02-22T09:59:23Z</time>
      </trkpt>
      <trkpt lat="39.0158560" lon="1.3024070">
        <ele>56.2</ele>
        <time>2020-02-22T09:59:24Z</time>
      </trkpt>
      <trkpt lat="39.0158660" lon="1.3024170">
        <ele>56.3</ele>
        <time>2020-02-22T09:59:25Z</time>
      </trkpt>
      <trkpt lat="39.0158950" lon="1.3024410">
        <ele>56.6</ele>
        <time>2020-02-22T09:59:26Z</time>
      </trkpt>
      <trkpt lat="39.0159040" lon="1.3024490">
        <ele>56.7</ele>
        <time>2020-02-22T09:59:27Z</time>
      </trkpt>
      <trkpt lat="39.0159320" lon="1.3024700">
        <ele>57.0</ele>
        <time>2020-02-22T09:59:28Z</time>
      </trkpt>
      <trkpt lat="39.0159410" lon="1.3024790">
        <ele>57.0</ele>
        <time>2020-02-22T09:59:29Z</time>
      </trkpt>
      <trkpt lat="39.0159540" lon="1.3024860">
        <ele>57.1</ele>
        <time>2020-02-22T09:59:30Z</time>
      </trkpt>
      <trkpt lat="39.0159640" lon="1.3024970">
        <ele>57.2</ele>
        <time>2020-02-22T09:59:31Z</time>
      </trkpt>
      <trkpt lat="39.0159820" lon="1.3025110">
        <ele>57.4</ele>
        <time>2020-02-22T09:59:32Z</time>
      </trkpt>
      <trkpt lat="39.0159920" lon="1.3025140">
        <ele>57.5</ele>
        <time>2020-02-22T09:59:33Z</time>
      </trkpt>
      <trkpt lat="39.0160010" lon="1.3025180">
        <ele>57.5</ele>
        <time>2020-02-22T09:59:34Z</time>
      </trkpt>
      <trkpt lat="39.0160340" lon="1.3025230">
        <ele>57.7</ele>
        <time>2020-02-22T09:59:35Z</time>
      </trkpt>
      <trkpt lat="39.0160420" lon="1.3025280">
        <ele>57.8</ele>
        <time>2020-02-22T09:59:36Z</time>
      </trkpt>
      <trkpt lat="39.0160800" lon="1.3025390">
        <ele>58.0</ele>
        <time>2020-02-22T09:59:37Z</time>
      </trkpt>
      <trkpt lat="39.0160930" lon="1.3025390">
        <ele>58.1</ele>
        <time>2020-02-22T09:59:38Z</time>
      </trkpt>
      <trkpt lat="39.0161220" lon="1.3025450">
        <ele>58.3</ele>
        <time>2020-02-22T09:59:39Z</time>
      </trkpt>
      <trkpt lat="39.0161330" lon="1.3025460">
        <ele>58.3</ele>
        <time>2020-02-22T09:59:40Z</time>
      </trkpt>
      <trkpt lat="39.0161650" lon="1.3025610">
        <ele>58.6</ele>
        <time>2020-02-22T09:59:41Z</time>
      </trkpt>
      <trkpt lat="39.0161740" lon="1.3025650">
        <ele>58.6</ele>
        <time>2020-02-22T09:59:42Z</time>
      </trkpt>
      <trkpt lat="39.0162050" lon="1.3025780">
        <ele>58.8</ele>
        <time>2020-02-22T09:59:43Z</time>
      </trkpt>
      <trkpt lat="39.0162130" lon="1.3025810">
        <ele>58.9</ele>
        <time>2020-02-22T09:59:44Z</time>
      </trkpt>
      <trkpt lat="39.0162460" lon="1.3025860">
        <ele>59.1</ele>
        <time>2020-02-22T09:59:45Z</time>
      </trkpt>
      <trkpt lat="39.0162600" lon="1.3025880">
        <ele>59.1</ele>
        <time>2020-02-22T09:59:46Z</time>
      </trkpt>
      <trkpt lat="39.0162790" lon="1.3025890">
        <ele>59.3</ele>
        <time>2020-02-22T09:59:47Z</time>
      </trkpt>
      <trkpt lat="39.0162940" lon="1.3025850">
        <ele>59.3</ele>
        <time>2020-02-22T09:59:48Z</time>
      </trkpt>
      <trkpt lat="39.0163220" lon="1.3025990">
        <ele>59.5</ele>
        <time>2020-02-22T09:59:49Z</time>
      </trkpt>
      <trkpt lat="39.0163320" lon="1.3026040">
        <ele>59.6</ele>
        <time>2020-02-22T09:59:50Z</time>
      </trkpt>
      <trkpt lat="39.0163630" lon="1.3026120">
        <ele>59.8</ele>
        <time>2020-02-22T09:59:51Z</time>
      </trkpt>
      <trkpt lat="39.0163720" lon="1.3026140">
        <ele>59.8</ele>
        <time>2020-02-22T09:59:52Z</time>
      </trkpt>
      <trkpt lat="39.0164080" lon="1.3026110">
        <ele>60.0</ele>
        <time>2020-02-22T09:59:53Z</time>
      </trkpt>
      <trkpt lat="39.0164200" lon="1.3026080">
        <ele>60.1</ele>
        <time>2020-02-22T09:59:54Z</time>
      </trkpt>
      <trkpt lat="39.0164550" lon="1.3026110">
        <ele>60.3</ele>
        <time>2020-02-22T09:59:55Z</time>
      </trkpt>
      <trkpt lat="39.0164660" lon="1.3026150">
        <ele>60.3</ele>
        <time>2020-02-22T09:59:56Z</time>
      </trkpt>
      <trkpt lat="39.0165070" lon="1.3026150">
        <ele>60.6</ele>
        <time>2020-02-22T09:59:57Z</time>
      </trkpt>
      <trkpt lat="39.0165390" lon="1.3026200">
        <ele>60.7</ele>
        <time>2020-02-22T09:59:58Z</time>
      </trkpt>
      <trkpt lat="39.0165680" lon="1.3026220">
        <ele>60.8</ele>
        <time>2020-02-22T09:59:59Z</time>
      </trkpt>
      <trkpt lat="39.0165960" lon="1.3026300">
        <ele>61.0</ele>
        <time>2020-02-22T10:00:00Z</time>
      </trkpt>
      <trkpt lat="39.0166380" lon="1.3026300">
        <ele>61.2</ele>
        <time>2020-02-22T10:00:01Z</time>
      </trkpt>
      <trkpt lat="39.0166580" lon="1.3026280">
        <ele>61.2</ele>
        <time>2020-02-22T10:00:02Z</time>
      </trkpt>
      <trkpt lat="39.0166930" lon="1.3026460">
        <ele>61.4</ele>
        <time>2020-02-22T10:00:03Z</time>
      </trkpt>
      <trkpt lat="39.0167230" lon="1.3026520">
        <ele>61.5</ele>
        <time>2020-02-22T10:00:04Z</time>
      </trkpt>
      <trkpt lat="39.0167560" lon="1.3026550">
        <ele>61.7</ele>
        <time>2020-02-22T10:00:05Z</time>
      </trkpt>
      <trkpt lat="39.0167920" lon="1.3026680">
        <ele>61.9</ele>
        <time>2020-02-22T10:00:06Z</time>
      </trkpt>
      <trkpt lat="39.0168290" lon="1.3026660">
        <ele>62.0</ele>
        <time>2020-02-22T10:00:07Z</time>
      </trkpt>
      <trkpt lat="39.0168430" lon="1.3026660">
        <ele>62.1</ele>
        <time>2020-02-22T10:00:08Z</time>
      </trkpt>
      <trkpt lat="39.0168800" lon="1.3026670">
        <ele>62.3</ele>
        <time>2020-02-22T10:00:09Z</time>
      </trkpt>
      <trkpt lat="39.0168940" lon="1.3026690">
        <ele>62.3</ele>
        <time>2020-02-22T10:00:10Z</time>
      </trkpt>
      <trkpt lat="39.0169210" lon="1.3026680">
        <ele>62.5</ele>
        <time>2020-02-22T10:00:11Z</time>
      </trkpt>
      <trkpt lat="39.0169540" lon="1.3026620">
        <ele>62.7</ele>
        <time>2020-02-22T10:00:12Z</time>
      </trkpt>
      <trkpt lat="39.0169940" lon="1.3026650">
        <ele>62.9</ele>
        <time>2020-02-22T10:00:13Z</time>
      </trkpt>
      <trkpt lat="39.0170380" lon="1.3026700">
        <ele>63.2</ele>
        <time>2020-02-22T10:00:14Z</time>
      </trkpt>
      <trkpt lat="39.0170550" lon="1.3026710">
        <ele>63.3</ele>
        <time>2020-02-22T10:00:15Z</time>
      </trkpt>
      <trkpt lat="39.0170860" lon="1.3026640">
        <ele>63.4</ele>
        <time>2020-02-22T10:00:16Z</time>
      </trkpt>
      <trkpt lat="39.0171220" lon="1.3026700">
        <ele>63.6</ele>
        <time>2020-02-22T10:00:17Z</time>
      </trkpt>
      <trkpt lat="39.0171330" lon="1.3026730">
        <ele>63.7</ele>
        <time>2020-02-22T10:00:18Z</time>
      </trkpt>
      <trkpt lat="39.0171580" lon="1.3026840">
        <ele>63.8</ele>
        <time>2020-02-22T10:00:19Z</time>
      </trkpt>
      <trkpt lat="39.0171890" lon="1.3026900">
        <ele>64.0</ele>
        <time>2020-02-22T10:00:20Z</time>
      </trkpt>
      <trkpt lat="39.0172240" lon="1.3026940">
        <ele>64.2</ele>
        <time>2020-02-22T10:00:21Z</time>
      </trkpt>
      <trkpt lat="39.0172340" lon="1.3026930">
        <ele>64.2</ele>
        <time>2020-02-22T10:00:22Z</time>
      </trkpt>
      <trkpt lat="39.0172740" lon="1.3027050">
        <ele>64.5</ele>
        <time>2020-02-22T10:00:23Z</time>
      </trkpt>
      <trkpt lat="39.0172870" lon="1.3027100">
        <ele>64.5</ele>
        <time>2020-02-22T10:00:24Z</time>
      </trkpt>
      <trkpt lat="39.0173150" lon="1.3027210">
        <ele>64.7</ele>
        <time>2020-02-22T10:00:25Z</time>
      </trkpt>
      <trkpt lat="39.0173540" lon="1.3027360">
        <ele>65.0</ele>
        <time>2020-02-22T10:00:26Z</time>
      </trkpt>
      <trkpt lat="39.0173870" lon="1.3027440">
        <ele>65.2</ele>
        <time>2020-02-22T10:00:27Z</time>
      </trkpt>
      <trkpt lat="39.0174020" lon="1.3027520">
        <ele>65.3</ele>
        <time>2020-02-22T10:00:28Z</time>
      </trkpt>
      <trkpt lat="39.0174370" lon="1.3027510">
        <ele>65.6</ele>
        <time>2020-02-22T10:00:29Z</time>
      </trkpt>
      <trkpt lat="39.0174640" lon="1.3027560">
        <ele>65.8</ele>
        <time>2020-02-22T10:00:30Z</time>
      </trkpt>
      <trkpt lat="39.0174750" lon="1.3027620">
        <ele>65.9</ele>
        <time>2020-02-22T10:00:31Z</time>
      </trkpt>
      <trkpt lat="39.0175320" lon="1.3027890">
        <ele>66.3</ele>
        <time>2020-02-22T10:00:32Z</time>
      </trkpt>
      <trkpt lat="39.0175500" lon="1.3027860">
        <ele>66.4</ele>
        <time>2020-02-22T10:00:33Z</time>
      </trkpt>
      <trkpt lat="39.0175630" lon="1.3027800">
        <ele>66.5</ele>
        <time>2020-02-22T10:00:34Z</time>
      </trkpt>
      <trkpt lat="39.0175810" lon="1.3027690">
        <ele>66.7</ele>
        <time>2020-02-22T10:00:35Z</time>
      </trkpt>
      <trkpt lat="39.0175890" lon="1.3027630">
        <ele>66.7</ele>
        <time>2020-02-22T10:00:36Z</time>
      </trkpt>
      <trkpt lat="39.0176190" lon="1.3027780">
        <ele>67.0</ele>
        <time>2020-02-22T10:00:37Z</time>
      </trkpt>
      <trkpt lat="39.0176350" lon="1.3027860">
        <ele>67.1</ele>
        <time>2020-02-22T10:00:38Z</time>
      </trkpt>
      <trkpt lat="39.0176750" lon="1.3028050">
        <ele>67.5</ele>
        <time>2020-02-22T10:00:39Z</time>
      </trkpt>
      <trkpt lat="39.0176930" lon="1.3028110">
        <ele>67.6</ele>
        <time>2020-02-22T10:00:40Z</time>
      </trkpt>
      <trkpt lat="39.0177230" lon="1.3028140">
        <ele>67.9</ele>
        <time>2020-02-22T10:00:41Z</time>
      </trkpt>
      <trkpt lat="39.0177550" lon="1.3028200">
        <ele>68.2</ele>
        <time>2020-02-22T10:00:42Z</time>
      </trkpt>
      <trkpt lat="39.0177900" lon="1.3028110">
        <ele>68.5</ele>
        <time>2020-02-22T10:00:43Z</time>
      </trkpt>
      <trkpt lat="39.0178010" lon="1.3028140">
        <ele>68.7</ele>
        <time>2020-02-22T10:00:44Z</time>
      </trkpt>
      <trkpt lat="39.0178160" lon="1.3028220">
        <ele>68.8</ele>
        <time>2020-02-22T10:00:45Z</time>
      </trkpt>
      <trkpt lat="39.0178350" lon="1.3028250">
        <ele>69.0</ele>
        <time>2020-02-22T10:00:46Z</time>
      </trkpt>
      <trkpt lat="39.0178690" lon="1.3028160">
        <ele>69.4</ele>
        <time>2020-02-22T10:00:47Z</time>
      </trkpt>
      <trkpt lat="39.0178770" lon="1.3028150">
        <ele>69.5</ele>
        <time>2020-02-22T10:00:48Z</time>
      </trkpt>
      <trkpt lat="39.0179110" lon="1.3027890">
        <ele>70.0</ele>
        <time>2020-02-22T10:00:49Z</time>
      </trkpt>
      <trkpt lat="39.0179210" lon="1.3027760">
        <ele>70.2</ele>
        <time>2020-02-22T10:00:50Z</time>
      </trkpt>
      <trkpt lat="39.0179450" lon="1.3027430">
        <ele>70.6</ele>
        <time>2020-02-22T10:00:51Z</time>
      </trkpt>
      <trkpt lat="39.0179740" lon="1.3027110">
        <ele>71.0</ele>
        <time>2020-02-22T10:00:52Z</time>
      </trkpt>
      <trkpt lat="39.0179930" lon="1.3026770">
        <ele>71.4</ele>
        <time>2020-02-22T10:00:53Z</time>
      </trkpt>
      <trkpt lat="39.0180010" lon="1.3026660">
        <ele>71.6</ele>
        <time>2020-02-22T10:00:54Z</time>
      </trkpt>
      <trkpt lat="39.0180140" lon="1.3026370">
        <ele>71.9</ele>
        <time>2020-02-22T10:00:55Z</time>
      </trkpt>
      <trkpt lat="39.0180210" lon="1.3026250">
        <ele>72.0</ele>
        <time>2020-02-22T10:00:56Z</time>
      </trkpt>
      <trkpt lat="39.0180300" lon="1.3026080">
        <ele>72.2</ele>
        <time>2020-02-22T10:00:57Z</time>
      </trkpt>
      <trkpt lat="39.0180270" lon="1.3025950">
        <ele>72.3</ele>
        <time>2020-02-22T10:00:58Z</time>
      </trkpt>
      <trkpt lat="39.0180270" lon="1.3025870">
        <ele>72.4</ele>
        <time>2020-02-22T10:00:59Z</time>
      </trkpt>
      <trkpt lat="39.0180290" lon="1.3025770">
        <ele>72.4</ele>
        <time>2020-02-22T10:01:00Z</time>
      </trkpt>
      <trkpt lat="39.0180260" lon="1.3025610">
        <ele>72.6</ele>
        <time>2020-02-22T10:01:01Z</time>
      </trkpt>
      <trkpt lat="39.0180250" lon="1.3025510">
        <ele>72.7</ele>
        <time>2020-02-22T10:01:02Z</time>
      </trkpt>
      <trkpt lat="39.0180190" lon="1.3025250">
        <ele>73.0</ele>
        <time>2020-02-22T10:01:03Z</time>
      </trkpt>
      <trkpt lat="39.0180160" lon="1.3025140">
        <ele>73.1</ele>
        <time>2020-02-22T10:01:04Z</time>
      </trkpt>
      <trkpt lat="39.0180120" lon="1.3025030">
        <ele>73.2</ele>
        <time>2020-02-22T10:01:05Z</time>
      </trkpt>
      <trkpt lat="39.0179990" lon="1.3024710">
        <ele>73.6</ele>
        <time>2020-02-22T10:01:06Z</time>
      </trkpt>
      <trkpt lat="39.0179940" lon="1.3024600">
        <ele>73.8</ele>
        <time>2020-02-22T10:01:07Z</time>
      </trkpt>
      <trkpt lat="39.0179620" lon="1.3024290">
        <ele>74.4</ele>
        <time>2020-02-22T10:01:08Z</time>
      </trkpt>
      <trkpt lat="39.0179470" lon="1.3024200">
        <ele>74.7</ele>
        <time>2020-02-22T10:01:09Z</time>
      </trkpt>
      <trkpt lat="39.0179340" lon="1.3024140">
        <ele>75.0</ele>
        <time>2020-02-22T10:01:10Z</time>
      </trkpt>
      <trkpt lat="39.0179140" lon="1.3024020">
        <ele>75.3</ele>
        <time>2020-02-22T10:01:11Z</time>
      </trkpt>
      <trkpt lat="39.0179020" lon="1.3023840">
        <ele>75.7</ele>
        <time>2020-02-22T10:01:12Z</time>
      </trkpt>
      <trkpt lat="39.0178940" lon="1.3023730">
        <ele>75.8</ele>
        <time>2020-02-22T10:01:13Z</time>
      </trkpt>
      <trkpt lat="39.0178810" lon="1.3023650">
        <ele>76.0</ele>
        <time>2020-02-22T10:01:14Z</time>
      </trkpt>
      <trkpt lat="39.0178650" lon="1.3023650">
        <ele>76.1</ele>
        <time>2020-02-22T10:01:15Z</time>
      </trkpt>
      <trkpt lat="39.0178430" lon="1.3023560">
        <ele>76.4</ele>
        <time>2020-02-22T10:01:16Z</time>
      </trkpt>
      <trkpt lat="39.0178300" lon="1.3023580">
        <ele>76.6</ele>
        <time>2020-02-22T10:01:17Z</time>
      </trkpt>
      <trkpt lat="39.0178170" lon="1.3023560">
        <ele>76.7</ele>
        <time>2020-02-22T10:01:18Z</time>
      </trkpt>
      <trkpt lat="39.0178000" lon="1.3023530">
        <ele>76.9</ele>
        <time>2020-02-22T10:01:19Z</time>
      </trkpt>
      <trkpt lat="39.0177700" lon="1.3023420">
        <ele>77.3</ele>
        <time>2020-02-22T10:01:20Z</time>
      </trkpt>
      <trkpt lat="39.0177610" lon="1.3023420">
        <ele>77.4</ele>
        <time>2020-02-22T10:01:21Z</time>
      </trkpt>
      <trkpt lat="39.0177570" lon="1.3023470">
        <ele>77.5</ele>
        <time>2020-02-22T10:01:22Z</time>
      </trkpt>
      <trkpt lat="39.0177340" lon="1.3023340">
        <ele>77.9</ele>
        <time>2020-02-22T10:01:23Z</time>
      </trkpt>
      <trkpt lat="39.0177020" lon="1.3023250">
        <ele>78.3</ele>
        <time>2020-02-22T10:01:24Z</time>
      </trkpt>
      <trkpt lat="39.0176940" lon="1.3023240">
        <ele>78.4</ele>
        <time>2020-02-22T10:01:25Z</time>
      </trkpt>
      <trkpt lat="39.0176780" lon="1.3023280">
        <ele>78.6</ele>
        <time>2020-02-22T10:01:26Z</time>
      </trkpt>
      <trkpt lat="39.0176700" lon="1.3023290">
        <ele>78.8</ele>
        <time>2020-02-22T10:01:27Z</time>
      </trkpt>
      <trkpt lat="39.0176590" lon="1.3023220">
        <ele>78.9</ele>
        <time>2020-02-22T10:01:28Z</time>
      </trkpt>
      <trkpt lat="39.0176500" lon="1.3023230">
        <ele>79.0</ele>
        <time>2020-02-22T10:01:29Z</time>
      </trkpt>
      <trkpt lat="39.0176250" lon="1.3023210">
        <ele>79.3</ele>
        <time>2020-02-22T10:01:30Z</time>
      </trkpt>
      <trkpt lat="39.0175960" lon="1.3023140">
        <ele>79.6</ele>
        <time>2020-02-22T10:01:31Z</time>
      </trkpt>
      <trkpt lat="39.0175620" lon="1.3023120">
        <ele>79.9</ele>
        <time>2020-02-22T10:01:32Z</time>
      </trkpt>
      <trkpt lat="39.0175460" lon="1.3023080">
        <ele>80.0</ele>
        <time>2020-02-22T10:01:33Z</time>
      </trkpt>
      <trkpt lat="39.0175120" lon="1.3023090">
        <ele>80.3</ele>
        <time>2020-02-22T10:01:34Z</time>
      </trkpt>
      <trkpt lat="39.0175050" lon="1.3023090">
        <ele>80.3</ele>
        <time>2020-02-22T10:01:35Z</time>
      </trkpt>
      <trkpt lat="39.0174700" lon="1.3023050">
        <ele>80.5</ele>
        <time>2020-02-22T10:01:36Z</time>
      </trkpt>
      <trkpt lat="39.0174580" lon="1.3023080">
        <ele>80.6</ele>
        <time>2020-02-22T10:01:37Z</time>
      </trkpt>
      <trkpt lat="39.0174240" lon="1.3023050">
        <ele>80.8</ele>
        <time>2020-02-22T10:01:38Z</time>
      </trkpt>
      <trkpt lat="39.0174130" lon="1.3023030">
        <ele>80.9</ele>
        <time>2020-02-22T10:01:39Z</time>
      </trkpt>
      <trkpt lat="39.0173780" lon="1.3023020">
        <ele>81.1</ele>
        <time>2020-02-22T10:01:40Z</time>
      </trkpt>
      <trkpt lat="39.0173660" lon="1.3023020">
        <ele>81.2</ele>
        <time>2020-02-22T10:01:41Z</time>
      </trkpt>
      <trkpt lat="39.0173340" lon="1.3022930">
        <ele>81.3</ele>
        <time>2020-02-22T10:01:42Z</time>
      </trkpt>
      <trkpt lat="39.0173270" lon="1.3022910">
        <ele>81.4</ele>
        <time>2020-02-22T10:01:43Z</time>
      </trkpt>
      <trkpt lat="39.0172960" lon="1.3022810">
        <ele>81.5</ele>
        <time>2020-02-22T10:01:44Z</time>
      </trkpt>
      <trkpt lat="39.0172840" lon="1.3022790">
        <ele>81.6</ele>
        <time>2020-02-22T10:01:45Z</time>
      </trkpt>
      <trkpt lat="39.0172480" lon="1.3022700">
        <ele>81.8</ele>
        <time>2020-02-22T10:01:46Z</time>
      </trkpt>
      <trkpt lat="39.0172370" lon="1.3022670">
        <ele>81.9</ele>
        <time>2020-02-22T10:01:47Z</time>
      </trkpt>
      <trkpt lat="39.0172010" lon="1.3022530">
        <ele>82.1</ele>
        <time>2020-02-22T10:01:48Z</time>
      </trkpt>
      <trkpt lat="39.0171900" lon="1.3022490">
        <ele>82.1</ele>
        <time>2020-02-22T10:01:49Z</time>
      </trkpt>
      <trkpt lat="39.0171640" lon="1.3022400">
        <ele>82.3</ele>
        <time>2020-02-22T10:01:50Z</time>
      </trkpt>
      <trkpt lat="39.0171540" lon="1.3022350">
        <ele>82.4</ele>
        <time>2020-02-22T10:01:51Z</time>
      </trkpt>
      <trkpt lat="39.0171380" lon="1.3022270">
        <ele>82.5</ele>
        <time>2020-02-22T10:01:52Z</time>
      </trkpt>
      <trkpt lat="39.0171260" lon="1.3022150">
        <ele>82.6</ele>
        <time>2020-02-22T10:01:53Z</time>
      </trkpt>
      <trkpt lat="39.0171070" lon="1.3021880">
        <ele>82.8</ele>
        <time>2020-02-22T10:01:54Z</time>
      </trkpt>
      <trkpt lat="39.0171000" lon="1.3021810">
        <ele>82.8</ele>
        <time>2020-02-22T10:01:55Z</time>
      </trkpt>
      <trkpt lat="39.0170710" lon="1.3021560">
        <ele>83.0</ele>
        <time>2020-02-22T10:01:56Z</time>
      </trkpt>
      <trkpt lat="39.0170640" lon="1.3021490">
        <ele>83.1</ele>
        <time>2020-02-22T10:01:57Z</time>
      </trkpt>
      <trkpt lat="39.0170360" lon="1.3021320">
        <ele>83.2</ele>
        <time>2020-02-22T10:01:58Z</time>
      </trkpt>
      <trkpt lat="39.0170300" lon="1.3021270">
        <ele>83.3</ele>
        <time>2020-02-22T10:01:59Z</time>
      </trkpt>
      <trkpt lat="39.0170050" lon="1.3021000">
        <ele>83.4</ele>
        <time>2020-02-22T10:02:00Z</time>
      </trkpt>
      <trkpt lat="39.0169950" lon="1.3020910">
        <ele>83.5</ele>
        <time>2020-02-22T10:02:01Z</time>
      </trkpt>
      <trkpt lat="39.0169820" lon="1.3020780">
        <ele>83.6</ele>
        <time>2020-02-22T10:02:02Z</time>
      </trkpt>
      <trkpt lat="39.0169690" lon="1.3020600">
        <ele>83.7</ele>
        <time>2020-02-22T10:02:03Z</time>
      </trkpt>
      <trkpt lat="39.0169540" lon="1.3020280">
        <ele>83.9</ele>
        <time>2020-02-22T10:02:04Z</time>
      </trkpt>
      <trkpt lat="39.0169320" lon="1.3020000">
        <ele>84.1</ele>
        <time>2020-02-22T10:02:05Z</time>
      </trkpt>
      <trkpt lat="39.0169260" lon="1.3019900">
        <ele>84.2</ele>
        <time>2020-02-22T10:02:06Z</time>
      </trkpt>
      <trkpt lat="39.0169110" lon="1.3019550">
        <ele>84.4</ele>
        <time>2020-02-22T10:02:07Z</time>
      </trkpt>
      <trkpt lat="39.0169010" lon="1.3019420">
        <ele>84.5</ele>
        <time>2020-02-22T10:02:08Z</time>
      </trkpt>
      <trkpt lat="39.0168820" lon="1.3019100">
        <ele>84.7</ele>
        <time>2020-02-22T10:02:09Z</time>
      </trkpt>
      <trkpt lat="39.0168730" lon="1.3019020">
        <ele>84.8</ele>
        <time>2020-02-22T10:02:10Z</time>
      </trkpt>
      <trkpt lat="39.0168600" lon="1.3018710">
        <ele>85.0</ele>
        <time>2020-02-22T10:02:11Z</time>
      </trkpt>
      <trkpt lat="39.0168530" lon="1.3018610">
        <ele>85.1</ele>
        <time>2020-02-22T10:02:12Z</time>
      </trkpt>
      <trkpt lat="39.0168390" lon="1.3018270">
        <ele>85.4</ele>
        <time>2020-02-22T10:02:13Z</time>
      </trkpt>
      <trkpt lat="39.0168330" lon="1.3018150">
        <ele>85.5</ele>
        <time>2020-02-22T10:02:14Z</time>
      </trkpt>
      <trkpt lat="39.0168200" lon="1.3017940">
        <ele>85.7</ele>
        <time>2020-02-22T10:02:15Z</time>
      </trkpt>
      <trkpt lat="39.0168110" lon="1.3017800">
        <ele>85.8</ele>
        <time>2020-02-22T10:02:16Z</time>
      </trkpt>
      <trkpt lat="39.0167800" lon="1.3017600">
        <ele>86.1</ele>
        <time>2020-02-22T10:02:17Z</time>
      </trkpt>
      <trkpt lat="39.0167710" lon="1.3017540">
        <ele>86.2</ele>
        <time>2020-02-22T10:02:18Z</time>
      </trkpt>
      <trkpt lat="39.0167600" lon="1.3017390">
        <ele>86.3</ele>
        <time>2020-02-22T10:02:19Z</time>
      </trkpt>
      <trkpt lat="39.0167540" lon="1.3017160">
        <ele>86.5</ele>
        <time>2020-02-22T10:02:20Z</time>
      </trkpt>
      <trkpt lat="39.0167380" lon="1.3016810">
        <ele>86.7</ele>
        <time>2020-02-22T10:02:21Z</time>
      </trkpt>
      <trkpt lat="39.0167340" lon="1.3016710">
        <ele>86.7</ele>
        <time>2020-02-22T10:02:22Z</time>
      </trkpt>
      <trkpt lat="39.0167300" lon="1.3016440">
        <ele>86.9</ele>
        <time>2020-02-22T10:02:23Z</time>
      </trkpt>
      <trkpt lat="39.0167280" lon="1.3016330">
        <ele>87.0</ele>
        <time>2020-02-22T10:02:24Z</time>
      </trkpt>
      <trkpt lat="39.0167270" lon="1.3016210">
        <ele>87.0</ele>
        <time>2020-02-22T10:02:25Z</time>
      </trkpt>
      <trkpt lat="39.0167280" lon="1.3015950">
        <ele>87.2</ele>
        <time>2020-02-22T10:02:26Z</time>
      </trkpt>
      <trkpt lat="39.0167290" lon="1.3015770">
        <ele>87.3</ele>
        <time>2020-02-22T10:02:27Z</time>
      </trkpt>
      <trkpt lat="39.0167400" lon="1.3015400">
        <ele>87.6</ele>
        <time>2020-02-22T10:02:28Z</time>
      </trkpt>
      <trkpt lat="39.0167450" lon="1.3015260">
        <ele>87.8</ele>
        <time>2020-02-22T10:02:29Z</time>
      </trkpt>
      <trkpt lat="39.0167570" lon="1.3014890">
        <ele>88.1</ele>
        <time>2020-02-22T10:02:30Z</time>
      </trkpt>
      <trkpt lat="39.0167600" lon="1.3014800">
        <ele>88.1</ele>
        <time>2020-02-22T10:02:31Z</time>
      </trkpt>
      <trkpt lat="39.0167520" lon="1.3014780">
        <ele>88.2</ele>
        <time>2020-02-22T10:02:32Z</time>
      </trkpt>
      <trkpt lat="39.0167680" lon="1.3014810">
        <ele>88.4</ele>
        <time>2020-02-22T10:02:33Z</time>
      </trkpt>
      <trkpt lat="39.0167890" lon="1.3014880">
        <ele>88.6</ele>
        <time>2020-02-22T10:02:34Z</time>
      </trkpt>
      <trkpt lat="39.0168070" lon="1.3014940">
        <ele>88.8</ele>
        <time>2020-02-22T10:02:35Z</time>
      </trkpt>
      <trkpt lat="39.0168200" lon="1.3015020">
        <ele>89.0</ele>
        <time>2020-02-22T10:02:36Z</time>
      </trkpt>
      <trkpt lat="39.0168490" lon="1.3015160">
        <ele>89.3</ele>
        <time>2020-02-22T10:02:37Z</time>
      </trkpt>
      <trkpt lat="39.0168560" lon="1.3015210">
        <ele>89.4</ele>
        <time>2020-02-22T10:02:38Z</time>
      </trkpt>
      <trkpt lat="39.0168740" lon="1.3015320">
        <ele>89.7</ele>
        <time>2020-02-22T10:02:39Z</time>
      </trkpt>
      <trkpt lat="39.0168800" lon="1.3015470">
        <ele>89.8</ele>
        <time>2020-02-22T10:02:40Z</time>
      </trkpt>
      <trkpt lat="39.0168970" lon="1.3015770">
        <ele>90.1</ele>
        <time>2020-02-22T10:02:41Z</time>
      </trkpt>
      <trkpt lat="39.0169030" lon="1.3015850">
        <ele>90.2</ele>
        <time>2020-02-22T10:02:42Z</time>
      </trkpt>
      <trkpt lat="39.0169300" lon="1.3016070">
        <ele>90.5</ele>
        <time>2020-02-22T10:02:43Z</time>
      </trkpt>
      <trkpt lat="39.0169380" lon="1.3016160">
        <ele>90.7</ele>
        <time>2020-02-22T10:02:44Z</time>
      </trkpt>
      <trkpt lat="39.0169590" lon="1.3016430">
        <ele>91.0</ele>
        <time>2020-02-22T10:02:45Z</time>
      </trkpt>
      <trkpt lat="39.0169660" lon="1.3016520">
        <ele>91.1</ele>
        <time>2020-02-22T10:02:46Z</time>
      </trkpt>
      <trkpt lat="39.0169910" lon="1.3016800">
        <ele>91.5</ele>
        <time>2020-02-22T10:02:47Z</time>
      </trkpt>
      <trkpt lat="39.0170000" lon="1.3016920">
        <ele>91.7</ele>
        <time>2020-02-22T10:02:48Z</time>
      </trkpt>
      <trkpt lat="39.0170080" lon="1.3017080">
        <ele>91.9</ele>
        <time>2020-02-22T10:02:49Z</time>
      </trkpt>
      <trkpt lat="39.0170170" lon="1.3017260">
        <ele>92.2</ele>
        <time>2020-02-22T10:02:50Z</time>
      </trkpt>
      <trkpt lat="39.0170260" lon="1.3017360">
        <ele>92.4</ele>
        <time>2020-02-22T10:02:51Z</time>
      </trkpt>
      <trkpt lat="39.0170380" lon="1.3017580">
        <ele>92.6</ele>
        <time>2020-02-22T10:02:52Z</time>
      </trkpt>
      <trkpt lat="39.0170480" lon="1.3017730">
        <ele>92.8</ele>
        <time>2020-02-22T10:02:53Z</time>
      </trkpt>
      <trkpt lat="39.0170560" lon="1.3017910">
        <ele>93.0</ele>
        <time>2020-02-22T10:02:54Z</time>
      </trkpt>
      <trkpt lat="39.0170600" lon="1.3017970">
        <ele>93.1</ele>
        <time>2020-02-22T10:02:55Z</time>
      </trkpt>
      <trkpt lat="39.0170720" lon="1.3018200">
        <ele>93.3</ele>
        <time>2020-02-22T10:02:56Z</time>
      </trkpt>
      <trkpt lat="39.0170890" lon="1.3018570">
        <ele>93.8</ele>
        <time>2020-02-22T10:02:57Z</time>
      </trkpt>
      <trkpt lat="39.0170930" lon="1.3018650">
        <ele>93.9</ele>
        <time>2020-02-22T10:02:58Z</time>
      </trkpt>
      <trkpt lat="39.0171050" lon="1.3018800">
        <ele>94.2</ele>
        <time>2020-02-22T10:02:59Z</time>
      </trkpt>
      <trkpt lat="39.0171190" lon="1.3018880">
        <ele>94.5</ele>
        <time>2020-02-22T10:03:00Z</time>
      </trkpt>
      <trkpt lat="39.0171340" lon="1.3018940">
        <ele>94.7</ele>
        <time>2020-02-22T10:03:01Z</time>
      </trkpt>
      <trkpt lat="39.0171510" lon="1.3019080">
        <ele>95.0</ele>
        <time>2020-02-22T10:03:02Z</time>
      </trkpt>
      <trkpt lat="39.0171690" lon="1.3019110">
        <ele>95.3</ele>
        <time>2020-02-22T10:03:03Z</time>
      </trkpt>
      <trkpt lat="39.0171790" lon="1.3019180">
        <ele>95.5</ele>
        <time>2020-02-22T10:03:04Z</time>
      </trkpt>
      <trkpt lat="39.0171940" lon="1.3019280">
        <ele>95.8</ele>
        <time>2020-02-22T10:03:05Z</time>
      </trkpt>
      <trkpt lat="39.0172130" lon="1.3019320">
        <ele>96.0</ele>
        <time>2020-02-22T10:03:06Z</time>
      </trkpt>
      <trkpt lat="39.0172370" lon="1.3019270">
        <ele>96.3</ele>
        <time>2020-02-22T10:03:07Z</time>
      </trkpt>
      <trkpt lat="39.0172510" lon="1.3019280">
        <ele>96.5</ele>
        <time>2020-02-22T10:03:08Z</time>
      </trkpt>
      <trkpt lat="39.0172660" lon="1.3019280">
        <ele>96.7</ele>
        <time>2020-02-22T10:03:09Z</time>
      </trkpt>
      <trkpt lat="39.0172860" lon="1.3019180">
        <ele>97.0</ele>
        <time>2020-02-22T10:03:10Z</time>
      </trkpt>
      <trkpt lat="39.0172940" lon="1.3019140">
        <ele>97.1</ele>
        <time>2020-02-22T10:03:11Z</time>
      </trkpt>
      <trkpt lat="39.0173020" lon="1.3019110">
        <ele>97.2</ele>
        <time>2020-02-22T10:03:12Z</time>
      </trkpt>
      <trkpt lat="39.0173150" lon="1.3019090">
        <ele>97.3</ele>
        <time>2020-02-22T10:03:13Z</time>
      </trkpt>
      <trkpt lat="39.0173360" lon="1.3019070">
        <ele>97.6</ele>
        <time>2020-02-22T10:03:14Z</time>
      </trkpt>
      <trkpt lat="39.0173530" lon="1.3019010">
        <ele>97.9</ele>
        <time>2020-02-22T10:03:15Z</time>
      </trkpt>
      <trkpt lat="39.0173700" lon="1.3018960">
        <ele>98.1</ele>
        <time>2020-02-22T10:03:16Z</time>
      </trkpt>
      <trkpt lat="39.0173830" lon="1.3018920">
        <ele>98.3</ele>
        <time>2020-02-22T10:03:17Z</time>
      </trkpt>
      <trkpt lat="39.0174030" lon="1.3018840">
        <ele>98.6</ele>
        <time>2020-02-22T10:03:18Z</time>
      </trkpt>
      <trkpt lat="39.0174380" lon="1.3018780">
        <ele>99.1</ele>
        <time>2020-02-22T10:03:19Z</time>
      </trkpt>
      <trkpt lat="39.0174480" lon="1.3018750">
        <ele>99.3</ele>
        <time>2020-02-22T10:03:20Z</time>
      </trkpt>
      <trkpt lat="39.0174620" lon="1.3018730">
        <ele>99.5</ele>
        <time>2020-02-22T10:03:21Z</time>
      </trkpt>
      <trkpt lat="39.0174820" lon="1.3018690">
        <ele>99.8</ele>
        <time>2020-02-22T10:03:22Z</time>
      </trkpt>
      <trkpt lat="39.0175190" lon="1.3018580">
        <ele>100.2</ele>
        <time>2020-02-22T10:03:23Z</time>
      </trkpt>
      <trkpt lat="39.0175310" lon="1.3018550">
        <ele>100.4</ele>
        <time>2020-02-22T10:03:24Z</time>
      </trkpt>
      <trkpt lat="39.0175620" lon="1.3018420">
        <ele>100.7</ele>
        <time>2020-02-22T10:03:25Z</time>
      </trkpt>
      <trkpt lat="39.0175730" lon="1.3018370">
        <ele>100.8</ele>
        <time>2020-02-22T10:03:26Z</time>
      </trkpt>
      <trkpt lat="39.0175980" lon="1.3018320">
        <ele>101.1</ele>
        <time>2020-02-22T10:03:27Z</time>
      </trkpt>
      <trkpt lat="39.0176120" lon="1.3018330">
        <ele>101.2</ele>
        <time>2020-02-22T10:03:28Z</time>
      </trkpt>
      <trkpt lat="39.0176480" lon="1.3018330">
        <ele>101.5</ele>
        <time>2020-02-22T10:03:29Z</time>
      </trkpt>
      <trkpt lat="39.0176620" lon="1.3018320">
        <ele>101.6</ele>
        <time>2020-02-22T10:03:30Z</time>
      </trkpt>
      <trkpt lat="39.0176930" lon="1.3018320">
        <ele>101.9</ele>
        <time>2020-02-22T10:03:31Z</time>
      </trkpt>
      <trkpt lat="39.0177050" lon="1.3018280">
        <ele>102.0</ele>
        <time>2020-02-22T10:03:32Z</time>
      </trkpt>
      <trkpt lat="39.0177260" lon="1.3018160">
        <ele>102.2</ele>
        <time>2020-02-22T10:03:33Z</time>
      </trkpt>
      <trkpt lat="39.0177370" lon="1.3018090">
        <ele>102.3</ele>
        <time>2020-02-22T10:03:34Z</time>
      </trkpt>
      <trkpt lat="39.0177710" lon="1.3017960">
        <ele>102.5</ele>
        <time>2020-02-22T10:03:35Z</time>
      </trkpt>
      <trkpt lat="39.0177840" lon="1.3017880">
        <ele>102.6</ele>
        <time>2020-02-22T10:03:36Z</time>
      </trkpt>
      <trkpt lat="39.0178100" lon="1.3017680">
        <ele>102.8</ele>
        <time>2020-02-22T10:03:37Z</time>
      </trkpt>
      <trkpt lat="39.0178200" lon="1.3017600">
        <ele>102.9</ele>
        <time>2020-02-22T10:03:38Z</time>
      </trkpt>
      <trkpt lat="39.0178330" lon="1.3017510">
        <ele>103.0</ele>
        <time>2020-02-22T10:03:39Z</time>
      </trkpt>
      <trkpt lat="39.0178530" lon="1.3017410">
        <ele>103.2</ele>
        <time>2020-02-22T10:03:40Z</time>
      </trkpt>
      <trkpt lat="39.0178770" lon="1.3017200">
        <ele>103.4</ele>
        <time>2020-02-22T10:03:41Z</time>
      </trkpt>
      <trkpt lat="39.0178850" lon="1.3017120">
        <ele>103.4</ele>
        <time>2020-02-22T10:03:42Z</time>
      </trkpt>
      <trkpt lat="39.0179090" lon="1.3016880">
        <ele>103.6</ele>
        <time>2020-02-22T10:03:43Z</time>
      </trkpt>
      <trkpt lat="39.0179170" lon="1.3016810">
        <ele>103.7</ele>
        <time>2020-02-22T10:03:44Z</time>
      </trkpt>
      <trkpt lat="39.0179390" lon="1.3016590">
        <ele>103.8</ele>
        <time>2020-02-22T10:03:45Z</time>
      </trkpt>
      <trkpt lat="39.0179600" lon="1.3016350">
        <ele>104.0</ele>
        <time>2020-02-22T10:03:46Z</time>
      </trkpt>
      <trkpt lat="39.0179850" lon="1.3016070">
        <ele>104.2</ele>
        <time>2020-02-22T10:03:47Z</time>
      </trkpt>
      <trkpt lat="39.0179920" lon="1.3016000">
        <ele>104.2</ele>
        <time>2020-02-22T10:03:48Z</time>
      </trkpt>
      <trkpt lat="39.0180130" lon="1.3015770">
        <ele>104.4</ele>
        <time>2020-02-22T10:03:49Z</time>
      </trkpt>
      <trkpt lat="39.0180380" lon="1.3015480">
        <ele>104.6</ele>
        <time>2020-02-22T10:03:50Z</time>
      </trkpt>
      <trkpt lat="39.0180480" lon="1.3015360">
        <ele>104.6</ele>
        <time>2020-02-22T10:03:51Z</time>
      </trkpt>
      <trkpt lat="39.0180770" lon="1.3015050">
        <ele>104.8</ele>
        <time>2020-02-22T10:03:52Z</time>
      </trkpt>
      <trkpt lat="39.0180870" lon="1.3014940">
        <ele>104.9</ele>
        <time>2020-02-22T10:03:53Z</time>
      </trkpt>
      <trkpt lat="39.0181110" lon="1.3014730">
        <ele>105.1</ele>
        <time>2020-02-22T10:03:54Z</time>
      </trkpt>
      <trkpt lat="39.0181230" lon="1.3014640">
        <ele>105.1</ele>
        <time>2020-02-22T10:03:55Z</time>
      </trkpt>
      <trkpt lat="39.0181450" lon="1.3014570">
        <ele>105.2</ele>
        <time>2020-02-22T10:03:56Z</time>
      </trkpt>
      <trkpt lat="39.0181580" lon="1.3014590">
        <ele>105.3</ele>
        <time>2020-02-22T10:03:57Z</time>
      </trkpt>
      <trkpt lat="39.0181720" lon="1.3014610">
        <ele>105.3</ele>
        <time>2020-02-22T10:03:58Z</time>
      </trkpt>
      <trkpt lat="39.0181990" lon="1.3014730">
        <ele>105.5</ele>
        <time>2020-02-22T10:03:59Z</time>
      </trkpt>
      <trkpt lat="39.0182280" lon="1.3014900">
        <ele>105.6</ele>
        <time>2020-02-22T10:04:00Z</time>
      </trkpt>
      <trkpt lat="39.0182360" lon="1.3014980">
        <ele>105.6</ele>
        <time>2020-02-22T10:04:01Z</time>
      </trkpt>
      <trkpt lat="39.0182620" lon="1.3015380">
        <ele>105.8</ele>
        <time>2020-02-22T10:04:02Z</time>
      </trkpt>
      <trkpt lat="39.0182720" lon="1.3015580">
        <ele>105.9</ele>
        <time>2020-02-22T10:04:03Z</time>
      </trkpt>
      <trkpt lat="39.0182820" lon="1.3015970">
        <ele>106.0</ele>
        <time>2020-02-22T10:04:04Z</time>
      </trkpt>
      <trkpt lat="39.0182930" lon="1.3016500">
        <ele>106.3</ele>
        <time>2020-02-22T10:04:05Z</time>
      </trkpt>
      <trkpt lat="39.0182950" lon="1.3016700">
        <ele>106.3</ele>
        <time>2020-02-22T10:04:06Z</time>
      </trkpt>
      <trkpt lat="39.0183090" lon="1.3017100">
        <ele>106.5</ele>
        <time>2020-02-22T10:04:07Z</time>
      </trkpt>
      <trkpt lat="39.0183130" lon="1.3017240">
        <ele>106.6</ele>
        <time>2020-02-22T10:04:08Z</time>
      </trkpt>
      <trkpt lat="39.0183270" lon="1.3017580">
        <ele>106.8</ele>
        <time>2020-02-22T10:04:09Z</time>
      </trkpt>
      <trkpt lat="39.0183330" lon="1.3017690">
        <ele>106.9</ele>
        <time>2020-02-22T10:04:10Z</time>
      </trkpt>
      <trkpt lat="39.0183580" lon="1.3017990">
        <ele>107.1</ele>
        <time>2020-02-22T10:04:11Z</time>
      </trkpt>
      <trkpt lat="39.0183650" lon="1.3018090">
        <ele>107.2</ele>
        <time>2020-02-22T10:04:12Z</time>
      </trkpt>
      <trkpt lat="39.0183940" lon="1.3018400">
        <ele>107.6</ele>
        <time>2020-02-22T10:04:13Z</time>
      </trkpt>
      <trkpt lat="39.0184050" lon="1.3018500">
        <ele>107.8</ele>
        <time>2020-02-22T10:04:14Z</time>
      </trkpt>
      <trkpt lat="39.0184270" lon="1.3018750">
        <ele>108.1</ele>
        <time>2020-02-22T10:04:15Z</time>
      </trkpt>
      <trkpt lat="39.0184510" lon="1.3018930">
        <ele>108.4</ele>
        <time>2020-02-22T10:04:16Z</time>
      </trkpt>
      <trkpt lat="39.0184780" lon="1.3019120">
        <ele>108.7</ele>
        <time>2020-02-22T10:04:17Z</time>
      </trkpt>
      <trkpt lat="39.0184860" lon="1.3019190">
        <ele>108.8</ele>
        <time>2020-02-22T10:04:18Z</time>
      </trkpt>
      <trkpt lat="39.0185130" lon="1.3019370">
        <ele>109.1</ele>
        <time>2020-02-22T10:04:19Z</time>
      </trkpt>
      <trkpt lat="39.0185480" lon="1.3019550">
        <ele>109.4</ele>
        <time>2020-02-22T10:04:20Z</time>
      </trkpt>
      <trkpt lat="39.0185600" lon="1.3019630">
        <ele>109.5</ele>
        <time>2020-02-22T10:04:21Z</time>
      </trkpt>
      <trkpt lat="39.0185740" lon="1.3019710">
        <ele>109.6</ele>
        <time>2020-02-22T10:04:22Z</time>
      </trkpt>
      <trkpt lat="39.0185890" lon="1.3019800">
        <ele>109.8</ele>
        <time>2020-02-22T10:04:23Z</time>
      </trkpt>
      <trkpt lat="39.0186190" lon="1.3020000">
        <ele>110.1</ele>
        <time>2020-02-22T10:04:24Z</time>
      </trkpt>
      <trkpt lat="39.0186310" lon="1.3020070">
        <ele>110.2</ele>
        <time>2020-02-22T10:04:25Z</time>
      </trkpt>
      <trkpt lat="39.0186600" lon="1.3020190">
        <ele>110.4</ele>
        <time>2020-02-22T10:04:26Z</time>
      </trkpt>
      <trkpt lat="39.0186690" lon="1.3020220">
        <ele>110.5</ele>
        <time>2020-02-22T10:04:27Z</time>
      </trkpt>
      <trkpt lat="39.0186860" lon="1.3020280">
        <ele>110.7</ele>
        <time>2020-02-22T10:04:28Z</time>
      </trkpt>
      <trkpt lat="39.0187010" lon="1.3020410">
        <ele>110.8</ele>
        <time>2020-02-22T10:04:29Z</time>
      </trkpt>
      <trkpt lat="39.0187280" lon="1.3020590">
        <ele>111.1</ele>
        <time>2020-02-22T10:04:30Z</time>
      </trkpt>
      <trkpt lat="39.0187360" lon="1.3020650">
        <ele>111.1</ele>
        <time>2020-02-22T10:04:31Z</time>
      </trkpt>
      <trkpt lat="39.0187530" lon="1.3020760">
        <ele>111.4</ele>
        <time>2020-02-22T10:04:32Z</time>
      </trkpt>
      <trkpt lat="39.0187670" lon="1.3020860">
        <ele>111.6</ele>
        <time>2020-02-22T10:04:33Z</time>
      </trkpt>
      <trkpt lat="39.0187920" lon="1.3021060">
        <ele>111.9</ele>
        <time>2020-02-22T10:04:34Z</time>
      </trkpt>
      <trkpt lat="39.0187990" lon="1.3021120">
        <ele>112.0</ele>
        <time>2020-02-22T10:04:35Z</time>
      </trkpt>
      <trkpt lat="39.0188160" lon="1.3021220">
        <ele>112.3</ele>
        <time>2020-02-22T10:04:36Z</time>
      </trkpt>
      <trkpt lat="39.0188290" lon="1.3021280">
        <ele>112.4</ele>
        <time>2020-02-22T10:04:37Z</time>
      </trkpt>
      <trkpt lat="39.0188550" lon="1.3021410">
        <ele>112.8</ele>
        <time>2020-02-22T10:04:38Z</time>
      </trkpt>
      <trkpt lat="39.0188660" lon="1.3021460">
        <ele>113.0</ele>
        <time>2020-02-22T10:04:39Z</time>
      </trkpt>
      <trkpt lat="39.0188920" lon="1.3021560">
        <ele>113.4</ele>
        <time>2020-02-22T10:04:40Z</time>
      </trkpt>
      <trkpt lat="39.0189000" lon="1.3021600">
        <ele>113.5</ele>
        <time>2020-02-22T10:04:41Z</time>
      </trkpt>
      <trkpt lat="39.0189270" lon="1.3021670">
        <ele>113.9</ele>
        <time>2020-02-22T10:04:42Z</time>
      </trkpt>
      <trkpt lat="39.0189370" lon="1.3021690">
        <ele>114.0</ele>
        <time>2020-02-22T10:04:43Z</time>
      </trkpt>
      <trkpt lat="39.0189720" lon="1.3021750">
        <ele>114.5</ele>
        <time>2020-02-22T10:04:44Z</time>
      </trkpt>
      <trkpt lat="39.0189840" lon="1.3021760">
        <ele>114.7</ele>
        <time>2020-02-22T10:04:45Z</time>
      </trkpt>
      <trkpt lat="39.0190040" lon="1.3021840">
        <ele>115.0</ele>
        <time>2020-02-22T10:04:46Z</time>
      </trkpt>
      <trkpt lat="39.0190190" lon="1.3021900">
        <ele>115.2</ele>
        <time>2020-02-22T10:04:47Z</time>
      </trkpt>
      <trkpt lat="39.0190310" lon="1.3021970">
        <ele>115.4</ele>
        <time>2020-02-22T10:04:48Z</time>
      </trkpt>
      <trkpt lat="39.0190500" lon="1.3022040">
        <ele>115.7</ele>
        <time>2020-02-22T10:04:49Z</time>
      </trkpt>
      <trkpt lat="39.0190660" lon="1.3022110">
        <ele>116.0</ele>
        <time>2020-02-22T10:04:50Z</time>
      </trkpt>
      <trkpt lat="39.0190820" lon="1.3022190">
        <ele>116.3</ele>
        <time>2020-02-22T10:04:51Z</time>
      </trkpt>
      <trkpt lat="39.0191100" lon="1.3022330">
        <ele>116.7</ele>
        <time>2020-02-22T10:04:52Z</time>
      </trkpt>
      <trkpt lat="39.0191200" lon="1.3022400">
        <ele>116.9</ele>
        <time>2020-02-22T10:04:53Z</time>
      </trkpt>
      <trkpt lat="39.0191420" lon="1.3022530">
        <ele>117.2</ele>
        <time>2020-02-22T10:04:54Z</time>
      </trkpt>
      <trkpt lat="39.0191500" lon="1.3022570">
        <ele>117.3</ele>
        <time>2020-02-22T10:04:55Z</time>
      </trkpt>
      <trkpt lat="39.0191580" lon="1.3022610">
        <ele>117.4</ele>
        <time>2020-02-22T10:04:56Z</time>
      </trkpt>
      <trkpt lat="39.0191730" lon="1.3022640">
        <ele>117.6</ele>
        <time>2020-02-22T10:04:57Z</time>
      </trkpt>
      <trkpt lat="39.0191870" lon="1.3022700">
        <ele>117.8</ele>
        <time>2020-02-22T10:04:58Z</time>
      </trkpt>
      <trkpt lat="39.0192060" lon="1.3022700">
        <ele>118.1</ele>
        <time>2020-02-22T10:04:59Z</time>
      </trkpt>
      <trkpt lat="39.0192220" lon="1.3022700">
        <ele>118.3</ele>
        <time>2020-02-22T10:05:00Z</time>
      </trkpt>
      <trkpt lat="39.0192440" lon="1.3022760">
        <ele>118.6</ele>
        <time>2020-02-22T10:05:01Z</time>
      </trkpt>
      <trkpt lat="39.0192540" lon="1.3022760">
        <ele>118.7</ele>
        <time>2020-02-22T10:05:02Z</time>
      </trkpt>
      <trkpt lat="39.0192830" lon="1.3022730">
        <ele>119.0</ele>
        <time>2020-02-22T10:05:03Z</time>
      </trkpt>
      <trkpt lat="39.0192970" lon="1.3022690">
        <ele>119.1</ele>
        <time>2020-02-22T10:05:04Z</time>
      </trkpt>
      <trkpt lat="39.0193220" lon="1.3022610">
        <ele>119.4</ele>
        <time>2020-02-22T10:05:05Z</time>
      </trkpt>
      <trkpt lat="39.0193310" lon="1.3022590">
        <ele>119.5</ele>
        <time>2020-02-22T10:05:06Z</time>
      </trkpt>
      <trkpt lat="39.0193400" lon="1.3022570">
        <ele>119.6</ele>
        <time>2020-02-22T10:05:07Z</time>
      </trkpt>
      <trkpt lat="39.0193610" lon="1.3022520">
        <ele>119.8</ele>
        <time>2020-02-22T10:05:08Z</time>
      </trkpt>
      <trkpt lat="39.0193750" lon="1.3022480">
        <ele>119.9</ele>
        <time>2020-02-22T10:05:09Z</time>
      </trkpt>
      <trkpt lat="39.0193890" lon="1.3022480">
        <ele>120.1</ele>
        <time>2020-02-22T10:05:10Z</time>
      </trkpt>
      <trkpt lat="39.0194050" lon="1.3022510">
        <ele>120.2</ele>
        <time>2020-02-22T10:05:11Z</time>
      </trkpt>
      <trkpt lat="39.0194320" lon="1.3022560">
        <ele>120.5</ele>
        <time>2020-02-22T10:05:12Z</time>
      </trkpt>
      <trkpt lat="39.0194630" lon="1.3022590">
        <ele>120.9</ele>
        <time>2020-02-22T10:05:13Z</time>
      </trkpt>
      <trkpt lat="39.0194730" lon="1.3022600">
        <ele>121.0</ele>
        <time>2020-02-22T10:05:14Z</time>
      </trkpt>
      <trkpt lat="39.0195060" lon="1.3022660">
        <ele>121.3</ele>
        <time>2020-02-22T10:05:15Z</time>
      </trkpt>
      <trkpt lat="39.0195160" lon="1.3022680">
        <ele>121.5</ele>
        <time>2020-02-22T10:05:16Z</time>
      </trkpt>
      <trkpt lat="39.0195450" lon="1.3022670">
        <ele>121.8</ele>
        <time>2020-02-22T10:05:17Z</time>
      </trkpt>
      <trkpt lat="39.0195530" lon="1.3022670">
        <ele>121.9</ele>
        <time>2020-02-22T10:05:18Z</time>
      </trkpt>
      <trkpt lat="39.0195710" lon="1.3022650">
        <ele>122.1</ele>
        <time>2020-02-22T10:05:19Z</time>
      </trkpt>
      <trkpt lat="39.0195890" lon="1.3022610">
        <ele>122.3</ele>
        <time>2020-02-22T10:05:20Z</time>
      </trkpt>
      <trkpt lat="39.0196230" lon="1.3022510">
        <ele>122.6</ele>
        <time>2020-02-22T10:05:21Z</time>
      </trkpt>
      <trkpt lat="39.0196340" lon="1.3022470">
        <ele>122.7</ele>
        <time>2020-02-22T10:05:22Z</time>
      </trkpt>
      <trkpt lat="39.0196630" lon="1.3022360">
        <ele>122.9</ele>
        <time>2020-02-22T10:05:23Z</time>
      </trkpt>
      <trkpt lat="39.0196700" lon="1.3022320">
        <ele>123.0</ele>
        <time>2020-02-22T10:05:24Z</time>
      </trkpt>
      <trkpt lat="39.0196820" lon="1.3022340">
        <ele>123.1</ele>
        <time>2020-02-22T10:05:25Z</time>
      </trkpt>
      <trkpt lat="39.0197020" lon="1.3022310">
        <ele>123.2</ele>
        <time>2020-02-22T10:05:26Z</time>
      </trkpt>
      <trkpt lat="39.0197300" lon="1.3022160">
        <ele>123.5</ele>
        <time>2020-02-22T10:05:27Z</time>
      </trkpt>
      <trkpt lat="39.0197380" lon="1.3022120">
        <ele>123.5</ele>
        <time>2020-02-22T10:05:28Z</time>
      </trkpt>
      <trkpt lat="39.0197630" lon="1.3021910">
        <ele>123.7</ele>
        <time>2020-02-22T10:05:29Z</time>
      </trkpt>
      <trkpt lat="39.0197690" lon="1.3021850">
        <ele>123.8</ele>
        <time>2020-02-22T10:05:30Z</time>
      </trkpt>
      <trkpt lat="39.0197970" lon="1.3021700">
        <ele>123.9</ele>
        <time>2020-02-22T10:05:31Z</time>
      </trkpt>
      <trkpt lat="39.0198040" lon="1.3021660">
        <ele>124.0</ele>
        <time>2020-02-22T10:05:32Z</time>
      </trkpt>
      <trkpt lat="39.0198190" lon="1.3021580">
        <ele>124.1</ele>
        <time>2020-02-22T10:05:33Z</time>
      </trkpt>
      <trkpt lat="39.0198330" lon="1.3021470">
        <ele>124.2</ele>
        <time>2020-02-22T10:05:34Z</time>
      </trkpt>
      <trkpt lat="39.0198390" lon="1.3021340">
        <ele>124.2</ele>
        <time>2020-02-22T10:05:35Z</time>
      </trkpt>
      <trkpt lat="39.0198520" lon="1.3021270">
        <ele>124.3</ele>
        <time>2020-02-22T10:05:36Z</time>
      </trkpt>
      <trkpt lat="39.0198650" lon="1.3021260">
        <ele>124.3</ele>
        <time>2020-02-22T10:05:37Z</time>
      </trkpt>
      <trkpt lat="39.0198770" lon="1.3021240">
        <ele>124.4</ele>
        <time>2020-02-22T10:05:38Z</time>
      </trkpt>
      <trkpt lat="39.0198950" lon="1.3021190">
        <ele>124.5</ele>
        <time>2020-02-22T10:05:39Z</time>
      </trkpt>
      <trkpt lat="39.0199210" lon="1.3021000">
        <ele>124.5</ele>
        <time>2020-02-22T10:05:40Z</time>
      </trkpt>
      <trkpt lat="39.0199290" lon="1.3020960">
        <ele>124.6</ele>
        <time>2020-02-22T10:05:41Z</time>
      </trkpt>
      <trkpt lat="39.0199610" lon="1.3020770">
        <ele>124.6</ele>
        <time>2020-02-22T10:05:42Z</time>
      </trkpt>
      <trkpt lat="39.0199710" lon="1.3020690">
        <ele>124.6</ele>
        <time>2020-02-22T10:05:43Z</time>
      </trkpt>
      <trkpt lat="39.0199970" lon="1.3020560">
        <ele>124.7</ele>
        <time>2020-02-22T10:05:44Z</time>
      </trkpt>
      <trkpt lat="39.0200440" lon="1.3020510">
        <ele>124.7</ele>
        <time>2020-02-22T10:05:45Z</time>
      </trkpt>
      <trkpt lat="39.0200840" lon="1.3020450">
        <ele>124.7</ele>
        <time>2020-02-22T10:05:46Z</time>
      </trkpt>
      <trkpt lat="39.0201110" lon="1.3020290">
        <ele>124.7</ele>
        <time>2020-02-22T10:05:47Z</time>
      </trkpt>
      <trkpt lat="39.0201400" lon="1.3020090">
        <ele>124.7</ele>
        <time>2020-02-22T10:05:48Z</time>
      </trkpt>
      <trkpt lat="39.0201780" lon="1.3019850">
        <ele>124.7</ele>
        <time>2020-02-22T10:05:49Z</time>
      </trkpt>
      <trkpt lat="39.0202070" lon="1.3019700">
        <ele>124.7</ele>
        <time>2020-02-22T10:05:50Z</time>
      </trkpt>
      <trkpt lat="39.0202440" lon="1.3019620">
        <ele>124.6</ele>
        <time>2020-02-22T10:05:51Z</time>
      </trkpt>
      <trkpt lat="39.0202720" lon="1.3019480">
        <ele>124.6</ele>
        <time>2020-02-22T10:05:52Z</time>
      </trkpt>
      <trkpt lat="39.0203010" lon="1.3019250">
        <ele>124.5</ele>
        <time>2020-02-22T10:05:53Z</time>
      </trkpt>
      <trkpt lat="39.0203350" lon="1.3019120">
        <ele>124.5</ele>
        <time>2020-02-22T10:05:54Z</time>
      </trkpt>
      <trkpt lat="39.0203760" lon="1.3019010">
        <ele>124.4</ele>
        <time>2020-02-22T10:05:55Z</time>
      </trkpt>
      <trkpt lat="39.0204250" lon="1.3018540">
        <ele>124.1</ele>
        <time>2020-02-22T10:05:56Z</time>
      </trkpt>
      <trkpt lat="39.0204630" lon="1.3018280">
        <ele>124.0</ele>
        <time>2020-02-22T10:05:57Z</time>
      </trkpt>
      <trkpt lat="39.0205060" lon="1.3018110">
        <ele>123.8</ele>
        <time>2020-02-22T10:05:58Z</time>
      </trkpt>
      <trkpt lat="39.0205460" lon="1.3018010">
        <ele>123.7</ele>
        <time>2020-02-22T10:05:59Z</time>
      </trkpt>
      <trkpt lat="39.0205900" lon="1.3017740">
        <ele>123.4</ele>
        <time>2020-02-22T10:06:00Z</time>
      </trkpt>
      <trkpt lat="39.0206370" lon="1.3017400">
        <ele>123.2</ele>
        <time>2020-02-22T10:06:01Z</time>
      </trkpt>
      <trkpt lat="39.0206810" lon="1.3017090">
        <ele>122.9</ele>
        <time>2020-02-22T10:06:02Z</time>
      </trkpt>
      <trkpt lat="39.0207180" lon="1.3016860">
        <ele>122.6</ele>
        <time>2020-02-22T10:06:03Z</time>
      </trkpt>
      <trkpt lat="39.0207530" lon="1.3016630">
        <ele>122.3</ele>
        <time>2020-02-22T10:06:04Z</time>
      </trkpt>
      <trkpt lat="39.0207850" lon="1.3016440">
        <ele>122.0</ele>
        <time>2020-02-22T10:06:05Z</time>
      </trkpt>
      <trkpt lat="39.0208120" lon="1.3016290">
        <ele>121.9</ele>
        <time>2020-02-22T10:06:06Z</time>
      </trkpt>
      <trkpt lat="39.0208300" lon="1.3016030">
        <ele>121.7</ele>
        <time>2020-02-22T10:06:07Z</time>
      </trkpt>
      <trkpt lat="39.0208560" lon="1.3015550">
        <ele>121.3</ele>
        <time>2020-02-22T10:06:08Z</time>
      </trkpt>
      <trkpt lat="39.0208890" lon="1.3015030">
        <ele>120.8</ele>
        <time>2020-02-22T10:06:09Z</time>
      </trkpt>
      <trkpt lat="39.0209190" lon="1.3014590">
        <ele>120.4</ele>
        <time>2020-02-22T10:06:10Z</time>
      </trkpt>
      <trkpt lat="39.0209470" lon="1.3014100">
        <ele>120.0</ele>
        <time>2020-02-22T10:06:11Z</time>
      </trkpt>
      <trkpt lat="39.0209740" lon="1.3013600">
        <ele>119.6</ele>
        <time>2020-02-22T10:06:12Z</time>
      </trkpt>
      <trkpt lat="39.0210000" lon="1.3013120">
        <ele>119.2</ele>
        <time>2020-02-22T10:06:13Z</time>
      </trkpt>
      <trkpt lat="39.0210330" lon="1.3012500">
        <ele>118.7</ele>
        <time>2020-02-22T10:06:14Z</time>
      </trkpt>
      <trkpt lat="39.0210570" lon="1.3012030">
        <ele>118.3</ele>
        <time>2020-02-22T10:06:15Z</time>
      </trkpt>
      <trkpt lat="39.0210790" lon="1.3011500">
        <ele>117.8</ele>
        <time>2020-02-22T10:06:16Z</time>
      </trkpt>
      <trkpt lat="39.0210960" lon="1.3010980">
        <ele>117.4</ele>
        <time>2020-02-22T10:06:17Z</time>
      </trkpt>
      <trkpt lat="39.0211060" lon="1.3010490">
        <ele>117.1</ele>
        <time>2020-02-22T10:06:18Z</time>
      </trkpt>
      <trkpt lat="39.0211080" lon="1.3010280">
        <ele>116.9</ele>
        <time>2020-02-22T10:06:19Z</time>
      </trkpt>
      <trkpt lat="39.0211230" lon="1.3009860">
        <ele>116.6</ele>
        <time>2020-02-22T10:06:20Z</time>
      </trkpt>
      <trkpt lat="39.0211280" lon="1.3009380">
        <ele>116.2</ele>
        <time>2020-02-22T10:06:21Z</time>
      </trkpt>
      <trkpt lat="39.0211320" lon="1.3008910">
        <ele>115.9</ele>
        <time>2020-02-22T10:06:22Z</time>
      </trkpt>
      <trkpt lat="39.0211310" lon="1.3008330">
        <ele>115.4</ele>
        <time>2020-02-22T10:06:23Z</time>
      </trkpt>
      <trkpt lat="39.0211360" lon="1.3007790">
        <ele>115.0</ele>
        <time>2020-02-22T10:06:24Z</time>
      </trkpt>
      <trkpt lat="39.0211440" lon="1.3007420">
        <ele>114.7</ele>
        <time>2020-02-22T10:06:25Z</time>
      </trkpt>
      <trkpt lat="39.0211430" lon="1.3006800">
        <ele>114.3</ele>
        <time>2020-02-22T10:06:26Z</time>
      </trkpt>
      <trkpt lat="39.0211500" lon="1.3006170">
        <ele>113.8</ele>
        <time>2020-02-22T10:06:27Z</time>
      </trkpt>
      <trkpt lat="39.0211580" lon="1.3005510">
        <ele>113.3</ele>
        <time>2020-02-22T10:06:28Z</time>
      </trkpt>
      <trkpt lat="39.0211660" lon="1.3004900">
        <ele>112.9</ele>
        <time>2020-02-22T10:06:29Z</time>
      </trkpt>
      <trkpt lat="39.0211750" lon="1.3004260">
        <ele>112.4</ele>
        <time>2020-02-22T10:06:30Z</time>
      </trkpt>
      <trkpt lat="39.0211770" lon="1.3003520">
        <ele>111.7</ele>
        <time>2020-02-22T10:06:31Z</time>
      </trkpt>
      <trkpt lat="39.0211770" lon="1.3002840">
        <ele>111.3</ele>
        <time>2020-02-22T10:06:32Z</time>
      </trkpt>
      <trkpt lat="39.0211700" lon="1.3002060">
        <ele>110.8</ele>
        <time>2020-02-22T10:06:33Z</time>
      </trkpt>
      <trkpt lat="39.0211790" lon="1.3001300">
        <ele>110.3</ele>
        <time>2020-02-22T10:06:34Z</time>
      </trkpt>
      <trkpt lat="39.0211890" lon="1.3000550">
        <ele>109.7</ele>
        <time>2020-02-22T10:06:35Z</time>
      </trkpt>
      <trkpt lat="39.0212010" lon="1.2999680">
        <ele>109.1</ele>
        <time>2020-02-22T10:06:36Z</time>
      </trkpt>
      <trkpt lat="39.0212050" lon="1.2998860">
        <ele>108.5</ele>
        <time>2020-02-22T10:06:37Z</time>
      </trkpt>
      <trkpt lat="39.0212080" lon="1.2998150">
        <ele>108.1</ele>
        <time>2020-02-22T10:06:38Z</time>
      </trkpt>
      <trkpt lat="39.0212110" lon="1.2997490">
        <ele>107.7</ele>
        <time>2020-02-22T10:06:39Z</time>
      </trkpt>
      <trkpt lat="39.0212100" lon="1.2996740">
        <ele>107.3</ele>
        <time>2020-02-22T10:06:40Z</time>
      </trkpt>
      <trkpt lat="39.0212090" lon="1.2996070">
        <ele>107.0</ele>
        <time>2020-02-22T10:06:41Z</time>
      </trkpt>
      <trkpt lat="39.0212030" lon="1.2995310">
        <ele>106.6</ele>
        <time>2020-02-22T10:06:42Z</time>
      </trkpt>
      <trkpt lat="39.0211980" lon="1.2994770">
        <ele>106.3</ele>
        <time>2020-02-22T10:06:43Z</time>
      </trkpt>
      <trkpt lat="39.0211860" lon="1.2994170">
        <ele>105.9</ele>
        <time>2020-02-22T10:06:44Z</time>
      </trkpt>
      <trkpt lat="39.0211690" lon="1.2993390">
        <ele>105.4</ele>
        <time>2020-02-22T10:06:45Z</time>
      </trkpt>
      <trkpt lat="39.0211580" lon="1.2992770">
        <ele>105.1</ele>
        <time>2020-02-22T10:06:46Z</time>
      </trkpt>
      <trkpt lat="39.0211310" lon="1.2992170">
        <ele>104.7</ele>
        <time>2020-02-22T10:06:47Z</time>
      </trkpt>
      <trkpt lat="39.0211050" lon="1.2991580">
        <ele>104.4</ele>
        <time>2020-02-22T10:06:48Z</time>
      </trkpt>
      <trkpt lat="39.0210880" lon="1.2991100">
        <ele>104.1</ele>
        <time>2020-02-22T10:06:49Z</time>
      </trkpt>
      <trkpt lat="39.0210660" lon="1.2990500">
        <ele>103.7</ele>
        <time>2020-02-22T10:06:50Z</time>
      </trkpt>
      <trkpt lat="39.0210600" lon="1.2989900">
        <ele>103.4</ele>
        <time>2020-02-22T10:06:51Z</time>
      </trkpt>
      <trkpt lat="39.0210700" lon="1.2989480">
        <ele>103.2</ele>
        <time>2020-02-22T10:06:52Z</time>
      </trkpt>
      <trkpt lat="39.0211000" lon="1.2989140">
        <ele>102.9</ele>
        <time>2020-02-22T10:06:53Z</time>
      </trkpt>
      <trkpt lat="39.0211260" lon="1.2988870">
        <ele>102.7</ele>
        <time>2020-02-22T10:06:54Z</time>
      </trkpt>
      <trkpt lat="39.0211860" lon="1.2988930">
        <ele>102.3</ele>
        <time>2020-02-22T10:06:55Z</time>
      </trkpt>
      <trkpt lat="39.0212380" lon="1.2989000">
        <ele>102.0</ele>
        <time>2020-02-22T10:06:56Z</time>
      </trkpt>
      <trkpt lat="39.0212820" lon="1.2989030">
        <ele>101.7</ele>
        <time>2020-02-22T10:06:57Z</time>
      </trkpt>
      <trkpt lat="39.0213360" lon="1.2989020">
        <ele>101.3</ele>
        <time>2020-02-22T10:06:58Z</time>
      </trkpt>
      <trkpt lat="39.0213860" lon="1.2988970">
        <ele>101.1</ele>
        <time>2020-02-22T10:06:59Z</time>
      </trkpt>
      <trkpt lat="39.0214210" lon="1.2988890">
        <ele>101.0</ele>
        <time>2020-02-22T10:07:00Z</time>
      </trkpt>
      <trkpt lat="39.0214530" lon="1.2988710">
        <ele>100.8</ele>
        <time>2020-02-22T10:07:01Z</time>
      </trkpt>
      <trkpt lat="39.0214800" lon="1.2988560">
        <ele>100.7</ele>
        <time>2020-02-22T10:07:02Z</time>
      </trkpt>
      <trkpt lat="39.0215200" lon="1.2988450">
        <ele>100.6</ele>
        <time>2020-02-22T10:07:03Z</time>
      </trkpt>
      <trkpt lat="39.0215630" lon="1.2988240">
        <ele>100.5</ele>
        <time>2020-02-22T10:07:04Z</time>
      </trkpt>
      <trkpt lat="39.0216090" lon="1.2988050">
        <ele>100.4</ele>
        <time>2020-02-22T10:07:05Z</time>
      </trkpt>
      <trkpt lat="39.0216580" lon="1.2987840">
        <ele>100.3</ele>
        <time>2020-02-22T10:07:06Z</time>
      </trkpt>
      <trkpt lat="39.0216940" lon="1.2987760">
        <ele>100.2</ele>
        <time>2020-02-22T10:07:07Z</time>
      </trkpt>
      <trkpt lat="39.0217300" lon="1.2987530">
        <ele>100.1</ele>
        <time>2020-02-22T10:07:08Z</time>
      </trkpt>
      <trkpt lat="39.0217690" lon="1.2987270">
        <ele>100.0</ele>
        <time>2020-02-22T10:07:09Z</time>
      </trkpt>
      <trkpt lat="39.0218090" lon="1.2987000">
        <ele>99.9</ele>
        <time>2020-02-22T10:07:10Z</time>
      </trkpt>
      <trkpt lat="39.0218580" lon="1.2986940">
        <ele>99.8</ele>
        <time>2020-02-22T10:07:11Z</time>
      </trkpt>
      <trkpt lat="39.0218990" lon="1.2986680">
        <ele>99.7</ele>
        <time>2020-02-22T10:07:12Z</time>
      </trkpt>
      <trkpt lat="39.0219270" lon="1.2986150">
        <ele>99.6</ele>
        <time>2020-02-22T10:07:13Z</time>
      </trkpt>
      <trkpt lat="39.0219490" lon="1.2985630">
        <ele>99.4</ele>
        <time>2020-02-22T10:07:14Z</time>
      </trkpt>
      <trkpt lat="39.0219520" lon="1.2984970">
        <ele>99.3</ele>
        <time>2020-02-22T10:07:15Z</time>
      </trkpt>
      <trkpt lat="39.0219440" lon="1.2984360">
        <ele>99.1</ele>
        <time>2020-02-22T10:07:16Z</time>
      </trkpt>
      <trkpt lat="39.0219260" lon="1.2983710">
        <ele>98.8</ele>
        <time>2020-02-22T10:07:17Z</time>
      </trkpt>
      <trkpt lat="39.0219130" lon="1.2983020">
        <ele>98.6</ele>
        <time>2020-02-22T10:07:18Z</time>
      </trkpt>
      <trkpt lat="39.0218950" lon="1.2982300">
        <ele>98.3</ele>
        <time>2020-02-22T10:07:19Z</time>
      </trkpt>
      <trkpt lat="39.0218740" lon="1.2981640">
        <ele>98.0</ele>
        <time>2020-02-22T10:07:20Z</time>
      </trkpt>
      <trkpt lat="39.0218520" lon="1.2981020">
        <ele>97.7</ele>
        <time>2020-02-22T10:07:21Z</time>
      </trkpt>
      <trkpt lat="39.0218250" lon="1.2980320">
        <ele>97.3</ele>
        <time>2020-02-22T10:07:22Z</time>
      </trkpt>
      <trkpt lat="39.0218050" lon="1.2979780">
        <ele>97.1</ele>
        <time>2020-02-22T10:07:23Z</time>
      </trkpt>
      <trkpt lat="39.0217790" lon="1.2979280">
        <ele>96.8</ele>
        <time>2020-02-22T10:07:24Z</time>
      </trkpt>
      <trkpt lat="39.0217520" lon="1.2978790">
        <ele>96.6</ele>
        <time>2020-02-22T10:07:25Z</time>
      </trkpt>
      <trkpt lat="39.0217230" lon="1.2978340">
        <ele>96.3</ele>
        <time>2020-02-22T10:07:26Z</time>
      </trkpt>
      <trkpt lat="39.0216970" lon="1.2977920">
        <ele>96.0</ele>
        <time>2020-02-22T10:07:27Z</time>
      </trkpt>
      <trkpt lat="39.0216660" lon="1.2977550">
        <ele>95.7</ele>
        <time>2020-02-22T10:07:28Z</time>
      </trkpt>
      <trkpt lat="39.0216490" lon="1.2977250">
        <ele>95.5</ele>
        <time>2020-02-22T10:07:29Z</time>
      </trkpt>
      <trkpt lat="39.0216430" lon="1.2977030">
        <ele>95.4</ele>
        <time>2020-02-22T10:07:30Z</time>
      </trkpt>
      <trkpt lat="39.0216440" lon="1.2976800">
        <ele>95.3</ele>
        <time>2020-02-22T10:07:31Z</time>
      </trkpt>
      <trkpt lat="39.0216820" lon="1.2976890">
        <ele>95.1</ele>
        <time>2020-02-22T10:07:32Z</time>
      </trkpt>
      <trkpt lat="39.0217170" lon="1.2977170">
        <ele>95.1</ele>
        <time>2020-02-22T10:07:33Z</time>
      </trkpt>
      <trkpt lat="39.0217520" lon="1.2977180">
        <ele>95.6</ele>
        <time>2020-02-22T10:07:34Z</time>
      </trkpt>
      <trkpt lat="39.0217800" lon="1.2977060">
        <ele>95.3</ele>
        <time>2020-02-22T10:07:35Z</time>
      </trkpt>
      <trkpt lat="39.0218190" lon="1.2976980">
        <ele>95.5</ele>
        <time>2020-02-22T10:07:36Z</time>
      </trkpt>
      <trkpt lat="39.0218340" lon="1.2976940">
        <ele>95.5</ele>
        <time>2020-02-22T10:07:37Z</time>
      </trkpt>
      <trkpt lat="39.0218640" lon="1.2977010">
        <ele>95.7</ele>
        <time>2020-02-22T10:07:38Z</time>
      </trkpt>
      <trkpt lat="39.0218970" lon="1.2977010">
        <ele>95.8</ele>
        <time>2020-02-22T10:07:39Z</time>
      </trkpt>
      <trkpt lat="39.0219300" lon="1.2977020">
        <ele>96.0</ele>
        <time>2020-02-22T10:07:40Z</time>
      </trkpt>
      <trkpt lat="39.0219680" lon="1.2977100">
        <ele>96.1</ele>
        <time>2020-02-22T10:07:41Z</time>
      </trkpt>
      <trkpt lat="39.0220180" lon="1.2976990">
        <ele>96.4</ele>
        <time>2020-02-22T10:07:42Z</time>
      </trkpt>
      <trkpt lat="39.0220470" lon="1.2976910">
        <ele>96.5</ele>
        <time>2020-02-22T10:07:43Z</time>
      </trkpt>
      <trkpt lat="39.0220870" lon="1.2976820">
        <ele>96.7</ele>
        <time>2020-02-22T10:07:44Z</time>
      </trkpt>
      <trkpt lat="39.0221010" lon="1.2976750">
        <ele>96.8</ele>
        <time>2020-02-22T10:07:45Z</time>
      </trkpt>
      <trkpt lat="39.0221290" lon="1.2976800">
        <ele>96.9</ele>
        <time>2020-02-22T10:07:46Z</time>
      </trkpt>
      <trkpt lat="39.0221590" lon="1.2976740">
        <ele>96.6</ele>
        <time>2020-02-22T10:07:47Z</time>
      </trkpt>
      <trkpt lat="39.0221870" lon="1.2976750">
        <ele>97.2</ele>
        <time>2020-02-22T10:07:48Z</time>
      </trkpt>
      <trkpt lat="39.0222180" lon="1.2976790">
        <ele>97.3</ele>
        <time>2020-02-22T10:07:49Z</time>
      </trkpt>
      <trkpt lat="39.0222510" lon="1.2976960">
        <ele>97.3</ele>
        <time>2020-02-22T10:07:50Z</time>
      </trkpt>
      <trkpt lat="39.0222610" lon="1.2977030">
        <ele>97.4</ele>
        <time>2020-02-22T10:07:51Z</time>
      </trkpt>
      <trkpt lat="39.0222830" lon="1.2977070">
        <ele>97.4</ele>
        <time>2020-02-22T10:07:52Z</time>
      </trkpt>
      <trkpt lat="39.0222920" lon="1.2977050">
        <ele>97.5</ele>
        <time>2020-02-22T10:07:53Z</time>
      </trkpt>
      <trkpt lat="39.0223000" lon="1.2977040">
        <ele>97.5</ele>
        <time>2020-02-22T10:07:54Z</time>
      </trkpt>
      <trkpt lat="39.0223360" lon="1.2976990">
        <ele>97.6</ele>
        <time>2020-02-22T10:07:55Z</time>
      </trkpt>
      <trkpt lat="39.0223470" lon="1.2976970">
        <ele>97.6</ele>
        <time>2020-02-22T10:07:56Z</time>
      </trkpt>
      <trkpt lat="39.0223800" lon="1.2976920">
        <ele>97.7</ele>
        <time>2020-02-22T10:07:57Z</time>
      </trkpt>
      <trkpt lat="39.0224120" lon="1.2976810">
        <ele>97.8</ele>
        <time>2020-02-22T10:07:58Z</time>
      </trkpt>
      <trkpt lat="39.0224210" lon="1.2976810">
        <ele>97.8</ele>
        <time>2020-02-22T10:07:59Z</time>
      </trkpt>
      <trkpt lat="39.0224490" lon="1.2976960">
        <ele>97.8</ele>
        <time>2020-02-22T10:08:00Z</time>
      </trkpt>
      <trkpt lat="39.0224570" lon="1.2977010">
        <ele>97.9</ele>
        <time>2020-02-22T10:08:01Z</time>
      </trkpt>
      <trkpt lat="39.0224860" lon="1.2976720">
        <ele>97.6</ele>
        <time>2020-02-22T10:08:02Z</time>
      </trkpt>
      <trkpt lat="39.0224950" lon="1.2976570">
        <ele>97.6</ele>
        <time>2020-02-22T10:08:03Z</time>
      </trkpt>
      <trkpt lat="39.0225230" lon="1.2976500">
        <ele>97.7</ele>
        <time>2020-02-22T10:08:04Z</time>
      </trkpt>
      <trkpt lat="39.0225320" lon="1.2976560">
        <ele>97.7</ele>
        <time>2020-02-22T10:08:05Z</time>
      </trkpt>
      <trkpt lat="39.0225550" lon="1.2976220">
        <ele>97.4</ele>
        <time>2020-02-22T10:08:06Z</time>
      </trkpt>
      <trkpt lat="39.0225610" lon="1.2976040">
        <ele>97.4</ele>
        <time>2020-02-22T10:08:07Z</time>
      </trkpt>
      <trkpt lat="39.0225690" lon="1.2975690">
        <ele>97.1</ele>
        <time>2020-02-22T10:08:08Z</time>
      </trkpt>
      <trkpt lat="39.0225850" lon="1.2975260">
        <ele>96.8</ele>
        <time>2020-02-22T10:08:09Z</time>
      </trkpt>
      <trkpt lat="39.0225920" lon="1.2975150">
        <ele>96.8</ele>
        <time>2020-02-22T10:08:10Z</time>
      </trkpt>
      <trkpt lat="39.0226160" lon="1.2974740">
        <ele>96.5</ele>
        <time>2020-02-22T10:08:11Z</time>
      </trkpt>
      <trkpt lat="39.0226250" lon="1.2974620">
        <ele>96.6</ele>
        <time>2020-02-22T10:08:12Z</time>
      </trkpt>
      <trkpt lat="39.0226550" lon="1.2974690">
        <ele>96.7</ele>
        <time>2020-02-22T10:08:13Z</time>
      </trkpt>
      <trkpt lat="39.0226900" lon="1.2974680">
        <ele>96.7</ele>
        <time>2020-02-22T10:08:14Z</time>
      </trkpt>
      <trkpt lat="39.0227030" lon="1.2974650">
        <ele>96.7</ele>
        <time>2020-02-22T10:08:15Z</time>
      </trkpt>
      <trkpt lat="39.0227280" lon="1.2974450">
        <ele>96.5</ele>
        <time>2020-02-22T10:08:16Z</time>
      </trkpt>
      <trkpt lat="39.0227550" lon="1.2974060">
        <ele>96.4</ele>
        <time>2020-02-22T10:08:17Z</time>
      </trkpt>
      <trkpt lat="39.0227730" lon="1.2973540">
        <ele>96.2</ele>
        <time>2020-02-22T10:08:18Z</time>
      </trkpt>
      <trkpt lat="39.0227780" lon="1.2972940">
        <ele>96.0</ele>
        <time>2020-02-22T10:08:19Z</time>
      </trkpt>
      <trkpt lat="39.0227960" lon="1.2972370">
        <ele>95.8</ele>
        <time>2020-02-22T10:08:20Z</time>
      </trkpt>
      <trkpt lat="39.0228020" lon="1.2972010">
        <ele>95.7</ele>
        <time>2020-02-22T10:08:21Z</time>
      </trkpt>
      <trkpt lat="39.0228020" lon="1.2971580">
        <ele>95.7</ele>
        <time>2020-02-22T10:08:22Z</time>
      </trkpt>
      <trkpt lat="39.0228010" lon="1.2971440">
        <ele>95.7</ele>
        <time>2020-02-22T10:08:23Z</time>
      </trkpt>
      <trkpt lat="39.0227930" lon="1.2970880">
        <ele>95.6</ele>
        <time>2020-02-22T10:08:24Z</time>
      </trkpt>
      <trkpt lat="39.0227920" lon="1.2970660">
        <ele>95.6</ele>
        <time>2020-02-22T10:08:25Z</time>
      </trkpt>
      <trkpt lat="39.0228110" lon="1.2970240">
        <ele>95.5</ele>
        <time>2020-02-22T10:08:26Z</time>
      </trkpt>
      <trkpt lat="39.0228340" lon="1.2969900">
        <ele>95.6</ele>
        <time>2020-02-22T10:08:27Z</time>
      </trkpt>
      <trkpt lat="39.0228620" lon="1.2969740">
        <ele>95.7</ele>
        <time>2020-02-22T10:08:28Z</time>
      </trkpt>
      <trkpt lat="39.0228930" lon="1.2969710">
        <ele>95.8</ele>
        <time>2020-02-22T10:08:29Z</time>
      </trkpt>
      <trkpt lat="39.0229240" lon="1.2969760">
        <ele>95.9</ele>
        <time>2020-02-22T10:08:30Z</time>
      </trkpt>
      <trkpt lat="39.0229620" lon="1.2969700">
        <ele>96.0</ele>
        <time>2020-02-22T10:08:31Z</time>
      </trkpt>
      <trkpt lat="39.0229750" lon="1.2969670">
        <ele>96.0</ele>
        <time>2020-02-22T10:08:32Z</time>
      </trkpt>
      <trkpt lat="39.0230100" lon="1.2969440">
        <ele>96.1</ele>
        <time>2020-02-22T10:08:33Z</time>
      </trkpt>
      <trkpt lat="39.0230240" lon="1.2969370">
        <ele>96.3</ele>
        <time>2020-02-22T10:08:34Z</time>
      </trkpt>
      <trkpt lat="39.0230530" lon="1.2969300">
        <ele>96.5</ele>
        <time>2020-02-22T10:08:35Z</time>
      </trkpt>
      <trkpt lat="39.0230720" lon="1.2969220">
        <ele>96.5</ele>
        <time>2020-02-22T10:08:36Z</time>
      </trkpt>
      <trkpt lat="39.0230860" lon="1.2969150">
        <ele>96.6</ele>
        <time>2020-02-22T10:08:37Z</time>
      </trkpt>
      <trkpt lat="39.0231270" lon="1.2969050">
        <ele>96.8</ele>
        <time>2020-02-22T10:08:38Z</time>
      </trkpt>
      <trkpt lat="39.0231420" lon="1.2968960">
        <ele>96.7</ele>
        <time>2020-02-22T10:08:39Z</time>
      </trkpt>
      <trkpt lat="39.0231720" lon="1.2968880">
        <ele>96.8</ele>
        <time>2020-02-22T10:08:40Z</time>
      </trkpt>
      <trkpt lat="39.0231830" lon="1.2968830">
        <ele>96.8</ele>
        <time>2020-02-22T10:08:41Z</time>
      </trkpt>
      <trkpt lat="39.0232120" lon="1.2968650">
        <ele>96.9</ele>
        <time>2020-02-22T10:08:42Z</time>
      </trkpt>
      <trkpt lat="39.0232450" lon="1.2968600">
        <ele>97.1</ele>
        <time>2020-02-22T10:08:43Z</time>
      </trkpt>
      <trkpt lat="39.0232560" lon="1.2968620">
        <ele>97.2</ele>
        <time>2020-02-22T10:08:44Z</time>
      </trkpt>
      <trkpt lat="39.0232700" lon="1.2968650">
        <ele>97.2</ele>
        <time>2020-02-22T10:08:45Z</time>
      </trkpt>
      <trkpt lat="39.0232890" lon="1.2968620">
        <ele>97.4</ele>
        <time>2020-02-22T10:08:46Z</time>
      </trkpt>
      <trkpt lat="39.0233170" lon="1.2968610">
        <ele>97.4</ele>
        <time>2020-02-22T10:08:47Z</time>
      </trkpt>
      <trkpt lat="39.0233460" lon="1.2968590">
        <ele>97.5</ele>
        <time>2020-02-22T10:08:48Z</time>
      </trkpt>
      <trkpt lat="39.0233730" lon="1.2968610">
        <ele>97.7</ele>
        <time>2020-02-22T10:08:49Z</time>
      </trkpt>
      <trkpt lat="39.0233850" lon="1.2968680">
        <ele>97.8</ele>
        <time>2020-02-22T10:08:50Z</time>
      </trkpt>
      <trkpt lat="39.0234000" lon="1.2968870">
        <ele>97.8</ele>
        <time>2020-02-22T10:08:51Z</time>
      </trkpt>
      <trkpt lat="39.0234330" lon="1.2968960">
        <ele>97.9</ele>
        <time>2020-02-22T10:08:52Z</time>
      </trkpt>
      <trkpt lat="39.0234450" lon="1.2968950">
        <ele>97.9</ele>
        <time>2020-02-22T10:08:53Z</time>
      </trkpt>
      <trkpt lat="39.0234780" lon="1.2969010">
        <ele>98.0</ele>
        <time>2020-02-22T10:08:54Z</time>
      </trkpt>
      <trkpt lat="39.0234880" lon="1.2969020">
        <ele>98.3</ele>
        <time>2020-02-22T10:08:55Z</time>
      </trkpt>
      <trkpt lat="39.0235170" lon="1.2969060">
        <ele>98.3</ele>
        <time>2020-02-22T10:08:56Z</time>
      </trkpt>
      <trkpt lat="39.0235300" lon="1.2969070">
        <ele>98.4</ele>
        <time>2020-02-22T10:08:57Z</time>
      </trkpt>
      <trkpt lat="39.0235440" lon="1.2969070">
        <ele>98.4</ele>
        <time>2020-02-22T10:08:58Z</time>
      </trkpt>
      <trkpt lat="39.0235760" lon="1.2969190">
        <ele>98.5</ele>
        <time>2020-02-22T10:08:59Z</time>
      </trkpt>
      <trkpt lat="39.0235850" lon="1.2969250">
        <ele>98.7</ele>
        <time>2020-02-22T10:09:00Z</time>
      </trkpt>
      <trkpt lat="39.0236190" lon="1.2969310">
        <ele>98.8</ele>
        <time>2020-02-22T10:09:01Z</time>
      </trkpt>
      <trkpt lat="39.0236320" lon="1.2969370">
        <ele>98.8</ele>
        <time>2020-02-22T10:09:02Z</time>
      </trkpt>
      <trkpt lat="39.0236600" lon="1.2969430">
        <ele>98.9</ele>
        <time>2020-02-22T10:09:03Z</time>
      </trkpt>
      <trkpt lat="39.0236700" lon="1.2969440">
        <ele>98.9</ele>
        <time>2020-02-22T10:09:04Z</time>
      </trkpt>
      <trkpt lat="39.0237040" lon="1.2969570">
        <ele>99.3</ele>
        <time>2020-02-22T10:09:05Z</time>
      </trkpt>
      <trkpt lat="39.0237140" lon="1.2969590">
        <ele>99.3</ele>
        <time>2020-02-22T10:09:06Z</time>
      </trkpt>
      <trkpt lat="39.0237310" lon="1.2969560">
        <ele>99.3</ele>
        <time>2020-02-22T10:09:07Z</time>
      </trkpt>
      <trkpt lat="39.0237470" lon="1.2969600">
        <ele>99.3</ele>
        <time>2020-02-22T10:09:08Z</time>
      </trkpt>
      <trkpt lat="39.0237830" lon="1.2969610">
        <ele>99.4</ele>
        <time>2020-02-22T10:09:09Z</time>
      </trkpt>
      <trkpt lat="39.0237950" lon="1.2969590">
        <ele>99.5</ele>
        <time>2020-02-22T10:09:10Z</time>
      </trkpt>
      <trkpt lat="39.0238250" lon="1.2969900">
        <ele>99.9</ele>
        <time>2020-02-22T10:09:11Z</time>
      </trkpt>
      <trkpt lat="39.0238320" lon="1.2970070">
        <ele>99.9</ele>
        <time>2020-02-22T10:09:12Z</time>
      </trkpt>
      <trkpt lat="39.0238530" lon="1.2970300">
        <ele>100.1</ele>
        <time>2020-02-22T10:09:13Z</time>
      </trkpt>
      <trkpt lat="39.0238790" lon="1.2970480">
        <ele>100.3</ele>
        <time>2020-02-22T10:09:14Z</time>
      </trkpt>
      <trkpt lat="39.0238950" lon="1.2970560">
        <ele>100.5</ele>
        <time>2020-02-22T10:09:15Z</time>
      </trkpt>
      <trkpt lat="39.0239110" lon="1.2970680">
        <ele>100.5</ele>
        <time>2020-02-22T10:09:16Z</time>
      </trkpt>
      <trkpt lat="39.0239220" lon="1.2971070">
        <ele>100.9</ele>
        <time>2020-02-22T10:09:17Z</time>
      </trkpt>
      <trkpt lat="39.0239220" lon="1.2971190">
        <ele>101.1</ele>
        <time>2020-02-22T10:09:18Z</time>
      </trkpt>
      <trkpt lat="39.0239250" lon="1.2971380">
        <ele>101.1</ele>
        <time>2020-02-22T10:09:19Z</time>
      </trkpt>
      <trkpt lat="39.0239300" lon="1.2971550">
        <ele>101.1</ele>
        <time>2020-02-22T10:09:20Z</time>
      </trkpt>
      <trkpt lat="39.0239420" lon="1.2971940">
        <ele>101.4</ele>
        <time>2020-02-22T10:09:21Z</time>
      </trkpt>
      <trkpt lat="39.0239450" lon="1.2972060">
        <ele>101.7</ele>
        <time>2020-02-22T10:09:22Z</time>
      </trkpt>
      <trkpt lat="39.0239520" lon="1.2972230">
        <ele>101.8</ele>
        <time>2020-02-22T10:09:23Z</time>
      </trkpt>
      <trkpt lat="39.0239620" lon="1.2972460">
        <ele>102.1</ele>
        <time>2020-02-22T10:09:24Z</time>
      </trkpt>
      <trkpt lat="39.0239870" lon="1.2972690">
        <ele>102.3</ele>
        <time>2020-02-22T10:09:25Z</time>
      </trkpt>
      <trkpt lat="39.0239970" lon="1.2972760">
        <ele>102.3</ele>
        <time>2020-02-22T10:09:26Z</time>
      </trkpt>
      <trkpt lat="39.0240240" lon="1.2973010">
        <ele>102.8</ele>
        <time>2020-02-22T10:09:27Z</time>
      </trkpt>
      <trkpt lat="39.0240330" lon="1.2973080">
        <ele>102.8</ele>
        <time>2020-02-22T10:09:28Z</time>
      </trkpt>
      <trkpt lat="39.0240470" lon="1.2973180">
        <ele>102.8</ele>
        <time>2020-02-22T10:09:29Z</time>
      </trkpt>
      <trkpt lat="39.0240640" lon="1.2973260">
        <ele>103.1</ele>
        <time>2020-02-22T10:09:30Z</time>
      </trkpt>
      <trkpt lat="39.0240910" lon="1.2973410">
        <ele>103.6</ele>
        <time>2020-02-22T10:09:31Z</time>
      </trkpt>
      <trkpt lat="39.0241010" lon="1.2973460">
        <ele>103.6</ele>
        <time>2020-02-22T10:09:32Z</time>
      </trkpt>
      <trkpt lat="39.0241280" lon="1.2973680">
        <ele>103.9</ele>
        <time>2020-02-22T10:09:33Z</time>
      </trkpt>
      <trkpt lat="39.0241330" lon="1.2973800">
        <ele>104.1</ele>
        <time>2020-02-22T10:09:34Z</time>
      </trkpt>
      <trkpt lat="39.0241500" lon="1.2974100">
        <ele>104.1</ele>
        <time>2020-02-22T10:09:35Z</time>
      </trkpt>
      <trkpt lat="39.0241550" lon="1.2974200">
        <ele>104.6</ele>
        <time>2020-02-22T10:09:36Z</time>
      </trkpt>
      <trkpt lat="39.0241840" lon="1.2974420">
        <ele>104.6</ele>
        <time>2020-02-22T10:09:37Z</time>
      </trkpt>
      <trkpt lat="39.0241930" lon="1.2974490">
        <ele>104.9</ele>
        <time>2020-02-22T10:09:38Z</time>
      </trkpt>
      <trkpt lat="39.0242260" lon="1.2974700">
        <ele>105.3</ele>
        <time>2020-02-22T10:09:39Z</time>
      </trkpt>
      <trkpt lat="39.0242350" lon="1.2974810">
        <ele>105.3</ele>
        <time>2020-02-22T10:09:40Z</time>
      </trkpt>
      <trkpt lat="39.0242550" lon="1.2974960">
        <ele>105.6</ele>
        <time>2020-02-22T10:09:41Z</time>
      </trkpt>
      <trkpt lat="39.0242630" lon="1.2974980">
        <ele>105.6</ele>
        <time>2020-02-22T10:09:42Z</time>
      </trkpt>
      <trkpt lat="39.0242710" lon="1.2975000">
        <ele>105.6</ele>
        <time>2020-02-22T10:09:43Z</time>
      </trkpt>
      <trkpt lat="39.0242850" lon="1.2975180">
        <ele>106.1</ele>
        <time>2020-02-22T10:09:44Z</time>
      </trkpt>
      <trkpt lat="39.0242920" lon="1.2975360">
        <ele>106.1</ele>
        <time>2020-02-22T10:09:45Z</time>
      </trkpt>
      <trkpt lat="39.0242910" lon="1.2975730">
        <ele>106.3</ele>
        <time>2020-02-22T10:09:46Z</time>
      </trkpt>
      <trkpt lat="39.0242910" lon="1.2975830">
        <ele>106.3</ele>
        <time>2020-02-22T10:09:47Z</time>
      </trkpt>
      <trkpt lat="39.0242930" lon="1.2975890">
        <ele>106.3</ele>
        <time>2020-02-22T10:09:48Z</time>
      </trkpt>
      <trkpt lat="39.0242970" lon="1.2975960">
        <ele>106.3</ele>
        <time>2020-02-22T10:09:49Z</time>
      </trkpt>
      <trkpt lat="39.0242990" lon="1.2976080">
        <ele>106.4</ele>
        <time>2020-02-22T10:09:50Z</time>
      </trkpt>
      <trkpt lat="39.0243090" lon="1.2976190">
        <ele>106.4</ele>
        <time>2020-02-22T10:09:51Z</time>
      </trkpt>
      <trkpt lat="39.0243160" lon="1.2976280">
        <ele>106.4</ele>
        <time>2020-02-22T10:09:52Z</time>
      </trkpt>
      <trkpt lat="39.0243180" lon="1.2976300">
        <ele>106.4</ele>
        <time>2020-02-22T10:09:53Z</time>
      </trkpt>
      <trkpt lat="39.0243190" lon="1.2976260">
        <ele>106.5</ele>
        <time>2020-02-22T10:09:54Z</time>
      </trkpt>
      <trkpt lat="39.0243200" lon="1.2976260">
        <ele>106.5</ele>
        <time>2020-02-22T10:09:55Z</time>
      </trkpt>
      <trkpt lat="39.0243200" lon="1.2976250">
        <ele>106.5</ele>
        <time>2020-02-22T10:09:56Z</time>
      </trkpt>
      <trkpt lat="39.0243200" lon="1.2976250">
        <ele>106.5</ele>
        <time>2020-02-22T10:09:57Z</time>
      </trkpt>
      <trkpt lat="39.0243210" lon="1.2976250">
        <ele>106.5</ele>
        <time>2020-02-22T10:09:58Z</time>
      </trkpt>
      <trkpt lat="39.0243210" lon="1.2976250">
        <ele>106.5</ele>
        <time>2020-02-22T10:09:59Z</time>
      </trkpt>
      <trkpt lat="39.0243210" lon="1.2976250">
        <ele>106.5</ele>
        <time>2020-02-22T10:10:00Z</time>
      </trkpt>
      <trkpt lat="39.0243210" lon="1.2976250">
        <ele>106.5</ele>
        <time>2020-02-22T10:10:01Z</time>
      </trkpt>
      <trkpt lat="39.0243210" lon="1.2976250">
        <ele>106.5</ele>
        <time>2020-02-22T10:10:02Z</time>
      </trkpt>
      <trkpt lat="39.0243400" lon="1.2976370">
        <ele>106.5</ele>
        <time>2020-02-22T10:10:12Z</time>
      </trkpt>
      <trkpt lat="39.0243630" lon="1.2976380">
        <ele>106.7</ele>
        <time>2020-02-22T10:10:13Z</time>
      </trkpt>
      <trkpt lat="39.0244010" lon="1.2976350">
        <ele>107.1</ele>
        <time>2020-02-22T10:10:14Z</time>
      </trkpt>
      <trkpt lat="39.0244130" lon="1.2976340">
        <ele>107.2</ele>
        <time>2020-02-22T10:10:15Z</time>
      </trkpt>
      <trkpt lat="39.0244420" lon="1.2976300">
        <ele>107.5</ele>
        <time>2020-02-22T10:10:16Z</time>
      </trkpt>
      <trkpt lat="39.0244700" lon="1.2976240">
        <ele>107.8</ele>
        <time>2020-02-22T10:10:17Z</time>
      </trkpt>
      <trkpt lat="39.0245060" lon="1.2976150">
        <ele>108.1</ele>
        <time>2020-02-22T10:10:18Z</time>
      </trkpt>
      <trkpt lat="39.0245170" lon="1.2976120">
        <ele>108.2</ele>
        <time>2020-02-22T10:10:19Z</time>
      </trkpt>
      <trkpt lat="39.0245560" lon="1.2976050">
        <ele>108.5</ele>
        <time>2020-02-22T10:10:21Z</time>
      </trkpt>
      <trkpt lat="39.0245670" lon="1.2976020">
        <ele>108.6</ele>
        <time>2020-02-22T10:10:22Z</time>
      </trkpt>
      <trkpt lat="39.0245820" lon="1.2975990">
        <ele>108.7</ele>
        <time>2020-02-22T10:10:23Z</time>
      </trkpt>
      <trkpt lat="39.0246000" lon="1.2975950">
        <ele>108.9</ele>
        <time>2020-02-22T10:10:24Z</time>
      </trkpt>
      <trkpt lat="39.0246330" lon="1.2975890">
        <ele>109.2</ele>
        <time>2020-02-22T10:10:25Z</time>
      </trkpt>
      <trkpt lat="39.0246490" lon="1.2975860">
        <ele>109.4</ele>
        <time>2020-02-22T10:10:26Z</time>
      </trkpt>
      <trkpt lat="39.0246810" lon="1.2975790">
        <ele>109.7</ele>
        <time>2020-02-22T10:10:27Z</time>
      </trkpt>
      <trkpt lat="39.0246930" lon="1.2975740">
        <ele>109.9</ele>
        <time>2020-02-22T10:10:28Z</time>
      </trkpt>
      <trkpt lat="39.0247310" lon="1.2975610">
        <ele>110.2</ele>
        <time>2020-02-22T10:10:29Z</time>
      </trkpt>
      <trkpt lat="39.0247450" lon="1.2975580">
        <ele>110.3</ele>
        <time>2020-02-22T10:10:30Z</time>
      </trkpt>
      <trkpt lat="39.0247860" lon="1.2975540">
        <ele>110.7</ele>
        <time>2020-02-22T10:10:31Z</time>
      </trkpt>
      <trkpt lat="39.0248000" lon="1.2975520">
        <ele>110.8</ele>
        <time>2020-02-22T10:10:32Z</time>
      </trkpt>
      <trkpt lat="39.0248300" lon="1.2975510">
        <ele>111.2</ele>
        <time>2020-02-22T10:10:33Z</time>
      </trkpt>
      <trkpt lat="39.0248630" lon="1.2975500">
        <ele>111.6</ele>
        <time>2020-02-22T10:10:34Z</time>
      </trkpt>
      <trkpt lat="39.0248940" lon="1.2975500">
        <ele>112.0</ele>
        <time>2020-02-22T10:10:35Z</time>
      </trkpt>
      <trkpt lat="39.0249310" lon="1.2975480">
        <ele>112.4</ele>
        <time>2020-02-22T10:10:36Z</time>
      </trkpt>
      <trkpt lat="39.0249430" lon="1.2975430">
        <ele>112.6</ele>
        <time>2020-02-22T10:10:37Z</time>
      </trkpt>
      <trkpt lat="39.0249750" lon="1.2975250">
        <ele>113.0</ele>
        <time>2020-02-22T10:10:38Z</time>
      </trkpt>
      <trkpt lat="39.0249850" lon="1.2975210">
        <ele>113.1</ele>
        <time>2020-02-22T10:10:39Z</time>
      </trkpt>
      <trkpt lat="39.0250110" lon="1.2975060">
        <ele>113.3</ele>
        <time>2020-02-22T10:10:40Z</time>
      </trkpt>
      <trkpt lat="39.0250200" lon="1.2975030">
        <ele>113.4</ele>
        <time>2020-02-22T10:10:41Z</time>
      </trkpt>
      <trkpt lat="39.0250670" lon="1.2974940">
        <ele>113.8</ele>
        <time>2020-02-22T10:10:42Z</time>
      </trkpt>
      <trkpt lat="39.0250870" lon="1.2974870">
        <ele>114.1</ele>
        <time>2020-02-22T10:10:43Z</time>
      </trkpt>
      <trkpt lat="39.0251170" lon="1.2974750">
        <ele>114.4</ele>
        <time>2020-02-22T10:10:44Z</time>
      </trkpt>
      <trkpt lat="39.0251330" lon="1.2974460">
        <ele>114.6</ele>
        <time>2020-02-22T10:10:45Z</time>
      </trkpt>
      <trkpt lat="39.0251350" lon="1.2973980">
        <ele>114.9</ele>
        <time>2020-02-22T10:10:46Z</time>
      </trkpt>
      <trkpt lat="39.0251290" lon="1.2973530">
        <ele>114.9</ele>
        <time>2020-02-22T10:10:47Z</time>
      </trkpt>
      <trkpt lat="39.0251350" lon="1.2973050">
        <ele>115.1</ele>
        <time>2020-02-22T10:10:48Z</time>
      </trkpt>
      <trkpt lat="39.0251410" lon="1.2972880">
        <ele>115.2</ele>
        <time>2020-02-22T10:10:49Z</time>
      </trkpt>
      <trkpt lat="39.0251430" lon="1.2972420">
        <ele>115.4</ele>
        <time>2020-02-22T10:10:50Z</time>
      </trkpt>
      <trkpt lat="39.0251430" lon="1.2972210">
        <ele>115.5</ele>
        <time>2020-02-22T10:10:51Z</time>
      </trkpt>
      <trkpt lat="39.0251620" lon="1.2971890">
        <ele>115.9</ele>
        <time>2020-02-22T10:10:52Z</time>
      </trkpt>
      <trkpt lat="39.0251710" lon="1.2971790">
        <ele>116.0</ele>
        <time>2020-02-22T10:10:53Z</time>
      </trkpt>
      <trkpt lat="39.0252060" lon="1.2971620">
        <ele>116.6</ele>
        <time>2020-02-22T10:10:54Z</time>
      </trkpt>
      <trkpt lat="39.0252220" lon="1.2971610">
        <ele>116.8</ele>
        <time>2020-02-22T10:10:55Z</time>
      </trkpt>
      <trkpt lat="39.0252540" lon="1.2971750">
        <ele>117.2</ele>
        <time>2020-02-22T10:10:56Z</time>
      </trkpt>
      <trkpt lat="39.0252650" lon="1.2971790">
        <ele>117.3</ele>
        <time>2020-02-22T10:10:57Z</time>
      </trkpt>
      <trkpt lat="39.0252940" lon="1.2971930">
        <ele>117.6</ele>
        <time>2020-02-22T10:10:58Z</time>
      </trkpt>
      <trkpt lat="39.0253040" lon="1.2971970">
        <ele>117.7</ele>
        <time>2020-02-22T10:10:59Z</time>
      </trkpt>
      <trkpt lat="39.0253150" lon="1.2972090">
        <ele>117.8</ele>
        <time>2020-02-22T10:11:00Z</time>
      </trkpt>
      <trkpt lat="39.0253250" lon="1.2972250">
        <ele>118.0</ele>
        <time>2020-02-22T10:11:01Z</time>
      </trkpt>
      <trkpt lat="39.0253470" lon="1.2972560">
        <ele>118.1</ele>
        <time>2020-02-22T10:11:02Z</time>
      </trkpt>
      <trkpt lat="39.0253550" lon="1.2972700">
        <ele>118.1</ele>
        <time>2020-02-22T10:11:03Z</time>
      </trkpt>
      <trkpt lat="39.0253770" lon="1.2972970">
        <ele>118.0</ele>
        <time>2020-02-22T10:11:04Z</time>
      </trkpt>
      <trkpt lat="39.0253860" lon="1.2973060">
        <ele>118.0</ele>
        <time>2020-02-22T10:11:05Z</time>
      </trkpt>
      <trkpt lat="39.0254090" lon="1.2973240">
        <ele>118.0</ele>
        <time>2020-02-22T10:11:06Z</time>
      </trkpt>
      <trkpt lat="39.0254190" lon="1.2973300">
        <ele>118.1</ele>
        <time>2020-02-22T10:11:07Z</time>
      </trkpt>
      <trkpt lat="39.0254520" lon="1.2973420">
        <ele>118.2</ele>
        <time>2020-02-22T10:11:08Z</time>
      </trkpt>
      <trkpt lat="39.0254610" lon="1.2973440">
        <ele>118.2</ele>
        <time>2020-02-22T10:11:09Z</time>
      </trkpt>
      <trkpt lat="39.0254930" lon="1.2973500">
        <ele>118.5</ele>
        <time>2020-02-22T10:11:10Z</time>
      </trkpt>
      <trkpt lat="39.0255030" lon="1.2973510">
        <ele>118.6</ele>
        <time>2020-02-22T10:11:11Z</time>
      </trkpt>
      <trkpt lat="39.0255370" lon="1.2973420">
        <ele>119.0</ele>
        <time>2020-02-22T10:11:12Z</time>
      </trkpt>
      <trkpt lat="39.0255480" lon="1.2973340">
        <ele>119.1</ele>
        <time>2020-02-22T10:11:13Z</time>
      </trkpt>
      <trkpt lat="39.0255640" lon="1.2973250">
        <ele>119.2</ele>
        <time>2020-02-22T10:11:14Z</time>
      </trkpt>
      <trkpt lat="39.0255930" lon="1.2973120">
        <ele>119.4</ele>
        <time>2020-02-22T10:11:15Z</time>
      </trkpt>
      <trkpt lat="39.0256020" lon="1.2973090">
        <ele>119.5</ele>
        <time>2020-02-22T10:11:16Z</time>
      </trkpt>
      <trkpt lat="39.0256400" lon="1.2973100">
        <ele>119.7</ele>
        <time>2020-02-22T10:11:17Z</time>
      </trkpt>
      <trkpt lat="39.0256500" lon="1.2973100">
        <ele>119.7</ele>
        <time>2020-02-22T10:11:18Z</time>
      </trkpt>
      <trkpt lat="39.0256870" lon="1.2973070">
        <ele>119.9</ele>
        <time>2020-02-22T10:11:19Z</time>
      </trkpt>
      <trkpt lat="39.0256980" lon="1.2973060">
        <ele>120.0</ele>
        <time>2020-02-22T10:11:20Z</time>
      </trkpt>
      <trkpt lat="39.0257140" lon="1.2973100">
        <ele>120.0</ele>
        <time>2020-02-22T10:11:21Z</time>
      </trkpt>
      <trkpt lat="39.0257310" lon="1.2973100">
        <ele>120.1</ele>
        <time>2020-02-22T10:11:22Z</time>
      </trkpt>
      <trkpt lat="39.0257470" lon="1.2973090">
        <ele>120.1</ele>
        <time>2020-02-22T10:11:23Z</time>
      </trkpt>
      <trkpt lat="39.0257620" lon="1.2973220">
        <ele>120.2</ele>
        <time>2020-02-22T10:11:24Z</time>
      </trkpt>
      <trkpt lat="39.0257800" lon="1.2973330">
        <ele>120.3</ele>
        <time>2020-02-22T10:11:25Z</time>
      </trkpt>
      <trkpt lat="39.0257950" lon="1.2973410">
        <ele>120.4</ele>
        <time>2020-02-22T10:11:26Z</time>
      </trkpt>
      <trkpt lat="39.0258120" lon="1.2973460">
        <ele>120.6</ele>
        <time>2020-02-22T10:11:27Z</time>
      </trkpt>
      <trkpt lat="39.0258280" lon="1.2973500">
        <ele>120.7</ele>
        <time>2020-02-22T10:11:28Z</time>
      </trkpt>
      <trkpt lat="39.0258600" lon="1.2973590">
        <ele>121.0</ele>
        <time>2020-02-22T10:11:29Z</time>
      </trkpt>
      <trkpt lat="39.0258700" lon="1.2973610">
        <ele>121.2</ele>
        <time>2020-02-22T10:11:30Z</time>
      </trkpt>
      <trkpt lat="39.0258860" lon="1.2973600">
        <ele>121.4</ele>
        <time>2020-02-22T10:11:31Z</time>
      </trkpt>
      <trkpt lat="39.0258990" lon="1.2973620">
        <ele>121.6</ele>
        <time>2020-02-22T10:11:32Z</time>
      </trkpt>
      <trkpt lat="39.0259200" lon="1.2973730">
        <ele>121.9</ele>
        <time>2020-02-22T10:11:33Z</time>
      </trkpt>
      <trkpt lat="39.0259310" lon="1.2973780">
        <ele>122.1</ele>
        <time>2020-02-22T10:11:34Z</time>
      </trkpt>
      <trkpt lat="39.0259430" lon="1.2973840">
        <ele>122.3</ele>
        <time>2020-02-22T10:11:35Z</time>
      </trkpt>
      <trkpt lat="39.0259630" lon="1.2974090">
        <ele>122.3</ele>
        <time>2020-02-22T10:11:36Z</time>
      </trkpt>
      <trkpt lat="39.0259720" lon="1.2974210">
        <ele>122.1</ele>
        <time>2020-02-22T10:11:37Z</time>
      </trkpt>
      <trkpt lat="39.0259960" lon="1.2974580">
        <ele>121.6</ele>
        <time>2020-02-22T10:11:38Z</time>
      </trkpt>
      <trkpt lat="39.0260030" lon="1.2974690">
        <ele>121.5</ele>
        <time>2020-02-22T10:11:39Z</time>
      </trkpt>
      <trkpt lat="39.0260320" lon="1.2975020">
        <ele>121.2</ele>
        <time>2020-02-22T10:11:40Z</time>
      </trkpt>
      <trkpt lat="39.0260590" lon="1.2975290">
        <ele>121.0</ele>
        <time>2020-02-22T10:11:41Z</time>
      </trkpt>
      <trkpt lat="39.0260680" lon="1.2975380">
        <ele>120.9</ele>
        <time>2020-02-22T10:11:42Z</time>
      </trkpt>
      <trkpt lat="39.0260950" lon="1.2975650">
        <ele>120.9</ele>
        <time>2020-02-22T10:11:43Z</time>
      </trkpt>
      <trkpt lat="39.0261030" lon="1.2975730">
        <ele>120.9</ele>
        <time>2020-02-22T10:11:44Z</time>
      </trkpt>
      <trkpt lat="39.0261230" lon="1.2976000">
        <ele>120.9</ele>
        <time>2020-02-22T10:11:45Z</time>
      </trkpt>
      <trkpt lat="39.0261520" lon="1.2976220">
        <ele>120.8</ele>
        <time>2020-02-22T10:11:46Z</time>
      </trkpt>
      <trkpt lat="39.0261610" lon="1.2976280">
        <ele>120.7</ele>
        <time>2020-02-22T10:11:47Z</time>
      </trkpt>
      <trkpt lat="39.0261960" lon="1.2976400">
        <ele>120.5</ele>
        <time>2020-02-22T10:11:48Z</time>
      </trkpt>
      <trkpt lat="39.0262080" lon="1.2976490">
        <ele>120.5</ele>
        <time>2020-02-22T10:11:49Z</time>
      </trkpt>
      <trkpt lat="39.0262360" lon="1.2976770">
        <ele>120.5</ele>
        <time>2020-02-22T10:11:50Z</time>
      </trkpt>
      <trkpt lat="39.0262470" lon="1.2976860">
        <ele>120.5</ele>
        <time>2020-02-22T10:11:51Z</time>
      </trkpt>
      <trkpt lat="39.0262760" lon="1.2977130">
        <ele>120.6</ele>
        <time>2020-02-22T10:11:52Z</time>
      </trkpt>
      <trkpt lat="39.0262850" lon="1.2977220">
        <ele>120.6</ele>
        <time>2020-02-22T10:11:53Z</time>
      </trkpt>
      <trkpt lat="39.0263210" lon="1.2977420">
        <ele>120.7</ele>
        <time>2020-02-22T10:11:54Z</time>
      </trkpt>
      <trkpt lat="39.0263340" lon="1.2977470">
        <ele>120.7</ele>
        <time>2020-02-22T10:11:55Z</time>
      </trkpt>
      <trkpt lat="39.0263690" lon="1.2977630">
        <ele>120.7</ele>
        <time>2020-02-22T10:11:56Z</time>
      </trkpt>
      <trkpt lat="39.0263800" lon="1.2977710">
        <ele>120.7</ele>
        <time>2020-02-22T10:11:57Z</time>
      </trkpt>
      <trkpt lat="39.0264050" lon="1.2977990">
        <ele>120.7</ele>
        <time>2020-02-22T10:11:58Z</time>
      </trkpt>
      <trkpt lat="39.0264140" lon="1.2978070">
        <ele>120.7</ele>
        <time>2020-02-22T10:11:59Z</time>
      </trkpt>
      <trkpt lat="39.0264290" lon="1.2978240">
        <ele>120.8</ele>
        <time>2020-02-22T10:12:00Z</time>
      </trkpt>
      <trkpt lat="39.0264400" lon="1.2978400">
        <ele>120.8</ele>
        <time>2020-02-22T10:12:01Z</time>
      </trkpt>
      <trkpt lat="39.0264630" lon="1.2978640">
        <ele>120.8</ele>
        <time>2020-02-22T10:12:02Z</time>
      </trkpt>
      <trkpt lat="39.0264720" lon="1.2978700">
        <ele>120.7</ele>
        <time>2020-02-22T10:12:03Z</time>
      </trkpt>
      <trkpt lat="39.0264960" lon="1.2978960">
        <ele>120.7</ele>
        <time>2020-02-22T10:12:04Z</time>
      </trkpt>
      <trkpt lat="39.0265060" lon="1.2979070">
        <ele>120.6</ele>
        <time>2020-02-22T10:12:05Z</time>
      </trkpt>
      <trkpt lat="39.0265330" lon="1.2979140">
        <ele>120.6</ele>
        <time>2020-02-22T10:12:06Z</time>
      </trkpt>
      <trkpt lat="39.0265430" lon="1.2979130">
        <ele>120.6</ele>
        <time>2020-02-22T10:12:07Z</time>
      </trkpt>
      <trkpt lat="39.0265770" lon="1.2979110">
        <ele>120.7</ele>
        <time>2020-02-22T10:12:08Z</time>
      </trkpt>
      <trkpt lat="39.0265880" lon="1.2979120">
        <ele>120.8</ele>
        <time>2020-02-22T10:12:09Z</time>
      </trkpt>
      <trkpt lat="39.0266130" lon="1.2979220">
        <ele>121.0</ele>
        <time>2020-02-22T10:12:10Z</time>
      </trkpt>
      <trkpt lat="39.0266230" lon="1.2979270">
        <ele>121.1</ele>
        <time>2020-02-22T10:12:11Z</time>
      </trkpt>
      <trkpt lat="39.0266480" lon="1.2979460">
        <ele>121.3</ele>
        <time>2020-02-22T10:12:12Z</time>
      </trkpt>
      <trkpt lat="39.0266580" lon="1.2979540">
        <ele>121.4</ele>
        <time>2020-02-22T10:12:13Z</time>
      </trkpt>
      <trkpt lat="39.0266680" lon="1.2979670">
        <ele>121.5</ele>
        <time>2020-02-22T10:12:14Z</time>
      </trkpt>
      <trkpt lat="39.0266790" lon="1.2979830">
        <ele>121.6</ele>
        <time>2020-02-22T10:12:15Z</time>
      </trkpt>
      <trkpt lat="39.0267090" lon="1.2980080">
        <ele>121.7</ele>
        <time>2020-02-22T10:12:16Z</time>
      </trkpt>
      <trkpt lat="39.0267180" lon="1.2980180">
        <ele>121.8</ele>
        <time>2020-02-22T10:12:17Z</time>
      </trkpt>
      <trkpt lat="39.0267500" lon="1.2980410">
        <ele>121.8</ele>
        <time>2020-02-22T10:12:18Z</time>
      </trkpt>
      <trkpt lat="39.0267600" lon="1.2980480">
        <ele>121.9</ele>
        <time>2020-02-22T10:12:19Z</time>
      </trkpt>
      <trkpt lat="39.0267820" lon="1.2980680">
        <ele>122.1</ele>
        <time>2020-02-22T10:12:20Z</time>
      </trkpt>
      <trkpt lat="39.0267900" lon="1.2980750">
        <ele>122.1</ele>
        <time>2020-02-22T10:12:21Z</time>
      </trkpt>
      <trkpt lat="39.0268040" lon="1.2980830">
        <ele>122.2</ele>
        <time>2020-02-22T10:12:22Z</time>
      </trkpt>
      <trkpt lat="39.0268220" lon="1.2980910">
        <ele>122.4</ele>
        <time>2020-02-22T10:12:23Z</time>
      </trkpt>
      <trkpt lat="39.0268460" lon="1.2980950">
        <ele>122.5</ele>
        <time>2020-02-22T10:12:24Z</time>
      </trkpt>
      <trkpt lat="39.0268550" lon="1.2980940">
        <ele>122.6</ele>
        <time>2020-02-22T10:12:25Z</time>
      </trkpt>
      <trkpt lat="39.0268630" lon="1.2980940">
        <ele>122.6</ele>
        <time>2020-02-22T10:12:26Z</time>
      </trkpt>
      <trkpt lat="39.0268930" lon="1.2981070">
        <ele>122.8</ele>
        <time>2020-02-22T10:12:27Z</time>
      </trkpt>
      <trkpt lat="39.0269020" lon="1.2981100">
        <ele>122.9</ele>
        <time>2020-02-22T10:12:28Z</time>
      </trkpt>
      <trkpt lat="39.0269310" lon="1.2981060">
        <ele>123.1</ele>
        <time>2020-02-22T10:12:29Z</time>
      </trkpt>
      <trkpt lat="39.0269420" lon="1.2981040">
        <ele>123.2</ele>
        <time>2020-02-22T10:12:30Z</time>
      </trkpt>
      <trkpt lat="39.0269720" lon="1.2980940">
        <ele>123.4</ele>
        <time>2020-02-22T10:12:31Z</time>
      </trkpt>
      <trkpt lat="39.0269800" lon="1.2980890">
        <ele>123.5</ele>
        <time>2020-02-22T10:12:32Z</time>
      </trkpt>
      <trkpt lat="39.0269900" lon="1.2980880">
        <ele>123.6</ele>
        <time>2020-02-22T10:12:33Z</time>
      </trkpt>
      <trkpt lat="39.0270080" lon="1.2980780">
        <ele>123.7</ele>
        <time>2020-02-22T10:12:34Z</time>
      </trkpt>
      <trkpt lat="39.0270200" lon="1.2980680">
        <ele>123.8</ele>
        <time>2020-02-22T10:12:35Z</time>
      </trkpt>
      <trkpt lat="39.0270350" lon="1.2980610">
        <ele>123.9</ele>
        <time>2020-02-22T10:12:36Z</time>
      </trkpt>
      <trkpt lat="39.0270540" lon="1.2980560">
        <ele>124.0</ele>
        <time>2020-02-22T10:12:37Z</time>
      </trkpt>
      <trkpt lat="39.0270670" lon="1.2980480">
        <ele>124.0</ele>
        <time>2020-02-22T10:12:38Z</time>
      </trkpt>
      <trkpt lat="39.0270900" lon="1.2980190">
        <ele>124.1</ele>
        <time>2020-02-22T10:12:39Z</time>
      </trkpt>
      <trkpt lat="39.0270960" lon="1.2980090">
        <ele>124.1</ele>
        <time>2020-02-22T10:12:40Z</time>
      </trkpt>
      <trkpt lat="39.0271130" lon="1.2979700">
        <ele>124.2</ele>
        <time>2020-02-22T10:12:41Z</time>
      </trkpt>
      <trkpt lat="39.0271220" lon="1.2979510">
        <ele>124.2</ele>
        <time>2020-02-22T10:12:42Z</time>
      </trkpt>
      <trkpt lat="39.0271390" lon="1.2979130">
        <ele>124.4</ele>
        <time>2020-02-22T10:12:43Z</time>
      </trkpt>
      <trkpt lat="39.0271540" lon="1.2978920">
        <ele>124.6</ele>
        <time>2020-02-22T10:12:44Z</time>
      </trkpt>
      <trkpt lat="39.0271620" lon="1.2978830">
        <ele>124.8</ele>
        <time>2020-02-22T10:12:45Z</time>
      </trkpt>
      <trkpt lat="39.0271850" lon="1.2978500">
        <ele>125.2</ele>
        <time>2020-02-22T10:12:46Z</time>
      </trkpt>
      <trkpt lat="39.0271930" lon="1.2978360">
        <ele>125.3</ele>
        <time>2020-02-22T10:12:47Z</time>
      </trkpt>
      <trkpt lat="39.0272120" lon="1.2978020">
        <ele>125.6</ele>
        <time>2020-02-22T10:12:48Z</time>
      </trkpt>
      <trkpt lat="39.0272170" lon="1.2977900">
        <ele>125.6</ele>
        <time>2020-02-22T10:12:49Z</time>
      </trkpt>
      <trkpt lat="39.0272370" lon="1.2977580">
        <ele>126.1</ele>
        <time>2020-02-22T10:12:50Z</time>
      </trkpt>
      <trkpt lat="39.0272430" lon="1.2977460">
        <ele>126.3</ele>
        <time>2020-02-22T10:12:51Z</time>
      </trkpt>
      <trkpt lat="39.0272560" lon="1.2977250">
        <ele>126.6</ele>
        <time>2020-02-22T10:12:52Z</time>
      </trkpt>
      <trkpt lat="39.0272650" lon="1.2977100">
        <ele>126.9</ele>
        <time>2020-02-22T10:12:53Z</time>
      </trkpt>
      <trkpt lat="39.0272670" lon="1.2976920">
        <ele>127.1</ele>
        <time>2020-02-22T10:12:54Z</time>
      </trkpt>
      <trkpt lat="39.0272700" lon="1.2976720">
        <ele>127.5</ele>
        <time>2020-02-22T10:12:55Z</time>
      </trkpt>
      <trkpt lat="39.0272710" lon="1.2976610">
        <ele>127.6</ele>
        <time>2020-02-22T10:12:56Z</time>
      </trkpt>
      <trkpt lat="39.0272750" lon="1.2976520">
        <ele>127.8</ele>
        <time>2020-02-22T10:12:57Z</time>
      </trkpt>
      <trkpt lat="39.0272970" lon="1.2976560">
        <ele>128.2</ele>
        <time>2020-02-22T10:12:58Z</time>
      </trkpt>
      <trkpt lat="39.0273080" lon="1.2976510">
        <ele>128.3</ele>
        <time>2020-02-22T10:12:59Z</time>
      </trkpt>
      <trkpt lat="39.0273310" lon="1.2976530">
        <ele>128.3</ele>
        <time>2020-02-22T10:13:00Z</time>
      </trkpt>
      <trkpt lat="39.0273710" lon="1.2976530">
        <ele>128.5</ele>
        <time>2020-02-22T10:13:01Z</time>
      </trkpt>
      <trkpt lat="39.0273850" lon="1.2976530">
        <ele>128.6</ele>
        <time>2020-02-22T10:13:02Z</time>
      </trkpt>
      <trkpt lat="39.0274130" lon="1.2976560">
        <ele>128.8</ele>
        <time>2020-02-22T10:13:03Z</time>
      </trkpt>
      <trkpt lat="39.0274410" lon="1.2976620">
        <ele>128.9</ele>
        <time>2020-02-22T10:13:04Z</time>
      </trkpt>
      <trkpt lat="39.0274680" lon="1.2976610">
        <ele>129.1</ele>
        <time>2020-02-22T10:13:05Z</time>
      </trkpt>
      <trkpt lat="39.0274970" lon="1.2976620">
        <ele>129.0</ele>
        <time>2020-02-22T10:13:06Z</time>
      </trkpt>
      <trkpt lat="39.0275320" lon="1.2976730">
        <ele>128.9</ele>
        <time>2020-02-22T10:13:07Z</time>
      </trkpt>
      <trkpt lat="39.0275410" lon="1.2976760">
        <ele>128.8</ele>
        <time>2020-02-22T10:13:08Z</time>
      </trkpt>
      <trkpt lat="39.0275560" lon="1.2976750">
        <ele>128.8</ele>
        <time>2020-02-22T10:13:09Z</time>
      </trkpt>
      <trkpt lat="39.0275630" lon="1.2976790">
        <ele>128.9</ele>
        <time>2020-02-22T10:13:10Z</time>
      </trkpt>
      <trkpt lat="39.0275770" lon="1.2976700">
        <ele>128.9</ele>
        <time>2020-02-22T10:13:11Z</time>
      </trkpt>
      <trkpt lat="39.0276020" lon="1.2976650">
        <ele>129.0</ele>
        <time>2020-02-22T10:13:12Z</time>
      </trkpt>
      <trkpt lat="39.0276080" lon="1.2976670">
        <ele>129.0</ele>
        <time>2020-02-22T10:13:13Z</time>
      </trkpt>
      <trkpt lat="39.0276140" lon="1.2976690">
        <ele>129.0</ele>
        <time>2020-02-22T10:13:14Z</time>
      </trkpt>
      <trkpt lat="39.0276200" lon="1.2976710">
        <ele>128.9</ele>
        <time>2020-02-22T10:13:15Z</time>
      </trkpt>
      <trkpt lat="39.0276260" lon="1.2976730">
        <ele>128.9</ele>
        <time>2020-02-22T10:13:16Z</time>
      </trkpt>
      <trkpt lat="39.0276320" lon="1.2976750">
        <ele>128.9</ele>
        <time>2020-02-22T10:13:17Z</time>
      </trkpt>
      <trkpt lat="39.0276380" lon="1.2976770">
        <ele>128.9</ele>
        <time>2020-02-22T10:13:18Z</time>
      </trkpt>
      <trkpt lat="39.0276450" lon="1.2976780">
        <ele>128.8</ele>
        <time>2020-02-22T10:13:19Z</time>
      </trkpt>
      <trkpt lat="39.0276510" lon="1.2976800">
        <ele>128.8</ele>
        <time>2020-02-22T10:13:20Z</time>
      </trkpt>
      <trkpt lat="39.0276570" lon="1.2976820">
        <ele>128.8</ele>
        <time>2020-02-22T10:13:21Z</time>
      </trkpt>
      <trkpt lat="39.0276630" lon="1.2976840">
        <ele>128.7</ele>
        <time>2020-02-22T10:13:22Z</time>
      </trkpt>
      <trkpt lat="39.0276690" lon="1.2976860">
        <ele>128.7</ele>
        <time>2020-02-22T10:13:23Z</time>
      </trkpt>
      <trkpt lat="39.0276750" lon="1.2976880">
        <ele>128.7</ele>
        <time>2020-02-22T10:13:40Z</time>
      </trkpt>
      <trkpt lat="39.0276810" lon="1.2976900">
        <ele>128.7</ele>
        <time>2020-02-22T10:13:41Z</time>
      </trkpt>
      <trkpt lat="39.0276870" lon="1.2976920">
        <ele>128.7</ele>
        <time>2020-02-22T10:13:42Z</time>
      </trkpt>
      <trkpt lat="39.0277110" lon="1.2977100">
        <ele>128.7</ele>
        <time>2020-02-22T10:13:43Z</time>
      </trkpt>
      <trkpt lat="39.0277310" lon="1.2977390">
        <ele>128.8</ele>
        <time>2020-02-22T10:13:44Z</time>
      </trkpt>
      <trkpt lat="39.0277360" lon="1.2977490">
        <ele>128.7</ele>
        <time>2020-02-22T10:13:45Z</time>
      </trkpt>
      <trkpt lat="39.0277570" lon="1.2977740">
        <ele>128.6</ele>
        <time>2020-02-22T10:13:46Z</time>
      </trkpt>
      <trkpt lat="39.0277650" lon="1.2977810">
        <ele>128.5</ele>
        <time>2020-02-22T10:13:47Z</time>
      </trkpt>
      <trkpt lat="39.0277770" lon="1.2977810">
        <ele>128.4</ele>
        <time>2020-02-22T10:13:48Z</time>
      </trkpt>
      <trkpt lat="39.0277890" lon="1.2977980">
        <ele>128.3</ele>
        <time>2020-02-22T10:13:49Z</time>
      </trkpt>
      <trkpt lat="39.0278090" lon="1.2978330">
        <ele>127.9</ele>
        <time>2020-02-22T10:13:50Z</time>
      </trkpt>
      <trkpt lat="39.0278140" lon="1.2978450">
        <ele>127.8</ele>
        <time>2020-02-22T10:13:51Z</time>
      </trkpt>
      <trkpt lat="39.0278290" lon="1.2978670">
        <ele>127.6</ele>
        <time>2020-02-22T10:13:52Z</time>
      </trkpt>
      <trkpt lat="39.0278330" lon="1.2978840">
        <ele>127.6</ele>
        <time>2020-02-22T10:13:53Z</time>
      </trkpt>
      <trkpt lat="39.0278450" lon="1.2978980">
        <ele>127.5</ele>
        <time>2020-02-22T10:13:54Z</time>
      </trkpt>
      <trkpt lat="39.0278610" lon="1.2979050">
        <ele>127.4</ele>
        <time>2020-02-22T10:13:55Z</time>
      </trkpt>
      <trkpt lat="39.0278710" lon="1.2979200">
        <ele>127.4</ele>
        <time>2020-02-22T10:13:56Z</time>
      </trkpt>
      <trkpt lat="39.0278760" lon="1.2979300">
        <ele>127.3</ele>
        <time>2020-02-22T10:13:57Z</time>
      </trkpt>
      <trkpt lat="39.0278800" lon="1.2979450">
        <ele>127.2</ele>
        <time>2020-02-22T10:13:58Z</time>
      </trkpt>
      <trkpt lat="39.0278860" lon="1.2979460">
        <ele>127.2</ele>
        <time>2020-02-22T10:13:59Z</time>
      </trkpt>
      <trkpt lat="39.0278940" lon="1.2979600">
        <ele>127.1</ele>
        <time>2020-02-22T10:14:00Z</time>
      </trkpt>
      <trkpt lat="39.0279010" lon="1.2979790">
        <ele>127.0</ele>
        <time>2020-02-22T10:14:01Z</time>
      </trkpt>
      <trkpt lat="39.0279090" lon="1.2979920">
        <ele>127.0</ele>
        <time>2020-02-22T10:14:02Z</time>
      </trkpt>
      <trkpt lat="39.0279160" lon="1.2980050">
        <ele>127.0</ele>
        <time>2020-02-22T10:14:03Z</time>
      </trkpt>
      <trkpt lat="39.0279150" lon="1.2980190">
        <ele>127.0</ele>
        <time>2020-02-22T10:14:04Z</time>
      </trkpt>
      <trkpt lat="39.0279220" lon="1.2980500">
        <ele>127.1</ele>
        <time>2020-02-22T10:14:05Z</time>
      </trkpt>
      <trkpt lat="39.0279300" lon="1.2980600">
        <ele>127.2</ele>
        <time>2020-02-22T10:14:06Z</time>
      </trkpt>
      <trkpt lat="39.0279370" lon="1.2980710">
        <ele>127.2</ele>
        <time>2020-02-22T10:14:07Z</time>
      </trkpt>
      <trkpt lat="39.0279380" lon="1.2981020">
        <ele>127.2</ele>
        <time>2020-02-22T10:14:08Z</time>
      </trkpt>
      <trkpt lat="39.0279390" lon="1.2981160">
        <ele>127.2</ele>
        <time>2020-02-22T10:14:09Z</time>
      </trkpt>
      <trkpt lat="39.0279400" lon="1.2981310">
        <ele>127.2</ele>
        <time>2020-02-22T10:14:10Z</time>
      </trkpt>
      <trkpt lat="39.0279470" lon="1.2981460">
        <ele>127.2</ele>
        <time>2020-02-22T10:14:11Z</time>
      </trkpt>
      <trkpt lat="39.0279570" lon="1.2981680">
        <ele>127.2</ele>
        <time>2020-02-22T10:14:12Z</time>
      </trkpt>
      <trkpt lat="39.0279630" lon="1.2981790">
        <ele>127.2</ele>
        <time>2020-02-22T10:14:13Z</time>
      </trkpt>
      <trkpt lat="39.0279660" lon="1.2981980">
        <ele>127.3</ele>
        <time>2020-02-22T10:14:14Z</time>
      </trkpt>
      <trkpt lat="39.0279660" lon="1.2982110">
        <ele>127.3</ele>
        <time>2020-02-22T10:14:15Z</time>
      </trkpt>
      <trkpt lat="39.0279710" lon="1.2982340">
        <ele>127.3</ele>
        <time>2020-02-22T10:14:16Z</time>
      </trkpt>
      <trkpt lat="39.0279720" lon="1.2982540">
        <ele>127.4</ele>
        <time>2020-02-22T10:14:17Z</time>
      </trkpt>
      <trkpt lat="39.0279700" lon="1.2982710">
        <ele>127.4</ele>
        <time>2020-02-22T10:14:18Z</time>
      </trkpt>
      <trkpt lat="39.0279740" lon="1.2982990">
        <ele>127.4</ele>
        <time>2020-02-22T10:14:19Z</time>
      </trkpt>
      <trkpt lat="39.0279900" lon="1.2983340">
        <ele>127.4</ele>
        <time>2020-02-22T10:14:20Z</time>
      </trkpt>
      <trkpt lat="39.0279950" lon="1.2983420">
        <ele>127.3</ele>
        <time>2020-02-22T10:14:21Z</time>
      </trkpt>
      <trkpt lat="39.0280140" lon="1.2983750">
        <ele>127.1</ele>
        <time>2020-02-22T10:14:22Z</time>
      </trkpt>
      <trkpt lat="39.0280190" lon="1.2983850">
        <ele>127.0</ele>
        <time>2020-02-22T10:14:23Z</time>
      </trkpt>
      <trkpt lat="39.0280190" lon="1.2983930">
        <ele>126.9</ele>
        <time>2020-02-22T10:14:24Z</time>
      </trkpt>
      <trkpt lat="39.0280210" lon="1.2984060">
        <ele>126.8</ele>
        <time>2020-02-22T10:14:25Z</time>
      </trkpt>
      <trkpt lat="39.0280270" lon="1.2984250">
        <ele>126.7</ele>
        <time>2020-02-22T10:14:26Z</time>
      </trkpt>
      <trkpt lat="39.0280370" lon="1.2984630">
        <ele>126.4</ele>
        <time>2020-02-22T10:14:27Z</time>
      </trkpt>
      <trkpt lat="39.0280390" lon="1.2984700">
        <ele>126.4</ele>
        <time>2020-02-22T10:14:28Z</time>
      </trkpt>
      <trkpt lat="39.0280390" lon="1.2984800">
        <ele>126.3</ele>
        <time>2020-02-22T10:14:29Z</time>
      </trkpt>
      <trkpt lat="39.0280410" lon="1.2984990">
        <ele>126.2</ele>
        <time>2020-02-22T10:14:30Z</time>
      </trkpt>
      <trkpt lat="39.0280530" lon="1.2985100">
        <ele>126.1</ele>
        <time>2020-02-22T10:14:31Z</time>
      </trkpt>
      <trkpt lat="39.0280600" lon="1.2985270">
        <ele>126.0</ele>
        <time>2020-02-22T10:14:32Z</time>
      </trkpt>
      <trkpt lat="39.0280610" lon="1.2985370">
        <ele>125.9</ele>
        <time>2020-02-22T10:14:33Z</time>
      </trkpt>
      <trkpt lat="39.0280620" lon="1.2985480">
        <ele>125.9</ele>
        <time>2020-02-22T10:14:34Z</time>
      </trkpt>
      <trkpt lat="39.0280630" lon="1.2985580">
        <ele>125.8</ele>
        <time>2020-02-22T10:14:35Z</time>
      </trkpt>
      <trkpt lat="39.0280680" lon="1.2985780">
        <ele>125.7</ele>
        <time>2020-02-22T10:14:36Z</time>
      </trkpt>
      <trkpt lat="39.0280630" lon="1.2985950">
        <ele>125.7</ele>
        <time>2020-02-22T10:14:37Z</time>
      </trkpt>
      <trkpt lat="39.0280680" lon="1.2986170">
        <ele>125.7</ele>
        <time>2020-02-22T10:14:38Z</time>
      </trkpt>
      <trkpt lat="39.0280720" lon="1.2986290">
        <ele>125.7</ele>
        <time>2020-02-22T10:14:39Z</time>
      </trkpt>
      <trkpt lat="39.0280750" lon="1.2986420">
        <ele>125.6</ele>
        <time>2020-02-22T10:14:40Z</time>
      </trkpt>
      <trkpt lat="39.0280850" lon="1.2986580">
        <ele>125.6</ele>
        <time>2020-02-22T10:14:41Z</time>
      </trkpt>
      <trkpt lat="39.0281000" lon="1.2986710">
        <ele>125.5</ele>
        <time>2020-02-22T10:14:42Z</time>
      </trkpt>
      <trkpt lat="39.0281090" lon="1.2986850">
        <ele>125.5</ele>
        <time>2020-02-22T10:14:43Z</time>
      </trkpt>
      <trkpt lat="39.0281260" lon="1.2987010">
        <ele>125.5</ele>
        <time>2020-02-22T10:14:44Z</time>
      </trkpt>
      <trkpt lat="39.0281430" lon="1.2987360">
        <ele>125.4</ele>
        <time>2020-02-22T10:14:45Z</time>
      </trkpt>
      <trkpt lat="39.0281470" lon="1.2987470">
        <ele>125.4</ele>
        <time>2020-02-22T10:14:46Z</time>
      </trkpt>
      <trkpt lat="39.0281530" lon="1.2987780">
        <ele>125.3</ele>
        <time>2020-02-22T10:14:47Z</time>
      </trkpt>
      <trkpt lat="39.0281520" lon="1.2987940">
        <ele>125.3</ele>
        <time>2020-02-22T10:14:48Z</time>
      </trkpt>
      <trkpt lat="39.0281510" lon="1.2988110">
        <ele>125.3</ele>
        <time>2020-02-22T10:14:49Z</time>
      </trkpt>
      <trkpt lat="39.0281580" lon="1.2988470">
        <ele>125.2</ele>
        <time>2020-02-22T10:14:50Z</time>
      </trkpt>
      <trkpt lat="39.0281600" lon="1.2988590">
        <ele>125.2</ele>
        <time>2020-02-22T10:14:51Z</time>
      </trkpt>
      <trkpt lat="39.0281770" lon="1.2988940">
        <ele>125.2</ele>
        <time>2020-02-22T10:14:52Z</time>
      </trkpt>
      <trkpt lat="39.0281840" lon="1.2989020">
        <ele>125.1</ele>
        <time>2020-02-22T10:14:53Z</time>
      </trkpt>
      <trkpt lat="39.0281930" lon="1.2989270">
        <ele>125.1</ele>
        <time>2020-02-22T10:14:54Z</time>
      </trkpt>
      <trkpt lat="39.0281960" lon="1.2989360">
        <ele>125.1</ele>
        <time>2020-02-22T10:14:55Z</time>
      </trkpt>
      <trkpt lat="39.0282000" lon="1.2989460">
        <ele>125.1</ele>
        <time>2020-02-22T10:14:56Z</time>
      </trkpt>
      <trkpt lat="39.0282070" lon="1.2989740">
        <ele>125.1</ele>
        <time>2020-02-22T10:14:57Z</time>
      </trkpt>
      <trkpt lat="39.0282060" lon="1.2989890">
        <ele>125.1</ele>
        <time>2020-02-22T10:14:58Z</time>
      </trkpt>
      <trkpt lat="39.0282040" lon="1.2990030">
        <ele>125.1</ele>
        <time>2020-02-22T10:14:59Z</time>
      </trkpt>
      <trkpt lat="39.0282030" lon="1.2990410">
        <ele>125.2</ele>
        <time>2020-02-22T10:15:00Z</time>
      </trkpt>
      <trkpt lat="39.0282050" lon="1.2990560">
        <ele>125.3</ele>
        <time>2020-02-22T10:15:01Z</time>
      </trkpt>
      <trkpt lat="39.0282030" lon="1.2990940">
        <ele>125.7</ele>
        <time>2020-02-22T10:15:02Z</time>
      </trkpt>
      <trkpt lat="39.0281970" lon="1.2991060">
        <ele>125.8</ele>
        <time>2020-02-22T10:15:03Z</time>
      </trkpt>
      <trkpt lat="39.0281860" lon="1.2991390">
        <ele>126.1</ele>
        <time>2020-02-22T10:15:04Z</time>
      </trkpt>
      <trkpt lat="39.0281800" lon="1.2991500">
        <ele>126.3</ele>
        <time>2020-02-22T10:15:05Z</time>
      </trkpt>
      <trkpt lat="39.0281750" lon="1.2991710">
        <ele>126.5</ele>
        <time>2020-02-22T10:15:06Z</time>
      </trkpt>
      <trkpt lat="39.0281700" lon="1.2991890">
        <ele>126.8</ele>
        <time>2020-02-22T10:15:07Z</time>
      </trkpt>
      <trkpt lat="39.0281690" lon="1.2992070">
        <ele>127.0</ele>
        <time>2020-02-22T10:15:08Z</time>
      </trkpt>
      <trkpt lat="39.0281640" lon="1.2992230">
        <ele>127.2</ele>
        <time>2020-02-22T10:15:09Z</time>
      </trkpt>
      <trkpt lat="39.0281480" lon="1.2992590">
        <ele>127.8</ele>
        <time>2020-02-22T10:15:10Z</time>
      </trkpt>
      <trkpt lat="39.0281400" lon="1.2992710">
        <ele>128.1</ele>
        <time>2020-02-22T10:15:11Z</time>
      </trkpt>
      <trkpt lat="39.0281300" lon="1.2992900">
        <ele>128.4</ele>
        <time>2020-02-22T10:15:12Z</time>
      </trkpt>
      <trkpt lat="39.0281230" lon="1.2993080">
        <ele>128.7</ele>
        <time>2020-02-22T10:15:13Z</time>
      </trkpt>
      <trkpt lat="39.0281190" lon="1.2993210">
        <ele>128.9</ele>
        <time>2020-02-22T10:15:14Z</time>
      </trkpt>
      <trkpt lat="39.0281160" lon="1.2993350">
        <ele>129.1</ele>
        <time>2020-02-22T10:15:15Z</time>
      </trkpt>
      <trkpt lat="39.0281150" lon="1.2993520">
        <ele>129.3</ele>
        <time>2020-02-22T10:15:16Z</time>
      </trkpt>
      <trkpt lat="39.0281220" lon="1.2993970">
        <ele>129.7</ele>
        <time>2020-02-22T10:15:17Z</time>
      </trkpt>
      <trkpt lat="39.0281260" lon="1.2994080">
        <ele>129.8</ele>
        <time>2020-02-22T10:15:18Z</time>
      </trkpt>
      <trkpt lat="39.0281300" lon="1.2994560">
        <ele>130.3</ele>
        <time>2020-02-22T10:15:19Z</time>
      </trkpt>
      <trkpt lat="39.0281320" lon="1.2994760">
        <ele>130.6</ele>
        <time>2020-02-22T10:15:20Z</time>
      </trkpt>
      <trkpt lat="39.0281450" lon="1.2995150">
        <ele>131.3</ele>
        <time>2020-02-22T10:15:21Z</time>
      </trkpt>
      <trkpt lat="39.0281490" lon="1.2995300">
        <ele>131.6</ele>
        <time>2020-02-22T10:15:22Z</time>
      </trkpt>
      <trkpt lat="39.0281690" lon="1.2995590">
        <ele>131.7</ele>
        <time>2020-02-22T10:15:23Z</time>
      </trkpt>
      <trkpt lat="39.0281910" lon="1.2995910">
        <ele>131.8</ele>
        <time>2020-02-22T10:15:24Z</time>
      </trkpt>
      <trkpt lat="39.0281990" lon="1.2996050">
        <ele>131.8</ele>
        <time>2020-02-22T10:15:25Z</time>
      </trkpt>
      <trkpt lat="39.0282180" lon="1.2996330">
        <ele>131.5</ele>
        <time>2020-02-22T10:15:26Z</time>
      </trkpt>
      <trkpt lat="39.0282220" lon="1.2996450">
        <ele>131.4</ele>
        <time>2020-02-22T10:15:27Z</time>
      </trkpt>
      <trkpt lat="39.0282350" lon="1.2996820">
        <ele>131.0</ele>
        <time>2020-02-22T10:15:28Z</time>
      </trkpt>
      <trkpt lat="39.0282390" lon="1.2996960">
        <ele>130.9</ele>
        <time>2020-02-22T10:15:29Z</time>
      </trkpt>
      <trkpt lat="39.0282410" lon="1.2997210">
        <ele>130.8</ele>
        <time>2020-02-22T10:15:30Z</time>
      </trkpt>
      <trkpt lat="39.0282400" lon="1.2997360">
        <ele>130.8</ele>
        <time>2020-02-22T10:15:31Z</time>
      </trkpt>
      <trkpt lat="39.0282560" lon="1.2997700">
        <ele>130.7</ele>
        <time>2020-02-22T10:15:32Z</time>
      </trkpt>
      <trkpt lat="39.0282590" lon="1.2997820">
        <ele>130.7</ele>
        <time>2020-02-22T10:15:33Z</time>
      </trkpt>
      <trkpt lat="39.0282690" lon="1.2998240">
        <ele>130.6</ele>
        <time>2020-02-22T10:15:34Z</time>
      </trkpt>
      <trkpt lat="39.0282810" lon="1.2998600">
        <ele>130.6</ele>
        <time>2020-02-22T10:15:35Z</time>
      </trkpt>
      <trkpt lat="39.0282850" lon="1.2998700">
        <ele>130.6</ele>
        <time>2020-02-22T10:15:36Z</time>
      </trkpt>
      <trkpt lat="39.0283020" lon="1.2999080">
        <ele>130.5</ele>
        <time>2020-02-22T10:15:37Z</time>
      </trkpt>
      <trkpt lat="39.0283090" lon="1.2999180">
        <ele>130.5</ele>
        <time>2020-02-22T10:15:38Z</time>
      </trkpt>
      <trkpt lat="39.0283230" lon="1.2999470">
        <ele>130.4</ele>
        <time>2020-02-22T10:15:39Z</time>
      </trkpt>
      <trkpt lat="39.0283370" lon="1.2999800">
        <ele>130.5</ele>
        <time>2020-02-22T10:15:40Z</time>
      </trkpt>
      <trkpt lat="39.0283400" lon="1.2999920">
        <ele>130.6</ele>
        <time>2020-02-22T10:15:41Z</time>
      </trkpt>
      <trkpt lat="39.0283420" lon="1.3000290">
        <ele>130.9</ele>
        <time>2020-02-22T10:15:42Z</time>
      </trkpt>
      <trkpt lat="39.0283440" lon="1.3000410">
        <ele>131.0</ele>
        <time>2020-02-22T10:15:43Z</time>
      </trkpt>
      <trkpt lat="39.0283530" lon="1.3000810">
        <ele>131.1</ele>
        <time>2020-02-22T10:15:44Z</time>
      </trkpt>
      <trkpt lat="39.0283560" lon="1.3000990">
        <ele>131.1</ele>
        <time>2020-02-22T10:15:45Z</time>
      </trkpt>
      <trkpt lat="39.0283610" lon="1.3001340">
        <ele>131.1</ele>
        <time>2020-02-22T10:15:46Z</time>
      </trkpt>
      <trkpt lat="39.0283730" lon="1.3001750">
        <ele>131.1</ele>
        <time>2020-02-22T10:15:47Z</time>
      </trkpt>
      <trkpt lat="39.0283770" lon="1.3001870">
        <ele>131.2</ele>
        <time>2020-02-22T10:15:48Z</time>
      </trkpt>
      <trkpt lat="39.0283860" lon="1.3002240">
        <ele>131.3</ele>
        <time>2020-02-22T10:15:49Z</time>
      </trkpt>
      <trkpt lat="39.0283880" lon="1.3002350">
        <ele>131.4</ele>
        <time>2020-02-22T10:15:50Z</time>
      </trkpt>
      <trkpt lat="39.0283840" lon="1.3002590">
        <ele>131.5</ele>
        <time>2020-02-22T10:15:51Z</time>
      </trkpt>
      <trkpt lat="39.0283910" lon="1.3002730">
        <ele>131.5</ele>
        <time>2020-02-22T10:15:52Z</time>
      </trkpt>
      <trkpt lat="39.0283930" lon="1.3002920">
        <ele>131.6</ele>
        <time>2020-02-22T10:15:53Z</time>
      </trkpt>
      <trkpt lat="39.0283970" lon="1.3003160">
        <ele>131.7</ele>
        <time>2020-02-22T10:15:54Z</time>
      </trkpt>
      <trkpt lat="39.0284030" lon="1.3003350">
        <ele>131.8</ele>
        <time>2020-02-22T10:15:55Z</time>
      </trkpt>
      <trkpt lat="39.0284120" lon="1.3003450">
        <ele>131.8</ele>
        <time>2020-02-22T10:15:56Z</time>
      </trkpt>
      <trkpt lat="39.0284170" lon="1.3003690">
        <ele>131.7</ele>
        <time>2020-02-22T10:15:57Z</time>
      </trkpt>
      <trkpt lat="39.0284180" lon="1.3003880">
        <ele>131.6</ele>
        <time>2020-02-22T10:15:58Z</time>
      </trkpt>
      <trkpt lat="39.0284250" lon="1.3004240">
        <ele>131.3</ele>
        <time>2020-02-22T10:15:59Z</time>
      </trkpt>
      <trkpt lat="39.0284240" lon="1.3004370">
        <ele>131.2</ele>
        <time>2020-02-22T10:16:00Z</time>
      </trkpt>
      <trkpt lat="39.0284240" lon="1.3004590">
        <ele>131.1</ele>
        <time>2020-02-22T10:16:01Z</time>
      </trkpt>
      <trkpt lat="39.0284290" lon="1.3004820">
        <ele>130.9</ele>
        <time>2020-02-22T10:16:02Z</time>
      </trkpt>
      <trkpt lat="39.0284280" lon="1.3005170">
        <ele>130.7</ele>
        <time>2020-02-22T10:16:03Z</time>
      </trkpt>
      <trkpt lat="39.0284260" lon="1.3005290">
        <ele>130.6</ele>
        <time>2020-02-22T10:16:04Z</time>
      </trkpt>
      <trkpt lat="39.0284210" lon="1.3005680">
        <ele>131.0</ele>
        <time>2020-02-22T10:16:05Z</time>
      </trkpt>
      <trkpt lat="39.0284230" lon="1.3005820">
        <ele>131.2</ele>
        <time>2020-02-22T10:16:06Z</time>
      </trkpt>
      <trkpt lat="39.0284250" lon="1.3006030">
        <ele>131.5</ele>
        <time>2020-02-22T10:16:07Z</time>
      </trkpt>
      <trkpt lat="39.0284250" lon="1.3006270">
        <ele>131.9</ele>
        <time>2020-02-22T10:16:08Z</time>
      </trkpt>
      <trkpt lat="39.0284150" lon="1.3006740">
        <ele>132.2</ele>
        <time>2020-02-22T10:16:09Z</time>
      </trkpt>
      <trkpt lat="39.0284100" lon="1.3006870">
        <ele>132.2</ele>
        <time>2020-02-22T10:16:10Z</time>
      </trkpt>
      <trkpt lat="39.0284070" lon="1.3007280">
        <ele>132.3</ele>
        <time>2020-02-22T10:16:11Z</time>
      </trkpt>
      <trkpt lat="39.0284070" lon="1.3007400">
        <ele>132.4</ele>
        <time>2020-02-22T10:16:12Z</time>
      </trkpt>
      <trkpt lat="39.0284120" lon="1.3007950">
        <ele>132.6</ele>
        <time>2020-02-22T10:16:13Z</time>
      </trkpt>
      <trkpt lat="39.0284120" lon="1.3008400">
        <ele>132.8</ele>
        <time>2020-02-22T10:16:14Z</time>
      </trkpt>
      <trkpt lat="39.0284130" lon="1.3008550">
        <ele>132.8</ele>
        <time>2020-02-22T10:16:15Z</time>
      </trkpt>
      <trkpt lat="39.0284170" lon="1.3008900">
        <ele>132.9</ele>
        <time>2020-02-22T10:16:16Z</time>
      </trkpt>
      <trkpt lat="39.0284220" lon="1.3009290">
        <ele>133.0</ele>
        <time>2020-02-22T10:16:17Z</time>
      </trkpt>
      <trkpt lat="39.0284250" lon="1.3009430">
        <ele>133.0</ele>
        <time>2020-02-22T10:16:18Z</time>
      </trkpt>
      <trkpt lat="39.0284370" lon="1.3009790">
        <ele>133.0</ele>
        <time>2020-02-22T10:16:19Z</time>
      </trkpt>
      <trkpt lat="39.0284420" lon="1.3009920">
        <ele>132.9</ele>
        <time>2020-02-22T10:16:20Z</time>
      </trkpt>
      <trkpt lat="39.0284520" lon="1.3010320">
        <ele>132.7</ele>
        <time>2020-02-22T10:16:21Z</time>
      </trkpt>
      <trkpt lat="39.0284550" lon="1.3010430">
        <ele>132.6</ele>
        <time>2020-02-22T10:16:22Z</time>
      </trkpt>
      <trkpt lat="39.0284660" lon="1.3010730">
        <ele>132.5</ele>
        <time>2020-02-22T10:16:23Z</time>
      </trkpt>
      <trkpt lat="39.0284730" lon="1.3010860">
        <ele>132.4</ele>
        <time>2020-02-22T10:16:24Z</time>
      </trkpt>
      <trkpt lat="39.0284800" lon="1.3011260">
        <ele>132.2</ele>
        <time>2020-02-22T10:16:25Z</time>
      </trkpt>
      <trkpt lat="39.0284810" lon="1.3011350">
        <ele>132.1</ele>
        <time>2020-02-22T10:16:26Z</time>
      </trkpt>
      <trkpt lat="39.0284850" lon="1.3011500">
        <ele>132.0</ele>
        <time>2020-02-22T10:16:27Z</time>
      </trkpt>
      <trkpt lat="39.0284920" lon="1.3011790">
        <ele>131.9</ele>
        <time>2020-02-22T10:16:28Z</time>
      </trkpt>
      <trkpt lat="39.0284930" lon="1.3012250">
        <ele>131.9</ele>
        <time>2020-02-22T10:16:29Z</time>
      </trkpt>
      <trkpt lat="39.0284940" lon="1.3012430">
        <ele>131.9</ele>
        <time>2020-02-22T10:16:30Z</time>
      </trkpt>
      <trkpt lat="39.0285070" lon="1.3012840">
        <ele>131.9</ele>
        <time>2020-02-22T10:16:31Z</time>
      </trkpt>
      <trkpt lat="39.0285100" lon="1.3012980">
        <ele>131.9</ele>
        <time>2020-02-22T10:16:32Z</time>
      </trkpt>
      <trkpt lat="39.0285170" lon="1.3013480">
        <ele>131.6</ele>
        <time>2020-02-22T10:16:33Z</time>
      </trkpt>
      <trkpt lat="39.0285280" lon="1.3013930">
        <ele>131.4</ele>
        <time>2020-02-22T10:16:34Z</time>
      </trkpt>
      <trkpt lat="39.0285310" lon="1.3014060">
        <ele>131.3</ele>
        <time>2020-02-22T10:16:35Z</time>
      </trkpt>
      <trkpt lat="39.0285270" lon="1.3014470">
        <ele>131.3</ele>
        <time>2020-02-22T10:16:36Z</time>
      </trkpt>
      <trkpt lat="39.0285260" lon="1.3014570">
        <ele>131.3</ele>
        <time>2020-02-22T10:16:37Z</time>
      </trkpt>
      <trkpt lat="39.0285280" lon="1.3015000">
        <ele>131.3</ele>
        <time>2020-02-22T10:16:38Z</time>
      </trkpt>
      <trkpt lat="39.0285290" lon="1.3015190">
        <ele>131.3</ele>
        <time>2020-02-22T10:16:39Z</time>
      </trkpt>
      <trkpt lat="39.0285290" lon="1.3015620">
        <ele>131.2</ele>
        <time>2020-02-22T10:16:40Z</time>
      </trkpt>
      <trkpt lat="39.0285300" lon="1.3015760">
        <ele>131.2</ele>
        <time>2020-02-22T10:16:41Z</time>
      </trkpt>
      <trkpt lat="39.0285270" lon="1.3016220">
        <ele>131.1</ele>
        <time>2020-02-22T10:16:42Z</time>
      </trkpt>
      <trkpt lat="39.0285280" lon="1.3016360">
        <ele>131.2</ele>
        <time>2020-02-22T10:16:43Z</time>
      </trkpt>
      <trkpt lat="39.0285240" lon="1.3016730">
        <ele>131.3</ele>
        <time>2020-02-22T10:16:44Z</time>
      </trkpt>
      <trkpt lat="39.0285200" lon="1.3016870">
        <ele>131.4</ele>
        <time>2020-02-22T10:16:45Z</time>
      </trkpt>
      <trkpt lat="39.0285120" lon="1.3017270">
        <ele>131.6</ele>
        <time>2020-02-22T10:16:46Z</time>
      </trkpt>
      <trkpt lat="39.0285080" lon="1.3017450">
        <ele>131.7</ele>
        <time>2020-02-22T10:16:47Z</time>
      </trkpt>
      <trkpt lat="39.0285020" lon="1.3017840">
        <ele>131.9</ele>
        <time>2020-02-22T10:16:48Z</time>
      </trkpt>
      <trkpt lat="39.0284980" lon="1.3017970">
        <ele>132.0</ele>
        <time>2020-02-22T10:16:49Z</time>
      </trkpt>
      <trkpt lat="39.0284850" lon="1.3018440">
        <ele>132.3</ele>
        <time>2020-02-22T10:16:50Z</time>
      </trkpt>
      <trkpt lat="39.0284830" lon="1.3018610">
        <ele>132.4</ele>
        <time>2020-02-22T10:16:51Z</time>
      </trkpt>
      <trkpt lat="39.0284790" lon="1.3019020">
        <ele>132.6</ele>
        <time>2020-02-22T10:16:52Z</time>
      </trkpt>
      <trkpt lat="39.0284750" lon="1.3019120">
        <ele>132.6</ele>
        <time>2020-02-22T10:16:53Z</time>
      </trkpt>
      <trkpt lat="39.0284580" lon="1.3019450">
        <ele>132.7</ele>
        <time>2020-02-22T10:16:54Z</time>
      </trkpt>
      <trkpt lat="39.0284510" lon="1.3019570">
        <ele>132.7</ele>
        <time>2020-02-22T10:16:55Z</time>
      </trkpt>
      <trkpt lat="39.0284450" lon="1.3019990">
        <ele>132.6</ele>
        <time>2020-02-22T10:16:56Z</time>
      </trkpt>
      <trkpt lat="39.0284410" lon="1.3020140">
        <ele>132.6</ele>
        <time>2020-02-22T10:16:57Z</time>
      </trkpt>
      <trkpt lat="39.0284260" lon="1.3020560">
        <ele>132.7</ele>
        <time>2020-02-22T10:16:58Z</time>
      </trkpt>
      <trkpt lat="39.0284190" lon="1.3020700">
        <ele>132.7</ele>
        <time>2020-02-22T10:16:59Z</time>
      </trkpt>
      <trkpt lat="39.0284070" lon="1.3021020">
        <ele>132.8</ele>
        <time>2020-02-22T10:17:00Z</time>
      </trkpt>
      <trkpt lat="39.0283920" lon="1.3021340">
        <ele>132.9</ele>
        <time>2020-02-22T10:17:01Z</time>
      </trkpt>
      <trkpt lat="39.0283730" lon="1.3021610">
        <ele>133.0</ele>
        <time>2020-02-22T10:17:02Z</time>
      </trkpt>
      <trkpt lat="39.0283480" lon="1.3021980">
        <ele>133.1</ele>
        <time>2020-02-22T10:17:03Z</time>
      </trkpt>
      <trkpt lat="39.0283400" lon="1.3022110">
        <ele>133.2</ele>
        <time>2020-02-22T10:17:04Z</time>
      </trkpt>
      <trkpt lat="39.0283190" lon="1.3022550">
        <ele>133.4</ele>
        <time>2020-02-22T10:17:05Z</time>
      </trkpt>
      <trkpt lat="39.0283110" lon="1.3022710">
        <ele>133.5</ele>
        <time>2020-02-22T10:17:06Z</time>
      </trkpt>
      <trkpt lat="39.0282970" lon="1.3023060">
        <ele>133.7</ele>
        <time>2020-02-22T10:17:07Z</time>
      </trkpt>
      <trkpt lat="39.0282830" lon="1.3023400">
        <ele>133.9</ele>
        <time>2020-02-22T10:17:08Z</time>
      </trkpt>
      <trkpt lat="39.0282580" lon="1.3023730">
        <ele>134.2</ele>
        <time>2020-02-22T10:17:09Z</time>
      </trkpt>
      <trkpt lat="39.0282470" lon="1.3023830">
        <ele>134.2</ele>
        <time>2020-02-22T10:17:10Z</time>
      </trkpt>
      <trkpt lat="39.0282250" lon="1.3024070">
        <ele>134.1</ele>
        <time>2020-02-22T10:17:11Z</time>
      </trkpt>
      <trkpt lat="39.0281970" lon="1.3024330">
        <ele>134.0</ele>
        <time>2020-02-22T10:17:12Z</time>
      </trkpt>
      <trkpt lat="39.0281860" lon="1.3024420">
        <ele>134.0</ele>
        <time>2020-02-22T10:17:13Z</time>
      </trkpt>
      <trkpt lat="39.0281650" lon="1.3024700">
        <ele>133.9</ele>
        <time>2020-02-22T10:17:14Z</time>
      </trkpt>
      <trkpt lat="39.0281570" lon="1.3024810">
        <ele>133.9</ele>
        <time>2020-02-22T10:17:15Z</time>
      </trkpt>
      <trkpt lat="39.0281380" lon="1.3025080">
        <ele>133.9</ele>
        <time>2020-02-22T10:17:16Z</time>
      </trkpt>
      <trkpt lat="39.0281300" lon="1.3025170">
        <ele>133.9</ele>
        <time>2020-02-22T10:17:17Z</time>
      </trkpt>
      <trkpt lat="39.0281150" lon="1.3025520">
        <ele>133.4</ele>
        <time>2020-02-22T10:17:18Z</time>
      </trkpt>
      <trkpt lat="39.0281100" lon="1.3025620">
        <ele>133.3</ele>
        <time>2020-02-22T10:17:19Z</time>
      </trkpt>
      <trkpt lat="39.0281010" lon="1.3026010">
        <ele>132.7</ele>
        <time>2020-02-22T10:17:20Z</time>
      </trkpt>
      <trkpt lat="39.0280990" lon="1.3026120">
        <ele>132.6</ele>
        <time>2020-02-22T10:17:21Z</time>
      </trkpt>
      <trkpt lat="39.0280950" lon="1.3026270">
        <ele>132.4</ele>
        <time>2020-02-22T10:17:22Z</time>
      </trkpt>
      <trkpt lat="39.0280910" lon="1.3026380">
        <ele>132.3</ele>
        <time>2020-02-22T10:17:23Z</time>
      </trkpt>
      <trkpt lat="39.0280900" lon="1.3026400">
        <ele>132.2</ele>
        <time>2020-02-22T10:17:24Z</time>
      </trkpt>
      <trkpt lat="39.0280890" lon="1.3026420">
        <ele>132.2</ele>
        <time>2020-02-22T10:17:25Z</time>
      </trkpt>
      <trkpt lat="39.0280880" lon="1.3026440">
        <ele>132.2</ele>
        <time>2020-02-22T10:17:26Z</time>
      </trkpt>
      <trkpt lat="39.0280880" lon="1.3026450">
        <ele>132.2</ele>
        <time>2020-02-22T10:17:27Z</time>
      </trkpt>
      <trkpt lat="39.0280830" lon="1.3026680">
        <ele>131.9</ele>
        <time>2020-02-22T10:17:28Z</time>
      </trkpt>
      <trkpt lat="39.0280770" lon="1.3026870">
        <ele>131.7</ele>
        <time>2020-02-22T10:17:29Z</time>
      </trkpt>
      <trkpt lat="39.0280710" lon="1.3027070">
        <ele>131.4</ele>
        <time>2020-02-22T10:17:30Z</time>
      </trkpt>
      <trkpt lat="39.0280650" lon="1.3027260">
        <ele>131.4</ele>
        <time>2020-02-22T10:17:31Z</time>
      </trkpt>
      <trkpt lat="39.0280590" lon="1.3027460">
        <ele>131.5</ele>
        <time>2020-02-22T10:17:32Z</time>
      </trkpt>
      <trkpt lat="39.0280530" lon="1.3027650">
        <ele>131.6</ele>
        <time>2020-02-22T10:19:13Z</time>
      </trkpt>
      <trkpt lat="39.0280470" lon="1.3027850">
        <ele>131.6</ele>
        <time>2020-02-22T10:19:14Z</time>
      </trkpt>
      <trkpt lat="39.0280360" lon="1.3028180">
        <ele>131.7</ele>
        <time>2020-02-22T10:19:15Z</time>
      </trkpt>
      <trkpt lat="39.0280280" lon="1.3028580">
        <ele>131.7</ele>
        <time>2020-02-22T10:19:16Z</time>
      </trkpt>
      <trkpt lat="39.0280280" lon="1.3028690">
        <ele>131.7</ele>
        <time>2020-02-22T10:19:17Z</time>
      </trkpt>
      <trkpt lat="39.0280320" lon="1.3028800">
        <ele>131.7</ele>
        <time>2020-02-22T10:19:18Z</time>
      </trkpt>
      <trkpt lat="39.0280130" lon="1.3028930">
        <ele>131.3</ele>
        <time>2020-02-22T10:19:19Z</time>
      </trkpt>
      <trkpt lat="39.0280110" lon="1.3029070">
        <ele>131.1</ele>
        <time>2020-02-22T10:19:20Z</time>
      </trkpt>
      <trkpt lat="39.0280130" lon="1.3029230">
        <ele>130.9</ele>
        <time>2020-02-22T10:19:21Z</time>
      </trkpt>
      <trkpt lat="39.0280120" lon="1.3029450">
        <ele>130.6</ele>
        <time>2020-02-22T10:19:22Z</time>
      </trkpt>
      <trkpt lat="39.0279960" lon="1.3029880">
        <ele>130.2</ele>
        <time>2020-02-22T10:19:23Z</time>
      </trkpt>
      <trkpt lat="39.0279880" lon="1.3030000">
        <ele>130.0</ele>
        <time>2020-02-22T10:19:24Z</time>
      </trkpt>
      <trkpt lat="39.0279690" lon="1.3030260">
        <ele>129.7</ele>
        <time>2020-02-22T10:19:25Z</time>
      </trkpt>
      <trkpt lat="39.0279620" lon="1.3030330">
        <ele>129.6</ele>
        <time>2020-02-22T10:19:26Z</time>
      </trkpt>
      <trkpt lat="39.0279450" lon="1.3030620">
        <ele>129.3</ele>
        <time>2020-02-22T10:19:27Z</time>
      </trkpt>
      <trkpt lat="39.0279240" lon="1.3030920">
        <ele>129.1</ele>
        <time>2020-02-22T10:19:28Z</time>
      </trkpt>
      <trkpt lat="39.0279070" lon="1.3031270">
        <ele>128.8</ele>
        <time>2020-02-22T10:19:29Z</time>
      </trkpt>
      <trkpt lat="39.0279010" lon="1.3031340">
        <ele>128.8</ele>
        <time>2020-02-22T10:19:30Z</time>
      </trkpt>
      <trkpt lat="39.0278930" lon="1.3031470">
        <ele>128.8</ele>
        <time>2020-02-22T10:19:31Z</time>
      </trkpt>
      <trkpt lat="39.0278850" lon="1.3031700">
        <ele>128.8</ele>
        <time>2020-02-22T10:19:32Z</time>
      </trkpt>
      <trkpt lat="39.0278750" lon="1.3032120">
        <ele>128.7</ele>
        <time>2020-02-22T10:19:33Z</time>
      </trkpt>
      <trkpt lat="39.0278710" lon="1.3032260">
        <ele>128.7</ele>
        <time>2020-02-22T10:19:34Z</time>
      </trkpt>
      <trkpt lat="39.0278570" lon="1.3032590">
        <ele>129.0</ele>
        <time>2020-02-22T10:19:35Z</time>
      </trkpt>
      <trkpt lat="39.0278510" lon="1.3032690">
        <ele>129.1</ele>
        <time>2020-02-22T10:19:36Z</time>
      </trkpt>
      <trkpt lat="39.0278320" lon="1.3032990">
        <ele>129.4</ele>
        <time>2020-02-22T10:19:37Z</time>
      </trkpt>
      <trkpt lat="39.0278140" lon="1.3033420">
        <ele>129.8</ele>
        <time>2020-02-22T10:19:38Z</time>
      </trkpt>
      <trkpt lat="39.0278080" lon="1.3033560">
        <ele>130.0</ele>
        <time>2020-02-22T10:19:39Z</time>
      </trkpt>
      <trkpt lat="39.0277930" lon="1.3033890">
        <ele>130.4</ele>
        <time>2020-02-22T10:19:40Z</time>
      </trkpt>
      <trkpt lat="39.0277860" lon="1.3034250">
        <ele>130.7</ele>
        <time>2020-02-22T10:19:41Z</time>
      </trkpt>
      <trkpt lat="39.0277730" lon="1.3034560">
        <ele>130.9</ele>
        <time>2020-02-22T10:19:42Z</time>
      </trkpt>
      <trkpt lat="39.0277500" lon="1.3034810">
        <ele>131.1</ele>
        <time>2020-02-22T10:19:43Z</time>
      </trkpt>
      <trkpt lat="39.0277260" lon="1.3035050">
        <ele>131.1</ele>
        <time>2020-02-22T10:19:44Z</time>
      </trkpt>
      <trkpt lat="39.0277060" lon="1.3035330">
        <ele>130.7</ele>
        <time>2020-02-22T10:19:45Z</time>
      </trkpt>
      <trkpt lat="39.0276840" lon="1.3035730">
        <ele>130.2</ele>
        <time>2020-02-22T10:19:46Z</time>
      </trkpt>
      <trkpt lat="39.0276760" lon="1.3035860">
        <ele>130.1</ele>
        <time>2020-02-22T10:19:47Z</time>
      </trkpt>
      <trkpt lat="39.0276590" lon="1.3036140">
        <ele>129.5</ele>
        <time>2020-02-22T10:19:48Z</time>
      </trkpt>
      <trkpt lat="39.0276440" lon="1.3036530">
        <ele>128.9</ele>
        <time>2020-02-22T10:19:49Z</time>
      </trkpt>
      <trkpt lat="39.0276370" lon="1.3036670">
        <ele>128.7</ele>
        <time>2020-02-22T10:19:50Z</time>
      </trkpt>
      <trkpt lat="39.0276150" lon="1.3037150">
        <ele>128.4</ele>
        <time>2020-02-22T10:19:51Z</time>
      </trkpt>
      <trkpt lat="39.0276040" lon="1.3037330">
        <ele>128.4</ele>
        <time>2020-02-22T10:19:52Z</time>
      </trkpt>
      <trkpt lat="39.0275880" lon="1.3037720">
        <ele>128.3</ele>
        <time>2020-02-22T10:19:53Z</time>
      </trkpt>
      <trkpt lat="39.0275830" lon="1.3037850">
        <ele>128.5</ele>
        <time>2020-02-22T10:19:54Z</time>
      </trkpt>
      <trkpt lat="39.0275710" lon="1.3038110">
        <ele>128.8</ele>
        <time>2020-02-22T10:19:55Z</time>
      </trkpt>
      <trkpt lat="39.0275670" lon="1.3038250">
        <ele>128.9</ele>
        <time>2020-02-22T10:19:56Z</time>
      </trkpt>
      <trkpt lat="39.0275630" lon="1.3038380">
        <ele>129.0</ele>
        <time>2020-02-22T10:19:57Z</time>
      </trkpt>
      <trkpt lat="39.0275480" lon="1.3038720">
        <ele>129.4</ele>
        <time>2020-02-22T10:19:58Z</time>
      </trkpt>
      <trkpt lat="39.0275420" lon="1.3038830">
        <ele>129.6</ele>
        <time>2020-02-22T10:19:59Z</time>
      </trkpt>
      <trkpt lat="39.0275360" lon="1.3039210">
        <ele>130.1</ele>
        <time>2020-02-22T10:20:00Z</time>
      </trkpt>
      <trkpt lat="39.0275250" lon="1.3039620">
        <ele>130.7</ele>
        <time>2020-02-22T10:20:01Z</time>
      </trkpt>
      <trkpt lat="39.0275210" lon="1.3039730">
        <ele>130.8</ele>
        <time>2020-02-22T10:20:02Z</time>
      </trkpt>
      <trkpt lat="39.0275090" lon="1.3040050">
        <ele>131.3</ele>
        <time>2020-02-22T10:20:03Z</time>
      </trkpt>
      <trkpt lat="39.0274940" lon="1.3040420">
        <ele>131.8</ele>
        <time>2020-02-22T10:20:04Z</time>
      </trkpt>
      <trkpt lat="39.0274880" lon="1.3040530">
        <ele>132.0</ele>
        <time>2020-02-22T10:20:05Z</time>
      </trkpt>
      <trkpt lat="39.0274830" lon="1.3040730">
        <ele>132.3</ele>
        <time>2020-02-22T10:20:06Z</time>
      </trkpt>
      <trkpt lat="39.0274750" lon="1.3040920">
        <ele>132.6</ele>
        <time>2020-02-22T10:20:07Z</time>
      </trkpt>
      <trkpt lat="39.0274600" lon="1.3041330">
        <ele>133.2</ele>
        <time>2020-02-22T10:20:08Z</time>
      </trkpt>
      <trkpt lat="39.0274560" lon="1.3041470">
        <ele>133.5</ele>
        <time>2020-02-22T10:20:09Z</time>
      </trkpt>
      <trkpt lat="39.0274500" lon="1.3041670">
        <ele>133.8</ele>
        <time>2020-02-22T10:20:10Z</time>
      </trkpt>
      <trkpt lat="39.0274430" lon="1.3041850">
        <ele>134.4</ele>
        <time>2020-02-22T10:20:11Z</time>
      </trkpt>
      <trkpt lat="39.0274270" lon="1.3042140">
        <ele>136.1</ele>
        <time>2020-02-22T10:20:12Z</time>
      </trkpt>
      <trkpt lat="39.0274200" lon="1.3042230">
        <ele>136.7</ele>
        <time>2020-02-22T10:20:13Z</time>
      </trkpt>
      <trkpt lat="39.0274070" lon="1.3042400">
        <ele>137.8</ele>
        <time>2020-02-22T10:20:14Z</time>
      </trkpt>
      <trkpt lat="39.0274020" lon="1.3042620">
        <ele>138.8</ele>
        <time>2020-02-22T10:20:15Z</time>
      </trkpt>
      <trkpt lat="39.0273970" lon="1.3042970">
        <ele>140.1</ele>
        <time>2020-02-22T10:20:16Z</time>
      </trkpt>
      <trkpt lat="39.0273960" lon="1.3043110">
        <ele>140.5</ele>
        <time>2020-02-22T10:20:17Z</time>
      </trkpt>
      <trkpt lat="39.0273940" lon="1.3043340">
        <ele>141.2</ele>
        <time>2020-02-22T10:20:18Z</time>
      </trkpt>
      <trkpt lat="39.0273950" lon="1.3043370">
        <ele>141.3</ele>
        <time>2020-02-22T10:20:19Z</time>
      </trkpt>
      <trkpt lat="39.0273910" lon="1.3043550">
        <ele>141.9</ele>
        <time>2020-02-22T10:20:20Z</time>
      </trkpt>
      <trkpt lat="39.0273840" lon="1.3043710">
        <ele>142.4</ele>
        <time>2020-02-22T10:20:21Z</time>
      </trkpt>
      <trkpt lat="39.0273760" lon="1.3043840">
        <ele>143.0</ele>
        <time>2020-02-22T10:20:22Z</time>
      </trkpt>
      <trkpt lat="39.0273690" lon="1.3043990">
        <ele>143.6</ele>
        <time>2020-02-22T10:20:23Z</time>
      </trkpt>
      <trkpt lat="39.0273630" lon="1.3044090">
        <ele>144.1</ele>
        <time>2020-02-22T10:20:24Z</time>
      </trkpt>
      <trkpt lat="39.0273600" lon="1.3044150">
        <ele>144.3</ele>
        <time>2020-02-22T10:20:25Z</time>
      </trkpt>
      <trkpt lat="39.0273560" lon="1.3044260">
        <ele>144.8</ele>
        <time>2020-02-22T10:20:26Z</time>
      </trkpt>
      <trkpt lat="39.0273490" lon="1.3044470">
        <ele>145.6</ele>
        <time>2020-02-22T10:20:27Z</time>
      </trkpt>
      <trkpt lat="39.0273420" lon="1.3044620">
        <ele>146.2</ele>
        <time>2020-02-22T10:20:28Z</time>
      </trkpt>
      <trkpt lat="39.0273400" lon="1.3044700">
        <ele>146.5</ele>
        <time>2020-02-22T10:20:29Z</time>
      </trkpt>
      <trkpt lat="39.0273370" lon="1.3044890">
        <ele>147.1</ele>
        <time>2020-02-22T10:20:30Z</time>
      </trkpt>
      <trkpt lat="39.0273290" lon="1.3045160">
        <ele>147.7</ele>
        <time>2020-02-22T10:20:31Z</time>
      </trkpt>
      <trkpt lat="39.0273250" lon="1.3045290">
        <ele>148.0</ele>
        <time>2020-02-22T10:20:32Z</time>
      </trkpt>
      <trkpt lat="39.0273200" lon="1.3045420">
        <ele>148.3</ele>
        <time>2020-02-22T10:20:33Z</time>
      </trkpt>
      <trkpt lat="39.0273150" lon="1.3045810">
        <ele>149.1</ele>
        <time>2020-02-22T10:20:34Z</time>
      </trkpt>
      <trkpt lat="39.0273130" lon="1.3045940">
        <ele>149.4</ele>
        <time>2020-02-22T10:20:35Z</time>
      </trkpt>
      <trkpt lat="39.0273050" lon="1.3046380">
        <ele>150.4</ele>
        <time>2020-02-22T10:20:36Z</time>
      </trkpt>
      <trkpt lat="39.0273010" lon="1.3046500">
        <ele>150.6</ele>
        <time>2020-02-22T10:20:37Z</time>
      </trkpt>
      <trkpt lat="39.0272930" lon="1.3046860">
        <ele>151.4</ele>
        <time>2020-02-22T10:20:38Z</time>
      </trkpt>
      <trkpt lat="39.0272900" lon="1.3046940">
        <ele>151.6</ele>
        <time>2020-02-22T10:20:39Z</time>
      </trkpt>
      <trkpt lat="39.0272870" lon="1.3047220">
        <ele>152.3</ele>
        <time>2020-02-22T10:20:40Z</time>
      </trkpt>
      <trkpt lat="39.0272860" lon="1.3047340">
        <ele>152.6</ele>
        <time>2020-02-22T10:20:41Z</time>
      </trkpt>
      <trkpt lat="39.0272850" lon="1.3047460">
        <ele>152.9</ele>
        <time>2020-02-22T10:20:42Z</time>
      </trkpt>
      <trkpt lat="39.0272620" lon="1.3047850">
        <ele>154.0</ele>
        <time>2020-02-22T10:20:43Z</time>
      </trkpt>
      <trkpt lat="39.0272580" lon="1.3048010">
        <ele>154.3</ele>
        <time>2020-02-22T10:20:44Z</time>
      </trkpt>
      <trkpt lat="39.0272510" lon="1.3048190">
        <ele>154.5</ele>
        <time>2020-02-22T10:20:45Z</time>
      </trkpt>
      <trkpt lat="39.0272490" lon="1.3048330">
        <ele>154.6</ele>
        <time>2020-02-22T10:20:46Z</time>
      </trkpt>
      <trkpt lat="39.0272460" lon="1.3048440">
        <ele>154.7</ele>
        <time>2020-02-22T10:20:47Z</time>
      </trkpt>
      <trkpt lat="39.0272430" lon="1.3048710">
        <ele>154.9</ele>
        <time>2020-02-22T10:20:48Z</time>
      </trkpt>
      <trkpt lat="39.0272420" lon="1.3048850">
        <ele>155.0</ele>
        <time>2020-02-22T10:20:49Z</time>
      </trkpt>
      <trkpt lat="39.0272410" lon="1.3048990">
        <ele>155.1</ele>
        <time>2020-02-22T10:20:50Z</time>
      </trkpt>
      <trkpt lat="39.0272430" lon="1.3049350">
        <ele>155.6</ele>
        <time>2020-02-22T10:20:51Z</time>
      </trkpt>
      <trkpt lat="39.0272370" lon="1.3049710">
        <ele>156.1</ele>
        <time>2020-02-22T10:20:52Z</time>
      </trkpt>
      <trkpt lat="39.0272310" lon="1.3049820">
        <ele>156.3</ele>
        <time>2020-02-22T10:20:53Z</time>
      </trkpt>
      <trkpt lat="39.0272110" lon="1.3050100">
        <ele>156.7</ele>
        <time>2020-02-22T10:20:54Z</time>
      </trkpt>
      <trkpt lat="39.0272030" lon="1.3050190">
        <ele>156.9</ele>
        <time>2020-02-22T10:20:55Z</time>
      </trkpt>
      <trkpt lat="39.0271860" lon="1.3050360">
        <ele>157.1</ele>
        <time>2020-02-22T10:20:56Z</time>
      </trkpt>
      <trkpt lat="39.0271840" lon="1.3050540">
        <ele>157.3</ele>
        <time>2020-02-22T10:20:57Z</time>
      </trkpt>
      <trkpt lat="39.0271780" lon="1.3050760">
        <ele>157.5</ele>
        <time>2020-02-22T10:20:58Z</time>
      </trkpt>
      <trkpt lat="39.0271750" lon="1.3050870">
        <ele>157.6</ele>
        <time>2020-02-22T10:20:59Z</time>
      </trkpt>
      <trkpt lat="39.0271710" lon="1.3050990">
        <ele>157.7</ele>
        <time>2020-02-22T10:21:00Z</time>
      </trkpt>
      <trkpt lat="39.0271550" lon="1.3051320">
        <ele>158.0</ele>
        <time>2020-02-22T10:21:01Z</time>
      </trkpt>
      <trkpt lat="39.0271520" lon="1.3051450">
        <ele>158.1</ele>
        <time>2020-02-22T10:21:02Z</time>
      </trkpt>
      <trkpt lat="39.0271310" lon="1.3051730">
        <ele>158.3</ele>
        <time>2020-02-22T10:21:03Z</time>
      </trkpt>
      <trkpt lat="39.0271240" lon="1.3051810">
        <ele>158.4</ele>
        <time>2020-02-22T10:21:04Z</time>
      </trkpt>
      <trkpt lat="39.0271060" lon="1.3052100">
        <ele>158.7</ele>
        <time>2020-02-22T10:21:05Z</time>
      </trkpt>
      <trkpt lat="39.0270990" lon="1.3052220">
        <ele>158.8</ele>
        <time>2020-02-22T10:21:06Z</time>
      </trkpt>
      <trkpt lat="39.0270800" lon="1.3052490">
        <ele>159.2</ele>
        <time>2020-02-22T10:21:07Z</time>
      </trkpt>
      <trkpt lat="39.0270650" lon="1.3052560">
        <ele>159.4</ele>
        <time>2020-02-22T10:21:08Z</time>
      </trkpt>
      <trkpt lat="39.0270510" lon="1.3052680">
        <ele>159.5</ele>
        <time>2020-02-22T10:21:09Z</time>
      </trkpt>
      <trkpt lat="39.0270390" lon="1.3052770">
        <ele>159.5</ele>
        <time>2020-02-22T10:21:10Z</time>
      </trkpt>
      <trkpt lat="39.0270230" lon="1.3052970">
        <ele>159.7</ele>
        <time>2020-02-22T10:21:11Z</time>
      </trkpt>
      <trkpt lat="39.0270150" lon="1.3053080">
        <ele>159.7</ele>
        <time>2020-02-22T10:21:12Z</time>
      </trkpt>
      <trkpt lat="39.0270080" lon="1.3053180">
        <ele>159.8</ele>
        <time>2020-02-22T10:21:13Z</time>
      </trkpt>
      <trkpt lat="39.0269930" lon="1.3053340">
        <ele>159.9</ele>
        <time>2020-02-22T10:21:14Z</time>
      </trkpt>
      <trkpt lat="39.0269860" lon="1.3053480">
        <ele>159.9</ele>
        <time>2020-02-22T10:21:15Z</time>
      </trkpt>
      <trkpt lat="39.0269790" lon="1.3053630">
        <ele>160.0</ele>
        <time>2020-02-22T10:21:16Z</time>
      </trkpt>
      <trkpt lat="39.0269660" lon="1.3053720">
        <ele>160.1</ele>
        <time>2020-02-22T10:21:17Z</time>
      </trkpt>
      <trkpt lat="39.0269540" lon="1.3053840">
        <ele>160.1</ele>
        <time>2020-02-22T10:21:18Z</time>
      </trkpt>
      <trkpt lat="39.0269370" lon="1.3053990">
        <ele>160.2</ele>
        <time>2020-02-22T10:21:19Z</time>
      </trkpt>
      <trkpt lat="39.0269230" lon="1.3054300">
        <ele>160.2</ele>
        <time>2020-02-22T10:21:20Z</time>
      </trkpt>
      <trkpt lat="39.0269170" lon="1.3054400">
        <ele>160.2</ele>
        <time>2020-02-22T10:21:21Z</time>
      </trkpt>
      <trkpt lat="39.0269070" lon="1.3054720">
        <ele>160.2</ele>
        <time>2020-02-22T10:21:22Z</time>
      </trkpt>
      <trkpt lat="39.0269030" lon="1.3054840">
        <ele>160.2</ele>
        <time>2020-02-22T10:21:23Z</time>
      </trkpt>
      <trkpt lat="39.0268940" lon="1.3055040">
        <ele>160.1</ele>
        <time>2020-02-22T10:21:24Z</time>
      </trkpt>
      <trkpt lat="39.0268820" lon="1.3055170">
        <ele>160.1</ele>
        <time>2020-02-22T10:21:25Z</time>
      </trkpt>
      <trkpt lat="39.0268520" lon="1.3055440">
        <ele>160.0</ele>
        <time>2020-02-22T10:21:26Z</time>
      </trkpt>
      <trkpt lat="39.0268450" lon="1.3055570">
        <ele>160.0</ele>
        <time>2020-02-22T10:21:27Z</time>
      </trkpt>
      <trkpt lat="39.0268410" lon="1.3055710">
        <ele>159.9</ele>
        <time>2020-02-22T10:21:28Z</time>
      </trkpt>
      <trkpt lat="39.0268330" lon="1.3055890">
        <ele>159.8</ele>
        <time>2020-02-22T10:21:29Z</time>
      </trkpt>
      <trkpt lat="39.0268200" lon="1.3056200">
        <ele>159.7</ele>
        <time>2020-02-22T10:21:30Z</time>
      </trkpt>
      <trkpt lat="39.0268140" lon="1.3056290">
        <ele>159.7</ele>
        <time>2020-02-22T10:21:31Z</time>
      </trkpt>
      <trkpt lat="39.0267880" lon="1.3056420">
        <ele>159.5</ele>
        <time>2020-02-22T10:21:32Z</time>
      </trkpt>
      <trkpt lat="39.0267680" lon="1.3056560">
        <ele>159.4</ele>
        <time>2020-02-22T10:21:33Z</time>
      </trkpt>
      <trkpt lat="39.0267610" lon="1.3056690">
        <ele>159.3</ele>
        <time>2020-02-22T10:21:34Z</time>
      </trkpt>
      <trkpt lat="39.0267450" lon="1.3056930">
        <ele>159.2</ele>
        <time>2020-02-22T10:21:35Z</time>
      </trkpt>
      <trkpt lat="39.0267390" lon="1.3057010">
        <ele>159.1</ele>
        <time>2020-02-22T10:21:36Z</time>
      </trkpt>
      <trkpt lat="39.0267330" lon="1.3057100">
        <ele>159.1</ele>
        <time>2020-02-22T10:21:37Z</time>
      </trkpt>
      <trkpt lat="39.0267260" lon="1.3057130">
        <ele>159.1</ele>
        <time>2020-02-22T10:21:38Z</time>
      </trkpt>
      <trkpt lat="39.0267030" lon="1.3057210">
        <ele>159.0</ele>
        <time>2020-02-22T10:21:39Z</time>
      </trkpt>
      <trkpt lat="39.0266760" lon="1.3057450">
        <ele>158.9</ele>
        <time>2020-02-22T10:21:40Z</time>
      </trkpt>
      <trkpt lat="39.0266650" lon="1.3057520">
        <ele>158.9</ele>
        <time>2020-02-22T10:21:41Z</time>
      </trkpt>
      <trkpt lat="39.0266340" lon="1.3057800">
        <ele>158.5</ele>
        <time>2020-02-22T10:21:42Z</time>
      </trkpt>
      <trkpt lat="39.0266240" lon="1.3057890">
        <ele>158.4</ele>
        <time>2020-02-22T10:21:43Z</time>
      </trkpt>
      <trkpt lat="39.0266000" lon="1.3058160">
        <ele>158.1</ele>
        <time>2020-02-22T10:21:44Z</time>
      </trkpt>
      <trkpt lat="39.0265890" lon="1.3058240">
        <ele>157.9</ele>
        <time>2020-02-22T10:21:45Z</time>
      </trkpt>
      <trkpt lat="39.0265670" lon="1.3058500">
        <ele>157.5</ele>
        <time>2020-02-22T10:21:46Z</time>
      </trkpt>
      <trkpt lat="39.0265600" lon="1.3058570">
        <ele>157.4</ele>
        <time>2020-02-22T10:21:47Z</time>
      </trkpt>
      <trkpt lat="39.0265390" lon="1.3058850">
        <ele>157.0</ele>
        <time>2020-02-22T10:21:48Z</time>
      </trkpt>
      <trkpt lat="39.0265280" lon="1.3058920">
        <ele>156.9</ele>
        <time>2020-02-22T10:21:49Z</time>
      </trkpt>
      <trkpt lat="39.0264960" lon="1.3059270">
        <ele>156.6</ele>
        <time>2020-02-22T10:21:50Z</time>
      </trkpt>
      <trkpt lat="39.0264840" lon="1.3059400">
        <ele>156.5</ele>
        <time>2020-02-22T10:21:51Z</time>
      </trkpt>
      <trkpt lat="39.0264560" lon="1.3059760">
        <ele>156.1</ele>
        <time>2020-02-22T10:21:52Z</time>
      </trkpt>
      <trkpt lat="39.0264480" lon="1.3059920">
        <ele>156.0</ele>
        <time>2020-02-22T10:21:53Z</time>
      </trkpt>
      <trkpt lat="39.0264290" lon="1.3060210">
        <ele>155.6</ele>
        <time>2020-02-22T10:21:54Z</time>
      </trkpt>
      <trkpt lat="39.0264060" lon="1.3060530">
        <ele>155.2</ele>
        <time>2020-02-22T10:21:55Z</time>
      </trkpt>
      <trkpt lat="39.0263990" lon="1.3060650">
        <ele>155.0</ele>
        <time>2020-02-22T10:21:56Z</time>
      </trkpt>
      <trkpt lat="39.0263770" lon="1.3061040">
        <ele>154.7</ele>
        <time>2020-02-22T10:21:57Z</time>
      </trkpt>
      <trkpt lat="39.0263660" lon="1.3061170">
        <ele>154.5</ele>
        <time>2020-02-22T10:21:58Z</time>
      </trkpt>
      <trkpt lat="39.0263500" lon="1.3061480">
        <ele>154.2</ele>
        <time>2020-02-22T10:21:59Z</time>
      </trkpt>
      <trkpt lat="39.0263320" lon="1.3061800">
        <ele>154.0</ele>
        <time>2020-02-22T10:22:00Z</time>
      </trkpt>
      <trkpt lat="39.0263250" lon="1.3061860">
        <ele>154.0</ele>
        <time>2020-02-22T10:22:01Z</time>
      </trkpt>
      <trkpt lat="39.0263050" lon="1.3062190">
        <ele>153.7</ele>
        <time>2020-02-22T10:22:02Z</time>
      </trkpt>
      <trkpt lat="39.0262940" lon="1.3062290">
        <ele>153.7</ele>
        <time>2020-02-22T10:22:03Z</time>
      </trkpt>
      <trkpt lat="39.0262680" lon="1.3062500">
        <ele>153.7</ele>
        <time>2020-02-22T10:22:04Z</time>
      </trkpt>
      <trkpt lat="39.0262610" lon="1.3062560">
        <ele>153.7</ele>
        <time>2020-02-22T10:22:05Z</time>
      </trkpt>
      <trkpt lat="39.0262450" lon="1.3062830">
        <ele>153.8</ele>
        <time>2020-02-22T10:22:06Z</time>
      </trkpt>
      <trkpt lat="39.0262350" lon="1.3062900">
        <ele>153.8</ele>
        <time>2020-02-22T10:22:07Z</time>
      </trkpt>
      <trkpt lat="39.0262250" lon="1.3063000">
        <ele>153.9</ele>
        <time>2020-02-22T10:22:08Z</time>
      </trkpt>
      <trkpt lat="39.0262240" lon="1.3063090">
        <ele>153.9</ele>
        <time>2020-02-22T10:22:09Z</time>
      </trkpt>
      <trkpt lat="39.0262220" lon="1.3063180">
        <ele>153.9</ele>
        <time>2020-02-22T10:22:10Z</time>
      </trkpt>
      <trkpt lat="39.0262200" lon="1.3063260">
        <ele>153.9</ele>
        <time>2020-02-22T10:22:11Z</time>
      </trkpt>
      <trkpt lat="39.0262190" lon="1.3063350">
        <ele>153.9</ele>
        <time>2020-02-22T10:22:12Z</time>
      </trkpt>
      <trkpt lat="39.0262170" lon="1.3063440">
        <ele>153.9</ele>
        <time>2020-02-22T10:22:13Z</time>
      </trkpt>
      <trkpt lat="39.0262150" lon="1.3063530">
        <ele>154.0</ele>
        <time>2020-02-22T10:22:14Z</time>
      </trkpt>
      <trkpt lat="39.0262140" lon="1.3063620">
        <ele>154.0</ele>
        <time>2020-02-22T10:22:15Z</time>
      </trkpt>
      <trkpt lat="39.0262120" lon="1.3063710">
        <ele>154.0</ele>
        <time>2020-02-22T10:22:16Z</time>
      </trkpt>
      <trkpt lat="39.0262100" lon="1.3063790">
        <ele>154.0</ele>
        <time>2020-02-22T10:22:17Z</time>
      </trkpt>
      <trkpt lat="39.0262090" lon="1.3063880">
        <ele>154.0</ele>
        <time>2020-02-22T10:22:30Z</time>
      </trkpt>
      <trkpt lat="39.0262070" lon="1.3063970">
        <ele>154.0</ele>
        <time>2020-02-22T10:22:31Z</time>
      </trkpt>
      <trkpt lat="39.0262010" lon="1.3064230">
        <ele>154.1</ele>
        <time>2020-02-22T10:22:32Z</time>
      </trkpt>
      <trkpt lat="39.0262010" lon="1.3064430">
        <ele>154.2</ele>
        <time>2020-02-22T10:22:33Z</time>
      </trkpt>
      <trkpt lat="39.0261870" lon="1.3064880">
        <ele>154.3</ele>
        <time>2020-02-22T10:22:34Z</time>
      </trkpt>
      <trkpt lat="39.0261790" lon="1.3065020">
        <ele>154.3</ele>
        <time>2020-02-22T10:22:35Z</time>
      </trkpt>
      <trkpt lat="39.0261700" lon="1.3065360">
        <ele>154.4</ele>
        <time>2020-02-22T10:22:36Z</time>
      </trkpt>
      <trkpt lat="39.0261600" lon="1.3065710">
        <ele>154.5</ele>
        <time>2020-02-22T10:22:37Z</time>
      </trkpt>
      <trkpt lat="39.0261600" lon="1.3066110">
        <ele>154.7</ele>
        <time>2020-02-22T10:22:38Z</time>
      </trkpt>
      <trkpt lat="39.0261570" lon="1.3066250">
        <ele>154.8</ele>
        <time>2020-02-22T10:22:39Z</time>
      </trkpt>
      <trkpt lat="39.0261490" lon="1.3066760">
        <ele>155.1</ele>
        <time>2020-02-22T10:22:40Z</time>
      </trkpt>
      <trkpt lat="39.0261460" lon="1.3066950">
        <ele>155.2</ele>
        <time>2020-02-22T10:22:41Z</time>
      </trkpt>
      <trkpt lat="39.0261370" lon="1.3067380">
        <ele>155.4</ele>
        <time>2020-02-22T10:22:42Z</time>
      </trkpt>
      <trkpt lat="39.0261330" lon="1.3067490">
        <ele>155.4</ele>
        <time>2020-02-22T10:22:43Z</time>
      </trkpt>
      <trkpt lat="39.0261190" lon="1.3067780">
        <ele>155.6</ele>
        <time>2020-02-22T10:22:44Z</time>
      </trkpt>
      <trkpt lat="39.0261100" lon="1.3068120">
        <ele>155.7</ele>
        <time>2020-02-22T10:22:45Z</time>
      </trkpt>
      <trkpt lat="39.0261000" lon="1.3068440">
        <ele>155.9</ele>
        <time>2020-02-22T10:22:46Z</time>
      </trkpt>
      <trkpt lat="39.0260940" lon="1.3068890">
        <ele>156.1</ele>
        <time>2020-02-22T10:22:47Z</time>
      </trkpt>
      <trkpt lat="39.0260940" lon="1.3069040">
        <ele>156.2</ele>
        <time>2020-02-22T10:22:48Z</time>
      </trkpt>
      <trkpt lat="39.0260930" lon="1.3069450">
        <ele>156.4</ele>
        <time>2020-02-22T10:22:49Z</time>
      </trkpt>
      <trkpt lat="39.0260930" lon="1.3069590">
        <ele>156.5</ele>
        <time>2020-02-22T10:22:50Z</time>
      </trkpt>
      <trkpt lat="39.0260700" lon="1.3069860">
        <ele>156.7</ele>
        <time>2020-02-22T10:22:51Z</time>
      </trkpt>
      <trkpt lat="39.0260420" lon="1.3070140">
        <ele>156.9</ele>
        <time>2020-02-22T10:22:52Z</time>
      </trkpt>
      <trkpt lat="39.0260220" lon="1.3070500">
        <ele>157.1</ele>
        <time>2020-02-22T10:22:53Z</time>
      </trkpt>
      <trkpt lat="39.0260120" lon="1.3070610">
        <ele>157.2</ele>
        <time>2020-02-22T10:22:54Z</time>
      </trkpt>
      <trkpt lat="39.0259840" lon="1.3070820">
        <ele>157.4</ele>
        <time>2020-02-22T10:22:55Z</time>
      </trkpt>
      <trkpt lat="39.0259710" lon="1.3070910">
        <ele>157.5</ele>
        <time>2020-02-22T10:22:56Z</time>
      </trkpt>
      <trkpt lat="39.0259360" lon="1.3071080">
        <ele>157.8</ele>
        <time>2020-02-22T10:22:57Z</time>
      </trkpt>
      <trkpt lat="39.0259250" lon="1.3071140">
        <ele>157.9</ele>
        <time>2020-02-22T10:22:58Z</time>
      </trkpt>
      <trkpt lat="39.0259000" lon="1.3071290">
        <ele>158.0</ele>
        <time>2020-02-22T10:22:59Z</time>
      </trkpt>
      <trkpt lat="39.0258650" lon="1.3071420">
        <ele>158.3</ele>
        <time>2020-02-22T10:23:00Z</time>
      </trkpt>
      <trkpt lat="39.0258540" lon="1.3071460">
        <ele>158.4</ele>
        <time>2020-02-22T10:23:01Z</time>
      </trkpt>
      <trkpt lat="39.0258210" lon="1.3071580">
        <ele>158.6</ele>
        <time>2020-02-22T10:23:02Z</time>
      </trkpt>
      <trkpt lat="39.0258100" lon="1.3071620">
        <ele>158.7</ele>
        <time>2020-02-22T10:23:03Z</time>
      </trkpt>
      <trkpt lat="39.0257820" lon="1.3071720">
        <ele>158.9</ele>
        <time>2020-02-22T10:23:04Z</time>
      </trkpt>
      <trkpt lat="39.0257720" lon="1.3071760">
        <ele>158.9</ele>
        <time>2020-02-22T10:23:05Z</time>
      </trkpt>
      <trkpt lat="39.0257570" lon="1.3071870">
        <ele>159.1</ele>
        <time>2020-02-22T10:23:06Z</time>
      </trkpt>
      <trkpt lat="39.0257430" lon="1.3071980">
        <ele>159.2</ele>
        <time>2020-02-22T10:23:07Z</time>
      </trkpt>
      <trkpt lat="39.0257160" lon="1.3072120">
        <ele>159.4</ele>
        <time>2020-02-22T10:23:08Z</time>
      </trkpt>
      <trkpt lat="39.0257070" lon="1.3072180">
        <ele>159.5</ele>
        <time>2020-02-22T10:23:09Z</time>
      </trkpt>
      <trkpt lat="39.0256780" lon="1.3072340">
        <ele>159.8</ele>
        <time>2020-02-22T10:23:10Z</time>
      </trkpt>
      <trkpt lat="39.0256680" lon="1.3072430">
        <ele>159.9</ele>
        <time>2020-02-22T10:23:11Z</time>
      </trkpt>
      <trkpt lat="39.0256410" lon="1.3072530">
        <ele>160.1</ele>
        <time>2020-02-22T10:23:12Z</time>
      </trkpt>
      <trkpt lat="39.0256330" lon="1.3072540">
        <ele>160.2</ele>
        <time>2020-02-22T10:23:13Z</time>
      </trkpt>
      <trkpt lat="39.0255970" lon="1.3072590">
        <ele>160.6</ele>
        <time>2020-02-22T10:23:14Z</time>
      </trkpt>
      <trkpt lat="39.0255640" lon="1.3072660">
        <ele>160.9</ele>
        <time>2020-02-22T10:23:15Z</time>
      </trkpt>
      <trkpt lat="39.0255560" lon="1.3072700">
        <ele>161.0</ele>
        <time>2020-02-22T10:23:16Z</time>
      </trkpt>
      <trkpt lat="39.0255280" lon="1.3072950">
        <ele>161.3</ele>
        <time>2020-02-22T10:23:17Z</time>
      </trkpt>
      <trkpt lat="39.0255200" lon="1.3073030">
        <ele>161.4</ele>
        <time>2020-02-22T10:23:18Z</time>
      </trkpt>
      <trkpt lat="39.0254920" lon="1.3073320">
        <ele>161.6</ele>
        <time>2020-02-22T10:23:19Z</time>
      </trkpt>
      <trkpt lat="39.0254830" lon="1.3073430">
        <ele>161.7</ele>
        <time>2020-02-22T10:23:20Z</time>
      </trkpt>
      <trkpt lat="39.0254650" lon="1.3073820">
        <ele>161.9</ele>
        <time>2020-02-22T10:23:21Z</time>
      </trkpt>
      <trkpt lat="39.0254590" lon="1.3073960">
        <ele>161.9</ele>
        <time>2020-02-22T10:23:22Z</time>
      </trkpt>
      <trkpt lat="39.0254490" lon="1.3074340">
        <ele>162.1</ele>
        <time>2020-02-22T10:23:23Z</time>
      </trkpt>
      <trkpt lat="39.0254450" lon="1.3074480">
        <ele>162.2</ele>
        <time>2020-02-22T10:23:24Z</time>
      </trkpt>
      <trkpt lat="39.0254430" lon="1.3074940">
        <ele>162.5</ele>
        <time>2020-02-22T10:23:25Z</time>
      </trkpt>
      <trkpt lat="39.0254440" lon="1.3075110">
        <ele>162.6</ele>
        <time>2020-02-22T10:23:26Z</time>
      </trkpt>
      <trkpt lat="39.0254370" lon="1.3075530">
        <ele>162.8</ele>
        <time>2020-02-22T10:23:27Z</time>
      </trkpt>
      <trkpt lat="39.0254350" lon="1.3075670">
        <ele>162.9</ele>
        <time>2020-02-22T10:23:28Z</time>
      </trkpt>
      <trkpt lat="39.0254180" lon="1.3076030">
        <ele>163.1</ele>
        <time>2020-02-22T10:23:29Z</time>
      </trkpt>
      <trkpt lat="39.0254120" lon="1.3076160">
        <ele>163.1</ele>
        <time>2020-02-22T10:23:30Z</time>
      </trkpt>
      <trkpt lat="39.0253990" lon="1.3076490">
        <ele>163.3</ele>
        <time>2020-02-22T10:23:31Z</time>
      </trkpt>
      <trkpt lat="39.0253940" lon="1.3076590">
        <ele>163.4</ele>
        <time>2020-02-22T10:23:32Z</time>
      </trkpt>
      <trkpt lat="39.0253910" lon="1.3077040">
        <ele>163.6</ele>
        <time>2020-02-22T10:23:33Z</time>
      </trkpt>
      <trkpt lat="39.0253800" lon="1.3077360">
        <ele>163.8</ele>
        <time>2020-02-22T10:23:34Z</time>
      </trkpt>
      <trkpt lat="39.0253540" lon="1.3077740">
        <ele>164.2</ele>
        <time>2020-02-22T10:23:35Z</time>
      </trkpt>
      <trkpt lat="39.0253420" lon="1.3077840">
        <ele>164.3</ele>
        <time>2020-02-22T10:23:36Z</time>
      </trkpt>
      <trkpt lat="39.0253190" lon="1.3078080">
        <ele>164.5</ele>
        <time>2020-02-22T10:23:37Z</time>
      </trkpt>
      <trkpt lat="39.0253000" lon="1.3078190">
        <ele>164.7</ele>
        <time>2020-02-22T10:23:38Z</time>
      </trkpt>
      <trkpt lat="39.0252870" lon="1.3078300">
        <ele>164.8</ele>
        <time>2020-02-22T10:23:39Z</time>
      </trkpt>
      <trkpt lat="39.0252650" lon="1.3078620">
        <ele>165.1</ele>
        <time>2020-02-22T10:23:40Z</time>
      </trkpt>
      <trkpt lat="39.0252560" lon="1.3078740">
        <ele>165.2</ele>
        <time>2020-02-22T10:23:41Z</time>
      </trkpt>
      <trkpt lat="39.0252420" lon="1.3079070">
        <ele>165.4</ele>
        <time>2020-02-22T10:23:42Z</time>
      </trkpt>
      <trkpt lat="39.0252380" lon="1.3079170">
        <ele>165.5</ele>
        <time>2020-02-22T10:23:43Z</time>
      </trkpt>
      <trkpt lat="39.0252280" lon="1.3079510">
        <ele>165.7</ele>
        <time>2020-02-22T10:23:44Z</time>
      </trkpt>
      <trkpt lat="39.0252150" lon="1.3079880">
        <ele>165.9</ele>
        <time>2020-02-22T10:23:45Z</time>
      </trkpt>
      <trkpt lat="39.0252000" lon="1.3080190">
        <ele>166.1</ele>
        <time>2020-02-22T10:23:46Z</time>
      </trkpt>
      <trkpt lat="39.0251890" lon="1.3080360">
        <ele>166.3</ele>
        <time>2020-02-22T10:23:47Z</time>
      </trkpt>
      <trkpt lat="39.0251870" lon="1.3080630">
        <ele>166.4</ele>
        <time>2020-02-22T10:23:48Z</time>
      </trkpt>
      <trkpt lat="39.0251680" lon="1.3081040">
        <ele>166.7</ele>
        <time>2020-02-22T10:23:49Z</time>
      </trkpt>
      <trkpt lat="39.0251610" lon="1.3081180">
        <ele>166.7</ele>
        <time>2020-02-22T10:23:50Z</time>
      </trkpt>
      <trkpt lat="39.0251450" lon="1.3081600">
        <ele>166.9</ele>
        <time>2020-02-22T10:23:51Z</time>
      </trkpt>
      <trkpt lat="39.0251400" lon="1.3081740">
        <ele>167.0</ele>
        <time>2020-02-22T10:23:52Z</time>
      </trkpt>
      <trkpt lat="39.0251280" lon="1.3082220">
        <ele>167.1</ele>
        <time>2020-02-22T10:23:53Z</time>
      </trkpt>
      <trkpt lat="39.0251230" lon="1.3082390">
        <ele>167.2</ele>
        <time>2020-02-22T10:23:54Z</time>
      </trkpt>
      <trkpt lat="39.0251050" lon="1.3082860">
        <ele>167.3</ele>
        <time>2020-02-22T10:23:55Z</time>
      </trkpt>
      <trkpt lat="39.0250930" lon="1.3083020">
        <ele>167.4</ele>
        <time>2020-02-22T10:23:56Z</time>
      </trkpt>
      <trkpt lat="39.0250740" lon="1.3083440">
        <ele>167.5</ele>
        <time>2020-02-22T10:23:57Z</time>
      </trkpt>
      <trkpt lat="39.0250650" lon="1.3083830">
        <ele>167.5</ele>
        <time>2020-02-22T10:23:58Z</time>
      </trkpt>
      <trkpt lat="39.0250540" lon="1.3084150">
        <ele>167.6</ele>
        <time>2020-02-22T10:23:59Z</time>
      </trkpt>
      <trkpt lat="39.0250450" lon="1.3084680">
        <ele>167.7</ele>
        <time>2020-02-22T10:24:00Z</time>
      </trkpt>
      <trkpt lat="39.0250410" lon="1.3084880">
        <ele>167.7</ele>
        <time>2020-02-22T10:24:01Z</time>
      </trkpt>
      <trkpt lat="39.0250350" lon="1.3085310">
        <ele>167.8</ele>
        <time>2020-02-22T10:24:02Z</time>
      </trkpt>
      <trkpt lat="39.0250240" lon="1.3085760">
        <ele>167.9</ele>
        <time>2020-02-22T10:24:03Z</time>
      </trkpt>
      <trkpt lat="39.0250170" lon="1.3086210">
        <ele>168.0</ele>
        <time>2020-02-22T10:24:04Z</time>
      </trkpt>
      <trkpt lat="39.0250180" lon="1.3086720">
        <ele>168.2</ele>
        <time>2020-02-22T10:24:05Z</time>
      </trkpt>
      <trkpt lat="39.0250180" lon="1.3086930">
        <ele>168.3</ele>
        <time>2020-02-22T10:24:06Z</time>
      </trkpt>
      <trkpt lat="39.0250020" lon="1.3087240">
        <ele>168.4</ele>
        <time>2020-02-22T10:24:07Z</time>
      </trkpt>
      <trkpt lat="39.0249860" lon="1.3087560">
        <ele>168.5</ele>
        <time>2020-02-22T10:24:08Z</time>
      </trkpt>
      <trkpt lat="39.0249870" lon="1.3087930">
        <ele>168.7</ele>
        <time>2020-02-22T10:24:09Z</time>
      </trkpt>
      <trkpt lat="39.0249860" lon="1.3088470">
        <ele>169.0</ele>
        <time>2020-02-22T10:24:10Z</time>
      </trkpt>
      <trkpt lat="39.0249820" lon="1.3088660">
        <ele>169.0</ele>
        <time>2020-02-22T10:24:11Z</time>
      </trkpt>
      <trkpt lat="39.0249610" lon="1.3089030">
        <ele>169.2</ele>
        <time>2020-02-22T10:24:12Z</time>
      </trkpt>
      <trkpt lat="39.0249510" lon="1.3089130">
        <ele>169.2</ele>
        <time>2020-02-22T10:24:13Z</time>
      </trkpt>
      <trkpt lat="39.0249260" lon="1.3089360">
        <ele>169.4</ele>
        <time>2020-02-22T10:24:14Z</time>
      </trkpt>
      <trkpt lat="39.0249050" lon="1.3089680">
        <ele>169.5</ele>
        <time>2020-02-22T10:24:15Z</time>
      </trkpt>
      <trkpt lat="39.0248970" lon="1.3089790">
        <ele>169.6</ele>
        <time>2020-02-22T10:24:16Z</time>
      </trkpt>
      <trkpt lat="39.0248740" lon="1.3090170">
        <ele>169.8</ele>
        <time>2020-02-22T10:24:17Z</time>
      </trkpt>
      <trkpt lat="39.0248680" lon="1.3090280">
        <ele>169.8</ele>
        <time>2020-02-22T10:24:18Z</time>
      </trkpt>
      <trkpt lat="39.0248390" lon="1.3090560">
        <ele>170.1</ele>
        <time>2020-02-22T10:24:19Z</time>
      </trkpt>
      <trkpt lat="39.0248290" lon="1.3090620">
        <ele>170.2</ele>
        <time>2020-02-22T10:24:20Z</time>
      </trkpt>
      <trkpt lat="39.0248060" lon="1.3090850">
        <ele>170.4</ele>
        <time>2020-02-22T10:24:21Z</time>
      </trkpt>
      <trkpt lat="39.0247940" lon="1.3090940">
        <ele>170.5</ele>
        <time>2020-02-22T10:24:22Z</time>
      </trkpt>
      <trkpt lat="39.0247650" lon="1.3090990">
        <ele>170.7</ele>
        <time>2020-02-22T10:24:23Z</time>
      </trkpt>
      <trkpt lat="39.0247390" lon="1.3091090">
        <ele>170.8</ele>
        <time>2020-02-22T10:24:24Z</time>
      </trkpt>
      <trkpt lat="39.0247170" lon="1.3091280">
        <ele>171.0</ele>
        <time>2020-02-22T10:24:25Z</time>
      </trkpt>
      <trkpt lat="39.0247100" lon="1.3091360">
        <ele>171.1</ele>
        <time>2020-02-22T10:24:26Z</time>
      </trkpt>
      <trkpt lat="39.0246890" lon="1.3091610">
        <ele>171.3</ele>
        <time>2020-02-22T10:24:27Z</time>
      </trkpt>
      <trkpt lat="39.0246780" lon="1.3091690">
        <ele>171.4</ele>
        <time>2020-02-22T10:24:28Z</time>
      </trkpt>
      <trkpt lat="39.0246580" lon="1.3091950">
        <ele>171.9</ele>
        <time>2020-02-22T10:24:29Z</time>
      </trkpt>
      <trkpt lat="39.0246510" lon="1.3092030">
        <ele>172.0</ele>
        <time>2020-02-22T10:24:30Z</time>
      </trkpt>
      <trkpt lat="39.0246360" lon="1.3092360">
        <ele>172.2</ele>
        <time>2020-02-22T10:24:31Z</time>
      </trkpt>
      <trkpt lat="39.0246300" lon="1.3092470">
        <ele>172.3</ele>
        <time>2020-02-22T10:24:32Z</time>
      </trkpt>
      <trkpt lat="39.0246210" lon="1.3092880">
        <ele>172.6</ele>
        <time>2020-02-22T10:24:33Z</time>
      </trkpt>
      <trkpt lat="39.0246190" lon="1.3093030">
        <ele>172.7</ele>
        <time>2020-02-22T10:24:34Z</time>
      </trkpt>
      <trkpt lat="39.0246190" lon="1.3093410">
        <ele>173.1</ele>
        <time>2020-02-22T10:24:35Z</time>
      </trkpt>
      <trkpt lat="39.0246020" lon="1.3093750">
        <ele>173.4</ele>
        <time>2020-02-22T10:24:36Z</time>
      </trkpt>
      <trkpt lat="39.0245960" lon="1.3093880">
        <ele>173.6</ele>
        <time>2020-02-22T10:24:37Z</time>
      </trkpt>
      <trkpt lat="39.0245910" lon="1.3094270">
        <ele>173.8</ele>
        <time>2020-02-22T10:24:38Z</time>
      </trkpt>
      <trkpt lat="39.0245880" lon="1.3094400">
        <ele>173.9</ele>
        <time>2020-02-22T10:24:39Z</time>
      </trkpt>
      <trkpt lat="39.0245810" lon="1.3094720">
        <ele>174.1</ele>
        <time>2020-02-22T10:24:40Z</time>
      </trkpt>
      <trkpt lat="39.0245770" lon="1.3094850">
        <ele>174.2</ele>
        <time>2020-02-22T10:24:41Z</time>
      </trkpt>
      <trkpt lat="39.0245760" lon="1.3095190">
        <ele>174.4</ele>
        <time>2020-02-22T10:24:42Z</time>
      </trkpt>
      <trkpt lat="39.0245760" lon="1.3095330">
        <ele>174.5</ele>
        <time>2020-02-22T10:24:43Z</time>
      </trkpt>
      <trkpt lat="39.0245740" lon="1.3095780">
        <ele>174.8</ele>
        <time>2020-02-22T10:24:44Z</time>
      </trkpt>
      <trkpt lat="39.0245720" lon="1.3095900">
        <ele>174.9</ele>
        <time>2020-02-22T10:24:45Z</time>
      </trkpt>
      <trkpt lat="39.0245730" lon="1.3096260">
        <ele>175.2</ele>
        <time>2020-02-22T10:24:46Z</time>
      </trkpt>
      <trkpt lat="39.0245730" lon="1.3096390">
        <ele>175.2</ele>
        <time>2020-02-22T10:24:47Z</time>
      </trkpt>
      <trkpt lat="39.0245790" lon="1.3096620">
        <ele>175.4</ele>
        <time>2020-02-22T10:24:48Z</time>
      </trkpt>
      <trkpt lat="39.0245720" lon="1.3096850">
        <ele>175.6</ele>
        <time>2020-02-22T10:24:49Z</time>
      </trkpt>
      <trkpt lat="39.0245680" lon="1.3097200">
        <ele>175.8</ele>
        <time>2020-02-22T10:24:50Z</time>
      </trkpt>
      <trkpt lat="39.0245670" lon="1.3097340">
        <ele>175.9</ele>
        <time>2020-02-22T10:24:51Z</time>
      </trkpt>
      <trkpt lat="39.0245680" lon="1.3097780">
        <ele>176.3</ele>
        <time>2020-02-22T10:24:52Z</time>
      </trkpt>
      <trkpt lat="39.0245710" lon="1.3098160">
        <ele>176.6</ele>
        <time>2020-02-22T10:24:53Z</time>
      </trkpt>
      <trkpt lat="39.0245750" lon="1.3098520">
        <ele>177.0</ele>
        <time>2020-02-22T10:24:54Z</time>
      </trkpt>
      <trkpt lat="39.0245750" lon="1.3098670">
        <ele>177.2</ele>
        <time>2020-02-22T10:24:55Z</time>
      </trkpt>
      <trkpt lat="39.0245870" lon="1.3099020">
        <ele>177.6</ele>
        <time>2020-02-22T10:24:56Z</time>
      </trkpt>
      <trkpt lat="39.0245910" lon="1.3099150">
        <ele>177.7</ele>
        <time>2020-02-22T10:24:57Z</time>
      </trkpt>
      <trkpt lat="39.0245990" lon="1.3099560">
        <ele>178.1</ele>
        <time>2020-02-22T10:24:58Z</time>
      </trkpt>
      <trkpt lat="39.0245980" lon="1.3099700">
        <ele>178.2</ele>
        <time>2020-02-22T10:24:59Z</time>
      </trkpt>
      <trkpt lat="39.0246020" lon="1.3100060">
        <ele>178.4</ele>
        <time>2020-02-22T10:25:00Z</time>
      </trkpt>
      <trkpt lat="39.0246130" lon="1.3100490">
        <ele>178.7</ele>
        <time>2020-02-22T10:25:01Z</time>
      </trkpt>
      <trkpt lat="39.0246140" lon="1.3100640">
        <ele>178.8</ele>
        <time>2020-02-22T10:25:02Z</time>
      </trkpt>
      <trkpt lat="39.0246260" lon="1.3100960">
        <ele>179.0</ele>
        <time>2020-02-22T10:25:03Z</time>
      </trkpt>
      <trkpt lat="39.0246340" lon="1.3101080">
        <ele>179.1</ele>
        <time>2020-02-22T10:25:04Z</time>
      </trkpt>
      <trkpt lat="39.0246570" lon="1.3101340">
        <ele>179.3</ele>
        <time>2020-02-22T10:25:05Z</time>
      </trkpt>
      <trkpt lat="39.0246630" lon="1.3101440">
        <ele>179.4</ele>
        <time>2020-02-22T10:25:06Z</time>
      </trkpt>
      <trkpt lat="39.0246700" lon="1.3101580">
        <ele>179.6</ele>
        <time>2020-02-22T10:25:07Z</time>
      </trkpt>
      <trkpt lat="39.0246770" lon="1.3101820">
        <ele>179.8</ele>
        <time>2020-02-22T10:25:08Z</time>
      </trkpt>
      <trkpt lat="39.0246790" lon="1.3101980">
        <ele>179.9</ele>
        <time>2020-02-22T10:25:09Z</time>
      </trkpt>
      <trkpt lat="39.0246830" lon="1.3102220">
        <ele>180.1</ele>
        <time>2020-02-22T10:25:10Z</time>
      </trkpt>
      <trkpt lat="39.0246820" lon="1.3102440">
        <ele>180.3</ele>
        <time>2020-02-22T10:25:11Z</time>
      </trkpt>
      <trkpt lat="39.0246750" lon="1.3102610">
        <ele>180.5</ele>
        <time>2020-02-22T10:25:12Z</time>
      </trkpt>
      <trkpt lat="39.0246660" lon="1.3102790">
        <ele>180.7</ele>
        <time>2020-02-22T10:25:13Z</time>
      </trkpt>
      <trkpt lat="39.0246570" lon="1.3103000">
        <ele>180.9</ele>
        <time>2020-02-22T10:25:14Z</time>
      </trkpt>
      <trkpt lat="39.0246270" lon="1.3102990">
        <ele>181.3</ele>
        <time>2020-02-22T10:25:15Z</time>
      </trkpt>
      <trkpt lat="39.0246190" lon="1.3102960">
        <ele>181.4</ele>
        <time>2020-02-22T10:25:16Z</time>
      </trkpt>
      <trkpt lat="39.0245850" lon="1.3102880">
        <ele>181.8</ele>
        <time>2020-02-22T10:25:17Z</time>
      </trkpt>
      <trkpt lat="39.0245730" lon="1.3102840">
        <ele>181.9</ele>
        <time>2020-02-22T10:25:18Z</time>
      </trkpt>
      <trkpt lat="39.0245400" lon="1.3102890">
        <ele>182.2</ele>
        <time>2020-02-22T10:25:19Z</time>
      </trkpt>
      <trkpt lat="39.0245310" lon="1.3102900">
        <ele>182.3</ele>
        <time>2020-02-22T10:25:20Z</time>
      </trkpt>
      <trkpt lat="39.0245160" lon="1.3102890">
        <ele>182.4</ele>
        <time>2020-02-22T10:25:21Z</time>
      </trkpt>
      <trkpt lat="39.0245010" lon="1.3102770">
        <ele>182.6</ele>
        <time>2020-02-22T10:25:22Z</time>
      </trkpt>
      <trkpt lat="39.0244880" lon="1.3102730">
        <ele>182.7</ele>
        <time>2020-02-22T10:25:23Z</time>
      </trkpt>
      <trkpt lat="39.0244670" lon="1.3102710">
        <ele>182.9</ele>
        <time>2020-02-22T10:25:24Z</time>
      </trkpt>
      <trkpt lat="39.0244320" lon="1.3102690">
        <ele>183.2</ele>
        <time>2020-02-22T10:25:25Z</time>
      </trkpt>
      <trkpt lat="39.0244170" lon="1.3102690">
        <ele>183.3</ele>
        <time>2020-02-22T10:25:26Z</time>
      </trkpt>
      <trkpt lat="39.0243910" lon="1.3102840">
        <ele>183.5</ele>
        <time>2020-02-22T10:25:27Z</time>
      </trkpt>
      <trkpt lat="39.0243600" lon="1.3102910">
        <ele>183.7</ele>
        <time>2020-02-22T10:25:28Z</time>
      </trkpt>
      <trkpt lat="39.0243520" lon="1.3102920">
        <ele>183.8</ele>
        <time>2020-02-22T10:25:29Z</time>
      </trkpt>
      <trkpt lat="39.0243140" lon="1.3103060">
        <ele>184.0</ele>
        <time>2020-02-22T10:25:30Z</time>
      </trkpt>
      <trkpt lat="39.0243000" lon="1.3103100">
        <ele>184.1</ele>
        <time>2020-02-22T10:25:31Z</time>
      </trkpt>
      <trkpt lat="39.0242710" lon="1.3103140">
        <ele>184.4</ele>
        <time>2020-02-22T10:25:32Z</time>
      </trkpt>
      <trkpt lat="39.0242370" lon="1.3103340">
        <ele>184.6</ele>
        <time>2020-02-22T10:25:33Z</time>
      </trkpt>
      <trkpt lat="39.0242270" lon="1.3103420">
        <ele>184.7</ele>
        <time>2020-02-22T10:25:34Z</time>
      </trkpt>
      <trkpt lat="39.0242010" lon="1.3103720">
        <ele>185.0</ele>
        <time>2020-02-22T10:25:35Z</time>
      </trkpt>
      <trkpt lat="39.0241930" lon="1.3103790">
        <ele>185.1</ele>
        <time>2020-02-22T10:25:36Z</time>
      </trkpt>
      <trkpt lat="39.0241900" lon="1.3104010">
        <ele>185.2</ele>
        <time>2020-02-22T10:25:37Z</time>
      </trkpt>
      <trkpt lat="39.0241820" lon="1.3104230">
        <ele>185.4</ele>
        <time>2020-02-22T10:25:38Z</time>
      </trkpt>
      <trkpt lat="39.0241770" lon="1.3104590">
        <ele>185.6</ele>
        <time>2020-02-22T10:25:39Z</time>
      </trkpt>
      <trkpt lat="39.0241780" lon="1.3104730">
        <ele>185.7</ele>
        <time>2020-02-22T10:25:40Z</time>
      </trkpt>
      <trkpt lat="39.0241760" lon="1.3105200">
        <ele>186.0</ele>
        <time>2020-02-22T10:25:41Z</time>
      </trkpt>
      <trkpt lat="39.0241760" lon="1.3105350">
        <ele>186.1</ele>
        <time>2020-02-22T10:25:42Z</time>
      </trkpt>
      <trkpt lat="39.0241870" lon="1.3105750">
        <ele>186.3</ele>
        <time>2020-02-22T10:25:43Z</time>
      </trkpt>
      <trkpt lat="39.0241900" lon="1.3105850">
        <ele>186.4</ele>
        <time>2020-02-22T10:25:44Z</time>
      </trkpt>
      <trkpt lat="39.0242040" lon="1.3106190">
        <ele>186.7</ele>
        <time>2020-02-22T10:25:45Z</time>
      </trkpt>
      <trkpt lat="39.0242080" lon="1.3106310">
        <ele>186.7</ele>
        <time>2020-02-22T10:25:46Z</time>
      </trkpt>
      <trkpt lat="39.0242230" lon="1.3106610">
        <ele>187.0</ele>
        <time>2020-02-22T10:25:47Z</time>
      </trkpt>
      <trkpt lat="39.0242280" lon="1.3106740">
        <ele>187.1</ele>
        <time>2020-02-22T10:25:48Z</time>
      </trkpt>
      <trkpt lat="39.0242380" lon="1.3106910">
        <ele>187.2</ele>
        <time>2020-02-22T10:25:49Z</time>
      </trkpt>
      <trkpt lat="39.0242460" lon="1.3107100">
        <ele>187.3</ele>
        <time>2020-02-22T10:25:50Z</time>
      </trkpt>
      <trkpt lat="39.0242540" lon="1.3107260">
        <ele>187.4</ele>
        <time>2020-02-22T10:25:51Z</time>
      </trkpt>
      <trkpt lat="39.0242620" lon="1.3107410">
        <ele>187.5</ele>
        <time>2020-02-22T10:25:52Z</time>
      </trkpt>
      <trkpt lat="39.0242700" lon="1.3107600">
        <ele>187.7</ele>
        <time>2020-02-22T10:25:53Z</time>
      </trkpt>
      <trkpt lat="39.0242800" lon="1.3107750">
        <ele>187.8</ele>
        <time>2020-02-22T10:25:54Z</time>
      </trkpt>
      <trkpt lat="39.0242980" lon="1.3108040">
        <ele>188.1</ele>
        <time>2020-02-22T10:25:55Z</time>
      </trkpt>
      <trkpt lat="39.0243030" lon="1.3108150">
        <ele>188.3</ele>
        <time>2020-02-22T10:25:56Z</time>
      </trkpt>
      <trkpt lat="39.0243240" lon="1.3108390">
        <ele>188.6</ele>
        <time>2020-02-22T10:25:57Z</time>
      </trkpt>
      <trkpt lat="39.0243340" lon="1.3108460">
        <ele>188.7</ele>
        <time>2020-02-22T10:25:58Z</time>
      </trkpt>
      <trkpt lat="39.0243500" lon="1.3108830">
        <ele>189.1</ele>
        <time>2020-02-22T10:25:59Z</time>
      </trkpt>
      <trkpt lat="39.0243560" lon="1.3108940">
        <ele>189.2</ele>
        <time>2020-02-22T10:26:00Z</time>
      </trkpt>
      <trkpt lat="39.0243830" lon="1.3109120">
        <ele>189.6</ele>
        <time>2020-02-22T10:26:01Z</time>
      </trkpt>
      <trkpt lat="39.0243910" lon="1.3109180">
        <ele>189.7</ele>
        <time>2020-02-22T10:26:02Z</time>
      </trkpt>
      <trkpt lat="39.0244000" lon="1.3109320">
        <ele>189.9</ele>
        <time>2020-02-22T10:26:03Z</time>
      </trkpt>
      <trkpt lat="39.0244170" lon="1.3109470">
        <ele>190.1</ele>
        <time>2020-02-22T10:26:04Z</time>
      </trkpt>
      <trkpt lat="39.0244380" lon="1.3109670">
        <ele>190.5</ele>
        <time>2020-02-22T10:26:05Z</time>
      </trkpt>
      <trkpt lat="39.0244460" lon="1.3109750">
        <ele>190.6</ele>
        <time>2020-02-22T10:26:06Z</time>
      </trkpt>
      <trkpt lat="39.0244710" lon="1.3109940">
        <ele>190.9</ele>
        <time>2020-02-22T10:26:07Z</time>
      </trkpt>
      <trkpt lat="39.0244780" lon="1.3110010">
        <ele>191.0</ele>
        <time>2020-02-22T10:26:08Z</time>
      </trkpt>
      <trkpt lat="39.0244950" lon="1.3110030">
        <ele>191.2</ele>
        <time>2020-02-22T10:26:09Z</time>
      </trkpt>
      <trkpt lat="39.0245100" lon="1.3109960">
        <ele>191.3</ele>
        <time>2020-02-22T10:26:10Z</time>
      </trkpt>
      <trkpt lat="39.0245400" lon="1.3109900">
        <ele>191.6</ele>
        <time>2020-02-22T10:26:11Z</time>
      </trkpt>
      <trkpt lat="39.0245480" lon="1.3109850">
        <ele>191.7</ele>
        <time>2020-02-22T10:26:12Z</time>
      </trkpt>
      <trkpt lat="39.0245810" lon="1.3109830">
        <ele>192.1</ele>
        <time>2020-02-22T10:26:13Z</time>
      </trkpt>
      <trkpt lat="39.0245910" lon="1.3109810">
        <ele>192.2</ele>
        <time>2020-02-22T10:26:14Z</time>
      </trkpt>
      <trkpt lat="39.0246070" lon="1.3109780">
        <ele>192.4</ele>
        <time>2020-02-22T10:26:15Z</time>
      </trkpt>
      <trkpt lat="39.0246230" lon="1.3109790">
        <ele>192.6</ele>
        <time>2020-02-22T10:26:16Z</time>
      </trkpt>
      <trkpt lat="39.0246390" lon="1.3109800">
        <ele>192.9</ele>
        <time>2020-02-22T10:26:17Z</time>
      </trkpt>
      <trkpt lat="39.0246510" lon="1.3109790">
        <ele>193.0</ele>
        <time>2020-02-22T10:26:18Z</time>
      </trkpt>
      <trkpt lat="39.0246790" lon="1.3109840">
        <ele>193.3</ele>
        <time>2020-02-22T10:26:19Z</time>
      </trkpt>
      <trkpt lat="39.0246880" lon="1.3109870">
        <ele>193.4</ele>
        <time>2020-02-22T10:26:20Z</time>
      </trkpt>
      <trkpt lat="39.0247180" lon="1.3109910">
        <ele>193.7</ele>
        <time>2020-02-22T10:26:21Z</time>
      </trkpt>
      <trkpt lat="39.0247300" lon="1.3109930">
        <ele>193.8</ele>
        <time>2020-02-22T10:26:22Z</time>
      </trkpt>
      <trkpt lat="39.0247610" lon="1.3110040">
        <ele>194.1</ele>
        <time>2020-02-22T10:26:23Z</time>
      </trkpt>
      <trkpt lat="39.0247710" lon="1.3110090">
        <ele>194.1</ele>
        <time>2020-02-22T10:26:24Z</time>
      </trkpt>
      <trkpt lat="39.0248030" lon="1.3110170">
        <ele>194.4</ele>
        <time>2020-02-22T10:26:25Z</time>
      </trkpt>
      <trkpt lat="39.0248130" lon="1.3110150">
        <ele>194.5</ele>
        <time>2020-02-22T10:26:26Z</time>
      </trkpt>
      <trkpt lat="39.0248450" lon="1.3110230">
        <ele>194.9</ele>
        <time>2020-02-22T10:26:27Z</time>
      </trkpt>
      <trkpt lat="39.0248560" lon="1.3110300">
        <ele>195.1</ele>
        <time>2020-02-22T10:26:28Z</time>
      </trkpt>
      <trkpt lat="39.0248850" lon="1.3110500">
        <ele>195.6</ele>
        <time>2020-02-22T10:26:29Z</time>
      </trkpt>
      <trkpt lat="39.0248940" lon="1.3110560">
        <ele>195.7</ele>
        <time>2020-02-22T10:26:30Z</time>
      </trkpt>
      <trkpt lat="39.0249170" lon="1.3110640">
        <ele>196.0</ele>
        <time>2020-02-22T10:26:31Z</time>
      </trkpt>
      <trkpt lat="39.0249230" lon="1.3110600">
        <ele>196.1</ele>
        <time>2020-02-22T10:26:32Z</time>
      </trkpt>
      <trkpt lat="39.0249360" lon="1.3110660">
        <ele>196.3</ele>
        <time>2020-02-22T10:26:33Z</time>
      </trkpt>
      <trkpt lat="39.0249520" lon="1.3110800">
        <ele>196.6</ele>
        <time>2020-02-22T10:26:34Z</time>
      </trkpt>
      <trkpt lat="39.0249680" lon="1.3111070">
        <ele>196.8</ele>
        <time>2020-02-22T10:26:35Z</time>
      </trkpt>
      <trkpt lat="39.0249760" lon="1.3111150">
        <ele>196.9</ele>
        <time>2020-02-22T10:26:36Z</time>
      </trkpt>
      <trkpt lat="39.0249830" lon="1.3111220">
        <ele>197.0</ele>
        <time>2020-02-22T10:26:37Z</time>
      </trkpt>
      <trkpt lat="39.0249930" lon="1.3111390">
        <ele>197.2</ele>
        <time>2020-02-22T10:26:38Z</time>
      </trkpt>
      <trkpt lat="39.0250070" lon="1.3111540">
        <ele>197.3</ele>
        <time>2020-02-22T10:26:39Z</time>
      </trkpt>
      <trkpt lat="39.0250310" lon="1.3111800">
        <ele>197.6</ele>
        <time>2020-02-22T10:26:40Z</time>
      </trkpt>
      <trkpt lat="39.0250370" lon="1.3111900">
        <ele>197.7</ele>
        <time>2020-02-22T10:26:41Z</time>
      </trkpt>
      <trkpt lat="39.0250620" lon="1.3112280">
        <ele>198.1</ele>
        <time>2020-02-22T10:26:42Z</time>
      </trkpt>
      <trkpt lat="39.0250710" lon="1.3112380">
        <ele>198.2</ele>
        <time>2020-02-22T10:26:43Z</time>
      </trkpt>
      <trkpt lat="39.0250780" lon="1.3112520">
        <ele>198.4</ele>
        <time>2020-02-22T10:26:44Z</time>
      </trkpt>
      <trkpt lat="39.0250880" lon="1.3112760">
        <ele>198.6</ele>
        <time>2020-02-22T10:26:45Z</time>
      </trkpt>
      <trkpt lat="39.0251010" lon="1.3113100">
        <ele>198.8</ele>
        <time>2020-02-22T10:26:46Z</time>
      </trkpt>
      <trkpt lat="39.0251060" lon="1.3113250">
        <ele>199.0</ele>
        <time>2020-02-22T10:26:47Z</time>
      </trkpt>
      <trkpt lat="39.0251210" lon="1.3113620">
        <ele>199.3</ele>
        <time>2020-02-22T10:26:48Z</time>
      </trkpt>
      <trkpt lat="39.0251250" lon="1.3113740">
        <ele>199.4</ele>
        <time>2020-02-22T10:26:49Z</time>
      </trkpt>
      <trkpt lat="39.0251420" lon="1.3114060">
        <ele>199.8</ele>
        <time>2020-02-22T10:26:50Z</time>
      </trkpt>
      <trkpt lat="39.0251490" lon="1.3114160">
        <ele>199.9</ele>
        <time>2020-02-22T10:26:51Z</time>
      </trkpt>
      <trkpt lat="39.0251680" lon="1.3114510">
        <ele>200.2</ele>
        <time>2020-02-22T10:26:52Z</time>
      </trkpt>
      <trkpt lat="39.0251730" lon="1.3114630">
        <ele>200.3</ele>
        <time>2020-02-22T10:26:53Z</time>
      </trkpt>
      <trkpt lat="39.0251790" lon="1.3115030">
        <ele>200.5</ele>
        <time>2020-02-22T10:26:54Z</time>
      </trkpt>
      <trkpt lat="39.0251780" lon="1.3115160">
        <ele>200.6</ele>
        <time>2020-02-22T10:26:55Z</time>
      </trkpt>
      <trkpt lat="39.0251780" lon="1.3115600">
        <ele>200.9</ele>
        <time>2020-02-22T10:26:56Z</time>
      </trkpt>
      <trkpt lat="39.0251740" lon="1.3115740">
        <ele>201.0</ele>
        <time>2020-02-22T10:26:57Z</time>
      </trkpt>
      <trkpt lat="39.0251670" lon="1.3115930">
        <ele>201.1</ele>
        <time>2020-02-22T10:26:58Z</time>
      </trkpt>
      <trkpt lat="39.0251730" lon="1.3116180">
        <ele>201.2</ele>
        <time>2020-02-22T10:26:59Z</time>
      </trkpt>
      <trkpt lat="39.0251830" lon="1.3116610">
        <ele>201.4</ele>
        <time>2020-02-22T10:27:00Z</time>
      </trkpt>
      <trkpt lat="39.0251830" lon="1.3116750">
        <ele>201.5</ele>
        <time>2020-02-22T10:27:01Z</time>
      </trkpt>
      <trkpt lat="39.0251870" lon="1.3117150">
        <ele>201.7</ele>
        <time>2020-02-22T10:27:02Z</time>
      </trkpt>
      <trkpt lat="39.0251880" lon="1.3117290">
        <ele>201.7</ele>
        <time>2020-02-22T10:27:03Z</time>
      </trkpt>
      <trkpt lat="39.0251980" lon="1.3117520">
        <ele>201.8</ele>
        <time>2020-02-22T10:27:04Z</time>
      </trkpt>
      <trkpt lat="39.0252040" lon="1.3117660">
        <ele>201.9</ele>
        <time>2020-02-22T10:27:05Z</time>
      </trkpt>
      <trkpt lat="39.0252080" lon="1.3117990">
        <ele>202.0</ele>
        <time>2020-02-22T10:27:06Z</time>
      </trkpt>
      <trkpt lat="39.0252120" lon="1.3118130">
        <ele>202.1</ele>
        <time>2020-02-22T10:27:07Z</time>
      </trkpt>
      <trkpt lat="39.0252170" lon="1.3118540">
        <ele>202.3</ele>
        <time>2020-02-22T10:27:08Z</time>
      </trkpt>
      <trkpt lat="39.0252160" lon="1.3118670">
        <ele>202.4</ele>
        <time>2020-02-22T10:27:09Z</time>
      </trkpt>
      <trkpt lat="39.0252170" lon="1.3119130">
        <ele>202.6</ele>
        <time>2020-02-22T10:27:10Z</time>
      </trkpt>
      <trkpt lat="39.0252200" lon="1.3119300">
        <ele>202.7</ele>
        <time>2020-02-22T10:27:11Z</time>
      </trkpt>
      <trkpt lat="39.0252320" lon="1.3119690">
        <ele>202.9</ele>
        <time>2020-02-22T10:27:12Z</time>
      </trkpt>
      <trkpt lat="39.0252350" lon="1.3119840">
        <ele>203.0</ele>
        <time>2020-02-22T10:27:13Z</time>
      </trkpt>
      <trkpt lat="39.0252440" lon="1.3120190">
        <ele>203.2</ele>
        <time>2020-02-22T10:27:14Z</time>
      </trkpt>
      <trkpt lat="39.0252510" lon="1.3120680">
        <ele>203.5</ele>
        <time>2020-02-22T10:27:15Z</time>
      </trkpt>
      <trkpt lat="39.0252530" lon="1.3120850">
        <ele>203.6</ele>
        <time>2020-02-22T10:27:16Z</time>
      </trkpt>
      <trkpt lat="39.0252670" lon="1.3121350">
        <ele>203.8</ele>
        <time>2020-02-22T10:27:17Z</time>
      </trkpt>
      <trkpt lat="39.0252710" lon="1.3121540">
        <ele>203.9</ele>
        <time>2020-02-22T10:27:18Z</time>
      </trkpt>
      <trkpt lat="39.0252830" lon="1.3121930">
        <ele>204.1</ele>
        <time>2020-02-22T10:27:19Z</time>
      </trkpt>
      <trkpt lat="39.0252910" lon="1.3122300">
        <ele>204.2</ele>
        <time>2020-02-22T10:27:20Z</time>
      </trkpt>
      <trkpt lat="39.0252940" lon="1.3122670">
        <ele>204.4</ele>
        <time>2020-02-22T10:27:21Z</time>
      </trkpt>
      <trkpt lat="39.0253010" lon="1.3123080">
        <ele>204.6</ele>
        <time>2020-02-22T10:27:22Z</time>
      </trkpt>
      <trkpt lat="39.0253010" lon="1.3123230">
        <ele>204.6</ele>
        <time>2020-02-22T10:27:23Z</time>
      </trkpt>
      <trkpt lat="39.0253090" lon="1.3123640">
        <ele>204.8</ele>
        <time>2020-02-22T10:27:24Z</time>
      </trkpt>
      <trkpt lat="39.0253130" lon="1.3123770">
        <ele>204.8</ele>
        <time>2020-02-22T10:27:25Z</time>
      </trkpt>
      <trkpt lat="39.0253170" lon="1.3124250">
        <ele>205.0</ele>
        <time>2020-02-22T10:27:26Z</time>
      </trkpt>
      <trkpt lat="39.0253180" lon="1.3124430">
        <ele>205.1</ele>
        <time>2020-02-22T10:27:27Z</time>
      </trkpt>
      <trkpt lat="39.0253220" lon="1.3124800">
        <ele>205.3</ele>
        <time>2020-02-22T10:27:28Z</time>
      </trkpt>
      <trkpt lat="39.0253300" lon="1.3125170">
        <ele>205.4</ele>
        <time>2020-02-22T10:27:29Z</time>
      </trkpt>
      <trkpt lat="39.0253320" lon="1.3125260">
        <ele>205.4</ele>
        <time>2020-02-22T10:27:30Z</time>
      </trkpt>
      <trkpt lat="39.0253250" lon="1.3125630">
        <ele>205.6</ele>
        <time>2020-02-22T10:27:31Z</time>
      </trkpt>
      <trkpt lat="39.0253230" lon="1.3125750">
        <ele>205.6</ele>
        <time>2020-02-22T10:27:32Z</time>
      </trkpt>
      <trkpt lat="39.0253300" lon="1.3126160">
        <ele>205.8</ele>
        <time>2020-02-22T10:27:33Z</time>
      </trkpt>
      <trkpt lat="39.0253340" lon="1.3126310">
        <ele>205.8</ele>
        <time>2020-02-22T10:27:34Z</time>
      </trkpt>
      <trkpt lat="39.0253380" lon="1.3126760">
        <ele>206.0</ele>
        <time>2020-02-22T10:27:35Z</time>
      </trkpt>
      <trkpt lat="39.0253380" lon="1.3126910">
        <ele>206.0</ele>
        <time>2020-02-22T10:27:36Z</time>
      </trkpt>
      <trkpt lat="39.0253370" lon="1.3127030">
        <ele>206.1</ele>
        <time>2020-02-22T10:27:37Z</time>
      </trkpt>
      <trkpt lat="39.0253410" lon="1.3127310">
        <ele>206.2</ele>
        <time>2020-02-22T10:27:38Z</time>
      </trkpt>
      <trkpt lat="39.0253410" lon="1.3127650">
        <ele>206.4</ele>
        <time>2020-02-22T10:27:39Z</time>
      </trkpt>
      <trkpt lat="39.0253400" lon="1.3127790">
        <ele>206.4</ele>
        <time>2020-02-22T10:27:40Z</time>
      </trkpt>
      <trkpt lat="39.0253470" lon="1.3128270">
        <ele>206.7</ele>
        <time>2020-02-22T10:27:41Z</time>
      </trkpt>
      <trkpt lat="39.0253510" lon="1.3128440">
        <ele>206.7</ele>
        <time>2020-02-22T10:27:42Z</time>
      </trkpt>
      <trkpt lat="39.0253540" lon="1.3128940">
        <ele>206.9</ele>
        <time>2020-02-22T10:27:43Z</time>
      </trkpt>
      <trkpt lat="39.0253540" lon="1.3129100">
        <ele>207.0</ele>
        <time>2020-02-22T10:27:44Z</time>
      </trkpt>
      <trkpt lat="39.0253550" lon="1.3129580">
        <ele>207.1</ele>
        <time>2020-02-22T10:27:45Z</time>
      </trkpt>
      <trkpt lat="39.0253550" lon="1.3129760">
        <ele>207.2</ele>
        <time>2020-02-22T10:27:46Z</time>
      </trkpt>
      <trkpt lat="39.0253510" lon="1.3130250">
        <ele>207.4</ele>
        <time>2020-02-22T10:27:47Z</time>
      </trkpt>
      <trkpt lat="39.0253500" lon="1.3130410">
        <ele>207.4</ele>
        <time>2020-02-22T10:27:48Z</time>
      </trkpt>
      <trkpt lat="39.0253460" lon="1.3130770">
        <ele>207.6</ele>
        <time>2020-02-22T10:27:49Z</time>
      </trkpt>
      <trkpt lat="39.0253390" lon="1.3131190">
        <ele>207.7</ele>
        <time>2020-02-22T10:27:50Z</time>
      </trkpt>
      <trkpt lat="39.0253370" lon="1.3131330">
        <ele>207.8</ele>
        <time>2020-02-22T10:27:51Z</time>
      </trkpt>
      <trkpt lat="39.0253130" lon="1.3131690">
        <ele>208.0</ele>
        <time>2020-02-22T10:27:52Z</time>
      </trkpt>
      <trkpt lat="39.0253080" lon="1.3131820">
        <ele>208.1</ele>
        <time>2020-02-22T10:27:53Z</time>
      </trkpt>
      <trkpt lat="39.0252930" lon="1.3132260">
        <ele>208.3</ele>
        <time>2020-02-22T10:27:54Z</time>
      </trkpt>
      <trkpt lat="39.0252880" lon="1.3132370">
        <ele>208.3</ele>
        <time>2020-02-22T10:27:55Z</time>
      </trkpt>
      <trkpt lat="39.0252660" lon="1.3132720">
        <ele>208.5</ele>
        <time>2020-02-22T10:27:56Z</time>
      </trkpt>
      <trkpt lat="39.0252560" lon="1.3132840">
        <ele>208.6</ele>
        <time>2020-02-22T10:27:57Z</time>
      </trkpt>
      <trkpt lat="39.0252370" lon="1.3133110">
        <ele>208.8</ele>
        <time>2020-02-22T10:27:58Z</time>
      </trkpt>
      <trkpt lat="39.0252230" lon="1.3133570">
        <ele>209.0</ele>
        <time>2020-02-22T10:27:59Z</time>
      </trkpt>
      <trkpt lat="39.0252190" lon="1.3133740">
        <ele>209.1</ele>
        <time>2020-02-22T10:28:00Z</time>
      </trkpt>
      <trkpt lat="39.0252060" lon="1.3134050">
        <ele>209.2</ele>
        <time>2020-02-22T10:28:01Z</time>
      </trkpt>
      <trkpt lat="39.0251930" lon="1.3134470">
        <ele>209.4</ele>
        <time>2020-02-22T10:28:02Z</time>
      </trkpt>
      <trkpt lat="39.0251870" lon="1.3134580">
        <ele>209.5</ele>
        <time>2020-02-22T10:28:03Z</time>
      </trkpt>
      <trkpt lat="39.0251730" lon="1.3134710">
        <ele>209.6</ele>
        <time>2020-02-22T10:28:04Z</time>
      </trkpt>
      <trkpt lat="39.0251590" lon="1.3134820">
        <ele>209.6</ele>
        <time>2020-02-22T10:28:05Z</time>
      </trkpt>
      <trkpt lat="39.0251290" lon="1.3135050">
        <ele>209.8</ele>
        <time>2020-02-22T10:28:06Z</time>
      </trkpt>
      <trkpt lat="39.0251180" lon="1.3135120">
        <ele>209.9</ele>
        <time>2020-02-22T10:28:07Z</time>
      </trkpt>
      <trkpt lat="39.0250880" lon="1.3135260">
        <ele>210.2</ele>
        <time>2020-02-22T10:28:08Z</time>
      </trkpt>
      <trkpt lat="39.0250590" lon="1.3135500">
        <ele>210.4</ele>
        <time>2020-02-22T10:28:09Z</time>
      </trkpt>
      <trkpt lat="39.0250480" lon="1.3135610">
        <ele>210.5</ele>
        <time>2020-02-22T10:28:10Z</time>
      </trkpt>
      <trkpt lat="39.0250230" lon="1.3135900">
        <ele>210.8</ele>
        <time>2020-02-22T10:28:11Z</time>
      </trkpt>
      <trkpt lat="39.0250030" lon="1.3136220">
        <ele>211.0</ele>
        <time>2020-02-22T10:28:12Z</time>
      </trkpt>
      <trkpt lat="39.0249820" lon="1.3136640">
        <ele>211.3</ele>
        <time>2020-02-22T10:28:13Z</time>
      </trkpt>
      <trkpt lat="39.0249770" lon="1.3136820">
        <ele>211.4</ele>
        <time>2020-02-22T10:28:14Z</time>
      </trkpt>
      <trkpt lat="39.0249670" lon="1.3137260">
        <ele>211.6</ele>
        <time>2020-02-22T10:28:15Z</time>
      </trkpt>
      <trkpt lat="39.0249630" lon="1.3137400">
        <ele>211.7</ele>
        <time>2020-02-22T10:28:16Z</time>
      </trkpt>
      <trkpt lat="39.0249510" lon="1.3137810">
        <ele>212.0</ele>
        <time>2020-02-22T10:28:17Z</time>
      </trkpt>
      <trkpt lat="39.0249460" lon="1.3137960">
        <ele>212.1</ele>
        <time>2020-02-22T10:28:18Z</time>
      </trkpt>
      <trkpt lat="39.0249320" lon="1.3138410">
        <ele>212.3</ele>
        <time>2020-02-22T10:28:19Z</time>
      </trkpt>
      <trkpt lat="39.0249260" lon="1.3138570">
        <ele>212.4</ele>
        <time>2020-02-22T10:28:20Z</time>
      </trkpt>
      <trkpt lat="39.0248960" lon="1.3138900">
        <ele>212.6</ele>
        <time>2020-02-22T10:28:21Z</time>
      </trkpt>
      <trkpt lat="39.0248840" lon="1.3139450">
        <ele>212.8</ele>
        <time>2020-02-22T10:28:22Z</time>
      </trkpt>
      <trkpt lat="39.0248780" lon="1.3139710">
        <ele>212.9</ele>
        <time>2020-02-22T10:28:23Z</time>
      </trkpt>
      <trkpt lat="39.0248820" lon="1.3140220">
        <ele>213.0</ele>
        <time>2020-02-22T10:28:24Z</time>
      </trkpt>
      <trkpt lat="39.0248810" lon="1.3140770">
        <ele>213.1</ele>
        <time>2020-02-22T10:28:25Z</time>
      </trkpt>
      <trkpt lat="39.0248820" lon="1.3141200">
        <ele>213.3</ele>
        <time>2020-02-22T10:28:26Z</time>
      </trkpt>
      <trkpt lat="39.0248810" lon="1.3141590">
        <ele>213.4</ele>
        <time>2020-02-22T10:28:27Z</time>
      </trkpt>
      <trkpt lat="39.0248750" lon="1.3142100">
        <ele>213.5</ele>
        <time>2020-02-22T10:28:28Z</time>
      </trkpt>
      <trkpt lat="39.0248790" lon="1.3142630">
        <ele>213.6</ele>
        <time>2020-02-22T10:28:29Z</time>
      </trkpt>
      <trkpt lat="39.0248760" lon="1.3143020">
        <ele>213.7</ele>
        <time>2020-02-22T10:28:30Z</time>
      </trkpt>
      <trkpt lat="39.0248810" lon="1.3143200">
        <ele>213.7</ele>
        <time>2020-02-22T10:28:31Z</time>
      </trkpt>
      <trkpt lat="39.0248890" lon="1.3143600">
        <ele>213.8</ele>
        <time>2020-02-22T10:28:32Z</time>
      </trkpt>
      <trkpt lat="39.0248820" lon="1.3143970">
        <ele>213.9</ele>
        <time>2020-02-22T10:28:33Z</time>
      </trkpt>
      <trkpt lat="39.0248800" lon="1.3144390">
        <ele>213.9</ele>
        <time>2020-02-22T10:28:34Z</time>
      </trkpt>
      <trkpt lat="39.0248890" lon="1.3144770">
        <ele>214.0</ele>
        <time>2020-02-22T10:28:35Z</time>
      </trkpt>
      <trkpt lat="39.0248980" lon="1.3145210">
        <ele>214.1</ele>
        <time>2020-02-22T10:28:36Z</time>
      </trkpt>
      <trkpt lat="39.0249090" lon="1.3145590">
        <ele>214.2</ele>
        <time>2020-02-22T10:28:37Z</time>
      </trkpt>
      <trkpt lat="39.0249260" lon="1.3145930">
        <ele>214.2</ele>
        <time>2020-02-22T10:28:38Z</time>
      </trkpt>
      <trkpt lat="39.0249350" lon="1.3146410">
        <ele>214.3</ele>
        <time>2020-02-22T10:28:39Z</time>
      </trkpt>
      <trkpt lat="39.0249690" lon="1.3146930">
        <ele>214.5</ele>
        <time>2020-02-22T10:28:40Z</time>
      </trkpt>
      <trkpt lat="39.0250080" lon="1.3147480">
        <ele>214.7</ele>
        <time>2020-02-22T10:28:41Z</time>
      </trkpt>
      <trkpt lat="39.0250490" lon="1.3147990">
        <ele>214.8</ele>
        <time>2020-02-22T10:28:42Z</time>
      </trkpt>
      <trkpt lat="39.0250960" lon="1.3148550">
        <ele>214.9</ele>
        <time>2020-02-22T10:28:43Z</time>
      </trkpt>
      <trkpt lat="39.0251360" lon="1.3149050">
        <ele>214.6</ele>
        <time>2020-02-22T10:28:44Z</time>
      </trkpt>
      <trkpt lat="39.0251700" lon="1.3149680">
        <ele>214.3</ele>
        <time>2020-02-22T10:28:45Z</time>
      </trkpt>
      <trkpt lat="39.0251790" lon="1.3150420">
        <ele>214.1</ele>
        <time>2020-02-22T10:28:46Z</time>
      </trkpt>
      <trkpt lat="39.0251690" lon="1.3151150">
        <ele>214.0</ele>
        <time>2020-02-22T10:28:47Z</time>
      </trkpt>
      <trkpt lat="39.0251570" lon="1.3151690">
        <ele>213.9</ele>
        <time>2020-02-22T10:28:48Z</time>
      </trkpt>
      <trkpt lat="39.0251470" lon="1.3152020">
        <ele>213.9</ele>
        <time>2020-02-22T10:28:49Z</time>
      </trkpt>
      <trkpt lat="39.0251180" lon="1.3152430">
        <ele>213.9</ele>
        <time>2020-02-22T10:28:50Z</time>
      </trkpt>
      <trkpt lat="39.0251040" lon="1.3152580">
        <ele>213.9</ele>
        <time>2020-02-22T10:28:51Z</time>
      </trkpt>
      <trkpt lat="39.0250790" lon="1.3152820">
        <ele>214.0</ele>
        <time>2020-02-22T10:28:52Z</time>
      </trkpt>
      <trkpt lat="39.0250500" lon="1.3152980">
        <ele>214.0</ele>
        <time>2020-02-22T10:28:53Z</time>
      </trkpt>
      <trkpt lat="39.0250200" lon="1.3153160">
        <ele>214.1</ele>
        <time>2020-02-22T10:28:54Z</time>
      </trkpt>
      <trkpt lat="39.0249860" lon="1.3153380">
        <ele>214.1</ele>
        <time>2020-02-22T10:28:55Z</time>
      </trkpt>
      <trkpt lat="39.0249560" lon="1.3153670">
        <ele>214.2</ele>
        <time>2020-02-22T10:28:56Z</time>
      </trkpt>
      <trkpt lat="39.0249360" lon="1.3153980">
        <ele>214.3</ele>
        <time>2020-02-22T10:28:57Z</time>
      </trkpt>
      <trkpt lat="39.0249120" lon="1.3154350">
        <ele>214.3</ele>
        <time>2020-02-22T10:28:58Z</time>
      </trkpt>
      <trkpt lat="39.0249070" lon="1.3154480">
        <ele>214.2</ele>
        <time>2020-02-22T10:28:59Z</time>
      </trkpt>
      <trkpt lat="39.0248950" lon="1.3154640">
        <ele>214.2</ele>
        <time>2020-02-22T10:29:00Z</time>
      </trkpt>
      <trkpt lat="39.0249010" lon="1.3154820">
        <ele>214.2</ele>
        <time>2020-02-22T10:29:01Z</time>
      </trkpt>
      <trkpt lat="39.0249100" lon="1.3154600">
        <ele>214.1</ele>
        <time>2020-02-22T10:29:02Z</time>
      </trkpt>
      <trkpt lat="39.0249180" lon="1.3154530">
        <ele>214.1</ele>
        <time>2020-02-22T10:29:03Z</time>
      </trkpt>
      <trkpt lat="39.0249250" lon="1.3154450">
        <ele>214.1</ele>
        <time>2020-02-22T10:29:04Z</time>
      </trkpt>
      <trkpt lat="39.0249400" lon="1.3154020">
        <ele>214.0</ele>
        <time>2020-02-22T10:29:05Z</time>
      </trkpt>
      <trkpt lat="39.0249470" lon="1.3153880">
        <ele>214.0</ele>
        <time>2020-02-22T10:29:06Z</time>
      </trkpt>
      <trkpt lat="39.0249810" lon="1.3153650">
        <ele>214.0</ele>
        <time>2020-02-22T10:29:07Z</time>
      </trkpt>
      <trkpt lat="39.0249910" lon="1.3153560">
        <ele>214.0</ele>
        <time>2020-02-22T10:29:08Z</time>
      </trkpt>
      <trkpt lat="39.0250130" lon="1.3153160">
        <ele>214.0</ele>
        <time>2020-02-22T10:29:09Z</time>
      </trkpt>
      <trkpt lat="39.0250200" lon="1.3153010">
        <ele>213.9</ele>
        <time>2020-02-22T10:29:10Z</time>
      </trkpt>
      <trkpt lat="39.0250470" lon="1.3152680">
        <ele>213.9</ele>
        <time>2020-02-22T10:29:11Z</time>
      </trkpt>
      <trkpt lat="39.0250540" lon="1.3152550">
        <ele>213.9</ele>
        <time>2020-02-22T10:29:12Z</time>
      </trkpt>
      <trkpt lat="39.0250800" lon="1.3152310">
        <ele>213.9</ele>
        <time>2020-02-22T10:29:13Z</time>
      </trkpt>
      <trkpt lat="39.0250890" lon="1.3152260">
        <ele>213.9</ele>
        <time>2020-02-22T10:29:14Z</time>
      </trkpt>
      <trkpt lat="39.0251190" lon="1.3152040">
        <ele>213.9</ele>
        <time>2020-02-22T10:29:15Z</time>
      </trkpt>
      <trkpt lat="39.0251270" lon="1.3151910">
        <ele>214.0</ele>
        <time>2020-02-22T10:29:16Z</time>
      </trkpt>
      <trkpt lat="39.0251510" lon="1.3151440">
        <ele>214.0</ele>
        <time>2020-02-22T10:29:17Z</time>
      </trkpt>
      <trkpt lat="39.0251590" lon="1.3151230">
        <ele>214.0</ele>
        <time>2020-02-22T10:29:18Z</time>
      </trkpt>
      <trkpt lat="39.0251710" lon="1.3150790">
        <ele>214.1</ele>
        <time>2020-02-22T10:29:19Z</time>
      </trkpt>
      <trkpt lat="39.0251760" lon="1.3150190">
        <ele>214.2</ele>
        <time>2020-02-22T10:29:20Z</time>
      </trkpt>
      <trkpt lat="39.0251950" lon="1.3149790">
        <ele>214.3</ele>
        <time>2020-02-22T10:29:21Z</time>
      </trkpt>
      <trkpt lat="39.0252180" lon="1.3149470">
        <ele>214.7</ele>
        <time>2020-02-22T10:29:22Z</time>
      </trkpt>
      <trkpt lat="39.0252510" lon="1.3149340">
        <ele>214.6</ele>
        <time>2020-02-22T10:29:23Z</time>
      </trkpt>
      <trkpt lat="39.0252830" lon="1.3149300">
        <ele>214.6</ele>
        <time>2020-02-22T10:29:24Z</time>
      </trkpt>
      <trkpt lat="39.0252960" lon="1.3149280">
        <ele>214.5</ele>
        <time>2020-02-22T10:29:25Z</time>
      </trkpt>
      <trkpt lat="39.0253390" lon="1.3149180">
        <ele>214.5</ele>
        <time>2020-02-22T10:29:26Z</time>
      </trkpt>
      <trkpt lat="39.0253580" lon="1.3149190">
        <ele>214.4</ele>
        <time>2020-02-22T10:29:27Z</time>
      </trkpt>
      <trkpt lat="39.0253970" lon="1.3149220">
        <ele>214.4</ele>
        <time>2020-02-22T10:29:28Z</time>
      </trkpt>
      <trkpt lat="39.0254240" lon="1.3149360">
        <ele>214.1</ele>
        <time>2020-02-22T10:29:29Z</time>
      </trkpt>
      <trkpt lat="39.0254450" lon="1.3149600">
        <ele>214.0</ele>
        <time>2020-02-22T10:29:30Z</time>
      </trkpt>
      <trkpt lat="39.0254730" lon="1.3149820">
        <ele>213.9</ele>
        <time>2020-02-22T10:29:31Z</time>
      </trkpt>
      <trkpt lat="39.0254870" lon="1.3149910">
        <ele>213.8</ele>
        <time>2020-02-22T10:29:32Z</time>
      </trkpt>
      <trkpt lat="39.0255170" lon="1.3150110">
        <ele>213.7</ele>
        <time>2020-02-22T10:29:33Z</time>
      </trkpt>
      <trkpt lat="39.0255250" lon="1.3150190">
        <ele>213.6</ele>
        <time>2020-02-22T10:29:34Z</time>
      </trkpt>
      <trkpt lat="39.0255530" lon="1.3150340">
        <ele>213.5</ele>
        <time>2020-02-22T10:29:35Z</time>
      </trkpt>
      <trkpt lat="39.0255780" lon="1.3150470">
        <ele>213.4</ele>
        <time>2020-02-22T10:29:36Z</time>
      </trkpt>
      <trkpt lat="39.0256150" lon="1.3150680">
        <ele>213.3</ele>
        <time>2020-02-22T10:29:37Z</time>
      </trkpt>
      <trkpt lat="39.0256290" lon="1.3150750">
        <ele>213.3</ele>
        <time>2020-02-22T10:29:38Z</time>
      </trkpt>
      <trkpt lat="39.0256600" lon="1.3150860">
        <ele>213.2</ele>
        <time>2020-02-22T10:29:39Z</time>
      </trkpt>
      <trkpt lat="39.0256910" lon="1.3150950">
        <ele>213.1</ele>
        <time>2020-02-22T10:29:40Z</time>
      </trkpt>
      <trkpt lat="39.0256990" lon="1.3150970">
        <ele>213.1</ele>
        <time>2020-02-22T10:29:41Z</time>
      </trkpt>
      <trkpt lat="39.0257330" lon="1.3151180">
        <ele>212.9</ele>
        <time>2020-02-22T10:29:42Z</time>
      </trkpt>
      <trkpt lat="39.0257460" lon="1.3151270">
        <ele>212.9</ele>
        <time>2020-02-22T10:29:43Z</time>
      </trkpt>
      <trkpt lat="39.0257880" lon="1.3151520">
        <ele>212.8</ele>
        <time>2020-02-22T10:29:44Z</time>
      </trkpt>
      <trkpt lat="39.0258240" lon="1.3151800">
        <ele>212.6</ele>
        <time>2020-02-22T10:29:45Z</time>
      </trkpt>
      <trkpt lat="39.0258530" lon="1.3151860">
        <ele>212.4</ele>
        <time>2020-02-22T10:29:46Z</time>
      </trkpt>
      <trkpt lat="39.0258820" lon="1.3152180">
        <ele>212.2</ele>
        <time>2020-02-22T10:29:47Z</time>
      </trkpt>
      <trkpt lat="39.0258900" lon="1.3152320">
        <ele>212.1</ele>
        <time>2020-02-22T10:29:48Z</time>
      </trkpt>
      <trkpt lat="39.0259160" lon="1.3152600">
        <ele>212.0</ele>
        <time>2020-02-22T10:29:49Z</time>
      </trkpt>
      <trkpt lat="39.0259440" lon="1.3152980">
        <ele>211.9</ele>
        <time>2020-02-22T10:29:50Z</time>
      </trkpt>
      <trkpt lat="39.0259530" lon="1.3153130">
        <ele>211.8</ele>
        <time>2020-02-22T10:29:51Z</time>
      </trkpt>
      <trkpt lat="39.0259730" lon="1.3153470">
        <ele>211.7</ele>
        <time>2020-02-22T10:29:52Z</time>
      </trkpt>
      <trkpt lat="39.0259880" lon="1.3153800">
        <ele>211.6</ele>
        <time>2020-02-22T10:29:53Z</time>
      </trkpt>
      <trkpt lat="39.0260020" lon="1.3154230">
        <ele>211.4</ele>
        <time>2020-02-22T10:29:54Z</time>
      </trkpt>
      <trkpt lat="39.0260170" lon="1.3154680">
        <ele>211.3</ele>
        <time>2020-02-22T10:29:55Z</time>
      </trkpt>
      <trkpt lat="39.0260330" lon="1.3155040">
        <ele>211.1</ele>
        <time>2020-02-22T10:29:56Z</time>
      </trkpt>
      <trkpt lat="39.0260500" lon="1.3155360">
        <ele>211.0</ele>
        <time>2020-02-22T10:29:57Z</time>
      </trkpt>
      <trkpt lat="39.0260610" lon="1.3155690">
        <ele>210.9</ele>
        <time>2020-02-22T10:29:58Z</time>
      </trkpt>
      <trkpt lat="39.0260810" lon="1.3155950">
        <ele>210.7</ele>
        <time>2020-02-22T10:29:59Z</time>
      </trkpt>
      <trkpt lat="39.0261000" lon="1.3156340">
        <ele>210.6</ele>
        <time>2020-02-22T10:30:00Z</time>
      </trkpt>
      <trkpt lat="39.0261080" lon="1.3156480">
        <ele>210.5</ele>
        <time>2020-02-22T10:30:01Z</time>
      </trkpt>
      <trkpt lat="39.0261210" lon="1.3156820">
        <ele>210.4</ele>
        <time>2020-02-22T10:30:02Z</time>
      </trkpt>
      <trkpt lat="39.0261390" lon="1.3157140">
        <ele>210.2</ele>
        <time>2020-02-22T10:30:03Z</time>
      </trkpt>
      <trkpt lat="39.0261640" lon="1.3157450">
        <ele>210.0</ele>
        <time>2020-02-22T10:30:04Z</time>
      </trkpt>
      <trkpt lat="39.0261720" lon="1.3157580">
        <ele>210.0</ele>
        <time>2020-02-22T10:30:05Z</time>
      </trkpt>
      <trkpt lat="39.0261940" lon="1.3157820">
        <ele>209.8</ele>
        <time>2020-02-22T10:30:06Z</time>
      </trkpt>
      <trkpt lat="39.0262250" lon="1.3158020">
        <ele>209.6</ele>
        <time>2020-02-22T10:30:07Z</time>
      </trkpt>
      <trkpt lat="39.0262360" lon="1.3158090">
        <ele>209.5</ele>
        <time>2020-02-22T10:30:08Z</time>
      </trkpt>
      <trkpt lat="39.0262580" lon="1.3158290">
        <ele>209.3</ele>
        <time>2020-02-22T10:30:09Z</time>
      </trkpt>
      <trkpt lat="39.0262810" lon="1.3158560">
        <ele>209.1</ele>
        <time>2020-02-22T10:30:10Z</time>
      </trkpt>
      <trkpt lat="39.0262970" lon="1.3158870">
        <ele>208.9</ele>
        <time>2020-02-22T10:30:11Z</time>
      </trkpt>
      <trkpt lat="39.0263150" lon="1.3159300">
        <ele>208.6</ele>
        <time>2020-02-22T10:30:12Z</time>
      </trkpt>
      <trkpt lat="39.0263210" lon="1.3159440">
        <ele>208.6</ele>
        <time>2020-02-22T10:30:13Z</time>
      </trkpt>
      <trkpt lat="39.0263360" lon="1.3159900">
        <ele>208.3</ele>
        <time>2020-02-22T10:30:14Z</time>
      </trkpt>
      <trkpt lat="39.0263420" lon="1.3160070">
        <ele>208.2</ele>
        <time>2020-02-22T10:30:15Z</time>
      </trkpt>
      <trkpt lat="39.0263640" lon="1.3160330">
        <ele>208.0</ele>
        <time>2020-02-22T10:30:16Z</time>
      </trkpt>
      <trkpt lat="39.0263870" lon="1.3160660">
        <ele>207.7</ele>
        <time>2020-02-22T10:30:17Z</time>
      </trkpt>
      <trkpt lat="39.0264070" lon="1.3160940">
        <ele>207.5</ele>
        <time>2020-02-22T10:30:18Z</time>
      </trkpt>
      <trkpt lat="39.0264410" lon="1.3161290">
        <ele>207.1</ele>
        <time>2020-02-22T10:30:19Z</time>
      </trkpt>
      <trkpt lat="39.0264540" lon="1.3161470">
        <ele>206.8</ele>
        <time>2020-02-22T10:30:20Z</time>
      </trkpt>
      <trkpt lat="39.0264920" lon="1.3161760">
        <ele>206.3</ele>
        <time>2020-02-22T10:30:21Z</time>
      </trkpt>
      <trkpt lat="39.0265060" lon="1.3161900">
        <ele>206.2</ele>
        <time>2020-02-22T10:30:22Z</time>
      </trkpt>
      <trkpt lat="39.0265470" lon="1.3162300">
        <ele>205.7</ele>
        <time>2020-02-22T10:30:23Z</time>
      </trkpt>
      <trkpt lat="39.0265650" lon="1.3162590">
        <ele>205.4</ele>
        <time>2020-02-22T10:30:24Z</time>
      </trkpt>
      <trkpt lat="39.0265780" lon="1.3163080">
        <ele>205.0</ele>
        <time>2020-02-22T10:30:25Z</time>
      </trkpt>
      <trkpt lat="39.0265980" lon="1.3163390">
        <ele>204.6</ele>
        <time>2020-02-22T10:30:26Z</time>
      </trkpt>
      <trkpt lat="39.0266100" lon="1.3163760">
        <ele>204.3</ele>
        <time>2020-02-22T10:30:27Z</time>
      </trkpt>
      <trkpt lat="39.0266220" lon="1.3164260">
        <ele>203.8</ele>
        <time>2020-02-22T10:30:28Z</time>
      </trkpt>
      <trkpt lat="39.0266410" lon="1.3164770">
        <ele>203.3</ele>
        <time>2020-02-22T10:30:29Z</time>
      </trkpt>
      <trkpt lat="39.0266530" lon="1.3165160">
        <ele>203.0</ele>
        <time>2020-02-22T10:30:30Z</time>
      </trkpt>
      <trkpt lat="39.0266670" lon="1.3165510">
        <ele>202.6</ele>
        <time>2020-02-22T10:30:31Z</time>
      </trkpt>
      <trkpt lat="39.0266720" lon="1.3165650">
        <ele>202.5</ele>
        <time>2020-02-22T10:30:32Z</time>
      </trkpt>
      <trkpt lat="39.0266860" lon="1.3165990">
        <ele>202.1</ele>
        <time>2020-02-22T10:30:33Z</time>
      </trkpt>
      <trkpt lat="39.0266910" lon="1.3166350">
        <ele>201.8</ele>
        <time>2020-02-22T10:30:34Z</time>
      </trkpt>
      <trkpt lat="39.0266980" lon="1.3166820">
        <ele>201.5</ele>
        <time>2020-02-22T10:30:35Z</time>
      </trkpt>
      <trkpt lat="39.0267180" lon="1.3167300">
        <ele>201.1</ele>
        <time>2020-02-22T10:30:36Z</time>
      </trkpt>
      <trkpt lat="39.0267330" lon="1.3167660">
        <ele>200.8</ele>
        <time>2020-02-22T10:30:37Z</time>
      </trkpt>
      <trkpt lat="39.0267420" lon="1.3168150">
        <ele>200.5</ele>
        <time>2020-02-22T10:30:38Z</time>
      </trkpt>
      <trkpt lat="39.0267550" lon="1.3168590">
        <ele>200.2</ele>
        <time>2020-02-22T10:30:39Z</time>
      </trkpt>
      <trkpt lat="39.0267660" lon="1.3168910">
        <ele>200.0</ele>
        <time>2020-02-22T10:30:40Z</time>
      </trkpt>
      <trkpt lat="39.0267940" lon="1.3169180">
        <ele>199.7</ele>
        <time>2020-02-22T10:30:41Z</time>
      </trkpt>
      <trkpt lat="39.0268120" lon="1.3169510">
        <ele>199.4</ele>
        <time>2020-02-22T10:30:42Z</time>
      </trkpt>
      <trkpt lat="39.0268270" lon="1.3169900">
        <ele>199.2</ele>
        <time>2020-02-22T10:30:43Z</time>
      </trkpt>
      <trkpt lat="39.0268410" lon="1.3170360">
        <ele>198.9</ele>
        <time>2020-02-22T10:30:44Z</time>
      </trkpt>
      <trkpt lat="39.0268490" lon="1.3170800">
        <ele>198.6</ele>
        <time>2020-02-22T10:30:45Z</time>
      </trkpt>
      <trkpt lat="39.0268570" lon="1.3171230">
        <ele>198.4</ele>
        <time>2020-02-22T10:30:46Z</time>
      </trkpt>
      <trkpt lat="39.0268630" lon="1.3171580">
        <ele>198.2</ele>
        <time>2020-02-22T10:30:47Z</time>
      </trkpt>
      <trkpt lat="39.0268790" lon="1.3172040">
        <ele>197.9</ele>
        <time>2020-02-22T10:30:48Z</time>
      </trkpt>
      <trkpt lat="39.0268830" lon="1.3172210">
        <ele>197.8</ele>
        <time>2020-02-22T10:30:49Z</time>
      </trkpt>
      <trkpt lat="39.0269010" lon="1.3172780">
        <ele>197.3</ele>
        <time>2020-02-22T10:30:50Z</time>
      </trkpt>
      <trkpt lat="39.0269170" lon="1.3173170">
        <ele>197.0</ele>
        <time>2020-02-22T10:30:51Z</time>
      </trkpt>
      <trkpt lat="39.0269420" lon="1.3173460">
        <ele>196.7</ele>
        <time>2020-02-22T10:30:52Z</time>
      </trkpt>
      <trkpt lat="39.0269680" lon="1.3173690">
        <ele>196.4</ele>
        <time>2020-02-22T10:30:53Z</time>
      </trkpt>
      <trkpt lat="39.0269760" lon="1.3174030">
        <ele>196.2</ele>
        <time>2020-02-22T10:30:54Z</time>
      </trkpt>
      <trkpt lat="39.0269970" lon="1.3174360">
        <ele>195.9</ele>
        <time>2020-02-22T10:30:55Z</time>
      </trkpt>
      <trkpt lat="39.0270170" lon="1.3174770">
        <ele>195.6</ele>
        <time>2020-02-22T10:30:56Z</time>
      </trkpt>
      <trkpt lat="39.0270280" lon="1.3175250">
        <ele>195.4</ele>
        <time>2020-02-22T10:30:57Z</time>
      </trkpt>
      <trkpt lat="39.0270440" lon="1.3175680">
        <ele>195.1</ele>
        <time>2020-02-22T10:30:58Z</time>
      </trkpt>
      <trkpt lat="39.0270620" lon="1.3176200">
        <ele>194.8</ele>
        <time>2020-02-22T10:30:59Z</time>
      </trkpt>
      <trkpt lat="39.0270840" lon="1.3176550">
        <ele>194.6</ele>
        <time>2020-02-22T10:31:00Z</time>
      </trkpt>
      <trkpt lat="39.0271010" lon="1.3177010">
        <ele>194.3</ele>
        <time>2020-02-22T10:31:01Z</time>
      </trkpt>
      <trkpt lat="39.0271150" lon="1.3177430">
        <ele>194.1</ele>
        <time>2020-02-22T10:31:02Z</time>
      </trkpt>
      <trkpt lat="39.0271310" lon="1.3177880">
        <ele>193.8</ele>
        <time>2020-02-22T10:31:03Z</time>
      </trkpt>
      <trkpt lat="39.0271500" lon="1.3178290">
        <ele>193.6</ele>
        <time>2020-02-22T10:31:04Z</time>
      </trkpt>
      <trkpt lat="39.0271720" lon="1.3178820">
        <ele>193.4</ele>
        <time>2020-02-22T10:31:05Z</time>
      </trkpt>
      <trkpt lat="39.0271920" lon="1.3179490">
        <ele>193.1</ele>
        <time>2020-02-22T10:31:06Z</time>
      </trkpt>
      <trkpt lat="39.0272110" lon="1.3179920">
        <ele>192.9</ele>
        <time>2020-02-22T10:31:07Z</time>
      </trkpt>
      <trkpt lat="39.0272260" lon="1.3180290">
        <ele>192.7</ele>
        <time>2020-02-22T10:31:08Z</time>
      </trkpt>
      <trkpt lat="39.0272400" lon="1.3180700">
        <ele>192.6</ele>
        <time>2020-02-22T10:31:09Z</time>
      </trkpt>
      <trkpt lat="39.0272650" lon="1.3181170">
        <ele>192.3</ele>
        <time>2020-02-22T10:31:10Z</time>
      </trkpt>
      <trkpt lat="39.0272860" lon="1.3181800">
        <ele>191.9</ele>
        <time>2020-02-22T10:31:11Z</time>
      </trkpt>
      <trkpt lat="39.0273110" lon="1.3182190">
        <ele>191.7</ele>
        <time>2020-02-22T10:31:12Z</time>
      </trkpt>
      <trkpt lat="39.0273360" lon="1.3182710">
        <ele>191.5</ele>
        <time>2020-02-22T10:31:13Z</time>
      </trkpt>
      <trkpt lat="39.0273520" lon="1.3183380">
        <ele>191.2</ele>
        <time>2020-02-22T10:31:14Z</time>
      </trkpt>
      <trkpt lat="39.0273690" lon="1.3184040">
        <ele>190.9</ele>
        <time>2020-02-22T10:31:15Z</time>
      </trkpt>
      <trkpt lat="39.0273730" lon="1.3184720">
        <ele>190.6</ele>
        <time>2020-02-22T10:31:16Z</time>
      </trkpt>
      <trkpt lat="39.0273850" lon="1.3185450">
        <ele>190.3</ele>
        <time>2020-02-22T10:31:17Z</time>
      </trkpt>
      <trkpt lat="39.0274040" lon="1.3186280">
        <ele>189.9</ele>
        <time>2020-02-22T10:31:18Z</time>
      </trkpt>
      <trkpt lat="39.0274370" lon="1.3186840">
        <ele>189.6</ele>
        <time>2020-02-22T10:31:19Z</time>
      </trkpt>
      <trkpt lat="39.0274700" lon="1.3187390">
        <ele>189.3</ele>
        <time>2020-02-22T10:31:20Z</time>
      </trkpt>
      <trkpt lat="39.0274960" lon="1.3187830">
        <ele>189.1</ele>
        <time>2020-02-22T10:31:21Z</time>
      </trkpt>
      <trkpt lat="39.0275160" lon="1.3188240">
        <ele>188.9</ele>
        <time>2020-02-22T10:31:22Z</time>
      </trkpt>
      <trkpt lat="39.0275350" lon="1.3188700">
        <ele>188.7</ele>
        <time>2020-02-22T10:31:23Z</time>
      </trkpt>
      <trkpt lat="39.0275550" lon="1.3189090">
        <ele>188.5</ele>
        <time>2020-02-22T10:31:24Z</time>
      </trkpt>
      <trkpt lat="39.0275680" lon="1.3189420">
        <ele>188.4</ele>
        <time>2020-02-22T10:31:25Z</time>
      </trkpt>
      <trkpt lat="39.0275830" lon="1.3189890">
        <ele>188.2</ele>
        <time>2020-02-22T10:31:26Z</time>
      </trkpt>
      <trkpt lat="39.0275950" lon="1.3190390">
        <ele>188.0</ele>
        <time>2020-02-22T10:31:27Z</time>
      </trkpt>
      <trkpt lat="39.0276150" lon="1.3190940">
        <ele>187.8</ele>
        <time>2020-02-22T10:31:28Z</time>
      </trkpt>
      <trkpt lat="39.0276210" lon="1.3191460">
        <ele>187.7</ele>
        <time>2020-02-22T10:31:29Z</time>
      </trkpt>
      <trkpt lat="39.0276130" lon="1.3191980">
        <ele>187.5</ele>
        <time>2020-02-22T10:31:30Z</time>
      </trkpt>
      <trkpt lat="39.0275860" lon="1.3192280">
        <ele>187.4</ele>
        <time>2020-02-22T10:31:31Z</time>
      </trkpt>
      <trkpt lat="39.0275430" lon="1.3192490">
        <ele>187.2</ele>
        <time>2020-02-22T10:31:32Z</time>
      </trkpt>
      <trkpt lat="39.0274970" lon="1.3192670">
        <ele>186.9</ele>
        <time>2020-02-22T10:31:33Z</time>
      </trkpt>
      <trkpt lat="39.0274510" lon="1.3192960">
        <ele>186.5</ele>
        <time>2020-02-22T10:31:34Z</time>
      </trkpt>
      <trkpt lat="39.0274110" lon="1.3193190">
        <ele>186.2</ele>
        <time>2020-02-22T10:31:35Z</time>
      </trkpt>
      <trkpt lat="39.0273830" lon="1.3193470">
        <ele>186.0</ele>
        <time>2020-02-22T10:31:36Z</time>
      </trkpt>
      <trkpt lat="39.0273560" lon="1.3193680">
        <ele>185.8</ele>
        <time>2020-02-22T10:31:37Z</time>
      </trkpt>
      <trkpt lat="39.0273220" lon="1.3193930">
        <ele>185.5</ele>
        <time>2020-02-22T10:31:38Z</time>
      </trkpt>
      <trkpt lat="39.0273090" lon="1.3194020">
        <ele>185.4</ele>
        <time>2020-02-22T10:31:39Z</time>
      </trkpt>
      <trkpt lat="39.0272760" lon="1.3194220">
        <ele>185.2</ele>
        <time>2020-02-22T10:31:40Z</time>
      </trkpt>
      <trkpt lat="39.0272280" lon="1.3194410">
        <ele>184.9</ele>
        <time>2020-02-22T10:31:41Z</time>
      </trkpt>
      <trkpt lat="39.0272050" lon="1.3194690">
        <ele>184.7</ele>
        <time>2020-02-22T10:31:42Z</time>
      </trkpt>
      <trkpt lat="39.0271660" lon="1.3195140">
        <ele>184.4</ele>
        <time>2020-02-22T10:31:43Z</time>
      </trkpt>
      <trkpt lat="39.0271310" lon="1.3195740">
        <ele>184.1</ele>
        <time>2020-02-22T10:31:44Z</time>
      </trkpt>
      <trkpt lat="39.0270930" lon="1.3196310">
        <ele>183.7</ele>
        <time>2020-02-22T10:31:45Z</time>
      </trkpt>
      <trkpt lat="39.0270620" lon="1.3196910">
        <ele>183.4</ele>
        <time>2020-02-22T10:31:46Z</time>
      </trkpt>
      <trkpt lat="39.0270340" lon="1.3197420">
        <ele>183.1</ele>
        <time>2020-02-22T10:31:47Z</time>
      </trkpt>
      <trkpt lat="39.0270070" lon="1.3198000">
        <ele>182.9</ele>
        <time>2020-02-22T10:31:48Z</time>
      </trkpt>
      <trkpt lat="39.0269910" lon="1.3198630">
        <ele>182.7</ele>
        <time>2020-02-22T10:31:49Z</time>
      </trkpt>
      <trkpt lat="39.0269850" lon="1.3199350">
        <ele>182.5</ele>
        <time>2020-02-22T10:31:50Z</time>
      </trkpt>
      <trkpt lat="39.0269860" lon="1.3200100">
        <ele>182.4</ele>
        <time>2020-02-22T10:31:51Z</time>
      </trkpt>
      <trkpt lat="39.0270180" lon="1.3200840">
        <ele>182.2</ele>
        <time>2020-02-22T10:31:52Z</time>
      </trkpt>
      <trkpt lat="39.0270520" lon="1.3201390">
        <ele>182.0</ele>
        <time>2020-02-22T10:31:53Z</time>
      </trkpt>
      <trkpt lat="39.0270890" lon="1.3201810">
        <ele>181.8</ele>
        <time>2020-02-22T10:31:54Z</time>
      </trkpt>
      <trkpt lat="39.0271230" lon="1.3202220">
        <ele>181.6</ele>
        <time>2020-02-22T10:31:55Z</time>
      </trkpt>
      <trkpt lat="39.0271570" lon="1.3202580">
        <ele>181.4</ele>
        <time>2020-02-22T10:31:56Z</time>
      </trkpt>
      <trkpt lat="39.0271940" lon="1.3202830">
        <ele>181.1</ele>
        <time>2020-02-22T10:31:57Z</time>
      </trkpt>
      <trkpt lat="39.0272280" lon="1.3203150">
        <ele>180.9</ele>
        <time>2020-02-22T10:31:58Z</time>
      </trkpt>
      <trkpt lat="39.0272620" lon="1.3203480">
        <ele>180.7</ele>
        <time>2020-02-22T10:31:59Z</time>
      </trkpt>
      <trkpt lat="39.0273050" lon="1.3203890">
        <ele>180.4</ele>
        <time>2020-02-22T10:32:00Z</time>
      </trkpt>
      <trkpt lat="39.0273470" lon="1.3204260">
        <ele>180.2</ele>
        <time>2020-02-22T10:32:01Z</time>
      </trkpt>
      <trkpt lat="39.0273950" lon="1.3204490">
        <ele>180.0</ele>
        <time>2020-02-22T10:32:02Z</time>
      </trkpt>
      <trkpt lat="39.0274410" lon="1.3204850">
        <ele>179.6</ele>
        <time>2020-02-22T10:32:03Z</time>
      </trkpt>
      <trkpt lat="39.0274870" lon="1.3205070">
        <ele>179.3</ele>
        <time>2020-02-22T10:32:04Z</time>
      </trkpt>
      <trkpt lat="39.0275130" lon="1.3205220">
        <ele>179.1</ele>
        <time>2020-02-22T10:32:05Z</time>
      </trkpt>
      <trkpt lat="39.0275580" lon="1.3205340">
        <ele>178.7</ele>
        <time>2020-02-22T10:32:06Z</time>
      </trkpt>
      <trkpt lat="39.0276020" lon="1.3205430">
        <ele>178.3</ele>
        <time>2020-02-22T10:32:07Z</time>
      </trkpt>
      <trkpt lat="39.0276480" lon="1.3205620">
        <ele>177.9</ele>
        <time>2020-02-22T10:32:08Z</time>
      </trkpt>
      <trkpt lat="39.0276970" lon="1.3205690">
        <ele>177.5</ele>
        <time>2020-02-22T10:32:09Z</time>
      </trkpt>
      <trkpt lat="39.0277450" lon="1.3205850">
        <ele>177.1</ele>
        <time>2020-02-22T10:32:10Z</time>
      </trkpt>
      <trkpt lat="39.0277940" lon="1.3206050">
        <ele>176.8</ele>
        <time>2020-02-22T10:32:11Z</time>
      </trkpt>
      <trkpt lat="39.0278370" lon="1.3206220">
        <ele>176.4</ele>
        <time>2020-02-22T10:32:12Z</time>
      </trkpt>
      <trkpt lat="39.0278690" lon="1.3206380">
        <ele>176.2</ele>
        <time>2020-02-22T10:32:13Z</time>
      </trkpt>
      <trkpt lat="39.0279090" lon="1.3206640">
        <ele>175.9</ele>
        <time>2020-02-22T10:32:14Z</time>
      </trkpt>
      <trkpt lat="39.0279430" lon="1.3206790">
        <ele>175.6</ele>
        <time>2020-02-22T10:32:15Z</time>
      </trkpt>
      <trkpt lat="39.0279760" lon="1.3206880">
        <ele>175.3</ele>
        <time>2020-02-22T10:32:16Z</time>
      </trkpt>
      <trkpt lat="39.0280150" lon="1.3206970">
        <ele>174.9</ele>
        <time>2020-02-22T10:32:17Z</time>
      </trkpt>
      <trkpt lat="39.0280280" lon="1.3207020">
        <ele>174.7</ele>
        <time>2020-02-22T10:32:18Z</time>
      </trkpt>
      <trkpt lat="39.0280630" lon="1.3207200">
        <ele>174.3</ele>
        <time>2020-02-22T10:32:19Z</time>
      </trkpt>
      <trkpt lat="39.0280720" lon="1.3207280">
        <ele>174.1</ele>
        <time>2020-02-22T10:32:20Z</time>
      </trkpt>
      <trkpt lat="39.0280950" lon="1.3207600">
        <ele>173.7</ele>
        <time>2020-02-22T10:32:21Z</time>
      </trkpt>
      <trkpt lat="39.0281220" lon="1.3207960">
        <ele>173.2</ele>
        <time>2020-02-22T10:32:22Z</time>
      </trkpt>
      <trkpt lat="39.0281450" lon="1.3208300">
        <ele>172.8</ele>
        <time>2020-02-22T10:32:23Z</time>
      </trkpt>
      <trkpt lat="39.0281470" lon="1.3208450">
        <ele>172.7</ele>
        <time>2020-02-22T10:32:24Z</time>
      </trkpt>
      <trkpt lat="39.0281680" lon="1.3208550">
        <ele>172.5</ele>
        <time>2020-02-22T10:32:25Z</time>
      </trkpt>
      <trkpt lat="39.0281750" lon="1.3208640">
        <ele>172.4</ele>
        <time>2020-02-22T10:32:26Z</time>
      </trkpt>
      <trkpt lat="39.0281810" lon="1.3208730">
        <ele>172.3</ele>
        <time>2020-02-22T10:32:27Z</time>
      </trkpt>
      <trkpt lat="39.0281860" lon="1.3208670">
        <ele>172.2</ele>
        <time>2020-02-22T10:32:28Z</time>
      </trkpt>
      <trkpt lat="39.0281900" lon="1.3208590">
        <ele>172.1</ele>
        <time>2020-02-22T10:32:29Z</time>
      </trkpt>
      <trkpt lat="39.0281940" lon="1.3208520">
        <ele>172.1</ele>
        <time>2020-02-22T10:32:30Z</time>
      </trkpt>
      <trkpt lat="39.0281980" lon="1.3208450">
        <ele>172.0</ele>
        <time>2020-02-22T10:32:31Z</time>
      </trkpt>
      <trkpt lat="39.0282020" lon="1.3208370">
        <ele>171.9</ele>
        <time>2020-02-22T10:32:32Z</time>
      </trkpt>
      <trkpt lat="39.0282060" lon="1.3208300">
        <ele>171.9</ele>
        <time>2020-02-22T10:32:33Z</time>
      </trkpt>
      <trkpt lat="39.0282160" lon="1.3207840">
        <ele>172.3</ele>
        <time>2020-02-22T10:32:34Z</time>
      </trkpt>
      <trkpt lat="39.0282190" lon="1.3207670">
        <ele>172.3</ele>
        <time>2020-02-22T10:32:35Z</time>
      </trkpt>
      <trkpt lat="39.0282250" lon="1.3207300">
        <ele>172.5</ele>
        <time>2020-02-22T10:32:36Z</time>
      </trkpt>
      <trkpt lat="39.0282470" lon="1.3206860">
        <ele>172.6</ele>
        <time>2020-02-22T10:32:37Z</time>
      </trkpt>
      <trkpt lat="39.0282550" lon="1.3206680">
        <ele>172.7</ele>
        <time>2020-02-22T10:32:38Z</time>
      </trkpt>
      <trkpt lat="39.0282740" lon="1.3206220">
        <ele>172.8</ele>
        <time>2020-02-22T10:32:39Z</time>
      </trkpt>
      <trkpt lat="39.0282800" lon="1.3206060">
        <ele>172.9</ele>
        <time>2020-02-22T10:32:40Z</time>
      </trkpt>
      <trkpt lat="39.0282920" lon="1.3205570">
        <ele>173.0</ele>
        <time>2020-02-22T10:32:41Z</time>
      </trkpt>
      <trkpt lat="39.0282970" lon="1.3205410">
        <ele>173.1</ele>
        <time>2020-02-22T10:32:42Z</time>
      </trkpt>
      <trkpt lat="39.0283080" lon="1.3205060">
        <ele>173.2</ele>
        <time>2020-02-22T10:32:43Z</time>
      </trkpt>
      <trkpt lat="39.0283230" lon="1.3204590">
        <ele>173.4</ele>
        <time>2020-02-22T10:32:44Z</time>
      </trkpt>
      <trkpt lat="39.0283310" lon="1.3204390">
        <ele>173.4</ele>
        <time>2020-02-22T10:32:45Z</time>
      </trkpt>
      <trkpt lat="39.0283480" lon="1.3203970">
        <ele>173.5</ele>
        <time>2020-02-22T10:32:46Z</time>
      </trkpt>
      <trkpt lat="39.0283530" lon="1.3203820">
        <ele>173.6</ele>
        <time>2020-02-22T10:32:47Z</time>
      </trkpt>
      <trkpt lat="39.0283730" lon="1.3203390">
        <ele>173.7</ele>
        <time>2020-02-22T10:32:48Z</time>
      </trkpt>
      <trkpt lat="39.0283780" lon="1.3203210">
        <ele>173.7</ele>
        <time>2020-02-22T10:32:49Z</time>
      </trkpt>
      <trkpt lat="39.0283870" lon="1.3202770">
        <ele>173.8</ele>
        <time>2020-02-22T10:32:50Z</time>
      </trkpt>
      <trkpt lat="39.0283930" lon="1.3202600">
        <ele>173.9</ele>
        <time>2020-02-22T10:32:51Z</time>
      </trkpt>
      <trkpt lat="39.0284060" lon="1.3202160">
        <ele>174.0</ele>
        <time>2020-02-22T10:32:52Z</time>
      </trkpt>
      <trkpt lat="39.0284090" lon="1.3201980">
        <ele>174.0</ele>
        <time>2020-02-22T10:32:53Z</time>
      </trkpt>
      <trkpt lat="39.0284170" lon="1.3201620">
        <ele>174.1</ele>
        <time>2020-02-22T10:32:54Z</time>
      </trkpt>
      <trkpt lat="39.0284250" lon="1.3201280">
        <ele>174.2</ele>
        <time>2020-02-22T10:32:55Z</time>
      </trkpt>
      <trkpt lat="39.0284390" lon="1.3200940">
        <ele>174.3</ele>
        <time>2020-02-22T10:32:56Z</time>
      </trkpt>
      <trkpt lat="39.0284420" lon="1.3200800">
        <ele>174.3</ele>
        <time>2020-02-22T10:32:57Z</time>
      </trkpt>
      <trkpt lat="39.0284400" lon="1.3200390">
        <ele>174.4</ele>
        <time>2020-02-22T10:32:58Z</time>
      </trkpt>
      <trkpt lat="39.0284350" lon="1.3200260">
        <ele>174.4</ele>
        <time>2020-02-22T10:32:59Z</time>
      </trkpt>
      <trkpt lat="39.0284250" lon="1.3200080">
        <ele>174.4</ele>
        <time>2020-02-22T10:33:00Z</time>
      </trkpt>
      <trkpt lat="39.0284180" lon="1.3199860">
        <ele>174.5</ele>
        <time>2020-02-22T10:33:01Z</time>
      </trkpt>
      <trkpt lat="39.0284140" lon="1.3199420">
        <ele>174.6</ele>
        <time>2020-02-22T10:33:02Z</time>
      </trkpt>
      <trkpt lat="39.0284150" lon="1.3199250">
        <ele>174.6</ele>
        <time>2020-02-22T10:33:03Z</time>
      </trkpt>
      <trkpt lat="39.0284120" lon="1.3198800">
        <ele>174.7</ele>
        <time>2020-02-22T10:33:04Z</time>
      </trkpt>
      <trkpt lat="39.0284100" lon="1.3198680">
        <ele>174.7</ele>
        <time>2020-02-22T10:33:05Z</time>
      </trkpt>
      <trkpt lat="39.0284200" lon="1.3198340">
        <ele>174.8</ele>
        <time>2020-02-22T10:33:06Z</time>
      </trkpt>
      <trkpt lat="39.0284220" lon="1.3198220">
        <ele>174.8</ele>
        <time>2020-02-22T10:33:07Z</time>
      </trkpt>
      <trkpt lat="39.0284230" lon="1.3197800">
        <ele>174.9</ele>
        <time>2020-02-22T10:33:08Z</time>
      </trkpt>
      <trkpt lat="39.0284220" lon="1.3197680">
        <ele>174.9</ele>
        <time>2020-02-22T10:33:09Z</time>
      </trkpt>
      <trkpt lat="39.0284290" lon="1.3197300">
        <ele>175.0</ele>
        <time>2020-02-22T10:33:10Z</time>
      </trkpt>
      <trkpt lat="39.0284400" lon="1.3196880">
        <ele>175.2</ele>
        <time>2020-02-22T10:33:11Z</time>
      </trkpt>
      <trkpt lat="39.0284440" lon="1.3196740">
        <ele>175.2</ele>
        <time>2020-02-22T10:33:12Z</time>
      </trkpt>
      <trkpt lat="39.0284600" lon="1.3196440">
        <ele>175.3</ele>
        <time>2020-02-22T10:33:13Z</time>
      </trkpt>
      <trkpt lat="39.0284640" lon="1.3196290">
        <ele>175.3</ele>
        <time>2020-02-22T10:33:14Z</time>
      </trkpt>
      <trkpt lat="39.0284910" lon="1.3196140">
        <ele>175.4</ele>
        <time>2020-02-22T10:33:15Z</time>
      </trkpt>
      <trkpt lat="39.0285210" lon="1.3195940">
        <ele>175.4</ele>
        <time>2020-02-22T10:33:16Z</time>
      </trkpt>
      <trkpt lat="39.0285320" lon="1.3195870">
        <ele>175.5</ele>
        <time>2020-02-22T10:33:17Z</time>
      </trkpt>
      <trkpt lat="39.0285540" lon="1.3195660">
        <ele>175.5</ele>
        <time>2020-02-22T10:33:18Z</time>
      </trkpt>
      <trkpt lat="39.0285810" lon="1.3195480">
        <ele>175.6</ele>
        <time>2020-02-22T10:33:19Z</time>
      </trkpt>
      <trkpt lat="39.0285910" lon="1.3195420">
        <ele>175.6</ele>
        <time>2020-02-22T10:33:20Z</time>
      </trkpt>
      <trkpt lat="39.0286250" lon="1.3195210">
        <ele>175.7</ele>
        <time>2020-02-22T10:33:21Z</time>
      </trkpt>
      <trkpt lat="39.0286380" lon="1.3195100">
        <ele>175.7</ele>
        <time>2020-02-22T10:33:22Z</time>
      </trkpt>
      <trkpt lat="39.0286680" lon="1.3194840">
        <ele>175.8</ele>
        <time>2020-02-22T10:33:23Z</time>
      </trkpt>
      <trkpt lat="39.0286910" lon="1.3194620">
        <ele>175.9</ele>
        <time>2020-02-22T10:33:24Z</time>
      </trkpt>
      <trkpt lat="39.0287270" lon="1.3194330">
        <ele>176.0</ele>
        <time>2020-02-22T10:33:25Z</time>
      </trkpt>
      <trkpt lat="39.0287420" lon="1.3194200">
        <ele>176.0</ele>
        <time>2020-02-22T10:33:26Z</time>
      </trkpt>
      <trkpt lat="39.0287730" lon="1.3193950">
        <ele>176.2</ele>
        <time>2020-02-22T10:33:27Z</time>
      </trkpt>
      <trkpt lat="39.0287970" lon="1.3193690">
        <ele>176.3</ele>
        <time>2020-02-22T10:33:28Z</time>
      </trkpt>
      <trkpt lat="39.0288230" lon="1.3193370">
        <ele>176.5</ele>
        <time>2020-02-22T10:33:29Z</time>
      </trkpt>
      <trkpt lat="39.0288480" lon="1.3193020">
        <ele>176.6</ele>
        <time>2020-02-22T10:33:30Z</time>
      </trkpt>
      <trkpt lat="39.0288790" lon="1.3192650">
        <ele>176.8</ele>
        <time>2020-02-22T10:33:31Z</time>
      </trkpt>
      <trkpt lat="39.0288990" lon="1.3192250">
        <ele>177.0</ele>
        <time>2020-02-22T10:33:32Z</time>
      </trkpt>
      <trkpt lat="39.0289170" lon="1.3191870">
        <ele>177.2</ele>
        <time>2020-02-22T10:33:33Z</time>
      </trkpt>
      <trkpt lat="39.0289350" lon="1.3191480">
        <ele>177.4</ele>
        <time>2020-02-22T10:33:34Z</time>
      </trkpt>
      <trkpt lat="39.0289560" lon="1.3191100">
        <ele>177.6</ele>
        <time>2020-02-22T10:33:35Z</time>
      </trkpt>
      <trkpt lat="39.0289760" lon="1.3190850">
        <ele>177.7</ele>
        <time>2020-02-22T10:33:36Z</time>
      </trkpt>
      <trkpt lat="39.0289970" lon="1.3190600">
        <ele>177.9</ele>
        <time>2020-02-22T10:33:37Z</time>
      </trkpt>
      <trkpt lat="39.0290230" lon="1.3190410">
        <ele>178.1</ele>
        <time>2020-02-22T10:33:38Z</time>
      </trkpt>
      <trkpt lat="39.0290540" lon="1.3190060">
        <ele>178.4</ele>
        <time>2020-02-22T10:33:39Z</time>
      </trkpt>
      <trkpt lat="39.0290850" lon="1.3189820">
        <ele>178.6</ele>
        <time>2020-02-22T10:33:40Z</time>
      </trkpt>
      <trkpt lat="39.0291180" lon="1.3189730">
        <ele>178.7</ele>
        <time>2020-02-22T10:33:41Z</time>
      </trkpt>
      <trkpt lat="39.0291520" lon="1.3189600">
        <ele>178.8</ele>
        <time>2020-02-22T10:33:42Z</time>
      </trkpt>
      <trkpt lat="39.0291790" lon="1.3189470">
        <ele>178.9</ele>
        <time>2020-02-22T10:33:43Z</time>
      </trkpt>
      <trkpt lat="39.0292070" lon="1.3189350">
        <ele>179.0</ele>
        <time>2020-02-22T10:33:44Z</time>
      </trkpt>
      <trkpt lat="39.0292350" lon="1.3189160">
        <ele>179.1</ele>
        <time>2020-02-22T10:33:45Z</time>
      </trkpt>
      <trkpt lat="39.0292610" lon="1.3188940">
        <ele>179.2</ele>
        <time>2020-02-22T10:33:46Z</time>
      </trkpt>
      <trkpt lat="39.0292900" lon="1.3188620">
        <ele>179.4</ele>
        <time>2020-02-22T10:33:47Z</time>
      </trkpt>
      <trkpt lat="39.0293140" lon="1.3188410">
        <ele>179.4</ele>
        <time>2020-02-22T10:33:48Z</time>
      </trkpt>
      <trkpt lat="39.0293400" lon="1.3188250">
        <ele>179.5</ele>
        <time>2020-02-22T10:33:49Z</time>
      </trkpt>
      <trkpt lat="39.0293630" lon="1.3188070">
        <ele>179.6</ele>
        <time>2020-02-22T10:33:50Z</time>
      </trkpt>
      <trkpt lat="39.0293970" lon="1.3187840">
        <ele>179.6</ele>
        <time>2020-02-22T10:33:51Z</time>
      </trkpt>
      <trkpt lat="39.0294090" lon="1.3187760">
        <ele>179.6</ele>
        <time>2020-02-22T10:33:52Z</time>
      </trkpt>
      <trkpt lat="39.0294420" lon="1.3187590">
        <ele>179.7</ele>
        <time>2020-02-22T10:33:53Z</time>
      </trkpt>
      <trkpt lat="39.0294510" lon="1.3187540">
        <ele>179.7</ele>
        <time>2020-02-22T10:33:54Z</time>
      </trkpt>
      <trkpt lat="39.0294790" lon="1.3187370">
        <ele>179.7</ele>
        <time>2020-02-22T10:33:55Z</time>
      </trkpt>
      <trkpt lat="39.0294890" lon="1.3187330">
        <ele>179.7</ele>
        <time>2020-02-22T10:33:56Z</time>
      </trkpt>
      <trkpt lat="39.0295170" lon="1.3187250">
        <ele>179.7</ele>
        <time>2020-02-22T10:33:57Z</time>
      </trkpt>
      <trkpt lat="39.0295250" lon="1.3187220">
        <ele>179.7</ele>
        <time>2020-02-22T10:33:58Z</time>
      </trkpt>
      <trkpt lat="39.0295350" lon="1.3187080">
        <ele>179.8</ele>
        <time>2020-02-22T10:33:59Z</time>
      </trkpt>
      <trkpt lat="39.0295480" lon="1.3186910">
        <ele>179.8</ele>
        <time>2020-02-22T10:34:00Z</time>
      </trkpt>
      <trkpt lat="39.0295740" lon="1.3186770">
        <ele>179.8</ele>
        <time>2020-02-22T10:34:01Z</time>
      </trkpt>
      <trkpt lat="39.0296010" lon="1.3186500">
        <ele>179.8</ele>
        <time>2020-02-22T10:34:02Z</time>
      </trkpt>
      <trkpt lat="39.0296090" lon="1.3186410">
        <ele>179.8</ele>
        <time>2020-02-22T10:34:03Z</time>
      </trkpt>
      <trkpt lat="39.0296360" lon="1.3186190">
        <ele>179.9</ele>
        <time>2020-02-22T10:34:04Z</time>
      </trkpt>
      <trkpt lat="39.0296440" lon="1.3186130">
        <ele>179.8</ele>
        <time>2020-02-22T10:34:05Z</time>
      </trkpt>
      <trkpt lat="39.0296680" lon="1.3185830">
        <ele>179.8</ele>
        <time>2020-02-22T10:34:06Z</time>
      </trkpt>
      <trkpt lat="39.0296750" lon="1.3185740">
        <ele>179.8</ele>
        <time>2020-02-22T10:34:07Z</time>
      </trkpt>
      <trkpt lat="39.0296990" lon="1.3185530">
        <ele>179.7</ele>
        <time>2020-02-22T10:34:08Z</time>
      </trkpt>
      <trkpt lat="39.0297060" lon="1.3185460">
        <ele>179.7</ele>
        <time>2020-02-22T10:34:09Z</time>
      </trkpt>
      <trkpt lat="39.0297210" lon="1.3185300">
        <ele>179.7</ele>
        <time>2020-02-22T10:34:10Z</time>
      </trkpt>
      <trkpt lat="39.0297340" lon="1.3185230">
        <ele>179.6</ele>
        <time>2020-02-22T10:34:11Z</time>
      </trkpt>
      <trkpt lat="39.0297570" lon="1.3185050">
        <ele>179.5</ele>
        <time>2020-02-22T10:34:12Z</time>
      </trkpt>
      <trkpt lat="39.0297670" lon="1.3184970">
        <ele>179.4</ele>
        <time>2020-02-22T10:34:13Z</time>
      </trkpt>
      <trkpt lat="39.0297870" lon="1.3184700">
        <ele>179.2</ele>
        <time>2020-02-22T10:34:14Z</time>
      </trkpt>
      <trkpt lat="39.0298150" lon="1.3184320">
        <ele>178.9</ele>
        <time>2020-02-22T10:34:15Z</time>
      </trkpt>
      <trkpt lat="39.0298230" lon="1.3184170">
        <ele>178.8</ele>
        <time>2020-02-22T10:34:16Z</time>
      </trkpt>
      <trkpt lat="39.0298430" lon="1.3183830">
        <ele>178.6</ele>
        <time>2020-02-22T10:34:17Z</time>
      </trkpt>
      <trkpt lat="39.0298610" lon="1.3183360">
        <ele>178.3</ele>
        <time>2020-02-22T10:34:18Z</time>
      </trkpt>
      <trkpt lat="39.0298750" lon="1.3182890">
        <ele>178.0</ele>
        <time>2020-02-22T10:34:19Z</time>
      </trkpt>
      <trkpt lat="39.0298930" lon="1.3182390">
        <ele>177.7</ele>
        <time>2020-02-22T10:34:20Z</time>
      </trkpt>
      <trkpt lat="39.0299160" lon="1.3181940">
        <ele>177.3</ele>
        <time>2020-02-22T10:34:21Z</time>
      </trkpt>
      <trkpt lat="39.0299440" lon="1.3181440">
        <ele>176.9</ele>
        <time>2020-02-22T10:34:22Z</time>
      </trkpt>
      <trkpt lat="39.0299740" lon="1.3180890">
        <ele>176.5</ele>
        <time>2020-02-22T10:34:23Z</time>
      </trkpt>
      <trkpt lat="39.0300080" lon="1.3180370">
        <ele>176.0</ele>
        <time>2020-02-22T10:34:24Z</time>
      </trkpt>
      <trkpt lat="39.0300310" lon="1.3179760">
        <ele>175.6</ele>
        <time>2020-02-22T10:34:25Z</time>
      </trkpt>
      <trkpt lat="39.0300570" lon="1.3179260">
        <ele>175.2</ele>
        <time>2020-02-22T10:34:26Z</time>
      </trkpt>
      <trkpt lat="39.0300840" lon="1.3178750">
        <ele>174.9</ele>
        <time>2020-02-22T10:34:27Z</time>
      </trkpt>
      <trkpt lat="39.0301160" lon="1.3178220">
        <ele>174.4</ele>
        <time>2020-02-22T10:34:28Z</time>
      </trkpt>
      <trkpt lat="39.0301520" lon="1.3177790">
        <ele>174.0</ele>
        <time>2020-02-22T10:34:29Z</time>
      </trkpt>
      <trkpt lat="39.0301900" lon="1.3177350">
        <ele>173.5</ele>
        <time>2020-02-22T10:34:30Z</time>
      </trkpt>
      <trkpt lat="39.0302260" lon="1.3176860">
        <ele>173.0</ele>
        <time>2020-02-22T10:34:31Z</time>
      </trkpt>
      <trkpt lat="39.0302610" lon="1.3176410">
        <ele>172.4</ele>
        <time>2020-02-22T10:34:32Z</time>
      </trkpt>
      <trkpt lat="39.0302960" lon="1.3175990">
        <ele>171.8</ele>
        <time>2020-02-22T10:34:33Z</time>
      </trkpt>
      <trkpt lat="39.0303310" lon="1.3175580">
        <ele>171.2</ele>
        <time>2020-02-22T10:34:34Z</time>
      </trkpt>
      <trkpt lat="39.0303740" lon="1.3175310">
        <ele>170.5</ele>
        <time>2020-02-22T10:34:35Z</time>
      </trkpt>
      <trkpt lat="39.0304110" lon="1.3175230">
        <ele>170.0</ele>
        <time>2020-02-22T10:34:36Z</time>
      </trkpt>
      <trkpt lat="39.0304700" lon="1.3175510">
        <ele>169.4</ele>
        <time>2020-02-22T10:34:37Z</time>
      </trkpt>
      <trkpt lat="39.0305230" lon="1.3175970">
        <ele>168.9</ele>
        <time>2020-02-22T10:34:38Z</time>
      </trkpt>
      <trkpt lat="39.0305850" lon="1.3176520">
        <ele>168.4</ele>
        <time>2020-02-22T10:34:39Z</time>
      </trkpt>
      <trkpt lat="39.0306520" lon="1.3176920">
        <ele>167.9</ele>
        <time>2020-02-22T10:34:40Z</time>
      </trkpt>
      <trkpt lat="39.0307230" lon="1.3177270">
        <ele>167.6</ele>
        <time>2020-02-22T10:34:41Z</time>
      </trkpt>
      <trkpt lat="39.0307870" lon="1.3177660">
        <ele>167.4</ele>
        <time>2020-02-22T10:34:42Z</time>
      </trkpt>
      <trkpt lat="39.0308480" lon="1.3178130">
        <ele>167.2</ele>
        <time>2020-02-22T10:34:43Z</time>
      </trkpt>
      <trkpt lat="39.0309010" lon="1.3178560">
        <ele>167.0</ele>
        <time>2020-02-22T10:34:44Z</time>
      </trkpt>
      <trkpt lat="39.0309580" lon="1.3179030">
        <ele>166.9</ele>
        <time>2020-02-22T10:34:45Z</time>
      </trkpt>
      <trkpt lat="39.0310020" lon="1.3179380">
        <ele>166.9</ele>
        <time>2020-02-22T10:34:46Z</time>
      </trkpt>
      <trkpt lat="39.0310450" lon="1.3179710">
        <ele>166.9</ele>
        <time>2020-02-22T10:34:47Z</time>
      </trkpt>
      <trkpt lat="39.0310860" lon="1.3180010">
        <ele>166.9</ele>
        <time>2020-02-22T10:34:48Z</time>
      </trkpt>
      <trkpt lat="39.0311180" lon="1.3180280">
        <ele>166.8</ele>
        <time>2020-02-22T10:34:49Z</time>
      </trkpt>
      <trkpt lat="39.0311360" lon="1.3180300">
        <ele>166.8</ele>
        <time>2020-02-22T10:34:50Z</time>
      </trkpt>
      <trkpt lat="39.0311350" lon="1.3180340">
        <ele>166.8</ele>
        <time>2020-02-22T10:34:51Z</time>
      </trkpt>
      <trkpt lat="39.0311320" lon="1.3180330">
        <ele>166.8</ele>
        <time>2020-02-22T10:34:52Z</time>
      </trkpt>
      <trkpt lat="39.0311310" lon="1.3180250">
        <ele>166.8</ele>
        <time>2020-02-22T10:34:53Z</time>
      </trkpt>
      <trkpt lat="39.0311330" lon="1.3180170">
        <ele>166.8</ele>
        <time>2020-02-22T10:34:54Z</time>
      </trkpt>
      <trkpt lat="39.0311410" lon="1.3180070">
        <ele>166.8</ele>
        <time>2020-02-22T10:34:55Z</time>
      </trkpt>
      <trkpt lat="39.0311460" lon="1.3180020">
        <ele>166.8</ele>
        <time>2020-02-22T10:34:56Z</time>
      </trkpt>
      <trkpt lat="39.0311480" lon="1.3180010">
        <ele>166.8</ele>
        <time>2020-02-22T10:34:57Z</time>
      </trkpt>
      <trkpt lat="39.0311480" lon="1.3179930">
        <ele>166.8</ele>
        <time>2020-02-22T10:34:58Z</time>
      </trkpt>
      <trkpt lat="39.0311440" lon="1.3179940">
        <ele>166.8</ele>
        <time>2020-02-22T10:34:59Z</time>
      </trkpt>
      <trkpt lat="39.0311380" lon="1.3179950">
        <ele>166.8</ele>
        <time>2020-02-22T10:35:00Z</time>
      </trkpt>
      <trkpt lat="39.0311300" lon="1.3179980">
        <ele>166.8</ele>
        <time>2020-02-22T10:35:01Z</time>
      </trkpt>
      <trkpt lat="39.0311350" lon="1.3180060">
        <ele>166.8</ele>
        <time>2020-02-22T10:35:02Z</time>
      </trkpt>
      <trkpt lat="39.0311440" lon="1.3180130">
        <ele>166.8</ele>
        <time>2020-02-22T10:35:03Z</time>
      </trkpt>
      <trkpt lat="39.0311470" lon="1.3180090">
        <ele>166.8</ele>
        <time>2020-02-22T10:35:04Z</time>
      </trkpt>
      <trkpt lat="39.0311810" lon="1.3180300">
        <ele>166.8</ele>
        <time>2020-02-22T10:35:14Z</time>
      </trkpt>
      <trkpt lat="39.0311960" lon="1.3180030">
        <ele>166.7</ele>
        <time>2020-02-22T10:35:15Z</time>
      </trkpt>
      <trkpt lat="39.0312170" lon="1.3179690">
        <ele>166.6</ele>
        <time>2020-02-22T10:35:16Z</time>
      </trkpt>
      <trkpt lat="39.0312420" lon="1.3179370">
        <ele>166.5</ele>
        <time>2020-02-22T10:35:17Z</time>
      </trkpt>
      <trkpt lat="39.0312660" lon="1.3179040">
        <ele>166.5</ele>
        <time>2020-02-22T10:35:18Z</time>
      </trkpt>
      <trkpt lat="39.0312840" lon="1.3178720">
        <ele>166.4</ele>
        <time>2020-02-22T10:35:19Z</time>
      </trkpt>
      <trkpt lat="39.0313100" lon="1.3178430">
        <ele>166.3</ele>
        <time>2020-02-22T10:35:20Z</time>
      </trkpt>
      <trkpt lat="39.0313330" lon="1.3178150">
        <ele>166.3</ele>
        <time>2020-02-22T10:35:21Z</time>
      </trkpt>
      <trkpt lat="39.0313550" lon="1.3177770">
        <ele>166.2</ele>
        <time>2020-02-22T10:35:22Z</time>
      </trkpt>
      <trkpt lat="39.0313810" lon="1.3177390">
        <ele>166.1</ele>
        <time>2020-02-22T10:35:23Z</time>
      </trkpt>
      <trkpt lat="39.0314080" lon="1.3177070">
        <ele>166.1</ele>
        <time>2020-02-22T10:35:24Z</time>
      </trkpt>
      <trkpt lat="39.0314380" lon="1.3176680">
        <ele>166.0</ele>
        <time>2020-02-22T10:35:25Z</time>
      </trkpt>
      <trkpt lat="39.0314630" lon="1.3176460">
        <ele>166.0</ele>
        <time>2020-02-22T10:35:26Z</time>
      </trkpt>
      <trkpt lat="39.0314840" lon="1.3176130">
        <ele>166.0</ele>
        <time>2020-02-22T10:35:27Z</time>
      </trkpt>
      <trkpt lat="39.0315110" lon="1.3175840">
        <ele>166.0</ele>
        <time>2020-02-22T10:35:28Z</time>
      </trkpt>
      <trkpt lat="39.0315400" lon="1.3175550">
        <ele>166.0</ele>
        <time>2020-02-22T10:35:29Z</time>
      </trkpt>
      <trkpt lat="39.0315720" lon="1.3175250">
        <ele>166.0</ele>
        <time>2020-02-22T10:35:30Z</time>
      </trkpt>
      <trkpt lat="39.0316000" lon="1.3174870">
        <ele>166.0</ele>
        <time>2020-02-22T10:35:31Z</time>
      </trkpt>
      <trkpt lat="39.0316250" lon="1.3174680">
        <ele>166.0</ele>
        <time>2020-02-22T10:35:32Z</time>
      </trkpt>
      <trkpt lat="39.0316640" lon="1.3174280">
        <ele>166.0</ele>
        <time>2020-02-22T10:35:33Z</time>
      </trkpt>
      <trkpt lat="39.0316830" lon="1.3174000">
        <ele>166.1</ele>
        <time>2020-02-22T10:35:34Z</time>
      </trkpt>
      <trkpt lat="39.0317120" lon="1.3173780">
        <ele>166.1</ele>
        <time>2020-02-22T10:35:35Z</time>
      </trkpt>
      <trkpt lat="39.0317500" lon="1.3173400">
        <ele>166.2</ele>
        <time>2020-02-22T10:35:36Z</time>
      </trkpt>
      <trkpt lat="39.0317770" lon="1.3173040">
        <ele>166.2</ele>
        <time>2020-02-22T10:35:37Z</time>
      </trkpt>
      <trkpt lat="39.0318060" lon="1.3172710">
        <ele>166.3</ele>
        <time>2020-02-22T10:35:38Z</time>
      </trkpt>
      <trkpt lat="39.0318290" lon="1.3172370">
        <ele>166.4</ele>
        <time>2020-02-22T10:35:39Z</time>
      </trkpt>
      <trkpt lat="39.0318540" lon="1.3172080">
        <ele>166.5</ele>
        <time>2020-02-22T10:35:40Z</time>
      </trkpt>
      <trkpt lat="39.0318730" lon="1.3171730">
        <ele>166.6</ele>
        <time>2020-02-22T10:35:41Z</time>
      </trkpt>
      <trkpt lat="39.0319000" lon="1.3171400">
        <ele>166.7</ele>
        <time>2020-02-22T10:35:42Z</time>
      </trkpt>
      <trkpt lat="39.0319260" lon="1.3171070">
        <ele>166.7</ele>
        <time>2020-02-22T10:35:43Z</time>
      </trkpt>
      <trkpt lat="39.0319580" lon="1.3170740">
        <ele>166.9</ele>
        <time>2020-02-22T10:35:44Z</time>
      </trkpt>
      <trkpt lat="39.0319940" lon="1.3170500">
        <ele>166.9</ele>
        <time>2020-02-22T10:35:45Z</time>
      </trkpt>
      <trkpt lat="39.0320300" lon="1.3170310">
        <ele>167.0</ele>
        <time>2020-02-22T10:35:46Z</time>
      </trkpt>
      <trkpt lat="39.0320570" lon="1.3170170">
        <ele>167.1</ele>
        <time>2020-02-22T10:35:47Z</time>
      </trkpt>
      <trkpt lat="39.0320860" lon="1.3170010">
        <ele>167.1</ele>
        <time>2020-02-22T10:35:48Z</time>
      </trkpt>
      <trkpt lat="39.0321240" lon="1.3169890">
        <ele>167.2</ele>
        <time>2020-02-22T10:35:49Z</time>
      </trkpt>
      <trkpt lat="39.0321380" lon="1.3169810">
        <ele>167.2</ele>
        <time>2020-02-22T10:35:50Z</time>
      </trkpt>
      <trkpt lat="39.0321720" lon="1.3169670">
        <ele>167.3</ele>
        <time>2020-02-22T10:35:51Z</time>
      </trkpt>
      <trkpt lat="39.0322080" lon="1.3169480">
        <ele>167.3</ele>
        <time>2020-02-22T10:35:52Z</time>
      </trkpt>
      <trkpt lat="39.0322430" lon="1.3169160">
        <ele>167.4</ele>
        <time>2020-02-22T10:35:53Z</time>
      </trkpt>
      <trkpt lat="39.0322720" lon="1.3168840">
        <ele>167.5</ele>
        <time>2020-02-22T10:35:54Z</time>
      </trkpt>
      <trkpt lat="39.0323010" lon="1.3168380">
        <ele>167.6</ele>
        <time>2020-02-22T10:35:55Z</time>
      </trkpt>
      <trkpt lat="39.0323240" lon="1.3167870">
        <ele>167.7</ele>
        <time>2020-02-22T10:35:56Z</time>
      </trkpt>
      <trkpt lat="39.0323410" lon="1.3167450">
        <ele>167.8</ele>
        <time>2020-02-22T10:35:57Z</time>
      </trkpt>
      <trkpt lat="39.0323610" lon="1.3166930">
        <ele>167.9</ele>
        <time>2020-02-22T10:35:58Z</time>
      </trkpt>
      <trkpt lat="39.0323860" lon="1.3166430">
        <ele>168.1</ele>
        <time>2020-02-22T10:35:59Z</time>
      </trkpt>
      <trkpt lat="39.0324160" lon="1.3166040">
        <ele>168.2</ele>
        <time>2020-02-22T10:36:00Z</time>
      </trkpt>
      <trkpt lat="39.0324370" lon="1.3165670">
        <ele>168.2</ele>
        <time>2020-02-22T10:36:01Z</time>
      </trkpt>
      <trkpt lat="39.0324610" lon="1.3165280">
        <ele>168.3</ele>
        <time>2020-02-22T10:36:02Z</time>
      </trkpt>
      <trkpt lat="39.0324900" lon="1.3164840">
        <ele>168.4</ele>
        <time>2020-02-22T10:36:03Z</time>
      </trkpt>
      <trkpt lat="39.0325110" lon="1.3164280">
        <ele>168.5</ele>
        <time>2020-02-22T10:36:04Z</time>
      </trkpt>
      <trkpt lat="39.0325380" lon="1.3163630">
        <ele>168.6</ele>
        <time>2020-02-22T10:36:05Z</time>
      </trkpt>
      <trkpt lat="39.0325680" lon="1.3163030">
        <ele>168.7</ele>
        <time>2020-02-22T10:36:06Z</time>
      </trkpt>
      <trkpt lat="39.0325960" lon="1.3162530">
        <ele>168.9</ele>
        <time>2020-02-22T10:36:07Z</time>
      </trkpt>
      <trkpt lat="39.0326200" lon="1.3162020">
        <ele>169.0</ele>
        <time>2020-02-22T10:36:08Z</time>
      </trkpt>
      <trkpt lat="39.0326410" lon="1.3161420">
        <ele>169.1</ele>
        <time>2020-02-22T10:36:09Z</time>
      </trkpt>
      <trkpt lat="39.0326550" lon="1.3160830">
        <ele>169.2</ele>
        <time>2020-02-22T10:36:10Z</time>
      </trkpt>
      <trkpt lat="39.0326590" lon="1.3160230">
        <ele>169.3</ele>
        <time>2020-02-22T10:36:11Z</time>
      </trkpt>
      <trkpt lat="39.0326590" lon="1.3159630">
        <ele>169.4</ele>
        <time>2020-02-22T10:36:12Z</time>
      </trkpt>
      <trkpt lat="39.0326680" lon="1.3159140">
        <ele>169.4</ele>
        <time>2020-02-22T10:36:13Z</time>
      </trkpt>
      <trkpt lat="39.0326770" lon="1.3158660">
        <ele>169.5</ele>
        <time>2020-02-22T10:36:14Z</time>
      </trkpt>
      <trkpt lat="39.0326790" lon="1.3158180">
        <ele>169.5</ele>
        <time>2020-02-22T10:36:15Z</time>
      </trkpt>
      <trkpt lat="39.0326830" lon="1.3157630">
        <ele>169.5</ele>
        <time>2020-02-22T10:36:16Z</time>
      </trkpt>
      <trkpt lat="39.0326870" lon="1.3157130">
        <ele>169.5</ele>
        <time>2020-02-22T10:36:17Z</time>
      </trkpt>
      <trkpt lat="39.0326810" lon="1.3156570">
        <ele>169.6</ele>
        <time>2020-02-22T10:36:18Z</time>
      </trkpt>
      <trkpt lat="39.0326870" lon="1.3156030">
        <ele>169.6</ele>
        <time>2020-02-22T10:36:19Z</time>
      </trkpt>
      <trkpt lat="39.0326930" lon="1.3155560">
        <ele>169.7</ele>
        <time>2020-02-22T10:36:20Z</time>
      </trkpt>
      <trkpt lat="39.0327100" lon="1.3155060">
        <ele>169.7</ele>
        <time>2020-02-22T10:36:21Z</time>
      </trkpt>
      <trkpt lat="39.0327410" lon="1.3154770">
        <ele>169.8</ele>
        <time>2020-02-22T10:36:22Z</time>
      </trkpt>
      <trkpt lat="39.0327780" lon="1.3154440">
        <ele>169.9</ele>
        <time>2020-02-22T10:36:23Z</time>
      </trkpt>
      <trkpt lat="39.0328060" lon="1.3154070">
        <ele>170.0</ele>
        <time>2020-02-22T10:36:24Z</time>
      </trkpt>
      <trkpt lat="39.0328400" lon="1.3153740">
        <ele>170.1</ele>
        <time>2020-02-22T10:36:25Z</time>
      </trkpt>
      <trkpt lat="39.0328780" lon="1.3153400">
        <ele>170.3</ele>
        <time>2020-02-22T10:36:26Z</time>
      </trkpt>
      <trkpt lat="39.0329020" lon="1.3152990">
        <ele>170.4</ele>
        <time>2020-02-22T10:36:27Z</time>
      </trkpt>
      <trkpt lat="39.0329380" lon="1.3152670">
        <ele>170.5</ele>
        <time>2020-02-22T10:36:28Z</time>
      </trkpt>
      <trkpt lat="39.0329770" lon="1.3152330">
        <ele>170.5</ele>
        <time>2020-02-22T10:36:29Z</time>
      </trkpt>
      <trkpt lat="39.0330130" lon="1.3152020">
        <ele>170.6</ele>
        <time>2020-02-22T10:36:30Z</time>
      </trkpt>
      <trkpt lat="39.0330550" lon="1.3151620">
        <ele>170.6</ele>
        <time>2020-02-22T10:36:31Z</time>
      </trkpt>
      <trkpt lat="39.0330910" lon="1.3151310">
        <ele>170.7</ele>
        <time>2020-02-22T10:36:32Z</time>
      </trkpt>
      <trkpt lat="39.0331290" lon="1.3151150">
        <ele>170.7</ele>
        <time>2020-02-22T10:36:33Z</time>
      </trkpt>
      <trkpt lat="39.0331670" lon="1.3150880">
        <ele>170.7</ele>
        <time>2020-02-22T10:36:34Z</time>
      </trkpt>
      <trkpt lat="39.0332040" lon="1.3150560">
        <ele>170.7</ele>
        <time>2020-02-22T10:36:35Z</time>
      </trkpt>
      <trkpt lat="39.0332430" lon="1.3150330">
        <ele>170.8</ele>
        <time>2020-02-22T10:36:36Z</time>
      </trkpt>
      <trkpt lat="39.0332820" lon="1.3150150">
        <ele>170.8</ele>
        <time>2020-02-22T10:36:37Z</time>
      </trkpt>
      <trkpt lat="39.0333180" lon="1.3150050">
        <ele>170.8</ele>
        <time>2020-02-22T10:36:38Z</time>
      </trkpt>
      <trkpt lat="39.0333530" lon="1.3149970">
        <ele>170.8</ele>
        <time>2020-02-22T10:36:39Z</time>
      </trkpt>
      <trkpt lat="39.0333850" lon="1.3149900">
        <ele>170.8</ele>
        <time>2020-02-22T10:36:40Z</time>
      </trkpt>
      <trkpt lat="39.0334190" lon="1.3150060">
        <ele>170.8</ele>
        <time>2020-02-22T10:36:41Z</time>
      </trkpt>
      <trkpt lat="39.0334600" lon="1.3150170">
        <ele>170.8</ele>
        <time>2020-02-22T10:36:42Z</time>
      </trkpt>
      <trkpt lat="39.0335010" lon="1.3150210">
        <ele>170.8</ele>
        <time>2020-02-22T10:36:43Z</time>
      </trkpt>
      <trkpt lat="39.0335410" lon="1.3150310">
        <ele>170.8</ele>
        <time>2020-02-22T10:36:44Z</time>
      </trkpt>
      <trkpt lat="39.0335800" lon="1.3150370">
        <ele>170.8</ele>
        <time>2020-02-22T10:36:45Z</time>
      </trkpt>
      <trkpt lat="39.0336210" lon="1.3150310">
        <ele>170.8</ele>
        <time>2020-02-22T10:36:46Z</time>
      </trkpt>
      <trkpt lat="39.0336530" lon="1.3150320">
        <ele>170.8</ele>
        <time>2020-02-22T10:36:47Z</time>
      </trkpt>
      <trkpt lat="39.0336840" lon="1.3150290">
        <ele>170.8</ele>
        <time>2020-02-22T10:36:48Z</time>
      </trkpt>
      <trkpt lat="39.0337150" lon="1.3150190">
        <ele>170.8</ele>
        <time>2020-02-22T10:36:49Z</time>
      </trkpt>
      <trkpt lat="39.0337470" lon="1.3150170">
        <ele>170.8</ele>
        <time>2020-02-22T10:36:50Z</time>
      </trkpt>
      <trkpt lat="39.0337790" lon="1.3150090">
        <ele>170.8</ele>
        <time>2020-02-22T10:36:51Z</time>
      </trkpt>
      <trkpt lat="39.0338060" lon="1.3149970">
        <ele>170.8</ele>
        <time>2020-02-22T10:36:52Z</time>
      </trkpt>
      <trkpt lat="39.0338420" lon="1.3149930">
        <ele>170.8</ele>
        <time>2020-02-22T10:36:53Z</time>
      </trkpt>
      <trkpt lat="39.0338830" lon="1.3149950">
        <ele>170.8</ele>
        <time>2020-02-22T10:36:54Z</time>
      </trkpt>
      <trkpt lat="39.0339270" lon="1.3149930">
        <ele>170.8</ele>
        <time>2020-02-22T10:36:55Z</time>
      </trkpt>
      <trkpt lat="39.0339690" lon="1.3149870">
        <ele>170.8</ele>
        <time>2020-02-22T10:36:56Z</time>
      </trkpt>
      <trkpt lat="39.0340090" lon="1.3149850">
        <ele>170.8</ele>
        <time>2020-02-22T10:36:57Z</time>
      </trkpt>
      <trkpt lat="39.0340540" lon="1.3149850">
        <ele>170.7</ele>
        <time>2020-02-22T10:36:58Z</time>
      </trkpt>
      <trkpt lat="39.0340960" lon="1.3149990">
        <ele>170.7</ele>
        <time>2020-02-22T10:36:59Z</time>
      </trkpt>
      <trkpt lat="39.0341360" lon="1.3150140">
        <ele>170.7</ele>
        <time>2020-02-22T10:37:00Z</time>
      </trkpt>
      <trkpt lat="39.0341740" lon="1.3150260">
        <ele>170.6</ele>
        <time>2020-02-22T10:37:01Z</time>
      </trkpt>
      <trkpt lat="39.0342150" lon="1.3150370">
        <ele>170.6</ele>
        <time>2020-02-22T10:37:02Z</time>
      </trkpt>
      <trkpt lat="39.0342540" lon="1.3150800">
        <ele>170.4</ele>
        <time>2020-02-22T10:37:03Z</time>
      </trkpt>
      <trkpt lat="39.0342970" lon="1.3151150">
        <ele>170.3</ele>
        <time>2020-02-22T10:37:04Z</time>
      </trkpt>
      <trkpt lat="39.0343430" lon="1.3151450">
        <ele>170.2</ele>
        <time>2020-02-22T10:37:05Z</time>
      </trkpt>
      <trkpt lat="39.0343890" lon="1.3151810">
        <ele>170.1</ele>
        <time>2020-02-22T10:37:06Z</time>
      </trkpt>
      <trkpt lat="39.0344260" lon="1.3152300">
        <ele>170.0</ele>
        <time>2020-02-22T10:37:07Z</time>
      </trkpt>
      <trkpt lat="39.0344680" lon="1.3152710">
        <ele>169.9</ele>
        <time>2020-02-22T10:37:08Z</time>
      </trkpt>
      <trkpt lat="39.0345030" lon="1.3153230">
        <ele>169.8</ele>
        <time>2020-02-22T10:37:09Z</time>
      </trkpt>
      <trkpt lat="39.0345300" lon="1.3153770">
        <ele>169.8</ele>
        <time>2020-02-22T10:37:10Z</time>
      </trkpt>
      <trkpt lat="39.0345470" lon="1.3154280">
        <ele>169.7</ele>
        <time>2020-02-22T10:37:11Z</time>
      </trkpt>
      <trkpt lat="39.0345630" lon="1.3154830">
        <ele>169.6</ele>
        <time>2020-02-22T10:37:12Z</time>
      </trkpt>
      <trkpt lat="39.0346000" lon="1.3155200">
        <ele>169.6</ele>
        <time>2020-02-22T10:37:13Z</time>
      </trkpt>
      <trkpt lat="39.0346320" lon="1.3155650">
        <ele>169.5</ele>
        <time>2020-02-22T10:37:14Z</time>
      </trkpt>
      <trkpt lat="39.0346650" lon="1.3156010">
        <ele>169.4</ele>
        <time>2020-02-22T10:37:15Z</time>
      </trkpt>
      <trkpt lat="39.0347120" lon="1.3156310">
        <ele>169.2</ele>
        <time>2020-02-22T10:37:16Z</time>
      </trkpt>
      <trkpt lat="39.0347620" lon="1.3156500">
        <ele>169.1</ele>
        <time>2020-02-22T10:37:17Z</time>
      </trkpt>
      <trkpt lat="39.0348150" lon="1.3156670">
        <ele>169.0</ele>
        <time>2020-02-22T10:37:18Z</time>
      </trkpt>
      <trkpt lat="39.0348640" lon="1.3156900">
        <ele>168.9</ele>
        <time>2020-02-22T10:37:19Z</time>
      </trkpt>
      <trkpt lat="39.0349190" lon="1.3156940">
        <ele>168.9</ele>
        <time>2020-02-22T10:37:20Z</time>
      </trkpt>
      <trkpt lat="39.0349800" lon="1.3156860">
        <ele>168.8</ele>
        <time>2020-02-22T10:37:21Z</time>
      </trkpt>
      <trkpt lat="39.0350370" lon="1.3156360">
        <ele>168.8</ele>
        <time>2020-02-22T10:37:22Z</time>
      </trkpt>
      <trkpt lat="39.0350850" lon="1.3155550">
        <ele>168.9</ele>
        <time>2020-02-22T10:37:23Z</time>
      </trkpt>
      <trkpt lat="39.0351320" lon="1.3154890">
        <ele>168.9</ele>
        <time>2020-02-22T10:37:24Z</time>
      </trkpt>
      <trkpt lat="39.0351760" lon="1.3154280">
        <ele>169.0</ele>
        <time>2020-02-22T10:37:25Z</time>
      </trkpt>
      <trkpt lat="39.0352180" lon="1.3153750">
        <ele>169.1</ele>
        <time>2020-02-22T10:37:26Z</time>
      </trkpt>
      <trkpt lat="39.0352650" lon="1.3153230">
        <ele>169.2</ele>
        <time>2020-02-22T10:37:27Z</time>
      </trkpt>
      <trkpt lat="39.0353200" lon="1.3152720">
        <ele>169.4</ele>
        <time>2020-02-22T10:37:28Z</time>
      </trkpt>
      <trkpt lat="39.0353610" lon="1.3152280">
        <ele>169.6</ele>
        <time>2020-02-22T10:37:29Z</time>
      </trkpt>
      <trkpt lat="39.0354130" lon="1.3152050">
        <ele>169.8</ele>
        <time>2020-02-22T10:37:30Z</time>
      </trkpt>
      <trkpt lat="39.0354770" lon="1.3152040">
        <ele>170.0</ele>
        <time>2020-02-22T10:37:31Z</time>
      </trkpt>
      <trkpt lat="39.0355430" lon="1.3152020">
        <ele>170.3</ele>
        <time>2020-02-22T10:37:32Z</time>
      </trkpt>
      <trkpt lat="39.0356010" lon="1.3151910">
        <ele>170.6</ele>
        <time>2020-02-22T10:37:33Z</time>
      </trkpt>
      <trkpt lat="39.0356630" lon="1.3151850">
        <ele>170.8</ele>
        <time>2020-02-22T10:37:34Z</time>
      </trkpt>
      <trkpt lat="39.0357230" lon="1.3151730">
        <ele>171.1</ele>
        <time>2020-02-22T10:37:35Z</time>
      </trkpt>
      <trkpt lat="39.0357970" lon="1.3151690">
        <ele>171.5</ele>
        <time>2020-02-22T10:37:36Z</time>
      </trkpt>
      <trkpt lat="39.0358330" lon="1.3151580">
        <ele>171.6</ele>
        <time>2020-02-22T10:37:37Z</time>
      </trkpt>
      <trkpt lat="39.0358720" lon="1.3151310">
        <ele>171.7</ele>
        <time>2020-02-22T10:37:38Z</time>
      </trkpt>
      <trkpt lat="39.0359170" lon="1.3151050">
        <ele>171.7</ele>
        <time>2020-02-22T10:37:39Z</time>
      </trkpt>
      <trkpt lat="39.0359690" lon="1.3151130">
        <ele>171.6</ele>
        <time>2020-02-22T10:37:40Z</time>
      </trkpt>
      <trkpt lat="39.0360210" lon="1.3151330">
        <ele>171.6</ele>
        <time>2020-02-22T10:37:41Z</time>
      </trkpt>
      <trkpt lat="39.0360680" lon="1.3151450">
        <ele>171.5</ele>
        <time>2020-02-22T10:37:42Z</time>
      </trkpt>
      <trkpt lat="39.0361150" lon="1.3151630">
        <ele>171.4</ele>
        <time>2020-02-22T10:37:43Z</time>
      </trkpt>
      <trkpt lat="39.0361660" lon="1.3151820">
        <ele>171.3</ele>
        <time>2020-02-22T10:37:44Z</time>
      </trkpt>
      <trkpt lat="39.0362140" lon="1.3151970">
        <ele>171.2</ele>
        <time>2020-02-22T10:37:45Z</time>
      </trkpt>
      <trkpt lat="39.0362640" lon="1.3152060">
        <ele>171.1</ele>
        <time>2020-02-22T10:37:46Z</time>
      </trkpt>
      <trkpt lat="39.0363150" lon="1.3152190">
        <ele>171.0</ele>
        <time>2020-02-22T10:37:47Z</time>
      </trkpt>
      <trkpt lat="39.0363670" lon="1.3152330">
        <ele>170.9</ele>
        <time>2020-02-22T10:37:48Z</time>
      </trkpt>
      <trkpt lat="39.0364180" lon="1.3152460">
        <ele>170.8</ele>
        <time>2020-02-22T10:37:49Z</time>
      </trkpt>
      <trkpt lat="39.0364850" lon="1.3153150">
        <ele>170.6</ele>
        <time>2020-02-22T10:37:50Z</time>
      </trkpt>
      <trkpt lat="39.0365240" lon="1.3153530">
        <ele>170.6</ele>
        <time>2020-02-22T10:37:51Z</time>
      </trkpt>
      <trkpt lat="39.0365800" lon="1.3154030">
        <ele>170.5</ele>
        <time>2020-02-22T10:37:52Z</time>
      </trkpt>
      <trkpt lat="39.0366300" lon="1.3154450">
        <ele>170.4</ele>
        <time>2020-02-22T10:37:53Z</time>
      </trkpt>
      <trkpt lat="39.0366670" lon="1.3154630">
        <ele>170.3</ele>
        <time>2020-02-22T10:37:54Z</time>
      </trkpt>
      <trkpt lat="39.0367180" lon="1.3154970">
        <ele>170.2</ele>
        <time>2020-02-22T10:37:55Z</time>
      </trkpt>
      <trkpt lat="39.0367680" lon="1.3155220">
        <ele>170.1</ele>
        <time>2020-02-22T10:37:56Z</time>
      </trkpt>
      <trkpt lat="39.0368040" lon="1.3155440">
        <ele>170.1</ele>
        <time>2020-02-22T10:37:57Z</time>
      </trkpt>
      <trkpt lat="39.0368440" lon="1.3155690">
        <ele>170.0</ele>
        <time>2020-02-22T10:37:58Z</time>
      </trkpt>
      <trkpt lat="39.0368880" lon="1.3155960">
        <ele>169.9</ele>
        <time>2020-02-22T10:37:59Z</time>
      </trkpt>
      <trkpt lat="39.0369340" lon="1.3156060">
        <ele>169.8</ele>
        <time>2020-02-22T10:38:00Z</time>
      </trkpt>
      <trkpt lat="39.0369790" lon="1.3156190">
        <ele>169.7</ele>
        <time>2020-02-22T10:38:01Z</time>
      </trkpt>
      <trkpt lat="39.0370190" lon="1.3156320">
        <ele>169.6</ele>
        <time>2020-02-22T10:38:02Z</time>
      </trkpt>
      <trkpt lat="39.0370650" lon="1.3156510">
        <ele>169.5</ele>
        <time>2020-02-22T10:38:03Z</time>
      </trkpt>
      <trkpt lat="39.0371130" lon="1.3156750">
        <ele>169.4</ele>
        <time>2020-02-22T10:38:04Z</time>
      </trkpt>
      <trkpt lat="39.0371570" lon="1.3157040">
        <ele>169.3</ele>
        <time>2020-02-22T10:38:05Z</time>
      </trkpt>
      <trkpt lat="39.0371980" lon="1.3157300">
        <ele>169.3</ele>
        <time>2020-02-22T10:38:06Z</time>
      </trkpt>
      <trkpt lat="39.0372470" lon="1.3157650">
        <ele>169.2</ele>
        <time>2020-02-22T10:38:07Z</time>
      </trkpt>
      <trkpt lat="39.0372880" lon="1.3157980">
        <ele>169.1</ele>
        <time>2020-02-22T10:38:08Z</time>
      </trkpt>
      <trkpt lat="39.0373310" lon="1.3158420">
        <ele>169.0</ele>
        <time>2020-02-22T10:38:09Z</time>
      </trkpt>
      <trkpt lat="39.0373740" lon="1.3158940">
        <ele>168.9</ele>
        <time>2020-02-22T10:38:10Z</time>
      </trkpt>
      <trkpt lat="39.0374140" lon="1.3159530">
        <ele>168.8</ele>
        <time>2020-02-22T10:38:11Z</time>
      </trkpt>
      <trkpt lat="39.0374480" lon="1.3160180">
        <ele>168.7</ele>
        <time>2020-02-22T10:38:12Z</time>
      </trkpt>
      <trkpt lat="39.0374960" lon="1.3160660">
        <ele>168.6</ele>
        <time>2020-02-22T10:38:13Z</time>
      </trkpt>
      <trkpt lat="39.0375510" lon="1.3161180">
        <ele>168.4</ele>
        <time>2020-02-22T10:38:14Z</time>
      </trkpt>
      <trkpt lat="39.0376010" lon="1.3161680">
        <ele>168.3</ele>
        <time>2020-02-22T10:38:15Z</time>
      </trkpt>
      <trkpt lat="39.0376480" lon="1.3162230">
        <ele>168.2</ele>
        <time>2020-02-22T10:38:16Z</time>
      </trkpt>
      <trkpt lat="39.0376950" lon="1.3162650">
        <ele>168.1</ele>
        <time>2020-02-22T10:38:17Z</time>
      </trkpt>
      <trkpt lat="39.0377320" lon="1.3163030">
        <ele>168.0</ele>
        <time>2020-02-22T10:38:18Z</time>
      </trkpt>
      <trkpt lat="39.0377770" lon="1.3163390">
        <ele>168.0</ele>
        <time>2020-02-22T10:38:19Z</time>
      </trkpt>
      <trkpt lat="39.0378250" lon="1.3163710">
        <ele>167.9</ele>
        <time>2020-02-22T10:38:20Z</time>
      </trkpt>
      <trkpt lat="39.0378780" lon="1.3164030">
        <ele>167.9</ele>
        <time>2020-02-22T10:38:21Z</time>
      </trkpt>
      <trkpt lat="39.0379240" lon="1.3164250">
        <ele>167.8</ele>
        <time>2020-02-22T10:38:22Z</time>
      </trkpt>
      <trkpt lat="39.0379620" lon="1.3164500">
        <ele>167.8</ele>
        <time>2020-02-22T10:38:23Z</time>
      </trkpt>
      <trkpt lat="39.0380030" lon="1.3164820">
        <ele>167.8</ele>
        <time>2020-02-22T10:38:24Z</time>
      </trkpt>
      <trkpt lat="39.0380410" lon="1.3164960">
        <ele>167.7</ele>
        <time>2020-02-22T10:38:25Z</time>
      </trkpt>
      <trkpt lat="39.0380770" lon="1.3165080">
        <ele>167.6</ele>
        <time>2020-02-22T10:38:26Z</time>
      </trkpt>
      <trkpt lat="39.0381100" lon="1.3165270">
        <ele>167.5</ele>
        <time>2020-02-22T10:38:27Z</time>
      </trkpt>
      <trkpt lat="39.0381420" lon="1.3165590">
        <ele>167.4</ele>
        <time>2020-02-22T10:38:28Z</time>
      </trkpt>
      <trkpt lat="39.0381770" lon="1.3165940">
        <ele>167.3</ele>
        <time>2020-02-22T10:38:29Z</time>
      </trkpt>
      <trkpt lat="39.0382170" lon="1.3166280">
        <ele>167.1</ele>
        <time>2020-02-22T10:38:30Z</time>
      </trkpt>
      <trkpt lat="39.0382580" lon="1.3166530">
        <ele>167.0</ele>
        <time>2020-02-22T10:38:31Z</time>
      </trkpt>
      <trkpt lat="39.0383000" lon="1.3166600">
        <ele>166.9</ele>
        <time>2020-02-22T10:38:32Z</time>
      </trkpt>
      <trkpt lat="39.0383410" lon="1.3166650">
        <ele>166.8</ele>
        <time>2020-02-22T10:38:33Z</time>
      </trkpt>
      <trkpt lat="39.0383770" lon="1.3166580">
        <ele>166.8</ele>
        <time>2020-02-22T10:38:34Z</time>
      </trkpt>
      <trkpt lat="39.0384140" lon="1.3166510">
        <ele>166.7</ele>
        <time>2020-02-22T10:38:35Z</time>
      </trkpt>
      <trkpt lat="39.0384510" lon="1.3166390">
        <ele>166.6</ele>
        <time>2020-02-22T10:38:36Z</time>
      </trkpt>
      <trkpt lat="39.0384860" lon="1.3166270">
        <ele>166.6</ele>
        <time>2020-02-22T10:38:37Z</time>
      </trkpt>
      <trkpt lat="39.0385200" lon="1.3166210">
        <ele>166.5</ele>
        <time>2020-02-22T10:38:38Z</time>
      </trkpt>
      <trkpt lat="39.0385520" lon="1.3166060">
        <ele>166.5</ele>
        <time>2020-02-22T10:38:39Z</time>
      </trkpt>
      <trkpt lat="39.0385840" lon="1.3165850">
        <ele>166.4</ele>
        <time>2020-02-22T10:38:40Z</time>
      </trkpt>
      <trkpt lat="39.0386160" lon="1.3165670">
        <ele>166.3</ele>
        <time>2020-02-22T10:38:41Z</time>
      </trkpt>
      <trkpt lat="39.0386530" lon="1.3165440">
        <ele>166.2</ele>
        <time>2020-02-22T10:38:42Z</time>
      </trkpt>
      <trkpt lat="39.0386900" lon="1.3165250">
        <ele>166.1</ele>
        <time>2020-02-22T10:38:43Z</time>
      </trkpt>
      <trkpt lat="39.0387390" lon="1.3164990">
        <ele>166.0</ele>
        <time>2020-02-22T10:38:44Z</time>
      </trkpt>
      <trkpt lat="39.0387830" lon="1.3164680">
        <ele>166.0</ele>
        <time>2020-02-22T10:38:45Z</time>
      </trkpt>
      <trkpt lat="39.0388240" lon="1.3164450">
        <ele>165.9</ele>
        <time>2020-02-22T10:38:46Z</time>
      </trkpt>
      <trkpt lat="39.0388810" lon="1.3164300">
        <ele>165.8</ele>
        <time>2020-02-22T10:38:47Z</time>
      </trkpt>
      <trkpt lat="39.0389420" lon="1.3164120">
        <ele>165.8</ele>
        <time>2020-02-22T10:38:48Z</time>
      </trkpt>
      <trkpt lat="39.0389900" lon="1.3163950">
        <ele>165.8</ele>
        <time>2020-02-22T10:38:49Z</time>
      </trkpt>
      <trkpt lat="39.0390380" lon="1.3163810">
        <ele>165.8</ele>
        <time>2020-02-22T10:38:50Z</time>
      </trkpt>
      <trkpt lat="39.0390960" lon="1.3163630">
        <ele>165.7</ele>
        <time>2020-02-22T10:38:51Z</time>
      </trkpt>
      <trkpt lat="39.0391460" lon="1.3163360">
        <ele>165.7</ele>
        <time>2020-02-22T10:38:52Z</time>
      </trkpt>
      <trkpt lat="39.0391940" lon="1.3163160">
        <ele>165.7</ele>
        <time>2020-02-22T10:38:53Z</time>
      </trkpt>
      <trkpt lat="39.0392420" lon="1.3162960">
        <ele>165.7</ele>
        <time>2020-02-22T10:38:54Z</time>
      </trkpt>
      <trkpt lat="39.0392970" lon="1.3162710">
        <ele>165.6</ele>
        <time>2020-02-22T10:38:55Z</time>
      </trkpt>
      <trkpt lat="39.0393520" lon="1.3162510">
        <ele>165.7</ele>
        <time>2020-02-22T10:38:56Z</time>
      </trkpt>
      <trkpt lat="39.0394060" lon="1.3162440">
        <ele>165.7</ele>
        <time>2020-02-22T10:38:57Z</time>
      </trkpt>
      <trkpt lat="39.0394570" lon="1.3162190">
        <ele>165.7</ele>
        <time>2020-02-22T10:38:58Z</time>
      </trkpt>
      <trkpt lat="39.0395090" lon="1.3161930">
        <ele>165.8</ele>
        <time>2020-02-22T10:38:59Z</time>
      </trkpt>
      <trkpt lat="39.0395650" lon="1.3161550">
        <ele>165.8</ele>
        <time>2020-02-22T10:39:00Z</time>
      </trkpt>
      <trkpt lat="39.0396270" lon="1.3161400">
        <ele>165.8</ele>
        <time>2020-02-22T10:39:01Z</time>
      </trkpt>
      <trkpt lat="39.0396790" lon="1.3161150">
        <ele>165.8</ele>
        <time>2020-02-22T10:39:02Z</time>
      </trkpt>
      <trkpt lat="39.0397260" lon="1.3160940">
        <ele>165.8</ele>
        <time>2020-02-22T10:39:03Z</time>
      </trkpt>
      <trkpt lat="39.0397770" lon="1.3160720">
        <ele>165.8</ele>
        <time>2020-02-22T10:39:04Z</time>
      </trkpt>
      <trkpt lat="39.0398270" lon="1.3160570">
        <ele>165.9</ele>
        <time>2020-02-22T10:39:05Z</time>
      </trkpt>
      <trkpt lat="39.0398780" lon="1.3160450">
        <ele>165.9</ele>
        <time>2020-02-22T10:39:06Z</time>
      </trkpt>
      <trkpt lat="39.0399320" lon="1.3160370">
        <ele>165.9</ele>
        <time>2020-02-22T10:39:07Z</time>
      </trkpt>
      <trkpt lat="39.0399740" lon="1.3160230">
        <ele>165.9</ele>
        <time>2020-02-22T10:39:08Z</time>
      </trkpt>
      <trkpt lat="39.0400240" lon="1.3160130">
        <ele>165.9</ele>
        <time>2020-02-22T10:39:09Z</time>
      </trkpt>
      <trkpt lat="39.0400740" lon="1.3159930">
        <ele>165.9</ele>
        <time>2020-02-22T10:39:10Z</time>
      </trkpt>
      <trkpt lat="39.0401400" lon="1.3160070">
        <ele>165.9</ele>
        <time>2020-02-22T10:39:11Z</time>
      </trkpt>
      <trkpt lat="39.0401950" lon="1.3160100">
        <ele>165.9</ele>
        <time>2020-02-22T10:39:12Z</time>
      </trkpt>
      <trkpt lat="39.0402450" lon="1.3160070">
        <ele>165.9</ele>
        <time>2020-02-22T10:39:13Z</time>
      </trkpt>
      <trkpt lat="39.0402940" lon="1.3160060">
        <ele>165.9</ele>
        <time>2020-02-22T10:39:14Z</time>
      </trkpt>
      <trkpt lat="39.0403410" lon="1.3160140">
        <ele>165.9</ele>
        <time>2020-02-22T10:39:15Z</time>
      </trkpt>
      <trkpt lat="39.0403840" lon="1.3160190">
        <ele>165.9</ele>
        <time>2020-02-22T10:39:16Z</time>
      </trkpt>
      <trkpt lat="39.0404240" lon="1.3160230">
        <ele>165.9</ele>
        <time>2020-02-22T10:39:17Z</time>
      </trkpt>
      <trkpt lat="39.0404720" lon="1.3160130">
        <ele>165.9</ele>
        <time>2020-02-22T10:39:18Z</time>
      </trkpt>
      <trkpt lat="39.0405050" lon="1.3159990">
        <ele>165.9</ele>
        <time>2020-02-22T10:39:19Z</time>
      </trkpt>
      <trkpt lat="39.0405440" lon="1.3159780">
        <ele>165.9</ele>
        <time>2020-02-22T10:39:20Z</time>
      </trkpt>
      <trkpt lat="39.0405820" lon="1.3159570">
        <ele>165.9</ele>
        <time>2020-02-22T10:39:21Z</time>
      </trkpt>
      <trkpt lat="39.0406160" lon="1.3159310">
        <ele>165.9</ele>
        <time>2020-02-22T10:39:22Z</time>
      </trkpt>
      <trkpt lat="39.0406500" lon="1.3159040">
        <ele>165.9</ele>
        <time>2020-02-22T10:39:23Z</time>
      </trkpt>
      <trkpt lat="39.0406930" lon="1.3158810">
        <ele>165.9</ele>
        <time>2020-02-22T10:39:24Z</time>
      </trkpt>
      <trkpt lat="39.0407290" lon="1.3158600">
        <ele>165.9</ele>
        <time>2020-02-22T10:39:25Z</time>
      </trkpt>
      <trkpt lat="39.0407680" lon="1.3158480">
        <ele>165.9</ele>
        <time>2020-02-22T10:39:26Z</time>
      </trkpt>
      <trkpt lat="39.0408120" lon="1.3158490">
        <ele>165.9</ele>
        <time>2020-02-22T10:39:27Z</time>
      </trkpt>
      <trkpt lat="39.0408590" lon="1.3158650">
        <ele>165.9</ele>
        <time>2020-02-22T10:39:28Z</time>
      </trkpt>
      <trkpt lat="39.0409090" lon="1.3158890">
        <ele>165.9</ele>
        <time>2020-02-22T10:39:29Z</time>
      </trkpt>
      <trkpt lat="39.0409560" lon="1.3159230">
        <ele>165.9</ele>
        <time>2020-02-22T10:39:30Z</time>
      </trkpt>
      <trkpt lat="39.0409970" lon="1.3159580">
        <ele>165.9</ele>
        <time>2020-02-22T10:39:31Z</time>
      </trkpt>
      <trkpt lat="39.0410310" lon="1.3160020">
        <ele>165.9</ele>
        <time>2020-02-22T10:39:32Z</time>
      </trkpt>
      <trkpt lat="39.0410730" lon="1.3160490">
        <ele>165.9</ele>
        <time>2020-02-22T10:39:33Z</time>
      </trkpt>
      <trkpt lat="39.0411180" lon="1.3161040">
        <ele>165.9</ele>
        <time>2020-02-22T10:39:34Z</time>
      </trkpt>
      <trkpt lat="39.0411490" lon="1.3161380">
        <ele>165.9</ele>
        <time>2020-02-22T10:39:35Z</time>
      </trkpt>
      <trkpt lat="39.0411680" lon="1.3161700">
        <ele>166.0</ele>
        <time>2020-02-22T10:39:36Z</time>
      </trkpt>
      <trkpt lat="39.0411800" lon="1.3162040">
        <ele>166.0</ele>
        <time>2020-02-22T10:39:37Z</time>
      </trkpt>
      <trkpt lat="39.0411800" lon="1.3162450">
        <ele>166.0</ele>
        <time>2020-02-22T10:39:38Z</time>
      </trkpt>
      <trkpt lat="39.0411830" lon="1.3163000">
        <ele>166.0</ele>
        <time>2020-02-22T10:39:39Z</time>
      </trkpt>
      <trkpt lat="39.0411880" lon="1.3163210">
        <ele>166.0</ele>
        <time>2020-02-22T10:39:40Z</time>
      </trkpt>
      <trkpt lat="39.0412020" lon="1.3163500">
        <ele>166.0</ele>
        <time>2020-02-22T10:39:41Z</time>
      </trkpt>
      <trkpt lat="39.0412210" lon="1.3163800">
        <ele>166.1</ele>
        <time>2020-02-22T10:39:42Z</time>
      </trkpt>
      <trkpt lat="39.0412360" lon="1.3164180">
        <ele>166.1</ele>
        <time>2020-02-22T10:39:43Z</time>
      </trkpt>
      <trkpt lat="39.0412520" lon="1.3164560">
        <ele>166.1</ele>
        <time>2020-02-22T10:39:44Z</time>
      </trkpt>
      <trkpt lat="39.0412740" lon="1.3164880">
        <ele>166.1</ele>
        <time>2020-02-22T10:39:45Z</time>
      </trkpt>
      <trkpt lat="39.0412960" lon="1.3165170">
        <ele>166.2</ele>
        <time>2020-02-22T10:39:46Z</time>
      </trkpt>
      <trkpt lat="39.0413020" lon="1.3165230">
        <ele>166.2</ele>
        <time>2020-02-22T10:39:47Z</time>
      </trkpt>
      <trkpt lat="39.0413300" lon="1.3165530">
        <ele>166.2</ele>
        <time>2020-02-22T10:39:48Z</time>
      </trkpt>
      <trkpt lat="39.0413430" lon="1.3165620">
        <ele>166.2</ele>
        <time>2020-02-22T10:39:49Z</time>
      </trkpt>
      <trkpt lat="39.0413740" lon="1.3165470">
        <ele>166.3</ele>
        <time>2020-02-22T10:39:50Z</time>
      </trkpt>
      <trkpt lat="39.0413820" lon="1.3165340">
        <ele>166.3</ele>
        <time>2020-02-22T10:39:51Z</time>
      </trkpt>
      <trkpt lat="39.0414030" lon="1.3165060">
        <ele>166.3</ele>
        <time>2020-02-22T10:39:52Z</time>
      </trkpt>
      <trkpt lat="39.0414350" lon="1.3164770">
        <ele>166.3</ele>
        <time>2020-02-22T10:39:53Z</time>
      </trkpt>
      <trkpt lat="39.0414460" lon="1.3164700">
        <ele>166.4</ele>
        <time>2020-02-22T10:39:54Z</time>
      </trkpt>
      <trkpt lat="39.0414800" lon="1.3164560">
        <ele>166.4</ele>
        <time>2020-02-22T10:39:55Z</time>
      </trkpt>
      <trkpt lat="39.0414910" lon="1.3164570">
        <ele>166.4</ele>
        <time>2020-02-22T10:39:56Z</time>
      </trkpt>
      <trkpt lat="39.0415270" lon="1.3164410">
        <ele>166.5</ele>
        <time>2020-02-22T10:39:57Z</time>
      </trkpt>
      <trkpt lat="39.0415420" lon="1.3164270">
        <ele>166.5</ele>
        <time>2020-02-22T10:39:58Z</time>
      </trkpt>
      <trkpt lat="39.0415670" lon="1.3163940">
        <ele>166.6</ele>
        <time>2020-02-22T10:39:59Z</time>
      </trkpt>
      <trkpt lat="39.0415880" lon="1.3163600">
        <ele>166.6</ele>
        <time>2020-02-22T10:40:00Z</time>
      </trkpt>
      <trkpt lat="39.0416100" lon="1.3163320">
        <ele>166.7</ele>
        <time>2020-02-22T10:40:01Z</time>
      </trkpt>
      <trkpt lat="39.0416410" lon="1.3163200">
        <ele>166.7</ele>
        <time>2020-02-22T10:40:02Z</time>
      </trkpt>
      <trkpt lat="39.0416670" lon="1.3163040">
        <ele>166.8</ele>
        <time>2020-02-22T10:40:03Z</time>
      </trkpt>
      <trkpt lat="39.0416860" lon="1.3162790">
        <ele>166.8</ele>
        <time>2020-02-22T10:40:04Z</time>
      </trkpt>
      <trkpt lat="39.0417080" lon="1.3162540">
        <ele>166.8</ele>
        <time>2020-02-22T10:40:05Z</time>
      </trkpt>
      <trkpt lat="39.0417150" lon="1.3162460">
        <ele>166.9</ele>
        <time>2020-02-22T10:40:06Z</time>
      </trkpt>
      <trkpt lat="39.0417370" lon="1.3162250">
        <ele>166.9</ele>
        <time>2020-02-22T10:40:07Z</time>
      </trkpt>
      <trkpt lat="39.0417530" lon="1.3162230">
        <ele>166.9</ele>
        <time>2020-02-22T10:40:08Z</time>
      </trkpt>
      <trkpt lat="39.0417550" lon="1.3162250">
        <ele>166.9</ele>
        <time>2020-02-22T10:40:09Z</time>
      </trkpt>
      <trkpt lat="39.0417530" lon="1.3162190">
        <ele>166.9</ele>
        <time>2020-02-22T10:40:10Z</time>
      </trkpt>
      <trkpt lat="39.0417530" lon="1.3162180">
        <ele>166.9</ele>
        <time>2020-02-22T10:40:11Z</time>
      </trkpt>
      <trkpt lat="39.0417520" lon="1.3162160">
        <ele>166.9</ele>
        <time>2020-02-22T10:40:12Z</time>
      </trkpt>
      <trkpt lat="39.0417510" lon="1.3162150">
        <ele>167.0</ele>
        <time>2020-02-22T10:40:13Z</time>
      </trkpt>
      <trkpt lat="39.0417520" lon="1.3162220">
        <ele>167.0</ele>
        <time>2020-02-22T10:40:14Z</time>
      </trkpt>
      <trkpt lat="39.0417500" lon="1.3162230">
        <ele>167.0</ele>
        <time>2020-02-22T10:40:15Z</time>
      </trkpt>
      <trkpt lat="39.0417490" lon="1.3162220">
        <ele>167.0</ele>
        <time>2020-02-22T10:40:16Z</time>
      </trkpt>
      <trkpt lat="39.0417490" lon="1.3162220">
        <ele>167.0</ele>
        <time>2020-02-22T10:40:17Z</time>
      </trkpt>
      <trkpt lat="39.0417480" lon="1.3162210">
        <ele>167.0</ele>
        <time>2020-02-22T10:40:18Z</time>
      </trkpt>
      <trkpt lat="39.0417520" lon="1.3162150">
        <ele>167.0</ele>
        <time>2020-02-22T10:40:19Z</time>
      </trkpt>
      <trkpt lat="39.0417740" lon="1.3161990">
        <ele>167.0</ele>
        <time>2020-02-22T10:40:21Z</time>
      </trkpt>
      <trkpt lat="39.0417800" lon="1.3161850">
        <ele>167.0</ele>
        <time>2020-02-22T10:40:22Z</time>
      </trkpt>
      <trkpt lat="39.0417750" lon="1.3161710">
        <ele>167.1</ele>
        <time>2020-02-22T10:40:23Z</time>
      </trkpt>
      <trkpt lat="39.0417710" lon="1.3161650">
        <ele>167.1</ele>
        <time>2020-02-22T10:40:24Z</time>
      </trkpt>
      <trkpt lat="39.0417660" lon="1.3161710">
        <ele>167.1</ele>
        <time>2020-02-22T10:40:25Z</time>
      </trkpt>
      <trkpt lat="39.0417620" lon="1.3161760">
        <ele>167.1</ele>
        <time>2020-02-22T10:40:26Z</time>
      </trkpt>
      <trkpt lat="39.0417580" lon="1.3161820">
        <ele>167.1</ele>
        <time>2020-02-22T10:40:27Z</time>
      </trkpt>
      <trkpt lat="39.0417530" lon="1.3161870">
        <ele>167.1</ele>
        <time>2020-02-22T10:40:28Z</time>
      </trkpt>
      <trkpt lat="39.0417490" lon="1.3161920">
        <ele>167.1</ele>
        <time>2020-02-22T10:40:29Z</time>
      </trkpt>
      <trkpt lat="39.0417450" lon="1.3161980">
        <ele>167.1</ele>
        <time>2020-02-22T10:40:30Z</time>
      </trkpt>
      <trkpt lat="39.0417400" lon="1.3162030">
        <ele>167.1</ele>
        <time>2020-02-22T10:40:31Z</time>
      </trkpt>
      <trkpt lat="39.0417360" lon="1.3162090">
        <ele>167.1</ele>
        <time>2020-02-22T10:40:32Z</time>
      </trkpt>
      <trkpt lat="39.0417320" lon="1.3162140">
        <ele>167.2</ele>
        <time>2020-02-22T10:40:33Z</time>
      </trkpt>
      <trkpt lat="39.0417270" lon="1.3162190">
        <ele>167.2</ele>
        <time>2020-02-22T10:40:34Z</time>
      </trkpt>
      <trkpt lat="39.0417230" lon="1.3162250">
        <ele>167.2</ele>
        <time>2020-02-22T10:41:54Z</time>
      </trkpt>
      <trkpt lat="39.0417190" lon="1.3162300">
        <ele>167.2</ele>
        <time>2020-02-22T10:41:55Z</time>
      </trkpt>
      <trkpt lat="39.0417150" lon="1.3162360">
        <ele>167.2</ele>
        <time>2020-02-22T10:41:56Z</time>
      </trkpt>
      <trkpt lat="39.0417100" lon="1.3162410">
        <ele>167.2</ele>
        <time>2020-02-22T10:41:57Z</time>
      </trkpt>
      <trkpt lat="39.0417060" lon="1.3162460">
        <ele>167.2</ele>
        <time>2020-02-22T10:41:58Z</time>
      </trkpt>
      <trkpt lat="39.0417020" lon="1.3162520">
        <ele>167.2</ele>
        <time>2020-02-22T10:41:59Z</time>
      </trkpt>
      <trkpt lat="39.0416970" lon="1.3162570">
        <ele>167.2</ele>
        <time>2020-02-22T10:42:00Z</time>
      </trkpt>
      <trkpt lat="39.0416930" lon="1.3162630">
        <ele>167.2</ele>
        <time>2020-02-22T10:42:01Z</time>
      </trkpt>
      <trkpt lat="39.0416890" lon="1.3162680">
        <ele>167.2</ele>
        <time>2020-02-22T10:42:02Z</time>
      </trkpt>
      <trkpt lat="39.0416840" lon="1.3162730">
        <ele>167.3</ele>
        <time>2020-02-22T10:42:03Z</time>
      </trkpt>
      <trkpt lat="39.0416800" lon="1.3162790">
        <ele>167.3</ele>
        <time>2020-02-22T10:42:04Z</time>
      </trkpt>
      <trkpt lat="39.0416760" lon="1.3162840">
        <ele>167.3</ele>
        <time>2020-02-22T10:42:05Z</time>
      </trkpt>
      <trkpt lat="39.0416710" lon="1.3162900">
        <ele>167.3</ele>
        <time>2020-02-22T10:48:04Z</time>
      </trkpt>
      <trkpt lat="39.0416670" lon="1.3162950">
        <ele>167.3</ele>
        <time>2020-02-22T10:48:05Z</time>
      </trkpt>
      <trkpt lat="39.0416320" lon="1.3163170">
        <ele>167.4</ele>
        <time>2020-02-22T10:48:06Z</time>
      </trkpt>
      <trkpt lat="39.0416180" lon="1.3163220">
        <ele>167.4</ele>
        <time>2020-02-22T10:48:07Z</time>
      </trkpt>
      <trkpt lat="39.0415790" lon="1.3163350">
        <ele>167.4</ele>
        <time>2020-02-22T10:48:08Z</time>
      </trkpt>
      <trkpt lat="39.0415610" lon="1.3163370">
        <ele>167.5</ele>
        <time>2020-02-22T10:48:09Z</time>
      </trkpt>
      <trkpt lat="39.0415240" lon="1.3163440">
        <ele>167.5</ele>
        <time>2020-02-22T10:48:10Z</time>
      </trkpt>
      <trkpt lat="39.0415040" lon="1.3163600">
        <ele>167.6</ele>
        <time>2020-02-22T10:48:11Z</time>
      </trkpt>
      <trkpt lat="39.0414950" lon="1.3163660">
        <ele>167.6</ele>
        <time>2020-02-22T10:48:12Z</time>
      </trkpt>
      <trkpt lat="39.0414860" lon="1.3163730">
        <ele>167.6</ele>
        <time>2020-02-22T10:48:13Z</time>
      </trkpt>
      <trkpt lat="39.0414430" lon="1.3163860">
        <ele>167.7</ele>
        <time>2020-02-22T10:48:14Z</time>
      </trkpt>
      <trkpt lat="39.0414250" lon="1.3163930">
        <ele>167.7</ele>
        <time>2020-02-22T10:48:15Z</time>
      </trkpt>
      <trkpt lat="39.0413980" lon="1.3164250">
        <ele>167.8</ele>
        <time>2020-02-22T10:48:16Z</time>
      </trkpt>
      <trkpt lat="39.0413880" lon="1.3164370">
        <ele>167.8</ele>
        <time>2020-02-22T10:48:17Z</time>
      </trkpt>
      <trkpt lat="39.0413810" lon="1.3164740">
        <ele>167.9</ele>
        <time>2020-02-22T10:48:18Z</time>
      </trkpt>
      <trkpt lat="39.0414030" lon="1.3165320">
        <ele>167.9</ele>
        <time>2020-02-22T10:48:19Z</time>
      </trkpt>
      <trkpt lat="39.0414120" lon="1.3165610">
        <ele>168.0</ele>
        <time>2020-02-22T10:48:20Z</time>
      </trkpt>
      <trkpt lat="39.0414170" lon="1.3166240">
        <ele>168.1</ele>
        <time>2020-02-22T10:48:21Z</time>
      </trkpt>
      <trkpt lat="39.0414340" lon="1.3167030">
        <ele>168.2</ele>
        <time>2020-02-22T10:48:22Z</time>
      </trkpt>
      <trkpt lat="39.0414370" lon="1.3167880">
        <ele>168.4</ele>
        <time>2020-02-22T10:48:23Z</time>
      </trkpt>
      <trkpt lat="39.0414340" lon="1.3168690">
        <ele>168.5</ele>
        <time>2020-02-22T10:48:24Z</time>
      </trkpt>
      <trkpt lat="39.0414400" lon="1.3169310">
        <ele>168.6</ele>
        <time>2020-02-22T10:48:25Z</time>
      </trkpt>
      <trkpt lat="39.0414490" lon="1.3170000">
        <ele>168.8</ele>
        <time>2020-02-22T10:48:26Z</time>
      </trkpt>
      <trkpt lat="39.0414490" lon="1.3170650">
        <ele>168.9</ele>
        <time>2020-02-22T10:48:27Z</time>
      </trkpt>
      <trkpt lat="39.0414530" lon="1.3171280">
        <ele>169.1</ele>
        <time>2020-02-22T10:48:28Z</time>
      </trkpt>
      <trkpt lat="39.0414690" lon="1.3171790">
        <ele>169.2</ele>
        <time>2020-02-22T10:48:29Z</time>
      </trkpt>
      <trkpt lat="39.0414770" lon="1.3172310">
        <ele>169.3</ele>
        <time>2020-02-22T10:48:30Z</time>
      </trkpt>
      <trkpt lat="39.0414780" lon="1.3172810">
        <ele>169.5</ele>
        <time>2020-02-22T10:48:31Z</time>
      </trkpt>
      <trkpt lat="39.0414900" lon="1.3173320">
        <ele>169.6</ele>
        <time>2020-02-22T10:48:32Z</time>
      </trkpt>
      <trkpt lat="39.0415010" lon="1.3173790">
        <ele>169.7</ele>
        <time>2020-02-22T10:48:33Z</time>
      </trkpt>
      <trkpt lat="39.0415100" lon="1.3174260">
        <ele>169.9</ele>
        <time>2020-02-22T10:48:34Z</time>
      </trkpt>
      <trkpt lat="39.0415120" lon="1.3174420">
        <ele>169.9</ele>
        <time>2020-02-22T10:48:35Z</time>
      </trkpt>
      <trkpt lat="39.0415170" lon="1.3174830">
        <ele>170.0</ele>
        <time>2020-02-22T10:48:36Z</time>
      </trkpt>
      <trkpt lat="39.0415140" lon="1.3174950">
        <ele>170.0</ele>
        <time>2020-02-22T10:48:37Z</time>
      </trkpt>
      <trkpt lat="39.0415070" lon="1.3175200">
        <ele>170.1</ele>
        <time>2020-02-22T10:48:38Z</time>
      </trkpt>
      <trkpt lat="39.0414940" lon="1.3175300">
        <ele>170.1</ele>
        <time>2020-02-22T10:48:39Z</time>
      </trkpt>
      <trkpt lat="39.0414670" lon="1.3175610">
        <ele>170.2</ele>
        <time>2020-02-22T10:48:40Z</time>
      </trkpt>
      <trkpt lat="39.0414560" lon="1.3175730">
        <ele>170.2</ele>
        <time>2020-02-22T10:48:41Z</time>
      </trkpt>
      <trkpt lat="39.0414220" lon="1.3176000">
        <ele>170.2</ele>
        <time>2020-02-22T10:48:42Z</time>
      </trkpt>
      <trkpt lat="39.0413820" lon="1.3176240">
        <ele>170.2</ele>
        <time>2020-02-22T10:48:43Z</time>
      </trkpt>
      <trkpt lat="39.0413460" lon="1.3176500">
        <ele>170.3</ele>
        <time>2020-02-22T10:48:44Z</time>
      </trkpt>
      <trkpt lat="39.0413210" lon="1.3176720">
        <ele>170.3</ele>
        <time>2020-02-22T10:48:45Z</time>
      </trkpt>
      <trkpt lat="39.0413000" lon="1.3177070">
        <ele>170.3</ele>
        <time>2020-02-22T10:48:46Z</time>
      </trkpt>
      <trkpt lat="39.0412800" lon="1.3177380">
        <ele>170.4</ele>
        <time>2020-02-22T10:48:47Z</time>
      </trkpt>
      <trkpt lat="39.0412630" lon="1.3177690">
        <ele>170.5</ele>
        <time>2020-02-22T10:48:48Z</time>
      </trkpt>
      <trkpt lat="39.0412480" lon="1.3178070">
        <ele>170.5</ele>
        <time>2020-02-22T10:48:49Z</time>
      </trkpt>
      <trkpt lat="39.0412350" lon="1.3178420">
        <ele>170.6</ele>
        <time>2020-02-22T10:48:50Z</time>
      </trkpt>
      <trkpt lat="39.0412120" lon="1.3178680">
        <ele>170.7</ele>
        <time>2020-02-22T10:48:51Z</time>
      </trkpt>
      <trkpt lat="39.0411960" lon="1.3179150">
        <ele>170.8</ele>
        <time>2020-02-22T10:48:52Z</time>
      </trkpt>
      <trkpt lat="39.0411900" lon="1.3179310">
        <ele>170.9</ele>
        <time>2020-02-22T10:48:53Z</time>
      </trkpt>
      <trkpt lat="39.0411560" lon="1.3179580">
        <ele>171.0</ele>
        <time>2020-02-22T10:48:54Z</time>
      </trkpt>
      <trkpt lat="39.0411410" lon="1.3179900">
        <ele>171.2</ele>
        <time>2020-02-22T10:48:55Z</time>
      </trkpt>
      <trkpt lat="39.0411320" lon="1.3180230">
        <ele>171.3</ele>
        <time>2020-02-22T10:48:56Z</time>
      </trkpt>
      <trkpt lat="39.0411230" lon="1.3180650">
        <ele>171.5</ele>
        <time>2020-02-22T10:48:57Z</time>
      </trkpt>
      <trkpt lat="39.0411190" lon="1.3181090">
        <ele>171.7</ele>
        <time>2020-02-22T10:48:58Z</time>
      </trkpt>
      <trkpt lat="39.0411120" lon="1.3181530">
        <ele>171.9</ele>
        <time>2020-02-22T10:48:59Z</time>
      </trkpt>
      <trkpt lat="39.0411140" lon="1.3181890">
        <ele>172.1</ele>
        <time>2020-02-22T10:49:00Z</time>
      </trkpt>
      <trkpt lat="39.0411100" lon="1.3182440">
        <ele>172.5</ele>
        <time>2020-02-22T10:49:01Z</time>
      </trkpt>
      <trkpt lat="39.0411060" lon="1.3182870">
        <ele>172.8</ele>
        <time>2020-02-22T10:49:02Z</time>
      </trkpt>
      <trkpt lat="39.0411060" lon="1.3183370">
        <ele>173.3</ele>
        <time>2020-02-22T10:49:03Z</time>
      </trkpt>
      <trkpt lat="39.0411090" lon="1.3183870">
        <ele>173.9</ele>
        <time>2020-02-22T10:49:04Z</time>
      </trkpt>
      <trkpt lat="39.0411170" lon="1.3184300">
        <ele>174.3</ele>
        <time>2020-02-22T10:49:05Z</time>
      </trkpt>
      <trkpt lat="39.0411310" lon="1.3184690">
        <ele>174.7</ele>
        <time>2020-02-22T10:49:06Z</time>
      </trkpt>
      <trkpt lat="39.0411400" lon="1.3185060">
        <ele>175.1</ele>
        <time>2020-02-22T10:49:07Z</time>
      </trkpt>
      <trkpt lat="39.0411490" lon="1.3185390">
        <ele>175.4</ele>
        <time>2020-02-22T10:49:08Z</time>
      </trkpt>
      <trkpt lat="39.0411590" lon="1.3185730">
        <ele>175.7</ele>
        <time>2020-02-22T10:49:09Z</time>
      </trkpt>
      <trkpt lat="39.0411690" lon="1.3186130">
        <ele>176.3</ele>
        <time>2020-02-22T10:49:10Z</time>
      </trkpt>
      <trkpt lat="39.0411760" lon="1.3186500">
        <ele>176.9</ele>
        <time>2020-02-22T10:49:11Z</time>
      </trkpt>
      <trkpt lat="39.0411830" lon="1.3186960">
        <ele>177.5</ele>
        <time>2020-02-22T10:49:12Z</time>
      </trkpt>
      <trkpt lat="39.0411830" lon="1.3187100">
        <ele>177.6</ele>
        <time>2020-02-22T10:49:13Z</time>
      </trkpt>
      <trkpt lat="39.0411750" lon="1.3187430">
        <ele>178.0</ele>
        <time>2020-02-22T10:49:14Z</time>
      </trkpt>
      <trkpt lat="39.0411690" lon="1.3187950">
        <ele>178.6</ele>
        <time>2020-02-22T10:49:15Z</time>
      </trkpt>
      <trkpt lat="39.0411680" lon="1.3188130">
        <ele>178.8</ele>
        <time>2020-02-22T10:49:16Z</time>
      </trkpt>
      <trkpt lat="39.0411620" lon="1.3188620">
        <ele>179.3</ele>
        <time>2020-02-22T10:49:17Z</time>
      </trkpt>
      <trkpt lat="39.0411600" lon="1.3188780">
        <ele>179.5</ele>
        <time>2020-02-22T10:49:18Z</time>
      </trkpt>
      <trkpt lat="39.0411490" lon="1.3189200">
        <ele>179.9</ele>
        <time>2020-02-22T10:49:19Z</time>
      </trkpt>
      <trkpt lat="39.0411520" lon="1.3189610">
        <ele>180.2</ele>
        <time>2020-02-22T10:49:20Z</time>
      </trkpt>
      <trkpt lat="39.0411540" lon="1.3189740">
        <ele>180.3</ele>
        <time>2020-02-22T10:49:21Z</time>
      </trkpt>
      <trkpt lat="39.0411490" lon="1.3190170">
        <ele>180.7</ele>
        <time>2020-02-22T10:49:22Z</time>
      </trkpt>
      <trkpt lat="39.0411440" lon="1.3190290">
        <ele>180.8</ele>
        <time>2020-02-22T10:49:23Z</time>
      </trkpt>
      <trkpt lat="39.0411300" lon="1.3190500">
        <ele>181.1</ele>
        <time>2020-02-22T10:49:24Z</time>
      </trkpt>
      <trkpt lat="39.0411260" lon="1.3190670">
        <ele>181.2</ele>
        <time>2020-02-22T10:49:25Z</time>
      </trkpt>
      <trkpt lat="39.0411210" lon="1.3191030">
        <ele>181.6</ele>
        <time>2020-02-22T10:49:26Z</time>
      </trkpt>
      <trkpt lat="39.0411180" lon="1.3191130">
        <ele>181.7</ele>
        <time>2020-02-22T10:49:27Z</time>
      </trkpt>
      <trkpt lat="39.0411170" lon="1.3191290">
        <ele>181.8</ele>
        <time>2020-02-22T10:49:28Z</time>
      </trkpt>
      <trkpt lat="39.0411140" lon="1.3191570">
        <ele>182.0</ele>
        <time>2020-02-22T10:49:29Z</time>
      </trkpt>
      <trkpt lat="39.0411130" lon="1.3191820">
        <ele>182.2</ele>
        <time>2020-02-22T10:49:30Z</time>
      </trkpt>
      <trkpt lat="39.0411090" lon="1.3192030">
        <ele>182.4</ele>
        <time>2020-02-22T10:49:31Z</time>
      </trkpt>
      <trkpt lat="39.0411050" lon="1.3192180">
        <ele>182.5</ele>
        <time>2020-02-22T10:49:32Z</time>
      </trkpt>
      <trkpt lat="39.0411020" lon="1.3192360">
        <ele>182.6</ele>
        <time>2020-02-22T10:49:33Z</time>
      </trkpt>
      <trkpt lat="39.0411020" lon="1.3192630">
        <ele>182.8</ele>
        <time>2020-02-22T10:49:34Z</time>
      </trkpt>
      <trkpt lat="39.0411060" lon="1.3192820">
        <ele>183.0</ele>
        <time>2020-02-22T10:49:35Z</time>
      </trkpt>
      <trkpt lat="39.0411140" lon="1.3192940">
        <ele>183.1</ele>
        <time>2020-02-22T10:49:36Z</time>
      </trkpt>
      <trkpt lat="39.0411220" lon="1.3193120">
        <ele>183.3</ele>
        <time>2020-02-22T10:49:37Z</time>
      </trkpt>
      <trkpt lat="39.0411240" lon="1.3193270">
        <ele>183.4</ele>
        <time>2020-02-22T10:49:38Z</time>
      </trkpt>
      <trkpt lat="39.0411220" lon="1.3193470">
        <ele>183.5</ele>
        <time>2020-02-22T10:49:39Z</time>
      </trkpt>
      <trkpt lat="39.0411170" lon="1.3193630">
        <ele>183.6</ele>
        <time>2020-02-22T10:49:40Z</time>
      </trkpt>
      <trkpt lat="39.0411140" lon="1.3193860">
        <ele>183.8</ele>
        <time>2020-02-22T10:49:41Z</time>
      </trkpt>
      <trkpt lat="39.0411180" lon="1.3194220">
        <ele>184.1</ele>
        <time>2020-02-22T10:49:42Z</time>
      </trkpt>
      <trkpt lat="39.0411210" lon="1.3194340">
        <ele>184.2</ele>
        <time>2020-02-22T10:49:43Z</time>
      </trkpt>
      <trkpt lat="39.0411290" lon="1.3194550">
        <ele>184.3</ele>
        <time>2020-02-22T10:49:44Z</time>
      </trkpt>
      <trkpt lat="39.0411370" lon="1.3194740">
        <ele>184.5</ele>
        <time>2020-02-22T10:49:45Z</time>
      </trkpt>
      <trkpt lat="39.0411540" lon="1.3195070">
        <ele>184.7</ele>
        <time>2020-02-22T10:49:46Z</time>
      </trkpt>
      <trkpt lat="39.0411560" lon="1.3195160">
        <ele>184.8</ele>
        <time>2020-02-22T10:49:47Z</time>
      </trkpt>
      <trkpt lat="39.0411600" lon="1.3195510">
        <ele>185.0</ele>
        <time>2020-02-22T10:49:48Z</time>
      </trkpt>
      <trkpt lat="39.0411600" lon="1.3195640">
        <ele>185.1</ele>
        <time>2020-02-22T10:49:49Z</time>
      </trkpt>
      <trkpt lat="39.0411630" lon="1.3196020">
        <ele>185.4</ele>
        <time>2020-02-22T10:49:50Z</time>
      </trkpt>
      <trkpt lat="39.0411660" lon="1.3196150">
        <ele>185.5</ele>
        <time>2020-02-22T10:49:51Z</time>
      </trkpt>
      <trkpt lat="39.0411680" lon="1.3196610">
        <ele>185.7</ele>
        <time>2020-02-22T10:49:52Z</time>
      </trkpt>
      <trkpt lat="39.0411700" lon="1.3196730">
        <ele>185.8</ele>
        <time>2020-02-22T10:49:53Z</time>
      </trkpt>
      <trkpt lat="39.0411750" lon="1.3196980">
        <ele>185.9</ele>
        <time>2020-02-22T10:49:54Z</time>
      </trkpt>
      <trkpt lat="39.0411850" lon="1.3197100">
        <ele>186.0</ele>
        <time>2020-02-22T10:49:55Z</time>
      </trkpt>
      <trkpt lat="39.0412020" lon="1.3197450">
        <ele>186.2</ele>
        <time>2020-02-22T10:49:56Z</time>
      </trkpt>
      <trkpt lat="39.0412070" lon="1.3197600">
        <ele>186.3</ele>
        <time>2020-02-22T10:49:57Z</time>
      </trkpt>
      <trkpt lat="39.0412080" lon="1.3197770">
        <ele>186.4</ele>
        <time>2020-02-22T10:49:58Z</time>
      </trkpt>
      <trkpt lat="39.0412080" lon="1.3198040">
        <ele>186.6</ele>
        <time>2020-02-22T10:49:59Z</time>
      </trkpt>
      <trkpt lat="39.0411980" lon="1.3198390">
        <ele>186.7</ele>
        <time>2020-02-22T10:50:00Z</time>
      </trkpt>
      <trkpt lat="39.0411930" lon="1.3198490">
        <ele>186.8</ele>
        <time>2020-02-22T10:50:01Z</time>
      </trkpt>
      <trkpt lat="39.0411820" lon="1.3198670">
        <ele>186.9</ele>
        <time>2020-02-22T10:50:02Z</time>
      </trkpt>
      <trkpt lat="39.0411820" lon="1.3198840">
        <ele>186.9</ele>
        <time>2020-02-22T10:50:03Z</time>
      </trkpt>
      <trkpt lat="39.0411860" lon="1.3199070">
        <ele>187.0</ele>
        <time>2020-02-22T10:50:04Z</time>
      </trkpt>
      <trkpt lat="39.0411940" lon="1.3199220">
        <ele>187.1</ele>
        <time>2020-02-22T10:50:05Z</time>
      </trkpt>
      <trkpt lat="39.0411970" lon="1.3199400">
        <ele>187.1</ele>
        <time>2020-02-22T10:50:06Z</time>
      </trkpt>
      <trkpt lat="39.0411950" lon="1.3199630">
        <ele>187.2</ele>
        <time>2020-02-22T10:50:07Z</time>
      </trkpt>
      <trkpt lat="39.0411870" lon="1.3199810">
        <ele>187.3</ele>
        <time>2020-02-22T10:50:08Z</time>
      </trkpt>
      <trkpt lat="39.0411740" lon="1.3199960">
        <ele>187.3</ele>
        <time>2020-02-22T10:50:09Z</time>
      </trkpt>
      <trkpt lat="39.0411680" lon="1.3200140">
        <ele>187.4</ele>
        <time>2020-02-22T10:50:10Z</time>
      </trkpt>
      <trkpt lat="39.0411600" lon="1.3200380">
        <ele>187.4</ele>
        <time>2020-02-22T10:50:11Z</time>
      </trkpt>
      <trkpt lat="39.0411570" lon="1.3200580">
        <ele>187.4</ele>
        <time>2020-02-22T10:50:12Z</time>
      </trkpt>
      <trkpt lat="39.0411500" lon="1.3200820">
        <ele>187.5</ele>
        <time>2020-02-22T10:50:13Z</time>
      </trkpt>
      <trkpt lat="39.0411380" lon="1.3201160">
        <ele>187.5</ele>
        <time>2020-02-22T10:50:14Z</time>
      </trkpt>
      <trkpt lat="39.0411340" lon="1.3201280">
        <ele>187.5</ele>
        <time>2020-02-22T10:50:15Z</time>
      </trkpt>
      <trkpt lat="39.0411100" lon="1.3201610">
        <ele>187.5</ele>
        <time>2020-02-22T10:50:16Z</time>
      </trkpt>
      <trkpt lat="39.0411040" lon="1.3201700">
        <ele>187.5</ele>
        <time>2020-02-22T10:50:17Z</time>
      </trkpt>
      <trkpt lat="39.0410850" lon="1.3202000">
        <ele>187.5</ele>
        <time>2020-02-22T10:50:18Z</time>
      </trkpt>
      <trkpt lat="39.0410790" lon="1.3202080">
        <ele>187.5</ele>
        <time>2020-02-22T10:50:19Z</time>
      </trkpt>
      <trkpt lat="39.0410570" lon="1.3202410">
        <ele>187.4</ele>
        <time>2020-02-22T10:50:20Z</time>
      </trkpt>
      <trkpt lat="39.0410480" lon="1.3202500">
        <ele>187.4</ele>
        <time>2020-02-22T10:50:21Z</time>
      </trkpt>
      <trkpt lat="39.0410340" lon="1.3202690">
        <ele>187.4</ele>
        <time>2020-02-22T10:50:22Z</time>
      </trkpt>
      <trkpt lat="39.0410240" lon="1.3202850">
        <ele>187.3</ele>
        <time>2020-02-22T10:50:23Z</time>
      </trkpt>
      <trkpt lat="39.0410110" lon="1.3203020">
        <ele>187.3</ele>
        <time>2020-02-22T10:50:24Z</time>
      </trkpt>
      <trkpt lat="39.0409990" lon="1.3203180">
        <ele>187.2</ele>
        <time>2020-02-22T10:50:25Z</time>
      </trkpt>
      <trkpt lat="39.0409730" lon="1.3203430">
        <ele>187.1</ele>
        <time>2020-02-22T10:50:26Z</time>
      </trkpt>
      <trkpt lat="39.0409620" lon="1.3203530">
        <ele>187.1</ele>
        <time>2020-02-22T10:50:27Z</time>
      </trkpt>
      <trkpt lat="39.0409470" lon="1.3203830">
        <ele>187.0</ele>
        <time>2020-02-22T10:50:28Z</time>
      </trkpt>
      <trkpt lat="39.0409160" lon="1.3204000">
        <ele>186.9</ele>
        <time>2020-02-22T10:50:29Z</time>
      </trkpt>
      <trkpt lat="39.0408820" lon="1.3204250">
        <ele>186.8</ele>
        <time>2020-02-22T10:50:30Z</time>
      </trkpt>
      <trkpt lat="39.0408710" lon="1.3204320">
        <ele>186.7</ele>
        <time>2020-02-22T10:50:31Z</time>
      </trkpt>
      <trkpt lat="39.0408410" lon="1.3204590">
        <ele>186.6</ele>
        <time>2020-02-22T10:50:32Z</time>
      </trkpt>
      <trkpt lat="39.0408180" lon="1.3204880">
        <ele>186.4</ele>
        <time>2020-02-22T10:50:33Z</time>
      </trkpt>
      <trkpt lat="39.0407920" lon="1.3205180">
        <ele>186.3</ele>
        <time>2020-02-22T10:50:34Z</time>
      </trkpt>
      <trkpt lat="39.0407650" lon="1.3205540">
        <ele>186.1</ele>
        <time>2020-02-22T10:50:35Z</time>
      </trkpt>
      <trkpt lat="39.0407420" lon="1.3205990">
        <ele>185.9</ele>
        <time>2020-02-22T10:50:36Z</time>
      </trkpt>
      <trkpt lat="39.0407240" lon="1.3206590">
        <ele>185.7</ele>
        <time>2020-02-22T10:50:37Z</time>
      </trkpt>
      <trkpt lat="39.0407090" lon="1.3207210">
        <ele>185.3</ele>
        <time>2020-02-22T10:50:38Z</time>
      </trkpt>
      <trkpt lat="39.0407010" lon="1.3207830">
        <ele>185.0</ele>
        <time>2020-02-22T10:50:39Z</time>
      </trkpt>
      <trkpt lat="39.0406890" lon="1.3208520">
        <ele>184.6</ele>
        <time>2020-02-22T10:50:40Z</time>
      </trkpt>
      <trkpt lat="39.0406760" lon="1.3209160">
        <ele>184.2</ele>
        <time>2020-02-22T10:50:41Z</time>
      </trkpt>
      <trkpt lat="39.0406630" lon="1.3209780">
        <ele>183.8</ele>
        <time>2020-02-22T10:50:42Z</time>
      </trkpt>
      <trkpt lat="39.0406550" lon="1.3210530">
        <ele>183.3</ele>
        <time>2020-02-22T10:50:43Z</time>
      </trkpt>
      <trkpt lat="39.0406440" lon="1.3211290">
        <ele>182.8</ele>
        <time>2020-02-22T10:50:44Z</time>
      </trkpt>
      <trkpt lat="39.0406230" lon="1.3211950">
        <ele>182.4</ele>
        <time>2020-02-22T10:50:45Z</time>
      </trkpt>
      <trkpt lat="39.0406030" lon="1.3212680">
        <ele>181.9</ele>
        <time>2020-02-22T10:50:46Z</time>
      </trkpt>
      <trkpt lat="39.0405860" lon="1.3213570">
        <ele>181.3</ele>
        <time>2020-02-22T10:50:47Z</time>
      </trkpt>
      <trkpt lat="39.0405640" lon="1.3214540">
        <ele>180.9</ele>
        <time>2020-02-22T10:50:48Z</time>
      </trkpt>
      <trkpt lat="39.0405490" lon="1.3215560">
        <ele>180.5</ele>
        <time>2020-02-22T10:50:49Z</time>
      </trkpt>
      <trkpt lat="39.0405280" lon="1.3216630">
        <ele>180.3</ele>
        <time>2020-02-22T10:50:50Z</time>
      </trkpt>
      <trkpt lat="39.0404990" lon="1.3217880">
        <ele>180.2</ele>
        <time>2020-02-22T10:50:51Z</time>
      </trkpt>
      <trkpt lat="39.0404850" lon="1.3219020">
        <ele>180.2</ele>
        <time>2020-02-22T10:50:52Z</time>
      </trkpt>
      <trkpt lat="39.0404810" lon="1.3220250">
        <ele>180.2</ele>
        <time>2020-02-22T10:50:53Z</time>
      </trkpt>
      <trkpt lat="39.0405190" lon="1.3221250">
        <ele>180.2</ele>
        <time>2020-02-22T10:50:54Z</time>
      </trkpt>
      <trkpt lat="39.0405390" lon="1.3222390">
        <ele>180.2</ele>
        <time>2020-02-22T10:50:55Z</time>
      </trkpt>
      <trkpt lat="39.0405380" lon="1.3223540">
        <ele>180.2</ele>
        <time>2020-02-22T10:50:56Z</time>
      </trkpt>
      <trkpt lat="39.0405300" lon="1.3224540">
        <ele>180.2</ele>
        <time>2020-02-22T10:50:57Z</time>
      </trkpt>
      <trkpt lat="39.0405360" lon="1.3225560">
        <ele>180.3</ele>
        <time>2020-02-22T10:50:58Z</time>
      </trkpt>
      <trkpt lat="39.0405300" lon="1.3226610">
        <ele>180.3</ele>
        <time>2020-02-22T10:50:59Z</time>
      </trkpt>
      <trkpt lat="39.0405400" lon="1.3227550">
        <ele>180.4</ele>
        <time>2020-02-22T10:51:00Z</time>
      </trkpt>
      <trkpt lat="39.0405410" lon="1.3228470">
        <ele>180.5</ele>
        <time>2020-02-22T10:51:01Z</time>
      </trkpt>
      <trkpt lat="39.0405460" lon="1.3229410">
        <ele>180.6</ele>
        <time>2020-02-22T10:51:02Z</time>
      </trkpt>
      <trkpt lat="39.0405460" lon="1.3230320">
        <ele>180.8</ele>
        <time>2020-02-22T10:51:03Z</time>
      </trkpt>
      <trkpt lat="39.0405480" lon="1.3231210">
        <ele>180.9</ele>
        <time>2020-02-22T10:51:04Z</time>
      </trkpt>
      <trkpt lat="39.0405480" lon="1.3232050">
        <ele>181.0</ele>
        <time>2020-02-22T10:51:05Z</time>
      </trkpt>
      <trkpt lat="39.0405380" lon="1.3232830">
        <ele>181.0</ele>
        <time>2020-02-22T10:51:06Z</time>
      </trkpt>
      <trkpt lat="39.0405300" lon="1.3233600">
        <ele>181.1</ele>
        <time>2020-02-22T10:51:07Z</time>
      </trkpt>
      <trkpt lat="39.0405250" lon="1.3234340">
        <ele>181.1</ele>
        <time>2020-02-22T10:51:08Z</time>
      </trkpt>
      <trkpt lat="39.0405270" lon="1.3235070">
        <ele>181.1</ele>
        <time>2020-02-22T10:51:09Z</time>
      </trkpt>
      <trkpt lat="39.0405300" lon="1.3235740">
        <ele>181.2</ele>
        <time>2020-02-22T10:51:10Z</time>
      </trkpt>
      <trkpt lat="39.0405210" lon="1.3236370">
        <ele>181.2</ele>
        <time>2020-02-22T10:51:11Z</time>
      </trkpt>
      <trkpt lat="39.0405160" lon="1.3237000">
        <ele>181.1</ele>
        <time>2020-02-22T10:51:12Z</time>
      </trkpt>
      <trkpt lat="39.0405030" lon="1.3237600">
        <ele>181.1</ele>
        <time>2020-02-22T10:51:13Z</time>
      </trkpt>
      <trkpt lat="39.0404930" lon="1.3238240">
        <ele>181.1</ele>
        <time>2020-02-22T10:51:14Z</time>
      </trkpt>
      <trkpt lat="39.0404830" lon="1.3238850">
        <ele>181.0</ele>
        <time>2020-02-22T10:51:15Z</time>
      </trkpt>
      <trkpt lat="39.0404720" lon="1.3239440">
        <ele>181.0</ele>
        <time>2020-02-22T10:51:16Z</time>
      </trkpt>
      <trkpt lat="39.0404690" lon="1.3240060">
        <ele>180.9</ele>
        <time>2020-02-22T10:51:17Z</time>
      </trkpt>
      <trkpt lat="39.0404610" lon="1.3240640">
        <ele>180.8</ele>
        <time>2020-02-22T10:51:18Z</time>
      </trkpt>
      <trkpt lat="39.0404590" lon="1.3241200">
        <ele>180.7</ele>
        <time>2020-02-22T10:51:19Z</time>
      </trkpt>
      <trkpt lat="39.0404600" lon="1.3241760">
        <ele>180.7</ele>
        <time>2020-02-22T10:51:20Z</time>
      </trkpt>
      <trkpt lat="39.0404700" lon="1.3242330">
        <ele>180.6</ele>
        <time>2020-02-22T10:51:21Z</time>
      </trkpt>
      <trkpt lat="39.0404810" lon="1.3242940">
        <ele>180.4</ele>
        <time>2020-02-22T10:51:22Z</time>
      </trkpt>
      <trkpt lat="39.0404930" lon="1.3243550">
        <ele>180.3</ele>
        <time>2020-02-22T10:51:23Z</time>
      </trkpt>
      <trkpt lat="39.0404950" lon="1.3244150">
        <ele>180.3</ele>
        <time>2020-02-22T10:51:24Z</time>
      </trkpt>
      <trkpt lat="39.0404960" lon="1.3244770">
        <ele>180.2</ele>
        <time>2020-02-22T10:51:25Z</time>
      </trkpt>
      <trkpt lat="39.0404910" lon="1.3245410">
        <ele>180.0</ele>
        <time>2020-02-22T10:51:26Z</time>
      </trkpt>
      <trkpt lat="39.0404820" lon="1.3246020">
        <ele>179.9</ele>
        <time>2020-02-22T10:51:27Z</time>
      </trkpt>
      <trkpt lat="39.0404700" lon="1.3246650">
        <ele>179.8</ele>
        <time>2020-02-22T10:51:28Z</time>
      </trkpt>
      <trkpt lat="39.0404560" lon="1.3247260">
        <ele>179.7</ele>
        <time>2020-02-22T10:51:29Z</time>
      </trkpt>
      <trkpt lat="39.0404330" lon="1.3247800">
        <ele>179.6</ele>
        <time>2020-02-22T10:51:30Z</time>
      </trkpt>
      <trkpt lat="39.0404270" lon="1.3248390">
        <ele>179.5</ele>
        <time>2020-02-22T10:51:31Z</time>
      </trkpt>
      <trkpt lat="39.0404120" lon="1.3248970">
        <ele>179.4</ele>
        <time>2020-02-22T10:51:32Z</time>
      </trkpt>
      <trkpt lat="39.0403960" lon="1.3249570">
        <ele>179.4</ele>
        <time>2020-02-22T10:51:33Z</time>
      </trkpt>
      <trkpt lat="39.0403830" lon="1.3250200">
        <ele>179.3</ele>
        <time>2020-02-22T10:51:34Z</time>
      </trkpt>
      <trkpt lat="39.0403610" lon="1.3250810">
        <ele>179.3</ele>
        <time>2020-02-22T10:51:35Z</time>
      </trkpt>
      <trkpt lat="39.0403540" lon="1.3251490">
        <ele>179.3</ele>
        <time>2020-02-22T10:51:36Z</time>
      </trkpt>
      <trkpt lat="39.0403440" lon="1.3252150">
        <ele>179.2</ele>
        <time>2020-02-22T10:51:37Z</time>
      </trkpt>
      <trkpt lat="39.0403330" lon="1.3252780">
        <ele>179.2</ele>
        <time>2020-02-22T10:51:38Z</time>
      </trkpt>
      <trkpt lat="39.0403170" lon="1.3253410">
        <ele>179.2</ele>
        <time>2020-02-22T10:51:39Z</time>
      </trkpt>
      <trkpt lat="39.0403050" lon="1.3254040">
        <ele>179.2</ele>
        <time>2020-02-22T10:51:40Z</time>
      </trkpt>
      <trkpt lat="39.0402940" lon="1.3254700">
        <ele>179.2</ele>
        <time>2020-02-22T10:51:41Z</time>
      </trkpt>
      <trkpt lat="39.0402800" lon="1.3255330">
        <ele>179.2</ele>
        <time>2020-02-22T10:51:42Z</time>
      </trkpt>
      <trkpt lat="39.0402660" lon="1.3255910">
        <ele>179.1</ele>
        <time>2020-02-22T10:51:43Z</time>
      </trkpt>
      <trkpt lat="39.0402570" lon="1.3256490">
        <ele>179.1</ele>
        <time>2020-02-22T10:51:44Z</time>
      </trkpt>
      <trkpt lat="39.0402370" lon="1.3257010">
        <ele>179.0</ele>
        <time>2020-02-22T10:51:45Z</time>
      </trkpt>
      <trkpt lat="39.0402270" lon="1.3257580">
        <ele>179.0</ele>
        <time>2020-02-22T10:51:46Z</time>
      </trkpt>
      <trkpt lat="39.0402060" lon="1.3258110">
        <ele>178.9</ele>
        <time>2020-02-22T10:51:47Z</time>
      </trkpt>
      <trkpt lat="39.0401810" lon="1.3258620">
        <ele>178.9</ele>
        <time>2020-02-22T10:51:48Z</time>
      </trkpt>
      <trkpt lat="39.0401540" lon="1.3259150">
        <ele>178.8</ele>
        <time>2020-02-22T10:51:49Z</time>
      </trkpt>
      <trkpt lat="39.0401290" lon="1.3259710">
        <ele>178.7</ele>
        <time>2020-02-22T10:51:50Z</time>
      </trkpt>
      <trkpt lat="39.0400910" lon="1.3260210">
        <ele>178.6</ele>
        <time>2020-02-22T10:51:51Z</time>
      </trkpt>
      <trkpt lat="39.0400660" lon="1.3260810">
        <ele>178.4</ele>
        <time>2020-02-22T10:51:52Z</time>
      </trkpt>
      <trkpt lat="39.0400440" lon="1.3261400">
        <ele>178.3</ele>
        <time>2020-02-22T10:51:53Z</time>
      </trkpt>
      <trkpt lat="39.0400250" lon="1.3262010">
        <ele>178.2</ele>
        <time>2020-02-22T10:51:54Z</time>
      </trkpt>
      <trkpt lat="39.0400070" lon="1.3262590">
        <ele>178.2</ele>
        <time>2020-02-22T10:51:55Z</time>
      </trkpt>
      <trkpt lat="39.0399890" lon="1.3263180">
        <ele>178.2</ele>
        <time>2020-02-22T10:51:56Z</time>
      </trkpt>
      <trkpt lat="39.0399760" lon="1.3263800">
        <ele>178.2</ele>
        <time>2020-02-22T10:51:57Z</time>
      </trkpt>
      <trkpt lat="39.0399640" lon="1.3264440">
        <ele>178.2</ele>
        <time>2020-02-22T10:51:58Z</time>
      </trkpt>
      <trkpt lat="39.0399510" lon="1.3265110">
        <ele>178.2</ele>
        <time>2020-02-22T10:51:59Z</time>
      </trkpt>
      <trkpt lat="39.0399400" lon="1.3265830">
        <ele>178.1</ele>
        <time>2020-02-22T10:52:00Z</time>
      </trkpt>
      <trkpt lat="39.0399280" lon="1.3266540">
        <ele>178.1</ele>
        <time>2020-02-22T10:52:01Z</time>
      </trkpt>
      <trkpt lat="39.0399150" lon="1.3267250">
        <ele>178.0</ele>
        <time>2020-02-22T10:52:02Z</time>
      </trkpt>
      <trkpt lat="39.0399080" lon="1.3267950">
        <ele>177.8</ele>
        <time>2020-02-22T10:52:03Z</time>
      </trkpt>
      <trkpt lat="39.0399010" lon="1.3268630">
        <ele>177.7</ele>
        <time>2020-02-22T10:52:04Z</time>
      </trkpt>
      <trkpt lat="39.0398930" lon="1.3269320">
        <ele>177.6</ele>
        <time>2020-02-22T10:52:05Z</time>
      </trkpt>
      <trkpt lat="39.0398770" lon="1.3270000">
        <ele>177.5</ele>
        <time>2020-02-22T10:52:06Z</time>
      </trkpt>
      <trkpt lat="39.0398630" lon="1.3270680">
        <ele>177.3</ele>
        <time>2020-02-22T10:52:07Z</time>
      </trkpt>
      <trkpt lat="39.0398480" lon="1.3271360">
        <ele>177.2</ele>
        <time>2020-02-22T10:52:08Z</time>
      </trkpt>
      <trkpt lat="39.0398330" lon="1.3272030">
        <ele>177.1</ele>
        <time>2020-02-22T10:52:09Z</time>
      </trkpt>
      <trkpt lat="39.0398160" lon="1.3272680">
        <ele>176.9</ele>
        <time>2020-02-22T10:52:10Z</time>
      </trkpt>
      <trkpt lat="39.0398070" lon="1.3273350">
        <ele>176.8</ele>
        <time>2020-02-22T10:52:11Z</time>
      </trkpt>
      <trkpt lat="39.0398030" lon="1.3273990">
        <ele>176.7</ele>
        <time>2020-02-22T10:52:12Z</time>
      </trkpt>
      <trkpt lat="39.0397910" lon="1.3274650">
        <ele>176.6</ele>
        <time>2020-02-22T10:52:13Z</time>
      </trkpt>
      <trkpt lat="39.0397780" lon="1.3275320">
        <ele>176.5</ele>
        <time>2020-02-22T10:52:14Z</time>
      </trkpt>
      <trkpt lat="39.0397670" lon="1.3275990">
        <ele>176.5</ele>
        <time>2020-02-22T10:52:15Z</time>
      </trkpt>
      <trkpt lat="39.0397560" lon="1.3276650">
        <ele>176.4</ele>
        <time>2020-02-22T10:52:16Z</time>
      </trkpt>
      <trkpt lat="39.0397470" lon="1.3277350">
        <ele>176.4</ele>
        <time>2020-02-22T10:52:17Z</time>
      </trkpt>
      <trkpt lat="39.0397320" lon="1.3278030">
        <ele>176.4</ele>
        <time>2020-02-22T10:52:18Z</time>
      </trkpt>
      <trkpt lat="39.0397160" lon="1.3278700">
        <ele>176.4</ele>
        <time>2020-02-22T10:52:19Z</time>
      </trkpt>
      <trkpt lat="39.0396990" lon="1.3279360">
        <ele>176.4</ele>
        <time>2020-02-22T10:52:20Z</time>
      </trkpt>
      <trkpt lat="39.0396840" lon="1.3280010">
        <ele>176.4</ele>
        <time>2020-02-22T10:52:21Z</time>
      </trkpt>
      <trkpt lat="39.0396720" lon="1.3280640">
        <ele>176.4</ele>
        <time>2020-02-22T10:52:22Z</time>
      </trkpt>
      <trkpt lat="39.0396610" lon="1.3281260">
        <ele>176.4</ele>
        <time>2020-02-22T10:52:23Z</time>
      </trkpt>
      <trkpt lat="39.0396530" lon="1.3281870">
        <ele>176.4</ele>
        <time>2020-02-22T10:52:24Z</time>
      </trkpt>
      <trkpt lat="39.0396420" lon="1.3282460">
        <ele>176.4</ele>
        <time>2020-02-22T10:52:25Z</time>
      </trkpt>
      <trkpt lat="39.0396250" lon="1.3283060">
        <ele>176.4</ele>
        <time>2020-02-22T10:52:26Z</time>
      </trkpt>
      <trkpt lat="39.0396120" lon="1.3283640">
        <ele>176.4</ele>
        <time>2020-02-22T10:52:27Z</time>
      </trkpt>
      <trkpt lat="39.0396040" lon="1.3284240">
        <ele>176.4</ele>
        <time>2020-02-22T10:52:28Z</time>
      </trkpt>
      <trkpt lat="39.0395910" lon="1.3284820">
        <ele>176.5</ele>
        <time>2020-02-22T10:52:29Z</time>
      </trkpt>
      <trkpt lat="39.0395870" lon="1.3285430">
        <ele>176.7</ele>
        <time>2020-02-22T10:52:30Z</time>
      </trkpt>
      <trkpt lat="39.0395800" lon="1.3286020">
        <ele>176.9</ele>
        <time>2020-02-22T10:52:31Z</time>
      </trkpt>
      <trkpt lat="39.0395770" lon="1.3286570">
        <ele>177.1</ele>
        <time>2020-02-22T10:52:32Z</time>
      </trkpt>
      <trkpt lat="39.0395820" lon="1.3287120">
        <ele>177.4</ele>
        <time>2020-02-22T10:52:33Z</time>
      </trkpt>
      <trkpt lat="39.0395830" lon="1.3287640">
        <ele>177.6</ele>
        <time>2020-02-22T10:52:34Z</time>
      </trkpt>
      <trkpt lat="39.0395790" lon="1.3288170">
        <ele>177.8</ele>
        <time>2020-02-22T10:52:35Z</time>
      </trkpt>
      <trkpt lat="39.0395760" lon="1.3288680">
        <ele>178.0</ele>
        <time>2020-02-22T10:52:36Z</time>
      </trkpt>
      <trkpt lat="39.0395790" lon="1.3289150">
        <ele>178.1</ele>
        <time>2020-02-22T10:52:37Z</time>
      </trkpt>
      <trkpt lat="39.0395760" lon="1.3289640">
        <ele>178.1</ele>
        <time>2020-02-22T10:52:38Z</time>
      </trkpt>
      <trkpt lat="39.0395760" lon="1.3290120">
        <ele>178.2</ele>
        <time>2020-02-22T10:52:39Z</time>
      </trkpt>
      <trkpt lat="39.0395770" lon="1.3290600">
        <ele>178.3</ele>
        <time>2020-02-22T10:52:40Z</time>
      </trkpt>
      <trkpt lat="39.0395800" lon="1.3291070">
        <ele>178.3</ele>
        <time>2020-02-22T10:52:41Z</time>
      </trkpt>
      <trkpt lat="39.0395840" lon="1.3291520">
        <ele>178.4</ele>
        <time>2020-02-22T10:52:42Z</time>
      </trkpt>
      <trkpt lat="39.0395970" lon="1.3291930">
        <ele>178.5</ele>
        <time>2020-02-22T10:52:43Z</time>
      </trkpt>
      <trkpt lat="39.0396140" lon="1.3292290">
        <ele>178.5</ele>
        <time>2020-02-22T10:52:44Z</time>
      </trkpt>
      <trkpt lat="39.0396380" lon="1.3292630">
        <ele>178.6</ele>
        <time>2020-02-22T10:52:45Z</time>
      </trkpt>
      <trkpt lat="39.0396640" lon="1.3292930">
        <ele>178.7</ele>
        <time>2020-02-22T10:52:46Z</time>
      </trkpt>
      <trkpt lat="39.0396850" lon="1.3293220">
        <ele>178.7</ele>
        <time>2020-02-22T10:52:47Z</time>
      </trkpt>
      <trkpt lat="39.0397050" lon="1.3293500">
        <ele>178.7</ele>
        <time>2020-02-22T10:52:48Z</time>
      </trkpt>
      <trkpt lat="39.0397270" lon="1.3293760">
        <ele>178.8</ele>
        <time>2020-02-22T10:52:49Z</time>
      </trkpt>
      <trkpt lat="39.0397540" lon="1.3294140">
        <ele>178.8</ele>
        <time>2020-02-22T10:52:50Z</time>
      </trkpt>
      <trkpt lat="39.0397620" lon="1.3294270">
        <ele>178.8</ele>
        <time>2020-02-22T10:52:51Z</time>
      </trkpt>
      <trkpt lat="39.0397800" lon="1.3294550">
        <ele>178.8</ele>
        <time>2020-02-22T10:52:52Z</time>
      </trkpt>
      <trkpt lat="39.0397990" lon="1.3294940">
        <ele>178.8</ele>
        <time>2020-02-22T10:52:53Z</time>
      </trkpt>
      <trkpt lat="39.0398260" lon="1.3295450">
        <ele>178.7</ele>
        <time>2020-02-22T10:52:54Z</time>
      </trkpt>
      <trkpt lat="39.0398480" lon="1.3295970">
        <ele>178.7</ele>
        <time>2020-02-22T10:52:55Z</time>
      </trkpt>
      <trkpt lat="39.0398670" lon="1.3296500">
        <ele>178.7</ele>
        <time>2020-02-22T10:52:56Z</time>
      </trkpt>
      <trkpt lat="39.0398850" lon="1.3296970">
        <ele>178.7</ele>
        <time>2020-02-22T10:52:57Z</time>
      </trkpt>
      <trkpt lat="39.0399070" lon="1.3297520">
        <ele>178.6</ele>
        <time>2020-02-22T10:52:58Z</time>
      </trkpt>
      <trkpt lat="39.0399230" lon="1.3298010">
        <ele>178.5</ele>
        <time>2020-02-22T10:52:59Z</time>
      </trkpt>
      <trkpt lat="39.0399440" lon="1.3298560">
        <ele>178.5</ele>
        <time>2020-02-22T10:53:00Z</time>
      </trkpt>
      <trkpt lat="39.0399530" lon="1.3299430">
        <ele>178.2</ele>
        <time>2020-02-22T10:53:01Z</time>
      </trkpt>
      <trkpt lat="39.0399380" lon="1.3300250">
        <ele>177.9</ele>
        <time>2020-02-22T10:53:02Z</time>
      </trkpt>
      <trkpt lat="39.0398960" lon="1.3300950">
        <ele>177.7</ele>
        <time>2020-02-22T10:53:03Z</time>
      </trkpt>
      <trkpt lat="39.0398590" lon="1.3301570">
        <ele>177.5</ele>
        <time>2020-02-22T10:53:04Z</time>
      </trkpt>
      <trkpt lat="39.0398270" lon="1.3302160">
        <ele>177.4</ele>
        <time>2020-02-22T10:53:05Z</time>
      </trkpt>
      <trkpt lat="39.0397980" lon="1.3302820">
        <ele>177.3</ele>
        <time>2020-02-22T10:53:06Z</time>
      </trkpt>
      <trkpt lat="39.0397730" lon="1.3303450">
        <ele>177.2</ele>
        <time>2020-02-22T10:53:07Z</time>
      </trkpt>
      <trkpt lat="39.0397480" lon="1.3304080">
        <ele>177.0</ele>
        <time>2020-02-22T10:53:08Z</time>
      </trkpt>
      <trkpt lat="39.0397120" lon="1.3304710">
        <ele>176.9</ele>
        <time>2020-02-22T10:53:09Z</time>
      </trkpt>
      <trkpt lat="39.0396820" lon="1.3305150">
        <ele>176.7</ele>
        <time>2020-02-22T10:53:10Z</time>
      </trkpt>
      <trkpt lat="39.0396580" lon="1.3305680">
        <ele>176.6</ele>
        <time>2020-02-22T10:53:11Z</time>
      </trkpt>
      <trkpt lat="39.0396260" lon="1.3306260">
        <ele>176.4</ele>
        <time>2020-02-22T10:53:12Z</time>
      </trkpt>
      <trkpt lat="39.0395940" lon="1.3306830">
        <ele>176.3</ele>
        <time>2020-02-22T10:53:13Z</time>
      </trkpt>
      <trkpt lat="39.0395700" lon="1.3307310">
        <ele>176.2</ele>
        <time>2020-02-22T10:53:14Z</time>
      </trkpt>
      <trkpt lat="39.0395340" lon="1.3307850">
        <ele>176.1</ele>
        <time>2020-02-22T10:53:15Z</time>
      </trkpt>
      <trkpt lat="39.0394990" lon="1.3308380">
        <ele>176.0</ele>
        <time>2020-02-22T10:53:16Z</time>
      </trkpt>
      <trkpt lat="39.0394690" lon="1.3308870">
        <ele>176.0</ele>
        <time>2020-02-22T10:53:17Z</time>
      </trkpt>
      <trkpt lat="39.0394450" lon="1.3309320">
        <ele>176.0</ele>
        <time>2020-02-22T10:53:18Z</time>
      </trkpt>
      <trkpt lat="39.0394210" lon="1.3309660">
        <ele>176.0</ele>
        <time>2020-02-22T10:53:19Z</time>
      </trkpt>
      <trkpt lat="39.0394100" lon="1.3309910">
        <ele>176.0</ele>
        <time>2020-02-22T10:53:20Z</time>
      </trkpt>
      <trkpt lat="39.0394180" lon="1.3310030">
        <ele>176.0</ele>
        <time>2020-02-22T10:53:21Z</time>
      </trkpt>
      <trkpt lat="39.0394400" lon="1.3309670">
        <ele>176.0</ele>
        <time>2020-02-22T10:53:22Z</time>
      </trkpt>
      <trkpt lat="39.0394460" lon="1.3309570">
        <ele>176.0</ele>
        <time>2020-02-22T10:53:23Z</time>
      </trkpt>
      <trkpt lat="39.0394570" lon="1.3309240">
        <ele>176.0</ele>
        <time>2020-02-22T10:53:24Z</time>
      </trkpt>
      <trkpt lat="39.0394680" lon="1.3308890">
        <ele>176.0</ele>
        <time>2020-02-22T10:53:25Z</time>
      </trkpt>
      <trkpt lat="39.0394810" lon="1.3308560">
        <ele>176.0</ele>
        <time>2020-02-22T10:53:26Z</time>
      </trkpt>
      <trkpt lat="39.0394920" lon="1.3308450">
        <ele>176.0</ele>
        <time>2020-02-22T10:53:27Z</time>
      </trkpt>
      <trkpt lat="39.0395180" lon="1.3308060">
        <ele>176.0</ele>
        <time>2020-02-22T10:53:28Z</time>
      </trkpt>
      <trkpt lat="39.0395280" lon="1.3307940">
        <ele>176.0</ele>
        <time>2020-02-22T10:53:29Z</time>
      </trkpt>
      <trkpt lat="39.0395480" lon="1.3307790">
        <ele>176.0</ele>
        <time>2020-02-22T10:53:30Z</time>
      </trkpt>
      <trkpt lat="39.0395600" lon="1.3307750">
        <ele>176.0</ele>
        <time>2020-02-22T10:53:31Z</time>
      </trkpt>
      <trkpt lat="39.0395670" lon="1.3307660">
        <ele>176.0</ele>
        <time>2020-02-22T10:53:32Z</time>
      </trkpt>
      <trkpt lat="39.0395650" lon="1.3307750">
        <ele>176.0</ele>
        <time>2020-02-22T10:53:33Z</time>
      </trkpt>
      <trkpt lat="39.0395690" lon="1.3307740">
        <ele>176.0</ele>
        <time>2020-02-22T10:53:34Z</time>
      </trkpt>
      <trkpt lat="39.0395730" lon="1.3307720">
        <ele>176.0</ele>
        <time>2020-02-22T10:53:35Z</time>
      </trkpt>
      <trkpt lat="39.0395720" lon="1.3307750">
        <ele>176.0</ele>
        <time>2020-02-22T10:53:36Z</time>
      </trkpt>
      <trkpt lat="39.0395710" lon="1.3307760">
        <ele>176.0</ele>
        <time>2020-02-22T10:53:37Z</time>
      </trkpt>
      <trkpt lat="39.0395730" lon="1.3307890">
        <ele>176.0</ele>
        <time>2020-02-22T10:53:38Z</time>
      </trkpt>
      <trkpt lat="39.0395700" lon="1.3307860">
        <ele>176.0</ele>
        <time>2020-02-22T10:53:39Z</time>
      </trkpt>
      <trkpt lat="39.0395720" lon="1.3307860">
        <ele>176.0</ele>
        <time>2020-02-22T10:53:40Z</time>
      </trkpt>
      <trkpt lat="39.0395730" lon="1.3307890">
        <ele>176.0</ele>
        <time>2020-02-22T10:53:41Z</time>
      </trkpt>
      <trkpt lat="39.0395720" lon="1.3307900">
        <ele>176.0</ele>
        <time>2020-02-22T10:53:42Z</time>
      </trkpt>
      <trkpt lat="39.0395720" lon="1.3307900">
        <ele>176.0</ele>
        <time>2020-02-22T10:53:43Z</time>
      </trkpt>
      <trkpt lat="39.0395170" lon="1.3308240">
        <ele>175.9</ele>
        <time>2020-02-22T10:56:11Z</time>
      </trkpt>
      <trkpt lat="39.0395110" lon="1.3308390">
        <ele>175.9</ele>
        <time>2020-02-22T10:56:12Z</time>
      </trkpt>
      <trkpt lat="39.0394940" lon="1.3308750">
        <ele>175.9</ele>
        <time>2020-02-22T10:56:13Z</time>
      </trkpt>
      <trkpt lat="39.0394850" lon="1.3308880">
        <ele>175.9</ele>
        <time>2020-02-22T10:56:14Z</time>
      </trkpt>
      <trkpt lat="39.0394630" lon="1.3309180">
        <ele>175.9</ele>
        <time>2020-02-22T10:56:15Z</time>
      </trkpt>
      <trkpt lat="39.0394430" lon="1.3309590">
        <ele>175.9</ele>
        <time>2020-02-22T10:56:16Z</time>
      </trkpt>
      <trkpt lat="39.0394270" lon="1.3310000">
        <ele>175.9</ele>
        <time>2020-02-22T10:56:17Z</time>
      </trkpt>
      <trkpt lat="39.0394120" lon="1.3310320">
        <ele>175.9</ele>
        <time>2020-02-22T10:56:18Z</time>
      </trkpt>
      <trkpt lat="39.0393940" lon="1.3310610">
        <ele>175.9</ele>
        <time>2020-02-22T10:56:19Z</time>
      </trkpt>
      <trkpt lat="39.0393700" lon="1.3310940">
        <ele>175.9</ele>
        <time>2020-02-22T10:56:20Z</time>
      </trkpt>
      <trkpt lat="39.0393520" lon="1.3311340">
        <ele>175.9</ele>
        <time>2020-02-22T10:56:21Z</time>
      </trkpt>
      <trkpt lat="39.0393310" lon="1.3311710">
        <ele>175.9</ele>
        <time>2020-02-22T10:56:22Z</time>
      </trkpt>
      <trkpt lat="39.0393110" lon="1.3312080">
        <ele>175.9</ele>
        <time>2020-02-22T10:56:23Z</time>
      </trkpt>
      <trkpt lat="39.0392900" lon="1.3312500">
        <ele>175.9</ele>
        <time>2020-02-22T10:56:24Z</time>
      </trkpt>
      <trkpt lat="39.0392700" lon="1.3312920">
        <ele>175.9</ele>
        <time>2020-02-22T10:56:25Z</time>
      </trkpt>
      <trkpt lat="39.0392470" lon="1.3313300">
        <ele>175.9</ele>
        <time>2020-02-22T10:56:26Z</time>
      </trkpt>
      <trkpt lat="39.0392240" lon="1.3313750">
        <ele>175.9</ele>
        <time>2020-02-22T10:56:27Z</time>
      </trkpt>
      <trkpt lat="39.0392050" lon="1.3314240">
        <ele>175.9</ele>
        <time>2020-02-22T10:56:28Z</time>
      </trkpt>
      <trkpt lat="39.0391860" lon="1.3314660">
        <ele>175.9</ele>
        <time>2020-02-22T10:56:29Z</time>
      </trkpt>
      <trkpt lat="39.0391660" lon="1.3315170">
        <ele>175.9</ele>
        <time>2020-02-22T10:56:30Z</time>
      </trkpt>
      <trkpt lat="39.0391470" lon="1.3315660">
        <ele>175.9</ele>
        <time>2020-02-22T10:56:31Z</time>
      </trkpt>
      <trkpt lat="39.0391280" lon="1.3315970">
        <ele>175.9</ele>
        <time>2020-02-22T10:56:32Z</time>
      </trkpt>
      <trkpt lat="39.0391040" lon="1.3316360">
        <ele>175.9</ele>
        <time>2020-02-22T10:56:33Z</time>
      </trkpt>
      <trkpt lat="39.0390750" lon="1.3316760">
        <ele>175.9</ele>
        <time>2020-02-22T10:56:34Z</time>
      </trkpt>
      <trkpt lat="39.0390510" lon="1.3317150">
        <ele>176.0</ele>
        <time>2020-02-22T10:56:35Z</time>
      </trkpt>
      <trkpt lat="39.0390340" lon="1.3317570">
        <ele>176.0</ele>
        <time>2020-02-22T10:56:36Z</time>
      </trkpt>
      <trkpt lat="39.0390170" lon="1.3318070">
        <ele>176.0</ele>
        <time>2020-02-22T10:56:37Z</time>
      </trkpt>
      <trkpt lat="39.0389970" lon="1.3318590">
        <ele>176.1</ele>
        <time>2020-02-22T10:56:38Z</time>
      </trkpt>
      <trkpt lat="39.0389840" lon="1.3319150">
        <ele>176.2</ele>
        <time>2020-02-22T10:56:39Z</time>
      </trkpt>
      <trkpt lat="39.0389660" lon="1.3319580">
        <ele>176.3</ele>
        <time>2020-02-22T10:56:40Z</time>
      </trkpt>
      <trkpt lat="39.0389490" lon="1.3319970">
        <ele>176.3</ele>
        <time>2020-02-22T10:56:41Z</time>
      </trkpt>
      <trkpt lat="39.0389270" lon="1.3320310">
        <ele>176.4</ele>
        <time>2020-02-22T10:56:42Z</time>
      </trkpt>
      <trkpt lat="39.0389040" lon="1.3320660">
        <ele>176.4</ele>
        <time>2020-02-22T10:56:43Z</time>
      </trkpt>
      <trkpt lat="39.0388830" lon="1.3320980">
        <ele>176.5</ele>
        <time>2020-02-22T10:56:44Z</time>
      </trkpt>
      <trkpt lat="39.0388580" lon="1.3321300">
        <ele>176.5</ele>
        <time>2020-02-22T10:56:45Z</time>
      </trkpt>
      <trkpt lat="39.0388320" lon="1.3321730">
        <ele>176.6</ele>
        <time>2020-02-22T10:56:46Z</time>
      </trkpt>
      <trkpt lat="39.0388070" lon="1.3322100">
        <ele>176.6</ele>
        <time>2020-02-22T10:56:47Z</time>
      </trkpt>
      <trkpt lat="39.0387820" lon="1.3322410">
        <ele>176.7</ele>
        <time>2020-02-22T10:56:48Z</time>
      </trkpt>
      <trkpt lat="39.0387510" lon="1.3322780">
        <ele>176.7</ele>
        <time>2020-02-22T10:56:49Z</time>
      </trkpt>
      <trkpt lat="39.0387260" lon="1.3323190">
        <ele>176.7</ele>
        <time>2020-02-22T10:56:50Z</time>
      </trkpt>
      <trkpt lat="39.0387140" lon="1.3323380">
        <ele>176.7</ele>
        <time>2020-02-22T10:56:51Z</time>
      </trkpt>
      <trkpt lat="39.0386900" lon="1.3323790">
        <ele>176.7</ele>
        <time>2020-02-22T10:56:52Z</time>
      </trkpt>
      <trkpt lat="39.0386710" lon="1.3324210">
        <ele>176.8</ele>
        <time>2020-02-22T10:56:53Z</time>
      </trkpt>
      <trkpt lat="39.0386560" lon="1.3324620">
        <ele>176.8</ele>
        <time>2020-02-22T10:56:54Z</time>
      </trkpt>
      <trkpt lat="39.0386400" lon="1.3324960">
        <ele>176.8</ele>
        <time>2020-02-22T10:56:55Z</time>
      </trkpt>
      <trkpt lat="39.0386170" lon="1.3325290">
        <ele>176.8</ele>
        <time>2020-02-22T10:56:56Z</time>
      </trkpt>
      <trkpt lat="39.0386030" lon="1.3325490">
        <ele>176.8</ele>
        <time>2020-02-22T10:56:57Z</time>
      </trkpt>
      <trkpt lat="39.0385960" lon="1.3325620">
        <ele>176.8</ele>
        <time>2020-02-22T10:56:58Z</time>
      </trkpt>
      <trkpt lat="39.0385910" lon="1.3325540">
        <ele>176.8</ele>
        <time>2020-02-22T10:56:59Z</time>
      </trkpt>
      <trkpt lat="39.0385950" lon="1.3325470">
        <ele>176.8</ele>
        <time>2020-02-22T10:57:00Z</time>
      </trkpt>
      <trkpt lat="39.0386000" lon="1.3325410">
        <ele>176.8</ele>
        <time>2020-02-22T10:57:01Z</time>
      </trkpt>
      <trkpt lat="39.0386050" lon="1.3325340">
        <ele>176.8</ele>
        <time>2020-02-22T10:57:02Z</time>
      </trkpt>
      <trkpt lat="39.0386090" lon="1.3325270">
        <ele>176.8</ele>
        <time>2020-02-22T10:57:03Z</time>
      </trkpt>
      <trkpt lat="39.0386140" lon="1.3325200">
        <ele>176.8</ele>
        <time>2020-02-22T10:57:04Z</time>
      </trkpt>
      <trkpt lat="39.0386190" lon="1.3324970">
        <ele>176.8</ele>
        <time>2020-02-22T10:57:05Z</time>
      </trkpt>
      <trkpt lat="39.0386290" lon="1.3324780">
        <ele>176.8</ele>
        <time>2020-02-22T10:57:06Z</time>
      </trkpt>
      <trkpt lat="39.0386490" lon="1.3324520">
        <ele>176.8</ele>
        <time>2020-02-22T10:57:07Z</time>
      </trkpt>
      <trkpt lat="39.0386850" lon="1.3324460">
        <ele>176.8</ele>
        <time>2020-02-22T10:57:08Z</time>
      </trkpt>
      <trkpt lat="39.0386960" lon="1.3324480">
        <ele>176.7</ele>
        <time>2020-02-22T10:57:09Z</time>
      </trkpt>
      <trkpt lat="39.0387230" lon="1.3324840">
        <ele>176.7</ele>
        <time>2020-02-22T10:57:10Z</time>
      </trkpt>
      <trkpt lat="39.0387300" lon="1.3325020">
        <ele>176.8</ele>
        <time>2020-02-22T10:57:11Z</time>
      </trkpt>
      <trkpt lat="39.0387430" lon="1.3325390">
        <ele>176.8</ele>
        <time>2020-02-22T10:57:12Z</time>
      </trkpt>
      <trkpt lat="39.0387490" lon="1.3325520">
        <ele>176.8</ele>
        <time>2020-02-22T10:57:13Z</time>
      </trkpt>
      <trkpt lat="39.0387690" lon="1.3325860">
        <ele>176.8</ele>
        <time>2020-02-22T10:57:14Z</time>
      </trkpt>
      <trkpt lat="39.0387770" lon="1.3325970">
        <ele>176.8</ele>
        <time>2020-02-22T10:57:15Z</time>
      </trkpt>
      <trkpt lat="39.0388020" lon="1.3326310">
        <ele>176.9</ele>
        <time>2020-02-22T10:57:16Z</time>
      </trkpt>
      <trkpt lat="39.0388100" lon="1.3326440">
        <ele>176.9</ele>
        <time>2020-02-22T10:57:17Z</time>
      </trkpt>
      <trkpt lat="39.0388310" lon="1.3326770">
        <ele>176.9</ele>
        <time>2020-02-22T10:57:18Z</time>
      </trkpt>
      <trkpt lat="39.0388370" lon="1.3326870">
        <ele>176.9</ele>
        <time>2020-02-22T10:57:19Z</time>
      </trkpt>
      <trkpt lat="39.0388570" lon="1.3327140">
        <ele>177.0</ele>
        <time>2020-02-22T10:57:20Z</time>
      </trkpt>
      <trkpt lat="39.0388640" lon="1.3327220">
        <ele>177.0</ele>
        <time>2020-02-22T10:57:21Z</time>
      </trkpt>
      <trkpt lat="39.0388780" lon="1.3327370">
        <ele>177.0</ele>
        <time>2020-02-22T10:57:22Z</time>
      </trkpt>
      <trkpt lat="39.0388910" lon="1.3327470">
        <ele>177.0</ele>
        <time>2020-02-22T10:57:23Z</time>
      </trkpt>
      <trkpt lat="39.0389170" lon="1.3327660">
        <ele>177.1</ele>
        <time>2020-02-22T10:57:24Z</time>
      </trkpt>
      <trkpt lat="39.0389250" lon="1.3327740">
        <ele>177.1</ele>
        <time>2020-02-22T10:57:25Z</time>
      </trkpt>
      <trkpt lat="39.0389650" lon="1.3327800">
        <ele>177.2</ele>
        <time>2020-02-22T10:57:26Z</time>
      </trkpt>
      <trkpt lat="39.0389800" lon="1.3327840">
        <ele>177.3</ele>
        <time>2020-02-22T10:57:27Z</time>
      </trkpt>
      <trkpt lat="39.0390010" lon="1.3327900">
        <ele>177.3</ele>
        <time>2020-02-22T10:57:28Z</time>
      </trkpt>
      <trkpt lat="39.0390080" lon="1.3327920">
        <ele>177.4</ele>
        <time>2020-02-22T10:57:29Z</time>
      </trkpt>
      <trkpt lat="39.0390080" lon="1.3327870">
        <ele>177.4</ele>
        <time>2020-02-22T10:57:30Z</time>
      </trkpt>
      <trkpt lat="39.0390070" lon="1.3327860">
        <ele>177.4</ele>
        <time>2020-02-22T10:57:31Z</time>
      </trkpt>
      <trkpt lat="39.0390080" lon="1.3327990">
        <ele>177.4</ele>
        <time>2020-02-22T10:57:32Z</time>
      </trkpt>
      <trkpt lat="39.0390200" lon="1.3328070">
        <ele>177.5</ele>
        <time>2020-02-22T10:57:33Z</time>
      </trkpt>
      <trkpt lat="39.0390210" lon="1.3328060">
        <ele>177.5</ele>
        <time>2020-02-22T10:57:34Z</time>
      </trkpt>
      <trkpt lat="39.0390200" lon="1.3328060">
        <ele>177.5</ele>
        <time>2020-02-22T10:57:35Z</time>
      </trkpt>
      <trkpt lat="39.0390200" lon="1.3328050">
        <ele>177.5</ele>
        <time>2020-02-22T10:57:36Z</time>
      </trkpt>
      <trkpt lat="39.0390190" lon="1.3328040">
        <ele>177.5</ele>
        <time>2020-02-22T10:57:37Z</time>
      </trkpt>
      <trkpt lat="39.0390130" lon="1.3328020">
        <ele>177.5</ele>
        <time>2020-02-22T10:57:38Z</time>
      </trkpt>
      <trkpt lat="39.0390060" lon="1.3328060">
        <ele>177.5</ele>
        <time>2020-02-22T10:57:39Z</time>
      </trkpt>
      <trkpt lat="39.0390710" lon="1.3327780">
        <ele>177.7</ele>
        <time>2020-02-22T10:57:43Z</time>
      </trkpt>
      <trkpt lat="39.0390990" lon="1.3327680">
        <ele>177.8</ele>
        <time>2020-02-22T10:57:44Z</time>
      </trkpt>
      <trkpt lat="39.0391420" lon="1.3327670">
        <ele>178.0</ele>
        <time>2020-02-22T10:57:45Z</time>
      </trkpt>
      <trkpt lat="39.0391570" lon="1.3327660">
        <ele>178.0</ele>
        <time>2020-02-22T10:57:46Z</time>
      </trkpt>
      <trkpt lat="39.0391950" lon="1.3327620">
        <ele>178.2</ele>
        <time>2020-02-22T10:57:47Z</time>
      </trkpt>
      <trkpt lat="39.0392060" lon="1.3327590">
        <ele>178.2</ele>
        <time>2020-02-22T10:57:48Z</time>
      </trkpt>
      <trkpt lat="39.0392370" lon="1.3327620">
        <ele>178.3</ele>
        <time>2020-02-22T10:57:49Z</time>
      </trkpt>
      <trkpt lat="39.0392680" lon="1.3327630">
        <ele>178.5</ele>
        <time>2020-02-22T10:57:50Z</time>
      </trkpt>
      <trkpt lat="39.0393000" lon="1.3327650">
        <ele>178.6</ele>
        <time>2020-02-22T10:57:51Z</time>
      </trkpt>
      <trkpt lat="39.0393350" lon="1.3327740">
        <ele>178.7</ele>
        <time>2020-02-22T10:57:52Z</time>
      </trkpt>
      <trkpt lat="39.0393720" lon="1.3327800">
        <ele>178.8</ele>
        <time>2020-02-22T10:57:53Z</time>
      </trkpt>
      <trkpt lat="39.0394090" lon="1.3327910">
        <ele>179.0</ele>
        <time>2020-02-22T10:57:54Z</time>
      </trkpt>
      <trkpt lat="39.0394390" lon="1.3328060">
        <ele>179.1</ele>
        <time>2020-02-22T10:57:55Z</time>
      </trkpt>
      <trkpt lat="39.0394680" lon="1.3328260">
        <ele>179.2</ele>
        <time>2020-02-22T10:57:56Z</time>
      </trkpt>
      <trkpt lat="39.0395020" lon="1.3328460">
        <ele>179.3</ele>
        <time>2020-02-22T10:57:57Z</time>
      </trkpt>
      <trkpt lat="39.0395380" lon="1.3328590">
        <ele>179.4</ele>
        <time>2020-02-22T10:57:58Z</time>
      </trkpt>
      <trkpt lat="39.0395750" lon="1.3328680">
        <ele>179.5</ele>
        <time>2020-02-22T10:57:59Z</time>
      </trkpt>
      <trkpt lat="39.0396120" lon="1.3328800">
        <ele>179.6</ele>
        <time>2020-02-22T10:58:00Z</time>
      </trkpt>
      <trkpt lat="39.0396500" lon="1.3328880">
        <ele>179.7</ele>
        <time>2020-02-22T10:58:01Z</time>
      </trkpt>
      <trkpt lat="39.0396890" lon="1.3328970">
        <ele>179.9</ele>
        <time>2020-02-22T10:58:02Z</time>
      </trkpt>
      <trkpt lat="39.0397240" lon="1.3329050">
        <ele>180.0</ele>
        <time>2020-02-22T10:58:03Z</time>
      </trkpt>
      <trkpt lat="39.0397550" lon="1.3329130">
        <ele>180.1</ele>
        <time>2020-02-22T10:58:04Z</time>
      </trkpt>
      <trkpt lat="39.0397850" lon="1.3329250">
        <ele>180.2</ele>
        <time>2020-02-22T10:58:05Z</time>
      </trkpt>
      <trkpt lat="39.0398150" lon="1.3329290">
        <ele>180.4</ele>
        <time>2020-02-22T10:58:06Z</time>
      </trkpt>
      <trkpt lat="39.0398450" lon="1.3329330">
        <ele>180.7</ele>
        <time>2020-02-22T10:58:07Z</time>
      </trkpt>
      <trkpt lat="39.0398740" lon="1.3329390">
        <ele>180.9</ele>
        <time>2020-02-22T10:58:08Z</time>
      </trkpt>
      <trkpt lat="39.0399030" lon="1.3329460">
        <ele>181.1</ele>
        <time>2020-02-22T10:58:09Z</time>
      </trkpt>
      <trkpt lat="39.0399370" lon="1.3329530">
        <ele>181.3</ele>
        <time>2020-02-22T10:58:10Z</time>
      </trkpt>
      <trkpt lat="39.0399480" lon="1.3329550">
        <ele>181.4</ele>
        <time>2020-02-22T10:58:11Z</time>
      </trkpt>
      <trkpt lat="39.0399810" lon="1.3329730">
        <ele>181.6</ele>
        <time>2020-02-22T10:58:12Z</time>
      </trkpt>
      <trkpt lat="39.0399910" lon="1.3329780">
        <ele>181.7</ele>
        <time>2020-02-22T10:58:13Z</time>
      </trkpt>
      <trkpt lat="39.0400210" lon="1.3329850">
        <ele>181.9</ele>
        <time>2020-02-22T10:58:14Z</time>
      </trkpt>
      <trkpt lat="39.0400310" lon="1.3329880">
        <ele>181.9</ele>
        <time>2020-02-22T10:58:15Z</time>
      </trkpt>
      <trkpt lat="39.0400580" lon="1.3329980">
        <ele>182.1</ele>
        <time>2020-02-22T10:58:16Z</time>
      </trkpt>
      <trkpt lat="39.0400670" lon="1.3329990">
        <ele>182.2</ele>
        <time>2020-02-22T10:58:17Z</time>
      </trkpt>
      <trkpt lat="39.0400940" lon="1.3329960">
        <ele>182.4</ele>
        <time>2020-02-22T10:58:18Z</time>
      </trkpt>
      <trkpt lat="39.0401040" lon="1.3329970">
        <ele>182.4</ele>
        <time>2020-02-22T10:58:19Z</time>
      </trkpt>
      <trkpt lat="39.0401200" lon="1.3330050">
        <ele>182.5</ele>
        <time>2020-02-22T10:58:20Z</time>
      </trkpt>
      <trkpt lat="39.0401360" lon="1.3330060">
        <ele>182.7</ele>
        <time>2020-02-22T10:58:21Z</time>
      </trkpt>
      <trkpt lat="39.0401530" lon="1.3330050">
        <ele>182.8</ele>
        <time>2020-02-22T10:58:22Z</time>
      </trkpt>
      <trkpt lat="39.0401700" lon="1.3330080">
        <ele>182.9</ele>
        <time>2020-02-22T10:58:23Z</time>
      </trkpt>
      <trkpt lat="39.0401880" lon="1.3330100">
        <ele>183.0</ele>
        <time>2020-02-22T10:58:24Z</time>
      </trkpt>
      <trkpt lat="39.0402010" lon="1.3330210">
        <ele>183.2</ele>
        <time>2020-02-22T10:58:25Z</time>
      </trkpt>
      <trkpt lat="39.0402070" lon="1.3330330">
        <ele>183.3</ele>
        <time>2020-02-22T10:58:26Z</time>
      </trkpt>
      <trkpt lat="39.0402170" lon="1.3330430">
        <ele>183.4</ele>
        <time>2020-02-22T10:58:27Z</time>
      </trkpt>
      <trkpt lat="39.0402200" lon="1.3330420">
        <ele>183.4</ele>
        <time>2020-02-22T10:58:28Z</time>
      </trkpt>
      <trkpt lat="39.0402210" lon="1.3330430">
        <ele>183.4</ele>
        <time>2020-02-22T10:58:29Z</time>
      </trkpt>
      <trkpt lat="39.0402240" lon="1.3330460">
        <ele>183.5</ele>
        <time>2020-02-22T10:58:30Z</time>
      </trkpt>
      <trkpt lat="39.0402240" lon="1.3330440">
        <ele>183.5</ele>
        <time>2020-02-22T10:58:31Z</time>
      </trkpt>
      <trkpt lat="39.0402240" lon="1.3330430">
        <ele>183.5</ele>
        <time>2020-02-22T10:58:32Z</time>
      </trkpt>
      <trkpt lat="39.0402240" lon="1.3330280">
        <ele>183.6</ele>
        <time>2020-02-22T10:58:33Z</time>
      </trkpt>
      <trkpt lat="39.0402230" lon="1.3330380">
        <ele>183.7</ele>
        <time>2020-02-22T10:58:34Z</time>
      </trkpt>
      <trkpt lat="39.0402240" lon="1.3330490">
        <ele>183.8</ele>
        <time>2020-02-22T10:58:35Z</time>
      </trkpt>
      <trkpt lat="39.0402230" lon="1.3330600">
        <ele>183.8</ele>
        <time>2020-02-22T10:58:36Z</time>
      </trkpt>
      <trkpt lat="39.0402170" lon="1.3330640">
        <ele>183.9</ele>
        <time>2020-02-22T10:58:37Z</time>
      </trkpt>
      <trkpt lat="39.0402160" lon="1.3330690">
        <ele>183.9</ele>
        <time>2020-02-22T10:58:38Z</time>
      </trkpt>
      <trkpt lat="39.0402180" lon="1.3330890">
        <ele>184.1</ele>
        <time>2020-02-22T10:58:39Z</time>
      </trkpt>
      <trkpt lat="39.0402160" lon="1.3331250">
        <ele>184.2</ele>
        <time>2020-02-22T10:58:40Z</time>
      </trkpt>
      <trkpt lat="39.0402150" lon="1.3331380">
        <ele>184.2</ele>
        <time>2020-02-22T10:58:41Z</time>
      </trkpt>
      <trkpt lat="39.0402210" lon="1.3331820">
        <ele>184.4</ele>
        <time>2020-02-22T10:58:42Z</time>
      </trkpt>
      <trkpt lat="39.0402230" lon="1.3331940">
        <ele>184.4</ele>
        <time>2020-02-22T10:58:43Z</time>
      </trkpt>
      <trkpt lat="39.0402220" lon="1.3332370">
        <ele>184.6</ele>
        <time>2020-02-22T10:58:44Z</time>
      </trkpt>
      <trkpt lat="39.0402230" lon="1.3332480">
        <ele>184.6</ele>
        <time>2020-02-22T10:58:45Z</time>
      </trkpt>
      <trkpt lat="39.0402160" lon="1.3332880">
        <ele>184.6</ele>
        <time>2020-02-22T10:58:46Z</time>
      </trkpt>
      <trkpt lat="39.0402290" lon="1.3333200">
        <ele>184.8</ele>
        <time>2020-02-22T10:58:47Z</time>
      </trkpt>
      <trkpt lat="39.0402370" lon="1.3333270">
        <ele>184.9</ele>
        <time>2020-02-22T10:58:48Z</time>
      </trkpt>
      <trkpt lat="39.0402510" lon="1.3333360">
        <ele>184.9</ele>
        <time>2020-02-22T10:58:49Z</time>
      </trkpt>
      <trkpt lat="39.0402640" lon="1.3333580">
        <ele>185.1</ele>
        <time>2020-02-22T10:58:50Z</time>
      </trkpt>
      <trkpt lat="39.0402870" lon="1.3333900">
        <ele>185.2</ele>
        <time>2020-02-22T10:58:51Z</time>
      </trkpt>
      <trkpt lat="39.0402950" lon="1.3334010">
        <ele>185.3</ele>
        <time>2020-02-22T10:58:52Z</time>
      </trkpt>
      <trkpt lat="39.0403150" lon="1.3334420">
        <ele>185.4</ele>
        <time>2020-02-22T10:58:53Z</time>
      </trkpt>
      <trkpt lat="39.0403230" lon="1.3334570">
        <ele>185.4</ele>
        <time>2020-02-22T10:58:54Z</time>
      </trkpt>
      <trkpt lat="39.0403180" lon="1.3334790">
        <ele>185.4</ele>
        <time>2020-02-22T10:58:55Z</time>
      </trkpt>
      <trkpt lat="39.0403320" lon="1.3335000">
        <ele>185.5</ele>
        <time>2020-02-22T10:58:56Z</time>
      </trkpt>
      <trkpt lat="39.0403520" lon="1.3335280">
        <ele>185.6</ele>
        <time>2020-02-22T10:58:57Z</time>
      </trkpt>
      <trkpt lat="39.0403570" lon="1.3335370">
        <ele>185.6</ele>
        <time>2020-02-22T10:58:58Z</time>
      </trkpt>
      <trkpt lat="39.0403670" lon="1.3335710">
        <ele>185.7</ele>
        <time>2020-02-22T10:58:59Z</time>
      </trkpt>
      <trkpt lat="39.0403730" lon="1.3336110">
        <ele>185.8</ele>
        <time>2020-02-22T10:59:00Z</time>
      </trkpt>
      <trkpt lat="39.0403740" lon="1.3336590">
        <ele>185.9</ele>
        <time>2020-02-22T10:59:01Z</time>
      </trkpt>
      <trkpt lat="39.0403740" lon="1.3336740">
        <ele>185.9</ele>
        <time>2020-02-22T10:59:02Z</time>
      </trkpt>
      <trkpt lat="39.0403780" lon="1.3337220">
        <ele>186.0</ele>
        <time>2020-02-22T10:59:03Z</time>
      </trkpt>
      <trkpt lat="39.0403800" lon="1.3337400">
        <ele>186.2</ele>
        <time>2020-02-22T10:59:04Z</time>
      </trkpt>
      <trkpt lat="39.0403760" lon="1.3337830">
        <ele>186.3</ele>
        <time>2020-02-22T10:59:05Z</time>
      </trkpt>
      <trkpt lat="39.0403770" lon="1.3338270">
        <ele>186.4</ele>
        <time>2020-02-22T10:59:06Z</time>
      </trkpt>
      <trkpt lat="39.0403760" lon="1.3338420">
        <ele>186.4</ele>
        <time>2020-02-22T10:59:07Z</time>
      </trkpt>
      <trkpt lat="39.0403820" lon="1.3338930">
        <ele>186.5</ele>
        <time>2020-02-22T10:59:08Z</time>
      </trkpt>
      <trkpt lat="39.0403820" lon="1.3339150">
        <ele>186.7</ele>
        <time>2020-02-22T10:59:09Z</time>
      </trkpt>
      <trkpt lat="39.0403880" lon="1.3339500">
        <ele>186.8</ele>
        <time>2020-02-22T10:59:10Z</time>
      </trkpt>
      <trkpt lat="39.0403920" lon="1.3339650">
        <ele>186.8</ele>
        <time>2020-02-22T10:59:11Z</time>
      </trkpt>
      <trkpt lat="39.0403920" lon="1.3340180">
        <ele>186.9</ele>
        <time>2020-02-22T10:59:12Z</time>
      </trkpt>
      <trkpt lat="39.0403920" lon="1.3340360">
        <ele>187.1</ele>
        <time>2020-02-22T10:59:13Z</time>
      </trkpt>
      <trkpt lat="39.0403950" lon="1.3340730">
        <ele>187.3</ele>
        <time>2020-02-22T10:59:14Z</time>
      </trkpt>
      <trkpt lat="39.0403950" lon="1.3341120">
        <ele>187.5</ele>
        <time>2020-02-22T10:59:15Z</time>
      </trkpt>
      <trkpt lat="39.0404030" lon="1.3341600">
        <ele>187.6</ele>
        <time>2020-02-22T10:59:16Z</time>
      </trkpt>
      <trkpt lat="39.0404050" lon="1.3341750">
        <ele>187.6</ele>
        <time>2020-02-22T10:59:17Z</time>
      </trkpt>
      <trkpt lat="39.0404100" lon="1.3342250">
        <ele>187.8</ele>
        <time>2020-02-22T10:59:18Z</time>
      </trkpt>
      <trkpt lat="39.0404110" lon="1.3342430">
        <ele>188.0</ele>
        <time>2020-02-22T10:59:19Z</time>
      </trkpt>
      <trkpt lat="39.0404130" lon="1.3342780">
        <ele>188.0</ele>
        <time>2020-02-22T10:59:20Z</time>
      </trkpt>
      <trkpt lat="39.0404250" lon="1.3343150">
        <ele>188.2</ele>
        <time>2020-02-22T10:59:21Z</time>
      </trkpt>
      <trkpt lat="39.0404280" lon="1.3343270">
        <ele>188.4</ele>
        <time>2020-02-22T10:59:22Z</time>
      </trkpt>
      <trkpt lat="39.0404340" lon="1.3343490">
        <ele>188.4</ele>
        <time>2020-02-22T10:59:23Z</time>
      </trkpt>
      <trkpt lat="39.0404350" lon="1.3343630">
        <ele>188.4</ele>
        <time>2020-02-22T10:59:24Z</time>
      </trkpt>
      <trkpt lat="39.0404370" lon="1.3343770">
        <ele>188.6</ele>
        <time>2020-02-22T10:59:25Z</time>
      </trkpt>
      <trkpt lat="39.0404340" lon="1.3343840">
        <ele>188.6</ele>
        <time>2020-02-22T10:59:26Z</time>
      </trkpt>
      <trkpt lat="39.0404320" lon="1.3343830">
        <ele>188.6</ele>
        <time>2020-02-22T10:59:27Z</time>
      </trkpt>
      <trkpt lat="39.0404340" lon="1.3343800">
        <ele>188.6</ele>
        <time>2020-02-22T10:59:28Z</time>
      </trkpt>
      <trkpt lat="39.0404370" lon="1.3343770">
        <ele>188.6</ele>
        <time>2020-02-22T10:59:29Z</time>
      </trkpt>
      <trkpt lat="39.0404370" lon="1.3343710">
        <ele>188.6</ele>
        <time>2020-02-22T10:59:30Z</time>
      </trkpt>
      <trkpt lat="39.0404390" lon="1.3343720">
        <ele>188.6</ele>
        <time>2020-02-22T10:59:31Z</time>
      </trkpt>
      <trkpt lat="39.0404420" lon="1.3343630">
        <ele>188.4</ele>
        <time>2020-02-22T10:59:32Z</time>
      </trkpt>
      <trkpt lat="39.0404410" lon="1.3343530">
        <ele>188.4</ele>
        <time>2020-02-22T10:59:33Z</time>
      </trkpt>
      <trkpt lat="39.0404360" lon="1.3343410">
        <ele>188.4</ele>
        <time>2020-02-22T10:59:34Z</time>
      </trkpt>
      <trkpt lat="39.0404330" lon="1.3343160">
        <ele>188.2</ele>
        <time>2020-02-22T10:59:35Z</time>
      </trkpt>
      <trkpt lat="39.0404320" lon="1.3343020">
        <ele>188.2</ele>
        <time>2020-02-22T10:59:36Z</time>
      </trkpt>
      <trkpt lat="39.0404300" lon="1.3342890">
        <ele>188.2</ele>
        <time>2020-02-22T10:59:37Z</time>
      </trkpt>
      <trkpt lat="39.0404570" lon="1.3342620">
        <ele>188.0</ele>
        <time>2020-02-22T10:59:38Z</time>
      </trkpt>
      <trkpt lat="39.0404690" lon="1.3342610">
        <ele>188.0</ele>
        <time>2020-02-22T10:59:39Z</time>
      </trkpt>
      <trkpt lat="39.0404960" lon="1.3342690">
        <ele>188.0</ele>
        <time>2020-02-22T10:59:40Z</time>
      </trkpt>
      <trkpt lat="39.0405130" lon="1.3342750">
        <ele>188.0</ele>
        <time>2020-02-22T10:59:41Z</time>
      </trkpt>
      <trkpt lat="39.0405270" lon="1.3342740">
        <ele>187.9</ele>
        <time>2020-02-22T10:59:42Z</time>
      </trkpt>
      <trkpt lat="39.0405490" lon="1.3342700">
        <ele>187.9</ele>
        <time>2020-02-22T10:59:43Z</time>
      </trkpt>
      <trkpt lat="39.0405630" lon="1.3342750">
        <ele>187.9</ele>
        <time>2020-02-22T10:59:44Z</time>
      </trkpt>
      <trkpt lat="39.0405810" lon="1.3342860">
        <ele>188.1</ele>
        <time>2020-02-22T10:59:45Z</time>
      </trkpt>
      <trkpt lat="39.0405950" lon="1.3342900">
        <ele>188.1</ele>
        <time>2020-02-22T10:59:46Z</time>
      </trkpt>
      <trkpt lat="39.0405960" lon="1.3342890">
        <ele>188.1</ele>
        <time>2020-02-22T10:59:47Z</time>
      </trkpt>
      <trkpt lat="39.0405960" lon="1.3342880">
        <ele>188.1</ele>
        <time>2020-02-22T10:59:48Z</time>
      </trkpt>
      <trkpt lat="39.0405960" lon="1.3342870">
        <ele>188.1</ele>
        <time>2020-02-22T10:59:49Z</time>
      </trkpt>
      <trkpt lat="39.0405980" lon="1.3342870">
        <ele>188.1</ele>
        <time>2020-02-22T10:59:50Z</time>
      </trkpt>
      <trkpt lat="39.0405980" lon="1.3342870">
        <ele>188.1</ele>
        <time>2020-02-22T10:59:51Z</time>
      </trkpt>
      <trkpt lat="39.0405990" lon="1.3342860">
        <ele>188.1</ele>
        <time>2020-02-22T10:59:52Z</time>
      </trkpt>
      <trkpt lat="39.0405990" lon="1.3342870">
        <ele>188.1</ele>
        <time>2020-02-22T10:59:53Z</time>
      </trkpt>
      <trkpt lat="39.0406020" lon="1.3342850">
        <ele>188.1</ele>
        <time>2020-02-22T10:59:54Z</time>
      </trkpt>
      <trkpt lat="39.0406030" lon="1.3342810">
        <ele>188.1</ele>
        <time>2020-02-22T10:59:55Z</time>
      </trkpt>
      <trkpt lat="39.0405860" lon="1.3342710">
        <ele>187.9</ele>
        <time>2020-02-22T10:59:56Z</time>
      </trkpt>
      <trkpt lat="39.0405490" lon="1.3342510">
        <ele>188.0</ele>
        <time>2020-02-22T11:00:00Z</time>
      </trkpt>
      <trkpt lat="39.0405300" lon="1.3342520">
        <ele>188.0</ele>
        <time>2020-02-22T11:00:01Z</time>
      </trkpt>
      <trkpt lat="39.0405180" lon="1.3342440">
        <ele>188.0</ele>
        <time>2020-02-22T11:00:02Z</time>
      </trkpt>
      <trkpt lat="39.0405040" lon="1.3342230">
        <ele>187.9</ele>
        <time>2020-02-22T11:00:03Z</time>
      </trkpt>
      <trkpt lat="39.0405040" lon="1.3342230">
        <ele>187.9</ele>
        <time>2020-02-22T11:00:04Z</time>
      </trkpt>
      <trkpt lat="39.0404990" lon="1.3342160">
        <ele>187.9</ele>
        <time>2020-02-22T11:00:05Z</time>
      </trkpt>
      <trkpt lat="39.0404870" lon="1.3342150">
        <ele>187.9</ele>
        <time>2020-02-22T11:00:06Z</time>
      </trkpt>
      <trkpt lat="39.0404700" lon="1.3342140">
        <ele>187.9</ele>
        <time>2020-02-22T11:00:07Z</time>
      </trkpt>
      <trkpt lat="39.0404470" lon="1.3341870">
        <ele>187.8</ele>
        <time>2020-02-22T11:00:08Z</time>
      </trkpt>
      <trkpt lat="39.0404330" lon="1.3341490">
        <ele>187.6</ele>
        <time>2020-02-22T11:00:09Z</time>
      </trkpt>
      <trkpt lat="39.0404220" lon="1.3341090">
        <ele>187.4</ele>
        <time>2020-02-22T11:00:10Z</time>
      </trkpt>
      <trkpt lat="39.0404070" lon="1.3340650">
        <ele>187.3</ele>
        <time>2020-02-22T11:00:11Z</time>
      </trkpt>
      <trkpt lat="39.0403980" lon="1.3340030">
        <ele>187.1</ele>
        <time>2020-02-22T11:00:12Z</time>
      </trkpt>
      <trkpt lat="39.0403960" lon="1.3339420">
        <ele>187.0</ele>
        <time>2020-02-22T11:00:13Z</time>
      </trkpt>
      <trkpt lat="39.0403880" lon="1.3338940">
        <ele>186.7</ele>
        <time>2020-02-22T11:00:14Z</time>
      </trkpt>
      <trkpt lat="39.0403780" lon="1.3338590">
        <ele>186.8</ele>
        <time>2020-02-22T11:00:15Z</time>
      </trkpt>
      <trkpt lat="39.0403770" lon="1.3338220">
        <ele>186.7</ele>
        <time>2020-02-22T11:00:16Z</time>
      </trkpt>
      <trkpt lat="39.0403800" lon="1.3337840">
        <ele>186.5</ele>
        <time>2020-02-22T11:00:17Z</time>
      </trkpt>
      <trkpt lat="39.0403840" lon="1.3337690">
        <ele>186.5</ele>
        <time>2020-02-22T11:00:18Z</time>
      </trkpt>
      <trkpt lat="39.0403870" lon="1.3337810">
        <ele>186.5</ele>
        <time>2020-02-22T11:00:19Z</time>
      </trkpt>
      <trkpt lat="39.0403890" lon="1.3337920">
        <ele>186.5</ele>
        <time>2020-02-22T11:00:20Z</time>
      </trkpt>
      <trkpt lat="39.0403910" lon="1.3338030">
        <ele>186.5</ele>
        <time>2020-02-22T11:00:21Z</time>
      </trkpt>
      <trkpt lat="39.0403930" lon="1.3338150">
        <ele>186.7</ele>
        <time>2020-02-22T11:00:22Z</time>
      </trkpt>
      <trkpt lat="39.0403960" lon="1.3338260">
        <ele>186.7</ele>
        <time>2020-02-22T11:00:23Z</time>
      </trkpt>
      <trkpt lat="39.0403980" lon="1.3338370">
        <ele>186.7</ele>
        <time>2020-02-22T11:00:24Z</time>
      </trkpt>
      <trkpt lat="39.0404000" lon="1.3338490">
        <ele>186.7</ele>
        <time>2020-02-22T11:00:25Z</time>
      </trkpt>
      <trkpt lat="39.0404020" lon="1.3338600">
        <ele>186.8</ele>
        <time>2020-02-22T11:00:26Z</time>
      </trkpt>
      <trkpt lat="39.0404050" lon="1.3338710">
        <ele>186.8</ele>
        <time>2020-02-22T11:00:27Z</time>
      </trkpt>
      <trkpt lat="39.0404070" lon="1.3338830">
        <ele>186.8</ele>
        <time>2020-02-22T11:00:28Z</time>
      </trkpt>
      <trkpt lat="39.0404090" lon="1.3338940">
        <ele>186.8</ele>
        <time>2020-02-22T11:00:29Z</time>
      </trkpt>
      <trkpt lat="39.0404110" lon="1.3339050">
        <ele>186.9</ele>
        <time>2020-02-22T11:00:30Z</time>
      </trkpt>
      <trkpt lat="39.0404140" lon="1.3339170">
        <ele>186.9</ele>
        <time>2020-02-22T11:01:15Z</time>
      </trkpt>
      <trkpt lat="39.0404160" lon="1.3339280">
        <ele>186.9</ele>
        <time>2020-02-22T11:01:16Z</time>
      </trkpt>
      <trkpt lat="39.0404160" lon="1.3339720">
        <ele>187.1</ele>
        <time>2020-02-22T11:01:17Z</time>
      </trkpt>
      <trkpt lat="39.0404180" lon="1.3340080">
        <ele>187.2</ele>
        <time>2020-02-22T11:01:18Z</time>
      </trkpt>
      <trkpt lat="39.0404150" lon="1.3340670">
        <ele>187.6</ele>
        <time>2020-02-22T11:01:19Z</time>
      </trkpt>
      <trkpt lat="39.0404120" lon="1.3341040">
        <ele>187.6</ele>
        <time>2020-02-22T11:01:20Z</time>
      </trkpt>
      <trkpt lat="39.0404150" lon="1.3341520">
        <ele>187.8</ele>
        <time>2020-02-22T11:01:21Z</time>
      </trkpt>
      <trkpt lat="39.0404150" lon="1.3341690">
        <ele>187.9</ele>
        <time>2020-02-22T11:01:22Z</time>
      </trkpt>
      <trkpt lat="39.0404270" lon="1.3342100">
        <ele>188.1</ele>
        <time>2020-02-22T11:01:23Z</time>
      </trkpt>
      <trkpt lat="39.0404330" lon="1.3342240">
        <ele>188.1</ele>
        <time>2020-02-22T11:01:24Z</time>
      </trkpt>
      <trkpt lat="39.0404450" lon="1.3342640">
        <ele>188.3</ele>
        <time>2020-02-22T11:01:25Z</time>
      </trkpt>
      <trkpt lat="39.0404480" lon="1.3342780">
        <ele>188.3</ele>
        <time>2020-02-22T11:01:26Z</time>
      </trkpt>
      <trkpt lat="39.0404500" lon="1.3343190">
        <ele>188.5</ele>
        <time>2020-02-22T11:01:27Z</time>
      </trkpt>
      <trkpt lat="39.0404580" lon="1.3343530">
        <ele>188.6</ele>
        <time>2020-02-22T11:01:28Z</time>
      </trkpt>
      <trkpt lat="39.0404590" lon="1.3343950">
        <ele>188.8</ele>
        <time>2020-02-22T11:01:29Z</time>
      </trkpt>
      <trkpt lat="39.0404670" lon="1.3344470">
        <ele>189.0</ele>
        <time>2020-02-22T11:01:30Z</time>
      </trkpt>
      <trkpt lat="39.0404710" lon="1.3344660">
        <ele>189.2</ele>
        <time>2020-02-22T11:01:31Z</time>
      </trkpt>
      <trkpt lat="39.0404680" lon="1.3345030">
        <ele>189.4</ele>
        <time>2020-02-22T11:01:32Z</time>
      </trkpt>
      <trkpt lat="39.0404650" lon="1.3345130">
        <ele>189.4</ele>
        <time>2020-02-22T11:01:33Z</time>
      </trkpt>
      <trkpt lat="39.0404610" lon="1.3345220">
        <ele>189.4</ele>
        <time>2020-02-22T11:01:34Z</time>
      </trkpt>
      <trkpt lat="39.0404610" lon="1.3345390">
        <ele>189.6</ele>
        <time>2020-02-22T11:01:35Z</time>
      </trkpt>
      <trkpt lat="39.0404610" lon="1.3345530">
        <ele>189.6</ele>
        <time>2020-02-22T11:01:36Z</time>
      </trkpt>
      <trkpt lat="39.0404590" lon="1.3345800">
        <ele>189.6</ele>
        <time>2020-02-22T11:01:37Z</time>
      </trkpt>
      <trkpt lat="39.0404570" lon="1.3345940">
        <ele>189.8</ele>
        <time>2020-02-22T11:01:38Z</time>
      </trkpt>
      <trkpt lat="39.0404520" lon="1.3346120">
        <ele>189.9</ele>
        <time>2020-02-22T11:01:39Z</time>
      </trkpt>
      <trkpt lat="39.0404510" lon="1.3346260">
        <ele>190.1</ele>
        <time>2020-02-22T11:01:40Z</time>
      </trkpt>
      <trkpt lat="39.0404580" lon="1.3346350">
        <ele>190.0</ele>
        <time>2020-02-22T11:01:41Z</time>
      </trkpt>
      <trkpt lat="39.0404670" lon="1.3346490">
        <ele>190.0</ele>
        <time>2020-02-22T11:01:42Z</time>
      </trkpt>
      <trkpt lat="39.0404680" lon="1.3346530">
        <ele>190.0</ele>
        <time>2020-02-22T11:01:43Z</time>
      </trkpt>
      <trkpt lat="39.0404690" lon="1.3346560">
        <ele>190.0</ele>
        <time>2020-02-22T11:01:44Z</time>
      </trkpt>
      <trkpt lat="39.0404700" lon="1.3346600">
        <ele>190.0</ele>
        <time>2020-02-22T11:01:45Z</time>
      </trkpt>
      <trkpt lat="39.0404700" lon="1.3346640">
        <ele>190.0</ele>
        <time>2020-02-22T11:01:46Z</time>
      </trkpt>
      <trkpt lat="39.0404710" lon="1.3346680">
        <ele>190.2</ele>
        <time>2020-02-22T11:01:47Z</time>
      </trkpt>
      <trkpt lat="39.0404720" lon="1.3346710">
        <ele>190.2</ele>
        <time>2020-02-22T11:01:48Z</time>
      </trkpt>
      <trkpt lat="39.0404730" lon="1.3346750">
        <ele>190.2</ele>
        <time>2020-02-22T11:01:49Z</time>
      </trkpt>
      <trkpt lat="39.0404740" lon="1.3346790">
        <ele>190.2</ele>
        <time>2020-02-22T11:01:50Z</time>
      </trkpt>
      <trkpt lat="39.0404800" lon="1.3346970">
        <ele>190.2</ele>
        <time>2020-02-22T11:01:51Z</time>
      </trkpt>
      <trkpt lat="39.0404810" lon="1.3347050">
        <ele>190.2</ele>
        <time>2020-02-22T11:01:52Z</time>
      </trkpt>
      <trkpt lat="39.0404830" lon="1.3347130">
        <ele>190.4</ele>
        <time>2020-02-22T11:01:53Z</time>
      </trkpt>
      <trkpt lat="39.0404840" lon="1.3347210">
        <ele>190.4</ele>
        <time>2020-02-22T11:01:54Z</time>
      </trkpt>
      <trkpt lat="39.0404850" lon="1.3347290">
        <ele>190.4</ele>
        <time>2020-02-22T11:01:55Z</time>
      </trkpt>
      <trkpt lat="39.0404860" lon="1.3347370">
        <ele>190.4</ele>
        <time>2020-02-22T11:01:56Z</time>
      </trkpt>
      <trkpt lat="39.0404980" lon="1.3347850">
        <ele>190.5</ele>
        <time>2020-02-22T11:01:57Z</time>
      </trkpt>
      <trkpt lat="39.0404970" lon="1.3348340">
        <ele>190.6</ele>
        <time>2020-02-22T11:01:58Z</time>
      </trkpt>
      <trkpt lat="39.0404980" lon="1.3348500">
        <ele>190.8</ele>
        <time>2020-02-22T11:01:59Z</time>
      </trkpt>
      <trkpt lat="39.0405050" lon="1.3348880">
        <ele>191.0</ele>
        <time>2020-02-22T11:02:00Z</time>
      </trkpt>
      <trkpt lat="39.0405070" lon="1.3349010">
        <ele>191.0</ele>
        <time>2020-02-22T11:02:01Z</time>
      </trkpt>
      <trkpt lat="39.0405190" lon="1.3349320">
        <ele>191.2</ele>
        <time>2020-02-22T11:02:02Z</time>
      </trkpt>
      <trkpt lat="39.0405240" lon="1.3349680">
        <ele>191.4</ele>
        <time>2020-02-22T11:02:03Z</time>
      </trkpt>
      <trkpt lat="39.0405290" lon="1.3350070">
        <ele>191.4</ele>
        <time>2020-02-22T11:02:04Z</time>
      </trkpt>
      <trkpt lat="39.0405400" lon="1.3350460">
        <ele>191.6</ele>
        <time>2020-02-22T11:02:05Z</time>
      </trkpt>
      <trkpt lat="39.0405420" lon="1.3350620">
        <ele>191.8</ele>
        <time>2020-02-22T11:02:06Z</time>
      </trkpt>
      <trkpt lat="39.0405400" lon="1.3351000">
        <ele>192.1</ele>
        <time>2020-02-22T11:02:07Z</time>
      </trkpt>
      <trkpt lat="39.0405390" lon="1.3351080">
        <ele>192.1</ele>
        <time>2020-02-22T11:02:08Z</time>
      </trkpt>
      <trkpt lat="39.0405390" lon="1.3351170">
        <ele>192.1</ele>
        <time>2020-02-22T11:02:09Z</time>
      </trkpt>
      <trkpt lat="39.0405460" lon="1.3351590">
        <ele>192.3</ele>
        <time>2020-02-22T11:02:10Z</time>
      </trkpt>
      <trkpt lat="39.0405480" lon="1.3351710">
        <ele>192.3</ele>
        <time>2020-02-22T11:02:11Z</time>
      </trkpt>
      <trkpt lat="39.0405520" lon="1.3351910">
        <ele>192.5</ele>
        <time>2020-02-22T11:02:12Z</time>
      </trkpt>
      <trkpt lat="39.0405560" lon="1.3352130">
        <ele>192.4</ele>
        <time>2020-02-22T11:02:13Z</time>
      </trkpt>
      <trkpt lat="39.0405610" lon="1.3352610">
        <ele>192.5</ele>
        <time>2020-02-22T11:02:14Z</time>
      </trkpt>
      <trkpt lat="39.0405620" lon="1.3352780">
        <ele>192.7</ele>
        <time>2020-02-22T11:02:15Z</time>
      </trkpt>
      <trkpt lat="39.0405670" lon="1.3353240">
        <ele>192.9</ele>
        <time>2020-02-22T11:02:16Z</time>
      </trkpt>
      <trkpt lat="39.0405680" lon="1.3353420">
        <ele>192.9</ele>
        <time>2020-02-22T11:02:17Z</time>
      </trkpt>
      <trkpt lat="39.0405770" lon="1.3353790">
        <ele>193.1</ele>
        <time>2020-02-22T11:02:18Z</time>
      </trkpt>
      <trkpt lat="39.0405780" lon="1.3353920">
        <ele>193.1</ele>
        <time>2020-02-22T11:02:19Z</time>
      </trkpt>
      <trkpt lat="39.0405820" lon="1.3354330">
        <ele>193.2</ele>
        <time>2020-02-22T11:02:20Z</time>
      </trkpt>
      <trkpt lat="39.0405830" lon="1.3354480">
        <ele>193.4</ele>
        <time>2020-02-22T11:02:21Z</time>
      </trkpt>
      <trkpt lat="39.0405880" lon="1.3354910">
        <ele>193.5</ele>
        <time>2020-02-22T11:02:22Z</time>
      </trkpt>
      <trkpt lat="39.0405920" lon="1.3355060">
        <ele>193.5</ele>
        <time>2020-02-22T11:02:23Z</time>
      </trkpt>
      <trkpt lat="39.0406060" lon="1.3355410">
        <ele>193.7</ele>
        <time>2020-02-22T11:02:24Z</time>
      </trkpt>
      <trkpt lat="39.0406120" lon="1.3355520">
        <ele>193.7</ele>
        <time>2020-02-22T11:02:25Z</time>
      </trkpt>
      <trkpt lat="39.0406170" lon="1.3355720">
        <ele>193.9</ele>
        <time>2020-02-22T11:02:26Z</time>
      </trkpt>
      <trkpt lat="39.0406220" lon="1.3355930">
        <ele>193.8</ele>
        <time>2020-02-22T11:02:27Z</time>
      </trkpt>
      <trkpt lat="39.0406250" lon="1.3356080">
        <ele>193.8</ele>
        <time>2020-02-22T11:02:28Z</time>
      </trkpt>
      <trkpt lat="39.0406290" lon="1.3356210">
        <ele>194.0</ele>
        <time>2020-02-22T11:02:29Z</time>
      </trkpt>
      <trkpt lat="39.0406360" lon="1.3356350">
        <ele>194.0</ele>
        <time>2020-02-22T11:02:30Z</time>
      </trkpt>
      <trkpt lat="39.0406460" lon="1.3356490">
        <ele>194.0</ele>
        <time>2020-02-22T11:02:31Z</time>
      </trkpt>
      <trkpt lat="39.0406550" lon="1.3356610">
        <ele>194.1</ele>
        <time>2020-02-22T11:02:32Z</time>
      </trkpt>
      <trkpt lat="39.0406590" lon="1.3356690">
        <ele>194.1</ele>
        <time>2020-02-22T11:02:33Z</time>
      </trkpt>
      <trkpt lat="39.0406590" lon="1.3356700">
        <ele>194.1</ele>
        <time>2020-02-22T11:02:34Z</time>
      </trkpt>
      <trkpt lat="39.0406590" lon="1.3356700">
        <ele>194.1</ele>
        <time>2020-02-22T11:02:35Z</time>
      </trkpt>
      <trkpt lat="39.0406590" lon="1.3356710">
        <ele>194.1</ele>
        <time>2020-02-22T11:02:36Z</time>
      </trkpt>
      <trkpt lat="39.0406590" lon="1.3356720">
        <ele>194.1</ele>
        <time>2020-02-22T11:02:37Z</time>
      </trkpt>
      <trkpt lat="39.0406590" lon="1.3356730">
        <ele>194.1</ele>
        <time>2020-02-22T11:02:38Z</time>
      </trkpt>
      <trkpt lat="39.0406590" lon="1.3356740">
        <ele>194.1</ele>
        <time>2020-02-22T11:02:39Z</time>
      </trkpt>
      <trkpt lat="39.0406590" lon="1.3356740">
        <ele>194.1</ele>
        <time>2020-02-22T11:02:40Z</time>
      </trkpt>
      <trkpt lat="39.0406590" lon="1.3356750">
        <ele>194.1</ele>
        <time>2020-02-22T11:02:41Z</time>
      </trkpt>
      <trkpt lat="39.0406590" lon="1.3356760">
        <ele>194.1</ele>
        <time>2020-02-22T11:02:42Z</time>
      </trkpt>
      <trkpt lat="39.0406590" lon="1.3356770">
        <ele>194.1</ele>
        <time>2020-02-22T11:02:43Z</time>
      </trkpt>
      <trkpt lat="39.0406590" lon="1.3356780">
        <ele>194.1</ele>
        <time>2020-02-22T11:02:44Z</time>
      </trkpt>
      <trkpt lat="39.0406590" lon="1.3356780">
        <ele>194.1</ele>
        <time>2020-02-22T11:02:52Z</time>
      </trkpt>
      <trkpt lat="39.0406590" lon="1.3356790">
        <ele>194.1</ele>
        <time>2020-02-22T11:02:53Z</time>
      </trkpt>
      <trkpt lat="39.0406590" lon="1.3356800">
        <ele>194.1</ele>
        <time>2020-02-22T11:02:54Z</time>
      </trkpt>
      <trkpt lat="39.0406590" lon="1.3356810">
        <ele>194.1</ele>
        <time>2020-02-22T11:02:55Z</time>
      </trkpt>
      <trkpt lat="39.0406600" lon="1.3356810">
        <ele>194.1</ele>
        <time>2020-02-22T11:02:56Z</time>
      </trkpt>
      <trkpt lat="39.0406600" lon="1.3356820">
        <ele>194.1</ele>
        <time>2020-02-22T11:02:57Z</time>
      </trkpt>
      <trkpt lat="39.0406600" lon="1.3356830">
        <ele>194.1</ele>
        <time>2020-02-22T11:02:58Z</time>
      </trkpt>
      <trkpt lat="39.0406600" lon="1.3356840">
        <ele>194.1</ele>
        <time>2020-02-22T11:02:59Z</time>
      </trkpt>
      <trkpt lat="39.0406600" lon="1.3356850">
        <ele>194.1</ele>
        <time>2020-02-22T11:03:00Z</time>
      </trkpt>
      <trkpt lat="39.0406600" lon="1.3356850">
        <ele>194.1</ele>
        <time>2020-02-22T11:03:01Z</time>
      </trkpt>
      <trkpt lat="39.0406600" lon="1.3356860">
        <ele>194.1</ele>
        <time>2020-02-22T11:03:02Z</time>
      </trkpt>
      <trkpt lat="39.0406600" lon="1.3356870">
        <ele>194.2</ele>
        <time>2020-02-22T11:03:03Z</time>
      </trkpt>
      <trkpt lat="39.0406600" lon="1.3356880">
        <ele>194.2</ele>
        <time>2020-02-22T11:03:04Z</time>
      </trkpt>
      <trkpt lat="39.0406600" lon="1.3356890">
        <ele>194.2</ele>
        <time>2020-02-22T11:03:05Z</time>
      </trkpt>
      <trkpt lat="39.0406600" lon="1.3356890">
        <ele>194.2</ele>
        <time>2020-02-22T11:03:06Z</time>
      </trkpt>
      <trkpt lat="39.0406600" lon="1.3356900">
        <ele>194.2</ele>
        <time>2020-02-22T11:03:07Z</time>
      </trkpt>
      <trkpt lat="39.0406600" lon="1.3356910">
        <ele>194.2</ele>
        <time>2020-02-22T11:03:08Z</time>
      </trkpt>
      <trkpt lat="39.0406600" lon="1.3356920">
        <ele>194.2</ele>
        <time>2020-02-22T11:03:09Z</time>
      </trkpt>
      <trkpt lat="39.0406600" lon="1.3356930">
        <ele>194.2</ele>
        <time>2020-02-22T11:03:10Z</time>
      </trkpt>
      <trkpt lat="39.0406600" lon="1.3356930">
        <ele>194.2</ele>
        <time>2020-02-22T11:03:11Z</time>
      </trkpt>
      <trkpt lat="39.0406600" lon="1.3356940">
        <ele>194.2</ele>
        <time>2020-02-22T11:03:39Z</time>
      </trkpt>
      <trkpt lat="39.0406600" lon="1.3356950">
        <ele>194.2</ele>
        <time>2020-02-22T11:03:40Z</time>
      </trkpt>
      <trkpt lat="39.0406510" lon="1.3356810">
        <ele>194.3</ele>
        <time>2020-02-22T11:03:41Z</time>
      </trkpt>
      <trkpt lat="39.0406480" lon="1.3356790">
        <ele>194.3</ele>
        <time>2020-02-22T11:03:42Z</time>
      </trkpt>
      <trkpt lat="39.0406450" lon="1.3356810">
        <ele>194.3</ele>
        <time>2020-02-22T11:03:43Z</time>
      </trkpt>
      <trkpt lat="39.0406440" lon="1.3356780">
        <ele>194.3</ele>
        <time>2020-02-22T11:03:44Z</time>
      </trkpt>
      <trkpt lat="39.0406440" lon="1.3356770">
        <ele>194.3</ele>
        <time>2020-02-22T11:03:45Z</time>
      </trkpt>
      <trkpt lat="39.0406440" lon="1.3356770">
        <ele>194.3</ele>
        <time>2020-02-22T11:03:46Z</time>
      </trkpt>
      <trkpt lat="39.0406420" lon="1.3356750">
        <ele>194.3</ele>
        <time>2020-02-22T11:03:47Z</time>
      </trkpt>
      <trkpt lat="39.0406290" lon="1.3356690">
        <ele>194.3</ele>
        <time>2020-02-22T11:03:48Z</time>
      </trkpt>
      <trkpt lat="39.0406070" lon="1.3356260">
        <ele>194.2</ele>
        <time>2020-02-22T11:03:49Z</time>
      </trkpt>
      <trkpt lat="39.0405830" lon="1.3356040">
        <ele>194.1</ele>
        <time>2020-02-22T11:03:50Z</time>
      </trkpt>
      <trkpt lat="39.0405760" lon="1.3355950">
        <ele>194.1</ele>
        <time>2020-02-22T11:03:51Z</time>
      </trkpt>
      <trkpt lat="39.0405490" lon="1.3355700">
        <ele>194.2</ele>
        <time>2020-02-22T11:03:52Z</time>
      </trkpt>
      <trkpt lat="39.0405410" lon="1.3355610">
        <ele>194.0</ele>
        <time>2020-02-22T11:03:53Z</time>
      </trkpt>
      <trkpt lat="39.0405200" lon="1.3355370">
        <ele>194.0</ele>
        <time>2020-02-22T11:03:54Z</time>
      </trkpt>
      <trkpt lat="39.0404950" lon="1.3355180">
        <ele>194.0</ele>
        <time>2020-02-22T11:03:55Z</time>
      </trkpt>
      <trkpt lat="39.0404870" lon="1.3355140">
        <ele>194.0</ele>
        <time>2020-02-22T11:03:56Z</time>
      </trkpt>
      <trkpt lat="39.0404610" lon="1.3354950">
        <ele>194.0</ele>
        <time>2020-02-22T11:03:57Z</time>
      </trkpt>
      <trkpt lat="39.0404510" lon="1.3354910">
        <ele>194.1</ele>
        <time>2020-02-22T11:03:58Z</time>
      </trkpt>
      <trkpt lat="39.0404340" lon="1.3355000">
        <ele>194.1</ele>
        <time>2020-02-22T11:03:59Z</time>
      </trkpt>
      <trkpt lat="39.0404220" lon="1.3354920">
        <ele>194.1</ele>
        <time>2020-02-22T11:04:00Z</time>
      </trkpt>
      <trkpt lat="39.0404080" lon="1.3354930">
        <ele>194.3</ele>
        <time>2020-02-22T11:04:01Z</time>
      </trkpt>
      <trkpt lat="39.0403920" lon="1.3354930">
        <ele>194.3</ele>
        <time>2020-02-22T11:04:02Z</time>
      </trkpt>
      <trkpt lat="39.0403720" lon="1.3354950">
        <ele>194.4</ele>
        <time>2020-02-22T11:04:03Z</time>
      </trkpt>
      <trkpt lat="39.0403570" lon="1.3354950">
        <ele>194.4</ele>
        <time>2020-02-22T11:04:04Z</time>
      </trkpt>
      <trkpt lat="39.0403360" lon="1.3354870">
        <ele>194.5</ele>
        <time>2020-02-22T11:04:05Z</time>
      </trkpt>
      <trkpt lat="39.0403300" lon="1.3354800">
        <ele>194.3</ele>
        <time>2020-02-22T11:04:06Z</time>
      </trkpt>
      <trkpt lat="39.0403230" lon="1.3354740">
        <ele>194.3</ele>
        <time>2020-02-22T11:04:07Z</time>
      </trkpt>
      <trkpt lat="39.0403070" lon="1.3354660">
        <ele>194.4</ele>
        <time>2020-02-22T11:04:08Z</time>
      </trkpt>
      <trkpt lat="39.0403020" lon="1.3354640">
        <ele>194.4</ele>
        <time>2020-02-22T11:04:09Z</time>
      </trkpt>
      <trkpt lat="39.0403050" lon="1.3354690">
        <ele>194.4</ele>
        <time>2020-02-22T11:04:10Z</time>
      </trkpt>
      <trkpt lat="39.0403080" lon="1.3354690">
        <ele>194.4</ele>
        <time>2020-02-22T11:04:11Z</time>
      </trkpt>
      <trkpt lat="39.0403080" lon="1.3354690">
        <ele>194.5</ele>
        <time>2020-02-22T11:04:12Z</time>
      </trkpt>
      <trkpt lat="39.0403080" lon="1.3354690">
        <ele>194.5</ele>
        <time>2020-02-22T11:04:13Z</time>
      </trkpt>
      <trkpt lat="39.0403080" lon="1.3354690">
        <ele>194.5</ele>
        <time>2020-02-22T11:04:14Z</time>
      </trkpt>
      <trkpt lat="39.0403080" lon="1.3354690">
        <ele>194.5</ele>
        <time>2020-02-22T11:04:15Z</time>
      </trkpt>
      <trkpt lat="39.0403080" lon="1.3354690">
        <ele>194.5</ele>
        <time>2020-02-22T11:04:16Z</time>
      </trkpt>
      <trkpt lat="39.0403080" lon="1.3354690">
        <ele>194.5</ele>
        <time>2020-02-22T11:04:17Z</time>
      </trkpt>
      <trkpt lat="39.0403080" lon="1.3354690">
        <ele>194.5</ele>
        <time>2020-02-22T11:04:18Z</time>
      </trkpt>
      <trkpt lat="39.0403080" lon="1.3354690">
        <ele>194.6</ele>
        <time>2020-02-22T11:04:19Z</time>
      </trkpt>
      <trkpt lat="39.0402930" lon="1.3354380">
        <ele>194.4</ele>
        <time>2020-02-22T11:04:23Z</time>
      </trkpt>
      <trkpt lat="39.0402940" lon="1.3354190">
        <ele>194.4</ele>
        <time>2020-02-22T11:04:24Z</time>
      </trkpt>
      <trkpt lat="39.0402840" lon="1.3353890">
        <ele>194.3</ele>
        <time>2020-02-22T11:04:25Z</time>
      </trkpt>
      <trkpt lat="39.0402760" lon="1.3353780">
        <ele>194.3</ele>
        <time>2020-02-22T11:04:26Z</time>
      </trkpt>
      <trkpt lat="39.0402400" lon="1.3353520">
        <ele>194.2</ele>
        <time>2020-02-22T11:04:27Z</time>
      </trkpt>
      <trkpt lat="39.0402250" lon="1.3353450">
        <ele>194.2</ele>
        <time>2020-02-22T11:04:28Z</time>
      </trkpt>
      <trkpt lat="39.0402020" lon="1.3353400">
        <ele>194.3</ele>
        <time>2020-02-22T11:04:29Z</time>
      </trkpt>
      <trkpt lat="39.0401940" lon="1.3353380">
        <ele>194.3</ele>
        <time>2020-02-22T11:04:30Z</time>
      </trkpt>
      <trkpt lat="39.0401810" lon="1.3353280">
        <ele>194.4</ele>
        <time>2020-02-22T11:04:31Z</time>
      </trkpt>
      <trkpt lat="39.0401650" lon="1.3353170">
        <ele>194.5</ele>
        <time>2020-02-22T11:04:32Z</time>
      </trkpt>
      <trkpt lat="39.0401530" lon="1.3353120">
        <ele>194.5</ele>
        <time>2020-02-22T11:04:33Z</time>
      </trkpt>
      <trkpt lat="39.0401310" lon="1.3353140">
        <ele>194.5</ele>
        <time>2020-02-22T11:04:34Z</time>
      </trkpt>
      <trkpt lat="39.0401150" lon="1.3353260">
        <ele>194.6</ele>
        <time>2020-02-22T11:04:35Z</time>
      </trkpt>
      <trkpt lat="39.0401080" lon="1.3353320">
        <ele>194.6</ele>
        <time>2020-02-22T11:04:36Z</time>
      </trkpt>
      <trkpt lat="39.0400860" lon="1.3353250">
        <ele>194.6</ele>
        <time>2020-02-22T11:04:37Z</time>
      </trkpt>
      <trkpt lat="39.0400760" lon="1.3353290">
        <ele>194.6</ele>
        <time>2020-02-22T11:04:38Z</time>
      </trkpt>
      <trkpt lat="39.0400400" lon="1.3353200">
        <ele>194.6</ele>
        <time>2020-02-22T11:04:39Z</time>
      </trkpt>
      <trkpt lat="39.0400250" lon="1.3353140">
        <ele>194.6</ele>
        <time>2020-02-22T11:04:40Z</time>
      </trkpt>
      <trkpt lat="39.0399820" lon="1.3353050">
        <ele>194.4</ele>
        <time>2020-02-22T11:04:41Z</time>
      </trkpt>
      <trkpt lat="39.0399650" lon="1.3353050">
        <ele>194.4</ele>
        <time>2020-02-22T11:04:42Z</time>
      </trkpt>
      <trkpt lat="39.0399360" lon="1.3353040">
        <ele>194.3</ele>
        <time>2020-02-22T11:04:43Z</time>
      </trkpt>
      <trkpt lat="39.0399080" lon="1.3352960">
        <ele>194.3</ele>
        <time>2020-02-22T11:04:44Z</time>
      </trkpt>
      <trkpt lat="39.0398720" lon="1.3352920">
        <ele>194.2</ele>
        <time>2020-02-22T11:04:45Z</time>
      </trkpt>
      <trkpt lat="39.0398630" lon="1.3352910">
        <ele>194.2</ele>
        <time>2020-02-22T11:04:46Z</time>
      </trkpt>
      <trkpt lat="39.0398400" lon="1.3353090">
        <ele>194.1</ele>
        <time>2020-02-22T11:04:47Z</time>
      </trkpt>
      <trkpt lat="39.0398300" lon="1.3353140">
        <ele>194.4</ele>
        <time>2020-02-22T11:04:48Z</time>
      </trkpt>
      <trkpt lat="39.0398000" lon="1.3353260">
        <ele>194.3</ele>
        <time>2020-02-22T11:04:49Z</time>
      </trkpt>
      <trkpt lat="39.0397880" lon="1.3353270">
        <ele>194.3</ele>
        <time>2020-02-22T11:04:50Z</time>
      </trkpt>
      <trkpt lat="39.0397600" lon="1.3353440">
        <ele>194.2</ele>
        <time>2020-02-22T11:04:51Z</time>
      </trkpt>
      <trkpt lat="39.0397530" lon="1.3353460">
        <ele>194.2</ele>
        <time>2020-02-22T11:04:52Z</time>
      </trkpt>
      <trkpt lat="39.0397440" lon="1.3353590">
        <ele>194.2</ele>
        <time>2020-02-22T11:04:53Z</time>
      </trkpt>
      <trkpt lat="39.0397490" lon="1.3353690">
        <ele>194.2</ele>
        <time>2020-02-22T11:04:54Z</time>
      </trkpt>
      <trkpt lat="39.0397630" lon="1.3353660">
        <ele>194.4</ele>
        <time>2020-02-22T11:04:55Z</time>
      </trkpt>
      <trkpt lat="39.0397830" lon="1.3353470">
        <ele>194.2</ele>
        <time>2020-02-22T11:04:56Z</time>
      </trkpt>
      <trkpt lat="39.0398040" lon="1.3353220">
        <ele>194.4</ele>
        <time>2020-02-22T11:04:57Z</time>
      </trkpt>
      <trkpt lat="39.0398410" lon="1.3353090">
        <ele>194.3</ele>
        <time>2020-02-22T11:04:58Z</time>
      </trkpt>
      <trkpt lat="39.0398570" lon="1.3353100">
        <ele>194.4</ele>
        <time>2020-02-22T11:04:59Z</time>
      </trkpt>
      <trkpt lat="39.0398880" lon="1.3353170">
        <ele>194.6</ele>
        <time>2020-02-22T11:05:00Z</time>
      </trkpt>
      <trkpt lat="39.0399120" lon="1.3353000">
        <ele>194.4</ele>
        <time>2020-02-22T11:05:01Z</time>
      </trkpt>
      <trkpt lat="39.0399450" lon="1.3352980">
        <ele>194.5</ele>
        <time>2020-02-22T11:05:02Z</time>
      </trkpt>
      <trkpt lat="39.0399550" lon="1.3353000">
        <ele>194.5</ele>
        <time>2020-02-22T11:05:03Z</time>
      </trkpt>
      <trkpt lat="39.0399910" lon="1.3353130">
        <ele>194.8</ele>
        <time>2020-02-22T11:05:04Z</time>
      </trkpt>
      <trkpt lat="39.0400040" lon="1.3353170">
        <ele>194.8</ele>
        <time>2020-02-22T11:05:05Z</time>
      </trkpt>
      <trkpt lat="39.0400380" lon="1.3353170">
        <ele>194.8</ele>
        <time>2020-02-22T11:05:06Z</time>
      </trkpt>
      <trkpt lat="39.0400490" lon="1.3353190">
        <ele>194.8</ele>
        <time>2020-02-22T11:05:07Z</time>
      </trkpt>
      <trkpt lat="39.0400850" lon="1.3353280">
        <ele>194.8</ele>
        <time>2020-02-22T11:05:08Z</time>
      </trkpt>
      <trkpt lat="39.0400970" lon="1.3353320">
        <ele>194.8</ele>
        <time>2020-02-22T11:05:09Z</time>
      </trkpt>
      <trkpt lat="39.0401340" lon="1.3353350">
        <ele>194.8</ele>
        <time>2020-02-22T11:05:10Z</time>
      </trkpt>
      <trkpt lat="39.0401470" lon="1.3353350">
        <ele>194.8</ele>
        <time>2020-02-22T11:05:11Z</time>
      </trkpt>
      <trkpt lat="39.0401750" lon="1.3353310">
        <ele>194.7</ele>
        <time>2020-02-22T11:05:12Z</time>
      </trkpt>
      <trkpt lat="39.0402030" lon="1.3353400">
        <ele>194.7</ele>
        <time>2020-02-22T11:05:13Z</time>
      </trkpt>
      <trkpt lat="39.0402150" lon="1.3353520">
        <ele>194.7</ele>
        <time>2020-02-22T11:05:14Z</time>
      </trkpt>
      <trkpt lat="39.0402430" lon="1.3353800">
        <ele>194.8</ele>
        <time>2020-02-22T11:05:15Z</time>
      </trkpt>
      <trkpt lat="39.0402530" lon="1.3353850">
        <ele>194.7</ele>
        <time>2020-02-22T11:05:16Z</time>
      </trkpt>
      <trkpt lat="39.0402900" lon="1.3353950">
        <ele>194.6</ele>
        <time>2020-02-22T11:05:17Z</time>
      </trkpt>
      <trkpt lat="39.0403000" lon="1.3354030">
        <ele>194.8</ele>
        <time>2020-02-22T11:05:18Z</time>
      </trkpt>
      <trkpt lat="39.0403300" lon="1.3354240">
        <ele>194.7</ele>
        <time>2020-02-22T11:05:19Z</time>
      </trkpt>
      <trkpt lat="39.0403390" lon="1.3354310">
        <ele>194.7</ele>
        <time>2020-02-22T11:05:20Z</time>
      </trkpt>
      <trkpt lat="39.0403670" lon="1.3354540">
        <ele>194.8</ele>
        <time>2020-02-22T11:05:21Z</time>
      </trkpt>
      <trkpt lat="39.0403750" lon="1.3354590">
        <ele>194.8</ele>
        <time>2020-02-22T11:05:22Z</time>
      </trkpt>
      <trkpt lat="39.0404010" lon="1.3354770">
        <ele>194.7</ele>
        <time>2020-02-22T11:05:23Z</time>
      </trkpt>
      <trkpt lat="39.0404090" lon="1.3354840">
        <ele>194.8</ele>
        <time>2020-02-22T11:05:24Z</time>
      </trkpt>
      <trkpt lat="39.0404370" lon="1.3354990">
        <ele>194.7</ele>
        <time>2020-02-22T11:05:25Z</time>
      </trkpt>
      <trkpt lat="39.0404690" lon="1.3355150">
        <ele>194.7</ele>
        <time>2020-02-22T11:05:26Z</time>
      </trkpt>
      <trkpt lat="39.0404960" lon="1.3355430">
        <ele>194.7</ele>
        <time>2020-02-22T11:05:27Z</time>
      </trkpt>
      <trkpt lat="39.0405220" lon="1.3355630">
        <ele>194.7</ele>
        <time>2020-02-22T11:05:28Z</time>
      </trkpt>
      <trkpt lat="39.0405580" lon="1.3355910">
        <ele>194.8</ele>
        <time>2020-02-22T11:05:29Z</time>
      </trkpt>
      <trkpt lat="39.0405860" lon="1.3356140">
        <ele>194.9</ele>
        <time>2020-02-22T11:05:30Z</time>
      </trkpt>
      <trkpt lat="39.0406160" lon="1.3356490">
        <ele>194.9</ele>
        <time>2020-02-22T11:05:31Z</time>
      </trkpt>
      <trkpt lat="39.0406470" lon="1.3356850">
        <ele>195.0</ele>
        <time>2020-02-22T11:05:32Z</time>
      </trkpt>
      <trkpt lat="39.0406770" lon="1.3357220">
        <ele>195.1</ele>
        <time>2020-02-22T11:05:33Z</time>
      </trkpt>
      <trkpt lat="39.0407090" lon="1.3357490">
        <ele>195.2</ele>
        <time>2020-02-22T11:05:34Z</time>
      </trkpt>
      <trkpt lat="39.0407390" lon="1.3357590">
        <ele>195.1</ele>
        <time>2020-02-22T11:05:35Z</time>
      </trkpt>
      <trkpt lat="39.0407520" lon="1.3357570">
        <ele>195.1</ele>
        <time>2020-02-22T11:05:36Z</time>
      </trkpt>
      <trkpt lat="39.0407600" lon="1.3357570">
        <ele>195.0</ele>
        <time>2020-02-22T11:05:37Z</time>
      </trkpt>
      <trkpt lat="39.0407630" lon="1.3357710">
        <ele>195.0</ele>
        <time>2020-02-22T11:05:38Z</time>
      </trkpt>
      <trkpt lat="39.0407650" lon="1.3357650">
        <ele>195.0</ele>
        <time>2020-02-22T11:05:39Z</time>
      </trkpt>
      <trkpt lat="39.0407700" lon="1.3357480">
        <ele>195.0</ele>
        <time>2020-02-22T11:05:40Z</time>
      </trkpt>
      <trkpt lat="39.0407760" lon="1.3357310">
        <ele>194.8</ele>
        <time>2020-02-22T11:05:41Z</time>
      </trkpt>
      <trkpt lat="39.0407790" lon="1.3357210">
        <ele>194.8</ele>
        <time>2020-02-22T11:05:42Z</time>
      </trkpt>
      <trkpt lat="39.0407810" lon="1.3357100">
        <ele>194.8</ele>
        <time>2020-02-22T11:05:43Z</time>
      </trkpt>
      <trkpt lat="39.0407840" lon="1.3356990">
        <ele>194.8</ele>
        <time>2020-02-22T11:05:44Z</time>
      </trkpt>
      <trkpt lat="39.0407900" lon="1.3356560">
        <ele>194.6</ele>
        <time>2020-02-22T11:05:45Z</time>
      </trkpt>
      <trkpt lat="39.0407900" lon="1.3356420">
        <ele>194.5</ele>
        <time>2020-02-22T11:05:46Z</time>
      </trkpt>
      <trkpt lat="39.0407970" lon="1.3355980">
        <ele>194.3</ele>
        <time>2020-02-22T11:05:47Z</time>
      </trkpt>
      <trkpt lat="39.0407980" lon="1.3355870">
        <ele>194.3</ele>
        <time>2020-02-22T11:05:48Z</time>
      </trkpt>
      <trkpt lat="39.0407950" lon="1.3355620">
        <ele>194.2</ele>
        <time>2020-02-22T11:05:49Z</time>
      </trkpt>
      <trkpt lat="39.0408020" lon="1.3355500">
        <ele>194.2</ele>
        <time>2020-02-22T11:05:50Z</time>
      </trkpt>
      <trkpt lat="39.0408300" lon="1.3355490">
        <ele>194.1</ele>
        <time>2020-02-22T11:05:51Z</time>
      </trkpt>
      <trkpt lat="39.0408360" lon="1.3355930">
        <ele>194.2</ele>
        <time>2020-02-22T11:05:52Z</time>
      </trkpt>
      <trkpt lat="39.0408350" lon="1.3356070">
        <ele>194.2</ele>
        <time>2020-02-22T11:05:53Z</time>
      </trkpt>
      <trkpt lat="39.0408470" lon="1.3356500">
        <ele>194.4</ele>
        <time>2020-02-22T11:05:54Z</time>
      </trkpt>
      <trkpt lat="39.0408530" lon="1.3356610">
        <ele>194.4</ele>
        <time>2020-02-22T11:05:55Z</time>
      </trkpt>
      <trkpt lat="39.0408770" lon="1.3356970">
        <ele>194.4</ele>
        <time>2020-02-22T11:05:56Z</time>
      </trkpt>
      <trkpt lat="39.0408850" lon="1.3357080">
        <ele>194.5</ele>
        <time>2020-02-22T11:05:57Z</time>
      </trkpt>
      <trkpt lat="39.0409040" lon="1.3357490">
        <ele>194.6</ele>
        <time>2020-02-22T11:05:58Z</time>
      </trkpt>
      <trkpt lat="39.0409110" lon="1.3357630">
        <ele>194.6</ele>
        <time>2020-02-22T11:05:59Z</time>
      </trkpt>
      <trkpt lat="39.0409280" lon="1.3357940">
        <ele>194.7</ele>
        <time>2020-02-22T11:06:00Z</time>
      </trkpt>
      <trkpt lat="39.0409530" lon="1.3358290">
        <ele>194.8</ele>
        <time>2020-02-22T11:06:01Z</time>
      </trkpt>
      <trkpt lat="39.0409620" lon="1.3358410">
        <ele>194.8</ele>
        <time>2020-02-22T11:06:02Z</time>
      </trkpt>
      <trkpt lat="39.0409840" lon="1.3358780">
        <ele>194.9</ele>
        <time>2020-02-22T11:06:03Z</time>
      </trkpt>
      <trkpt lat="39.0409910" lon="1.3358950">
        <ele>194.8</ele>
        <time>2020-02-22T11:06:04Z</time>
      </trkpt>
      <trkpt lat="39.0410020" lon="1.3359130">
        <ele>195.0</ele>
        <time>2020-02-22T11:06:05Z</time>
      </trkpt>
      <trkpt lat="39.0410090" lon="1.3359270">
        <ele>195.0</ele>
        <time>2020-02-22T11:06:06Z</time>
      </trkpt>
      <trkpt lat="39.0410180" lon="1.3359400">
        <ele>195.0</ele>
        <time>2020-02-22T11:06:07Z</time>
      </trkpt>
      <trkpt lat="39.0410270" lon="1.3359560">
        <ele>195.1</ele>
        <time>2020-02-22T11:06:08Z</time>
      </trkpt>
      <trkpt lat="39.0410540" lon="1.3359860">
        <ele>195.0</ele>
        <time>2020-02-22T11:06:09Z</time>
      </trkpt>
      <trkpt lat="39.0410650" lon="1.3359910">
        <ele>195.0</ele>
        <time>2020-02-22T11:06:10Z</time>
      </trkpt>
      <trkpt lat="39.0410920" lon="1.3360000">
        <ele>195.1</ele>
        <time>2020-02-22T11:06:11Z</time>
      </trkpt>
      <trkpt lat="39.0411230" lon="1.3360290">
        <ele>195.0</ele>
        <time>2020-02-22T11:06:12Z</time>
      </trkpt>
      <trkpt lat="39.0411320" lon="1.3360410">
        <ele>195.2</ele>
        <time>2020-02-22T11:06:13Z</time>
      </trkpt>
      <trkpt lat="39.0411560" lon="1.3360670">
        <ele>195.1</ele>
        <time>2020-02-22T11:06:14Z</time>
      </trkpt>
      <trkpt lat="39.0411860" lon="1.3360800">
        <ele>195.1</ele>
        <time>2020-02-22T11:06:15Z</time>
      </trkpt>
      <trkpt lat="39.0412180" lon="1.3360910">
        <ele>195.2</ele>
        <time>2020-02-22T11:06:16Z</time>
      </trkpt>
      <trkpt lat="39.0412290" lon="1.3360900">
        <ele>195.1</ele>
        <time>2020-02-22T11:06:17Z</time>
      </trkpt>
      <trkpt lat="39.0412720" lon="1.3360870">
        <ele>195.1</ele>
        <time>2020-02-22T11:06:18Z</time>
      </trkpt>
      <trkpt lat="39.0412890" lon="1.3360850">
        <ele>195.0</ele>
        <time>2020-02-22T11:06:19Z</time>
      </trkpt>
      <trkpt lat="39.0413240" lon="1.3360710">
        <ele>194.9</ele>
        <time>2020-02-22T11:06:20Z</time>
      </trkpt>
      <trkpt lat="39.0413340" lon="1.3360660">
        <ele>194.9</ele>
        <time>2020-02-22T11:06:21Z</time>
      </trkpt>
      <trkpt lat="39.0413700" lon="1.3360540">
        <ele>194.9</ele>
        <time>2020-02-22T11:06:22Z</time>
      </trkpt>
      <trkpt lat="39.0413820" lon="1.3360500">
        <ele>194.9</ele>
        <time>2020-02-22T11:06:23Z</time>
      </trkpt>
      <trkpt lat="39.0414150" lon="1.3360370">
        <ele>194.8</ele>
        <time>2020-02-22T11:06:24Z</time>
      </trkpt>
      <trkpt lat="39.0414240" lon="1.3360340">
        <ele>194.9</ele>
        <time>2020-02-22T11:06:25Z</time>
      </trkpt>
      <trkpt lat="39.0414580" lon="1.3360160">
        <ele>194.9</ele>
        <time>2020-02-22T11:06:26Z</time>
      </trkpt>
      <trkpt lat="39.0414670" lon="1.3360080">
        <ele>194.9</ele>
        <time>2020-02-22T11:06:27Z</time>
      </trkpt>
      <trkpt lat="39.0414930" lon="1.3359960">
        <ele>194.9</ele>
        <time>2020-02-22T11:06:28Z</time>
      </trkpt>
      <trkpt lat="39.0415190" lon="1.3359810">
        <ele>194.9</ele>
        <time>2020-02-22T11:06:29Z</time>
      </trkpt>
      <trkpt lat="39.0415530" lon="1.3359710">
        <ele>195.1</ele>
        <time>2020-02-22T11:06:30Z</time>
      </trkpt>
      <trkpt lat="39.0415870" lon="1.3359900">
        <ele>195.2</ele>
        <time>2020-02-22T11:06:31Z</time>
      </trkpt>
      <trkpt lat="39.0416200" lon="1.3360000">
        <ele>195.4</ele>
        <time>2020-02-22T11:06:32Z</time>
      </trkpt>
      <trkpt lat="39.0416460" lon="1.3360170">
        <ele>195.4</ele>
        <time>2020-02-22T11:06:33Z</time>
      </trkpt>
      <trkpt lat="39.0416870" lon="1.3360240">
        <ele>195.6</ele>
        <time>2020-02-22T11:06:34Z</time>
      </trkpt>
      <trkpt lat="39.0417010" lon="1.3360230">
        <ele>195.6</ele>
        <time>2020-02-22T11:06:35Z</time>
      </trkpt>
      <trkpt lat="39.0417300" lon="1.3360380">
        <ele>195.7</ele>
        <time>2020-02-22T11:06:36Z</time>
      </trkpt>
      <trkpt lat="39.0417610" lon="1.3360460">
        <ele>196.0</ele>
        <time>2020-02-22T11:06:37Z</time>
      </trkpt>
      <trkpt lat="39.0417960" lon="1.3360560">
        <ele>196.1</ele>
        <time>2020-02-22T11:06:38Z</time>
      </trkpt>
      <trkpt lat="39.0418320" lon="1.3360590">
        <ele>196.2</ele>
        <time>2020-02-22T11:06:39Z</time>
      </trkpt>
      <trkpt lat="39.0418720" lon="1.3360580">
        <ele>196.4</ele>
        <time>2020-02-22T11:06:40Z</time>
      </trkpt>
      <trkpt lat="39.0419040" lon="1.3360570">
        <ele>196.6</ele>
        <time>2020-02-22T11:06:41Z</time>
      </trkpt>
      <trkpt lat="39.0419350" lon="1.3360580">
        <ele>196.8</ele>
        <time>2020-02-22T11:06:42Z</time>
      </trkpt>
      <trkpt lat="39.0419720" lon="1.3360570">
        <ele>197.0</ele>
        <time>2020-02-22T11:06:43Z</time>
      </trkpt>
      <trkpt lat="39.0419840" lon="1.3360600">
        <ele>197.0</ele>
        <time>2020-02-22T11:06:44Z</time>
      </trkpt>
      <trkpt lat="39.0420200" lon="1.3360790">
        <ele>197.4</ele>
        <time>2020-02-22T11:06:45Z</time>
      </trkpt>
      <trkpt lat="39.0420310" lon="1.3360910">
        <ele>197.5</ele>
        <time>2020-02-22T11:06:46Z</time>
      </trkpt>
      <trkpt lat="39.0420610" lon="1.3361180">
        <ele>197.7</ele>
        <time>2020-02-22T11:06:47Z</time>
      </trkpt>
      <trkpt lat="39.0420710" lon="1.3361320">
        <ele>197.7</ele>
        <time>2020-02-22T11:06:48Z</time>
      </trkpt>
      <trkpt lat="39.0420910" lon="1.3361560">
        <ele>198.0</ele>
        <time>2020-02-22T11:06:49Z</time>
      </trkpt>
      <trkpt lat="39.0421130" lon="1.3361930">
        <ele>198.0</ele>
        <time>2020-02-22T11:06:50Z</time>
      </trkpt>
      <trkpt lat="39.0421240" lon="1.3362100">
        <ele>198.3</ele>
        <time>2020-02-22T11:06:51Z</time>
      </trkpt>
      <trkpt lat="39.0421360" lon="1.3362570">
        <ele>198.4</ele>
        <time>2020-02-22T11:06:52Z</time>
      </trkpt>
      <trkpt lat="39.0421360" lon="1.3362740">
        <ele>198.4</ele>
        <time>2020-02-22T11:06:53Z</time>
      </trkpt>
      <trkpt lat="39.0421310" lon="1.3363150">
        <ele>198.5</ele>
        <time>2020-02-22T11:06:54Z</time>
      </trkpt>
      <trkpt lat="39.0421280" lon="1.3363300">
        <ele>198.5</ele>
        <time>2020-02-22T11:06:55Z</time>
      </trkpt>
      <trkpt lat="39.0421320" lon="1.3363780">
        <ele>198.6</ele>
        <time>2020-02-22T11:06:56Z</time>
      </trkpt>
      <trkpt lat="39.0421340" lon="1.3363940">
        <ele>198.7</ele>
        <time>2020-02-22T11:06:57Z</time>
      </trkpt>
      <trkpt lat="39.0421440" lon="1.3364420">
        <ele>198.8</ele>
        <time>2020-02-22T11:06:58Z</time>
      </trkpt>
      <trkpt lat="39.0421480" lon="1.3364610">
        <ele>198.8</ele>
        <time>2020-02-22T11:06:59Z</time>
      </trkpt>
      <trkpt lat="39.0421660" lon="1.3365010">
        <ele>199.1</ele>
        <time>2020-02-22T11:07:00Z</time>
      </trkpt>
      <trkpt lat="39.0421710" lon="1.3365180">
        <ele>199.1</ele>
        <time>2020-02-22T11:07:01Z</time>
      </trkpt>
      <trkpt lat="39.0421810" lon="1.3365600">
        <ele>199.2</ele>
        <time>2020-02-22T11:07:02Z</time>
      </trkpt>
      <trkpt lat="39.0421860" lon="1.3365750">
        <ele>199.2</ele>
        <time>2020-02-22T11:07:03Z</time>
      </trkpt>
      <trkpt lat="39.0421970" lon="1.3366200">
        <ele>199.5</ele>
        <time>2020-02-22T11:07:04Z</time>
      </trkpt>
      <trkpt lat="39.0422010" lon="1.3366340">
        <ele>199.5</ele>
        <time>2020-02-22T11:07:05Z</time>
      </trkpt>
      <trkpt lat="39.0422040" lon="1.3366760">
        <ele>199.3</ele>
        <time>2020-02-22T11:07:06Z</time>
      </trkpt>
      <trkpt lat="39.0422020" lon="1.3366930">
        <ele>199.2</ele>
        <time>2020-02-22T11:07:07Z</time>
      </trkpt>
      <trkpt lat="39.0421920" lon="1.3367450">
        <ele>199.0</ele>
        <time>2020-02-22T11:07:08Z</time>
      </trkpt>
      <trkpt lat="39.0421560" lon="1.3367900">
        <ele>198.8</ele>
        <time>2020-02-22T11:07:09Z</time>
      </trkpt>
      <trkpt lat="39.0421190" lon="1.3368300">
        <ele>198.7</ele>
        <time>2020-02-22T11:07:10Z</time>
      </trkpt>
      <trkpt lat="39.0420840" lon="1.3368630">
        <ele>198.6</ele>
        <time>2020-02-22T11:07:11Z</time>
      </trkpt>
      <trkpt lat="39.0420540" lon="1.3369070">
        <ele>198.5</ele>
        <time>2020-02-22T11:07:12Z</time>
      </trkpt>
      <trkpt lat="39.0420240" lon="1.3369480">
        <ele>198.3</ele>
        <time>2020-02-22T11:07:13Z</time>
      </trkpt>
      <trkpt lat="39.0419920" lon="1.3369780">
        <ele>198.2</ele>
        <time>2020-02-22T11:07:14Z</time>
      </trkpt>
      <trkpt lat="39.0419620" lon="1.3370160">
        <ele>198.1</ele>
        <time>2020-02-22T11:07:15Z</time>
      </trkpt>
      <trkpt lat="39.0419410" lon="1.3370480">
        <ele>198.0</ele>
        <time>2020-02-22T11:07:16Z</time>
      </trkpt>
      <trkpt lat="39.0419180" lon="1.3370730">
        <ele>198.0</ele>
        <time>2020-02-22T11:07:17Z</time>
      </trkpt>
      <trkpt lat="39.0418930" lon="1.3371000">
        <ele>198.0</ele>
        <time>2020-02-22T11:07:18Z</time>
      </trkpt>
      <trkpt lat="39.0418750" lon="1.3371290">
        <ele>197.9</ele>
        <time>2020-02-22T11:07:19Z</time>
      </trkpt>
      <trkpt lat="39.0418590" lon="1.3371570">
        <ele>197.9</ele>
        <time>2020-02-22T11:07:20Z</time>
      </trkpt>
      <trkpt lat="39.0418440" lon="1.3371980">
        <ele>198.0</ele>
        <time>2020-02-22T11:07:21Z</time>
      </trkpt>
      <trkpt lat="39.0418330" lon="1.3372440">
        <ele>198.1</ele>
        <time>2020-02-22T11:07:22Z</time>
      </trkpt>
      <trkpt lat="39.0418360" lon="1.3372810">
        <ele>198.1</ele>
        <time>2020-02-22T11:07:23Z</time>
      </trkpt>
      <trkpt lat="39.0418500" lon="1.3373120">
        <ele>198.2</ele>
        <time>2020-02-22T11:07:24Z</time>
      </trkpt>
      <trkpt lat="39.0418770" lon="1.3373320">
        <ele>198.3</ele>
        <time>2020-02-22T11:07:25Z</time>
      </trkpt>
      <trkpt lat="39.0419070" lon="1.3373520">
        <ele>198.5</ele>
        <time>2020-02-22T11:07:26Z</time>
      </trkpt>
      <trkpt lat="39.0419360" lon="1.3373820">
        <ele>198.6</ele>
        <time>2020-02-22T11:07:27Z</time>
      </trkpt>
      <trkpt lat="39.0419510" lon="1.3374140">
        <ele>198.7</ele>
        <time>2020-02-22T11:07:28Z</time>
      </trkpt>
      <trkpt lat="39.0419580" lon="1.3374490">
        <ele>198.9</ele>
        <time>2020-02-22T11:07:29Z</time>
      </trkpt>
      <trkpt lat="39.0419270" lon="1.3374770">
        <ele>199.0</ele>
        <time>2020-02-22T11:07:30Z</time>
      </trkpt>
      <trkpt lat="39.0419120" lon="1.3374860">
        <ele>199.1</ele>
        <time>2020-02-22T11:07:31Z</time>
      </trkpt>
      <trkpt lat="39.0418760" lon="1.3374920">
        <ele>199.3</ele>
        <time>2020-02-22T11:07:32Z</time>
      </trkpt>
      <trkpt lat="39.0418610" lon="1.3374890">
        <ele>199.4</ele>
        <time>2020-02-22T11:07:33Z</time>
      </trkpt>
      <trkpt lat="39.0418270" lon="1.3374840">
        <ele>199.7</ele>
        <time>2020-02-22T11:07:34Z</time>
      </trkpt>
      <trkpt lat="39.0418140" lon="1.3374790">
        <ele>199.8</ele>
        <time>2020-02-22T11:07:35Z</time>
      </trkpt>
      <trkpt lat="39.0417780" lon="1.3374760">
        <ele>200.1</ele>
        <time>2020-02-22T11:07:36Z</time>
      </trkpt>
      <trkpt lat="39.0417660" lon="1.3374760">
        <ele>200.2</ele>
        <time>2020-02-22T11:07:37Z</time>
      </trkpt>
      <trkpt lat="39.0417300" lon="1.3374680">
        <ele>200.6</ele>
        <time>2020-02-22T11:07:38Z</time>
      </trkpt>
      <trkpt lat="39.0417140" lon="1.3374650">
        <ele>200.7</ele>
        <time>2020-02-22T11:07:39Z</time>
      </trkpt>
      <trkpt lat="39.0416740" lon="1.3374600">
        <ele>200.9</ele>
        <time>2020-02-22T11:07:40Z</time>
      </trkpt>
      <trkpt lat="39.0416590" lon="1.3374580">
        <ele>201.0</ele>
        <time>2020-02-22T11:07:41Z</time>
      </trkpt>
      <trkpt lat="39.0416270" lon="1.3374370">
        <ele>201.2</ele>
        <time>2020-02-22T11:07:42Z</time>
      </trkpt>
      <trkpt lat="39.0415910" lon="1.3374150">
        <ele>201.4</ele>
        <time>2020-02-22T11:07:43Z</time>
      </trkpt>
      <trkpt lat="39.0415630" lon="1.3373910">
        <ele>201.5</ele>
        <time>2020-02-22T11:07:44Z</time>
      </trkpt>
      <trkpt lat="39.0415320" lon="1.3373710">
        <ele>201.6</ele>
        <time>2020-02-22T11:07:45Z</time>
      </trkpt>
      <trkpt lat="39.0415030" lon="1.3373540">
        <ele>201.7</ele>
        <time>2020-02-22T11:07:46Z</time>
      </trkpt>
      <trkpt lat="39.0414750" lon="1.3373470">
        <ele>201.8</ele>
        <time>2020-02-22T11:07:47Z</time>
      </trkpt>
      <trkpt lat="39.0414330" lon="1.3373350">
        <ele>201.9</ele>
        <time>2020-02-22T11:07:48Z</time>
      </trkpt>
      <trkpt lat="39.0414140" lon="1.3373270">
        <ele>201.9</ele>
        <time>2020-02-22T11:07:49Z</time>
      </trkpt>
      <trkpt lat="39.0413820" lon="1.3373150">
        <ele>202.0</ele>
        <time>2020-02-22T11:07:50Z</time>
      </trkpt>
      <trkpt lat="39.0413500" lon="1.3373030">
        <ele>202.1</ele>
        <time>2020-02-22T11:07:51Z</time>
      </trkpt>
      <trkpt lat="39.0413370" lon="1.3372940">
        <ele>202.2</ele>
        <time>2020-02-22T11:07:52Z</time>
      </trkpt>
      <trkpt lat="39.0413090" lon="1.3372760">
        <ele>202.3</ele>
        <time>2020-02-22T11:07:53Z</time>
      </trkpt>
      <trkpt lat="39.0412820" lon="1.3372460">
        <ele>202.3</ele>
        <time>2020-02-22T11:07:54Z</time>
      </trkpt>
      <trkpt lat="39.0412520" lon="1.3372140">
        <ele>202.4</ele>
        <time>2020-02-22T11:07:55Z</time>
      </trkpt>
      <trkpt lat="39.0412230" lon="1.3371790">
        <ele>202.4</ele>
        <time>2020-02-22T11:07:56Z</time>
      </trkpt>
      <trkpt lat="39.0411970" lon="1.3371370">
        <ele>202.5</ele>
        <time>2020-02-22T11:07:57Z</time>
      </trkpt>
      <trkpt lat="39.0411590" lon="1.3371100">
        <ele>202.5</ele>
        <time>2020-02-22T11:07:58Z</time>
      </trkpt>
      <trkpt lat="39.0411200" lon="1.3370810">
        <ele>202.6</ele>
        <time>2020-02-22T11:07:59Z</time>
      </trkpt>
      <trkpt lat="39.0410870" lon="1.3370490">
        <ele>202.7</ele>
        <time>2020-02-22T11:08:00Z</time>
      </trkpt>
      <trkpt lat="39.0410580" lon="1.3370220">
        <ele>202.7</ele>
        <time>2020-02-22T11:08:01Z</time>
      </trkpt>
      <trkpt lat="39.0410280" lon="1.3369970">
        <ele>202.7</ele>
        <time>2020-02-22T11:08:02Z</time>
      </trkpt>
      <trkpt lat="39.0409960" lon="1.3369780">
        <ele>202.7</ele>
        <time>2020-02-22T11:08:03Z</time>
      </trkpt>
      <trkpt lat="39.0409600" lon="1.3369550">
        <ele>202.7</ele>
        <time>2020-02-22T11:08:04Z</time>
      </trkpt>
      <trkpt lat="39.0409250" lon="1.3369370">
        <ele>202.7</ele>
        <time>2020-02-22T11:08:05Z</time>
      </trkpt>
      <trkpt lat="39.0408940" lon="1.3369090">
        <ele>202.7</ele>
        <time>2020-02-22T11:08:06Z</time>
      </trkpt>
      <trkpt lat="39.0408770" lon="1.3368970">
        <ele>202.7</ele>
        <time>2020-02-22T11:08:07Z</time>
      </trkpt>
      <trkpt lat="39.0408430" lon="1.3368750">
        <ele>202.6</ele>
        <time>2020-02-22T11:08:08Z</time>
      </trkpt>
      <trkpt lat="39.0408320" lon="1.3368690">
        <ele>202.6</ele>
        <time>2020-02-22T11:08:09Z</time>
      </trkpt>
      <trkpt lat="39.0408050" lon="1.3368440">
        <ele>202.6</ele>
        <time>2020-02-22T11:08:10Z</time>
      </trkpt>
      <trkpt lat="39.0407780" lon="1.3368270">
        <ele>202.6</ele>
        <time>2020-02-22T11:08:11Z</time>
      </trkpt>
      <trkpt lat="39.0407500" lon="1.3367970">
        <ele>202.5</ele>
        <time>2020-02-22T11:08:12Z</time>
      </trkpt>
      <trkpt lat="39.0407240" lon="1.3367710">
        <ele>202.5</ele>
        <time>2020-02-22T11:08:13Z</time>
      </trkpt>
      <trkpt lat="39.0406930" lon="1.3367520">
        <ele>202.5</ele>
        <time>2020-02-22T11:08:14Z</time>
      </trkpt>
      <trkpt lat="39.0406640" lon="1.3367360">
        <ele>202.4</ele>
        <time>2020-02-22T11:08:15Z</time>
      </trkpt>
      <trkpt lat="39.0406280" lon="1.3367290">
        <ele>202.4</ele>
        <time>2020-02-22T11:08:16Z</time>
      </trkpt>
      <trkpt lat="39.0406010" lon="1.3367260">
        <ele>202.4</ele>
        <time>2020-02-22T11:08:17Z</time>
      </trkpt>
      <trkpt lat="39.0405580" lon="1.3367360">
        <ele>202.3</ele>
        <time>2020-02-22T11:08:18Z</time>
      </trkpt>
      <trkpt lat="39.0405240" lon="1.3367650">
        <ele>202.3</ele>
        <time>2020-02-22T11:08:19Z</time>
      </trkpt>
      <trkpt lat="39.0405010" lon="1.3367870">
        <ele>202.2</ele>
        <time>2020-02-22T11:08:20Z</time>
      </trkpt>
      <trkpt lat="39.0404830" lon="1.3368120">
        <ele>202.2</ele>
        <time>2020-02-22T11:08:21Z</time>
      </trkpt>
      <trkpt lat="39.0404560" lon="1.3368420">
        <ele>202.2</ele>
        <time>2020-02-22T11:08:22Z</time>
      </trkpt>
      <trkpt lat="39.0404320" lon="1.3368700">
        <ele>202.2</ele>
        <time>2020-02-22T11:08:23Z</time>
      </trkpt>
      <trkpt lat="39.0404020" lon="1.3369020">
        <ele>202.2</ele>
        <time>2020-02-22T11:08:24Z</time>
      </trkpt>
      <trkpt lat="39.0403910" lon="1.3369120">
        <ele>202.2</ele>
        <time>2020-02-22T11:08:25Z</time>
      </trkpt>
      <trkpt lat="39.0403660" lon="1.3369430">
        <ele>202.2</ele>
        <time>2020-02-22T11:08:26Z</time>
      </trkpt>
      <trkpt lat="39.0403470" lon="1.3369740">
        <ele>202.2</ele>
        <time>2020-02-22T11:08:27Z</time>
      </trkpt>
      <trkpt lat="39.0403340" lon="1.3370140">
        <ele>202.2</ele>
        <time>2020-02-22T11:08:28Z</time>
      </trkpt>
      <trkpt lat="39.0403300" lon="1.3370500">
        <ele>202.2</ele>
        <time>2020-02-22T11:08:29Z</time>
      </trkpt>
      <trkpt lat="39.0403170" lon="1.3371090">
        <ele>202.2</ele>
        <time>2020-02-22T11:08:30Z</time>
      </trkpt>
      <trkpt lat="39.0403120" lon="1.3371570">
        <ele>202.3</ele>
        <time>2020-02-22T11:08:31Z</time>
      </trkpt>
      <trkpt lat="39.0403010" lon="1.3372140">
        <ele>202.3</ele>
        <time>2020-02-22T11:08:32Z</time>
      </trkpt>
      <trkpt lat="39.0402870" lon="1.3372750">
        <ele>202.3</ele>
        <time>2020-02-22T11:08:33Z</time>
      </trkpt>
      <trkpt lat="39.0402770" lon="1.3373260">
        <ele>202.2</ele>
        <time>2020-02-22T11:08:34Z</time>
      </trkpt>
      <trkpt lat="39.0402550" lon="1.3373870">
        <ele>202.2</ele>
        <time>2020-02-22T11:08:35Z</time>
      </trkpt>
      <trkpt lat="39.0402240" lon="1.3374550">
        <ele>202.2</ele>
        <time>2020-02-22T11:08:36Z</time>
      </trkpt>
      <trkpt lat="39.0401830" lon="1.3375230">
        <ele>202.0</ele>
        <time>2020-02-22T11:08:37Z</time>
      </trkpt>
      <trkpt lat="39.0401370" lon="1.3375810">
        <ele>201.8</ele>
        <time>2020-02-22T11:08:38Z</time>
      </trkpt>
      <trkpt lat="39.0400820" lon="1.3376520">
        <ele>201.5</ele>
        <time>2020-02-22T11:08:39Z</time>
      </trkpt>
      <trkpt lat="39.0400400" lon="1.3377320">
        <ele>201.2</ele>
        <time>2020-02-22T11:08:40Z</time>
      </trkpt>
      <trkpt lat="39.0400090" lon="1.3378050">
        <ele>200.9</ele>
        <time>2020-02-22T11:08:41Z</time>
      </trkpt>
      <trkpt lat="39.0399880" lon="1.3378890">
        <ele>200.5</ele>
        <time>2020-02-22T11:08:42Z</time>
      </trkpt>
      <trkpt lat="39.0399750" lon="1.3379830">
        <ele>200.0</ele>
        <time>2020-02-22T11:08:43Z</time>
      </trkpt>
      <trkpt lat="39.0399720" lon="1.3380720">
        <ele>199.4</ele>
        <time>2020-02-22T11:08:44Z</time>
      </trkpt>
      <trkpt lat="39.0399580" lon="1.3381460">
        <ele>199.0</ele>
        <time>2020-02-22T11:08:45Z</time>
      </trkpt>
      <trkpt lat="39.0399380" lon="1.3382130">
        <ele>198.6</ele>
        <time>2020-02-22T11:08:46Z</time>
      </trkpt>
      <trkpt lat="39.0399190" lon="1.3382720">
        <ele>198.1</ele>
        <time>2020-02-22T11:08:47Z</time>
      </trkpt>
      <trkpt lat="39.0398930" lon="1.3383390">
        <ele>197.4</ele>
        <time>2020-02-22T11:08:48Z</time>
      </trkpt>
      <trkpt lat="39.0398730" lon="1.3384010">
        <ele>196.8</ele>
        <time>2020-02-22T11:08:49Z</time>
      </trkpt>
      <trkpt lat="39.0398530" lon="1.3384780">
        <ele>196.2</ele>
        <time>2020-02-22T11:08:50Z</time>
      </trkpt>
      <trkpt lat="39.0398260" lon="1.3385540">
        <ele>195.5</ele>
        <time>2020-02-22T11:08:51Z</time>
      </trkpt>
      <trkpt lat="39.0398120" lon="1.3386220">
        <ele>194.8</ele>
        <time>2020-02-22T11:08:52Z</time>
      </trkpt>
      <trkpt lat="39.0398170" lon="1.3386850">
        <ele>194.0</ele>
        <time>2020-02-22T11:08:53Z</time>
      </trkpt>
      <trkpt lat="39.0398350" lon="1.3387470">
        <ele>193.1</ele>
        <time>2020-02-22T11:08:54Z</time>
      </trkpt>
      <trkpt lat="39.0398430" lon="1.3387890">
        <ele>192.6</ele>
        <time>2020-02-22T11:08:55Z</time>
      </trkpt>
      <trkpt lat="39.0398400" lon="1.3388270">
        <ele>192.2</ele>
        <time>2020-02-22T11:08:56Z</time>
      </trkpt>
      <trkpt lat="39.0398230" lon="1.3388690">
        <ele>191.6</ele>
        <time>2020-02-22T11:08:57Z</time>
      </trkpt>
      <trkpt lat="39.0398140" lon="1.3388780">
        <ele>191.4</ele>
        <time>2020-02-22T11:08:58Z</time>
      </trkpt>
      <trkpt lat="39.0397820" lon="1.3389290">
        <ele>190.5</ele>
        <time>2020-02-22T11:08:59Z</time>
      </trkpt>
      <trkpt lat="39.0397970" lon="1.3389850">
        <ele>191.0</ele>
        <time>2020-02-22T11:09:00Z</time>
      </trkpt>
      <trkpt lat="39.0398070" lon="1.3390080">
        <ele>191.2</ele>
        <time>2020-02-22T11:09:01Z</time>
      </trkpt>
      <trkpt lat="39.0398310" lon="1.3390460">
        <ele>191.5</ele>
        <time>2020-02-22T11:09:02Z</time>
      </trkpt>
      <trkpt lat="39.0398520" lon="1.3390830">
        <ele>191.8</ele>
        <time>2020-02-22T11:09:03Z</time>
      </trkpt>
      <trkpt lat="39.0398670" lon="1.3391190">
        <ele>192.0</ele>
        <time>2020-02-22T11:09:04Z</time>
      </trkpt>
      <trkpt lat="39.0398790" lon="1.3391520">
        <ele>192.2</ele>
        <time>2020-02-22T11:09:05Z</time>
      </trkpt>
      <trkpt lat="39.0399040" lon="1.3391870">
        <ele>192.6</ele>
        <time>2020-02-22T11:09:06Z</time>
      </trkpt>
      <trkpt lat="39.0399120" lon="1.3392020">
        <ele>192.7</ele>
        <time>2020-02-22T11:09:07Z</time>
      </trkpt>
      <trkpt lat="39.0399270" lon="1.3392370">
        <ele>193.0</ele>
        <time>2020-02-22T11:09:08Z</time>
      </trkpt>
      <trkpt lat="39.0399410" lon="1.3392760">
        <ele>193.3</ele>
        <time>2020-02-22T11:09:09Z</time>
      </trkpt>
      <trkpt lat="39.0399630" lon="1.3393180">
        <ele>193.6</ele>
        <time>2020-02-22T11:09:10Z</time>
      </trkpt>
      <trkpt lat="39.0399830" lon="1.3393530">
        <ele>193.9</ele>
        <time>2020-02-22T11:09:11Z</time>
      </trkpt>
      <trkpt lat="39.0400010" lon="1.3393860">
        <ele>194.2</ele>
        <time>2020-02-22T11:09:12Z</time>
      </trkpt>
      <trkpt lat="39.0400240" lon="1.3394080">
        <ele>194.5</ele>
        <time>2020-02-22T11:09:13Z</time>
      </trkpt>
      <trkpt lat="39.0400480" lon="1.3394330">
        <ele>194.8</ele>
        <time>2020-02-22T11:09:14Z</time>
      </trkpt>
      <trkpt lat="39.0400800" lon="1.3394570">
        <ele>195.2</ele>
        <time>2020-02-22T11:09:15Z</time>
      </trkpt>
      <trkpt lat="39.0401130" lon="1.3394770">
        <ele>195.6</ele>
        <time>2020-02-22T11:09:16Z</time>
      </trkpt>
      <trkpt lat="39.0401360" lon="1.3395050">
        <ele>195.9</ele>
        <time>2020-02-22T11:09:17Z</time>
      </trkpt>
      <trkpt lat="39.0401560" lon="1.3395310">
        <ele>196.1</ele>
        <time>2020-02-22T11:09:18Z</time>
      </trkpt>
      <trkpt lat="39.0401860" lon="1.3395430">
        <ele>196.4</ele>
        <time>2020-02-22T11:09:19Z</time>
      </trkpt>
      <trkpt lat="39.0401990" lon="1.3395520">
        <ele>196.5</ele>
        <time>2020-02-22T11:09:20Z</time>
      </trkpt>
      <trkpt lat="39.0402280" lon="1.3395660">
        <ele>196.8</ele>
        <time>2020-02-22T11:09:21Z</time>
      </trkpt>
      <trkpt lat="39.0402540" lon="1.3395800">
        <ele>197.1</ele>
        <time>2020-02-22T11:09:22Z</time>
      </trkpt>
      <trkpt lat="39.0402850" lon="1.3396000">
        <ele>197.3</ele>
        <time>2020-02-22T11:09:23Z</time>
      </trkpt>
      <trkpt lat="39.0402950" lon="1.3396090">
        <ele>197.4</ele>
        <time>2020-02-22T11:09:24Z</time>
      </trkpt>
      <trkpt lat="39.0403190" lon="1.3396380">
        <ele>197.7</ele>
        <time>2020-02-22T11:09:25Z</time>
      </trkpt>
      <trkpt lat="39.0403270" lon="1.3396490">
        <ele>197.7</ele>
        <time>2020-02-22T11:09:26Z</time>
      </trkpt>
      <trkpt lat="39.0403570" lon="1.3396940">
        <ele>198.0</ele>
        <time>2020-02-22T11:09:27Z</time>
      </trkpt>
      <trkpt lat="39.0403670" lon="1.3397160">
        <ele>198.1</ele>
        <time>2020-02-22T11:09:28Z</time>
      </trkpt>
      <trkpt lat="39.0403870" lon="1.3397480">
        <ele>198.3</ele>
        <time>2020-02-22T11:09:29Z</time>
      </trkpt>
      <trkpt lat="39.0404140" lon="1.3397850">
        <ele>198.5</ele>
        <time>2020-02-22T11:09:30Z</time>
      </trkpt>
      <trkpt lat="39.0404230" lon="1.3397950">
        <ele>198.6</ele>
        <time>2020-02-22T11:09:31Z</time>
      </trkpt>
      <trkpt lat="39.0404450" lon="1.3398230">
        <ele>198.7</ele>
        <time>2020-02-22T11:09:32Z</time>
      </trkpt>
      <trkpt lat="39.0404600" lon="1.3398520">
        <ele>198.8</ele>
        <time>2020-02-22T11:09:33Z</time>
      </trkpt>
      <trkpt lat="39.0404790" lon="1.3398850">
        <ele>199.0</ele>
        <time>2020-02-22T11:09:34Z</time>
      </trkpt>
      <trkpt lat="39.0404930" lon="1.3399170">
        <ele>199.1</ele>
        <time>2020-02-22T11:09:35Z</time>
      </trkpt>
      <trkpt lat="39.0405140" lon="1.3399600">
        <ele>199.2</ele>
        <time>2020-02-22T11:09:36Z</time>
      </trkpt>
      <trkpt lat="39.0405210" lon="1.3399790">
        <ele>199.3</ele>
        <time>2020-02-22T11:09:37Z</time>
      </trkpt>
      <trkpt lat="39.0405530" lon="1.3400060">
        <ele>199.5</ele>
        <time>2020-02-22T11:09:38Z</time>
      </trkpt>
      <trkpt lat="39.0405600" lon="1.3400210">
        <ele>199.5</ele>
        <time>2020-02-22T11:09:39Z</time>
      </trkpt>
      <trkpt lat="39.0405770" lon="1.3400540">
        <ele>199.6</ele>
        <time>2020-02-22T11:09:40Z</time>
      </trkpt>
      <trkpt lat="39.0405900" lon="1.3400970">
        <ele>199.8</ele>
        <time>2020-02-22T11:09:41Z</time>
      </trkpt>
      <trkpt lat="39.0405940" lon="1.3401120">
        <ele>199.8</ele>
        <time>2020-02-22T11:09:42Z</time>
      </trkpt>
      <trkpt lat="39.0406160" lon="1.3401460">
        <ele>200.0</ele>
        <time>2020-02-22T11:09:43Z</time>
      </trkpt>
      <trkpt lat="39.0406240" lon="1.3401560">
        <ele>200.0</ele>
        <time>2020-02-22T11:09:44Z</time>
      </trkpt>
      <trkpt lat="39.0406380" lon="1.3401920">
        <ele>200.1</ele>
        <time>2020-02-22T11:09:45Z</time>
      </trkpt>
      <trkpt lat="39.0406550" lon="1.3402340">
        <ele>200.3</ele>
        <time>2020-02-22T11:09:46Z</time>
      </trkpt>
      <trkpt lat="39.0406610" lon="1.3402460">
        <ele>200.3</ele>
        <time>2020-02-22T11:09:47Z</time>
      </trkpt>
      <trkpt lat="39.0406600" lon="1.3402680">
        <ele>200.4</ele>
        <time>2020-02-22T11:09:48Z</time>
      </trkpt>
      <trkpt lat="39.0406690" lon="1.3402890">
        <ele>200.5</ele>
        <time>2020-02-22T11:09:49Z</time>
      </trkpt>
      <trkpt lat="39.0406870" lon="1.3403220">
        <ele>200.6</ele>
        <time>2020-02-22T11:09:50Z</time>
      </trkpt>
      <trkpt lat="39.0406910" lon="1.3403340">
        <ele>200.6</ele>
        <time>2020-02-22T11:09:51Z</time>
      </trkpt>
      <trkpt lat="39.0406950" lon="1.3403770">
        <ele>200.8</ele>
        <time>2020-02-22T11:09:52Z</time>
      </trkpt>
      <trkpt lat="39.0406950" lon="1.3403910">
        <ele>200.8</ele>
        <time>2020-02-22T11:09:53Z</time>
      </trkpt>
      <trkpt lat="39.0406990" lon="1.3404310">
        <ele>201.0</ele>
        <time>2020-02-22T11:09:54Z</time>
      </trkpt>
      <trkpt lat="39.0406990" lon="1.3404470">
        <ele>201.0</ele>
        <time>2020-02-22T11:09:55Z</time>
      </trkpt>
      <trkpt lat="39.0407080" lon="1.3404800">
        <ele>201.1</ele>
        <time>2020-02-22T11:09:56Z</time>
      </trkpt>
      <trkpt lat="39.0407060" lon="1.3405190">
        <ele>201.3</ele>
        <time>2020-02-22T11:09:57Z</time>
      </trkpt>
      <trkpt lat="39.0407080" lon="1.3405370">
        <ele>201.3</ele>
        <time>2020-02-22T11:09:58Z</time>
      </trkpt>
      <trkpt lat="39.0406970" lon="1.3405670">
        <ele>201.4</ele>
        <time>2020-02-22T11:09:59Z</time>
      </trkpt>
      <trkpt lat="39.0406930" lon="1.3405800">
        <ele>201.5</ele>
        <time>2020-02-22T11:10:00Z</time>
      </trkpt>
      <trkpt lat="39.0406870" lon="1.3406100">
        <ele>201.6</ele>
        <time>2020-02-22T11:10:01Z</time>
      </trkpt>
      <trkpt lat="39.0406840" lon="1.3406280">
        <ele>201.7</ele>
        <time>2020-02-22T11:10:02Z</time>
      </trkpt>
      <trkpt lat="39.0406790" lon="1.3406760">
        <ele>201.8</ele>
        <time>2020-02-22T11:10:03Z</time>
      </trkpt>
      <trkpt lat="39.0406770" lon="1.3406920">
        <ele>201.9</ele>
        <time>2020-02-22T11:10:04Z</time>
      </trkpt>
      <trkpt lat="39.0406790" lon="1.3407170">
        <ele>202.0</ele>
        <time>2020-02-22T11:10:05Z</time>
      </trkpt>
      <trkpt lat="39.0406900" lon="1.3407310">
        <ele>202.1</ele>
        <time>2020-02-22T11:10:06Z</time>
      </trkpt>
      <trkpt lat="39.0406990" lon="1.3407670">
        <ele>202.2</ele>
        <time>2020-02-22T11:10:07Z</time>
      </trkpt>
      <trkpt lat="39.0407010" lon="1.3407820">
        <ele>202.3</ele>
        <time>2020-02-22T11:10:08Z</time>
      </trkpt>
      <trkpt lat="39.0407040" lon="1.3408270">
        <ele>202.5</ele>
        <time>2020-02-22T11:10:09Z</time>
      </trkpt>
      <trkpt lat="39.0407030" lon="1.3408410">
        <ele>202.6</ele>
        <time>2020-02-22T11:10:10Z</time>
      </trkpt>
      <trkpt lat="39.0407110" lon="1.3408790">
        <ele>202.7</ele>
        <time>2020-02-22T11:10:11Z</time>
      </trkpt>
      <trkpt lat="39.0407120" lon="1.3409250">
        <ele>202.9</ele>
        <time>2020-02-22T11:10:12Z</time>
      </trkpt>
      <trkpt lat="39.0407120" lon="1.3409410">
        <ele>203.0</ele>
        <time>2020-02-22T11:10:13Z</time>
      </trkpt>
      <trkpt lat="39.0407170" lon="1.3409800">
        <ele>203.2</ele>
        <time>2020-02-22T11:10:14Z</time>
      </trkpt>
      <trkpt lat="39.0407210" lon="1.3409930">
        <ele>203.3</ele>
        <time>2020-02-22T11:10:15Z</time>
      </trkpt>
      <trkpt lat="39.0407330" lon="1.3410330">
        <ele>203.5</ele>
        <time>2020-02-22T11:10:16Z</time>
      </trkpt>
      <trkpt lat="39.0407370" lon="1.3410500">
        <ele>203.6</ele>
        <time>2020-02-22T11:10:17Z</time>
      </trkpt>
      <trkpt lat="39.0407470" lon="1.3410960">
        <ele>203.8</ele>
        <time>2020-02-22T11:10:18Z</time>
      </trkpt>
      <trkpt lat="39.0407500" lon="1.3411110">
        <ele>203.9</ele>
        <time>2020-02-22T11:10:19Z</time>
      </trkpt>
      <trkpt lat="39.0407580" lon="1.3411450">
        <ele>204.0</ele>
        <time>2020-02-22T11:10:20Z</time>
      </trkpt>
      <trkpt lat="39.0407660" lon="1.3411800">
        <ele>204.2</ele>
        <time>2020-02-22T11:10:21Z</time>
      </trkpt>
      <trkpt lat="39.0407760" lon="1.3412250">
        <ele>204.4</ele>
        <time>2020-02-22T11:10:22Z</time>
      </trkpt>
      <trkpt lat="39.0407780" lon="1.3412420">
        <ele>204.5</ele>
        <time>2020-02-22T11:10:23Z</time>
      </trkpt>
      <trkpt lat="39.0407910" lon="1.3412890">
        <ele>204.7</ele>
        <time>2020-02-22T11:10:24Z</time>
      </trkpt>
      <trkpt lat="39.0407970" lon="1.3413060">
        <ele>204.8</ele>
        <time>2020-02-22T11:10:25Z</time>
      </trkpt>
      <trkpt lat="39.0408080" lon="1.3413380">
        <ele>205.0</ele>
        <time>2020-02-22T11:10:26Z</time>
      </trkpt>
      <trkpt lat="39.0408180" lon="1.3413830">
        <ele>205.2</ele>
        <time>2020-02-22T11:10:27Z</time>
      </trkpt>
      <trkpt lat="39.0408220" lon="1.3414000">
        <ele>205.2</ele>
        <time>2020-02-22T11:10:28Z</time>
      </trkpt>
      <trkpt lat="39.0408350" lon="1.3414320">
        <ele>205.4</ele>
        <time>2020-02-22T11:10:29Z</time>
      </trkpt>
      <trkpt lat="39.0408600" lon="1.3414720">
        <ele>205.6</ele>
        <time>2020-02-22T11:10:30Z</time>
      </trkpt>
      <trkpt lat="39.0408670" lon="1.3414870">
        <ele>205.6</ele>
        <time>2020-02-22T11:10:31Z</time>
      </trkpt>
      <trkpt lat="39.0408840" lon="1.3415300">
        <ele>205.8</ele>
        <time>2020-02-22T11:10:32Z</time>
      </trkpt>
      <trkpt lat="39.0408910" lon="1.3415430">
        <ele>205.9</ele>
        <time>2020-02-22T11:10:33Z</time>
      </trkpt>
      <trkpt lat="39.0409070" lon="1.3415750">
        <ele>206.0</ele>
        <time>2020-02-22T11:10:34Z</time>
      </trkpt>
      <trkpt lat="39.0409220" lon="1.3416080">
        <ele>206.1</ele>
        <time>2020-02-22T11:10:35Z</time>
      </trkpt>
      <trkpt lat="39.0409380" lon="1.3416570">
        <ele>206.3</ele>
        <time>2020-02-22T11:10:36Z</time>
      </trkpt>
      <trkpt lat="39.0409450" lon="1.3416790">
        <ele>206.3</ele>
        <time>2020-02-22T11:10:37Z</time>
      </trkpt>
      <trkpt lat="39.0409620" lon="1.3417220">
        <ele>206.5</ele>
        <time>2020-02-22T11:10:38Z</time>
      </trkpt>
      <trkpt lat="39.0409660" lon="1.3417360">
        <ele>206.5</ele>
        <time>2020-02-22T11:10:39Z</time>
      </trkpt>
      <trkpt lat="39.0409750" lon="1.3417740">
        <ele>206.6</ele>
        <time>2020-02-22T11:10:40Z</time>
      </trkpt>
      <trkpt lat="39.0409930" lon="1.3418140">
        <ele>206.8</ele>
        <time>2020-02-22T11:10:41Z</time>
      </trkpt>
      <trkpt lat="39.0409980" lon="1.3418260">
        <ele>206.8</ele>
        <time>2020-02-22T11:10:42Z</time>
      </trkpt>
      <trkpt lat="39.0410030" lon="1.3418730">
        <ele>206.9</ele>
        <time>2020-02-22T11:10:43Z</time>
      </trkpt>
      <trkpt lat="39.0410160" lon="1.3419180">
        <ele>207.0</ele>
        <time>2020-02-22T11:10:44Z</time>
      </trkpt>
      <trkpt lat="39.0410220" lon="1.3419310">
        <ele>207.1</ele>
        <time>2020-02-22T11:10:45Z</time>
      </trkpt>
      <trkpt lat="39.0410280" lon="1.3419660">
        <ele>207.1</ele>
        <time>2020-02-22T11:10:46Z</time>
      </trkpt>
      <trkpt lat="39.0410300" lon="1.3419780">
        <ele>207.1</ele>
        <time>2020-02-22T11:10:47Z</time>
      </trkpt>
      <trkpt lat="39.0410420" lon="1.3420210">
        <ele>207.1</ele>
        <time>2020-02-22T11:10:48Z</time>
      </trkpt>
      <trkpt lat="39.0410460" lon="1.3420360">
        <ele>207.1</ele>
        <time>2020-02-22T11:10:49Z</time>
      </trkpt>
      <trkpt lat="39.0410550" lon="1.3420720">
        <ele>207.1</ele>
        <time>2020-02-22T11:10:50Z</time>
      </trkpt>
      <trkpt lat="39.0410730" lon="1.3421220">
        <ele>207.1</ele>
        <time>2020-02-22T11:10:51Z</time>
      </trkpt>
      <trkpt lat="39.0410800" lon="1.3421410">
        <ele>207.1</ele>
        <time>2020-02-22T11:10:52Z</time>
      </trkpt>
      <trkpt lat="39.0410970" lon="1.3421760">
        <ele>207.1</ele>
        <time>2020-02-22T11:10:53Z</time>
      </trkpt>
      <trkpt lat="39.0411150" lon="1.3422090">
        <ele>207.1</ele>
        <time>2020-02-22T11:10:54Z</time>
      </trkpt>
      <trkpt lat="39.0411200" lon="1.3422220">
        <ele>207.1</ele>
        <time>2020-02-22T11:10:55Z</time>
      </trkpt>
      <trkpt lat="39.0411270" lon="1.3422560">
        <ele>207.1</ele>
        <time>2020-02-22T11:10:56Z</time>
      </trkpt>
      <trkpt lat="39.0411360" lon="1.3423080">
        <ele>207.1</ele>
        <time>2020-02-22T11:10:57Z</time>
      </trkpt>
      <trkpt lat="39.0411400" lon="1.3423270">
        <ele>207.1</ele>
        <time>2020-02-22T11:10:58Z</time>
      </trkpt>
      <trkpt lat="39.0411490" lon="1.3423660">
        <ele>207.2</ele>
        <time>2020-02-22T11:10:59Z</time>
      </trkpt>
      <trkpt lat="39.0411540" lon="1.3424020">
        <ele>207.2</ele>
        <time>2020-02-22T11:11:00Z</time>
      </trkpt>
      <trkpt lat="39.0411680" lon="1.3424440">
        <ele>207.2</ele>
        <time>2020-02-22T11:11:01Z</time>
      </trkpt>
      <trkpt lat="39.0411880" lon="1.3424830">
        <ele>207.3</ele>
        <time>2020-02-22T11:11:02Z</time>
      </trkpt>
      <trkpt lat="39.0411950" lon="1.3424960">
        <ele>207.3</ele>
        <time>2020-02-22T11:11:03Z</time>
      </trkpt>
      <trkpt lat="39.0411880" lon="1.3425320">
        <ele>207.4</ele>
        <time>2020-02-22T11:11:04Z</time>
      </trkpt>
      <trkpt lat="39.0411850" lon="1.3425450">
        <ele>207.4</ele>
        <time>2020-02-22T11:11:05Z</time>
      </trkpt>
      <trkpt lat="39.0411800" lon="1.3425890">
        <ele>207.5</ele>
        <time>2020-02-22T11:11:06Z</time>
      </trkpt>
      <trkpt lat="39.0411790" lon="1.3426290">
        <ele>207.5</ele>
        <time>2020-02-22T11:11:07Z</time>
      </trkpt>
      <trkpt lat="39.0411710" lon="1.3426720">
        <ele>207.6</ele>
        <time>2020-02-22T11:11:08Z</time>
      </trkpt>
      <trkpt lat="39.0411670" lon="1.3426820">
        <ele>207.7</ele>
        <time>2020-02-22T11:11:09Z</time>
      </trkpt>
      <trkpt lat="39.0411670" lon="1.3427230">
        <ele>207.7</ele>
        <time>2020-02-22T11:11:10Z</time>
      </trkpt>
      <trkpt lat="39.0411670" lon="1.3427390">
        <ele>207.8</ele>
        <time>2020-02-22T11:11:11Z</time>
      </trkpt>
      <trkpt lat="39.0411700" lon="1.3427770">
        <ele>207.9</ele>
        <time>2020-02-22T11:11:12Z</time>
      </trkpt>
      <trkpt lat="39.0411690" lon="1.3428130">
        <ele>207.9</ele>
        <time>2020-02-22T11:11:13Z</time>
      </trkpt>
      <trkpt lat="39.0411720" lon="1.3428520">
        <ele>208.0</ele>
        <time>2020-02-22T11:11:14Z</time>
      </trkpt>
      <trkpt lat="39.0411670" lon="1.3428970">
        <ele>208.1</ele>
        <time>2020-02-22T11:11:15Z</time>
      </trkpt>
      <trkpt lat="39.0411650" lon="1.3429140">
        <ele>208.2</ele>
        <time>2020-02-22T11:11:16Z</time>
      </trkpt>
      <trkpt lat="39.0411790" lon="1.3429580">
        <ele>208.3</ele>
        <time>2020-02-22T11:11:17Z</time>
      </trkpt>
      <trkpt lat="39.0411820" lon="1.3429740">
        <ele>208.3</ele>
        <time>2020-02-22T11:11:18Z</time>
      </trkpt>
      <trkpt lat="39.0411870" lon="1.3430120">
        <ele>208.4</ele>
        <time>2020-02-22T11:11:19Z</time>
      </trkpt>
      <trkpt lat="39.0411970" lon="1.3430620">
        <ele>208.6</ele>
        <time>2020-02-22T11:11:20Z</time>
      </trkpt>
      <trkpt lat="39.0412070" lon="1.3430840">
        <ele>208.7</ele>
        <time>2020-02-22T11:11:21Z</time>
      </trkpt>
      <trkpt lat="39.0412080" lon="1.3431350">
        <ele>208.8</ele>
        <time>2020-02-22T11:11:22Z</time>
      </trkpt>
      <trkpt lat="39.0412090" lon="1.3431530">
        <ele>208.9</ele>
        <time>2020-02-22T11:11:23Z</time>
      </trkpt>
      <trkpt lat="39.0412180" lon="1.3431870">
        <ele>209.0</ele>
        <time>2020-02-22T11:11:24Z</time>
      </trkpt>
      <trkpt lat="39.0412290" lon="1.3432230">
        <ele>209.1</ele>
        <time>2020-02-22T11:11:25Z</time>
      </trkpt>
      <trkpt lat="39.0412390" lon="1.3432610">
        <ele>209.3</ele>
        <time>2020-02-22T11:11:26Z</time>
      </trkpt>
      <trkpt lat="39.0412390" lon="1.3432750">
        <ele>209.3</ele>
        <time>2020-02-22T11:11:27Z</time>
      </trkpt>
      <trkpt lat="39.0412390" lon="1.3433200">
        <ele>209.5</ele>
        <time>2020-02-22T11:11:28Z</time>
      </trkpt>
      <trkpt lat="39.0412380" lon="1.3433300">
        <ele>209.5</ele>
        <time>2020-02-22T11:11:29Z</time>
      </trkpt>
      <trkpt lat="39.0412410" lon="1.3433740">
        <ele>209.6</ele>
        <time>2020-02-22T11:11:30Z</time>
      </trkpt>
      <trkpt lat="39.0412410" lon="1.3433900">
        <ele>209.7</ele>
        <time>2020-02-22T11:11:31Z</time>
      </trkpt>
      <trkpt lat="39.0412420" lon="1.3434270">
        <ele>209.8</ele>
        <time>2020-02-22T11:11:32Z</time>
      </trkpt>
      <trkpt lat="39.0412420" lon="1.3434700">
        <ele>209.9</ele>
        <time>2020-02-22T11:11:33Z</time>
      </trkpt>
      <trkpt lat="39.0412450" lon="1.3435150">
        <ele>210.0</ele>
        <time>2020-02-22T11:11:34Z</time>
      </trkpt>
      <trkpt lat="39.0412460" lon="1.3435280">
        <ele>210.1</ele>
        <time>2020-02-22T11:11:35Z</time>
      </trkpt>
      <trkpt lat="39.0412470" lon="1.3435650">
        <ele>210.2</ele>
        <time>2020-02-22T11:11:36Z</time>
      </trkpt>
      <trkpt lat="39.0412510" lon="1.3436170">
        <ele>210.3</ele>
        <time>2020-02-22T11:11:37Z</time>
      </trkpt>
      <trkpt lat="39.0412500" lon="1.3436350">
        <ele>210.4</ele>
        <time>2020-02-22T11:11:38Z</time>
      </trkpt>
      <trkpt lat="39.0412460" lon="1.3436760">
        <ele>210.5</ele>
        <time>2020-02-22T11:11:39Z</time>
      </trkpt>
      <trkpt lat="39.0412460" lon="1.3437130">
        <ele>210.6</ele>
        <time>2020-02-22T11:11:40Z</time>
      </trkpt>
      <trkpt lat="39.0412470" lon="1.3437510">
        <ele>210.7</ele>
        <time>2020-02-22T11:11:41Z</time>
      </trkpt>
      <trkpt lat="39.0412460" lon="1.3437980">
        <ele>210.8</ele>
        <time>2020-02-22T11:11:42Z</time>
      </trkpt>
      <trkpt lat="39.0412450" lon="1.3438440">
        <ele>210.9</ele>
        <time>2020-02-22T11:11:43Z</time>
      </trkpt>
      <trkpt lat="39.0412470" lon="1.3438890">
        <ele>211.0</ele>
        <time>2020-02-22T11:11:44Z</time>
      </trkpt>
      <trkpt lat="39.0412490" lon="1.3439300">
        <ele>211.1</ele>
        <time>2020-02-22T11:11:45Z</time>
      </trkpt>
      <trkpt lat="39.0412540" lon="1.3439720">
        <ele>211.2</ele>
        <time>2020-02-22T11:11:46Z</time>
      </trkpt>
      <trkpt lat="39.0412570" lon="1.3440210">
        <ele>211.3</ele>
        <time>2020-02-22T11:11:47Z</time>
      </trkpt>
      <trkpt lat="39.0412560" lon="1.3440670">
        <ele>211.4</ele>
        <time>2020-02-22T11:11:48Z</time>
      </trkpt>
      <trkpt lat="39.0412570" lon="1.3441130">
        <ele>211.6</ele>
        <time>2020-02-22T11:11:49Z</time>
      </trkpt>
      <trkpt lat="39.0412520" lon="1.3441660">
        <ele>211.7</ele>
        <time>2020-02-22T11:11:50Z</time>
      </trkpt>
      <trkpt lat="39.0412460" lon="1.3442150">
        <ele>211.8</ele>
        <time>2020-02-22T11:11:51Z</time>
      </trkpt>
      <trkpt lat="39.0412470" lon="1.3442700">
        <ele>212.0</ele>
        <time>2020-02-22T11:11:52Z</time>
      </trkpt>
      <trkpt lat="39.0412480" lon="1.3443220">
        <ele>212.1</ele>
        <time>2020-02-22T11:11:53Z</time>
      </trkpt>
      <trkpt lat="39.0412500" lon="1.3443740">
        <ele>212.2</ele>
        <time>2020-02-22T11:11:54Z</time>
      </trkpt>
      <trkpt lat="39.0412530" lon="1.3444240">
        <ele>212.3</ele>
        <time>2020-02-22T11:11:55Z</time>
      </trkpt>
      <trkpt lat="39.0412600" lon="1.3444850">
        <ele>212.5</ele>
        <time>2020-02-22T11:11:56Z</time>
      </trkpt>
      <trkpt lat="39.0412590" lon="1.3445530">
        <ele>212.6</ele>
        <time>2020-02-22T11:11:57Z</time>
      </trkpt>
      <trkpt lat="39.0412580" lon="1.3446260">
        <ele>212.8</ele>
        <time>2020-02-22T11:11:58Z</time>
      </trkpt>
      <trkpt lat="39.0412540" lon="1.3446890">
        <ele>212.9</ele>
        <time>2020-02-22T11:11:59Z</time>
      </trkpt>
      <trkpt lat="39.0412530" lon="1.3447680">
        <ele>213.0</ele>
        <time>2020-02-22T11:12:00Z</time>
      </trkpt>
      <trkpt lat="39.0412520" lon="1.3448380">
        <ele>213.1</ele>
        <time>2020-02-22T11:12:01Z</time>
      </trkpt>
      <trkpt lat="39.0412520" lon="1.3449020">
        <ele>213.2</ele>
        <time>2020-02-22T11:12:02Z</time>
      </trkpt>
      <trkpt lat="39.0412520" lon="1.3449610">
        <ele>213.3</ele>
        <time>2020-02-22T11:12:03Z</time>
      </trkpt>
      <trkpt lat="39.0412490" lon="1.3450190">
        <ele>213.3</ele>
        <time>2020-02-22T11:12:04Z</time>
      </trkpt>
      <trkpt lat="39.0412470" lon="1.3450750">
        <ele>213.4</ele>
        <time>2020-02-22T11:12:05Z</time>
      </trkpt>
      <trkpt lat="39.0412400" lon="1.3451460">
        <ele>213.5</ele>
        <time>2020-02-22T11:12:06Z</time>
      </trkpt>
      <trkpt lat="39.0412300" lon="1.3452170">
        <ele>213.6</ele>
        <time>2020-02-22T11:12:07Z</time>
      </trkpt>
      <trkpt lat="39.0412280" lon="1.3452900">
        <ele>213.8</ele>
        <time>2020-02-22T11:12:08Z</time>
      </trkpt>
      <trkpt lat="39.0412130" lon="1.3453570">
        <ele>213.9</ele>
        <time>2020-02-22T11:12:09Z</time>
      </trkpt>
      <trkpt lat="39.0412110" lon="1.3454270">
        <ele>214.0</ele>
        <time>2020-02-22T11:12:10Z</time>
      </trkpt>
      <trkpt lat="39.0412110" lon="1.3454940">
        <ele>214.1</ele>
        <time>2020-02-22T11:12:11Z</time>
      </trkpt>
      <trkpt lat="39.0412030" lon="1.3455670">
        <ele>214.2</ele>
        <time>2020-02-22T11:12:12Z</time>
      </trkpt>
      <trkpt lat="39.0412120" lon="1.3456520">
        <ele>214.2</ele>
        <time>2020-02-22T11:12:13Z</time>
      </trkpt>
      <trkpt lat="39.0412200" lon="1.3457370">
        <ele>214.2</ele>
        <time>2020-02-22T11:12:14Z</time>
      </trkpt>
      <trkpt lat="39.0412340" lon="1.3458260">
        <ele>214.3</ele>
        <time>2020-02-22T11:12:15Z</time>
      </trkpt>
      <trkpt lat="39.0412510" lon="1.3459140">
        <ele>214.3</ele>
        <time>2020-02-22T11:12:16Z</time>
      </trkpt>
      <trkpt lat="39.0412640" lon="1.3459860">
        <ele>214.3</ele>
        <time>2020-02-22T11:12:17Z</time>
      </trkpt>
      <trkpt lat="39.0412720" lon="1.3460770">
        <ele>214.3</ele>
        <time>2020-02-22T11:12:18Z</time>
      </trkpt>
      <trkpt lat="39.0412850" lon="1.3461480">
        <ele>214.3</ele>
        <time>2020-02-22T11:12:19Z</time>
      </trkpt>
      <trkpt lat="39.0413020" lon="1.3462130">
        <ele>214.3</ele>
        <time>2020-02-22T11:12:20Z</time>
      </trkpt>
      <trkpt lat="39.0413260" lon="1.3462650">
        <ele>214.3</ele>
        <time>2020-02-22T11:12:21Z</time>
      </trkpt>
      <trkpt lat="39.0413450" lon="1.3463250">
        <ele>214.4</ele>
        <time>2020-02-22T11:12:22Z</time>
      </trkpt>
      <trkpt lat="39.0413630" lon="1.3463770">
        <ele>214.4</ele>
        <time>2020-02-22T11:12:23Z</time>
      </trkpt>
      <trkpt lat="39.0413850" lon="1.3464170">
        <ele>214.5</ele>
        <time>2020-02-22T11:12:24Z</time>
      </trkpt>
      <trkpt lat="39.0414020" lon="1.3464600">
        <ele>214.5</ele>
        <time>2020-02-22T11:12:25Z</time>
      </trkpt>
      <trkpt lat="39.0414190" lon="1.3465050">
        <ele>214.6</ele>
        <time>2020-02-22T11:12:26Z</time>
      </trkpt>
      <trkpt lat="39.0414400" lon="1.3465540">
        <ele>214.7</ele>
        <time>2020-02-22T11:12:27Z</time>
      </trkpt>
      <trkpt lat="39.0414620" lon="1.3466130">
        <ele>214.9</ele>
        <time>2020-02-22T11:12:28Z</time>
      </trkpt>
      <trkpt lat="39.0414890" lon="1.3466570">
        <ele>215.0</ele>
        <time>2020-02-22T11:12:29Z</time>
      </trkpt>
      <trkpt lat="39.0415190" lon="1.3467070">
        <ele>215.1</ele>
        <time>2020-02-22T11:12:30Z</time>
      </trkpt>
      <trkpt lat="39.0415470" lon="1.3467460">
        <ele>215.2</ele>
        <time>2020-02-22T11:12:31Z</time>
      </trkpt>
      <trkpt lat="39.0415560" lon="1.3467670">
        <ele>215.2</ele>
        <time>2020-02-22T11:12:32Z</time>
      </trkpt>
      <trkpt lat="39.0415770" lon="1.3468000">
        <ele>215.3</ele>
        <time>2020-02-22T11:12:33Z</time>
      </trkpt>
      <trkpt lat="39.0416040" lon="1.3468450">
        <ele>215.4</ele>
        <time>2020-02-22T11:12:34Z</time>
      </trkpt>
      <trkpt lat="39.0416320" lon="1.3468970">
        <ele>215.5</ele>
        <time>2020-02-22T11:12:35Z</time>
      </trkpt>
      <trkpt lat="39.0416560" lon="1.3469480">
        <ele>215.5</ele>
        <time>2020-02-22T11:12:36Z</time>
      </trkpt>
      <trkpt lat="39.0416770" lon="1.3470090">
        <ele>215.6</ele>
        <time>2020-02-22T11:12:37Z</time>
      </trkpt>
      <trkpt lat="39.0416930" lon="1.3470520">
        <ele>215.7</ele>
        <time>2020-02-22T11:12:38Z</time>
      </trkpt>
      <trkpt lat="39.0417160" lon="1.3470930">
        <ele>215.7</ele>
        <time>2020-02-22T11:12:39Z</time>
      </trkpt>
      <trkpt lat="39.0417310" lon="1.3471330">
        <ele>215.7</ele>
        <time>2020-02-22T11:12:40Z</time>
      </trkpt>
      <trkpt lat="39.0417470" lon="1.3471740">
        <ele>215.7</ele>
        <time>2020-02-22T11:12:41Z</time>
      </trkpt>
      <trkpt lat="39.0417660" lon="1.3472250">
        <ele>215.6</ele>
        <time>2020-02-22T11:12:42Z</time>
      </trkpt>
      <trkpt lat="39.0417880" lon="1.3472720">
        <ele>215.6</ele>
        <time>2020-02-22T11:12:43Z</time>
      </trkpt>
      <trkpt lat="39.0418070" lon="1.3473150">
        <ele>215.5</ele>
        <time>2020-02-22T11:12:44Z</time>
      </trkpt>
      <trkpt lat="39.0418260" lon="1.3473550">
        <ele>215.5</ele>
        <time>2020-02-22T11:12:45Z</time>
      </trkpt>
      <trkpt lat="39.0418510" lon="1.3474000">
        <ele>215.4</ele>
        <time>2020-02-22T11:12:46Z</time>
      </trkpt>
      <trkpt lat="39.0418790" lon="1.3474500">
        <ele>215.4</ele>
        <time>2020-02-22T11:12:47Z</time>
      </trkpt>
      <trkpt lat="39.0419150" lon="1.3475020">
        <ele>215.4</ele>
        <time>2020-02-22T11:12:48Z</time>
      </trkpt>
      <trkpt lat="39.0419520" lon="1.3475310">
        <ele>215.4</ele>
        <time>2020-02-22T11:12:49Z</time>
      </trkpt>
      <trkpt lat="39.0419880" lon="1.3475720">
        <ele>215.4</ele>
        <time>2020-02-22T11:12:50Z</time>
      </trkpt>
      <trkpt lat="39.0420230" lon="1.3476130">
        <ele>215.4</ele>
        <time>2020-02-22T11:12:51Z</time>
      </trkpt>
      <trkpt lat="39.0420540" lon="1.3476520">
        <ele>215.4</ele>
        <time>2020-02-22T11:12:52Z</time>
      </trkpt>
      <trkpt lat="39.0420890" lon="1.3477030">
        <ele>215.3</ele>
        <time>2020-02-22T11:12:53Z</time>
      </trkpt>
      <trkpt lat="39.0421180" lon="1.3477350">
        <ele>215.3</ele>
        <time>2020-02-22T11:12:54Z</time>
      </trkpt>
      <trkpt lat="39.0421520" lon="1.3477730">
        <ele>215.3</ele>
        <time>2020-02-22T11:12:55Z</time>
      </trkpt>
      <trkpt lat="39.0421900" lon="1.3478230">
        <ele>215.2</ele>
        <time>2020-02-22T11:12:56Z</time>
      </trkpt>
      <trkpt lat="39.0422260" lon="1.3478770">
        <ele>215.2</ele>
        <time>2020-02-22T11:12:57Z</time>
      </trkpt>
      <trkpt lat="39.0422570" lon="1.3479250">
        <ele>215.1</ele>
        <time>2020-02-22T11:12:58Z</time>
      </trkpt>
      <trkpt lat="39.0422830" lon="1.3479690">
        <ele>215.0</ele>
        <time>2020-02-22T11:12:59Z</time>
      </trkpt>
      <trkpt lat="39.0423030" lon="1.3479990">
        <ele>214.9</ele>
        <time>2020-02-22T11:13:00Z</time>
      </trkpt>
      <trkpt lat="39.0423290" lon="1.3480400">
        <ele>214.8</ele>
        <time>2020-02-22T11:13:01Z</time>
      </trkpt>
      <trkpt lat="39.0423550" lon="1.3480890">
        <ele>214.7</ele>
        <time>2020-02-22T11:13:02Z</time>
      </trkpt>
      <trkpt lat="39.0423720" lon="1.3481230">
        <ele>214.6</ele>
        <time>2020-02-22T11:13:03Z</time>
      </trkpt>
      <trkpt lat="39.0423990" lon="1.3481750">
        <ele>214.5</ele>
        <time>2020-02-22T11:13:04Z</time>
      </trkpt>
      <trkpt lat="39.0424180" lon="1.3482190">
        <ele>214.4</ele>
        <time>2020-02-22T11:13:05Z</time>
      </trkpt>
      <trkpt lat="39.0424310" lon="1.3482560">
        <ele>214.4</ele>
        <time>2020-02-22T11:13:06Z</time>
      </trkpt>
      <trkpt lat="39.0424430" lon="1.3482930">
        <ele>214.3</ele>
        <time>2020-02-22T11:13:07Z</time>
      </trkpt>
      <trkpt lat="39.0424580" lon="1.3483450">
        <ele>214.2</ele>
        <time>2020-02-22T11:13:08Z</time>
      </trkpt>
      <trkpt lat="39.0424800" lon="1.3484010">
        <ele>214.1</ele>
        <time>2020-02-22T11:13:09Z</time>
      </trkpt>
      <trkpt lat="39.0425010" lon="1.3484520">
        <ele>214.0</ele>
        <time>2020-02-22T11:13:10Z</time>
      </trkpt>
      <trkpt lat="39.0425230" lon="1.3485080">
        <ele>213.9</ele>
        <time>2020-02-22T11:13:11Z</time>
      </trkpt>
      <trkpt lat="39.0425460" lon="1.3485610">
        <ele>213.8</ele>
        <time>2020-02-22T11:13:12Z</time>
      </trkpt>
      <trkpt lat="39.0425670" lon="1.3486110">
        <ele>213.7</ele>
        <time>2020-02-22T11:13:13Z</time>
      </trkpt>
      <trkpt lat="39.0425940" lon="1.3486810">
        <ele>213.6</ele>
        <time>2020-02-22T11:13:14Z</time>
      </trkpt>
      <trkpt lat="39.0426190" lon="1.3487330">
        <ele>213.4</ele>
        <time>2020-02-22T11:13:15Z</time>
      </trkpt>
      <trkpt lat="39.0426440" lon="1.3487900">
        <ele>213.3</ele>
        <time>2020-02-22T11:13:16Z</time>
      </trkpt>
      <trkpt lat="39.0426630" lon="1.3488440">
        <ele>213.2</ele>
        <time>2020-02-22T11:13:17Z</time>
      </trkpt>
      <trkpt lat="39.0426800" lon="1.3489020">
        <ele>213.1</ele>
        <time>2020-02-22T11:13:18Z</time>
      </trkpt>
      <trkpt lat="39.0426960" lon="1.3489570">
        <ele>213.0</ele>
        <time>2020-02-22T11:13:19Z</time>
      </trkpt>
      <trkpt lat="39.0427150" lon="1.3490270">
        <ele>212.9</ele>
        <time>2020-02-22T11:13:20Z</time>
      </trkpt>
      <trkpt lat="39.0427330" lon="1.3490730">
        <ele>212.8</ele>
        <time>2020-02-22T11:13:21Z</time>
      </trkpt>
      <trkpt lat="39.0427480" lon="1.3491130">
        <ele>212.7</ele>
        <time>2020-02-22T11:13:22Z</time>
      </trkpt>
      <trkpt lat="39.0427570" lon="1.3491710">
        <ele>212.6</ele>
        <time>2020-02-22T11:13:23Z</time>
      </trkpt>
      <trkpt lat="39.0427750" lon="1.3492130">
        <ele>212.5</ele>
        <time>2020-02-22T11:13:24Z</time>
      </trkpt>
      <trkpt lat="39.0427910" lon="1.3492780">
        <ele>212.4</ele>
        <time>2020-02-22T11:13:25Z</time>
      </trkpt>
      <trkpt lat="39.0428060" lon="1.3493220">
        <ele>212.3</ele>
        <time>2020-02-22T11:13:26Z</time>
      </trkpt>
      <trkpt lat="39.0428230" lon="1.3493800">
        <ele>212.2</ele>
        <time>2020-02-22T11:13:27Z</time>
      </trkpt>
      <trkpt lat="39.0428350" lon="1.3494360">
        <ele>212.1</ele>
        <time>2020-02-22T11:13:28Z</time>
      </trkpt>
      <trkpt lat="39.0428510" lon="1.3494820">
        <ele>212.0</ele>
        <time>2020-02-22T11:13:29Z</time>
      </trkpt>
      <trkpt lat="39.0428680" lon="1.3495250">
        <ele>211.9</ele>
        <time>2020-02-22T11:13:30Z</time>
      </trkpt>
      <trkpt lat="39.0428830" lon="1.3495840">
        <ele>211.8</ele>
        <time>2020-02-22T11:13:31Z</time>
      </trkpt>
      <trkpt lat="39.0428840" lon="1.3496240">
        <ele>211.7</ele>
        <time>2020-02-22T11:13:32Z</time>
      </trkpt>
      <trkpt lat="39.0428960" lon="1.3496700">
        <ele>211.6</ele>
        <time>2020-02-22T11:13:33Z</time>
      </trkpt>
      <trkpt lat="39.0429140" lon="1.3497200">
        <ele>211.4</ele>
        <time>2020-02-22T11:13:34Z</time>
      </trkpt>
      <trkpt lat="39.0429290" lon="1.3497770">
        <ele>211.3</ele>
        <time>2020-02-22T11:13:35Z</time>
      </trkpt>
      <trkpt lat="39.0429440" lon="1.3498190">
        <ele>211.2</ele>
        <time>2020-02-22T11:13:36Z</time>
      </trkpt>
      <trkpt lat="39.0429600" lon="1.3498600">
        <ele>211.1</ele>
        <time>2020-02-22T11:13:37Z</time>
      </trkpt>
      <trkpt lat="39.0429820" lon="1.3499050">
        <ele>211.0</ele>
        <time>2020-02-22T11:13:38Z</time>
      </trkpt>
      <trkpt lat="39.0429890" lon="1.3499230">
        <ele>211.0</ele>
        <time>2020-02-22T11:13:39Z</time>
      </trkpt>
      <trkpt lat="39.0430100" lon="1.3499530">
        <ele>210.9</ele>
        <time>2020-02-22T11:13:40Z</time>
      </trkpt>
      <trkpt lat="39.0430210" lon="1.3499870">
        <ele>210.9</ele>
        <time>2020-02-22T11:13:41Z</time>
      </trkpt>
      <trkpt lat="39.0430200" lon="1.3500070">
        <ele>210.9</ele>
        <time>2020-02-22T11:13:42Z</time>
      </trkpt>
      <trkpt lat="39.0430200" lon="1.3500500">
        <ele>210.8</ele>
        <time>2020-02-22T11:13:43Z</time>
      </trkpt>
      <trkpt lat="39.0430180" lon="1.3501010">
        <ele>210.8</ele>
        <time>2020-02-22T11:13:44Z</time>
      </trkpt>
      <trkpt lat="39.0430180" lon="1.3501410">
        <ele>210.8</ele>
        <time>2020-02-22T11:13:45Z</time>
      </trkpt>
      <trkpt lat="39.0430350" lon="1.3501700">
        <ele>210.7</ele>
        <time>2020-02-22T11:13:46Z</time>
      </trkpt>
      <trkpt lat="39.0430510" lon="1.3502180">
        <ele>210.7</ele>
        <time>2020-02-22T11:13:47Z</time>
      </trkpt>
      <trkpt lat="39.0430560" lon="1.3502390">
        <ele>210.7</ele>
        <time>2020-02-22T11:13:48Z</time>
      </trkpt>
      <trkpt lat="39.0430650" lon="1.3502840">
        <ele>210.7</ele>
        <time>2020-02-22T11:13:49Z</time>
      </trkpt>
      <trkpt lat="39.0430770" lon="1.3503260">
        <ele>210.6</ele>
        <time>2020-02-22T11:13:50Z</time>
      </trkpt>
      <trkpt lat="39.0430900" lon="1.3503730">
        <ele>210.5</ele>
        <time>2020-02-22T11:13:51Z</time>
      </trkpt>
      <trkpt lat="39.0431040" lon="1.3504120">
        <ele>210.5</ele>
        <time>2020-02-22T11:13:52Z</time>
      </trkpt>
      <trkpt lat="39.0431200" lon="1.3504530">
        <ele>210.4</ele>
        <time>2020-02-22T11:13:53Z</time>
      </trkpt>
      <trkpt lat="39.0431370" lon="1.3504960">
        <ele>210.3</ele>
        <time>2020-02-22T11:13:54Z</time>
      </trkpt>
      <trkpt lat="39.0431540" lon="1.3505480">
        <ele>210.1</ele>
        <time>2020-02-22T11:13:55Z</time>
      </trkpt>
      <trkpt lat="39.0431750" lon="1.3506150">
        <ele>210.0</ele>
        <time>2020-02-22T11:13:56Z</time>
      </trkpt>
      <trkpt lat="39.0432020" lon="1.3506910">
        <ele>209.8</ele>
        <time>2020-02-22T11:13:57Z</time>
      </trkpt>
      <trkpt lat="39.0432330" lon="1.3507590">
        <ele>209.7</ele>
        <time>2020-02-22T11:13:58Z</time>
      </trkpt>
      <trkpt lat="39.0432560" lon="1.3508290">
        <ele>209.6</ele>
        <time>2020-02-22T11:13:59Z</time>
      </trkpt>
      <trkpt lat="39.0432800" lon="1.3509010">
        <ele>209.5</ele>
        <time>2020-02-22T11:14:00Z</time>
      </trkpt>
      <trkpt lat="39.0433100" lon="1.3509760">
        <ele>209.4</ele>
        <time>2020-02-22T11:14:01Z</time>
      </trkpt>
      <trkpt lat="39.0433440" lon="1.3510580">
        <ele>209.2</ele>
        <time>2020-02-22T11:14:02Z</time>
      </trkpt>
      <trkpt lat="39.0433890" lon="1.3511480">
        <ele>208.9</ele>
        <time>2020-02-22T11:14:03Z</time>
      </trkpt>
      <trkpt lat="39.0434400" lon="1.3512410">
        <ele>208.7</ele>
        <time>2020-02-22T11:14:04Z</time>
      </trkpt>
      <trkpt lat="39.0434990" lon="1.3513240">
        <ele>208.4</ele>
        <time>2020-02-22T11:14:05Z</time>
      </trkpt>
      <trkpt lat="39.0435800" lon="1.3513960">
        <ele>208.1</ele>
        <time>2020-02-22T11:14:06Z</time>
      </trkpt>
      <trkpt lat="39.0436700" lon="1.3514670">
        <ele>207.7</ele>
        <time>2020-02-22T11:14:07Z</time>
      </trkpt>
      <trkpt lat="39.0437500" lon="1.3515550">
        <ele>207.4</ele>
        <time>2020-02-22T11:14:08Z</time>
      </trkpt>
      <trkpt lat="39.0438110" lon="1.3516460">
        <ele>207.1</ele>
        <time>2020-02-22T11:14:09Z</time>
      </trkpt>
      <trkpt lat="39.0438590" lon="1.3517550">
        <ele>206.7</ele>
        <time>2020-02-22T11:14:10Z</time>
      </trkpt>
      <trkpt lat="39.0438990" lon="1.3518670">
        <ele>206.4</ele>
        <time>2020-02-22T11:14:11Z</time>
      </trkpt>
      <trkpt lat="39.0439250" lon="1.3519840">
        <ele>206.0</ele>
        <time>2020-02-22T11:14:12Z</time>
      </trkpt>
      <trkpt lat="39.0439370" lon="1.3520910">
        <ele>205.7</ele>
        <time>2020-02-22T11:14:13Z</time>
      </trkpt>
      <trkpt lat="39.0439310" lon="1.3521910">
        <ele>205.5</ele>
        <time>2020-02-22T11:14:14Z</time>
      </trkpt>
      <trkpt lat="39.0439130" lon="1.3522700">
        <ele>205.2</ele>
        <time>2020-02-22T11:14:15Z</time>
      </trkpt>
      <trkpt lat="39.0438920" lon="1.3523200">
        <ele>205.1</ele>
        <time>2020-02-22T11:14:16Z</time>
      </trkpt>
      <trkpt lat="39.0438680" lon="1.3523560">
        <ele>204.9</ele>
        <time>2020-02-22T11:14:17Z</time>
      </trkpt>
      <trkpt lat="39.0438470" lon="1.3523860">
        <ele>204.5</ele>
        <time>2020-02-22T11:14:18Z</time>
      </trkpt>
      <trkpt lat="39.0438260" lon="1.3524140">
        <ele>204.8</ele>
        <time>2020-02-22T11:14:19Z</time>
      </trkpt>
      <trkpt lat="39.0438080" lon="1.3524590">
        <ele>205.3</ele>
        <time>2020-02-22T11:14:20Z</time>
      </trkpt>
      <trkpt lat="39.0438070" lon="1.3524790">
        <ele>205.4</ele>
        <time>2020-02-22T11:14:21Z</time>
      </trkpt>
      <trkpt lat="39.0438210" lon="1.3525190">
        <ele>205.8</ele>
        <time>2020-02-22T11:14:22Z</time>
      </trkpt>
      <trkpt lat="39.0438340" lon="1.3525590">
        <ele>206.1</ele>
        <time>2020-02-22T11:14:23Z</time>
      </trkpt>
      <trkpt lat="39.0438310" lon="1.3525960">
        <ele>206.4</ele>
        <time>2020-02-22T11:14:24Z</time>
      </trkpt>
      <trkpt lat="39.0438180" lon="1.3526290">
        <ele>206.6</ele>
        <time>2020-02-22T11:14:25Z</time>
      </trkpt>
      <trkpt lat="39.0438150" lon="1.3526710">
        <ele>206.9</ele>
        <time>2020-02-22T11:14:26Z</time>
      </trkpt>
      <trkpt lat="39.0438160" lon="1.3526860">
        <ele>207.0</ele>
        <time>2020-02-22T11:14:27Z</time>
      </trkpt>
      <trkpt lat="39.0438360" lon="1.3527240">
        <ele>207.3</ele>
        <time>2020-02-22T11:14:28Z</time>
      </trkpt>
      <trkpt lat="39.0438430" lon="1.3527370">
        <ele>207.4</ele>
        <time>2020-02-22T11:14:29Z</time>
      </trkpt>
      <trkpt lat="39.0438690" lon="1.3527670">
        <ele>207.7</ele>
        <time>2020-02-22T11:14:30Z</time>
      </trkpt>
      <trkpt lat="39.0438760" lon="1.3527740">
        <ele>207.8</ele>
        <time>2020-02-22T11:14:31Z</time>
      </trkpt>
      <trkpt lat="39.0439060" lon="1.3527850">
        <ele>208.0</ele>
        <time>2020-02-22T11:14:32Z</time>
      </trkpt>
      <trkpt lat="39.0439170" lon="1.3527890">
        <ele>208.1</ele>
        <time>2020-02-22T11:14:33Z</time>
      </trkpt>
      <trkpt lat="39.0439500" lon="1.3528120">
        <ele>208.3</ele>
        <time>2020-02-22T11:14:34Z</time>
      </trkpt>
      <trkpt lat="39.0439600" lon="1.3528240">
        <ele>208.4</ele>
        <time>2020-02-22T11:14:35Z</time>
      </trkpt>
      <trkpt lat="39.0439910" lon="1.3528370">
        <ele>208.6</ele>
        <time>2020-02-22T11:14:36Z</time>
      </trkpt>
      <trkpt lat="39.0440000" lon="1.3528460">
        <ele>208.7</ele>
        <time>2020-02-22T11:14:37Z</time>
      </trkpt>
      <trkpt lat="39.0440260" lon="1.3528630">
        <ele>208.9</ele>
        <time>2020-02-22T11:14:38Z</time>
      </trkpt>
      <trkpt lat="39.0440340" lon="1.3528680">
        <ele>208.9</ele>
        <time>2020-02-22T11:14:39Z</time>
      </trkpt>
      <trkpt lat="39.0440580" lon="1.3528830">
        <ele>209.1</ele>
        <time>2020-02-22T11:14:40Z</time>
      </trkpt>
      <trkpt lat="39.0440620" lon="1.3528970">
        <ele>209.1</ele>
        <time>2020-02-22T11:14:41Z</time>
      </trkpt>
      <trkpt lat="39.0440900" lon="1.3529130">
        <ele>209.3</ele>
        <time>2020-02-22T11:14:42Z</time>
      </trkpt>
      <trkpt lat="39.0440990" lon="1.3529200">
        <ele>209.4</ele>
        <time>2020-02-22T11:14:43Z</time>
      </trkpt>
      <trkpt lat="39.0441220" lon="1.3529520">
        <ele>209.6</ele>
        <time>2020-02-22T11:14:44Z</time>
      </trkpt>
      <trkpt lat="39.0441290" lon="1.3529620">
        <ele>209.7</ele>
        <time>2020-02-22T11:14:45Z</time>
      </trkpt>
      <trkpt lat="39.0441480" lon="1.3529960">
        <ele>209.9</ele>
        <time>2020-02-22T11:14:46Z</time>
      </trkpt>
      <trkpt lat="39.0441530" lon="1.3530090">
        <ele>209.9</ele>
        <time>2020-02-22T11:14:47Z</time>
      </trkpt>
      <trkpt lat="39.0441730" lon="1.3530430">
        <ele>210.2</ele>
        <time>2020-02-22T11:14:48Z</time>
      </trkpt>
      <trkpt lat="39.0441790" lon="1.3530540">
        <ele>210.2</ele>
        <time>2020-02-22T11:14:49Z</time>
      </trkpt>
      <trkpt lat="39.0442000" lon="1.3530890">
        <ele>210.5</ele>
        <time>2020-02-22T11:14:50Z</time>
      </trkpt>
      <trkpt lat="39.0442040" lon="1.3531030">
        <ele>210.6</ele>
        <time>2020-02-22T11:14:51Z</time>
      </trkpt>
      <trkpt lat="39.0442200" lon="1.3531400">
        <ele>210.8</ele>
        <time>2020-02-22T11:14:52Z</time>
      </trkpt>
      <trkpt lat="39.0442260" lon="1.3531520">
        <ele>210.9</ele>
        <time>2020-02-22T11:14:53Z</time>
      </trkpt>
      <trkpt lat="39.0442430" lon="1.3531950">
        <ele>211.1</ele>
        <time>2020-02-22T11:14:54Z</time>
      </trkpt>
      <trkpt lat="39.0442500" lon="1.3532080">
        <ele>211.2</ele>
        <time>2020-02-22T11:14:55Z</time>
      </trkpt>
      <trkpt lat="39.0442770" lon="1.3532410">
        <ele>211.4</ele>
        <time>2020-02-22T11:14:56Z</time>
      </trkpt>
      <trkpt lat="39.0442860" lon="1.3532510">
        <ele>211.5</ele>
        <time>2020-02-22T11:14:57Z</time>
      </trkpt>
      <trkpt lat="39.0443130" lon="1.3532760">
        <ele>211.7</ele>
        <time>2020-02-22T11:14:58Z</time>
      </trkpt>
      <trkpt lat="39.0443230" lon="1.3532800">
        <ele>211.7</ele>
        <time>2020-02-22T11:14:59Z</time>
      </trkpt>
      <trkpt lat="39.0443550" lon="1.3532900">
        <ele>211.9</ele>
        <time>2020-02-22T11:15:00Z</time>
      </trkpt>
      <trkpt lat="39.0443650" lon="1.3532930">
        <ele>211.9</ele>
        <time>2020-02-22T11:15:01Z</time>
      </trkpt>
      <trkpt lat="39.0443960" lon="1.3532940">
        <ele>212.0</ele>
        <time>2020-02-22T11:15:02Z</time>
      </trkpt>
      <trkpt lat="39.0444060" lon="1.3532940">
        <ele>212.0</ele>
        <time>2020-02-22T11:15:03Z</time>
      </trkpt>
      <trkpt lat="39.0444160" lon="1.3533080">
        <ele>212.1</ele>
        <time>2020-02-22T11:15:04Z</time>
      </trkpt>
      <trkpt lat="39.0444280" lon="1.3533260">
        <ele>212.1</ele>
        <time>2020-02-22T11:15:05Z</time>
      </trkpt>
      <trkpt lat="39.0444520" lon="1.3533460">
        <ele>212.2</ele>
        <time>2020-02-22T11:15:06Z</time>
      </trkpt>
      <trkpt lat="39.0444590" lon="1.3533540">
        <ele>212.2</ele>
        <time>2020-02-22T11:15:07Z</time>
      </trkpt>
      <trkpt lat="39.0444840" lon="1.3533790">
        <ele>212.3</ele>
        <time>2020-02-22T11:15:08Z</time>
      </trkpt>
      <trkpt lat="39.0444910" lon="1.3533880">
        <ele>212.3</ele>
        <time>2020-02-22T11:15:09Z</time>
      </trkpt>
      <trkpt lat="39.0445160" lon="1.3534180">
        <ele>212.4</ele>
        <time>2020-02-22T11:15:10Z</time>
      </trkpt>
      <trkpt lat="39.0445270" lon="1.3534270">
        <ele>212.4</ele>
        <time>2020-02-22T11:15:11Z</time>
      </trkpt>
      <trkpt lat="39.0445510" lon="1.3534470">
        <ele>212.4</ele>
        <time>2020-02-22T11:15:12Z</time>
      </trkpt>
      <trkpt lat="39.0445780" lon="1.3534610">
        <ele>212.5</ele>
        <time>2020-02-22T11:15:13Z</time>
      </trkpt>
      <trkpt lat="39.0446120" lon="1.3534880">
        <ele>212.5</ele>
        <time>2020-02-22T11:15:14Z</time>
      </trkpt>
      <trkpt lat="39.0446260" lon="1.3534940">
        <ele>212.5</ele>
        <time>2020-02-22T11:15:15Z</time>
      </trkpt>
      <trkpt lat="39.0446480" lon="1.3535140">
        <ele>212.5</ele>
        <time>2020-02-22T11:15:16Z</time>
      </trkpt>
      <trkpt lat="39.0446690" lon="1.3535370">
        <ele>212.5</ele>
        <time>2020-02-22T11:15:17Z</time>
      </trkpt>
      <trkpt lat="39.0446960" lon="1.3535550">
        <ele>212.5</ele>
        <time>2020-02-22T11:15:18Z</time>
      </trkpt>
      <trkpt lat="39.0447290" lon="1.3535650">
        <ele>212.5</ele>
        <time>2020-02-22T11:15:19Z</time>
      </trkpt>
      <trkpt lat="39.0447620" lon="1.3535690">
        <ele>212.5</ele>
        <time>2020-02-22T11:15:20Z</time>
      </trkpt>
      <trkpt lat="39.0447940" lon="1.3535700">
        <ele>212.5</ele>
        <time>2020-02-22T11:15:21Z</time>
      </trkpt>
      <trkpt lat="39.0448290" lon="1.3535680">
        <ele>212.5</ele>
        <time>2020-02-22T11:15:22Z</time>
      </trkpt>
      <trkpt lat="39.0448640" lon="1.3535710">
        <ele>212.5</ele>
        <time>2020-02-22T11:15:23Z</time>
      </trkpt>
      <trkpt lat="39.0448990" lon="1.3535710">
        <ele>212.5</ele>
        <time>2020-02-22T11:15:24Z</time>
      </trkpt>
      <trkpt lat="39.0449340" lon="1.3535760">
        <ele>212.5</ele>
        <time>2020-02-22T11:15:25Z</time>
      </trkpt>
      <trkpt lat="39.0449680" lon="1.3535650">
        <ele>212.5</ele>
        <time>2020-02-22T11:15:26Z</time>
      </trkpt>
      <trkpt lat="39.0450020" lon="1.3535600">
        <ele>212.4</ele>
        <time>2020-02-22T11:15:27Z</time>
      </trkpt>
      <trkpt lat="39.0450380" lon="1.3535500">
        <ele>212.4</ele>
        <time>2020-02-22T11:15:28Z</time>
      </trkpt>
      <trkpt lat="39.0450660" lon="1.3535260">
        <ele>212.3</ele>
        <time>2020-02-22T11:15:29Z</time>
      </trkpt>
      <trkpt lat="39.0450910" lon="1.3534890">
        <ele>212.3</ele>
        <time>2020-02-22T11:15:30Z</time>
      </trkpt>
      <trkpt lat="39.0451140" lon="1.3534530">
        <ele>212.2</ele>
        <time>2020-02-22T11:15:31Z</time>
      </trkpt>
      <trkpt lat="39.0451340" lon="1.3534150">
        <ele>212.1</ele>
        <time>2020-02-22T11:15:32Z</time>
      </trkpt>
      <trkpt lat="39.0451510" lon="1.3533790">
        <ele>212.0</ele>
        <time>2020-02-22T11:15:33Z</time>
      </trkpt>
      <trkpt lat="39.0451710" lon="1.3533440">
        <ele>211.9</ele>
        <time>2020-02-22T11:15:34Z</time>
      </trkpt>
      <trkpt lat="39.0451880" lon="1.3533060">
        <ele>211.8</ele>
        <time>2020-02-22T11:15:35Z</time>
      </trkpt>
      <trkpt lat="39.0452080" lon="1.3532720">
        <ele>211.7</ele>
        <time>2020-02-22T11:15:36Z</time>
      </trkpt>
      <trkpt lat="39.0452270" lon="1.3532280">
        <ele>211.6</ele>
        <time>2020-02-22T11:15:37Z</time>
      </trkpt>
      <trkpt lat="39.0452480" lon="1.3531790">
        <ele>211.6</ele>
        <time>2020-02-22T11:15:38Z</time>
      </trkpt>
      <trkpt lat="39.0452710" lon="1.3531330">
        <ele>211.6</ele>
        <time>2020-02-22T11:15:39Z</time>
      </trkpt>
      <trkpt lat="39.0452970" lon="1.3530900">
        <ele>211.5</ele>
        <time>2020-02-22T11:15:40Z</time>
      </trkpt>
      <trkpt lat="39.0453240" lon="1.3530450">
        <ele>211.5</ele>
        <time>2020-02-22T11:15:41Z</time>
      </trkpt>
      <trkpt lat="39.0453590" lon="1.3530060">
        <ele>211.5</ele>
        <time>2020-02-22T11:15:42Z</time>
      </trkpt>
      <trkpt lat="39.0453900" lon="1.3529610">
        <ele>211.4</ele>
        <time>2020-02-22T11:15:43Z</time>
      </trkpt>
      <trkpt lat="39.0454110" lon="1.3529070">
        <ele>211.3</ele>
        <time>2020-02-22T11:15:44Z</time>
      </trkpt>
      <trkpt lat="39.0454250" lon="1.3528540">
        <ele>211.2</ele>
        <time>2020-02-22T11:15:45Z</time>
      </trkpt>
      <trkpt lat="39.0454320" lon="1.3527950">
        <ele>211.1</ele>
        <time>2020-02-22T11:15:46Z</time>
      </trkpt>
      <trkpt lat="39.0454360" lon="1.3527370">
        <ele>211.0</ele>
        <time>2020-02-22T11:15:47Z</time>
      </trkpt>
      <trkpt lat="39.0454450" lon="1.3526780">
        <ele>210.9</ele>
        <time>2020-02-22T11:15:48Z</time>
      </trkpt>
      <trkpt lat="39.0454540" lon="1.3526200">
        <ele>210.7</ele>
        <time>2020-02-22T11:15:49Z</time>
      </trkpt>
      <trkpt lat="39.0454770" lon="1.3525590">
        <ele>210.6</ele>
        <time>2020-02-22T11:15:50Z</time>
      </trkpt>
      <trkpt lat="39.0455210" lon="1.3525030">
        <ele>210.4</ele>
        <time>2020-02-22T11:15:51Z</time>
      </trkpt>
      <trkpt lat="39.0455740" lon="1.3524620">
        <ele>210.2</ele>
        <time>2020-02-22T11:15:52Z</time>
      </trkpt>
      <trkpt lat="39.0456260" lon="1.3524270">
        <ele>210.0</ele>
        <time>2020-02-22T11:15:53Z</time>
      </trkpt>
      <trkpt lat="39.0456770" lon="1.3524300">
        <ele>209.8</ele>
        <time>2020-02-22T11:15:54Z</time>
      </trkpt>
      <trkpt lat="39.0457190" lon="1.3524540">
        <ele>209.7</ele>
        <time>2020-02-22T11:15:55Z</time>
      </trkpt>
      <trkpt lat="39.0457650" lon="1.3524770">
        <ele>209.5</ele>
        <time>2020-02-22T11:15:56Z</time>
      </trkpt>
      <trkpt lat="39.0458070" lon="1.3525240">
        <ele>209.3</ele>
        <time>2020-02-22T11:15:57Z</time>
      </trkpt>
      <trkpt lat="39.0458450" lon="1.3525760">
        <ele>209.0</ele>
        <time>2020-02-22T11:15:58Z</time>
      </trkpt>
      <trkpt lat="39.0458810" lon="1.3526220">
        <ele>208.7</ele>
        <time>2020-02-22T11:15:59Z</time>
      </trkpt>
      <trkpt lat="39.0459140" lon="1.3526760">
        <ele>208.3</ele>
        <time>2020-02-22T11:16:00Z</time>
      </trkpt>
      <trkpt lat="39.0459540" lon="1.3527210">
        <ele>207.9</ele>
        <time>2020-02-22T11:16:01Z</time>
      </trkpt>
      <trkpt lat="39.0460000" lon="1.3527590">
        <ele>207.5</ele>
        <time>2020-02-22T11:16:02Z</time>
      </trkpt>
      <trkpt lat="39.0460450" lon="1.3528040">
        <ele>207.1</ele>
        <time>2020-02-22T11:16:03Z</time>
      </trkpt>
      <trkpt lat="39.0460970" lon="1.3528490">
        <ele>206.6</ele>
        <time>2020-02-22T11:16:04Z</time>
      </trkpt>
      <trkpt lat="39.0461550" lon="1.3528930">
        <ele>206.2</ele>
        <time>2020-02-22T11:16:05Z</time>
      </trkpt>
      <trkpt lat="39.0462150" lon="1.3529400">
        <ele>205.8</ele>
        <time>2020-02-22T11:16:06Z</time>
      </trkpt>
      <trkpt lat="39.0462690" lon="1.3530000">
        <ele>205.4</ele>
        <time>2020-02-22T11:16:07Z</time>
      </trkpt>
      <trkpt lat="39.0463270" lon="1.3530610">
        <ele>205.0</ele>
        <time>2020-02-22T11:16:08Z</time>
      </trkpt>
      <trkpt lat="39.0463900" lon="1.3531200">
        <ele>204.8</ele>
        <time>2020-02-22T11:16:09Z</time>
      </trkpt>
      <trkpt lat="39.0464530" lon="1.3531810">
        <ele>204.7</ele>
        <time>2020-02-22T11:16:10Z</time>
      </trkpt>
      <trkpt lat="39.0465150" lon="1.3532450">
        <ele>204.7</ele>
        <time>2020-02-22T11:16:11Z</time>
      </trkpt>
      <trkpt lat="39.0465830" lon="1.3532990">
        <ele>204.7</ele>
        <time>2020-02-22T11:16:12Z</time>
      </trkpt>
      <trkpt lat="39.0466530" lon="1.3533560">
        <ele>204.9</ele>
        <time>2020-02-22T11:16:13Z</time>
      </trkpt>
      <trkpt lat="39.0467230" lon="1.3534100">
        <ele>205.2</ele>
        <time>2020-02-22T11:16:14Z</time>
      </trkpt>
      <trkpt lat="39.0467930" lon="1.3534590">
        <ele>205.5</ele>
        <time>2020-02-22T11:16:15Z</time>
      </trkpt>
      <trkpt lat="39.0468580" lon="1.3535020">
        <ele>205.9</ele>
        <time>2020-02-22T11:16:16Z</time>
      </trkpt>
      <trkpt lat="39.0469170" lon="1.3535200">
        <ele>206.2</ele>
        <time>2020-02-22T11:16:17Z</time>
      </trkpt>
      <trkpt lat="39.0469760" lon="1.3535220">
        <ele>206.4</ele>
        <time>2020-02-22T11:16:18Z</time>
      </trkpt>
      <trkpt lat="39.0470270" lon="1.3535110">
        <ele>206.7</ele>
        <time>2020-02-22T11:16:19Z</time>
      </trkpt>
      <trkpt lat="39.0470730" lon="1.3535020">
        <ele>206.9</ele>
        <time>2020-02-22T11:16:20Z</time>
      </trkpt>
      <trkpt lat="39.0471160" lon="1.3534930">
        <ele>207.1</ele>
        <time>2020-02-22T11:16:21Z</time>
      </trkpt>
      <trkpt lat="39.0471570" lon="1.3534760">
        <ele>207.3</ele>
        <time>2020-02-22T11:16:22Z</time>
      </trkpt>
      <trkpt lat="39.0471970" lon="1.3534590">
        <ele>207.5</ele>
        <time>2020-02-22T11:16:23Z</time>
      </trkpt>
      <trkpt lat="39.0472350" lon="1.3534420">
        <ele>207.7</ele>
        <time>2020-02-22T11:16:24Z</time>
      </trkpt>
      <trkpt lat="39.0472750" lon="1.3534200">
        <ele>207.9</ele>
        <time>2020-02-22T11:16:25Z</time>
      </trkpt>
      <trkpt lat="39.0473160" lon="1.3534010">
        <ele>208.2</ele>
        <time>2020-02-22T11:16:26Z</time>
      </trkpt>
      <trkpt lat="39.0473580" lon="1.3533780">
        <ele>208.5</ele>
        <time>2020-02-22T11:16:27Z</time>
      </trkpt>
      <trkpt lat="39.0474040" lon="1.3533710">
        <ele>208.8</ele>
        <time>2020-02-22T11:16:28Z</time>
      </trkpt>
      <trkpt lat="39.0474480" lon="1.3533660">
        <ele>209.0</ele>
        <time>2020-02-22T11:16:29Z</time>
      </trkpt>
      <trkpt lat="39.0474860" lon="1.3533470">
        <ele>209.2</ele>
        <time>2020-02-22T11:16:30Z</time>
      </trkpt>
      <trkpt lat="39.0475200" lon="1.3533220">
        <ele>209.5</ele>
        <time>2020-02-22T11:16:31Z</time>
      </trkpt>
      <trkpt lat="39.0475510" lon="1.3533000">
        <ele>209.6</ele>
        <time>2020-02-22T11:16:32Z</time>
      </trkpt>
      <trkpt lat="39.0475820" lon="1.3532870">
        <ele>209.8</ele>
        <time>2020-02-22T11:16:33Z</time>
      </trkpt>
      <trkpt lat="39.0476140" lon="1.3532790">
        <ele>210.0</ele>
        <time>2020-02-22T11:16:34Z</time>
      </trkpt>
      <trkpt lat="39.0476490" lon="1.3532750">
        <ele>210.1</ele>
        <time>2020-02-22T11:16:35Z</time>
      </trkpt>
      <trkpt lat="39.0476810" lon="1.3532690">
        <ele>210.3</ele>
        <time>2020-02-22T11:16:36Z</time>
      </trkpt>
      <trkpt lat="39.0477100" lon="1.3532630">
        <ele>210.4</ele>
        <time>2020-02-22T11:16:37Z</time>
      </trkpt>
      <trkpt lat="39.0477440" lon="1.3532660">
        <ele>210.6</ele>
        <time>2020-02-22T11:16:38Z</time>
      </trkpt>
      <trkpt lat="39.0477540" lon="1.3532660">
        <ele>210.6</ele>
        <time>2020-02-22T11:16:39Z</time>
      </trkpt>
      <trkpt lat="39.0477820" lon="1.3532640">
        <ele>210.7</ele>
        <time>2020-02-22T11:16:40Z</time>
      </trkpt>
      <trkpt lat="39.0477900" lon="1.3532590">
        <ele>210.8</ele>
        <time>2020-02-22T11:16:41Z</time>
      </trkpt>
      <trkpt lat="39.0478180" lon="1.3532610">
        <ele>210.9</ele>
        <time>2020-02-22T11:16:42Z</time>
      </trkpt>
      <trkpt lat="39.0478460" lon="1.3532470">
        <ele>211.0</ele>
        <time>2020-02-22T11:16:43Z</time>
      </trkpt>
      <trkpt lat="39.0478550" lon="1.3532450">
        <ele>211.1</ele>
        <time>2020-02-22T11:16:44Z</time>
      </trkpt>
      <trkpt lat="39.0478850" lon="1.3532640">
        <ele>211.2</ele>
        <time>2020-02-22T11:16:45Z</time>
      </trkpt>
      <trkpt lat="39.0478940" lon="1.3532710">
        <ele>211.2</ele>
        <time>2020-02-22T11:16:46Z</time>
      </trkpt>
      <trkpt lat="39.0479310" lon="1.3532740">
        <ele>211.3</ele>
        <time>2020-02-22T11:16:47Z</time>
      </trkpt>
      <trkpt lat="39.0479440" lon="1.3532740">
        <ele>211.4</ele>
        <time>2020-02-22T11:16:48Z</time>
      </trkpt>
      <trkpt lat="39.0479810" lon="1.3532670">
        <ele>211.4</ele>
        <time>2020-02-22T11:16:49Z</time>
      </trkpt>
      <trkpt lat="39.0479920" lon="1.3532640">
        <ele>211.5</ele>
        <time>2020-02-22T11:16:50Z</time>
      </trkpt>
      <trkpt lat="39.0480120" lon="1.3532690">
        <ele>211.5</ele>
        <time>2020-02-22T11:16:51Z</time>
      </trkpt>
      <trkpt lat="39.0480280" lon="1.3532550">
        <ele>211.5</ele>
        <time>2020-02-22T11:16:52Z</time>
      </trkpt>
      <trkpt lat="39.0480560" lon="1.3532380">
        <ele>211.6</ele>
        <time>2020-02-22T11:16:53Z</time>
      </trkpt>
      <trkpt lat="39.0480670" lon="1.3532330">
        <ele>211.6</ele>
        <time>2020-02-22T11:16:54Z</time>
      </trkpt>
      <trkpt lat="39.0481050" lon="1.3532230">
        <ele>211.6</ele>
        <time>2020-02-22T11:16:55Z</time>
      </trkpt>
      <trkpt lat="39.0481180" lon="1.3532200">
        <ele>211.6</ele>
        <time>2020-02-22T11:16:56Z</time>
      </trkpt>
      <trkpt lat="39.0481580" lon="1.3532050">
        <ele>211.6</ele>
        <time>2020-02-22T11:16:57Z</time>
      </trkpt>
      <trkpt lat="39.0481720" lon="1.3531950">
        <ele>211.6</ele>
        <time>2020-02-22T11:16:58Z</time>
      </trkpt>
      <trkpt lat="39.0482010" lon="1.3531790">
        <ele>211.6</ele>
        <time>2020-02-22T11:16:59Z</time>
      </trkpt>
      <trkpt lat="39.0482330" lon="1.3531700">
        <ele>211.6</ele>
        <time>2020-02-22T11:17:00Z</time>
      </trkpt>
      <trkpt lat="39.0482630" lon="1.3531540">
        <ele>211.6</ele>
        <time>2020-02-22T11:17:01Z</time>
      </trkpt>
      <trkpt lat="39.0482940" lon="1.3531470">
        <ele>211.6</ele>
        <time>2020-02-22T11:17:02Z</time>
      </trkpt>
      <trkpt lat="39.0483240" lon="1.3531350">
        <ele>211.7</ele>
        <time>2020-02-22T11:17:03Z</time>
      </trkpt>
      <trkpt lat="39.0483540" lon="1.3531190">
        <ele>211.7</ele>
        <time>2020-02-22T11:17:04Z</time>
      </trkpt>
      <trkpt lat="39.0483830" lon="1.3531020">
        <ele>211.7</ele>
        <time>2020-02-22T11:17:05Z</time>
      </trkpt>
      <trkpt lat="39.0484120" lon="1.3530900">
        <ele>211.8</ele>
        <time>2020-02-22T11:17:06Z</time>
      </trkpt>
      <trkpt lat="39.0484390" lon="1.3530850">
        <ele>211.8</ele>
        <time>2020-02-22T11:17:07Z</time>
      </trkpt>
      <trkpt lat="39.0484660" lon="1.3530750">
        <ele>211.9</ele>
        <time>2020-02-22T11:17:08Z</time>
      </trkpt>
      <trkpt lat="39.0484970" lon="1.3530660">
        <ele>212.0</ele>
        <time>2020-02-22T11:17:09Z</time>
      </trkpt>
      <trkpt lat="39.0485280" lon="1.3530460">
        <ele>212.1</ele>
        <time>2020-02-22T11:17:10Z</time>
      </trkpt>
      <trkpt lat="39.0485540" lon="1.3530140">
        <ele>212.3</ele>
        <time>2020-02-22T11:17:11Z</time>
      </trkpt>
      <trkpt lat="39.0485790" lon="1.3529850">
        <ele>212.5</ele>
        <time>2020-02-22T11:17:12Z</time>
      </trkpt>
      <trkpt lat="39.0486020" lon="1.3529540">
        <ele>212.7</ele>
        <time>2020-02-22T11:17:13Z</time>
      </trkpt>
      <trkpt lat="39.0486220" lon="1.3529200">
        <ele>212.9</ele>
        <time>2020-02-22T11:17:14Z</time>
      </trkpt>
      <trkpt lat="39.0486460" lon="1.3528930">
        <ele>213.1</ele>
        <time>2020-02-22T11:17:15Z</time>
      </trkpt>
      <trkpt lat="39.0486660" lon="1.3528590">
        <ele>213.3</ele>
        <time>2020-02-22T11:17:16Z</time>
      </trkpt>
      <trkpt lat="39.0486850" lon="1.3528280">
        <ele>213.6</ele>
        <time>2020-02-22T11:17:17Z</time>
      </trkpt>
      <trkpt lat="39.0487050" lon="1.3527970">
        <ele>213.8</ele>
        <time>2020-02-22T11:17:18Z</time>
      </trkpt>
      <trkpt lat="39.0487250" lon="1.3527660">
        <ele>214.1</ele>
        <time>2020-02-22T11:17:19Z</time>
      </trkpt>
      <trkpt lat="39.0487490" lon="1.3527390">
        <ele>214.4</ele>
        <time>2020-02-22T11:17:20Z</time>
      </trkpt>
      <trkpt lat="39.0487680" lon="1.3527080">
        <ele>214.6</ele>
        <time>2020-02-22T11:17:21Z</time>
      </trkpt>
      <trkpt lat="39.0487870" lon="1.3526780">
        <ele>214.9</ele>
        <time>2020-02-22T11:17:22Z</time>
      </trkpt>
      <trkpt lat="39.0488070" lon="1.3526500">
        <ele>215.1</ele>
        <time>2020-02-22T11:17:23Z</time>
      </trkpt>
      <trkpt lat="39.0488240" lon="1.3526160">
        <ele>215.4</ele>
        <time>2020-02-22T11:17:24Z</time>
      </trkpt>
      <trkpt lat="39.0488380" lon="1.3525810">
        <ele>215.7</ele>
        <time>2020-02-22T11:17:25Z</time>
      </trkpt>
      <trkpt lat="39.0488490" lon="1.3525440">
        <ele>215.9</ele>
        <time>2020-02-22T11:17:26Z</time>
      </trkpt>
      <trkpt lat="39.0488710" lon="1.3525200">
        <ele>216.2</ele>
        <time>2020-02-22T11:17:27Z</time>
      </trkpt>
      <trkpt lat="39.0488940" lon="1.3524930">
        <ele>216.4</ele>
        <time>2020-02-22T11:17:28Z</time>
      </trkpt>
      <trkpt lat="39.0489130" lon="1.3524640">
        <ele>216.6</ele>
        <time>2020-02-22T11:17:29Z</time>
      </trkpt>
      <trkpt lat="39.0489430" lon="1.3524410">
        <ele>216.9</ele>
        <time>2020-02-22T11:17:30Z</time>
      </trkpt>
      <trkpt lat="39.0489530" lon="1.3524340">
        <ele>217.0</ele>
        <time>2020-02-22T11:17:31Z</time>
      </trkpt>
      <trkpt lat="39.0489860" lon="1.3524260">
        <ele>217.2</ele>
        <time>2020-02-22T11:17:32Z</time>
      </trkpt>
      <trkpt lat="39.0489960" lon="1.3524200">
        <ele>217.3</ele>
        <time>2020-02-22T11:17:33Z</time>
      </trkpt>
      <trkpt lat="39.0490300" lon="1.3524040">
        <ele>217.6</ele>
        <time>2020-02-22T11:17:34Z</time>
      </trkpt>
      <trkpt lat="39.0490420" lon="1.3524020">
        <ele>217.7</ele>
        <time>2020-02-22T11:17:35Z</time>
      </trkpt>
      <trkpt lat="39.0490770" lon="1.3523880">
        <ele>218.0</ele>
        <time>2020-02-22T11:17:36Z</time>
      </trkpt>
      <trkpt lat="39.0490870" lon="1.3523810">
        <ele>218.1</ele>
        <time>2020-02-22T11:17:37Z</time>
      </trkpt>
      <trkpt lat="39.0491160" lon="1.3523680">
        <ele>218.3</ele>
        <time>2020-02-22T11:17:38Z</time>
      </trkpt>
      <trkpt lat="39.0491250" lon="1.3523650">
        <ele>218.4</ele>
        <time>2020-02-22T11:17:39Z</time>
      </trkpt>
      <trkpt lat="39.0491590" lon="1.3523520">
        <ele>218.7</ele>
        <time>2020-02-22T11:17:40Z</time>
      </trkpt>
      <trkpt lat="39.0491710" lon="1.3523460">
        <ele>218.8</ele>
        <time>2020-02-22T11:17:41Z</time>
      </trkpt>
      <trkpt lat="39.0492060" lon="1.3523270">
        <ele>219.1</ele>
        <time>2020-02-22T11:17:42Z</time>
      </trkpt>
      <trkpt lat="39.0492180" lon="1.3523230">
        <ele>219.1</ele>
        <time>2020-02-22T11:17:43Z</time>
      </trkpt>
      <trkpt lat="39.0492450" lon="1.3523040">
        <ele>219.4</ele>
        <time>2020-02-22T11:17:44Z</time>
      </trkpt>
      <trkpt lat="39.0492770" lon="1.3522730">
        <ele>219.7</ele>
        <time>2020-02-22T11:17:45Z</time>
      </trkpt>
      <trkpt lat="39.0492880" lon="1.3522620">
        <ele>219.8</ele>
        <time>2020-02-22T11:17:46Z</time>
      </trkpt>
      <trkpt lat="39.0493130" lon="1.3522440">
        <ele>220.0</ele>
        <time>2020-02-22T11:17:47Z</time>
      </trkpt>
      <trkpt lat="39.0493470" lon="1.3522360">
        <ele>220.3</ele>
        <time>2020-02-22T11:17:48Z</time>
      </trkpt>
      <trkpt lat="39.0493560" lon="1.3522300">
        <ele>220.4</ele>
        <time>2020-02-22T11:17:49Z</time>
      </trkpt>
      <trkpt lat="39.0493840" lon="1.3522040">
        <ele>220.6</ele>
        <time>2020-02-22T11:17:50Z</time>
      </trkpt>
      <trkpt lat="39.0493940" lon="1.3521970">
        <ele>220.7</ele>
        <time>2020-02-22T11:17:51Z</time>
      </trkpt>
      <trkpt lat="39.0494270" lon="1.3521850">
        <ele>221.0</ele>
        <time>2020-02-22T11:17:52Z</time>
      </trkpt>
      <trkpt lat="39.0494370" lon="1.3521790">
        <ele>221.1</ele>
        <time>2020-02-22T11:17:53Z</time>
      </trkpt>
      <trkpt lat="39.0494580" lon="1.3521500">
        <ele>221.4</ele>
        <time>2020-02-22T11:17:54Z</time>
      </trkpt>
      <trkpt lat="39.0494640" lon="1.3521390">
        <ele>221.4</ele>
        <time>2020-02-22T11:17:55Z</time>
      </trkpt>
      <trkpt lat="39.0494900" lon="1.3521180">
        <ele>221.7</ele>
        <time>2020-02-22T11:17:56Z</time>
      </trkpt>
      <trkpt lat="39.0494980" lon="1.3521130">
        <ele>221.8</ele>
        <time>2020-02-22T11:17:57Z</time>
      </trkpt>
      <trkpt lat="39.0495260" lon="1.3520900">
        <ele>222.1</ele>
        <time>2020-02-22T11:17:58Z</time>
      </trkpt>
      <trkpt lat="39.0495360" lon="1.3520830">
        <ele>222.2</ele>
        <time>2020-02-22T11:17:59Z</time>
      </trkpt>
      <trkpt lat="39.0495710" lon="1.3520780">
        <ele>222.5</ele>
        <time>2020-02-22T11:18:00Z</time>
      </trkpt>
      <trkpt lat="39.0495810" lon="1.3520750">
        <ele>222.6</ele>
        <time>2020-02-22T11:18:01Z</time>
      </trkpt>
      <trkpt lat="39.0496010" lon="1.3520480">
        <ele>222.8</ele>
        <time>2020-02-22T11:18:02Z</time>
      </trkpt>
      <trkpt lat="39.0496090" lon="1.3520400">
        <ele>222.9</ele>
        <time>2020-02-22T11:18:03Z</time>
      </trkpt>
      <trkpt lat="39.0496390" lon="1.3520320">
        <ele>223.2</ele>
        <time>2020-02-22T11:18:04Z</time>
      </trkpt>
      <trkpt lat="39.0496500" lon="1.3520310">
        <ele>223.3</ele>
        <time>2020-02-22T11:18:05Z</time>
      </trkpt>
      <trkpt lat="39.0496740" lon="1.3519990">
        <ele>223.6</ele>
        <time>2020-02-22T11:18:06Z</time>
      </trkpt>
      <trkpt lat="39.0496830" lon="1.3519910">
        <ele>223.7</ele>
        <time>2020-02-22T11:18:07Z</time>
      </trkpt>
      <trkpt lat="39.0497060" lon="1.3519470">
        <ele>224.1</ele>
        <time>2020-02-22T11:18:08Z</time>
      </trkpt>
      <trkpt lat="39.0497160" lon="1.3519300">
        <ele>224.3</ele>
        <time>2020-02-22T11:18:09Z</time>
      </trkpt>
      <trkpt lat="39.0497450" lon="1.3518990">
        <ele>224.6</ele>
        <time>2020-02-22T11:18:10Z</time>
      </trkpt>
      <trkpt lat="39.0497530" lon="1.3518890">
        <ele>224.7</ele>
        <time>2020-02-22T11:18:11Z</time>
      </trkpt>
      <trkpt lat="39.0497810" lon="1.3518680">
        <ele>225.0</ele>
        <time>2020-02-22T11:18:12Z</time>
      </trkpt>
      <trkpt lat="39.0497930" lon="1.3518640">
        <ele>225.1</ele>
        <time>2020-02-22T11:18:13Z</time>
      </trkpt>
      <trkpt lat="39.0498180" lon="1.3518380">
        <ele>225.4</ele>
        <time>2020-02-22T11:18:14Z</time>
      </trkpt>
      <trkpt lat="39.0498250" lon="1.3518290">
        <ele>225.5</ele>
        <time>2020-02-22T11:18:15Z</time>
      </trkpt>
      <trkpt lat="39.0498630" lon="1.3518020">
        <ele>225.8</ele>
        <time>2020-02-22T11:18:16Z</time>
      </trkpt>
      <trkpt lat="39.0498770" lon="1.3517890">
        <ele>225.9</ele>
        <time>2020-02-22T11:18:17Z</time>
      </trkpt>
      <trkpt lat="39.0498980" lon="1.3517620">
        <ele>226.2</ele>
        <time>2020-02-22T11:18:18Z</time>
      </trkpt>
      <trkpt lat="39.0499110" lon="1.3517290">
        <ele>226.4</ele>
        <time>2020-02-22T11:18:19Z</time>
      </trkpt>
      <trkpt lat="39.0499370" lon="1.3516940">
        <ele>226.7</ele>
        <time>2020-02-22T11:18:20Z</time>
      </trkpt>
      <trkpt lat="39.0499470" lon="1.3516850">
        <ele>226.8</ele>
        <time>2020-02-22T11:18:21Z</time>
      </trkpt>
      <trkpt lat="39.0499700" lon="1.3516580">
        <ele>227.0</ele>
        <time>2020-02-22T11:18:22Z</time>
      </trkpt>
      <trkpt lat="39.0499820" lon="1.3516540">
        <ele>227.1</ele>
        <time>2020-02-22T11:18:23Z</time>
      </trkpt>
      <trkpt lat="39.0500090" lon="1.3516250">
        <ele>227.3</ele>
        <time>2020-02-22T11:18:24Z</time>
      </trkpt>
      <trkpt lat="39.0500190" lon="1.3516180">
        <ele>227.4</ele>
        <time>2020-02-22T11:18:25Z</time>
      </trkpt>
      <trkpt lat="39.0500530" lon="1.3516000">
        <ele>227.6</ele>
        <time>2020-02-22T11:18:26Z</time>
      </trkpt>
      <trkpt lat="39.0500630" lon="1.3515920">
        <ele>227.6</ele>
        <time>2020-02-22T11:18:27Z</time>
      </trkpt>
      <trkpt lat="39.0500900" lon="1.3515640">
        <ele>227.8</ele>
        <time>2020-02-22T11:18:28Z</time>
      </trkpt>
      <trkpt lat="39.0500970" lon="1.3515530">
        <ele>227.9</ele>
        <time>2020-02-22T11:18:29Z</time>
      </trkpt>
      <trkpt lat="39.0501310" lon="1.3515400">
        <ele>228.1</ele>
        <time>2020-02-22T11:18:30Z</time>
      </trkpt>
      <trkpt lat="39.0501400" lon="1.3515320">
        <ele>228.1</ele>
        <time>2020-02-22T11:18:31Z</time>
      </trkpt>
      <trkpt lat="39.0501670" lon="1.3515060">
        <ele>228.3</ele>
        <time>2020-02-22T11:18:32Z</time>
      </trkpt>
      <trkpt lat="39.0501760" lon="1.3514970">
        <ele>228.3</ele>
        <time>2020-02-22T11:18:33Z</time>
      </trkpt>
      <trkpt lat="39.0501970" lon="1.3514610">
        <ele>228.5</ele>
        <time>2020-02-22T11:18:34Z</time>
      </trkpt>
      <trkpt lat="39.0502030" lon="1.3514440">
        <ele>228.5</ele>
        <time>2020-02-22T11:18:35Z</time>
      </trkpt>
      <trkpt lat="39.0502300" lon="1.3514200">
        <ele>228.6</ele>
        <time>2020-02-22T11:18:36Z</time>
      </trkpt>
      <trkpt lat="39.0502380" lon="1.3514080">
        <ele>228.7</ele>
        <time>2020-02-22T11:18:37Z</time>
      </trkpt>
      <trkpt lat="39.0502740" lon="1.3513950">
        <ele>228.8</ele>
        <time>2020-02-22T11:18:38Z</time>
      </trkpt>
      <trkpt lat="39.0502860" lon="1.3513920">
        <ele>228.9</ele>
        <time>2020-02-22T11:18:39Z</time>
      </trkpt>
      <trkpt lat="39.0503220" lon="1.3513740">
        <ele>229.0</ele>
        <time>2020-02-22T11:18:40Z</time>
      </trkpt>
      <trkpt lat="39.0503360" lon="1.3513700">
        <ele>229.1</ele>
        <time>2020-02-22T11:18:41Z</time>
      </trkpt>
      <trkpt lat="39.0503720" lon="1.3513510">
        <ele>229.3</ele>
        <time>2020-02-22T11:18:42Z</time>
      </trkpt>
      <trkpt lat="39.0503840" lon="1.3513460">
        <ele>229.4</ele>
        <time>2020-02-22T11:18:43Z</time>
      </trkpt>
      <trkpt lat="39.0504160" lon="1.3513280">
        <ele>229.6</ele>
        <time>2020-02-22T11:18:44Z</time>
      </trkpt>
      <trkpt lat="39.0504270" lon="1.3513220">
        <ele>229.6</ele>
        <time>2020-02-22T11:18:45Z</time>
      </trkpt>
      <trkpt lat="39.0504600" lon="1.3512940">
        <ele>229.9</ele>
        <time>2020-02-22T11:18:46Z</time>
      </trkpt>
      <trkpt lat="39.0504690" lon="1.3512830">
        <ele>230.0</ele>
        <time>2020-02-22T11:18:47Z</time>
      </trkpt>
      <trkpt lat="39.0505010" lon="1.3512560">
        <ele>230.2</ele>
        <time>2020-02-22T11:18:48Z</time>
      </trkpt>
      <trkpt lat="39.0505090" lon="1.3512430">
        <ele>230.3</ele>
        <time>2020-02-22T11:18:49Z</time>
      </trkpt>
      <trkpt lat="39.0505410" lon="1.3512260">
        <ele>230.4</ele>
        <time>2020-02-22T11:18:50Z</time>
      </trkpt>
      <trkpt lat="39.0505540" lon="1.3512270">
        <ele>230.5</ele>
        <time>2020-02-22T11:18:51Z</time>
      </trkpt>
      <trkpt lat="39.0505890" lon="1.3512070">
        <ele>230.7</ele>
        <time>2020-02-22T11:18:52Z</time>
      </trkpt>
      <trkpt lat="39.0506000" lon="1.3512030">
        <ele>230.8</ele>
        <time>2020-02-22T11:18:53Z</time>
      </trkpt>
      <trkpt lat="39.0506310" lon="1.3511940">
        <ele>230.9</ele>
        <time>2020-02-22T11:18:54Z</time>
      </trkpt>
      <trkpt lat="39.0506410" lon="1.3511890">
        <ele>231.0</ele>
        <time>2020-02-22T11:18:55Z</time>
      </trkpt>
      <trkpt lat="39.0506690" lon="1.3511650">
        <ele>231.1</ele>
        <time>2020-02-22T11:18:56Z</time>
      </trkpt>
      <trkpt lat="39.0506780" lon="1.3511550">
        <ele>231.2</ele>
        <time>2020-02-22T11:18:57Z</time>
      </trkpt>
      <trkpt lat="39.0507070" lon="1.3511360">
        <ele>231.3</ele>
        <time>2020-02-22T11:18:58Z</time>
      </trkpt>
      <trkpt lat="39.0507160" lon="1.3511300">
        <ele>231.3</ele>
        <time>2020-02-22T11:18:59Z</time>
      </trkpt>
      <trkpt lat="39.0507430" lon="1.3511110">
        <ele>231.4</ele>
        <time>2020-02-22T11:19:00Z</time>
      </trkpt>
      <trkpt lat="39.0507540" lon="1.3511090">
        <ele>231.5</ele>
        <time>2020-02-22T11:19:01Z</time>
      </trkpt>
      <trkpt lat="39.0507820" lon="1.3510900">
        <ele>231.7</ele>
        <time>2020-02-22T11:19:02Z</time>
      </trkpt>
      <trkpt lat="39.0507930" lon="1.3510860">
        <ele>231.9</ele>
        <time>2020-02-22T11:19:03Z</time>
      </trkpt>
      <trkpt lat="39.0508290" lon="1.3510990">
        <ele>232.8</ele>
        <time>2020-02-22T11:19:04Z</time>
      </trkpt>
      <trkpt lat="39.0508390" lon="1.3511050">
        <ele>233.0</ele>
        <time>2020-02-22T11:19:05Z</time>
      </trkpt>
      <trkpt lat="39.0508490" lon="1.3511260">
        <ele>233.5</ele>
        <time>2020-02-22T11:19:06Z</time>
      </trkpt>
      <trkpt lat="39.0508560" lon="1.3511260">
        <ele>233.7</ele>
        <time>2020-02-22T11:19:07Z</time>
      </trkpt>
      <trkpt lat="39.0508610" lon="1.3511100">
        <ele>234.0</ele>
        <time>2020-02-22T11:19:08Z</time>
      </trkpt>
      <trkpt lat="39.0508600" lon="1.3511080">
        <ele>234.0</ele>
        <time>2020-02-22T11:19:09Z</time>
      </trkpt>
      <trkpt lat="39.0508610" lon="1.3511090">
        <ele>234.1</ele>
        <time>2020-02-22T11:19:10Z</time>
      </trkpt>
      <trkpt lat="39.0508630" lon="1.3511060">
        <ele>234.1</ele>
        <time>2020-02-22T11:19:11Z</time>
      </trkpt>
      <trkpt lat="39.0508640" lon="1.3511100">
        <ele>234.2</ele>
        <time>2020-02-22T11:19:12Z</time>
      </trkpt>
      <trkpt lat="39.0508660" lon="1.3511090">
        <ele>234.3</ele>
        <time>2020-02-22T11:19:13Z</time>
      </trkpt>
      <trkpt lat="39.0508690" lon="1.3511040">
        <ele>234.4</ele>
        <time>2020-02-22T11:19:14Z</time>
      </trkpt>
      <trkpt lat="39.0508710" lon="1.3511090">
        <ele>234.5</ele>
        <time>2020-02-22T11:19:15Z</time>
      </trkpt>
      <trkpt lat="39.0508790" lon="1.3511190">
        <ele>234.8</ele>
        <time>2020-02-22T11:19:16Z</time>
      </trkpt>
      <trkpt lat="39.0508900" lon="1.3511390">
        <ele>235.1</ele>
        <time>2020-02-22T11:19:17Z</time>
      </trkpt>
      <trkpt lat="39.0508940" lon="1.3511910">
        <ele>235.7</ele>
        <time>2020-02-22T11:19:18Z</time>
      </trkpt>
      <trkpt lat="39.0508950" lon="1.3512090">
        <ele>235.9</ele>
        <time>2020-02-22T11:19:19Z</time>
      </trkpt>
      <trkpt lat="39.0508930" lon="1.3512540">
        <ele>236.4</ele>
        <time>2020-02-22T11:19:20Z</time>
      </trkpt>
      <trkpt lat="39.0508920" lon="1.3512690">
        <ele>236.6</ele>
        <time>2020-02-22T11:19:21Z</time>
      </trkpt>
      <trkpt lat="39.0508820" lon="1.3513150">
        <ele>237.0</ele>
        <time>2020-02-22T11:19:22Z</time>
      </trkpt>
      <trkpt lat="39.0508800" lon="1.3513320">
        <ele>237.1</ele>
        <time>2020-02-22T11:19:23Z</time>
      </trkpt>
      <trkpt lat="39.0508790" lon="1.3513790">
        <ele>237.5</ele>
        <time>2020-02-22T11:19:24Z</time>
      </trkpt>
      <trkpt lat="39.0508800" lon="1.3513950">
        <ele>237.6</ele>
        <time>2020-02-22T11:19:25Z</time>
      </trkpt>
      <trkpt lat="39.0508910" lon="1.3514420">
        <ele>238.0</ele>
        <time>2020-02-22T11:19:26Z</time>
      </trkpt>
      <trkpt lat="39.0508940" lon="1.3514570">
        <ele>238.2</ele>
        <time>2020-02-22T11:19:27Z</time>
      </trkpt>
      <trkpt lat="39.0508930" lon="1.3515070">
        <ele>238.6</ele>
        <time>2020-02-22T11:19:28Z</time>
      </trkpt>
      <trkpt lat="39.0508870" lon="1.3515250">
        <ele>238.8</ele>
        <time>2020-02-22T11:19:29Z</time>
      </trkpt>
      <trkpt lat="39.0508940" lon="1.3515690">
        <ele>239.2</ele>
        <time>2020-02-22T11:19:30Z</time>
      </trkpt>
      <trkpt lat="39.0508960" lon="1.3515840">
        <ele>239.4</ele>
        <time>2020-02-22T11:19:31Z</time>
      </trkpt>
      <trkpt lat="39.0509140" lon="1.3516290">
        <ele>239.9</ele>
        <time>2020-02-22T11:19:32Z</time>
      </trkpt>
      <trkpt lat="39.0509190" lon="1.3516450">
        <ele>240.1</ele>
        <time>2020-02-22T11:19:33Z</time>
      </trkpt>
      <trkpt lat="39.0509380" lon="1.3516910">
        <ele>240.5</ele>
        <time>2020-02-22T11:19:34Z</time>
      </trkpt>
      <trkpt lat="39.0509440" lon="1.3517070">
        <ele>240.7</ele>
        <time>2020-02-22T11:19:35Z</time>
      </trkpt>
      <trkpt lat="39.0509550" lon="1.3517520">
        <ele>241.0</ele>
        <time>2020-02-22T11:19:36Z</time>
      </trkpt>
      <trkpt lat="39.0509550" lon="1.3517670">
        <ele>241.1</ele>
        <time>2020-02-22T11:19:37Z</time>
      </trkpt>
      <trkpt lat="39.0509590" lon="1.3517890">
        <ele>241.3</ele>
        <time>2020-02-22T11:19:38Z</time>
      </trkpt>
      <trkpt lat="39.0509680" lon="1.3518090">
        <ele>241.4</ele>
        <time>2020-02-22T11:19:39Z</time>
      </trkpt>
      <trkpt lat="39.0509790" lon="1.3518520">
        <ele>241.7</ele>
        <time>2020-02-22T11:19:40Z</time>
      </trkpt>
      <trkpt lat="39.0509840" lon="1.3518660">
        <ele>241.9</ele>
        <time>2020-02-22T11:19:41Z</time>
      </trkpt>
      <trkpt lat="39.0510000" lon="1.3519020">
        <ele>242.2</ele>
        <time>2020-02-22T11:19:42Z</time>
      </trkpt>
      <trkpt lat="39.0510040" lon="1.3519150">
        <ele>242.3</ele>
        <time>2020-02-22T11:19:43Z</time>
      </trkpt>
      <trkpt lat="39.0510030" lon="1.3519370">
        <ele>242.4</ele>
        <time>2020-02-22T11:19:44Z</time>
      </trkpt>
      <trkpt lat="39.0510030" lon="1.3519600">
        <ele>242.6</ele>
        <time>2020-02-22T11:19:45Z</time>
      </trkpt>
      <trkpt lat="39.0510070" lon="1.3519980">
        <ele>242.8</ele>
        <time>2020-02-22T11:19:46Z</time>
      </trkpt>
      <trkpt lat="39.0510090" lon="1.3520110">
        <ele>242.9</ele>
        <time>2020-02-22T11:19:47Z</time>
      </trkpt>
      <trkpt lat="39.0510220" lon="1.3520460">
        <ele>243.1</ele>
        <time>2020-02-22T11:19:48Z</time>
      </trkpt>
      <trkpt lat="39.0510230" lon="1.3520580">
        <ele>243.1</ele>
        <time>2020-02-22T11:19:49Z</time>
      </trkpt>
      <trkpt lat="39.0510170" lon="1.3520930">
        <ele>243.2</ele>
        <time>2020-02-22T11:19:50Z</time>
      </trkpt>
      <trkpt lat="39.0510140" lon="1.3521040">
        <ele>243.3</ele>
        <time>2020-02-22T11:19:51Z</time>
      </trkpt>
      <trkpt lat="39.0510080" lon="1.3521390">
        <ele>243.4</ele>
        <time>2020-02-22T11:19:52Z</time>
      </trkpt>
      <trkpt lat="39.0510070" lon="1.3521500">
        <ele>243.5</ele>
        <time>2020-02-22T11:19:53Z</time>
      </trkpt>
      <trkpt lat="39.0510140" lon="1.3521860">
        <ele>243.6</ele>
        <time>2020-02-22T11:19:54Z</time>
      </trkpt>
      <trkpt lat="39.0510170" lon="1.3521990">
        <ele>243.7</ele>
        <time>2020-02-22T11:19:55Z</time>
      </trkpt>
      <trkpt lat="39.0510240" lon="1.3522210">
        <ele>243.8</ele>
        <time>2020-02-22T11:19:56Z</time>
      </trkpt>
      <trkpt lat="39.0510270" lon="1.3522430">
        <ele>244.0</ele>
        <time>2020-02-22T11:19:57Z</time>
      </trkpt>
      <trkpt lat="39.0510270" lon="1.3522770">
        <ele>244.1</ele>
        <time>2020-02-22T11:19:58Z</time>
      </trkpt>
      <trkpt lat="39.0510230" lon="1.3522890">
        <ele>244.2</ele>
        <time>2020-02-22T11:19:59Z</time>
      </trkpt>
      <trkpt lat="39.0510300" lon="1.3523080">
        <ele>244.2</ele>
        <time>2020-02-22T11:20:00Z</time>
      </trkpt>
      <trkpt lat="39.0510250" lon="1.3523320">
        <ele>244.3</ele>
        <time>2020-02-22T11:20:01Z</time>
      </trkpt>
      <trkpt lat="39.0510430" lon="1.3523650">
        <ele>244.4</ele>
        <time>2020-02-22T11:20:02Z</time>
      </trkpt>
      <trkpt lat="39.0510480" lon="1.3523770">
        <ele>244.4</ele>
        <time>2020-02-22T11:20:03Z</time>
      </trkpt>
      <trkpt lat="39.0510520" lon="1.3524140">
        <ele>244.5</ele>
        <time>2020-02-22T11:20:04Z</time>
      </trkpt>
      <trkpt lat="39.0510510" lon="1.3524270">
        <ele>244.6</ele>
        <time>2020-02-22T11:20:05Z</time>
      </trkpt>
      <trkpt lat="39.0510560" lon="1.3524630">
        <ele>244.7</ele>
        <time>2020-02-22T11:20:06Z</time>
      </trkpt>
      <trkpt lat="39.0510570" lon="1.3524760">
        <ele>244.7</ele>
        <time>2020-02-22T11:20:07Z</time>
      </trkpt>
      <trkpt lat="39.0510650" lon="1.3525160">
        <ele>244.8</ele>
        <time>2020-02-22T11:20:08Z</time>
      </trkpt>
      <trkpt lat="39.0510670" lon="1.3525310">
        <ele>244.9</ele>
        <time>2020-02-22T11:20:09Z</time>
      </trkpt>
      <trkpt lat="39.0510690" lon="1.3525790">
        <ele>245.0</ele>
        <time>2020-02-22T11:20:10Z</time>
      </trkpt>
      <trkpt lat="39.0510690" lon="1.3525960">
        <ele>245.0</ele>
        <time>2020-02-22T11:20:11Z</time>
      </trkpt>
      <trkpt lat="39.0510750" lon="1.3526440">
        <ele>245.1</ele>
        <time>2020-02-22T11:20:12Z</time>
      </trkpt>
      <trkpt lat="39.0510780" lon="1.3526590">
        <ele>245.1</ele>
        <time>2020-02-22T11:20:13Z</time>
      </trkpt>
      <trkpt lat="39.0510710" lon="1.3527040">
        <ele>245.2</ele>
        <time>2020-02-22T11:20:14Z</time>
      </trkpt>
      <trkpt lat="39.0510700" lon="1.3527200">
        <ele>245.2</ele>
        <time>2020-02-22T11:20:15Z</time>
      </trkpt>
      <trkpt lat="39.0510670" lon="1.3527560">
        <ele>245.3</ele>
        <time>2020-02-22T11:20:16Z</time>
      </trkpt>
      <trkpt lat="39.0510610" lon="1.3528050">
        <ele>245.3</ele>
        <time>2020-02-22T11:20:17Z</time>
      </trkpt>
      <trkpt lat="39.0510610" lon="1.3528200">
        <ele>245.4</ele>
        <time>2020-02-22T11:20:18Z</time>
      </trkpt>
      <trkpt lat="39.0510560" lon="1.3528640">
        <ele>245.4</ele>
        <time>2020-02-22T11:20:19Z</time>
      </trkpt>
      <trkpt lat="39.0510540" lon="1.3528800">
        <ele>245.4</ele>
        <time>2020-02-22T11:20:20Z</time>
      </trkpt>
      <trkpt lat="39.0510310" lon="1.3529190">
        <ele>245.5</ele>
        <time>2020-02-22T11:20:21Z</time>
      </trkpt>
      <trkpt lat="39.0510220" lon="1.3529310">
        <ele>245.5</ele>
        <time>2020-02-22T11:20:22Z</time>
      </trkpt>
      <trkpt lat="39.0509920" lon="1.3529660">
        <ele>245.5</ele>
        <time>2020-02-22T11:20:23Z</time>
      </trkpt>
      <trkpt lat="39.0509810" lon="1.3529770">
        <ele>245.6</ele>
        <time>2020-02-22T11:20:24Z</time>
      </trkpt>
      <trkpt lat="39.0509630" lon="1.3530100">
        <ele>245.6</ele>
        <time>2020-02-22T11:20:25Z</time>
      </trkpt>
      <trkpt lat="39.0509420" lon="1.3530360">
        <ele>245.6</ele>
        <time>2020-02-22T11:20:26Z</time>
      </trkpt>
      <trkpt lat="39.0509060" lon="1.3530490">
        <ele>245.7</ele>
        <time>2020-02-22T11:20:27Z</time>
      </trkpt>
      <trkpt lat="39.0508950" lon="1.3530540">
        <ele>245.7</ele>
        <time>2020-02-22T11:20:28Z</time>
      </trkpt>
      <trkpt lat="39.0508640" lon="1.3530540">
        <ele>245.7</ele>
        <time>2020-02-22T11:20:29Z</time>
      </trkpt>
      <trkpt lat="39.0508250" lon="1.3530690">
        <ele>245.7</ele>
        <time>2020-02-22T11:20:30Z</time>
      </trkpt>
      <trkpt lat="39.0507840" lon="1.3530970">
        <ele>245.7</ele>
        <time>2020-02-22T11:20:31Z</time>
      </trkpt>
      <trkpt lat="39.0507370" lon="1.3531140">
        <ele>245.8</ele>
        <time>2020-02-22T11:20:32Z</time>
      </trkpt>
      <trkpt lat="39.0506990" lon="1.3531510">
        <ele>245.8</ele>
        <time>2020-02-22T11:20:33Z</time>
      </trkpt>
      <trkpt lat="39.0506640" lon="1.3531920">
        <ele>245.8</ele>
        <time>2020-02-22T11:20:34Z</time>
      </trkpt>
      <trkpt lat="39.0506420" lon="1.3532400">
        <ele>245.9</ele>
        <time>2020-02-22T11:20:35Z</time>
      </trkpt>
      <trkpt lat="39.0506270" lon="1.3532950">
        <ele>245.9</ele>
        <time>2020-02-22T11:20:36Z</time>
      </trkpt>
      <trkpt lat="39.0506230" lon="1.3533500">
        <ele>246.0</ele>
        <time>2020-02-22T11:20:37Z</time>
      </trkpt>
      <trkpt lat="39.0506210" lon="1.3534090">
        <ele>246.0</ele>
        <time>2020-02-22T11:20:38Z</time>
      </trkpt>
      <trkpt lat="39.0506220" lon="1.3534690">
        <ele>246.1</ele>
        <time>2020-02-22T11:20:39Z</time>
      </trkpt>
      <trkpt lat="39.0506150" lon="1.3535300">
        <ele>246.2</ele>
        <time>2020-02-22T11:20:40Z</time>
      </trkpt>
      <trkpt lat="39.0506230" lon="1.3535820">
        <ele>246.3</ele>
        <time>2020-02-22T11:20:41Z</time>
      </trkpt>
      <trkpt lat="39.0506380" lon="1.3536280">
        <ele>246.4</ele>
        <time>2020-02-22T11:20:42Z</time>
      </trkpt>
      <trkpt lat="39.0506500" lon="1.3536740">
        <ele>246.5</ele>
        <time>2020-02-22T11:20:43Z</time>
      </trkpt>
      <trkpt lat="39.0506660" lon="1.3537180">
        <ele>246.6</ele>
        <time>2020-02-22T11:20:44Z</time>
      </trkpt>
      <trkpt lat="39.0506830" lon="1.3537610">
        <ele>246.7</ele>
        <time>2020-02-22T11:20:45Z</time>
      </trkpt>
      <trkpt lat="39.0507010" lon="1.3537980">
        <ele>246.8</ele>
        <time>2020-02-22T11:20:46Z</time>
      </trkpt>
      <trkpt lat="39.0507240" lon="1.3538330">
        <ele>246.9</ele>
        <time>2020-02-22T11:20:47Z</time>
      </trkpt>
      <trkpt lat="39.0507500" lon="1.3538640">
        <ele>247.1</ele>
        <time>2020-02-22T11:20:48Z</time>
      </trkpt>
      <trkpt lat="39.0507770" lon="1.3538870">
        <ele>247.2</ele>
        <time>2020-02-22T11:20:49Z</time>
      </trkpt>
      <trkpt lat="39.0507990" lon="1.3539120">
        <ele>247.4</ele>
        <time>2020-02-22T11:20:50Z</time>
      </trkpt>
      <trkpt lat="39.0508210" lon="1.3539350">
        <ele>247.5</ele>
        <time>2020-02-22T11:20:51Z</time>
      </trkpt>
      <trkpt lat="39.0508440" lon="1.3539530">
        <ele>247.6</ele>
        <time>2020-02-22T11:20:52Z</time>
      </trkpt>
      <trkpt lat="39.0508710" lon="1.3539710">
        <ele>247.9</ele>
        <time>2020-02-22T11:20:53Z</time>
      </trkpt>
      <trkpt lat="39.0508930" lon="1.3539960">
        <ele>248.2</ele>
        <time>2020-02-22T11:20:54Z</time>
      </trkpt>
      <trkpt lat="39.0509160" lon="1.3540230">
        <ele>248.4</ele>
        <time>2020-02-22T11:20:55Z</time>
      </trkpt>
      <trkpt lat="39.0509390" lon="1.3540440">
        <ele>248.6</ele>
        <time>2020-02-22T11:20:56Z</time>
      </trkpt>
      <trkpt lat="39.0509730" lon="1.3540640">
        <ele>248.9</ele>
        <time>2020-02-22T11:20:57Z</time>
      </trkpt>
      <trkpt lat="39.0509850" lon="1.3540680">
        <ele>249.0</ele>
        <time>2020-02-22T11:20:58Z</time>
      </trkpt>
      <trkpt lat="39.0510210" lon="1.3540770">
        <ele>249.3</ele>
        <time>2020-02-22T11:20:59Z</time>
      </trkpt>
      <trkpt lat="39.0510320" lon="1.3540810">
        <ele>249.4</ele>
        <time>2020-02-22T11:21:00Z</time>
      </trkpt>
      <trkpt lat="39.0510660" lon="1.3540840">
        <ele>249.7</ele>
        <time>2020-02-22T11:21:01Z</time>
      </trkpt>
      <trkpt lat="39.0510770" lon="1.3540850">
        <ele>249.8</ele>
        <time>2020-02-22T11:21:02Z</time>
      </trkpt>
      <trkpt lat="39.0511150" lon="1.3540930">
        <ele>250.1</ele>
        <time>2020-02-22T11:21:03Z</time>
      </trkpt>
      <trkpt lat="39.0511270" lon="1.3540960">
        <ele>250.2</ele>
        <time>2020-02-22T11:21:04Z</time>
      </trkpt>
      <trkpt lat="39.0511600" lon="1.3540950">
        <ele>250.5</ele>
        <time>2020-02-22T11:21:05Z</time>
      </trkpt>
      <trkpt lat="39.0511700" lon="1.3540950">
        <ele>250.6</ele>
        <time>2020-02-22T11:21:06Z</time>
      </trkpt>
      <trkpt lat="39.0512020" lon="1.3540900">
        <ele>250.9</ele>
        <time>2020-02-22T11:21:07Z</time>
      </trkpt>
      <trkpt lat="39.0512130" lon="1.3540870">
        <ele>251.1</ele>
        <time>2020-02-22T11:21:08Z</time>
      </trkpt>
      <trkpt lat="39.0512430" lon="1.3540810">
        <ele>251.4</ele>
        <time>2020-02-22T11:21:09Z</time>
      </trkpt>
      <trkpt lat="39.0512520" lon="1.3540790">
        <ele>251.5</ele>
        <time>2020-02-22T11:21:10Z</time>
      </trkpt>
      <trkpt lat="39.0512860" lon="1.3540830">
        <ele>251.8</ele>
        <time>2020-02-22T11:21:11Z</time>
      </trkpt>
      <trkpt lat="39.0512960" lon="1.3540840">
        <ele>252.0</ele>
        <time>2020-02-22T11:21:12Z</time>
      </trkpt>
      <trkpt lat="39.0513260" lon="1.3540860">
        <ele>252.3</ele>
        <time>2020-02-22T11:21:13Z</time>
      </trkpt>
      <trkpt lat="39.0513360" lon="1.3540810">
        <ele>252.5</ele>
        <time>2020-02-22T11:21:14Z</time>
      </trkpt>
      <trkpt lat="39.0513620" lon="1.3540690">
        <ele>252.8</ele>
        <time>2020-02-22T11:21:15Z</time>
      </trkpt>
      <trkpt lat="39.0513700" lon="1.3540640">
        <ele>252.9</ele>
        <time>2020-02-22T11:21:16Z</time>
      </trkpt>
      <trkpt lat="39.0513980" lon="1.3540560">
        <ele>253.2</ele>
        <time>2020-02-22T11:21:17Z</time>
      </trkpt>
      <trkpt lat="39.0514070" lon="1.3540540">
        <ele>253.3</ele>
        <time>2020-02-22T11:21:18Z</time>
      </trkpt>
      <trkpt lat="39.0514410" lon="1.3540560">
        <ele>253.7</ele>
        <time>2020-02-22T11:21:19Z</time>
      </trkpt>
      <trkpt lat="39.0514520" lon="1.3540530">
        <ele>253.8</ele>
        <time>2020-02-22T11:21:20Z</time>
      </trkpt>
      <trkpt lat="39.0514800" lon="1.3540520">
        <ele>254.1</ele>
        <time>2020-02-22T11:21:21Z</time>
      </trkpt>
      <trkpt lat="39.0514900" lon="1.3540530">
        <ele>254.2</ele>
        <time>2020-02-22T11:21:22Z</time>
      </trkpt>
      <trkpt lat="39.0515230" lon="1.3540560">
        <ele>254.5</ele>
        <time>2020-02-22T11:21:23Z</time>
      </trkpt>
      <trkpt lat="39.0515330" lon="1.3540550">
        <ele>254.6</ele>
        <time>2020-02-22T11:21:24Z</time>
      </trkpt>
      <trkpt lat="39.0515510" lon="1.3540560">
        <ele>254.8</ele>
        <time>2020-02-22T11:21:25Z</time>
      </trkpt>
      <trkpt lat="39.0515690" lon="1.3540550">
        <ele>255.0</ele>
        <time>2020-02-22T11:21:26Z</time>
      </trkpt>
      <trkpt lat="39.0515990" lon="1.3540650">
        <ele>255.5</ele>
        <time>2020-02-22T11:21:27Z</time>
      </trkpt>
      <trkpt lat="39.0516090" lon="1.3540680">
        <ele>255.6</ele>
        <time>2020-02-22T11:21:28Z</time>
      </trkpt>
      <trkpt lat="39.0516410" lon="1.3540730">
        <ele>256.1</ele>
        <time>2020-02-22T11:21:29Z</time>
      </trkpt>
      <trkpt lat="39.0516510" lon="1.3540740">
        <ele>256.2</ele>
        <time>2020-02-22T11:21:30Z</time>
      </trkpt>
      <trkpt lat="39.0516800" lon="1.3540790">
        <ele>256.6</ele>
        <time>2020-02-22T11:21:31Z</time>
      </trkpt>
      <trkpt lat="39.0516900" lon="1.3540790">
        <ele>256.7</ele>
        <time>2020-02-22T11:21:32Z</time>
      </trkpt>
      <trkpt lat="39.0517180" lon="1.3540690">
        <ele>257.1</ele>
        <time>2020-02-22T11:21:33Z</time>
      </trkpt>
      <trkpt lat="39.0517270" lon="1.3540680">
        <ele>257.3</ele>
        <time>2020-02-22T11:21:34Z</time>
      </trkpt>
      <trkpt lat="39.0517430" lon="1.3540690">
        <ele>257.5</ele>
        <time>2020-02-22T11:21:35Z</time>
      </trkpt>
      <trkpt lat="39.0517600" lon="1.3540790">
        <ele>257.7</ele>
        <time>2020-02-22T11:21:36Z</time>
      </trkpt>
      <trkpt lat="39.0517890" lon="1.3540880">
        <ele>258.1</ele>
        <time>2020-02-22T11:21:37Z</time>
      </trkpt>
      <trkpt lat="39.0517990" lon="1.3540880">
        <ele>258.2</ele>
        <time>2020-02-22T11:21:38Z</time>
      </trkpt>
      <trkpt lat="39.0518150" lon="1.3540960">
        <ele>258.3</ele>
        <time>2020-02-22T11:21:39Z</time>
      </trkpt>
      <trkpt lat="39.0518310" lon="1.3540980">
        <ele>258.5</ele>
        <time>2020-02-22T11:21:40Z</time>
      </trkpt>
      <trkpt lat="39.0518470" lon="1.3541020">
        <ele>258.7</ele>
        <time>2020-02-22T11:21:41Z</time>
      </trkpt>
      <trkpt lat="39.0518620" lon="1.3541050">
        <ele>258.8</ele>
        <time>2020-02-22T11:21:42Z</time>
      </trkpt>
      <trkpt lat="39.0518900" lon="1.3541100">
        <ele>259.1</ele>
        <time>2020-02-22T11:21:43Z</time>
      </trkpt>
      <trkpt lat="39.0518990" lon="1.3541140">
        <ele>259.2</ele>
        <time>2020-02-22T11:21:44Z</time>
      </trkpt>
      <trkpt lat="39.0519160" lon="1.3541200">
        <ele>259.3</ele>
        <time>2020-02-22T11:21:45Z</time>
      </trkpt>
      <trkpt lat="39.0519330" lon="1.3541290">
        <ele>259.5</ele>
        <time>2020-02-22T11:21:46Z</time>
      </trkpt>
      <trkpt lat="39.0519510" lon="1.3541340">
        <ele>259.8</ele>
        <time>2020-02-22T11:21:47Z</time>
      </trkpt>
      <trkpt lat="39.0519690" lon="1.3541360">
        <ele>260.0</ele>
        <time>2020-02-22T11:21:48Z</time>
      </trkpt>
      <trkpt lat="39.0519990" lon="1.3541400">
        <ele>260.3</ele>
        <time>2020-02-22T11:21:49Z</time>
      </trkpt>
      <trkpt lat="39.0520090" lon="1.3541430">
        <ele>260.5</ele>
        <time>2020-02-22T11:21:50Z</time>
      </trkpt>
      <trkpt lat="39.0520410" lon="1.3541530">
        <ele>260.9</ele>
        <time>2020-02-22T11:21:51Z</time>
      </trkpt>
      <trkpt lat="39.0520510" lon="1.3541580">
        <ele>261.0</ele>
        <time>2020-02-22T11:21:52Z</time>
      </trkpt>
      <trkpt lat="39.0520800" lon="1.3541730">
        <ele>261.5</ele>
        <time>2020-02-22T11:21:53Z</time>
      </trkpt>
      <trkpt lat="39.0520900" lon="1.3541770">
        <ele>261.5</ele>
        <time>2020-02-22T11:21:54Z</time>
      </trkpt>
      <trkpt lat="39.0521170" lon="1.3541950">
        <ele>261.8</ele>
        <time>2020-02-22T11:21:55Z</time>
      </trkpt>
      <trkpt lat="39.0521270" lon="1.3542000">
        <ele>261.9</ele>
        <time>2020-02-22T11:21:56Z</time>
      </trkpt>
      <trkpt lat="39.0521590" lon="1.3542120">
        <ele>262.1</ele>
        <time>2020-02-22T11:21:57Z</time>
      </trkpt>
      <trkpt lat="39.0521690" lon="1.3542170">
        <ele>262.2</ele>
        <time>2020-02-22T11:21:58Z</time>
      </trkpt>
      <trkpt lat="39.0521850" lon="1.3542230">
        <ele>262.4</ele>
        <time>2020-02-22T11:21:59Z</time>
      </trkpt>
      <trkpt lat="39.0522010" lon="1.3542320">
        <ele>262.5</ele>
        <time>2020-02-22T11:22:00Z</time>
      </trkpt>
      <trkpt lat="39.0522270" lon="1.3542440">
        <ele>262.7</ele>
        <time>2020-02-22T11:22:01Z</time>
      </trkpt>
      <trkpt lat="39.0522360" lon="1.3542490">
        <ele>262.8</ele>
        <time>2020-02-22T11:22:02Z</time>
      </trkpt>
      <trkpt lat="39.0522660" lon="1.3542610">
        <ele>263.1</ele>
        <time>2020-02-22T11:22:03Z</time>
      </trkpt>
      <trkpt lat="39.0522760" lon="1.3542650">
        <ele>263.2</ele>
        <time>2020-02-22T11:22:04Z</time>
      </trkpt>
      <trkpt lat="39.0523030" lon="1.3542690">
        <ele>263.4</ele>
        <time>2020-02-22T11:22:05Z</time>
      </trkpt>
      <trkpt lat="39.0523120" lon="1.3542710">
        <ele>263.4</ele>
        <time>2020-02-22T11:22:06Z</time>
      </trkpt>
      <trkpt lat="39.0523430" lon="1.3542670">
        <ele>263.7</ele>
        <time>2020-02-22T11:22:07Z</time>
      </trkpt>
      <trkpt lat="39.0523540" lon="1.3542650">
        <ele>263.8</ele>
        <time>2020-02-22T11:22:08Z</time>
      </trkpt>
      <trkpt lat="39.0523870" lon="1.3542660">
        <ele>264.0</ele>
        <time>2020-02-22T11:22:09Z</time>
      </trkpt>
      <trkpt lat="39.0523980" lon="1.3542650">
        <ele>264.1</ele>
        <time>2020-02-22T11:22:10Z</time>
      </trkpt>
      <trkpt lat="39.0524300" lon="1.3542600">
        <ele>264.3</ele>
        <time>2020-02-22T11:22:11Z</time>
      </trkpt>
      <trkpt lat="39.0524400" lon="1.3542600">
        <ele>264.4</ele>
        <time>2020-02-22T11:22:12Z</time>
      </trkpt>
      <trkpt lat="39.0524730" lon="1.3542560">
        <ele>264.6</ele>
        <time>2020-02-22T11:22:13Z</time>
      </trkpt>
      <trkpt lat="39.0524840" lon="1.3542520">
        <ele>264.7</ele>
        <time>2020-02-22T11:22:14Z</time>
      </trkpt>
      <trkpt lat="39.0525100" lon="1.3542390">
        <ele>264.9</ele>
        <time>2020-02-22T11:22:15Z</time>
      </trkpt>
      <trkpt lat="39.0525380" lon="1.3542190">
        <ele>265.2</ele>
        <time>2020-02-22T11:22:16Z</time>
      </trkpt>
      <trkpt lat="39.0525480" lon="1.3542120">
        <ele>265.4</ele>
        <time>2020-02-22T11:22:17Z</time>
      </trkpt>
      <trkpt lat="39.0525830" lon="1.3542080">
        <ele>265.7</ele>
        <time>2020-02-22T11:22:18Z</time>
      </trkpt>
      <trkpt lat="39.0525950" lon="1.3542050">
        <ele>265.8</ele>
        <time>2020-02-22T11:22:19Z</time>
      </trkpt>
      <trkpt lat="39.0526300" lon="1.3542050">
        <ele>266.1</ele>
        <time>2020-02-22T11:22:20Z</time>
      </trkpt>
      <trkpt lat="39.0526420" lon="1.3542070">
        <ele>266.2</ele>
        <time>2020-02-22T11:22:21Z</time>
      </trkpt>
      <trkpt lat="39.0526750" lon="1.3542100">
        <ele>266.5</ele>
        <time>2020-02-22T11:22:22Z</time>
      </trkpt>
      <trkpt lat="39.0526860" lon="1.3542150">
        <ele>266.6</ele>
        <time>2020-02-22T11:22:23Z</time>
      </trkpt>
      <trkpt lat="39.0527210" lon="1.3542210">
        <ele>266.8</ele>
        <time>2020-02-22T11:22:24Z</time>
      </trkpt>
      <trkpt lat="39.0527330" lon="1.3542230">
        <ele>266.9</ele>
        <time>2020-02-22T11:22:25Z</time>
      </trkpt>
      <trkpt lat="39.0527640" lon="1.3542320">
        <ele>267.2</ele>
        <time>2020-02-22T11:22:26Z</time>
      </trkpt>
      <trkpt lat="39.0527750" lon="1.3542370">
        <ele>267.3</ele>
        <time>2020-02-22T11:22:27Z</time>
      </trkpt>
      <trkpt lat="39.0528050" lon="1.3542420">
        <ele>267.5</ele>
        <time>2020-02-22T11:22:28Z</time>
      </trkpt>
      <trkpt lat="39.0528130" lon="1.3542460">
        <ele>267.5</ele>
        <time>2020-02-22T11:22:29Z</time>
      </trkpt>
      <trkpt lat="39.0528270" lon="1.3542570">
        <ele>267.7</ele>
        <time>2020-02-22T11:22:30Z</time>
      </trkpt>
      <trkpt lat="39.0528430" lon="1.3542660">
        <ele>267.8</ele>
        <time>2020-02-22T11:22:31Z</time>
      </trkpt>
      <trkpt lat="39.0528770" lon="1.3542910">
        <ele>268.1</ele>
        <time>2020-02-22T11:22:32Z</time>
      </trkpt>
      <trkpt lat="39.0528890" lon="1.3542990">
        <ele>268.3</ele>
        <time>2020-02-22T11:22:33Z</time>
      </trkpt>
      <trkpt lat="39.0529100" lon="1.3543260">
        <ele>268.6</ele>
        <time>2020-02-22T11:22:34Z</time>
      </trkpt>
      <trkpt lat="39.0529140" lon="1.3543360">
        <ele>268.7</ele>
        <time>2020-02-22T11:22:35Z</time>
      </trkpt>
      <trkpt lat="39.0529220" lon="1.3543530">
        <ele>268.8</ele>
        <time>2020-02-22T11:22:36Z</time>
      </trkpt>
      <trkpt lat="39.0529330" lon="1.3543690">
        <ele>269.0</ele>
        <time>2020-02-22T11:22:37Z</time>
      </trkpt>
      <trkpt lat="39.0529530" lon="1.3543960">
        <ele>269.5</ele>
        <time>2020-02-22T11:22:38Z</time>
      </trkpt>
      <trkpt lat="39.0529590" lon="1.3544070">
        <ele>269.6</ele>
        <time>2020-02-22T11:22:39Z</time>
      </trkpt>
      <trkpt lat="39.0529790" lon="1.3544400">
        <ele>270.0</ele>
        <time>2020-02-22T11:22:40Z</time>
      </trkpt>
      <trkpt lat="39.0529830" lon="1.3544530">
        <ele>270.1</ele>
        <time>2020-02-22T11:22:41Z</time>
      </trkpt>
      <trkpt lat="39.0529960" lon="1.3544830">
        <ele>270.5</ele>
        <time>2020-02-22T11:22:42Z</time>
      </trkpt>
      <trkpt lat="39.0530020" lon="1.3544920">
        <ele>270.6</ele>
        <time>2020-02-22T11:22:43Z</time>
      </trkpt>
      <trkpt lat="39.0530110" lon="1.3545260">
        <ele>270.9</ele>
        <time>2020-02-22T11:22:44Z</time>
      </trkpt>
      <trkpt lat="39.0530150" lon="1.3545370">
        <ele>271.0</ele>
        <time>2020-02-22T11:22:45Z</time>
      </trkpt>
      <trkpt lat="39.0530220" lon="1.3545560">
        <ele>271.2</ele>
        <time>2020-02-22T11:22:46Z</time>
      </trkpt>
      <trkpt lat="39.0530280" lon="1.3545800">
        <ele>271.5</ele>
        <time>2020-02-22T11:22:47Z</time>
      </trkpt>
      <trkpt lat="39.0530310" lon="1.3546190">
        <ele>271.8</ele>
        <time>2020-02-22T11:22:48Z</time>
      </trkpt>
      <trkpt lat="39.0530320" lon="1.3546320">
        <ele>272.0</ele>
        <time>2020-02-22T11:22:49Z</time>
      </trkpt>
      <trkpt lat="39.0530420" lon="1.3546650">
        <ele>272.3</ele>
        <time>2020-02-22T11:22:50Z</time>
      </trkpt>
      <trkpt lat="39.0530440" lon="1.3546770">
        <ele>272.4</ele>
        <time>2020-02-22T11:22:51Z</time>
      </trkpt>
      <trkpt lat="39.0530450" lon="1.3547140">
        <ele>272.8</ele>
        <time>2020-02-22T11:22:52Z</time>
      </trkpt>
      <trkpt lat="39.0530460" lon="1.3547270">
        <ele>272.9</ele>
        <time>2020-02-22T11:22:53Z</time>
      </trkpt>
      <trkpt lat="39.0530540" lon="1.3547670">
        <ele>273.3</ele>
        <time>2020-02-22T11:22:54Z</time>
      </trkpt>
      <trkpt lat="39.0530570" lon="1.3547810">
        <ele>273.4</ele>
        <time>2020-02-22T11:22:55Z</time>
      </trkpt>
      <trkpt lat="39.0530650" lon="1.3548170">
        <ele>273.8</ele>
        <time>2020-02-22T11:22:56Z</time>
      </trkpt>
      <trkpt lat="39.0530670" lon="1.3548290">
        <ele>273.9</ele>
        <time>2020-02-22T11:22:57Z</time>
      </trkpt>
      <trkpt lat="39.0530720" lon="1.3548510">
        <ele>274.1</ele>
        <time>2020-02-22T11:22:58Z</time>
      </trkpt>
      <trkpt lat="39.0530770" lon="1.3548700">
        <ele>274.3</ele>
        <time>2020-02-22T11:22:59Z</time>
      </trkpt>
      <trkpt lat="39.0530820" lon="1.3548850">
        <ele>274.4</ele>
        <time>2020-02-22T11:23:00Z</time>
      </trkpt>
      <trkpt lat="39.0530910" lon="1.3549000">
        <ele>274.6</ele>
        <time>2020-02-22T11:23:01Z</time>
      </trkpt>
      <trkpt lat="39.0531050" lon="1.3549090">
        <ele>274.8</ele>
        <time>2020-02-22T11:23:02Z</time>
      </trkpt>
      <trkpt lat="39.0531210" lon="1.3549160">
        <ele>275.1</ele>
        <time>2020-02-22T11:23:03Z</time>
      </trkpt>
      <trkpt lat="39.0531380" lon="1.3549230">
        <ele>275.4</ele>
        <time>2020-02-22T11:23:04Z</time>
      </trkpt>
      <trkpt lat="39.0531550" lon="1.3549260">
        <ele>275.7</ele>
        <time>2020-02-22T11:23:05Z</time>
      </trkpt>
      <trkpt lat="39.0531730" lon="1.3549250">
        <ele>275.9</ele>
        <time>2020-02-22T11:23:06Z</time>
      </trkpt>
      <trkpt lat="39.0531900" lon="1.3549230">
        <ele>276.1</ele>
        <time>2020-02-22T11:23:07Z</time>
      </trkpt>
      <trkpt lat="39.0532180" lon="1.3549150">
        <ele>276.5</ele>
        <time>2020-02-22T11:23:08Z</time>
      </trkpt>
      <trkpt lat="39.0532270" lon="1.3549120">
        <ele>276.6</ele>
        <time>2020-02-22T11:23:09Z</time>
      </trkpt>
      <trkpt lat="39.0532420" lon="1.3549080">
        <ele>276.8</ele>
        <time>2020-02-22T11:23:10Z</time>
      </trkpt>
      <trkpt lat="39.0532570" lon="1.3549100">
        <ele>277.0</ele>
        <time>2020-02-22T11:23:11Z</time>
      </trkpt>
      <trkpt lat="39.0532740" lon="1.3549060">
        <ele>277.3</ele>
        <time>2020-02-22T11:23:12Z</time>
      </trkpt>
      <trkpt lat="39.0532920" lon="1.3548980">
        <ele>277.6</ele>
        <time>2020-02-22T11:23:13Z</time>
      </trkpt>
      <trkpt lat="39.0533210" lon="1.3548860">
        <ele>278.1</ele>
        <time>2020-02-22T11:23:14Z</time>
      </trkpt>
      <trkpt lat="39.0533310" lon="1.3548830">
        <ele>278.2</ele>
        <time>2020-02-22T11:23:15Z</time>
      </trkpt>
      <trkpt lat="39.0533470" lon="1.3548760">
        <ele>278.4</ele>
        <time>2020-02-22T11:23:16Z</time>
      </trkpt>
      <trkpt lat="39.0533650" lon="1.3548710">
        <ele>278.7</ele>
        <time>2020-02-22T11:23:17Z</time>
      </trkpt>
      <trkpt lat="39.0533800" lon="1.3548690">
        <ele>278.9</ele>
        <time>2020-02-22T11:23:18Z</time>
      </trkpt>
      <trkpt lat="39.0533990" lon="1.3548740">
        <ele>279.1</ele>
        <time>2020-02-22T11:23:19Z</time>
      </trkpt>
      <trkpt lat="39.0534300" lon="1.3548860">
        <ele>279.5</ele>
        <time>2020-02-22T11:23:20Z</time>
      </trkpt>
      <trkpt lat="39.0534400" lon="1.3548860">
        <ele>279.6</ele>
        <time>2020-02-22T11:23:21Z</time>
      </trkpt>
      <trkpt lat="39.0534560" lon="1.3548860">
        <ele>279.8</ele>
        <time>2020-02-22T11:23:22Z</time>
      </trkpt>
      <trkpt lat="39.0534710" lon="1.3548870">
        <ele>280.0</ele>
        <time>2020-02-22T11:23:23Z</time>
      </trkpt>
      <trkpt lat="39.0534860" lon="1.3548940">
        <ele>280.2</ele>
        <time>2020-02-22T11:23:24Z</time>
      </trkpt>
      <trkpt lat="39.0535050" lon="1.3549010">
        <ele>280.4</ele>
        <time>2020-02-22T11:23:25Z</time>
      </trkpt>
      <trkpt lat="39.0535330" lon="1.3549200">
        <ele>280.8</ele>
        <time>2020-02-22T11:23:26Z</time>
      </trkpt>
      <trkpt lat="39.0535420" lon="1.3549270">
        <ele>280.9</ele>
        <time>2020-02-22T11:23:27Z</time>
      </trkpt>
      <trkpt lat="39.0535680" lon="1.3549520">
        <ele>281.4</ele>
        <time>2020-02-22T11:23:28Z</time>
      </trkpt>
      <trkpt lat="39.0535770" lon="1.3549590">
        <ele>281.5</ele>
        <time>2020-02-22T11:23:29Z</time>
      </trkpt>
      <trkpt lat="39.0536060" lon="1.3549770">
        <ele>282.0</ele>
        <time>2020-02-22T11:23:30Z</time>
      </trkpt>
      <trkpt lat="39.0536150" lon="1.3549830">
        <ele>282.1</ele>
        <time>2020-02-22T11:23:31Z</time>
      </trkpt>
      <trkpt lat="39.0536430" lon="1.3549970">
        <ele>282.7</ele>
        <time>2020-02-22T11:23:32Z</time>
      </trkpt>
      <trkpt lat="39.0536530" lon="1.3550000">
        <ele>282.9</ele>
        <time>2020-02-22T11:23:33Z</time>
      </trkpt>
      <trkpt lat="39.0536730" lon="1.3550290">
        <ele>283.5</ele>
        <time>2020-02-22T11:23:34Z</time>
      </trkpt>
      <trkpt lat="39.0536780" lon="1.3550390">
        <ele>283.6</ele>
        <time>2020-02-22T11:23:35Z</time>
      </trkpt>
      <trkpt lat="39.0536920" lon="1.3550710">
        <ele>284.1</ele>
        <time>2020-02-22T11:23:36Z</time>
      </trkpt>
      <trkpt lat="39.0536970" lon="1.3550820">
        <ele>284.3</ele>
        <time>2020-02-22T11:23:37Z</time>
      </trkpt>
      <trkpt lat="39.0537030" lon="1.3551040">
        <ele>284.7</ele>
        <time>2020-02-22T11:23:38Z</time>
      </trkpt>
      <trkpt lat="39.0537120" lon="1.3551230">
        <ele>285.0</ele>
        <time>2020-02-22T11:23:39Z</time>
      </trkpt>
      <trkpt lat="39.0537200" lon="1.3551570">
        <ele>285.5</ele>
        <time>2020-02-22T11:23:40Z</time>
      </trkpt>
      <trkpt lat="39.0537230" lon="1.3551690">
        <ele>285.7</ele>
        <time>2020-02-22T11:23:41Z</time>
      </trkpt>
      <trkpt lat="39.0537330" lon="1.3552080">
        <ele>286.2</ele>
        <time>2020-02-22T11:23:42Z</time>
      </trkpt>
      <trkpt lat="39.0537350" lon="1.3552200">
        <ele>286.3</ele>
        <time>2020-02-22T11:23:43Z</time>
      </trkpt>
      <trkpt lat="39.0537440" lon="1.3552360">
        <ele>286.5</ele>
        <time>2020-02-22T11:23:44Z</time>
      </trkpt>
      <trkpt lat="39.0537520" lon="1.3552500">
        <ele>286.8</ele>
        <time>2020-02-22T11:23:45Z</time>
      </trkpt>
      <trkpt lat="39.0537620" lon="1.3552630">
        <ele>287.0</ele>
        <time>2020-02-22T11:23:46Z</time>
      </trkpt>
      <trkpt lat="39.0537710" lon="1.3552760">
        <ele>287.2</ele>
        <time>2020-02-22T11:23:47Z</time>
      </trkpt>
      <trkpt lat="39.0537750" lon="1.3552890">
        <ele>287.4</ele>
        <time>2020-02-22T11:23:48Z</time>
      </trkpt>
      <trkpt lat="39.0537790" lon="1.3553020">
        <ele>287.6</ele>
        <time>2020-02-22T11:23:49Z</time>
      </trkpt>
      <trkpt lat="39.0537840" lon="1.3553070">
        <ele>287.7</ele>
        <time>2020-02-22T11:23:50Z</time>
      </trkpt>
      <trkpt lat="39.0537890" lon="1.3553140">
        <ele>287.8</ele>
        <time>2020-02-22T11:23:51Z</time>
      </trkpt>
      <trkpt lat="39.0537960" lon="1.3553250">
        <ele>287.9</ele>
        <time>2020-02-22T11:23:52Z</time>
      </trkpt>
      <trkpt lat="39.0538090" lon="1.3553390">
        <ele>288.1</ele>
        <time>2020-02-22T11:23:53Z</time>
      </trkpt>
      <trkpt lat="39.0538210" lon="1.3553550">
        <ele>288.4</ele>
        <time>2020-02-22T11:23:54Z</time>
      </trkpt>
      <trkpt lat="39.0538350" lon="1.3553670">
        <ele>288.6</ele>
        <time>2020-02-22T11:23:55Z</time>
      </trkpt>
      <trkpt lat="39.0538480" lon="1.3553820">
        <ele>288.8</ele>
        <time>2020-02-22T11:23:56Z</time>
      </trkpt>
      <trkpt lat="39.0538610" lon="1.3553970">
        <ele>289.0</ele>
        <time>2020-02-22T11:23:57Z</time>
      </trkpt>
      <trkpt lat="39.0538750" lon="1.3554070">
        <ele>289.3</ele>
        <time>2020-02-22T11:23:58Z</time>
      </trkpt>
      <trkpt lat="39.0538890" lon="1.3554160">
        <ele>289.6</ele>
        <time>2020-02-22T11:23:59Z</time>
      </trkpt>
      <trkpt lat="39.0539050" lon="1.3554210">
        <ele>289.8</ele>
        <time>2020-02-22T11:24:00Z</time>
      </trkpt>
      <trkpt lat="39.0539190" lon="1.3554280">
        <ele>290.0</ele>
        <time>2020-02-22T11:24:01Z</time>
      </trkpt>
      <trkpt lat="39.0539380" lon="1.3554490">
        <ele>290.4</ele>
        <time>2020-02-22T11:24:02Z</time>
      </trkpt>
      <trkpt lat="39.0539410" lon="1.3554650">
        <ele>290.5</ele>
        <time>2020-02-22T11:24:03Z</time>
      </trkpt>
      <trkpt lat="39.0539520" lon="1.3554770">
        <ele>290.7</ele>
        <time>2020-02-22T11:24:04Z</time>
      </trkpt>
      <trkpt lat="39.0539650" lon="1.3554860">
        <ele>290.9</ele>
        <time>2020-02-22T11:24:05Z</time>
      </trkpt>
      <trkpt lat="39.0539790" lon="1.3554960">
        <ele>291.1</ele>
        <time>2020-02-22T11:24:06Z</time>
      </trkpt>
      <trkpt lat="39.0539940" lon="1.3554980">
        <ele>291.3</ele>
        <time>2020-02-22T11:24:07Z</time>
      </trkpt>
      <trkpt lat="39.0540070" lon="1.3555030">
        <ele>291.5</ele>
        <time>2020-02-22T11:24:08Z</time>
      </trkpt>
      <trkpt lat="39.0540280" lon="1.3555160">
        <ele>291.9</ele>
        <time>2020-02-22T11:24:09Z</time>
      </trkpt>
      <trkpt lat="39.0540600" lon="1.3555160">
        <ele>292.4</ele>
        <time>2020-02-22T11:24:10Z</time>
      </trkpt>
      <trkpt lat="39.0540680" lon="1.3555110">
        <ele>292.6</ele>
        <time>2020-02-22T11:24:11Z</time>
      </trkpt>
      <trkpt lat="39.0541070" lon="1.3555050">
        <ele>293.2</ele>
        <time>2020-02-22T11:24:12Z</time>
      </trkpt>
      <trkpt lat="39.0541200" lon="1.3555070">
        <ele>293.4</ele>
        <time>2020-02-22T11:24:13Z</time>
      </trkpt>
      <trkpt lat="39.0541520" lon="1.3555050">
        <ele>293.9</ele>
        <time>2020-02-22T11:24:14Z</time>
      </trkpt>
      <trkpt lat="39.0541620" lon="1.3555050">
        <ele>294.0</ele>
        <time>2020-02-22T11:24:15Z</time>
      </trkpt>
      <trkpt lat="39.0541800" lon="1.3555130">
        <ele>294.3</ele>
        <time>2020-02-22T11:24:16Z</time>
      </trkpt>
      <trkpt lat="39.0541960" lon="1.3555020">
        <ele>294.6</ele>
        <time>2020-02-22T11:24:17Z</time>
      </trkpt>
      <trkpt lat="39.0542120" lon="1.3554980">
        <ele>294.8</ele>
        <time>2020-02-22T11:24:18Z</time>
      </trkpt>
      <trkpt lat="39.0542270" lon="1.3554950">
        <ele>295.1</ele>
        <time>2020-02-22T11:24:19Z</time>
      </trkpt>
      <trkpt lat="39.0542380" lon="1.3554890">
        <ele>295.2</ele>
        <time>2020-02-22T11:24:20Z</time>
      </trkpt>
      <trkpt lat="39.0542580" lon="1.3554940">
        <ele>295.5</ele>
        <time>2020-02-22T11:24:21Z</time>
      </trkpt>
      <trkpt lat="39.0542890" lon="1.3555020">
        <ele>296.0</ele>
        <time>2020-02-22T11:24:22Z</time>
      </trkpt>
      <trkpt lat="39.0542960" lon="1.3554990">
        <ele>296.1</ele>
        <time>2020-02-22T11:24:23Z</time>
      </trkpt>
      <trkpt lat="39.0543080" lon="1.3554950">
        <ele>296.3</ele>
        <time>2020-02-22T11:24:24Z</time>
      </trkpt>
      <trkpt lat="39.0543260" lon="1.3554950">
        <ele>296.6</ele>
        <time>2020-02-22T11:24:25Z</time>
      </trkpt>
      <trkpt lat="39.0543430" lon="1.3554970">
        <ele>296.9</ele>
        <time>2020-02-22T11:24:26Z</time>
      </trkpt>
      <trkpt lat="39.0543550" lon="1.3554970">
        <ele>297.0</ele>
        <time>2020-02-22T11:24:27Z</time>
      </trkpt>
      <trkpt lat="39.0543810" lon="1.3555170">
        <ele>297.5</ele>
        <time>2020-02-22T11:24:28Z</time>
      </trkpt>
      <trkpt lat="39.0543890" lon="1.3555240">
        <ele>297.7</ele>
        <time>2020-02-22T11:24:29Z</time>
      </trkpt>
      <trkpt lat="39.0544070" lon="1.3555340">
        <ele>298.0</ele>
        <time>2020-02-22T11:24:30Z</time>
      </trkpt>
      <trkpt lat="39.0544180" lon="1.3555360">
        <ele>298.2</ele>
        <time>2020-02-22T11:24:31Z</time>
      </trkpt>
      <trkpt lat="39.0544300" lon="1.3555380">
        <ele>298.5</ele>
        <time>2020-02-22T11:24:32Z</time>
      </trkpt>
      <trkpt lat="39.0544670" lon="1.3555400">
        <ele>299.1</ele>
        <time>2020-02-22T11:24:33Z</time>
      </trkpt>
      <trkpt lat="39.0544770" lon="1.3555380">
        <ele>299.3</ele>
        <time>2020-02-22T11:24:34Z</time>
      </trkpt>
      <trkpt lat="39.0545070" lon="1.3555340">
        <ele>299.8</ele>
        <time>2020-02-22T11:24:35Z</time>
      </trkpt>
      <trkpt lat="39.0545150" lon="1.3555310">
        <ele>300.0</ele>
        <time>2020-02-22T11:24:36Z</time>
      </trkpt>
      <trkpt lat="39.0545390" lon="1.3555070">
        <ele>300.4</ele>
        <time>2020-02-22T11:24:37Z</time>
      </trkpt>
      <trkpt lat="39.0545450" lon="1.3555000">
        <ele>300.6</ele>
        <time>2020-02-22T11:24:38Z</time>
      </trkpt>
      <trkpt lat="39.0545590" lon="1.3554950">
        <ele>300.8</ele>
        <time>2020-02-22T11:24:39Z</time>
      </trkpt>
      <trkpt lat="39.0545750" lon="1.3554900">
        <ele>301.0</ele>
        <time>2020-02-22T11:24:40Z</time>
      </trkpt>
      <trkpt lat="39.0545930" lon="1.3554910">
        <ele>301.3</ele>
        <time>2020-02-22T11:24:41Z</time>
      </trkpt>
      <trkpt lat="39.0545930" lon="1.3554920">
        <ele>301.3</ele>
        <time>2020-02-22T11:24:42Z</time>
      </trkpt>
      <trkpt lat="39.0546060" lon="1.3554870">
        <ele>301.5</ele>
        <time>2020-02-22T11:24:43Z</time>
      </trkpt>
      <trkpt lat="39.0546290" lon="1.3554870">
        <ele>301.9</ele>
        <time>2020-02-22T11:24:44Z</time>
      </trkpt>
      <trkpt lat="39.0546360" lon="1.3554870">
        <ele>302.1</ele>
        <time>2020-02-22T11:24:45Z</time>
      </trkpt>
      <trkpt lat="39.0546430" lon="1.3554880">
        <ele>302.2</ele>
        <time>2020-02-22T11:24:46Z</time>
      </trkpt>
      <trkpt lat="39.0546490" lon="1.3554880">
        <ele>302.3</ele>
        <time>2020-02-22T11:24:47Z</time>
      </trkpt>
      <trkpt lat="39.0546830" lon="1.3554940">
        <ele>303.0</ele>
        <time>2020-02-22T11:24:48Z</time>
      </trkpt>
      <trkpt lat="39.0546930" lon="1.3554980">
        <ele>303.2</ele>
        <time>2020-02-22T11:24:49Z</time>
      </trkpt>
      <trkpt lat="39.0547060" lon="1.3555060">
        <ele>303.4</ele>
        <time>2020-02-22T11:24:50Z</time>
      </trkpt>
      <trkpt lat="39.0547230" lon="1.3555090">
        <ele>303.7</ele>
        <time>2020-02-22T11:24:51Z</time>
      </trkpt>
      <trkpt lat="39.0547390" lon="1.3555070">
        <ele>304.0</ele>
        <time>2020-02-22T11:24:52Z</time>
      </trkpt>
      <trkpt lat="39.0547550" lon="1.3554980">
        <ele>304.3</ele>
        <time>2020-02-22T11:24:53Z</time>
      </trkpt>
      <trkpt lat="39.0547830" lon="1.3554910">
        <ele>304.8</ele>
        <time>2020-02-22T11:24:54Z</time>
      </trkpt>
      <trkpt lat="39.0547920" lon="1.3554860">
        <ele>305.0</ele>
        <time>2020-02-22T11:24:55Z</time>
      </trkpt>
      <trkpt lat="39.0548120" lon="1.3554730">
        <ele>305.4</ele>
        <time>2020-02-22T11:24:56Z</time>
      </trkpt>
      <trkpt lat="39.0548260" lon="1.3554720">
        <ele>305.7</ele>
        <time>2020-02-22T11:24:57Z</time>
      </trkpt>
      <trkpt lat="39.0548420" lon="1.3554730">
        <ele>305.9</ele>
        <time>2020-02-22T11:24:58Z</time>
      </trkpt>
      <trkpt lat="39.0548540" lon="1.3554590">
        <ele>306.2</ele>
        <time>2020-02-22T11:24:59Z</time>
      </trkpt>
      <trkpt lat="39.0548620" lon="1.3554510">
        <ele>306.4</ele>
        <time>2020-02-22T11:25:00Z</time>
      </trkpt>
      <trkpt lat="39.0548800" lon="1.3554440">
        <ele>306.7</ele>
        <time>2020-02-22T11:25:01Z</time>
      </trkpt>
      <trkpt lat="39.0548960" lon="1.3554310">
        <ele>307.0</ele>
        <time>2020-02-22T11:25:02Z</time>
      </trkpt>
      <trkpt lat="39.0549090" lon="1.3554180">
        <ele>307.3</ele>
        <time>2020-02-22T11:25:03Z</time>
      </trkpt>
      <trkpt lat="39.0549200" lon="1.3554110">
        <ele>307.4</ele>
        <time>2020-02-22T11:25:04Z</time>
      </trkpt>
      <trkpt lat="39.0549350" lon="1.3554040">
        <ele>307.7</ele>
        <time>2020-02-22T11:25:05Z</time>
      </trkpt>
      <trkpt lat="39.0549420" lon="1.3553970">
        <ele>307.8</ele>
        <time>2020-02-22T11:25:06Z</time>
      </trkpt>
      <trkpt lat="39.0549550" lon="1.3553850">
        <ele>308.1</ele>
        <time>2020-02-22T11:25:07Z</time>
      </trkpt>
      <trkpt lat="39.0549600" lon="1.3553750">
        <ele>308.2</ele>
        <time>2020-02-22T11:25:08Z</time>
      </trkpt>
      <trkpt lat="39.0549690" lon="1.3553560">
        <ele>308.5</ele>
        <time>2020-02-22T11:25:09Z</time>
      </trkpt>
      <trkpt lat="39.0549800" lon="1.3553400">
        <ele>308.8</ele>
        <time>2020-02-22T11:25:10Z</time>
      </trkpt>
      <trkpt lat="39.0549930" lon="1.3553250">
        <ele>309.0</ele>
        <time>2020-02-22T11:25:11Z</time>
      </trkpt>
      <trkpt lat="39.0550010" lon="1.3553230">
        <ele>309.2</ele>
        <time>2020-02-22T11:25:12Z</time>
      </trkpt>
      <trkpt lat="39.0550090" lon="1.3553200">
        <ele>309.3</ele>
        <time>2020-02-22T11:25:13Z</time>
      </trkpt>
      <trkpt lat="39.0550170" lon="1.3553180">
        <ele>309.5</ele>
        <time>2020-02-22T11:25:14Z</time>
      </trkpt>
      <trkpt lat="39.0550340" lon="1.3553300">
        <ele>309.8</ele>
        <time>2020-02-22T11:25:15Z</time>
      </trkpt>
      <trkpt lat="39.0550430" lon="1.3553410">
        <ele>310.0</ele>
        <time>2020-02-22T11:25:16Z</time>
      </trkpt>
      <trkpt lat="39.0550500" lon="1.3553540">
        <ele>310.2</ele>
        <time>2020-02-22T11:25:17Z</time>
      </trkpt>
      <trkpt lat="39.0550610" lon="1.3553670">
        <ele>310.5</ele>
        <time>2020-02-22T11:25:18Z</time>
      </trkpt>
      <trkpt lat="39.0550730" lon="1.3553780">
        <ele>310.7</ele>
        <time>2020-02-22T11:25:19Z</time>
      </trkpt>
      <trkpt lat="39.0550860" lon="1.3553950">
        <ele>311.0</ele>
        <time>2020-02-22T11:25:20Z</time>
      </trkpt>
      <trkpt lat="39.0550860" lon="1.3554150">
        <ele>311.3</ele>
        <time>2020-02-22T11:25:21Z</time>
      </trkpt>
      <trkpt lat="39.0550910" lon="1.3554310">
        <ele>311.5</ele>
        <time>2020-02-22T11:25:22Z</time>
      </trkpt>
      <trkpt lat="39.0550890" lon="1.3554550">
        <ele>311.8</ele>
        <time>2020-02-22T11:25:23Z</time>
      </trkpt>
      <trkpt lat="39.0550840" lon="1.3554750">
        <ele>312.0</ele>
        <time>2020-02-22T11:25:24Z</time>
      </trkpt>
      <trkpt lat="39.0550820" lon="1.3555110">
        <ele>312.3</ele>
        <time>2020-02-22T11:25:25Z</time>
      </trkpt>
      <trkpt lat="39.0550810" lon="1.3555220">
        <ele>312.4</ele>
        <time>2020-02-22T11:25:26Z</time>
      </trkpt>
      <trkpt lat="39.0550810" lon="1.3555640">
        <ele>312.8</ele>
        <time>2020-02-22T11:25:27Z</time>
      </trkpt>
      <trkpt lat="39.0550810" lon="1.3555790">
        <ele>313.0</ele>
        <time>2020-02-22T11:25:28Z</time>
      </trkpt>
      <trkpt lat="39.0550840" lon="1.3556220">
        <ele>313.4</ele>
        <time>2020-02-22T11:25:29Z</time>
      </trkpt>
      <trkpt lat="39.0550840" lon="1.3556360">
        <ele>313.5</ele>
        <time>2020-02-22T11:25:30Z</time>
      </trkpt>
      <trkpt lat="39.0550800" lon="1.3556440">
        <ele>313.6</ele>
        <time>2020-02-22T11:25:31Z</time>
      </trkpt>
      <trkpt lat="39.0550820" lon="1.3556730">
        <ele>313.9</ele>
        <time>2020-02-22T11:25:32Z</time>
      </trkpt>
      <trkpt lat="39.0550870" lon="1.3557130">
        <ele>314.3</ele>
        <time>2020-02-22T11:25:33Z</time>
      </trkpt>
      <trkpt lat="39.0550880" lon="1.3557240">
        <ele>314.4</ele>
        <time>2020-02-22T11:25:34Z</time>
      </trkpt>
      <trkpt lat="39.0550960" lon="1.3557590">
        <ele>314.8</ele>
        <time>2020-02-22T11:25:35Z</time>
      </trkpt>
      <trkpt lat="39.0550980" lon="1.3557710">
        <ele>315.0</ele>
        <time>2020-02-22T11:25:36Z</time>
      </trkpt>
      <trkpt lat="39.0551010" lon="1.3557870">
        <ele>315.2</ele>
        <time>2020-02-22T11:25:37Z</time>
      </trkpt>
      <trkpt lat="39.0551080" lon="1.3558120">
        <ele>315.4</ele>
        <time>2020-02-22T11:25:38Z</time>
      </trkpt>
      <trkpt lat="39.0551120" lon="1.3558300">
        <ele>315.7</ele>
        <time>2020-02-22T11:25:39Z</time>
      </trkpt>
      <trkpt lat="39.0551200" lon="1.3558530">
        <ele>315.9</ele>
        <time>2020-02-22T11:25:40Z</time>
      </trkpt>
      <trkpt lat="39.0551230" lon="1.3558800">
        <ele>316.3</ele>
        <time>2020-02-22T11:25:41Z</time>
      </trkpt>
      <trkpt lat="39.0551270" lon="1.3558900">
        <ele>316.4</ele>
        <time>2020-02-22T11:25:42Z</time>
      </trkpt>
      <trkpt lat="39.0551230" lon="1.3559180">
        <ele>316.7</ele>
        <time>2020-02-22T11:25:43Z</time>
      </trkpt>
      <trkpt lat="39.0551260" lon="1.3559310">
        <ele>316.9</ele>
        <time>2020-02-22T11:25:44Z</time>
      </trkpt>
      <trkpt lat="39.0551330" lon="1.3559380">
        <ele>317.0</ele>
        <time>2020-02-22T11:25:45Z</time>
      </trkpt>
      <trkpt lat="39.0551490" lon="1.3559600">
        <ele>317.3</ele>
        <time>2020-02-22T11:25:46Z</time>
      </trkpt>
      <trkpt lat="39.0551660" lon="1.3559980">
        <ele>317.8</ele>
        <time>2020-02-22T11:25:47Z</time>
      </trkpt>
      <trkpt lat="39.0551720" lon="1.3560100">
        <ele>318.0</ele>
        <time>2020-02-22T11:25:48Z</time>
      </trkpt>
      <trkpt lat="39.0551940" lon="1.3560360">
        <ele>318.4</ele>
        <time>2020-02-22T11:25:49Z</time>
      </trkpt>
      <trkpt lat="39.0552010" lon="1.3560420">
        <ele>318.6</ele>
        <time>2020-02-22T11:25:50Z</time>
      </trkpt>
      <trkpt lat="39.0552150" lon="1.3560630">
        <ele>318.9</ele>
        <time>2020-02-22T11:25:51Z</time>
      </trkpt>
      <trkpt lat="39.0552270" lon="1.3560700">
        <ele>319.0</ele>
        <time>2020-02-22T11:25:52Z</time>
      </trkpt>
      <trkpt lat="39.0552480" lon="1.3560940">
        <ele>319.3</ele>
        <time>2020-02-22T11:25:53Z</time>
      </trkpt>
      <trkpt lat="39.0552550" lon="1.3561030">
        <ele>319.4</ele>
        <time>2020-02-22T11:25:54Z</time>
      </trkpt>
      <trkpt lat="39.0552710" lon="1.3561450">
        <ele>319.7</ele>
        <time>2020-02-22T11:25:55Z</time>
      </trkpt>
      <trkpt lat="39.0552750" lon="1.3561620">
        <ele>319.8</ele>
        <time>2020-02-22T11:25:56Z</time>
      </trkpt>
      <trkpt lat="39.0552840" lon="1.3561980">
        <ele>320.0</ele>
        <time>2020-02-22T11:25:57Z</time>
      </trkpt>
      <trkpt lat="39.0552870" lon="1.3562110">
        <ele>320.1</ele>
        <time>2020-02-22T11:25:58Z</time>
      </trkpt>
      <trkpt lat="39.0552900" lon="1.3562550">
        <ele>320.4</ele>
        <time>2020-02-22T11:25:59Z</time>
      </trkpt>
      <trkpt lat="39.0552910" lon="1.3562670">
        <ele>320.4</ele>
        <time>2020-02-22T11:26:00Z</time>
      </trkpt>
      <trkpt lat="39.0552950" lon="1.3563070">
        <ele>320.6</ele>
        <time>2020-02-22T11:26:01Z</time>
      </trkpt>
      <trkpt lat="39.0552980" lon="1.3563210">
        <ele>320.7</ele>
        <time>2020-02-22T11:26:02Z</time>
      </trkpt>
      <trkpt lat="39.0553040" lon="1.3563650">
        <ele>320.9</ele>
        <time>2020-02-22T11:26:03Z</time>
      </trkpt>
      <trkpt lat="39.0553070" lon="1.3563780">
        <ele>321.0</ele>
        <time>2020-02-22T11:26:04Z</time>
      </trkpt>
      <trkpt lat="39.0553120" lon="1.3564220">
        <ele>321.2</ele>
        <time>2020-02-22T11:26:05Z</time>
      </trkpt>
      <trkpt lat="39.0553160" lon="1.3564360">
        <ele>321.3</ele>
        <time>2020-02-22T11:26:06Z</time>
      </trkpt>
      <trkpt lat="39.0553310" lon="1.3564810">
        <ele>321.4</ele>
        <time>2020-02-22T11:26:07Z</time>
      </trkpt>
      <trkpt lat="39.0553350" lon="1.3564960">
        <ele>321.5</ele>
        <time>2020-02-22T11:26:08Z</time>
      </trkpt>
      <trkpt lat="39.0553430" lon="1.3565430">
        <ele>321.6</ele>
        <time>2020-02-22T11:26:09Z</time>
      </trkpt>
      <trkpt lat="39.0553460" lon="1.3565590">
        <ele>321.7</ele>
        <time>2020-02-22T11:26:10Z</time>
      </trkpt>
      <trkpt lat="39.0553530" lon="1.3565830">
        <ele>321.8</ele>
        <time>2020-02-22T11:26:11Z</time>
      </trkpt>
      <trkpt lat="39.0553650" lon="1.3565980">
        <ele>321.9</ele>
        <time>2020-02-22T11:26:12Z</time>
      </trkpt>
      <trkpt lat="39.0553780" lon="1.3566220">
        <ele>321.9</ele>
        <time>2020-02-22T11:26:13Z</time>
      </trkpt>
      <trkpt lat="39.0553850" lon="1.3566300">
        <ele>322.0</ele>
        <time>2020-02-22T11:26:14Z</time>
      </trkpt>
      <trkpt lat="39.0553920" lon="1.3566380">
        <ele>322.0</ele>
        <time>2020-02-22T11:26:15Z</time>
      </trkpt>
      <trkpt lat="39.0554000" lon="1.3566590">
        <ele>322.1</ele>
        <time>2020-02-22T11:26:16Z</time>
      </trkpt>
      <trkpt lat="39.0554110" lon="1.3566740">
        <ele>322.1</ele>
        <time>2020-02-22T11:26:17Z</time>
      </trkpt>
      <trkpt lat="39.0554210" lon="1.3566900">
        <ele>322.2</ele>
        <time>2020-02-22T11:26:18Z</time>
      </trkpt>
      <trkpt lat="39.0554320" lon="1.3567120">
        <ele>322.2</ele>
        <time>2020-02-22T11:26:19Z</time>
      </trkpt>
      <trkpt lat="39.0554490" lon="1.3567550">
        <ele>322.4</ele>
        <time>2020-02-22T11:26:20Z</time>
      </trkpt>
      <trkpt lat="39.0554530" lon="1.3567680">
        <ele>322.4</ele>
        <time>2020-02-22T11:26:21Z</time>
      </trkpt>
      <trkpt lat="39.0554770" lon="1.3568030">
        <ele>322.6</ele>
        <time>2020-02-22T11:26:22Z</time>
      </trkpt>
      <trkpt lat="39.0554840" lon="1.3568170">
        <ele>322.6</ele>
        <time>2020-02-22T11:26:23Z</time>
      </trkpt>
      <trkpt lat="39.0555100" lon="1.3568520">
        <ele>322.8</ele>
        <time>2020-02-22T11:26:24Z</time>
      </trkpt>
      <trkpt lat="39.0555220" lon="1.3568620">
        <ele>322.8</ele>
        <time>2020-02-22T11:26:25Z</time>
      </trkpt>
      <trkpt lat="39.0555440" lon="1.3569020">
        <ele>322.9</ele>
        <time>2020-02-22T11:26:26Z</time>
      </trkpt>
      <trkpt lat="39.0555520" lon="1.3569130">
        <ele>323.0</ele>
        <time>2020-02-22T11:26:27Z</time>
      </trkpt>
      <trkpt lat="39.0555740" lon="1.3569470">
        <ele>323.1</ele>
        <time>2020-02-22T11:26:28Z</time>
      </trkpt>
      <trkpt lat="39.0555810" lon="1.3569580">
        <ele>323.1</ele>
        <time>2020-02-22T11:26:29Z</time>
      </trkpt>
      <trkpt lat="39.0555990" lon="1.3569880">
        <ele>323.2</ele>
        <time>2020-02-22T11:26:30Z</time>
      </trkpt>
      <trkpt lat="39.0556170" lon="1.3570260">
        <ele>323.2</ele>
        <time>2020-02-22T11:26:31Z</time>
      </trkpt>
      <trkpt lat="39.0556240" lon="1.3570370">
        <ele>323.3</ele>
        <time>2020-02-22T11:26:32Z</time>
      </trkpt>
      <trkpt lat="39.0556430" lon="1.3570630">
        <ele>323.3</ele>
        <time>2020-02-22T11:26:33Z</time>
      </trkpt>
      <trkpt lat="39.0556670" lon="1.3571030">
        <ele>323.4</ele>
        <time>2020-02-22T11:26:34Z</time>
      </trkpt>
      <trkpt lat="39.0556750" lon="1.3571190">
        <ele>323.5</ele>
        <time>2020-02-22T11:26:35Z</time>
      </trkpt>
      <trkpt lat="39.0556970" lon="1.3571520">
        <ele>323.6</ele>
        <time>2020-02-22T11:26:36Z</time>
      </trkpt>
      <trkpt lat="39.0557020" lon="1.3571670">
        <ele>323.6</ele>
        <time>2020-02-22T11:26:37Z</time>
      </trkpt>
      <trkpt lat="39.0557180" lon="1.3572000">
        <ele>323.7</ele>
        <time>2020-02-22T11:26:38Z</time>
      </trkpt>
      <trkpt lat="39.0557330" lon="1.3572350">
        <ele>323.8</ele>
        <time>2020-02-22T11:26:39Z</time>
      </trkpt>
      <trkpt lat="39.0557590" lon="1.3572720">
        <ele>323.9</ele>
        <time>2020-02-22T11:26:40Z</time>
      </trkpt>
      <trkpt lat="39.0557680" lon="1.3572850">
        <ele>324.0</ele>
        <time>2020-02-22T11:26:41Z</time>
      </trkpt>
      <trkpt lat="39.0557890" lon="1.3573130">
        <ele>324.1</ele>
        <time>2020-02-22T11:26:42Z</time>
      </trkpt>
      <trkpt lat="39.0558060" lon="1.3573390">
        <ele>324.1</ele>
        <time>2020-02-22T11:26:43Z</time>
      </trkpt>
      <trkpt lat="39.0558270" lon="1.3573810">
        <ele>324.2</ele>
        <time>2020-02-22T11:26:44Z</time>
      </trkpt>
      <trkpt lat="39.0558320" lon="1.3573950">
        <ele>324.3</ele>
        <time>2020-02-22T11:26:45Z</time>
      </trkpt>
      <trkpt lat="39.0558540" lon="1.3574280">
        <ele>324.3</ele>
        <time>2020-02-22T11:26:46Z</time>
      </trkpt>
      <trkpt lat="39.0558640" lon="1.3574650">
        <ele>324.4</ele>
        <time>2020-02-22T11:26:47Z</time>
      </trkpt>
      <trkpt lat="39.0558780" lon="1.3574990">
        <ele>324.6</ele>
        <time>2020-02-22T11:26:48Z</time>
      </trkpt>
      <trkpt lat="39.0558970" lon="1.3575380">
        <ele>324.8</ele>
        <time>2020-02-22T11:26:49Z</time>
      </trkpt>
      <trkpt lat="39.0559040" lon="1.3575520">
        <ele>324.8</ele>
        <time>2020-02-22T11:26:50Z</time>
      </trkpt>
      <trkpt lat="39.0559170" lon="1.3575960">
        <ele>325.0</ele>
        <time>2020-02-22T11:26:51Z</time>
      </trkpt>
      <trkpt lat="39.0559290" lon="1.3576380">
        <ele>325.1</ele>
        <time>2020-02-22T11:26:52Z</time>
      </trkpt>
      <trkpt lat="39.0559390" lon="1.3576740">
        <ele>325.5</ele>
        <time>2020-02-22T11:26:53Z</time>
      </trkpt>
      <trkpt lat="39.0559390" lon="1.3577260">
        <ele>325.5</ele>
        <time>2020-02-22T11:26:54Z</time>
      </trkpt>
      <trkpt lat="39.0559360" lon="1.3577440">
        <ele>325.4</ele>
        <time>2020-02-22T11:26:55Z</time>
      </trkpt>
      <trkpt lat="39.0559370" lon="1.3577820">
        <ele>325.4</ele>
        <time>2020-02-22T11:26:56Z</time>
      </trkpt>
      <trkpt lat="39.0559430" lon="1.3578220">
        <ele>325.4</ele>
        <time>2020-02-22T11:26:57Z</time>
      </trkpt>
      <trkpt lat="39.0559490" lon="1.3578590">
        <ele>325.3</ele>
        <time>2020-02-22T11:26:58Z</time>
      </trkpt>
      <trkpt lat="39.0559530" lon="1.3579030">
        <ele>325.3</ele>
        <time>2020-02-22T11:26:59Z</time>
      </trkpt>
      <trkpt lat="39.0559520" lon="1.3579170">
        <ele>325.3</ele>
        <time>2020-02-22T11:27:00Z</time>
      </trkpt>
      <trkpt lat="39.0559400" lon="1.3579620">
        <ele>325.2</ele>
        <time>2020-02-22T11:27:01Z</time>
      </trkpt>
      <trkpt lat="39.0559330" lon="1.3579830">
        <ele>325.2</ele>
        <time>2020-02-22T11:27:02Z</time>
      </trkpt>
      <trkpt lat="39.0559170" lon="1.3580450">
        <ele>325.1</ele>
        <time>2020-02-22T11:27:03Z</time>
      </trkpt>
      <trkpt lat="39.0559010" lon="1.3581080">
        <ele>325.0</ele>
        <time>2020-02-22T11:27:04Z</time>
      </trkpt>
      <trkpt lat="39.0558870" lon="1.3581630">
        <ele>324.9</ele>
        <time>2020-02-22T11:27:05Z</time>
      </trkpt>
      <trkpt lat="39.0558700" lon="1.3582090">
        <ele>324.8</ele>
        <time>2020-02-22T11:27:06Z</time>
      </trkpt>
      <trkpt lat="39.0558560" lon="1.3582620">
        <ele>324.7</ele>
        <time>2020-02-22T11:27:07Z</time>
      </trkpt>
      <trkpt lat="39.0558340" lon="1.3583150">
        <ele>324.5</ele>
        <time>2020-02-22T11:27:08Z</time>
      </trkpt>
      <trkpt lat="39.0558210" lon="1.3583870">
        <ele>324.3</ele>
        <time>2020-02-22T11:27:09Z</time>
      </trkpt>
      <trkpt lat="39.0558410" lon="1.3584360">
        <ele>324.2</ele>
        <time>2020-02-22T11:27:10Z</time>
      </trkpt>
      <trkpt lat="39.0558810" lon="1.3584580">
        <ele>324.1</ele>
        <time>2020-02-22T11:27:11Z</time>
      </trkpt>
      <trkpt lat="39.0559250" lon="1.3584780">
        <ele>324.0</ele>
        <time>2020-02-22T11:27:12Z</time>
      </trkpt>
      <trkpt lat="39.0559670" lon="1.3584990">
        <ele>323.8</ele>
        <time>2020-02-22T11:27:13Z</time>
      </trkpt>
      <trkpt lat="39.0560280" lon="1.3584970">
        <ele>323.4</ele>
        <time>2020-02-22T11:27:14Z</time>
      </trkpt>
      <trkpt lat="39.0560780" lon="1.3584980">
        <ele>323.0</ele>
        <time>2020-02-22T11:27:15Z</time>
      </trkpt>
      <trkpt lat="39.0561200" lon="1.3585270">
        <ele>322.6</ele>
        <time>2020-02-22T11:27:16Z</time>
      </trkpt>
      <trkpt lat="39.0561560" lon="1.3585860">
        <ele>321.9</ele>
        <time>2020-02-22T11:27:17Z</time>
      </trkpt>
      <trkpt lat="39.0561770" lon="1.3586510">
        <ele>321.2</ele>
        <time>2020-02-22T11:27:18Z</time>
      </trkpt>
      <trkpt lat="39.0561850" lon="1.3587140">
        <ele>320.5</ele>
        <time>2020-02-22T11:27:19Z</time>
      </trkpt>
      <trkpt lat="39.0561710" lon="1.3587770">
        <ele>319.8</ele>
        <time>2020-02-22T11:27:20Z</time>
      </trkpt>
      <trkpt lat="39.0561500" lon="1.3588410">
        <ele>318.9</ele>
        <time>2020-02-22T11:27:21Z</time>
      </trkpt>
      <trkpt lat="39.0561420" lon="1.3588990">
        <ele>318.2</ele>
        <time>2020-02-22T11:27:22Z</time>
      </trkpt>
      <trkpt lat="39.0561370" lon="1.3589490">
        <ele>317.6</ele>
        <time>2020-02-22T11:27:23Z</time>
      </trkpt>
      <trkpt lat="39.0561570" lon="1.3589980">
        <ele>317.0</ele>
        <time>2020-02-22T11:27:24Z</time>
      </trkpt>
      <trkpt lat="39.0561940" lon="1.3590460">
        <ele>316.3</ele>
        <time>2020-02-22T11:27:25Z</time>
      </trkpt>
      <trkpt lat="39.0562440" lon="1.3590800">
        <ele>315.6</ele>
        <time>2020-02-22T11:27:26Z</time>
      </trkpt>
      <trkpt lat="39.0563110" lon="1.3591070">
        <ele>314.7</ele>
        <time>2020-02-22T11:27:27Z</time>
      </trkpt>
      <trkpt lat="39.0563710" lon="1.3591340">
        <ele>313.9</ele>
        <time>2020-02-22T11:27:28Z</time>
      </trkpt>
      <trkpt lat="39.0564380" lon="1.3591580">
        <ele>313.1</ele>
        <time>2020-02-22T11:27:29Z</time>
      </trkpt>
      <trkpt lat="39.0565020" lon="1.3591930">
        <ele>312.4</ele>
        <time>2020-02-22T11:27:30Z</time>
      </trkpt>
      <trkpt lat="39.0565470" lon="1.3592200">
        <ele>311.9</ele>
        <time>2020-02-22T11:27:31Z</time>
      </trkpt>
      <trkpt lat="39.0565990" lon="1.3592420">
        <ele>311.3</ele>
        <time>2020-02-22T11:27:32Z</time>
      </trkpt>
      <trkpt lat="39.0566440" lon="1.3592640">
        <ele>310.7</ele>
        <time>2020-02-22T11:27:33Z</time>
      </trkpt>
      <trkpt lat="39.0566860" lon="1.3592810">
        <ele>310.4</ele>
        <time>2020-02-22T11:27:34Z</time>
      </trkpt>
      <trkpt lat="39.0567340" lon="1.3593060">
        <ele>310.1</ele>
        <time>2020-02-22T11:27:35Z</time>
      </trkpt>
      <trkpt lat="39.0567730" lon="1.3593320">
        <ele>309.9</ele>
        <time>2020-02-22T11:27:36Z</time>
      </trkpt>
      <trkpt lat="39.0568050" lon="1.3593670">
        <ele>309.7</ele>
        <time>2020-02-22T11:27:37Z</time>
      </trkpt>
      <trkpt lat="39.0568320" lon="1.3593890">
        <ele>309.6</ele>
        <time>2020-02-22T11:27:38Z</time>
      </trkpt>
      <trkpt lat="39.0568370" lon="1.3594690">
        <ele>309.3</ele>
        <time>2020-02-22T11:27:39Z</time>
      </trkpt>
      <trkpt lat="39.0568390" lon="1.3595330">
        <ele>309.1</ele>
        <time>2020-02-22T11:27:40Z</time>
      </trkpt>
      <trkpt lat="39.0568410" lon="1.3595930">
        <ele>308.9</ele>
        <time>2020-02-22T11:27:41Z</time>
      </trkpt>
      <trkpt lat="39.0568430" lon="1.3596810">
        <ele>308.6</ele>
        <time>2020-02-22T11:27:42Z</time>
      </trkpt>
      <trkpt lat="39.0568410" lon="1.3597620">
        <ele>308.4</ele>
        <time>2020-02-22T11:27:43Z</time>
      </trkpt>
      <trkpt lat="39.0568390" lon="1.3598460">
        <ele>308.2</ele>
        <time>2020-02-22T11:27:44Z</time>
      </trkpt>
      <trkpt lat="39.0568530" lon="1.3599250">
        <ele>307.8</ele>
        <time>2020-02-22T11:27:45Z</time>
      </trkpt>
      <trkpt lat="39.0568670" lon="1.3600070">
        <ele>307.2</ele>
        <time>2020-02-22T11:27:46Z</time>
      </trkpt>
      <trkpt lat="39.0568830" lon="1.3600600">
        <ele>306.9</ele>
        <time>2020-02-22T11:27:47Z</time>
      </trkpt>
      <trkpt lat="39.0568820" lon="1.3601180">
        <ele>306.5</ele>
        <time>2020-02-22T11:27:48Z</time>
      </trkpt>
      <trkpt lat="39.0568580" lon="1.3601660">
        <ele>306.2</ele>
        <time>2020-02-22T11:27:49Z</time>
      </trkpt>
      <trkpt lat="39.0568200" lon="1.3602290">
        <ele>305.7</ele>
        <time>2020-02-22T11:27:50Z</time>
      </trkpt>
      <trkpt lat="39.0567760" lon="1.3602770">
        <ele>305.3</ele>
        <time>2020-02-22T11:27:51Z</time>
      </trkpt>
      <trkpt lat="39.0567280" lon="1.3603460">
        <ele>304.7</ele>
        <time>2020-02-22T11:27:52Z</time>
      </trkpt>
      <trkpt lat="39.0566720" lon="1.3604090">
        <ele>304.2</ele>
        <time>2020-02-22T11:27:53Z</time>
      </trkpt>
      <trkpt lat="39.0566150" lon="1.3604830">
        <ele>303.7</ele>
        <time>2020-02-22T11:27:54Z</time>
      </trkpt>
      <trkpt lat="39.0565530" lon="1.3605590">
        <ele>303.2</ele>
        <time>2020-02-22T11:27:55Z</time>
      </trkpt>
      <trkpt lat="39.0564820" lon="1.3606300">
        <ele>302.7</ele>
        <time>2020-02-22T11:27:56Z</time>
      </trkpt>
      <trkpt lat="39.0564150" lon="1.3606990">
        <ele>302.2</ele>
        <time>2020-02-22T11:27:57Z</time>
      </trkpt>
      <trkpt lat="39.0563620" lon="1.3607790">
        <ele>301.4</ele>
        <time>2020-02-22T11:27:58Z</time>
      </trkpt>
      <trkpt lat="39.0563230" lon="1.3608530">
        <ele>300.7</ele>
        <time>2020-02-22T11:27:59Z</time>
      </trkpt>
      <trkpt lat="39.0563000" lon="1.3609210">
        <ele>300.1</ele>
        <time>2020-02-22T11:28:00Z</time>
      </trkpt>
      <trkpt lat="39.0562870" lon="1.3609860">
        <ele>299.6</ele>
        <time>2020-02-22T11:28:01Z</time>
      </trkpt>
      <trkpt lat="39.0562740" lon="1.3610570">
        <ele>299.2</ele>
        <time>2020-02-22T11:28:02Z</time>
      </trkpt>
      <trkpt lat="39.0562630" lon="1.3611510">
        <ele>298.7</ele>
        <time>2020-02-22T11:28:03Z</time>
      </trkpt>
      <trkpt lat="39.0562510" lon="1.3612400">
        <ele>298.2</ele>
        <time>2020-02-22T11:28:04Z</time>
      </trkpt>
      <trkpt lat="39.0562480" lon="1.3613350">
        <ele>297.7</ele>
        <time>2020-02-22T11:28:05Z</time>
      </trkpt>
      <trkpt lat="39.0562450" lon="1.3614120">
        <ele>297.3</ele>
        <time>2020-02-22T11:28:06Z</time>
      </trkpt>
      <trkpt lat="39.0562420" lon="1.3615090">
        <ele>296.8</ele>
        <time>2020-02-22T11:28:07Z</time>
      </trkpt>
      <trkpt lat="39.0562390" lon="1.3615980">
        <ele>296.3</ele>
        <time>2020-02-22T11:28:08Z</time>
      </trkpt>
      <trkpt lat="39.0562430" lon="1.3616840">
        <ele>295.8</ele>
        <time>2020-02-22T11:28:09Z</time>
      </trkpt>
      <trkpt lat="39.0562590" lon="1.3617630">
        <ele>295.1</ele>
        <time>2020-02-22T11:28:10Z</time>
      </trkpt>
      <trkpt lat="39.0562750" lon="1.3618450">
        <ele>294.6</ele>
        <time>2020-02-22T11:28:11Z</time>
      </trkpt>
      <trkpt lat="39.0562910" lon="1.3619440">
        <ele>293.9</ele>
        <time>2020-02-22T11:28:12Z</time>
      </trkpt>
      <trkpt lat="39.0563150" lon="1.3619940">
        <ele>293.4</ele>
        <time>2020-02-22T11:28:13Z</time>
      </trkpt>
      <trkpt lat="39.0563380" lon="1.3620530">
        <ele>292.8</ele>
        <time>2020-02-22T11:28:14Z</time>
      </trkpt>
      <trkpt lat="39.0563740" lon="1.3621060">
        <ele>292.0</ele>
        <time>2020-02-22T11:28:15Z</time>
      </trkpt>
      <trkpt lat="39.0564310" lon="1.3621580">
        <ele>290.9</ele>
        <time>2020-02-22T11:28:16Z</time>
      </trkpt>
      <trkpt lat="39.0564930" lon="1.3622370">
        <ele>289.9</ele>
        <time>2020-02-22T11:28:17Z</time>
      </trkpt>
      <trkpt lat="39.0565240" lon="1.3623220">
        <ele>289.1</ele>
        <time>2020-02-22T11:28:18Z</time>
      </trkpt>
      <trkpt lat="39.0565280" lon="1.3624080">
        <ele>288.5</ele>
        <time>2020-02-22T11:28:19Z</time>
      </trkpt>
      <trkpt lat="39.0565320" lon="1.3625010">
        <ele>287.8</ele>
        <time>2020-02-22T11:28:20Z</time>
      </trkpt>
      <trkpt lat="39.0565380" lon="1.3625980">
        <ele>287.1</ele>
        <time>2020-02-22T11:28:21Z</time>
      </trkpt>
      <trkpt lat="39.0565660" lon="1.3626790">
        <ele>286.5</ele>
        <time>2020-02-22T11:28:22Z</time>
      </trkpt>
      <trkpt lat="39.0565940" lon="1.3627430">
        <ele>286.0</ele>
        <time>2020-02-22T11:28:23Z</time>
      </trkpt>
      <trkpt lat="39.0566300" lon="1.3628060">
        <ele>285.4</ele>
        <time>2020-02-22T11:28:24Z</time>
      </trkpt>
      <trkpt lat="39.0566690" lon="1.3628550">
        <ele>285.0</ele>
        <time>2020-02-22T11:28:25Z</time>
      </trkpt>
      <trkpt lat="39.0567190" lon="1.3629240">
        <ele>284.5</ele>
        <time>2020-02-22T11:28:26Z</time>
      </trkpt>
      <trkpt lat="39.0567530" lon="1.3629890">
        <ele>284.1</ele>
        <time>2020-02-22T11:28:27Z</time>
      </trkpt>
      <trkpt lat="39.0567840" lon="1.3630500">
        <ele>283.8</ele>
        <time>2020-02-22T11:28:28Z</time>
      </trkpt>
      <trkpt lat="39.0568190" lon="1.3631050">
        <ele>283.3</ele>
        <time>2020-02-22T11:28:29Z</time>
      </trkpt>
      <trkpt lat="39.0568480" lon="1.3631530">
        <ele>283.2</ele>
        <time>2020-02-22T11:28:30Z</time>
      </trkpt>
      <trkpt lat="39.0568600" lon="1.3632240">
        <ele>283.1</ele>
        <time>2020-02-22T11:28:31Z</time>
      </trkpt>
      <trkpt lat="39.0568740" lon="1.3632950">
        <ele>283.0</ele>
        <time>2020-02-22T11:28:32Z</time>
      </trkpt>
      <trkpt lat="39.0568870" lon="1.3633520">
        <ele>283.0</ele>
        <time>2020-02-22T11:28:33Z</time>
      </trkpt>
      <trkpt lat="39.0568930" lon="1.3634080">
        <ele>283.0</ele>
        <time>2020-02-22T11:28:34Z</time>
      </trkpt>
      <trkpt lat="39.0568990" lon="1.3634670">
        <ele>283.0</ele>
        <time>2020-02-22T11:28:35Z</time>
      </trkpt>
      <trkpt lat="39.0569090" lon="1.3635200">
        <ele>283.0</ele>
        <time>2020-02-22T11:28:36Z</time>
      </trkpt>
      <trkpt lat="39.0569240" lon="1.3635750">
        <ele>283.0</ele>
        <time>2020-02-22T11:28:37Z</time>
      </trkpt>
      <trkpt lat="39.0569280" lon="1.3636280">
        <ele>283.0</ele>
        <time>2020-02-22T11:28:38Z</time>
      </trkpt>
      <trkpt lat="39.0569380" lon="1.3636770">
        <ele>283.0</ele>
        <time>2020-02-22T11:28:39Z</time>
      </trkpt>
      <trkpt lat="39.0569450" lon="1.3637310">
        <ele>283.0</ele>
        <time>2020-02-22T11:28:40Z</time>
      </trkpt>
      <trkpt lat="39.0569500" lon="1.3637690">
        <ele>283.1</ele>
        <time>2020-02-22T11:28:41Z</time>
      </trkpt>
      <trkpt lat="39.0569580" lon="1.3638050">
        <ele>283.1</ele>
        <time>2020-02-22T11:28:42Z</time>
      </trkpt>
      <trkpt lat="39.0569670" lon="1.3638540">
        <ele>283.1</ele>
        <time>2020-02-22T11:28:43Z</time>
      </trkpt>
      <trkpt lat="39.0569810" lon="1.3639030">
        <ele>283.1</ele>
        <time>2020-02-22T11:28:44Z</time>
      </trkpt>
      <trkpt lat="39.0569960" lon="1.3639710">
        <ele>283.1</ele>
        <time>2020-02-22T11:28:45Z</time>
      </trkpt>
      <trkpt lat="39.0570040" lon="1.3640450">
        <ele>283.1</ele>
        <time>2020-02-22T11:28:46Z</time>
      </trkpt>
      <trkpt lat="39.0570070" lon="1.3641210">
        <ele>283.1</ele>
        <time>2020-02-22T11:28:47Z</time>
      </trkpt>
      <trkpt lat="39.0570120" lon="1.3642070">
        <ele>283.0</ele>
        <time>2020-02-22T11:28:48Z</time>
      </trkpt>
      <trkpt lat="39.0570170" lon="1.3642790">
        <ele>283.0</ele>
        <time>2020-02-22T11:28:49Z</time>
      </trkpt>
      <trkpt lat="39.0570220" lon="1.3643450">
        <ele>282.9</ele>
        <time>2020-02-22T11:28:50Z</time>
      </trkpt>
      <trkpt lat="39.0570220" lon="1.3644190">
        <ele>282.9</ele>
        <time>2020-02-22T11:28:51Z</time>
      </trkpt>
      <trkpt lat="39.0570170" lon="1.3644790">
        <ele>282.8</ele>
        <time>2020-02-22T11:28:52Z</time>
      </trkpt>
      <trkpt lat="39.0570100" lon="1.3645400">
        <ele>282.7</ele>
        <time>2020-02-22T11:28:53Z</time>
      </trkpt>
      <trkpt lat="39.0570120" lon="1.3645780">
        <ele>282.6</ele>
        <time>2020-02-22T11:28:54Z</time>
      </trkpt>
      <trkpt lat="39.0570130" lon="1.3646330">
        <ele>282.5</ele>
        <time>2020-02-22T11:28:55Z</time>
      </trkpt>
      <trkpt lat="39.0570110" lon="1.3646620">
        <ele>282.4</ele>
        <time>2020-02-22T11:28:56Z</time>
      </trkpt>
      <trkpt lat="39.0570050" lon="1.3646970">
        <ele>282.3</ele>
        <time>2020-02-22T11:28:57Z</time>
      </trkpt>
      <trkpt lat="39.0569910" lon="1.3647460">
        <ele>282.0</ele>
        <time>2020-02-22T11:28:58Z</time>
      </trkpt>
      <trkpt lat="39.0569880" lon="1.3647660">
        <ele>281.9</ele>
        <time>2020-02-22T11:28:59Z</time>
      </trkpt>
      <trkpt lat="39.0569790" lon="1.3648040">
        <ele>281.7</ele>
        <time>2020-02-22T11:29:00Z</time>
      </trkpt>
      <trkpt lat="39.0569660" lon="1.3648600">
        <ele>281.3</ele>
        <time>2020-02-22T11:29:01Z</time>
      </trkpt>
      <trkpt lat="39.0569700" lon="1.3648970">
        <ele>281.0</ele>
        <time>2020-02-22T11:29:02Z</time>
      </trkpt>
      <trkpt lat="39.0569690" lon="1.3649140">
        <ele>280.9</ele>
        <time>2020-02-22T11:29:03Z</time>
      </trkpt>
      <trkpt lat="39.0569590" lon="1.3649730">
        <ele>280.3</ele>
        <time>2020-02-22T11:29:04Z</time>
      </trkpt>
      <trkpt lat="39.0569490" lon="1.3650090">
        <ele>279.9</ele>
        <time>2020-02-22T11:29:05Z</time>
      </trkpt>
      <trkpt lat="39.0569370" lon="1.3650470">
        <ele>279.5</ele>
        <time>2020-02-22T11:29:06Z</time>
      </trkpt>
      <trkpt lat="39.0569270" lon="1.3651050">
        <ele>279.0</ele>
        <time>2020-02-22T11:29:07Z</time>
      </trkpt>
      <trkpt lat="39.0569150" lon="1.3651540">
        <ele>278.5</ele>
        <time>2020-02-22T11:29:08Z</time>
      </trkpt>
      <trkpt lat="39.0568960" lon="1.3652260">
        <ele>277.9</ele>
        <time>2020-02-22T11:29:09Z</time>
      </trkpt>
      <trkpt lat="39.0568870" lon="1.3652760">
        <ele>277.4</ele>
        <time>2020-02-22T11:29:10Z</time>
      </trkpt>
      <trkpt lat="39.0568730" lon="1.3653450">
        <ele>276.6</ele>
        <time>2020-02-22T11:29:11Z</time>
      </trkpt>
      <trkpt lat="39.0568670" lon="1.3654040">
        <ele>276.0</ele>
        <time>2020-02-22T11:29:12Z</time>
      </trkpt>
      <trkpt lat="39.0568690" lon="1.3654740">
        <ele>275.4</ele>
        <time>2020-02-22T11:29:13Z</time>
      </trkpt>
      <trkpt lat="39.0568970" lon="1.3655440">
        <ele>274.6</ele>
        <time>2020-02-22T11:29:14Z</time>
      </trkpt>
      <trkpt lat="39.0569350" lon="1.3656140">
        <ele>273.8</ele>
        <time>2020-02-22T11:29:15Z</time>
      </trkpt>
      <trkpt lat="39.0569750" lon="1.3656860">
        <ele>273.1</ele>
        <time>2020-02-22T11:29:16Z</time>
      </trkpt>
      <trkpt lat="39.0570150" lon="1.3657580">
        <ele>272.4</ele>
        <time>2020-02-22T11:29:17Z</time>
      </trkpt>
      <trkpt lat="39.0570590" lon="1.3658140">
        <ele>271.9</ele>
        <time>2020-02-22T11:29:18Z</time>
      </trkpt>
      <trkpt lat="39.0570870" lon="1.3658580">
        <ele>271.5</ele>
        <time>2020-02-22T11:29:19Z</time>
      </trkpt>
      <trkpt lat="39.0571140" lon="1.3659190">
        <ele>271.0</ele>
        <time>2020-02-22T11:29:20Z</time>
      </trkpt>
      <trkpt lat="39.0571310" lon="1.3660120">
        <ele>270.5</ele>
        <time>2020-02-22T11:29:21Z</time>
      </trkpt>
      <trkpt lat="39.0571310" lon="1.3660990">
        <ele>270.0</ele>
        <time>2020-02-22T11:29:22Z</time>
      </trkpt>
      <trkpt lat="39.0571290" lon="1.3661850">
        <ele>269.5</ele>
        <time>2020-02-22T11:29:23Z</time>
      </trkpt>
      <trkpt lat="39.0571190" lon="1.3662700">
        <ele>269.0</ele>
        <time>2020-02-22T11:29:24Z</time>
      </trkpt>
      <trkpt lat="39.0571020" lon="1.3663570">
        <ele>268.4</ele>
        <time>2020-02-22T11:29:25Z</time>
      </trkpt>
      <trkpt lat="39.0570800" lon="1.3664330">
        <ele>267.9</ele>
        <time>2020-02-22T11:29:26Z</time>
      </trkpt>
      <trkpt lat="39.0570650" lon="1.3665100">
        <ele>267.5</ele>
        <time>2020-02-22T11:29:27Z</time>
      </trkpt>
      <trkpt lat="39.0570580" lon="1.3665930">
        <ele>266.9</ele>
        <time>2020-02-22T11:29:28Z</time>
      </trkpt>
      <trkpt lat="39.0570710" lon="1.3666770">
        <ele>266.3</ele>
        <time>2020-02-22T11:29:29Z</time>
      </trkpt>
      <trkpt lat="39.0570810" lon="1.3667640">
        <ele>265.9</ele>
        <time>2020-02-22T11:29:30Z</time>
      </trkpt>
      <trkpt lat="39.0570890" lon="1.3668480">
        <ele>265.6</ele>
        <time>2020-02-22T11:29:31Z</time>
      </trkpt>
      <trkpt lat="39.0570860" lon="1.3669410">
        <ele>265.3</ele>
        <time>2020-02-22T11:29:32Z</time>
      </trkpt>
      <trkpt lat="39.0570930" lon="1.3670340">
        <ele>265.0</ele>
        <time>2020-02-22T11:29:33Z</time>
      </trkpt>
      <trkpt lat="39.0570920" lon="1.3671300">
        <ele>264.8</ele>
        <time>2020-02-22T11:29:34Z</time>
      </trkpt>
      <trkpt lat="39.0570800" lon="1.3672330">
        <ele>264.6</ele>
        <time>2020-02-22T11:29:35Z</time>
      </trkpt>
      <trkpt lat="39.0570550" lon="1.3673440">
        <ele>264.5</ele>
        <time>2020-02-22T11:29:36Z</time>
      </trkpt>
      <trkpt lat="39.0570320" lon="1.3674470">
        <ele>264.3</ele>
        <time>2020-02-22T11:29:37Z</time>
      </trkpt>
      <trkpt lat="39.0570130" lon="1.3675380">
        <ele>264.2</ele>
        <time>2020-02-22T11:29:38Z</time>
      </trkpt>
      <trkpt lat="39.0569980" lon="1.3676340">
        <ele>264.0</ele>
        <time>2020-02-22T11:29:39Z</time>
      </trkpt>
      <trkpt lat="39.0569760" lon="1.3677370">
        <ele>263.9</ele>
        <time>2020-02-22T11:29:40Z</time>
      </trkpt>
      <trkpt lat="39.0569520" lon="1.3678410">
        <ele>263.8</ele>
        <time>2020-02-22T11:29:41Z</time>
      </trkpt>
      <trkpt lat="39.0569300" lon="1.3679390">
        <ele>263.6</ele>
        <time>2020-02-22T11:29:42Z</time>
      </trkpt>
      <trkpt lat="39.0569090" lon="1.3680240">
        <ele>263.5</ele>
        <time>2020-02-22T11:29:43Z</time>
      </trkpt>
      <trkpt lat="39.0568900" lon="1.3681070">
        <ele>263.3</ele>
        <time>2020-02-22T11:29:44Z</time>
      </trkpt>
      <trkpt lat="39.0568740" lon="1.3682000">
        <ele>263.2</ele>
        <time>2020-02-22T11:29:45Z</time>
      </trkpt>
      <trkpt lat="39.0568590" lon="1.3682740">
        <ele>263.0</ele>
        <time>2020-02-22T11:29:46Z</time>
      </trkpt>
      <trkpt lat="39.0568470" lon="1.3683520">
        <ele>262.7</ele>
        <time>2020-02-22T11:29:47Z</time>
      </trkpt>
      <trkpt lat="39.0568420" lon="1.3684290">
        <ele>262.4</ele>
        <time>2020-02-22T11:29:48Z</time>
      </trkpt>
      <trkpt lat="39.0568450" lon="1.3684910">
        <ele>262.1</ele>
        <time>2020-02-22T11:29:49Z</time>
      </trkpt>
      <trkpt lat="39.0568310" lon="1.3685550">
        <ele>261.8</ele>
        <time>2020-02-22T11:29:50Z</time>
      </trkpt>
      <trkpt lat="39.0568140" lon="1.3686130">
        <ele>261.5</ele>
        <time>2020-02-22T11:29:51Z</time>
      </trkpt>
      <trkpt lat="39.0567980" lon="1.3686760">
        <ele>261.0</ele>
        <time>2020-02-22T11:29:52Z</time>
      </trkpt>
      <trkpt lat="39.0567840" lon="1.3687420">
        <ele>260.5</ele>
        <time>2020-02-22T11:29:53Z</time>
      </trkpt>
      <trkpt lat="39.0567610" lon="1.3688020">
        <ele>259.9</ele>
        <time>2020-02-22T11:29:54Z</time>
      </trkpt>
      <trkpt lat="39.0567350" lon="1.3688590">
        <ele>259.3</ele>
        <time>2020-02-22T11:29:55Z</time>
      </trkpt>
      <trkpt lat="39.0567030" lon="1.3689030">
        <ele>258.6</ele>
        <time>2020-02-22T11:29:56Z</time>
      </trkpt>
      <trkpt lat="39.0566810" lon="1.3689410">
        <ele>258.1</ele>
        <time>2020-02-22T11:29:57Z</time>
      </trkpt>
      <trkpt lat="39.0566650" lon="1.3689800">
        <ele>257.5</ele>
        <time>2020-02-22T11:29:58Z</time>
      </trkpt>
      <trkpt lat="39.0566730" lon="1.3690190">
        <ele>257.0</ele>
        <time>2020-02-22T11:29:59Z</time>
      </trkpt>
      <trkpt lat="39.0566850" lon="1.3690620">
        <ele>256.5</ele>
        <time>2020-02-22T11:30:00Z</time>
      </trkpt>
      <trkpt lat="39.0566910" lon="1.3691100">
        <ele>256.0</ele>
        <time>2020-02-22T11:30:01Z</time>
      </trkpt>
      <trkpt lat="39.0567010" lon="1.3691590">
        <ele>255.6</ele>
        <time>2020-02-22T11:30:02Z</time>
      </trkpt>
      <trkpt lat="39.0567010" lon="1.3692000">
        <ele>255.2</ele>
        <time>2020-02-22T11:30:03Z</time>
      </trkpt>
      <trkpt lat="39.0567050" lon="1.3692400">
        <ele>254.9</ele>
        <time>2020-02-22T11:30:04Z</time>
      </trkpt>
      <trkpt lat="39.0566940" lon="1.3692760">
        <ele>254.6</ele>
        <time>2020-02-22T11:30:05Z</time>
      </trkpt>
      <trkpt lat="39.0566750" lon="1.3693060">
        <ele>254.3</ele>
        <time>2020-02-22T11:30:06Z</time>
      </trkpt>
      <trkpt lat="39.0566540" lon="1.3693340">
        <ele>254.0</ele>
        <time>2020-02-22T11:30:07Z</time>
      </trkpt>
      <trkpt lat="39.0566280" lon="1.3693650">
        <ele>253.7</ele>
        <time>2020-02-22T11:30:08Z</time>
      </trkpt>
      <trkpt lat="39.0566000" lon="1.3694010">
        <ele>253.2</ele>
        <time>2020-02-22T11:30:09Z</time>
      </trkpt>
      <trkpt lat="39.0565800" lon="1.3694310">
        <ele>252.8</ele>
        <time>2020-02-22T11:30:10Z</time>
      </trkpt>
      <trkpt lat="39.0565780" lon="1.3694730">
        <ele>252.4</ele>
        <time>2020-02-22T11:30:11Z</time>
      </trkpt>
      <trkpt lat="39.0566000" lon="1.3694940">
        <ele>252.0</ele>
        <time>2020-02-22T11:30:12Z</time>
      </trkpt>
      <trkpt lat="39.0566410" lon="1.3695120">
        <ele>251.4</ele>
        <time>2020-02-22T11:30:13Z</time>
      </trkpt>
      <trkpt lat="39.0566850" lon="1.3695450">
        <ele>250.8</ele>
        <time>2020-02-22T11:30:14Z</time>
      </trkpt>
      <trkpt lat="39.0567290" lon="1.3695820">
        <ele>250.2</ele>
        <time>2020-02-22T11:30:15Z</time>
      </trkpt>
      <trkpt lat="39.0567750" lon="1.3696190">
        <ele>249.6</ele>
        <time>2020-02-22T11:30:16Z</time>
      </trkpt>
      <trkpt lat="39.0568170" lon="1.3696640">
        <ele>248.9</ele>
        <time>2020-02-22T11:30:17Z</time>
      </trkpt>
      <trkpt lat="39.0568630" lon="1.3696990">
        <ele>248.3</ele>
        <time>2020-02-22T11:30:18Z</time>
      </trkpt>
      <trkpt lat="39.0569090" lon="1.3697240">
        <ele>247.5</ele>
        <time>2020-02-22T11:30:19Z</time>
      </trkpt>
      <trkpt lat="39.0569510" lon="1.3697350">
        <ele>246.8</ele>
        <time>2020-02-22T11:30:20Z</time>
      </trkpt>
      <trkpt lat="39.0569810" lon="1.3697380">
        <ele>246.4</ele>
        <time>2020-02-22T11:30:21Z</time>
      </trkpt>
      <trkpt lat="39.0570130" lon="1.3697610">
        <ele>245.9</ele>
        <time>2020-02-22T11:30:22Z</time>
      </trkpt>
      <trkpt lat="39.0570210" lon="1.3697720">
        <ele>245.7</ele>
        <time>2020-02-22T11:30:23Z</time>
      </trkpt>
      <trkpt lat="39.0570120" lon="1.3698210">
        <ele>245.2</ele>
        <time>2020-02-22T11:30:24Z</time>
      </trkpt>
      <trkpt lat="39.0569960" lon="1.3698780">
        <ele>244.5</ele>
        <time>2020-02-22T11:30:25Z</time>
      </trkpt>
      <trkpt lat="39.0569610" lon="1.3699180">
        <ele>243.9</ele>
        <time>2020-02-22T11:30:26Z</time>
      </trkpt>
      <trkpt lat="39.0569210" lon="1.3699520">
        <ele>243.3</ele>
        <time>2020-02-22T11:30:27Z</time>
      </trkpt>
      <trkpt lat="39.0568810" lon="1.3699920">
        <ele>242.6</ele>
        <time>2020-02-22T11:30:28Z</time>
      </trkpt>
      <trkpt lat="39.0568420" lon="1.3700330">
        <ele>242.0</ele>
        <time>2020-02-22T11:30:29Z</time>
      </trkpt>
      <trkpt lat="39.0568030" lon="1.3700690">
        <ele>241.6</ele>
        <time>2020-02-22T11:30:30Z</time>
      </trkpt>
      <trkpt lat="39.0567610" lon="1.3701010">
        <ele>241.1</ele>
        <time>2020-02-22T11:30:31Z</time>
      </trkpt>
      <trkpt lat="39.0567140" lon="1.3701360">
        <ele>240.5</ele>
        <time>2020-02-22T11:30:32Z</time>
      </trkpt>
      <trkpt lat="39.0566530" lon="1.3701530">
        <ele>239.7</ele>
        <time>2020-02-22T11:30:33Z</time>
      </trkpt>
      <trkpt lat="39.0565940" lon="1.3701710">
        <ele>239.1</ele>
        <time>2020-02-22T11:30:34Z</time>
      </trkpt>
      <trkpt lat="39.0565390" lon="1.3701680">
        <ele>238.5</ele>
        <time>2020-02-22T11:30:35Z</time>
      </trkpt>
      <trkpt lat="39.0564880" lon="1.3701680">
        <ele>238.0</ele>
        <time>2020-02-22T11:30:36Z</time>
      </trkpt>
      <trkpt lat="39.0564420" lon="1.3701790">
        <ele>237.4</ele>
        <time>2020-02-22T11:30:37Z</time>
      </trkpt>
      <trkpt lat="39.0563900" lon="1.3701730">
        <ele>236.9</ele>
        <time>2020-02-22T11:30:38Z</time>
      </trkpt>
      <trkpt lat="39.0563380" lon="1.3701730">
        <ele>236.2</ele>
        <time>2020-02-22T11:30:39Z</time>
      </trkpt>
      <trkpt lat="39.0562890" lon="1.3701630">
        <ele>235.5</ele>
        <time>2020-02-22T11:30:40Z</time>
      </trkpt>
      <trkpt lat="39.0562540" lon="1.3701490">
        <ele>235.0</ele>
        <time>2020-02-22T11:30:41Z</time>
      </trkpt>
      <trkpt lat="39.0562220" lon="1.3701780">
        <ele>234.7</ele>
        <time>2020-02-22T11:30:42Z</time>
      </trkpt>
      <trkpt lat="39.0562140" lon="1.3701970">
        <ele>234.5</ele>
        <time>2020-02-22T11:30:43Z</time>
      </trkpt>
      <trkpt lat="39.0562050" lon="1.3702490">
        <ele>234.2</ele>
        <time>2020-02-22T11:30:44Z</time>
      </trkpt>
      <trkpt lat="39.0562120" lon="1.3703030">
        <ele>233.9</ele>
        <time>2020-02-22T11:30:45Z</time>
      </trkpt>
      <trkpt lat="39.0562430" lon="1.3703360">
        <ele>233.4</ele>
        <time>2020-02-22T11:30:46Z</time>
      </trkpt>
      <trkpt lat="39.0562800" lon="1.3703620">
        <ele>232.9</ele>
        <time>2020-02-22T11:30:47Z</time>
      </trkpt>
      <trkpt lat="39.0563180" lon="1.3703890">
        <ele>232.4</ele>
        <time>2020-02-22T11:30:48Z</time>
      </trkpt>
      <trkpt lat="39.0563470" lon="1.3704100">
        <ele>232.0</ele>
        <time>2020-02-22T11:30:49Z</time>
      </trkpt>
      <trkpt lat="39.0563700" lon="1.3704300">
        <ele>230.9</ele>
        <time>2020-02-22T11:30:50Z</time>
      </trkpt>
      <trkpt lat="39.0563790" lon="1.3704840">
        <ele>230.2</ele>
        <time>2020-02-22T11:30:51Z</time>
      </trkpt>
      <trkpt lat="39.0563780" lon="1.3705060">
        <ele>230.0</ele>
        <time>2020-02-22T11:30:52Z</time>
      </trkpt>
      <trkpt lat="39.0563610" lon="1.3705500">
        <ele>229.4</ele>
        <time>2020-02-22T11:30:53Z</time>
      </trkpt>
      <trkpt lat="39.0563290" lon="1.3705800">
        <ele>228.9</ele>
        <time>2020-02-22T11:30:54Z</time>
      </trkpt>
      <trkpt lat="39.0562920" lon="1.3706110">
        <ele>228.1</ele>
        <time>2020-02-22T11:30:55Z</time>
      </trkpt>
      <trkpt lat="39.0562500" lon="1.3706420">
        <ele>227.2</ele>
        <time>2020-02-22T11:30:56Z</time>
      </trkpt>
      <trkpt lat="39.0562010" lon="1.3706750">
        <ele>226.2</ele>
        <time>2020-02-22T11:30:57Z</time>
      </trkpt>
      <trkpt lat="39.0561470" lon="1.3707090">
        <ele>225.4</ele>
        <time>2020-02-22T11:30:58Z</time>
      </trkpt>
      <trkpt lat="39.0560940" lon="1.3707440">
        <ele>224.7</ele>
        <time>2020-02-22T11:30:59Z</time>
      </trkpt>
      <trkpt lat="39.0560430" lon="1.3707780">
        <ele>224.1</ele>
        <time>2020-02-22T11:31:00Z</time>
      </trkpt>
      <trkpt lat="39.0559970" lon="1.3708110">
        <ele>223.6</ele>
        <time>2020-02-22T11:31:01Z</time>
      </trkpt>
      <trkpt lat="39.0559500" lon="1.3708410">
        <ele>223.1</ele>
        <time>2020-02-22T11:31:02Z</time>
      </trkpt>
      <trkpt lat="39.0559000" lon="1.3708750">
        <ele>222.7</ele>
        <time>2020-02-22T11:31:03Z</time>
      </trkpt>
      <trkpt lat="39.0558500" lon="1.3709180">
        <ele>222.2</ele>
        <time>2020-02-22T11:31:04Z</time>
      </trkpt>
      <trkpt lat="39.0557960" lon="1.3709520">
        <ele>221.7</ele>
        <time>2020-02-22T11:31:05Z</time>
      </trkpt>
      <trkpt lat="39.0557520" lon="1.3709900">
        <ele>221.2</ele>
        <time>2020-02-22T11:31:06Z</time>
      </trkpt>
      <trkpt lat="39.0557080" lon="1.3710210">
        <ele>220.8</ele>
        <time>2020-02-22T11:31:07Z</time>
      </trkpt>
      <trkpt lat="39.0556660" lon="1.3710430">
        <ele>220.3</ele>
        <time>2020-02-22T11:31:08Z</time>
      </trkpt>
      <trkpt lat="39.0556270" lon="1.3710750">
        <ele>219.8</ele>
        <time>2020-02-22T11:31:09Z</time>
      </trkpt>
      <trkpt lat="39.0555850" lon="1.3711070">
        <ele>219.4</ele>
        <time>2020-02-22T11:31:10Z</time>
      </trkpt>
      <trkpt lat="39.0555490" lon="1.3711580">
        <ele>218.9</ele>
        <time>2020-02-22T11:31:11Z</time>
      </trkpt>
      <trkpt lat="39.0555160" lon="1.3712070">
        <ele>218.4</ele>
        <time>2020-02-22T11:31:12Z</time>
      </trkpt>
      <trkpt lat="39.0554860" lon="1.3712600">
        <ele>217.9</ele>
        <time>2020-02-22T11:31:13Z</time>
      </trkpt>
      <trkpt lat="39.0554560" lon="1.3713250">
        <ele>217.3</ele>
        <time>2020-02-22T11:31:14Z</time>
      </trkpt>
      <trkpt lat="39.0554330" lon="1.3714010">
        <ele>216.6</ele>
        <time>2020-02-22T11:31:15Z</time>
      </trkpt>
      <trkpt lat="39.0554120" lon="1.3714810">
        <ele>215.9</ele>
        <time>2020-02-22T11:31:16Z</time>
      </trkpt>
      <trkpt lat="39.0553860" lon="1.3715470">
        <ele>215.3</ele>
        <time>2020-02-22T11:31:17Z</time>
      </trkpt>
      <trkpt lat="39.0553540" lon="1.3715990">
        <ele>215.0</ele>
        <time>2020-02-22T11:31:18Z</time>
      </trkpt>
      <trkpt lat="39.0553000" lon="1.3716470">
        <ele>214.5</ele>
        <time>2020-02-22T11:31:19Z</time>
      </trkpt>
      <trkpt lat="39.0552370" lon="1.3716930">
        <ele>213.9</ele>
        <time>2020-02-22T11:31:20Z</time>
      </trkpt>
      <trkpt lat="39.0551850" lon="1.3717560">
        <ele>213.2</ele>
        <time>2020-02-22T11:31:21Z</time>
      </trkpt>
      <trkpt lat="39.0551290" lon="1.3718120">
        <ele>212.4</ele>
        <time>2020-02-22T11:31:22Z</time>
      </trkpt>
      <trkpt lat="39.0550770" lon="1.3718650">
        <ele>211.9</ele>
        <time>2020-02-22T11:31:23Z</time>
      </trkpt>
      <trkpt lat="39.0550260" lon="1.3719090">
        <ele>211.4</ele>
        <time>2020-02-22T11:31:24Z</time>
      </trkpt>
      <trkpt lat="39.0549700" lon="1.3719400">
        <ele>210.9</ele>
        <time>2020-02-22T11:31:25Z</time>
      </trkpt>
      <trkpt lat="39.0549110" lon="1.3719200">
        <ele>210.1</ele>
        <time>2020-02-22T11:31:26Z</time>
      </trkpt>
      <trkpt lat="39.0548510" lon="1.3719000">
        <ele>209.2</ele>
        <time>2020-02-22T11:31:27Z</time>
      </trkpt>
      <trkpt lat="39.0547910" lon="1.3718800">
        <ele>208.4</ele>
        <time>2020-02-22T11:31:28Z</time>
      </trkpt>
      <trkpt lat="39.0547340" lon="1.3718580">
        <ele>207.5</ele>
        <time>2020-02-22T11:31:29Z</time>
      </trkpt>
      <trkpt lat="39.0546730" lon="1.3718340">
        <ele>206.5</ele>
        <time>2020-02-22T11:31:30Z</time>
      </trkpt>
      <trkpt lat="39.0546130" lon="1.3718350">
        <ele>205.7</ele>
        <time>2020-02-22T11:31:31Z</time>
      </trkpt>
      <trkpt lat="39.0545510" lon="1.3718200">
        <ele>204.8</ele>
        <time>2020-02-22T11:31:32Z</time>
      </trkpt>
      <trkpt lat="39.0544840" lon="1.3718100">
        <ele>204.0</ele>
        <time>2020-02-22T11:31:33Z</time>
      </trkpt>
      <trkpt lat="39.0544220" lon="1.3717840">
        <ele>203.2</ele>
        <time>2020-02-22T11:31:34Z</time>
      </trkpt>
      <trkpt lat="39.0543560" lon="1.3717660">
        <ele>202.4</ele>
        <time>2020-02-22T11:31:35Z</time>
      </trkpt>
      <trkpt lat="39.0542810" lon="1.3717650">
        <ele>201.6</ele>
        <time>2020-02-22T11:31:36Z</time>
      </trkpt>
      <trkpt lat="39.0542110" lon="1.3717500">
        <ele>200.9</ele>
        <time>2020-02-22T11:31:37Z</time>
      </trkpt>
      <trkpt lat="39.0541380" lon="1.3717460">
        <ele>200.3</ele>
        <time>2020-02-22T11:31:38Z</time>
      </trkpt>
      <trkpt lat="39.0540650" lon="1.3717430">
        <ele>199.8</ele>
        <time>2020-02-22T11:31:39Z</time>
      </trkpt>
      <trkpt lat="39.0539950" lon="1.3717420">
        <ele>199.3</ele>
        <time>2020-02-22T11:31:40Z</time>
      </trkpt>
      <trkpt lat="39.0539300" lon="1.3717220">
        <ele>198.8</ele>
        <time>2020-02-22T11:31:41Z</time>
      </trkpt>
      <trkpt lat="39.0538680" lon="1.3716830">
        <ele>198.4</ele>
        <time>2020-02-22T11:31:42Z</time>
      </trkpt>
      <trkpt lat="39.0538150" lon="1.3716210">
        <ele>197.9</ele>
        <time>2020-02-22T11:31:43Z</time>
      </trkpt>
      <trkpt lat="39.0537540" lon="1.3715840">
        <ele>197.3</ele>
        <time>2020-02-22T11:31:44Z</time>
      </trkpt>
      <trkpt lat="39.0536810" lon="1.3715690">
        <ele>196.6</ele>
        <time>2020-02-22T11:31:45Z</time>
      </trkpt>
      <trkpt lat="39.0536030" lon="1.3715490">
        <ele>196.0</ele>
        <time>2020-02-22T11:31:46Z</time>
      </trkpt>
      <trkpt lat="39.0535240" lon="1.3715220">
        <ele>195.5</ele>
        <time>2020-02-22T11:31:47Z</time>
      </trkpt>
      <trkpt lat="39.0534510" lon="1.3714790">
        <ele>195.0</ele>
        <time>2020-02-22T11:31:48Z</time>
      </trkpt>
      <trkpt lat="39.0533800" lon="1.3714470">
        <ele>194.5</ele>
        <time>2020-02-22T11:31:49Z</time>
      </trkpt>
      <trkpt lat="39.0533250" lon="1.3714090">
        <ele>194.1</ele>
        <time>2020-02-22T11:31:50Z</time>
      </trkpt>
      <trkpt lat="39.0532780" lon="1.3713780">
        <ele>193.8</ele>
        <time>2020-02-22T11:31:51Z</time>
      </trkpt>
      <trkpt lat="39.0532420" lon="1.3713380">
        <ele>193.5</ele>
        <time>2020-02-22T11:31:52Z</time>
      </trkpt>
      <trkpt lat="39.0532050" lon="1.3712940">
        <ele>193.2</ele>
        <time>2020-02-22T11:31:53Z</time>
      </trkpt>
      <trkpt lat="39.0531610" lon="1.3713000">
        <ele>192.9</ele>
        <time>2020-02-22T11:31:54Z</time>
      </trkpt>
      <trkpt lat="39.0531210" lon="1.3713370">
        <ele>192.5</ele>
        <time>2020-02-22T11:31:55Z</time>
      </trkpt>
      <trkpt lat="39.0530930" lon="1.3713850">
        <ele>192.1</ele>
        <time>2020-02-22T11:31:56Z</time>
      </trkpt>
      <trkpt lat="39.0530770" lon="1.3714340">
        <ele>191.7</ele>
        <time>2020-02-22T11:31:57Z</time>
      </trkpt>
      <trkpt lat="39.0530520" lon="1.3714880">
        <ele>191.3</ele>
        <time>2020-02-22T11:31:58Z</time>
      </trkpt>
      <trkpt lat="39.0530190" lon="1.3715400">
        <ele>190.8</ele>
        <time>2020-02-22T11:31:59Z</time>
      </trkpt>
      <trkpt lat="39.0529800" lon="1.3715820">
        <ele>190.4</ele>
        <time>2020-02-22T11:32:00Z</time>
      </trkpt>
      <trkpt lat="39.0529550" lon="1.3716370">
        <ele>190.1</ele>
        <time>2020-02-22T11:32:01Z</time>
      </trkpt>
      <trkpt lat="39.0529270" lon="1.3716840">
        <ele>189.9</ele>
        <time>2020-02-22T11:32:02Z</time>
      </trkpt>
      <trkpt lat="39.0528830" lon="1.3716970">
        <ele>189.5</ele>
        <time>2020-02-22T11:32:03Z</time>
      </trkpt>
      <trkpt lat="39.0528400" lon="1.3716870">
        <ele>189.1</ele>
        <time>2020-02-22T11:32:04Z</time>
      </trkpt>
      <trkpt lat="39.0528050" lon="1.3716650">
        <ele>188.8</ele>
        <time>2020-02-22T11:32:05Z</time>
      </trkpt>
      <trkpt lat="39.0527780" lon="1.3716810">
        <ele>188.7</ele>
        <time>2020-02-22T11:32:06Z</time>
      </trkpt>
      <trkpt lat="39.0527630" lon="1.3717260">
        <ele>188.4</ele>
        <time>2020-02-22T11:32:07Z</time>
      </trkpt>
      <trkpt lat="39.0527500" lon="1.3717840">
        <ele>188.1</ele>
        <time>2020-02-22T11:32:08Z</time>
      </trkpt>
      <trkpt lat="39.0527430" lon="1.3718450">
        <ele>187.8</ele>
        <time>2020-02-22T11:32:09Z</time>
      </trkpt>
      <trkpt lat="39.0527280" lon="1.3719010">
        <ele>187.2</ele>
        <time>2020-02-22T11:32:10Z</time>
      </trkpt>
      <trkpt lat="39.0527050" lon="1.3719590">
        <ele>186.5</ele>
        <time>2020-02-22T11:32:11Z</time>
      </trkpt>
      <trkpt lat="39.0526860" lon="1.3720170">
        <ele>185.9</ele>
        <time>2020-02-22T11:32:12Z</time>
      </trkpt>
      <trkpt lat="39.0526600" lon="1.3720700">
        <ele>185.3</ele>
        <time>2020-02-22T11:32:13Z</time>
      </trkpt>
      <trkpt lat="39.0526390" lon="1.3721240">
        <ele>184.7</ele>
        <time>2020-02-22T11:32:14Z</time>
      </trkpt>
      <trkpt lat="39.0526240" lon="1.3721750">
        <ele>184.2</ele>
        <time>2020-02-22T11:32:15Z</time>
      </trkpt>
      <trkpt lat="39.0526110" lon="1.3722260">
        <ele>183.7</ele>
        <time>2020-02-22T11:32:16Z</time>
      </trkpt>
      <trkpt lat="39.0525950" lon="1.3722770">
        <ele>183.0</ele>
        <time>2020-02-22T11:32:17Z</time>
      </trkpt>
      <trkpt lat="39.0525860" lon="1.3723280">
        <ele>182.3</ele>
        <time>2020-02-22T11:32:18Z</time>
      </trkpt>
      <trkpt lat="39.0525750" lon="1.3723930">
        <ele>180.3</ele>
        <time>2020-02-22T11:32:19Z</time>
      </trkpt>
      <trkpt lat="39.0525940" lon="1.3724430">
        <ele>180.1</ele>
        <time>2020-02-22T11:32:20Z</time>
      </trkpt>
      <trkpt lat="39.0526260" lon="1.3724820">
        <ele>179.9</ele>
        <time>2020-02-22T11:32:21Z</time>
      </trkpt>
      <trkpt lat="39.0526520" lon="1.3725300">
        <ele>179.8</ele>
        <time>2020-02-22T11:32:22Z</time>
      </trkpt>
      <trkpt lat="39.0526840" lon="1.3725750">
        <ele>179.6</ele>
        <time>2020-02-22T11:32:23Z</time>
      </trkpt>
      <trkpt lat="39.0527250" lon="1.3726060">
        <ele>179.4</ele>
        <time>2020-02-22T11:32:24Z</time>
      </trkpt>
      <trkpt lat="39.0527580" lon="1.3726490">
        <ele>179.2</ele>
        <time>2020-02-22T11:32:25Z</time>
      </trkpt>
      <trkpt lat="39.0527860" lon="1.3726930">
        <ele>179.0</ele>
        <time>2020-02-22T11:32:26Z</time>
      </trkpt>
      <trkpt lat="39.0528140" lon="1.3727420">
        <ele>178.9</ele>
        <time>2020-02-22T11:32:27Z</time>
      </trkpt>
      <trkpt lat="39.0528440" lon="1.3727870">
        <ele>178.7</ele>
        <time>2020-02-22T11:32:28Z</time>
      </trkpt>
      <trkpt lat="39.0528750" lon="1.3728330">
        <ele>178.6</ele>
        <time>2020-02-22T11:32:29Z</time>
      </trkpt>
      <trkpt lat="39.0529130" lon="1.3728760">
        <ele>178.4</ele>
        <time>2020-02-22T11:32:30Z</time>
      </trkpt>
      <trkpt lat="39.0529520" lon="1.3729170">
        <ele>178.2</ele>
        <time>2020-02-22T11:32:31Z</time>
      </trkpt>
      <trkpt lat="39.0529870" lon="1.3729640">
        <ele>178.0</ele>
        <time>2020-02-22T11:32:32Z</time>
      </trkpt>
      <trkpt lat="39.0530210" lon="1.3730040">
        <ele>177.8</ele>
        <time>2020-02-22T11:32:33Z</time>
      </trkpt>
      <trkpt lat="39.0530520" lon="1.3730480">
        <ele>177.6</ele>
        <time>2020-02-22T11:32:34Z</time>
      </trkpt>
      <trkpt lat="39.0530830" lon="1.3730920">
        <ele>177.4</ele>
        <time>2020-02-22T11:32:35Z</time>
      </trkpt>
      <trkpt lat="39.0531170" lon="1.3731360">
        <ele>177.2</ele>
        <time>2020-02-22T11:32:36Z</time>
      </trkpt>
      <trkpt lat="39.0531510" lon="1.3731850">
        <ele>176.9</ele>
        <time>2020-02-22T11:32:37Z</time>
      </trkpt>
      <trkpt lat="39.0531830" lon="1.3732440">
        <ele>176.6</ele>
        <time>2020-02-22T11:32:38Z</time>
      </trkpt>
      <trkpt lat="39.0532130" lon="1.3733080">
        <ele>176.4</ele>
        <time>2020-02-22T11:32:39Z</time>
      </trkpt>
      <trkpt lat="39.0532500" lon="1.3733670">
        <ele>176.1</ele>
        <time>2020-02-22T11:32:40Z</time>
      </trkpt>
      <trkpt lat="39.0533040" lon="1.3734070">
        <ele>175.9</ele>
        <time>2020-02-22T11:32:41Z</time>
      </trkpt>
      <trkpt lat="39.0533440" lon="1.3734640">
        <ele>175.6</ele>
        <time>2020-02-22T11:32:42Z</time>
      </trkpt>
      <trkpt lat="39.0533820" lon="1.3735210">
        <ele>175.4</ele>
        <time>2020-02-22T11:32:43Z</time>
      </trkpt>
      <trkpt lat="39.0534170" lon="1.3735810">
        <ele>175.2</ele>
        <time>2020-02-22T11:32:44Z</time>
      </trkpt>
      <trkpt lat="39.0534500" lon="1.3736440">
        <ele>175.1</ele>
        <time>2020-02-22T11:32:45Z</time>
      </trkpt>
      <trkpt lat="39.0534860" lon="1.3737010">
        <ele>174.8</ele>
        <time>2020-02-22T11:32:46Z</time>
      </trkpt>
      <trkpt lat="39.0535260" lon="1.3737560">
        <ele>174.5</ele>
        <time>2020-02-22T11:32:47Z</time>
      </trkpt>
      <trkpt lat="39.0535750" lon="1.3738050">
        <ele>174.3</ele>
        <time>2020-02-22T11:32:48Z</time>
      </trkpt>
      <trkpt lat="39.0536250" lon="1.3738570">
        <ele>174.0</ele>
        <time>2020-02-22T11:32:49Z</time>
      </trkpt>
      <trkpt lat="39.0536720" lon="1.3739110">
        <ele>173.8</ele>
        <time>2020-02-22T11:32:50Z</time>
      </trkpt>
      <trkpt lat="39.0537140" lon="1.3739680">
        <ele>173.6</ele>
        <time>2020-02-22T11:32:51Z</time>
      </trkpt>
      <trkpt lat="39.0537550" lon="1.3740290">
        <ele>173.4</ele>
        <time>2020-02-22T11:32:52Z</time>
      </trkpt>
      <trkpt lat="39.0537990" lon="1.3740780">
        <ele>173.3</ele>
        <time>2020-02-22T11:32:53Z</time>
      </trkpt>
      <trkpt lat="39.0538450" lon="1.3741260">
        <ele>173.1</ele>
        <time>2020-02-22T11:32:54Z</time>
      </trkpt>
      <trkpt lat="39.0538930" lon="1.3741740">
        <ele>172.9</ele>
        <time>2020-02-22T11:32:55Z</time>
      </trkpt>
      <trkpt lat="39.0539400" lon="1.3742210">
        <ele>172.8</ele>
        <time>2020-02-22T11:32:56Z</time>
      </trkpt>
      <trkpt lat="39.0539810" lon="1.3742780">
        <ele>172.7</ele>
        <time>2020-02-22T11:32:57Z</time>
      </trkpt>
      <trkpt lat="39.0540250" lon="1.3743250">
        <ele>172.5</ele>
        <time>2020-02-22T11:32:58Z</time>
      </trkpt>
      <trkpt lat="39.0540660" lon="1.3743700">
        <ele>172.4</ele>
        <time>2020-02-22T11:32:59Z</time>
      </trkpt>
      <trkpt lat="39.0541040" lon="1.3744180">
        <ele>172.2</ele>
        <time>2020-02-22T11:33:00Z</time>
      </trkpt>
      <trkpt lat="39.0541410" lon="1.3744650">
        <ele>172.1</ele>
        <time>2020-02-22T11:33:01Z</time>
      </trkpt>
      <trkpt lat="39.0541770" lon="1.3745160">
        <ele>172.0</ele>
        <time>2020-02-22T11:33:02Z</time>
      </trkpt>
      <trkpt lat="39.0542130" lon="1.3745670">
        <ele>171.9</ele>
        <time>2020-02-22T11:33:03Z</time>
      </trkpt>
      <trkpt lat="39.0542470" lon="1.3746230">
        <ele>171.9</ele>
        <time>2020-02-22T11:33:04Z</time>
      </trkpt>
      <trkpt lat="39.0542840" lon="1.3746720">
        <ele>171.9</ele>
        <time>2020-02-22T11:33:05Z</time>
      </trkpt>
      <trkpt lat="39.0543230" lon="1.3747180">
        <ele>171.8</ele>
        <time>2020-02-22T11:33:06Z</time>
      </trkpt>
      <trkpt lat="39.0543630" lon="1.3747650">
        <ele>171.8</ele>
        <time>2020-02-22T11:33:07Z</time>
      </trkpt>
      <trkpt lat="39.0544030" lon="1.3748120">
        <ele>171.8</ele>
        <time>2020-02-22T11:33:08Z</time>
      </trkpt>
      <trkpt lat="39.0544420" lon="1.3748610">
        <ele>171.8</ele>
        <time>2020-02-22T11:33:09Z</time>
      </trkpt>
      <trkpt lat="39.0544850" lon="1.3749070">
        <ele>171.8</ele>
        <time>2020-02-22T11:33:10Z</time>
      </trkpt>
      <trkpt lat="39.0545220" lon="1.3749620">
        <ele>171.8</ele>
        <time>2020-02-22T11:33:11Z</time>
      </trkpt>
      <trkpt lat="39.0545590" lon="1.3750160">
        <ele>171.8</ele>
        <time>2020-02-22T11:33:12Z</time>
      </trkpt>
      <trkpt lat="39.0545960" lon="1.3750710">
        <ele>171.8</ele>
        <time>2020-02-22T11:33:13Z</time>
      </trkpt>
      <trkpt lat="39.0546210" lon="1.3751370">
        <ele>171.9</ele>
        <time>2020-02-22T11:33:14Z</time>
      </trkpt>
      <trkpt lat="39.0546470" lon="1.3752040">
        <ele>171.9</ele>
        <time>2020-02-22T11:33:15Z</time>
      </trkpt>
      <trkpt lat="39.0546690" lon="1.3752740">
        <ele>172.0</ele>
        <time>2020-02-22T11:33:16Z</time>
      </trkpt>
      <trkpt lat="39.0546940" lon="1.3753430">
        <ele>172.1</ele>
        <time>2020-02-22T11:33:17Z</time>
      </trkpt>
      <trkpt lat="39.0547240" lon="1.3754080">
        <ele>172.2</ele>
        <time>2020-02-22T11:33:18Z</time>
      </trkpt>
      <trkpt lat="39.0547540" lon="1.3754740">
        <ele>172.3</ele>
        <time>2020-02-22T11:33:19Z</time>
      </trkpt>
      <trkpt lat="39.0547860" lon="1.3755390">
        <ele>172.4</ele>
        <time>2020-02-22T11:33:20Z</time>
      </trkpt>
      <trkpt lat="39.0548190" lon="1.3756000">
        <ele>172.5</ele>
        <time>2020-02-22T11:33:21Z</time>
      </trkpt>
      <trkpt lat="39.0548500" lon="1.3756590">
        <ele>172.6</ele>
        <time>2020-02-22T11:33:22Z</time>
      </trkpt>
      <trkpt lat="39.0548770" lon="1.3757200">
        <ele>172.7</ele>
        <time>2020-02-22T11:33:23Z</time>
      </trkpt>
      <trkpt lat="39.0548950" lon="1.3757890">
        <ele>172.8</ele>
        <time>2020-02-22T11:33:24Z</time>
      </trkpt>
      <trkpt lat="39.0549280" lon="1.3758450">
        <ele>172.8</ele>
        <time>2020-02-22T11:33:25Z</time>
      </trkpt>
      <trkpt lat="39.0549520" lon="1.3759040">
        <ele>172.8</ele>
        <time>2020-02-22T11:33:26Z</time>
      </trkpt>
      <trkpt lat="39.0549770" lon="1.3759590">
        <ele>172.8</ele>
        <time>2020-02-22T11:33:27Z</time>
      </trkpt>
      <trkpt lat="39.0549960" lon="1.3760160">
        <ele>172.8</ele>
        <time>2020-02-22T11:33:28Z</time>
      </trkpt>
      <trkpt lat="39.0550150" lon="1.3760730">
        <ele>172.8</ele>
        <time>2020-02-22T11:33:29Z</time>
      </trkpt>
      <trkpt lat="39.0550250" lon="1.3761360">
        <ele>172.8</ele>
        <time>2020-02-22T11:33:30Z</time>
      </trkpt>
      <trkpt lat="39.0550280" lon="1.3762020">
        <ele>172.8</ele>
        <time>2020-02-22T11:33:31Z</time>
      </trkpt>
      <trkpt lat="39.0550360" lon="1.3762660">
        <ele>172.8</ele>
        <time>2020-02-22T11:33:32Z</time>
      </trkpt>
      <trkpt lat="39.0550460" lon="1.3763330">
        <ele>172.8</ele>
        <time>2020-02-22T11:33:33Z</time>
      </trkpt>
      <trkpt lat="39.0550550" lon="1.3764000">
        <ele>172.8</ele>
        <time>2020-02-22T11:33:34Z</time>
      </trkpt>
      <trkpt lat="39.0550600" lon="1.3764650">
        <ele>172.8</ele>
        <time>2020-02-22T11:33:35Z</time>
      </trkpt>
      <trkpt lat="39.0550670" lon="1.3765330">
        <ele>172.8</ele>
        <time>2020-02-22T11:33:36Z</time>
      </trkpt>
      <trkpt lat="39.0550770" lon="1.3765990">
        <ele>172.8</ele>
        <time>2020-02-22T11:33:37Z</time>
      </trkpt>
      <trkpt lat="39.0550880" lon="1.3766620">
        <ele>172.8</ele>
        <time>2020-02-22T11:33:38Z</time>
      </trkpt>
      <trkpt lat="39.0550920" lon="1.3767270">
        <ele>172.8</ele>
        <time>2020-02-22T11:33:39Z</time>
      </trkpt>
      <trkpt lat="39.0550850" lon="1.3767940">
        <ele>172.8</ele>
        <time>2020-02-22T11:33:40Z</time>
      </trkpt>
      <trkpt lat="39.0550940" lon="1.3768570">
        <ele>172.8</ele>
        <time>2020-02-22T11:33:41Z</time>
      </trkpt>
      <trkpt lat="39.0550940" lon="1.3769220">
        <ele>172.8</ele>
        <time>2020-02-22T11:33:42Z</time>
      </trkpt>
      <trkpt lat="39.0551020" lon="1.3769870">
        <ele>172.8</ele>
        <time>2020-02-22T11:33:43Z</time>
      </trkpt>
      <trkpt lat="39.0551110" lon="1.3770490">
        <ele>172.9</ele>
        <time>2020-02-22T11:33:44Z</time>
      </trkpt>
      <trkpt lat="39.0551210" lon="1.3771110">
        <ele>172.9</ele>
        <time>2020-02-22T11:33:45Z</time>
      </trkpt>
      <trkpt lat="39.0551280" lon="1.3771730">
        <ele>172.9</ele>
        <time>2020-02-22T11:33:46Z</time>
      </trkpt>
      <trkpt lat="39.0551380" lon="1.3772360">
        <ele>172.9</ele>
        <time>2020-02-22T11:33:47Z</time>
      </trkpt>
      <trkpt lat="39.0551440" lon="1.3773010">
        <ele>173.0</ele>
        <time>2020-02-22T11:33:48Z</time>
      </trkpt>
      <trkpt lat="39.0551520" lon="1.3773660">
        <ele>173.1</ele>
        <time>2020-02-22T11:33:49Z</time>
      </trkpt>
      <trkpt lat="39.0551540" lon="1.3774330">
        <ele>173.3</ele>
        <time>2020-02-22T11:33:50Z</time>
      </trkpt>
      <trkpt lat="39.0551600" lon="1.3774950">
        <ele>173.4</ele>
        <time>2020-02-22T11:33:51Z</time>
      </trkpt>
      <trkpt lat="39.0551630" lon="1.3775590">
        <ele>173.5</ele>
        <time>2020-02-22T11:33:52Z</time>
      </trkpt>
      <trkpt lat="39.0551570" lon="1.3776230">
        <ele>173.6</ele>
        <time>2020-02-22T11:33:53Z</time>
      </trkpt>
      <trkpt lat="39.0551550" lon="1.3776850">
        <ele>173.7</ele>
        <time>2020-02-22T11:33:54Z</time>
      </trkpt>
      <trkpt lat="39.0551550" lon="1.3777490">
        <ele>173.7</ele>
        <time>2020-02-22T11:33:55Z</time>
      </trkpt>
      <trkpt lat="39.0551590" lon="1.3778120">
        <ele>173.8</ele>
        <time>2020-02-22T11:33:56Z</time>
      </trkpt>
      <trkpt lat="39.0551620" lon="1.3778720">
        <ele>173.8</ele>
        <time>2020-02-22T11:33:57Z</time>
      </trkpt>
      <trkpt lat="39.0551650" lon="1.3779320">
        <ele>173.8</ele>
        <time>2020-02-22T11:33:58Z</time>
      </trkpt>
      <trkpt lat="39.0551670" lon="1.3779930">
        <ele>173.8</ele>
        <time>2020-02-22T11:33:59Z</time>
      </trkpt>
      <trkpt lat="39.0551630" lon="1.3780530">
        <ele>173.8</ele>
        <time>2020-02-22T11:34:00Z</time>
      </trkpt>
      <trkpt lat="39.0551570" lon="1.3781140">
        <ele>173.8</ele>
        <time>2020-02-22T11:34:01Z</time>
      </trkpt>
      <trkpt lat="39.0551380" lon="1.3781650">
        <ele>173.8</ele>
        <time>2020-02-22T11:34:02Z</time>
      </trkpt>
      <trkpt lat="39.0551150" lon="1.3782130">
        <ele>173.9</ele>
        <time>2020-02-22T11:34:03Z</time>
      </trkpt>
      <trkpt lat="39.0550750" lon="1.3782460">
        <ele>173.9</ele>
        <time>2020-02-22T11:34:04Z</time>
      </trkpt>
      <trkpt lat="39.0550340" lon="1.3782770">
        <ele>174.0</ele>
        <time>2020-02-22T11:34:05Z</time>
      </trkpt>
      <trkpt lat="39.0549840" lon="1.3782930">
        <ele>174.2</ele>
        <time>2020-02-22T11:34:06Z</time>
      </trkpt>
      <trkpt lat="39.0549290" lon="1.3783060">
        <ele>174.3</ele>
        <time>2020-02-22T11:34:07Z</time>
      </trkpt>
      <trkpt lat="39.0548740" lon="1.3783210">
        <ele>174.5</ele>
        <time>2020-02-22T11:34:08Z</time>
      </trkpt>
      <trkpt lat="39.0548190" lon="1.3783380">
        <ele>174.6</ele>
        <time>2020-02-22T11:34:09Z</time>
      </trkpt>
      <trkpt lat="39.0547620" lon="1.3783540">
        <ele>174.7</ele>
        <time>2020-02-22T11:34:10Z</time>
      </trkpt>
      <trkpt lat="39.0547050" lon="1.3783770">
        <ele>174.7</ele>
        <time>2020-02-22T11:34:11Z</time>
      </trkpt>
      <trkpt lat="39.0546480" lon="1.3784110">
        <ele>174.7</ele>
        <time>2020-02-22T11:34:12Z</time>
      </trkpt>
      <trkpt lat="39.0545890" lon="1.3784390">
        <ele>174.6</ele>
        <time>2020-02-22T11:34:13Z</time>
      </trkpt>
      <trkpt lat="39.0545290" lon="1.3784650">
        <ele>174.5</ele>
        <time>2020-02-22T11:34:14Z</time>
      </trkpt>
      <trkpt lat="39.0544690" lon="1.3784960">
        <ele>174.2</ele>
        <time>2020-02-22T11:34:15Z</time>
      </trkpt>
      <trkpt lat="39.0544090" lon="1.3785270">
        <ele>173.8</ele>
        <time>2020-02-22T11:34:16Z</time>
      </trkpt>
      <trkpt lat="39.0543450" lon="1.3785480">
        <ele>173.5</ele>
        <time>2020-02-22T11:34:17Z</time>
      </trkpt>
      <trkpt lat="39.0542820" lon="1.3785780">
        <ele>173.2</ele>
        <time>2020-02-22T11:34:18Z</time>
      </trkpt>
      <trkpt lat="39.0542170" lon="1.3786070">
        <ele>172.8</ele>
        <time>2020-02-22T11:34:19Z</time>
      </trkpt>
      <trkpt lat="39.0541500" lon="1.3786290">
        <ele>172.3</ele>
        <time>2020-02-22T11:34:20Z</time>
      </trkpt>
      <trkpt lat="39.0540830" lon="1.3786510">
        <ele>171.9</ele>
        <time>2020-02-22T11:34:21Z</time>
      </trkpt>
      <trkpt lat="39.0540150" lon="1.3786770">
        <ele>171.5</ele>
        <time>2020-02-22T11:34:22Z</time>
      </trkpt>
      <trkpt lat="39.0539470" lon="1.3786980">
        <ele>171.1</ele>
        <time>2020-02-22T11:34:23Z</time>
      </trkpt>
      <trkpt lat="39.0538790" lon="1.3787190">
        <ele>170.7</ele>
        <time>2020-02-22T11:34:24Z</time>
      </trkpt>
      <trkpt lat="39.0538120" lon="1.3787440">
        <ele>170.2</ele>
        <time>2020-02-22T11:34:25Z</time>
      </trkpt>
      <trkpt lat="39.0537440" lon="1.3787650">
        <ele>169.8</ele>
        <time>2020-02-22T11:34:26Z</time>
      </trkpt>
      <trkpt lat="39.0536760" lon="1.3787820">
        <ele>169.4</ele>
        <time>2020-02-22T11:34:27Z</time>
      </trkpt>
      <trkpt lat="39.0536090" lon="1.3787990">
        <ele>169.0</ele>
        <time>2020-02-22T11:34:28Z</time>
      </trkpt>
      <trkpt lat="39.0535420" lon="1.3788180">
        <ele>168.7</ele>
        <time>2020-02-22T11:34:29Z</time>
      </trkpt>
      <trkpt lat="39.0534750" lon="1.3788330">
        <ele>168.4</ele>
        <time>2020-02-22T11:34:30Z</time>
      </trkpt>
      <trkpt lat="39.0534100" lon="1.3788530">
        <ele>168.2</ele>
        <time>2020-02-22T11:34:31Z</time>
      </trkpt>
      <trkpt lat="39.0533450" lon="1.3788710">
        <ele>168.0</ele>
        <time>2020-02-22T11:34:32Z</time>
      </trkpt>
      <trkpt lat="39.0532800" lon="1.3788880">
        <ele>167.9</ele>
        <time>2020-02-22T11:34:33Z</time>
      </trkpt>
      <trkpt lat="39.0532170" lon="1.3789060">
        <ele>167.8</ele>
        <time>2020-02-22T11:34:34Z</time>
      </trkpt>
      <trkpt lat="39.0531540" lon="1.3789190">
        <ele>167.7</ele>
        <time>2020-02-22T11:34:35Z</time>
      </trkpt>
      <trkpt lat="39.0530920" lon="1.3789330">
        <ele>167.6</ele>
        <time>2020-02-22T11:34:36Z</time>
      </trkpt>
      <trkpt lat="39.0530300" lon="1.3789450">
        <ele>167.4</ele>
        <time>2020-02-22T11:34:37Z</time>
      </trkpt>
      <trkpt lat="39.0529680" lon="1.3789570">
        <ele>167.3</ele>
        <time>2020-02-22T11:34:38Z</time>
      </trkpt>
      <trkpt lat="39.0529090" lon="1.3789600">
        <ele>167.1</ele>
        <time>2020-02-22T11:34:39Z</time>
      </trkpt>
      <trkpt lat="39.0528590" lon="1.3789530">
        <ele>167.0</ele>
        <time>2020-02-22T11:34:40Z</time>
      </trkpt>
      <trkpt lat="39.0528210" lon="1.3789580">
        <ele>167.0</ele>
        <time>2020-02-22T11:34:41Z</time>
      </trkpt>
      <trkpt lat="39.0527900" lon="1.3789720">
        <ele>166.8</ele>
        <time>2020-02-22T11:34:42Z</time>
      </trkpt>
      <trkpt lat="39.0527800" lon="1.3790170">
        <ele>166.8</ele>
        <time>2020-02-22T11:34:43Z</time>
      </trkpt>
      <trkpt lat="39.0527820" lon="1.3790650">
        <ele>166.8</ele>
        <time>2020-02-22T11:34:44Z</time>
      </trkpt>
      <trkpt lat="39.0527810" lon="1.3791120">
        <ele>166.8</ele>
        <time>2020-02-22T11:34:45Z</time>
      </trkpt>
      <trkpt lat="39.0527850" lon="1.3791590">
        <ele>167.2</ele>
        <time>2020-02-22T11:34:46Z</time>
      </trkpt>
      <trkpt lat="39.0527600" lon="1.3792120">
        <ele>167.3</ele>
        <time>2020-02-22T11:34:47Z</time>
      </trkpt>
      <trkpt lat="39.0527710" lon="1.3792520">
        <ele>167.4</ele>
        <time>2020-02-22T11:34:48Z</time>
      </trkpt>
      <trkpt lat="39.0527900" lon="1.3792930">
        <ele>167.5</ele>
        <time>2020-02-22T11:34:49Z</time>
      </trkpt>
      <trkpt lat="39.0528300" lon="1.3793090">
        <ele>167.6</ele>
        <time>2020-02-22T11:34:50Z</time>
      </trkpt>
      <trkpt lat="39.0528690" lon="1.3793170">
        <ele>167.6</ele>
        <time>2020-02-22T11:34:51Z</time>
      </trkpt>
      <trkpt lat="39.0529080" lon="1.3793300">
        <ele>167.7</ele>
        <time>2020-02-22T11:34:52Z</time>
      </trkpt>
      <trkpt lat="39.0529470" lon="1.3793400">
        <ele>167.7</ele>
        <time>2020-02-22T11:34:53Z</time>
      </trkpt>
      <trkpt lat="39.0529840" lon="1.3793360">
        <ele>167.7</ele>
        <time>2020-02-22T11:34:54Z</time>
      </trkpt>
      <trkpt lat="39.0530230" lon="1.3793360">
        <ele>167.7</ele>
        <time>2020-02-22T11:34:55Z</time>
      </trkpt>
      <trkpt lat="39.0530610" lon="1.3793390">
        <ele>167.7</ele>
        <time>2020-02-22T11:34:56Z</time>
      </trkpt>
      <trkpt lat="39.0530980" lon="1.3793360">
        <ele>167.8</ele>
        <time>2020-02-22T11:34:57Z</time>
      </trkpt>
      <trkpt lat="39.0531360" lon="1.3793370">
        <ele>167.8</ele>
        <time>2020-02-22T11:34:58Z</time>
      </trkpt>
      <trkpt lat="39.0531750" lon="1.3793360">
        <ele>167.8</ele>
        <time>2020-02-22T11:34:59Z</time>
      </trkpt>
      <trkpt lat="39.0532140" lon="1.3793350">
        <ele>167.8</ele>
        <time>2020-02-22T11:35:00Z</time>
      </trkpt>
      <trkpt lat="39.0532510" lon="1.3793300">
        <ele>167.8</ele>
        <time>2020-02-22T11:35:01Z</time>
      </trkpt>
      <trkpt lat="39.0532870" lon="1.3793320">
        <ele>167.8</ele>
        <time>2020-02-22T11:35:02Z</time>
      </trkpt>
      <trkpt lat="39.0533250" lon="1.3793370">
        <ele>167.9</ele>
        <time>2020-02-22T11:35:03Z</time>
      </trkpt>
      <trkpt lat="39.0533630" lon="1.3793330">
        <ele>168.0</ele>
        <time>2020-02-22T11:35:04Z</time>
      </trkpt>
      <trkpt lat="39.0534000" lon="1.3793320">
        <ele>168.1</ele>
        <time>2020-02-22T11:35:05Z</time>
      </trkpt>
      <trkpt lat="39.0534350" lon="1.3793280">
        <ele>168.2</ele>
        <time>2020-02-22T11:35:06Z</time>
      </trkpt>
      <trkpt lat="39.0534710" lon="1.3793160">
        <ele>168.5</ele>
        <time>2020-02-22T11:35:07Z</time>
      </trkpt>
      <trkpt lat="39.0535090" lon="1.3793140">
        <ele>168.7</ele>
        <time>2020-02-22T11:35:08Z</time>
      </trkpt>
      <trkpt lat="39.0535500" lon="1.3793030">
        <ele>169.1</ele>
        <time>2020-02-22T11:35:09Z</time>
      </trkpt>
      <trkpt lat="39.0535900" lon="1.3793000">
        <ele>169.5</ele>
        <time>2020-02-22T11:35:10Z</time>
      </trkpt>
      <trkpt lat="39.0536260" lon="1.3793070">
        <ele>170.0</ele>
        <time>2020-02-22T11:35:11Z</time>
      </trkpt>
      <trkpt lat="39.0536620" lon="1.3793100">
        <ele>170.4</ele>
        <time>2020-02-22T11:35:12Z</time>
      </trkpt>
      <trkpt lat="39.0536990" lon="1.3793070">
        <ele>170.9</ele>
        <time>2020-02-22T11:35:13Z</time>
      </trkpt>
      <trkpt lat="39.0537380" lon="1.3792970">
        <ele>171.4</ele>
        <time>2020-02-22T11:35:14Z</time>
      </trkpt>
      <trkpt lat="39.0537790" lon="1.3792940">
        <ele>171.8</ele>
        <time>2020-02-22T11:35:15Z</time>
      </trkpt>
      <trkpt lat="39.0538170" lon="1.3792900">
        <ele>172.1</ele>
        <time>2020-02-22T11:35:16Z</time>
      </trkpt>
      <trkpt lat="39.0538540" lon="1.3792880">
        <ele>172.3</ele>
        <time>2020-02-22T11:35:17Z</time>
      </trkpt>
      <trkpt lat="39.0538930" lon="1.3792930">
        <ele>172.5</ele>
        <time>2020-02-22T11:35:18Z</time>
      </trkpt>
      <trkpt lat="39.0539300" lon="1.3792900">
        <ele>172.7</ele>
        <time>2020-02-22T11:35:19Z</time>
      </trkpt>
      <trkpt lat="39.0539670" lon="1.3792970">
        <ele>172.8</ele>
        <time>2020-02-22T11:35:20Z</time>
      </trkpt>
      <trkpt lat="39.0540010" lon="1.3792990">
        <ele>172.9</ele>
        <time>2020-02-22T11:35:21Z</time>
      </trkpt>
      <trkpt lat="39.0540360" lon="1.3792930">
        <ele>173.0</ele>
        <time>2020-02-22T11:35:22Z</time>
      </trkpt>
      <trkpt lat="39.0540670" lon="1.3792820">
        <ele>173.1</ele>
        <time>2020-02-22T11:35:23Z</time>
      </trkpt>
      <trkpt lat="39.0540990" lon="1.3792810">
        <ele>173.3</ele>
        <time>2020-02-22T11:35:24Z</time>
      </trkpt>
      <trkpt lat="39.0541340" lon="1.3792910">
        <ele>173.4</ele>
        <time>2020-02-22T11:35:25Z</time>
      </trkpt>
      <trkpt lat="39.0541690" lon="1.3793010">
        <ele>173.5</ele>
        <time>2020-02-22T11:35:26Z</time>
      </trkpt>
      <trkpt lat="39.0542020" lon="1.3792910">
        <ele>173.7</ele>
        <time>2020-02-22T11:35:27Z</time>
      </trkpt>
      <trkpt lat="39.0542360" lon="1.3792860">
        <ele>173.8</ele>
        <time>2020-02-22T11:35:28Z</time>
      </trkpt>
      <trkpt lat="39.0542720" lon="1.3792870">
        <ele>174.0</ele>
        <time>2020-02-22T11:35:29Z</time>
      </trkpt>
      <trkpt lat="39.0543050" lon="1.3792840">
        <ele>174.2</ele>
        <time>2020-02-22T11:35:30Z</time>
      </trkpt>
      <trkpt lat="39.0543400" lon="1.3792840">
        <ele>174.4</ele>
        <time>2020-02-22T11:35:31Z</time>
      </trkpt>
      <trkpt lat="39.0543760" lon="1.3792750">
        <ele>174.6</ele>
        <time>2020-02-22T11:35:32Z</time>
      </trkpt>
      <trkpt lat="39.0544130" lon="1.3792730">
        <ele>174.8</ele>
        <time>2020-02-22T11:35:33Z</time>
      </trkpt>
      <trkpt lat="39.0544500" lon="1.3792720">
        <ele>175.0</ele>
        <time>2020-02-22T11:35:34Z</time>
      </trkpt>
      <trkpt lat="39.0544870" lon="1.3792880">
        <ele>175.2</ele>
        <time>2020-02-22T11:35:35Z</time>
      </trkpt>
      <trkpt lat="39.0545250" lon="1.3792920">
        <ele>175.3</ele>
        <time>2020-02-22T11:35:36Z</time>
      </trkpt>
      <trkpt lat="39.0545630" lon="1.3793010">
        <ele>175.5</ele>
        <time>2020-02-22T11:35:37Z</time>
      </trkpt>
      <trkpt lat="39.0545980" lon="1.3793240">
        <ele>175.6</ele>
        <time>2020-02-22T11:35:38Z</time>
      </trkpt>
      <trkpt lat="39.0546320" lon="1.3793480">
        <ele>175.8</ele>
        <time>2020-02-22T11:35:39Z</time>
      </trkpt>
      <trkpt lat="39.0546510" lon="1.3793830">
        <ele>175.9</ele>
        <time>2020-02-22T11:35:40Z</time>
      </trkpt>
      <trkpt lat="39.0546470" lon="1.3794240">
        <ele>176.0</ele>
        <time>2020-02-22T11:35:41Z</time>
      </trkpt>
      <trkpt lat="39.0546350" lon="1.3794650">
        <ele>176.1</ele>
        <time>2020-02-22T11:35:42Z</time>
      </trkpt>
      <trkpt lat="39.0546270" lon="1.3795120">
        <ele>176.3</ele>
        <time>2020-02-22T11:35:43Z</time>
      </trkpt>
      <trkpt lat="39.0546240" lon="1.3795590">
        <ele>176.4</ele>
        <time>2020-02-22T11:35:44Z</time>
      </trkpt>
      <trkpt lat="39.0546180" lon="1.3796050">
        <ele>176.6</ele>
        <time>2020-02-22T11:35:45Z</time>
      </trkpt>
      <trkpt lat="39.0546070" lon="1.3796520">
        <ele>176.8</ele>
        <time>2020-02-22T11:35:46Z</time>
      </trkpt>
      <trkpt lat="39.0545980" lon="1.3796980">
        <ele>177.0</ele>
        <time>2020-02-22T11:35:47Z</time>
      </trkpt>
      <trkpt lat="39.0545780" lon="1.3797340">
        <ele>177.1</ele>
        <time>2020-02-22T11:35:48Z</time>
      </trkpt>
      <trkpt lat="39.0545610" lon="1.3797760">
        <ele>177.3</ele>
        <time>2020-02-22T11:35:49Z</time>
      </trkpt>
      <trkpt lat="39.0545500" lon="1.3798200">
        <ele>177.4</ele>
        <time>2020-02-22T11:35:50Z</time>
      </trkpt>
      <trkpt lat="39.0545420" lon="1.3798610">
        <ele>177.5</ele>
        <time>2020-02-22T11:35:51Z</time>
      </trkpt>
      <trkpt lat="39.0545470" lon="1.3799010">
        <ele>177.6</ele>
        <time>2020-02-22T11:35:52Z</time>
      </trkpt>
      <trkpt lat="39.0545650" lon="1.3799310">
        <ele>177.7</ele>
        <time>2020-02-22T11:35:53Z</time>
      </trkpt>
      <trkpt lat="39.0545830" lon="1.3799630">
        <ele>177.8</ele>
        <time>2020-02-22T11:35:54Z</time>
      </trkpt>
      <trkpt lat="39.0546070" lon="1.3799880">
        <ele>177.9</ele>
        <time>2020-02-22T11:35:55Z</time>
      </trkpt>
      <trkpt lat="39.0546320" lon="1.3800060">
        <ele>178.0</ele>
        <time>2020-02-22T11:35:56Z</time>
      </trkpt>
      <trkpt lat="39.0546600" lon="1.3800000">
        <ele>178.1</ele>
        <time>2020-02-22T11:35:57Z</time>
      </trkpt>
      <trkpt lat="39.0547000" lon="1.3799890">
        <ele>178.3</ele>
        <time>2020-02-22T11:35:58Z</time>
      </trkpt>
      <trkpt lat="39.0547140" lon="1.3799880">
        <ele>178.4</ele>
        <time>2020-02-22T11:35:59Z</time>
      </trkpt>
      <trkpt lat="39.0547470" lon="1.3799940">
        <ele>178.5</ele>
        <time>2020-02-22T11:36:00Z</time>
      </trkpt>
      <trkpt lat="39.0547750" lon="1.3799860">
        <ele>178.7</ele>
        <time>2020-02-22T11:36:01Z</time>
      </trkpt>
      <trkpt lat="39.0548020" lon="1.3799940">
        <ele>178.8</ele>
        <time>2020-02-22T11:36:02Z</time>
      </trkpt>
      <trkpt lat="39.0548310" lon="1.3800080">
        <ele>178.9</ele>
        <time>2020-02-22T11:36:03Z</time>
      </trkpt>
      <trkpt lat="39.0548580" lon="1.3800200">
        <ele>179.0</ele>
        <time>2020-02-22T11:36:04Z</time>
      </trkpt>
      <trkpt lat="39.0548830" lon="1.3800520">
        <ele>179.1</ele>
        <time>2020-02-22T11:36:05Z</time>
      </trkpt>
      <trkpt lat="39.0549090" lon="1.3800780">
        <ele>179.2</ele>
        <time>2020-02-22T11:36:06Z</time>
      </trkpt>
      <trkpt lat="39.0549350" lon="1.3800970">
        <ele>179.3</ele>
        <time>2020-02-22T11:36:07Z</time>
      </trkpt>
      <trkpt lat="39.0549540" lon="1.3801240">
        <ele>179.4</ele>
        <time>2020-02-22T11:36:08Z</time>
      </trkpt>
      <trkpt lat="39.0549820" lon="1.3801440">
        <ele>179.5</ele>
        <time>2020-02-22T11:36:09Z</time>
      </trkpt>
      <trkpt lat="39.0550050" lon="1.3801690">
        <ele>179.6</ele>
        <time>2020-02-22T11:36:10Z</time>
      </trkpt>
      <trkpt lat="39.0550340" lon="1.3801840">
        <ele>179.7</ele>
        <time>2020-02-22T11:36:11Z</time>
      </trkpt>
      <trkpt lat="39.0550590" lon="1.3802070">
        <ele>179.8</ele>
        <time>2020-02-22T11:36:12Z</time>
      </trkpt>
      <trkpt lat="39.0550790" lon="1.3802470">
        <ele>179.9</ele>
        <time>2020-02-22T11:36:13Z</time>
      </trkpt>
      <trkpt lat="39.0550870" lon="1.3802580">
        <ele>180.0</ele>
        <time>2020-02-22T11:36:14Z</time>
      </trkpt>
      <trkpt lat="39.0551140" lon="1.3802810">
        <ele>180.1</ele>
        <time>2020-02-22T11:36:15Z</time>
      </trkpt>
      <trkpt lat="39.0551500" lon="1.3803100">
        <ele>180.3</ele>
        <time>2020-02-22T11:36:16Z</time>
      </trkpt>
      <trkpt lat="39.0551630" lon="1.3803210">
        <ele>180.3</ele>
        <time>2020-02-22T11:36:17Z</time>
      </trkpt>
      <trkpt lat="39.0551910" lon="1.3803410">
        <ele>180.4</ele>
        <time>2020-02-22T11:36:18Z</time>
      </trkpt>
      <trkpt lat="39.0552210" lon="1.3803510">
        <ele>180.6</ele>
        <time>2020-02-22T11:36:19Z</time>
      </trkpt>
      <trkpt lat="39.0552480" lon="1.3803590">
        <ele>180.7</ele>
        <time>2020-02-22T11:36:20Z</time>
      </trkpt>
      <trkpt lat="39.0552740" lon="1.3803690">
        <ele>180.8</ele>
        <time>2020-02-22T11:36:21Z</time>
      </trkpt>
      <trkpt lat="39.0553050" lon="1.3803890">
        <ele>180.9</ele>
        <time>2020-02-22T11:36:22Z</time>
      </trkpt>
      <trkpt lat="39.0553370" lon="1.3803870">
        <ele>181.0</ele>
        <time>2020-02-22T11:36:23Z</time>
      </trkpt>
      <trkpt lat="39.0553700" lon="1.3804070">
        <ele>181.2</ele>
        <time>2020-02-22T11:36:24Z</time>
      </trkpt>
      <trkpt lat="39.0553810" lon="1.3804130">
        <ele>181.2</ele>
        <time>2020-02-22T11:36:25Z</time>
      </trkpt>
      <trkpt lat="39.0554120" lon="1.3804200">
        <ele>181.4</ele>
        <time>2020-02-22T11:36:26Z</time>
      </trkpt>
      <trkpt lat="39.0554480" lon="1.3804230">
        <ele>181.5</ele>
        <time>2020-02-22T11:36:27Z</time>
      </trkpt>
      <trkpt lat="39.0554820" lon="1.3804240">
        <ele>181.7</ele>
        <time>2020-02-22T11:36:28Z</time>
      </trkpt>
      <trkpt lat="39.0555140" lon="1.3804360">
        <ele>181.8</ele>
        <time>2020-02-22T11:36:29Z</time>
      </trkpt>
      <trkpt lat="39.0555430" lon="1.3804520">
        <ele>182.0</ele>
        <time>2020-02-22T11:36:30Z</time>
      </trkpt>
      <trkpt lat="39.0555730" lon="1.3804660">
        <ele>182.1</ele>
        <time>2020-02-22T11:36:31Z</time>
      </trkpt>
      <trkpt lat="39.0556080" lon="1.3804700">
        <ele>182.3</ele>
        <time>2020-02-22T11:36:32Z</time>
      </trkpt>
      <trkpt lat="39.0556440" lon="1.3804770">
        <ele>182.5</ele>
        <time>2020-02-22T11:36:33Z</time>
      </trkpt>
      <trkpt lat="39.0556730" lon="1.3804830">
        <ele>182.6</ele>
        <time>2020-02-22T11:36:34Z</time>
      </trkpt>
      <trkpt lat="39.0557010" lon="1.3804770">
        <ele>182.8</ele>
        <time>2020-02-22T11:36:35Z</time>
      </trkpt>
      <trkpt lat="39.0557310" lon="1.3804700">
        <ele>182.9</ele>
        <time>2020-02-22T11:36:36Z</time>
      </trkpt>
      <trkpt lat="39.0557580" lon="1.3804730">
        <ele>183.1</ele>
        <time>2020-02-22T11:36:37Z</time>
      </trkpt>
      <trkpt lat="39.0557990" lon="1.3804750">
        <ele>183.3</ele>
        <time>2020-02-22T11:36:38Z</time>
      </trkpt>
      <trkpt lat="39.0558130" lon="1.3804750">
        <ele>183.4</ele>
        <time>2020-02-22T11:36:39Z</time>
      </trkpt>
      <trkpt lat="39.0558540" lon="1.3804810">
        <ele>183.7</ele>
        <time>2020-02-22T11:36:40Z</time>
      </trkpt>
      <trkpt lat="39.0558670" lon="1.3804860">
        <ele>183.7</ele>
        <time>2020-02-22T11:36:41Z</time>
      </trkpt>
      <trkpt lat="39.0559040" lon="1.3805030">
        <ele>184.0</ele>
        <time>2020-02-22T11:36:42Z</time>
      </trkpt>
      <trkpt lat="39.0559390" lon="1.3805000">
        <ele>184.2</ele>
        <time>2020-02-22T11:36:43Z</time>
      </trkpt>
      <trkpt lat="39.0559690" lon="1.3805090">
        <ele>184.4</ele>
        <time>2020-02-22T11:36:44Z</time>
      </trkpt>
      <trkpt lat="39.0560080" lon="1.3805110">
        <ele>184.5</ele>
        <time>2020-02-22T11:36:45Z</time>
      </trkpt>
      <trkpt lat="39.0560220" lon="1.3805130">
        <ele>184.6</ele>
        <time>2020-02-22T11:36:46Z</time>
      </trkpt>
      <trkpt lat="39.0560520" lon="1.3805100">
        <ele>184.7</ele>
        <time>2020-02-22T11:36:47Z</time>
      </trkpt>
      <trkpt lat="39.0560850" lon="1.3805000">
        <ele>184.7</ele>
        <time>2020-02-22T11:36:48Z</time>
      </trkpt>
      <trkpt lat="39.0561170" lon="1.3804880">
        <ele>184.8</ele>
        <time>2020-02-22T11:36:49Z</time>
      </trkpt>
      <trkpt lat="39.0561540" lon="1.3804760">
        <ele>184.9</ele>
        <time>2020-02-22T11:36:50Z</time>
      </trkpt>
      <trkpt lat="39.0561840" lon="1.3804530">
        <ele>184.9</ele>
        <time>2020-02-22T11:36:51Z</time>
      </trkpt>
      <trkpt lat="39.0562180" lon="1.3804350">
        <ele>185.0</ele>
        <time>2020-02-22T11:36:52Z</time>
      </trkpt>
      <trkpt lat="39.0562560" lon="1.3804340">
        <ele>185.1</ele>
        <time>2020-02-22T11:36:53Z</time>
      </trkpt>
      <trkpt lat="39.0562900" lon="1.3804240">
        <ele>185.2</ele>
        <time>2020-02-22T11:36:54Z</time>
      </trkpt>
      <trkpt lat="39.0563250" lon="1.3804180">
        <ele>185.3</ele>
        <time>2020-02-22T11:36:55Z</time>
      </trkpt>
      <trkpt lat="39.0563610" lon="1.3804140">
        <ele>185.5</ele>
        <time>2020-02-22T11:36:56Z</time>
      </trkpt>
      <trkpt lat="39.0563980" lon="1.3804100">
        <ele>185.7</ele>
        <time>2020-02-22T11:36:57Z</time>
      </trkpt>
      <trkpt lat="39.0564590" lon="1.3804170">
        <ele>186.1</ele>
        <time>2020-02-22T11:36:58Z</time>
      </trkpt>
      <trkpt lat="39.0565220" lon="1.3804040">
        <ele>186.5</ele>
        <time>2020-02-22T11:36:59Z</time>
      </trkpt>
      <trkpt lat="39.0565630" lon="1.3804040">
        <ele>186.8</ele>
        <time>2020-02-22T11:37:00Z</time>
      </trkpt>
      <trkpt lat="39.0566080" lon="1.3804010">
        <ele>187.1</ele>
        <time>2020-02-22T11:37:01Z</time>
      </trkpt>
      <trkpt lat="39.0566510" lon="1.3804090">
        <ele>187.3</ele>
        <time>2020-02-22T11:37:02Z</time>
      </trkpt>
      <trkpt lat="39.0566920" lon="1.3804120">
        <ele>187.6</ele>
        <time>2020-02-22T11:37:03Z</time>
      </trkpt>
      <trkpt lat="39.0567350" lon="1.3804180">
        <ele>187.8</ele>
        <time>2020-02-22T11:37:04Z</time>
      </trkpt>
      <trkpt lat="39.0567710" lon="1.3804280">
        <ele>188.0</ele>
        <time>2020-02-22T11:37:05Z</time>
      </trkpt>
      <trkpt lat="39.0567980" lon="1.3804330">
        <ele>188.1</ele>
        <time>2020-02-22T11:37:06Z</time>
      </trkpt>
      <trkpt lat="39.0568280" lon="1.3804350">
        <ele>188.2</ele>
        <time>2020-02-22T11:37:07Z</time>
      </trkpt>
      <trkpt lat="39.0568730" lon="1.3804490">
        <ele>188.4</ele>
        <time>2020-02-22T11:37:08Z</time>
      </trkpt>
      <trkpt lat="39.0568950" lon="1.3804510">
        <ele>188.4</ele>
        <time>2020-02-22T11:37:09Z</time>
      </trkpt>
      <trkpt lat="39.0569320" lon="1.3804500">
        <ele>188.6</ele>
        <time>2020-02-22T11:37:10Z</time>
      </trkpt>
      <trkpt lat="39.0569660" lon="1.3804540">
        <ele>188.7</ele>
        <time>2020-02-22T11:37:11Z</time>
      </trkpt>
      <trkpt lat="39.0569780" lon="1.3804560">
        <ele>188.7</ele>
        <time>2020-02-22T11:37:12Z</time>
      </trkpt>
      <trkpt lat="39.0570150" lon="1.3804390">
        <ele>188.8</ele>
        <time>2020-02-22T11:37:13Z</time>
      </trkpt>
      <trkpt lat="39.0570480" lon="1.3804350">
        <ele>188.9</ele>
        <time>2020-02-22T11:37:14Z</time>
      </trkpt>
      <trkpt lat="39.0570770" lon="1.3804320">
        <ele>189.0</ele>
        <time>2020-02-22T11:37:15Z</time>
      </trkpt>
      <trkpt lat="39.0571150" lon="1.3804310">
        <ele>189.1</ele>
        <time>2020-02-22T11:37:16Z</time>
      </trkpt>
      <trkpt lat="39.0571580" lon="1.3804280">
        <ele>189.2</ele>
        <time>2020-02-22T11:37:17Z</time>
      </trkpt>
      <trkpt lat="39.0571750" lon="1.3804280">
        <ele>189.2</ele>
        <time>2020-02-22T11:37:18Z</time>
      </trkpt>
      <trkpt lat="39.0572160" lon="1.3804270">
        <ele>189.3</ele>
        <time>2020-02-22T11:37:19Z</time>
      </trkpt>
      <trkpt lat="39.0572670" lon="1.3804130">
        <ele>189.5</ele>
        <time>2020-02-22T11:37:20Z</time>
      </trkpt>
      <trkpt lat="39.0572920" lon="1.3804100">
        <ele>189.5</ele>
        <time>2020-02-22T11:37:21Z</time>
      </trkpt>
      <trkpt lat="39.0573330" lon="1.3804090">
        <ele>189.6</ele>
        <time>2020-02-22T11:37:22Z</time>
      </trkpt>
      <trkpt lat="39.0573630" lon="1.3804110">
        <ele>189.6</ele>
        <time>2020-02-22T11:37:23Z</time>
      </trkpt>
      <trkpt lat="39.0573960" lon="1.3804070">
        <ele>189.7</ele>
        <time>2020-02-22T11:37:24Z</time>
      </trkpt>
      <trkpt lat="39.0574330" lon="1.3804010">
        <ele>189.7</ele>
        <time>2020-02-22T11:37:25Z</time>
      </trkpt>
      <trkpt lat="39.0574660" lon="1.3804040">
        <ele>189.8</ele>
        <time>2020-02-22T11:37:26Z</time>
      </trkpt>
      <trkpt lat="39.0575180" lon="1.3804130">
        <ele>189.8</ele>
        <time>2020-02-22T11:37:27Z</time>
      </trkpt>
      <trkpt lat="39.0575440" lon="1.3804180">
        <ele>189.9</ele>
        <time>2020-02-22T11:37:28Z</time>
      </trkpt>
      <trkpt lat="39.0575840" lon="1.3804240">
        <ele>189.9</ele>
        <time>2020-02-22T11:37:29Z</time>
      </trkpt>
      <trkpt lat="39.0576210" lon="1.3804390">
        <ele>190.0</ele>
        <time>2020-02-22T11:37:30Z</time>
      </trkpt>
      <trkpt lat="39.0576590" lon="1.3804490">
        <ele>190.1</ele>
        <time>2020-02-22T11:37:31Z</time>
      </trkpt>
      <trkpt lat="39.0576940" lon="1.3804620">
        <ele>190.1</ele>
        <time>2020-02-22T11:37:32Z</time>
      </trkpt>
      <trkpt lat="39.0577270" lon="1.3804800">
        <ele>190.2</ele>
        <time>2020-02-22T11:37:33Z</time>
      </trkpt>
      <trkpt lat="39.0577550" lon="1.3804950">
        <ele>190.3</ele>
        <time>2020-02-22T11:37:34Z</time>
      </trkpt>
      <trkpt lat="39.0577920" lon="1.3805130">
        <ele>190.4</ele>
        <time>2020-02-22T11:37:35Z</time>
      </trkpt>
      <trkpt lat="39.0578060" lon="1.3805200">
        <ele>190.4</ele>
        <time>2020-02-22T11:37:36Z</time>
      </trkpt>
      <trkpt lat="39.0578380" lon="1.3805400">
        <ele>190.5</ele>
        <time>2020-02-22T11:37:37Z</time>
      </trkpt>
      <trkpt lat="39.0578740" lon="1.3805520">
        <ele>190.6</ele>
        <time>2020-02-22T11:37:38Z</time>
      </trkpt>
      <trkpt lat="39.0578960" lon="1.3805730">
        <ele>190.6</ele>
        <time>2020-02-22T11:37:39Z</time>
      </trkpt>
      <trkpt lat="39.0579330" lon="1.3806160">
        <ele>190.8</ele>
        <time>2020-02-22T11:37:40Z</time>
      </trkpt>
      <trkpt lat="39.0579510" lon="1.3806350">
        <ele>190.8</ele>
        <time>2020-02-22T11:37:41Z</time>
      </trkpt>
      <trkpt lat="39.0579790" lon="1.3806740">
        <ele>191.0</ele>
        <time>2020-02-22T11:37:42Z</time>
      </trkpt>
      <trkpt lat="39.0579980" lon="1.3807030">
        <ele>191.1</ele>
        <time>2020-02-22T11:37:43Z</time>
      </trkpt>
      <trkpt lat="39.0580250" lon="1.3807290">
        <ele>191.3</ele>
        <time>2020-02-22T11:37:44Z</time>
      </trkpt>
      <trkpt lat="39.0580570" lon="1.3807520">
        <ele>191.4</ele>
        <time>2020-02-22T11:37:45Z</time>
      </trkpt>
      <trkpt lat="39.0580980" lon="1.3807840">
        <ele>191.7</ele>
        <time>2020-02-22T11:37:46Z</time>
      </trkpt>
      <trkpt lat="39.0581260" lon="1.3807970">
        <ele>191.9</ele>
        <time>2020-02-22T11:37:47Z</time>
      </trkpt>
      <trkpt lat="39.0581800" lon="1.3808170">
        <ele>192.3</ele>
        <time>2020-02-22T11:37:48Z</time>
      </trkpt>
      <trkpt lat="39.0582220" lon="1.3808220">
        <ele>192.5</ele>
        <time>2020-02-22T11:37:49Z</time>
      </trkpt>
      <trkpt lat="39.0582600" lon="1.3808260">
        <ele>192.8</ele>
        <time>2020-02-22T11:37:50Z</time>
      </trkpt>
      <trkpt lat="39.0582730" lon="1.3808280">
        <ele>192.9</ele>
        <time>2020-02-22T11:37:51Z</time>
      </trkpt>
      <trkpt lat="39.0583070" lon="1.3808310">
        <ele>193.1</ele>
        <time>2020-02-22T11:37:52Z</time>
      </trkpt>
      <trkpt lat="39.0583470" lon="1.3808540">
        <ele>193.4</ele>
        <time>2020-02-22T11:37:53Z</time>
      </trkpt>
      <trkpt lat="39.0583800" lon="1.3808860">
        <ele>193.6</ele>
        <time>2020-02-22T11:37:54Z</time>
      </trkpt>
      <trkpt lat="39.0583900" lon="1.3809010">
        <ele>193.7</ele>
        <time>2020-02-22T11:37:55Z</time>
      </trkpt>
      <trkpt lat="39.0584070" lon="1.3809440">
        <ele>193.9</ele>
        <time>2020-02-22T11:37:56Z</time>
      </trkpt>
      <trkpt lat="39.0584140" lon="1.3809580">
        <ele>193.9</ele>
        <time>2020-02-22T11:37:57Z</time>
      </trkpt>
      <trkpt lat="39.0584270" lon="1.3809910">
        <ele>194.1</ele>
        <time>2020-02-22T11:37:58Z</time>
      </trkpt>
      <trkpt lat="39.0584500" lon="1.3810210">
        <ele>194.2</ele>
        <time>2020-02-22T11:37:59Z</time>
      </trkpt>
      <trkpt lat="39.0584600" lon="1.3810260">
        <ele>194.2</ele>
        <time>2020-02-22T11:38:00Z</time>
      </trkpt>
      <trkpt lat="39.0584840" lon="1.3810560">
        <ele>194.3</ele>
        <time>2020-02-22T11:38:01Z</time>
      </trkpt>
      <trkpt lat="39.0585030" lon="1.3810840">
        <ele>194.4</ele>
        <time>2020-02-22T11:38:02Z</time>
      </trkpt>
      <trkpt lat="39.0585270" lon="1.3811110">
        <ele>194.4</ele>
        <time>2020-02-22T11:38:03Z</time>
      </trkpt>
      <trkpt lat="39.0585430" lon="1.3811420">
        <ele>194.5</ele>
        <time>2020-02-22T11:38:04Z</time>
      </trkpt>
      <trkpt lat="39.0585480" lon="1.3811540">
        <ele>194.5</ele>
        <time>2020-02-22T11:38:05Z</time>
      </trkpt>
      <trkpt lat="39.0585650" lon="1.3811990">
        <ele>194.6</ele>
        <time>2020-02-22T11:38:06Z</time>
      </trkpt>
      <trkpt lat="39.0585700" lon="1.3812170">
        <ele>194.6</ele>
        <time>2020-02-22T11:38:07Z</time>
      </trkpt>
      <trkpt lat="39.0585800" lon="1.3812540">
        <ele>194.7</ele>
        <time>2020-02-22T11:38:08Z</time>
      </trkpt>
      <trkpt lat="39.0585880" lon="1.3813020">
        <ele>194.8</ele>
        <time>2020-02-22T11:38:09Z</time>
      </trkpt>
      <trkpt lat="39.0585930" lon="1.3813220">
        <ele>194.8</ele>
        <time>2020-02-22T11:38:10Z</time>
      </trkpt>
      <trkpt lat="39.0585890" lon="1.3813650">
        <ele>194.9</ele>
        <time>2020-02-22T11:38:11Z</time>
      </trkpt>
      <trkpt lat="39.0585910" lon="1.3813850">
        <ele>194.9</ele>
        <time>2020-02-22T11:38:12Z</time>
      </trkpt>
      <trkpt lat="39.0585940" lon="1.3814280">
        <ele>195.0</ele>
        <time>2020-02-22T11:38:13Z</time>
      </trkpt>
      <trkpt lat="39.0586080" lon="1.3814750">
        <ele>195.1</ele>
        <time>2020-02-22T11:38:14Z</time>
      </trkpt>
      <trkpt lat="39.0586090" lon="1.3814950">
        <ele>195.2</ele>
        <time>2020-02-22T11:38:15Z</time>
      </trkpt>
      <trkpt lat="39.0586130" lon="1.3815440">
        <ele>195.3</ele>
        <time>2020-02-22T11:38:16Z</time>
      </trkpt>
      <trkpt lat="39.0586140" lon="1.3815630">
        <ele>195.3</ele>
        <time>2020-02-22T11:38:17Z</time>
      </trkpt>
      <trkpt lat="39.0586110" lon="1.3816110">
        <ele>195.4</ele>
        <time>2020-02-22T11:38:18Z</time>
      </trkpt>
      <trkpt lat="39.0586120" lon="1.3816260">
        <ele>195.5</ele>
        <time>2020-02-22T11:38:19Z</time>
      </trkpt>
      <trkpt lat="39.0586130" lon="1.3816450">
        <ele>195.5</ele>
        <time>2020-02-22T11:38:20Z</time>
      </trkpt>
      <trkpt lat="39.0586180" lon="1.3816730">
        <ele>195.6</ele>
        <time>2020-02-22T11:38:21Z</time>
      </trkpt>
      <trkpt lat="39.0586200" lon="1.3817100">
        <ele>195.7</ele>
        <time>2020-02-22T11:38:22Z</time>
      </trkpt>
      <trkpt lat="39.0586230" lon="1.3817480">
        <ele>195.8</ele>
        <time>2020-02-22T11:38:23Z</time>
      </trkpt>
      <trkpt lat="39.0586210" lon="1.3817830">
        <ele>195.9</ele>
        <time>2020-02-22T11:38:24Z</time>
      </trkpt>
      <trkpt lat="39.0586180" lon="1.3818230">
        <ele>196.0</ele>
        <time>2020-02-22T11:38:25Z</time>
      </trkpt>
      <trkpt lat="39.0586140" lon="1.3818370">
        <ele>196.0</ele>
        <time>2020-02-22T11:38:26Z</time>
      </trkpt>
      <trkpt lat="39.0586110" lon="1.3818830">
        <ele>196.1</ele>
        <time>2020-02-22T11:38:27Z</time>
      </trkpt>
      <trkpt lat="39.0586180" lon="1.3819180">
        <ele>196.2</ele>
        <time>2020-02-22T11:38:28Z</time>
      </trkpt>
      <trkpt lat="39.0586200" lon="1.3819310">
        <ele>196.2</ele>
        <time>2020-02-22T11:38:29Z</time>
      </trkpt>
      <trkpt lat="39.0586150" lon="1.3819780">
        <ele>196.3</ele>
        <time>2020-02-22T11:38:30Z</time>
      </trkpt>
      <trkpt lat="39.0586050" lon="1.3820160">
        <ele>196.4</ele>
        <time>2020-02-22T11:38:31Z</time>
      </trkpt>
      <trkpt lat="39.0586010" lon="1.3820310">
        <ele>196.5</ele>
        <time>2020-02-22T11:38:32Z</time>
      </trkpt>
      <trkpt lat="39.0586010" lon="1.3820540">
        <ele>196.5</ele>
        <time>2020-02-22T11:38:33Z</time>
      </trkpt>
      <trkpt lat="39.0585920" lon="1.3821070">
        <ele>196.6</ele>
        <time>2020-02-22T11:38:34Z</time>
      </trkpt>
      <trkpt lat="39.0585870" lon="1.3821300">
        <ele>196.7</ele>
        <time>2020-02-22T11:38:35Z</time>
      </trkpt>
      <trkpt lat="39.0585800" lon="1.3821640">
        <ele>196.8</ele>
        <time>2020-02-22T11:38:36Z</time>
      </trkpt>
      <trkpt lat="39.0585800" lon="1.3821730">
        <ele>196.8</ele>
        <time>2020-02-22T11:38:37Z</time>
      </trkpt>
      <trkpt lat="39.0585760" lon="1.3822040">
        <ele>196.8</ele>
        <time>2020-02-22T11:38:38Z</time>
      </trkpt>
      <trkpt lat="39.0585670" lon="1.3822510">
        <ele>196.9</ele>
        <time>2020-02-22T11:38:39Z</time>
      </trkpt>
      <trkpt lat="39.0585620" lon="1.3822630">
        <ele>196.9</ele>
        <time>2020-02-22T11:38:40Z</time>
      </trkpt>
      <trkpt lat="39.0585580" lon="1.3823050">
        <ele>197.0</ele>
        <time>2020-02-22T11:38:41Z</time>
      </trkpt>
      <trkpt lat="39.0585550" lon="1.3823440">
        <ele>197.1</ele>
        <time>2020-02-22T11:38:42Z</time>
      </trkpt>
      <trkpt lat="39.0585510" lon="1.3823860">
        <ele>197.1</ele>
        <time>2020-02-22T11:38:43Z</time>
      </trkpt>
      <trkpt lat="39.0585520" lon="1.3824260">
        <ele>197.2</ele>
        <time>2020-02-22T11:38:44Z</time>
      </trkpt>
      <trkpt lat="39.0585520" lon="1.3824380">
        <ele>197.2</ele>
        <time>2020-02-22T11:38:45Z</time>
      </trkpt>
      <trkpt lat="39.0585480" lon="1.3824860">
        <ele>197.2</ele>
        <time>2020-02-22T11:38:46Z</time>
      </trkpt>
      <trkpt lat="39.0585450" lon="1.3824990">
        <ele>197.3</ele>
        <time>2020-02-22T11:38:47Z</time>
      </trkpt>
      <trkpt lat="39.0585220" lon="1.3825200">
        <ele>197.3</ele>
        <time>2020-02-22T11:38:48Z</time>
      </trkpt>
      <trkpt lat="39.0585220" lon="1.3825610">
        <ele>197.2</ele>
        <time>2020-02-22T11:38:49Z</time>
      </trkpt>
      <trkpt lat="39.0585240" lon="1.3825780">
        <ele>197.2</ele>
        <time>2020-02-22T11:38:50Z</time>
      </trkpt>
      <trkpt lat="39.0585240" lon="1.3826210">
        <ele>197.2</ele>
        <time>2020-02-22T11:38:51Z</time>
      </trkpt>
      <trkpt lat="39.0585240" lon="1.3826340">
        <ele>197.2</ele>
        <time>2020-02-22T11:38:52Z</time>
      </trkpt>
      <trkpt lat="39.0585140" lon="1.3826740">
        <ele>197.1</ele>
        <time>2020-02-22T11:38:53Z</time>
      </trkpt>
      <trkpt lat="39.0585110" lon="1.3826920">
        <ele>197.1</ele>
        <time>2020-02-22T11:38:54Z</time>
      </trkpt>
      <trkpt lat="39.0585080" lon="1.3827420">
        <ele>197.0</ele>
        <time>2020-02-22T11:38:55Z</time>
      </trkpt>
      <trkpt lat="39.0585090" lon="1.3827590">
        <ele>197.0</ele>
        <time>2020-02-22T11:38:56Z</time>
      </trkpt>
      <trkpt lat="39.0585190" lon="1.3827980">
        <ele>197.0</ele>
        <time>2020-02-22T11:38:57Z</time>
      </trkpt>
      <trkpt lat="39.0585240" lon="1.3828080">
        <ele>197.0</ele>
        <time>2020-02-22T11:38:58Z</time>
      </trkpt>
      <trkpt lat="39.0585440" lon="1.3828380">
        <ele>196.9</ele>
        <time>2020-02-22T11:38:59Z</time>
      </trkpt>
      <trkpt lat="39.0585500" lon="1.3828490">
        <ele>196.9</ele>
        <time>2020-02-22T11:39:00Z</time>
      </trkpt>
      <trkpt lat="39.0585720" lon="1.3828800">
        <ele>196.8</ele>
        <time>2020-02-22T11:39:01Z</time>
      </trkpt>
      <trkpt lat="39.0585810" lon="1.3828940">
        <ele>196.8</ele>
        <time>2020-02-22T11:39:02Z</time>
      </trkpt>
      <trkpt lat="39.0586180" lon="1.3829100">
        <ele>196.8</ele>
        <time>2020-02-22T11:39:03Z</time>
      </trkpt>
      <trkpt lat="39.0586320" lon="1.3829160">
        <ele>196.7</ele>
        <time>2020-02-22T11:39:04Z</time>
      </trkpt>
      <trkpt lat="39.0586630" lon="1.3829540">
        <ele>196.7</ele>
        <time>2020-02-22T11:39:05Z</time>
      </trkpt>
      <trkpt lat="39.0586740" lon="1.3829720">
        <ele>196.7</ele>
        <time>2020-02-22T11:39:06Z</time>
      </trkpt>
      <trkpt lat="39.0587040" lon="1.3829730">
        <ele>196.7</ele>
        <time>2020-02-22T11:39:07Z</time>
      </trkpt>
      <trkpt lat="39.0587370" lon="1.3829810">
        <ele>196.7</ele>
        <time>2020-02-22T11:39:08Z</time>
      </trkpt>
      <trkpt lat="39.0587500" lon="1.3829830">
        <ele>196.7</ele>
        <time>2020-02-22T11:39:09Z</time>
      </trkpt>
      <trkpt lat="39.0587880" lon="1.3829930">
        <ele>196.7</ele>
        <time>2020-02-22T11:39:10Z</time>
      </trkpt>
      <trkpt lat="39.0588000" lon="1.3829970">
        <ele>196.7</ele>
        <time>2020-02-22T11:39:11Z</time>
      </trkpt>
      <trkpt lat="39.0588220" lon="1.3829950">
        <ele>196.7</ele>
        <time>2020-02-22T11:39:12Z</time>
      </trkpt>
      <trkpt lat="39.0588360" lon="1.3829990">
        <ele>196.7</ele>
        <time>2020-02-22T11:39:13Z</time>
      </trkpt>
      <trkpt lat="39.0588670" lon="1.3829980">
        <ele>196.7</ele>
        <time>2020-02-22T11:39:14Z</time>
      </trkpt>
      <trkpt lat="39.0588770" lon="1.3830000">
        <ele>196.7</ele>
        <time>2020-02-22T11:39:15Z</time>
      </trkpt>
      <trkpt lat="39.0589090" lon="1.3830110">
        <ele>196.7</ele>
        <time>2020-02-22T11:39:16Z</time>
      </trkpt>
      <trkpt lat="39.0589210" lon="1.3830150">
        <ele>196.7</ele>
        <time>2020-02-22T11:39:17Z</time>
      </trkpt>
      <trkpt lat="39.0589520" lon="1.3830130">
        <ele>196.7</ele>
        <time>2020-02-22T11:39:18Z</time>
      </trkpt>
      <trkpt lat="39.0589620" lon="1.3830100">
        <ele>196.8</ele>
        <time>2020-02-22T11:39:19Z</time>
      </trkpt>
      <trkpt lat="39.0589770" lon="1.3830080">
        <ele>196.8</ele>
        <time>2020-02-22T11:39:20Z</time>
      </trkpt>
      <trkpt lat="39.0589960" lon="1.3830090">
        <ele>196.8</ele>
        <time>2020-02-22T11:39:21Z</time>
      </trkpt>
      <trkpt lat="39.0590370" lon="1.3830050">
        <ele>196.9</ele>
        <time>2020-02-22T11:39:22Z</time>
      </trkpt>
      <trkpt lat="39.0590520" lon="1.3830050">
        <ele>196.9</ele>
        <time>2020-02-22T11:39:23Z</time>
      </trkpt>
      <trkpt lat="39.0590870" lon="1.3830060">
        <ele>196.9</ele>
        <time>2020-02-22T11:39:24Z</time>
      </trkpt>
      <trkpt lat="39.0591200" lon="1.3830050">
        <ele>197.0</ele>
        <time>2020-02-22T11:39:25Z</time>
      </trkpt>
      <trkpt lat="39.0591550" lon="1.3830130">
        <ele>197.1</ele>
        <time>2020-02-22T11:39:26Z</time>
      </trkpt>
      <trkpt lat="39.0591850" lon="1.3830040">
        <ele>197.2</ele>
        <time>2020-02-22T11:39:27Z</time>
      </trkpt>
      <trkpt lat="39.0592170" lon="1.3830060">
        <ele>197.3</ele>
        <time>2020-02-22T11:39:28Z</time>
      </trkpt>
      <trkpt lat="39.0592580" lon="1.3829940">
        <ele>197.4</ele>
        <time>2020-02-22T11:39:29Z</time>
      </trkpt>
      <trkpt lat="39.0592720" lon="1.3829870">
        <ele>197.4</ele>
        <time>2020-02-22T11:39:30Z</time>
      </trkpt>
      <trkpt lat="39.0593010" lon="1.3829670">
        <ele>197.5</ele>
        <time>2020-02-22T11:39:31Z</time>
      </trkpt>
      <trkpt lat="39.0593310" lon="1.3829390">
        <ele>197.6</ele>
        <time>2020-02-22T11:39:32Z</time>
      </trkpt>
      <trkpt lat="39.0593580" lon="1.3829220">
        <ele>197.7</ele>
        <time>2020-02-22T11:39:33Z</time>
      </trkpt>
      <trkpt lat="39.0593870" lon="1.3829130">
        <ele>197.8</ele>
        <time>2020-02-22T11:39:34Z</time>
      </trkpt>
      <trkpt lat="39.0594160" lon="1.3829010">
        <ele>197.9</ele>
        <time>2020-02-22T11:39:35Z</time>
      </trkpt>
      <trkpt lat="39.0594630" lon="1.3828980">
        <ele>198.0</ele>
        <time>2020-02-22T11:39:36Z</time>
      </trkpt>
      <trkpt lat="39.0594840" lon="1.3829010">
        <ele>198.1</ele>
        <time>2020-02-22T11:39:37Z</time>
      </trkpt>
      <trkpt lat="39.0595220" lon="1.3829030">
        <ele>198.2</ele>
        <time>2020-02-22T11:39:38Z</time>
      </trkpt>
      <trkpt lat="39.0595550" lon="1.3829070">
        <ele>198.3</ele>
        <time>2020-02-22T11:39:39Z</time>
      </trkpt>
      <trkpt lat="39.0595860" lon="1.3829020">
        <ele>198.3</ele>
        <time>2020-02-22T11:39:40Z</time>
      </trkpt>
      <trkpt lat="39.0596150" lon="1.3829040">
        <ele>198.4</ele>
        <time>2020-02-22T11:39:41Z</time>
      </trkpt>
      <trkpt lat="39.0596470" lon="1.3829160">
        <ele>198.5</ele>
        <time>2020-02-22T11:39:42Z</time>
      </trkpt>
      <trkpt lat="39.0596780" lon="1.3829260">
        <ele>198.6</ele>
        <time>2020-02-22T11:39:43Z</time>
      </trkpt>
      <trkpt lat="39.0597140" lon="1.3829360">
        <ele>198.7</ele>
        <time>2020-02-22T11:39:44Z</time>
      </trkpt>
      <trkpt lat="39.0597490" lon="1.3829320">
        <ele>198.8</ele>
        <time>2020-02-22T11:39:45Z</time>
      </trkpt>
      <trkpt lat="39.0597820" lon="1.3829360">
        <ele>198.9</ele>
        <time>2020-02-22T11:39:46Z</time>
      </trkpt>
      <trkpt lat="39.0598180" lon="1.3829330">
        <ele>199.0</ele>
        <time>2020-02-22T11:39:47Z</time>
      </trkpt>
      <trkpt lat="39.0598510" lon="1.3829100">
        <ele>199.1</ele>
        <time>2020-02-22T11:39:48Z</time>
      </trkpt>
      <trkpt lat="39.0598770" lon="1.3828780">
        <ele>199.2</ele>
        <time>2020-02-22T11:39:49Z</time>
      </trkpt>
      <trkpt lat="39.0599030" lon="1.3828510">
        <ele>199.3</ele>
        <time>2020-02-22T11:39:50Z</time>
      </trkpt>
      <trkpt lat="39.0599350" lon="1.3828180">
        <ele>199.4</ele>
        <time>2020-02-22T11:39:51Z</time>
      </trkpt>
      <trkpt lat="39.0599630" lon="1.3828000">
        <ele>199.4</ele>
        <time>2020-02-22T11:39:52Z</time>
      </trkpt>
      <trkpt lat="39.0599870" lon="1.3827840">
        <ele>199.5</ele>
        <time>2020-02-22T11:39:53Z</time>
      </trkpt>
      <trkpt lat="39.0600210" lon="1.3827650">
        <ele>199.6</ele>
        <time>2020-02-22T11:39:54Z</time>
      </trkpt>
      <trkpt lat="39.0600390" lon="1.3827600">
        <ele>199.6</ele>
        <time>2020-02-22T11:39:55Z</time>
      </trkpt>
      <trkpt lat="39.0600650" lon="1.3827320">
        <ele>199.6</ele>
        <time>2020-02-22T11:39:56Z</time>
      </trkpt>
      <trkpt lat="39.0600760" lon="1.3827240">
        <ele>199.7</ele>
        <time>2020-02-22T11:39:57Z</time>
      </trkpt>
      <trkpt lat="39.0601070" lon="1.3827020">
        <ele>199.7</ele>
        <time>2020-02-22T11:39:58Z</time>
      </trkpt>
      <trkpt lat="39.0601170" lon="1.3826940">
        <ele>199.7</ele>
        <time>2020-02-22T11:39:59Z</time>
      </trkpt>
      <trkpt lat="39.0601420" lon="1.3826780">
        <ele>199.7</ele>
        <time>2020-02-22T11:40:00Z</time>
      </trkpt>
      <trkpt lat="39.0601670" lon="1.3826480">
        <ele>199.7</ele>
        <time>2020-02-22T11:40:01Z</time>
      </trkpt>
      <trkpt lat="39.0601760" lon="1.3826370">
        <ele>199.7</ele>
        <time>2020-02-22T11:40:02Z</time>
      </trkpt>
      <trkpt lat="39.0601980" lon="1.3826130">
        <ele>199.8</ele>
        <time>2020-02-22T11:40:03Z</time>
      </trkpt>
      <trkpt lat="39.0602220" lon="1.3825750">
        <ele>199.8</ele>
        <time>2020-02-22T11:40:04Z</time>
      </trkpt>
      <trkpt lat="39.0602290" lon="1.3825620">
        <ele>199.8</ele>
        <time>2020-02-22T11:40:05Z</time>
      </trkpt>
      <trkpt lat="39.0602540" lon="1.3825320">
        <ele>199.8</ele>
        <time>2020-02-22T11:40:06Z</time>
      </trkpt>
      <trkpt lat="39.0602610" lon="1.3825230">
        <ele>199.8</ele>
        <time>2020-02-22T11:40:07Z</time>
      </trkpt>
      <trkpt lat="39.0602820" lon="1.3824950">
        <ele>199.8</ele>
        <time>2020-02-22T11:40:08Z</time>
      </trkpt>
      <trkpt lat="39.0602880" lon="1.3824850">
        <ele>199.8</ele>
        <time>2020-02-22T11:40:09Z</time>
      </trkpt>
      <trkpt lat="39.0603140" lon="1.3824530">
        <ele>199.8</ele>
        <time>2020-02-22T11:40:10Z</time>
      </trkpt>
      <trkpt lat="39.0603210" lon="1.3824410">
        <ele>199.8</ele>
        <time>2020-02-22T11:40:11Z</time>
      </trkpt>
      <trkpt lat="39.0603410" lon="1.3824180">
        <ele>199.8</ele>
        <time>2020-02-22T11:40:12Z</time>
      </trkpt>
      <trkpt lat="39.0603740" lon="1.3823860">
        <ele>199.8</ele>
        <time>2020-02-22T11:40:13Z</time>
      </trkpt>
      <trkpt lat="39.0603870" lon="1.3823740">
        <ele>199.8</ele>
        <time>2020-02-22T11:40:14Z</time>
      </trkpt>
      <trkpt lat="39.0604160" lon="1.3823340">
        <ele>199.8</ele>
        <time>2020-02-22T11:40:15Z</time>
      </trkpt>
      <trkpt lat="39.0604290" lon="1.3823180">
        <ele>199.8</ele>
        <time>2020-02-22T11:40:16Z</time>
      </trkpt>
      <trkpt lat="39.0604480" lon="1.3822870">
        <ele>199.8</ele>
        <time>2020-02-22T11:40:17Z</time>
      </trkpt>
      <trkpt lat="39.0604530" lon="1.3822750">
        <ele>199.8</ele>
        <time>2020-02-22T11:40:18Z</time>
      </trkpt>
      <trkpt lat="39.0604720" lon="1.3822330">
        <ele>199.8</ele>
        <time>2020-02-22T11:40:19Z</time>
      </trkpt>
      <trkpt lat="39.0604800" lon="1.3822160">
        <ele>199.8</ele>
        <time>2020-02-22T11:40:20Z</time>
      </trkpt>
      <trkpt lat="39.0604990" lon="1.3821690">
        <ele>199.8</ele>
        <time>2020-02-22T11:40:21Z</time>
      </trkpt>
      <trkpt lat="39.0605060" lon="1.3821490">
        <ele>199.8</ele>
        <time>2020-02-22T11:40:22Z</time>
      </trkpt>
      <trkpt lat="39.0605300" lon="1.3821130">
        <ele>199.7</ele>
        <time>2020-02-22T11:40:23Z</time>
      </trkpt>
      <trkpt lat="39.0605390" lon="1.3821010">
        <ele>199.7</ele>
        <time>2020-02-22T11:40:24Z</time>
      </trkpt>
      <trkpt lat="39.0605530" lon="1.3820670">
        <ele>199.7</ele>
        <time>2020-02-22T11:40:25Z</time>
      </trkpt>
      <trkpt lat="39.0605790" lon="1.3820440">
        <ele>199.6</ele>
        <time>2020-02-22T11:40:26Z</time>
      </trkpt>
      <trkpt lat="39.0605880" lon="1.3820350">
        <ele>199.6</ele>
        <time>2020-02-22T11:40:27Z</time>
      </trkpt>
      <trkpt lat="39.0606080" lon="1.3819950">
        <ele>199.5</ele>
        <time>2020-02-22T11:40:28Z</time>
      </trkpt>
      <trkpt lat="39.0606140" lon="1.3819810">
        <ele>199.4</ele>
        <time>2020-02-22T11:40:29Z</time>
      </trkpt>
      <trkpt lat="39.0606430" lon="1.3819490">
        <ele>199.3</ele>
        <time>2020-02-22T11:40:30Z</time>
      </trkpt>
      <trkpt lat="39.0606540" lon="1.3819390">
        <ele>199.3</ele>
        <time>2020-02-22T11:40:31Z</time>
      </trkpt>
      <trkpt lat="39.0606790" lon="1.3819210">
        <ele>199.2</ele>
        <time>2020-02-22T11:40:32Z</time>
      </trkpt>
      <trkpt lat="39.0607090" lon="1.3818910">
        <ele>199.0</ele>
        <time>2020-02-22T11:40:33Z</time>
      </trkpt>
      <trkpt lat="39.0607210" lon="1.3818820">
        <ele>199.0</ele>
        <time>2020-02-22T11:40:34Z</time>
      </trkpt>
      <trkpt lat="39.0607560" lon="1.3818680">
        <ele>198.8</ele>
        <time>2020-02-22T11:40:35Z</time>
      </trkpt>
      <trkpt lat="39.0607670" lon="1.3818660">
        <ele>198.8</ele>
        <time>2020-02-22T11:40:36Z</time>
      </trkpt>
      <trkpt lat="39.0607940" lon="1.3818540">
        <ele>198.6</ele>
        <time>2020-02-22T11:40:37Z</time>
      </trkpt>
      <trkpt lat="39.0608230" lon="1.3818520">
        <ele>198.5</ele>
        <time>2020-02-22T11:40:38Z</time>
      </trkpt>
      <trkpt lat="39.0608510" lon="1.3818480">
        <ele>198.4</ele>
        <time>2020-02-22T11:40:39Z</time>
      </trkpt>
      <trkpt lat="39.0608800" lon="1.3818540">
        <ele>198.3</ele>
        <time>2020-02-22T11:40:40Z</time>
      </trkpt>
      <trkpt lat="39.0609130" lon="1.3818600">
        <ele>198.1</ele>
        <time>2020-02-22T11:40:41Z</time>
      </trkpt>
      <trkpt lat="39.0609460" lon="1.3818760">
        <ele>197.9</ele>
        <time>2020-02-22T11:40:42Z</time>
      </trkpt>
      <trkpt lat="39.0609560" lon="1.3818840">
        <ele>198.0</ele>
        <time>2020-02-22T11:40:43Z</time>
      </trkpt>
      <trkpt lat="39.0609750" lon="1.3819180">
        <ele>198.2</ele>
        <time>2020-02-22T11:40:44Z</time>
      </trkpt>
      <trkpt lat="39.0609850" lon="1.3819680">
        <ele>198.4</ele>
        <time>2020-02-22T11:40:45Z</time>
      </trkpt>
      <trkpt lat="39.0609840" lon="1.3819910">
        <ele>198.4</ele>
        <time>2020-02-22T11:40:46Z</time>
      </trkpt>
      <trkpt lat="39.0609850" lon="1.3820320">
        <ele>198.6</ele>
        <time>2020-02-22T11:40:47Z</time>
      </trkpt>
      <trkpt lat="39.0609890" lon="1.3820770">
        <ele>198.7</ele>
        <time>2020-02-22T11:40:48Z</time>
      </trkpt>
      <trkpt lat="39.0609980" lon="1.3821140">
        <ele>198.8</ele>
        <time>2020-02-22T11:40:49Z</time>
      </trkpt>
      <trkpt lat="39.0610130" lon="1.3821480">
        <ele>199.0</ele>
        <time>2020-02-22T11:40:50Z</time>
      </trkpt>
      <trkpt lat="39.0610240" lon="1.3821800">
        <ele>199.2</ele>
        <time>2020-02-22T11:40:51Z</time>
      </trkpt>
      <trkpt lat="39.0610330" lon="1.3822240">
        <ele>199.5</ele>
        <time>2020-02-22T11:40:52Z</time>
      </trkpt>
      <trkpt lat="39.0610480" lon="1.3822760">
        <ele>199.8</ele>
        <time>2020-02-22T11:40:53Z</time>
      </trkpt>
      <trkpt lat="39.0610540" lon="1.3823210">
        <ele>200.1</ele>
        <time>2020-02-22T11:40:54Z</time>
      </trkpt>
      <trkpt lat="39.0610560" lon="1.3823390">
        <ele>200.2</ele>
        <time>2020-02-22T11:40:55Z</time>
      </trkpt>
      <trkpt lat="39.0610580" lon="1.3823800">
        <ele>200.4</ele>
        <time>2020-02-22T11:40:56Z</time>
      </trkpt>
      <trkpt lat="39.0610710" lon="1.3824140">
        <ele>200.6</ele>
        <time>2020-02-22T11:40:57Z</time>
      </trkpt>
      <trkpt lat="39.0610740" lon="1.3824500">
        <ele>200.8</ele>
        <time>2020-02-22T11:40:58Z</time>
      </trkpt>
      <trkpt lat="39.0611020" lon="1.3824810">
        <ele>201.1</ele>
        <time>2020-02-22T11:40:59Z</time>
      </trkpt>
      <trkpt lat="39.0611100" lon="1.3824920">
        <ele>201.2</ele>
        <time>2020-02-22T11:41:00Z</time>
      </trkpt>
      <trkpt lat="39.0611370" lon="1.3825260">
        <ele>201.6</ele>
        <time>2020-02-22T11:41:01Z</time>
      </trkpt>
      <trkpt lat="39.0611460" lon="1.3825360">
        <ele>201.7</ele>
        <time>2020-02-22T11:41:02Z</time>
      </trkpt>
      <trkpt lat="39.0611720" lon="1.3825730">
        <ele>202.1</ele>
        <time>2020-02-22T11:41:03Z</time>
      </trkpt>
      <trkpt lat="39.0612050" lon="1.3826100">
        <ele>202.6</ele>
        <time>2020-02-22T11:41:04Z</time>
      </trkpt>
      <trkpt lat="39.0612350" lon="1.3826530">
        <ele>203.0</ele>
        <time>2020-02-22T11:41:05Z</time>
      </trkpt>
      <trkpt lat="39.0612650" lon="1.3826950">
        <ele>203.3</ele>
        <time>2020-02-22T11:41:06Z</time>
      </trkpt>
      <trkpt lat="39.0612920" lon="1.3827390">
        <ele>203.6</ele>
        <time>2020-02-22T11:41:07Z</time>
      </trkpt>
      <trkpt lat="39.0613180" lon="1.3827830">
        <ele>203.9</ele>
        <time>2020-02-22T11:41:08Z</time>
      </trkpt>
      <trkpt lat="39.0613480" lon="1.3828300">
        <ele>204.3</ele>
        <time>2020-02-22T11:41:09Z</time>
      </trkpt>
      <trkpt lat="39.0613770" lon="1.3828910">
        <ele>204.8</ele>
        <time>2020-02-22T11:41:10Z</time>
      </trkpt>
      <trkpt lat="39.0614090" lon="1.3829500">
        <ele>205.3</ele>
        <time>2020-02-22T11:41:11Z</time>
      </trkpt>
      <trkpt lat="39.0614300" lon="1.3830110">
        <ele>205.7</ele>
        <time>2020-02-22T11:41:12Z</time>
      </trkpt>
      <trkpt lat="39.0614520" lon="1.3830620">
        <ele>206.1</ele>
        <time>2020-02-22T11:41:13Z</time>
      </trkpt>
      <trkpt lat="39.0614710" lon="1.3831070">
        <ele>206.4</ele>
        <time>2020-02-22T11:41:14Z</time>
      </trkpt>
      <trkpt lat="39.0614970" lon="1.3831450">
        <ele>206.7</ele>
        <time>2020-02-22T11:41:15Z</time>
      </trkpt>
      <trkpt lat="39.0615350" lon="1.3831750">
        <ele>207.0</ele>
        <time>2020-02-22T11:41:16Z</time>
      </trkpt>
      <trkpt lat="39.0615710" lon="1.3832130">
        <ele>207.4</ele>
        <time>2020-02-22T11:41:17Z</time>
      </trkpt>
      <trkpt lat="39.0615890" lon="1.3832520">
        <ele>207.6</ele>
        <time>2020-02-22T11:41:18Z</time>
      </trkpt>
      <trkpt lat="39.0616060" lon="1.3832920">
        <ele>207.9</ele>
        <time>2020-02-22T11:41:19Z</time>
      </trkpt>
      <trkpt lat="39.0616230" lon="1.3833270">
        <ele>208.2</ele>
        <time>2020-02-22T11:41:20Z</time>
      </trkpt>
      <trkpt lat="39.0616530" lon="1.3833550">
        <ele>208.5</ele>
        <time>2020-02-22T11:41:21Z</time>
      </trkpt>
      <trkpt lat="39.0616660" lon="1.3833650">
        <ele>208.6</ele>
        <time>2020-02-22T11:41:22Z</time>
      </trkpt>
      <trkpt lat="39.0616890" lon="1.3833830">
        <ele>208.8</ele>
        <time>2020-02-22T11:41:23Z</time>
      </trkpt>
      <trkpt lat="39.0617010" lon="1.3833940">
        <ele>208.9</ele>
        <time>2020-02-22T11:41:24Z</time>
      </trkpt>
      <trkpt lat="39.0617240" lon="1.3834320">
        <ele>209.2</ele>
        <time>2020-02-22T11:41:25Z</time>
      </trkpt>
      <trkpt lat="39.0617320" lon="1.3834480">
        <ele>209.3</ele>
        <time>2020-02-22T11:41:26Z</time>
      </trkpt>
      <trkpt lat="39.0617590" lon="1.3834840">
        <ele>209.6</ele>
        <time>2020-02-22T11:41:27Z</time>
      </trkpt>
      <trkpt lat="39.0617670" lon="1.3834980">
        <ele>209.7</ele>
        <time>2020-02-22T11:41:28Z</time>
      </trkpt>
      <trkpt lat="39.0617870" lon="1.3835330">
        <ele>209.9</ele>
        <time>2020-02-22T11:41:29Z</time>
      </trkpt>
      <trkpt lat="39.0617900" lon="1.3835410">
        <ele>210.0</ele>
        <time>2020-02-22T11:41:30Z</time>
      </trkpt>
      <trkpt lat="39.0617970" lon="1.3835580">
        <ele>210.1</ele>
        <time>2020-02-22T11:41:31Z</time>
      </trkpt>
      <trkpt lat="39.0618110" lon="1.3835730">
        <ele>210.2</ele>
        <time>2020-02-22T11:41:32Z</time>
      </trkpt>
      <trkpt lat="39.0618260" lon="1.3836010">
        <ele>210.4</ele>
        <time>2020-02-22T11:41:33Z</time>
      </trkpt>
      <trkpt lat="39.0618340" lon="1.3836130">
        <ele>210.5</ele>
        <time>2020-02-22T11:41:34Z</time>
      </trkpt>
      <trkpt lat="39.0618570" lon="1.3836430">
        <ele>210.8</ele>
        <time>2020-02-22T11:41:35Z</time>
      </trkpt>
      <trkpt lat="39.0618650" lon="1.3836490">
        <ele>210.8</ele>
        <time>2020-02-22T11:41:36Z</time>
      </trkpt>
      <trkpt lat="39.0618770" lon="1.3836680">
        <ele>211.0</ele>
        <time>2020-02-22T11:41:37Z</time>
      </trkpt>
      <trkpt lat="39.0618860" lon="1.3836800">
        <ele>211.1</ele>
        <time>2020-02-22T11:41:38Z</time>
      </trkpt>
      <trkpt lat="39.0619080" lon="1.3837050">
        <ele>211.3</ele>
        <time>2020-02-22T11:41:39Z</time>
      </trkpt>
      <trkpt lat="39.0619160" lon="1.3837170">
        <ele>211.4</ele>
        <time>2020-02-22T11:41:40Z</time>
      </trkpt>
      <trkpt lat="39.0619390" lon="1.3837460">
        <ele>211.7</ele>
        <time>2020-02-22T11:41:41Z</time>
      </trkpt>
      <trkpt lat="39.0619610" lon="1.3837670">
        <ele>212.0</ele>
        <time>2020-02-22T11:41:42Z</time>
      </trkpt>
      <trkpt lat="39.0619870" lon="1.3837980">
        <ele>212.3</ele>
        <time>2020-02-22T11:41:43Z</time>
      </trkpt>
      <trkpt lat="39.0619950" lon="1.3838060">
        <ele>212.4</ele>
        <time>2020-02-22T11:41:44Z</time>
      </trkpt>
      <trkpt lat="39.0620190" lon="1.3838290">
        <ele>212.6</ele>
        <time>2020-02-22T11:41:45Z</time>
      </trkpt>
      <trkpt lat="39.0620240" lon="1.3838350">
        <ele>212.7</ele>
        <time>2020-02-22T11:41:46Z</time>
      </trkpt>
      <trkpt lat="39.0620350" lon="1.3838500">
        <ele>212.8</ele>
        <time>2020-02-22T11:41:47Z</time>
      </trkpt>
      <trkpt lat="39.0620480" lon="1.3838660">
        <ele>213.0</ele>
        <time>2020-02-22T11:41:48Z</time>
      </trkpt>
      <trkpt lat="39.0620660" lon="1.3838870">
        <ele>213.2</ele>
        <time>2020-02-22T11:41:49Z</time>
      </trkpt>
      <trkpt lat="39.0620720" lon="1.3838990">
        <ele>213.3</ele>
        <time>2020-02-22T11:41:50Z</time>
      </trkpt>
      <trkpt lat="39.0620910" lon="1.3839090">
        <ele>213.5</ele>
        <time>2020-02-22T11:41:51Z</time>
      </trkpt>
      <trkpt lat="39.0621020" lon="1.3839140">
        <ele>213.6</ele>
        <time>2020-02-22T11:41:52Z</time>
      </trkpt>
      <trkpt lat="39.0621200" lon="1.3839280">
        <ele>213.8</ele>
        <time>2020-02-22T11:41:53Z</time>
      </trkpt>
      <trkpt lat="39.0621330" lon="1.3839330">
        <ele>213.9</ele>
        <time>2020-02-22T11:41:54Z</time>
      </trkpt>
      <trkpt lat="39.0621500" lon="1.3839370">
        <ele>214.1</ele>
        <time>2020-02-22T11:41:55Z</time>
      </trkpt>
      <trkpt lat="39.0621690" lon="1.3839420">
        <ele>214.3</ele>
        <time>2020-02-22T11:41:56Z</time>
      </trkpt>
      <trkpt lat="39.0621980" lon="1.3839660">
        <ele>214.6</ele>
        <time>2020-02-22T11:41:57Z</time>
      </trkpt>
      <trkpt lat="39.0622100" lon="1.3839700">
        <ele>214.7</ele>
        <time>2020-02-22T11:41:58Z</time>
      </trkpt>
      <trkpt lat="39.0622390" lon="1.3839870">
        <ele>215.0</ele>
        <time>2020-02-22T11:41:59Z</time>
      </trkpt>
      <trkpt lat="39.0622470" lon="1.3839940">
        <ele>215.1</ele>
        <time>2020-02-22T11:42:00Z</time>
      </trkpt>
      <trkpt lat="39.0622750" lon="1.3840200">
        <ele>215.4</ele>
        <time>2020-02-22T11:42:01Z</time>
      </trkpt>
      <trkpt lat="39.0622840" lon="1.3840250">
        <ele>215.5</ele>
        <time>2020-02-22T11:42:02Z</time>
      </trkpt>
      <trkpt lat="39.0623170" lon="1.3840400">
        <ele>215.9</ele>
        <time>2020-02-22T11:42:03Z</time>
      </trkpt>
      <trkpt lat="39.0623260" lon="1.3840420">
        <ele>216.0</ele>
        <time>2020-02-22T11:42:04Z</time>
      </trkpt>
      <trkpt lat="39.0623590" lon="1.3840470">
        <ele>216.3</ele>
        <time>2020-02-22T11:42:05Z</time>
      </trkpt>
      <trkpt lat="39.0623680" lon="1.3840480">
        <ele>216.4</ele>
        <time>2020-02-22T11:42:06Z</time>
      </trkpt>
      <trkpt lat="39.0623770" lon="1.3840480">
        <ele>216.5</ele>
        <time>2020-02-22T11:42:07Z</time>
      </trkpt>
      <trkpt lat="39.0623960" lon="1.3840530">
        <ele>216.8</ele>
        <time>2020-02-22T11:42:08Z</time>
      </trkpt>
      <trkpt lat="39.0624280" lon="1.3840590">
        <ele>217.2</ele>
        <time>2020-02-22T11:42:09Z</time>
      </trkpt>
      <trkpt lat="39.0624370" lon="1.3840630">
        <ele>217.3</ele>
        <time>2020-02-22T11:42:10Z</time>
      </trkpt>
      <trkpt lat="39.0624560" lon="1.3840710">
        <ele>217.5</ele>
        <time>2020-02-22T11:42:11Z</time>
      </trkpt>
      <trkpt lat="39.0624690" lon="1.3840740">
        <ele>217.7</ele>
        <time>2020-02-22T11:42:12Z</time>
      </trkpt>
      <trkpt lat="39.0624850" lon="1.3840770">
        <ele>217.9</ele>
        <time>2020-02-22T11:42:13Z</time>
      </trkpt>
      <trkpt lat="39.0624990" lon="1.3840720">
        <ele>218.1</ele>
        <time>2020-02-22T11:42:14Z</time>
      </trkpt>
      <trkpt lat="39.0625220" lon="1.3840770">
        <ele>218.5</ele>
        <time>2020-02-22T11:42:15Z</time>
      </trkpt>
      <trkpt lat="39.0625330" lon="1.3840810">
        <ele>218.6</ele>
        <time>2020-02-22T11:42:16Z</time>
      </trkpt>
      <trkpt lat="39.0625450" lon="1.3840850">
        <ele>218.8</ele>
        <time>2020-02-22T11:42:17Z</time>
      </trkpt>
      <trkpt lat="39.0625620" lon="1.3840940">
        <ele>219.1</ele>
        <time>2020-02-22T11:42:18Z</time>
      </trkpt>
      <trkpt lat="39.0625770" lon="1.3841060">
        <ele>219.7</ele>
        <time>2020-02-22T11:42:19Z</time>
      </trkpt>
      <trkpt lat="39.0625880" lon="1.3841190">
        <ele>219.7</ele>
        <time>2020-02-22T11:42:20Z</time>
      </trkpt>
      <trkpt lat="39.0626000" lon="1.3841300">
        <ele>219.8</ele>
        <time>2020-02-22T11:42:21Z</time>
      </trkpt>
      <trkpt lat="39.0626120" lon="1.3841400">
        <ele>219.8</ele>
        <time>2020-02-22T11:42:22Z</time>
      </trkpt>
      <trkpt lat="39.0626220" lon="1.3841510">
        <ele>219.8</ele>
        <time>2020-02-22T11:42:23Z</time>
      </trkpt>
      <trkpt lat="39.0626340" lon="1.3841550">
        <ele>219.8</ele>
        <time>2020-02-22T11:42:24Z</time>
      </trkpt>
      <trkpt lat="39.0626520" lon="1.3841600">
        <ele>219.9</ele>
        <time>2020-02-22T11:42:25Z</time>
      </trkpt>
      <trkpt lat="39.0626780" lon="1.3841750">
        <ele>219.9</ele>
        <time>2020-02-22T11:42:26Z</time>
      </trkpt>
      <trkpt lat="39.0626870" lon="1.3841820">
        <ele>220.0</ele>
        <time>2020-02-22T11:42:27Z</time>
      </trkpt>
      <trkpt lat="39.0627020" lon="1.3841940">
        <ele>220.0</ele>
        <time>2020-02-22T11:42:28Z</time>
      </trkpt>
      <trkpt lat="39.0627160" lon="1.3842040">
        <ele>220.0</ele>
        <time>2020-02-22T11:42:29Z</time>
      </trkpt>
      <trkpt lat="39.0627310" lon="1.3842090">
        <ele>220.1</ele>
        <time>2020-02-22T11:42:30Z</time>
      </trkpt>
      <trkpt lat="39.0627430" lon="1.3842190">
        <ele>220.1</ele>
        <time>2020-02-22T11:42:31Z</time>
      </trkpt>
      <trkpt lat="39.0627750" lon="1.3842300">
        <ele>220.2</ele>
        <time>2020-02-22T11:42:32Z</time>
      </trkpt>
      <trkpt lat="39.0627850" lon="1.3842340">
        <ele>220.2</ele>
        <time>2020-02-22T11:42:33Z</time>
      </trkpt>
      <trkpt lat="39.0628120" lon="1.3842520">
        <ele>220.3</ele>
        <time>2020-02-22T11:42:34Z</time>
      </trkpt>
      <trkpt lat="39.0628200" lon="1.3842570">
        <ele>220.4</ele>
        <time>2020-02-22T11:42:35Z</time>
      </trkpt>
      <trkpt lat="39.0628320" lon="1.3842700">
        <ele>220.4</ele>
        <time>2020-02-22T11:42:36Z</time>
      </trkpt>
      <trkpt lat="39.0628470" lon="1.3842810">
        <ele>220.5</ele>
        <time>2020-02-22T11:42:37Z</time>
      </trkpt>
      <trkpt lat="39.0628770" lon="1.3843090">
        <ele>220.6</ele>
        <time>2020-02-22T11:42:38Z</time>
      </trkpt>
      <trkpt lat="39.0628890" lon="1.3843170">
        <ele>220.7</ele>
        <time>2020-02-22T11:42:39Z</time>
      </trkpt>
      <trkpt lat="39.0629220" lon="1.3843390">
        <ele>221.0</ele>
        <time>2020-02-22T11:42:40Z</time>
      </trkpt>
      <trkpt lat="39.0629320" lon="1.3843480">
        <ele>221.2</ele>
        <time>2020-02-22T11:42:41Z</time>
      </trkpt>
      <trkpt lat="39.0629600" lon="1.3843600">
        <ele>221.4</ele>
        <time>2020-02-22T11:42:42Z</time>
      </trkpt>
      <trkpt lat="39.0630030" lon="1.3843710">
        <ele>221.8</ele>
        <time>2020-02-22T11:42:43Z</time>
      </trkpt>
      <trkpt lat="39.0630430" lon="1.3843800">
        <ele>222.1</ele>
        <time>2020-02-22T11:42:44Z</time>
      </trkpt>
      <trkpt lat="39.0630730" lon="1.3843720">
        <ele>222.4</ele>
        <time>2020-02-22T11:42:45Z</time>
      </trkpt>
      <trkpt lat="39.0631100" lon="1.3843810">
        <ele>222.7</ele>
        <time>2020-02-22T11:42:46Z</time>
      </trkpt>
      <trkpt lat="39.0631520" lon="1.3843900">
        <ele>223.4</ele>
        <time>2020-02-22T11:42:47Z</time>
      </trkpt>
      <trkpt lat="39.0631960" lon="1.3843980">
        <ele>224.2</ele>
        <time>2020-02-22T11:42:48Z</time>
      </trkpt>
      <trkpt lat="39.0632300" lon="1.3844060">
        <ele>224.8</ele>
        <time>2020-02-22T11:42:49Z</time>
      </trkpt>
      <trkpt lat="39.0632390" lon="1.3844080">
        <ele>224.9</ele>
        <time>2020-02-22T11:42:50Z</time>
      </trkpt>
      <trkpt lat="39.0632530" lon="1.3844190">
        <ele>225.2</ele>
        <time>2020-02-22T11:42:51Z</time>
      </trkpt>
      <trkpt lat="39.0632700" lon="1.3844280">
        <ele>225.5</ele>
        <time>2020-02-22T11:42:52Z</time>
      </trkpt>
      <trkpt lat="39.0633040" lon="1.3844360">
        <ele>225.6</ele>
        <time>2020-02-22T11:42:53Z</time>
      </trkpt>
      <trkpt lat="39.0633200" lon="1.3844390">
        <ele>225.5</ele>
        <time>2020-02-22T11:42:54Z</time>
      </trkpt>
      <trkpt lat="39.0633480" lon="1.3844300">
        <ele>225.3</ele>
        <time>2020-02-22T11:42:55Z</time>
      </trkpt>
      <trkpt lat="39.0633780" lon="1.3843870">
        <ele>224.9</ele>
        <time>2020-02-22T11:42:56Z</time>
      </trkpt>
      <trkpt lat="39.0633950" lon="1.3843190">
        <ele>224.5</ele>
        <time>2020-02-22T11:42:57Z</time>
      </trkpt>
      <trkpt lat="39.0633970" lon="1.3842720">
        <ele>224.3</ele>
        <time>2020-02-22T11:42:58Z</time>
      </trkpt>
      <trkpt lat="39.0634020" lon="1.3842370">
        <ele>224.1</ele>
        <time>2020-02-22T11:42:59Z</time>
      </trkpt>
      <trkpt lat="39.0634180" lon="1.3841950">
        <ele>223.9</ele>
        <time>2020-02-22T11:43:00Z</time>
      </trkpt>
      <trkpt lat="39.0634470" lon="1.3841830">
        <ele>223.8</ele>
        <time>2020-02-22T11:43:01Z</time>
      </trkpt>
      <trkpt lat="39.0634730" lon="1.3842010">
        <ele>223.6</ele>
        <time>2020-02-22T11:43:02Z</time>
      </trkpt>
      <trkpt lat="39.0634880" lon="1.3842450">
        <ele>223.5</ele>
        <time>2020-02-22T11:43:03Z</time>
      </trkpt>
      <trkpt lat="39.0635060" lon="1.3842860">
        <ele>223.4</ele>
        <time>2020-02-22T11:43:04Z</time>
      </trkpt>
      <trkpt lat="39.0635120" lon="1.3843320">
        <ele>223.2</ele>
        <time>2020-02-22T11:43:05Z</time>
      </trkpt>
      <trkpt lat="39.0635200" lon="1.3843760">
        <ele>223.1</ele>
        <time>2020-02-22T11:43:06Z</time>
      </trkpt>
      <trkpt lat="39.0635320" lon="1.3844260">
        <ele>223.0</ele>
        <time>2020-02-22T11:43:07Z</time>
      </trkpt>
      <trkpt lat="39.0635410" lon="1.3844730">
        <ele>222.8</ele>
        <time>2020-02-22T11:43:08Z</time>
      </trkpt>
      <trkpt lat="39.0635540" lon="1.3845080">
        <ele>222.7</ele>
        <time>2020-02-22T11:43:09Z</time>
      </trkpt>
      <trkpt lat="39.0635630" lon="1.3845420">
        <ele>222.6</ele>
        <time>2020-02-22T11:43:10Z</time>
      </trkpt>
      <trkpt lat="39.0635740" lon="1.3845860">
        <ele>222.4</ele>
        <time>2020-02-22T11:43:11Z</time>
      </trkpt>
      <trkpt lat="39.0635760" lon="1.3846040">
        <ele>222.4</ele>
        <time>2020-02-22T11:43:12Z</time>
      </trkpt>
      <trkpt lat="39.0635910" lon="1.3846360">
        <ele>222.2</ele>
        <time>2020-02-22T11:43:13Z</time>
      </trkpt>
      <trkpt lat="39.0636060" lon="1.3846680">
        <ele>222.1</ele>
        <time>2020-02-22T11:43:14Z</time>
      </trkpt>
      <trkpt lat="39.0636350" lon="1.3846840">
        <ele>221.9</ele>
        <time>2020-02-22T11:43:15Z</time>
      </trkpt>
      <trkpt lat="39.0636680" lon="1.3847020">
        <ele>221.7</ele>
        <time>2020-02-22T11:43:16Z</time>
      </trkpt>
      <trkpt lat="39.0636980" lon="1.3846980">
        <ele>221.4</ele>
        <time>2020-02-22T11:43:17Z</time>
      </trkpt>
      <trkpt lat="39.0637230" lon="1.3846720">
        <ele>221.2</ele>
        <time>2020-02-22T11:43:18Z</time>
      </trkpt>
      <trkpt lat="39.0637490" lon="1.3846480">
        <ele>220.9</ele>
        <time>2020-02-22T11:43:19Z</time>
      </trkpt>
      <trkpt lat="39.0637800" lon="1.3846350">
        <ele>220.7</ele>
        <time>2020-02-22T11:43:20Z</time>
      </trkpt>
      <trkpt lat="39.0638070" lon="1.3846140">
        <ele>220.4</ele>
        <time>2020-02-22T11:43:21Z</time>
      </trkpt>
      <trkpt lat="39.0638400" lon="1.3845760">
        <ele>220.0</ele>
        <time>2020-02-22T11:43:22Z</time>
      </trkpt>
      <trkpt lat="39.0638730" lon="1.3845400">
        <ele>219.6</ele>
        <time>2020-02-22T11:43:23Z</time>
      </trkpt>
      <trkpt lat="39.0638980" lon="1.3845070">
        <ele>219.3</ele>
        <time>2020-02-22T11:43:24Z</time>
      </trkpt>
      <trkpt lat="39.0639240" lon="1.3844800">
        <ele>219.0</ele>
        <time>2020-02-22T11:43:25Z</time>
      </trkpt>
      <trkpt lat="39.0639500" lon="1.3844510">
        <ele>218.6</ele>
        <time>2020-02-22T11:43:26Z</time>
      </trkpt>
      <trkpt lat="39.0639840" lon="1.3844170">
        <ele>218.3</ele>
        <time>2020-02-22T11:43:27Z</time>
      </trkpt>
      <trkpt lat="39.0640310" lon="1.3843740">
        <ele>217.8</ele>
        <time>2020-02-22T11:43:28Z</time>
      </trkpt>
      <trkpt lat="39.0640780" lon="1.3843470">
        <ele>217.5</ele>
        <time>2020-02-22T11:43:29Z</time>
      </trkpt>
      <trkpt lat="39.0641230" lon="1.3843400">
        <ele>217.2</ele>
        <time>2020-02-22T11:43:30Z</time>
      </trkpt>
      <trkpt lat="39.0641780" lon="1.3843540">
        <ele>216.9</ele>
        <time>2020-02-22T11:43:31Z</time>
      </trkpt>
      <trkpt lat="39.0642300" lon="1.3843600">
        <ele>216.7</ele>
        <time>2020-02-22T11:43:32Z</time>
      </trkpt>
      <trkpt lat="39.0642850" lon="1.3843630">
        <ele>216.4</ele>
        <time>2020-02-22T11:43:33Z</time>
      </trkpt>
      <trkpt lat="39.0643450" lon="1.3843700">
        <ele>216.1</ele>
        <time>2020-02-22T11:43:34Z</time>
      </trkpt>
      <trkpt lat="39.0643970" lon="1.3843800">
        <ele>215.8</ele>
        <time>2020-02-22T11:43:35Z</time>
      </trkpt>
      <trkpt lat="39.0644420" lon="1.3843940">
        <ele>215.5</ele>
        <time>2020-02-22T11:43:36Z</time>
      </trkpt>
      <trkpt lat="39.0644830" lon="1.3844110">
        <ele>215.3</ele>
        <time>2020-02-22T11:43:37Z</time>
      </trkpt>
      <trkpt lat="39.0645270" lon="1.3844230">
        <ele>215.0</ele>
        <time>2020-02-22T11:43:38Z</time>
      </trkpt>
      <trkpt lat="39.0645820" lon="1.3844260">
        <ele>214.7</ele>
        <time>2020-02-22T11:43:39Z</time>
      </trkpt>
      <trkpt lat="39.0646330" lon="1.3844340">
        <ele>214.4</ele>
        <time>2020-02-22T11:43:40Z</time>
      </trkpt>
      <trkpt lat="39.0646790" lon="1.3844530">
        <ele>214.0</ele>
        <time>2020-02-22T11:43:41Z</time>
      </trkpt>
      <trkpt lat="39.0647280" lon="1.3844570">
        <ele>213.7</ele>
        <time>2020-02-22T11:43:42Z</time>
      </trkpt>
      <trkpt lat="39.0647930" lon="1.3844640">
        <ele>213.1</ele>
        <time>2020-02-22T11:43:43Z</time>
      </trkpt>
      <trkpt lat="39.0648470" lon="1.3844810">
        <ele>212.7</ele>
        <time>2020-02-22T11:43:44Z</time>
      </trkpt>
      <trkpt lat="39.0648920" lon="1.3845000">
        <ele>212.3</ele>
        <time>2020-02-22T11:43:45Z</time>
      </trkpt>
      <trkpt lat="39.0649410" lon="1.3845100">
        <ele>211.8</ele>
        <time>2020-02-22T11:43:46Z</time>
      </trkpt>
      <trkpt lat="39.0649920" lon="1.3845260">
        <ele>211.4</ele>
        <time>2020-02-22T11:43:47Z</time>
      </trkpt>
      <trkpt lat="39.0650390" lon="1.3845410">
        <ele>211.0</ele>
        <time>2020-02-22T11:43:48Z</time>
      </trkpt>
      <trkpt lat="39.0650720" lon="1.3845270">
        <ele>210.7</ele>
        <time>2020-02-22T11:43:49Z</time>
      </trkpt>
      <trkpt lat="39.0651120" lon="1.3844930">
        <ele>210.4</ele>
        <time>2020-02-22T11:43:50Z</time>
      </trkpt>
      <trkpt lat="39.0651590" lon="1.3844390">
        <ele>210.1</ele>
        <time>2020-02-22T11:43:51Z</time>
      </trkpt>
      <trkpt lat="39.0651980" lon="1.3843670">
        <ele>209.8</ele>
        <time>2020-02-22T11:43:52Z</time>
      </trkpt>
      <trkpt lat="39.0652390" lon="1.3842920">
        <ele>209.6</ele>
        <time>2020-02-22T11:43:53Z</time>
      </trkpt>
      <trkpt lat="39.0652720" lon="1.3842210">
        <ele>209.5</ele>
        <time>2020-02-22T11:43:54Z</time>
      </trkpt>
      <trkpt lat="39.0653060" lon="1.3841510">
        <ele>209.7</ele>
        <time>2020-02-22T11:43:55Z</time>
      </trkpt>
      <trkpt lat="39.0653330" lon="1.3841020">
        <ele>209.9</ele>
        <time>2020-02-22T11:43:56Z</time>
      </trkpt>
      <trkpt lat="39.0653510" lon="1.3840670">
        <ele>210.0</ele>
        <time>2020-02-22T11:43:57Z</time>
      </trkpt>
      <trkpt lat="39.0653720" lon="1.3840350">
        <ele>210.2</ele>
        <time>2020-02-22T11:43:58Z</time>
      </trkpt>
      <trkpt lat="39.0653940" lon="1.3840020">
        <ele>210.4</ele>
        <time>2020-02-22T11:43:59Z</time>
      </trkpt>
      <trkpt lat="39.0654100" lon="1.3839670">
        <ele>210.5</ele>
        <time>2020-02-22T11:44:00Z</time>
      </trkpt>
      <trkpt lat="39.0654260" lon="1.3839200">
        <ele>210.8</ele>
        <time>2020-02-22T11:44:01Z</time>
      </trkpt>
      <trkpt lat="39.0654330" lon="1.3839030">
        <ele>210.9</ele>
        <time>2020-02-22T11:44:02Z</time>
      </trkpt>
      <trkpt lat="39.0654490" lon="1.3838680">
        <ele>211.2</ele>
        <time>2020-02-22T11:44:03Z</time>
      </trkpt>
      <trkpt lat="39.0654670" lon="1.3838420">
        <ele>211.5</ele>
        <time>2020-02-22T11:44:04Z</time>
      </trkpt>
      <trkpt lat="39.0654820" lon="1.3838120">
        <ele>211.7</ele>
        <time>2020-02-22T11:44:05Z</time>
      </trkpt>
      <trkpt lat="39.0654940" lon="1.3837670">
        <ele>212.1</ele>
        <time>2020-02-22T11:44:06Z</time>
      </trkpt>
      <trkpt lat="39.0654940" lon="1.3837470">
        <ele>212.3</ele>
        <time>2020-02-22T11:44:07Z</time>
      </trkpt>
      <trkpt lat="39.0655030" lon="1.3837080">
        <ele>212.5</ele>
        <time>2020-02-22T11:44:08Z</time>
      </trkpt>
      <trkpt lat="39.0655090" lon="1.3836970">
        <ele>212.6</ele>
        <time>2020-02-22T11:44:09Z</time>
      </trkpt>
      <trkpt lat="39.0655220" lon="1.3836570">
        <ele>212.9</ele>
        <time>2020-02-22T11:44:10Z</time>
      </trkpt>
      <trkpt lat="39.0655270" lon="1.3836470">
        <ele>213.0</ele>
        <time>2020-02-22T11:44:11Z</time>
      </trkpt>
      <trkpt lat="39.0655430" lon="1.3836180">
        <ele>213.2</ele>
        <time>2020-02-22T11:44:12Z</time>
      </trkpt>
      <trkpt lat="39.0655500" lon="1.3836070">
        <ele>213.3</ele>
        <time>2020-02-22T11:44:13Z</time>
      </trkpt>
      <trkpt lat="39.0655600" lon="1.3835840">
        <ele>213.5</ele>
        <time>2020-02-22T11:44:14Z</time>
      </trkpt>
      <trkpt lat="39.0655630" lon="1.3835660">
        <ele>213.6</ele>
        <time>2020-02-22T11:44:15Z</time>
      </trkpt>
      <trkpt lat="39.0655650" lon="1.3835640">
        <ele>213.6</ele>
        <time>2020-02-22T11:44:16Z</time>
      </trkpt>
      <trkpt lat="39.0655740" lon="1.3835590">
        <ele>213.7</ele>
        <time>2020-02-22T11:44:17Z</time>
      </trkpt>
      <trkpt lat="39.0655840" lon="1.3835670">
        <ele>213.8</ele>
        <time>2020-02-22T11:44:18Z</time>
      </trkpt>
      <trkpt lat="39.0655950" lon="1.3835660">
        <ele>213.9</ele>
        <time>2020-02-22T11:44:19Z</time>
      </trkpt>
      <trkpt lat="39.0656100" lon="1.3835690">
        <ele>214.0</ele>
        <time>2020-02-22T11:44:20Z</time>
      </trkpt>
      <trkpt lat="39.0656220" lon="1.3835780">
        <ele>214.0</ele>
        <time>2020-02-22T11:44:21Z</time>
      </trkpt>
      <trkpt lat="39.0656470" lon="1.3836010">
        <ele>214.1</ele>
        <time>2020-02-22T11:44:22Z</time>
      </trkpt>
      <trkpt lat="39.0656530" lon="1.3836100">
        <ele>214.1</ele>
        <time>2020-02-22T11:44:23Z</time>
      </trkpt>
      <trkpt lat="39.0656710" lon="1.3836220">
        <ele>214.2</ele>
        <time>2020-02-22T11:44:24Z</time>
      </trkpt>
      <trkpt lat="39.0656770" lon="1.3836320">
        <ele>214.2</ele>
        <time>2020-02-22T11:44:25Z</time>
      </trkpt>
      <trkpt lat="39.0656830" lon="1.3836410">
        <ele>214.2</ele>
        <time>2020-02-22T11:44:26Z</time>
      </trkpt>
      <trkpt lat="39.0656930" lon="1.3836560">
        <ele>214.3</ele>
        <time>2020-02-22T11:44:27Z</time>
      </trkpt>
      <trkpt lat="39.0657030" lon="1.3836710">
        <ele>214.3</ele>
        <time>2020-02-22T11:44:28Z</time>
      </trkpt>
      <trkpt lat="39.0657180" lon="1.3836860">
        <ele>214.3</ele>
        <time>2020-02-22T11:44:29Z</time>
      </trkpt>
      <trkpt lat="39.0657300" lon="1.3837010">
        <ele>214.3</ele>
        <time>2020-02-22T11:44:30Z</time>
      </trkpt>
      <trkpt lat="39.0657530" lon="1.3837260">
        <ele>214.4</ele>
        <time>2020-02-22T11:44:31Z</time>
      </trkpt>
      <trkpt lat="39.0657740" lon="1.3837590">
        <ele>214.4</ele>
        <time>2020-02-22T11:44:32Z</time>
      </trkpt>
      <trkpt lat="39.0658010" lon="1.3838020">
        <ele>214.3</ele>
        <time>2020-02-22T11:44:33Z</time>
      </trkpt>
      <trkpt lat="39.0658290" lon="1.3838360">
        <ele>214.3</ele>
        <time>2020-02-22T11:44:34Z</time>
      </trkpt>
      <trkpt lat="39.0658520" lon="1.3838670">
        <ele>214.3</ele>
        <time>2020-02-22T11:44:35Z</time>
      </trkpt>
      <trkpt lat="39.0658750" lon="1.3838980">
        <ele>214.2</ele>
        <time>2020-02-22T11:44:36Z</time>
      </trkpt>
      <trkpt lat="39.0659000" lon="1.3839380">
        <ele>214.2</ele>
        <time>2020-02-22T11:44:37Z</time>
      </trkpt>
      <trkpt lat="39.0659180" lon="1.3839820">
        <ele>214.1</ele>
        <time>2020-02-22T11:44:38Z</time>
      </trkpt>
      <trkpt lat="39.0659310" lon="1.3840150">
        <ele>214.0</ele>
        <time>2020-02-22T11:44:39Z</time>
      </trkpt>
      <trkpt lat="39.0659500" lon="1.3840550">
        <ele>214.0</ele>
        <time>2020-02-22T11:44:40Z</time>
      </trkpt>
      <trkpt lat="39.0659540" lon="1.3840670">
        <ele>214.0</ele>
        <time>2020-02-22T11:44:41Z</time>
      </trkpt>
      <trkpt lat="39.0659690" lon="1.3841050">
        <ele>213.8</ele>
        <time>2020-02-22T11:44:42Z</time>
      </trkpt>
      <trkpt lat="39.0659750" lon="1.3841180">
        <ele>213.8</ele>
        <time>2020-02-22T11:44:43Z</time>
      </trkpt>
      <trkpt lat="39.0659960" lon="1.3841600">
        <ele>213.6</ele>
        <time>2020-02-22T11:44:44Z</time>
      </trkpt>
      <trkpt lat="39.0660190" lon="1.3842010">
        <ele>213.5</ele>
        <time>2020-02-22T11:44:45Z</time>
      </trkpt>
      <trkpt lat="39.0660360" lon="1.3842530">
        <ele>213.3</ele>
        <time>2020-02-22T11:44:46Z</time>
      </trkpt>
      <trkpt lat="39.0660450" lon="1.3843000">
        <ele>213.2</ele>
        <time>2020-02-22T11:44:47Z</time>
      </trkpt>
      <trkpt lat="39.0660570" lon="1.3843460">
        <ele>213.0</ele>
        <time>2020-02-22T11:44:48Z</time>
      </trkpt>
      <trkpt lat="39.0660710" lon="1.3844110">
        <ele>212.8</ele>
        <time>2020-02-22T11:44:49Z</time>
      </trkpt>
      <trkpt lat="39.0660930" lon="1.3844780">
        <ele>212.6</ele>
        <time>2020-02-22T11:44:50Z</time>
      </trkpt>
      <trkpt lat="39.0661090" lon="1.3845600">
        <ele>212.3</ele>
        <time>2020-02-22T11:44:51Z</time>
      </trkpt>
      <trkpt lat="39.0661310" lon="1.3846310">
        <ele>212.1</ele>
        <time>2020-02-22T11:44:52Z</time>
      </trkpt>
      <trkpt lat="39.0661610" lon="1.3846890">
        <ele>212.1</ele>
        <time>2020-02-22T11:44:53Z</time>
      </trkpt>
      <trkpt lat="39.0662000" lon="1.3847560">
        <ele>212.0</ele>
        <time>2020-02-22T11:44:54Z</time>
      </trkpt>
      <trkpt lat="39.0662350" lon="1.3848090">
        <ele>212.1</ele>
        <time>2020-02-22T11:44:55Z</time>
      </trkpt>
      <trkpt lat="39.0662800" lon="1.3848410">
        <ele>212.2</ele>
        <time>2020-02-22T11:44:56Z</time>
      </trkpt>
      <trkpt lat="39.0663300" lon="1.3848510">
        <ele>212.3</ele>
        <time>2020-02-22T11:44:57Z</time>
      </trkpt>
      <trkpt lat="39.0663700" lon="1.3848620">
        <ele>212.5</ele>
        <time>2020-02-22T11:44:58Z</time>
      </trkpt>
      <trkpt lat="39.0664000" lon="1.3848770">
        <ele>212.7</ele>
        <time>2020-02-22T11:44:59Z</time>
      </trkpt>
      <trkpt lat="39.0664430" lon="1.3849160">
        <ele>213.0</ele>
        <time>2020-02-22T11:45:00Z</time>
      </trkpt>
      <trkpt lat="39.0664810" lon="1.3849540">
        <ele>213.3</ele>
        <time>2020-02-22T11:45:01Z</time>
      </trkpt>
      <trkpt lat="39.0665170" lon="1.3849870">
        <ele>213.7</ele>
        <time>2020-02-22T11:45:02Z</time>
      </trkpt>
      <trkpt lat="39.0665470" lon="1.3850150">
        <ele>214.0</ele>
        <time>2020-02-22T11:45:03Z</time>
      </trkpt>
      <trkpt lat="39.0665780" lon="1.3850450">
        <ele>214.3</ele>
        <time>2020-02-22T11:45:04Z</time>
      </trkpt>
      <trkpt lat="39.0665890" lon="1.3850570">
        <ele>214.5</ele>
        <time>2020-02-22T11:45:05Z</time>
      </trkpt>
      <trkpt lat="39.0666220" lon="1.3850760">
        <ele>214.7</ele>
        <time>2020-02-22T11:45:06Z</time>
      </trkpt>
      <trkpt lat="39.0666330" lon="1.3850770">
        <ele>214.8</ele>
        <time>2020-02-22T11:45:07Z</time>
      </trkpt>
      <trkpt lat="39.0666580" lon="1.3851030">
        <ele>215.1</ele>
        <time>2020-02-22T11:45:08Z</time>
      </trkpt>
      <trkpt lat="39.0666680" lon="1.3851150">
        <ele>215.2</ele>
        <time>2020-02-22T11:45:09Z</time>
      </trkpt>
      <trkpt lat="39.0666800" lon="1.3851290">
        <ele>215.3</ele>
        <time>2020-02-22T11:45:10Z</time>
      </trkpt>
      <trkpt lat="39.0666880" lon="1.3851460">
        <ele>215.4</ele>
        <time>2020-02-22T11:45:11Z</time>
      </trkpt>
      <trkpt lat="39.0667010" lon="1.3851660">
        <ele>215.6</ele>
        <time>2020-02-22T11:45:12Z</time>
      </trkpt>
      <trkpt lat="39.0667120" lon="1.3851760">
        <ele>215.7</ele>
        <time>2020-02-22T11:45:13Z</time>
      </trkpt>
      <trkpt lat="39.0667280" lon="1.3852070">
        <ele>215.9</ele>
        <time>2020-02-22T11:45:14Z</time>
      </trkpt>
      <trkpt lat="39.0667330" lon="1.3852200">
        <ele>215.9</ele>
        <time>2020-02-22T11:45:15Z</time>
      </trkpt>
      <trkpt lat="39.0667540" lon="1.3852530">
        <ele>216.2</ele>
        <time>2020-02-22T11:45:16Z</time>
      </trkpt>
      <trkpt lat="39.0667600" lon="1.3852640">
        <ele>216.3</ele>
        <time>2020-02-22T11:45:17Z</time>
      </trkpt>
      <trkpt lat="39.0667800" lon="1.3853020">
        <ele>216.6</ele>
        <time>2020-02-22T11:45:18Z</time>
      </trkpt>
      <trkpt lat="39.0667840" lon="1.3853130">
        <ele>216.7</ele>
        <time>2020-02-22T11:45:19Z</time>
      </trkpt>
      <trkpt lat="39.0668010" lon="1.3853430">
        <ele>216.9</ele>
        <time>2020-02-22T11:45:20Z</time>
      </trkpt>
      <trkpt lat="39.0668060" lon="1.3853550">
        <ele>217.0</ele>
        <time>2020-02-22T11:45:21Z</time>
      </trkpt>
      <trkpt lat="39.0668160" lon="1.3853730">
        <ele>217.1</ele>
        <time>2020-02-22T11:45:22Z</time>
      </trkpt>
      <trkpt lat="39.0668290" lon="1.3853920">
        <ele>217.3</ele>
        <time>2020-02-22T11:45:23Z</time>
      </trkpt>
      <trkpt lat="39.0668450" lon="1.3854050">
        <ele>217.4</ele>
        <time>2020-02-22T11:45:24Z</time>
      </trkpt>
      <trkpt lat="39.0668540" lon="1.3854230">
        <ele>217.6</ele>
        <time>2020-02-22T11:45:25Z</time>
      </trkpt>
      <trkpt lat="39.0668570" lon="1.3854520">
        <ele>217.7</ele>
        <time>2020-02-22T11:45:26Z</time>
      </trkpt>
      <trkpt lat="39.0668610" lon="1.3854600">
        <ele>217.8</ele>
        <time>2020-02-22T11:45:27Z</time>
      </trkpt>
      <trkpt lat="39.0668630" lon="1.3854630">
        <ele>217.8</ele>
        <time>2020-02-22T11:45:28Z</time>
      </trkpt>
      <trkpt lat="39.0668680" lon="1.3854770">
        <ele>217.8</ele>
        <time>2020-02-22T11:45:29Z</time>
      </trkpt>
      <trkpt lat="39.0668780" lon="1.3854920">
        <ele>218.0</ele>
        <time>2020-02-22T11:45:30Z</time>
      </trkpt>
      <trkpt lat="39.0668880" lon="1.3855070">
        <ele>218.1</ele>
        <time>2020-02-22T11:45:31Z</time>
      </trkpt>
      <trkpt lat="39.0668990" lon="1.3855150">
        <ele>218.2</ele>
        <time>2020-02-22T11:45:32Z</time>
      </trkpt>
      <trkpt lat="39.0669170" lon="1.3855290">
        <ele>218.4</ele>
        <time>2020-02-22T11:45:33Z</time>
      </trkpt>
      <trkpt lat="39.0669310" lon="1.3855370">
        <ele>218.5</ele>
        <time>2020-02-22T11:45:34Z</time>
      </trkpt>
      <trkpt lat="39.0669460" lon="1.3855580">
        <ele>218.7</ele>
        <time>2020-02-22T11:45:35Z</time>
      </trkpt>
      <trkpt lat="39.0669510" lon="1.3855660">
        <ele>218.8</ele>
        <time>2020-02-22T11:45:36Z</time>
      </trkpt>
      <trkpt lat="39.0669570" lon="1.3855740">
        <ele>218.9</ele>
        <time>2020-02-22T11:45:37Z</time>
      </trkpt>
      <trkpt lat="39.0669560" lon="1.3855880">
        <ele>218.9</ele>
        <time>2020-02-22T11:45:38Z</time>
      </trkpt>
      <trkpt lat="39.0669590" lon="1.3856030">
        <ele>219.0</ele>
        <time>2020-02-22T11:45:39Z</time>
      </trkpt>
      <trkpt lat="39.0669630" lon="1.3856120">
        <ele>219.1</ele>
        <time>2020-02-22T11:45:40Z</time>
      </trkpt>
      <trkpt lat="39.0669740" lon="1.3856260">
        <ele>219.2</ele>
        <time>2020-02-22T11:45:41Z</time>
      </trkpt>
      <trkpt lat="39.0669820" lon="1.3856440">
        <ele>219.4</ele>
        <time>2020-02-22T11:45:42Z</time>
      </trkpt>
      <trkpt lat="39.0669950" lon="1.3856500">
        <ele>219.5</ele>
        <time>2020-02-22T11:45:43Z</time>
      </trkpt>
      <trkpt lat="39.0670110" lon="1.3856510">
        <ele>219.6</ele>
        <time>2020-02-22T11:45:44Z</time>
      </trkpt>
      <trkpt lat="39.0670340" lon="1.3856590">
        <ele>219.8</ele>
        <time>2020-02-22T11:45:45Z</time>
      </trkpt>
      <trkpt lat="39.0670390" lon="1.3856660">
        <ele>219.8</ele>
        <time>2020-02-22T11:45:46Z</time>
      </trkpt>
      <trkpt lat="39.0670450" lon="1.3856720">
        <ele>219.9</ele>
        <time>2020-02-22T11:45:47Z</time>
      </trkpt>
      <trkpt lat="39.0670760" lon="1.3856770">
        <ele>220.2</ele>
        <time>2020-02-22T11:45:48Z</time>
      </trkpt>
      <trkpt lat="39.0670840" lon="1.3856820">
        <ele>220.3</ele>
        <time>2020-02-22T11:45:49Z</time>
      </trkpt>
      <trkpt lat="39.0671090" lon="1.3856860">
        <ele>220.6</ele>
        <time>2020-02-22T11:45:50Z</time>
      </trkpt>
      <trkpt lat="39.0671200" lon="1.3856920">
        <ele>220.6</ele>
        <time>2020-02-22T11:45:51Z</time>
      </trkpt>
      <trkpt lat="39.0671350" lon="1.3856910">
        <ele>220.7</ele>
        <time>2020-02-22T11:45:52Z</time>
      </trkpt>
      <trkpt lat="39.0671480" lon="1.3856890">
        <ele>220.8</ele>
        <time>2020-02-22T11:45:53Z</time>
      </trkpt>
      <trkpt lat="39.0671620" lon="1.3856920">
        <ele>221.0</ele>
        <time>2020-02-22T11:45:54Z</time>
      </trkpt>
      <trkpt lat="39.0671700" lon="1.3856960">
        <ele>221.1</ele>
        <time>2020-02-22T11:45:55Z</time>
      </trkpt>
      <trkpt lat="39.0671770" lon="1.3857010">
        <ele>221.1</ele>
        <time>2020-02-22T11:45:56Z</time>
      </trkpt>
      <trkpt lat="39.0671840" lon="1.3857050">
        <ele>221.2</ele>
        <time>2020-02-22T11:45:57Z</time>
      </trkpt>
      <trkpt lat="39.0671910" lon="1.3857080">
        <ele>221.3</ele>
        <time>2020-02-22T11:45:58Z</time>
      </trkpt>
      <trkpt lat="39.0671980" lon="1.3857110">
        <ele>221.3</ele>
        <time>2020-02-22T11:45:59Z</time>
      </trkpt>
      <trkpt lat="39.0672040" lon="1.3857150">
        <ele>221.4</ele>
        <time>2020-02-22T11:46:00Z</time>
      </trkpt>
      <trkpt lat="39.0672100" lon="1.3857180">
        <ele>221.5</ele>
        <time>2020-02-22T11:46:01Z</time>
      </trkpt>
      <trkpt lat="39.0672170" lon="1.3857220">
        <ele>221.5</ele>
        <time>2020-02-22T11:46:02Z</time>
      </trkpt>
      <trkpt lat="39.0672230" lon="1.3857260">
        <ele>221.6</ele>
        <time>2020-02-22T11:46:03Z</time>
      </trkpt>
      <trkpt lat="39.0672290" lon="1.3857290">
        <ele>221.6</ele>
        <time>2020-02-22T11:46:04Z</time>
      </trkpt>
      <trkpt lat="39.0672360" lon="1.3857330">
        <ele>221.6</ele>
        <time>2020-02-22T11:46:05Z</time>
      </trkpt>
      <trkpt lat="39.0672420" lon="1.3857360">
        <ele>221.7</ele>
        <time>2020-02-22T11:46:06Z</time>
      </trkpt>
      <trkpt lat="39.0672480" lon="1.3857400">
        <ele>221.7</ele>
        <time>2020-02-22T11:46:07Z</time>
      </trkpt>
      <trkpt lat="39.0672550" lon="1.3857440">
        <ele>221.7</ele>
        <time>2020-02-22T11:46:08Z</time>
      </trkpt>
      <trkpt lat="39.0672610" lon="1.3857470">
        <ele>221.8</ele>
        <time>2020-02-22T11:46:09Z</time>
      </trkpt>
      <trkpt lat="39.0672670" lon="1.3857510">
        <ele>221.8</ele>
        <time>2020-02-22T11:46:10Z</time>
      </trkpt>
      <trkpt lat="39.0672740" lon="1.3857540">
        <ele>221.8</ele>
        <time>2020-02-22T11:46:26Z</time>
      </trkpt>
      <trkpt lat="39.0672800" lon="1.3857580">
        <ele>221.9</ele>
        <time>2020-02-22T11:46:27Z</time>
      </trkpt>
      <trkpt lat="39.0673110" lon="1.3857710">
        <ele>222.0</ele>
        <time>2020-02-22T11:46:28Z</time>
      </trkpt>
      <trkpt lat="39.0673420" lon="1.3857850">
        <ele>222.2</ele>
        <time>2020-02-22T11:46:29Z</time>
      </trkpt>
      <trkpt lat="39.0673810" lon="1.3858060">
        <ele>222.2</ele>
        <time>2020-02-22T11:46:30Z</time>
      </trkpt>
      <trkpt lat="39.0674240" lon="1.3858390">
        <ele>222.3</ele>
        <time>2020-02-22T11:46:31Z</time>
      </trkpt>
      <trkpt lat="39.0674680" lon="1.3858550">
        <ele>222.1</ele>
        <time>2020-02-22T11:46:32Z</time>
      </trkpt>
      <trkpt lat="39.0675070" lon="1.3858770">
        <ele>222.0</ele>
        <time>2020-02-22T11:46:33Z</time>
      </trkpt>
      <trkpt lat="39.0675430" lon="1.3859000">
        <ele>221.9</ele>
        <time>2020-02-22T11:46:34Z</time>
      </trkpt>
      <trkpt lat="39.0675730" lon="1.3859430">
        <ele>221.6</ele>
        <time>2020-02-22T11:46:35Z</time>
      </trkpt>
      <trkpt lat="39.0676020" lon="1.3859960">
        <ele>221.2</ele>
        <time>2020-02-22T11:46:36Z</time>
      </trkpt>
      <trkpt lat="39.0676320" lon="1.3860340">
        <ele>220.9</ele>
        <time>2020-02-22T11:46:37Z</time>
      </trkpt>
      <trkpt lat="39.0676520" lon="1.3860620">
        <ele>220.6</ele>
        <time>2020-02-22T11:46:38Z</time>
      </trkpt>
      <trkpt lat="39.0676910" lon="1.3860780">
        <ele>220.3</ele>
        <time>2020-02-22T11:46:39Z</time>
      </trkpt>
      <trkpt lat="39.0677370" lon="1.3860710">
        <ele>219.8</ele>
        <time>2020-02-22T11:46:40Z</time>
      </trkpt>
      <trkpt lat="39.0677770" lon="1.3860460">
        <ele>219.4</ele>
        <time>2020-02-22T11:46:41Z</time>
      </trkpt>
      <trkpt lat="39.0678150" lon="1.3860260">
        <ele>218.9</ele>
        <time>2020-02-22T11:46:42Z</time>
      </trkpt>
      <trkpt lat="39.0678510" lon="1.3860050">
        <ele>218.5</ele>
        <time>2020-02-22T11:46:43Z</time>
      </trkpt>
      <trkpt lat="39.0678910" lon="1.3859790">
        <ele>218.2</ele>
        <time>2020-02-22T11:46:44Z</time>
      </trkpt>
      <trkpt lat="39.0679330" lon="1.3859480">
        <ele>217.8</ele>
        <time>2020-02-22T11:46:45Z</time>
      </trkpt>
      <trkpt lat="39.0679720" lon="1.3859180">
        <ele>217.4</ele>
        <time>2020-02-22T11:46:46Z</time>
      </trkpt>
      <trkpt lat="39.0680120" lon="1.3858880">
        <ele>217.2</ele>
        <time>2020-02-22T11:46:47Z</time>
      </trkpt>
      <trkpt lat="39.0680420" lon="1.3858690">
        <ele>217.0</ele>
        <time>2020-02-22T11:46:48Z</time>
      </trkpt>
      <trkpt lat="39.0680690" lon="1.3858490">
        <ele>216.9</ele>
        <time>2020-02-22T11:46:49Z</time>
      </trkpt>
      <trkpt lat="39.0680980" lon="1.3858270">
        <ele>216.9</ele>
        <time>2020-02-22T11:46:50Z</time>
      </trkpt>
      <trkpt lat="39.0681080" lon="1.3858180">
        <ele>216.9</ele>
        <time>2020-02-22T11:46:51Z</time>
      </trkpt>
      <trkpt lat="39.0681240" lon="1.3858050">
        <ele>217.0</ele>
        <time>2020-02-22T11:46:52Z</time>
      </trkpt>
      <trkpt lat="39.0681380" lon="1.3857940">
        <ele>217.0</ele>
        <time>2020-02-22T11:46:53Z</time>
      </trkpt>
      <trkpt lat="39.0681660" lon="1.3857780">
        <ele>217.0</ele>
        <time>2020-02-22T11:46:54Z</time>
      </trkpt>
      <trkpt lat="39.0681850" lon="1.3857640">
        <ele>217.2</ele>
        <time>2020-02-22T11:46:55Z</time>
      </trkpt>
      <trkpt lat="39.0681950" lon="1.3857560">
        <ele>217.2</ele>
        <time>2020-02-22T11:46:56Z</time>
      </trkpt>
      <trkpt lat="39.0682020" lon="1.3857480">
        <ele>217.3</ele>
        <time>2020-02-22T11:46:57Z</time>
      </trkpt>
      <trkpt lat="39.0682210" lon="1.3857410">
        <ele>217.4</ele>
        <time>2020-02-22T11:46:58Z</time>
      </trkpt>
      <trkpt lat="39.0682380" lon="1.3857340">
        <ele>217.5</ele>
        <time>2020-02-22T11:46:59Z</time>
      </trkpt>
      <trkpt lat="39.0682480" lon="1.3857280">
        <ele>217.6</ele>
        <time>2020-02-22T11:47:00Z</time>
      </trkpt>
      <trkpt lat="39.0682670" lon="1.3857180">
        <ele>217.7</ele>
        <time>2020-02-22T11:47:01Z</time>
      </trkpt>
      <trkpt lat="39.0682760" lon="1.3857170">
        <ele>217.7</ele>
        <time>2020-02-22T11:47:02Z</time>
      </trkpt>
      <trkpt lat="39.0682840" lon="1.3857160">
        <ele>217.8</ele>
        <time>2020-02-22T11:47:03Z</time>
      </trkpt>
      <trkpt lat="39.0683010" lon="1.3857080">
        <ele>218.0</ele>
        <time>2020-02-22T11:47:04Z</time>
      </trkpt>
      <trkpt lat="39.0683130" lon="1.3857060">
        <ele>218.1</ele>
        <time>2020-02-22T11:47:05Z</time>
      </trkpt>
      <trkpt lat="39.0683250" lon="1.3857030">
        <ele>218.2</ele>
        <time>2020-02-22T11:47:06Z</time>
      </trkpt>
      <trkpt lat="39.0683560" lon="1.3856990">
        <ele>218.5</ele>
        <time>2020-02-22T11:47:07Z</time>
      </trkpt>
      <trkpt lat="39.0683670" lon="1.3857010">
        <ele>218.6</ele>
        <time>2020-02-22T11:47:08Z</time>
      </trkpt>
      <trkpt lat="39.0683980" lon="1.3857000">
        <ele>218.9</ele>
        <time>2020-02-22T11:47:09Z</time>
      </trkpt>
      <trkpt lat="39.0684080" lon="1.3856980">
        <ele>219.0</ele>
        <time>2020-02-22T11:47:10Z</time>
      </trkpt>
      <trkpt lat="39.0684430" lon="1.3856850">
        <ele>219.5</ele>
        <time>2020-02-22T11:47:11Z</time>
      </trkpt>
      <trkpt lat="39.0684540" lon="1.3856790">
        <ele>219.6</ele>
        <time>2020-02-22T11:47:12Z</time>
      </trkpt>
      <trkpt lat="39.0684800" lon="1.3856680">
        <ele>219.9</ele>
        <time>2020-02-22T11:47:13Z</time>
      </trkpt>
      <trkpt lat="39.0685060" lon="1.3856550">
        <ele>220.1</ele>
        <time>2020-02-22T11:47:14Z</time>
      </trkpt>
      <trkpt lat="39.0685360" lon="1.3856480">
        <ele>220.2</ele>
        <time>2020-02-22T11:47:15Z</time>
      </trkpt>
      <trkpt lat="39.0685430" lon="1.3856470">
        <ele>220.3</ele>
        <time>2020-02-22T11:47:16Z</time>
      </trkpt>
      <trkpt lat="39.0685780" lon="1.3856450">
        <ele>220.5</ele>
        <time>2020-02-22T11:47:17Z</time>
      </trkpt>
      <trkpt lat="39.0685890" lon="1.3856470">
        <ele>220.6</ele>
        <time>2020-02-22T11:47:18Z</time>
      </trkpt>
      <trkpt lat="39.0686160" lon="1.3856470">
        <ele>220.7</ele>
        <time>2020-02-22T11:47:19Z</time>
      </trkpt>
      <trkpt lat="39.0686470" lon="1.3856640">
        <ele>220.9</ele>
        <time>2020-02-22T11:47:20Z</time>
      </trkpt>
      <trkpt lat="39.0686770" lon="1.3856750">
        <ele>221.1</ele>
        <time>2020-02-22T11:47:21Z</time>
      </trkpt>
      <trkpt lat="39.0687030" lon="1.3856890">
        <ele>221.3</ele>
        <time>2020-02-22T11:47:22Z</time>
      </trkpt>
      <trkpt lat="39.0687380" lon="1.3857040">
        <ele>221.5</ele>
        <time>2020-02-22T11:47:23Z</time>
      </trkpt>
      <trkpt lat="39.0687510" lon="1.3857110">
        <ele>221.6</ele>
        <time>2020-02-22T11:47:24Z</time>
      </trkpt>
      <trkpt lat="39.0687850" lon="1.3857330">
        <ele>221.8</ele>
        <time>2020-02-22T11:47:25Z</time>
      </trkpt>
      <trkpt lat="39.0687940" lon="1.3857430">
        <ele>221.9</ele>
        <time>2020-02-22T11:47:26Z</time>
      </trkpt>
      <trkpt lat="39.0688130" lon="1.3857630">
        <ele>222.0</ele>
        <time>2020-02-22T11:47:27Z</time>
      </trkpt>
      <trkpt lat="39.0688210" lon="1.3857690">
        <ele>222.1</ele>
        <time>2020-02-22T11:47:28Z</time>
      </trkpt>
      <trkpt lat="39.0688380" lon="1.3857770">
        <ele>222.2</ele>
        <time>2020-02-22T11:47:29Z</time>
      </trkpt>
      <trkpt lat="39.0688510" lon="1.3857880">
        <ele>222.3</ele>
        <time>2020-02-22T11:47:30Z</time>
      </trkpt>
      <trkpt lat="39.0688620" lon="1.3857900">
        <ele>222.3</ele>
        <time>2020-02-22T11:47:31Z</time>
      </trkpt>
      <trkpt lat="39.0688690" lon="1.3857960">
        <ele>222.4</ele>
        <time>2020-02-22T11:47:32Z</time>
      </trkpt>
      <trkpt lat="39.0688800" lon="1.3858060">
        <ele>222.5</ele>
        <time>2020-02-22T11:47:33Z</time>
      </trkpt>
      <trkpt lat="39.0688990" lon="1.3858210">
        <ele>222.6</ele>
        <time>2020-02-22T11:47:34Z</time>
      </trkpt>
      <trkpt lat="39.0689050" lon="1.3858280">
        <ele>222.6</ele>
        <time>2020-02-22T11:47:35Z</time>
      </trkpt>
      <trkpt lat="39.0689110" lon="1.3858360">
        <ele>222.7</ele>
        <time>2020-02-22T11:47:36Z</time>
      </trkpt>
      <trkpt lat="39.0689150" lon="1.3858470">
        <ele>222.7</ele>
        <time>2020-02-22T11:47:37Z</time>
      </trkpt>
      <trkpt lat="39.0689190" lon="1.3858540">
        <ele>222.8</ele>
        <time>2020-02-22T11:47:38Z</time>
      </trkpt>
      <trkpt lat="39.0689370" lon="1.3858580">
        <ele>222.9</ele>
        <time>2020-02-22T11:47:39Z</time>
      </trkpt>
      <trkpt lat="39.0689440" lon="1.3858520">
        <ele>222.9</ele>
        <time>2020-02-22T11:47:40Z</time>
      </trkpt>
      <trkpt lat="39.0689490" lon="1.3858450">
        <ele>223.0</ele>
        <time>2020-02-22T11:47:41Z</time>
      </trkpt>
      <trkpt lat="39.0689400" lon="1.3858390">
        <ele>223.0</ele>
        <time>2020-02-22T11:47:42Z</time>
      </trkpt>
      <trkpt lat="39.0689380" lon="1.3858370">
        <ele>223.1</ele>
        <time>2020-02-22T11:47:43Z</time>
      </trkpt>
      <trkpt lat="39.0689380" lon="1.3858360">
        <ele>223.1</ele>
        <time>2020-02-22T11:47:44Z</time>
      </trkpt>
      <trkpt lat="39.0689380" lon="1.3858360">
        <ele>223.1</ele>
        <time>2020-02-22T11:47:45Z</time>
      </trkpt>
      <trkpt lat="39.0689380" lon="1.3858370">
        <ele>223.1</ele>
        <time>2020-02-22T11:47:46Z</time>
      </trkpt>
      <trkpt lat="39.0689370" lon="1.3858380">
        <ele>223.1</ele>
        <time>2020-02-22T11:47:47Z</time>
      </trkpt>
      <trkpt lat="39.0689370" lon="1.3858380">
        <ele>223.1</ele>
        <time>2020-02-22T11:47:48Z</time>
      </trkpt>
      <trkpt lat="39.0689370" lon="1.3858380">
        <ele>223.1</ele>
        <time>2020-02-22T11:47:49Z</time>
      </trkpt>
      <trkpt lat="39.0689360" lon="1.3858380">
        <ele>223.1</ele>
        <time>2020-02-22T11:47:50Z</time>
      </trkpt>
      <trkpt lat="39.0689350" lon="1.3858370">
        <ele>223.1</ele>
        <time>2020-02-22T11:47:51Z</time>
      </trkpt>
      <trkpt lat="39.0690040" lon="1.3858340">
        <ele>223.5</ele>
        <time>2020-02-22T11:47:59Z</time>
      </trkpt>
      <trkpt lat="39.0690330" lon="1.3858360">
        <ele>223.6</ele>
        <time>2020-02-22T11:48:00Z</time>
      </trkpt>
      <trkpt lat="39.0690710" lon="1.3858310">
        <ele>223.8</ele>
        <time>2020-02-22T11:48:01Z</time>
      </trkpt>
      <trkpt lat="39.0690840" lon="1.3858300">
        <ele>223.9</ele>
        <time>2020-02-22T11:48:02Z</time>
      </trkpt>
      <trkpt lat="39.0691150" lon="1.3858310">
        <ele>224.1</ele>
        <time>2020-02-22T11:48:03Z</time>
      </trkpt>
      <trkpt lat="39.0691330" lon="1.3858360">
        <ele>224.2</ele>
        <time>2020-02-22T11:48:04Z</time>
      </trkpt>
      <trkpt lat="39.0691500" lon="1.3858380">
        <ele>224.4</ele>
        <time>2020-02-22T11:48:05Z</time>
      </trkpt>
      <trkpt lat="39.0691520" lon="1.3858300">
        <ele>224.4</ele>
        <time>2020-02-22T11:48:06Z</time>
      </trkpt>
      <trkpt lat="39.0691590" lon="1.3858280">
        <ele>224.4</ele>
        <time>2020-02-22T11:48:07Z</time>
      </trkpt>
      <trkpt lat="39.0691650" lon="1.3858260">
        <ele>224.5</ele>
        <time>2020-02-22T11:48:08Z</time>
      </trkpt>
      <trkpt lat="39.0691710" lon="1.3858240">
        <ele>224.5</ele>
        <time>2020-02-22T11:48:09Z</time>
      </trkpt>
      <trkpt lat="39.0691780" lon="1.3858220">
        <ele>224.6</ele>
        <time>2020-02-22T11:48:10Z</time>
      </trkpt>
      <trkpt lat="39.0691840" lon="1.3858200">
        <ele>224.6</ele>
        <time>2020-02-22T11:48:11Z</time>
      </trkpt>
      <trkpt lat="39.0691890" lon="1.3858080">
        <ele>224.7</ele>
        <time>2020-02-22T11:48:12Z</time>
      </trkpt>
      <trkpt lat="39.0691900" lon="1.3858060">
        <ele>224.7</ele>
        <time>2020-02-22T11:48:13Z</time>
      </trkpt>
      <trkpt lat="39.0692170" lon="1.3858030">
        <ele>224.9</ele>
        <time>2020-02-22T11:48:14Z</time>
      </trkpt>
      <trkpt lat="39.0692200" lon="1.3857990">
        <ele>225.0</ele>
        <time>2020-02-22T11:48:15Z</time>
      </trkpt>
      <trkpt lat="39.0692200" lon="1.3858030">
        <ele>225.0</ele>
        <time>2020-02-22T11:48:16Z</time>
      </trkpt>
      <trkpt lat="39.0692220" lon="1.3858030">
        <ele>225.0</ele>
        <time>2020-02-22T11:48:17Z</time>
      </trkpt>
      <trkpt lat="39.0692280" lon="1.3858020">
        <ele>225.0</ele>
        <time>2020-02-22T11:48:18Z</time>
      </trkpt>
      <trkpt lat="39.0692390" lon="1.3858180">
        <ele>225.2</ele>
        <time>2020-02-22T11:48:19Z</time>
      </trkpt>
      <trkpt lat="39.0692500" lon="1.3858220">
        <ele>225.3</ele>
        <time>2020-02-22T11:48:20Z</time>
      </trkpt>
      <trkpt lat="39.0692590" lon="1.3858280">
        <ele>225.3</ele>
        <time>2020-02-22T11:48:21Z</time>
      </trkpt>
      <trkpt lat="39.0692610" lon="1.3858320">
        <ele>225.4</ele>
        <time>2020-02-22T11:48:22Z</time>
      </trkpt>
      <trkpt lat="39.0692730" lon="1.3858390">
        <ele>225.5</ele>
        <time>2020-02-22T11:48:23Z</time>
      </trkpt>
      <trkpt lat="39.0692840" lon="1.3858310">
        <ele>225.6</ele>
        <time>2020-02-22T11:48:24Z</time>
      </trkpt>
      <trkpt lat="39.0692970" lon="1.3858320">
        <ele>225.8</ele>
        <time>2020-02-22T11:48:25Z</time>
      </trkpt>
      <trkpt lat="39.0692990" lon="1.3858330">
        <ele>225.8</ele>
        <time>2020-02-22T11:48:26Z</time>
      </trkpt>
      <trkpt lat="39.0693050" lon="1.3858400">
        <ele>225.9</ele>
        <time>2020-02-22T11:48:27Z</time>
      </trkpt>
      <trkpt lat="39.0693080" lon="1.3858320">
        <ele>225.9</ele>
        <time>2020-02-22T11:48:28Z</time>
      </trkpt>
      <trkpt lat="39.0693160" lon="1.3858320">
        <ele>226.0</ele>
        <time>2020-02-22T11:48:29Z</time>
      </trkpt>
      <trkpt lat="39.0693260" lon="1.3858280">
        <ele>226.1</ele>
        <time>2020-02-22T11:48:30Z</time>
      </trkpt>
      <trkpt lat="39.0693320" lon="1.3858260">
        <ele>226.2</ele>
        <time>2020-02-22T11:48:31Z</time>
      </trkpt>
      <trkpt lat="39.0693350" lon="1.3858250">
        <ele>226.2</ele>
        <time>2020-02-22T11:48:32Z</time>
      </trkpt>
      <trkpt lat="39.0693430" lon="1.3858220">
        <ele>226.3</ele>
        <time>2020-02-22T11:48:33Z</time>
      </trkpt>
      <trkpt lat="39.0693480" lon="1.3858270">
        <ele>226.4</ele>
        <time>2020-02-22T11:48:34Z</time>
      </trkpt>
      <trkpt lat="39.0693550" lon="1.3858320">
        <ele>226.5</ele>
        <time>2020-02-22T11:48:35Z</time>
      </trkpt>
      <trkpt lat="39.0693680" lon="1.3858410">
        <ele>226.6</ele>
        <time>2020-02-22T11:48:36Z</time>
      </trkpt>
      <trkpt lat="39.0693760" lon="1.3858450">
        <ele>226.8</ele>
        <time>2020-02-22T11:48:37Z</time>
      </trkpt>
      <trkpt lat="39.0693850" lon="1.3858470">
        <ele>226.9</ele>
        <time>2020-02-22T11:48:38Z</time>
      </trkpt>
      <trkpt lat="39.0693980" lon="1.3858480">
        <ele>227.0</ele>
        <time>2020-02-22T11:48:39Z</time>
      </trkpt>
      <trkpt lat="39.0694000" lon="1.3858390">
        <ele>227.1</ele>
        <time>2020-02-22T11:48:40Z</time>
      </trkpt>
      <trkpt lat="39.0694090" lon="1.3858330">
        <ele>227.3</ele>
        <time>2020-02-22T11:48:41Z</time>
      </trkpt>
      <trkpt lat="39.0694220" lon="1.3858360">
        <ele>227.4</ele>
        <time>2020-02-22T11:48:42Z</time>
      </trkpt>
      <trkpt lat="39.0694290" lon="1.3858400">
        <ele>227.5</ele>
        <time>2020-02-22T11:48:43Z</time>
      </trkpt>
      <trkpt lat="39.0694480" lon="1.3858300">
        <ele>227.8</ele>
        <time>2020-02-22T11:48:44Z</time>
      </trkpt>
      <trkpt lat="39.0694590" lon="1.3858180">
        <ele>228.0</ele>
        <time>2020-02-22T11:48:45Z</time>
      </trkpt>
      <trkpt lat="39.0694750" lon="1.3858230">
        <ele>228.2</ele>
        <time>2020-02-22T11:48:46Z</time>
      </trkpt>
      <trkpt lat="39.0694810" lon="1.3858120">
        <ele>228.4</ele>
        <time>2020-02-22T11:48:47Z</time>
      </trkpt>
      <trkpt lat="39.0694880" lon="1.3857950">
        <ele>228.6</ele>
        <time>2020-02-22T11:48:48Z</time>
      </trkpt>
      <trkpt lat="39.0694930" lon="1.3857820">
        <ele>228.7</ele>
        <time>2020-02-22T11:48:49Z</time>
      </trkpt>
      <trkpt lat="39.0694980" lon="1.3857660">
        <ele>228.9</ele>
        <time>2020-02-22T11:48:50Z</time>
      </trkpt>
      <trkpt lat="39.0695020" lon="1.3857510">
        <ele>229.1</ele>
        <time>2020-02-22T11:48:51Z</time>
      </trkpt>
      <trkpt lat="39.0695090" lon="1.3857440">
        <ele>229.2</ele>
        <time>2020-02-22T11:48:52Z</time>
      </trkpt>
      <trkpt lat="39.0695170" lon="1.3857320">
        <ele>229.4</ele>
        <time>2020-02-22T11:48:53Z</time>
      </trkpt>
      <trkpt lat="39.0695250" lon="1.3857220">
        <ele>229.6</ele>
        <time>2020-02-22T11:48:54Z</time>
      </trkpt>
      <trkpt lat="39.0695380" lon="1.3857140">
        <ele>229.8</ele>
        <time>2020-02-22T11:48:55Z</time>
      </trkpt>
      <trkpt lat="39.0695480" lon="1.3856980">
        <ele>230.0</ele>
        <time>2020-02-22T11:48:56Z</time>
      </trkpt>
      <trkpt lat="39.0695550" lon="1.3856900">
        <ele>230.2</ele>
        <time>2020-02-22T11:48:57Z</time>
      </trkpt>
      <trkpt lat="39.0695660" lon="1.3856890">
        <ele>230.3</ele>
        <time>2020-02-22T11:48:58Z</time>
      </trkpt>
      <trkpt lat="39.0695720" lon="1.3856780">
        <ele>230.5</ele>
        <time>2020-02-22T11:48:59Z</time>
      </trkpt>
      <trkpt lat="39.0695760" lon="1.3856770">
        <ele>230.6</ele>
        <time>2020-02-22T11:49:00Z</time>
      </trkpt>
      <trkpt lat="39.0695760" lon="1.3856670">
        <ele>230.7</ele>
        <time>2020-02-22T11:49:01Z</time>
      </trkpt>
      <trkpt lat="39.0695930" lon="1.3856480">
        <ele>231.0</ele>
        <time>2020-02-22T11:49:02Z</time>
      </trkpt>
      <trkpt lat="39.0696000" lon="1.3856320">
        <ele>231.2</ele>
        <time>2020-02-22T11:49:03Z</time>
      </trkpt>
      <trkpt lat="39.0696010" lon="1.3856100">
        <ele>231.5</ele>
        <time>2020-02-22T11:49:04Z</time>
      </trkpt>
      <trkpt lat="39.0696060" lon="1.3856070">
        <ele>231.6</ele>
        <time>2020-02-22T11:49:05Z</time>
      </trkpt>
      <trkpt lat="39.0696160" lon="1.3856040">
        <ele>231.7</ele>
        <time>2020-02-22T11:49:06Z</time>
      </trkpt>
      <trkpt lat="39.0696270" lon="1.3856050">
        <ele>231.9</ele>
        <time>2020-02-22T11:49:07Z</time>
      </trkpt>
      <trkpt lat="39.0696280" lon="1.3855940">
        <ele>232.0</ele>
        <time>2020-02-22T11:49:08Z</time>
      </trkpt>
      <trkpt lat="39.0696320" lon="1.3855880">
        <ele>232.1</ele>
        <time>2020-02-22T11:49:09Z</time>
      </trkpt>
      <trkpt lat="39.0696460" lon="1.3855820">
        <ele>232.3</ele>
        <time>2020-02-22T11:49:10Z</time>
      </trkpt>
      <trkpt lat="39.0696510" lon="1.3855830">
        <ele>232.4</ele>
        <time>2020-02-22T11:49:11Z</time>
      </trkpt>
      <trkpt lat="39.0696540" lon="1.3855810">
        <ele>232.5</ele>
        <time>2020-02-22T11:49:12Z</time>
      </trkpt>
      <trkpt lat="39.0696680" lon="1.3855820">
        <ele>232.7</ele>
        <time>2020-02-22T11:49:13Z</time>
      </trkpt>
      <trkpt lat="39.0696820" lon="1.3855860">
        <ele>232.9</ele>
        <time>2020-02-22T11:49:14Z</time>
      </trkpt>
      <trkpt lat="39.0696850" lon="1.3855670">
        <ele>233.2</ele>
        <time>2020-02-22T11:49:15Z</time>
      </trkpt>
      <trkpt lat="39.0696930" lon="1.3855650">
        <ele>233.3</ele>
        <time>2020-02-22T11:49:16Z</time>
      </trkpt>
      <trkpt lat="39.0697000" lon="1.3855660">
        <ele>233.4</ele>
        <time>2020-02-22T11:49:17Z</time>
      </trkpt>
      <trkpt lat="39.0697080" lon="1.3855740">
        <ele>233.6</ele>
        <time>2020-02-22T11:49:18Z</time>
      </trkpt>
      <trkpt lat="39.0697180" lon="1.3855740">
        <ele>233.7</ele>
        <time>2020-02-22T11:49:19Z</time>
      </trkpt>
      <trkpt lat="39.0697270" lon="1.3855760">
        <ele>233.9</ele>
        <time>2020-02-22T11:49:20Z</time>
      </trkpt>
      <trkpt lat="39.0697300" lon="1.3855780">
        <ele>233.9</ele>
        <time>2020-02-22T11:49:21Z</time>
      </trkpt>
      <trkpt lat="39.0697260" lon="1.3855640">
        <ele>234.1</ele>
        <time>2020-02-22T11:49:22Z</time>
      </trkpt>
      <trkpt lat="39.0697310" lon="1.3855670">
        <ele>234.2</ele>
        <time>2020-02-22T11:49:23Z</time>
      </trkpt>
      <trkpt lat="39.0697410" lon="1.3855650">
        <ele>234.4</ele>
        <time>2020-02-22T11:49:24Z</time>
      </trkpt>
      <trkpt lat="39.0697480" lon="1.3855610">
        <ele>234.5</ele>
        <time>2020-02-22T11:49:25Z</time>
      </trkpt>
      <trkpt lat="39.0697520" lon="1.3855580">
        <ele>234.5</ele>
        <time>2020-02-22T11:49:26Z</time>
      </trkpt>
      <trkpt lat="39.0697560" lon="1.3855480">
        <ele>234.6</ele>
        <time>2020-02-22T11:49:27Z</time>
      </trkpt>
      <trkpt lat="39.0697660" lon="1.3855400">
        <ele>234.8</ele>
        <time>2020-02-22T11:49:28Z</time>
      </trkpt>
      <trkpt lat="39.0697840" lon="1.3855300">
        <ele>235.0</ele>
        <time>2020-02-22T11:49:29Z</time>
      </trkpt>
      <trkpt lat="39.0697950" lon="1.3855240">
        <ele>235.2</ele>
        <time>2020-02-22T11:49:30Z</time>
      </trkpt>
      <trkpt lat="39.0698100" lon="1.3855060">
        <ele>235.4</ele>
        <time>2020-02-22T11:49:31Z</time>
      </trkpt>
      <trkpt lat="39.0698130" lon="1.3855030">
        <ele>235.5</ele>
        <time>2020-02-22T11:49:32Z</time>
      </trkpt>
      <trkpt lat="39.0698170" lon="1.3855000">
        <ele>235.5</ele>
        <time>2020-02-22T11:49:33Z</time>
      </trkpt>
      <trkpt lat="39.0698200" lon="1.3854970">
        <ele>235.6</ele>
        <time>2020-02-22T11:49:34Z</time>
      </trkpt>
      <trkpt lat="39.0698240" lon="1.3854940">
        <ele>235.6</ele>
        <time>2020-02-22T11:49:35Z</time>
      </trkpt>
      <trkpt lat="39.0698340" lon="1.3854870">
        <ele>235.7</ele>
        <time>2020-02-22T11:49:36Z</time>
      </trkpt>
      <trkpt lat="39.0698380" lon="1.3854840">
        <ele>235.8</ele>
        <time>2020-02-22T11:49:37Z</time>
      </trkpt>
      <trkpt lat="39.0698450" lon="1.3854880">
        <ele>235.8</ele>
        <time>2020-02-22T11:49:38Z</time>
      </trkpt>
      <trkpt lat="39.0698530" lon="1.3854760">
        <ele>235.9</ele>
        <time>2020-02-22T11:49:39Z</time>
      </trkpt>
      <trkpt lat="39.0698660" lon="1.3854690">
        <ele>236.1</ele>
        <time>2020-02-22T11:49:40Z</time>
      </trkpt>
      <trkpt lat="39.0698720" lon="1.3854670">
        <ele>236.1</ele>
        <time>2020-02-22T11:49:41Z</time>
      </trkpt>
      <trkpt lat="39.0698730" lon="1.3854800">
        <ele>236.1</ele>
        <time>2020-02-22T11:49:42Z</time>
      </trkpt>
      <trkpt lat="39.0698750" lon="1.3854790">
        <ele>236.1</ele>
        <time>2020-02-22T11:49:43Z</time>
      </trkpt>
      <trkpt lat="39.0698750" lon="1.3854800">
        <ele>236.1</ele>
        <time>2020-02-22T11:49:44Z</time>
      </trkpt>
      <trkpt lat="39.0698750" lon="1.3854810">
        <ele>236.1</ele>
        <time>2020-02-22T11:49:45Z</time>
      </trkpt>
      <trkpt lat="39.0698750" lon="1.3854820">
        <ele>236.1</ele>
        <time>2020-02-22T11:49:46Z</time>
      </trkpt>
      <trkpt lat="39.0698750" lon="1.3854820">
        <ele>236.1</ele>
        <time>2020-02-22T11:49:47Z</time>
      </trkpt>
      <trkpt lat="39.0698750" lon="1.3854820">
        <ele>236.1</ele>
        <time>2020-02-22T11:49:48Z</time>
      </trkpt>
      <trkpt lat="39.0698730" lon="1.3854900">
        <ele>236.1</ele>
        <time>2020-02-22T11:49:49Z</time>
      </trkpt>
      <trkpt lat="39.0698780" lon="1.3854860">
        <ele>236.1</ele>
        <time>2020-02-22T11:49:50Z</time>
      </trkpt>
      <trkpt lat="39.0698890" lon="1.3854780">
        <ele>236.0</ele>
        <time>2020-02-22T11:49:51Z</time>
      </trkpt>
      <trkpt lat="39.0698750" lon="1.3854430">
        <ele>235.9</ele>
        <time>2020-02-22T11:52:05Z</time>
      </trkpt>
      <trkpt lat="39.0698580" lon="1.3854430">
        <ele>235.8</ele>
        <time>2020-02-22T11:52:06Z</time>
      </trkpt>
      <trkpt lat="39.0698530" lon="1.3854380">
        <ele>235.7</ele>
        <time>2020-02-22T11:52:07Z</time>
      </trkpt>
      <trkpt lat="39.0698530" lon="1.3854280">
        <ele>235.6</ele>
        <time>2020-02-22T11:52:08Z</time>
      </trkpt>
      <trkpt lat="39.0698530" lon="1.3854220">
        <ele>235.6</ele>
        <time>2020-02-22T11:52:09Z</time>
      </trkpt>
      <trkpt lat="39.0698510" lon="1.3854130">
        <ele>235.5</ele>
        <time>2020-02-22T11:52:10Z</time>
      </trkpt>
      <trkpt lat="39.0698500" lon="1.3854010">
        <ele>233.2</ele>
        <time>2020-02-22T11:52:11Z</time>
      </trkpt>
      <trkpt lat="39.0698530" lon="1.3853670">
        <ele>232.4</ele>
        <time>2020-02-22T11:52:12Z</time>
      </trkpt>
      <trkpt lat="39.0698560" lon="1.3853560">
        <ele>232.1</ele>
        <time>2020-02-22T11:52:13Z</time>
      </trkpt>
      <trkpt lat="39.0698580" lon="1.3853460">
        <ele>231.8</ele>
        <time>2020-02-22T11:52:14Z</time>
      </trkpt>
      <trkpt lat="39.0698560" lon="1.3853170">
        <ele>231.0</ele>
        <time>2020-02-22T11:52:15Z</time>
      </trkpt>
      <trkpt lat="39.0698550" lon="1.3853090">
        <ele>230.8</ele>
        <time>2020-02-22T11:52:16Z</time>
      </trkpt>
      <trkpt lat="39.0698540" lon="1.3853000">
        <ele>230.6</ele>
        <time>2020-02-22T11:52:17Z</time>
      </trkpt>
      <trkpt lat="39.0698530" lon="1.3852920">
        <ele>230.4</ele>
        <time>2020-02-22T11:52:18Z</time>
      </trkpt>
      <trkpt lat="39.0698580" lon="1.3852680">
        <ele>229.8</ele>
        <time>2020-02-22T11:52:19Z</time>
      </trkpt>
      <trkpt lat="39.0698630" lon="1.3852480">
        <ele>229.3</ele>
        <time>2020-02-22T11:52:20Z</time>
      </trkpt>
      <trkpt lat="39.0698700" lon="1.3852070">
        <ele>228.4</ele>
        <time>2020-02-22T11:52:21Z</time>
      </trkpt>
      <trkpt lat="39.0698750" lon="1.3851960">
        <ele>228.1</ele>
        <time>2020-02-22T11:52:22Z</time>
      </trkpt>
      <trkpt lat="39.0698880" lon="1.3851860">
        <ele>227.7</ele>
        <time>2020-02-22T11:52:23Z</time>
      </trkpt>
      <trkpt lat="39.0698980" lon="1.3851840">
        <ele>227.4</ele>
        <time>2020-02-22T11:52:24Z</time>
      </trkpt>
      <trkpt lat="39.0699050" lon="1.3851840">
        <ele>227.2</ele>
        <time>2020-02-22T11:52:25Z</time>
      </trkpt>
      <trkpt lat="39.0699150" lon="1.3851840">
        <ele>226.9</ele>
        <time>2020-02-22T11:52:26Z</time>
      </trkpt>
      <trkpt lat="39.0699160" lon="1.3851880">
        <ele>226.8</ele>
        <time>2020-02-22T11:52:27Z</time>
      </trkpt>
      <trkpt lat="39.0699340" lon="1.3851910">
        <ele>226.3</ele>
        <time>2020-02-22T11:52:28Z</time>
      </trkpt>
      <trkpt lat="39.0699390" lon="1.3851930">
        <ele>226.1</ele>
        <time>2020-02-22T11:52:29Z</time>
      </trkpt>
      <trkpt lat="39.0699390" lon="1.3851960">
        <ele>226.1</ele>
        <time>2020-02-22T11:52:30Z</time>
      </trkpt>
      <trkpt lat="39.0699510" lon="1.3851780">
        <ele>225.7</ele>
        <time>2020-02-22T11:52:31Z</time>
      </trkpt>
      <trkpt lat="39.0699590" lon="1.3851690">
        <ele>225.9</ele>
        <time>2020-02-22T11:52:32Z</time>
      </trkpt>
      <trkpt lat="39.0699670" lon="1.3851560">
        <ele>226.1</ele>
        <time>2020-02-22T11:52:33Z</time>
      </trkpt>
      <trkpt lat="39.0699710" lon="1.3851550">
        <ele>226.2</ele>
        <time>2020-02-22T11:52:34Z</time>
      </trkpt>
      <trkpt lat="39.0699680" lon="1.3851660">
        <ele>226.4</ele>
        <time>2020-02-22T11:52:35Z</time>
      </trkpt>
      <trkpt lat="39.0699730" lon="1.3851690">
        <ele>226.5</ele>
        <time>2020-02-22T11:52:36Z</time>
      </trkpt>
      <trkpt lat="39.0699740" lon="1.3851730">
        <ele>226.6</ele>
        <time>2020-02-22T11:52:37Z</time>
      </trkpt>
      <trkpt lat="39.0699640" lon="1.3851650">
        <ele>226.8</ele>
        <time>2020-02-22T11:52:38Z</time>
      </trkpt>
      <trkpt lat="39.0699630" lon="1.3851660">
        <ele>226.8</ele>
        <time>2020-02-22T11:52:39Z</time>
      </trkpt>
      <trkpt lat="39.0699640" lon="1.3851650">
        <ele>226.9</ele>
        <time>2020-02-22T11:52:40Z</time>
      </trkpt>
      <trkpt lat="39.0699640" lon="1.3851650">
        <ele>226.9</ele>
        <time>2020-02-22T11:52:41Z</time>
      </trkpt>
      <trkpt lat="39.0699640" lon="1.3851650">
        <ele>226.9</ele>
        <time>2020-02-22T11:52:42Z</time>
      </trkpt>
      <trkpt lat="39.0699650" lon="1.3851650">
        <ele>226.9</ele>
        <time>2020-02-22T11:52:43Z</time>
      </trkpt>
      <trkpt lat="39.0699640" lon="1.3851630">
        <ele>226.9</ele>
        <time>2020-02-22T11:52:44Z</time>
      </trkpt>
      <trkpt lat="39.0699630" lon="1.3851620">
        <ele>226.9</ele>
        <time>2020-02-22T11:52:45Z</time>
      </trkpt>
      <trkpt lat="39.0699600" lon="1.3851850">
        <ele>227.3</ele>
        <time>2020-02-22T12:15:54Z</time>
      </trkpt>
      <trkpt lat="39.0699530" lon="1.3851770">
        <ele>227.5</ele>
        <time>2020-02-22T12:15:55Z</time>
      </trkpt>
      <trkpt lat="39.0699440" lon="1.3851730">
        <ele>227.7</ele>
        <time>2020-02-22T12:15:56Z</time>
      </trkpt>
      <trkpt lat="39.0699350" lon="1.3851760">
        <ele>227.9</ele>
        <time>2020-02-22T12:15:57Z</time>
      </trkpt>
      <trkpt lat="39.0699340" lon="1.3851760">
        <ele>227.9</ele>
        <time>2020-02-22T12:15:58Z</time>
      </trkpt>
      <trkpt lat="39.0699320" lon="1.3851770">
        <ele>227.9</ele>
        <time>2020-02-22T12:15:59Z</time>
      </trkpt>
      <trkpt lat="39.0699310" lon="1.3851770">
        <ele>227.9</ele>
        <time>2020-02-22T12:16:00Z</time>
      </trkpt>
      <trkpt lat="39.0699310" lon="1.3851780">
        <ele>228.0</ele>
        <time>2020-02-22T12:16:01Z</time>
      </trkpt>
      <trkpt lat="39.0699310" lon="1.3851790">
        <ele>228.0</ele>
        <time>2020-02-22T12:16:02Z</time>
      </trkpt>
      <trkpt lat="39.0699300" lon="1.3851790">
        <ele>228.0</ele>
        <time>2020-02-22T12:16:03Z</time>
      </trkpt>
      <trkpt lat="39.0699300" lon="1.3851810">
        <ele>228.0</ele>
        <time>2020-02-22T12:16:04Z</time>
      </trkpt>
      <trkpt lat="39.0699290" lon="1.3851810">
        <ele>228.0</ele>
        <time>2020-02-22T12:16:05Z</time>
      </trkpt>
      <trkpt lat="39.0699290" lon="1.3851820">
        <ele>228.1</ele>
        <time>2020-02-22T12:16:06Z</time>
      </trkpt>
      <trkpt lat="39.0698830" lon="1.3851910">
        <ele>229.0</ele>
        <time>2020-02-22T12:16:41Z</time>
      </trkpt>
      <trkpt lat="39.0698750" lon="1.3852060">
        <ele>229.3</ele>
        <time>2020-02-22T12:16:42Z</time>
      </trkpt>
      <trkpt lat="39.0698630" lon="1.3852260">
        <ele>229.7</ele>
        <time>2020-02-22T12:16:43Z</time>
      </trkpt>
      <trkpt lat="39.0698590" lon="1.3852340">
        <ele>229.8</ele>
        <time>2020-02-22T12:16:44Z</time>
      </trkpt>
      <trkpt lat="39.0698570" lon="1.3852480">
        <ele>230.1</ele>
        <time>2020-02-22T12:16:45Z</time>
      </trkpt>
      <trkpt lat="39.0698520" lon="1.3852570">
        <ele>230.3</ele>
        <time>2020-02-22T12:16:46Z</time>
      </trkpt>
      <trkpt lat="39.0698500" lon="1.3852650">
        <ele>230.4</ele>
        <time>2020-02-22T12:16:47Z</time>
      </trkpt>
      <trkpt lat="39.0698480" lon="1.3852740">
        <ele>230.6</ele>
        <time>2020-02-22T12:16:48Z</time>
      </trkpt>
      <trkpt lat="39.0698480" lon="1.3852840">
        <ele>230.8</ele>
        <time>2020-02-22T12:16:49Z</time>
      </trkpt>
      <trkpt lat="39.0698450" lon="1.3852950">
        <ele>231.0</ele>
        <time>2020-02-22T12:16:50Z</time>
      </trkpt>
      <trkpt lat="39.0698400" lon="1.3852980">
        <ele>231.1</ele>
        <time>2020-02-22T12:16:51Z</time>
      </trkpt>
      <trkpt lat="39.0698370" lon="1.3852980">
        <ele>231.2</ele>
        <time>2020-02-22T12:16:52Z</time>
      </trkpt>
      <trkpt lat="39.0698310" lon="1.3853090">
        <ele>231.4</ele>
        <time>2020-02-22T12:16:53Z</time>
      </trkpt>
      <trkpt lat="39.0698240" lon="1.3853150">
        <ele>231.6</ele>
        <time>2020-02-22T12:16:54Z</time>
      </trkpt>
      <trkpt lat="39.0698230" lon="1.3853230">
        <ele>231.8</ele>
        <time>2020-02-22T12:16:55Z</time>
      </trkpt>
      <trkpt lat="39.0698260" lon="1.3853250">
        <ele>231.8</ele>
        <time>2020-02-22T12:16:56Z</time>
      </trkpt>
      <trkpt lat="39.0698230" lon="1.3853310">
        <ele>232.0</ele>
        <time>2020-02-22T12:16:57Z</time>
      </trkpt>
      <trkpt lat="39.0698200" lon="1.3853430">
        <ele>232.2</ele>
        <time>2020-02-22T12:16:58Z</time>
      </trkpt>
      <trkpt lat="39.0698180" lon="1.3853500">
        <ele>232.3</ele>
        <time>2020-02-22T12:16:59Z</time>
      </trkpt>
      <trkpt lat="39.0698170" lon="1.3853550">
        <ele>232.4</ele>
        <time>2020-02-22T12:17:00Z</time>
      </trkpt>
      <trkpt lat="39.0698180" lon="1.3853630">
        <ele>232.6</ele>
        <time>2020-02-22T12:17:01Z</time>
      </trkpt>
      <trkpt lat="39.0698160" lon="1.3853760">
        <ele>232.8</ele>
        <time>2020-02-22T12:17:02Z</time>
      </trkpt>
      <trkpt lat="39.0698150" lon="1.3853870">
        <ele>233.0</ele>
        <time>2020-02-22T12:17:03Z</time>
      </trkpt>
      <trkpt lat="39.0698200" lon="1.3854020">
        <ele>233.3</ele>
        <time>2020-02-22T12:17:04Z</time>
      </trkpt>
      <trkpt lat="39.0698260" lon="1.3854100">
        <ele>233.5</ele>
        <time>2020-02-22T12:17:05Z</time>
      </trkpt>
      <trkpt lat="39.0698310" lon="1.3854270">
        <ele>235.4</ele>
        <time>2020-02-22T12:17:06Z</time>
      </trkpt>
      <trkpt lat="39.0698380" lon="1.3854380">
        <ele>235.5</ele>
        <time>2020-02-22T12:17:07Z</time>
      </trkpt>
      <trkpt lat="39.0698430" lon="1.3854420">
        <ele>235.6</ele>
        <time>2020-02-22T12:17:08Z</time>
      </trkpt>
      <trkpt lat="39.0698470" lon="1.3854460">
        <ele>235.7</ele>
        <time>2020-02-22T12:17:09Z</time>
      </trkpt>
      <trkpt lat="39.0698510" lon="1.3854510">
        <ele>235.8</ele>
        <time>2020-02-22T12:17:10Z</time>
      </trkpt>
      <trkpt lat="39.0698560" lon="1.3854550">
        <ele>235.8</ele>
        <time>2020-02-22T12:17:11Z</time>
      </trkpt>
      <trkpt lat="39.0698600" lon="1.3854590">
        <ele>235.9</ele>
        <time>2020-02-22T12:17:12Z</time>
      </trkpt>
      <trkpt lat="39.0698710" lon="1.3854740">
        <ele>236.2</ele>
        <time>2020-02-22T12:17:13Z</time>
      </trkpt>
      <trkpt lat="39.0698810" lon="1.3854790">
        <ele>236.3</ele>
        <time>2020-02-22T12:17:14Z</time>
      </trkpt>
      <trkpt lat="39.0698870" lon="1.3854820">
        <ele>236.4</ele>
        <time>2020-02-22T12:17:15Z</time>
      </trkpt>
      <trkpt lat="39.0698820" lon="1.3854860">
        <ele>236.5</ele>
        <time>2020-02-22T12:17:16Z</time>
      </trkpt>
      <trkpt lat="39.0698830" lon="1.3854860">
        <ele>236.5</ele>
        <time>2020-02-22T12:17:17Z</time>
      </trkpt>
      <trkpt lat="39.0698820" lon="1.3854870">
        <ele>236.5</ele>
        <time>2020-02-22T12:17:18Z</time>
      </trkpt>
      <trkpt lat="39.0698820" lon="1.3854870">
        <ele>236.5</ele>
        <time>2020-02-22T12:17:19Z</time>
      </trkpt>
      <trkpt lat="39.0698820" lon="1.3854880">
        <ele>236.5</ele>
        <time>2020-02-22T12:17:20Z</time>
      </trkpt>
      <trkpt lat="39.0698820" lon="1.3854880">
        <ele>236.5</ele>
        <time>2020-02-22T12:17:21Z</time>
      </trkpt>
      <trkpt lat="39.0699030" lon="1.3854760">
        <ele>236.9</ele>
        <time>2020-02-22T12:17:22Z</time>
      </trkpt>
      <trkpt lat="39.0699050" lon="1.3854830">
        <ele>237.0</ele>
        <time>2020-02-22T12:17:23Z</time>
      </trkpt>
      <trkpt lat="39.0699100" lon="1.3854860">
        <ele>237.1</ele>
        <time>2020-02-22T12:17:24Z</time>
      </trkpt>
      <trkpt lat="39.0699120" lon="1.3854870">
        <ele>237.1</ele>
        <time>2020-02-22T12:17:25Z</time>
      </trkpt>
      <trkpt lat="39.0699120" lon="1.3854870">
        <ele>237.1</ele>
        <time>2020-02-22T12:17:26Z</time>
      </trkpt>
      <trkpt lat="39.0699090" lon="1.3855260">
        <ele>237.5</ele>
        <time>2020-02-22T12:17:34Z</time>
      </trkpt>
      <trkpt lat="39.0699110" lon="1.3855360">
        <ele>237.7</ele>
        <time>2020-02-22T12:17:35Z</time>
      </trkpt>
      <trkpt lat="39.0699080" lon="1.3855560">
        <ele>237.9</ele>
        <time>2020-02-22T12:17:36Z</time>
      </trkpt>
      <trkpt lat="39.0699020" lon="1.3855730">
        <ele>238.1</ele>
        <time>2020-02-22T12:17:37Z</time>
      </trkpt>
      <trkpt lat="39.0699000" lon="1.3855670">
        <ele>238.2</ele>
        <time>2020-02-22T12:17:38Z</time>
      </trkpt>
      <trkpt lat="39.0698970" lon="1.3855790">
        <ele>238.3</ele>
        <time>2020-02-22T12:17:39Z</time>
      </trkpt>
      <trkpt lat="39.0698970" lon="1.3855940">
        <ele>238.5</ele>
        <time>2020-02-22T12:17:40Z</time>
      </trkpt>
      <trkpt lat="39.0698980" lon="1.3856230">
        <ele>238.6</ele>
        <time>2020-02-22T12:17:41Z</time>
      </trkpt>
      <trkpt lat="39.0698930" lon="1.3856380">
        <ele>238.7</ele>
        <time>2020-02-22T12:17:42Z</time>
      </trkpt>
      <trkpt lat="39.0698910" lon="1.3856550">
        <ele>238.7</ele>
        <time>2020-02-22T12:17:43Z</time>
      </trkpt>
      <trkpt lat="39.0698850" lon="1.3856700">
        <ele>238.8</ele>
        <time>2020-02-22T12:17:44Z</time>
      </trkpt>
      <trkpt lat="39.0698760" lon="1.3856790">
        <ele>238.8</ele>
        <time>2020-02-22T12:17:45Z</time>
      </trkpt>
      <trkpt lat="39.0698710" lon="1.3856930">
        <ele>238.8</ele>
        <time>2020-02-22T12:17:46Z</time>
      </trkpt>
      <trkpt lat="39.0698710" lon="1.3856970">
        <ele>238.8</ele>
        <time>2020-02-22T12:17:47Z</time>
      </trkpt>
      <trkpt lat="39.0698710" lon="1.3857040">
        <ele>238.9</ele>
        <time>2020-02-22T12:17:48Z</time>
      </trkpt>
      <trkpt lat="39.0698670" lon="1.3857150">
        <ele>238.9</ele>
        <time>2020-02-22T12:17:49Z</time>
      </trkpt>
      <trkpt lat="39.0698700" lon="1.3857280">
        <ele>238.9</ele>
        <time>2020-02-22T12:17:50Z</time>
      </trkpt>
      <trkpt lat="39.0698590" lon="1.3857410">
        <ele>239.0</ele>
        <time>2020-02-22T12:17:51Z</time>
      </trkpt>
      <trkpt lat="39.0698530" lon="1.3857570">
        <ele>239.0</ele>
        <time>2020-02-22T12:17:52Z</time>
      </trkpt>
      <trkpt lat="39.0698480" lon="1.3857640">
        <ele>239.0</ele>
        <time>2020-02-22T12:17:53Z</time>
      </trkpt>
      <trkpt lat="39.0698510" lon="1.3857800">
        <ele>239.1</ele>
        <time>2020-02-22T12:17:54Z</time>
      </trkpt>
      <trkpt lat="39.0698540" lon="1.3857880">
        <ele>239.1</ele>
        <time>2020-02-22T12:17:55Z</time>
      </trkpt>
      <trkpt lat="39.0698620" lon="1.3857980">
        <ele>239.1</ele>
        <time>2020-02-22T12:17:56Z</time>
      </trkpt>
      <trkpt lat="39.0698650" lon="1.3858110">
        <ele>239.2</ele>
        <time>2020-02-22T12:17:57Z</time>
      </trkpt>
      <trkpt lat="39.0698680" lon="1.3858210">
        <ele>239.2</ele>
        <time>2020-02-22T12:17:58Z</time>
      </trkpt>
      <trkpt lat="39.0698680" lon="1.3858370">
        <ele>239.2</ele>
        <time>2020-02-22T12:17:59Z</time>
      </trkpt>
      <trkpt lat="39.0698660" lon="1.3858730">
        <ele>239.3</ele>
        <time>2020-02-22T12:18:00Z</time>
      </trkpt>
      <trkpt lat="39.0698660" lon="1.3858840">
        <ele>239.4</ele>
        <time>2020-02-22T12:18:01Z</time>
      </trkpt>
      <trkpt lat="39.0698700" lon="1.3859010">
        <ele>239.4</ele>
        <time>2020-02-22T12:18:02Z</time>
      </trkpt>
      <trkpt lat="39.0698730" lon="1.3859190">
        <ele>239.5</ele>
        <time>2020-02-22T12:18:03Z</time>
      </trkpt>
      <trkpt lat="39.0698680" lon="1.3859420">
        <ele>239.5</ele>
        <time>2020-02-22T12:18:04Z</time>
      </trkpt>
      <trkpt lat="39.0698640" lon="1.3859530">
        <ele>239.5</ele>
        <time>2020-02-22T12:18:05Z</time>
      </trkpt>
      <trkpt lat="39.0698630" lon="1.3859650">
        <ele>239.6</ele>
        <time>2020-02-22T12:18:06Z</time>
      </trkpt>
      <trkpt lat="39.0698610" lon="1.3859780">
        <ele>239.6</ele>
        <time>2020-02-22T12:18:07Z</time>
      </trkpt>
      <trkpt lat="39.0698620" lon="1.3859950">
        <ele>239.6</ele>
        <time>2020-02-22T12:18:08Z</time>
      </trkpt>
      <trkpt lat="39.0698610" lon="1.3860210">
        <ele>239.7</ele>
        <time>2020-02-22T12:18:09Z</time>
      </trkpt>
      <trkpt lat="39.0698590" lon="1.3860320">
        <ele>239.7</ele>
        <time>2020-02-22T12:18:10Z</time>
      </trkpt>
      <trkpt lat="39.0698570" lon="1.3860440">
        <ele>239.8</ele>
        <time>2020-02-22T12:18:11Z</time>
      </trkpt>
      <trkpt lat="39.0698630" lon="1.3860500">
        <ele>239.8</ele>
        <time>2020-02-22T12:18:12Z</time>
      </trkpt>
      <trkpt lat="39.0698630" lon="1.3860610">
        <ele>239.8</ele>
        <time>2020-02-22T12:18:13Z</time>
      </trkpt>
      <trkpt lat="39.0698540" lon="1.3860560">
        <ele>239.9</ele>
        <time>2020-02-22T12:18:14Z</time>
      </trkpt>
      <trkpt lat="39.0698440" lon="1.3860550">
        <ele>240.0</ele>
        <time>2020-02-22T12:18:15Z</time>
      </trkpt>
      <trkpt lat="39.0698480" lon="1.3860570">
        <ele>240.0</ele>
        <time>2020-02-22T12:18:16Z</time>
      </trkpt>
      <trkpt lat="39.0698510" lon="1.3860530">
        <ele>240.1</ele>
        <time>2020-02-22T12:18:17Z</time>
      </trkpt>
      <trkpt lat="39.0698510" lon="1.3860670">
        <ele>240.2</ele>
        <time>2020-02-22T12:18:18Z</time>
      </trkpt>
      <trkpt lat="39.0698440" lon="1.3860820">
        <ele>240.3</ele>
        <time>2020-02-22T12:18:19Z</time>
      </trkpt>
      <trkpt lat="39.0698370" lon="1.3861010">
        <ele>240.4</ele>
        <time>2020-02-22T12:18:20Z</time>
      </trkpt>
      <trkpt lat="39.0698350" lon="1.3861080">
        <ele>240.4</ele>
        <time>2020-02-22T12:18:21Z</time>
      </trkpt>
      <trkpt lat="39.0698340" lon="1.3861130">
        <ele>240.5</ele>
        <time>2020-02-22T12:18:22Z</time>
      </trkpt>
      <trkpt lat="39.0698300" lon="1.3861130">
        <ele>240.5</ele>
        <time>2020-02-22T12:18:23Z</time>
      </trkpt>
      <trkpt lat="39.0698200" lon="1.3861170">
        <ele>240.6</ele>
        <time>2020-02-22T12:18:24Z</time>
      </trkpt>
      <trkpt lat="39.0698130" lon="1.3861300">
        <ele>240.7</ele>
        <time>2020-02-22T12:18:25Z</time>
      </trkpt>
      <trkpt lat="39.0698100" lon="1.3861380">
        <ele>240.7</ele>
        <time>2020-02-22T12:18:26Z</time>
      </trkpt>
      <trkpt lat="39.0698040" lon="1.3861440">
        <ele>240.8</ele>
        <time>2020-02-22T12:18:27Z</time>
      </trkpt>
      <trkpt lat="39.0698020" lon="1.3861450">
        <ele>240.8</ele>
        <time>2020-02-22T12:18:28Z</time>
      </trkpt>
      <trkpt lat="39.0697950" lon="1.3861460">
        <ele>240.9</ele>
        <time>2020-02-22T12:18:29Z</time>
      </trkpt>
      <trkpt lat="39.0697740" lon="1.3861630">
        <ele>241.0</ele>
        <time>2020-02-22T12:18:30Z</time>
      </trkpt>
      <trkpt lat="39.0697670" lon="1.3861670">
        <ele>241.1</ele>
        <time>2020-02-22T12:18:31Z</time>
      </trkpt>
      <trkpt lat="39.0697720" lon="1.3861720">
        <ele>241.2</ele>
        <time>2020-02-22T12:18:32Z</time>
      </trkpt>
      <trkpt lat="39.0697620" lon="1.3861730">
        <ele>241.3</ele>
        <time>2020-02-22T12:18:33Z</time>
      </trkpt>
      <trkpt lat="39.0697500" lon="1.3861890">
        <ele>241.4</ele>
        <time>2020-02-22T12:18:34Z</time>
      </trkpt>
      <trkpt lat="39.0697410" lon="1.3861920">
        <ele>241.5</ele>
        <time>2020-02-22T12:18:35Z</time>
      </trkpt>
      <trkpt lat="39.0697320" lon="1.3861920">
        <ele>241.6</ele>
        <time>2020-02-22T12:18:36Z</time>
      </trkpt>
      <trkpt lat="39.0697250" lon="1.3862080">
        <ele>241.8</ele>
        <time>2020-02-22T12:18:37Z</time>
      </trkpt>
      <trkpt lat="39.0697240" lon="1.3862210">
        <ele>241.9</ele>
        <time>2020-02-22T12:18:38Z</time>
      </trkpt>
      <trkpt lat="39.0697250" lon="1.3862340">
        <ele>242.0</ele>
        <time>2020-02-22T12:18:39Z</time>
      </trkpt>
      <trkpt lat="39.0697250" lon="1.3862430">
        <ele>242.1</ele>
        <time>2020-02-22T12:18:40Z</time>
      </trkpt>
      <trkpt lat="39.0697210" lon="1.3862530">
        <ele>242.2</ele>
        <time>2020-02-22T12:18:41Z</time>
      </trkpt>
      <trkpt lat="39.0697110" lon="1.3862560">
        <ele>242.4</ele>
        <time>2020-02-22T12:18:42Z</time>
      </trkpt>
      <trkpt lat="39.0697050" lon="1.3862740">
        <ele>242.6</ele>
        <time>2020-02-22T12:18:43Z</time>
      </trkpt>
      <trkpt lat="39.0696950" lon="1.3862870">
        <ele>242.9</ele>
        <time>2020-02-22T12:18:44Z</time>
      </trkpt>
      <trkpt lat="39.0696920" lon="1.3862960">
        <ele>243.0</ele>
        <time>2020-02-22T12:18:45Z</time>
      </trkpt>
      <trkpt lat="39.0696870" lon="1.3863130">
        <ele>243.3</ele>
        <time>2020-02-22T12:18:46Z</time>
      </trkpt>
      <trkpt lat="39.0696720" lon="1.3863310">
        <ele>243.6</ele>
        <time>2020-02-22T12:18:47Z</time>
      </trkpt>
      <trkpt lat="39.0696610" lon="1.3863410">
        <ele>243.9</ele>
        <time>2020-02-22T12:18:48Z</time>
      </trkpt>
      <trkpt lat="39.0696480" lon="1.3863560">
        <ele>244.2</ele>
        <time>2020-02-22T12:18:49Z</time>
      </trkpt>
      <trkpt lat="39.0696440" lon="1.3863600">
        <ele>244.3</ele>
        <time>2020-02-22T12:18:50Z</time>
      </trkpt>
      <trkpt lat="39.0696390" lon="1.3863630">
        <ele>244.4</ele>
        <time>2020-02-22T12:18:51Z</time>
      </trkpt>
      <trkpt lat="39.0696350" lon="1.3863670">
        <ele>244.4</ele>
        <time>2020-02-22T12:18:52Z</time>
      </trkpt>
      <trkpt lat="39.0696300" lon="1.3863710">
        <ele>244.5</ele>
        <time>2020-02-22T12:18:53Z</time>
      </trkpt>
      <trkpt lat="39.0696250" lon="1.3863760">
        <ele>244.6</ele>
        <time>2020-02-22T12:18:54Z</time>
      </trkpt>
      <trkpt lat="39.0696230" lon="1.3863800">
        <ele>244.7</ele>
        <time>2020-02-22T12:18:55Z</time>
      </trkpt>
      <trkpt lat="39.0696250" lon="1.3863810">
        <ele>244.7</ele>
        <time>2020-02-22T12:18:56Z</time>
      </trkpt>
      <trkpt lat="39.0696220" lon="1.3863820">
        <ele>244.7</ele>
        <time>2020-02-22T12:18:57Z</time>
      </trkpt>
      <trkpt lat="39.0696140" lon="1.3863870">
        <ele>244.8</ele>
        <time>2020-02-22T12:18:58Z</time>
      </trkpt>
      <trkpt lat="39.0696080" lon="1.3863870">
        <ele>244.9</ele>
        <time>2020-02-22T12:18:59Z</time>
      </trkpt>
      <trkpt lat="39.0695990" lon="1.3863880">
        <ele>245.1</ele>
        <time>2020-02-22T12:19:00Z</time>
      </trkpt>
      <trkpt lat="39.0695860" lon="1.3863930">
        <ele>245.2</ele>
        <time>2020-02-22T12:19:01Z</time>
      </trkpt>
      <trkpt lat="39.0695780" lon="1.3864000">
        <ele>245.4</ele>
        <time>2020-02-22T12:19:02Z</time>
      </trkpt>
      <trkpt lat="39.0695740" lon="1.3864030">
        <ele>245.4</ele>
        <time>2020-02-22T12:19:03Z</time>
      </trkpt>
      <trkpt lat="39.0695720" lon="1.3864080">
        <ele>245.5</ele>
        <time>2020-02-22T12:19:04Z</time>
      </trkpt>
      <trkpt lat="39.0695730" lon="1.3864100">
        <ele>245.5</ele>
        <time>2020-02-22T12:19:05Z</time>
      </trkpt>
      <trkpt lat="39.0695690" lon="1.3864140">
        <ele>245.6</ele>
        <time>2020-02-22T12:19:06Z</time>
      </trkpt>
      <trkpt lat="39.0695650" lon="1.3864160">
        <ele>245.6</ele>
        <time>2020-02-22T12:19:07Z</time>
      </trkpt>
      <trkpt lat="39.0695600" lon="1.3864160">
        <ele>245.7</ele>
        <time>2020-02-22T12:19:08Z</time>
      </trkpt>
      <trkpt lat="39.0695530" lon="1.3864260">
        <ele>245.9</ele>
        <time>2020-02-22T12:19:09Z</time>
      </trkpt>
      <trkpt lat="39.0695490" lon="1.3864320">
        <ele>245.9</ele>
        <time>2020-02-22T12:19:10Z</time>
      </trkpt>
      <trkpt lat="39.0695400" lon="1.3864410">
        <ele>246.1</ele>
        <time>2020-02-22T12:19:11Z</time>
      </trkpt>
      <trkpt lat="39.0695220" lon="1.3864340">
        <ele>246.3</ele>
        <time>2020-02-22T12:19:12Z</time>
      </trkpt>
      <trkpt lat="39.0695100" lon="1.3864380">
        <ele>246.5</ele>
        <time>2020-02-22T12:19:13Z</time>
      </trkpt>
      <trkpt lat="39.0695010" lon="1.3864520">
        <ele>246.9</ele>
        <time>2020-02-22T12:19:14Z</time>
      </trkpt>
      <trkpt lat="39.0694910" lon="1.3864570">
        <ele>247.1</ele>
        <time>2020-02-22T12:19:15Z</time>
      </trkpt>
      <trkpt lat="39.0694820" lon="1.3864700">
        <ele>247.4</ele>
        <time>2020-02-22T12:19:16Z</time>
      </trkpt>
      <trkpt lat="39.0694750" lon="1.3864860">
        <ele>247.7</ele>
        <time>2020-02-22T12:19:17Z</time>
      </trkpt>
      <trkpt lat="39.0694690" lon="1.3865050">
        <ele>248.1</ele>
        <time>2020-02-22T12:19:18Z</time>
      </trkpt>
      <trkpt lat="39.0694650" lon="1.3865220">
        <ele>248.4</ele>
        <time>2020-02-22T12:19:19Z</time>
      </trkpt>
      <trkpt lat="39.0694680" lon="1.3865290">
        <ele>248.6</ele>
        <time>2020-02-22T12:19:20Z</time>
      </trkpt>
      <trkpt lat="39.0694660" lon="1.3865380">
        <ele>248.7</ele>
        <time>2020-02-22T12:19:21Z</time>
      </trkpt>
      <trkpt lat="39.0694640" lon="1.3865460">
        <ele>248.9</ele>
        <time>2020-02-22T12:19:22Z</time>
      </trkpt>
      <trkpt lat="39.0694550" lon="1.3865600">
        <ele>249.2</ele>
        <time>2020-02-22T12:19:23Z</time>
      </trkpt>
      <trkpt lat="39.0694510" lon="1.3865600">
        <ele>249.2</ele>
        <time>2020-02-22T12:19:24Z</time>
      </trkpt>
      <trkpt lat="39.0694520" lon="1.3865670">
        <ele>249.3</ele>
        <time>2020-02-22T12:19:25Z</time>
      </trkpt>
      <trkpt lat="39.0694440" lon="1.3865620">
        <ele>249.5</ele>
        <time>2020-02-22T12:19:26Z</time>
      </trkpt>
      <trkpt lat="39.0694340" lon="1.3865660">
        <ele>249.7</ele>
        <time>2020-02-22T12:19:27Z</time>
      </trkpt>
      <trkpt lat="39.0694290" lon="1.3865750">
        <ele>249.8</ele>
        <time>2020-02-22T12:19:28Z</time>
      </trkpt>
      <trkpt lat="39.0694150" lon="1.3865770">
        <ele>250.1</ele>
        <time>2020-02-22T12:19:29Z</time>
      </trkpt>
      <trkpt lat="39.0694100" lon="1.3865820">
        <ele>250.2</ele>
        <time>2020-02-22T12:19:30Z</time>
      </trkpt>
      <trkpt lat="39.0694040" lon="1.3865860">
        <ele>250.3</ele>
        <time>2020-02-22T12:19:31Z</time>
      </trkpt>
      <trkpt lat="39.0693990" lon="1.3865910">
        <ele>250.4</ele>
        <time>2020-02-22T12:19:32Z</time>
      </trkpt>
      <trkpt lat="39.0693940" lon="1.3865950">
        <ele>250.5</ele>
        <time>2020-02-22T12:19:33Z</time>
      </trkpt>
      <trkpt lat="39.0693850" lon="1.3865950">
        <ele>250.7</ele>
        <time>2020-02-22T12:19:34Z</time>
      </trkpt>
      <trkpt lat="39.0693750" lon="1.3866000">
        <ele>250.9</ele>
        <time>2020-02-22T12:19:35Z</time>
      </trkpt>
      <trkpt lat="39.0693650" lon="1.3866050">
        <ele>251.1</ele>
        <time>2020-02-22T12:19:36Z</time>
      </trkpt>
      <trkpt lat="39.0693550" lon="1.3866180">
        <ele>251.4</ele>
        <time>2020-02-22T12:19:37Z</time>
      </trkpt>
      <trkpt lat="39.0693500" lon="1.3866250">
        <ele>251.6</ele>
        <time>2020-02-22T12:19:38Z</time>
      </trkpt>
      <trkpt lat="39.0693440" lon="1.3866330">
        <ele>251.8</ele>
        <time>2020-02-22T12:19:39Z</time>
      </trkpt>
      <trkpt lat="39.0693390" lon="1.3866400">
        <ele>252.0</ele>
        <time>2020-02-22T12:19:40Z</time>
      </trkpt>
      <trkpt lat="39.0693350" lon="1.3866420">
        <ele>252.1</ele>
        <time>2020-02-22T12:19:41Z</time>
      </trkpt>
      <trkpt lat="39.0693280" lon="1.3866520">
        <ele>252.3</ele>
        <time>2020-02-22T12:19:42Z</time>
      </trkpt>
      <trkpt lat="39.0693210" lon="1.3866580">
        <ele>252.4</ele>
        <time>2020-02-22T12:19:43Z</time>
      </trkpt>
      <trkpt lat="39.0693140" lon="1.3866670">
        <ele>252.6</ele>
        <time>2020-02-22T12:19:44Z</time>
      </trkpt>
      <trkpt lat="39.0693040" lon="1.3866640">
        <ele>252.8</ele>
        <time>2020-02-22T12:19:45Z</time>
      </trkpt>
      <trkpt lat="39.0692860" lon="1.3866660">
        <ele>253.1</ele>
        <time>2020-02-22T12:19:46Z</time>
      </trkpt>
      <trkpt lat="39.0692800" lon="1.3866640">
        <ele>253.2</ele>
        <time>2020-02-22T12:19:47Z</time>
      </trkpt>
      <trkpt lat="39.0692730" lon="1.3866700">
        <ele>253.4</ele>
        <time>2020-02-22T12:19:48Z</time>
      </trkpt>
      <trkpt lat="39.0692660" lon="1.3866760">
        <ele>253.6</ele>
        <time>2020-02-22T12:19:49Z</time>
      </trkpt>
      <trkpt lat="39.0692640" lon="1.3866800">
        <ele>253.6</ele>
        <time>2020-02-22T12:19:50Z</time>
      </trkpt>
      <trkpt lat="39.0692630" lon="1.3866900">
        <ele>253.8</ele>
        <time>2020-02-22T12:19:51Z</time>
      </trkpt>
      <trkpt lat="39.0692560" lon="1.3866900">
        <ele>253.9</ele>
        <time>2020-02-22T12:19:52Z</time>
      </trkpt>
      <trkpt lat="39.0692510" lon="1.3866920">
        <ele>254.0</ele>
        <time>2020-02-22T12:19:53Z</time>
      </trkpt>
      <trkpt lat="39.0692450" lon="1.3866950">
        <ele>254.2</ele>
        <time>2020-02-22T12:19:54Z</time>
      </trkpt>
      <trkpt lat="39.0692390" lon="1.3866970">
        <ele>254.3</ele>
        <time>2020-02-22T12:19:55Z</time>
      </trkpt>
      <trkpt lat="39.0692340" lon="1.3866990">
        <ele>254.4</ele>
        <time>2020-02-22T12:19:56Z</time>
      </trkpt>
      <trkpt lat="39.0692280" lon="1.3867010">
        <ele>254.5</ele>
        <time>2020-02-22T12:19:57Z</time>
      </trkpt>
      <trkpt lat="39.0692230" lon="1.3867000">
        <ele>254.6</ele>
        <time>2020-02-22T12:19:58Z</time>
      </trkpt>
      <trkpt lat="39.0692210" lon="1.3866990">
        <ele>254.7</ele>
        <time>2020-02-22T12:19:59Z</time>
      </trkpt>
      <trkpt lat="39.0692150" lon="1.3867030">
        <ele>254.8</ele>
        <time>2020-02-22T12:20:00Z</time>
      </trkpt>
      <trkpt lat="39.0692100" lon="1.3867170">
        <ele>255.1</ele>
        <time>2020-02-22T12:20:01Z</time>
      </trkpt>
      <trkpt lat="39.0692090" lon="1.3867210">
        <ele>255.1</ele>
        <time>2020-02-22T12:20:02Z</time>
      </trkpt>
      <trkpt lat="39.0692020" lon="1.3867010">
        <ele>255.4</ele>
        <time>2020-02-22T12:20:03Z</time>
      </trkpt>
      <trkpt lat="39.0691980" lon="1.3867080">
        <ele>255.5</ele>
        <time>2020-02-22T12:20:04Z</time>
      </trkpt>
      <trkpt lat="39.0691960" lon="1.3867130">
        <ele>255.6</ele>
        <time>2020-02-22T12:20:05Z</time>
      </trkpt>
      <trkpt lat="39.0692000" lon="1.3867120">
        <ele>255.7</ele>
        <time>2020-02-22T12:20:06Z</time>
      </trkpt>
      <trkpt lat="39.0691970" lon="1.3867160">
        <ele>255.8</ele>
        <time>2020-02-22T12:20:07Z</time>
      </trkpt>
      <trkpt lat="39.0691920" lon="1.3867130">
        <ele>255.9</ele>
        <time>2020-02-22T12:20:08Z</time>
      </trkpt>
      <trkpt lat="39.0691890" lon="1.3867230">
        <ele>256.0</ele>
        <time>2020-02-22T12:20:09Z</time>
      </trkpt>
      <trkpt lat="39.0691860" lon="1.3867380">
        <ele>256.2</ele>
        <time>2020-02-22T12:20:10Z</time>
      </trkpt>
      <trkpt lat="39.0691820" lon="1.3867430">
        <ele>256.3</ele>
        <time>2020-02-22T12:20:11Z</time>
      </trkpt>
      <trkpt lat="39.0691830" lon="1.3867530">
        <ele>256.5</ele>
        <time>2020-02-22T12:20:12Z</time>
      </trkpt>
      <trkpt lat="39.0691800" lon="1.3867540">
        <ele>256.5</ele>
        <time>2020-02-22T12:20:13Z</time>
      </trkpt>
      <trkpt lat="39.0691790" lon="1.3867550">
        <ele>256.5</ele>
        <time>2020-02-22T12:20:14Z</time>
      </trkpt>
      <trkpt lat="39.0691760" lon="1.3867580">
        <ele>256.6</ele>
        <time>2020-02-22T12:20:15Z</time>
      </trkpt>
      <trkpt lat="39.0691770" lon="1.3867630">
        <ele>256.7</ele>
        <time>2020-02-22T12:20:16Z</time>
      </trkpt>
      <trkpt lat="39.0691720" lon="1.3867730">
        <ele>256.8</ele>
        <time>2020-02-22T12:20:17Z</time>
      </trkpt>
      <trkpt lat="39.0691680" lon="1.3867800">
        <ele>256.9</ele>
        <time>2020-02-22T12:20:18Z</time>
      </trkpt>
      <trkpt lat="39.0691520" lon="1.3867940">
        <ele>257.2</ele>
        <time>2020-02-22T12:20:19Z</time>
      </trkpt>
      <trkpt lat="39.0691420" lon="1.3868010">
        <ele>257.4</ele>
        <time>2020-02-22T12:20:20Z</time>
      </trkpt>
      <trkpt lat="39.0691330" lon="1.3868090">
        <ele>257.6</ele>
        <time>2020-02-22T12:20:21Z</time>
      </trkpt>
      <trkpt lat="39.0691090" lon="1.3868170">
        <ele>257.9</ele>
        <time>2020-02-22T12:20:22Z</time>
      </trkpt>
      <trkpt lat="39.0691020" lon="1.3868240">
        <ele>258.1</ele>
        <time>2020-02-22T12:20:23Z</time>
      </trkpt>
      <trkpt lat="39.0690890" lon="1.3868350">
        <ele>258.3</ele>
        <time>2020-02-22T12:20:24Z</time>
      </trkpt>
      <trkpt lat="39.0690810" lon="1.3868340">
        <ele>258.4</ele>
        <time>2020-02-22T12:20:25Z</time>
      </trkpt>
      <trkpt lat="39.0690720" lon="1.3868310">
        <ele>258.6</ele>
        <time>2020-02-22T12:20:26Z</time>
      </trkpt>
      <trkpt lat="39.0690650" lon="1.3868280">
        <ele>258.7</ele>
        <time>2020-02-22T12:20:27Z</time>
      </trkpt>
      <trkpt lat="39.0690600" lon="1.3868270">
        <ele>258.8</ele>
        <time>2020-02-22T12:20:28Z</time>
      </trkpt>
      <trkpt lat="39.0690510" lon="1.3868200">
        <ele>259.0</ele>
        <time>2020-02-22T12:20:29Z</time>
      </trkpt>
      <trkpt lat="39.0690500" lon="1.3868230">
        <ele>259.1</ele>
        <time>2020-02-22T12:20:30Z</time>
      </trkpt>
      <trkpt lat="39.0690510" lon="1.3868270">
        <ele>259.2</ele>
        <time>2020-02-22T12:20:31Z</time>
      </trkpt>
      <trkpt lat="39.0690400" lon="1.3868320">
        <ele>259.4</ele>
        <time>2020-02-22T12:20:32Z</time>
      </trkpt>
      <trkpt lat="39.0690360" lon="1.3868370">
        <ele>259.5</ele>
        <time>2020-02-22T12:20:33Z</time>
      </trkpt>
      <trkpt lat="39.0690310" lon="1.3868360">
        <ele>259.6</ele>
        <time>2020-02-22T12:20:34Z</time>
      </trkpt>
      <trkpt lat="39.0690260" lon="1.3868430">
        <ele>259.8</ele>
        <time>2020-02-22T12:20:35Z</time>
      </trkpt>
      <trkpt lat="39.0690220" lon="1.3868450">
        <ele>259.9</ele>
        <time>2020-02-22T12:20:36Z</time>
      </trkpt>
      <trkpt lat="39.0690180" lon="1.3868520">
        <ele>260.0</ele>
        <time>2020-02-22T12:20:37Z</time>
      </trkpt>
      <trkpt lat="39.0690160" lon="1.3868550">
        <ele>260.1</ele>
        <time>2020-02-22T12:20:38Z</time>
      </trkpt>
      <trkpt lat="39.0690130" lon="1.3868580">
        <ele>260.1</ele>
        <time>2020-02-22T12:20:39Z</time>
      </trkpt>
      <trkpt lat="39.0690130" lon="1.3868580">
        <ele>260.1</ele>
        <time>2020-02-22T12:20:40Z</time>
      </trkpt>
      <trkpt lat="39.0690120" lon="1.3868580">
        <ele>260.1</ele>
        <time>2020-02-22T12:20:41Z</time>
      </trkpt>
      <trkpt lat="39.0690050" lon="1.3868620">
        <ele>260.3</ele>
        <time>2020-02-22T12:20:42Z</time>
      </trkpt>
      <trkpt lat="39.0689980" lon="1.3868720">
        <ele>260.5</ele>
        <time>2020-02-22T12:20:43Z</time>
      </trkpt>
      <trkpt lat="39.0690000" lon="1.3868730">
        <ele>260.5</ele>
        <time>2020-02-22T12:20:44Z</time>
      </trkpt>
      <trkpt lat="39.0689980" lon="1.3868680">
        <ele>260.6</ele>
        <time>2020-02-22T12:20:45Z</time>
      </trkpt>
      <trkpt lat="39.0689910" lon="1.3868740">
        <ele>260.8</ele>
        <time>2020-02-22T12:20:46Z</time>
      </trkpt>
      <trkpt lat="39.0689840" lon="1.3868760">
        <ele>260.9</ele>
        <time>2020-02-22T12:20:47Z</time>
      </trkpt>
      <trkpt lat="39.0689840" lon="1.3868830">
        <ele>261.0</ele>
        <time>2020-02-22T12:20:48Z</time>
      </trkpt>
      <trkpt lat="39.0689840" lon="1.3868820">
        <ele>261.0</ele>
        <time>2020-02-22T12:20:49Z</time>
      </trkpt>
      <trkpt lat="39.0689810" lon="1.3868840">
        <ele>261.0</ele>
        <time>2020-02-22T12:20:50Z</time>
      </trkpt>
      <trkpt lat="39.0689800" lon="1.3868850">
        <ele>261.1</ele>
        <time>2020-02-22T12:20:51Z</time>
      </trkpt>
      <trkpt lat="39.0689790" lon="1.3868870">
        <ele>261.1</ele>
        <time>2020-02-22T12:20:52Z</time>
      </trkpt>
      <trkpt lat="39.0689790" lon="1.3868850">
        <ele>261.1</ele>
        <time>2020-02-22T12:20:53Z</time>
      </trkpt>
      <trkpt lat="39.0689720" lon="1.3868870">
        <ele>261.2</ele>
        <time>2020-02-22T12:20:54Z</time>
      </trkpt>
      <trkpt lat="39.0689680" lon="1.3868890">
        <ele>261.3</ele>
        <time>2020-02-22T12:20:55Z</time>
      </trkpt>
      <trkpt lat="39.0689610" lon="1.3868870">
        <ele>261.4</ele>
        <time>2020-02-22T12:20:56Z</time>
      </trkpt>
      <trkpt lat="39.0689620" lon="1.3868860">
        <ele>261.4</ele>
        <time>2020-02-22T12:20:57Z</time>
      </trkpt>
      <trkpt lat="39.0688080" lon="1.3869130">
        <ele>263.6</ele>
        <time>2020-02-22T12:21:27Z</time>
      </trkpt>
      <trkpt lat="39.0688050" lon="1.3869160">
        <ele>263.7</ele>
        <time>2020-02-22T12:21:28Z</time>
      </trkpt>
      <trkpt lat="39.0688000" lon="1.3869140">
        <ele>263.8</ele>
        <time>2020-02-22T12:21:29Z</time>
      </trkpt>
      <trkpt lat="39.0687850" lon="1.3869120">
        <ele>264.1</ele>
        <time>2020-02-22T12:21:30Z</time>
      </trkpt>
      <trkpt lat="39.0687710" lon="1.3869040">
        <ele>264.4</ele>
        <time>2020-02-22T12:21:31Z</time>
      </trkpt>
      <trkpt lat="39.0687600" lon="1.3869060">
        <ele>264.6</ele>
        <time>2020-02-22T12:21:32Z</time>
      </trkpt>
      <trkpt lat="39.0687550" lon="1.3869040">
        <ele>264.7</ele>
        <time>2020-02-22T12:21:33Z</time>
      </trkpt>
      <trkpt lat="39.0687400" lon="1.3869060">
        <ele>264.9</ele>
        <time>2020-02-22T12:21:34Z</time>
      </trkpt>
      <trkpt lat="39.0687250" lon="1.3869070">
        <ele>265.2</ele>
        <time>2020-02-22T12:21:35Z</time>
      </trkpt>
      <trkpt lat="39.0687120" lon="1.3869080">
        <ele>265.4</ele>
        <time>2020-02-22T12:21:36Z</time>
      </trkpt>
      <trkpt lat="39.0686930" lon="1.3869060">
        <ele>265.7</ele>
        <time>2020-02-22T12:21:37Z</time>
      </trkpt>
      <trkpt lat="39.0686840" lon="1.3869050">
        <ele>265.9</ele>
        <time>2020-02-22T12:21:38Z</time>
      </trkpt>
      <trkpt lat="39.0686740" lon="1.3869100">
        <ele>266.0</ele>
        <time>2020-02-22T12:21:39Z</time>
      </trkpt>
      <trkpt lat="39.0686620" lon="1.3869090">
        <ele>266.2</ele>
        <time>2020-02-22T12:21:40Z</time>
      </trkpt>
      <trkpt lat="39.0686470" lon="1.3869120">
        <ele>266.5</ele>
        <time>2020-02-22T12:21:41Z</time>
      </trkpt>
      <trkpt lat="39.0686380" lon="1.3869150">
        <ele>266.6</ele>
        <time>2020-02-22T12:21:42Z</time>
      </trkpt>
      <trkpt lat="39.0686300" lon="1.3869200">
        <ele>266.8</ele>
        <time>2020-02-22T12:21:43Z</time>
      </trkpt>
      <trkpt lat="39.0686270" lon="1.3869300">
        <ele>266.9</ele>
        <time>2020-02-22T12:21:44Z</time>
      </trkpt>
      <trkpt lat="39.0686200" lon="1.3869400">
        <ele>267.1</ele>
        <time>2020-02-22T12:21:45Z</time>
      </trkpt>
      <trkpt lat="39.0685990" lon="1.3869320">
        <ele>267.4</ele>
        <time>2020-02-22T12:21:46Z</time>
      </trkpt>
      <trkpt lat="39.0685870" lon="1.3869300">
        <ele>267.6</ele>
        <time>2020-02-22T12:21:47Z</time>
      </trkpt>
      <trkpt lat="39.0685800" lon="1.3869270">
        <ele>267.7</ele>
        <time>2020-02-22T12:21:48Z</time>
      </trkpt>
      <trkpt lat="39.0685740" lon="1.3869250">
        <ele>267.8</ele>
        <time>2020-02-22T12:21:49Z</time>
      </trkpt>
      <trkpt lat="39.0685690" lon="1.3869290">
        <ele>267.9</ele>
        <time>2020-02-22T12:21:50Z</time>
      </trkpt>
      <trkpt lat="39.0685660" lon="1.3869270">
        <ele>268.0</ele>
        <time>2020-02-22T12:21:51Z</time>
      </trkpt>
      <trkpt lat="39.0685720" lon="1.3869170">
        <ele>268.1</ele>
        <time>2020-02-22T12:21:52Z</time>
      </trkpt>
      <trkpt lat="39.0685720" lon="1.3869160">
        <ele>268.1</ele>
        <time>2020-02-22T12:21:53Z</time>
      </trkpt>
      <trkpt lat="39.0685710" lon="1.3869140">
        <ele>268.2</ele>
        <time>2020-02-22T12:21:54Z</time>
      </trkpt>
      <trkpt lat="39.0685710" lon="1.3869160">
        <ele>268.2</ele>
        <time>2020-02-22T12:21:55Z</time>
      </trkpt>
      <trkpt lat="39.0685710" lon="1.3869160">
        <ele>268.2</ele>
        <time>2020-02-22T12:21:56Z</time>
      </trkpt>
      <trkpt lat="39.0685700" lon="1.3869150">
        <ele>268.2</ele>
        <time>2020-02-22T12:21:57Z</time>
      </trkpt>
      <trkpt lat="39.0685710" lon="1.3869140">
        <ele>268.2</ele>
        <time>2020-02-22T12:21:58Z</time>
      </trkpt>
      <trkpt lat="39.0685710" lon="1.3869130">
        <ele>268.2</ele>
        <time>2020-02-22T12:21:59Z</time>
      </trkpt>
      <trkpt lat="39.0685700" lon="1.3869120">
        <ele>268.2</ele>
        <time>2020-02-22T12:22:00Z</time>
      </trkpt>
      <trkpt lat="39.0685710" lon="1.3869090">
        <ele>268.3</ele>
        <time>2020-02-22T12:22:01Z</time>
      </trkpt>
      <trkpt lat="39.0685390" lon="1.3869830">
        <ele>269.3</ele>
        <time>2020-02-22T12:22:13Z</time>
      </trkpt>
      <trkpt lat="39.0685270" lon="1.3869980">
        <ele>269.5</ele>
        <time>2020-02-22T12:22:14Z</time>
      </trkpt>
      <trkpt lat="39.0685240" lon="1.3870040">
        <ele>269.6</ele>
        <time>2020-02-22T12:22:15Z</time>
      </trkpt>
      <trkpt lat="39.0685130" lon="1.3870060">
        <ele>269.8</ele>
        <time>2020-02-22T12:22:16Z</time>
      </trkpt>
      <trkpt lat="39.0685010" lon="1.3870060">
        <ele>269.9</ele>
        <time>2020-02-22T12:22:17Z</time>
      </trkpt>
      <trkpt lat="39.0684920" lon="1.3870110">
        <ele>270.0</ele>
        <time>2020-02-22T12:22:18Z</time>
      </trkpt>
      <trkpt lat="39.0684880" lon="1.3870120">
        <ele>270.1</ele>
        <time>2020-02-22T12:22:19Z</time>
      </trkpt>
      <trkpt lat="39.0684820" lon="1.3870050">
        <ele>270.2</ele>
        <time>2020-02-22T12:22:20Z</time>
      </trkpt>
      <trkpt lat="39.0684630" lon="1.3869980">
        <ele>270.4</ele>
        <time>2020-02-22T12:22:21Z</time>
      </trkpt>
      <trkpt lat="39.0684420" lon="1.3869870">
        <ele>270.7</ele>
        <time>2020-02-22T12:22:22Z</time>
      </trkpt>
      <trkpt lat="39.0684320" lon="1.3869830">
        <ele>270.8</ele>
        <time>2020-02-22T12:22:23Z</time>
      </trkpt>
      <trkpt lat="39.0684220" lon="1.3869800">
        <ele>271.0</ele>
        <time>2020-02-22T12:22:24Z</time>
      </trkpt>
      <trkpt lat="39.0684110" lon="1.3869760">
        <ele>271.1</ele>
        <time>2020-02-22T12:22:25Z</time>
      </trkpt>
      <trkpt lat="39.0683950" lon="1.3869730">
        <ele>271.3</ele>
        <time>2020-02-22T12:22:26Z</time>
      </trkpt>
      <trkpt lat="39.0683780" lon="1.3869790">
        <ele>271.5</ele>
        <time>2020-02-22T12:22:27Z</time>
      </trkpt>
      <trkpt lat="39.0683700" lon="1.3869800">
        <ele>271.6</ele>
        <time>2020-02-22T12:22:28Z</time>
      </trkpt>
      <trkpt lat="39.0683610" lon="1.3869820">
        <ele>271.7</ele>
        <time>2020-02-22T12:22:29Z</time>
      </trkpt>
      <trkpt lat="39.0683530" lon="1.3869830">
        <ele>271.8</ele>
        <time>2020-02-22T12:22:30Z</time>
      </trkpt>
      <trkpt lat="39.0683400" lon="1.3869800">
        <ele>272.0</ele>
        <time>2020-02-22T12:22:31Z</time>
      </trkpt>
      <trkpt lat="39.0683210" lon="1.3869790">
        <ele>272.4</ele>
        <time>2020-02-22T12:22:32Z</time>
      </trkpt>
      <trkpt lat="39.0682930" lon="1.3869680">
        <ele>272.9</ele>
        <time>2020-02-22T12:22:33Z</time>
      </trkpt>
      <trkpt lat="39.0682850" lon="1.3869680">
        <ele>273.0</ele>
        <time>2020-02-22T12:22:34Z</time>
      </trkpt>
      <trkpt lat="39.0682720" lon="1.3869740">
        <ele>273.3</ele>
        <time>2020-02-22T12:22:35Z</time>
      </trkpt>
      <trkpt lat="39.0682580" lon="1.3869850">
        <ele>273.6</ele>
        <time>2020-02-22T12:22:36Z</time>
      </trkpt>
      <trkpt lat="39.0682460" lon="1.3869890">
        <ele>273.9</ele>
        <time>2020-02-22T12:22:37Z</time>
      </trkpt>
      <trkpt lat="39.0682400" lon="1.3869920">
        <ele>274.0</ele>
        <time>2020-02-22T12:22:38Z</time>
      </trkpt>
      <trkpt lat="39.0682300" lon="1.3869880">
        <ele>274.2</ele>
        <time>2020-02-22T12:22:39Z</time>
      </trkpt>
      <trkpt lat="39.0682100" lon="1.3869910">
        <ele>274.5</ele>
        <time>2020-02-22T12:22:40Z</time>
      </trkpt>
      <trkpt lat="39.0682010" lon="1.3869950">
        <ele>274.7</ele>
        <time>2020-02-22T12:22:41Z</time>
      </trkpt>
      <trkpt lat="39.0681850" lon="1.3869930">
        <ele>274.9</ele>
        <time>2020-02-22T12:22:42Z</time>
      </trkpt>
      <trkpt lat="39.0681700" lon="1.3869900">
        <ele>275.2</ele>
        <time>2020-02-22T12:22:43Z</time>
      </trkpt>
      <trkpt lat="39.0681570" lon="1.3869850">
        <ele>275.4</ele>
        <time>2020-02-22T12:22:44Z</time>
      </trkpt>
      <trkpt lat="39.0681530" lon="1.3869870">
        <ele>275.4</ele>
        <time>2020-02-22T12:22:45Z</time>
      </trkpt>
      <trkpt lat="39.0681410" lon="1.3869870">
        <ele>275.6</ele>
        <time>2020-02-22T12:22:46Z</time>
      </trkpt>
      <trkpt lat="39.0681350" lon="1.3869880">
        <ele>275.7</ele>
        <time>2020-02-22T12:22:47Z</time>
      </trkpt>
      <trkpt lat="39.0681300" lon="1.3869860">
        <ele>275.8</ele>
        <time>2020-02-22T12:22:48Z</time>
      </trkpt>
      <trkpt lat="39.0681240" lon="1.3869750">
        <ele>275.9</ele>
        <time>2020-02-22T12:22:49Z</time>
      </trkpt>
      <trkpt lat="39.0681150" lon="1.3869690">
        <ele>276.1</ele>
        <time>2020-02-22T12:22:50Z</time>
      </trkpt>
      <trkpt lat="39.0681130" lon="1.3869680">
        <ele>276.1</ele>
        <time>2020-02-22T12:22:51Z</time>
      </trkpt>
      <trkpt lat="39.0681100" lon="1.3869730">
        <ele>276.2</ele>
        <time>2020-02-22T12:22:52Z</time>
      </trkpt>
      <trkpt lat="39.0681080" lon="1.3869710">
        <ele>276.2</ele>
        <time>2020-02-22T12:22:53Z</time>
      </trkpt>
      <trkpt lat="39.0680990" lon="1.3869780">
        <ele>276.4</ele>
        <time>2020-02-22T12:22:54Z</time>
      </trkpt>
      <trkpt lat="39.0680960" lon="1.3869870">
        <ele>276.5</ele>
        <time>2020-02-22T12:22:55Z</time>
      </trkpt>
      <trkpt lat="39.0680900" lon="1.3869930">
        <ele>276.6</ele>
        <time>2020-02-22T12:22:56Z</time>
      </trkpt>
      <trkpt lat="39.0680880" lon="1.3869960">
        <ele>276.7</ele>
        <time>2020-02-22T12:22:57Z</time>
      </trkpt>
      <trkpt lat="39.0680750" lon="1.3870010">
        <ele>276.8</ele>
        <time>2020-02-22T12:22:58Z</time>
      </trkpt>
      <trkpt lat="39.0680700" lon="1.3870110">
        <ele>276.9</ele>
        <time>2020-02-22T12:22:59Z</time>
      </trkpt>
      <trkpt lat="39.0680660" lon="1.3870170">
        <ele>277.0</ele>
        <time>2020-02-22T12:23:00Z</time>
      </trkpt>
      <trkpt lat="39.0680480" lon="1.3870220">
        <ele>277.2</ele>
        <time>2020-02-22T12:23:01Z</time>
      </trkpt>
      <trkpt lat="39.0680430" lon="1.3870200">
        <ele>277.3</ele>
        <time>2020-02-22T12:23:02Z</time>
      </trkpt>
      <trkpt lat="39.0680340" lon="1.3870280">
        <ele>277.4</ele>
        <time>2020-02-22T12:23:03Z</time>
      </trkpt>
      <trkpt lat="39.0680250" lon="1.3870180">
        <ele>277.6</ele>
        <time>2020-02-22T12:23:04Z</time>
      </trkpt>
      <trkpt lat="39.0680170" lon="1.3870280">
        <ele>277.7</ele>
        <time>2020-02-22T12:23:05Z</time>
      </trkpt>
      <trkpt lat="39.0680070" lon="1.3870290">
        <ele>277.8</ele>
        <time>2020-02-22T12:23:06Z</time>
      </trkpt>
      <trkpt lat="39.0679990" lon="1.3870410">
        <ele>278.0</ele>
        <time>2020-02-22T12:23:07Z</time>
      </trkpt>
      <trkpt lat="39.0679890" lon="1.3870450">
        <ele>278.1</ele>
        <time>2020-02-22T12:23:08Z</time>
      </trkpt>
      <trkpt lat="39.0679840" lon="1.3870430">
        <ele>278.1</ele>
        <time>2020-02-22T12:23:09Z</time>
      </trkpt>
      <trkpt lat="39.0679800" lon="1.3870400">
        <ele>278.2</ele>
        <time>2020-02-22T12:23:10Z</time>
      </trkpt>
      <trkpt lat="39.0679590" lon="1.3870510">
        <ele>278.4</ele>
        <time>2020-02-22T12:23:11Z</time>
      </trkpt>
      <trkpt lat="39.0679510" lon="1.3870560">
        <ele>278.5</ele>
        <time>2020-02-22T12:23:12Z</time>
      </trkpt>
      <trkpt lat="39.0679420" lon="1.3870600">
        <ele>278.6</ele>
        <time>2020-02-22T12:23:13Z</time>
      </trkpt>
      <trkpt lat="39.0679330" lon="1.3870640">
        <ele>278.7</ele>
        <time>2020-02-22T12:23:14Z</time>
      </trkpt>
      <trkpt lat="39.0679110" lon="1.3870560">
        <ele>279.0</ele>
        <time>2020-02-22T12:23:15Z</time>
      </trkpt>
      <trkpt lat="39.0679040" lon="1.3870490">
        <ele>279.1</ele>
        <time>2020-02-22T12:23:16Z</time>
      </trkpt>
      <trkpt lat="39.0678970" lon="1.3870430">
        <ele>279.2</ele>
        <time>2020-02-22T12:23:17Z</time>
      </trkpt>
      <trkpt lat="39.0678900" lon="1.3870440">
        <ele>279.3</ele>
        <time>2020-02-22T12:23:18Z</time>
      </trkpt>
      <trkpt lat="39.0678810" lon="1.3870480">
        <ele>279.5</ele>
        <time>2020-02-22T12:23:19Z</time>
      </trkpt>
      <trkpt lat="39.0678730" lon="1.3870500">
        <ele>279.7</ele>
        <time>2020-02-22T12:23:20Z</time>
      </trkpt>
      <trkpt lat="39.0678670" lon="1.3870490">
        <ele>279.8</ele>
        <time>2020-02-22T12:23:21Z</time>
      </trkpt>
      <trkpt lat="39.0678600" lon="1.3870530">
        <ele>279.9</ele>
        <time>2020-02-22T12:23:22Z</time>
      </trkpt>
      <trkpt lat="39.0678520" lon="1.3870530">
        <ele>280.0</ele>
        <time>2020-02-22T12:23:23Z</time>
      </trkpt>
      <trkpt lat="39.0678450" lon="1.3870590">
        <ele>280.2</ele>
        <time>2020-02-22T12:23:24Z</time>
      </trkpt>
      <trkpt lat="39.0678360" lon="1.3870690">
        <ele>280.4</ele>
        <time>2020-02-22T12:23:25Z</time>
      </trkpt>
      <trkpt lat="39.0678390" lon="1.3870630">
        <ele>280.5</ele>
        <time>2020-02-22T12:23:26Z</time>
      </trkpt>
      <trkpt lat="39.0678310" lon="1.3870600">
        <ele>280.6</ele>
        <time>2020-02-22T12:23:27Z</time>
      </trkpt>
      <trkpt lat="39.0678150" lon="1.3870610">
        <ele>280.9</ele>
        <time>2020-02-22T12:23:28Z</time>
      </trkpt>
      <trkpt lat="39.0678060" lon="1.3870660">
        <ele>281.1</ele>
        <time>2020-02-22T12:23:29Z</time>
      </trkpt>
      <trkpt lat="39.0677950" lon="1.3870690">
        <ele>281.3</ele>
        <time>2020-02-22T12:23:30Z</time>
      </trkpt>
      <trkpt lat="39.0677870" lon="1.3870780">
        <ele>281.4</ele>
        <time>2020-02-22T12:23:31Z</time>
      </trkpt>
      <trkpt lat="39.0677800" lon="1.3870870">
        <ele>281.6</ele>
        <time>2020-02-22T12:23:32Z</time>
      </trkpt>
      <trkpt lat="39.0677670" lon="1.3870930">
        <ele>281.8</ele>
        <time>2020-02-22T12:23:33Z</time>
      </trkpt>
      <trkpt lat="39.0677570" lon="1.3871010">
        <ele>282.0</ele>
        <time>2020-02-22T12:23:34Z</time>
      </trkpt>
      <trkpt lat="39.0677490" lon="1.3871060">
        <ele>282.1</ele>
        <time>2020-02-22T12:23:35Z</time>
      </trkpt>
      <trkpt lat="39.0677450" lon="1.3871130">
        <ele>282.3</ele>
        <time>2020-02-22T12:23:36Z</time>
      </trkpt>
      <trkpt lat="39.0677370" lon="1.3871070">
        <ele>282.4</ele>
        <time>2020-02-22T12:23:37Z</time>
      </trkpt>
      <trkpt lat="39.0677290" lon="1.3871070">
        <ele>282.5</ele>
        <time>2020-02-22T12:23:38Z</time>
      </trkpt>
      <trkpt lat="39.0677250" lon="1.3871050">
        <ele>282.6</ele>
        <time>2020-02-22T12:23:39Z</time>
      </trkpt>
      <trkpt lat="39.0677130" lon="1.3871040">
        <ele>282.8</ele>
        <time>2020-02-22T12:23:40Z</time>
      </trkpt>
      <trkpt lat="39.0677060" lon="1.3870850">
        <ele>283.1</ele>
        <time>2020-02-22T12:23:41Z</time>
      </trkpt>
      <trkpt lat="39.0676900" lon="1.3870780">
        <ele>283.4</ele>
        <time>2020-02-22T12:23:42Z</time>
      </trkpt>
      <trkpt lat="39.0676850" lon="1.3870780">
        <ele>283.4</ele>
        <time>2020-02-22T12:23:43Z</time>
      </trkpt>
      <trkpt lat="39.0676750" lon="1.3870770">
        <ele>283.6</ele>
        <time>2020-02-22T12:23:44Z</time>
      </trkpt>
      <trkpt lat="39.0676580" lon="1.3870790">
        <ele>283.8</ele>
        <time>2020-02-22T12:23:45Z</time>
      </trkpt>
      <trkpt lat="39.0676430" lon="1.3870800">
        <ele>284.0</ele>
        <time>2020-02-22T12:23:46Z</time>
      </trkpt>
      <trkpt lat="39.0676240" lon="1.3870810">
        <ele>284.3</ele>
        <time>2020-02-22T12:23:47Z</time>
      </trkpt>
      <trkpt lat="39.0676120" lon="1.3870860">
        <ele>284.4</ele>
        <time>2020-02-22T12:23:48Z</time>
      </trkpt>
      <trkpt lat="39.0676050" lon="1.3870920">
        <ele>284.5</ele>
        <time>2020-02-22T12:23:49Z</time>
      </trkpt>
      <trkpt lat="39.0676020" lon="1.3870970">
        <ele>284.6</ele>
        <time>2020-02-22T12:23:50Z</time>
      </trkpt>
      <trkpt lat="39.0675930" lon="1.3871000">
        <ele>284.7</ele>
        <time>2020-02-22T12:23:51Z</time>
      </trkpt>
      <trkpt lat="39.0675850" lon="1.3871120">
        <ele>284.8</ele>
        <time>2020-02-22T12:23:52Z</time>
      </trkpt>
      <trkpt lat="39.0675790" lon="1.3871150">
        <ele>284.9</ele>
        <time>2020-02-22T12:23:53Z</time>
      </trkpt>
      <trkpt lat="39.0675730" lon="1.3871170">
        <ele>284.9</ele>
        <time>2020-02-22T12:23:54Z</time>
      </trkpt>
      <trkpt lat="39.0675670" lon="1.3871200">
        <ele>285.0</ele>
        <time>2020-02-22T12:23:55Z</time>
      </trkpt>
      <trkpt lat="39.0675610" lon="1.3871230">
        <ele>285.0</ele>
        <time>2020-02-22T12:23:56Z</time>
      </trkpt>
      <trkpt lat="39.0675600" lon="1.3871250">
        <ele>285.0</ele>
        <time>2020-02-22T12:23:57Z</time>
      </trkpt>
      <trkpt lat="39.0675510" lon="1.3871250">
        <ele>285.1</ele>
        <time>2020-02-22T12:23:58Z</time>
      </trkpt>
      <trkpt lat="39.0675410" lon="1.3871190">
        <ele>285.2</ele>
        <time>2020-02-22T12:23:59Z</time>
      </trkpt>
      <trkpt lat="39.0675270" lon="1.3871180">
        <ele>285.3</ele>
        <time>2020-02-22T12:24:00Z</time>
      </trkpt>
      <trkpt lat="39.0675210" lon="1.3871210">
        <ele>285.3</ele>
        <time>2020-02-22T12:24:01Z</time>
      </trkpt>
      <trkpt lat="39.0675180" lon="1.3871290">
        <ele>285.4</ele>
        <time>2020-02-22T12:24:02Z</time>
      </trkpt>
      <trkpt lat="39.0674980" lon="1.3871420">
        <ele>285.5</ele>
        <time>2020-02-22T12:24:03Z</time>
      </trkpt>
      <trkpt lat="39.0674840" lon="1.3871500">
        <ele>285.6</ele>
        <time>2020-02-22T12:24:04Z</time>
      </trkpt>
      <trkpt lat="39.0674690" lon="1.3871630">
        <ele>285.7</ele>
        <time>2020-02-22T12:24:05Z</time>
      </trkpt>
      <trkpt lat="39.0674540" lon="1.3871690">
        <ele>285.7</ele>
        <time>2020-02-22T12:24:06Z</time>
      </trkpt>
      <trkpt lat="39.0674480" lon="1.3871730">
        <ele>285.8</ele>
        <time>2020-02-22T12:24:07Z</time>
      </trkpt>
      <trkpt lat="39.0674340" lon="1.3871740">
        <ele>285.8</ele>
        <time>2020-02-22T12:24:08Z</time>
      </trkpt>
      <trkpt lat="39.0674280" lon="1.3871760">
        <ele>285.8</ele>
        <time>2020-02-22T12:24:09Z</time>
      </trkpt>
      <trkpt lat="39.0674240" lon="1.3871820">
        <ele>285.9</ele>
        <time>2020-02-22T12:24:10Z</time>
      </trkpt>
      <trkpt lat="39.0674110" lon="1.3871940">
        <ele>285.9</ele>
        <time>2020-02-22T12:24:11Z</time>
      </trkpt>
      <trkpt lat="39.0674010" lon="1.3871980">
        <ele>285.9</ele>
        <time>2020-02-22T12:24:12Z</time>
      </trkpt>
      <trkpt lat="39.0673950" lon="1.3871980">
        <ele>286.0</ele>
        <time>2020-02-22T12:24:13Z</time>
      </trkpt>
      <trkpt lat="39.0673890" lon="1.3871990">
        <ele>286.0</ele>
        <time>2020-02-22T12:24:14Z</time>
      </trkpt>
      <trkpt lat="39.0673840" lon="1.3871990">
        <ele>286.0</ele>
        <time>2020-02-22T12:24:15Z</time>
      </trkpt>
      <trkpt lat="39.0673790" lon="1.3871990">
        <ele>286.0</ele>
        <time>2020-02-22T12:24:16Z</time>
      </trkpt>
      <trkpt lat="39.0673730" lon="1.3871990">
        <ele>286.0</ele>
        <time>2020-02-22T12:24:17Z</time>
      </trkpt>
      <trkpt lat="39.0673540" lon="1.3872000">
        <ele>286.1</ele>
        <time>2020-02-22T12:24:18Z</time>
      </trkpt>
      <trkpt lat="39.0673440" lon="1.3872020">
        <ele>286.1</ele>
        <time>2020-02-22T12:24:19Z</time>
      </trkpt>
      <trkpt lat="39.0673350" lon="1.3872030">
        <ele>286.1</ele>
        <time>2020-02-22T12:24:20Z</time>
      </trkpt>
      <trkpt lat="39.0673280" lon="1.3872120">
        <ele>286.1</ele>
        <time>2020-02-22T12:24:21Z</time>
      </trkpt>
      <trkpt lat="39.0673200" lon="1.3872140">
        <ele>286.2</ele>
        <time>2020-02-22T12:24:22Z</time>
      </trkpt>
      <trkpt lat="39.0673200" lon="1.3872140">
        <ele>286.2</ele>
        <time>2020-02-22T12:24:23Z</time>
      </trkpt>
      <trkpt lat="39.0673190" lon="1.3872160">
        <ele>286.2</ele>
        <time>2020-02-22T12:24:24Z</time>
      </trkpt>
      <trkpt lat="39.0673120" lon="1.3872120">
        <ele>286.2</ele>
        <time>2020-02-22T12:24:25Z</time>
      </trkpt>
      <trkpt lat="39.0673050" lon="1.3872120">
        <ele>286.2</ele>
        <time>2020-02-22T12:24:26Z</time>
      </trkpt>
      <trkpt lat="39.0672990" lon="1.3872160">
        <ele>286.2</ele>
        <time>2020-02-22T12:24:27Z</time>
      </trkpt>
      <trkpt lat="39.0672970" lon="1.3872280">
        <ele>286.2</ele>
        <time>2020-02-22T12:24:28Z</time>
      </trkpt>
      <trkpt lat="39.0672910" lon="1.3872340">
        <ele>286.3</ele>
        <time>2020-02-22T12:24:29Z</time>
      </trkpt>
      <trkpt lat="39.0672870" lon="1.3872360">
        <ele>286.3</ele>
        <time>2020-02-22T12:24:30Z</time>
      </trkpt>
      <trkpt lat="39.0672860" lon="1.3872360">
        <ele>286.3</ele>
        <time>2020-02-22T12:24:31Z</time>
      </trkpt>
      <trkpt lat="39.0672850" lon="1.3872370">
        <ele>286.3</ele>
        <time>2020-02-22T12:24:32Z</time>
      </trkpt>
      <trkpt lat="39.0672740" lon="1.3872360">
        <ele>286.3</ele>
        <time>2020-02-22T12:24:33Z</time>
      </trkpt>
      <trkpt lat="39.0672680" lon="1.3872350">
        <ele>286.3</ele>
        <time>2020-02-22T12:24:34Z</time>
      </trkpt>
      <trkpt lat="39.0672610" lon="1.3872350">
        <ele>286.3</ele>
        <time>2020-02-22T12:24:35Z</time>
      </trkpt>
      <trkpt lat="39.0672550" lon="1.3872340">
        <ele>286.4</ele>
        <time>2020-02-22T12:24:36Z</time>
      </trkpt>
      <trkpt lat="39.0672490" lon="1.3872340">
        <ele>286.4</ele>
        <time>2020-02-22T12:24:37Z</time>
      </trkpt>
      <trkpt lat="39.0672420" lon="1.3872420">
        <ele>286.4</ele>
        <time>2020-02-22T12:24:38Z</time>
      </trkpt>
      <trkpt lat="39.0672360" lon="1.3872500">
        <ele>286.4</ele>
        <time>2020-02-22T12:24:39Z</time>
      </trkpt>
      <trkpt lat="39.0672350" lon="1.3872490">
        <ele>286.4</ele>
        <time>2020-02-22T12:24:40Z</time>
      </trkpt>
      <trkpt lat="39.0672310" lon="1.3872500">
        <ele>286.5</ele>
        <time>2020-02-22T12:24:41Z</time>
      </trkpt>
      <trkpt lat="39.0672240" lon="1.3872580">
        <ele>286.5</ele>
        <time>2020-02-22T12:24:42Z</time>
      </trkpt>
      <trkpt lat="39.0672190" lon="1.3872610">
        <ele>286.5</ele>
        <time>2020-02-22T12:24:43Z</time>
      </trkpt>
      <trkpt lat="39.0672130" lon="1.3872600">
        <ele>286.5</ele>
        <time>2020-02-22T12:24:44Z</time>
      </trkpt>
      <trkpt lat="39.0672080" lon="1.3872600">
        <ele>286.5</ele>
        <time>2020-02-22T12:24:45Z</time>
      </trkpt>
      <trkpt lat="39.0672030" lon="1.3872600">
        <ele>286.5</ele>
        <time>2020-02-22T12:24:46Z</time>
      </trkpt>
      <trkpt lat="39.0671970" lon="1.3872600">
        <ele>286.6</ele>
        <time>2020-02-22T12:24:47Z</time>
      </trkpt>
      <trkpt lat="39.0671920" lon="1.3872590">
        <ele>286.6</ele>
        <time>2020-02-22T12:24:48Z</time>
      </trkpt>
      <trkpt lat="39.0671860" lon="1.3872590">
        <ele>286.6</ele>
        <time>2020-02-22T12:24:49Z</time>
      </trkpt>
      <trkpt lat="39.0671810" lon="1.3872590">
        <ele>286.6</ele>
        <time>2020-02-22T12:24:50Z</time>
      </trkpt>
      <trkpt lat="39.0671710" lon="1.3872630">
        <ele>286.6</ele>
        <time>2020-02-22T12:24:51Z</time>
      </trkpt>
      <trkpt lat="39.0671620" lon="1.3872630">
        <ele>286.7</ele>
        <time>2020-02-22T12:24:52Z</time>
      </trkpt>
      <trkpt lat="39.0671510" lon="1.3872530">
        <ele>286.7</ele>
        <time>2020-02-22T12:24:53Z</time>
      </trkpt>
      <trkpt lat="39.0671440" lon="1.3872440">
        <ele>286.7</ele>
        <time>2020-02-22T12:24:54Z</time>
      </trkpt>
      <trkpt lat="39.0671310" lon="1.3872330">
        <ele>286.8</ele>
        <time>2020-02-22T12:24:55Z</time>
      </trkpt>
      <trkpt lat="39.0671260" lon="1.3872230">
        <ele>286.8</ele>
        <time>2020-02-22T12:24:56Z</time>
      </trkpt>
      <trkpt lat="39.0671170" lon="1.3872250">
        <ele>286.8</ele>
        <time>2020-02-22T12:24:57Z</time>
      </trkpt>
      <trkpt lat="39.0671140" lon="1.3872260">
        <ele>286.8</ele>
        <time>2020-02-22T12:24:58Z</time>
      </trkpt>
      <trkpt lat="39.0671060" lon="1.3872260">
        <ele>286.9</ele>
        <time>2020-02-22T12:24:59Z</time>
      </trkpt>
      <trkpt lat="39.0670940" lon="1.3872280">
        <ele>286.9</ele>
        <time>2020-02-22T12:25:00Z</time>
      </trkpt>
      <trkpt lat="39.0670870" lon="1.3872380">
        <ele>286.9</ele>
        <time>2020-02-22T12:25:01Z</time>
      </trkpt>
      <trkpt lat="39.0670730" lon="1.3872460">
        <ele>287.0</ele>
        <time>2020-02-22T12:25:02Z</time>
      </trkpt>
      <trkpt lat="39.0670630" lon="1.3872490">
        <ele>287.2</ele>
        <time>2020-02-22T12:25:03Z</time>
      </trkpt>
      <trkpt lat="39.0670580" lon="1.3872540">
        <ele>287.2</ele>
        <time>2020-02-22T12:25:04Z</time>
      </trkpt>
      <trkpt lat="39.0670540" lon="1.3872600">
        <ele>287.2</ele>
        <time>2020-02-22T12:25:05Z</time>
      </trkpt>
      <trkpt lat="39.0670470" lon="1.3872630">
        <ele>287.1</ele>
        <time>2020-02-22T12:25:06Z</time>
      </trkpt>
      <trkpt lat="39.0670490" lon="1.3872700">
        <ele>287.1</ele>
        <time>2020-02-22T12:25:07Z</time>
      </trkpt>
      <trkpt lat="39.0670520" lon="1.3872840">
        <ele>287.1</ele>
        <time>2020-02-22T12:25:08Z</time>
      </trkpt>
      <trkpt lat="39.0670510" lon="1.3873100">
        <ele>287.0</ele>
        <time>2020-02-22T12:25:09Z</time>
      </trkpt>
      <trkpt lat="39.0670510" lon="1.3873210">
        <ele>286.9</ele>
        <time>2020-02-22T12:25:10Z</time>
      </trkpt>
      <trkpt lat="39.0670500" lon="1.3873330">
        <ele>286.9</ele>
        <time>2020-02-22T12:25:11Z</time>
      </trkpt>
      <trkpt lat="39.0670490" lon="1.3873270">
        <ele>286.9</ele>
        <time>2020-02-22T12:25:12Z</time>
      </trkpt>
      <trkpt lat="39.0670460" lon="1.3873220">
        <ele>286.9</ele>
        <time>2020-02-22T12:25:13Z</time>
      </trkpt>
      <trkpt lat="39.0670460" lon="1.3873230">
        <ele>286.9</ele>
        <time>2020-02-22T12:25:14Z</time>
      </trkpt>
      <trkpt lat="39.0670420" lon="1.3873210">
        <ele>286.9</ele>
        <time>2020-02-22T12:25:15Z</time>
      </trkpt>
      <trkpt lat="39.0670440" lon="1.3873240">
        <ele>286.9</ele>
        <time>2020-02-22T12:25:16Z</time>
      </trkpt>
      <trkpt lat="39.0670490" lon="1.3873260">
        <ele>286.8</ele>
        <time>2020-02-22T12:25:17Z</time>
      </trkpt>
      <trkpt lat="39.0670500" lon="1.3873270">
        <ele>286.8</ele>
        <time>2020-02-22T12:25:18Z</time>
      </trkpt>
      <trkpt lat="39.0670520" lon="1.3873280">
        <ele>286.8</ele>
        <time>2020-02-22T12:25:19Z</time>
      </trkpt>
      <trkpt lat="39.0670550" lon="1.3873260">
        <ele>286.8</ele>
        <time>2020-02-22T12:25:20Z</time>
      </trkpt>
      <trkpt lat="39.0670560" lon="1.3873260">
        <ele>286.8</ele>
        <time>2020-02-22T12:25:21Z</time>
      </trkpt>
      <trkpt lat="39.0670340" lon="1.3873720">
        <ele>286.7</ele>
        <time>2020-02-22T12:25:30Z</time>
      </trkpt>
      <trkpt lat="39.0670280" lon="1.3873930">
        <ele>286.6</ele>
        <time>2020-02-22T12:25:31Z</time>
      </trkpt>
      <trkpt lat="39.0670290" lon="1.3874070">
        <ele>286.6</ele>
        <time>2020-02-22T12:25:32Z</time>
      </trkpt>
      <trkpt lat="39.0670250" lon="1.3874210">
        <ele>286.5</ele>
        <time>2020-02-22T12:25:33Z</time>
      </trkpt>
      <trkpt lat="39.0670170" lon="1.3874320">
        <ele>286.5</ele>
        <time>2020-02-22T12:25:34Z</time>
      </trkpt>
      <trkpt lat="39.0670040" lon="1.3874380">
        <ele>286.4</ele>
        <time>2020-02-22T12:25:35Z</time>
      </trkpt>
      <trkpt lat="39.0669830" lon="1.3874590">
        <ele>286.3</ele>
        <time>2020-02-22T12:25:36Z</time>
      </trkpt>
      <trkpt lat="39.0669750" lon="1.3874680">
        <ele>286.3</ele>
        <time>2020-02-22T12:25:37Z</time>
      </trkpt>
      <trkpt lat="39.0669670" lon="1.3874760">
        <ele>286.3</ele>
        <time>2020-02-22T12:25:38Z</time>
      </trkpt>
      <trkpt lat="39.0669420" lon="1.3874870">
        <ele>286.2</ele>
        <time>2020-02-22T12:25:39Z</time>
      </trkpt>
      <trkpt lat="39.0669330" lon="1.3874950">
        <ele>286.2</ele>
        <time>2020-02-22T12:25:40Z</time>
      </trkpt>
      <trkpt lat="39.0669250" lon="1.3875080">
        <ele>286.2</ele>
        <time>2020-02-22T12:25:41Z</time>
      </trkpt>
      <trkpt lat="39.0669130" lon="1.3875220">
        <ele>286.2</ele>
        <time>2020-02-22T12:25:42Z</time>
      </trkpt>
      <trkpt lat="39.0668910" lon="1.3875500">
        <ele>286.1</ele>
        <time>2020-02-22T12:25:43Z</time>
      </trkpt>
      <trkpt lat="39.0668820" lon="1.3875600">
        <ele>286.1</ele>
        <time>2020-02-22T12:25:44Z</time>
      </trkpt>
      <trkpt lat="39.0668570" lon="1.3875910">
        <ele>286.0</ele>
        <time>2020-02-22T12:25:45Z</time>
      </trkpt>
      <trkpt lat="39.0668480" lon="1.3876000">
        <ele>286.0</ele>
        <time>2020-02-22T12:25:46Z</time>
      </trkpt>
      <trkpt lat="39.0668180" lon="1.3876300">
        <ele>285.9</ele>
        <time>2020-02-22T12:25:47Z</time>
      </trkpt>
      <trkpt lat="39.0668070" lon="1.3876410">
        <ele>285.9</ele>
        <time>2020-02-22T12:25:48Z</time>
      </trkpt>
      <trkpt lat="39.0667930" lon="1.3876790">
        <ele>285.8</ele>
        <time>2020-02-22T12:25:49Z</time>
      </trkpt>
      <trkpt lat="39.0667890" lon="1.3876900">
        <ele>285.8</ele>
        <time>2020-02-22T12:25:50Z</time>
      </trkpt>
      <trkpt lat="39.0667720" lon="1.3877240">
        <ele>285.7</ele>
        <time>2020-02-22T12:25:51Z</time>
      </trkpt>
      <trkpt lat="39.0667640" lon="1.3877390">
        <ele>285.7</ele>
        <time>2020-02-22T12:25:52Z</time>
      </trkpt>
      <trkpt lat="39.0667440" lon="1.3877700">
        <ele>285.7</ele>
        <time>2020-02-22T12:25:53Z</time>
      </trkpt>
      <trkpt lat="39.0667230" lon="1.3878020">
        <ele>285.6</ele>
        <time>2020-02-22T12:25:54Z</time>
      </trkpt>
      <trkpt lat="39.0667070" lon="1.3878400">
        <ele>285.5</ele>
        <time>2020-02-22T12:25:55Z</time>
      </trkpt>
      <trkpt lat="39.0666940" lon="1.3878720">
        <ele>285.5</ele>
        <time>2020-02-22T12:25:56Z</time>
      </trkpt>
      <trkpt lat="39.0666760" lon="1.3878930">
        <ele>285.4</ele>
        <time>2020-02-22T12:25:57Z</time>
      </trkpt>
      <trkpt lat="39.0666660" lon="1.3879020">
        <ele>285.4</ele>
        <time>2020-02-22T12:25:58Z</time>
      </trkpt>
      <trkpt lat="39.0666570" lon="1.3879110">
        <ele>285.3</ele>
        <time>2020-02-22T12:25:59Z</time>
      </trkpt>
      <trkpt lat="39.0666440" lon="1.3879490">
        <ele>285.2</ele>
        <time>2020-02-22T12:26:00Z</time>
      </trkpt>
      <trkpt lat="39.0666360" lon="1.3879630">
        <ele>285.2</ele>
        <time>2020-02-22T12:26:01Z</time>
      </trkpt>
      <trkpt lat="39.0666260" lon="1.3880070">
        <ele>285.1</ele>
        <time>2020-02-22T12:26:02Z</time>
      </trkpt>
      <trkpt lat="39.0666260" lon="1.3880220">
        <ele>285.0</ele>
        <time>2020-02-22T12:26:03Z</time>
      </trkpt>
      <trkpt lat="39.0666480" lon="1.3880470">
        <ele>284.9</ele>
        <time>2020-02-22T12:26:04Z</time>
      </trkpt>
      <trkpt lat="39.0666730" lon="1.3880680">
        <ele>284.8</ele>
        <time>2020-02-22T12:26:05Z</time>
      </trkpt>
      <trkpt lat="39.0666810" lon="1.3880760">
        <ele>284.7</ele>
        <time>2020-02-22T12:26:06Z</time>
      </trkpt>
      <trkpt lat="39.0666880" lon="1.3880950">
        <ele>284.6</ele>
        <time>2020-02-22T12:26:07Z</time>
      </trkpt>
      <trkpt lat="39.0666910" lon="1.3881100">
        <ele>284.6</ele>
        <time>2020-02-22T12:26:08Z</time>
      </trkpt>
      <trkpt lat="39.0666950" lon="1.3881240">
        <ele>284.5</ele>
        <time>2020-02-22T12:26:09Z</time>
      </trkpt>
      <trkpt lat="39.0667170" lon="1.3881610">
        <ele>284.4</ele>
        <time>2020-02-22T12:26:10Z</time>
      </trkpt>
      <trkpt lat="39.0667260" lon="1.3881740">
        <ele>284.3</ele>
        <time>2020-02-22T12:26:11Z</time>
      </trkpt>
      <trkpt lat="39.0667350" lon="1.3881850">
        <ele>284.3</ele>
        <time>2020-02-22T12:26:12Z</time>
      </trkpt>
      <trkpt lat="39.0667450" lon="1.3881910">
        <ele>284.2</ele>
        <time>2020-02-22T12:26:13Z</time>
      </trkpt>
      <trkpt lat="39.0667490" lon="1.3882060">
        <ele>284.2</ele>
        <time>2020-02-22T12:26:14Z</time>
      </trkpt>
      <trkpt lat="39.0667570" lon="1.3882310">
        <ele>284.1</ele>
        <time>2020-02-22T12:26:15Z</time>
      </trkpt>
      <trkpt lat="39.0667610" lon="1.3882430">
        <ele>284.1</ele>
        <time>2020-02-22T12:26:16Z</time>
      </trkpt>
      <trkpt lat="39.0667640" lon="1.3882550">
        <ele>284.0</ele>
        <time>2020-02-22T12:26:17Z</time>
      </trkpt>
      <trkpt lat="39.0667710" lon="1.3882940">
        <ele>283.8</ele>
        <time>2020-02-22T12:26:18Z</time>
      </trkpt>
      <trkpt lat="39.0667760" lon="1.3883090">
        <ele>283.8</ele>
        <time>2020-02-22T12:26:19Z</time>
      </trkpt>
      <trkpt lat="39.0667940" lon="1.3883360">
        <ele>283.6</ele>
        <time>2020-02-22T12:26:20Z</time>
      </trkpt>
      <trkpt lat="39.0668190" lon="1.3883660">
        <ele>283.5</ele>
        <time>2020-02-22T12:26:21Z</time>
      </trkpt>
      <trkpt lat="39.0668290" lon="1.3883850">
        <ele>283.4</ele>
        <time>2020-02-22T12:26:22Z</time>
      </trkpt>
      <trkpt lat="39.0668270" lon="1.3884050">
        <ele>283.3</ele>
        <time>2020-02-22T12:26:23Z</time>
      </trkpt>
      <trkpt lat="39.0668200" lon="1.3884200">
        <ele>283.2</ele>
        <time>2020-02-22T12:26:24Z</time>
      </trkpt>
      <trkpt lat="39.0668210" lon="1.3884310">
        <ele>283.1</ele>
        <time>2020-02-22T12:26:25Z</time>
      </trkpt>
      <trkpt lat="39.0668210" lon="1.3884430">
        <ele>283.1</ele>
        <time>2020-02-22T12:26:26Z</time>
      </trkpt>
      <trkpt lat="39.0668120" lon="1.3884670">
        <ele>282.9</ele>
        <time>2020-02-22T12:26:27Z</time>
      </trkpt>
      <trkpt lat="39.0668060" lon="1.3884790">
        <ele>282.8</ele>
        <time>2020-02-22T12:26:28Z</time>
      </trkpt>
      <trkpt lat="39.0668010" lon="1.3884900">
        <ele>282.8</ele>
        <time>2020-02-22T12:26:29Z</time>
      </trkpt>
      <trkpt lat="39.0667970" lon="1.3885340">
        <ele>282.5</ele>
        <time>2020-02-22T12:26:30Z</time>
      </trkpt>
      <trkpt lat="39.0667990" lon="1.3885540">
        <ele>282.4</ele>
        <time>2020-02-22T12:26:31Z</time>
      </trkpt>
      <trkpt lat="39.0667990" lon="1.3885890">
        <ele>282.2</ele>
        <time>2020-02-22T12:26:32Z</time>
      </trkpt>
      <trkpt lat="39.0667970" lon="1.3886020">
        <ele>282.2</ele>
        <time>2020-02-22T12:26:33Z</time>
      </trkpt>
      <trkpt lat="39.0667920" lon="1.3886380">
        <ele>282.0</ele>
        <time>2020-02-22T12:26:34Z</time>
      </trkpt>
      <trkpt lat="39.0667940" lon="1.3886910">
        <ele>281.8</ele>
        <time>2020-02-22T12:26:35Z</time>
      </trkpt>
      <trkpt lat="39.0667970" lon="1.3887120">
        <ele>281.7</ele>
        <time>2020-02-22T12:26:36Z</time>
      </trkpt>
      <trkpt lat="39.0668180" lon="1.3887540">
        <ele>281.4</ele>
        <time>2020-02-22T12:26:37Z</time>
      </trkpt>
      <trkpt lat="39.0668290" lon="1.3887890">
        <ele>281.3</ele>
        <time>2020-02-22T12:26:38Z</time>
      </trkpt>
      <trkpt lat="39.0668350" lon="1.3888340">
        <ele>281.0</ele>
        <time>2020-02-22T12:26:39Z</time>
      </trkpt>
      <trkpt lat="39.0668420" lon="1.3888740">
        <ele>280.8</ele>
        <time>2020-02-22T12:26:40Z</time>
      </trkpt>
      <trkpt lat="39.0668510" lon="1.3889110">
        <ele>280.6</ele>
        <time>2020-02-22T12:26:41Z</time>
      </trkpt>
      <trkpt lat="39.0668520" lon="1.3889250">
        <ele>280.6</ele>
        <time>2020-02-22T12:26:42Z</time>
      </trkpt>
      <trkpt lat="39.0668530" lon="1.3889640">
        <ele>280.4</ele>
        <time>2020-02-22T12:26:43Z</time>
      </trkpt>
      <trkpt lat="39.0668500" lon="1.3890060">
        <ele>280.1</ele>
        <time>2020-02-22T12:26:44Z</time>
      </trkpt>
      <trkpt lat="39.0668460" lon="1.3890170">
        <ele>280.1</ele>
        <time>2020-02-22T12:26:45Z</time>
      </trkpt>
      <trkpt lat="39.0668400" lon="1.3890630">
        <ele>279.8</ele>
        <time>2020-02-22T12:26:46Z</time>
      </trkpt>
      <trkpt lat="39.0668380" lon="1.3890800">
        <ele>279.8</ele>
        <time>2020-02-22T12:26:47Z</time>
      </trkpt>
      <trkpt lat="39.0668540" lon="1.3891110">
        <ele>279.6</ele>
        <time>2020-02-22T12:26:48Z</time>
      </trkpt>
      <trkpt lat="39.0668560" lon="1.3891590">
        <ele>279.4</ele>
        <time>2020-02-22T12:26:49Z</time>
      </trkpt>
      <trkpt lat="39.0668570" lon="1.3891780">
        <ele>279.3</ele>
        <time>2020-02-22T12:26:50Z</time>
      </trkpt>
      <trkpt lat="39.0668690" lon="1.3892210">
        <ele>279.1</ele>
        <time>2020-02-22T12:26:51Z</time>
      </trkpt>
      <trkpt lat="39.0668770" lon="1.3892680">
        <ele>279.0</ele>
        <time>2020-02-22T12:26:52Z</time>
      </trkpt>
      <trkpt lat="39.0668800" lon="1.3893040">
        <ele>278.8</ele>
        <time>2020-02-22T12:26:53Z</time>
      </trkpt>
      <trkpt lat="39.0668890" lon="1.3893370">
        <ele>278.7</ele>
        <time>2020-02-22T12:26:54Z</time>
      </trkpt>
      <trkpt lat="39.0668940" lon="1.3893730">
        <ele>278.5</ele>
        <time>2020-02-22T12:26:55Z</time>
      </trkpt>
      <trkpt lat="39.0668840" lon="1.3894330">
        <ele>278.3</ele>
        <time>2020-02-22T12:26:56Z</time>
      </trkpt>
      <trkpt lat="39.0668910" lon="1.3894670">
        <ele>278.2</ele>
        <time>2020-02-22T12:26:57Z</time>
      </trkpt>
      <trkpt lat="39.0669060" lon="1.3895010">
        <ele>278.1</ele>
        <time>2020-02-22T12:26:58Z</time>
      </trkpt>
      <trkpt lat="39.0669090" lon="1.3895100">
        <ele>278.1</ele>
        <time>2020-02-22T12:26:59Z</time>
      </trkpt>
      <trkpt lat="39.0669140" lon="1.3895260">
        <ele>278.0</ele>
        <time>2020-02-22T12:27:00Z</time>
      </trkpt>
      <trkpt lat="39.0669180" lon="1.3895360">
        <ele>278.0</ele>
        <time>2020-02-22T12:27:01Z</time>
      </trkpt>
      <trkpt lat="39.0669220" lon="1.3895450">
        <ele>277.9</ele>
        <time>2020-02-22T12:27:02Z</time>
      </trkpt>
      <trkpt lat="39.0669260" lon="1.3895540">
        <ele>277.9</ele>
        <time>2020-02-22T12:27:03Z</time>
      </trkpt>
      <trkpt lat="39.0669300" lon="1.3895640">
        <ele>277.9</ele>
        <time>2020-02-22T12:27:04Z</time>
      </trkpt>
      <trkpt lat="39.0669340" lon="1.3895730">
        <ele>277.8</ele>
        <time>2020-02-22T12:27:05Z</time>
      </trkpt>
      <trkpt lat="39.0669370" lon="1.3895820">
        <ele>277.8</ele>
        <time>2020-02-22T12:27:06Z</time>
      </trkpt>
      <trkpt lat="39.0669410" lon="1.3895910">
        <ele>277.8</ele>
        <time>2020-02-22T12:27:07Z</time>
      </trkpt>
      <trkpt lat="39.0669450" lon="1.3896010">
        <ele>277.7</ele>
        <time>2020-02-22T12:27:08Z</time>
      </trkpt>
      <trkpt lat="39.0669490" lon="1.3896100">
        <ele>277.7</ele>
        <time>2020-02-22T12:27:09Z</time>
      </trkpt>
      <trkpt lat="39.0669530" lon="1.3896190">
        <ele>277.7</ele>
        <time>2020-02-22T12:28:25Z</time>
      </trkpt>
      <trkpt lat="39.0669570" lon="1.3896290">
        <ele>277.7</ele>
        <time>2020-02-22T12:28:26Z</time>
      </trkpt>
      <trkpt lat="39.0669610" lon="1.3896380">
        <ele>277.6</ele>
        <time>2020-02-22T12:28:27Z</time>
      </trkpt>
      <trkpt lat="39.0669660" lon="1.3896760">
        <ele>277.6</ele>
        <time>2020-02-22T12:28:28Z</time>
      </trkpt>
      <trkpt lat="39.0669800" lon="1.3897220">
        <ele>277.5</ele>
        <time>2020-02-22T12:28:29Z</time>
      </trkpt>
      <trkpt lat="39.0669860" lon="1.3897370">
        <ele>277.5</ele>
        <time>2020-02-22T12:28:30Z</time>
      </trkpt>
      <trkpt lat="39.0670070" lon="1.3897700">
        <ele>277.5</ele>
        <time>2020-02-22T12:28:31Z</time>
      </trkpt>
      <trkpt lat="39.0670150" lon="1.3897790">
        <ele>277.5</ele>
        <time>2020-02-22T12:28:32Z</time>
      </trkpt>
      <trkpt lat="39.0670350" lon="1.3898150">
        <ele>277.5</ele>
        <time>2020-02-22T12:28:33Z</time>
      </trkpt>
      <trkpt lat="39.0670390" lon="1.3898280">
        <ele>277.5</ele>
        <time>2020-02-22T12:28:34Z</time>
      </trkpt>
      <trkpt lat="39.0670710" lon="1.3898620">
        <ele>277.4</ele>
        <time>2020-02-22T12:28:35Z</time>
      </trkpt>
      <trkpt lat="39.0670870" lon="1.3898740">
        <ele>277.4</ele>
        <time>2020-02-22T12:28:36Z</time>
      </trkpt>
      <trkpt lat="39.0671180" lon="1.3899010">
        <ele>277.5</ele>
        <time>2020-02-22T12:28:37Z</time>
      </trkpt>
      <trkpt lat="39.0671470" lon="1.3899330">
        <ele>277.5</ele>
        <time>2020-02-22T12:28:38Z</time>
      </trkpt>
      <trkpt lat="39.0671570" lon="1.3899420">
        <ele>277.5</ele>
        <time>2020-02-22T12:28:39Z</time>
      </trkpt>
      <trkpt lat="39.0671850" lon="1.3899730">
        <ele>277.5</ele>
        <time>2020-02-22T12:28:40Z</time>
      </trkpt>
      <trkpt lat="39.0671960" lon="1.3899840">
        <ele>277.6</ele>
        <time>2020-02-22T12:28:41Z</time>
      </trkpt>
      <trkpt lat="39.0672260" lon="1.3900070">
        <ele>277.6</ele>
        <time>2020-02-22T12:28:42Z</time>
      </trkpt>
      <trkpt lat="39.0672360" lon="1.3900170">
        <ele>277.6</ele>
        <time>2020-02-22T12:28:43Z</time>
      </trkpt>
      <trkpt lat="39.0672600" lon="1.3900400">
        <ele>277.7</ele>
        <time>2020-02-22T12:28:44Z</time>
      </trkpt>
      <trkpt lat="39.0672870" lon="1.3900640">
        <ele>277.7</ele>
        <time>2020-02-22T12:28:45Z</time>
      </trkpt>
      <trkpt lat="39.0673060" lon="1.3901000">
        <ele>277.7</ele>
        <time>2020-02-22T12:28:46Z</time>
      </trkpt>
      <trkpt lat="39.0673130" lon="1.3901120">
        <ele>277.8</ele>
        <time>2020-02-22T12:28:47Z</time>
      </trkpt>
      <trkpt lat="39.0673340" lon="1.3901350">
        <ele>277.8</ele>
        <time>2020-02-22T12:28:48Z</time>
      </trkpt>
      <trkpt lat="39.0673560" lon="1.3901660">
        <ele>277.9</ele>
        <time>2020-02-22T12:28:49Z</time>
      </trkpt>
      <trkpt lat="39.0673640" lon="1.3901790">
        <ele>277.9</ele>
        <time>2020-02-22T12:28:50Z</time>
      </trkpt>
      <trkpt lat="39.0673830" lon="1.3902060">
        <ele>277.9</ele>
        <time>2020-02-22T12:28:51Z</time>
      </trkpt>
      <trkpt lat="39.0673960" lon="1.3902420">
        <ele>278.0</ele>
        <time>2020-02-22T12:28:52Z</time>
      </trkpt>
      <trkpt lat="39.0674020" lon="1.3902530">
        <ele>278.0</ele>
        <time>2020-02-22T12:28:53Z</time>
      </trkpt>
      <trkpt lat="39.0674240" lon="1.3902840">
        <ele>278.0</ele>
        <time>2020-02-22T12:28:54Z</time>
      </trkpt>
      <trkpt lat="39.0674320" lon="1.3902960">
        <ele>278.0</ele>
        <time>2020-02-22T12:28:55Z</time>
      </trkpt>
      <trkpt lat="39.0674550" lon="1.3903330">
        <ele>278.0</ele>
        <time>2020-02-22T12:28:56Z</time>
      </trkpt>
      <trkpt lat="39.0674620" lon="1.3903440">
        <ele>278.0</ele>
        <time>2020-02-22T12:28:57Z</time>
      </trkpt>
      <trkpt lat="39.0674740" lon="1.3903580">
        <ele>278.0</ele>
        <time>2020-02-22T12:28:58Z</time>
      </trkpt>
      <trkpt lat="39.0674860" lon="1.3903770">
        <ele>278.1</ele>
        <time>2020-02-22T12:28:59Z</time>
      </trkpt>
      <trkpt lat="39.0675070" lon="1.3904300">
        <ele>278.1</ele>
        <time>2020-02-22T12:29:00Z</time>
      </trkpt>
      <trkpt lat="39.0675130" lon="1.3904560">
        <ele>278.1</ele>
        <time>2020-02-22T12:29:01Z</time>
      </trkpt>
      <trkpt lat="39.0675220" lon="1.3905120">
        <ele>278.1</ele>
        <time>2020-02-22T12:29:02Z</time>
      </trkpt>
      <trkpt lat="39.0675350" lon="1.3905530">
        <ele>278.2</ele>
        <time>2020-02-22T12:29:03Z</time>
      </trkpt>
      <trkpt lat="39.0675400" lon="1.3905990">
        <ele>278.2</ele>
        <time>2020-02-22T12:29:04Z</time>
      </trkpt>
      <trkpt lat="39.0675520" lon="1.3906420">
        <ele>278.3</ele>
        <time>2020-02-22T12:29:05Z</time>
      </trkpt>
      <trkpt lat="39.0675770" lon="1.3906850">
        <ele>278.3</ele>
        <time>2020-02-22T12:29:06Z</time>
      </trkpt>
      <trkpt lat="39.0675890" lon="1.3907460">
        <ele>278.4</ele>
        <time>2020-02-22T12:29:07Z</time>
      </trkpt>
      <trkpt lat="39.0675950" lon="1.3908010">
        <ele>278.4</ele>
        <time>2020-02-22T12:29:08Z</time>
      </trkpt>
      <trkpt lat="39.0675880" lon="1.3908510">
        <ele>278.5</ele>
        <time>2020-02-22T12:29:09Z</time>
      </trkpt>
      <trkpt lat="39.0675790" lon="1.3908870">
        <ele>278.5</ele>
        <time>2020-02-22T12:29:10Z</time>
      </trkpt>
      <trkpt lat="39.0675790" lon="1.3909290">
        <ele>278.6</ele>
        <time>2020-02-22T12:29:11Z</time>
      </trkpt>
      <trkpt lat="39.0675730" lon="1.3909760">
        <ele>278.6</ele>
        <time>2020-02-22T12:29:12Z</time>
      </trkpt>
      <trkpt lat="39.0675750" lon="1.3910130">
        <ele>278.6</ele>
        <time>2020-02-22T12:29:13Z</time>
      </trkpt>
      <trkpt lat="39.0675690" lon="1.3910580">
        <ele>278.7</ele>
        <time>2020-02-22T12:29:14Z</time>
      </trkpt>
      <trkpt lat="39.0675630" lon="1.3910720">
        <ele>278.7</ele>
        <time>2020-02-22T12:29:15Z</time>
      </trkpt>
      <trkpt lat="39.0675710" lon="1.3911110">
        <ele>278.7</ele>
        <time>2020-02-22T12:29:16Z</time>
      </trkpt>
      <trkpt lat="39.0675580" lon="1.3911610">
        <ele>278.8</ele>
        <time>2020-02-22T12:29:17Z</time>
      </trkpt>
      <trkpt lat="39.0675290" lon="1.3911960">
        <ele>278.9</ele>
        <time>2020-02-22T12:29:18Z</time>
      </trkpt>
      <trkpt lat="39.0675140" lon="1.3912030">
        <ele>278.9</ele>
        <time>2020-02-22T12:29:19Z</time>
      </trkpt>
      <trkpt lat="39.0674750" lon="1.3912180">
        <ele>278.9</ele>
        <time>2020-02-22T12:29:20Z</time>
      </trkpt>
      <trkpt lat="39.0674310" lon="1.3912440">
        <ele>279.0</ele>
        <time>2020-02-22T12:29:21Z</time>
      </trkpt>
      <trkpt lat="39.0673980" lon="1.3912710">
        <ele>279.0</ele>
        <time>2020-02-22T12:29:22Z</time>
      </trkpt>
      <trkpt lat="39.0673700" lon="1.3913160">
        <ele>279.0</ele>
        <time>2020-02-22T12:29:23Z</time>
      </trkpt>
      <trkpt lat="39.0673510" lon="1.3913660">
        <ele>279.0</ele>
        <time>2020-02-22T12:29:24Z</time>
      </trkpt>
      <trkpt lat="39.0673470" lon="1.3914180">
        <ele>279.0</ele>
        <time>2020-02-22T12:29:25Z</time>
      </trkpt>
      <trkpt lat="39.0673280" lon="1.3914830">
        <ele>279.0</ele>
        <time>2020-02-22T12:29:26Z</time>
      </trkpt>
      <trkpt lat="39.0673110" lon="1.3915210">
        <ele>279.0</ele>
        <time>2020-02-22T12:29:27Z</time>
      </trkpt>
      <trkpt lat="39.0672950" lon="1.3915600">
        <ele>279.0</ele>
        <time>2020-02-22T12:29:28Z</time>
      </trkpt>
      <trkpt lat="39.0672750" lon="1.3915970">
        <ele>279.0</ele>
        <time>2020-02-22T12:29:29Z</time>
      </trkpt>
      <trkpt lat="39.0672660" lon="1.3916110">
        <ele>279.0</ele>
        <time>2020-02-22T12:29:30Z</time>
      </trkpt>
      <trkpt lat="39.0672480" lon="1.3916390">
        <ele>278.7</ele>
        <time>2020-02-22T12:29:31Z</time>
      </trkpt>
      <trkpt lat="39.0672390" lon="1.3916450">
        <ele>278.6</ele>
        <time>2020-02-22T12:29:32Z</time>
      </trkpt>
      <trkpt lat="39.0672100" lon="1.3916610">
        <ele>278.5</ele>
        <time>2020-02-22T12:29:33Z</time>
      </trkpt>
      <trkpt lat="39.0671790" lon="1.3916770">
        <ele>278.3</ele>
        <time>2020-02-22T12:29:34Z</time>
      </trkpt>
      <trkpt lat="39.0671540" lon="1.3917050">
        <ele>278.1</ele>
        <time>2020-02-22T12:29:35Z</time>
      </trkpt>
      <trkpt lat="39.0671380" lon="1.3917440">
        <ele>277.9</ele>
        <time>2020-02-22T12:29:36Z</time>
      </trkpt>
      <trkpt lat="39.0671100" lon="1.3917870">
        <ele>277.7</ele>
        <time>2020-02-22T12:29:37Z</time>
      </trkpt>
      <trkpt lat="39.0670900" lon="1.3918290">
        <ele>277.5</ele>
        <time>2020-02-22T12:29:38Z</time>
      </trkpt>
      <trkpt lat="39.0670890" lon="1.3918800">
        <ele>277.3</ele>
        <time>2020-02-22T12:29:39Z</time>
      </trkpt>
      <trkpt lat="39.0670900" lon="1.3919320">
        <ele>277.1</ele>
        <time>2020-02-22T12:29:40Z</time>
      </trkpt>
      <trkpt lat="39.0670820" lon="1.3919860">
        <ele>276.9</ele>
        <time>2020-02-22T12:29:41Z</time>
      </trkpt>
      <trkpt lat="39.0670740" lon="1.3920330">
        <ele>276.7</ele>
        <time>2020-02-22T12:29:42Z</time>
      </trkpt>
      <trkpt lat="39.0670560" lon="1.3920820">
        <ele>276.4</ele>
        <time>2020-02-22T12:29:43Z</time>
      </trkpt>
      <trkpt lat="39.0670390" lon="1.3921380">
        <ele>276.2</ele>
        <time>2020-02-22T12:29:44Z</time>
      </trkpt>
      <trkpt lat="39.0670240" lon="1.3921850">
        <ele>276.0</ele>
        <time>2020-02-22T12:29:45Z</time>
      </trkpt>
      <trkpt lat="39.0670110" lon="1.3922190">
        <ele>275.8</ele>
        <time>2020-02-22T12:29:46Z</time>
      </trkpt>
      <trkpt lat="39.0670090" lon="1.3922570">
        <ele>275.5</ele>
        <time>2020-02-22T12:29:47Z</time>
      </trkpt>
      <trkpt lat="39.0670000" lon="1.3922970">
        <ele>275.2</ele>
        <time>2020-02-22T12:29:48Z</time>
      </trkpt>
      <trkpt lat="39.0669840" lon="1.3923380">
        <ele>274.9</ele>
        <time>2020-02-22T12:29:49Z</time>
      </trkpt>
      <trkpt lat="39.0669700" lon="1.3923890">
        <ele>274.5</ele>
        <time>2020-02-22T12:29:50Z</time>
      </trkpt>
      <trkpt lat="39.0669390" lon="1.3924310">
        <ele>274.1</ele>
        <time>2020-02-22T12:29:51Z</time>
      </trkpt>
      <trkpt lat="39.0669190" lon="1.3924630">
        <ele>273.9</ele>
        <time>2020-02-22T12:29:52Z</time>
      </trkpt>
      <trkpt lat="39.0668940" lon="1.3925000">
        <ele>273.4</ele>
        <time>2020-02-22T12:29:53Z</time>
      </trkpt>
      <trkpt lat="39.0668830" lon="1.3925420">
        <ele>273.0</ele>
        <time>2020-02-22T12:29:54Z</time>
      </trkpt>
      <trkpt lat="39.0668640" lon="1.3925720">
        <ele>272.7</ele>
        <time>2020-02-22T12:29:55Z</time>
      </trkpt>
      <trkpt lat="39.0668420" lon="1.3926090">
        <ele>272.4</ele>
        <time>2020-02-22T12:29:56Z</time>
      </trkpt>
      <trkpt lat="39.0668090" lon="1.3926350">
        <ele>272.0</ele>
        <time>2020-02-22T12:29:57Z</time>
      </trkpt>
      <trkpt lat="39.0667880" lon="1.3926620">
        <ele>271.8</ele>
        <time>2020-02-22T12:29:58Z</time>
      </trkpt>
      <trkpt lat="39.0667680" lon="1.3927030">
        <ele>271.3</ele>
        <time>2020-02-22T12:29:59Z</time>
      </trkpt>
      <trkpt lat="39.0667560" lon="1.3927120">
        <ele>271.1</ele>
        <time>2020-02-22T12:30:00Z</time>
      </trkpt>
      <trkpt lat="39.0667320" lon="1.3927320">
        <ele>270.7</ele>
        <time>2020-02-22T12:30:01Z</time>
      </trkpt>
      <trkpt lat="39.0667240" lon="1.3927380">
        <ele>270.6</ele>
        <time>2020-02-22T12:30:02Z</time>
      </trkpt>
      <trkpt lat="39.0667110" lon="1.3927480">
        <ele>270.3</ele>
        <time>2020-02-22T12:30:03Z</time>
      </trkpt>
      <trkpt lat="39.0666980" lon="1.3927620">
        <ele>269.9</ele>
        <time>2020-02-22T12:30:04Z</time>
      </trkpt>
      <trkpt lat="39.0666760" lon="1.3927720">
        <ele>269.5</ele>
        <time>2020-02-22T12:30:05Z</time>
      </trkpt>
      <trkpt lat="39.0666680" lon="1.3927810">
        <ele>269.3</ele>
        <time>2020-02-22T12:30:06Z</time>
      </trkpt>
      <trkpt lat="39.0666600" lon="1.3927890">
        <ele>269.1</ele>
        <time>2020-02-22T12:30:07Z</time>
      </trkpt>
      <trkpt lat="39.0666520" lon="1.3928040">
        <ele>268.8</ele>
        <time>2020-02-22T12:30:08Z</time>
      </trkpt>
      <trkpt lat="39.0666470" lon="1.3928230">
        <ele>268.5</ele>
        <time>2020-02-22T12:30:09Z</time>
      </trkpt>
      <trkpt lat="39.0666280" lon="1.3928550">
        <ele>268.0</ele>
        <time>2020-02-22T12:30:10Z</time>
      </trkpt>
      <trkpt lat="39.0666210" lon="1.3928650">
        <ele>267.8</ele>
        <time>2020-02-22T12:30:11Z</time>
      </trkpt>
      <trkpt lat="39.0665990" lon="1.3929020">
        <ele>267.3</ele>
        <time>2020-02-22T12:30:12Z</time>
      </trkpt>
      <trkpt lat="39.0665820" lon="1.3929400">
        <ele>266.7</ele>
        <time>2020-02-22T12:30:13Z</time>
      </trkpt>
      <trkpt lat="39.0665780" lon="1.3930030">
        <ele>266.0</ele>
        <time>2020-02-22T12:30:14Z</time>
      </trkpt>
      <trkpt lat="39.0665860" lon="1.3930540">
        <ele>265.6</ele>
        <time>2020-02-22T12:30:15Z</time>
      </trkpt>
      <trkpt lat="39.0665930" lon="1.3931110">
        <ele>265.1</ele>
        <time>2020-02-22T12:30:16Z</time>
      </trkpt>
      <trkpt lat="39.0665960" lon="1.3931690">
        <ele>264.6</ele>
        <time>2020-02-22T12:30:17Z</time>
      </trkpt>
      <trkpt lat="39.0666040" lon="1.3932110">
        <ele>264.2</ele>
        <time>2020-02-22T12:30:18Z</time>
      </trkpt>
      <trkpt lat="39.0666170" lon="1.3932600">
        <ele>263.9</ele>
        <time>2020-02-22T12:30:19Z</time>
      </trkpt>
      <trkpt lat="39.0666330" lon="1.3933030">
        <ele>263.6</ele>
        <time>2020-02-22T12:30:20Z</time>
      </trkpt>
      <trkpt lat="39.0666480" lon="1.3933470">
        <ele>263.2</ele>
        <time>2020-02-22T12:30:21Z</time>
      </trkpt>
      <trkpt lat="39.0666640" lon="1.3933950">
        <ele>262.9</ele>
        <time>2020-02-22T12:30:22Z</time>
      </trkpt>
      <trkpt lat="39.0666830" lon="1.3934360">
        <ele>262.5</ele>
        <time>2020-02-22T12:30:23Z</time>
      </trkpt>
      <trkpt lat="39.0666850" lon="1.3934750">
        <ele>262.2</ele>
        <time>2020-02-22T12:30:24Z</time>
      </trkpt>
      <trkpt lat="39.0666940" lon="1.3935140">
        <ele>262.0</ele>
        <time>2020-02-22T12:30:25Z</time>
      </trkpt>
      <trkpt lat="39.0666880" lon="1.3935500">
        <ele>261.8</ele>
        <time>2020-02-22T12:30:26Z</time>
      </trkpt>
      <trkpt lat="39.0666880" lon="1.3935890">
        <ele>261.7</ele>
        <time>2020-02-22T12:30:27Z</time>
      </trkpt>
      <trkpt lat="39.0666900" lon="1.3936300">
        <ele>261.5</ele>
        <time>2020-02-22T12:30:28Z</time>
      </trkpt>
      <trkpt lat="39.0666970" lon="1.3936770">
        <ele>261.3</ele>
        <time>2020-02-22T12:30:29Z</time>
      </trkpt>
      <trkpt lat="39.0666920" lon="1.3937300">
        <ele>261.1</ele>
        <time>2020-02-22T12:30:30Z</time>
      </trkpt>
      <trkpt lat="39.0666910" lon="1.3937700">
        <ele>260.8</ele>
        <time>2020-02-22T12:30:31Z</time>
      </trkpt>
      <trkpt lat="39.0666870" lon="1.3938110">
        <ele>260.7</ele>
        <time>2020-02-22T12:30:32Z</time>
      </trkpt>
      <trkpt lat="39.0666750" lon="1.3938740">
        <ele>260.4</ele>
        <time>2020-02-22T12:30:33Z</time>
      </trkpt>
      <trkpt lat="39.0666420" lon="1.3939170">
        <ele>260.2</ele>
        <time>2020-02-22T12:30:34Z</time>
      </trkpt>
      <trkpt lat="39.0665960" lon="1.3939620">
        <ele>260.1</ele>
        <time>2020-02-22T12:30:35Z</time>
      </trkpt>
      <trkpt lat="39.0665510" lon="1.3940100">
        <ele>259.9</ele>
        <time>2020-02-22T12:30:36Z</time>
      </trkpt>
      <trkpt lat="39.0665110" lon="1.3940690">
        <ele>259.7</ele>
        <time>2020-02-22T12:30:37Z</time>
      </trkpt>
      <trkpt lat="39.0664750" lon="1.3941410">
        <ele>259.6</ele>
        <time>2020-02-22T12:30:38Z</time>
      </trkpt>
      <trkpt lat="39.0664280" lon="1.3941920">
        <ele>259.4</ele>
        <time>2020-02-22T12:30:39Z</time>
      </trkpt>
      <trkpt lat="39.0663840" lon="1.3942230">
        <ele>259.3</ele>
        <time>2020-02-22T12:30:40Z</time>
      </trkpt>
      <trkpt lat="39.0663430" lon="1.3942590">
        <ele>259.1</ele>
        <time>2020-02-22T12:30:41Z</time>
      </trkpt>
      <trkpt lat="39.0663010" lon="1.3942910">
        <ele>259.0</ele>
        <time>2020-02-22T12:30:42Z</time>
      </trkpt>
      <trkpt lat="39.0662600" lon="1.3943200">
        <ele>258.9</ele>
        <time>2020-02-22T12:30:43Z</time>
      </trkpt>
      <trkpt lat="39.0662170" lon="1.3943620">
        <ele>258.7</ele>
        <time>2020-02-22T12:30:44Z</time>
      </trkpt>
      <trkpt lat="39.0661830" lon="1.3944020">
        <ele>258.6</ele>
        <time>2020-02-22T12:30:45Z</time>
      </trkpt>
      <trkpt lat="39.0661560" lon="1.3944340">
        <ele>258.5</ele>
        <time>2020-02-22T12:30:46Z</time>
      </trkpt>
      <trkpt lat="39.0661260" lon="1.3944780">
        <ele>258.4</ele>
        <time>2020-02-22T12:30:47Z</time>
      </trkpt>
      <trkpt lat="39.0660940" lon="1.3945140">
        <ele>258.2</ele>
        <time>2020-02-22T12:30:48Z</time>
      </trkpt>
      <trkpt lat="39.0660680" lon="1.3945570">
        <ele>258.1</ele>
        <time>2020-02-22T12:30:49Z</time>
      </trkpt>
      <trkpt lat="39.0660410" lon="1.3945910">
        <ele>258.0</ele>
        <time>2020-02-22T12:30:50Z</time>
      </trkpt>
      <trkpt lat="39.0660200" lon="1.3946300">
        <ele>257.8</ele>
        <time>2020-02-22T12:30:51Z</time>
      </trkpt>
      <trkpt lat="39.0659960" lon="1.3946570">
        <ele>257.7</ele>
        <time>2020-02-22T12:30:52Z</time>
      </trkpt>
      <trkpt lat="39.0659720" lon="1.3946910">
        <ele>257.6</ele>
        <time>2020-02-22T12:30:53Z</time>
      </trkpt>
      <trkpt lat="39.0659380" lon="1.3947180">
        <ele>257.5</ele>
        <time>2020-02-22T12:30:54Z</time>
      </trkpt>
      <trkpt lat="39.0659030" lon="1.3947430">
        <ele>257.4</ele>
        <time>2020-02-22T12:30:55Z</time>
      </trkpt>
      <trkpt lat="39.0658690" lon="1.3947670">
        <ele>257.3</ele>
        <time>2020-02-22T12:30:56Z</time>
      </trkpt>
      <trkpt lat="39.0658390" lon="1.3947920">
        <ele>257.1</ele>
        <time>2020-02-22T12:30:57Z</time>
      </trkpt>
      <trkpt lat="39.0658130" lon="1.3948070">
        <ele>257.1</ele>
        <time>2020-02-22T12:30:58Z</time>
      </trkpt>
      <trkpt lat="39.0657810" lon="1.3948170">
        <ele>257.0</ele>
        <time>2020-02-22T12:30:59Z</time>
      </trkpt>
      <trkpt lat="39.0657490" lon="1.3948310">
        <ele>256.9</ele>
        <time>2020-02-22T12:31:00Z</time>
      </trkpt>
      <trkpt lat="39.0657210" lon="1.3948420">
        <ele>256.8</ele>
        <time>2020-02-22T12:31:01Z</time>
      </trkpt>
      <trkpt lat="39.0656940" lon="1.3948480">
        <ele>256.7</ele>
        <time>2020-02-22T12:31:02Z</time>
      </trkpt>
      <trkpt lat="39.0656690" lon="1.3948470">
        <ele>256.6</ele>
        <time>2020-02-22T12:31:03Z</time>
      </trkpt>
      <trkpt lat="39.0656580" lon="1.3948540">
        <ele>256.6</ele>
        <time>2020-02-22T12:31:04Z</time>
      </trkpt>
      <trkpt lat="39.0656330" lon="1.3948780">
        <ele>256.5</ele>
        <time>2020-02-22T12:31:05Z</time>
      </trkpt>
      <trkpt lat="39.0656270" lon="1.3948820">
        <ele>256.5</ele>
        <time>2020-02-22T12:31:06Z</time>
      </trkpt>
      <trkpt lat="39.0656300" lon="1.3949030">
        <ele>256.5</ele>
        <time>2020-02-22T12:31:07Z</time>
      </trkpt>
      <trkpt lat="39.0656520" lon="1.3949150">
        <ele>256.4</ele>
        <time>2020-02-22T12:31:08Z</time>
      </trkpt>
      <trkpt lat="39.0656640" lon="1.3949110">
        <ele>256.4</ele>
        <time>2020-02-22T12:31:09Z</time>
      </trkpt>
      <trkpt lat="39.0656720" lon="1.3949140">
        <ele>256.4</ele>
        <time>2020-02-22T12:31:10Z</time>
      </trkpt>
      <trkpt lat="39.0656780" lon="1.3949230">
        <ele>258.5</ele>
        <time>2020-02-22T12:31:11Z</time>
      </trkpt>
      <trkpt lat="39.0656910" lon="1.3949390">
        <ele>258.9</ele>
        <time>2020-02-22T12:31:12Z</time>
      </trkpt>
      <trkpt lat="39.0657000" lon="1.3949470">
        <ele>259.2</ele>
        <time>2020-02-22T12:31:13Z</time>
      </trkpt>
      <trkpt lat="39.0657280" lon="1.3949600">
        <ele>259.9</ele>
        <time>2020-02-22T12:31:14Z</time>
      </trkpt>
      <trkpt lat="39.0657380" lon="1.3949640">
        <ele>260.1</ele>
        <time>2020-02-22T12:31:15Z</time>
      </trkpt>
      <trkpt lat="39.0657550" lon="1.3949750">
        <ele>260.5</ele>
        <time>2020-02-22T12:31:16Z</time>
      </trkpt>
      <trkpt lat="39.0657710" lon="1.3949820">
        <ele>260.9</ele>
        <time>2020-02-22T12:31:17Z</time>
      </trkpt>
      <trkpt lat="39.0657810" lon="1.3949850">
        <ele>261.1</ele>
        <time>2020-02-22T12:31:18Z</time>
      </trkpt>
      <trkpt lat="39.0657920" lon="1.3949910">
        <ele>262.5</ele>
        <time>2020-02-22T12:31:19Z</time>
      </trkpt>
      <trkpt lat="39.0658030" lon="1.3950010">
        <ele>262.6</ele>
        <time>2020-02-22T12:31:20Z</time>
      </trkpt>
      <trkpt lat="39.0658060" lon="1.3950190">
        <ele>262.7</ele>
        <time>2020-02-22T12:31:21Z</time>
      </trkpt>
      <trkpt lat="39.0658160" lon="1.3950350">
        <ele>262.8</ele>
        <time>2020-02-22T12:31:22Z</time>
      </trkpt>
      <trkpt lat="39.0658360" lon="1.3950660">
        <ele>263.1</ele>
        <time>2020-02-22T12:31:23Z</time>
      </trkpt>
      <trkpt lat="39.0658420" lon="1.3950770">
        <ele>263.1</ele>
        <time>2020-02-22T12:31:24Z</time>
      </trkpt>
      <trkpt lat="39.0658470" lon="1.3950920">
        <ele>263.2</ele>
        <time>2020-02-22T12:31:25Z</time>
      </trkpt>
      <trkpt lat="39.0658570" lon="1.3951070">
        <ele>263.3</ele>
        <time>2020-02-22T12:31:26Z</time>
      </trkpt>
      <trkpt lat="39.0658630" lon="1.3951250">
        <ele>263.4</ele>
        <time>2020-02-22T12:31:27Z</time>
      </trkpt>
      <trkpt lat="39.0658730" lon="1.3951440">
        <ele>263.6</ele>
        <time>2020-02-22T12:31:28Z</time>
      </trkpt>
      <trkpt lat="39.0658820" lon="1.3951580">
        <ele>263.8</ele>
        <time>2020-02-22T12:31:29Z</time>
      </trkpt>
      <trkpt lat="39.0658830" lon="1.3951770">
        <ele>263.9</ele>
        <time>2020-02-22T12:31:30Z</time>
      </trkpt>
      <trkpt lat="39.0658830" lon="1.3951850">
        <ele>264.0</ele>
        <time>2020-02-22T12:31:31Z</time>
      </trkpt>
      <trkpt lat="39.0658830" lon="1.3951960">
        <ele>264.1</ele>
        <time>2020-02-22T12:31:32Z</time>
      </trkpt>
      <trkpt lat="39.0658830" lon="1.3952060">
        <ele>264.2</ele>
        <time>2020-02-22T12:31:33Z</time>
      </trkpt>
      <trkpt lat="39.0658870" lon="1.3952200">
        <ele>264.3</ele>
        <time>2020-02-22T12:31:34Z</time>
      </trkpt>
      <trkpt lat="39.0659070" lon="1.3952230">
        <ele>264.6</ele>
        <time>2020-02-22T12:31:35Z</time>
      </trkpt>
      <trkpt lat="39.0659180" lon="1.3952260">
        <ele>264.7</ele>
        <time>2020-02-22T12:31:36Z</time>
      </trkpt>
      <trkpt lat="39.0659280" lon="1.3952280">
        <ele>264.8</ele>
        <time>2020-02-22T12:31:37Z</time>
      </trkpt>
      <trkpt lat="39.0659450" lon="1.3952330">
        <ele>265.0</ele>
        <time>2020-02-22T12:31:38Z</time>
      </trkpt>
      <trkpt lat="39.0659480" lon="1.3952470">
        <ele>265.2</ele>
        <time>2020-02-22T12:31:39Z</time>
      </trkpt>
      <trkpt lat="39.0659530" lon="1.3952560">
        <ele>265.3</ele>
        <time>2020-02-22T12:31:40Z</time>
      </trkpt>
      <trkpt lat="39.0659610" lon="1.3952780">
        <ele>265.5</ele>
        <time>2020-02-22T12:31:41Z</time>
      </trkpt>
      <trkpt lat="39.0659690" lon="1.3952860">
        <ele>265.7</ele>
        <time>2020-02-22T12:31:42Z</time>
      </trkpt>
      <trkpt lat="39.0659740" lon="1.3953030">
        <ele>265.9</ele>
        <time>2020-02-22T12:31:43Z</time>
      </trkpt>
      <trkpt lat="39.0659740" lon="1.3953240">
        <ele>266.1</ele>
        <time>2020-02-22T12:31:44Z</time>
      </trkpt>
      <trkpt lat="39.0659790" lon="1.3953430">
        <ele>266.3</ele>
        <time>2020-02-22T12:31:45Z</time>
      </trkpt>
      <trkpt lat="39.0659810" lon="1.3953530">
        <ele>266.4</ele>
        <time>2020-02-22T12:31:46Z</time>
      </trkpt>
      <trkpt lat="39.0659840" lon="1.3953620">
        <ele>266.5</ele>
        <time>2020-02-22T12:31:47Z</time>
      </trkpt>
      <trkpt lat="39.0659860" lon="1.3953720">
        <ele>266.6</ele>
        <time>2020-02-22T12:31:48Z</time>
      </trkpt>
      <trkpt lat="39.0660030" lon="1.3953860">
        <ele>266.8</ele>
        <time>2020-02-22T12:31:49Z</time>
      </trkpt>
      <trkpt lat="39.0660120" lon="1.3953900">
        <ele>266.9</ele>
        <time>2020-02-22T12:31:50Z</time>
      </trkpt>
      <trkpt lat="39.0660220" lon="1.3953930">
        <ele>267.0</ele>
        <time>2020-02-22T12:31:51Z</time>
      </trkpt>
      <trkpt lat="39.0660200" lon="1.3954100">
        <ele>267.2</ele>
        <time>2020-02-22T12:31:52Z</time>
      </trkpt>
      <trkpt lat="39.0660190" lon="1.3954290">
        <ele>267.3</ele>
        <time>2020-02-22T12:31:53Z</time>
      </trkpt>
      <trkpt lat="39.0660220" lon="1.3954430">
        <ele>267.4</ele>
        <time>2020-02-22T12:31:54Z</time>
      </trkpt>
      <trkpt lat="39.0660300" lon="1.3954550">
        <ele>267.6</ele>
        <time>2020-02-22T12:31:55Z</time>
      </trkpt>
      <trkpt lat="39.0660410" lon="1.3954610">
        <ele>267.7</ele>
        <time>2020-02-22T12:31:56Z</time>
      </trkpt>
      <trkpt lat="39.0660560" lon="1.3954670">
        <ele>267.9</ele>
        <time>2020-02-22T12:31:57Z</time>
      </trkpt>
      <trkpt lat="39.0660710" lon="1.3954710">
        <ele>268.0</ele>
        <time>2020-02-22T12:31:58Z</time>
      </trkpt>
      <trkpt lat="39.0660770" lon="1.3954810">
        <ele>268.1</ele>
        <time>2020-02-22T12:31:59Z</time>
      </trkpt>
      <trkpt lat="39.0660880" lon="1.3954860">
        <ele>268.2</ele>
        <time>2020-02-22T12:32:00Z</time>
      </trkpt>
      <trkpt lat="39.0660950" lon="1.3954960">
        <ele>268.4</ele>
        <time>2020-02-22T12:32:01Z</time>
      </trkpt>
      <trkpt lat="39.0661020" lon="1.3955130">
        <ele>268.5</ele>
        <time>2020-02-22T12:32:02Z</time>
      </trkpt>
      <trkpt lat="39.0661070" lon="1.3955170">
        <ele>268.6</ele>
        <time>2020-02-22T12:32:03Z</time>
      </trkpt>
      <trkpt lat="39.0661130" lon="1.3955300">
        <ele>268.8</ele>
        <time>2020-02-22T12:32:04Z</time>
      </trkpt>
      <trkpt lat="39.0661290" lon="1.3955460">
        <ele>269.0</ele>
        <time>2020-02-22T12:32:05Z</time>
      </trkpt>
      <trkpt lat="39.0661350" lon="1.3955540">
        <ele>269.1</ele>
        <time>2020-02-22T12:32:06Z</time>
      </trkpt>
      <trkpt lat="39.0661420" lon="1.3955630">
        <ele>269.2</ele>
        <time>2020-02-22T12:32:07Z</time>
      </trkpt>
      <trkpt lat="39.0661530" lon="1.3955830">
        <ele>269.5</ele>
        <time>2020-02-22T12:32:08Z</time>
      </trkpt>
      <trkpt lat="39.0661580" lon="1.3955940">
        <ele>269.6</ele>
        <time>2020-02-22T12:32:09Z</time>
      </trkpt>
      <trkpt lat="39.0661620" lon="1.3956040">
        <ele>269.7</ele>
        <time>2020-02-22T12:32:10Z</time>
      </trkpt>
      <trkpt lat="39.0661830" lon="1.3956300">
        <ele>270.1</ele>
        <time>2020-02-22T12:32:11Z</time>
      </trkpt>
      <trkpt lat="39.0661900" lon="1.3956370">
        <ele>270.2</ele>
        <time>2020-02-22T12:32:12Z</time>
      </trkpt>
      <trkpt lat="39.0662080" lon="1.3956470">
        <ele>270.5</ele>
        <time>2020-02-22T12:32:13Z</time>
      </trkpt>
      <trkpt lat="39.0662140" lon="1.3956550">
        <ele>270.6</ele>
        <time>2020-02-22T12:32:14Z</time>
      </trkpt>
      <trkpt lat="39.0662210" lon="1.3956640">
        <ele>270.8</ele>
        <time>2020-02-22T12:32:15Z</time>
      </trkpt>
      <trkpt lat="39.0662280" lon="1.3956800">
        <ele>271.0</ele>
        <time>2020-02-22T12:32:16Z</time>
      </trkpt>
      <trkpt lat="39.0662440" lon="1.3956860">
        <ele>271.2</ele>
        <time>2020-02-22T12:32:17Z</time>
      </trkpt>
      <trkpt lat="39.0662500" lon="1.3957030">
        <ele>271.5</ele>
        <time>2020-02-22T12:32:18Z</time>
      </trkpt>
      <trkpt lat="39.0662550" lon="1.3957150">
        <ele>271.7</ele>
        <time>2020-02-22T12:32:19Z</time>
      </trkpt>
      <trkpt lat="39.0662580" lon="1.3957190">
        <ele>271.8</ele>
        <time>2020-02-22T12:32:20Z</time>
      </trkpt>
      <trkpt lat="39.0662660" lon="1.3957310">
        <ele>272.0</ele>
        <time>2020-02-22T12:32:21Z</time>
      </trkpt>
      <trkpt lat="39.0662730" lon="1.3957410">
        <ele>272.2</ele>
        <time>2020-02-22T12:32:22Z</time>
      </trkpt>
      <trkpt lat="39.0662770" lon="1.3957520">
        <ele>272.3</ele>
        <time>2020-02-22T12:32:23Z</time>
      </trkpt>
      <trkpt lat="39.0662940" lon="1.3957740">
        <ele>272.8</ele>
        <time>2020-02-22T12:32:24Z</time>
      </trkpt>
      <trkpt lat="39.0663010" lon="1.3957840">
        <ele>273.0</ele>
        <time>2020-02-22T12:32:25Z</time>
      </trkpt>
      <trkpt lat="39.0663070" lon="1.3957950">
        <ele>273.2</ele>
        <time>2020-02-22T12:32:26Z</time>
      </trkpt>
      <trkpt lat="39.0663130" lon="1.3958130">
        <ele>273.5</ele>
        <time>2020-02-22T12:32:27Z</time>
      </trkpt>
      <trkpt lat="39.0663210" lon="1.3958270">
        <ele>273.7</ele>
        <time>2020-02-22T12:32:28Z</time>
      </trkpt>
      <trkpt lat="39.0663210" lon="1.3958400">
        <ele>273.9</ele>
        <time>2020-02-22T12:32:29Z</time>
      </trkpt>
      <trkpt lat="39.0663190" lon="1.3958500">
        <ele>274.1</ele>
        <time>2020-02-22T12:32:30Z</time>
      </trkpt>
      <trkpt lat="39.0663200" lon="1.3958620">
        <ele>274.3</ele>
        <time>2020-02-22T12:32:31Z</time>
      </trkpt>
      <trkpt lat="39.0663200" lon="1.3958690">
        <ele>274.4</ele>
        <time>2020-02-22T12:32:32Z</time>
      </trkpt>
      <trkpt lat="39.0663180" lon="1.3958760">
        <ele>274.5</ele>
        <time>2020-02-22T12:32:33Z</time>
      </trkpt>
      <trkpt lat="39.0663270" lon="1.3958900">
        <ele>274.8</ele>
        <time>2020-02-22T12:32:34Z</time>
      </trkpt>
      <trkpt lat="39.0663300" lon="1.3959010">
        <ele>275.0</ele>
        <time>2020-02-22T12:32:35Z</time>
      </trkpt>
      <trkpt lat="39.0663380" lon="1.3959120">
        <ele>275.2</ele>
        <time>2020-02-22T12:32:36Z</time>
      </trkpt>
      <trkpt lat="39.0663430" lon="1.3959260">
        <ele>275.4</ele>
        <time>2020-02-22T12:32:37Z</time>
      </trkpt>
      <trkpt lat="39.0663470" lon="1.3959270">
        <ele>275.5</ele>
        <time>2020-02-22T12:32:38Z</time>
      </trkpt>
      <trkpt lat="39.0663530" lon="1.3959310">
        <ele>275.7</ele>
        <time>2020-02-22T12:32:39Z</time>
      </trkpt>
      <trkpt lat="39.0663640" lon="1.3959400">
        <ele>275.9</ele>
        <time>2020-02-22T12:32:40Z</time>
      </trkpt>
      <trkpt lat="39.0663650" lon="1.3959470">
        <ele>276.1</ele>
        <time>2020-02-22T12:32:41Z</time>
      </trkpt>
      <trkpt lat="39.0663630" lon="1.3959510">
        <ele>276.1</ele>
        <time>2020-02-22T12:32:42Z</time>
      </trkpt>
      <trkpt lat="39.0663670" lon="1.3959490">
        <ele>276.2</ele>
        <time>2020-02-22T12:32:43Z</time>
      </trkpt>
      <trkpt lat="39.0663670" lon="1.3959500">
        <ele>276.3</ele>
        <time>2020-02-22T12:32:44Z</time>
      </trkpt>
      <trkpt lat="39.0663670" lon="1.3959500">
        <ele>276.3</ele>
        <time>2020-02-22T12:32:45Z</time>
      </trkpt>
      <trkpt lat="39.0663670" lon="1.3959490">
        <ele>276.3</ele>
        <time>2020-02-22T12:32:46Z</time>
      </trkpt>
      <trkpt lat="39.0663680" lon="1.3959490">
        <ele>276.3</ele>
        <time>2020-02-22T12:32:47Z</time>
      </trkpt>
      <trkpt lat="39.0663680" lon="1.3959490">
        <ele>276.3</ele>
        <time>2020-02-22T12:32:48Z</time>
      </trkpt>
      <trkpt lat="39.0663680" lon="1.3959480">
        <ele>276.3</ele>
        <time>2020-02-22T12:32:49Z</time>
      </trkpt>
      <trkpt lat="39.0663680" lon="1.3959480">
        <ele>276.3</ele>
        <time>2020-02-22T12:32:50Z</time>
      </trkpt>
      <trkpt lat="39.0663680" lon="1.3959480">
        <ele>276.3</ele>
        <time>2020-02-22T12:32:51Z</time>
      </trkpt>
      <trkpt lat="39.0663670" lon="1.3959810">
        <ele>276.9</ele>
        <time>2020-02-22T12:32:59Z</time>
      </trkpt>
      <trkpt lat="39.0663680" lon="1.3959950">
        <ele>277.1</ele>
        <time>2020-02-22T12:33:00Z</time>
      </trkpt>
      <trkpt lat="39.0663780" lon="1.3960030">
        <ele>277.4</ele>
        <time>2020-02-22T12:33:01Z</time>
      </trkpt>
      <trkpt lat="39.0663900" lon="1.3960060">
        <ele>277.7</ele>
        <time>2020-02-22T12:33:02Z</time>
      </trkpt>
      <trkpt lat="39.0663960" lon="1.3960110">
        <ele>277.8</ele>
        <time>2020-02-22T12:33:03Z</time>
      </trkpt>
      <trkpt lat="39.0664030" lon="1.3960180">
        <ele>278.1</ele>
        <time>2020-02-22T12:33:04Z</time>
      </trkpt>
      <trkpt lat="39.0664150" lon="1.3960260">
        <ele>278.4</ele>
        <time>2020-02-22T12:33:05Z</time>
      </trkpt>
      <trkpt lat="39.0664260" lon="1.3960290">
        <ele>278.6</ele>
        <time>2020-02-22T12:33:06Z</time>
      </trkpt>
      <trkpt lat="39.0664290" lon="1.3960370">
        <ele>278.8</ele>
        <time>2020-02-22T12:33:07Z</time>
      </trkpt>
      <trkpt lat="39.0664390" lon="1.3960430">
        <ele>279.0</ele>
        <time>2020-02-22T12:33:08Z</time>
      </trkpt>
      <trkpt lat="39.0664440" lon="1.3960450">
        <ele>279.2</ele>
        <time>2020-02-22T12:33:09Z</time>
      </trkpt>
      <trkpt lat="39.0664490" lon="1.3960550">
        <ele>279.4</ele>
        <time>2020-02-22T12:33:10Z</time>
      </trkpt>
      <trkpt lat="39.0664520" lon="1.3960660">
        <ele>279.6</ele>
        <time>2020-02-22T12:33:11Z</time>
      </trkpt>
      <trkpt lat="39.0664550" lon="1.3960750">
        <ele>279.7</ele>
        <time>2020-02-22T12:33:12Z</time>
      </trkpt>
      <trkpt lat="39.0664600" lon="1.3960800">
        <ele>279.9</ele>
        <time>2020-02-22T12:33:13Z</time>
      </trkpt>
      <trkpt lat="39.0664640" lon="1.3960900">
        <ele>280.0</ele>
        <time>2020-02-22T12:33:14Z</time>
      </trkpt>
      <trkpt lat="39.0664650" lon="1.3960960">
        <ele>280.1</ele>
        <time>2020-02-22T12:33:15Z</time>
      </trkpt>
      <trkpt lat="39.0664670" lon="1.3961070">
        <ele>280.3</ele>
        <time>2020-02-22T12:33:16Z</time>
      </trkpt>
      <trkpt lat="39.0664720" lon="1.3961210">
        <ele>280.5</ele>
        <time>2020-02-22T12:33:17Z</time>
      </trkpt>
      <trkpt lat="39.0664730" lon="1.3961310">
        <ele>280.7</ele>
        <time>2020-02-22T12:33:18Z</time>
      </trkpt>
      <trkpt lat="39.0664750" lon="1.3961340">
        <ele>280.7</ele>
        <time>2020-02-22T12:33:19Z</time>
      </trkpt>
      <trkpt lat="39.0664810" lon="1.3961360">
        <ele>280.8</ele>
        <time>2020-02-22T12:33:20Z</time>
      </trkpt>
      <trkpt lat="39.0664880" lon="1.3961420">
        <ele>281.0</ele>
        <time>2020-02-22T12:33:21Z</time>
      </trkpt>
      <trkpt lat="39.0664900" lon="1.3961460">
        <ele>281.1</ele>
        <time>2020-02-22T12:33:22Z</time>
      </trkpt>
      <trkpt lat="39.0664940" lon="1.3961550">
        <ele>281.2</ele>
        <time>2020-02-22T12:33:23Z</time>
      </trkpt>
      <trkpt lat="39.0664980" lon="1.3961620">
        <ele>281.4</ele>
        <time>2020-02-22T12:33:24Z</time>
      </trkpt>
      <trkpt lat="39.0665030" lon="1.3961750">
        <ele>281.6</ele>
        <time>2020-02-22T12:33:25Z</time>
      </trkpt>
      <trkpt lat="39.0665040" lon="1.3961850">
        <ele>281.8</ele>
        <time>2020-02-22T12:33:26Z</time>
      </trkpt>
      <trkpt lat="39.0665090" lon="1.3961930">
        <ele>281.9</ele>
        <time>2020-02-22T12:33:27Z</time>
      </trkpt>
      <trkpt lat="39.0665170" lon="1.3961990">
        <ele>282.1</ele>
        <time>2020-02-22T12:33:28Z</time>
      </trkpt>
      <trkpt lat="39.0665220" lon="1.3962080">
        <ele>282.3</ele>
        <time>2020-02-22T12:33:29Z</time>
      </trkpt>
      <trkpt lat="39.0665300" lon="1.3962060">
        <ele>282.5</ele>
        <time>2020-02-22T12:33:30Z</time>
      </trkpt>
      <trkpt lat="39.0665400" lon="1.3962080">
        <ele>282.7</ele>
        <time>2020-02-22T12:33:31Z</time>
      </trkpt>
      <trkpt lat="39.0665390" lon="1.3962170">
        <ele>282.8</ele>
        <time>2020-02-22T12:33:32Z</time>
      </trkpt>
      <trkpt lat="39.0665440" lon="1.3962300">
        <ele>283.0</ele>
        <time>2020-02-22T12:33:33Z</time>
      </trkpt>
      <trkpt lat="39.0665460" lon="1.3962390">
        <ele>283.2</ele>
        <time>2020-02-22T12:33:34Z</time>
      </trkpt>
      <trkpt lat="39.0665480" lon="1.3962520">
        <ele>283.4</ele>
        <time>2020-02-22T12:33:35Z</time>
      </trkpt>
      <trkpt lat="39.0665540" lon="1.3962620">
        <ele>283.6</ele>
        <time>2020-02-22T12:33:36Z</time>
      </trkpt>
      <trkpt lat="39.0665560" lon="1.3962740">
        <ele>283.8</ele>
        <time>2020-02-22T12:33:37Z</time>
      </trkpt>
      <trkpt lat="39.0665560" lon="1.3962800">
        <ele>283.9</ele>
        <time>2020-02-22T12:33:38Z</time>
      </trkpt>
      <trkpt lat="39.0665560" lon="1.3962900">
        <ele>284.0</ele>
        <time>2020-02-22T12:33:39Z</time>
      </trkpt>
      <trkpt lat="39.0665610" lon="1.3963120">
        <ele>284.4</ele>
        <time>2020-02-22T12:33:40Z</time>
      </trkpt>
      <trkpt lat="39.0665640" lon="1.3963210">
        <ele>284.5</ele>
        <time>2020-02-22T12:33:41Z</time>
      </trkpt>
      <trkpt lat="39.0665660" lon="1.3963300">
        <ele>284.7</ele>
        <time>2020-02-22T12:33:42Z</time>
      </trkpt>
      <trkpt lat="39.0665680" lon="1.3963390">
        <ele>284.9</ele>
        <time>2020-02-22T12:33:43Z</time>
      </trkpt>
      <trkpt lat="39.0665730" lon="1.3963470">
        <ele>285.0</ele>
        <time>2020-02-22T12:33:44Z</time>
      </trkpt>
      <trkpt lat="39.0665750" lon="1.3963520">
        <ele>285.1</ele>
        <time>2020-02-22T12:33:45Z</time>
      </trkpt>
      <trkpt lat="39.0665700" lon="1.3963520">
        <ele>285.2</ele>
        <time>2020-02-22T12:33:46Z</time>
      </trkpt>
      <trkpt lat="39.0665660" lon="1.3963670">
        <ele>285.5</ele>
        <time>2020-02-22T12:33:47Z</time>
      </trkpt>
      <trkpt lat="39.0665700" lon="1.3963770">
        <ele>285.7</ele>
        <time>2020-02-22T12:33:48Z</time>
      </trkpt>
      <trkpt lat="39.0665770" lon="1.3963810">
        <ele>285.8</ele>
        <time>2020-02-22T12:33:49Z</time>
      </trkpt>
      <trkpt lat="39.0665830" lon="1.3963880">
        <ele>286.0</ele>
        <time>2020-02-22T12:33:50Z</time>
      </trkpt>
      <trkpt lat="39.0665870" lon="1.3963940">
        <ele>286.1</ele>
        <time>2020-02-22T12:33:51Z</time>
      </trkpt>
      <trkpt lat="39.0665900" lon="1.3963990">
        <ele>286.2</ele>
        <time>2020-02-22T12:33:52Z</time>
      </trkpt>
      <trkpt lat="39.0665970" lon="1.3964070">
        <ele>286.4</ele>
        <time>2020-02-22T12:33:53Z</time>
      </trkpt>
      <trkpt lat="39.0666050" lon="1.3964130">
        <ele>286.6</ele>
        <time>2020-02-22T12:33:54Z</time>
      </trkpt>
      <trkpt lat="39.0666110" lon="1.3964180">
        <ele>286.7</ele>
        <time>2020-02-22T12:33:55Z</time>
      </trkpt>
      <trkpt lat="39.0666140" lon="1.3964310">
        <ele>286.9</ele>
        <time>2020-02-22T12:33:56Z</time>
      </trkpt>
      <trkpt lat="39.0666200" lon="1.3964420">
        <ele>287.2</ele>
        <time>2020-02-22T12:33:57Z</time>
      </trkpt>
      <trkpt lat="39.0666270" lon="1.3964460">
        <ele>287.3</ele>
        <time>2020-02-22T12:33:58Z</time>
      </trkpt>
      <trkpt lat="39.0666340" lon="1.3964500">
        <ele>287.5</ele>
        <time>2020-02-22T12:33:59Z</time>
      </trkpt>
      <trkpt lat="39.0666450" lon="1.3964650">
        <ele>287.8</ele>
        <time>2020-02-22T12:34:00Z</time>
      </trkpt>
      <trkpt lat="39.0666530" lon="1.3964640">
        <ele>287.9</ele>
        <time>2020-02-22T12:34:01Z</time>
      </trkpt>
      <trkpt lat="39.0666550" lon="1.3964740">
        <ele>288.1</ele>
        <time>2020-02-22T12:34:02Z</time>
      </trkpt>
      <trkpt lat="39.0666600" lon="1.3964860">
        <ele>288.3</ele>
        <time>2020-02-22T12:34:03Z</time>
      </trkpt>
      <trkpt lat="39.0666640" lon="1.3964900">
        <ele>288.4</ele>
        <time>2020-02-22T12:34:04Z</time>
      </trkpt>
      <trkpt lat="39.0666630" lon="1.3964930">
        <ele>288.4</ele>
        <time>2020-02-22T12:34:05Z</time>
      </trkpt>
      <trkpt lat="39.0666660" lon="1.3965120">
        <ele>288.7</ele>
        <time>2020-02-22T12:34:06Z</time>
      </trkpt>
      <trkpt lat="39.0666740" lon="1.3965280">
        <ele>289.0</ele>
        <time>2020-02-22T12:34:07Z</time>
      </trkpt>
      <trkpt lat="39.0666810" lon="1.3965490">
        <ele>289.4</ele>
        <time>2020-02-22T12:34:08Z</time>
      </trkpt>
      <trkpt lat="39.0666830" lon="1.3965600">
        <ele>289.6</ele>
        <time>2020-02-22T12:34:09Z</time>
      </trkpt>
      <trkpt lat="39.0666880" lon="1.3965690">
        <ele>289.8</ele>
        <time>2020-02-22T12:34:10Z</time>
      </trkpt>
      <trkpt lat="39.0666930" lon="1.3965800">
        <ele>290.0</ele>
        <time>2020-02-22T12:34:11Z</time>
      </trkpt>
      <trkpt lat="39.0666970" lon="1.3965910">
        <ele>290.2</ele>
        <time>2020-02-22T12:34:12Z</time>
      </trkpt>
      <trkpt lat="39.0667090" lon="1.3966040">
        <ele>290.5</ele>
        <time>2020-02-22T12:34:13Z</time>
      </trkpt>
      <trkpt lat="39.0667130" lon="1.3966070">
        <ele>290.5</ele>
        <time>2020-02-22T12:34:14Z</time>
      </trkpt>
      <trkpt lat="39.0667200" lon="1.3966110">
        <ele>290.7</ele>
        <time>2020-02-22T12:34:15Z</time>
      </trkpt>
      <trkpt lat="39.0667280" lon="1.3966200">
        <ele>290.9</ele>
        <time>2020-02-22T12:34:16Z</time>
      </trkpt>
      <trkpt lat="39.0667360" lon="1.3966290">
        <ele>291.0</ele>
        <time>2020-02-22T12:34:17Z</time>
      </trkpt>
      <trkpt lat="39.0667480" lon="1.3966430">
        <ele>291.3</ele>
        <time>2020-02-22T12:34:18Z</time>
      </trkpt>
      <trkpt lat="39.0667570" lon="1.3966500">
        <ele>291.5</ele>
        <time>2020-02-22T12:34:19Z</time>
      </trkpt>
      <trkpt lat="39.0667670" lon="1.3966560">
        <ele>291.7</ele>
        <time>2020-02-22T12:34:20Z</time>
      </trkpt>
      <trkpt lat="39.0667770" lon="1.3966600">
        <ele>291.8</ele>
        <time>2020-02-22T12:34:21Z</time>
      </trkpt>
      <trkpt lat="39.0667810" lon="1.3966650">
        <ele>291.9</ele>
        <time>2020-02-22T12:34:22Z</time>
      </trkpt>
      <trkpt lat="39.0667880" lon="1.3966700">
        <ele>292.1</ele>
        <time>2020-02-22T12:34:23Z</time>
      </trkpt>
      <trkpt lat="39.0667920" lon="1.3966790">
        <ele>292.2</ele>
        <time>2020-02-22T12:34:24Z</time>
      </trkpt>
      <trkpt lat="39.0668020" lon="1.3967020">
        <ele>292.5</ele>
        <time>2020-02-22T12:34:25Z</time>
      </trkpt>
      <trkpt lat="39.0668030" lon="1.3967110">
        <ele>292.6</ele>
        <time>2020-02-22T12:34:26Z</time>
      </trkpt>
      <trkpt lat="39.0668050" lon="1.3967190">
        <ele>292.7</ele>
        <time>2020-02-22T12:34:27Z</time>
      </trkpt>
      <trkpt lat="39.0668060" lon="1.3967280">
        <ele>292.8</ele>
        <time>2020-02-22T12:34:28Z</time>
      </trkpt>
      <trkpt lat="39.0668060" lon="1.3967390">
        <ele>293.0</ele>
        <time>2020-02-22T12:34:29Z</time>
      </trkpt>
      <trkpt lat="39.0668040" lon="1.3967340">
        <ele>293.1</ele>
        <time>2020-02-22T12:34:30Z</time>
      </trkpt>
      <trkpt lat="39.0668040" lon="1.3967290">
        <ele>293.1</ele>
        <time>2020-02-22T12:34:31Z</time>
      </trkpt>
      <trkpt lat="39.0668050" lon="1.3967330">
        <ele>293.2</ele>
        <time>2020-02-22T12:34:32Z</time>
      </trkpt>
      <trkpt lat="39.0668060" lon="1.3967370">
        <ele>293.2</ele>
        <time>2020-02-22T12:34:33Z</time>
      </trkpt>
      <trkpt lat="39.0668050" lon="1.3967420">
        <ele>293.3</ele>
        <time>2020-02-22T12:34:34Z</time>
      </trkpt>
      <trkpt lat="39.0668050" lon="1.3967470">
        <ele>293.4</ele>
        <time>2020-02-22T12:34:35Z</time>
      </trkpt>
      <trkpt lat="39.0668080" lon="1.3967540">
        <ele>293.5</ele>
        <time>2020-02-22T12:34:36Z</time>
      </trkpt>
      <trkpt lat="39.0668150" lon="1.3967570">
        <ele>293.6</ele>
        <time>2020-02-22T12:34:37Z</time>
      </trkpt>
      <trkpt lat="39.0668200" lon="1.3967600">
        <ele>293.7</ele>
        <time>2020-02-22T12:34:38Z</time>
      </trkpt>
      <trkpt lat="39.0668170" lon="1.3967780">
        <ele>293.9</ele>
        <time>2020-02-22T12:34:39Z</time>
      </trkpt>
      <trkpt lat="39.0668260" lon="1.3967850">
        <ele>294.1</ele>
        <time>2020-02-22T12:34:40Z</time>
      </trkpt>
      <trkpt lat="39.0668330" lon="1.3967970">
        <ele>294.3</ele>
        <time>2020-02-22T12:34:41Z</time>
      </trkpt>
      <trkpt lat="39.0668390" lon="1.3968040">
        <ele>294.5</ele>
        <time>2020-02-22T12:34:42Z</time>
      </trkpt>
      <trkpt lat="39.0668480" lon="1.3968070">
        <ele>294.7</ele>
        <time>2020-02-22T12:34:43Z</time>
      </trkpt>
      <trkpt lat="39.0668600" lon="1.3968140">
        <ele>294.9</ele>
        <time>2020-02-22T12:34:44Z</time>
      </trkpt>
      <trkpt lat="39.0668770" lon="1.3968250">
        <ele>295.3</ele>
        <time>2020-02-22T12:34:45Z</time>
      </trkpt>
      <trkpt lat="39.0668840" lon="1.3968320">
        <ele>295.4</ele>
        <time>2020-02-22T12:34:46Z</time>
      </trkpt>
      <trkpt lat="39.0668910" lon="1.3968390">
        <ele>295.6</ele>
        <time>2020-02-22T12:34:47Z</time>
      </trkpt>
      <trkpt lat="39.0668960" lon="1.3968450">
        <ele>295.7</ele>
        <time>2020-02-22T12:34:48Z</time>
      </trkpt>
      <trkpt lat="39.0669000" lon="1.3968500">
        <ele>295.8</ele>
        <time>2020-02-22T12:34:49Z</time>
      </trkpt>
      <trkpt lat="39.0668940" lon="1.3968450">
        <ele>296.0</ele>
        <time>2020-02-22T12:34:50Z</time>
      </trkpt>
      <trkpt lat="39.0668990" lon="1.3968490">
        <ele>296.1</ele>
        <time>2020-02-22T12:34:51Z</time>
      </trkpt>
      <trkpt lat="39.0669070" lon="1.3968450">
        <ele>296.2</ele>
        <time>2020-02-22T12:34:52Z</time>
      </trkpt>
      <trkpt lat="39.0669140" lon="1.3968500">
        <ele>296.4</ele>
        <time>2020-02-22T12:34:53Z</time>
      </trkpt>
      <trkpt lat="39.0669180" lon="1.3968520">
        <ele>296.5</ele>
        <time>2020-02-22T12:34:54Z</time>
      </trkpt>
      <trkpt lat="39.0669310" lon="1.3968740">
        <ele>296.8</ele>
        <time>2020-02-22T12:34:55Z</time>
      </trkpt>
      <trkpt lat="39.0669410" lon="1.3968840">
        <ele>297.0</ele>
        <time>2020-02-22T12:34:56Z</time>
      </trkpt>
      <trkpt lat="39.0669400" lon="1.3968900">
        <ele>297.1</ele>
        <time>2020-02-22T12:34:57Z</time>
      </trkpt>
      <trkpt lat="39.0669380" lon="1.3968910">
        <ele>297.2</ele>
        <time>2020-02-22T12:34:58Z</time>
      </trkpt>
      <trkpt lat="39.0669440" lon="1.3969020">
        <ele>297.4</ele>
        <time>2020-02-22T12:34:59Z</time>
      </trkpt>
      <trkpt lat="39.0669480" lon="1.3969160">
        <ele>297.6</ele>
        <time>2020-02-22T12:35:00Z</time>
      </trkpt>
      <trkpt lat="39.0669460" lon="1.3969090">
        <ele>297.7</ele>
        <time>2020-02-22T12:35:01Z</time>
      </trkpt>
      <trkpt lat="39.0669480" lon="1.3969170">
        <ele>297.8</ele>
        <time>2020-02-22T12:35:02Z</time>
      </trkpt>
      <trkpt lat="39.0669530" lon="1.3969240">
        <ele>297.9</ele>
        <time>2020-02-22T12:35:03Z</time>
      </trkpt>
      <trkpt lat="39.0669630" lon="1.3969380">
        <ele>298.1</ele>
        <time>2020-02-22T12:35:04Z</time>
      </trkpt>
      <trkpt lat="39.0669640" lon="1.3969400">
        <ele>298.2</ele>
        <time>2020-02-22T12:35:05Z</time>
      </trkpt>
      <trkpt lat="39.0669650" lon="1.3969410">
        <ele>298.2</ele>
        <time>2020-02-22T12:35:06Z</time>
      </trkpt>
      <trkpt lat="39.0669650" lon="1.3969420">
        <ele>298.2</ele>
        <time>2020-02-22T12:35:07Z</time>
      </trkpt>
      <trkpt lat="39.0669710" lon="1.3969430">
        <ele>298.3</ele>
        <time>2020-02-22T12:35:08Z</time>
      </trkpt>
      <trkpt lat="39.0669770" lon="1.3969560">
        <ele>298.5</ele>
        <time>2020-02-22T12:35:09Z</time>
      </trkpt>
      <trkpt lat="39.0669820" lon="1.3969620">
        <ele>298.6</ele>
        <time>2020-02-22T12:35:10Z</time>
      </trkpt>
      <trkpt lat="39.0669900" lon="1.3969740">
        <ele>298.8</ele>
        <time>2020-02-22T12:35:11Z</time>
      </trkpt>
      <trkpt lat="39.0670010" lon="1.3969920">
        <ele>299.1</ele>
        <time>2020-02-22T12:35:12Z</time>
      </trkpt>
      <trkpt lat="39.0670070" lon="1.3970070">
        <ele>299.3</ele>
        <time>2020-02-22T12:35:13Z</time>
      </trkpt>
      <trkpt lat="39.0670130" lon="1.3970150">
        <ele>299.5</ele>
        <time>2020-02-22T12:35:14Z</time>
      </trkpt>
      <trkpt lat="39.0670230" lon="1.3970210">
        <ele>299.6</ele>
        <time>2020-02-22T12:35:15Z</time>
      </trkpt>
      <trkpt lat="39.0670310" lon="1.3970300">
        <ele>299.8</ele>
        <time>2020-02-22T12:35:16Z</time>
      </trkpt>
      <trkpt lat="39.0670450" lon="1.3970440">
        <ele>300.1</ele>
        <time>2020-02-22T12:35:17Z</time>
      </trkpt>
      <trkpt lat="39.0670550" lon="1.3970630">
        <ele>300.3</ele>
        <time>2020-02-22T12:35:18Z</time>
      </trkpt>
      <trkpt lat="39.0670640" lon="1.3970790">
        <ele>300.6</ele>
        <time>2020-02-22T12:35:19Z</time>
      </trkpt>
      <trkpt lat="39.0670740" lon="1.3970920">
        <ele>300.8</ele>
        <time>2020-02-22T12:35:20Z</time>
      </trkpt>
      <trkpt lat="39.0670810" lon="1.3971120">
        <ele>301.1</ele>
        <time>2020-02-22T12:35:21Z</time>
      </trkpt>
      <trkpt lat="39.0670830" lon="1.3971260">
        <ele>301.2</ele>
        <time>2020-02-22T12:35:22Z</time>
      </trkpt>
      <trkpt lat="39.0670970" lon="1.3971450">
        <ele>301.5</ele>
        <time>2020-02-22T12:35:23Z</time>
      </trkpt>
      <trkpt lat="39.0671040" lon="1.3971510">
        <ele>301.7</ele>
        <time>2020-02-22T12:35:24Z</time>
      </trkpt>
      <trkpt lat="39.0671100" lon="1.3971580">
        <ele>301.8</ele>
        <time>2020-02-22T12:35:25Z</time>
      </trkpt>
      <trkpt lat="39.0671330" lon="1.3971830">
        <ele>302.2</ele>
        <time>2020-02-22T12:35:26Z</time>
      </trkpt>
      <trkpt lat="39.0671400" lon="1.3971900">
        <ele>302.4</ele>
        <time>2020-02-22T12:35:27Z</time>
      </trkpt>
      <trkpt lat="39.0671570" lon="1.3971910">
        <ele>302.7</ele>
        <time>2020-02-22T12:35:28Z</time>
      </trkpt>
      <trkpt lat="39.0671650" lon="1.3971940">
        <ele>302.8</ele>
        <time>2020-02-22T12:35:29Z</time>
      </trkpt>
      <trkpt lat="39.0671730" lon="1.3971970">
        <ele>302.9</ele>
        <time>2020-02-22T12:35:30Z</time>
      </trkpt>
      <trkpt lat="39.0671810" lon="1.3972000">
        <ele>303.1</ele>
        <time>2020-02-22T12:35:31Z</time>
      </trkpt>
      <trkpt lat="39.0671960" lon="1.3972130">
        <ele>303.4</ele>
        <time>2020-02-22T12:35:32Z</time>
      </trkpt>
      <trkpt lat="39.0672050" lon="1.3972180">
        <ele>303.5</ele>
        <time>2020-02-22T12:35:33Z</time>
      </trkpt>
      <trkpt lat="39.0672130" lon="1.3972240">
        <ele>303.7</ele>
        <time>2020-02-22T12:35:34Z</time>
      </trkpt>
      <trkpt lat="39.0672290" lon="1.3972510">
        <ele>304.1</ele>
        <time>2020-02-22T12:35:35Z</time>
      </trkpt>
      <trkpt lat="39.0672360" lon="1.3972630">
        <ele>304.2</ele>
        <time>2020-02-22T12:35:36Z</time>
      </trkpt>
      <trkpt lat="39.0672450" lon="1.3972740">
        <ele>304.4</ele>
        <time>2020-02-22T12:35:37Z</time>
      </trkpt>
      <trkpt lat="39.0672520" lon="1.3972930">
        <ele>304.7</ele>
        <time>2020-02-22T12:35:38Z</time>
      </trkpt>
      <trkpt lat="39.0672640" lon="1.3973040">
        <ele>304.9</ele>
        <time>2020-02-22T12:35:39Z</time>
      </trkpt>
      <trkpt lat="39.0672710" lon="1.3973150">
        <ele>305.1</ele>
        <time>2020-02-22T12:35:40Z</time>
      </trkpt>
      <trkpt lat="39.0672760" lon="1.3973230">
        <ele>305.2</ele>
        <time>2020-02-22T12:35:41Z</time>
      </trkpt>
      <trkpt lat="39.0672870" lon="1.3973370">
        <ele>305.4</ele>
        <time>2020-02-22T12:35:42Z</time>
      </trkpt>
      <trkpt lat="39.0672910" lon="1.3973480">
        <ele>305.5</ele>
        <time>2020-02-22T12:35:43Z</time>
      </trkpt>
      <trkpt lat="39.0672910" lon="1.3973610">
        <ele>305.6</ele>
        <time>2020-02-22T12:35:44Z</time>
      </trkpt>
      <trkpt lat="39.0672930" lon="1.3973750">
        <ele>305.8</ele>
        <time>2020-02-22T12:35:45Z</time>
      </trkpt>
      <trkpt lat="39.0672940" lon="1.3973870">
        <ele>305.9</ele>
        <time>2020-02-22T12:35:46Z</time>
      </trkpt>
      <trkpt lat="39.0672890" lon="1.3974050">
        <ele>306.1</ele>
        <time>2020-02-22T12:35:47Z</time>
      </trkpt>
      <trkpt lat="39.0672980" lon="1.3974220">
        <ele>306.2</ele>
        <time>2020-02-22T12:35:48Z</time>
      </trkpt>
      <trkpt lat="39.0672970" lon="1.3974280">
        <ele>306.3</ele>
        <time>2020-02-22T12:35:49Z</time>
      </trkpt>
      <trkpt lat="39.0672970" lon="1.3974330">
        <ele>306.3</ele>
        <time>2020-02-22T12:35:50Z</time>
      </trkpt>
      <trkpt lat="39.0672970" lon="1.3974380">
        <ele>306.4</ele>
        <time>2020-02-22T12:35:51Z</time>
      </trkpt>
      <trkpt lat="39.0672960" lon="1.3974430">
        <ele>306.4</ele>
        <time>2020-02-22T12:35:52Z</time>
      </trkpt>
      <trkpt lat="39.0672960" lon="1.3974490">
        <ele>306.5</ele>
        <time>2020-02-22T12:35:53Z</time>
      </trkpt>
      <trkpt lat="39.0672960" lon="1.3974540">
        <ele>306.5</ele>
        <time>2020-02-22T12:35:54Z</time>
      </trkpt>
      <trkpt lat="39.0672950" lon="1.3974590">
        <ele>306.6</ele>
        <time>2020-02-22T12:35:55Z</time>
      </trkpt>
      <trkpt lat="39.0672950" lon="1.3974650">
        <ele>306.6</ele>
        <time>2020-02-22T12:35:56Z</time>
      </trkpt>
      <trkpt lat="39.0672940" lon="1.3974700">
        <ele>306.7</ele>
        <time>2020-02-22T12:35:57Z</time>
      </trkpt>
      <trkpt lat="39.0672940" lon="1.3974750">
        <ele>306.7</ele>
        <time>2020-02-22T12:35:58Z</time>
      </trkpt>
      <trkpt lat="39.0672940" lon="1.3974800">
        <ele>306.8</ele>
        <time>2020-02-22T12:35:59Z</time>
      </trkpt>
      <trkpt lat="39.0672930" lon="1.3974860">
        <ele>306.8</ele>
        <time>2020-02-22T12:37:17Z</time>
      </trkpt>
      <trkpt lat="39.0672930" lon="1.3974910">
        <ele>306.9</ele>
        <time>2020-02-22T12:37:18Z</time>
      </trkpt>
      <trkpt lat="39.0672880" lon="1.3975130">
        <ele>307.1</ele>
        <time>2020-02-22T12:37:19Z</time>
      </trkpt>
      <trkpt lat="39.0672850" lon="1.3975310">
        <ele>307.2</ele>
        <time>2020-02-22T12:37:20Z</time>
      </trkpt>
      <trkpt lat="39.0672800" lon="1.3975760">
        <ele>307.6</ele>
        <time>2020-02-22T12:37:21Z</time>
      </trkpt>
      <trkpt lat="39.0672790" lon="1.3975850">
        <ele>307.7</ele>
        <time>2020-02-22T12:37:22Z</time>
      </trkpt>
      <trkpt lat="39.0672700" lon="1.3976200">
        <ele>308.0</ele>
        <time>2020-02-22T12:37:23Z</time>
      </trkpt>
      <trkpt lat="39.0672700" lon="1.3976320">
        <ele>308.1</ele>
        <time>2020-02-22T12:37:24Z</time>
      </trkpt>
      <trkpt lat="39.0672720" lon="1.3976530">
        <ele>308.2</ele>
        <time>2020-02-22T12:37:25Z</time>
      </trkpt>
      <trkpt lat="39.0672730" lon="1.3976760">
        <ele>308.4</ele>
        <time>2020-02-22T12:37:26Z</time>
      </trkpt>
      <trkpt lat="39.0672720" lon="1.3976970">
        <ele>308.6</ele>
        <time>2020-02-22T12:37:27Z</time>
      </trkpt>
      <trkpt lat="39.0672740" lon="1.3977170">
        <ele>308.7</ele>
        <time>2020-02-22T12:37:28Z</time>
      </trkpt>
      <trkpt lat="39.0672720" lon="1.3977370">
        <ele>308.9</ele>
        <time>2020-02-22T12:37:29Z</time>
      </trkpt>
      <trkpt lat="39.0672690" lon="1.3977590">
        <ele>309.1</ele>
        <time>2020-02-22T12:37:30Z</time>
      </trkpt>
      <trkpt lat="39.0672820" lon="1.3977970">
        <ele>309.3</ele>
        <time>2020-02-22T12:37:31Z</time>
      </trkpt>
      <trkpt lat="39.0672840" lon="1.3978090">
        <ele>309.3</ele>
        <time>2020-02-22T12:37:32Z</time>
      </trkpt>
      <trkpt lat="39.0672830" lon="1.3978470">
        <ele>309.5</ele>
        <time>2020-02-22T12:37:33Z</time>
      </trkpt>
      <trkpt lat="39.0672830" lon="1.3978620">
        <ele>309.6</ele>
        <time>2020-02-22T12:37:34Z</time>
      </trkpt>
      <trkpt lat="39.0672810" lon="1.3978790">
        <ele>309.7</ele>
        <time>2020-02-22T12:37:35Z</time>
      </trkpt>
      <trkpt lat="39.0672820" lon="1.3979000">
        <ele>309.8</ele>
        <time>2020-02-22T12:37:36Z</time>
      </trkpt>
      <trkpt lat="39.0672790" lon="1.3979220">
        <ele>309.9</ele>
        <time>2020-02-22T12:37:37Z</time>
      </trkpt>
      <trkpt lat="39.0672810" lon="1.3979440">
        <ele>310.1</ele>
        <time>2020-02-22T12:37:38Z</time>
      </trkpt>
      <trkpt lat="39.0672810" lon="1.3979610">
        <ele>310.2</ele>
        <time>2020-02-22T12:37:39Z</time>
      </trkpt>
      <trkpt lat="39.0672810" lon="1.3979810">
        <ele>310.3</ele>
        <time>2020-02-22T12:37:40Z</time>
      </trkpt>
      <trkpt lat="39.0672800" lon="1.3980010">
        <ele>310.4</ele>
        <time>2020-02-22T12:37:41Z</time>
      </trkpt>
      <trkpt lat="39.0672810" lon="1.3980170">
        <ele>310.5</ele>
        <time>2020-02-22T12:37:42Z</time>
      </trkpt>
      <trkpt lat="39.0672690" lon="1.3980580">
        <ele>310.7</ele>
        <time>2020-02-22T12:37:43Z</time>
      </trkpt>
      <trkpt lat="39.0672690" lon="1.3980700">
        <ele>310.8</ele>
        <time>2020-02-22T12:37:44Z</time>
      </trkpt>
      <trkpt lat="39.0672700" lon="1.3981080">
        <ele>311.0</ele>
        <time>2020-02-22T12:37:45Z</time>
      </trkpt>
      <trkpt lat="39.0672700" lon="1.3981200">
        <ele>311.1</ele>
        <time>2020-02-22T12:37:46Z</time>
      </trkpt>
      <trkpt lat="39.0672760" lon="1.3981620">
        <ele>311.3</ele>
        <time>2020-02-22T12:37:47Z</time>
      </trkpt>
      <trkpt lat="39.0672790" lon="1.3981720">
        <ele>311.4</ele>
        <time>2020-02-22T12:37:48Z</time>
      </trkpt>
      <trkpt lat="39.0672750" lon="1.3981910">
        <ele>311.5</ele>
        <time>2020-02-22T12:37:49Z</time>
      </trkpt>
      <trkpt lat="39.0672740" lon="1.3982080">
        <ele>311.6</ele>
        <time>2020-02-22T12:37:50Z</time>
      </trkpt>
      <trkpt lat="39.0672730" lon="1.3982210">
        <ele>311.6</ele>
        <time>2020-02-22T12:37:51Z</time>
      </trkpt>
      <trkpt lat="39.0672710" lon="1.3982320">
        <ele>311.7</ele>
        <time>2020-02-22T12:37:52Z</time>
      </trkpt>
      <trkpt lat="39.0672690" lon="1.3982450">
        <ele>311.8</ele>
        <time>2020-02-22T12:37:53Z</time>
      </trkpt>
      <trkpt lat="39.0672650" lon="1.3982630">
        <ele>311.9</ele>
        <time>2020-02-22T12:37:54Z</time>
      </trkpt>
      <trkpt lat="39.0672670" lon="1.3982850">
        <ele>312.0</ele>
        <time>2020-02-22T12:37:55Z</time>
      </trkpt>
      <trkpt lat="39.0672660" lon="1.3983080">
        <ele>312.2</ele>
        <time>2020-02-22T12:37:56Z</time>
      </trkpt>
      <trkpt lat="39.0672660" lon="1.3983300">
        <ele>312.3</ele>
        <time>2020-02-22T12:37:57Z</time>
      </trkpt>
      <trkpt lat="39.0672640" lon="1.3983510">
        <ele>312.4</ele>
        <time>2020-02-22T12:37:58Z</time>
      </trkpt>
      <trkpt lat="39.0672620" lon="1.3983760">
        <ele>312.6</ele>
        <time>2020-02-22T12:37:59Z</time>
      </trkpt>
      <trkpt lat="39.0672610" lon="1.3983960">
        <ele>312.7</ele>
        <time>2020-02-22T12:38:00Z</time>
      </trkpt>
      <trkpt lat="39.0672610" lon="1.3984070">
        <ele>312.8</ele>
        <time>2020-02-22T12:38:01Z</time>
      </trkpt>
      <trkpt lat="39.0672630" lon="1.3984200">
        <ele>312.9</ele>
        <time>2020-02-22T12:38:02Z</time>
      </trkpt>
      <trkpt lat="39.0672620" lon="1.3984340">
        <ele>313.0</ele>
        <time>2020-02-22T12:38:03Z</time>
      </trkpt>
      <trkpt lat="39.0672700" lon="1.3984380">
        <ele>313.1</ele>
        <time>2020-02-22T12:38:04Z</time>
      </trkpt>
      <trkpt lat="39.0672660" lon="1.3984360">
        <ele>313.1</ele>
        <time>2020-02-22T12:38:05Z</time>
      </trkpt>
      <trkpt lat="39.0672680" lon="1.3984400">
        <ele>313.1</ele>
        <time>2020-02-22T12:38:06Z</time>
      </trkpt>
      <trkpt lat="39.0672640" lon="1.3984350">
        <ele>313.2</ele>
        <time>2020-02-22T12:38:07Z</time>
      </trkpt>
      <trkpt lat="39.0672650" lon="1.3984350">
        <ele>313.2</ele>
        <time>2020-02-22T12:38:08Z</time>
      </trkpt>
      <trkpt lat="39.0672640" lon="1.3984320">
        <ele>313.2</ele>
        <time>2020-02-22T12:38:09Z</time>
      </trkpt>
      <trkpt lat="39.0672640" lon="1.3984340">
        <ele>313.2</ele>
        <time>2020-02-22T12:38:10Z</time>
      </trkpt>
      <trkpt lat="39.0672640" lon="1.3984340">
        <ele>313.2</ele>
        <time>2020-02-22T12:38:11Z</time>
      </trkpt>
      <trkpt lat="39.0672610" lon="1.3984360">
        <ele>313.3</ele>
        <time>2020-02-22T12:38:12Z</time>
      </trkpt>
      <trkpt lat="39.0672600" lon="1.3984360">
        <ele>313.3</ele>
        <time>2020-02-22T12:38:13Z</time>
      </trkpt>
      <trkpt lat="39.0672600" lon="1.3984360">
        <ele>313.3</ele>
        <time>2020-02-22T12:38:14Z</time>
      </trkpt>
      <trkpt lat="39.0672600" lon="1.3984360">
        <ele>313.3</ele>
        <time>2020-02-22T12:38:15Z</time>
      </trkpt>
      <trkpt lat="39.0672000" lon="1.3984910">
        <ele>313.9</ele>
        <time>2020-02-22T12:38:26Z</time>
      </trkpt>
      <trkpt lat="39.0671870" lon="1.3985080">
        <ele>314.0</ele>
        <time>2020-02-22T12:38:27Z</time>
      </trkpt>
      <trkpt lat="39.0671730" lon="1.3985170">
        <ele>314.1</ele>
        <time>2020-02-22T12:38:28Z</time>
      </trkpt>
      <trkpt lat="39.0671660" lon="1.3985270">
        <ele>314.5</ele>
        <time>2020-02-22T12:38:29Z</time>
      </trkpt>
      <trkpt lat="39.0671570" lon="1.3985330">
        <ele>314.5</ele>
        <time>2020-02-22T12:38:30Z</time>
      </trkpt>
      <trkpt lat="39.0671440" lon="1.3985400">
        <ele>314.6</ele>
        <time>2020-02-22T12:38:31Z</time>
      </trkpt>
      <trkpt lat="39.0671320" lon="1.3985500">
        <ele>314.6</ele>
        <time>2020-02-22T12:38:32Z</time>
      </trkpt>
      <trkpt lat="39.0671160" lon="1.3985780">
        <ele>314.9</ele>
        <time>2020-02-22T12:38:33Z</time>
      </trkpt>
      <trkpt lat="39.0671100" lon="1.3985880">
        <ele>314.9</ele>
        <time>2020-02-22T12:38:34Z</time>
      </trkpt>
      <trkpt lat="39.0670890" lon="1.3986170">
        <ele>315.1</ele>
        <time>2020-02-22T12:38:35Z</time>
      </trkpt>
      <trkpt lat="39.0670820" lon="1.3986290">
        <ele>315.2</ele>
        <time>2020-02-22T12:38:36Z</time>
      </trkpt>
      <trkpt lat="39.0670630" lon="1.3986630">
        <ele>315.3</ele>
        <time>2020-02-22T12:38:37Z</time>
      </trkpt>
      <trkpt lat="39.0670540" lon="1.3986790">
        <ele>315.3</ele>
        <time>2020-02-22T12:38:38Z</time>
      </trkpt>
      <trkpt lat="39.0670430" lon="1.3987160">
        <ele>315.3</ele>
        <time>2020-02-22T12:38:39Z</time>
      </trkpt>
      <trkpt lat="39.0670410" lon="1.3987250">
        <ele>315.3</ele>
        <time>2020-02-22T12:38:40Z</time>
      </trkpt>
      <trkpt lat="39.0670360" lon="1.3987370">
        <ele>315.4</ele>
        <time>2020-02-22T12:38:41Z</time>
      </trkpt>
      <trkpt lat="39.0670210" lon="1.3987490">
        <ele>315.6</ele>
        <time>2020-02-22T12:38:42Z</time>
      </trkpt>
      <trkpt lat="39.0670020" lon="1.3987800">
        <ele>315.3</ele>
        <time>2020-02-22T12:38:43Z</time>
      </trkpt>
      <trkpt lat="39.0669930" lon="1.3987910">
        <ele>315.4</ele>
        <time>2020-02-22T12:38:44Z</time>
      </trkpt>
      <trkpt lat="39.0669760" lon="1.3988130">
        <ele>315.0</ele>
        <time>2020-02-22T12:38:45Z</time>
      </trkpt>
      <trkpt lat="39.0669720" lon="1.3988210">
        <ele>315.1</ele>
        <time>2020-02-22T12:38:46Z</time>
      </trkpt>
      <trkpt lat="39.0669620" lon="1.3988300">
        <ele>315.2</ele>
        <time>2020-02-22T12:38:47Z</time>
      </trkpt>
      <trkpt lat="39.0669480" lon="1.3988490">
        <ele>315.3</ele>
        <time>2020-02-22T12:38:48Z</time>
      </trkpt>
      <trkpt lat="39.0669350" lon="1.3988640">
        <ele>314.8</ele>
        <time>2020-02-22T12:38:49Z</time>
      </trkpt>
      <trkpt lat="39.0669250" lon="1.3988770">
        <ele>314.9</ele>
        <time>2020-02-22T12:38:50Z</time>
      </trkpt>
      <trkpt lat="39.0668990" lon="1.3989120">
        <ele>314.4</ele>
        <time>2020-02-22T12:38:51Z</time>
      </trkpt>
      <trkpt lat="39.0668880" lon="1.3989230">
        <ele>314.5</ele>
        <time>2020-02-22T12:38:52Z</time>
      </trkpt>
      <trkpt lat="39.0668630" lon="1.3989550">
        <ele>314.0</ele>
        <time>2020-02-22T12:38:53Z</time>
      </trkpt>
      <trkpt lat="39.0668400" lon="1.3989910">
        <ele>313.4</ele>
        <time>2020-02-22T12:38:54Z</time>
      </trkpt>
      <trkpt lat="39.0668340" lon="1.3990040">
        <ele>313.5</ele>
        <time>2020-02-22T12:38:55Z</time>
      </trkpt>
      <trkpt lat="39.0668080" lon="1.3990420">
        <ele>312.9</ele>
        <time>2020-02-22T12:38:56Z</time>
      </trkpt>
      <trkpt lat="39.0667980" lon="1.3990550">
        <ele>312.9</ele>
        <time>2020-02-22T12:38:57Z</time>
      </trkpt>
      <trkpt lat="39.0667640" lon="1.3990950">
        <ele>312.3</ele>
        <time>2020-02-22T12:38:58Z</time>
      </trkpt>
      <trkpt lat="39.0667480" lon="1.3991130">
        <ele>312.3</ele>
        <time>2020-02-22T12:38:59Z</time>
      </trkpt>
      <trkpt lat="39.0667140" lon="1.3991380">
        <ele>310.9</ele>
        <time>2020-02-22T12:39:00Z</time>
      </trkpt>
      <trkpt lat="39.0666920" lon="1.3991650">
        <ele>311.0</ele>
        <time>2020-02-22T12:39:01Z</time>
      </trkpt>
      <trkpt lat="39.0666680" lon="1.3992030">
        <ele>310.2</ele>
        <time>2020-02-22T12:39:02Z</time>
      </trkpt>
      <trkpt lat="39.0666590" lon="1.3992130">
        <ele>310.3</ele>
        <time>2020-02-22T12:39:03Z</time>
      </trkpt>
      <trkpt lat="39.0666390" lon="1.3992520">
        <ele>309.6</ele>
        <time>2020-02-22T12:39:04Z</time>
      </trkpt>
      <trkpt lat="39.0666290" lon="1.3992670">
        <ele>309.6</ele>
        <time>2020-02-22T12:39:05Z</time>
      </trkpt>
      <trkpt lat="39.0666090" lon="1.3992980">
        <ele>308.9</ele>
        <time>2020-02-22T12:39:06Z</time>
      </trkpt>
      <trkpt lat="39.0665920" lon="1.3993250">
        <ele>309.0</ele>
        <time>2020-02-22T12:39:07Z</time>
      </trkpt>
      <trkpt lat="39.0665720" lon="1.3993520">
        <ele>308.4</ele>
        <time>2020-02-22T12:39:08Z</time>
      </trkpt>
      <trkpt lat="39.0665440" lon="1.3993680">
        <ele>307.8</ele>
        <time>2020-02-22T12:39:09Z</time>
      </trkpt>
      <trkpt lat="39.0665090" lon="1.3993530">
        <ele>307.3</ele>
        <time>2020-02-22T12:39:10Z</time>
      </trkpt>
      <trkpt lat="39.0664740" lon="1.3993070">
        <ele>306.7</ele>
        <time>2020-02-22T12:39:11Z</time>
      </trkpt>
      <trkpt lat="39.0664620" lon="1.3992750">
        <ele>306.7</ele>
        <time>2020-02-22T12:39:12Z</time>
      </trkpt>
      <trkpt lat="39.0664380" lon="1.3992400">
        <ele>306.0</ele>
        <time>2020-02-22T12:39:13Z</time>
      </trkpt>
      <trkpt lat="39.0664300" lon="1.3992310">
        <ele>306.1</ele>
        <time>2020-02-22T12:39:14Z</time>
      </trkpt>
      <trkpt lat="39.0664170" lon="1.3992130">
        <ele>306.1</ele>
        <time>2020-02-22T12:39:15Z</time>
      </trkpt>
      <trkpt lat="39.0664090" lon="1.3992020">
        <ele>305.4</ele>
        <time>2020-02-22T12:39:16Z</time>
      </trkpt>
      <trkpt lat="39.0664000" lon="1.3991900">
        <ele>305.5</ele>
        <time>2020-02-22T12:39:17Z</time>
      </trkpt>
      <trkpt lat="39.0663950" lon="1.3991730">
        <ele>305.5</ele>
        <time>2020-02-22T12:39:18Z</time>
      </trkpt>
      <trkpt lat="39.0663810" lon="1.3991500">
        <ele>305.5</ele>
        <time>2020-02-22T12:39:19Z</time>
      </trkpt>
      <trkpt lat="39.0663760" lon="1.3991320">
        <ele>304.8</ele>
        <time>2020-02-22T12:39:20Z</time>
      </trkpt>
      <trkpt lat="39.0663690" lon="1.3991180">
        <ele>304.8</ele>
        <time>2020-02-22T12:39:21Z</time>
      </trkpt>
      <trkpt lat="39.0663560" lon="1.3990990">
        <ele>304.8</ele>
        <time>2020-02-22T12:39:22Z</time>
      </trkpt>
      <trkpt lat="39.0663460" lon="1.3990860">
        <ele>304.2</ele>
        <time>2020-02-22T12:39:23Z</time>
      </trkpt>
      <trkpt lat="39.0663400" lon="1.3990460">
        <ele>304.1</ele>
        <time>2020-02-22T12:39:24Z</time>
      </trkpt>
      <trkpt lat="39.0663380" lon="1.3990350">
        <ele>304.0</ele>
        <time>2020-02-22T12:39:25Z</time>
      </trkpt>
      <trkpt lat="39.0663220" lon="1.3990040">
        <ele>304.0</ele>
        <time>2020-02-22T12:39:26Z</time>
      </trkpt>
      <trkpt lat="39.0663160" lon="1.3989950">
        <ele>303.9</ele>
        <time>2020-02-22T12:39:27Z</time>
      </trkpt>
      <trkpt lat="39.0662930" lon="1.3989570">
        <ele>303.3</ele>
        <time>2020-02-22T12:39:28Z</time>
      </trkpt>
      <trkpt lat="39.0662820" lon="1.3989440">
        <ele>303.1</ele>
        <time>2020-02-22T12:39:29Z</time>
      </trkpt>
      <trkpt lat="39.0662550" lon="1.3989060">
        <ele>302.2</ele>
        <time>2020-02-22T12:39:30Z</time>
      </trkpt>
      <trkpt lat="39.0662310" lon="1.3988650">
        <ele>301.3</ele>
        <time>2020-02-22T12:39:31Z</time>
      </trkpt>
      <trkpt lat="39.0662110" lon="1.3988330">
        <ele>300.8</ele>
        <time>2020-02-22T12:39:32Z</time>
      </trkpt>
      <trkpt lat="39.0661890" lon="1.3988090">
        <ele>300.4</ele>
        <time>2020-02-22T12:39:33Z</time>
      </trkpt>
      <trkpt lat="39.0661660" lon="1.3987860">
        <ele>299.9</ele>
        <time>2020-02-22T12:39:34Z</time>
      </trkpt>
      <trkpt lat="39.0661440" lon="1.3987480">
        <ele>298.8</ele>
        <time>2020-02-22T12:39:35Z</time>
      </trkpt>
      <trkpt lat="39.0661180" lon="1.3987050">
        <ele>298.3</ele>
        <time>2020-02-22T12:39:36Z</time>
      </trkpt>
      <trkpt lat="39.0660870" lon="1.3986600">
        <ele>297.1</ele>
        <time>2020-02-22T12:39:37Z</time>
      </trkpt>
      <trkpt lat="39.0660580" lon="1.3986280">
        <ele>295.9</ele>
        <time>2020-02-22T12:39:38Z</time>
      </trkpt>
      <trkpt lat="39.0660250" lon="1.3985980">
        <ele>294.6</ele>
        <time>2020-02-22T12:39:39Z</time>
      </trkpt>
      <trkpt lat="39.0660120" lon="1.3985870">
        <ele>294.1</ele>
        <time>2020-02-22T12:39:40Z</time>
      </trkpt>
      <trkpt lat="39.0659850" lon="1.3985520">
        <ele>293.5</ele>
        <time>2020-02-22T12:39:41Z</time>
      </trkpt>
      <trkpt lat="39.0659560" lon="1.3985310">
        <ele>292.9</ele>
        <time>2020-02-22T12:39:42Z</time>
      </trkpt>
      <trkpt lat="39.0659310" lon="1.3985090">
        <ele>291.7</ele>
        <time>2020-02-22T12:39:43Z</time>
      </trkpt>
      <trkpt lat="39.0659020" lon="1.3984830">
        <ele>291.0</ele>
        <time>2020-02-22T12:39:44Z</time>
      </trkpt>
      <trkpt lat="39.0658760" lon="1.3984680">
        <ele>289.6</ele>
        <time>2020-02-22T12:39:45Z</time>
      </trkpt>
      <trkpt lat="39.0658510" lon="1.3984400">
        <ele>289.6</ele>
        <time>2020-02-22T12:39:46Z</time>
      </trkpt>
      <trkpt lat="39.0658200" lon="1.3983930">
        <ele>287.3</ele>
        <time>2020-02-22T12:39:47Z</time>
      </trkpt>
      <trkpt lat="39.0657890" lon="1.3983690">
        <ele>286.5</ele>
        <time>2020-02-22T12:39:48Z</time>
      </trkpt>
      <trkpt lat="39.0657570" lon="1.3983590">
        <ele>285.9</ele>
        <time>2020-02-22T12:39:49Z</time>
      </trkpt>
      <trkpt lat="39.0657280" lon="1.3983520">
        <ele>284.4</ele>
        <time>2020-02-22T12:39:50Z</time>
      </trkpt>
      <trkpt lat="39.0656950" lon="1.3983360">
        <ele>283.8</ele>
        <time>2020-02-22T12:39:51Z</time>
      </trkpt>
      <trkpt lat="39.0656570" lon="1.3983360">
        <ele>283.2</ele>
        <time>2020-02-22T12:39:52Z</time>
      </trkpt>
      <trkpt lat="39.0656440" lon="1.3983400">
        <ele>282.5</ele>
        <time>2020-02-22T12:39:53Z</time>
      </trkpt>
      <trkpt lat="39.0656200" lon="1.3983630">
        <ele>283.5</ele>
        <time>2020-02-22T12:39:54Z</time>
      </trkpt>
      <trkpt lat="39.0655840" lon="1.3983900">
        <ele>282.7</ele>
        <time>2020-02-22T12:39:55Z</time>
      </trkpt>
      <trkpt lat="39.0655440" lon="1.3984170">
        <ele>282.1</ele>
        <time>2020-02-22T12:39:56Z</time>
      </trkpt>
      <trkpt lat="39.0655070" lon="1.3984480">
        <ele>282.3</ele>
        <time>2020-02-22T12:39:57Z</time>
      </trkpt>
      <trkpt lat="39.0654770" lon="1.3984800">
        <ele>281.6</ele>
        <time>2020-02-22T12:39:58Z</time>
      </trkpt>
      <trkpt lat="39.0654450" lon="1.3985070">
        <ele>281.9</ele>
        <time>2020-02-22T12:39:59Z</time>
      </trkpt>
      <trkpt lat="39.0654170" lon="1.3985390">
        <ele>282.8</ele>
        <time>2020-02-22T12:40:00Z</time>
      </trkpt>
      <trkpt lat="39.0653860" lon="1.3985610">
        <ele>282.2</ele>
        <time>2020-02-22T12:40:01Z</time>
      </trkpt>
      <trkpt lat="39.0653580" lon="1.3985920">
        <ele>282.3</ele>
        <time>2020-02-22T12:40:02Z</time>
      </trkpt>
      <trkpt lat="39.0653480" lon="1.3986040">
        <ele>282.4</ele>
        <time>2020-02-22T12:40:03Z</time>
      </trkpt>
      <trkpt lat="39.0653190" lon="1.3986330">
        <ele>282.5</ele>
        <time>2020-02-22T12:40:04Z</time>
      </trkpt>
      <trkpt lat="39.0653080" lon="1.3986420">
        <ele>281.8</ele>
        <time>2020-02-22T12:40:05Z</time>
      </trkpt>
      <trkpt lat="39.0652840" lon="1.3986640">
        <ele>282.6</ele>
        <time>2020-02-22T12:40:06Z</time>
      </trkpt>
      <trkpt lat="39.0652620" lon="1.3986950">
        <ele>281.9</ele>
        <time>2020-02-22T12:40:07Z</time>
      </trkpt>
      <trkpt lat="39.0652350" lon="1.3987300">
        <ele>282.0</ele>
        <time>2020-02-22T12:40:08Z</time>
      </trkpt>
      <trkpt lat="39.0652070" lon="1.3987660">
        <ele>282.2</ele>
        <time>2020-02-22T12:40:09Z</time>
      </trkpt>
      <trkpt lat="39.0651860" lon="1.3988110">
        <ele>283.0</ele>
        <time>2020-02-22T12:40:10Z</time>
      </trkpt>
      <trkpt lat="39.0651770" lon="1.3988280">
        <ele>283.2</ele>
        <time>2020-02-22T12:40:11Z</time>
      </trkpt>
      <trkpt lat="39.0651460" lon="1.3988570">
        <ele>282.6</ele>
        <time>2020-02-22T12:40:12Z</time>
      </trkpt>
      <trkpt lat="39.0651130" lon="1.3988970">
        <ele>282.7</ele>
        <time>2020-02-22T12:40:13Z</time>
      </trkpt>
      <trkpt lat="39.0650860" lon="1.3989360">
        <ele>283.4</ele>
        <time>2020-02-22T12:40:14Z</time>
      </trkpt>
      <trkpt lat="39.0650460" lon="1.3989860">
        <ele>282.6</ele>
        <time>2020-02-22T12:40:15Z</time>
      </trkpt>
      <trkpt lat="39.0650140" lon="1.3990290">
        <ele>282.6</ele>
        <time>2020-02-22T12:40:16Z</time>
      </trkpt>
      <trkpt lat="39.0649920" lon="1.3990790">
        <ele>283.2</ele>
        <time>2020-02-22T12:40:17Z</time>
      </trkpt>
      <trkpt lat="39.0649680" lon="1.3991160">
        <ele>283.1</ele>
        <time>2020-02-22T12:40:18Z</time>
      </trkpt>
      <trkpt lat="39.0649450" lon="1.3991550">
        <ele>283.0</ele>
        <time>2020-02-22T12:40:19Z</time>
      </trkpt>
      <trkpt lat="39.0649190" lon="1.3991950">
        <ele>283.6</ele>
        <time>2020-02-22T12:40:20Z</time>
      </trkpt>
      <trkpt lat="39.0648890" lon="1.3992330">
        <ele>283.4</ele>
        <time>2020-02-22T12:40:21Z</time>
      </trkpt>
      <trkpt lat="39.0648670" lon="1.3992700">
        <ele>283.2</ele>
        <time>2020-02-22T12:40:22Z</time>
      </trkpt>
      <trkpt lat="39.0648430" lon="1.3992960">
        <ele>282.5</ele>
        <time>2020-02-22T12:40:23Z</time>
      </trkpt>
      <trkpt lat="39.0648180" lon="1.3993250">
        <ele>282.9</ele>
        <time>2020-02-22T12:40:24Z</time>
      </trkpt>
      <trkpt lat="39.0647940" lon="1.3993600">
        <ele>282.4</ele>
        <time>2020-02-22T12:40:25Z</time>
      </trkpt>
      <trkpt lat="39.0647780" lon="1.3993960">
        <ele>281.7</ele>
        <time>2020-02-22T12:40:26Z</time>
      </trkpt>
      <trkpt lat="39.0647570" lon="1.3994340">
        <ele>282.0</ele>
        <time>2020-02-22T12:40:27Z</time>
      </trkpt>
      <trkpt lat="39.0647380" lon="1.3994750">
        <ele>281.1</ele>
        <time>2020-02-22T12:40:28Z</time>
      </trkpt>
      <trkpt lat="39.0647200" lon="1.3995200">
        <ele>281.2</ele>
        <time>2020-02-22T12:40:29Z</time>
      </trkpt>
      <trkpt lat="39.0646960" lon="1.3995660">
        <ele>280.3</ele>
        <time>2020-02-22T12:40:30Z</time>
      </trkpt>
      <trkpt lat="39.0646800" lon="1.3995990">
        <ele>279.4</ele>
        <time>2020-02-22T12:40:31Z</time>
      </trkpt>
      <trkpt lat="39.0646600" lon="1.3996290">
        <ele>279.4</ele>
        <time>2020-02-22T12:40:32Z</time>
      </trkpt>
      <trkpt lat="39.0646420" lon="1.3996660">
        <ele>278.5</ele>
        <time>2020-02-22T12:40:33Z</time>
      </trkpt>
      <trkpt lat="39.0646370" lon="1.3996800">
        <ele>278.5</ele>
        <time>2020-02-22T12:40:34Z</time>
      </trkpt>
      <trkpt lat="39.0646210" lon="1.3997220">
        <ele>278.6</ele>
        <time>2020-02-22T12:40:35Z</time>
      </trkpt>
      <trkpt lat="39.0646170" lon="1.3997340">
        <ele>278.7</ele>
        <time>2020-02-22T12:40:36Z</time>
      </trkpt>
      <trkpt lat="39.0646090" lon="1.3997720">
        <ele>277.7</ele>
        <time>2020-02-22T12:40:37Z</time>
      </trkpt>
      <trkpt lat="39.0646020" lon="1.3998090">
        <ele>277.8</ele>
        <time>2020-02-22T12:40:38Z</time>
      </trkpt>
      <trkpt lat="39.0645950" lon="1.3998540">
        <ele>277.9</ele>
        <time>2020-02-22T12:40:39Z</time>
      </trkpt>
      <trkpt lat="39.0645890" lon="1.3999040">
        <ele>277.9</ele>
        <time>2020-02-22T12:40:40Z</time>
      </trkpt>
      <trkpt lat="39.0645860" lon="1.3999440">
        <ele>277.9</ele>
        <time>2020-02-22T12:40:41Z</time>
      </trkpt>
      <trkpt lat="39.0645750" lon="1.3999900">
        <ele>277.0</ele>
        <time>2020-02-22T12:40:42Z</time>
      </trkpt>
      <trkpt lat="39.0645630" lon="1.4000320">
        <ele>277.0</ele>
        <time>2020-02-22T12:40:43Z</time>
      </trkpt>
      <trkpt lat="39.0645530" lon="1.4000770">
        <ele>277.0</ele>
        <time>2020-02-22T12:40:44Z</time>
      </trkpt>
      <trkpt lat="39.0645400" lon="1.4001140">
        <ele>276.1</ele>
        <time>2020-02-22T12:40:45Z</time>
      </trkpt>
      <trkpt lat="39.0645250" lon="1.4001440">
        <ele>276.2</ele>
        <time>2020-02-22T12:40:46Z</time>
      </trkpt>
      <trkpt lat="39.0645130" lon="1.4001880">
        <ele>275.2</ele>
        <time>2020-02-22T12:40:47Z</time>
      </trkpt>
      <trkpt lat="39.0645120" lon="1.4002300">
        <ele>275.2</ele>
        <time>2020-02-22T12:40:48Z</time>
      </trkpt>
      <trkpt lat="39.0645090" lon="1.4002770">
        <ele>275.2</ele>
        <time>2020-02-22T12:40:49Z</time>
      </trkpt>
      <trkpt lat="39.0645000" lon="1.4003180">
        <ele>275.1</ele>
        <time>2020-02-22T12:40:50Z</time>
      </trkpt>
      <trkpt lat="39.0645070" lon="1.4003610">
        <ele>275.0</ele>
        <time>2020-02-22T12:40:51Z</time>
      </trkpt>
      <trkpt lat="39.0644980" lon="1.4003970">
        <ele>275.0</ele>
        <time>2020-02-22T12:40:52Z</time>
      </trkpt>
      <trkpt lat="39.0644830" lon="1.4004450">
        <ele>274.9</ele>
        <time>2020-02-22T12:40:53Z</time>
      </trkpt>
      <trkpt lat="39.0644680" lon="1.4004870">
        <ele>274.0</ele>
        <time>2020-02-22T12:40:54Z</time>
      </trkpt>
      <trkpt lat="39.0644580" lon="1.4005260">
        <ele>273.9</ele>
        <time>2020-02-22T12:40:55Z</time>
      </trkpt>
      <trkpt lat="39.0644480" lon="1.4005680">
        <ele>272.9</ele>
        <time>2020-02-22T12:40:56Z</time>
      </trkpt>
      <trkpt lat="39.0644390" lon="1.4006150">
        <ele>272.7</ele>
        <time>2020-02-22T12:40:57Z</time>
      </trkpt>
      <trkpt lat="39.0644290" lon="1.4006740">
        <ele>272.2</ele>
        <time>2020-02-22T12:40:58Z</time>
      </trkpt>
      <trkpt lat="39.0644180" lon="1.4007460">
        <ele>271.9</ele>
        <time>2020-02-22T12:40:59Z</time>
      </trkpt>
      <trkpt lat="39.0644180" lon="1.4008160">
        <ele>271.2</ele>
        <time>2020-02-22T12:41:00Z</time>
      </trkpt>
      <trkpt lat="39.0644190" lon="1.4008910">
        <ele>270.4</ele>
        <time>2020-02-22T12:41:01Z</time>
      </trkpt>
      <trkpt lat="39.0644130" lon="1.4009630">
        <ele>269.1</ele>
        <time>2020-02-22T12:41:02Z</time>
      </trkpt>
      <trkpt lat="39.0644080" lon="1.4010240">
        <ele>268.0</ele>
        <time>2020-02-22T12:41:03Z</time>
      </trkpt>
      <trkpt lat="39.0644040" lon="1.4010820">
        <ele>267.3</ele>
        <time>2020-02-22T12:41:04Z</time>
      </trkpt>
      <trkpt lat="39.0643930" lon="1.4011280">
        <ele>266.6</ele>
        <time>2020-02-22T12:41:05Z</time>
      </trkpt>
      <trkpt lat="39.0643880" lon="1.4011680">
        <ele>266.0</ele>
        <time>2020-02-22T12:41:06Z</time>
      </trkpt>
      <trkpt lat="39.0643860" lon="1.4012160">
        <ele>265.3</ele>
        <time>2020-02-22T12:41:07Z</time>
      </trkpt>
      <trkpt lat="39.0643870" lon="1.4012320">
        <ele>264.7</ele>
        <time>2020-02-22T12:41:08Z</time>
      </trkpt>
      <trkpt lat="39.0643940" lon="1.4012480">
        <ele>264.7</ele>
        <time>2020-02-22T12:41:09Z</time>
      </trkpt>
      <trkpt lat="39.0644060" lon="1.4012580">
        <ele>264.8</ele>
        <time>2020-02-22T12:41:10Z</time>
      </trkpt>
      <trkpt lat="39.0644120" lon="1.4012630">
        <ele>264.9</ele>
        <time>2020-02-22T12:41:11Z</time>
      </trkpt>
      <trkpt lat="39.0644170" lon="1.4012720">
        <ele>265.0</ele>
        <time>2020-02-22T12:41:12Z</time>
      </trkpt>
      <trkpt lat="39.0644220" lon="1.4012870">
        <ele>265.1</ele>
        <time>2020-02-22T12:41:13Z</time>
      </trkpt>
      <trkpt lat="39.0644210" lon="1.4013010">
        <ele>265.2</ele>
        <time>2020-02-22T12:41:14Z</time>
      </trkpt>
      <trkpt lat="39.0644160" lon="1.4013100">
        <ele>265.2</ele>
        <time>2020-02-22T12:41:15Z</time>
      </trkpt>
      <trkpt lat="39.0644120" lon="1.4013200">
        <ele>263.8</ele>
        <time>2020-02-22T12:41:16Z</time>
      </trkpt>
      <trkpt lat="39.0644070" lon="1.4013300">
        <ele>263.9</ele>
        <time>2020-02-22T12:41:17Z</time>
      </trkpt>
      <trkpt lat="39.0644030" lon="1.4013390">
        <ele>263.9</ele>
        <time>2020-02-22T12:41:18Z</time>
      </trkpt>
      <trkpt lat="39.0643980" lon="1.4013490">
        <ele>264.0</ele>
        <time>2020-02-22T12:41:19Z</time>
      </trkpt>
      <trkpt lat="39.0643940" lon="1.4013590">
        <ele>263.3</ele>
        <time>2020-02-22T12:41:20Z</time>
      </trkpt>
      <trkpt lat="39.0643890" lon="1.4013680">
        <ele>263.4</ele>
        <time>2020-02-22T12:43:28Z</time>
      </trkpt>
      <trkpt lat="39.0643850" lon="1.4013780">
        <ele>263.5</ele>
        <time>2020-02-22T12:43:29Z</time>
      </trkpt>
      <trkpt lat="39.0643770" lon="1.4014150">
        <ele>262.0</ele>
        <time>2020-02-22T12:43:30Z</time>
      </trkpt>
      <trkpt lat="39.0643750" lon="1.4014240">
        <ele>262.1</ele>
        <time>2020-02-22T12:43:31Z</time>
      </trkpt>
      <trkpt lat="39.0643670" lon="1.4014650">
        <ele>261.3</ele>
        <time>2020-02-22T12:43:32Z</time>
      </trkpt>
      <trkpt lat="39.0643640" lon="1.4014830">
        <ele>261.4</ele>
        <time>2020-02-22T12:43:33Z</time>
      </trkpt>
      <trkpt lat="39.0643610" lon="1.4015220">
        <ele>260.6</ele>
        <time>2020-02-22T12:43:34Z</time>
      </trkpt>
      <trkpt lat="39.0643560" lon="1.4015630">
        <ele>259.8</ele>
        <time>2020-02-22T12:43:35Z</time>
      </trkpt>
      <trkpt lat="39.0643590" lon="1.4016160">
        <ele>258.0</ele>
        <time>2020-02-22T12:43:36Z</time>
      </trkpt>
      <trkpt lat="39.0643630" lon="1.4016520">
        <ele>258.1</ele>
        <time>2020-02-22T12:43:37Z</time>
      </trkpt>
      <trkpt lat="39.0643660" lon="1.4016660">
        <ele>257.2</ele>
        <time>2020-02-22T12:43:38Z</time>
      </trkpt>
      <trkpt lat="39.0643690" lon="1.4016770">
        <ele>257.2</ele>
        <time>2020-02-22T12:43:39Z</time>
      </trkpt>
      <trkpt lat="39.0643710" lon="1.4016830">
        <ele>257.3</ele>
        <time>2020-02-22T12:43:40Z</time>
      </trkpt>
      <trkpt lat="39.0643600" lon="1.4016970">
        <ele>257.3</ele>
        <time>2020-02-22T12:43:41Z</time>
      </trkpt>
      <trkpt lat="39.0643580" lon="1.4017100">
        <ele>256.5</ele>
        <time>2020-02-22T12:43:42Z</time>
      </trkpt>
      <trkpt lat="39.0643590" lon="1.4017310">
        <ele>256.5</ele>
        <time>2020-02-22T12:43:43Z</time>
      </trkpt>
      <trkpt lat="39.0643540" lon="1.4017420">
        <ele>256.6</ele>
        <time>2020-02-22T12:43:44Z</time>
      </trkpt>
      <trkpt lat="39.0643530" lon="1.4017740">
        <ele>255.7</ele>
        <time>2020-02-22T12:43:45Z</time>
      </trkpt>
      <trkpt lat="39.0643550" lon="1.4017930">
        <ele>254.8</ele>
        <time>2020-02-22T12:43:46Z</time>
      </trkpt>
      <trkpt lat="39.0643720" lon="1.4018250">
        <ele>254.9</ele>
        <time>2020-02-22T12:43:47Z</time>
      </trkpt>
      <trkpt lat="39.0643910" lon="1.4018460">
        <ele>254.6</ele>
        <time>2020-02-22T12:43:48Z</time>
      </trkpt>
      <trkpt lat="39.0643980" lon="1.4018480">
        <ele>254.7</ele>
        <time>2020-02-22T12:43:49Z</time>
      </trkpt>
      <trkpt lat="39.0644140" lon="1.4018660">
        <ele>254.7</ele>
        <time>2020-02-22T12:43:50Z</time>
      </trkpt>
      <trkpt lat="39.0644210" lon="1.4018790">
        <ele>254.4</ele>
        <time>2020-02-22T12:43:51Z</time>
      </trkpt>
      <trkpt lat="39.0644290" lon="1.4018910">
        <ele>254.4</ele>
        <time>2020-02-22T12:43:52Z</time>
      </trkpt>
      <trkpt lat="39.0644380" lon="1.4019090">
        <ele>254.5</ele>
        <time>2020-02-22T12:43:53Z</time>
      </trkpt>
      <trkpt lat="39.0644470" lon="1.4019280">
        <ele>253.5</ele>
        <time>2020-02-22T12:43:54Z</time>
      </trkpt>
      <trkpt lat="39.0644520" lon="1.4019440">
        <ele>254.1</ele>
        <time>2020-02-22T12:43:55Z</time>
      </trkpt>
      <trkpt lat="39.0644580" lon="1.4019700">
        <ele>253.1</ele>
        <time>2020-02-22T12:43:56Z</time>
      </trkpt>
      <trkpt lat="39.0644680" lon="1.4020050">
        <ele>252.0</ele>
        <time>2020-02-22T12:43:57Z</time>
      </trkpt>
      <trkpt lat="39.0644700" lon="1.4020180">
        <ele>252.1</ele>
        <time>2020-02-22T12:43:58Z</time>
      </trkpt>
      <trkpt lat="39.0644810" lon="1.4020600">
        <ele>251.1</ele>
        <time>2020-02-22T12:43:59Z</time>
      </trkpt>
      <trkpt lat="39.0644840" lon="1.4020710">
        <ele>251.7</ele>
        <time>2020-02-22T12:44:00Z</time>
      </trkpt>
      <trkpt lat="39.0644970" lon="1.4021200">
        <ele>250.7</ele>
        <time>2020-02-22T12:44:01Z</time>
      </trkpt>
      <trkpt lat="39.0645010" lon="1.4021380">
        <ele>249.9</ele>
        <time>2020-02-22T12:44:02Z</time>
      </trkpt>
      <trkpt lat="39.0645030" lon="1.4021710">
        <ele>249.9</ele>
        <time>2020-02-22T12:44:03Z</time>
      </trkpt>
      <trkpt lat="39.0645030" lon="1.4021850">
        <ele>249.1</ele>
        <time>2020-02-22T12:44:04Z</time>
      </trkpt>
      <trkpt lat="39.0645170" lon="1.4022250">
        <ele>248.8</ele>
        <time>2020-02-22T12:44:05Z</time>
      </trkpt>
      <trkpt lat="39.0645260" lon="1.4022450">
        <ele>248.8</ele>
        <time>2020-02-22T12:44:06Z</time>
      </trkpt>
      <trkpt lat="39.0645440" lon="1.4022850">
        <ele>248.1</ele>
        <time>2020-02-22T12:44:07Z</time>
      </trkpt>
      <trkpt lat="39.0645600" lon="1.4023310">
        <ele>247.8</ele>
        <time>2020-02-22T12:44:08Z</time>
      </trkpt>
      <trkpt lat="39.0645810" lon="1.4023930">
        <ele>246.1</ele>
        <time>2020-02-22T12:44:09Z</time>
      </trkpt>
      <trkpt lat="39.0646010" lon="1.4024430">
        <ele>245.7</ele>
        <time>2020-02-22T12:44:10Z</time>
      </trkpt>
      <trkpt lat="39.0646130" lon="1.4024780">
        <ele>244.8</ele>
        <time>2020-02-22T12:44:11Z</time>
      </trkpt>
      <trkpt lat="39.0646160" lon="1.4024890">
        <ele>245.4</ele>
        <time>2020-02-22T12:44:12Z</time>
      </trkpt>
      <trkpt lat="39.0646270" lon="1.4025220">
        <ele>244.6</ele>
        <time>2020-02-22T12:44:13Z</time>
      </trkpt>
      <trkpt lat="39.0646380" lon="1.4025580">
        <ele>244.6</ele>
        <time>2020-02-22T12:44:14Z</time>
      </trkpt>
      <trkpt lat="39.0646420" lon="1.4025740">
        <ele>243.9</ele>
        <time>2020-02-22T12:44:15Z</time>
      </trkpt>
      <trkpt lat="39.0646500" lon="1.4026090">
        <ele>243.8</ele>
        <time>2020-02-22T12:44:16Z</time>
      </trkpt>
      <trkpt lat="39.0646570" lon="1.4026570">
        <ele>243.2</ele>
        <time>2020-02-22T12:44:17Z</time>
      </trkpt>
      <trkpt lat="39.0646580" lon="1.4026730">
        <ele>243.3</ele>
        <time>2020-02-22T12:44:18Z</time>
      </trkpt>
      <trkpt lat="39.0646520" lon="1.4027070">
        <ele>242.8</ele>
        <time>2020-02-22T12:44:19Z</time>
      </trkpt>
      <trkpt lat="39.0646550" lon="1.4027480">
        <ele>242.3</ele>
        <time>2020-02-22T12:44:20Z</time>
      </trkpt>
      <trkpt lat="39.0646560" lon="1.4027890">
        <ele>241.8</ele>
        <time>2020-02-22T12:44:21Z</time>
      </trkpt>
      <trkpt lat="39.0646530" lon="1.4028240">
        <ele>241.3</ele>
        <time>2020-02-22T12:44:22Z</time>
      </trkpt>
      <trkpt lat="39.0646470" lon="1.4028650">
        <ele>240.3</ele>
        <time>2020-02-22T12:44:23Z</time>
      </trkpt>
      <trkpt lat="39.0646440" lon="1.4029030">
        <ele>239.9</ele>
        <time>2020-02-22T12:44:24Z</time>
      </trkpt>
      <trkpt lat="39.0646430" lon="1.4029490">
        <ele>239.5</ele>
        <time>2020-02-22T12:44:25Z</time>
      </trkpt>
      <trkpt lat="39.0646430" lon="1.4029610">
        <ele>239.5</ele>
        <time>2020-02-22T12:44:26Z</time>
      </trkpt>
      <trkpt lat="39.0646430" lon="1.4029820">
        <ele>239.6</ele>
        <time>2020-02-22T12:44:27Z</time>
      </trkpt>
      <trkpt lat="39.0646520" lon="1.4030020">
        <ele>239.8</ele>
        <time>2020-02-22T12:44:28Z</time>
      </trkpt>
      <trkpt lat="39.0646600" lon="1.4030470">
        <ele>239.5</ele>
        <time>2020-02-22T12:44:29Z</time>
      </trkpt>
      <trkpt lat="39.0646630" lon="1.4030640">
        <ele>239.6</ele>
        <time>2020-02-22T12:44:30Z</time>
      </trkpt>
      <trkpt lat="39.0646780" lon="1.4031000">
        <ele>239.3</ele>
        <time>2020-02-22T12:44:31Z</time>
      </trkpt>
      <trkpt lat="39.0646880" lon="1.4031340">
        <ele>239.7</ele>
        <time>2020-02-22T12:44:32Z</time>
      </trkpt>
      <trkpt lat="39.0647060" lon="1.4031630">
        <ele>239.4</ele>
        <time>2020-02-22T12:44:33Z</time>
      </trkpt>
      <trkpt lat="39.0647180" lon="1.4031990">
        <ele>240.2</ele>
        <time>2020-02-22T12:44:34Z</time>
      </trkpt>
      <trkpt lat="39.0647200" lon="1.4032440">
        <ele>240.0</ele>
        <time>2020-02-22T12:44:35Z</time>
      </trkpt>
      <trkpt lat="39.0647210" lon="1.4032560">
        <ele>239.8</ele>
        <time>2020-02-22T12:44:36Z</time>
      </trkpt>
      <trkpt lat="39.0647110" lon="1.4033030">
        <ele>238.8</ele>
        <time>2020-02-22T12:44:37Z</time>
      </trkpt>
      <trkpt lat="39.0647080" lon="1.4033160">
        <ele>238.9</ele>
        <time>2020-02-22T12:44:38Z</time>
      </trkpt>
      <trkpt lat="39.0646980" lon="1.4033310">
        <ele>238.9</ele>
        <time>2020-02-22T12:44:39Z</time>
      </trkpt>
      <trkpt lat="39.0646920" lon="1.4033460">
        <ele>238.7</ele>
        <time>2020-02-22T12:44:40Z</time>
      </trkpt>
      <trkpt lat="39.0646830" lon="1.4033510">
        <ele>238.8</ele>
        <time>2020-02-22T12:44:41Z</time>
      </trkpt>
      <trkpt lat="39.0646780" lon="1.4033620">
        <ele>238.2</ele>
        <time>2020-02-22T12:44:42Z</time>
      </trkpt>
      <trkpt lat="39.0646730" lon="1.4033720">
        <ele>238.2</ele>
        <time>2020-02-22T12:44:43Z</time>
      </trkpt>
      <trkpt lat="39.0646670" lon="1.4033830">
        <ele>238.1</ele>
        <time>2020-02-22T12:44:44Z</time>
      </trkpt>
      <trkpt lat="39.0646620" lon="1.4033940">
        <ele>238.1</ele>
        <time>2020-02-22T12:44:45Z</time>
      </trkpt>
      <trkpt lat="39.0646570" lon="1.4034050">
        <ele>238.2</ele>
        <time>2020-02-22T12:44:46Z</time>
      </trkpt>
      <trkpt lat="39.0646520" lon="1.4034150">
        <ele>238.0</ele>
        <time>2020-02-22T12:44:47Z</time>
      </trkpt>
      <trkpt lat="39.0646470" lon="1.4034260">
        <ele>237.8</ele>
        <time>2020-02-22T12:44:48Z</time>
      </trkpt>
      <trkpt lat="39.0646420" lon="1.4034370">
        <ele>237.7</ele>
        <time>2020-02-22T12:44:49Z</time>
      </trkpt>
      <trkpt lat="39.0646360" lon="1.4034480">
        <ele>237.5</ele>
        <time>2020-02-22T12:44:50Z</time>
      </trkpt>
      <trkpt lat="39.0646310" lon="1.4034580">
        <ele>237.3</ele>
        <time>2020-02-22T12:45:21Z</time>
      </trkpt>
      <trkpt lat="39.0646260" lon="1.4034690">
        <ele>237.1</ele>
        <time>2020-02-22T12:45:22Z</time>
      </trkpt>
      <trkpt lat="39.0645950" lon="1.4035040">
        <ele>236.4</ele>
        <time>2020-02-22T12:45:23Z</time>
      </trkpt>
      <trkpt lat="39.0645850" lon="1.4035180">
        <ele>236.1</ele>
        <time>2020-02-22T12:45:24Z</time>
      </trkpt>
      <trkpt lat="39.0645490" lon="1.4035460">
        <ele>235.4</ele>
        <time>2020-02-22T12:45:25Z</time>
      </trkpt>
      <trkpt lat="39.0645010" lon="1.4035950">
        <ele>234.5</ele>
        <time>2020-02-22T12:45:26Z</time>
      </trkpt>
      <trkpt lat="39.0644570" lon="1.4036540">
        <ele>233.5</ele>
        <time>2020-02-22T12:45:27Z</time>
      </trkpt>
      <trkpt lat="39.0644150" lon="1.4037000">
        <ele>232.6</ele>
        <time>2020-02-22T12:45:28Z</time>
      </trkpt>
      <trkpt lat="39.0643750" lon="1.4037430">
        <ele>231.9</ele>
        <time>2020-02-22T12:45:29Z</time>
      </trkpt>
      <trkpt lat="39.0643340" lon="1.4037920">
        <ele>231.2</ele>
        <time>2020-02-22T12:45:30Z</time>
      </trkpt>
      <trkpt lat="39.0643020" lon="1.4038250">
        <ele>230.7</ele>
        <time>2020-02-22T12:45:31Z</time>
      </trkpt>
      <trkpt lat="39.0642630" lon="1.4038750">
        <ele>230.1</ele>
        <time>2020-02-22T12:45:32Z</time>
      </trkpt>
      <trkpt lat="39.0642190" lon="1.4039160">
        <ele>229.5</ele>
        <time>2020-02-22T12:45:33Z</time>
      </trkpt>
      <trkpt lat="39.0641800" lon="1.4039640">
        <ele>228.9</ele>
        <time>2020-02-22T12:45:34Z</time>
      </trkpt>
      <trkpt lat="39.0641420" lon="1.4040120">
        <ele>228.3</ele>
        <time>2020-02-22T12:45:35Z</time>
      </trkpt>
      <trkpt lat="39.0641010" lon="1.4040610">
        <ele>227.6</ele>
        <time>2020-02-22T12:45:36Z</time>
      </trkpt>
      <trkpt lat="39.0640640" lon="1.4041100">
        <ele>227.0</ele>
        <time>2020-02-22T12:45:37Z</time>
      </trkpt>
      <trkpt lat="39.0640280" lon="1.4041540">
        <ele>226.5</ele>
        <time>2020-02-22T12:45:38Z</time>
      </trkpt>
      <trkpt lat="39.0639900" lon="1.4041910">
        <ele>226.2</ele>
        <time>2020-02-22T12:45:39Z</time>
      </trkpt>
      <trkpt lat="39.0639660" lon="1.4042220">
        <ele>225.9</ele>
        <time>2020-02-22T12:45:40Z</time>
      </trkpt>
      <trkpt lat="39.0639370" lon="1.4042560">
        <ele>225.5</ele>
        <time>2020-02-22T12:45:41Z</time>
      </trkpt>
      <trkpt lat="39.0639050" lon="1.4042920">
        <ele>225.2</ele>
        <time>2020-02-22T12:45:42Z</time>
      </trkpt>
      <trkpt lat="39.0638760" lon="1.4043310">
        <ele>224.7</ele>
        <time>2020-02-22T12:45:43Z</time>
      </trkpt>
      <trkpt lat="39.0638520" lon="1.4043760">
        <ele>224.1</ele>
        <time>2020-02-22T12:45:44Z</time>
      </trkpt>
      <trkpt lat="39.0638290" lon="1.4044250">
        <ele>223.6</ele>
        <time>2020-02-22T12:45:45Z</time>
      </trkpt>
      <trkpt lat="39.0637980" lon="1.4044780">
        <ele>223.0</ele>
        <time>2020-02-22T12:45:46Z</time>
      </trkpt>
      <trkpt lat="39.0637730" lon="1.4045380">
        <ele>222.4</ele>
        <time>2020-02-22T12:45:47Z</time>
      </trkpt>
      <trkpt lat="39.0637480" lon="1.4045950">
        <ele>221.8</ele>
        <time>2020-02-22T12:45:48Z</time>
      </trkpt>
      <trkpt lat="39.0637230" lon="1.4046520">
        <ele>221.3</ele>
        <time>2020-02-22T12:45:49Z</time>
      </trkpt>
      <trkpt lat="39.0636930" lon="1.4047020">
        <ele>220.8</ele>
        <time>2020-02-22T12:45:50Z</time>
      </trkpt>
      <trkpt lat="39.0636570" lon="1.4047570">
        <ele>220.4</ele>
        <time>2020-02-22T12:45:51Z</time>
      </trkpt>
      <trkpt lat="39.0636250" lon="1.4048150">
        <ele>219.8</ele>
        <time>2020-02-22T12:45:52Z</time>
      </trkpt>
      <trkpt lat="39.0635890" lon="1.4048720">
        <ele>219.1</ele>
        <time>2020-02-22T12:45:53Z</time>
      </trkpt>
      <trkpt lat="39.0635590" lon="1.4049390">
        <ele>218.6</ele>
        <time>2020-02-22T12:45:54Z</time>
      </trkpt>
      <trkpt lat="39.0635330" lon="1.4049870">
        <ele>218.2</ele>
        <time>2020-02-22T12:45:55Z</time>
      </trkpt>
      <trkpt lat="39.0635080" lon="1.4050230">
        <ele>217.6</ele>
        <time>2020-02-22T12:45:56Z</time>
      </trkpt>
      <trkpt lat="39.0634790" lon="1.4050630">
        <ele>217.0</ele>
        <time>2020-02-22T12:45:57Z</time>
      </trkpt>
      <trkpt lat="39.0634620" lon="1.4051020">
        <ele>216.7</ele>
        <time>2020-02-22T12:45:58Z</time>
      </trkpt>
      <trkpt lat="39.0634420" lon="1.4051470">
        <ele>216.4</ele>
        <time>2020-02-22T12:45:59Z</time>
      </trkpt>
      <trkpt lat="39.0634230" lon="1.4052000">
        <ele>216.0</ele>
        <time>2020-02-22T12:46:00Z</time>
      </trkpt>
      <trkpt lat="39.0634370" lon="1.4052660">
        <ele>215.6</ele>
        <time>2020-02-22T12:46:01Z</time>
      </trkpt>
      <trkpt lat="39.0634530" lon="1.4053240">
        <ele>215.2</ele>
        <time>2020-02-22T12:46:02Z</time>
      </trkpt>
      <trkpt lat="39.0634790" lon="1.4053780">
        <ele>214.9</ele>
        <time>2020-02-22T12:46:03Z</time>
      </trkpt>
      <trkpt lat="39.0635080" lon="1.4054350">
        <ele>215.0</ele>
        <time>2020-02-22T12:46:04Z</time>
      </trkpt>
      <trkpt lat="39.0635340" lon="1.4054810">
        <ele>215.1</ele>
        <time>2020-02-22T12:46:05Z</time>
      </trkpt>
      <trkpt lat="39.0635620" lon="1.4055240">
        <ele>215.5</ele>
        <time>2020-02-22T12:46:06Z</time>
      </trkpt>
      <trkpt lat="39.0635920" lon="1.4055790">
        <ele>215.6</ele>
        <time>2020-02-22T12:46:07Z</time>
      </trkpt>
      <trkpt lat="39.0636080" lon="1.4056310">
        <ele>215.6</ele>
        <time>2020-02-22T12:46:08Z</time>
      </trkpt>
      <trkpt lat="39.0636300" lon="1.4056910">
        <ele>215.6</ele>
        <time>2020-02-22T12:46:09Z</time>
      </trkpt>
      <trkpt lat="39.0636400" lon="1.4057330">
        <ele>215.6</ele>
        <time>2020-02-22T12:46:10Z</time>
      </trkpt>
      <trkpt lat="39.0636700" lon="1.4057820">
        <ele>215.6</ele>
        <time>2020-02-22T12:46:11Z</time>
      </trkpt>
      <trkpt lat="39.0636940" lon="1.4058240">
        <ele>215.8</ele>
        <time>2020-02-22T12:46:12Z</time>
      </trkpt>
      <trkpt lat="39.0637230" lon="1.4058740">
        <ele>216.1</ele>
        <time>2020-02-22T12:46:13Z</time>
      </trkpt>
      <trkpt lat="39.0637530" lon="1.4059190">
        <ele>216.2</ele>
        <time>2020-02-22T12:46:14Z</time>
      </trkpt>
      <trkpt lat="39.0637790" lon="1.4059490">
        <ele>216.3</ele>
        <time>2020-02-22T12:46:15Z</time>
      </trkpt>
      <trkpt lat="39.0638110" lon="1.4059950">
        <ele>216.6</ele>
        <time>2020-02-22T12:46:16Z</time>
      </trkpt>
      <trkpt lat="39.0638340" lon="1.4060360">
        <ele>217.0</ele>
        <time>2020-02-22T12:46:17Z</time>
      </trkpt>
      <trkpt lat="39.0638580" lon="1.4060720">
        <ele>217.4</ele>
        <time>2020-02-22T12:46:18Z</time>
      </trkpt>
      <trkpt lat="39.0638820" lon="1.4061090">
        <ele>217.8</ele>
        <time>2020-02-22T12:46:19Z</time>
      </trkpt>
      <trkpt lat="39.0639060" lon="1.4061480">
        <ele>218.1</ele>
        <time>2020-02-22T12:46:20Z</time>
      </trkpt>
      <trkpt lat="39.0639320" lon="1.4061850">
        <ele>218.1</ele>
        <time>2020-02-22T12:46:21Z</time>
      </trkpt>
      <trkpt lat="39.0639640" lon="1.4062240">
        <ele>218.3</ele>
        <time>2020-02-22T12:46:22Z</time>
      </trkpt>
      <trkpt lat="39.0639890" lon="1.4062570">
        <ele>218.6</ele>
        <time>2020-02-22T12:46:23Z</time>
      </trkpt>
      <trkpt lat="39.0640130" lon="1.4062960">
        <ele>218.9</ele>
        <time>2020-02-22T12:46:24Z</time>
      </trkpt>
      <trkpt lat="39.0640350" lon="1.4063220">
        <ele>218.9</ele>
        <time>2020-02-22T12:46:25Z</time>
      </trkpt>
      <trkpt lat="39.0640620" lon="1.4063470">
        <ele>219.0</ele>
        <time>2020-02-22T12:46:26Z</time>
      </trkpt>
      <trkpt lat="39.0640930" lon="1.4063670">
        <ele>219.5</ele>
        <time>2020-02-22T12:46:27Z</time>
      </trkpt>
      <trkpt lat="39.0641180" lon="1.4063860">
        <ele>220.2</ele>
        <time>2020-02-22T12:46:28Z</time>
      </trkpt>
      <trkpt lat="39.0641390" lon="1.4064160">
        <ele>220.5</ele>
        <time>2020-02-22T12:46:29Z</time>
      </trkpt>
      <trkpt lat="39.0641380" lon="1.4064640">
        <ele>220.9</ele>
        <time>2020-02-22T12:46:30Z</time>
      </trkpt>
      <trkpt lat="39.0641300" lon="1.4064780">
        <ele>221.0</ele>
        <time>2020-02-22T12:46:31Z</time>
      </trkpt>
      <trkpt lat="39.0641050" lon="1.4064980">
        <ele>221.2</ele>
        <time>2020-02-22T12:46:32Z</time>
      </trkpt>
      <trkpt lat="39.0640680" lon="1.4065070">
        <ele>220.7</ele>
        <time>2020-02-22T12:46:33Z</time>
      </trkpt>
      <trkpt lat="39.0640370" lon="1.4065150">
        <ele>220.0</ele>
        <time>2020-02-22T12:46:34Z</time>
      </trkpt>
      <trkpt lat="39.0640120" lon="1.4065280">
        <ele>219.4</ele>
        <time>2020-02-22T12:46:35Z</time>
      </trkpt>
      <trkpt lat="39.0639950" lon="1.4065410">
        <ele>219.1</ele>
        <time>2020-02-22T12:46:36Z</time>
      </trkpt>
      <trkpt lat="39.0639840" lon="1.4065520">
        <ele>219.0</ele>
        <time>2020-02-22T12:46:37Z</time>
      </trkpt>
      <trkpt lat="39.0640020" lon="1.4065480">
        <ele>218.8</ele>
        <time>2020-02-22T12:46:38Z</time>
      </trkpt>
      <trkpt lat="39.0640160" lon="1.4065510">
        <ele>218.6</ele>
        <time>2020-02-22T12:46:39Z</time>
      </trkpt>
      <trkpt lat="39.0640050" lon="1.4065610">
        <ele>218.3</ele>
        <time>2020-02-22T12:46:40Z</time>
      </trkpt>
      <trkpt lat="39.0639960" lon="1.4065690">
        <ele>218.1</ele>
        <time>2020-02-22T12:46:41Z</time>
      </trkpt>
      <trkpt lat="39.0639860" lon="1.4065770">
        <ele>217.9</ele>
        <time>2020-02-22T12:46:42Z</time>
      </trkpt>
      <trkpt lat="39.0639760" lon="1.4065850">
        <ele>217.6</ele>
        <time>2020-02-22T12:46:43Z</time>
      </trkpt>
      <trkpt lat="39.0639490" lon="1.4066050">
        <ele>217.0</ele>
        <time>2020-02-22T12:46:44Z</time>
      </trkpt>
      <trkpt lat="39.0639110" lon="1.4066370">
        <ele>216.4</ele>
        <time>2020-02-22T12:46:45Z</time>
      </trkpt>
      <trkpt lat="39.0638620" lon="1.4066750">
        <ele>215.4</ele>
        <time>2020-02-22T12:46:46Z</time>
      </trkpt>
      <trkpt lat="39.0638100" lon="1.4067180">
        <ele>214.4</ele>
        <time>2020-02-22T12:46:47Z</time>
      </trkpt>
      <trkpt lat="39.0637580" lon="1.4067590">
        <ele>213.4</ele>
        <time>2020-02-22T12:46:48Z</time>
      </trkpt>
      <trkpt lat="39.0637090" lon="1.4068020">
        <ele>212.4</ele>
        <time>2020-02-22T12:46:49Z</time>
      </trkpt>
      <trkpt lat="39.0636610" lon="1.4068600">
        <ele>211.3</ele>
        <time>2020-02-22T12:46:50Z</time>
      </trkpt>
      <trkpt lat="39.0636300" lon="1.4069270">
        <ele>210.5</ele>
        <time>2020-02-22T12:46:51Z</time>
      </trkpt>
      <trkpt lat="39.0636000" lon="1.4070150">
        <ele>209.0</ele>
        <time>2020-02-22T12:46:52Z</time>
      </trkpt>
      <trkpt lat="39.0635580" lon="1.4070840">
        <ele>208.0</ele>
        <time>2020-02-22T12:46:53Z</time>
      </trkpt>
      <trkpt lat="39.0635120" lon="1.4071450">
        <ele>207.1</ele>
        <time>2020-02-22T12:46:54Z</time>
      </trkpt>
      <trkpt lat="39.0634600" lon="1.4072200">
        <ele>205.9</ele>
        <time>2020-02-22T12:46:55Z</time>
      </trkpt>
      <trkpt lat="39.0634140" lon="1.4072880">
        <ele>205.0</ele>
        <time>2020-02-22T12:46:56Z</time>
      </trkpt>
      <trkpt lat="39.0633640" lon="1.4073600">
        <ele>204.4</ele>
        <time>2020-02-22T12:46:57Z</time>
      </trkpt>
      <trkpt lat="39.0633050" lon="1.4074300">
        <ele>203.3</ele>
        <time>2020-02-22T12:46:58Z</time>
      </trkpt>
      <trkpt lat="39.0632490" lon="1.4074990">
        <ele>202.4</ele>
        <time>2020-02-22T12:46:59Z</time>
      </trkpt>
      <trkpt lat="39.0632050" lon="1.4075540">
        <ele>201.7</ele>
        <time>2020-02-22T12:47:00Z</time>
      </trkpt>
      <trkpt lat="39.0631680" lon="1.4076030">
        <ele>201.2</ele>
        <time>2020-02-22T12:47:01Z</time>
      </trkpt>
      <trkpt lat="39.0631490" lon="1.4076810">
        <ele>200.6</ele>
        <time>2020-02-22T12:47:02Z</time>
      </trkpt>
      <trkpt lat="39.0631480" lon="1.4077610">
        <ele>200.6</ele>
        <time>2020-02-22T12:47:03Z</time>
      </trkpt>
      <trkpt lat="39.0631750" lon="1.4078350">
        <ele>200.3</ele>
        <time>2020-02-22T12:47:04Z</time>
      </trkpt>
      <trkpt lat="39.0632020" lon="1.4079130">
        <ele>200.1</ele>
        <time>2020-02-22T12:47:05Z</time>
      </trkpt>
      <trkpt lat="39.0632200" lon="1.4079920">
        <ele>200.1</ele>
        <time>2020-02-22T12:47:06Z</time>
      </trkpt>
      <trkpt lat="39.0632080" lon="1.4080660">
        <ele>199.9</ele>
        <time>2020-02-22T12:47:07Z</time>
      </trkpt>
      <trkpt lat="39.0632000" lon="1.4081400">
        <ele>199.7</ele>
        <time>2020-02-22T12:47:08Z</time>
      </trkpt>
      <trkpt lat="39.0631950" lon="1.4082130">
        <ele>199.5</ele>
        <time>2020-02-22T12:47:09Z</time>
      </trkpt>
      <trkpt lat="39.0632070" lon="1.4082840">
        <ele>199.2</ele>
        <time>2020-02-22T12:47:10Z</time>
      </trkpt>
      <trkpt lat="39.0632210" lon="1.4083570">
        <ele>199.0</ele>
        <time>2020-02-22T12:47:11Z</time>
      </trkpt>
      <trkpt lat="39.0632390" lon="1.4084330">
        <ele>198.7</ele>
        <time>2020-02-22T12:47:12Z</time>
      </trkpt>
      <trkpt lat="39.0632480" lon="1.4085070">
        <ele>198.5</ele>
        <time>2020-02-22T12:47:13Z</time>
      </trkpt>
      <trkpt lat="39.0632510" lon="1.4085820">
        <ele>198.5</ele>
        <time>2020-02-22T12:47:14Z</time>
      </trkpt>
      <trkpt lat="39.0632570" lon="1.4086560">
        <ele>198.6</ele>
        <time>2020-02-22T12:47:15Z</time>
      </trkpt>
      <trkpt lat="39.0632700" lon="1.4087340">
        <ele>198.3</ele>
        <time>2020-02-22T12:47:16Z</time>
      </trkpt>
      <trkpt lat="39.0632780" lon="1.4088170">
        <ele>198.1</ele>
        <time>2020-02-22T12:47:17Z</time>
      </trkpt>
      <trkpt lat="39.0632890" lon="1.4088990">
        <ele>197.9</ele>
        <time>2020-02-22T12:47:18Z</time>
      </trkpt>
      <trkpt lat="39.0632860" lon="1.4089810">
        <ele>197.7</ele>
        <time>2020-02-22T12:47:19Z</time>
      </trkpt>
      <trkpt lat="39.0632750" lon="1.4090610">
        <ele>197.5</ele>
        <time>2020-02-22T12:47:20Z</time>
      </trkpt>
      <trkpt lat="39.0632460" lon="1.4091270">
        <ele>196.5</ele>
        <time>2020-02-22T12:47:21Z</time>
      </trkpt>
      <trkpt lat="39.0631940" lon="1.4091590">
        <ele>195.8</ele>
        <time>2020-02-22T12:47:22Z</time>
      </trkpt>
      <trkpt lat="39.0631540" lon="1.4091940">
        <ele>195.2</ele>
        <time>2020-02-22T12:47:23Z</time>
      </trkpt>
      <trkpt lat="39.0631200" lon="1.4092300">
        <ele>194.3</ele>
        <time>2020-02-22T12:47:24Z</time>
      </trkpt>
      <trkpt lat="39.0630960" lon="1.4092720">
        <ele>193.5</ele>
        <time>2020-02-22T12:47:25Z</time>
      </trkpt>
      <trkpt lat="39.0630790" lon="1.4093200">
        <ele>192.7</ele>
        <time>2020-02-22T12:47:26Z</time>
      </trkpt>
      <trkpt lat="39.0630880" lon="1.4093770">
        <ele>193.2</ele>
        <time>2020-02-22T12:47:27Z</time>
      </trkpt>
      <trkpt lat="39.0631090" lon="1.4094130">
        <ele>193.7</ele>
        <time>2020-02-22T12:47:28Z</time>
      </trkpt>
      <trkpt lat="39.0631350" lon="1.4094280">
        <ele>193.9</ele>
        <time>2020-02-22T12:47:29Z</time>
      </trkpt>
      <trkpt lat="39.0631660" lon="1.4094590">
        <ele>194.3</ele>
        <time>2020-02-22T12:47:30Z</time>
      </trkpt>
      <trkpt lat="39.0631750" lon="1.4094710">
        <ele>194.4</ele>
        <time>2020-02-22T12:47:31Z</time>
      </trkpt>
      <trkpt lat="39.0631960" lon="1.4094930">
        <ele>194.7</ele>
        <time>2020-02-22T12:47:32Z</time>
      </trkpt>
      <trkpt lat="39.0632220" lon="1.4095070">
        <ele>194.9</ele>
        <time>2020-02-22T12:47:33Z</time>
      </trkpt>
      <trkpt lat="39.0632510" lon="1.4095200">
        <ele>195.2</ele>
        <time>2020-02-22T12:47:34Z</time>
      </trkpt>
      <trkpt lat="39.0632720" lon="1.4095420">
        <ele>195.4</ele>
        <time>2020-02-22T12:47:35Z</time>
      </trkpt>
      <trkpt lat="39.0632920" lon="1.4095680">
        <ele>195.7</ele>
        <time>2020-02-22T12:47:36Z</time>
      </trkpt>
      <trkpt lat="39.0633190" lon="1.4096000">
        <ele>196.1</ele>
        <time>2020-02-22T12:47:37Z</time>
      </trkpt>
      <trkpt lat="39.0633270" lon="1.4096110">
        <ele>196.2</ele>
        <time>2020-02-22T12:47:38Z</time>
      </trkpt>
      <trkpt lat="39.0633500" lon="1.4096370">
        <ele>196.5</ele>
        <time>2020-02-22T12:47:39Z</time>
      </trkpt>
      <trkpt lat="39.0633570" lon="1.4096470">
        <ele>196.6</ele>
        <time>2020-02-22T12:47:40Z</time>
      </trkpt>
      <trkpt lat="39.0633770" lon="1.4096800">
        <ele>196.9</ele>
        <time>2020-02-22T12:47:41Z</time>
      </trkpt>
      <trkpt lat="39.0633830" lon="1.4096930">
        <ele>197.0</ele>
        <time>2020-02-22T12:47:42Z</time>
      </trkpt>
      <trkpt lat="39.0634090" lon="1.4097200">
        <ele>197.3</ele>
        <time>2020-02-22T12:47:43Z</time>
      </trkpt>
      <trkpt lat="39.0634340" lon="1.4097510">
        <ele>197.7</ele>
        <time>2020-02-22T12:47:44Z</time>
      </trkpt>
      <trkpt lat="39.0634530" lon="1.4097840">
        <ele>198.0</ele>
        <time>2020-02-22T12:47:45Z</time>
      </trkpt>
      <trkpt lat="39.0634610" lon="1.4097970">
        <ele>198.1</ele>
        <time>2020-02-22T12:47:46Z</time>
      </trkpt>
      <trkpt lat="39.0634840" lon="1.4098320">
        <ele>198.7</ele>
        <time>2020-02-22T12:47:47Z</time>
      </trkpt>
      <trkpt lat="39.0634900" lon="1.4098440">
        <ele>198.9</ele>
        <time>2020-02-22T12:47:48Z</time>
      </trkpt>
      <trkpt lat="39.0635080" lon="1.4098730">
        <ele>199.4</ele>
        <time>2020-02-22T12:47:49Z</time>
      </trkpt>
      <trkpt lat="39.0635130" lon="1.4098820">
        <ele>199.5</ele>
        <time>2020-02-22T12:47:50Z</time>
      </trkpt>
      <trkpt lat="39.0635240" lon="1.4098950">
        <ele>199.6</ele>
        <time>2020-02-22T12:47:51Z</time>
      </trkpt>
      <trkpt lat="39.0635410" lon="1.4099080">
        <ele>199.8</ele>
        <time>2020-02-22T12:47:52Z</time>
      </trkpt>
      <trkpt lat="39.0635650" lon="1.4099290">
        <ele>200.1</ele>
        <time>2020-02-22T12:47:53Z</time>
      </trkpt>
      <trkpt lat="39.0635760" lon="1.4099400">
        <ele>200.2</ele>
        <time>2020-02-22T12:47:54Z</time>
      </trkpt>
      <trkpt lat="39.0635930" lon="1.4099550">
        <ele>200.4</ele>
        <time>2020-02-22T12:47:55Z</time>
      </trkpt>
      <trkpt lat="39.0636240" lon="1.4099720">
        <ele>200.7</ele>
        <time>2020-02-22T12:47:56Z</time>
      </trkpt>
      <trkpt lat="39.0636360" lon="1.4099800">
        <ele>200.8</ele>
        <time>2020-02-22T12:47:57Z</time>
      </trkpt>
      <trkpt lat="39.0636540" lon="1.4099970">
        <ele>201.0</ele>
        <time>2020-02-22T12:47:58Z</time>
      </trkpt>
      <trkpt lat="39.0636650" lon="1.4100060">
        <ele>201.1</ele>
        <time>2020-02-22T12:47:59Z</time>
      </trkpt>
      <trkpt lat="39.0636880" lon="1.4100360">
        <ele>201.4</ele>
        <time>2020-02-22T12:48:00Z</time>
      </trkpt>
      <trkpt lat="39.0636960" lon="1.4100440">
        <ele>201.5</ele>
        <time>2020-02-22T12:48:01Z</time>
      </trkpt>
      <trkpt lat="39.0637220" lon="1.4100580">
        <ele>201.8</ele>
        <time>2020-02-22T12:48:02Z</time>
      </trkpt>
      <trkpt lat="39.0637290" lon="1.4100680">
        <ele>201.8</ele>
        <time>2020-02-22T12:48:03Z</time>
      </trkpt>
      <trkpt lat="39.0637370" lon="1.4100770">
        <ele>201.9</ele>
        <time>2020-02-22T12:48:04Z</time>
      </trkpt>
      <trkpt lat="39.0637590" lon="1.4100970">
        <ele>202.2</ele>
        <time>2020-02-22T12:48:05Z</time>
      </trkpt>
      <trkpt lat="39.0637860" lon="1.4101190">
        <ele>202.5</ele>
        <time>2020-02-22T12:48:06Z</time>
      </trkpt>
      <trkpt lat="39.0638140" lon="1.4101430">
        <ele>202.8</ele>
        <time>2020-02-22T12:48:07Z</time>
      </trkpt>
      <trkpt lat="39.0638190" lon="1.4101480">
        <ele>202.8</ele>
        <time>2020-02-22T12:48:08Z</time>
      </trkpt>
      <trkpt lat="39.0638320" lon="1.4101580">
        <ele>202.9</ele>
        <time>2020-02-22T12:48:09Z</time>
      </trkpt>
      <trkpt lat="39.0638450" lon="1.4101720">
        <ele>203.1</ele>
        <time>2020-02-22T12:48:10Z</time>
      </trkpt>
      <trkpt lat="39.0638690" lon="1.4101910">
        <ele>203.3</ele>
        <time>2020-02-22T12:48:11Z</time>
      </trkpt>
      <trkpt lat="39.0638940" lon="1.4102070">
        <ele>203.6</ele>
        <time>2020-02-22T12:48:12Z</time>
      </trkpt>
      <trkpt lat="39.0639220" lon="1.4102280">
        <ele>203.9</ele>
        <time>2020-02-22T12:48:13Z</time>
      </trkpt>
      <trkpt lat="39.0639290" lon="1.4102330">
        <ele>203.9</ele>
        <time>2020-02-22T12:48:14Z</time>
      </trkpt>
      <trkpt lat="39.0639550" lon="1.4102430">
        <ele>204.2</ele>
        <time>2020-02-22T12:48:15Z</time>
      </trkpt>
      <trkpt lat="39.0639660" lon="1.4102540">
        <ele>204.3</ele>
        <time>2020-02-22T12:48:16Z</time>
      </trkpt>
      <trkpt lat="39.0639840" lon="1.4102690">
        <ele>204.5</ele>
        <time>2020-02-22T12:48:17Z</time>
      </trkpt>
      <trkpt lat="39.0640200" lon="1.4102790">
        <ele>204.8</ele>
        <time>2020-02-22T12:48:18Z</time>
      </trkpt>
      <trkpt lat="39.0640300" lon="1.4102830">
        <ele>204.8</ele>
        <time>2020-02-22T12:48:19Z</time>
      </trkpt>
      <trkpt lat="39.0640590" lon="1.4102970">
        <ele>205.1</ele>
        <time>2020-02-22T12:48:20Z</time>
      </trkpt>
      <trkpt lat="39.0640840" lon="1.4103140">
        <ele>205.3</ele>
        <time>2020-02-22T12:48:21Z</time>
      </trkpt>
      <trkpt lat="39.0641160" lon="1.4103390">
        <ele>205.6</ele>
        <time>2020-02-22T12:48:22Z</time>
      </trkpt>
      <trkpt lat="39.0641260" lon="1.4103480">
        <ele>205.7</ele>
        <time>2020-02-22T12:48:23Z</time>
      </trkpt>
      <trkpt lat="39.0641370" lon="1.4103630">
        <ele>205.9</ele>
        <time>2020-02-22T12:48:24Z</time>
      </trkpt>
      <trkpt lat="39.0641470" lon="1.4103730">
        <ele>206.0</ele>
        <time>2020-02-22T12:48:25Z</time>
      </trkpt>
      <trkpt lat="39.0641610" lon="1.4103770">
        <ele>206.1</ele>
        <time>2020-02-22T12:48:26Z</time>
      </trkpt>
      <trkpt lat="39.0641780" lon="1.4103870">
        <ele>206.2</ele>
        <time>2020-02-22T12:48:27Z</time>
      </trkpt>
      <trkpt lat="39.0641950" lon="1.4103950">
        <ele>206.4</ele>
        <time>2020-02-22T12:48:28Z</time>
      </trkpt>
      <trkpt lat="39.0642040" lon="1.4104020">
        <ele>206.5</ele>
        <time>2020-02-22T12:48:29Z</time>
      </trkpt>
      <trkpt lat="39.0642360" lon="1.4104330">
        <ele>206.8</ele>
        <time>2020-02-22T12:48:30Z</time>
      </trkpt>
      <trkpt lat="39.0642460" lon="1.4104450">
        <ele>206.9</ele>
        <time>2020-02-22T12:48:31Z</time>
      </trkpt>
      <trkpt lat="39.0642730" lon="1.4104610">
        <ele>207.2</ele>
        <time>2020-02-22T12:48:32Z</time>
      </trkpt>
      <trkpt lat="39.0642850" lon="1.4104660">
        <ele>207.3</ele>
        <time>2020-02-22T12:48:33Z</time>
      </trkpt>
      <trkpt lat="39.0643120" lon="1.4104810">
        <ele>207.5</ele>
        <time>2020-02-22T12:48:34Z</time>
      </trkpt>
      <trkpt lat="39.0643420" lon="1.4104950">
        <ele>207.8</ele>
        <time>2020-02-22T12:48:35Z</time>
      </trkpt>
      <trkpt lat="39.0643530" lon="1.4104990">
        <ele>207.9</ele>
        <time>2020-02-22T12:48:36Z</time>
      </trkpt>
      <trkpt lat="39.0643870" lon="1.4105080">
        <ele>208.3</ele>
        <time>2020-02-22T12:48:37Z</time>
      </trkpt>
      <trkpt lat="39.0643980" lon="1.4105090">
        <ele>208.4</ele>
        <time>2020-02-22T12:48:38Z</time>
      </trkpt>
      <trkpt lat="39.0644150" lon="1.4105080">
        <ele>208.6</ele>
        <time>2020-02-22T12:48:39Z</time>
      </trkpt>
      <trkpt lat="39.0644290" lon="1.4105050">
        <ele>208.8</ele>
        <time>2020-02-22T12:48:40Z</time>
      </trkpt>
      <trkpt lat="39.0644340" lon="1.4104970">
        <ele>208.9</ele>
        <time>2020-02-22T12:48:41Z</time>
      </trkpt>
      <trkpt lat="39.0644480" lon="1.4104960">
        <ele>209.0</ele>
        <time>2020-02-22T12:48:42Z</time>
      </trkpt>
      <trkpt lat="39.0644590" lon="1.4104980">
        <ele>209.2</ele>
        <time>2020-02-22T12:48:43Z</time>
      </trkpt>
      <trkpt lat="39.0644900" lon="1.4105030">
        <ele>209.6</ele>
        <time>2020-02-22T12:48:44Z</time>
      </trkpt>
      <trkpt lat="39.0645000" lon="1.4105060">
        <ele>209.7</ele>
        <time>2020-02-22T12:48:45Z</time>
      </trkpt>
      <trkpt lat="39.0645280" lon="1.4105160">
        <ele>210.0</ele>
        <time>2020-02-22T12:48:46Z</time>
      </trkpt>
      <trkpt lat="39.0645430" lon="1.4105230">
        <ele>210.1</ele>
        <time>2020-02-22T12:48:47Z</time>
      </trkpt>
      <trkpt lat="39.0645540" lon="1.4105310">
        <ele>210.2</ele>
        <time>2020-02-22T12:48:48Z</time>
      </trkpt>
      <trkpt lat="39.0645800" lon="1.4105220">
        <ele>210.5</ele>
        <time>2020-02-22T12:48:49Z</time>
      </trkpt>
      <trkpt lat="39.0645900" lon="1.4105190">
        <ele>210.6</ele>
        <time>2020-02-22T12:48:50Z</time>
      </trkpt>
      <trkpt lat="39.0646290" lon="1.4105330">
        <ele>210.9</ele>
        <time>2020-02-22T12:48:51Z</time>
      </trkpt>
      <trkpt lat="39.0646550" lon="1.4105430">
        <ele>211.2</ele>
        <time>2020-02-22T12:48:52Z</time>
      </trkpt>
      <trkpt lat="39.0646610" lon="1.4105460">
        <ele>211.3</ele>
        <time>2020-02-22T12:48:53Z</time>
      </trkpt>
      <trkpt lat="39.0646660" lon="1.4105500">
        <ele>211.3</ele>
        <time>2020-02-22T12:48:54Z</time>
      </trkpt>
      <trkpt lat="39.0646890" lon="1.4105610">
        <ele>211.5</ele>
        <time>2020-02-22T12:48:55Z</time>
      </trkpt>
      <trkpt lat="39.0647030" lon="1.4105660">
        <ele>211.6</ele>
        <time>2020-02-22T12:48:56Z</time>
      </trkpt>
      <trkpt lat="39.0647160" lon="1.4105700">
        <ele>211.6</ele>
        <time>2020-02-22T12:48:57Z</time>
      </trkpt>
      <trkpt lat="39.0647430" lon="1.4105820">
        <ele>211.8</ele>
        <time>2020-02-22T12:48:58Z</time>
      </trkpt>
      <trkpt lat="39.0647720" lon="1.4106040">
        <ele>212.1</ele>
        <time>2020-02-22T12:48:59Z</time>
      </trkpt>
      <trkpt lat="39.0647800" lon="1.4106170">
        <ele>212.2</ele>
        <time>2020-02-22T12:49:00Z</time>
      </trkpt>
      <trkpt lat="39.0648040" lon="1.4106340">
        <ele>212.3</ele>
        <time>2020-02-22T12:49:01Z</time>
      </trkpt>
      <trkpt lat="39.0648140" lon="1.4106380">
        <ele>212.4</ele>
        <time>2020-02-22T12:49:02Z</time>
      </trkpt>
      <trkpt lat="39.0648430" lon="1.4106460">
        <ele>212.6</ele>
        <time>2020-02-22T12:49:03Z</time>
      </trkpt>
      <trkpt lat="39.0648660" lon="1.4106630">
        <ele>212.8</ele>
        <time>2020-02-22T12:49:04Z</time>
      </trkpt>
      <trkpt lat="39.0648760" lon="1.4106730">
        <ele>212.9</ele>
        <time>2020-02-22T12:49:05Z</time>
      </trkpt>
      <trkpt lat="39.0649090" lon="1.4106890">
        <ele>213.1</ele>
        <time>2020-02-22T12:49:06Z</time>
      </trkpt>
      <trkpt lat="39.0649190" lon="1.4106980">
        <ele>213.1</ele>
        <time>2020-02-22T12:49:07Z</time>
      </trkpt>
      <trkpt lat="39.0649430" lon="1.4107210">
        <ele>213.3</ele>
        <time>2020-02-22T12:49:08Z</time>
      </trkpt>
      <trkpt lat="39.0649480" lon="1.4107290">
        <ele>213.3</ele>
        <time>2020-02-22T12:49:09Z</time>
      </trkpt>
      <trkpt lat="39.0649640" lon="1.4107390">
        <ele>213.5</ele>
        <time>2020-02-22T12:49:10Z</time>
      </trkpt>
      <trkpt lat="39.0649720" lon="1.4107600">
        <ele>213.7</ele>
        <time>2020-02-22T12:49:11Z</time>
      </trkpt>
      <trkpt lat="39.0649880" lon="1.4107710">
        <ele>213.9</ele>
        <time>2020-02-22T12:49:12Z</time>
      </trkpt>
      <trkpt lat="39.0649950" lon="1.4107890">
        <ele>214.2</ele>
        <time>2020-02-22T12:49:13Z</time>
      </trkpt>
      <trkpt lat="39.0650140" lon="1.4108180">
        <ele>214.6</ele>
        <time>2020-02-22T12:49:14Z</time>
      </trkpt>
      <trkpt lat="39.0650200" lon="1.4108280">
        <ele>214.7</ele>
        <time>2020-02-22T12:49:15Z</time>
      </trkpt>
      <trkpt lat="39.0650250" lon="1.4108410">
        <ele>214.8</ele>
        <time>2020-02-22T12:49:16Z</time>
      </trkpt>
      <trkpt lat="39.0650380" lon="1.4108560">
        <ele>215.0</ele>
        <time>2020-02-22T12:49:17Z</time>
      </trkpt>
      <trkpt lat="39.0650530" lon="1.4108850">
        <ele>215.3</ele>
        <time>2020-02-22T12:49:18Z</time>
      </trkpt>
      <trkpt lat="39.0650610" lon="1.4108960">
        <ele>215.4</ele>
        <time>2020-02-22T12:49:19Z</time>
      </trkpt>
      <trkpt lat="39.0650760" lon="1.4109180">
        <ele>215.7</ele>
        <time>2020-02-22T12:49:20Z</time>
      </trkpt>
      <trkpt lat="39.0650820" lon="1.4109240">
        <ele>215.7</ele>
        <time>2020-02-22T12:49:21Z</time>
      </trkpt>
      <trkpt lat="39.0650890" lon="1.4109310">
        <ele>215.8</ele>
        <time>2020-02-22T12:49:22Z</time>
      </trkpt>
      <trkpt lat="39.0651060" lon="1.4109630">
        <ele>216.1</ele>
        <time>2020-02-22T12:49:23Z</time>
      </trkpt>
      <trkpt lat="39.0651120" lon="1.4109710">
        <ele>216.2</ele>
        <time>2020-02-22T12:49:24Z</time>
      </trkpt>
      <trkpt lat="39.0651200" lon="1.4109870">
        <ele>216.4</ele>
        <time>2020-02-22T12:49:25Z</time>
      </trkpt>
      <trkpt lat="39.0651200" lon="1.4110050">
        <ele>216.5</ele>
        <time>2020-02-22T12:49:26Z</time>
      </trkpt>
      <trkpt lat="39.0651280" lon="1.4110380">
        <ele>216.8</ele>
        <time>2020-02-22T12:49:27Z</time>
      </trkpt>
      <trkpt lat="39.0651310" lon="1.4110520">
        <ele>216.9</ele>
        <time>2020-02-22T12:49:28Z</time>
      </trkpt>
      <trkpt lat="39.0651480" lon="1.4110830">
        <ele>217.2</ele>
        <time>2020-02-22T12:49:29Z</time>
      </trkpt>
      <trkpt lat="39.0651540" lon="1.4110930">
        <ele>217.4</ele>
        <time>2020-02-22T12:49:30Z</time>
      </trkpt>
      <trkpt lat="39.0651770" lon="1.4111190">
        <ele>217.7</ele>
        <time>2020-02-22T12:49:31Z</time>
      </trkpt>
      <trkpt lat="39.0651840" lon="1.4111280">
        <ele>217.8</ele>
        <time>2020-02-22T12:49:32Z</time>
      </trkpt>
      <trkpt lat="39.0652070" lon="1.4111550">
        <ele>218.1</ele>
        <time>2020-02-22T12:49:33Z</time>
      </trkpt>
      <trkpt lat="39.0652140" lon="1.4111640">
        <ele>218.2</ele>
        <time>2020-02-22T12:49:34Z</time>
      </trkpt>
      <trkpt lat="39.0652270" lon="1.4111800">
        <ele>218.5</ele>
        <time>2020-02-22T12:49:35Z</time>
      </trkpt>
      <trkpt lat="39.0652360" lon="1.4111950">
        <ele>218.6</ele>
        <time>2020-02-22T12:49:36Z</time>
      </trkpt>
      <trkpt lat="39.0652450" lon="1.4112140">
        <ele>218.9</ele>
        <time>2020-02-22T12:49:37Z</time>
      </trkpt>
      <trkpt lat="39.0652550" lon="1.4112310">
        <ele>219.1</ele>
        <time>2020-02-22T12:49:38Z</time>
      </trkpt>
      <trkpt lat="39.0652670" lon="1.4112590">
        <ele>219.4</ele>
        <time>2020-02-22T12:49:39Z</time>
      </trkpt>
      <trkpt lat="39.0652740" lon="1.4112720">
        <ele>219.5</ele>
        <time>2020-02-22T12:49:40Z</time>
      </trkpt>
      <trkpt lat="39.0652810" lon="1.4112860">
        <ele>219.7</ele>
        <time>2020-02-22T12:49:41Z</time>
      </trkpt>
      <trkpt lat="39.0653010" lon="1.4113170">
        <ele>220.1</ele>
        <time>2020-02-22T12:49:42Z</time>
      </trkpt>
      <trkpt lat="39.0653060" lon="1.4113240">
        <ele>220.2</ele>
        <time>2020-02-22T12:49:43Z</time>
      </trkpt>
      <trkpt lat="39.0653230" lon="1.4113390">
        <ele>220.5</ele>
        <time>2020-02-22T12:49:44Z</time>
      </trkpt>
      <trkpt lat="39.0653300" lon="1.4113470">
        <ele>220.6</ele>
        <time>2020-02-22T12:49:45Z</time>
      </trkpt>
      <trkpt lat="39.0653380" lon="1.4113550">
        <ele>220.7</ele>
        <time>2020-02-22T12:49:46Z</time>
      </trkpt>
      <trkpt lat="39.0653470" lon="1.4113660">
        <ele>220.8</ele>
        <time>2020-02-22T12:49:47Z</time>
      </trkpt>
      <trkpt lat="39.0653560" lon="1.4113760">
        <ele>221.0</ele>
        <time>2020-02-22T12:49:48Z</time>
      </trkpt>
      <trkpt lat="39.0653640" lon="1.4113890">
        <ele>221.1</ele>
        <time>2020-02-22T12:49:49Z</time>
      </trkpt>
      <trkpt lat="39.0653720" lon="1.4114100">
        <ele>221.2</ele>
        <time>2020-02-22T12:49:50Z</time>
      </trkpt>
      <trkpt lat="39.0653830" lon="1.4114240">
        <ele>221.4</ele>
        <time>2020-02-22T12:49:51Z</time>
      </trkpt>
      <trkpt lat="39.0654060" lon="1.4114510">
        <ele>221.7</ele>
        <time>2020-02-22T12:49:52Z</time>
      </trkpt>
      <trkpt lat="39.0654110" lon="1.4114570">
        <ele>221.8</ele>
        <time>2020-02-22T12:49:53Z</time>
      </trkpt>
      <trkpt lat="39.0654220" lon="1.4114650">
        <ele>221.9</ele>
        <time>2020-02-22T12:49:54Z</time>
      </trkpt>
      <trkpt lat="39.0654340" lon="1.4114660">
        <ele>222.0</ele>
        <time>2020-02-22T12:49:55Z</time>
      </trkpt>
      <trkpt lat="39.0654460" lon="1.4114710">
        <ele>222.1</ele>
        <time>2020-02-22T12:49:56Z</time>
      </trkpt>
      <trkpt lat="39.0654520" lon="1.4114710">
        <ele>222.2</ele>
        <time>2020-02-22T12:49:57Z</time>
      </trkpt>
      <trkpt lat="39.0654600" lon="1.4114740">
        <ele>222.3</ele>
        <time>2020-02-22T12:49:58Z</time>
      </trkpt>
      <trkpt lat="39.0654690" lon="1.4114690">
        <ele>222.4</ele>
        <time>2020-02-22T12:49:59Z</time>
      </trkpt>
      <trkpt lat="39.0654800" lon="1.4114600">
        <ele>222.5</ele>
        <time>2020-02-22T12:50:00Z</time>
      </trkpt>
      <trkpt lat="39.0654890" lon="1.4114510">
        <ele>222.6</ele>
        <time>2020-02-22T12:50:01Z</time>
      </trkpt>
      <trkpt lat="39.0655010" lon="1.4114270">
        <ele>222.8</ele>
        <time>2020-02-22T12:50:02Z</time>
      </trkpt>
      <trkpt lat="39.0655030" lon="1.4114080">
        <ele>222.9</ele>
        <time>2020-02-22T12:50:03Z</time>
      </trkpt>
      <trkpt lat="39.0655050" lon="1.4113890">
        <ele>223.1</ele>
        <time>2020-02-22T12:50:04Z</time>
      </trkpt>
      <trkpt lat="39.0655060" lon="1.4113500">
        <ele>223.4</ele>
        <time>2020-02-22T12:50:05Z</time>
      </trkpt>
      <trkpt lat="39.0655050" lon="1.4113370">
        <ele>223.5</ele>
        <time>2020-02-22T12:50:06Z</time>
      </trkpt>
      <trkpt lat="39.0654960" lon="1.4113000">
        <ele>223.8</ele>
        <time>2020-02-22T12:50:07Z</time>
      </trkpt>
      <trkpt lat="39.0654940" lon="1.4112910">
        <ele>223.9</ele>
        <time>2020-02-22T12:50:08Z</time>
      </trkpt>
      <trkpt lat="39.0654930" lon="1.4112570">
        <ele>224.2</ele>
        <time>2020-02-22T12:50:09Z</time>
      </trkpt>
      <trkpt lat="39.0654930" lon="1.4112440">
        <ele>224.3</ele>
        <time>2020-02-22T12:50:10Z</time>
      </trkpt>
      <trkpt lat="39.0654890" lon="1.4112190">
        <ele>224.5</ele>
        <time>2020-02-22T12:50:11Z</time>
      </trkpt>
      <trkpt lat="39.0654780" lon="1.4112050">
        <ele>224.7</ele>
        <time>2020-02-22T12:50:12Z</time>
      </trkpt>
      <trkpt lat="39.0654750" lon="1.4111900">
        <ele>224.8</ele>
        <time>2020-02-22T12:50:13Z</time>
      </trkpt>
      <trkpt lat="39.0654700" lon="1.4111680">
        <ele>225.0</ele>
        <time>2020-02-22T12:50:14Z</time>
      </trkpt>
      <trkpt lat="39.0654610" lon="1.4111300">
        <ele>225.3</ele>
        <time>2020-02-22T12:50:15Z</time>
      </trkpt>
      <trkpt lat="39.0654590" lon="1.4111180">
        <ele>225.4</ele>
        <time>2020-02-22T12:50:16Z</time>
      </trkpt>
      <trkpt lat="39.0654530" lon="1.4110980">
        <ele>225.5</ele>
        <time>2020-02-22T12:50:17Z</time>
      </trkpt>
      <trkpt lat="39.0654500" lon="1.4110840">
        <ele>225.7</ele>
        <time>2020-02-22T12:50:18Z</time>
      </trkpt>
      <trkpt lat="39.0654420" lon="1.4110720">
        <ele>225.8</ele>
        <time>2020-02-22T12:50:19Z</time>
      </trkpt>
      <trkpt lat="39.0654360" lon="1.4110520">
        <ele>226.0</ele>
        <time>2020-02-22T12:50:20Z</time>
      </trkpt>
      <trkpt lat="39.0654340" lon="1.4110350">
        <ele>226.1</ele>
        <time>2020-02-22T12:50:21Z</time>
      </trkpt>
      <trkpt lat="39.0654260" lon="1.4110150">
        <ele>226.3</ele>
        <time>2020-02-22T12:50:22Z</time>
      </trkpt>
      <trkpt lat="39.0654210" lon="1.4109930">
        <ele>226.4</ele>
        <time>2020-02-22T12:50:23Z</time>
      </trkpt>
      <trkpt lat="39.0654100" lon="1.4109770">
        <ele>226.6</ele>
        <time>2020-02-22T12:50:24Z</time>
      </trkpt>
      <trkpt lat="39.0654040" lon="1.4109520">
        <ele>226.8</ele>
        <time>2020-02-22T12:50:25Z</time>
      </trkpt>
      <trkpt lat="39.0653950" lon="1.4109360">
        <ele>226.9</ele>
        <time>2020-02-22T12:50:26Z</time>
      </trkpt>
      <trkpt lat="39.0653850" lon="1.4109170">
        <ele>227.1</ele>
        <time>2020-02-22T12:50:27Z</time>
      </trkpt>
      <trkpt lat="39.0653770" lon="1.4108990">
        <ele>227.2</ele>
        <time>2020-02-22T12:50:28Z</time>
      </trkpt>
      <trkpt lat="39.0653670" lon="1.4108780">
        <ele>227.3</ele>
        <time>2020-02-22T12:50:29Z</time>
      </trkpt>
      <trkpt lat="39.0653620" lon="1.4108590">
        <ele>227.5</ele>
        <time>2020-02-22T12:50:30Z</time>
      </trkpt>
      <trkpt lat="39.0653530" lon="1.4108440">
        <ele>227.6</ele>
        <time>2020-02-22T12:50:31Z</time>
      </trkpt>
      <trkpt lat="39.0653450" lon="1.4108290">
        <ele>227.7</ele>
        <time>2020-02-22T12:50:32Z</time>
      </trkpt>
      <trkpt lat="39.0653380" lon="1.4108130">
        <ele>227.8</ele>
        <time>2020-02-22T12:50:33Z</time>
      </trkpt>
      <trkpt lat="39.0653350" lon="1.4107910">
        <ele>228.0</ele>
        <time>2020-02-22T12:50:34Z</time>
      </trkpt>
      <trkpt lat="39.0653380" lon="1.4107750">
        <ele>228.1</ele>
        <time>2020-02-22T12:50:35Z</time>
      </trkpt>
      <trkpt lat="39.0653410" lon="1.4107460">
        <ele>228.3</ele>
        <time>2020-02-22T12:50:36Z</time>
      </trkpt>
      <trkpt lat="39.0653500" lon="1.4107310">
        <ele>228.4</ele>
        <time>2020-02-22T12:50:37Z</time>
      </trkpt>
      <trkpt lat="39.0653730" lon="1.4107340">
        <ele>228.6</ele>
        <time>2020-02-22T12:50:38Z</time>
      </trkpt>
      <trkpt lat="39.0653990" lon="1.4107460">
        <ele>228.8</ele>
        <time>2020-02-22T12:50:39Z</time>
      </trkpt>
      <trkpt lat="39.0654070" lon="1.4107520">
        <ele>228.9</ele>
        <time>2020-02-22T12:50:40Z</time>
      </trkpt>
      <trkpt lat="39.0654160" lon="1.4107690">
        <ele>229.0</ele>
        <time>2020-02-22T12:50:41Z</time>
      </trkpt>
      <trkpt lat="39.0654320" lon="1.4107850">
        <ele>229.2</ele>
        <time>2020-02-22T12:50:42Z</time>
      </trkpt>
      <trkpt lat="39.0654350" lon="1.4108040">
        <ele>229.3</ele>
        <time>2020-02-22T12:50:43Z</time>
      </trkpt>
      <trkpt lat="39.0654480" lon="1.4108250">
        <ele>229.5</ele>
        <time>2020-02-22T12:50:44Z</time>
      </trkpt>
      <trkpt lat="39.0654620" lon="1.4108570">
        <ele>229.7</ele>
        <time>2020-02-22T12:50:45Z</time>
      </trkpt>
      <trkpt lat="39.0654680" lon="1.4108710">
        <ele>229.7</ele>
        <time>2020-02-22T12:50:46Z</time>
      </trkpt>
      <trkpt lat="39.0654840" lon="1.4109070">
        <ele>230.0</ele>
        <time>2020-02-22T12:50:47Z</time>
      </trkpt>
      <trkpt lat="39.0654890" lon="1.4109200">
        <ele>230.0</ele>
        <time>2020-02-22T12:50:48Z</time>
      </trkpt>
      <trkpt lat="39.0655080" lon="1.4109620">
        <ele>230.3</ele>
        <time>2020-02-22T12:50:49Z</time>
      </trkpt>
      <trkpt lat="39.0655160" lon="1.4109770">
        <ele>230.4</ele>
        <time>2020-02-22T12:50:50Z</time>
      </trkpt>
      <trkpt lat="39.0655240" lon="1.4109960">
        <ele>230.5</ele>
        <time>2020-02-22T12:50:51Z</time>
      </trkpt>
      <trkpt lat="39.0655350" lon="1.4110150">
        <ele>230.7</ele>
        <time>2020-02-22T12:50:52Z</time>
      </trkpt>
      <trkpt lat="39.0655480" lon="1.4110490">
        <ele>230.9</ele>
        <time>2020-02-22T12:50:53Z</time>
      </trkpt>
      <trkpt lat="39.0655530" lon="1.4110600">
        <ele>231.0</ele>
        <time>2020-02-22T12:50:54Z</time>
      </trkpt>
      <trkpt lat="39.0655590" lon="1.4110940">
        <ele>231.2</ele>
        <time>2020-02-22T12:50:55Z</time>
      </trkpt>
      <trkpt lat="39.0655600" lon="1.4111060">
        <ele>231.3</ele>
        <time>2020-02-22T12:50:56Z</time>
      </trkpt>
      <trkpt lat="39.0655780" lon="1.4111390">
        <ele>231.5</ele>
        <time>2020-02-22T12:50:57Z</time>
      </trkpt>
      <trkpt lat="39.0655830" lon="1.4111510">
        <ele>231.6</ele>
        <time>2020-02-22T12:50:58Z</time>
      </trkpt>
      <trkpt lat="39.0656000" lon="1.4111900">
        <ele>231.9</ele>
        <time>2020-02-22T12:50:59Z</time>
      </trkpt>
      <trkpt lat="39.0656060" lon="1.4112010">
        <ele>231.9</ele>
        <time>2020-02-22T12:51:00Z</time>
      </trkpt>
      <trkpt lat="39.0656190" lon="1.4112330">
        <ele>232.1</ele>
        <time>2020-02-22T12:51:01Z</time>
      </trkpt>
      <trkpt lat="39.0656240" lon="1.4112430">
        <ele>232.2</ele>
        <time>2020-02-22T12:51:02Z</time>
      </trkpt>
      <trkpt lat="39.0656390" lon="1.4112740">
        <ele>232.4</ele>
        <time>2020-02-22T12:51:03Z</time>
      </trkpt>
      <trkpt lat="39.0656450" lon="1.4112850">
        <ele>232.5</ele>
        <time>2020-02-22T12:51:04Z</time>
      </trkpt>
      <trkpt lat="39.0656530" lon="1.4113010">
        <ele>232.6</ele>
        <time>2020-02-22T12:51:05Z</time>
      </trkpt>
      <trkpt lat="39.0656570" lon="1.4113190">
        <ele>232.7</ele>
        <time>2020-02-22T12:51:06Z</time>
      </trkpt>
      <trkpt lat="39.0656600" lon="1.4113410">
        <ele>232.9</ele>
        <time>2020-02-22T12:51:07Z</time>
      </trkpt>
      <trkpt lat="39.0656650" lon="1.4113580">
        <ele>233.0</ele>
        <time>2020-02-22T12:51:08Z</time>
      </trkpt>
      <trkpt lat="39.0656820" lon="1.4114000">
        <ele>233.3</ele>
        <time>2020-02-22T12:51:09Z</time>
      </trkpt>
      <trkpt lat="39.0656870" lon="1.4114170">
        <ele>233.4</ele>
        <time>2020-02-22T12:51:10Z</time>
      </trkpt>
      <trkpt lat="39.0656950" lon="1.4114350">
        <ele>233.6</ele>
        <time>2020-02-22T12:51:11Z</time>
      </trkpt>
      <trkpt lat="39.0657020" lon="1.4114540">
        <ele>233.7</ele>
        <time>2020-02-22T12:51:12Z</time>
      </trkpt>
      <trkpt lat="39.0657240" lon="1.4114770">
        <ele>233.9</ele>
        <time>2020-02-22T12:51:13Z</time>
      </trkpt>
      <trkpt lat="39.0657310" lon="1.4114890">
        <ele>234.0</ele>
        <time>2020-02-22T12:51:14Z</time>
      </trkpt>
      <trkpt lat="39.0657570" lon="1.4115010">
        <ele>234.3</ele>
        <time>2020-02-22T12:51:15Z</time>
      </trkpt>
      <trkpt lat="39.0657680" lon="1.4115050">
        <ele>234.4</ele>
        <time>2020-02-22T12:51:16Z</time>
      </trkpt>
      <trkpt lat="39.0657880" lon="1.4115120">
        <ele>234.5</ele>
        <time>2020-02-22T12:51:17Z</time>
      </trkpt>
      <trkpt lat="39.0658020" lon="1.4115080">
        <ele>234.7</ele>
        <time>2020-02-22T12:51:18Z</time>
      </trkpt>
      <trkpt lat="39.0658150" lon="1.4115140">
        <ele>234.8</ele>
        <time>2020-02-22T12:51:19Z</time>
      </trkpt>
      <trkpt lat="39.0658290" lon="1.4115220">
        <ele>234.9</ele>
        <time>2020-02-22T12:51:20Z</time>
      </trkpt>
      <trkpt lat="39.0658420" lon="1.4115140">
        <ele>235.1</ele>
        <time>2020-02-22T12:51:21Z</time>
      </trkpt>
      <trkpt lat="39.0658570" lon="1.4115050">
        <ele>235.2</ele>
        <time>2020-02-22T12:51:22Z</time>
      </trkpt>
      <trkpt lat="39.0658720" lon="1.4115030">
        <ele>235.3</ele>
        <time>2020-02-22T12:51:23Z</time>
      </trkpt>
      <trkpt lat="39.0658880" lon="1.4115010">
        <ele>235.5</ele>
        <time>2020-02-22T12:51:24Z</time>
      </trkpt>
      <trkpt lat="39.0659190" lon="1.4114840">
        <ele>235.9</ele>
        <time>2020-02-22T12:51:25Z</time>
      </trkpt>
      <trkpt lat="39.0659270" lon="1.4114770">
        <ele>236.0</ele>
        <time>2020-02-22T12:51:26Z</time>
      </trkpt>
      <trkpt lat="39.0659540" lon="1.4114770">
        <ele>236.3</ele>
        <time>2020-02-22T12:51:27Z</time>
      </trkpt>
      <trkpt lat="39.0659660" lon="1.4114730">
        <ele>236.4</ele>
        <time>2020-02-22T12:51:28Z</time>
      </trkpt>
      <trkpt lat="39.0659970" lon="1.4114680">
        <ele>236.8</ele>
        <time>2020-02-22T12:51:29Z</time>
      </trkpt>
      <trkpt lat="39.0660050" lon="1.4114680">
        <ele>236.9</ele>
        <time>2020-02-22T12:51:30Z</time>
      </trkpt>
      <trkpt lat="39.0660330" lon="1.4114700">
        <ele>237.3</ele>
        <time>2020-02-22T12:51:31Z</time>
      </trkpt>
      <trkpt lat="39.0660450" lon="1.4114690">
        <ele>237.4</ele>
        <time>2020-02-22T12:51:32Z</time>
      </trkpt>
      <trkpt lat="39.0660760" lon="1.4114700">
        <ele>237.7</ele>
        <time>2020-02-22T12:51:33Z</time>
      </trkpt>
      <trkpt lat="39.0660810" lon="1.4114710">
        <ele>237.8</ele>
        <time>2020-02-22T12:51:34Z</time>
      </trkpt>
      <trkpt lat="39.0661090" lon="1.4114640">
        <ele>238.1</ele>
        <time>2020-02-22T12:51:35Z</time>
      </trkpt>
      <trkpt lat="39.0661190" lon="1.4114600">
        <ele>238.2</ele>
        <time>2020-02-22T12:51:36Z</time>
      </trkpt>
      <trkpt lat="39.0661360" lon="1.4114570">
        <ele>238.4</ele>
        <time>2020-02-22T12:51:37Z</time>
      </trkpt>
      <trkpt lat="39.0661500" lon="1.4114560">
        <ele>238.6</ele>
        <time>2020-02-22T12:51:38Z</time>
      </trkpt>
      <trkpt lat="39.0661720" lon="1.4114550">
        <ele>238.8</ele>
        <time>2020-02-22T12:51:39Z</time>
      </trkpt>
      <trkpt lat="39.0661850" lon="1.4114530">
        <ele>239.0</ele>
        <time>2020-02-22T12:51:40Z</time>
      </trkpt>
      <trkpt lat="39.0661970" lon="1.4114520">
        <ele>239.1</ele>
        <time>2020-02-22T12:51:41Z</time>
      </trkpt>
      <trkpt lat="39.0662280" lon="1.4114480">
        <ele>239.4</ele>
        <time>2020-02-22T12:51:42Z</time>
      </trkpt>
      <trkpt lat="39.0662360" lon="1.4114470">
        <ele>239.5</ele>
        <time>2020-02-22T12:51:43Z</time>
      </trkpt>
      <trkpt lat="39.0662660" lon="1.4114450">
        <ele>239.8</ele>
        <time>2020-02-22T12:51:44Z</time>
      </trkpt>
      <trkpt lat="39.0662770" lon="1.4114440">
        <ele>239.9</ele>
        <time>2020-02-22T12:51:45Z</time>
      </trkpt>
      <trkpt lat="39.0663100" lon="1.4114290">
        <ele>240.3</ele>
        <time>2020-02-22T12:51:46Z</time>
      </trkpt>
      <trkpt lat="39.0663200" lon="1.4114260">
        <ele>240.4</ele>
        <time>2020-02-22T12:51:47Z</time>
      </trkpt>
      <trkpt lat="39.0663580" lon="1.4114190">
        <ele>240.8</ele>
        <time>2020-02-22T12:51:48Z</time>
      </trkpt>
      <trkpt lat="39.0663690" lon="1.4114160">
        <ele>240.9</ele>
        <time>2020-02-22T12:51:49Z</time>
      </trkpt>
      <trkpt lat="39.0664040" lon="1.4113930">
        <ele>241.3</ele>
        <time>2020-02-22T12:51:50Z</time>
      </trkpt>
      <trkpt lat="39.0664140" lon="1.4113780">
        <ele>241.5</ele>
        <time>2020-02-22T12:51:51Z</time>
      </trkpt>
      <trkpt lat="39.0664450" lon="1.4113700">
        <ele>241.8</ele>
        <time>2020-02-22T12:51:52Z</time>
      </trkpt>
      <trkpt lat="39.0664550" lon="1.4113740">
        <ele>242.0</ele>
        <time>2020-02-22T12:51:53Z</time>
      </trkpt>
      <trkpt lat="39.0664710" lon="1.4113710">
        <ele>242.2</ele>
        <time>2020-02-22T12:51:54Z</time>
      </trkpt>
      <trkpt lat="39.0664890" lon="1.4113760">
        <ele>242.3</ele>
        <time>2020-02-22T12:51:55Z</time>
      </trkpt>
      <trkpt lat="39.0665140" lon="1.4113750">
        <ele>242.6</ele>
        <time>2020-02-22T12:51:56Z</time>
      </trkpt>
      <trkpt lat="39.0665240" lon="1.4113760">
        <ele>242.7</ele>
        <time>2020-02-22T12:51:57Z</time>
      </trkpt>
      <trkpt lat="39.0665350" lon="1.4113760">
        <ele>242.8</ele>
        <time>2020-02-22T12:51:58Z</time>
      </trkpt>
      <trkpt lat="39.0665550" lon="1.4113470">
        <ele>243.1</ele>
        <time>2020-02-22T12:51:59Z</time>
      </trkpt>
      <trkpt lat="39.0665620" lon="1.4113320">
        <ele>243.3</ele>
        <time>2020-02-22T12:52:00Z</time>
      </trkpt>
      <trkpt lat="39.0665790" lon="1.4113030">
        <ele>243.5</ele>
        <time>2020-02-22T12:52:01Z</time>
      </trkpt>
      <trkpt lat="39.0666070" lon="1.4112710">
        <ele>243.9</ele>
        <time>2020-02-22T12:52:02Z</time>
      </trkpt>
      <trkpt lat="39.0666170" lon="1.4112590">
        <ele>244.0</ele>
        <time>2020-02-22T12:52:03Z</time>
      </trkpt>
      <trkpt lat="39.0666430" lon="1.4112540">
        <ele>244.3</ele>
        <time>2020-02-22T12:52:04Z</time>
      </trkpt>
      <trkpt lat="39.0666530" lon="1.4112530">
        <ele>244.4</ele>
        <time>2020-02-22T12:52:05Z</time>
      </trkpt>
      <trkpt lat="39.0666670" lon="1.4112470">
        <ele>244.5</ele>
        <time>2020-02-22T12:52:06Z</time>
      </trkpt>
      <trkpt lat="39.0666820" lon="1.4112480">
        <ele>244.7</ele>
        <time>2020-02-22T12:52:07Z</time>
      </trkpt>
      <trkpt lat="39.0667100" lon="1.4112600">
        <ele>245.0</ele>
        <time>2020-02-22T12:52:08Z</time>
      </trkpt>
      <trkpt lat="39.0667190" lon="1.4112630">
        <ele>245.1</ele>
        <time>2020-02-22T12:52:09Z</time>
      </trkpt>
      <trkpt lat="39.0667410" lon="1.4112870">
        <ele>245.5</ele>
        <time>2020-02-22T12:52:10Z</time>
      </trkpt>
      <trkpt lat="39.0667480" lon="1.4112920">
        <ele>245.6</ele>
        <time>2020-02-22T12:52:11Z</time>
      </trkpt>
      <trkpt lat="39.0667650" lon="1.4112930">
        <ele>245.8</ele>
        <time>2020-02-22T12:52:12Z</time>
      </trkpt>
      <trkpt lat="39.0667810" lon="1.4112900">
        <ele>246.0</ele>
        <time>2020-02-22T12:52:13Z</time>
      </trkpt>
      <trkpt lat="39.0668020" lon="1.4112880">
        <ele>246.2</ele>
        <time>2020-02-22T12:52:14Z</time>
      </trkpt>
      <trkpt lat="39.0668100" lon="1.4112780">
        <ele>246.3</ele>
        <time>2020-02-22T12:52:15Z</time>
      </trkpt>
      <trkpt lat="39.0668190" lon="1.4112690">
        <ele>246.5</ele>
        <time>2020-02-22T12:52:16Z</time>
      </trkpt>
      <trkpt lat="39.0668480" lon="1.4112610">
        <ele>246.8</ele>
        <time>2020-02-22T12:52:17Z</time>
      </trkpt>
      <trkpt lat="39.0668570" lon="1.4112580">
        <ele>246.9</ele>
        <time>2020-02-22T12:52:18Z</time>
      </trkpt>
      <trkpt lat="39.0668850" lon="1.4112650">
        <ele>247.2</ele>
        <time>2020-02-22T12:52:19Z</time>
      </trkpt>
      <trkpt lat="39.0668940" lon="1.4112670">
        <ele>247.2</ele>
        <time>2020-02-22T12:52:20Z</time>
      </trkpt>
      <trkpt lat="39.0669120" lon="1.4112640">
        <ele>247.4</ele>
        <time>2020-02-22T12:52:21Z</time>
      </trkpt>
      <trkpt lat="39.0669270" lon="1.4112620">
        <ele>247.6</ele>
        <time>2020-02-22T12:52:22Z</time>
      </trkpt>
      <trkpt lat="39.0669500" lon="1.4112560">
        <ele>247.8</ele>
        <time>2020-02-22T12:52:23Z</time>
      </trkpt>
      <trkpt lat="39.0669570" lon="1.4112560">
        <ele>247.8</ele>
        <time>2020-02-22T12:52:24Z</time>
      </trkpt>
      <trkpt lat="39.0669630" lon="1.4112550">
        <ele>247.9</ele>
        <time>2020-02-22T12:52:25Z</time>
      </trkpt>
      <trkpt lat="39.0669950" lon="1.4112370">
        <ele>248.2</ele>
        <time>2020-02-22T12:52:26Z</time>
      </trkpt>
      <trkpt lat="39.0670040" lon="1.4112340">
        <ele>248.3</ele>
        <time>2020-02-22T12:52:27Z</time>
      </trkpt>
      <trkpt lat="39.0670340" lon="1.4112190">
        <ele>248.6</ele>
        <time>2020-02-22T12:52:28Z</time>
      </trkpt>
      <trkpt lat="39.0670420" lon="1.4112140">
        <ele>248.7</ele>
        <time>2020-02-22T12:52:29Z</time>
      </trkpt>
      <trkpt lat="39.0670690" lon="1.4112100">
        <ele>249.0</ele>
        <time>2020-02-22T12:52:30Z</time>
      </trkpt>
      <trkpt lat="39.0670790" lon="1.4112080">
        <ele>249.1</ele>
        <time>2020-02-22T12:52:31Z</time>
      </trkpt>
      <trkpt lat="39.0670940" lon="1.4111980">
        <ele>249.3</ele>
        <time>2020-02-22T12:52:32Z</time>
      </trkpt>
      <trkpt lat="39.0671080" lon="1.4111880">
        <ele>249.5</ele>
        <time>2020-02-22T12:52:33Z</time>
      </trkpt>
      <trkpt lat="39.0671180" lon="1.4111880">
        <ele>249.5</ele>
        <time>2020-02-22T12:52:34Z</time>
      </trkpt>
      <trkpt lat="39.0671360" lon="1.4111750">
        <ele>249.7</ele>
        <time>2020-02-22T12:52:35Z</time>
      </trkpt>
      <trkpt lat="39.0671520" lon="1.4111600">
        <ele>249.9</ele>
        <time>2020-02-22T12:52:36Z</time>
      </trkpt>
      <trkpt lat="39.0671640" lon="1.4111500">
        <ele>250.0</ele>
        <time>2020-02-22T12:52:37Z</time>
      </trkpt>
      <trkpt lat="39.0671780" lon="1.4111430">
        <ele>250.1</ele>
        <time>2020-02-22T12:52:38Z</time>
      </trkpt>
      <trkpt lat="39.0671930" lon="1.4111270">
        <ele>250.2</ele>
        <time>2020-02-22T12:52:39Z</time>
      </trkpt>
      <trkpt lat="39.0672200" lon="1.4110990">
        <ele>250.6</ele>
        <time>2020-02-22T12:52:40Z</time>
      </trkpt>
      <trkpt lat="39.0672270" lon="1.4110930">
        <ele>250.7</ele>
        <time>2020-02-22T12:52:41Z</time>
      </trkpt>
      <trkpt lat="39.0672530" lon="1.4110710">
        <ele>251.0</ele>
        <time>2020-02-22T12:52:42Z</time>
      </trkpt>
      <trkpt lat="39.0672610" lon="1.4110650">
        <ele>251.0</ele>
        <time>2020-02-22T12:52:43Z</time>
      </trkpt>
      <trkpt lat="39.0672860" lon="1.4110380">
        <ele>251.2</ele>
        <time>2020-02-22T12:52:44Z</time>
      </trkpt>
      <trkpt lat="39.0672920" lon="1.4110270">
        <ele>251.3</ele>
        <time>2020-02-22T12:52:45Z</time>
      </trkpt>
      <trkpt lat="39.0673140" lon="1.4110070">
        <ele>251.5</ele>
        <time>2020-02-22T12:52:46Z</time>
      </trkpt>
      <trkpt lat="39.0673240" lon="1.4110020">
        <ele>251.5</ele>
        <time>2020-02-22T12:52:47Z</time>
      </trkpt>
      <trkpt lat="39.0673490" lon="1.4109810">
        <ele>251.7</ele>
        <time>2020-02-22T12:52:48Z</time>
      </trkpt>
      <trkpt lat="39.0673580" lon="1.4109770">
        <ele>251.8</ele>
        <time>2020-02-22T12:52:49Z</time>
      </trkpt>
      <trkpt lat="39.0673810" lon="1.4109540">
        <ele>252.0</ele>
        <time>2020-02-22T12:52:50Z</time>
      </trkpt>
      <trkpt lat="39.0673870" lon="1.4109450">
        <ele>252.0</ele>
        <time>2020-02-22T12:52:51Z</time>
      </trkpt>
      <trkpt lat="39.0674110" lon="1.4109180">
        <ele>252.3</ele>
        <time>2020-02-22T12:52:52Z</time>
      </trkpt>
      <trkpt lat="39.0674200" lon="1.4109080">
        <ele>252.3</ele>
        <time>2020-02-22T12:52:53Z</time>
      </trkpt>
      <trkpt lat="39.0674450" lon="1.4108780">
        <ele>252.6</ele>
        <time>2020-02-22T12:52:54Z</time>
      </trkpt>
      <trkpt lat="39.0674510" lon="1.4108680">
        <ele>252.6</ele>
        <time>2020-02-22T12:52:55Z</time>
      </trkpt>
      <trkpt lat="39.0674710" lon="1.4108370">
        <ele>252.8</ele>
        <time>2020-02-22T12:52:56Z</time>
      </trkpt>
      <trkpt lat="39.0674770" lon="1.4108250">
        <ele>252.9</ele>
        <time>2020-02-22T12:52:57Z</time>
      </trkpt>
      <trkpt lat="39.0674970" lon="1.4107960">
        <ele>253.2</ele>
        <time>2020-02-22T12:52:58Z</time>
      </trkpt>
      <trkpt lat="39.0675040" lon="1.4107860">
        <ele>253.3</ele>
        <time>2020-02-22T12:52:59Z</time>
      </trkpt>
      <trkpt lat="39.0675230" lon="1.4107600">
        <ele>253.6</ele>
        <time>2020-02-22T12:53:00Z</time>
      </trkpt>
      <trkpt lat="39.0675290" lon="1.4107500">
        <ele>253.6</ele>
        <time>2020-02-22T12:53:01Z</time>
      </trkpt>
      <trkpt lat="39.0675500" lon="1.4107220">
        <ele>253.9</ele>
        <time>2020-02-22T12:53:02Z</time>
      </trkpt>
      <trkpt lat="39.0675570" lon="1.4107140">
        <ele>253.9</ele>
        <time>2020-02-22T12:53:03Z</time>
      </trkpt>
      <trkpt lat="39.0675810" lon="1.4106860">
        <ele>254.2</ele>
        <time>2020-02-22T12:53:04Z</time>
      </trkpt>
      <trkpt lat="39.0675880" lon="1.4106760">
        <ele>254.2</ele>
        <time>2020-02-22T12:53:05Z</time>
      </trkpt>
      <trkpt lat="39.0676170" lon="1.4106540">
        <ele>254.4</ele>
        <time>2020-02-22T12:53:06Z</time>
      </trkpt>
      <trkpt lat="39.0676260" lon="1.4106460">
        <ele>254.5</ele>
        <time>2020-02-22T12:53:07Z</time>
      </trkpt>
      <trkpt lat="39.0676410" lon="1.4106310">
        <ele>254.6</ele>
        <time>2020-02-22T12:53:08Z</time>
      </trkpt>
      <trkpt lat="39.0676530" lon="1.4106200">
        <ele>254.7</ele>
        <time>2020-02-22T12:53:09Z</time>
      </trkpt>
      <trkpt lat="39.0676820" lon="1.4105930">
        <ele>255.0</ele>
        <time>2020-02-22T12:53:10Z</time>
      </trkpt>
      <trkpt lat="39.0676910" lon="1.4105840">
        <ele>255.0</ele>
        <time>2020-02-22T12:53:11Z</time>
      </trkpt>
      <trkpt lat="39.0677180" lon="1.4105570">
        <ele>255.3</ele>
        <time>2020-02-22T12:53:12Z</time>
      </trkpt>
      <trkpt lat="39.0677260" lon="1.4105460">
        <ele>255.5</ele>
        <time>2020-02-22T12:53:13Z</time>
      </trkpt>
      <trkpt lat="39.0677460" lon="1.4105200">
        <ele>255.8</ele>
        <time>2020-02-22T12:53:14Z</time>
      </trkpt>
      <trkpt lat="39.0677540" lon="1.4105130">
        <ele>255.9</ele>
        <time>2020-02-22T12:53:15Z</time>
      </trkpt>
      <trkpt lat="39.0677690" lon="1.4105020">
        <ele>256.0</ele>
        <time>2020-02-22T12:53:16Z</time>
      </trkpt>
      <trkpt lat="39.0677850" lon="1.4104920">
        <ele>256.1</ele>
        <time>2020-02-22T12:53:17Z</time>
      </trkpt>
      <trkpt lat="39.0677990" lon="1.4104830">
        <ele>256.2</ele>
        <time>2020-02-22T12:53:18Z</time>
      </trkpt>
      <trkpt lat="39.0678140" lon="1.4104730">
        <ele>256.4</ele>
        <time>2020-02-22T12:53:19Z</time>
      </trkpt>
      <trkpt lat="39.0678300" lon="1.4104580">
        <ele>256.5</ele>
        <time>2020-02-22T12:53:20Z</time>
      </trkpt>
      <trkpt lat="39.0678440" lon="1.4104580">
        <ele>256.6</ele>
        <time>2020-02-22T12:53:21Z</time>
      </trkpt>
      <trkpt lat="39.0678770" lon="1.4104590">
        <ele>256.8</ele>
        <time>2020-02-22T12:53:22Z</time>
      </trkpt>
      <trkpt lat="39.0678830" lon="1.4104580">
        <ele>256.9</ele>
        <time>2020-02-22T12:53:23Z</time>
      </trkpt>
      <trkpt lat="39.0679100" lon="1.4104500">
        <ele>257.1</ele>
        <time>2020-02-22T12:53:24Z</time>
      </trkpt>
      <trkpt lat="39.0679200" lon="1.4104490">
        <ele>257.2</ele>
        <time>2020-02-22T12:53:25Z</time>
      </trkpt>
      <trkpt lat="39.0679470" lon="1.4104600">
        <ele>257.4</ele>
        <time>2020-02-22T12:53:26Z</time>
      </trkpt>
      <trkpt lat="39.0679580" lon="1.4104610">
        <ele>257.5</ele>
        <time>2020-02-22T12:53:27Z</time>
      </trkpt>
      <trkpt lat="39.0679780" lon="1.4104660">
        <ele>257.7</ele>
        <time>2020-02-22T12:53:28Z</time>
      </trkpt>
      <trkpt lat="39.0679870" lon="1.4104670">
        <ele>257.7</ele>
        <time>2020-02-22T12:53:29Z</time>
      </trkpt>
      <trkpt lat="39.0679960" lon="1.4104690">
        <ele>257.8</ele>
        <time>2020-02-22T12:53:30Z</time>
      </trkpt>
      <trkpt lat="39.0680260" lon="1.4104730">
        <ele>258.1</ele>
        <time>2020-02-22T12:53:31Z</time>
      </trkpt>
      <trkpt lat="39.0680360" lon="1.4104750">
        <ele>258.2</ele>
        <time>2020-02-22T12:53:32Z</time>
      </trkpt>
      <trkpt lat="39.0680550" lon="1.4104730">
        <ele>258.4</ele>
        <time>2020-02-22T12:53:33Z</time>
      </trkpt>
      <trkpt lat="39.0680690" lon="1.4104730">
        <ele>258.5</ele>
        <time>2020-02-22T12:53:34Z</time>
      </trkpt>
      <trkpt lat="39.0680780" lon="1.4104710">
        <ele>258.6</ele>
        <time>2020-02-22T12:53:35Z</time>
      </trkpt>
      <trkpt lat="39.0680970" lon="1.4104750">
        <ele>258.7</ele>
        <time>2020-02-22T12:53:36Z</time>
      </trkpt>
      <trkpt lat="39.0681250" lon="1.4104790">
        <ele>259.0</ele>
        <time>2020-02-22T12:53:37Z</time>
      </trkpt>
      <trkpt lat="39.0681330" lon="1.4104830">
        <ele>259.0</ele>
        <time>2020-02-22T12:53:38Z</time>
      </trkpt>
      <trkpt lat="39.0681500" lon="1.4104970">
        <ele>259.2</ele>
        <time>2020-02-22T12:53:39Z</time>
      </trkpt>
      <trkpt lat="39.0681620" lon="1.4104950">
        <ele>259.3</ele>
        <time>2020-02-22T12:53:40Z</time>
      </trkpt>
      <trkpt lat="39.0681910" lon="1.4105050">
        <ele>259.4</ele>
        <time>2020-02-22T12:53:41Z</time>
      </trkpt>
      <trkpt lat="39.0682000" lon="1.4105060">
        <ele>259.5</ele>
        <time>2020-02-22T12:53:42Z</time>
      </trkpt>
      <trkpt lat="39.0682200" lon="1.4105150">
        <ele>259.6</ele>
        <time>2020-02-22T12:53:43Z</time>
      </trkpt>
      <trkpt lat="39.0682330" lon="1.4105170">
        <ele>259.6</ele>
        <time>2020-02-22T12:53:44Z</time>
      </trkpt>
      <trkpt lat="39.0682450" lon="1.4105150">
        <ele>259.7</ele>
        <time>2020-02-22T12:53:45Z</time>
      </trkpt>
      <trkpt lat="39.0682600" lon="1.4105150">
        <ele>259.8</ele>
        <time>2020-02-22T12:53:46Z</time>
      </trkpt>
      <trkpt lat="39.0682740" lon="1.4105180">
        <ele>259.8</ele>
        <time>2020-02-22T12:53:47Z</time>
      </trkpt>
      <trkpt lat="39.0682940" lon="1.4105200">
        <ele>259.9</ele>
        <time>2020-02-22T12:53:48Z</time>
      </trkpt>
      <trkpt lat="39.0683220" lon="1.4105160">
        <ele>260.0</ele>
        <time>2020-02-22T12:53:49Z</time>
      </trkpt>
      <trkpt lat="39.0683330" lon="1.4105170">
        <ele>260.1</ele>
        <time>2020-02-22T12:53:50Z</time>
      </trkpt>
      <trkpt lat="39.0683700" lon="1.4105110">
        <ele>260.1</ele>
        <time>2020-02-22T12:53:51Z</time>
      </trkpt>
      <trkpt lat="39.0683810" lon="1.4105090">
        <ele>260.1</ele>
        <time>2020-02-22T12:53:52Z</time>
      </trkpt>
      <trkpt lat="39.0684230" lon="1.4105100">
        <ele>260.2</ele>
        <time>2020-02-22T12:53:53Z</time>
      </trkpt>
      <trkpt lat="39.0684400" lon="1.4105150">
        <ele>260.3</ele>
        <time>2020-02-22T12:53:54Z</time>
      </trkpt>
      <trkpt lat="39.0684800" lon="1.4105190">
        <ele>260.3</ele>
        <time>2020-02-22T12:53:55Z</time>
      </trkpt>
      <trkpt lat="39.0684940" lon="1.4105210">
        <ele>260.3</ele>
        <time>2020-02-22T12:53:56Z</time>
      </trkpt>
      <trkpt lat="39.0685220" lon="1.4105280">
        <ele>260.3</ele>
        <time>2020-02-22T12:53:57Z</time>
      </trkpt>
      <trkpt lat="39.0685510" lon="1.4105350">
        <ele>260.3</ele>
        <time>2020-02-22T12:53:58Z</time>
      </trkpt>
      <trkpt lat="39.0685800" lon="1.4105440">
        <ele>260.3</ele>
        <time>2020-02-22T12:53:59Z</time>
      </trkpt>
      <trkpt lat="39.0686130" lon="1.4105510">
        <ele>260.3</ele>
        <time>2020-02-22T12:54:00Z</time>
      </trkpt>
      <trkpt lat="39.0686590" lon="1.4105640">
        <ele>260.2</ele>
        <time>2020-02-22T12:54:01Z</time>
      </trkpt>
      <trkpt lat="39.0687060" lon="1.4105710">
        <ele>260.2</ele>
        <time>2020-02-22T12:54:02Z</time>
      </trkpt>
      <trkpt lat="39.0687530" lon="1.4105850">
        <ele>260.1</ele>
        <time>2020-02-22T12:54:03Z</time>
      </trkpt>
      <trkpt lat="39.0688010" lon="1.4106010">
        <ele>260.0</ele>
        <time>2020-02-22T12:54:04Z</time>
      </trkpt>
      <trkpt lat="39.0688450" lon="1.4106290">
        <ele>260.0</ele>
        <time>2020-02-22T12:54:05Z</time>
      </trkpt>
      <trkpt lat="39.0688810" lon="1.4106710">
        <ele>259.9</ele>
        <time>2020-02-22T12:54:06Z</time>
      </trkpt>
      <trkpt lat="39.0689200" lon="1.4107070">
        <ele>259.7</ele>
        <time>2020-02-22T12:54:07Z</time>
      </trkpt>
      <trkpt lat="39.0689660" lon="1.4107460">
        <ele>259.6</ele>
        <time>2020-02-22T12:54:08Z</time>
      </trkpt>
      <trkpt lat="39.0690020" lon="1.4107810">
        <ele>259.4</ele>
        <time>2020-02-22T12:54:09Z</time>
      </trkpt>
      <trkpt lat="39.0690460" lon="1.4108170">
        <ele>259.2</ele>
        <time>2020-02-22T12:54:10Z</time>
      </trkpt>
      <trkpt lat="39.0690970" lon="1.4108510">
        <ele>259.0</ele>
        <time>2020-02-22T12:54:11Z</time>
      </trkpt>
      <trkpt lat="39.0691470" lon="1.4108880">
        <ele>258.9</ele>
        <time>2020-02-22T12:54:12Z</time>
      </trkpt>
      <trkpt lat="39.0691930" lon="1.4109130">
        <ele>258.6</ele>
        <time>2020-02-22T12:54:13Z</time>
      </trkpt>
      <trkpt lat="39.0692450" lon="1.4109410">
        <ele>258.4</ele>
        <time>2020-02-22T12:54:14Z</time>
      </trkpt>
      <trkpt lat="39.0692960" lon="1.4109650">
        <ele>258.1</ele>
        <time>2020-02-22T12:54:15Z</time>
      </trkpt>
      <trkpt lat="39.0693530" lon="1.4109760">
        <ele>257.9</ele>
        <time>2020-02-22T12:54:16Z</time>
      </trkpt>
      <trkpt lat="39.0693980" lon="1.4109810">
        <ele>257.6</ele>
        <time>2020-02-22T12:54:17Z</time>
      </trkpt>
      <trkpt lat="39.0694340" lon="1.4109860">
        <ele>257.4</ele>
        <time>2020-02-22T12:54:18Z</time>
      </trkpt>
      <trkpt lat="39.0694550" lon="1.4109960">
        <ele>257.2</ele>
        <time>2020-02-22T12:54:19Z</time>
      </trkpt>
      <trkpt lat="39.0694650" lon="1.4109980">
        <ele>257.1</ele>
        <time>2020-02-22T12:54:20Z</time>
      </trkpt>
      <trkpt lat="39.0694900" lon="1.4109700">
        <ele>256.9</ele>
        <time>2020-02-22T12:54:21Z</time>
      </trkpt>
      <trkpt lat="39.0694980" lon="1.4109550">
        <ele>256.8</ele>
        <time>2020-02-22T12:54:22Z</time>
      </trkpt>
      <trkpt lat="39.0695020" lon="1.4109130">
        <ele>256.7</ele>
        <time>2020-02-22T12:54:23Z</time>
      </trkpt>
      <trkpt lat="39.0695170" lon="1.4108780">
        <ele>256.7</ele>
        <time>2020-02-22T12:54:24Z</time>
      </trkpt>
      <trkpt lat="39.0695190" lon="1.4108680">
        <ele>256.7</ele>
        <time>2020-02-22T12:54:25Z</time>
      </trkpt>
      <trkpt lat="39.0695370" lon="1.4108380">
        <ele>256.6</ele>
        <time>2020-02-22T12:54:26Z</time>
      </trkpt>
      <trkpt lat="39.0695620" lon="1.4108080">
        <ele>256.6</ele>
        <time>2020-02-22T12:54:27Z</time>
      </trkpt>
      <trkpt lat="39.0695850" lon="1.4107810">
        <ele>256.6</ele>
        <time>2020-02-22T12:54:28Z</time>
      </trkpt>
      <trkpt lat="39.0696150" lon="1.4107430">
        <ele>256.6</ele>
        <time>2020-02-22T12:54:29Z</time>
      </trkpt>
      <trkpt lat="39.0696370" lon="1.4107190">
        <ele>256.6</ele>
        <time>2020-02-22T12:54:30Z</time>
      </trkpt>
      <trkpt lat="39.0696620" lon="1.4106900">
        <ele>256.6</ele>
        <time>2020-02-22T12:54:31Z</time>
      </trkpt>
      <trkpt lat="39.0696880" lon="1.4106650">
        <ele>256.5</ele>
        <time>2020-02-22T12:54:32Z</time>
      </trkpt>
      <trkpt lat="39.0697080" lon="1.4106350">
        <ele>256.5</ele>
        <time>2020-02-22T12:54:33Z</time>
      </trkpt>
      <trkpt lat="39.0697320" lon="1.4106080">
        <ele>256.5</ele>
        <time>2020-02-22T12:54:34Z</time>
      </trkpt>
      <trkpt lat="39.0697480" lon="1.4105740">
        <ele>256.5</ele>
        <time>2020-02-22T12:54:35Z</time>
      </trkpt>
      <trkpt lat="39.0697730" lon="1.4105340">
        <ele>256.4</ele>
        <time>2020-02-22T12:54:36Z</time>
      </trkpt>
      <trkpt lat="39.0697840" lon="1.4105210">
        <ele>256.4</ele>
        <time>2020-02-22T12:54:37Z</time>
      </trkpt>
      <trkpt lat="39.0698060" lon="1.4104820">
        <ele>256.4</ele>
        <time>2020-02-22T12:54:38Z</time>
      </trkpt>
      <trkpt lat="39.0698230" lon="1.4104490">
        <ele>256.4</ele>
        <time>2020-02-22T12:54:39Z</time>
      </trkpt>
      <trkpt lat="39.0698410" lon="1.4104170">
        <ele>256.4</ele>
        <time>2020-02-22T12:54:40Z</time>
      </trkpt>
      <trkpt lat="39.0698570" lon="1.4103830">
        <ele>256.3</ele>
        <time>2020-02-22T12:54:41Z</time>
      </trkpt>
      <trkpt lat="39.0698890" lon="1.4103490">
        <ele>256.3</ele>
        <time>2020-02-22T12:54:42Z</time>
      </trkpt>
      <trkpt lat="39.0699000" lon="1.4103370">
        <ele>256.2</ele>
        <time>2020-02-22T12:54:43Z</time>
      </trkpt>
      <trkpt lat="39.0699120" lon="1.4103070">
        <ele>256.2</ele>
        <time>2020-02-22T12:54:44Z</time>
      </trkpt>
      <trkpt lat="39.0699140" lon="1.4102960">
        <ele>256.2</ele>
        <time>2020-02-22T12:54:45Z</time>
      </trkpt>
      <trkpt lat="39.0699150" lon="1.4102850">
        <ele>256.2</ele>
        <time>2020-02-22T12:54:46Z</time>
      </trkpt>
      <trkpt lat="39.0699240" lon="1.4102650">
        <ele>256.2</ele>
        <time>2020-02-22T12:54:47Z</time>
      </trkpt>
      <trkpt lat="39.0699310" lon="1.4102440">
        <ele>256.1</ele>
        <time>2020-02-22T12:54:48Z</time>
      </trkpt>
      <trkpt lat="39.0699370" lon="1.4102280">
        <ele>256.1</ele>
        <time>2020-02-22T12:54:49Z</time>
      </trkpt>
      <trkpt lat="39.0699360" lon="1.4102080">
        <ele>256.1</ele>
        <time>2020-02-22T12:54:50Z</time>
      </trkpt>
      <trkpt lat="39.0699490" lon="1.4101910">
        <ele>256.1</ele>
        <time>2020-02-22T12:54:51Z</time>
      </trkpt>
      <trkpt lat="39.0699490" lon="1.4101770">
        <ele>256.2</ele>
        <time>2020-02-22T12:54:52Z</time>
      </trkpt>
      <trkpt lat="39.0699560" lon="1.4101720">
        <ele>256.2</ele>
        <time>2020-02-22T12:54:53Z</time>
      </trkpt>
      <trkpt lat="39.0699550" lon="1.4101600">
        <ele>256.2</ele>
        <time>2020-02-22T12:54:54Z</time>
      </trkpt>
      <trkpt lat="39.0699530" lon="1.4101760">
        <ele>256.2</ele>
        <time>2020-02-22T12:54:55Z</time>
      </trkpt>
      <trkpt lat="39.0699530" lon="1.4101960">
        <ele>256.2</ele>
        <time>2020-02-22T12:54:56Z</time>
      </trkpt>
      <trkpt lat="39.0699590" lon="1.4102160">
        <ele>256.2</ele>
        <time>2020-02-22T12:54:57Z</time>
      </trkpt>
      <trkpt lat="39.0699590" lon="1.4102280">
        <ele>256.2</ele>
        <time>2020-02-22T12:54:58Z</time>
      </trkpt>
      <trkpt lat="39.0699570" lon="1.4102390">
        <ele>256.3</ele>
        <time>2020-02-22T12:54:59Z</time>
      </trkpt>
      <trkpt lat="39.0699550" lon="1.4102580">
        <ele>256.3</ele>
        <time>2020-02-22T12:55:00Z</time>
      </trkpt>
      <trkpt lat="39.0699470" lon="1.4102700">
        <ele>256.3</ele>
        <time>2020-02-22T12:55:01Z</time>
      </trkpt>
      <trkpt lat="39.0699340" lon="1.4102870">
        <ele>256.3</ele>
        <time>2020-02-22T12:55:02Z</time>
      </trkpt>
      <trkpt lat="39.0699240" lon="1.4103010">
        <ele>256.3</ele>
        <time>2020-02-22T12:55:03Z</time>
      </trkpt>
      <trkpt lat="39.0699140" lon="1.4103190">
        <ele>256.3</ele>
        <time>2020-02-22T12:55:04Z</time>
      </trkpt>
      <trkpt lat="39.0699020" lon="1.4103310">
        <ele>256.4</ele>
        <time>2020-02-22T12:55:05Z</time>
      </trkpt>
      <trkpt lat="39.0698990" lon="1.4103320">
        <ele>256.4</ele>
        <time>2020-02-22T12:55:06Z</time>
      </trkpt>
      <trkpt lat="39.0698950" lon="1.4103340">
        <ele>256.4</ele>
        <time>2020-02-22T12:55:07Z</time>
      </trkpt>
      <trkpt lat="39.0698910" lon="1.4103360">
        <ele>256.4</ele>
        <time>2020-02-22T12:55:08Z</time>
      </trkpt>
      <trkpt lat="39.0698880" lon="1.4103380">
        <ele>256.4</ele>
        <time>2020-02-22T12:55:09Z</time>
      </trkpt>
      <trkpt lat="39.0698840" lon="1.4103390">
        <ele>256.4</ele>
        <time>2020-02-22T12:55:10Z</time>
      </trkpt>
      <trkpt lat="39.0698800" lon="1.4103410">
        <ele>256.4</ele>
        <time>2020-02-22T12:55:11Z</time>
      </trkpt>
      <trkpt lat="39.0698770" lon="1.4103430">
        <ele>256.4</ele>
        <time>2020-02-22T12:55:12Z</time>
      </trkpt>
      <trkpt lat="39.0698730" lon="1.4103450">
        <ele>256.4</ele>
        <time>2020-02-22T12:55:13Z</time>
      </trkpt>
      <trkpt lat="39.0698690" lon="1.4103460">
        <ele>256.4</ele>
        <time>2020-02-22T12:55:14Z</time>
      </trkpt>
      <trkpt lat="39.0698660" lon="1.4103480">
        <ele>256.4</ele>
        <time>2020-02-22T12:55:15Z</time>
      </trkpt>
      <trkpt lat="39.0698620" lon="1.4103500">
        <ele>256.4</ele>
        <time>2020-02-22T12:55:16Z</time>
      </trkpt>
      <trkpt lat="39.0698580" lon="1.4103520">
        <ele>256.4</ele>
        <time>2020-02-22T12:55:55Z</time>
      </trkpt>
      <trkpt lat="39.0698550" lon="1.4103530">
        <ele>256.4</ele>
        <time>2020-02-22T12:55:56Z</time>
      </trkpt>
      <trkpt lat="39.0698510" lon="1.4103550">
        <ele>256.4</ele>
        <time>2020-02-22T12:55:57Z</time>
      </trkpt>
      <trkpt lat="39.0698310" lon="1.4103930">
        <ele>256.4</ele>
        <time>2020-02-22T12:55:58Z</time>
      </trkpt>
      <trkpt lat="39.0698250" lon="1.4104070">
        <ele>256.4</ele>
        <time>2020-02-22T12:55:59Z</time>
      </trkpt>
      <trkpt lat="39.0698020" lon="1.4104330">
        <ele>256.4</ele>
        <time>2020-02-22T12:56:00Z</time>
      </trkpt>
      <trkpt lat="39.0697720" lon="1.4104610">
        <ele>256.5</ele>
        <time>2020-02-22T12:56:01Z</time>
      </trkpt>
      <trkpt lat="39.0697450" lon="1.4105050">
        <ele>256.5</ele>
        <time>2020-02-22T12:56:02Z</time>
      </trkpt>
      <trkpt lat="39.0697320" lon="1.4105220">
        <ele>256.5</ele>
        <time>2020-02-22T12:56:03Z</time>
      </trkpt>
      <trkpt lat="39.0696880" lon="1.4105720">
        <ele>256.5</ele>
        <time>2020-02-22T12:56:04Z</time>
      </trkpt>
      <trkpt lat="39.0696550" lon="1.4106290">
        <ele>256.6</ele>
        <time>2020-02-22T12:56:05Z</time>
      </trkpt>
      <trkpt lat="39.0696260" lon="1.4106660">
        <ele>256.6</ele>
        <time>2020-02-22T12:56:06Z</time>
      </trkpt>
      <trkpt lat="39.0695940" lon="1.4107030">
        <ele>256.6</ele>
        <time>2020-02-22T12:56:07Z</time>
      </trkpt>
      <trkpt lat="39.0695660" lon="1.4107500">
        <ele>256.6</ele>
        <time>2020-02-22T12:56:08Z</time>
      </trkpt>
      <trkpt lat="39.0695340" lon="1.4107900">
        <ele>256.6</ele>
        <time>2020-02-22T12:56:09Z</time>
      </trkpt>
      <trkpt lat="39.0695070" lon="1.4108120">
        <ele>256.7</ele>
        <time>2020-02-22T12:56:10Z</time>
      </trkpt>
      <trkpt lat="39.0694710" lon="1.4108440">
        <ele>256.7</ele>
        <time>2020-02-22T12:56:11Z</time>
      </trkpt>
      <trkpt lat="39.0694560" lon="1.4108560">
        <ele>256.7</ele>
        <time>2020-02-22T12:56:12Z</time>
      </trkpt>
      <trkpt lat="39.0694440" lon="1.4109040">
        <ele>256.8</ele>
        <time>2020-02-22T12:56:13Z</time>
      </trkpt>
      <trkpt lat="39.0694440" lon="1.4109210">
        <ele>256.8</ele>
        <time>2020-02-22T12:56:14Z</time>
      </trkpt>
      <trkpt lat="39.0694570" lon="1.4109540">
        <ele>256.6</ele>
        <time>2020-02-22T12:56:15Z</time>
      </trkpt>
      <trkpt lat="39.0694750" lon="1.4109880">
        <ele>256.4</ele>
        <time>2020-02-22T12:56:16Z</time>
      </trkpt>
      <trkpt lat="39.0694840" lon="1.4109980">
        <ele>256.3</ele>
        <time>2020-02-22T12:56:17Z</time>
      </trkpt>
      <trkpt lat="39.0695110" lon="1.4110170">
        <ele>256.1</ele>
        <time>2020-02-22T12:56:18Z</time>
      </trkpt>
      <trkpt lat="39.0695370" lon="1.4110370">
        <ele>255.9</ele>
        <time>2020-02-22T12:56:19Z</time>
      </trkpt>
      <trkpt lat="39.0695720" lon="1.4110560">
        <ele>255.6</ele>
        <time>2020-02-22T12:56:20Z</time>
      </trkpt>
      <trkpt lat="39.0695840" lon="1.4110640">
        <ele>255.5</ele>
        <time>2020-02-22T12:56:21Z</time>
      </trkpt>
      <trkpt lat="39.0696100" lon="1.4110900">
        <ele>255.2</ele>
        <time>2020-02-22T12:56:22Z</time>
      </trkpt>
      <trkpt lat="39.0696390" lon="1.4111020">
        <ele>255.0</ele>
        <time>2020-02-22T12:56:23Z</time>
      </trkpt>
      <trkpt lat="39.0696770" lon="1.4111380">
        <ele>254.6</ele>
        <time>2020-02-22T12:56:24Z</time>
      </trkpt>
      <trkpt lat="39.0697200" lon="1.4111610">
        <ele>254.3</ele>
        <time>2020-02-22T12:56:25Z</time>
      </trkpt>
      <trkpt lat="39.0697670" lon="1.4111850">
        <ele>253.9</ele>
        <time>2020-02-22T12:56:26Z</time>
      </trkpt>
      <trkpt lat="39.0698250" lon="1.4111940">
        <ele>253.6</ele>
        <time>2020-02-22T12:56:27Z</time>
      </trkpt>
      <trkpt lat="39.0698830" lon="1.4112130">
        <ele>253.2</ele>
        <time>2020-02-22T12:56:28Z</time>
      </trkpt>
      <trkpt lat="39.0699410" lon="1.4112430">
        <ele>252.7</ele>
        <time>2020-02-22T12:56:29Z</time>
      </trkpt>
      <trkpt lat="39.0699950" lon="1.4112740">
        <ele>252.2</ele>
        <time>2020-02-22T12:56:30Z</time>
      </trkpt>
      <trkpt lat="39.0700500" lon="1.4113100">
        <ele>251.8</ele>
        <time>2020-02-22T12:56:31Z</time>
      </trkpt>
      <trkpt lat="39.0701190" lon="1.4113540">
        <ele>251.2</ele>
        <time>2020-02-22T12:56:32Z</time>
      </trkpt>
      <trkpt lat="39.0701980" lon="1.4114090">
        <ele>250.5</ele>
        <time>2020-02-22T12:56:33Z</time>
      </trkpt>
      <trkpt lat="39.0702830" lon="1.4114650">
        <ele>249.3</ele>
        <time>2020-02-22T12:56:34Z</time>
      </trkpt>
      <trkpt lat="39.0703530" lon="1.4115260">
        <ele>248.9</ele>
        <time>2020-02-22T12:56:35Z</time>
      </trkpt>
      <trkpt lat="39.0704070" lon="1.4115680">
        <ele>248.7</ele>
        <time>2020-02-22T12:56:36Z</time>
      </trkpt>
      <trkpt lat="39.0704390" lon="1.4116420">
        <ele>248.6</ele>
        <time>2020-02-22T12:56:37Z</time>
      </trkpt>
      <trkpt lat="39.0704590" lon="1.4117280">
        <ele>248.7</ele>
        <time>2020-02-22T12:56:38Z</time>
      </trkpt>
      <trkpt lat="39.0704690" lon="1.4117970">
        <ele>248.8</ele>
        <time>2020-02-22T12:56:39Z</time>
      </trkpt>
      <trkpt lat="39.0704910" lon="1.4118700">
        <ele>248.9</ele>
        <time>2020-02-22T12:56:40Z</time>
      </trkpt>
      <trkpt lat="39.0705040" lon="1.4119270">
        <ele>249.0</ele>
        <time>2020-02-22T12:56:41Z</time>
      </trkpt>
      <trkpt lat="39.0705220" lon="1.4119770">
        <ele>249.1</ele>
        <time>2020-02-22T12:56:42Z</time>
      </trkpt>
      <trkpt lat="39.0705660" lon="1.4119960">
        <ele>249.3</ele>
        <time>2020-02-22T12:56:43Z</time>
      </trkpt>
      <trkpt lat="39.0706040" lon="1.4120290">
        <ele>249.4</ele>
        <time>2020-02-22T12:56:44Z</time>
      </trkpt>
      <trkpt lat="39.0706420" lon="1.4120410">
        <ele>249.1</ele>
        <time>2020-02-22T12:56:45Z</time>
      </trkpt>
      <trkpt lat="39.0706820" lon="1.4120520">
        <ele>249.0</ele>
        <time>2020-02-22T12:56:46Z</time>
      </trkpt>
      <trkpt lat="39.0707200" lon="1.4120520">
        <ele>248.9</ele>
        <time>2020-02-22T12:56:47Z</time>
      </trkpt>
      <trkpt lat="39.0707600" lon="1.4120450">
        <ele>248.7</ele>
        <time>2020-02-22T12:56:48Z</time>
      </trkpt>
      <trkpt lat="39.0708010" lon="1.4120420">
        <ele>248.5</ele>
        <time>2020-02-22T12:56:49Z</time>
      </trkpt>
      <trkpt lat="39.0708370" lon="1.4120270">
        <ele>248.4</ele>
        <time>2020-02-22T12:56:50Z</time>
      </trkpt>
      <trkpt lat="39.0708740" lon="1.4120100">
        <ele>248.2</ele>
        <time>2020-02-22T12:56:51Z</time>
      </trkpt>
      <trkpt lat="39.0709090" lon="1.4119970">
        <ele>248.0</ele>
        <time>2020-02-22T12:56:52Z</time>
      </trkpt>
      <trkpt lat="39.0709420" lon="1.4119870">
        <ele>247.8</ele>
        <time>2020-02-22T12:56:53Z</time>
      </trkpt>
      <trkpt lat="39.0709740" lon="1.4119640">
        <ele>247.6</ele>
        <time>2020-02-22T12:56:54Z</time>
      </trkpt>
      <trkpt lat="39.0710070" lon="1.4119520">
        <ele>247.4</ele>
        <time>2020-02-22T12:56:55Z</time>
      </trkpt>
      <trkpt lat="39.0710400" lon="1.4119430">
        <ele>247.3</ele>
        <time>2020-02-22T12:56:56Z</time>
      </trkpt>
      <trkpt lat="39.0710710" lon="1.4119370">
        <ele>247.1</ele>
        <time>2020-02-22T12:56:57Z</time>
      </trkpt>
      <trkpt lat="39.0711050" lon="1.4119420">
        <ele>246.9</ele>
        <time>2020-02-22T12:56:58Z</time>
      </trkpt>
      <trkpt lat="39.0711370" lon="1.4119340">
        <ele>246.7</ele>
        <time>2020-02-22T12:56:59Z</time>
      </trkpt>
      <trkpt lat="39.0711700" lon="1.4119270">
        <ele>246.5</ele>
        <time>2020-02-22T12:57:00Z</time>
      </trkpt>
      <trkpt lat="39.0712010" lon="1.4119180">
        <ele>246.3</ele>
        <time>2020-02-22T12:57:01Z</time>
      </trkpt>
      <trkpt lat="39.0712370" lon="1.4119050">
        <ele>246.1</ele>
        <time>2020-02-22T12:57:02Z</time>
      </trkpt>
      <trkpt lat="39.0712890" lon="1.4118790">
        <ele>245.7</ele>
        <time>2020-02-22T12:57:03Z</time>
      </trkpt>
      <trkpt lat="39.0713350" lon="1.4118550">
        <ele>245.4</ele>
        <time>2020-02-22T12:57:04Z</time>
      </trkpt>
      <trkpt lat="39.0713820" lon="1.4118430">
        <ele>245.1</ele>
        <time>2020-02-22T12:57:05Z</time>
      </trkpt>
      <trkpt lat="39.0714360" lon="1.4118270">
        <ele>244.7</ele>
        <time>2020-02-22T12:57:06Z</time>
      </trkpt>
      <trkpt lat="39.0714760" lon="1.4118170">
        <ele>244.4</ele>
        <time>2020-02-22T12:57:07Z</time>
      </trkpt>
      <trkpt lat="39.0715180" lon="1.4118010">
        <ele>244.0</ele>
        <time>2020-02-22T12:57:08Z</time>
      </trkpt>
      <trkpt lat="39.0715690" lon="1.4117920">
        <ele>243.6</ele>
        <time>2020-02-22T12:57:09Z</time>
      </trkpt>
      <trkpt lat="39.0716200" lon="1.4117930">
        <ele>243.2</ele>
        <time>2020-02-22T12:57:10Z</time>
      </trkpt>
      <trkpt lat="39.0716850" lon="1.4117900">
        <ele>242.7</ele>
        <time>2020-02-22T12:57:11Z</time>
      </trkpt>
      <trkpt lat="39.0717400" lon="1.4117740">
        <ele>242.2</ele>
        <time>2020-02-22T12:57:12Z</time>
      </trkpt>
      <trkpt lat="39.0717890" lon="1.4117570">
        <ele>241.7</ele>
        <time>2020-02-22T12:57:13Z</time>
      </trkpt>
      <trkpt lat="39.0718420" lon="1.4117430">
        <ele>241.2</ele>
        <time>2020-02-22T12:57:14Z</time>
      </trkpt>
      <trkpt lat="39.0718900" lon="1.4117300">
        <ele>240.8</ele>
        <time>2020-02-22T12:57:15Z</time>
      </trkpt>
      <trkpt lat="39.0719320" lon="1.4117130">
        <ele>240.3</ele>
        <time>2020-02-22T12:57:16Z</time>
      </trkpt>
      <trkpt lat="39.0719840" lon="1.4117000">
        <ele>239.8</ele>
        <time>2020-02-22T12:57:17Z</time>
      </trkpt>
      <trkpt lat="39.0720460" lon="1.4117050">
        <ele>239.0</ele>
        <time>2020-02-22T12:57:18Z</time>
      </trkpt>
      <trkpt lat="39.0721130" lon="1.4117090">
        <ele>238.2</ele>
        <time>2020-02-22T12:57:19Z</time>
      </trkpt>
      <trkpt lat="39.0721590" lon="1.4117160">
        <ele>237.6</ele>
        <time>2020-02-22T12:57:20Z</time>
      </trkpt>
      <trkpt lat="39.0722170" lon="1.4117190">
        <ele>236.8</ele>
        <time>2020-02-22T12:57:21Z</time>
      </trkpt>
      <trkpt lat="39.0722920" lon="1.4117250">
        <ele>235.7</ele>
        <time>2020-02-22T12:57:22Z</time>
      </trkpt>
      <trkpt lat="39.0723560" lon="1.4117330">
        <ele>234.8</ele>
        <time>2020-02-22T12:57:23Z</time>
      </trkpt>
      <trkpt lat="39.0724260" lon="1.4117410">
        <ele>233.7</ele>
        <time>2020-02-22T12:57:24Z</time>
      </trkpt>
      <trkpt lat="39.0724780" lon="1.4117400">
        <ele>232.9</ele>
        <time>2020-02-22T12:57:25Z</time>
      </trkpt>
      <trkpt lat="39.0725180" lon="1.4117370">
        <ele>232.3</ele>
        <time>2020-02-22T12:57:26Z</time>
      </trkpt>
      <trkpt lat="39.0725590" lon="1.4117320">
        <ele>231.6</ele>
        <time>2020-02-22T12:57:27Z</time>
      </trkpt>
      <trkpt lat="39.0726020" lon="1.4117440">
        <ele>230.9</ele>
        <time>2020-02-22T12:57:28Z</time>
      </trkpt>
      <trkpt lat="39.0726600" lon="1.4117510">
        <ele>230.0</ele>
        <time>2020-02-22T12:57:29Z</time>
      </trkpt>
      <trkpt lat="39.0727250" lon="1.4117530">
        <ele>229.0</ele>
        <time>2020-02-22T12:57:30Z</time>
      </trkpt>
      <trkpt lat="39.0728030" lon="1.4117700">
        <ele>227.7</ele>
        <time>2020-02-22T12:57:31Z</time>
      </trkpt>
      <trkpt lat="39.0728750" lon="1.4117840">
        <ele>226.6</ele>
        <time>2020-02-22T12:57:32Z</time>
      </trkpt>
      <trkpt lat="39.0729550" lon="1.4118010">
        <ele>225.3</ele>
        <time>2020-02-22T12:57:33Z</time>
      </trkpt>
      <trkpt lat="39.0730320" lon="1.4118140">
        <ele>224.2</ele>
        <time>2020-02-22T12:57:34Z</time>
      </trkpt>
      <trkpt lat="39.0731100" lon="1.4118280">
        <ele>223.1</ele>
        <time>2020-02-22T12:57:35Z</time>
      </trkpt>
      <trkpt lat="39.0731850" lon="1.4118510">
        <ele>222.0</ele>
        <time>2020-02-22T12:57:36Z</time>
      </trkpt>
      <trkpt lat="39.0732590" lon="1.4118680">
        <ele>221.0</ele>
        <time>2020-02-22T12:57:37Z</time>
      </trkpt>
      <trkpt lat="39.0733180" lon="1.4118860">
        <ele>220.2</ele>
        <time>2020-02-22T12:57:38Z</time>
      </trkpt>
      <trkpt lat="39.0733960" lon="1.4119080">
        <ele>219.2</ele>
        <time>2020-02-22T12:57:39Z</time>
      </trkpt>
      <trkpt lat="39.0734660" lon="1.4119290">
        <ele>218.2</ele>
        <time>2020-02-22T12:57:40Z</time>
      </trkpt>
      <trkpt lat="39.0735320" lon="1.4119480">
        <ele>217.4</ele>
        <time>2020-02-22T12:57:41Z</time>
      </trkpt>
      <trkpt lat="39.0735930" lon="1.4119750">
        <ele>216.6</ele>
        <time>2020-02-22T12:57:42Z</time>
      </trkpt>
      <trkpt lat="39.0736590" lon="1.4120060">
        <ele>215.7</ele>
        <time>2020-02-22T12:57:43Z</time>
      </trkpt>
      <trkpt lat="39.0737240" lon="1.4120210">
        <ele>214.9</ele>
        <time>2020-02-22T12:57:44Z</time>
      </trkpt>
      <trkpt lat="39.0737820" lon="1.4120380">
        <ele>214.2</ele>
        <time>2020-02-22T12:57:45Z</time>
      </trkpt>
      <trkpt lat="39.0738230" lon="1.4120540">
        <ele>213.7</ele>
        <time>2020-02-22T12:57:46Z</time>
      </trkpt>
      <trkpt lat="39.0738520" lon="1.4120560">
        <ele>213.3</ele>
        <time>2020-02-22T12:57:47Z</time>
      </trkpt>
      <trkpt lat="39.0738730" lon="1.4120700">
        <ele>213.0</ele>
        <time>2020-02-22T12:57:48Z</time>
      </trkpt>
      <trkpt lat="39.0738860" lon="1.4120620">
        <ele>212.8</ele>
        <time>2020-02-22T12:57:49Z</time>
      </trkpt>
      <trkpt lat="39.0738870" lon="1.4120760">
        <ele>212.6</ele>
        <time>2020-02-22T12:57:50Z</time>
      </trkpt>
      <trkpt lat="39.0738810" lon="1.4120860">
        <ele>212.5</ele>
        <time>2020-02-22T12:57:51Z</time>
      </trkpt>
      <trkpt lat="39.0738740" lon="1.4120950">
        <ele>212.4</ele>
        <time>2020-02-22T12:57:52Z</time>
      </trkpt>
      <trkpt lat="39.0738670" lon="1.4121040">
        <ele>212.2</ele>
        <time>2020-02-22T12:57:53Z</time>
      </trkpt>
      <trkpt lat="39.0738530" lon="1.4121130">
        <ele>212.0</ele>
        <time>2020-02-22T12:57:54Z</time>
      </trkpt>
      <trkpt lat="39.0738360" lon="1.4121210">
        <ele>211.8</ele>
        <time>2020-02-22T12:57:55Z</time>
      </trkpt>
      <trkpt lat="39.0738180" lon="1.4121360">
        <ele>211.5</ele>
        <time>2020-02-22T12:57:56Z</time>
      </trkpt>
      <trkpt lat="39.0738120" lon="1.4121430">
        <ele>206.4</ele>
        <time>2020-02-22T12:57:57Z</time>
      </trkpt>
      <trkpt lat="39.0738070" lon="1.4121510">
        <ele>206.2</ele>
        <time>2020-02-22T12:57:58Z</time>
      </trkpt>
      <trkpt lat="39.0737760" lon="1.4121830">
        <ele>205.2</ele>
        <time>2020-02-22T12:57:59Z</time>
      </trkpt>
      <trkpt lat="39.0737620" lon="1.4121950">
        <ele>204.8</ele>
        <time>2020-02-22T12:58:00Z</time>
      </trkpt>
      <trkpt lat="39.0737360" lon="1.4122210">
        <ele>204.0</ele>
        <time>2020-02-22T12:58:01Z</time>
      </trkpt>
      <trkpt lat="39.0737160" lon="1.4122440">
        <ele>203.4</ele>
        <time>2020-02-22T12:58:02Z</time>
      </trkpt>
      <trkpt lat="39.0736870" lon="1.4122710">
        <ele>202.6</ele>
        <time>2020-02-22T12:58:03Z</time>
      </trkpt>
      <trkpt lat="39.0736780" lon="1.4122800">
        <ele>202.4</ele>
        <time>2020-02-22T12:58:04Z</time>
      </trkpt>
      <trkpt lat="39.0736390" lon="1.4122970">
        <ele>201.5</ele>
        <time>2020-02-22T12:58:05Z</time>
      </trkpt>
      <trkpt lat="39.0736240" lon="1.4123120">
        <ele>201.1</ele>
        <time>2020-02-22T12:58:06Z</time>
      </trkpt>
      <trkpt lat="39.0735850" lon="1.4123200">
        <ele>200.4</ele>
        <time>2020-02-22T12:58:07Z</time>
      </trkpt>
      <trkpt lat="39.0735710" lon="1.4123230">
        <ele>200.1</ele>
        <time>2020-02-22T12:58:08Z</time>
      </trkpt>
      <trkpt lat="39.0735410" lon="1.4123160">
        <ele>199.4</ele>
        <time>2020-02-22T12:58:09Z</time>
      </trkpt>
      <trkpt lat="39.0735100" lon="1.4123180">
        <ele>198.7</ele>
        <time>2020-02-22T12:58:10Z</time>
      </trkpt>
      <trkpt lat="39.0734910" lon="1.4123160">
        <ele>198.3</ele>
        <time>2020-02-22T12:58:11Z</time>
      </trkpt>
      <trkpt lat="39.0734820" lon="1.4123250">
        <ele>198.1</ele>
        <time>2020-02-22T12:58:12Z</time>
      </trkpt>
      <trkpt lat="39.0734770" lon="1.4123400">
        <ele>197.8</ele>
        <time>2020-02-22T12:58:13Z</time>
      </trkpt>
      <trkpt lat="39.0734720" lon="1.4123450">
        <ele>197.7</ele>
        <time>2020-02-22T12:58:14Z</time>
      </trkpt>
      <trkpt lat="39.0734610" lon="1.4123350">
        <ele>197.4</ele>
        <time>2020-02-22T12:58:15Z</time>
      </trkpt>
      <trkpt lat="39.0734570" lon="1.4123410">
        <ele>197.2</ele>
        <time>2020-02-22T12:58:16Z</time>
      </trkpt>
      <trkpt lat="39.0734500" lon="1.4123510">
        <ele>197.0</ele>
        <time>2020-02-22T12:58:17Z</time>
      </trkpt>
      <trkpt lat="39.0734400" lon="1.4123560">
        <ele>196.8</ele>
        <time>2020-02-22T12:58:18Z</time>
      </trkpt>
      <trkpt lat="39.0734330" lon="1.4123660">
        <ele>196.6</ele>
        <time>2020-02-22T12:58:19Z</time>
      </trkpt>
      <trkpt lat="39.0734320" lon="1.4123720">
        <ele>196.5</ele>
        <time>2020-02-22T12:58:20Z</time>
      </trkpt>
      <trkpt lat="39.0734330" lon="1.4123750">
        <ele>196.4</ele>
        <time>2020-02-22T12:58:21Z</time>
      </trkpt>
      <trkpt lat="39.0734260" lon="1.4123850">
        <ele>196.2</ele>
        <time>2020-02-22T12:58:22Z</time>
      </trkpt>
      <trkpt lat="39.0734190" lon="1.4123990">
        <ele>196.0</ele>
        <time>2020-02-22T12:58:23Z</time>
      </trkpt>
      <trkpt lat="39.0734100" lon="1.4124230">
        <ele>195.6</ele>
        <time>2020-02-22T12:58:24Z</time>
      </trkpt>
      <trkpt lat="39.0734060" lon="1.4124320">
        <ele>195.4</ele>
        <time>2020-02-22T12:58:25Z</time>
      </trkpt>
      <trkpt lat="39.0734020" lon="1.4124420">
        <ele>195.3</ele>
        <time>2020-02-22T12:58:26Z</time>
      </trkpt>
      <trkpt lat="39.0734060" lon="1.4124560">
        <ele>195.1</ele>
        <time>2020-02-22T12:58:27Z</time>
      </trkpt>
      <trkpt lat="39.0734100" lon="1.4124690">
        <ele>194.9</ele>
        <time>2020-02-22T12:58:28Z</time>
      </trkpt>
      <trkpt lat="39.0734170" lon="1.4124740">
        <ele>194.7</ele>
        <time>2020-02-22T12:58:29Z</time>
      </trkpt>
      <trkpt lat="39.0734190" lon="1.4124810">
        <ele>194.6</ele>
        <time>2020-02-22T12:58:30Z</time>
      </trkpt>
      <trkpt lat="39.0734200" lon="1.4124900">
        <ele>194.4</ele>
        <time>2020-02-22T12:58:31Z</time>
      </trkpt>
      <trkpt lat="39.0734230" lon="1.4124940">
        <ele>194.3</ele>
        <time>2020-02-22T12:58:32Z</time>
      </trkpt>
      <trkpt lat="39.0734170" lon="1.4125100">
        <ele>194.0</ele>
        <time>2020-02-22T12:58:33Z</time>
      </trkpt>
      <trkpt lat="39.0734120" lon="1.4125070">
        <ele>193.9</ele>
        <time>2020-02-22T12:58:34Z</time>
      </trkpt>
      <trkpt lat="39.0734140" lon="1.4125110">
        <ele>193.8</ele>
        <time>2020-02-22T12:58:35Z</time>
      </trkpt>
      <trkpt lat="39.0734220" lon="1.4125130">
        <ele>193.7</ele>
        <time>2020-02-22T12:58:36Z</time>
      </trkpt>
      <trkpt lat="39.0734190" lon="1.4125150">
        <ele>193.6</ele>
        <time>2020-02-22T12:58:37Z</time>
      </trkpt>
      <trkpt lat="39.0734250" lon="1.4125200">
        <ele>193.4</ele>
        <time>2020-02-22T12:58:38Z</time>
      </trkpt>
      <trkpt lat="39.0734300" lon="1.4125230">
        <ele>193.3</ele>
        <time>2020-02-22T12:58:39Z</time>
      </trkpt>
      <trkpt lat="39.0734340" lon="1.4125300">
        <ele>193.2</ele>
        <time>2020-02-22T12:58:40Z</time>
      </trkpt>
      <trkpt lat="39.0734380" lon="1.4125360">
        <ele>193.1</ele>
        <time>2020-02-22T12:58:41Z</time>
      </trkpt>
      <trkpt lat="39.0734450" lon="1.4125450">
        <ele>192.9</ele>
        <time>2020-02-22T12:58:42Z</time>
      </trkpt>
      <trkpt lat="39.0734590" lon="1.4125820">
        <ele>192.4</ele>
        <time>2020-02-22T12:58:54Z</time>
      </trkpt>
      <trkpt lat="39.0734700" lon="1.4125870">
        <ele>192.1</ele>
        <time>2020-02-22T12:58:55Z</time>
      </trkpt>
      <trkpt lat="39.0734710" lon="1.4125950">
        <ele>192.0</ele>
        <time>2020-02-22T12:58:56Z</time>
      </trkpt>
      <trkpt lat="39.0734730" lon="1.4126060">
        <ele>191.9</ele>
        <time>2020-02-22T12:58:57Z</time>
      </trkpt>
      <trkpt lat="39.0734710" lon="1.4126320">
        <ele>191.5</ele>
        <time>2020-02-22T12:58:58Z</time>
      </trkpt>
      <trkpt lat="39.0734680" lon="1.4126440">
        <ele>191.3</ele>
        <time>2020-02-22T12:58:59Z</time>
      </trkpt>
      <trkpt lat="39.0734650" lon="1.4126560">
        <ele>191.2</ele>
        <time>2020-02-22T12:59:00Z</time>
      </trkpt>
      <trkpt lat="39.0734720" lon="1.4126750">
        <ele>190.9</ele>
        <time>2020-02-22T12:59:01Z</time>
      </trkpt>
      <trkpt lat="39.0734780" lon="1.4126910">
        <ele>190.6</ele>
        <time>2020-02-22T12:59:02Z</time>
      </trkpt>
      <trkpt lat="39.0734930" lon="1.4127210">
        <ele>190.1</ele>
        <time>2020-02-22T12:59:03Z</time>
      </trkpt>
      <trkpt lat="39.0735000" lon="1.4127350">
        <ele>189.8</ele>
        <time>2020-02-22T12:59:04Z</time>
      </trkpt>
      <trkpt lat="39.0735250" lon="1.4127590">
        <ele>189.3</ele>
        <time>2020-02-22T12:59:05Z</time>
      </trkpt>
      <trkpt lat="39.0735320" lon="1.4127660">
        <ele>189.1</ele>
        <time>2020-02-22T12:59:06Z</time>
      </trkpt>
      <trkpt lat="39.0735460" lon="1.4127830">
        <ele>188.8</ele>
        <time>2020-02-22T12:59:07Z</time>
      </trkpt>
      <trkpt lat="39.0735560" lon="1.4127960">
        <ele>188.6</ele>
        <time>2020-02-22T12:59:08Z</time>
      </trkpt>
      <trkpt lat="39.0735660" lon="1.4128110">
        <ele>188.4</ele>
        <time>2020-02-22T12:59:09Z</time>
      </trkpt>
      <trkpt lat="39.0735640" lon="1.4128330">
        <ele>188.1</ele>
        <time>2020-02-22T12:59:10Z</time>
      </trkpt>
      <trkpt lat="39.0735560" lon="1.4128490">
        <ele>187.9</ele>
        <time>2020-02-22T12:59:11Z</time>
      </trkpt>
      <trkpt lat="39.0735490" lon="1.4128590">
        <ele>187.8</ele>
        <time>2020-02-22T12:59:12Z</time>
      </trkpt>
      <trkpt lat="39.0735420" lon="1.4128680">
        <ele>187.7</ele>
        <time>2020-02-22T12:59:13Z</time>
      </trkpt>
      <trkpt lat="39.0735350" lon="1.4128770">
        <ele>187.7</ele>
        <time>2020-02-22T12:59:14Z</time>
      </trkpt>
      <trkpt lat="39.0735210" lon="1.4129110">
        <ele>187.4</ele>
        <time>2020-02-22T12:59:15Z</time>
      </trkpt>
      <trkpt lat="39.0735130" lon="1.4129160">
        <ele>187.3</ele>
        <time>2020-02-22T12:59:16Z</time>
      </trkpt>
      <trkpt lat="39.0735000" lon="1.4129320">
        <ele>187.1</ele>
        <time>2020-02-22T12:59:17Z</time>
      </trkpt>
      <trkpt lat="39.0734890" lon="1.4129480">
        <ele>187.0</ele>
        <time>2020-02-22T12:59:18Z</time>
      </trkpt>
      <trkpt lat="39.0734920" lon="1.4129740">
        <ele>186.8</ele>
        <time>2020-02-22T12:59:19Z</time>
      </trkpt>
      <trkpt lat="39.0734980" lon="1.4129820">
        <ele>186.7</ele>
        <time>2020-02-22T12:59:20Z</time>
      </trkpt>
      <trkpt lat="39.0735030" lon="1.4129910">
        <ele>186.6</ele>
        <time>2020-02-22T12:59:21Z</time>
      </trkpt>
      <trkpt lat="39.0735350" lon="1.4130100">
        <ele>186.3</ele>
        <time>2020-02-22T12:59:22Z</time>
      </trkpt>
      <trkpt lat="39.0735440" lon="1.4130180">
        <ele>186.2</ele>
        <time>2020-02-22T12:59:23Z</time>
      </trkpt>
      <trkpt lat="39.0735790" lon="1.4130410">
        <ele>185.9</ele>
        <time>2020-02-22T12:59:24Z</time>
      </trkpt>
      <trkpt lat="39.0735920" lon="1.4130490">
        <ele>185.8</ele>
        <time>2020-02-22T12:59:25Z</time>
      </trkpt>
      <trkpt lat="39.0736160" lon="1.4130710">
        <ele>185.7</ele>
        <time>2020-02-22T12:59:26Z</time>
      </trkpt>
      <trkpt lat="39.0736430" lon="1.4130870">
        <ele>185.6</ele>
        <time>2020-02-22T12:59:27Z</time>
      </trkpt>
      <trkpt lat="39.0736510" lon="1.4130940">
        <ele>185.5</ele>
        <time>2020-02-22T12:59:28Z</time>
      </trkpt>
      <trkpt lat="39.0736810" lon="1.4131190">
        <ele>185.4</ele>
        <time>2020-02-22T12:59:29Z</time>
      </trkpt>
      <trkpt lat="39.0736880" lon="1.4131290">
        <ele>185.4</ele>
        <time>2020-02-22T12:59:30Z</time>
      </trkpt>
      <trkpt lat="39.0737020" lon="1.4131440">
        <ele>185.3</ele>
        <time>2020-02-22T12:59:31Z</time>
      </trkpt>
      <trkpt lat="39.0737190" lon="1.4131510">
        <ele>185.2</ele>
        <time>2020-02-22T12:59:32Z</time>
      </trkpt>
      <trkpt lat="39.0737430" lon="1.4131730">
        <ele>185.2</ele>
        <time>2020-02-22T12:59:33Z</time>
      </trkpt>
      <trkpt lat="39.0737520" lon="1.4131750">
        <ele>185.1</ele>
        <time>2020-02-22T12:59:34Z</time>
      </trkpt>
      <trkpt lat="39.0737580" lon="1.4131870">
        <ele>185.1</ele>
        <time>2020-02-22T12:59:35Z</time>
      </trkpt>
      <trkpt lat="39.0737740" lon="1.4132000">
        <ele>185.0</ele>
        <time>2020-02-22T12:59:36Z</time>
      </trkpt>
      <trkpt lat="39.0738000" lon="1.4132170">
        <ele>185.0</ele>
        <time>2020-02-22T12:59:37Z</time>
      </trkpt>
      <trkpt lat="39.0738280" lon="1.4132370">
        <ele>184.9</ele>
        <time>2020-02-22T12:59:38Z</time>
      </trkpt>
      <trkpt lat="39.0738360" lon="1.4132430">
        <ele>184.8</ele>
        <time>2020-02-22T12:59:39Z</time>
      </trkpt>
      <trkpt lat="39.0738600" lon="1.4132630">
        <ele>184.8</ele>
        <time>2020-02-22T12:59:40Z</time>
      </trkpt>
      <trkpt lat="39.0739010" lon="1.4132660">
        <ele>184.7</ele>
        <time>2020-02-22T12:59:41Z</time>
      </trkpt>
      <trkpt lat="39.0739150" lon="1.4132700">
        <ele>184.6</ele>
        <time>2020-02-22T12:59:42Z</time>
      </trkpt>
      <trkpt lat="39.0739440" lon="1.4132820">
        <ele>184.6</ele>
        <time>2020-02-22T12:59:43Z</time>
      </trkpt>
      <trkpt lat="39.0739760" lon="1.4133010">
        <ele>184.5</ele>
        <time>2020-02-22T12:59:44Z</time>
      </trkpt>
      <trkpt lat="39.0740010" lon="1.4133150">
        <ele>184.4</ele>
        <time>2020-02-22T12:59:45Z</time>
      </trkpt>
      <trkpt lat="39.0740330" lon="1.4133290">
        <ele>184.3</ele>
        <time>2020-02-22T12:59:46Z</time>
      </trkpt>
      <trkpt lat="39.0740600" lon="1.4133450">
        <ele>184.2</ele>
        <time>2020-02-22T12:59:47Z</time>
      </trkpt>
      <trkpt lat="39.0740890" lon="1.4133410">
        <ele>184.1</ele>
        <time>2020-02-22T12:59:48Z</time>
      </trkpt>
      <trkpt lat="39.0741340" lon="1.4133340">
        <ele>184.0</ele>
        <time>2020-02-22T12:59:49Z</time>
      </trkpt>
      <trkpt lat="39.0741550" lon="1.4133240">
        <ele>183.9</ele>
        <time>2020-02-22T12:59:50Z</time>
      </trkpt>
      <trkpt lat="39.0742120" lon="1.4133240">
        <ele>183.8</ele>
        <time>2020-02-22T12:59:51Z</time>
      </trkpt>
      <trkpt lat="39.0742760" lon="1.4133150">
        <ele>183.7</ele>
        <time>2020-02-22T12:59:52Z</time>
      </trkpt>
      <trkpt lat="39.0743170" lon="1.4133080">
        <ele>183.6</ele>
        <time>2020-02-22T12:59:53Z</time>
      </trkpt>
      <trkpt lat="39.0743630" lon="1.4133270">
        <ele>183.4</ele>
        <time>2020-02-22T12:59:54Z</time>
      </trkpt>
      <trkpt lat="39.0744040" lon="1.4133710">
        <ele>183.3</ele>
        <time>2020-02-22T12:59:55Z</time>
      </trkpt>
      <trkpt lat="39.0744450" lon="1.4134110">
        <ele>183.1</ele>
        <time>2020-02-22T12:59:56Z</time>
      </trkpt>
      <trkpt lat="39.0744890" lon="1.4134430">
        <ele>182.8</ele>
        <time>2020-02-22T12:59:57Z</time>
      </trkpt>
      <trkpt lat="39.0745300" lon="1.4134780">
        <ele>182.6</ele>
        <time>2020-02-22T12:59:58Z</time>
      </trkpt>
      <trkpt lat="39.0745740" lon="1.4135150">
        <ele>182.3</ele>
        <time>2020-02-22T12:59:59Z</time>
      </trkpt>
      <trkpt lat="39.0746040" lon="1.4135590">
        <ele>182.1</ele>
        <time>2020-02-22T13:00:00Z</time>
      </trkpt>
      <trkpt lat="39.0746440" lon="1.4135890">
        <ele>181.7</ele>
        <time>2020-02-22T13:00:01Z</time>
      </trkpt>
      <trkpt lat="39.0746900" lon="1.4136220">
        <ele>181.3</ele>
        <time>2020-02-22T13:00:02Z</time>
      </trkpt>
      <trkpt lat="39.0747470" lon="1.4136500">
        <ele>180.7</ele>
        <time>2020-02-22T13:00:03Z</time>
      </trkpt>
      <trkpt lat="39.0747870" lon="1.4136940">
        <ele>180.3</ele>
        <time>2020-02-22T13:00:04Z</time>
      </trkpt>
      <trkpt lat="39.0748210" lon="1.4137370">
        <ele>179.9</ele>
        <time>2020-02-22T13:00:05Z</time>
      </trkpt>
      <trkpt lat="39.0748540" lon="1.4137820">
        <ele>179.6</ele>
        <time>2020-02-22T13:00:06Z</time>
      </trkpt>
      <trkpt lat="39.0748950" lon="1.4138360">
        <ele>179.1</ele>
        <time>2020-02-22T13:00:07Z</time>
      </trkpt>
      <trkpt lat="39.0749400" lon="1.4138810">
        <ele>178.6</ele>
        <time>2020-02-22T13:00:08Z</time>
      </trkpt>
      <trkpt lat="39.0749710" lon="1.4139250">
        <ele>178.3</ele>
        <time>2020-02-22T13:00:09Z</time>
      </trkpt>
      <trkpt lat="39.0749930" lon="1.4139840">
        <ele>178.0</ele>
        <time>2020-02-22T13:00:10Z</time>
      </trkpt>
      <trkpt lat="39.0750050" lon="1.4140360">
        <ele>177.7</ele>
        <time>2020-02-22T13:00:11Z</time>
      </trkpt>
      <trkpt lat="39.0750060" lon="1.4141010">
        <ele>177.3</ele>
        <time>2020-02-22T13:00:12Z</time>
      </trkpt>
      <trkpt lat="39.0750080" lon="1.4141660">
        <ele>177.0</ele>
        <time>2020-02-22T13:00:13Z</time>
      </trkpt>
      <trkpt lat="39.0750310" lon="1.4142210">
        <ele>176.6</ele>
        <time>2020-02-22T13:00:14Z</time>
      </trkpt>
      <trkpt lat="39.0750550" lon="1.4142710">
        <ele>176.2</ele>
        <time>2020-02-22T13:00:15Z</time>
      </trkpt>
      <trkpt lat="39.0750760" lon="1.4143240">
        <ele>175.9</ele>
        <time>2020-02-22T13:00:16Z</time>
      </trkpt>
      <trkpt lat="39.0750960" lon="1.4143720">
        <ele>175.6</ele>
        <time>2020-02-22T13:00:17Z</time>
      </trkpt>
      <trkpt lat="39.0751230" lon="1.4144060">
        <ele>175.4</ele>
        <time>2020-02-22T13:00:18Z</time>
      </trkpt>
      <trkpt lat="39.0751320" lon="1.4144460">
        <ele>175.2</ele>
        <time>2020-02-22T13:00:19Z</time>
      </trkpt>
      <trkpt lat="39.0751440" lon="1.4144770">
        <ele>175.0</ele>
        <time>2020-02-22T13:00:20Z</time>
      </trkpt>
      <trkpt lat="39.0751680" lon="1.4145160">
        <ele>174.8</ele>
        <time>2020-02-22T13:00:21Z</time>
      </trkpt>
      <trkpt lat="39.0751760" lon="1.4145300">
        <ele>174.7</ele>
        <time>2020-02-22T13:00:22Z</time>
      </trkpt>
      <trkpt lat="39.0751930" lon="1.4145590">
        <ele>174.5</ele>
        <time>2020-02-22T13:00:23Z</time>
      </trkpt>
      <trkpt lat="39.0752170" lon="1.4145860">
        <ele>174.4</ele>
        <time>2020-02-22T13:00:24Z</time>
      </trkpt>
      <trkpt lat="39.0752250" lon="1.4145960">
        <ele>174.3</ele>
        <time>2020-02-22T13:00:25Z</time>
      </trkpt>
      <trkpt lat="39.0752570" lon="1.4146120">
        <ele>174.1</ele>
        <time>2020-02-22T13:00:26Z</time>
      </trkpt>
      <trkpt lat="39.0752660" lon="1.4146180">
        <ele>174.1</ele>
        <time>2020-02-22T13:00:27Z</time>
      </trkpt>
      <trkpt lat="39.0752940" lon="1.4146340">
        <ele>174.0</ele>
        <time>2020-02-22T13:00:28Z</time>
      </trkpt>
      <trkpt lat="39.0753230" lon="1.4146410">
        <ele>173.9</ele>
        <time>2020-02-22T13:00:29Z</time>
      </trkpt>
      <trkpt lat="39.0753510" lon="1.4146550">
        <ele>173.9</ele>
        <time>2020-02-22T13:00:30Z</time>
      </trkpt>
      <trkpt lat="39.0753740" lon="1.4146770">
        <ele>173.8</ele>
        <time>2020-02-22T13:00:31Z</time>
      </trkpt>
      <trkpt lat="39.0753930" lon="1.4147070">
        <ele>173.7</ele>
        <time>2020-02-22T13:00:32Z</time>
      </trkpt>
      <trkpt lat="39.0754210" lon="1.4147410">
        <ele>173.6</ele>
        <time>2020-02-22T13:00:33Z</time>
      </trkpt>
      <trkpt lat="39.0754460" lon="1.4147650">
        <ele>173.5</ele>
        <time>2020-02-22T13:00:34Z</time>
      </trkpt>
      <trkpt lat="39.0754690" lon="1.4147950">
        <ele>173.4</ele>
        <time>2020-02-22T13:00:35Z</time>
      </trkpt>
      <trkpt lat="39.0755010" lon="1.4148300">
        <ele>173.3</ele>
        <time>2020-02-22T13:00:36Z</time>
      </trkpt>
      <trkpt lat="39.0755120" lon="1.4148430">
        <ele>173.3</ele>
        <time>2020-02-22T13:00:37Z</time>
      </trkpt>
      <trkpt lat="39.0755290" lon="1.4148850">
        <ele>173.2</ele>
        <time>2020-02-22T13:00:38Z</time>
      </trkpt>
      <trkpt lat="39.0755360" lon="1.4148970">
        <ele>173.2</ele>
        <time>2020-02-22T13:00:39Z</time>
      </trkpt>
      <trkpt lat="39.0755610" lon="1.4149180">
        <ele>173.2</ele>
        <time>2020-02-22T13:00:40Z</time>
      </trkpt>
      <trkpt lat="39.0755930" lon="1.4149370">
        <ele>173.1</ele>
        <time>2020-02-22T13:00:41Z</time>
      </trkpt>
      <trkpt lat="39.0756210" lon="1.4149510">
        <ele>173.0</ele>
        <time>2020-02-22T13:00:42Z</time>
      </trkpt>
      <trkpt lat="39.0756480" lon="1.4149480">
        <ele>173.0</ele>
        <time>2020-02-22T13:00:43Z</time>
      </trkpt>
      <trkpt lat="39.0756870" lon="1.4149500">
        <ele>172.9</ele>
        <time>2020-02-22T13:00:44Z</time>
      </trkpt>
      <trkpt lat="39.0757210" lon="1.4149580">
        <ele>172.9</ele>
        <time>2020-02-22T13:00:45Z</time>
      </trkpt>
      <trkpt lat="39.0757560" lon="1.4149590">
        <ele>172.8</ele>
        <time>2020-02-22T13:00:46Z</time>
      </trkpt>
      <trkpt lat="39.0757710" lon="1.4149600">
        <ele>172.8</ele>
        <time>2020-02-22T13:00:47Z</time>
      </trkpt>
      <trkpt lat="39.0758030" lon="1.4149640">
        <ele>172.7</ele>
        <time>2020-02-22T13:00:48Z</time>
      </trkpt>
      <trkpt lat="39.0758320" lon="1.4149590">
        <ele>172.6</ele>
        <time>2020-02-22T13:00:49Z</time>
      </trkpt>
      <trkpt lat="39.0758600" lon="1.4149510">
        <ele>172.6</ele>
        <time>2020-02-22T13:00:50Z</time>
      </trkpt>
      <trkpt lat="39.0758960" lon="1.4149500">
        <ele>172.5</ele>
        <time>2020-02-22T13:00:51Z</time>
      </trkpt>
      <trkpt lat="39.0759350" lon="1.4149460">
        <ele>172.4</ele>
        <time>2020-02-22T13:00:52Z</time>
      </trkpt>
      <trkpt lat="39.0759690" lon="1.4149360">
        <ele>172.4</ele>
        <time>2020-02-22T13:00:53Z</time>
      </trkpt>
      <trkpt lat="39.0760020" lon="1.4149260">
        <ele>172.3</ele>
        <time>2020-02-22T13:00:54Z</time>
      </trkpt>
      <trkpt lat="39.0760280" lon="1.4149060">
        <ele>172.3</ele>
        <time>2020-02-22T13:00:55Z</time>
      </trkpt>
      <trkpt lat="39.0760660" lon="1.4149020">
        <ele>172.2</ele>
        <time>2020-02-22T13:00:56Z</time>
      </trkpt>
      <trkpt lat="39.0760770" lon="1.4149020">
        <ele>172.2</ele>
        <time>2020-02-22T13:00:57Z</time>
      </trkpt>
      <trkpt lat="39.0761060" lon="1.4149030">
        <ele>172.2</ele>
        <time>2020-02-22T13:00:58Z</time>
      </trkpt>
      <trkpt lat="39.0761190" lon="1.4149090">
        <ele>172.1</ele>
        <time>2020-02-22T13:00:59Z</time>
      </trkpt>
      <trkpt lat="39.0761380" lon="1.4148950">
        <ele>172.1</ele>
        <time>2020-02-22T13:01:00Z</time>
      </trkpt>
      <trkpt lat="39.0761460" lon="1.4148950">
        <ele>172.1</ele>
        <time>2020-02-22T13:01:01Z</time>
      </trkpt>
      <trkpt lat="39.0761540" lon="1.4148940">
        <ele>172.1</ele>
        <time>2020-02-22T13:01:02Z</time>
      </trkpt>
      <trkpt lat="39.0761820" lon="1.4148970">
        <ele>172.0</ele>
        <time>2020-02-22T13:01:03Z</time>
      </trkpt>
      <trkpt lat="39.0761910" lon="1.4148970">
        <ele>172.0</ele>
        <time>2020-02-22T13:01:04Z</time>
      </trkpt>
      <trkpt lat="39.0762090" lon="1.4148990">
        <ele>172.0</ele>
        <time>2020-02-22T13:01:05Z</time>
      </trkpt>
      <trkpt lat="39.0762240" lon="1.4148950">
        <ele>172.0</ele>
        <time>2020-02-22T13:01:06Z</time>
      </trkpt>
      <trkpt lat="39.0762180" lon="1.4149070">
        <ele>171.9</ele>
        <time>2020-02-22T13:01:07Z</time>
      </trkpt>
      <trkpt lat="39.0762170" lon="1.4149060">
        <ele>171.9</ele>
        <time>2020-02-22T13:01:08Z</time>
      </trkpt>
      <trkpt lat="39.0762190" lon="1.4148990">
        <ele>171.9</ele>
        <time>2020-02-22T13:01:09Z</time>
      </trkpt>
      <trkpt lat="39.0762180" lon="1.4149010">
        <ele>171.9</ele>
        <time>2020-02-22T13:01:10Z</time>
      </trkpt>
      <trkpt lat="39.0762200" lon="1.4149020">
        <ele>171.9</ele>
        <time>2020-02-22T13:01:11Z</time>
      </trkpt>
      <trkpt lat="39.0762220" lon="1.4149030">
        <ele>171.9</ele>
        <time>2020-02-22T13:01:12Z</time>
      </trkpt>
      <trkpt lat="39.0762220" lon="1.4149020">
        <ele>171.9</ele>
        <time>2020-02-22T13:01:13Z</time>
      </trkpt>
      <trkpt lat="39.0762220" lon="1.4149020">
        <ele>171.9</ele>
        <time>2020-02-22T13:01:14Z</time>
      </trkpt>
      <trkpt lat="39.0762230" lon="1.4149030">
        <ele>171.9</ele>
        <time>2020-02-22T13:01:15Z</time>
      </trkpt>
      <trkpt lat="39.0762230" lon="1.4149040">
        <ele>171.9</ele>
        <time>2020-02-22T13:01:16Z</time>
      </trkpt>
      <trkpt lat="39.0762230" lon="1.4149040">
        <ele>171.9</ele>
        <time>2020-02-22T13:01:17Z</time>
      </trkpt>
      <trkpt lat="39.0762230" lon="1.4149040">
        <ele>171.9</ele>
        <time>2020-02-22T13:01:18Z</time>
      </trkpt>
      <trkpt lat="39.0762680" lon="1.4150220">
        <ele>171.6</ele>
        <time>2020-02-22T13:02:32Z</time>
      </trkpt>
      <trkpt lat="39.0762630" lon="1.4150520">
        <ele>171.6</ele>
        <time>2020-02-22T13:02:33Z</time>
      </trkpt>
      <trkpt lat="39.0762630" lon="1.4150580">
        <ele>171.5</ele>
        <time>2020-02-22T13:02:34Z</time>
      </trkpt>
      <trkpt lat="39.0762690" lon="1.4150580">
        <ele>171.5</ele>
        <time>2020-02-22T13:02:35Z</time>
      </trkpt>
      <trkpt lat="39.0762690" lon="1.4150570">
        <ele>171.5</ele>
        <time>2020-02-22T13:02:36Z</time>
      </trkpt>
      <trkpt lat="39.0762690" lon="1.4150580">
        <ele>171.5</ele>
        <time>2020-02-22T13:02:37Z</time>
      </trkpt>
      <trkpt lat="39.0762690" lon="1.4150580">
        <ele>171.5</ele>
        <time>2020-02-22T13:02:38Z</time>
      </trkpt>
      <trkpt lat="39.0762680" lon="1.4150590">
        <ele>171.5</ele>
        <time>2020-02-22T13:02:39Z</time>
      </trkpt>
      <trkpt lat="39.0762680" lon="1.4150620">
        <ele>171.5</ele>
        <time>2020-02-22T13:02:40Z</time>
      </trkpt>
      <trkpt lat="39.0762690" lon="1.4150640">
        <ele>171.5</ele>
        <time>2020-02-22T13:02:41Z</time>
      </trkpt>
      <trkpt lat="39.0762710" lon="1.4150640">
        <ele>171.5</ele>
        <time>2020-02-22T13:02:42Z</time>
      </trkpt>
      <trkpt lat="39.0762710" lon="1.4150650">
        <ele>171.5</ele>
        <time>2020-02-22T13:02:43Z</time>
      </trkpt>
      <trkpt lat="39.0762710" lon="1.4150650">
        <ele>171.5</ele>
        <time>2020-02-22T13:02:44Z</time>
      </trkpt>
      <trkpt lat="39.0761940" lon="1.4150530">
        <ele>171.3</ele>
        <time>2020-02-22T13:11:31Z</time>
      </trkpt>
      <trkpt lat="39.0761870" lon="1.4150500">
        <ele>171.3</ele>
        <time>2020-02-22T13:11:32Z</time>
      </trkpt>
      <trkpt lat="39.0761780" lon="1.4150570">
        <ele>171.3</ele>
        <time>2020-02-22T13:11:33Z</time>
      </trkpt>
      <trkpt lat="39.0761700" lon="1.4150500">
        <ele>171.3</ele>
        <time>2020-02-22T13:11:34Z</time>
      </trkpt>
      <trkpt lat="39.0761700" lon="1.4150440">
        <ele>171.3</ele>
        <time>2020-02-22T13:11:35Z</time>
      </trkpt>
      <trkpt lat="39.0761630" lon="1.4150470">
        <ele>171.3</ele>
        <time>2020-02-22T13:11:36Z</time>
      </trkpt>
      <trkpt lat="39.0761600" lon="1.4150530">
        <ele>171.3</ele>
        <time>2020-02-22T13:11:37Z</time>
      </trkpt>
      <trkpt lat="39.0761590" lon="1.4150520">
        <ele>171.3</ele>
        <time>2020-02-22T13:11:38Z</time>
      </trkpt>
      <trkpt lat="39.0761580" lon="1.4150500">
        <ele>171.3</ele>
        <time>2020-02-22T13:11:39Z</time>
      </trkpt>
      <trkpt lat="39.0761580" lon="1.4150490">
        <ele>171.3</ele>
        <time>2020-02-22T13:11:40Z</time>
      </trkpt>
      <trkpt lat="39.0761580" lon="1.4150490">
        <ele>171.3</ele>
        <time>2020-02-22T13:11:41Z</time>
      </trkpt>
      <trkpt lat="39.0761580" lon="1.4150490">
        <ele>171.3</ele>
        <time>2020-02-22T13:11:42Z</time>
      </trkpt>
      <trkpt lat="39.0761580" lon="1.4150480">
        <ele>171.3</ele>
        <time>2020-02-22T13:11:43Z</time>
      </trkpt>
      <trkpt lat="39.0761580" lon="1.4150480">
        <ele>171.3</ele>
        <time>2020-02-22T13:11:44Z</time>
      </trkpt>
      <trkpt lat="39.0761950" lon="1.4149820">
        <ele>171.2</ele>
        <time>2020-02-22T13:14:42Z</time>
      </trkpt>
      <trkpt lat="39.0762010" lon="1.4149820">
        <ele>171.2</ele>
        <time>2020-02-22T13:14:43Z</time>
      </trkpt>
      <trkpt lat="39.0762040" lon="1.4149720">
        <ele>171.2</ele>
        <time>2020-02-22T13:14:44Z</time>
      </trkpt>
      <trkpt lat="39.0762080" lon="1.4149730">
        <ele>171.2</ele>
        <time>2020-02-22T13:14:45Z</time>
      </trkpt>
      <trkpt lat="39.0762110" lon="1.4149720">
        <ele>171.2</ele>
        <time>2020-02-22T13:14:46Z</time>
      </trkpt>
      <trkpt lat="39.0762220" lon="1.4149820">
        <ele>171.1</ele>
        <time>2020-02-22T13:14:47Z</time>
      </trkpt>
      <trkpt lat="39.0762280" lon="1.4149850">
        <ele>171.1</ele>
        <time>2020-02-22T13:14:48Z</time>
      </trkpt>
      <trkpt lat="39.0762300" lon="1.4149830">
        <ele>171.1</ele>
        <time>2020-02-22T13:14:49Z</time>
      </trkpt>
      <trkpt lat="39.0762300" lon="1.4149830">
        <ele>171.1</ele>
        <time>2020-02-22T13:14:50Z</time>
      </trkpt>
      <trkpt lat="39.0762300" lon="1.4149830">
        <ele>171.1</ele>
        <time>2020-02-22T13:14:51Z</time>
      </trkpt>
      <trkpt lat="39.0762290" lon="1.4149830">
        <ele>171.1</ele>
        <time>2020-02-22T13:14:52Z</time>
      </trkpt>
      <trkpt lat="39.0762290" lon="1.4149830">
        <ele>171.1</ele>
        <time>2020-02-22T13:14:53Z</time>
      </trkpt>
      <trkpt lat="39.0762310" lon="1.4149820">
        <ele>171.1</ele>
        <time>2020-02-22T13:14:54Z</time>
      </trkpt>
      <trkpt lat="39.0762310" lon="1.4149780">
        <ele>171.1</ele>
        <time>2020-02-22T13:14:55Z</time>
      </trkpt>
      <trkpt lat="39.0762350" lon="1.4149890">
        <ele>171.1</ele>
        <time>2020-02-22T13:14:56Z</time>
      </trkpt>
      <trkpt lat="39.0762400" lon="1.4150020">
        <ele>171.1</ele>
        <time>2020-02-22T13:14:57Z</time>
      </trkpt>
      <trkpt lat="39.0762430" lon="1.4150030">
        <ele>171.1</ele>
        <time>2020-02-22T13:14:58Z</time>
      </trkpt>
      <trkpt lat="39.0762470" lon="1.4150000">
        <ele>171.1</ele>
        <time>2020-02-22T13:14:59Z</time>
      </trkpt>
      <trkpt lat="39.0762440" lon="1.4149990">
        <ele>171.1</ele>
        <time>2020-02-22T13:15:00Z</time>
      </trkpt>
      <trkpt lat="39.0762420" lon="1.4150000">
        <ele>171.1</ele>
        <time>2020-02-22T13:15:01Z</time>
      </trkpt>
      <trkpt lat="39.0762390" lon="1.4150010">
        <ele>171.1</ele>
        <time>2020-02-22T13:15:02Z</time>
      </trkpt>
      <trkpt lat="39.0762380" lon="1.4150020">
        <ele>171.1</ele>
        <time>2020-02-22T13:15:03Z</time>
      </trkpt>
      <trkpt lat="39.0762380" lon="1.4150020">
        <ele>171.1</ele>
        <time>2020-02-22T13:15:04Z</time>
      </trkpt>
      <trkpt lat="39.0762380" lon="1.4150030">
        <ele>171.1</ele>
        <time>2020-02-22T13:15:05Z</time>
      </trkpt>
      <trkpt lat="39.0762390" lon="1.4150010">
        <ele>171.1</ele>
        <time>2020-02-22T13:15:06Z</time>
      </trkpt>
      <trkpt lat="39.0762400" lon="1.4150020">
        <ele>171.1</ele>
        <time>2020-02-22T13:15:07Z</time>
      </trkpt>
      <trkpt lat="39.0762410" lon="1.4150030">
        <ele>171.1</ele>
        <time>2020-02-22T13:15:08Z</time>
      </trkpt>
      <trkpt lat="39.0762130" lon="1.4150460">
        <ele>171.0</ele>
        <time>2020-02-22T13:15:53Z</time>
      </trkpt>
      <trkpt lat="39.0762070" lon="1.4150560">
        <ele>171.0</ele>
        <time>2020-02-22T13:15:54Z</time>
      </trkpt>
      <trkpt lat="39.0762040" lon="1.4150600">
        <ele>171.0</ele>
        <time>2020-02-22T13:15:55Z</time>
      </trkpt>
      <trkpt lat="39.0761970" lon="1.4150680">
        <ele>171.0</ele>
        <time>2020-02-22T13:15:56Z</time>
      </trkpt>
      <trkpt lat="39.0761880" lon="1.4150760">
        <ele>171.0</ele>
        <time>2020-02-22T13:15:57Z</time>
      </trkpt>
      <trkpt lat="39.0761870" lon="1.4150760">
        <ele>171.0</ele>
        <time>2020-02-22T13:15:58Z</time>
      </trkpt>
      <trkpt lat="39.0761870" lon="1.4150760">
        <ele>171.0</ele>
        <time>2020-02-22T13:15:59Z</time>
      </trkpt>
      <trkpt lat="39.0761870" lon="1.4150760">
        <ele>171.0</ele>
        <time>2020-02-22T13:16:00Z</time>
      </trkpt>
      <trkpt lat="39.0761870" lon="1.4150750">
        <ele>171.0</ele>
        <time>2020-02-22T13:16:01Z</time>
      </trkpt>
      <trkpt lat="39.0761870" lon="1.4150750">
        <ele>171.0</ele>
        <time>2020-02-22T13:16:02Z</time>
      </trkpt>
      <trkpt lat="39.0761860" lon="1.4150750">
        <ele>171.0</ele>
        <time>2020-02-22T13:16:03Z</time>
      </trkpt>
      <trkpt lat="39.0761860" lon="1.4150750">
        <ele>171.0</ele>
        <time>2020-02-22T13:16:04Z</time>
      </trkpt>
      <trkpt lat="39.0761860" lon="1.4150750">
        <ele>171.0</ele>
        <time>2020-02-22T13:16:05Z</time>
      </trkpt>
      <trkpt lat="39.0761790" lon="1.4150860">
        <ele>170.9</ele>
        <time>2020-02-22T13:16:23Z</time>
      </trkpt>
      <trkpt lat="39.0761800" lon="1.4150830">
        <ele>170.9</ele>
        <time>2020-02-22T13:16:24Z</time>
      </trkpt>
      <trkpt lat="39.0761800" lon="1.4150820">
        <ele>170.9</ele>
        <time>2020-02-22T13:16:25Z</time>
      </trkpt>
      <trkpt lat="39.0761800" lon="1.4150820">
        <ele>170.9</ele>
        <time>2020-02-22T13:16:26Z</time>
      </trkpt>
      <trkpt lat="39.0761790" lon="1.4150890">
        <ele>170.9</ele>
        <time>2020-02-22T13:16:27Z</time>
      </trkpt>
      <trkpt lat="39.0761780" lon="1.4150950">
        <ele>170.9</ele>
        <time>2020-02-22T13:16:28Z</time>
      </trkpt>
      <trkpt lat="39.0761770" lon="1.4150970">
        <ele>170.9</ele>
        <time>2020-02-22T13:16:29Z</time>
      </trkpt>
      <trkpt lat="39.0761760" lon="1.4151040">
        <ele>170.9</ele>
        <time>2020-02-22T13:16:30Z</time>
      </trkpt>
      <trkpt lat="39.0761780" lon="1.4151060">
        <ele>170.9</ele>
        <time>2020-02-22T13:16:31Z</time>
      </trkpt>
      <trkpt lat="39.0761760" lon="1.4151080">
        <ele>170.9</ele>
        <time>2020-02-22T13:16:32Z</time>
      </trkpt>
      <trkpt lat="39.0761760" lon="1.4151080">
        <ele>170.9</ele>
        <time>2020-02-22T13:16:33Z</time>
      </trkpt>
      <trkpt lat="39.0761850" lon="1.4151120">
        <ele>170.9</ele>
        <time>2020-02-22T13:16:34Z</time>
      </trkpt>
      <trkpt lat="39.0761770" lon="1.4150510">
        <ele>170.8</ele>
        <time>2020-02-22T13:18:11Z</time>
      </trkpt>
      <trkpt lat="39.0761630" lon="1.4150340">
        <ele>170.7</ele>
        <time>2020-02-22T13:18:12Z</time>
      </trkpt>
      <trkpt lat="39.0761490" lon="1.4150290">
        <ele>170.7</ele>
        <time>2020-02-22T13:18:13Z</time>
      </trkpt>
      <trkpt lat="39.0761480" lon="1.4150300">
        <ele>170.7</ele>
        <time>2020-02-22T13:18:14Z</time>
      </trkpt>
      <trkpt lat="39.0761440" lon="1.4150300">
        <ele>170.6</ele>
        <time>2020-02-22T13:18:15Z</time>
      </trkpt>
      <trkpt lat="39.0761470" lon="1.4150260">
        <ele>170.6</ele>
        <time>2020-02-22T13:18:16Z</time>
      </trkpt>
      <trkpt lat="39.0761530" lon="1.4150480">
        <ele>170.6</ele>
        <time>2020-02-22T13:18:17Z</time>
      </trkpt>
      <trkpt lat="39.0761520" lon="1.4150490">
        <ele>170.6</ele>
        <time>2020-02-22T13:18:18Z</time>
      </trkpt>
      <trkpt lat="39.0761570" lon="1.4150560">
        <ele>170.6</ele>
        <time>2020-02-22T13:18:19Z</time>
      </trkpt>
      <trkpt lat="39.0761520" lon="1.4150710">
        <ele>170.6</ele>
        <time>2020-02-22T13:18:20Z</time>
      </trkpt>
      <trkpt lat="39.0761330" lon="1.4150960">
        <ele>170.5</ele>
        <time>2020-02-22T13:18:21Z</time>
      </trkpt>
      <trkpt lat="39.0761240" lon="1.4151080">
        <ele>170.5</ele>
        <time>2020-02-22T13:18:22Z</time>
      </trkpt>
      <trkpt lat="39.0761230" lon="1.4151310">
        <ele>170.5</ele>
        <time>2020-02-22T13:18:23Z</time>
      </trkpt>
      <trkpt lat="39.0761240" lon="1.4151400">
        <ele>170.4</ele>
        <time>2020-02-22T13:18:24Z</time>
      </trkpt>
      <trkpt lat="39.0761260" lon="1.4151460">
        <ele>170.4</ele>
        <time>2020-02-22T13:18:25Z</time>
      </trkpt>
      <trkpt lat="39.0761190" lon="1.4151520">
        <ele>170.4</ele>
        <time>2020-02-22T13:18:26Z</time>
      </trkpt>
      <trkpt lat="39.0761150" lon="1.4151580">
        <ele>170.4</ele>
        <time>2020-02-22T13:18:27Z</time>
      </trkpt>
      <trkpt lat="39.0761100" lon="1.4151630">
        <ele>170.4</ele>
        <time>2020-02-22T13:18:28Z</time>
      </trkpt>
      <trkpt lat="39.0761050" lon="1.4151680">
        <ele>170.4</ele>
        <time>2020-02-22T13:18:29Z</time>
      </trkpt>
      <trkpt lat="39.0761000" lon="1.4151730">
        <ele>170.4</ele>
        <time>2020-02-22T13:18:30Z</time>
      </trkpt>
      <trkpt lat="39.0760960" lon="1.4151790">
        <ele>170.4</ele>
        <time>2020-02-22T13:18:31Z</time>
      </trkpt>
      <trkpt lat="39.0760910" lon="1.4151840">
        <ele>170.4</ele>
        <time>2020-02-22T13:18:32Z</time>
      </trkpt>
      <trkpt lat="39.0760570" lon="1.4151960">
        <ele>170.4</ele>
        <time>2020-02-22T13:18:33Z</time>
      </trkpt>
      <trkpt lat="39.0760150" lon="1.4152070">
        <ele>170.3</ele>
        <time>2020-02-22T13:18:34Z</time>
      </trkpt>
      <trkpt lat="39.0759770" lon="1.4152130">
        <ele>170.3</ele>
        <time>2020-02-22T13:18:35Z</time>
      </trkpt>
      <trkpt lat="39.0759460" lon="1.4152280">
        <ele>170.3</ele>
        <time>2020-02-22T13:18:36Z</time>
      </trkpt>
      <trkpt lat="39.0759390" lon="1.4152350">
        <ele>170.2</ele>
        <time>2020-02-22T13:18:37Z</time>
      </trkpt>
      <trkpt lat="39.0759030" lon="1.4152340">
        <ele>170.2</ele>
        <time>2020-02-22T13:18:38Z</time>
      </trkpt>
      <trkpt lat="39.0758920" lon="1.4152340">
        <ele>170.2</ele>
        <time>2020-02-22T13:18:39Z</time>
      </trkpt>
      <trkpt lat="39.0758570" lon="1.4152400">
        <ele>170.2</ele>
        <time>2020-02-22T13:18:40Z</time>
      </trkpt>
      <trkpt lat="39.0758440" lon="1.4152450">
        <ele>170.2</ele>
        <time>2020-02-22T13:18:41Z</time>
      </trkpt>
      <trkpt lat="39.0758170" lon="1.4152870">
        <ele>170.1</ele>
        <time>2020-02-22T13:18:42Z</time>
      </trkpt>
      <trkpt lat="39.0757920" lon="1.4153410">
        <ele>170.1</ele>
        <time>2020-02-22T13:18:43Z</time>
      </trkpt>
      <trkpt lat="39.0757650" lon="1.4153770">
        <ele>170.1</ele>
        <time>2020-02-22T13:18:44Z</time>
      </trkpt>
      <trkpt lat="39.0757240" lon="1.4154040">
        <ele>170.2</ele>
        <time>2020-02-22T13:18:45Z</time>
      </trkpt>
      <trkpt lat="39.0756790" lon="1.4154370">
        <ele>170.2</ele>
        <time>2020-02-22T13:18:46Z</time>
      </trkpt>
      <trkpt lat="39.0756190" lon="1.4154570">
        <ele>170.3</ele>
        <time>2020-02-22T13:18:47Z</time>
      </trkpt>
      <trkpt lat="39.0755660" lon="1.4154750">
        <ele>170.4</ele>
        <time>2020-02-22T13:18:48Z</time>
      </trkpt>
      <trkpt lat="39.0755090" lon="1.4154920">
        <ele>170.5</ele>
        <time>2020-02-22T13:18:49Z</time>
      </trkpt>
      <trkpt lat="39.0754720" lon="1.4155130">
        <ele>170.6</ele>
        <time>2020-02-22T13:18:50Z</time>
      </trkpt>
      <trkpt lat="39.0754710" lon="1.4155680">
        <ele>170.8</ele>
        <time>2020-02-22T13:18:51Z</time>
      </trkpt>
      <trkpt lat="39.0754810" lon="1.4156070">
        <ele>170.9</ele>
        <time>2020-02-22T13:18:52Z</time>
      </trkpt>
      <trkpt lat="39.0755020" lon="1.4156300">
        <ele>170.9</ele>
        <time>2020-02-22T13:18:53Z</time>
      </trkpt>
      <trkpt lat="39.0755640" lon="1.4156480">
        <ele>171.1</ele>
        <time>2020-02-22T13:18:54Z</time>
      </trkpt>
      <trkpt lat="39.0756150" lon="1.4156590">
        <ele>171.3</ele>
        <time>2020-02-22T13:18:55Z</time>
      </trkpt>
      <trkpt lat="39.0756700" lon="1.4156620">
        <ele>171.5</ele>
        <time>2020-02-22T13:18:56Z</time>
      </trkpt>
      <trkpt lat="39.0757200" lon="1.4156800">
        <ele>171.6</ele>
        <time>2020-02-22T13:18:57Z</time>
      </trkpt>
      <trkpt lat="39.0757560" lon="1.4156920">
        <ele>171.7</ele>
        <time>2020-02-22T13:18:58Z</time>
      </trkpt>
      <trkpt lat="39.0757660" lon="1.4157070">
        <ele>171.8</ele>
        <time>2020-02-22T13:18:59Z</time>
      </trkpt>
      <trkpt lat="39.0757570" lon="1.4157190">
        <ele>171.8</ele>
        <time>2020-02-22T13:19:00Z</time>
      </trkpt>
      <trkpt lat="39.0757300" lon="1.4157230">
        <ele>171.9</ele>
        <time>2020-02-22T13:19:01Z</time>
      </trkpt>
      <trkpt lat="39.0756950" lon="1.4157530">
        <ele>172.1</ele>
        <time>2020-02-22T13:19:02Z</time>
      </trkpt>
      <trkpt lat="39.0756830" lon="1.4157710">
        <ele>172.2</ele>
        <time>2020-02-22T13:19:03Z</time>
      </trkpt>
      <trkpt lat="39.0756660" lon="1.4158180">
        <ele>172.3</ele>
        <time>2020-02-22T13:19:04Z</time>
      </trkpt>
      <trkpt lat="39.0756480" lon="1.4158630">
        <ele>172.5</ele>
        <time>2020-02-22T13:19:05Z</time>
      </trkpt>
      <trkpt lat="39.0756100" lon="1.4158800">
        <ele>172.6</ele>
        <time>2020-02-22T13:19:06Z</time>
      </trkpt>
      <trkpt lat="39.0755700" lon="1.4159000">
        <ele>172.8</ele>
        <time>2020-02-22T13:19:07Z</time>
      </trkpt>
      <trkpt lat="39.0755310" lon="1.4159140">
        <ele>172.9</ele>
        <time>2020-02-22T13:19:08Z</time>
      </trkpt>
      <trkpt lat="39.0755220" lon="1.4159570">
        <ele>173.0</ele>
        <time>2020-02-22T13:19:09Z</time>
      </trkpt>
      <trkpt lat="39.0755160" lon="1.4159990">
        <ele>173.1</ele>
        <time>2020-02-22T13:19:10Z</time>
      </trkpt>
      <trkpt lat="39.0754830" lon="1.4160240">
        <ele>173.2</ele>
        <time>2020-02-22T13:19:11Z</time>
      </trkpt>
      <trkpt lat="39.0754690" lon="1.4160270">
        <ele>173.3</ele>
        <time>2020-02-22T13:19:12Z</time>
      </trkpt>
      <trkpt lat="39.0754310" lon="1.4160320">
        <ele>173.4</ele>
        <time>2020-02-22T13:19:13Z</time>
      </trkpt>
      <trkpt lat="39.0753880" lon="1.4160460">
        <ele>173.6</ele>
        <time>2020-02-22T13:19:14Z</time>
      </trkpt>
      <trkpt lat="39.0753450" lon="1.4160620">
        <ele>173.7</ele>
        <time>2020-02-22T13:19:15Z</time>
      </trkpt>
      <trkpt lat="39.0753010" lon="1.4160670">
        <ele>173.8</ele>
        <time>2020-02-22T13:19:16Z</time>
      </trkpt>
      <trkpt lat="39.0752610" lon="1.4160620">
        <ele>174.0</ele>
        <time>2020-02-22T13:19:17Z</time>
      </trkpt>
      <trkpt lat="39.0752170" lon="1.4160470">
        <ele>174.1</ele>
        <time>2020-02-22T13:19:18Z</time>
      </trkpt>
      <trkpt lat="39.0751900" lon="1.4160530">
        <ele>174.2</ele>
        <time>2020-02-22T13:19:19Z</time>
      </trkpt>
      <trkpt lat="39.0751810" lon="1.4160690">
        <ele>174.2</ele>
        <time>2020-02-22T13:19:20Z</time>
      </trkpt>
      <trkpt lat="39.0751840" lon="1.4160970">
        <ele>174.3</ele>
        <time>2020-02-22T13:19:21Z</time>
      </trkpt>
      <trkpt lat="39.0751840" lon="1.4161300">
        <ele>174.3</ele>
        <time>2020-02-22T13:19:22Z</time>
      </trkpt>
      <trkpt lat="39.0751780" lon="1.4161440">
        <ele>174.4</ele>
        <time>2020-02-22T13:19:23Z</time>
      </trkpt>
      <trkpt lat="39.0751730" lon="1.4161590">
        <ele>174.4</ele>
        <time>2020-02-22T13:19:24Z</time>
      </trkpt>
      <trkpt lat="39.0751680" lon="1.4161820">
        <ele>174.4</ele>
        <time>2020-02-22T13:19:25Z</time>
      </trkpt>
      <trkpt lat="39.0751650" lon="1.4162030">
        <ele>174.5</ele>
        <time>2020-02-22T13:19:26Z</time>
      </trkpt>
      <trkpt lat="39.0751710" lon="1.4162290">
        <ele>174.5</ele>
        <time>2020-02-22T13:19:27Z</time>
      </trkpt>
      <trkpt lat="39.0751720" lon="1.4162390">
        <ele>174.5</ele>
        <time>2020-02-22T13:19:28Z</time>
      </trkpt>
      <trkpt lat="39.0751590" lon="1.4162420">
        <ele>174.6</ele>
        <time>2020-02-22T13:19:29Z</time>
      </trkpt>
      <trkpt lat="39.0751500" lon="1.4162430">
        <ele>174.6</ele>
        <time>2020-02-22T13:19:30Z</time>
      </trkpt>
      <trkpt lat="39.0751400" lon="1.4162440">
        <ele>174.6</ele>
        <time>2020-02-22T13:19:31Z</time>
      </trkpt>
      <trkpt lat="39.0751310" lon="1.4162450">
        <ele>174.6</ele>
        <time>2020-02-22T13:19:32Z</time>
      </trkpt>
      <trkpt lat="39.0751210" lon="1.4162460">
        <ele>174.6</ele>
        <time>2020-02-22T13:19:33Z</time>
      </trkpt>
      <trkpt lat="39.0751120" lon="1.4162470">
        <ele>174.7</ele>
        <time>2020-02-22T13:19:34Z</time>
      </trkpt>
      <trkpt lat="39.0751020" lon="1.4162470">
        <ele>174.7</ele>
        <time>2020-02-22T13:19:35Z</time>
      </trkpt>
      <trkpt lat="39.0750920" lon="1.4162480">
        <ele>174.7</ele>
        <time>2020-02-22T13:19:36Z</time>
      </trkpt>
      <trkpt lat="39.0750830" lon="1.4162490">
        <ele>174.7</ele>
        <time>2020-02-22T13:19:37Z</time>
      </trkpt>
      <trkpt lat="39.0750730" lon="1.4162500">
        <ele>174.7</ele>
        <time>2020-02-22T13:19:38Z</time>
      </trkpt>
      <trkpt lat="39.0750640" lon="1.4162510">
        <ele>174.7</ele>
        <time>2020-02-22T13:19:59Z</time>
      </trkpt>
      <trkpt lat="39.0750540" lon="1.4162520">
        <ele>174.7</ele>
        <time>2020-02-22T13:20:00Z</time>
      </trkpt>
      <trkpt lat="39.0750200" lon="1.4162340">
        <ele>174.8</ele>
        <time>2020-02-22T13:20:01Z</time>
      </trkpt>
      <trkpt lat="39.0750070" lon="1.4162270">
        <ele>174.8</ele>
        <time>2020-02-22T13:20:02Z</time>
      </trkpt>
      <trkpt lat="39.0749730" lon="1.4162120">
        <ele>174.8</ele>
        <time>2020-02-22T13:20:03Z</time>
      </trkpt>
      <trkpt lat="39.0749610" lon="1.4162130">
        <ele>174.8</ele>
        <time>2020-02-22T13:20:04Z</time>
      </trkpt>
      <trkpt lat="39.0749300" lon="1.4162200">
        <ele>174.9</ele>
        <time>2020-02-22T13:20:05Z</time>
      </trkpt>
      <trkpt lat="39.0749170" lon="1.4162220">
        <ele>174.9</ele>
        <time>2020-02-22T13:20:06Z</time>
      </trkpt>
      <trkpt lat="39.0748800" lon="1.4162380">
        <ele>174.9</ele>
        <time>2020-02-22T13:20:07Z</time>
      </trkpt>
      <trkpt lat="39.0748660" lon="1.4162440">
        <ele>174.9</ele>
        <time>2020-02-22T13:20:08Z</time>
      </trkpt>
      <trkpt lat="39.0748590" lon="1.4162840">
        <ele>175.0</ele>
        <time>2020-02-22T13:20:09Z</time>
      </trkpt>
      <trkpt lat="39.0748600" lon="1.4162950">
        <ele>175.0</ele>
        <time>2020-02-22T13:20:10Z</time>
      </trkpt>
      <trkpt lat="39.0748650" lon="1.4163110">
        <ele>175.0</ele>
        <time>2020-02-22T13:20:11Z</time>
      </trkpt>
      <trkpt lat="39.0748750" lon="1.4163290">
        <ele>174.9</ele>
        <time>2020-02-22T13:20:12Z</time>
      </trkpt>
      <trkpt lat="39.0749000" lon="1.4163560">
        <ele>174.8</ele>
        <time>2020-02-22T13:20:13Z</time>
      </trkpt>
      <trkpt lat="39.0749060" lon="1.4163610">
        <ele>174.8</ele>
        <time>2020-02-22T13:20:14Z</time>
      </trkpt>
      <trkpt lat="39.0749270" lon="1.4163880">
        <ele>174.7</ele>
        <time>2020-02-22T13:20:15Z</time>
      </trkpt>
      <trkpt lat="39.0749340" lon="1.4164030">
        <ele>174.7</ele>
        <time>2020-02-22T13:20:16Z</time>
      </trkpt>
      <trkpt lat="39.0749520" lon="1.4164430">
        <ele>174.6</ele>
        <time>2020-02-22T13:20:17Z</time>
      </trkpt>
      <trkpt lat="39.0749580" lon="1.4164560">
        <ele>174.6</ele>
        <time>2020-02-22T13:20:18Z</time>
      </trkpt>
      <trkpt lat="39.0749760" lon="1.4165020">
        <ele>174.5</ele>
        <time>2020-02-22T13:20:19Z</time>
      </trkpt>
      <trkpt lat="39.0749820" lon="1.4165200">
        <ele>174.4</ele>
        <time>2020-02-22T13:20:20Z</time>
      </trkpt>
      <trkpt lat="39.0750020" lon="1.4165630">
        <ele>174.3</ele>
        <time>2020-02-22T13:20:21Z</time>
      </trkpt>
      <trkpt lat="39.0750120" lon="1.4165780">
        <ele>174.2</ele>
        <time>2020-02-22T13:20:22Z</time>
      </trkpt>
      <trkpt lat="39.0750320" lon="1.4166070">
        <ele>174.2</ele>
        <time>2020-02-22T13:20:23Z</time>
      </trkpt>
      <trkpt lat="39.0750520" lon="1.4166390">
        <ele>174.1</ele>
        <time>2020-02-22T13:20:24Z</time>
      </trkpt>
      <trkpt lat="39.0750590" lon="1.4166490">
        <ele>174.1</ele>
        <time>2020-02-22T13:20:25Z</time>
      </trkpt>
      <trkpt lat="39.0750820" lon="1.4166920">
        <ele>174.0</ele>
        <time>2020-02-22T13:20:26Z</time>
      </trkpt>
      <trkpt lat="39.0750910" lon="1.4167090">
        <ele>174.0</ele>
        <time>2020-02-22T13:20:27Z</time>
      </trkpt>
      <trkpt lat="39.0751100" lon="1.4167420">
        <ele>174.0</ele>
        <time>2020-02-22T13:20:28Z</time>
      </trkpt>
      <trkpt lat="39.0751150" lon="1.4167530">
        <ele>173.9</ele>
        <time>2020-02-22T13:20:29Z</time>
      </trkpt>
      <trkpt lat="39.0751350" lon="1.4167900">
        <ele>173.9</ele>
        <time>2020-02-22T13:20:30Z</time>
      </trkpt>
      <trkpt lat="39.0751430" lon="1.4168070">
        <ele>173.9</ele>
        <time>2020-02-22T13:20:31Z</time>
      </trkpt>
      <trkpt lat="39.0751650" lon="1.4168370">
        <ele>173.8</ele>
        <time>2020-02-22T13:20:32Z</time>
      </trkpt>
      <trkpt lat="39.0751950" lon="1.4168810">
        <ele>173.7</ele>
        <time>2020-02-22T13:20:33Z</time>
      </trkpt>
      <trkpt lat="39.0752080" lon="1.4168970">
        <ele>173.7</ele>
        <time>2020-02-22T13:20:34Z</time>
      </trkpt>
      <trkpt lat="39.0752330" lon="1.4169340">
        <ele>173.6</ele>
        <time>2020-02-22T13:20:35Z</time>
      </trkpt>
      <trkpt lat="39.0752420" lon="1.4169440">
        <ele>173.6</ele>
        <time>2020-02-22T13:20:36Z</time>
      </trkpt>
      <trkpt lat="39.0752690" lon="1.4169580">
        <ele>173.5</ele>
        <time>2020-02-22T13:20:37Z</time>
      </trkpt>
      <trkpt lat="39.0752800" lon="1.4169590">
        <ele>173.5</ele>
        <time>2020-02-22T13:20:38Z</time>
      </trkpt>
      <trkpt lat="39.0753090" lon="1.4169840">
        <ele>173.4</ele>
        <time>2020-02-22T13:20:39Z</time>
      </trkpt>
      <trkpt lat="39.0753170" lon="1.4169950">
        <ele>173.4</ele>
        <time>2020-02-22T13:20:40Z</time>
      </trkpt>
      <trkpt lat="39.0753330" lon="1.4170370">
        <ele>173.4</ele>
        <time>2020-02-22T13:20:41Z</time>
      </trkpt>
      <trkpt lat="39.0753390" lon="1.4170580">
        <ele>173.3</ele>
        <time>2020-02-22T13:20:42Z</time>
      </trkpt>
      <trkpt lat="39.0753500" lon="1.4170930">
        <ele>173.3</ele>
        <time>2020-02-22T13:20:43Z</time>
      </trkpt>
      <trkpt lat="39.0753650" lon="1.4171390">
        <ele>173.2</ele>
        <time>2020-02-22T13:20:44Z</time>
      </trkpt>
      <trkpt lat="39.0753730" lon="1.4171790">
        <ele>173.2</ele>
        <time>2020-02-22T13:20:45Z</time>
      </trkpt>
      <trkpt lat="39.0753770" lon="1.4172140">
        <ele>173.1</ele>
        <time>2020-02-22T13:20:46Z</time>
      </trkpt>
      <trkpt lat="39.0753880" lon="1.4172500">
        <ele>173.1</ele>
        <time>2020-02-22T13:20:47Z</time>
      </trkpt>
      <trkpt lat="39.0754090" lon="1.4172870">
        <ele>173.0</ele>
        <time>2020-02-22T13:20:48Z</time>
      </trkpt>
      <trkpt lat="39.0754210" lon="1.4173300">
        <ele>173.0</ele>
        <time>2020-02-22T13:20:49Z</time>
      </trkpt>
      <trkpt lat="39.0754220" lon="1.4173440">
        <ele>172.9</ele>
        <time>2020-02-22T13:20:50Z</time>
      </trkpt>
      <trkpt lat="39.0754210" lon="1.4173830">
        <ele>172.9</ele>
        <time>2020-02-22T13:20:51Z</time>
      </trkpt>
      <trkpt lat="39.0754310" lon="1.4174180">
        <ele>172.8</ele>
        <time>2020-02-22T13:20:52Z</time>
      </trkpt>
      <trkpt lat="39.0754320" lon="1.4174570">
        <ele>172.7</ele>
        <time>2020-02-22T13:20:53Z</time>
      </trkpt>
      <trkpt lat="39.0754320" lon="1.4175050">
        <ele>172.7</ele>
        <time>2020-02-22T13:20:54Z</time>
      </trkpt>
      <trkpt lat="39.0754330" lon="1.4175200">
        <ele>172.7</ele>
        <time>2020-02-22T13:20:55Z</time>
      </trkpt>
      <trkpt lat="39.0754360" lon="1.4175540">
        <ele>172.6</ele>
        <time>2020-02-22T13:20:56Z</time>
      </trkpt>
      <trkpt lat="39.0754330" lon="1.4175970">
        <ele>172.6</ele>
        <time>2020-02-22T13:20:57Z</time>
      </trkpt>
      <trkpt lat="39.0754270" lon="1.4176380">
        <ele>172.6</ele>
        <time>2020-02-22T13:20:58Z</time>
      </trkpt>
      <trkpt lat="39.0754240" lon="1.4176800">
        <ele>172.6</ele>
        <time>2020-02-22T13:20:59Z</time>
      </trkpt>
      <trkpt lat="39.0754270" lon="1.4177190">
        <ele>172.6</ele>
        <time>2020-02-22T13:21:00Z</time>
      </trkpt>
      <trkpt lat="39.0754340" lon="1.4177610">
        <ele>172.6</ele>
        <time>2020-02-22T13:21:01Z</time>
      </trkpt>
      <trkpt lat="39.0754340" lon="1.4178060">
        <ele>172.6</ele>
        <time>2020-02-22T13:21:02Z</time>
      </trkpt>
      <trkpt lat="39.0754330" lon="1.4178180">
        <ele>172.6</ele>
        <time>2020-02-22T13:21:03Z</time>
      </trkpt>
      <trkpt lat="39.0754330" lon="1.4178650">
        <ele>172.6</ele>
        <time>2020-02-22T13:21:04Z</time>
      </trkpt>
      <trkpt lat="39.0754330" lon="1.4178790">
        <ele>172.6</ele>
        <time>2020-02-22T13:21:05Z</time>
      </trkpt>
      <trkpt lat="39.0754270" lon="1.4179260">
        <ele>172.6</ele>
        <time>2020-02-22T13:21:06Z</time>
      </trkpt>
      <trkpt lat="39.0754240" lon="1.4179410">
        <ele>172.6</ele>
        <time>2020-02-22T13:21:07Z</time>
      </trkpt>
      <trkpt lat="39.0754200" lon="1.4179860">
        <ele>172.6</ele>
        <time>2020-02-22T13:21:08Z</time>
      </trkpt>
      <trkpt lat="39.0754170" lon="1.4179980">
        <ele>172.6</ele>
        <time>2020-02-22T13:21:09Z</time>
      </trkpt>
      <trkpt lat="39.0754100" lon="1.4180370">
        <ele>172.7</ele>
        <time>2020-02-22T13:21:10Z</time>
      </trkpt>
      <trkpt lat="39.0754070" lon="1.4180510">
        <ele>172.7</ele>
        <time>2020-02-22T13:21:11Z</time>
      </trkpt>
      <trkpt lat="39.0753990" lon="1.4180940">
        <ele>172.8</ele>
        <time>2020-02-22T13:21:12Z</time>
      </trkpt>
      <trkpt lat="39.0753970" lon="1.4181080">
        <ele>172.8</ele>
        <time>2020-02-22T13:21:13Z</time>
      </trkpt>
      <trkpt lat="39.0753850" lon="1.4181460">
        <ele>172.9</ele>
        <time>2020-02-22T13:21:14Z</time>
      </trkpt>
      <trkpt lat="39.0753820" lon="1.4181590">
        <ele>172.9</ele>
        <time>2020-02-22T13:21:15Z</time>
      </trkpt>
      <trkpt lat="39.0753840" lon="1.4181750">
        <ele>172.9</ele>
        <time>2020-02-22T13:21:16Z</time>
      </trkpt>
      <trkpt lat="39.0753830" lon="1.4181960">
        <ele>172.9</ele>
        <time>2020-02-22T13:21:17Z</time>
      </trkpt>
      <trkpt lat="39.0753760" lon="1.4182270">
        <ele>173.0</ele>
        <time>2020-02-22T13:21:18Z</time>
      </trkpt>
      <trkpt lat="39.0753690" lon="1.4182400">
        <ele>173.0</ele>
        <time>2020-02-22T13:21:19Z</time>
      </trkpt>
      <trkpt lat="39.0753580" lon="1.4182730">
        <ele>173.1</ele>
        <time>2020-02-22T13:21:20Z</time>
      </trkpt>
      <trkpt lat="39.0753550" lon="1.4182860">
        <ele>173.1</ele>
        <time>2020-02-22T13:21:21Z</time>
      </trkpt>
      <trkpt lat="39.0753550" lon="1.4183070">
        <ele>173.1</ele>
        <time>2020-02-22T13:21:22Z</time>
      </trkpt>
      <trkpt lat="39.0753510" lon="1.4183280">
        <ele>173.2</ele>
        <time>2020-02-22T13:21:23Z</time>
      </trkpt>
      <trkpt lat="39.0753480" lon="1.4183440">
        <ele>173.2</ele>
        <time>2020-02-22T13:21:24Z</time>
      </trkpt>
      <trkpt lat="39.0753440" lon="1.4183680">
        <ele>173.2</ele>
        <time>2020-02-22T13:21:25Z</time>
      </trkpt>
      <trkpt lat="39.0753370" lon="1.4184130">
        <ele>173.3</ele>
        <time>2020-02-22T13:21:26Z</time>
      </trkpt>
      <trkpt lat="39.0753330" lon="1.4184240">
        <ele>173.3</ele>
        <time>2020-02-22T13:21:27Z</time>
      </trkpt>
      <trkpt lat="39.0753430" lon="1.4184290">
        <ele>173.4</ele>
        <time>2020-02-22T13:21:28Z</time>
      </trkpt>
      <trkpt lat="39.0753340" lon="1.4184420">
        <ele>173.4</ele>
        <time>2020-02-22T13:21:29Z</time>
      </trkpt>
      <trkpt lat="39.0753240" lon="1.4184540">
        <ele>173.5</ele>
        <time>2020-02-22T13:21:30Z</time>
      </trkpt>
      <trkpt lat="39.0753210" lon="1.4184590">
        <ele>173.5</ele>
        <time>2020-02-22T13:21:31Z</time>
      </trkpt>
      <trkpt lat="39.0752980" lon="1.4184940">
        <ele>173.6</ele>
        <time>2020-02-22T13:21:32Z</time>
      </trkpt>
      <trkpt lat="39.0752870" lon="1.4185090">
        <ele>173.7</ele>
        <time>2020-02-22T13:21:33Z</time>
      </trkpt>
      <trkpt lat="39.0752760" lon="1.4185220">
        <ele>173.7</ele>
        <time>2020-02-22T13:21:34Z</time>
      </trkpt>
      <trkpt lat="39.0752690" lon="1.4185380">
        <ele>173.8</ele>
        <time>2020-02-22T13:21:35Z</time>
      </trkpt>
      <trkpt lat="39.0752610" lon="1.4185610">
        <ele>173.9</ele>
        <time>2020-02-22T13:21:36Z</time>
      </trkpt>
      <trkpt lat="39.0752530" lon="1.4185760">
        <ele>173.9</ele>
        <time>2020-02-22T13:21:37Z</time>
      </trkpt>
      <trkpt lat="39.0752440" lon="1.4185910">
        <ele>174.0</ele>
        <time>2020-02-22T13:21:38Z</time>
      </trkpt>
      <trkpt lat="39.0752400" lon="1.4186020">
        <ele>174.0</ele>
        <time>2020-02-22T13:21:39Z</time>
      </trkpt>
      <trkpt lat="39.0752370" lon="1.4186170">
        <ele>174.1</ele>
        <time>2020-02-22T13:21:40Z</time>
      </trkpt>
      <trkpt lat="39.0752220" lon="1.4186460">
        <ele>174.2</ele>
        <time>2020-02-22T13:21:41Z</time>
      </trkpt>
      <trkpt lat="39.0752110" lon="1.4186530">
        <ele>174.3</ele>
        <time>2020-02-22T13:21:42Z</time>
      </trkpt>
      <trkpt lat="39.0751830" lon="1.4186520">
        <ele>174.4</ele>
        <time>2020-02-22T13:21:43Z</time>
      </trkpt>
      <trkpt lat="39.0751540" lon="1.4186800">
        <ele>174.6</ele>
        <time>2020-02-22T13:21:44Z</time>
      </trkpt>
      <trkpt lat="39.0751480" lon="1.4186910">
        <ele>174.6</ele>
        <time>2020-02-22T13:21:45Z</time>
      </trkpt>
      <trkpt lat="39.0751420" lon="1.4187130">
        <ele>174.7</ele>
        <time>2020-02-22T13:21:46Z</time>
      </trkpt>
      <trkpt lat="39.0751350" lon="1.4187270">
        <ele>174.7</ele>
        <time>2020-02-22T13:21:47Z</time>
      </trkpt>
      <trkpt lat="39.0751180" lon="1.4187600">
        <ele>174.9</ele>
        <time>2020-02-22T13:21:48Z</time>
      </trkpt>
      <trkpt lat="39.0751120" lon="1.4187690">
        <ele>174.9</ele>
        <time>2020-02-22T13:21:49Z</time>
      </trkpt>
      <trkpt lat="39.0751060" lon="1.4187830">
        <ele>175.0</ele>
        <time>2020-02-22T13:21:50Z</time>
      </trkpt>
      <trkpt lat="39.0750920" lon="1.4188020">
        <ele>175.0</ele>
        <time>2020-02-22T13:21:51Z</time>
      </trkpt>
      <trkpt lat="39.0750820" lon="1.4188120">
        <ele>175.1</ele>
        <time>2020-02-22T13:21:52Z</time>
      </trkpt>
      <trkpt lat="39.0750710" lon="1.4188280">
        <ele>175.2</ele>
        <time>2020-02-22T13:21:53Z</time>
      </trkpt>
      <trkpt lat="39.0750630" lon="1.4188500">
        <ele>175.3</ele>
        <time>2020-02-22T13:21:54Z</time>
      </trkpt>
      <trkpt lat="39.0750580" lon="1.4188710">
        <ele>175.3</ele>
        <time>2020-02-22T13:21:55Z</time>
      </trkpt>
      <trkpt lat="39.0750370" lon="1.4189020">
        <ele>175.5</ele>
        <time>2020-02-22T13:21:56Z</time>
      </trkpt>
      <trkpt lat="39.0750250" lon="1.4189170">
        <ele>175.6</ele>
        <time>2020-02-22T13:21:57Z</time>
      </trkpt>
      <trkpt lat="39.0750170" lon="1.4189360">
        <ele>175.6</ele>
        <time>2020-02-22T13:21:58Z</time>
      </trkpt>
      <trkpt lat="39.0750070" lon="1.4189710">
        <ele>175.8</ele>
        <time>2020-02-22T13:21:59Z</time>
      </trkpt>
      <trkpt lat="39.0750030" lon="1.4189810">
        <ele>175.8</ele>
        <time>2020-02-22T13:22:00Z</time>
      </trkpt>
      <trkpt lat="39.0749930" lon="1.4189990">
        <ele>175.9</ele>
        <time>2020-02-22T13:22:01Z</time>
      </trkpt>
      <trkpt lat="39.0749870" lon="1.4190220">
        <ele>176.0</ele>
        <time>2020-02-22T13:22:02Z</time>
      </trkpt>
      <trkpt lat="39.0749700" lon="1.4190560">
        <ele>176.1</ele>
        <time>2020-02-22T13:22:03Z</time>
      </trkpt>
      <trkpt lat="39.0749650" lon="1.4190670">
        <ele>176.2</ele>
        <time>2020-02-22T13:22:04Z</time>
      </trkpt>
      <trkpt lat="39.0749450" lon="1.4190990">
        <ele>176.3</ele>
        <time>2020-02-22T13:22:05Z</time>
      </trkpt>
      <trkpt lat="39.0749430" lon="1.4191090">
        <ele>176.4</ele>
        <time>2020-02-22T13:22:06Z</time>
      </trkpt>
      <trkpt lat="39.0749340" lon="1.4191450">
        <ele>176.5</ele>
        <time>2020-02-22T13:22:07Z</time>
      </trkpt>
      <trkpt lat="39.0749300" lon="1.4191570">
        <ele>176.6</ele>
        <time>2020-02-22T13:22:08Z</time>
      </trkpt>
      <trkpt lat="39.0749240" lon="1.4191960">
        <ele>176.8</ele>
        <time>2020-02-22T13:22:09Z</time>
      </trkpt>
      <trkpt lat="39.0749210" lon="1.4192050">
        <ele>176.9</ele>
        <time>2020-02-22T13:22:10Z</time>
      </trkpt>
      <trkpt lat="39.0749170" lon="1.4192210">
        <ele>176.9</ele>
        <time>2020-02-22T13:22:11Z</time>
      </trkpt>
      <trkpt lat="39.0749100" lon="1.4192360">
        <ele>177.0</ele>
        <time>2020-02-22T13:22:12Z</time>
      </trkpt>
      <trkpt lat="39.0749080" lon="1.4192500">
        <ele>177.0</ele>
        <time>2020-02-22T13:22:13Z</time>
      </trkpt>
      <trkpt lat="39.0749040" lon="1.4192630">
        <ele>177.1</ele>
        <time>2020-02-22T13:22:14Z</time>
      </trkpt>
      <trkpt lat="39.0748990" lon="1.4192770">
        <ele>177.1</ele>
        <time>2020-02-22T13:22:15Z</time>
      </trkpt>
      <trkpt lat="39.0748870" lon="1.4192960">
        <ele>177.2</ele>
        <time>2020-02-22T13:22:16Z</time>
      </trkpt>
      <trkpt lat="39.0748740" lon="1.4193070">
        <ele>177.3</ele>
        <time>2020-02-22T13:22:17Z</time>
      </trkpt>
      <trkpt lat="39.0748570" lon="1.4193290">
        <ele>177.4</ele>
        <time>2020-02-22T13:22:18Z</time>
      </trkpt>
      <trkpt lat="39.0748540" lon="1.4193400">
        <ele>177.4</ele>
        <time>2020-02-22T13:22:19Z</time>
      </trkpt>
      <trkpt lat="39.0748500" lon="1.4193500">
        <ele>177.5</ele>
        <time>2020-02-22T13:22:20Z</time>
      </trkpt>
      <trkpt lat="39.0748480" lon="1.4193620">
        <ele>177.5</ele>
        <time>2020-02-22T13:22:21Z</time>
      </trkpt>
      <trkpt lat="39.0748360" lon="1.4193800">
        <ele>177.6</ele>
        <time>2020-02-22T13:22:22Z</time>
      </trkpt>
      <trkpt lat="39.0748260" lon="1.4193960">
        <ele>177.7</ele>
        <time>2020-02-22T13:22:23Z</time>
      </trkpt>
      <trkpt lat="39.0748170" lon="1.4194170">
        <ele>177.8</ele>
        <time>2020-02-22T13:22:24Z</time>
      </trkpt>
      <trkpt lat="39.0747980" lon="1.4194460">
        <ele>177.9</ele>
        <time>2020-02-22T13:22:25Z</time>
      </trkpt>
      <trkpt lat="39.0747910" lon="1.4194550">
        <ele>178.0</ele>
        <time>2020-02-22T13:22:26Z</time>
      </trkpt>
      <trkpt lat="39.0747650" lon="1.4194940">
        <ele>178.2</ele>
        <time>2020-02-22T13:22:27Z</time>
      </trkpt>
      <trkpt lat="39.0747540" lon="1.4195030">
        <ele>178.3</ele>
        <time>2020-02-22T13:22:28Z</time>
      </trkpt>
      <trkpt lat="39.0747250" lon="1.4195280">
        <ele>178.5</ele>
        <time>2020-02-22T13:22:29Z</time>
      </trkpt>
      <trkpt lat="39.0747150" lon="1.4195320">
        <ele>178.6</ele>
        <time>2020-02-22T13:22:30Z</time>
      </trkpt>
      <trkpt lat="39.0747020" lon="1.4195410">
        <ele>178.7</ele>
        <time>2020-02-22T13:22:31Z</time>
      </trkpt>
      <trkpt lat="39.0746870" lon="1.4195590">
        <ele>178.9</ele>
        <time>2020-02-22T13:22:32Z</time>
      </trkpt>
      <trkpt lat="39.0746740" lon="1.4195760">
        <ele>179.0</ele>
        <time>2020-02-22T13:22:33Z</time>
      </trkpt>
      <trkpt lat="39.0746620" lon="1.4195870">
        <ele>179.1</ele>
        <time>2020-02-22T13:22:34Z</time>
      </trkpt>
      <trkpt lat="39.0746460" lon="1.4196050">
        <ele>179.2</ele>
        <time>2020-02-22T13:22:35Z</time>
      </trkpt>
      <trkpt lat="39.0746360" lon="1.4196130">
        <ele>179.3</ele>
        <time>2020-02-22T13:22:36Z</time>
      </trkpt>
      <trkpt lat="39.0746270" lon="1.4196210">
        <ele>179.4</ele>
        <time>2020-02-22T13:22:37Z</time>
      </trkpt>
      <trkpt lat="39.0746060" lon="1.4196410">
        <ele>179.5</ele>
        <time>2020-02-22T13:22:38Z</time>
      </trkpt>
      <trkpt lat="39.0745990" lon="1.4196430">
        <ele>179.5</ele>
        <time>2020-02-22T13:22:39Z</time>
      </trkpt>
      <trkpt lat="39.0745920" lon="1.4196460">
        <ele>179.6</ele>
        <time>2020-02-22T13:22:40Z</time>
      </trkpt>
      <trkpt lat="39.0745750" lon="1.4196540">
        <ele>179.7</ele>
        <time>2020-02-22T13:22:41Z</time>
      </trkpt>
      <trkpt lat="39.0745610" lon="1.4196640">
        <ele>179.8</ele>
        <time>2020-02-22T13:22:42Z</time>
      </trkpt>
      <trkpt lat="39.0745480" lon="1.4196760">
        <ele>179.9</ele>
        <time>2020-02-22T13:22:43Z</time>
      </trkpt>
      <trkpt lat="39.0745380" lon="1.4196910">
        <ele>180.0</ele>
        <time>2020-02-22T13:22:44Z</time>
      </trkpt>
      <trkpt lat="39.0745200" lon="1.4197260">
        <ele>180.2</ele>
        <time>2020-02-22T13:22:45Z</time>
      </trkpt>
      <trkpt lat="39.0745150" lon="1.4197370">
        <ele>180.3</ele>
        <time>2020-02-22T13:22:46Z</time>
      </trkpt>
      <trkpt lat="39.0745030" lon="1.4197720">
        <ele>180.5</ele>
        <time>2020-02-22T13:22:47Z</time>
      </trkpt>
      <trkpt lat="39.0745000" lon="1.4197840">
        <ele>180.6</ele>
        <time>2020-02-22T13:22:48Z</time>
      </trkpt>
      <trkpt lat="39.0745010" lon="1.4198210">
        <ele>180.8</ele>
        <time>2020-02-22T13:22:49Z</time>
      </trkpt>
      <trkpt lat="39.0745010" lon="1.4198350">
        <ele>180.8</ele>
        <time>2020-02-22T13:22:50Z</time>
      </trkpt>
      <trkpt lat="39.0745010" lon="1.4198590">
        <ele>181.0</ele>
        <time>2020-02-22T13:22:51Z</time>
      </trkpt>
      <trkpt lat="39.0745070" lon="1.4198720">
        <ele>181.0</ele>
        <time>2020-02-22T13:22:52Z</time>
      </trkpt>
      <trkpt lat="39.0745110" lon="1.4198880">
        <ele>181.1</ele>
        <time>2020-02-22T13:22:53Z</time>
      </trkpt>
      <trkpt lat="39.0745300" lon="1.4198950">
        <ele>181.2</ele>
        <time>2020-02-22T13:22:54Z</time>
      </trkpt>
      <trkpt lat="39.0745460" lon="1.4198950">
        <ele>181.3</ele>
        <time>2020-02-22T13:22:55Z</time>
      </trkpt>
      <trkpt lat="39.0745560" lon="1.4198840">
        <ele>181.4</ele>
        <time>2020-02-22T13:22:56Z</time>
      </trkpt>
      <trkpt lat="39.0745690" lon="1.4198770">
        <ele>181.5</ele>
        <time>2020-02-22T13:22:57Z</time>
      </trkpt>
      <trkpt lat="39.0745870" lon="1.4198690">
        <ele>181.7</ele>
        <time>2020-02-22T13:22:58Z</time>
      </trkpt>
      <trkpt lat="39.0746200" lon="1.4198580">
        <ele>181.9</ele>
        <time>2020-02-22T13:22:59Z</time>
      </trkpt>
      <trkpt lat="39.0746320" lon="1.4198560">
        <ele>182.0</ele>
        <time>2020-02-22T13:23:00Z</time>
      </trkpt>
      <trkpt lat="39.0746550" lon="1.4198460">
        <ele>182.2</ele>
        <time>2020-02-22T13:23:01Z</time>
      </trkpt>
      <trkpt lat="39.0746630" lon="1.4198390">
        <ele>182.2</ele>
        <time>2020-02-22T13:23:02Z</time>
      </trkpt>
      <trkpt lat="39.0746700" lon="1.4198330">
        <ele>182.3</ele>
        <time>2020-02-22T13:23:03Z</time>
      </trkpt>
      <trkpt lat="39.0746840" lon="1.4198280">
        <ele>182.4</ele>
        <time>2020-02-22T13:23:04Z</time>
      </trkpt>
      <trkpt lat="39.0746990" lon="1.4198320">
        <ele>182.5</ele>
        <time>2020-02-22T13:23:05Z</time>
      </trkpt>
      <trkpt lat="39.0747150" lon="1.4198400">
        <ele>182.7</ele>
        <time>2020-02-22T13:23:06Z</time>
      </trkpt>
      <trkpt lat="39.0747260" lon="1.4198470">
        <ele>182.8</ele>
        <time>2020-02-22T13:23:07Z</time>
      </trkpt>
      <trkpt lat="39.0747390" lon="1.4198520">
        <ele>182.9</ele>
        <time>2020-02-22T13:23:08Z</time>
      </trkpt>
      <trkpt lat="39.0747540" lon="1.4198550">
        <ele>183.0</ele>
        <time>2020-02-22T13:23:09Z</time>
      </trkpt>
      <trkpt lat="39.0747840" lon="1.4198560">
        <ele>183.3</ele>
        <time>2020-02-22T13:23:10Z</time>
      </trkpt>
      <trkpt lat="39.0747970" lon="1.4198530">
        <ele>183.4</ele>
        <time>2020-02-22T13:23:11Z</time>
      </trkpt>
      <trkpt lat="39.0748240" lon="1.4198410">
        <ele>183.7</ele>
        <time>2020-02-22T13:23:12Z</time>
      </trkpt>
      <trkpt lat="39.0748360" lon="1.4198390">
        <ele>183.8</ele>
        <time>2020-02-22T13:23:13Z</time>
      </trkpt>
      <trkpt lat="39.0748690" lon="1.4198340">
        <ele>184.0</ele>
        <time>2020-02-22T13:23:14Z</time>
      </trkpt>
      <trkpt lat="39.0748790" lon="1.4198330">
        <ele>184.1</ele>
        <time>2020-02-22T13:23:15Z</time>
      </trkpt>
      <trkpt lat="39.0749020" lon="1.4198260">
        <ele>184.3</ele>
        <time>2020-02-22T13:23:16Z</time>
      </trkpt>
      <trkpt lat="39.0749090" lon="1.4198250">
        <ele>184.3</ele>
        <time>2020-02-22T13:23:17Z</time>
      </trkpt>
      <trkpt lat="39.0749160" lon="1.4198240">
        <ele>184.4</ele>
        <time>2020-02-22T13:23:18Z</time>
      </trkpt>
      <trkpt lat="39.0749340" lon="1.4198190">
        <ele>184.5</ele>
        <time>2020-02-22T13:23:19Z</time>
      </trkpt>
      <trkpt lat="39.0749470" lon="1.4198020">
        <ele>184.6</ele>
        <time>2020-02-22T13:23:20Z</time>
      </trkpt>
      <trkpt lat="39.0749540" lon="1.4198070">
        <ele>184.7</ele>
        <time>2020-02-22T13:23:21Z</time>
      </trkpt>
      <trkpt lat="39.0749760" lon="1.4198010">
        <ele>184.9</ele>
        <time>2020-02-22T13:23:22Z</time>
      </trkpt>
      <trkpt lat="39.0750080" lon="1.4197930">
        <ele>185.1</ele>
        <time>2020-02-22T13:23:23Z</time>
      </trkpt>
      <trkpt lat="39.0750160" lon="1.4197900">
        <ele>185.2</ele>
        <time>2020-02-22T13:23:24Z</time>
      </trkpt>
      <trkpt lat="39.0750280" lon="1.4197900">
        <ele>185.3</ele>
        <time>2020-02-22T13:23:25Z</time>
      </trkpt>
      <trkpt lat="39.0750410" lon="1.4197890">
        <ele>185.4</ele>
        <time>2020-02-22T13:23:26Z</time>
      </trkpt>
      <trkpt lat="39.0750480" lon="1.4197860">
        <ele>185.5</ele>
        <time>2020-02-22T13:23:27Z</time>
      </trkpt>
      <trkpt lat="39.0750590" lon="1.4197840">
        <ele>185.6</ele>
        <time>2020-02-22T13:23:28Z</time>
      </trkpt>
      <trkpt lat="39.0750800" lon="1.4197830">
        <ele>185.7</ele>
        <time>2020-02-22T13:23:29Z</time>
      </trkpt>
      <trkpt lat="39.0751080" lon="1.4197760">
        <ele>186.1</ele>
        <time>2020-02-22T13:23:30Z</time>
      </trkpt>
      <trkpt lat="39.0751170" lon="1.4197720">
        <ele>186.2</ele>
        <time>2020-02-22T13:23:31Z</time>
      </trkpt>
      <trkpt lat="39.0751460" lon="1.4197680">
        <ele>186.4</ele>
        <time>2020-02-22T13:23:32Z</time>
      </trkpt>
      <trkpt lat="39.0751540" lon="1.4197680">
        <ele>186.5</ele>
        <time>2020-02-22T13:23:33Z</time>
      </trkpt>
      <trkpt lat="39.0751680" lon="1.4197730">
        <ele>186.6</ele>
        <time>2020-02-22T13:23:34Z</time>
      </trkpt>
      <trkpt lat="39.0751850" lon="1.4197810">
        <ele>186.8</ele>
        <time>2020-02-22T13:23:35Z</time>
      </trkpt>
      <trkpt lat="39.0752070" lon="1.4197830">
        <ele>187.0</ele>
        <time>2020-02-22T13:23:36Z</time>
      </trkpt>
      <trkpt lat="39.0752140" lon="1.4197820">
        <ele>187.0</ele>
        <time>2020-02-22T13:23:37Z</time>
      </trkpt>
      <trkpt lat="39.0752220" lon="1.4197820">
        <ele>187.1</ele>
        <time>2020-02-22T13:23:38Z</time>
      </trkpt>
      <trkpt lat="39.0752390" lon="1.4197940">
        <ele>187.3</ele>
        <time>2020-02-22T13:23:39Z</time>
      </trkpt>
      <trkpt lat="39.0752520" lon="1.4198020">
        <ele>187.4</ele>
        <time>2020-02-22T13:23:40Z</time>
      </trkpt>
      <trkpt lat="39.0752750" lon="1.4198040">
        <ele>187.6</ele>
        <time>2020-02-22T13:23:41Z</time>
      </trkpt>
      <trkpt lat="39.0752840" lon="1.4198040">
        <ele>187.7</ele>
        <time>2020-02-22T13:23:42Z</time>
      </trkpt>
      <trkpt lat="39.0752940" lon="1.4198050">
        <ele>187.7</ele>
        <time>2020-02-22T13:23:43Z</time>
      </trkpt>
      <trkpt lat="39.0753180" lon="1.4198100">
        <ele>187.9</ele>
        <time>2020-02-22T13:23:44Z</time>
      </trkpt>
      <trkpt lat="39.0753290" lon="1.4198110">
        <ele>188.0</ele>
        <time>2020-02-22T13:23:45Z</time>
      </trkpt>
      <trkpt lat="39.0753400" lon="1.4198110">
        <ele>188.1</ele>
        <time>2020-02-22T13:23:46Z</time>
      </trkpt>
      <trkpt lat="39.0753710" lon="1.4198090">
        <ele>188.4</ele>
        <time>2020-02-22T13:23:47Z</time>
      </trkpt>
      <trkpt lat="39.0753790" lon="1.4198090">
        <ele>188.5</ele>
        <time>2020-02-22T13:23:48Z</time>
      </trkpt>
      <trkpt lat="39.0753900" lon="1.4198140">
        <ele>188.6</ele>
        <time>2020-02-22T13:23:49Z</time>
      </trkpt>
      <trkpt lat="39.0754000" lon="1.4198240">
        <ele>188.7</ele>
        <time>2020-02-22T13:23:50Z</time>
      </trkpt>
      <trkpt lat="39.0754080" lon="1.4198230">
        <ele>188.8</ele>
        <time>2020-02-22T13:23:51Z</time>
      </trkpt>
      <trkpt lat="39.0754260" lon="1.4198200">
        <ele>189.0</ele>
        <time>2020-02-22T13:23:52Z</time>
      </trkpt>
      <trkpt lat="39.0754380" lon="1.4198180">
        <ele>189.2</ele>
        <time>2020-02-22T13:23:53Z</time>
      </trkpt>
      <trkpt lat="39.0754510" lon="1.4198150">
        <ele>189.3</ele>
        <time>2020-02-22T13:23:54Z</time>
      </trkpt>
      <trkpt lat="39.0754790" lon="1.4198090">
        <ele>189.7</ele>
        <time>2020-02-22T13:23:55Z</time>
      </trkpt>
      <trkpt lat="39.0755120" lon="1.4198010">
        <ele>190.1</ele>
        <time>2020-02-22T13:23:56Z</time>
      </trkpt>
      <trkpt lat="39.0755200" lon="1.4197960">
        <ele>190.2</ele>
        <time>2020-02-22T13:23:57Z</time>
      </trkpt>
      <trkpt lat="39.0755390" lon="1.4197980">
        <ele>190.4</ele>
        <time>2020-02-22T13:23:58Z</time>
      </trkpt>
      <trkpt lat="39.0755530" lon="1.4197970">
        <ele>190.6</ele>
        <time>2020-02-22T13:23:59Z</time>
      </trkpt>
      <trkpt lat="39.0755840" lon="1.4197920">
        <ele>191.0</ele>
        <time>2020-02-22T13:24:00Z</time>
      </trkpt>
      <trkpt lat="39.0755980" lon="1.4197920">
        <ele>191.2</ele>
        <time>2020-02-22T13:24:01Z</time>
      </trkpt>
      <trkpt lat="39.0756150" lon="1.4197970">
        <ele>191.5</ele>
        <time>2020-02-22T13:24:02Z</time>
      </trkpt>
      <trkpt lat="39.0756270" lon="1.4197990">
        <ele>191.6</ele>
        <time>2020-02-22T13:24:03Z</time>
      </trkpt>
      <trkpt lat="39.0756490" lon="1.4198070">
        <ele>192.1</ele>
        <time>2020-02-22T13:24:04Z</time>
      </trkpt>
      <trkpt lat="39.0756590" lon="1.4198090">
        <ele>192.3</ele>
        <time>2020-02-22T13:24:05Z</time>
      </trkpt>
      <trkpt lat="39.0756690" lon="1.4198120">
        <ele>192.5</ele>
        <time>2020-02-22T13:24:06Z</time>
      </trkpt>
      <trkpt lat="39.0756930" lon="1.4198140">
        <ele>192.9</ele>
        <time>2020-02-22T13:24:07Z</time>
      </trkpt>
      <trkpt lat="39.0757050" lon="1.4198140">
        <ele>193.2</ele>
        <time>2020-02-22T13:24:08Z</time>
      </trkpt>
      <trkpt lat="39.0757170" lon="1.4198130">
        <ele>193.4</ele>
        <time>2020-02-22T13:24:09Z</time>
      </trkpt>
      <trkpt lat="39.0757350" lon="1.4198120">
        <ele>193.7</ele>
        <time>2020-02-22T13:24:10Z</time>
      </trkpt>
      <trkpt lat="39.0757490" lon="1.4198170">
        <ele>193.9</ele>
        <time>2020-02-22T13:24:11Z</time>
      </trkpt>
      <trkpt lat="39.0757600" lon="1.4198230">
        <ele>194.1</ele>
        <time>2020-02-22T13:24:12Z</time>
      </trkpt>
      <trkpt lat="39.0757690" lon="1.4198320">
        <ele>194.3</ele>
        <time>2020-02-22T13:24:13Z</time>
      </trkpt>
      <trkpt lat="39.0757800" lon="1.4198410">
        <ele>194.6</ele>
        <time>2020-02-22T13:24:14Z</time>
      </trkpt>
      <trkpt lat="39.0757930" lon="1.4198540">
        <ele>194.9</ele>
        <time>2020-02-22T13:24:15Z</time>
      </trkpt>
      <trkpt lat="39.0758070" lon="1.4198720">
        <ele>195.4</ele>
        <time>2020-02-22T13:24:16Z</time>
      </trkpt>
      <trkpt lat="39.0758180" lon="1.4198850">
        <ele>195.7</ele>
        <time>2020-02-22T13:24:17Z</time>
      </trkpt>
      <trkpt lat="39.0758320" lon="1.4198870">
        <ele>195.9</ele>
        <time>2020-02-22T13:24:18Z</time>
      </trkpt>
      <trkpt lat="39.0758550" lon="1.4198860">
        <ele>196.3</ele>
        <time>2020-02-22T13:24:19Z</time>
      </trkpt>
      <trkpt lat="39.0758650" lon="1.4198870">
        <ele>196.5</ele>
        <time>2020-02-22T13:24:20Z</time>
      </trkpt>
      <trkpt lat="39.0758740" lon="1.4198890">
        <ele>196.6</ele>
        <time>2020-02-22T13:24:21Z</time>
      </trkpt>
      <trkpt lat="39.0759020" lon="1.4198920">
        <ele>197.1</ele>
        <time>2020-02-22T13:24:22Z</time>
      </trkpt>
      <trkpt lat="39.0759360" lon="1.4198930">
        <ele>197.6</ele>
        <time>2020-02-22T13:24:23Z</time>
      </trkpt>
      <trkpt lat="39.0759460" lon="1.4198940">
        <ele>197.7</ele>
        <time>2020-02-22T13:24:24Z</time>
      </trkpt>
      <trkpt lat="39.0759580" lon="1.4199010">
        <ele>197.9</ele>
        <time>2020-02-22T13:24:25Z</time>
      </trkpt>
      <trkpt lat="39.0759710" lon="1.4199120">
        <ele>198.1</ele>
        <time>2020-02-22T13:24:26Z</time>
      </trkpt>
      <trkpt lat="39.0760020" lon="1.4199190">
        <ele>198.5</ele>
        <time>2020-02-22T13:24:27Z</time>
      </trkpt>
      <trkpt lat="39.0760110" lon="1.4199210">
        <ele>198.7</ele>
        <time>2020-02-22T13:24:28Z</time>
      </trkpt>
      <trkpt lat="39.0760370" lon="1.4199370">
        <ele>199.1</ele>
        <time>2020-02-22T13:24:29Z</time>
      </trkpt>
      <trkpt lat="39.0760440" lon="1.4199450">
        <ele>199.2</ele>
        <time>2020-02-22T13:24:30Z</time>
      </trkpt>
      <trkpt lat="39.0760610" lon="1.4199490">
        <ele>199.5</ele>
        <time>2020-02-22T13:24:31Z</time>
      </trkpt>
      <trkpt lat="39.0760760" lon="1.4199610">
        <ele>199.7</ele>
        <time>2020-02-22T13:24:32Z</time>
      </trkpt>
      <trkpt lat="39.0761050" lon="1.4199700">
        <ele>200.1</ele>
        <time>2020-02-22T13:24:33Z</time>
      </trkpt>
      <trkpt lat="39.0761150" lon="1.4199700">
        <ele>200.3</ele>
        <time>2020-02-22T13:24:34Z</time>
      </trkpt>
      <trkpt lat="39.0761380" lon="1.4199700">
        <ele>200.6</ele>
        <time>2020-02-22T13:24:35Z</time>
      </trkpt>
      <trkpt lat="39.0761460" lon="1.4199750">
        <ele>200.7</ele>
        <time>2020-02-22T13:24:36Z</time>
      </trkpt>
      <trkpt lat="39.0761740" lon="1.4199910">
        <ele>201.1</ele>
        <time>2020-02-22T13:24:37Z</time>
      </trkpt>
      <trkpt lat="39.0761840" lon="1.4199940">
        <ele>201.2</ele>
        <time>2020-02-22T13:24:38Z</time>
      </trkpt>
      <trkpt lat="39.0762000" lon="1.4199970">
        <ele>201.4</ele>
        <time>2020-02-22T13:24:39Z</time>
      </trkpt>
      <trkpt lat="39.0762180" lon="1.4200070">
        <ele>201.7</ele>
        <time>2020-02-22T13:24:40Z</time>
      </trkpt>
      <trkpt lat="39.0762290" lon="1.4200010">
        <ele>201.8</ele>
        <time>2020-02-22T13:24:41Z</time>
      </trkpt>
      <trkpt lat="39.0762410" lon="1.4200000">
        <ele>202.0</ele>
        <time>2020-02-22T13:24:42Z</time>
      </trkpt>
      <trkpt lat="39.0762520" lon="1.4200090">
        <ele>202.1</ele>
        <time>2020-02-22T13:24:43Z</time>
      </trkpt>
      <trkpt lat="39.0762730" lon="1.4200140">
        <ele>202.3</ele>
        <time>2020-02-22T13:24:44Z</time>
      </trkpt>
      <trkpt lat="39.0762810" lon="1.4200240">
        <ele>202.4</ele>
        <time>2020-02-22T13:24:45Z</time>
      </trkpt>
      <trkpt lat="39.0763090" lon="1.4200360">
        <ele>202.7</ele>
        <time>2020-02-22T13:24:46Z</time>
      </trkpt>
      <trkpt lat="39.0763170" lon="1.4200430">
        <ele>202.8</ele>
        <time>2020-02-22T13:24:47Z</time>
      </trkpt>
      <trkpt lat="39.0763300" lon="1.4200480">
        <ele>203.0</ele>
        <time>2020-02-22T13:24:48Z</time>
      </trkpt>
      <trkpt lat="39.0763430" lon="1.4200510">
        <ele>203.1</ele>
        <time>2020-02-22T13:24:49Z</time>
      </trkpt>
      <trkpt lat="39.0763490" lon="1.4200600">
        <ele>203.2</ele>
        <time>2020-02-22T13:24:50Z</time>
      </trkpt>
      <trkpt lat="39.0763490" lon="1.4200720">
        <ele>203.3</ele>
        <time>2020-02-22T13:24:51Z</time>
      </trkpt>
      <trkpt lat="39.0763520" lon="1.4200820">
        <ele>203.4</ele>
        <time>2020-02-22T13:24:52Z</time>
      </trkpt>
      <trkpt lat="39.0763560" lon="1.4200910">
        <ele>203.5</ele>
        <time>2020-02-22T13:24:53Z</time>
      </trkpt>
      <trkpt lat="39.0763600" lon="1.4201010">
        <ele>203.6</ele>
        <time>2020-02-22T13:24:54Z</time>
      </trkpt>
      <trkpt lat="39.0763630" lon="1.4201100">
        <ele>203.7</ele>
        <time>2020-02-22T13:24:55Z</time>
      </trkpt>
      <trkpt lat="39.0763670" lon="1.4201190">
        <ele>203.8</ele>
        <time>2020-02-22T13:24:56Z</time>
      </trkpt>
      <trkpt lat="39.0763710" lon="1.4201290">
        <ele>203.8</ele>
        <time>2020-02-22T13:24:57Z</time>
      </trkpt>
      <trkpt lat="39.0763740" lon="1.4201380">
        <ele>203.9</ele>
        <time>2020-02-22T13:24:58Z</time>
      </trkpt>
      <trkpt lat="39.0763780" lon="1.4201480">
        <ele>204.0</ele>
        <time>2020-02-22T13:24:59Z</time>
      </trkpt>
      <trkpt lat="39.0763820" lon="1.4201570">
        <ele>204.1</ele>
        <time>2020-02-22T13:25:00Z</time>
      </trkpt>
      <trkpt lat="39.0763850" lon="1.4201670">
        <ele>204.2</ele>
        <time>2020-02-22T13:25:03Z</time>
      </trkpt>
      <trkpt lat="39.0763890" lon="1.4201760">
        <ele>204.2</ele>
        <time>2020-02-22T13:25:04Z</time>
      </trkpt>
      <trkpt lat="39.0764020" lon="1.4202230">
        <ele>204.4</ele>
        <time>2020-02-22T13:25:05Z</time>
      </trkpt>
      <trkpt lat="39.0764130" lon="1.4202750">
        <ele>204.6</ele>
        <time>2020-02-22T13:25:06Z</time>
      </trkpt>
      <trkpt lat="39.0764300" lon="1.4203380">
        <ele>204.8</ele>
        <time>2020-02-22T13:25:07Z</time>
      </trkpt>
      <trkpt lat="39.0764380" lon="1.4203880">
        <ele>204.8</ele>
        <time>2020-02-22T13:25:08Z</time>
      </trkpt>
      <trkpt lat="39.0764450" lon="1.4204450">
        <ele>204.9</ele>
        <time>2020-02-22T13:25:09Z</time>
      </trkpt>
      <trkpt lat="39.0764460" lon="1.4204840">
        <ele>205.0</ele>
        <time>2020-02-22T13:25:10Z</time>
      </trkpt>
      <trkpt lat="39.0764650" lon="1.4205190">
        <ele>205.0</ele>
        <time>2020-02-22T13:25:11Z</time>
      </trkpt>
      <trkpt lat="39.0764680" lon="1.4205310">
        <ele>205.1</ele>
        <time>2020-02-22T13:25:12Z</time>
      </trkpt>
      <trkpt lat="39.0764780" lon="1.4205420">
        <ele>205.1</ele>
        <time>2020-02-22T13:25:13Z</time>
      </trkpt>
      <trkpt lat="39.0764700" lon="1.4205430">
        <ele>205.1</ele>
        <time>2020-02-22T13:25:14Z</time>
      </trkpt>
      <trkpt lat="39.0764650" lon="1.4205500">
        <ele>205.1</ele>
        <time>2020-02-22T13:25:15Z</time>
      </trkpt>
      <trkpt lat="39.0764640" lon="1.4205690">
        <ele>205.1</ele>
        <time>2020-02-22T13:25:16Z</time>
      </trkpt>
      <trkpt lat="39.0764610" lon="1.4205800">
        <ele>205.1</ele>
        <time>2020-02-22T13:25:17Z</time>
      </trkpt>
      <trkpt lat="39.0764670" lon="1.4205890">
        <ele>205.1</ele>
        <time>2020-02-22T13:25:18Z</time>
      </trkpt>
      <trkpt lat="39.0764660" lon="1.4206040">
        <ele>205.1</ele>
        <time>2020-02-22T13:25:19Z</time>
      </trkpt>
      <trkpt lat="39.0764490" lon="1.4206310">
        <ele>205.1</ele>
        <time>2020-02-22T13:25:20Z</time>
      </trkpt>
      <trkpt lat="39.0764380" lon="1.4206440">
        <ele>205.1</ele>
        <time>2020-02-22T13:25:21Z</time>
      </trkpt>
      <trkpt lat="39.0763990" lon="1.4206780">
        <ele>205.0</ele>
        <time>2020-02-22T13:25:22Z</time>
      </trkpt>
      <trkpt lat="39.0763580" lon="1.4207400">
        <ele>205.0</ele>
        <time>2020-02-22T13:25:23Z</time>
      </trkpt>
      <trkpt lat="39.0763230" lon="1.4208000">
        <ele>204.8</ele>
        <time>2020-02-22T13:25:24Z</time>
      </trkpt>
      <trkpt lat="39.0762880" lon="1.4208470">
        <ele>204.7</ele>
        <time>2020-02-22T13:25:25Z</time>
      </trkpt>
      <trkpt lat="39.0762570" lon="1.4208950">
        <ele>204.5</ele>
        <time>2020-02-22T13:25:26Z</time>
      </trkpt>
      <trkpt lat="39.0762210" lon="1.4209320">
        <ele>204.3</ele>
        <time>2020-02-22T13:25:27Z</time>
      </trkpt>
      <trkpt lat="39.0761970" lon="1.4209630">
        <ele>204.2</ele>
        <time>2020-02-22T13:25:28Z</time>
      </trkpt>
      <trkpt lat="39.0761880" lon="1.4210120">
        <ele>204.0</ele>
        <time>2020-02-22T13:25:29Z</time>
      </trkpt>
      <trkpt lat="39.0761890" lon="1.4210560">
        <ele>203.8</ele>
        <time>2020-02-22T13:25:30Z</time>
      </trkpt>
      <trkpt lat="39.0761930" lon="1.4210770">
        <ele>203.8</ele>
        <time>2020-02-22T13:25:31Z</time>
      </trkpt>
      <trkpt lat="39.0762000" lon="1.4210890">
        <ele>203.7</ele>
        <time>2020-02-22T13:25:32Z</time>
      </trkpt>
      <trkpt lat="39.0762220" lon="1.4210810">
        <ele>203.5</ele>
        <time>2020-02-22T13:25:33Z</time>
      </trkpt>
      <trkpt lat="39.0762330" lon="1.4210630">
        <ele>203.4</ele>
        <time>2020-02-22T13:25:34Z</time>
      </trkpt>
      <trkpt lat="39.0762430" lon="1.4210450">
        <ele>203.3</ele>
        <time>2020-02-22T13:25:35Z</time>
      </trkpt>
      <trkpt lat="39.0762790" lon="1.4209940">
        <ele>203.9</ele>
        <time>2020-02-22T13:25:36Z</time>
      </trkpt>
      <trkpt lat="39.0763240" lon="1.4209470">
        <ele>204.2</ele>
        <time>2020-02-22T13:25:37Z</time>
      </trkpt>
      <trkpt lat="39.0763650" lon="1.4208920">
        <ele>204.4</ele>
        <time>2020-02-22T13:25:38Z</time>
      </trkpt>
      <trkpt lat="39.0763960" lon="1.4208430">
        <ele>204.6</ele>
        <time>2020-02-22T13:25:39Z</time>
      </trkpt>
      <trkpt lat="39.0764200" lon="1.4208080">
        <ele>204.7</ele>
        <time>2020-02-22T13:25:40Z</time>
      </trkpt>
      <trkpt lat="39.0764570" lon="1.4208010">
        <ele>204.8</ele>
        <time>2020-02-22T13:25:41Z</time>
      </trkpt>
      <trkpt lat="39.0765000" lon="1.4208110">
        <ele>203.5</ele>
        <time>2020-02-22T13:25:42Z</time>
      </trkpt>
      <trkpt lat="39.0765180" lon="1.4208400">
        <ele>202.2</ele>
        <time>2020-02-22T13:25:43Z</time>
      </trkpt>
      <trkpt lat="39.0765170" lon="1.4208920">
        <ele>202.2</ele>
        <time>2020-02-22T13:25:44Z</time>
      </trkpt>
      <trkpt lat="39.0765100" lon="1.4209110">
        <ele>201.8</ele>
        <time>2020-02-22T13:25:45Z</time>
      </trkpt>
      <trkpt lat="39.0764790" lon="1.4209670">
        <ele>202.4</ele>
        <time>2020-02-22T13:25:46Z</time>
      </trkpt>
      <trkpt lat="39.0764500" lon="1.4210230">
        <ele>203.1</ele>
        <time>2020-02-22T13:25:47Z</time>
      </trkpt>
      <trkpt lat="39.0764200" lon="1.4210650">
        <ele>203.8</ele>
        <time>2020-02-22T13:25:48Z</time>
      </trkpt>
      <trkpt lat="39.0763980" lon="1.4211090">
        <ele>204.4</ele>
        <time>2020-02-22T13:25:49Z</time>
      </trkpt>
      <trkpt lat="39.0763750" lon="1.4211520">
        <ele>205.0</ele>
        <time>2020-02-22T13:25:50Z</time>
      </trkpt>
      <trkpt lat="39.0763650" lon="1.4211900">
        <ele>204.6</ele>
        <time>2020-02-22T13:25:51Z</time>
      </trkpt>
      <trkpt lat="39.0763740" lon="1.4212370">
        <ele>204.0</ele>
        <time>2020-02-22T13:25:52Z</time>
      </trkpt>
      <trkpt lat="39.0763870" lon="1.4212570">
        <ele>202.6</ele>
        <time>2020-02-22T13:25:53Z</time>
      </trkpt>
      <trkpt lat="39.0764100" lon="1.4212390">
        <ele>201.2</ele>
        <time>2020-02-22T13:25:54Z</time>
      </trkpt>
      <trkpt lat="39.0764560" lon="1.4211940">
        <ele>200.0</ele>
        <time>2020-02-22T13:25:55Z</time>
      </trkpt>
      <trkpt lat="39.0765010" lon="1.4211450">
        <ele>198.7</ele>
        <time>2020-02-22T13:25:56Z</time>
      </trkpt>
      <trkpt lat="39.0765430" lon="1.4210890">
        <ele>196.5</ele>
        <time>2020-02-22T13:25:57Z</time>
      </trkpt>
      <trkpt lat="39.0765840" lon="1.4210330">
        <ele>195.1</ele>
        <time>2020-02-22T13:25:58Z</time>
      </trkpt>
      <trkpt lat="39.0766200" lon="1.4209920">
        <ele>193.6</ele>
        <time>2020-02-22T13:25:59Z</time>
      </trkpt>
      <trkpt lat="39.0766470" lon="1.4209480">
        <ele>192.0</ele>
        <time>2020-02-22T13:26:00Z</time>
      </trkpt>
      <trkpt lat="39.0766780" lon="1.4209210">
        <ele>191.6</ele>
        <time>2020-02-22T13:26:01Z</time>
      </trkpt>
      <trkpt lat="39.0767030" lon="1.4208890">
        <ele>191.2</ele>
        <time>2020-02-22T13:26:02Z</time>
      </trkpt>
      <trkpt lat="39.0767110" lon="1.4208450">
        <ele>190.9</ele>
        <time>2020-02-22T13:26:03Z</time>
      </trkpt>
      <trkpt lat="39.0767200" lon="1.4207970">
        <ele>190.5</ele>
        <time>2020-02-22T13:26:04Z</time>
      </trkpt>
      <trkpt lat="39.0767430" lon="1.4207570">
        <ele>190.1</ele>
        <time>2020-02-22T13:26:05Z</time>
      </trkpt>
      <trkpt lat="39.0767710" lon="1.4207080">
        <ele>189.6</ele>
        <time>2020-02-22T13:26:06Z</time>
      </trkpt>
      <trkpt lat="39.0767970" lon="1.4206610">
        <ele>189.2</ele>
        <time>2020-02-22T13:26:07Z</time>
      </trkpt>
      <trkpt lat="39.0768200" lon="1.4206050">
        <ele>188.8</ele>
        <time>2020-02-22T13:26:08Z</time>
      </trkpt>
      <trkpt lat="39.0768410" lon="1.4205530">
        <ele>188.5</ele>
        <time>2020-02-22T13:26:09Z</time>
      </trkpt>
      <trkpt lat="39.0768660" lon="1.4205090">
        <ele>188.2</ele>
        <time>2020-02-22T13:26:10Z</time>
      </trkpt>
      <trkpt lat="39.0768930" lon="1.4204590">
        <ele>187.9</ele>
        <time>2020-02-22T13:26:11Z</time>
      </trkpt>
      <trkpt lat="39.0769190" lon="1.4204270">
        <ele>187.5</ele>
        <time>2020-02-22T13:26:12Z</time>
      </trkpt>
      <trkpt lat="39.0769680" lon="1.4204750">
        <ele>186.8</ele>
        <time>2020-02-22T13:26:13Z</time>
      </trkpt>
      <trkpt lat="39.0770070" lon="1.4205080">
        <ele>186.3</ele>
        <time>2020-02-22T13:26:14Z</time>
      </trkpt>
      <trkpt lat="39.0770260" lon="1.4205370">
        <ele>186.0</ele>
        <time>2020-02-22T13:26:15Z</time>
      </trkpt>
      <trkpt lat="39.0770420" lon="1.4205900">
        <ele>185.6</ele>
        <time>2020-02-22T13:26:16Z</time>
      </trkpt>
      <trkpt lat="39.0770470" lon="1.4206160">
        <ele>185.4</ele>
        <time>2020-02-22T13:26:17Z</time>
      </trkpt>
      <trkpt lat="39.0770460" lon="1.4206680">
        <ele>185.0</ele>
        <time>2020-02-22T13:26:18Z</time>
      </trkpt>
      <trkpt lat="39.0770420" lon="1.4207160">
        <ele>184.7</ele>
        <time>2020-02-22T13:26:19Z</time>
      </trkpt>
      <trkpt lat="39.0770250" lon="1.4207560">
        <ele>184.2</ele>
        <time>2020-02-22T13:26:20Z</time>
      </trkpt>
      <trkpt lat="39.0770130" lon="1.4207980">
        <ele>183.6</ele>
        <time>2020-02-22T13:26:21Z</time>
      </trkpt>
      <trkpt lat="39.0769950" lon="1.4208390">
        <ele>183.0</ele>
        <time>2020-02-22T13:26:22Z</time>
      </trkpt>
      <trkpt lat="39.0769730" lon="1.4208820">
        <ele>182.3</ele>
        <time>2020-02-22T13:26:23Z</time>
      </trkpt>
      <trkpt lat="39.0769590" lon="1.4209170">
        <ele>181.8</ele>
        <time>2020-02-22T13:26:24Z</time>
      </trkpt>
      <trkpt lat="39.0769490" lon="1.4209510">
        <ele>181.3</ele>
        <time>2020-02-22T13:26:25Z</time>
      </trkpt>
      <trkpt lat="39.0769400" lon="1.4209910">
        <ele>180.7</ele>
        <time>2020-02-22T13:26:26Z</time>
      </trkpt>
      <trkpt lat="39.0769430" lon="1.4210070">
        <ele>180.5</ele>
        <time>2020-02-22T13:26:27Z</time>
      </trkpt>
      <trkpt lat="39.0769620" lon="1.4210320">
        <ele>180.0</ele>
        <time>2020-02-22T13:26:28Z</time>
      </trkpt>
      <trkpt lat="39.0769740" lon="1.4210380">
        <ele>179.7</ele>
        <time>2020-02-22T13:26:29Z</time>
      </trkpt>
      <trkpt lat="39.0769870" lon="1.4210450">
        <ele>179.5</ele>
        <time>2020-02-22T13:26:30Z</time>
      </trkpt>
      <trkpt lat="39.0770230" lon="1.4210350">
        <ele>178.8</ele>
        <time>2020-02-22T13:26:31Z</time>
      </trkpt>
      <trkpt lat="39.0770590" lon="1.4210150">
        <ele>178.2</ele>
        <time>2020-02-22T13:26:32Z</time>
      </trkpt>
      <trkpt lat="39.0770940" lon="1.4209930">
        <ele>177.6</ele>
        <time>2020-02-22T13:26:33Z</time>
      </trkpt>
      <trkpt lat="39.0771290" lon="1.4209720">
        <ele>177.1</ele>
        <time>2020-02-22T13:26:34Z</time>
      </trkpt>
      <trkpt lat="39.0771790" lon="1.4209470">
        <ele>176.5</ele>
        <time>2020-02-22T13:26:35Z</time>
      </trkpt>
      <trkpt lat="39.0772310" lon="1.4209260">
        <ele>175.8</ele>
        <time>2020-02-22T13:26:36Z</time>
      </trkpt>
      <trkpt lat="39.0772880" lon="1.4208970">
        <ele>175.0</ele>
        <time>2020-02-22T13:26:37Z</time>
      </trkpt>
      <trkpt lat="39.0773390" lon="1.4208780">
        <ele>174.5</ele>
        <time>2020-02-22T13:26:38Z</time>
      </trkpt>
      <trkpt lat="39.0774150" lon="1.4208530">
        <ele>173.8</ele>
        <time>2020-02-22T13:26:39Z</time>
      </trkpt>
      <trkpt lat="39.0774770" lon="1.4208280">
        <ele>173.3</ele>
        <time>2020-02-22T13:26:40Z</time>
      </trkpt>
      <trkpt lat="39.0775350" lon="1.4208130">
        <ele>172.8</ele>
        <time>2020-02-22T13:26:41Z</time>
      </trkpt>
      <trkpt lat="39.0775850" lon="1.4207960">
        <ele>172.4</ele>
        <time>2020-02-22T13:26:42Z</time>
      </trkpt>
      <trkpt lat="39.0776270" lon="1.4207870">
        <ele>172.0</ele>
        <time>2020-02-22T13:26:43Z</time>
      </trkpt>
      <trkpt lat="39.0776680" lon="1.4207740">
        <ele>171.7</ele>
        <time>2020-02-22T13:26:44Z</time>
      </trkpt>
      <trkpt lat="39.0777030" lon="1.4207670">
        <ele>171.4</ele>
        <time>2020-02-22T13:26:45Z</time>
      </trkpt>
      <trkpt lat="39.0777390" lon="1.4207690">
        <ele>171.1</ele>
        <time>2020-02-22T13:26:46Z</time>
      </trkpt>
      <trkpt lat="39.0777710" lon="1.4207690">
        <ele>170.7</ele>
        <time>2020-02-22T13:26:47Z</time>
      </trkpt>
      <trkpt lat="39.0777780" lon="1.4207700">
        <ele>170.6</ele>
        <time>2020-02-22T13:26:48Z</time>
      </trkpt>
      <trkpt lat="39.0777880" lon="1.4207770">
        <ele>170.5</ele>
        <time>2020-02-22T13:26:49Z</time>
      </trkpt>
      <trkpt lat="39.0777870" lon="1.4207870">
        <ele>170.4</ele>
        <time>2020-02-22T13:26:50Z</time>
      </trkpt>
      <trkpt lat="39.0777910" lon="1.4207880">
        <ele>170.4</ele>
        <time>2020-02-22T13:26:51Z</time>
      </trkpt>
      <trkpt lat="39.0777970" lon="1.4207820">
        <ele>170.3</ele>
        <time>2020-02-22T13:26:52Z</time>
      </trkpt>
      <trkpt lat="39.0777990" lon="1.4207740">
        <ele>170.2</ele>
        <time>2020-02-22T13:26:53Z</time>
      </trkpt>
      <trkpt lat="39.0778020" lon="1.4207690">
        <ele>170.2</ele>
        <time>2020-02-22T13:26:54Z</time>
      </trkpt>
      <trkpt lat="39.0777960" lon="1.4207560">
        <ele>170.0</ele>
        <time>2020-02-22T13:26:55Z</time>
      </trkpt>
      <trkpt lat="39.0777980" lon="1.4207670">
        <ele>169.9</ele>
        <time>2020-02-22T13:26:56Z</time>
      </trkpt>
      <trkpt lat="39.0778030" lon="1.4207680">
        <ele>169.9</ele>
        <time>2020-02-22T13:26:57Z</time>
      </trkpt>
      <trkpt lat="39.0778090" lon="1.4207780">
        <ele>169.8</ele>
        <time>2020-02-22T13:26:58Z</time>
      </trkpt>
      <trkpt lat="39.0778190" lon="1.4208250">
        <ele>169.3</ele>
        <time>2020-02-22T13:26:59Z</time>
      </trkpt>
      <trkpt lat="39.0778250" lon="1.4208480">
        <ele>169.1</ele>
        <time>2020-02-22T13:27:00Z</time>
      </trkpt>
      <trkpt lat="39.0778330" lon="1.4208970">
        <ele>168.7</ele>
        <time>2020-02-22T13:27:01Z</time>
      </trkpt>
      <trkpt lat="39.0778450" lon="1.4209630">
        <ele>168.2</ele>
        <time>2020-02-22T13:27:02Z</time>
      </trkpt>
      <trkpt lat="39.0778560" lon="1.4210310">
        <ele>167.7</ele>
        <time>2020-02-22T13:27:03Z</time>
      </trkpt>
      <trkpt lat="39.0778680" lon="1.4211040">
        <ele>167.2</ele>
        <time>2020-02-22T13:27:04Z</time>
      </trkpt>
      <trkpt lat="39.0778820" lon="1.4211730">
        <ele>166.7</ele>
        <time>2020-02-22T13:27:05Z</time>
      </trkpt>
      <trkpt lat="39.0778960" lon="1.4212510">
        <ele>166.0</ele>
        <time>2020-02-22T13:27:06Z</time>
      </trkpt>
      <trkpt lat="39.0779160" lon="1.4213300">
        <ele>165.3</ele>
        <time>2020-02-22T13:27:07Z</time>
      </trkpt>
      <trkpt lat="39.0779500" lon="1.4213900">
        <ele>164.7</ele>
        <time>2020-02-22T13:27:08Z</time>
      </trkpt>
      <trkpt lat="39.0779910" lon="1.4214430">
        <ele>164.0</ele>
        <time>2020-02-22T13:27:09Z</time>
      </trkpt>
      <trkpt lat="39.0780480" lon="1.4214700">
        <ele>163.4</ele>
        <time>2020-02-22T13:27:10Z</time>
      </trkpt>
      <trkpt lat="39.0780980" lon="1.4214910">
        <ele>163.0</ele>
        <time>2020-02-22T13:27:11Z</time>
      </trkpt>
      <trkpt lat="39.0781450" lon="1.4215160">
        <ele>162.5</ele>
        <time>2020-02-22T13:27:12Z</time>
      </trkpt>
      <trkpt lat="39.0781850" lon="1.4215410">
        <ele>162.2</ele>
        <time>2020-02-22T13:27:13Z</time>
      </trkpt>
      <trkpt lat="39.0782160" lon="1.4215550">
        <ele>161.9</ele>
        <time>2020-02-22T13:27:14Z</time>
      </trkpt>
      <trkpt lat="39.0782410" lon="1.4215690">
        <ele>161.7</ele>
        <time>2020-02-22T13:27:15Z</time>
      </trkpt>
      <trkpt lat="39.0782770" lon="1.4215820">
        <ele>161.5</ele>
        <time>2020-02-22T13:27:16Z</time>
      </trkpt>
      <trkpt lat="39.0782880" lon="1.4215870">
        <ele>161.4</ele>
        <time>2020-02-22T13:27:17Z</time>
      </trkpt>
      <trkpt lat="39.0783230" lon="1.4216080">
        <ele>161.1</ele>
        <time>2020-02-22T13:27:18Z</time>
      </trkpt>
      <trkpt lat="39.0783380" lon="1.4216180">
        <ele>161.0</ele>
        <time>2020-02-22T13:27:19Z</time>
      </trkpt>
      <trkpt lat="39.0783660" lon="1.4216240">
        <ele>160.7</ele>
        <time>2020-02-22T13:27:20Z</time>
      </trkpt>
      <trkpt lat="39.0783960" lon="1.4216390">
        <ele>160.5</ele>
        <time>2020-02-22T13:27:21Z</time>
      </trkpt>
      <trkpt lat="39.0784130" lon="1.4216830">
        <ele>160.1</ele>
        <time>2020-02-22T13:27:22Z</time>
      </trkpt>
      <trkpt lat="39.0784120" lon="1.4217310">
        <ele>159.7</ele>
        <time>2020-02-22T13:27:23Z</time>
      </trkpt>
      <trkpt lat="39.0784230" lon="1.4217960">
        <ele>159.1</ele>
        <time>2020-02-22T13:27:24Z</time>
      </trkpt>
      <trkpt lat="39.0784320" lon="1.4218550">
        <ele>156.5</ele>
        <time>2020-02-22T13:27:25Z</time>
      </trkpt>
      <trkpt lat="39.0784410" lon="1.4219070">
        <ele>156.3</ele>
        <time>2020-02-22T13:27:26Z</time>
      </trkpt>
      <trkpt lat="39.0784460" lon="1.4219590">
        <ele>156.2</ele>
        <time>2020-02-22T13:27:27Z</time>
      </trkpt>
      <trkpt lat="39.0784520" lon="1.4220060">
        <ele>156.0</ele>
        <time>2020-02-22T13:27:28Z</time>
      </trkpt>
      <trkpt lat="39.0784560" lon="1.4220590">
        <ele>155.8</ele>
        <time>2020-02-22T13:27:29Z</time>
      </trkpt>
      <trkpt lat="39.0784570" lon="1.4221080">
        <ele>155.6</ele>
        <time>2020-02-22T13:27:30Z</time>
      </trkpt>
      <trkpt lat="39.0784570" lon="1.4221530">
        <ele>155.5</ele>
        <time>2020-02-22T13:27:31Z</time>
      </trkpt>
      <trkpt lat="39.0784560" lon="1.4222000">
        <ele>155.3</ele>
        <time>2020-02-22T13:27:32Z</time>
      </trkpt>
      <trkpt lat="39.0784610" lon="1.4222820">
        <ele>155.0</ele>
        <time>2020-02-22T13:27:33Z</time>
      </trkpt>
      <trkpt lat="39.0784640" lon="1.4223350">
        <ele>154.7</ele>
        <time>2020-02-22T13:27:34Z</time>
      </trkpt>
      <trkpt lat="39.0784770" lon="1.4223780">
        <ele>154.5</ele>
        <time>2020-02-22T13:27:35Z</time>
      </trkpt>
      <trkpt lat="39.0784900" lon="1.4224200">
        <ele>154.2</ele>
        <time>2020-02-22T13:27:36Z</time>
      </trkpt>
      <trkpt lat="39.0785100" lon="1.4224630">
        <ele>153.9</ele>
        <time>2020-02-22T13:27:37Z</time>
      </trkpt>
      <trkpt lat="39.0785180" lon="1.4225120">
        <ele>153.6</ele>
        <time>2020-02-22T13:27:38Z</time>
      </trkpt>
      <trkpt lat="39.0785270" lon="1.4225620">
        <ele>153.2</ele>
        <time>2020-02-22T13:27:39Z</time>
      </trkpt>
      <trkpt lat="39.0785340" lon="1.4226160">
        <ele>152.8</ele>
        <time>2020-02-22T13:27:40Z</time>
      </trkpt>
      <trkpt lat="39.0785420" lon="1.4226790">
        <ele>152.1</ele>
        <time>2020-02-22T13:27:41Z</time>
      </trkpt>
      <trkpt lat="39.0785530" lon="1.4227440">
        <ele>151.3</ele>
        <time>2020-02-22T13:27:42Z</time>
      </trkpt>
      <trkpt lat="39.0785560" lon="1.4228040">
        <ele>150.5</ele>
        <time>2020-02-22T13:27:43Z</time>
      </trkpt>
      <trkpt lat="39.0785630" lon="1.4228740">
        <ele>149.6</ele>
        <time>2020-02-22T13:27:44Z</time>
      </trkpt>
      <trkpt lat="39.0785750" lon="1.4229430">
        <ele>148.6</ele>
        <time>2020-02-22T13:27:45Z</time>
      </trkpt>
      <trkpt lat="39.0785820" lon="1.4230020">
        <ele>147.9</ele>
        <time>2020-02-22T13:27:46Z</time>
      </trkpt>
      <trkpt lat="39.0785910" lon="1.4230690">
        <ele>147.1</ele>
        <time>2020-02-22T13:27:47Z</time>
      </trkpt>
      <trkpt lat="39.0786060" lon="1.4231380">
        <ele>145.9</ele>
        <time>2020-02-22T13:27:48Z</time>
      </trkpt>
      <trkpt lat="39.0786160" lon="1.4232060">
        <ele>144.9</ele>
        <time>2020-02-22T13:27:49Z</time>
      </trkpt>
      <trkpt lat="39.0786300" lon="1.4232840">
        <ele>143.6</ele>
        <time>2020-02-22T13:27:50Z</time>
      </trkpt>
      <trkpt lat="39.0786440" lon="1.4233700">
        <ele>142.4</ele>
        <time>2020-02-22T13:27:51Z</time>
      </trkpt>
      <trkpt lat="39.0786580" lon="1.4234630">
        <ele>141.2</ele>
        <time>2020-02-22T13:27:52Z</time>
      </trkpt>
      <trkpt lat="39.0786720" lon="1.4235670">
        <ele>140.0</ele>
        <time>2020-02-22T13:27:53Z</time>
      </trkpt>
      <trkpt lat="39.0786910" lon="1.4236770">
        <ele>138.4</ele>
        <time>2020-02-22T13:27:54Z</time>
      </trkpt>
      <trkpt lat="39.0787080" lon="1.4237780">
        <ele>137.3</ele>
        <time>2020-02-22T13:27:55Z</time>
      </trkpt>
      <trkpt lat="39.0787250" lon="1.4239130">
        <ele>135.2</ele>
        <time>2020-02-22T13:27:56Z</time>
      </trkpt>
      <trkpt lat="39.0787340" lon="1.4240220">
        <ele>133.9</ele>
        <time>2020-02-22T13:27:57Z</time>
      </trkpt>
      <trkpt lat="39.0787500" lon="1.4241120">
        <ele>132.9</ele>
        <time>2020-02-22T13:27:58Z</time>
      </trkpt>
      <trkpt lat="39.0787600" lon="1.4242030">
        <ele>131.9</ele>
        <time>2020-02-22T13:27:59Z</time>
      </trkpt>
      <trkpt lat="39.0787750" lon="1.4242720">
        <ele>131.1</ele>
        <time>2020-02-22T13:28:00Z</time>
      </trkpt>
      <trkpt lat="39.0787880" lon="1.4243540">
        <ele>130.2</ele>
        <time>2020-02-22T13:28:01Z</time>
      </trkpt>
      <trkpt lat="39.0787910" lon="1.4244290">
        <ele>129.5</ele>
        <time>2020-02-22T13:28:02Z</time>
      </trkpt>
      <trkpt lat="39.0787850" lon="1.4244950">
        <ele>128.7</ele>
        <time>2020-02-22T13:28:03Z</time>
      </trkpt>
      <trkpt lat="39.0787340" lon="1.4245280">
        <ele>127.8</ele>
        <time>2020-02-22T13:28:04Z</time>
      </trkpt>
      <trkpt lat="39.0786650" lon="1.4245470">
        <ele>126.7</ele>
        <time>2020-02-22T13:28:05Z</time>
      </trkpt>
      <trkpt lat="39.0785870" lon="1.4245580">
        <ele>125.5</ele>
        <time>2020-02-22T13:28:06Z</time>
      </trkpt>
      <trkpt lat="39.0785030" lon="1.4245560">
        <ele>124.0</ele>
        <time>2020-02-22T13:28:07Z</time>
      </trkpt>
      <trkpt lat="39.0784180" lon="1.4245560">
        <ele>122.5</ele>
        <time>2020-02-22T13:28:08Z</time>
      </trkpt>
      <trkpt lat="39.0783320" lon="1.4245590">
        <ele>121.1</ele>
        <time>2020-02-22T13:28:09Z</time>
      </trkpt>
      <trkpt lat="39.0782520" lon="1.4245650">
        <ele>119.9</ele>
        <time>2020-02-22T13:28:10Z</time>
      </trkpt>
      <trkpt lat="39.0781780" lon="1.4245550">
        <ele>118.9</ele>
        <time>2020-02-22T13:28:11Z</time>
      </trkpt>
      <trkpt lat="39.0781050" lon="1.4245360">
        <ele>117.9</ele>
        <time>2020-02-22T13:28:12Z</time>
      </trkpt>
      <trkpt lat="39.0780360" lon="1.4244930">
        <ele>117.0</ele>
        <time>2020-02-22T13:28:13Z</time>
      </trkpt>
      <trkpt lat="39.0779570" lon="1.4244380">
        <ele>116.0</ele>
        <time>2020-02-22T13:28:14Z</time>
      </trkpt>
      <trkpt lat="39.0778810" lon="1.4243810">
        <ele>115.0</ele>
        <time>2020-02-22T13:28:15Z</time>
      </trkpt>
      <trkpt lat="39.0777950" lon="1.4243260">
        <ele>113.7</ele>
        <time>2020-02-22T13:28:16Z</time>
      </trkpt>
      <trkpt lat="39.0777180" lon="1.4242920">
        <ele>112.5</ele>
        <time>2020-02-22T13:28:17Z</time>
      </trkpt>
      <trkpt lat="39.0776530" lon="1.4242510">
        <ele>111.3</ele>
        <time>2020-02-22T13:28:18Z</time>
      </trkpt>
      <trkpt lat="39.0775920" lon="1.4242430">
        <ele>110.1</ele>
        <time>2020-02-22T13:28:19Z</time>
      </trkpt>
      <trkpt lat="39.0775100" lon="1.4242810">
        <ele>108.6</ele>
        <time>2020-02-22T13:28:20Z</time>
      </trkpt>
      <trkpt lat="39.0774900" lon="1.4243050">
        <ele>108.2</ele>
        <time>2020-02-22T13:28:21Z</time>
      </trkpt>
      <trkpt lat="39.0774690" lon="1.4243280">
        <ele>107.8</ele>
        <time>2020-02-22T13:28:22Z</time>
      </trkpt>
      <trkpt lat="39.0774890" lon="1.4244150">
        <ele>107.0</ele>
        <time>2020-02-22T13:28:23Z</time>
      </trkpt>
      <trkpt lat="39.0775220" lon="1.4245020">
        <ele>106.5</ele>
        <time>2020-02-22T13:28:24Z</time>
      </trkpt>
      <trkpt lat="39.0775590" lon="1.4245820">
        <ele>106.0</ele>
        <time>2020-02-22T13:28:25Z</time>
      </trkpt>
      <trkpt lat="39.0776020" lon="1.4246610">
        <ele>105.6</ele>
        <time>2020-02-22T13:28:26Z</time>
      </trkpt>
      <trkpt lat="39.0776450" lon="1.4247370">
        <ele>105.2</ele>
        <time>2020-02-22T13:28:27Z</time>
      </trkpt>
      <trkpt lat="39.0776660" lon="1.4248190">
        <ele>104.8</ele>
        <time>2020-02-22T13:28:28Z</time>
      </trkpt>
      <trkpt lat="39.0776830" lon="1.4249110">
        <ele>104.4</ele>
        <time>2020-02-22T13:28:29Z</time>
      </trkpt>
      <trkpt lat="39.0777020" lon="1.4250000">
        <ele>104.1</ele>
        <time>2020-02-22T13:28:30Z</time>
      </trkpt>
      <trkpt lat="39.0777190" lon="1.4251030">
        <ele>103.6</ele>
        <time>2020-02-22T13:28:31Z</time>
      </trkpt>
      <trkpt lat="39.0777420" lon="1.4252080">
        <ele>103.2</ele>
        <time>2020-02-22T13:28:32Z</time>
      </trkpt>
      <trkpt lat="39.0777690" lon="1.4253150">
        <ele>102.9</ele>
        <time>2020-02-22T13:28:33Z</time>
      </trkpt>
      <trkpt lat="39.0777970" lon="1.4254180">
        <ele>102.6</ele>
        <time>2020-02-22T13:28:34Z</time>
      </trkpt>
      <trkpt lat="39.0778350" lon="1.4255140">
        <ele>102.3</ele>
        <time>2020-02-22T13:28:35Z</time>
      </trkpt>
      <trkpt lat="39.0778640" lon="1.4256110">
        <ele>102.1</ele>
        <time>2020-02-22T13:28:36Z</time>
      </trkpt>
      <trkpt lat="39.0778800" lon="1.4257050">
        <ele>101.8</ele>
        <time>2020-02-22T13:28:37Z</time>
      </trkpt>
      <trkpt lat="39.0778920" lon="1.4258030">
        <ele>101.6</ele>
        <time>2020-02-22T13:28:38Z</time>
      </trkpt>
      <trkpt lat="39.0778810" lon="1.4259000">
        <ele>101.4</ele>
        <time>2020-02-22T13:28:39Z</time>
      </trkpt>
      <trkpt lat="39.0778680" lon="1.4259900">
        <ele>101.2</ele>
        <time>2020-02-22T13:28:40Z</time>
      </trkpt>
      <trkpt lat="39.0778600" lon="1.4260860">
        <ele>101.0</ele>
        <time>2020-02-22T13:28:41Z</time>
      </trkpt>
      <trkpt lat="39.0778690" lon="1.4261910">
        <ele>100.7</ele>
        <time>2020-02-22T13:28:42Z</time>
      </trkpt>
      <trkpt lat="39.0778980" lon="1.4262960">
        <ele>100.4</ele>
        <time>2020-02-22T13:28:43Z</time>
      </trkpt>
      <trkpt lat="39.0779220" lon="1.4264030">
        <ele>100.0</ele>
        <time>2020-02-22T13:28:44Z</time>
      </trkpt>
      <trkpt lat="39.0779600" lon="1.4265150">
        <ele>99.4</ele>
        <time>2020-02-22T13:28:45Z</time>
      </trkpt>
      <trkpt lat="39.0780180" lon="1.4266120">
        <ele>98.7</ele>
        <time>2020-02-22T13:28:46Z</time>
      </trkpt>
      <trkpt lat="39.0780760" lon="1.4267100">
        <ele>97.8</ele>
        <time>2020-02-22T13:28:47Z</time>
      </trkpt>
      <trkpt lat="39.0781350" lon="1.4268010">
        <ele>96.9</ele>
        <time>2020-02-22T13:28:48Z</time>
      </trkpt>
      <trkpt lat="39.0781910" lon="1.4268860">
        <ele>96.0</ele>
        <time>2020-02-22T13:28:49Z</time>
      </trkpt>
      <trkpt lat="39.0782500" lon="1.4269550">
        <ele>94.9</ele>
        <time>2020-02-22T13:28:50Z</time>
      </trkpt>
      <trkpt lat="39.0783170" lon="1.4270210">
        <ele>93.7</ele>
        <time>2020-02-22T13:28:51Z</time>
      </trkpt>
      <trkpt lat="39.0783460" lon="1.4271020">
        <ele>92.9</ele>
        <time>2020-02-22T13:28:52Z</time>
      </trkpt>
      <trkpt lat="39.0783550" lon="1.4271920">
        <ele>92.1</ele>
        <time>2020-02-22T13:28:53Z</time>
      </trkpt>
      <trkpt lat="39.0783370" lon="1.4272900">
        <ele>91.1</ele>
        <time>2020-02-22T13:28:54Z</time>
      </trkpt>
      <trkpt lat="39.0783000" lon="1.4273920">
        <ele>89.9</ele>
        <time>2020-02-22T13:28:55Z</time>
      </trkpt>
      <trkpt lat="39.0782550" lon="1.4274910">
        <ele>88.6</ele>
        <time>2020-02-22T13:28:56Z</time>
      </trkpt>
      <trkpt lat="39.0782180" lon="1.4275910">
        <ele>87.5</ele>
        <time>2020-02-22T13:28:57Z</time>
      </trkpt>
      <trkpt lat="39.0781780" lon="1.4276890">
        <ele>86.4</ele>
        <time>2020-02-22T13:28:58Z</time>
      </trkpt>
      <trkpt lat="39.0781230" lon="1.4277880">
        <ele>85.0</ele>
        <time>2020-02-22T13:28:59Z</time>
      </trkpt>
      <trkpt lat="39.0780910" lon="1.4279100">
        <ele>83.5</ele>
        <time>2020-02-22T13:29:00Z</time>
      </trkpt>
      <trkpt lat="39.0780650" lon="1.4280400">
        <ele>81.8</ele>
        <time>2020-02-22T13:29:01Z</time>
      </trkpt>
      <trkpt lat="39.0780310" lon="1.4281670">
        <ele>80.3</ele>
        <time>2020-02-22T13:29:02Z</time>
      </trkpt>
      <trkpt lat="39.0779970" lon="1.4282900">
        <ele>78.8</ele>
        <time>2020-02-22T13:29:03Z</time>
      </trkpt>
      <trkpt lat="39.0779580" lon="1.4284000">
        <ele>77.6</ele>
        <time>2020-02-22T13:29:04Z</time>
      </trkpt>
      <trkpt lat="39.0779150" lon="1.4285010">
        <ele>76.6</ele>
        <time>2020-02-22T13:29:05Z</time>
      </trkpt>
      <trkpt lat="39.0778670" lon="1.4286000">
        <ele>75.6</ele>
        <time>2020-02-22T13:29:06Z</time>
      </trkpt>
      <trkpt lat="39.0778320" lon="1.4287120">
        <ele>74.5</ele>
        <time>2020-02-22T13:29:07Z</time>
      </trkpt>
      <trkpt lat="39.0778020" lon="1.4288360">
        <ele>73.6</ele>
        <time>2020-02-22T13:29:08Z</time>
      </trkpt>
      <trkpt lat="39.0777750" lon="1.4289750">
        <ele>72.5</ele>
        <time>2020-02-22T13:29:09Z</time>
      </trkpt>
      <trkpt lat="39.0777420" lon="1.4291220">
        <ele>71.5</ele>
        <time>2020-02-22T13:29:10Z</time>
      </trkpt>
      <trkpt lat="39.0777010" lon="1.4292670">
        <ele>70.1</ele>
        <time>2020-02-22T13:29:12Z</time>
      </trkpt>
      <trkpt lat="39.0776550" lon="1.4294080">
        <ele>68.6</ele>
        <time>2020-02-22T13:29:13Z</time>
      </trkpt>
      <trkpt lat="39.0776030" lon="1.4295420">
        <ele>67.1</ele>
        <time>2020-02-22T13:29:14Z</time>
      </trkpt>
      <trkpt lat="39.0775320" lon="1.4296650">
        <ele>65.6</ele>
        <time>2020-02-22T13:29:15Z</time>
      </trkpt>
      <trkpt lat="39.0774700" lon="1.4297940">
        <ele>64.5</ele>
        <time>2020-02-22T13:29:16Z</time>
      </trkpt>
      <trkpt lat="39.0774220" lon="1.4299300">
        <ele>63.5</ele>
        <time>2020-02-22T13:29:17Z</time>
      </trkpt>
      <trkpt lat="39.0773780" lon="1.4300760">
        <ele>62.6</ele>
        <time>2020-02-22T13:29:18Z</time>
      </trkpt>
      <trkpt lat="39.0773500" lon="1.4302360">
        <ele>61.7</ele>
        <time>2020-02-22T13:29:19Z</time>
      </trkpt>
      <trkpt lat="39.0773440" lon="1.4304000">
        <ele>60.9</ele>
        <time>2020-02-22T13:29:20Z</time>
      </trkpt>
      <trkpt lat="39.0773570" lon="1.4305570">
        <ele>60.0</ele>
        <time>2020-02-22T13:29:21Z</time>
      </trkpt>
      <trkpt lat="39.0773700" lon="1.4307060">
        <ele>58.9</ele>
        <time>2020-02-22T13:29:22Z</time>
      </trkpt>
      <trkpt lat="39.0773880" lon="1.4308430">
        <ele>57.9</ele>
        <time>2020-02-22T13:29:23Z</time>
      </trkpt>
      <trkpt lat="39.0774070" lon="1.4309830">
        <ele>57.1</ele>
        <time>2020-02-22T13:29:24Z</time>
      </trkpt>
      <trkpt lat="39.0774310" lon="1.4311190">
        <ele>56.5</ele>
        <time>2020-02-22T13:29:25Z</time>
      </trkpt>
      <trkpt lat="39.0774640" lon="1.4312430">
        <ele>55.9</ele>
        <time>2020-02-22T13:29:26Z</time>
      </trkpt>
      <trkpt lat="39.0775180" lon="1.4313480">
        <ele>55.5</ele>
        <time>2020-02-22T13:29:27Z</time>
      </trkpt>
      <trkpt lat="39.0775760" lon="1.4314560">
        <ele>55.2</ele>
        <time>2020-02-22T13:29:28Z</time>
      </trkpt>
      <trkpt lat="39.0776390" lon="1.4315640">
        <ele>54.9</ele>
        <time>2020-02-22T13:29:29Z</time>
      </trkpt>
      <trkpt lat="39.0777050" lon="1.4316690">
        <ele>54.5</ele>
        <time>2020-02-22T13:29:30Z</time>
      </trkpt>
      <trkpt lat="39.0777900" lon="1.4317540">
        <ele>54.1</ele>
        <time>2020-02-22T13:29:31Z</time>
      </trkpt>
      <trkpt lat="39.0778670" lon="1.4318330">
        <ele>53.7</ele>
        <time>2020-02-22T13:29:32Z</time>
      </trkpt>
      <trkpt lat="39.0779280" lon="1.4319280">
        <ele>53.3</ele>
        <time>2020-02-22T13:29:33Z</time>
      </trkpt>
      <trkpt lat="39.0779990" lon="1.4321680">
        <ele>51.9</ele>
        <time>2020-02-22T13:29:34Z</time>
      </trkpt>
      <trkpt lat="39.0780280" lon="1.4322820">
        <ele>51.0</ele>
        <time>2020-02-22T13:29:35Z</time>
      </trkpt>
      <trkpt lat="39.0780400" lon="1.4323990">
        <ele>50.2</ele>
        <time>2020-02-22T13:29:36Z</time>
      </trkpt>
      <trkpt lat="39.0780550" lon="1.4325180">
        <ele>49.2</ele>
        <time>2020-02-22T13:29:37Z</time>
      </trkpt>
      <trkpt lat="39.0780610" lon="1.4326500">
        <ele>48.0</ele>
        <time>2020-02-22T13:29:38Z</time>
      </trkpt>
      <trkpt lat="39.0780650" lon="1.4327820">
        <ele>46.7</ele>
        <time>2020-02-22T13:29:39Z</time>
      </trkpt>
      <trkpt lat="39.0780670" lon="1.4329080">
        <ele>45.5</ele>
        <time>2020-02-22T13:29:40Z</time>
      </trkpt>
      <trkpt lat="39.0780690" lon="1.4330280">
        <ele>44.6</ele>
        <time>2020-02-22T13:29:41Z</time>
      </trkpt>
      <trkpt lat="39.0780680" lon="1.4331440">
        <ele>43.7</ele>
        <time>2020-02-22T13:29:42Z</time>
      </trkpt>
      <trkpt lat="39.0780490" lon="1.4332530">
        <ele>42.6</ele>
        <time>2020-02-22T13:29:43Z</time>
      </trkpt>
      <trkpt lat="39.0780210" lon="1.4333500">
        <ele>41.5</ele>
        <time>2020-02-22T13:29:44Z</time>
      </trkpt>
      <trkpt lat="39.0779820" lon="1.4334340">
        <ele>40.6</ele>
        <time>2020-02-22T13:29:45Z</time>
      </trkpt>
      <trkpt lat="39.0779450" lon="1.4335150">
        <ele>39.6</ele>
        <time>2020-02-22T13:29:46Z</time>
      </trkpt>
      <trkpt lat="39.0778970" lon="1.4335960">
        <ele>39.0</ele>
        <time>2020-02-22T13:29:47Z</time>
      </trkpt>
      <trkpt lat="39.0778490" lon="1.4336820">
        <ele>38.5</ele>
        <time>2020-02-22T13:29:48Z</time>
      </trkpt>
      <trkpt lat="39.0777930" lon="1.4337600">
        <ele>38.0</ele>
        <time>2020-02-22T13:29:49Z</time>
      </trkpt>
      <trkpt lat="39.0777210" lon="1.4338300">
        <ele>37.6</ele>
        <time>2020-02-22T13:29:50Z</time>
      </trkpt>
      <trkpt lat="39.0776410" lon="1.4338940">
        <ele>37.1</ele>
        <time>2020-02-22T13:29:51Z</time>
      </trkpt>
      <trkpt lat="39.0775570" lon="1.4339600">
        <ele>36.6</ele>
        <time>2020-02-22T13:29:52Z</time>
      </trkpt>
      <trkpt lat="39.0774660" lon="1.4340130">
        <ele>36.1</ele>
        <time>2020-02-22T13:29:53Z</time>
      </trkpt>
      <trkpt lat="39.0773720" lon="1.4340430">
        <ele>35.5</ele>
        <time>2020-02-22T13:29:54Z</time>
      </trkpt>
      <trkpt lat="39.0772820" lon="1.4340710">
        <ele>35.0</ele>
        <time>2020-02-22T13:29:55Z</time>
      </trkpt>
      <trkpt lat="39.0771920" lon="1.4341180">
        <ele>34.4</ele>
        <time>2020-02-22T13:29:56Z</time>
      </trkpt>
      <trkpt lat="39.0770960" lon="1.4341620">
        <ele>33.9</ele>
        <time>2020-02-22T13:29:57Z</time>
      </trkpt>
      <trkpt lat="39.0770020" lon="1.4342110">
        <ele>33.5</ele>
        <time>2020-02-22T13:29:58Z</time>
      </trkpt>
      <trkpt lat="39.0769060" lon="1.4342640">
        <ele>33.0</ele>
        <time>2020-02-22T13:29:59Z</time>
      </trkpt>
      <trkpt lat="39.0768090" lon="1.4342880">
        <ele>32.6</ele>
        <time>2020-02-22T13:30:00Z</time>
      </trkpt>
      <trkpt lat="39.0767130" lon="1.4343000">
        <ele>32.2</ele>
        <time>2020-02-22T13:30:01Z</time>
      </trkpt>
      <trkpt lat="39.0766280" lon="1.4343410">
        <ele>31.8</ele>
        <time>2020-02-22T13:30:02Z</time>
      </trkpt>
      <trkpt lat="39.0765480" lon="1.4343810">
        <ele>31.5</ele>
        <time>2020-02-22T13:30:03Z</time>
      </trkpt>
      <trkpt lat="39.0764690" lon="1.4344170">
        <ele>31.2</ele>
        <time>2020-02-22T13:30:04Z</time>
      </trkpt>
      <trkpt lat="39.0763910" lon="1.4344630">
        <ele>30.9</ele>
        <time>2020-02-22T13:30:05Z</time>
      </trkpt>
      <trkpt lat="39.0763250" lon="1.4345290">
        <ele>30.7</ele>
        <time>2020-02-22T13:30:06Z</time>
      </trkpt>
      <trkpt lat="39.0762610" lon="1.4345880">
        <ele>30.6</ele>
        <time>2020-02-22T13:30:07Z</time>
      </trkpt>
      <trkpt lat="39.0762010" lon="1.4346450">
        <ele>30.4</ele>
        <time>2020-02-22T13:30:08Z</time>
      </trkpt>
      <trkpt lat="39.0761420" lon="1.4346980">
        <ele>30.2</ele>
        <time>2020-02-22T13:30:09Z</time>
      </trkpt>
      <trkpt lat="39.0760800" lon="1.4347390">
        <ele>30.1</ele>
        <time>2020-02-22T13:30:10Z</time>
      </trkpt>
      <trkpt lat="39.0760240" lon="1.4347890">
        <ele>29.9</ele>
        <time>2020-02-22T13:30:11Z</time>
      </trkpt>
      <trkpt lat="39.0759680" lon="1.4348370">
        <ele>29.8</ele>
        <time>2020-02-22T13:30:12Z</time>
      </trkpt>
      <trkpt lat="39.0759070" lon="1.4348690">
        <ele>29.6</ele>
        <time>2020-02-22T13:30:13Z</time>
      </trkpt>
      <trkpt lat="39.0758390" lon="1.4348820">
        <ele>29.5</ele>
        <time>2020-02-22T13:30:14Z</time>
      </trkpt>
      <trkpt lat="39.0757690" lon="1.4348940">
        <ele>29.3</ele>
        <time>2020-02-22T13:30:15Z</time>
      </trkpt>
      <trkpt lat="39.0756940" lon="1.4349040">
        <ele>29.1</ele>
        <time>2020-02-22T13:30:16Z</time>
      </trkpt>
      <trkpt lat="39.0756110" lon="1.4349170">
        <ele>28.9</ele>
        <time>2020-02-22T13:30:17Z</time>
      </trkpt>
      <trkpt lat="39.0755270" lon="1.4349270">
        <ele>28.8</ele>
        <time>2020-02-22T13:30:18Z</time>
      </trkpt>
      <trkpt lat="39.0754430" lon="1.4349410">
        <ele>28.7</ele>
        <time>2020-02-22T13:30:19Z</time>
      </trkpt>
      <trkpt lat="39.0753600" lon="1.4349680">
        <ele>28.6</ele>
        <time>2020-02-22T13:30:20Z</time>
      </trkpt>
      <trkpt lat="39.0752720" lon="1.4350000">
        <ele>28.4</ele>
        <time>2020-02-22T13:30:21Z</time>
      </trkpt>
      <trkpt lat="39.0751870" lon="1.4350360">
        <ele>28.3</ele>
        <time>2020-02-22T13:30:22Z</time>
      </trkpt>
      <trkpt lat="39.0750930" lon="1.4350880">
        <ele>28.1</ele>
        <time>2020-02-22T13:30:23Z</time>
      </trkpt>
      <trkpt lat="39.0749820" lon="1.4351370">
        <ele>27.8</ele>
        <time>2020-02-22T13:30:24Z</time>
      </trkpt>
      <trkpt lat="39.0748740" lon="1.4351550">
        <ele>27.5</ele>
        <time>2020-02-22T13:30:25Z</time>
      </trkpt>
      <trkpt lat="39.0747500" lon="1.4351340">
        <ele>26.9</ele>
        <time>2020-02-22T13:30:26Z</time>
      </trkpt>
      <trkpt lat="39.0746340" lon="1.4351160">
        <ele>26.5</ele>
        <time>2020-02-22T13:30:27Z</time>
      </trkpt>
      <trkpt lat="39.0745290" lon="1.4350910">
        <ele>26.1</ele>
        <time>2020-02-22T13:30:28Z</time>
      </trkpt>
      <trkpt lat="39.0744230" lon="1.4350620">
        <ele>25.7</ele>
        <time>2020-02-22T13:30:29Z</time>
      </trkpt>
      <trkpt lat="39.0743160" lon="1.4350300">
        <ele>25.5</ele>
        <time>2020-02-22T13:30:30Z</time>
      </trkpt>
      <trkpt lat="39.0742280" lon="1.4350020">
        <ele>25.2</ele>
        <time>2020-02-22T13:30:31Z</time>
      </trkpt>
      <trkpt lat="39.0741310" lon="1.4349960">
        <ele>25.0</ele>
        <time>2020-02-22T13:30:32Z</time>
      </trkpt>
      <trkpt lat="39.0740570" lon="1.4350040">
        <ele>24.9</ele>
        <time>2020-02-22T13:30:33Z</time>
      </trkpt>
      <trkpt lat="39.0740010" lon="1.4350150">
        <ele>24.7</ele>
        <time>2020-02-22T13:30:34Z</time>
      </trkpt>
      <trkpt lat="39.0739590" lon="1.4350630">
        <ele>24.8</ele>
        <time>2020-02-22T13:30:35Z</time>
      </trkpt>
      <trkpt lat="39.0739570" lon="1.4351460">
        <ele>25.0</ele>
        <time>2020-02-22T13:30:36Z</time>
      </trkpt>
      <trkpt lat="39.0739730" lon="1.4352310">
        <ele>25.0</ele>
        <time>2020-02-22T13:30:37Z</time>
      </trkpt>
      <trkpt lat="39.0739920" lon="1.4353120">
        <ele>25.1</ele>
        <time>2020-02-22T13:30:38Z</time>
      </trkpt>
      <trkpt lat="39.0740180" lon="1.4354040">
        <ele>25.1</ele>
        <time>2020-02-22T13:30:39Z</time>
      </trkpt>
      <trkpt lat="39.0740420" lon="1.4354810">
        <ele>25.1</ele>
        <time>2020-02-22T13:30:40Z</time>
      </trkpt>
      <trkpt lat="39.0740610" lon="1.4355400">
        <ele>25.1</ele>
        <time>2020-02-22T13:30:41Z</time>
      </trkpt>
      <trkpt lat="39.0740810" lon="1.4355920">
        <ele>25.1</ele>
        <time>2020-02-22T13:30:42Z</time>
      </trkpt>
      <trkpt lat="39.0741000" lon="1.4356510">
        <ele>25.1</ele>
        <time>2020-02-22T13:30:43Z</time>
      </trkpt>
      <trkpt lat="39.0741120" lon="1.4357120">
        <ele>25.1</ele>
        <time>2020-02-22T13:30:44Z</time>
      </trkpt>
      <trkpt lat="39.0741210" lon="1.4357590">
        <ele>25.1</ele>
        <time>2020-02-22T13:30:45Z</time>
      </trkpt>
      <trkpt lat="39.0741390" lon="1.4358190">
        <ele>25.1</ele>
        <time>2020-02-22T13:30:46Z</time>
      </trkpt>
      <trkpt lat="39.0741630" lon="1.4358730">
        <ele>25.1</ele>
        <time>2020-02-22T13:30:47Z</time>
      </trkpt>
      <trkpt lat="39.0741900" lon="1.4359350">
        <ele>25.0</ele>
        <time>2020-02-22T13:30:48Z</time>
      </trkpt>
      <trkpt lat="39.0742150" lon="1.4360030">
        <ele>24.9</ele>
        <time>2020-02-22T13:30:49Z</time>
      </trkpt>
      <trkpt lat="39.0742450" lon="1.4360760">
        <ele>24.8</ele>
        <time>2020-02-22T13:30:50Z</time>
      </trkpt>
      <trkpt lat="39.0742630" lon="1.4361390">
        <ele>24.7</ele>
        <time>2020-02-22T13:30:51Z</time>
      </trkpt>
      <trkpt lat="39.0742760" lon="1.4362150">
        <ele>24.6</ele>
        <time>2020-02-22T13:30:52Z</time>
      </trkpt>
      <trkpt lat="39.0742950" lon="1.4362860">
        <ele>24.4</ele>
        <time>2020-02-22T13:30:53Z</time>
      </trkpt>
      <trkpt lat="39.0743200" lon="1.4363540">
        <ele>24.3</ele>
        <time>2020-02-22T13:30:54Z</time>
      </trkpt>
      <trkpt lat="39.0743460" lon="1.4364200">
        <ele>24.1</ele>
        <time>2020-02-22T13:30:55Z</time>
      </trkpt>
      <trkpt lat="39.0743690" lon="1.4364880">
        <ele>23.9</ele>
        <time>2020-02-22T13:30:56Z</time>
      </trkpt>
      <trkpt lat="39.0744000" lon="1.4365540">
        <ele>23.7</ele>
        <time>2020-02-22T13:30:57Z</time>
      </trkpt>
      <trkpt lat="39.0744280" lon="1.4366220">
        <ele>23.4</ele>
        <time>2020-02-22T13:30:58Z</time>
      </trkpt>
      <trkpt lat="39.0744610" lon="1.4366880">
        <ele>23.1</ele>
        <time>2020-02-22T13:30:59Z</time>
      </trkpt>
      <trkpt lat="39.0744920" lon="1.4367560">
        <ele>22.8</ele>
        <time>2020-02-22T13:31:00Z</time>
      </trkpt>
      <trkpt lat="39.0745160" lon="1.4368250">
        <ele>22.5</ele>
        <time>2020-02-22T13:31:01Z</time>
      </trkpt>
      <trkpt lat="39.0745290" lon="1.4369020">
        <ele>22.3</ele>
        <time>2020-02-22T13:31:02Z</time>
      </trkpt>
      <trkpt lat="39.0745520" lon="1.4369720">
        <ele>22.0</ele>
        <time>2020-02-22T13:31:03Z</time>
      </trkpt>
      <trkpt lat="39.0745680" lon="1.4370400">
        <ele>21.7</ele>
        <time>2020-02-22T13:31:04Z</time>
      </trkpt>
      <trkpt lat="39.0745900" lon="1.4371070">
        <ele>21.5</ele>
        <time>2020-02-22T13:31:05Z</time>
      </trkpt>
      <trkpt lat="39.0746150" lon="1.4371800">
        <ele>21.2</ele>
        <time>2020-02-22T13:31:06Z</time>
      </trkpt>
      <trkpt lat="39.0746440" lon="1.4372550">
        <ele>20.9</ele>
        <time>2020-02-22T13:31:07Z</time>
      </trkpt>
      <trkpt lat="39.0746680" lon="1.4373330">
        <ele>20.7</ele>
        <time>2020-02-22T13:31:08Z</time>
      </trkpt>
      <trkpt lat="39.0746790" lon="1.4374170">
        <ele>20.5</ele>
        <time>2020-02-22T13:31:09Z</time>
      </trkpt>
      <trkpt lat="39.0746980" lon="1.4374980">
        <ele>20.3</ele>
        <time>2020-02-22T13:31:10Z</time>
      </trkpt>
      <trkpt lat="39.0747240" lon="1.4375810">
        <ele>20.2</ele>
        <time>2020-02-22T13:31:11Z</time>
      </trkpt>
      <trkpt lat="39.0747440" lon="1.4376660">
        <ele>20.0</ele>
        <time>2020-02-22T13:31:12Z</time>
      </trkpt>
      <trkpt lat="39.0747590" lon="1.4377520">
        <ele>19.9</ele>
        <time>2020-02-22T13:31:13Z</time>
      </trkpt>
      <trkpt lat="39.0747750" lon="1.4378370">
        <ele>19.8</ele>
        <time>2020-02-22T13:31:14Z</time>
      </trkpt>
      <trkpt lat="39.0747980" lon="1.4379230">
        <ele>19.7</ele>
        <time>2020-02-22T13:31:15Z</time>
      </trkpt>
      <trkpt lat="39.0748170" lon="1.4380100">
        <ele>19.5</ele>
        <time>2020-02-22T13:31:16Z</time>
      </trkpt>
      <trkpt lat="39.0748270" lon="1.4380990">
        <ele>19.3</ele>
        <time>2020-02-22T13:31:17Z</time>
      </trkpt>
      <trkpt lat="39.0748450" lon="1.4381860">
        <ele>19.1</ele>
        <time>2020-02-22T13:31:18Z</time>
      </trkpt>
      <trkpt lat="39.0748600" lon="1.4382640">
        <ele>18.9</ele>
        <time>2020-02-22T13:31:19Z</time>
      </trkpt>
      <trkpt lat="39.0748840" lon="1.4383340">
        <ele>18.6</ele>
        <time>2020-02-22T13:31:20Z</time>
      </trkpt>
      <trkpt lat="39.0749210" lon="1.4384010">
        <ele>18.2</ele>
        <time>2020-02-22T13:31:21Z</time>
      </trkpt>
      <trkpt lat="39.0749450" lon="1.4384800">
        <ele>17.9</ele>
        <time>2020-02-22T13:31:22Z</time>
      </trkpt>
      <trkpt lat="39.0749720" lon="1.4385600">
        <ele>17.7</ele>
        <time>2020-02-22T13:31:23Z</time>
      </trkpt>
      <trkpt lat="39.0750070" lon="1.4386310">
        <ele>17.4</ele>
        <time>2020-02-22T13:31:24Z</time>
      </trkpt>
      <trkpt lat="39.0750470" lon="1.4387060">
        <ele>17.2</ele>
        <time>2020-02-22T13:31:25Z</time>
      </trkpt>
      <trkpt lat="39.0750840" lon="1.4387920">
        <ele>17.0</ele>
        <time>2020-02-22T13:31:26Z</time>
      </trkpt>
      <trkpt lat="39.0751250" lon="1.4388670">
        <ele>16.9</ele>
        <time>2020-02-22T13:31:27Z</time>
      </trkpt>
      <trkpt lat="39.0751660" lon="1.4389430">
        <ele>16.8</ele>
        <time>2020-02-22T13:31:28Z</time>
      </trkpt>
      <trkpt lat="39.0752050" lon="1.4390120">
        <ele>16.8</ele>
        <time>2020-02-22T13:31:29Z</time>
      </trkpt>
      <trkpt lat="39.0752320" lon="1.4390860">
        <ele>16.8</ele>
        <time>2020-02-22T13:31:30Z</time>
      </trkpt>
      <trkpt lat="39.0752610" lon="1.4391580">
        <ele>16.7</ele>
        <time>2020-02-22T13:31:31Z</time>
      </trkpt>
      <trkpt lat="39.0752620" lon="1.4392320">
        <ele>16.7</ele>
        <time>2020-02-22T13:31:32Z</time>
      </trkpt>
      <trkpt lat="39.0752440" lon="1.4393040">
        <ele>16.7</ele>
        <time>2020-02-22T13:31:33Z</time>
      </trkpt>
      <trkpt lat="39.0752070" lon="1.4393690">
        <ele>16.6</ele>
        <time>2020-02-22T13:31:34Z</time>
      </trkpt>
      <trkpt lat="39.0751860" lon="1.4394350">
        <ele>16.5</ele>
        <time>2020-02-22T13:31:35Z</time>
      </trkpt>
      <trkpt lat="39.0751540" lon="1.4394930">
        <ele>16.4</ele>
        <time>2020-02-22T13:31:36Z</time>
      </trkpt>
      <trkpt lat="39.0751220" lon="1.4395570">
        <ele>16.3</ele>
        <time>2020-02-22T13:31:37Z</time>
      </trkpt>
      <trkpt lat="39.0750730" lon="1.4395970">
        <ele>16.2</ele>
        <time>2020-02-22T13:31:38Z</time>
      </trkpt>
      <trkpt lat="39.0750220" lon="1.4396370">
        <ele>16.1</ele>
        <time>2020-02-22T13:31:39Z</time>
      </trkpt>
      <trkpt lat="39.0749770" lon="1.4396800">
        <ele>16.0</ele>
        <time>2020-02-22T13:31:40Z</time>
      </trkpt>
      <trkpt lat="39.0749390" lon="1.4397220">
        <ele>16.0</ele>
        <time>2020-02-22T13:31:41Z</time>
      </trkpt>
      <trkpt lat="39.0748940" lon="1.4397600">
        <ele>15.9</ele>
        <time>2020-02-22T13:31:42Z</time>
      </trkpt>
      <trkpt lat="39.0748400" lon="1.4397860">
        <ele>15.8</ele>
        <time>2020-02-22T13:31:43Z</time>
      </trkpt>
      <trkpt lat="39.0747920" lon="1.4398290">
        <ele>15.7</ele>
        <time>2020-02-22T13:31:44Z</time>
      </trkpt>
      <trkpt lat="39.0747530" lon="1.4398840">
        <ele>15.7</ele>
        <time>2020-02-22T13:31:45Z</time>
      </trkpt>
      <trkpt lat="39.0747070" lon="1.4399240">
        <ele>15.5</ele>
        <time>2020-02-22T13:31:46Z</time>
      </trkpt>
      <trkpt lat="39.0746620" lon="1.4399630">
        <ele>15.3</ele>
        <time>2020-02-22T13:31:47Z</time>
      </trkpt>
      <trkpt lat="39.0746220" lon="1.4400050">
        <ele>15.1</ele>
        <time>2020-02-22T13:31:48Z</time>
      </trkpt>
      <trkpt lat="39.0745870" lon="1.4400570">
        <ele>14.8</ele>
        <time>2020-02-22T13:31:49Z</time>
      </trkpt>
      <trkpt lat="39.0745460" lon="1.4401070">
        <ele>14.5</ele>
        <time>2020-02-22T13:31:50Z</time>
      </trkpt>
      <trkpt lat="39.0745050" lon="1.4401480">
        <ele>14.1</ele>
        <time>2020-02-22T13:31:51Z</time>
      </trkpt>
      <trkpt lat="39.0744850" lon="1.4401930">
        <ele>13.8</ele>
        <time>2020-02-22T13:31:52Z</time>
      </trkpt>
      <trkpt lat="39.0744740" lon="1.4402260">
        <ele>13.7</ele>
        <time>2020-02-22T13:31:53Z</time>
      </trkpt>
      <trkpt lat="39.0744960" lon="1.4402630">
        <ele>13.5</ele>
        <time>2020-02-22T13:31:54Z</time>
      </trkpt>
      <trkpt lat="39.0745270" lon="1.4402940">
        <ele>12.7</ele>
        <time>2020-02-22T13:31:55Z</time>
      </trkpt>
      <trkpt lat="39.0745540" lon="1.4403340">
        <ele>12.4</ele>
        <time>2020-02-22T13:31:56Z</time>
      </trkpt>
      <trkpt lat="39.0745940" lon="1.4403680">
        <ele>12.1</ele>
        <time>2020-02-22T13:31:57Z</time>
      </trkpt>
      <trkpt lat="39.0746360" lon="1.4403790">
        <ele>11.9</ele>
        <time>2020-02-22T13:31:58Z</time>
      </trkpt>
      <trkpt lat="39.0746800" lon="1.4403940">
        <ele>11.6</ele>
        <time>2020-02-22T13:31:59Z</time>
      </trkpt>
      <trkpt lat="39.0747270" lon="1.4404080">
        <ele>11.4</ele>
        <time>2020-02-22T13:32:00Z</time>
      </trkpt>
      <trkpt lat="39.0747730" lon="1.4404280">
        <ele>11.1</ele>
        <time>2020-02-22T13:32:01Z</time>
      </trkpt>
      <trkpt lat="39.0748210" lon="1.4404380">
        <ele>10.9</ele>
        <time>2020-02-22T13:32:02Z</time>
      </trkpt>
      <trkpt lat="39.0748670" lon="1.4404620">
        <ele>10.6</ele>
        <time>2020-02-22T13:32:03Z</time>
      </trkpt>
      <trkpt lat="39.0749130" lon="1.4404900">
        <ele>10.3</ele>
        <time>2020-02-22T13:32:04Z</time>
      </trkpt>
      <trkpt lat="39.0749600" lon="1.4405170">
        <ele>10.1</ele>
        <time>2020-02-22T13:32:05Z</time>
      </trkpt>
      <trkpt lat="39.0750070" lon="1.4405410">
        <ele>9.8</ele>
        <time>2020-02-22T13:32:06Z</time>
      </trkpt>
      <trkpt lat="39.0750570" lon="1.4405600">
        <ele>9.6</ele>
        <time>2020-02-22T13:32:07Z</time>
      </trkpt>
      <trkpt lat="39.0751030" lon="1.4405860">
        <ele>9.3</ele>
        <time>2020-02-22T13:32:08Z</time>
      </trkpt>
      <trkpt lat="39.0751490" lon="1.4406080">
        <ele>9.1</ele>
        <time>2020-02-22T13:32:09Z</time>
      </trkpt>
      <trkpt lat="39.0751930" lon="1.4406290">
        <ele>8.9</ele>
        <time>2020-02-22T13:32:10Z</time>
      </trkpt>
      <trkpt lat="39.0752400" lon="1.4406360">
        <ele>8.6</ele>
        <time>2020-02-22T13:32:11Z</time>
      </trkpt>
      <trkpt lat="39.0752910" lon="1.4406260">
        <ele>8.4</ele>
        <time>2020-02-22T13:32:12Z</time>
      </trkpt>
      <trkpt lat="39.0753450" lon="1.4406140">
        <ele>8.2</ele>
        <time>2020-02-22T13:32:13Z</time>
      </trkpt>
      <trkpt lat="39.0753990" lon="1.4406010">
        <ele>7.9</ele>
        <time>2020-02-22T13:32:14Z</time>
      </trkpt>
      <trkpt lat="39.0754500" lon="1.4405900">
        <ele>7.7</ele>
        <time>2020-02-22T13:32:15Z</time>
      </trkpt>
      <trkpt lat="39.0754980" lon="1.4405820">
        <ele>7.5</ele>
        <time>2020-02-22T13:32:16Z</time>
      </trkpt>
      <trkpt lat="39.0755470" lon="1.4405630">
        <ele>7.3</ele>
        <time>2020-02-22T13:32:17Z</time>
      </trkpt>
      <trkpt lat="39.0756000" lon="1.4405640">
        <ele>7.1</ele>
        <time>2020-02-22T13:32:18Z</time>
      </trkpt>
      <trkpt lat="39.0756530" lon="1.4405530">
        <ele>6.9</ele>
        <time>2020-02-22T13:32:19Z</time>
      </trkpt>
      <trkpt lat="39.0757060" lon="1.4405400">
        <ele>6.6</ele>
        <time>2020-02-22T13:32:20Z</time>
      </trkpt>
      <trkpt lat="39.0757620" lon="1.4405310">
        <ele>6.3</ele>
        <time>2020-02-22T13:32:21Z</time>
      </trkpt>
      <trkpt lat="39.0758180" lon="1.4405210">
        <ele>6.0</ele>
        <time>2020-02-22T13:32:22Z</time>
      </trkpt>
      <trkpt lat="39.0758740" lon="1.4405190">
        <ele>5.8</ele>
        <time>2020-02-22T13:32:23Z</time>
      </trkpt>
      <trkpt lat="39.0759270" lon="1.4405020">
        <ele>5.6</ele>
        <time>2020-02-22T13:32:24Z</time>
      </trkpt>
      <trkpt lat="39.0759800" lon="1.4404890">
        <ele>5.4</ele>
        <time>2020-02-22T13:32:25Z</time>
      </trkpt>
      <trkpt lat="39.0760300" lon="1.4404680">
        <ele>5.2</ele>
        <time>2020-02-22T13:32:26Z</time>
      </trkpt>
      <trkpt lat="39.0760830" lon="1.4404650">
        <ele>4.9</ele>
        <time>2020-02-22T13:32:27Z</time>
      </trkpt>
      <trkpt lat="39.0761380" lon="1.4404710">
        <ele>4.7</ele>
        <time>2020-02-22T13:32:28Z</time>
      </trkpt>
      <trkpt lat="39.0761930" lon="1.4404660">
        <ele>4.5</ele>
        <time>2020-02-22T13:32:29Z</time>
      </trkpt>
      <trkpt lat="39.0762500" lon="1.4404670">
        <ele>4.2</ele>
        <time>2020-02-22T13:32:30Z</time>
      </trkpt>
      <trkpt lat="39.0763040" lon="1.4404530">
        <ele>4.0</ele>
        <time>2020-02-22T13:32:31Z</time>
      </trkpt>
      <trkpt lat="39.0763590" lon="1.4404390">
        <ele>3.8</ele>
        <time>2020-02-22T13:32:32Z</time>
      </trkpt>
      <trkpt lat="39.0764120" lon="1.4404310">
        <ele>3.4</ele>
        <time>2020-02-22T13:32:33Z</time>
      </trkpt>
      <trkpt lat="39.0764650" lon="1.4404270">
        <ele>3.3</ele>
        <time>2020-02-22T13:32:34Z</time>
      </trkpt>
      <trkpt lat="39.0765170" lon="1.4404190">
        <ele>3.2</ele>
        <time>2020-02-22T13:32:35Z</time>
      </trkpt>
      <trkpt lat="39.0765680" lon="1.4404130">
        <ele>3.1</ele>
        <time>2020-02-22T13:32:36Z</time>
      </trkpt>
      <trkpt lat="39.0766200" lon="1.4404010">
        <ele>3.0</ele>
        <time>2020-02-22T13:32:37Z</time>
      </trkpt>
      <trkpt lat="39.0766710" lon="1.4403870">
        <ele>2.9</ele>
        <time>2020-02-22T13:32:38Z</time>
      </trkpt>
      <trkpt lat="39.0767240" lon="1.4403770">
        <ele>2.9</ele>
        <time>2020-02-22T13:32:39Z</time>
      </trkpt>
      <trkpt lat="39.0767780" lon="1.4403710">
        <ele>2.8</ele>
        <time>2020-02-22T13:32:40Z</time>
      </trkpt>
      <trkpt lat="39.0768310" lon="1.4403590">
        <ele>2.8</ele>
        <time>2020-02-22T13:32:41Z</time>
      </trkpt>
      <trkpt lat="39.0768850" lon="1.4403450">
        <ele>2.8</ele>
        <time>2020-02-22T13:32:42Z</time>
      </trkpt>
      <trkpt lat="39.0769410" lon="1.4403360">
        <ele>2.8</ele>
        <time>2020-02-22T13:32:43Z</time>
      </trkpt>
      <trkpt lat="39.0769970" lon="1.4403340">
        <ele>2.8</ele>
        <time>2020-02-22T13:32:44Z</time>
      </trkpt>
      <trkpt lat="39.0770540" lon="1.4403350">
        <ele>2.8</ele>
        <time>2020-02-22T13:32:45Z</time>
      </trkpt>
      <trkpt lat="39.0771100" lon="1.4403410">
        <ele>2.8</ele>
        <time>2020-02-22T13:32:46Z</time>
      </trkpt>
      <trkpt lat="39.0771620" lon="1.4403320">
        <ele>2.8</ele>
        <time>2020-02-22T13:32:47Z</time>
      </trkpt>
      <trkpt lat="39.0772130" lon="1.4403160">
        <ele>2.9</ele>
        <time>2020-02-22T13:32:48Z</time>
      </trkpt>
      <trkpt lat="39.0772640" lon="1.4403010">
        <ele>2.9</ele>
        <time>2020-02-22T13:32:49Z</time>
      </trkpt>
      <trkpt lat="39.0773170" lon="1.4402830">
        <ele>2.9</ele>
        <time>2020-02-22T13:32:50Z</time>
      </trkpt>
      <trkpt lat="39.0773680" lon="1.4402660">
        <ele>2.9</ele>
        <time>2020-02-22T13:32:51Z</time>
      </trkpt>
      <trkpt lat="39.0774220" lon="1.4402500">
        <ele>2.8</ele>
        <time>2020-02-22T13:32:52Z</time>
      </trkpt>
      <trkpt lat="39.0774760" lon="1.4402410">
        <ele>2.8</ele>
        <time>2020-02-22T13:32:53Z</time>
      </trkpt>
      <trkpt lat="39.0775300" lon="1.4402270">
        <ele>2.8</ele>
        <time>2020-02-22T13:32:54Z</time>
      </trkpt>
      <trkpt lat="39.0775840" lon="1.4402160">
        <ele>2.8</ele>
        <time>2020-02-22T13:32:55Z</time>
      </trkpt>
      <trkpt lat="39.0776340" lon="1.4402160">
        <ele>2.8</ele>
        <time>2020-02-22T13:32:56Z</time>
      </trkpt>
      <trkpt lat="39.0776840" lon="1.4402030">
        <ele>2.8</ele>
        <time>2020-02-22T13:32:57Z</time>
      </trkpt>
      <trkpt lat="39.0777340" lon="1.4401960">
        <ele>2.7</ele>
        <time>2020-02-22T13:32:58Z</time>
      </trkpt>
      <trkpt lat="39.0777850" lon="1.4401780">
        <ele>2.7</ele>
        <time>2020-02-22T13:32:59Z</time>
      </trkpt>
      <trkpt lat="39.0778370" lon="1.4401780">
        <ele>2.7</ele>
        <time>2020-02-22T13:33:00Z</time>
      </trkpt>
      <trkpt lat="39.0778910" lon="1.4401690">
        <ele>2.7</ele>
        <time>2020-02-22T13:33:01Z</time>
      </trkpt>
      <trkpt lat="39.0779440" lon="1.4401570">
        <ele>2.7</ele>
        <time>2020-02-22T13:33:02Z</time>
      </trkpt>
      <trkpt lat="39.0779950" lon="1.4401470">
        <ele>2.7</ele>
        <time>2020-02-22T13:33:03Z</time>
      </trkpt>
      <trkpt lat="39.0780450" lon="1.4401390">
        <ele>2.6</ele>
        <time>2020-02-22T13:33:04Z</time>
      </trkpt>
      <trkpt lat="39.0780990" lon="1.4401370">
        <ele>2.6</ele>
        <time>2020-02-22T13:33:05Z</time>
      </trkpt>
      <trkpt lat="39.0781540" lon="1.4401480">
        <ele>2.6</ele>
        <time>2020-02-22T13:33:06Z</time>
      </trkpt>
      <trkpt lat="39.0782070" lon="1.4401470">
        <ele>2.8</ele>
        <time>2020-02-22T13:33:07Z</time>
      </trkpt>
      <trkpt lat="39.0782600" lon="1.4401560">
        <ele>3.0</ele>
        <time>2020-02-22T13:33:08Z</time>
      </trkpt>
      <trkpt lat="39.0783070" lon="1.4401400">
        <ele>3.3</ele>
        <time>2020-02-22T13:33:09Z</time>
      </trkpt>
      <trkpt lat="39.0783600" lon="1.4401320">
        <ele>3.5</ele>
        <time>2020-02-22T13:33:10Z</time>
      </trkpt>
      <trkpt lat="39.0784120" lon="1.4401280">
        <ele>3.8</ele>
        <time>2020-02-22T13:33:11Z</time>
      </trkpt>
      <trkpt lat="39.0784670" lon="1.4401140">
        <ele>4.1</ele>
        <time>2020-02-22T13:33:12Z</time>
      </trkpt>
      <trkpt lat="39.0785220" lon="1.4400980">
        <ele>4.3</ele>
        <time>2020-02-22T13:33:13Z</time>
      </trkpt>
      <trkpt lat="39.0785760" lon="1.4400880">
        <ele>4.6</ele>
        <time>2020-02-22T13:33:14Z</time>
      </trkpt>
      <trkpt lat="39.0786270" lon="1.4400810">
        <ele>4.9</ele>
        <time>2020-02-22T13:33:15Z</time>
      </trkpt>
      <trkpt lat="39.0786770" lon="1.4400710">
        <ele>5.1</ele>
        <time>2020-02-22T13:33:16Z</time>
      </trkpt>
      <trkpt lat="39.0787290" lon="1.4400570">
        <ele>5.4</ele>
        <time>2020-02-22T13:33:17Z</time>
      </trkpt>
      <trkpt lat="39.0787820" lon="1.4400370">
        <ele>5.8</ele>
        <time>2020-02-22T13:33:18Z</time>
      </trkpt>
      <trkpt lat="39.0788350" lon="1.4400250">
        <ele>6.1</ele>
        <time>2020-02-22T13:33:19Z</time>
      </trkpt>
      <trkpt lat="39.0788870" lon="1.4400160">
        <ele>6.4</ele>
        <time>2020-02-22T13:33:20Z</time>
      </trkpt>
      <trkpt lat="39.0789380" lon="1.4400140">
        <ele>6.7</ele>
        <time>2020-02-22T13:33:21Z</time>
      </trkpt>
      <trkpt lat="39.0789890" lon="1.4400140">
        <ele>7.1</ele>
        <time>2020-02-22T13:33:22Z</time>
      </trkpt>
      <trkpt lat="39.0790410" lon="1.4400190">
        <ele>7.6</ele>
        <time>2020-02-22T13:33:23Z</time>
      </trkpt>
      <trkpt lat="39.0790930" lon="1.4400160">
        <ele>8.0</ele>
        <time>2020-02-22T13:33:24Z</time>
      </trkpt>
      <trkpt lat="39.0791470" lon="1.4400140">
        <ele>8.4</ele>
        <time>2020-02-22T13:33:25Z</time>
      </trkpt>
      <trkpt lat="39.0791980" lon="1.4400080">
        <ele>8.8</ele>
        <time>2020-02-22T13:33:26Z</time>
      </trkpt>
      <trkpt lat="39.0792470" lon="1.4400010">
        <ele>9.0</ele>
        <time>2020-02-22T13:33:27Z</time>
      </trkpt>
      <trkpt lat="39.0792940" lon="1.4400020">
        <ele>9.3</ele>
        <time>2020-02-22T13:33:28Z</time>
      </trkpt>
      <trkpt lat="39.0793430" lon="1.4399840">
        <ele>9.5</ele>
        <time>2020-02-22T13:33:29Z</time>
      </trkpt>
      <trkpt lat="39.0793920" lon="1.4399790">
        <ele>9.8</ele>
        <time>2020-02-22T13:33:30Z</time>
      </trkpt>
      <trkpt lat="39.0794390" lon="1.4399770">
        <ele>10.0</ele>
        <time>2020-02-22T13:33:31Z</time>
      </trkpt>
      <trkpt lat="39.0794820" lon="1.4399790">
        <ele>10.2</ele>
        <time>2020-02-22T13:33:32Z</time>
      </trkpt>
      <trkpt lat="39.0795110" lon="1.4399900">
        <ele>10.4</ele>
        <time>2020-02-22T13:33:33Z</time>
      </trkpt>
      <trkpt lat="39.0795360" lon="1.4400190">
        <ele>10.5</ele>
        <time>2020-02-22T13:33:34Z</time>
      </trkpt>
      <trkpt lat="39.0795420" lon="1.4400330">
        <ele>10.6</ele>
        <time>2020-02-22T13:33:35Z</time>
      </trkpt>
      <trkpt lat="39.0795610" lon="1.4400520">
        <ele>10.7</ele>
        <time>2020-02-22T13:33:36Z</time>
      </trkpt>
      <trkpt lat="39.0795630" lon="1.4400660">
        <ele>10.8</ele>
        <time>2020-02-22T13:33:37Z</time>
      </trkpt>
      <trkpt lat="39.0795680" lon="1.4400820">
        <ele>10.8</ele>
        <time>2020-02-22T13:33:38Z</time>
      </trkpt>
      <trkpt lat="39.0795670" lon="1.4401010">
        <ele>10.9</ele>
        <time>2020-02-22T13:33:39Z</time>
      </trkpt>
      <trkpt lat="39.0795860" lon="1.4401150">
        <ele>10.9</ele>
        <time>2020-02-22T13:33:40Z</time>
      </trkpt>
      <trkpt lat="39.0795930" lon="1.4401170">
        <ele>10.9</ele>
        <time>2020-02-22T13:33:41Z</time>
      </trkpt>
      <trkpt lat="39.0796010" lon="1.4401180">
        <ele>10.9</ele>
        <time>2020-02-22T13:33:42Z</time>
      </trkpt>
      <trkpt lat="39.0796180" lon="1.4401110">
        <ele>10.9</ele>
        <time>2020-02-22T13:33:43Z</time>
      </trkpt>
      <trkpt lat="39.0796350" lon="1.4401030">
        <ele>10.9</ele>
        <time>2020-02-22T13:33:44Z</time>
      </trkpt>
      <trkpt lat="39.0796540" lon="1.4401000">
        <ele>11.0</ele>
        <time>2020-02-22T13:33:45Z</time>
      </trkpt>
      <trkpt lat="39.0796710" lon="1.4400950">
        <ele>11.0</ele>
        <time>2020-02-22T13:33:46Z</time>
      </trkpt>
      <trkpt lat="39.0796870" lon="1.4400990">
        <ele>11.0</ele>
        <time>2020-02-22T13:33:47Z</time>
      </trkpt>
      <trkpt lat="39.0796970" lon="1.4401250">
        <ele>11.0</ele>
        <time>2020-02-22T13:33:48Z</time>
      </trkpt>
      <trkpt lat="39.0797120" lon="1.4401470">
        <ele>11.0</ele>
        <time>2020-02-22T13:33:49Z</time>
      </trkpt>
      <trkpt lat="39.0797210" lon="1.4401540">
        <ele>11.0</ele>
        <time>2020-02-22T13:33:50Z</time>
      </trkpt>
      <trkpt lat="39.0797310" lon="1.4401620">
        <ele>11.0</ele>
        <time>2020-02-22T13:33:51Z</time>
      </trkpt>
      <trkpt lat="39.0797510" lon="1.4401890">
        <ele>11.0</ele>
        <time>2020-02-22T13:33:52Z</time>
      </trkpt>
      <trkpt lat="39.0797540" lon="1.4402000">
        <ele>11.0</ele>
        <time>2020-02-22T13:33:53Z</time>
      </trkpt>
      <trkpt lat="39.0797580" lon="1.4402190">
        <ele>11.0</ele>
        <time>2020-02-22T13:33:54Z</time>
      </trkpt>
      <trkpt lat="39.0797600" lon="1.4402350">
        <ele>11.0</ele>
        <time>2020-02-22T13:33:55Z</time>
      </trkpt>
      <trkpt lat="39.0797660" lon="1.4402530">
        <ele>11.0</ele>
        <time>2020-02-22T13:33:56Z</time>
      </trkpt>
      <trkpt lat="39.0797670" lon="1.4402720">
        <ele>11.0</ele>
        <time>2020-02-22T13:33:57Z</time>
      </trkpt>
      <trkpt lat="39.0797870" lon="1.4403030">
        <ele>11.0</ele>
        <time>2020-02-22T13:33:58Z</time>
      </trkpt>
      <trkpt lat="39.0797930" lon="1.4403120">
        <ele>11.0</ele>
        <time>2020-02-22T13:33:59Z</time>
      </trkpt>
      <trkpt lat="39.0797890" lon="1.4403200">
        <ele>11.0</ele>
        <time>2020-02-22T13:34:00Z</time>
      </trkpt>
      <trkpt lat="39.0797790" lon="1.4403100">
        <ele>11.0</ele>
        <time>2020-02-22T13:34:01Z</time>
      </trkpt>
      <trkpt lat="39.0797850" lon="1.4403030">
        <ele>11.0</ele>
        <time>2020-02-22T13:34:02Z</time>
      </trkpt>
      <trkpt lat="39.0797970" lon="1.4402990">
        <ele>11.0</ele>
        <time>2020-02-22T13:34:03Z</time>
      </trkpt>
      <trkpt lat="39.0797980" lon="1.4403000">
        <ele>11.0</ele>
        <time>2020-02-22T13:34:04Z</time>
      </trkpt>
      <trkpt lat="39.0797880" lon="1.4403070">
        <ele>11.0</ele>
        <time>2020-02-22T13:34:05Z</time>
      </trkpt>
      <trkpt lat="39.0797840" lon="1.4403090">
        <ele>11.0</ele>
        <time>2020-02-22T13:34:06Z</time>
      </trkpt>
      <trkpt lat="39.0797810" lon="1.4403100">
        <ele>11.0</ele>
        <time>2020-02-22T13:34:07Z</time>
      </trkpt>
      <trkpt lat="39.0797650" lon="1.4403220">
        <ele>11.0</ele>
        <time>2020-02-22T13:34:08Z</time>
      </trkpt>
      <trkpt lat="39.0797610" lon="1.4403280">
        <ele>11.0</ele>
        <time>2020-02-22T13:34:09Z</time>
      </trkpt>
      <trkpt lat="39.0797530" lon="1.4403350">
        <ele>11.0</ele>
        <time>2020-02-22T13:34:10Z</time>
      </trkpt>
      <trkpt lat="39.0797450" lon="1.4403410">
        <ele>11.0</ele>
        <time>2020-02-22T13:34:11Z</time>
      </trkpt>
      <trkpt lat="39.0797570" lon="1.4403340">
        <ele>11.0</ele>
        <time>2020-02-22T13:34:12Z</time>
      </trkpt>
      <trkpt lat="39.0797500" lon="1.4403380">
        <ele>11.0</ele>
        <time>2020-02-22T13:34:13Z</time>
      </trkpt>
      <trkpt lat="39.0797520" lon="1.4403390">
        <ele>11.0</ele>
        <time>2020-02-22T13:34:14Z</time>
      </trkpt>
      <trkpt lat="39.0797520" lon="1.4403420">
        <ele>11.0</ele>
        <time>2020-02-22T13:34:15Z</time>
      </trkpt>
      <trkpt lat="39.0797610" lon="1.4403410">
        <ele>11.0</ele>
        <time>2020-02-22T13:34:16Z</time>
      </trkpt>
      <trkpt lat="39.0797610" lon="1.4403470">
        <ele>11.0</ele>
        <time>2020-02-22T13:34:17Z</time>
      </trkpt>
      <trkpt lat="39.0797600" lon="1.4403610">
        <ele>11.0</ele>
        <time>2020-02-22T13:34:18Z</time>
      </trkpt>
      <trkpt lat="39.0797480" lon="1.4403920">
        <ele>11.0</ele>
        <time>2020-02-22T13:34:19Z</time>
      </trkpt>
      <trkpt lat="39.0797450" lon="1.4404060">
        <ele>11.0</ele>
        <time>2020-02-22T13:34:20Z</time>
      </trkpt>
      <trkpt lat="39.0797180" lon="1.4404270">
        <ele>11.0</ele>
        <time>2020-02-22T13:34:21Z</time>
      </trkpt>
      <trkpt lat="39.0797080" lon="1.4404230">
        <ele>11.0</ele>
        <time>2020-02-22T13:34:22Z</time>
      </trkpt>
      <trkpt lat="39.0796760" lon="1.4404390">
        <ele>11.0</ele>
        <time>2020-02-22T13:34:23Z</time>
      </trkpt>
      <trkpt lat="39.0796640" lon="1.4404560">
        <ele>11.0</ele>
        <time>2020-02-22T13:34:24Z</time>
      </trkpt>
      <trkpt lat="39.0796500" lon="1.4404430">
        <ele>11.0</ele>
        <time>2020-02-22T13:34:25Z</time>
      </trkpt>
      <trkpt lat="39.0796350" lon="1.4404340">
        <ele>11.0</ele>
        <time>2020-02-22T13:34:26Z</time>
      </trkpt>
      <trkpt lat="39.0796190" lon="1.4404230">
        <ele>11.0</ele>
        <time>2020-02-22T13:34:27Z</time>
      </trkpt>
      <trkpt lat="39.0796070" lon="1.4404170">
        <ele>11.0</ele>
        <time>2020-02-22T13:34:28Z</time>
      </trkpt>
      <trkpt lat="39.0796000" lon="1.4404120">
        <ele>11.0</ele>
        <time>2020-02-22T13:34:29Z</time>
      </trkpt>
      <trkpt lat="39.0795940" lon="1.4404030">
        <ele>11.0</ele>
        <time>2020-02-22T13:34:30Z</time>
      </trkpt>
      <trkpt lat="39.0795870" lon="1.4403880">
        <ele>11.0</ele>
        <time>2020-02-22T13:34:31Z</time>
      </trkpt>
      <trkpt lat="39.0795790" lon="1.4403810">
        <ele>11.0</ele>
        <time>2020-02-22T13:34:32Z</time>
      </trkpt>
      <trkpt lat="39.0795760" lon="1.4403720">
        <ele>11.0</ele>
        <time>2020-02-22T13:34:33Z</time>
      </trkpt>
      <trkpt lat="39.0795740" lon="1.4403720">
        <ele>11.0</ele>
        <time>2020-02-22T13:34:34Z</time>
      </trkpt>
      <trkpt lat="39.0795750" lon="1.4403590">
        <ele>11.0</ele>
        <time>2020-02-22T13:34:35Z</time>
      </trkpt>
      <trkpt lat="39.0795720" lon="1.4403560">
        <ele>11.0</ele>
        <time>2020-02-22T13:34:36Z</time>
      </trkpt>
      <trkpt lat="39.0795700" lon="1.4403470">
        <ele>11.0</ele>
        <time>2020-02-22T13:34:37Z</time>
      </trkpt>
      <trkpt lat="39.0795750" lon="1.4403340">
        <ele>11.0</ele>
        <time>2020-02-22T13:34:38Z</time>
      </trkpt>
      <trkpt lat="39.0795810" lon="1.4403210">
        <ele>11.0</ele>
        <time>2020-02-22T13:34:39Z</time>
      </trkpt>
      <trkpt lat="39.0795860" lon="1.4403180">
        <ele>11.0</ele>
        <time>2020-02-22T13:34:40Z</time>
      </trkpt>
      <trkpt lat="39.0795870" lon="1.4403150">
        <ele>11.0</ele>
        <time>2020-02-22T13:34:41Z</time>
      </trkpt>
      <trkpt lat="39.0795870" lon="1.4403090">
        <ele>11.0</ele>
        <time>2020-02-22T13:34:42Z</time>
      </trkpt>
      <trkpt lat="39.0795870" lon="1.4403180">
        <ele>11.0</ele>
        <time>2020-02-22T13:34:43Z</time>
      </trkpt>
      <trkpt lat="39.0795800" lon="1.4403070">
        <ele>11.0</ele>
        <time>2020-02-22T13:34:44Z</time>
      </trkpt>
      <trkpt lat="39.0795720" lon="1.4403110">
        <ele>11.0</ele>
        <time>2020-02-22T13:34:45Z</time>
      </trkpt>
      <trkpt lat="39.0795680" lon="1.4403140">
        <ele>11.0</ele>
        <time>2020-02-22T13:34:46Z</time>
      </trkpt>
      <trkpt lat="39.0795650" lon="1.4403130">
        <ele>11.0</ele>
        <time>2020-02-22T13:34:47Z</time>
      </trkpt>
      <trkpt lat="39.0795590" lon="1.4403140">
        <ele>11.0</ele>
        <time>2020-02-22T13:34:48Z</time>
      </trkpt>
      <trkpt lat="39.0795580" lon="1.4403190">
        <ele>11.0</ele>
        <time>2020-02-22T13:34:49Z</time>
      </trkpt>
      <trkpt lat="39.0795640" lon="1.4403100">
        <ele>11.0</ele>
        <time>2020-02-22T13:34:50Z</time>
      </trkpt>
      <trkpt lat="39.0795620" lon="1.4403170">
        <ele>11.0</ele>
        <time>2020-02-22T13:34:51Z</time>
      </trkpt>
      <trkpt lat="39.0795570" lon="1.4403160">
        <ele>11.0</ele>
        <time>2020-02-22T13:34:52Z</time>
      </trkpt>
      <trkpt lat="39.0795530" lon="1.4403230">
        <ele>11.0</ele>
        <time>2020-02-22T13:34:53Z</time>
      </trkpt>
      <trkpt lat="39.0795490" lon="1.4403220">
        <ele>11.0</ele>
        <time>2020-02-22T13:34:54Z</time>
      </trkpt>
      <trkpt lat="39.0795420" lon="1.4403130">
        <ele>11.0</ele>
        <time>2020-02-22T13:34:55Z</time>
      </trkpt>
      <trkpt lat="39.0795350" lon="1.4403140">
        <ele>11.0</ele>
        <time>2020-02-22T13:34:56Z</time>
      </trkpt>
      <trkpt lat="39.0795310" lon="1.4403240">
        <ele>11.0</ele>
        <time>2020-02-22T13:34:57Z</time>
      </trkpt>
      <trkpt lat="39.0795320" lon="1.4403170">
        <ele>11.0</ele>
        <time>2020-02-22T13:34:58Z</time>
      </trkpt>
      <trkpt lat="39.0795440" lon="1.4403320">
        <ele>11.0</ele>
        <time>2020-02-22T13:34:59Z</time>
      </trkpt>
      <trkpt lat="39.0795440" lon="1.4403380">
        <ele>11.0</ele>
        <time>2020-02-22T13:35:00Z</time>
      </trkpt>
      <trkpt lat="39.0795440" lon="1.4403410">
        <ele>11.0</ele>
        <time>2020-02-22T13:35:01Z</time>
      </trkpt>
      <trkpt lat="39.0795330" lon="1.4403320">
        <ele>11.0</ele>
        <time>2020-02-22T13:35:02Z</time>
      </trkpt>
      <trkpt lat="39.0795310" lon="1.4403310">
        <ele>11.0</ele>
        <time>2020-02-22T13:35:03Z</time>
      </trkpt>
      <trkpt lat="39.0795300" lon="1.4403350">
        <ele>11.0</ele>
        <time>2020-02-22T13:35:04Z</time>
      </trkpt>
      <trkpt lat="39.0795320" lon="1.4403430">
        <ele>11.0</ele>
        <time>2020-02-22T13:35:05Z</time>
      </trkpt>
      <trkpt lat="39.0795320" lon="1.4403490">
        <ele>11.0</ele>
        <time>2020-02-22T13:35:06Z</time>
      </trkpt>
      <trkpt lat="39.0795320" lon="1.4403540">
        <ele>11.0</ele>
        <time>2020-02-22T13:35:07Z</time>
      </trkpt>
      <trkpt lat="39.0795330" lon="1.4403620">
        <ele>11.0</ele>
        <time>2020-02-22T13:35:08Z</time>
      </trkpt>
      <trkpt lat="39.0795260" lon="1.4403590">
        <ele>11.0</ele>
        <time>2020-02-22T13:35:09Z</time>
      </trkpt>
      <trkpt lat="39.0795240" lon="1.4403590">
        <ele>11.0</ele>
        <time>2020-02-22T13:35:10Z</time>
      </trkpt>
      <trkpt lat="39.0795220" lon="1.4403530">
        <ele>11.0</ele>
        <time>2020-02-22T13:35:11Z</time>
      </trkpt>
      <trkpt lat="39.0795200" lon="1.4403590">
        <ele>11.0</ele>
        <time>2020-02-22T13:35:12Z</time>
      </trkpt>
      <trkpt lat="39.0795210" lon="1.4403640">
        <ele>11.0</ele>
        <time>2020-02-22T13:35:13Z</time>
      </trkpt>
      <trkpt lat="39.0795200" lon="1.4403640">
        <ele>11.0</ele>
        <time>2020-02-22T13:35:14Z</time>
      </trkpt>
      <trkpt lat="39.0795140" lon="1.4403540">
        <ele>11.0</ele>
        <time>2020-02-22T13:35:15Z</time>
      </trkpt>
      <trkpt lat="39.0795080" lon="1.4403310">
        <ele>10.9</ele>
        <time>2020-02-22T13:35:16Z</time>
      </trkpt>
      <trkpt lat="39.0795060" lon="1.4403250">
        <ele>10.9</ele>
        <time>2020-02-22T13:35:17Z</time>
      </trkpt>
      <trkpt lat="39.0795020" lon="1.4403250">
        <ele>10.9</ele>
        <time>2020-02-22T13:35:18Z</time>
      </trkpt>
      <trkpt lat="39.0794960" lon="1.4403240">
        <ele>10.9</ele>
        <time>2020-02-22T13:35:19Z</time>
      </trkpt>
      <trkpt lat="39.0794860" lon="1.4403220">
        <ele>10.9</ele>
        <time>2020-02-22T13:35:20Z</time>
      </trkpt>
      <trkpt lat="39.0794800" lon="1.4403220">
        <ele>10.9</ele>
        <time>2020-02-22T13:35:21Z</time>
      </trkpt>
      <trkpt lat="39.0794800" lon="1.4403140">
        <ele>10.9</ele>
        <time>2020-02-22T13:35:22Z</time>
      </trkpt>
      <trkpt lat="39.0794820" lon="1.4403160">
        <ele>10.9</ele>
        <time>2020-02-22T13:35:23Z</time>
      </trkpt>
      <trkpt lat="39.0794850" lon="1.4403180">
        <ele>10.9</ele>
        <time>2020-02-22T13:35:24Z</time>
      </trkpt>
      <trkpt lat="39.0794870" lon="1.4403200">
        <ele>10.9</ele>
        <time>2020-02-22T13:35:25Z</time>
      </trkpt>
      <trkpt lat="39.0794890" lon="1.4403220">
        <ele>10.9</ele>
        <time>2020-02-22T13:35:26Z</time>
      </trkpt>
      <trkpt lat="39.0794910" lon="1.4403240">
        <ele>10.9</ele>
        <time>2020-02-22T13:35:27Z</time>
      </trkpt>
      <trkpt lat="39.0794930" lon="1.4403260">
        <ele>10.9</ele>
        <time>2020-02-22T13:35:28Z</time>
      </trkpt>
      <trkpt lat="39.0794960" lon="1.4403280">
        <ele>10.9</ele>
        <time>2020-02-22T13:35:29Z</time>
      </trkpt>
      <trkpt lat="39.0794980" lon="1.4403300">
        <ele>10.9</ele>
        <time>2020-02-22T13:35:30Z</time>
      </trkpt>
      <trkpt lat="39.0795000" lon="1.4403320">
        <ele>10.9</ele>
        <time>2020-02-22T13:35:31Z</time>
      </trkpt>
      <trkpt lat="39.0795020" lon="1.4403340">
        <ele>10.9</ele>
        <time>2020-02-22T13:35:32Z</time>
      </trkpt>
      <trkpt lat="39.0795040" lon="1.4403360">
        <ele>10.9</ele>
        <time>2020-02-22T13:35:33Z</time>
      </trkpt>
      <trkpt lat="39.0795060" lon="1.4403380">
        <ele>10.9</ele>
        <time>2020-02-22T13:35:34Z</time>
      </trkpt>
      <trkpt lat="39.0795090" lon="1.4403400">
        <ele>10.9</ele>
        <time>2020-02-22T13:35:35Z</time>
      </trkpt>
      <trkpt lat="39.0795110" lon="1.4403420">
        <ele>10.9</ele>
        <time>2020-02-22T13:35:36Z</time>
      </trkpt>
      <trkpt lat="39.0795130" lon="1.4403440">
        <ele>10.9</ele>
        <time>2020-02-22T13:35:37Z</time>
      </trkpt>
      <trkpt lat="39.0795270" lon="1.4403240">
        <ele>10.9</ele>
        <time>2020-02-22T13:35:38Z</time>
      </trkpt>
      <trkpt lat="39.0795330" lon="1.4403140">
        <ele>10.9</ele>
        <time>2020-02-22T13:35:39Z</time>
      </trkpt>
      <trkpt lat="39.0795390" lon="1.4403050">
        <ele>10.9</ele>
        <time>2020-02-22T13:35:40Z</time>
      </trkpt>
      <trkpt lat="39.0795550" lon="1.4402950">
        <ele>10.9</ele>
        <time>2020-02-22T13:35:41Z</time>
      </trkpt>
      <trkpt lat="39.0795580" lon="1.4402870">
        <ele>10.9</ele>
        <time>2020-02-22T13:35:42Z</time>
      </trkpt>
      <trkpt lat="39.0795650" lon="1.4402920">
        <ele>10.9</ele>
        <time>2020-02-22T13:35:43Z</time>
      </trkpt>
      <trkpt lat="39.0795700" lon="1.4402880">
        <ele>10.9</ele>
        <time>2020-02-22T13:35:44Z</time>
      </trkpt>
      <trkpt lat="39.0795670" lon="1.4402850">
        <ele>10.9</ele>
        <time>2020-02-22T13:35:45Z</time>
      </trkpt>
      <trkpt lat="39.0795650" lon="1.4402810">
        <ele>10.9</ele>
        <time>2020-02-22T13:35:46Z</time>
      </trkpt>
      <trkpt lat="39.0795620" lon="1.4402780">
        <ele>10.9</ele>
        <time>2020-02-22T13:35:47Z</time>
      </trkpt>
      <trkpt lat="39.0795600" lon="1.4402740">
        <ele>10.9</ele>
        <time>2020-02-22T13:35:48Z</time>
      </trkpt>
      <trkpt lat="39.0795570" lon="1.4402710">
        <ele>10.9</ele>
        <time>2020-02-22T13:35:49Z</time>
      </trkpt>
      <trkpt lat="39.0795550" lon="1.4402670">
        <ele>10.9</ele>
        <time>2020-02-22T13:35:50Z</time>
      </trkpt>
      <trkpt lat="39.0795530" lon="1.4402640">
        <ele>10.9</ele>
        <time>2020-02-22T13:35:51Z</time>
      </trkpt>
      <trkpt lat="39.0795500" lon="1.4402600">
        <ele>10.9</ele>
        <time>2020-02-22T13:35:52Z</time>
      </trkpt>
      <trkpt lat="39.0795480" lon="1.4402570">
        <ele>10.9</ele>
        <time>2020-02-22T13:35:53Z</time>
      </trkpt>
      <trkpt lat="39.0795450" lon="1.4402530">
        <ele>10.9</ele>
        <time>2020-02-22T13:35:54Z</time>
      </trkpt>
      <trkpt lat="39.0795430" lon="1.4402500">
        <ele>10.9</ele>
        <time>2020-02-22T13:35:55Z</time>
      </trkpt>
      <trkpt lat="39.0795400" lon="1.4402460">
        <ele>10.9</ele>
        <time>2020-02-22T13:35:56Z</time>
      </trkpt>
      <trkpt lat="39.0795380" lon="1.4402430">
        <ele>10.9</ele>
        <time>2020-02-22T13:35:57Z</time>
      </trkpt>
      <trkpt lat="39.0795240" lon="1.4402240">
        <ele>10.9</ele>
        <time>2020-02-22T13:35:58Z</time>
      </trkpt>
      <trkpt lat="39.0795180" lon="1.4402110">
        <ele>10.9</ele>
        <time>2020-02-22T13:35:59Z</time>
      </trkpt>
      <trkpt lat="39.0795130" lon="1.4401980">
        <ele>10.9</ele>
        <time>2020-02-22T13:36:00Z</time>
      </trkpt>
      <trkpt lat="39.0795140" lon="1.4402070">
        <ele>10.9</ele>
        <time>2020-02-22T13:36:01Z</time>
      </trkpt>
      <trkpt lat="39.0795210" lon="1.4402190">
        <ele>10.9</ele>
        <time>2020-02-22T13:36:02Z</time>
      </trkpt>
      <trkpt lat="39.0795300" lon="1.4402390">
        <ele>10.9</ele>
        <time>2020-02-22T13:36:03Z</time>
      </trkpt>
      <trkpt lat="39.0795380" lon="1.4402430">
        <ele>10.9</ele>
        <time>2020-02-22T13:36:04Z</time>
      </trkpt>
      <trkpt lat="39.0795480" lon="1.4402390">
        <ele>10.9</ele>
        <time>2020-02-22T13:36:05Z</time>
      </trkpt>
      <trkpt lat="39.0795550" lon="1.4402340">
        <ele>10.9</ele>
        <time>2020-02-22T13:36:06Z</time>
      </trkpt>
      <trkpt lat="39.0795530" lon="1.4402370">
        <ele>10.9</ele>
        <time>2020-02-22T13:36:07Z</time>
      </trkpt>
      <trkpt lat="39.0795560" lon="1.4402430">
        <ele>10.9</ele>
        <time>2020-02-22T13:36:08Z</time>
      </trkpt>
      <trkpt lat="39.0795590" lon="1.4402460">
        <ele>10.9</ele>
        <time>2020-02-22T13:36:09Z</time>
      </trkpt>
      <trkpt lat="39.0795590" lon="1.4402460">
        <ele>10.9</ele>
        <time>2020-02-22T13:36:10Z</time>
      </trkpt>
      <trkpt lat="39.0795600" lon="1.4402470">
        <ele>10.9</ele>
        <time>2020-02-22T13:36:11Z</time>
      </trkpt>
      <trkpt lat="39.0795600" lon="1.4402470">
        <ele>10.9</ele>
        <time>2020-02-22T13:36:12Z</time>
      </trkpt>
      <trkpt lat="39.0795600" lon="1.4402470">
        <ele>10.9</ele>
        <time>2020-02-22T13:36:13Z</time>
      </trkpt>
      <trkpt lat="39.0795600" lon="1.4402470">
        <ele>10.9</ele>
        <time>2020-02-22T13:36:14Z</time>
      </trkpt>
      <trkpt lat="39.0795600" lon="1.4402470">
        <ele>10.9</ele>
        <time>2020-02-22T13:36:15Z</time>
      </trkpt>
      <trkpt lat="39.0795600" lon="1.4402470">
        <ele>10.9</ele>
        <time>2020-02-22T13:36:16Z</time>
      </trkpt>
      <trkpt lat="39.0795600" lon="1.4402470">
        <ele>10.9</ele>
        <time>2020-02-22T13:36:17Z</time>
      </trkpt>
      <trkpt lat="39.0795600" lon="1.4402470">
        <ele>10.9</ele>
        <time>2020-02-22T13:36:18Z</time>
      </trkpt>
      <trkpt lat="39.0795600" lon="1.4402470">
        <ele>10.9</ele>
        <time>2020-02-22T13:36:19Z</time>
      </trkpt>
      <trkpt lat="39.0795830" lon="1.4402130">
        <ele>10.9</ele>
        <time>2020-02-22T13:38:49Z</time>
      </trkpt>
      <trkpt lat="39.0795890" lon="1.4402130">
        <ele>10.9</ele>
        <time>2020-02-22T13:38:50Z</time>
      </trkpt>
      <trkpt lat="39.0795930" lon="1.4402130">
        <ele>10.9</ele>
        <time>2020-02-22T13:38:51Z</time>
      </trkpt>
      <trkpt lat="39.0795970" lon="1.4402210">
        <ele>10.9</ele>
        <time>2020-02-22T13:38:52Z</time>
      </trkpt>
      <trkpt lat="39.0795930" lon="1.4402250">
        <ele>10.9</ele>
        <time>2020-02-22T13:38:53Z</time>
      </trkpt>
      <trkpt lat="39.0795910" lon="1.4402320">
        <ele>10.9</ele>
        <time>2020-02-22T13:38:54Z</time>
      </trkpt>
      <trkpt lat="39.0795910" lon="1.4402320">
        <ele>10.9</ele>
        <time>2020-02-22T13:38:55Z</time>
      </trkpt>
      <trkpt lat="39.0795910" lon="1.4402320">
        <ele>10.9</ele>
        <time>2020-02-22T13:38:56Z</time>
      </trkpt>
      <trkpt lat="39.0795910" lon="1.4402320">
        <ele>10.9</ele>
        <time>2020-02-22T13:38:57Z</time>
      </trkpt>
      <trkpt lat="39.0795910" lon="1.4402320">
        <ele>10.9</ele>
        <time>2020-02-22T13:38:58Z</time>
      </trkpt>
      <trkpt lat="39.0795910" lon="1.4402320">
        <ele>10.9</ele>
        <time>2020-02-22T13:38:59Z</time>
      </trkpt>
      <trkpt lat="39.0795910" lon="1.4402320">
        <ele>10.9</ele>
        <time>2020-02-22T13:39:00Z</time>
      </trkpt>
      <trkpt lat="39.0795910" lon="1.4402320">
        <ele>10.9</ele>
        <time>2020-02-22T13:39:01Z</time>
      </trkpt>
      <trkpt lat="39.0795910" lon="1.4402320">
        <ele>10.9</ele>
        <time>2020-02-22T13:39:02Z</time>
      </trkpt>
      <trkpt lat="39.0795910" lon="1.4402320">
        <ele>10.9</ele>
        <time>2020-02-22T13:39:03Z</time>
      </trkpt>
      <trkpt lat="39.0795910" lon="1.4402320">
        <ele>10.9</ele>
        <time>2020-02-22T13:39:04Z</time>
      </trkpt>
      <trkpt lat="39.0795910" lon="1.4402320">
        <ele>10.9</ele>
        <time>2020-02-22T13:39:05Z</time>
      </trkpt>
      <trkpt lat="39.0795460" lon="1.4402540">
        <ele>10.9</ele>
        <time>2020-02-22T14:16:25Z</time>
      </trkpt>
      <trkpt lat="39.0795330" lon="1.4402550">
        <ele>10.9</ele>
        <time>2020-02-22T14:16:26Z</time>
      </trkpt>
      <trkpt lat="39.0795260" lon="1.4402580">
        <ele>10.9</ele>
        <time>2020-02-22T14:16:27Z</time>
      </trkpt>
      <trkpt lat="39.0795170" lon="1.4402650">
        <ele>10.9</ele>
        <time>2020-02-22T14:16:28Z</time>
      </trkpt>
      <trkpt lat="39.0795120" lon="1.4402510">
        <ele>10.9</ele>
        <time>2020-02-22T14:16:29Z</time>
      </trkpt>
      <trkpt lat="39.0795110" lon="1.4402410">
        <ele>10.9</ele>
        <time>2020-02-22T14:16:30Z</time>
      </trkpt>
      <trkpt lat="39.0795110" lon="1.4402420">
        <ele>10.9</ele>
        <time>2020-02-22T14:16:31Z</time>
      </trkpt>
      <trkpt lat="39.0795110" lon="1.4402440">
        <ele>10.9</ele>
        <time>2020-02-22T14:16:32Z</time>
      </trkpt>
      <trkpt lat="39.0795110" lon="1.4402340">
        <ele>10.9</ele>
        <time>2020-02-22T14:16:33Z</time>
      </trkpt>
      <trkpt lat="39.0795130" lon="1.4402160">
        <ele>10.9</ele>
        <time>2020-02-22T14:16:34Z</time>
      </trkpt>
      <trkpt lat="39.0795110" lon="1.4401960">
        <ele>10.9</ele>
        <time>2020-02-22T14:16:35Z</time>
      </trkpt>
      <trkpt lat="39.0795120" lon="1.4401730">
        <ele>10.9</ele>
        <time>2020-02-22T14:16:36Z</time>
      </trkpt>
      <trkpt lat="39.0795110" lon="1.4401340">
        <ele>10.9</ele>
        <time>2020-02-22T14:16:37Z</time>
      </trkpt>
      <trkpt lat="39.0795100" lon="1.4401200">
        <ele>10.9</ele>
        <time>2020-02-22T14:16:38Z</time>
      </trkpt>
      <trkpt lat="39.0795090" lon="1.4400990">
        <ele>10.9</ele>
        <time>2020-02-22T14:16:39Z</time>
      </trkpt>
      <trkpt lat="39.0795110" lon="1.4400890">
        <ele>11.3</ele>
        <time>2020-02-22T14:16:40Z</time>
      </trkpt>
      <trkpt lat="39.0795120" lon="1.4400800">
        <ele>11.2</ele>
        <time>2020-02-22T14:16:41Z</time>
      </trkpt>
      <trkpt lat="39.0795130" lon="1.4400700">
        <ele>11.2</ele>
        <time>2020-02-22T14:16:42Z</time>
      </trkpt>
      <trkpt lat="39.0795080" lon="1.4400710">
        <ele>11.2</ele>
        <time>2020-02-22T14:16:43Z</time>
      </trkpt>
      <trkpt lat="39.0795050" lon="1.4400600">
        <ele>11.1</ele>
        <time>2020-02-22T14:16:44Z</time>
      </trkpt>
      <trkpt lat="39.0795010" lon="1.4400500">
        <ele>11.1</ele>
        <time>2020-02-22T14:16:45Z</time>
      </trkpt>
      <trkpt lat="39.0794970" lon="1.4400400">
        <ele>11.0</ele>
        <time>2020-02-22T14:16:46Z</time>
      </trkpt>
      <trkpt lat="39.0794930" lon="1.4400300">
        <ele>11.0</ele>
        <time>2020-02-22T14:16:47Z</time>
      </trkpt>
      <trkpt lat="39.0794900" lon="1.4400190">
        <ele>10.9</ele>
        <time>2020-02-22T14:16:48Z</time>
      </trkpt>
      <trkpt lat="39.0794860" lon="1.4400090">
        <ele>10.9</ele>
        <time>2020-02-22T14:16:49Z</time>
      </trkpt>
      <trkpt lat="39.0794820" lon="1.4399990">
        <ele>10.8</ele>
        <time>2020-02-22T14:16:50Z</time>
      </trkpt>
      <trkpt lat="39.0794780" lon="1.4399890">
        <ele>10.8</ele>
        <time>2020-02-22T14:16:51Z</time>
      </trkpt>
      <trkpt lat="39.0794750" lon="1.4399780">
        <ele>10.7</ele>
        <time>2020-02-22T14:19:31Z</time>
      </trkpt>
      <trkpt lat="39.0794710" lon="1.4399680">
        <ele>10.7</ele>
        <time>2020-02-22T14:19:32Z</time>
      </trkpt>
      <trkpt lat="39.0794670" lon="1.4399580">
        <ele>10.6</ele>
        <time>2020-02-22T14:19:33Z</time>
      </trkpt>
      <trkpt lat="39.0794210" lon="1.4399480">
        <ele>10.4</ele>
        <time>2020-02-22T14:19:34Z</time>
      </trkpt>
      <trkpt lat="39.0793750" lon="1.4399320">
        <ele>10.1</ele>
        <time>2020-02-22T14:19:35Z</time>
      </trkpt>
      <trkpt lat="39.0793260" lon="1.4399150">
        <ele>9.5</ele>
        <time>2020-02-22T14:19:36Z</time>
      </trkpt>
      <trkpt lat="39.0792690" lon="1.4399260">
        <ele>8.9</ele>
        <time>2020-02-22T14:19:37Z</time>
      </trkpt>
      <trkpt lat="39.0792010" lon="1.4399450">
        <ele>8.3</ele>
        <time>2020-02-22T14:19:38Z</time>
      </trkpt>
      <trkpt lat="39.0791310" lon="1.4399540">
        <ele>7.8</ele>
        <time>2020-02-22T14:19:39Z</time>
      </trkpt>
      <trkpt lat="39.0790680" lon="1.4399600">
        <ele>7.3</ele>
        <time>2020-02-22T14:19:40Z</time>
      </trkpt>
      <trkpt lat="39.0789970" lon="1.4399660">
        <ele>6.7</ele>
        <time>2020-02-22T14:19:41Z</time>
      </trkpt>
      <trkpt lat="39.0788680" lon="1.4399850">
        <ele>5.8</ele>
        <time>2020-02-22T14:19:42Z</time>
      </trkpt>
      <trkpt lat="39.0788030" lon="1.4399930">
        <ele>5.3</ele>
        <time>2020-02-22T14:19:43Z</time>
      </trkpt>
      <trkpt lat="39.0787400" lon="1.4400060">
        <ele>4.9</ele>
        <time>2020-02-22T14:19:44Z</time>
      </trkpt>
      <trkpt lat="39.0786800" lon="1.4400170">
        <ele>4.6</ele>
        <time>2020-02-22T14:19:45Z</time>
      </trkpt>
      <trkpt lat="39.0786210" lon="1.4400300">
        <ele>4.4</ele>
        <time>2020-02-22T14:19:46Z</time>
      </trkpt>
      <trkpt lat="39.0785710" lon="1.4400360">
        <ele>4.2</ele>
        <time>2020-02-22T14:19:47Z</time>
      </trkpt>
      <trkpt lat="39.0785210" lon="1.4400430">
        <ele>4.1</ele>
        <time>2020-02-22T14:19:48Z</time>
      </trkpt>
      <trkpt lat="39.0784790" lon="1.4400450">
        <ele>4.0</ele>
        <time>2020-02-22T14:19:49Z</time>
      </trkpt>
      <trkpt lat="39.0784330" lon="1.4400560">
        <ele>3.8</ele>
        <time>2020-02-22T14:19:50Z</time>
      </trkpt>
      <trkpt lat="39.0784030" lon="1.4400570">
        <ele>3.7</ele>
        <time>2020-02-22T14:19:51Z</time>
      </trkpt>
      <trkpt lat="39.0783650" lon="1.4400570">
        <ele>3.5</ele>
        <time>2020-02-22T14:19:52Z</time>
      </trkpt>
      <trkpt lat="39.0783330" lon="1.4400670">
        <ele>3.4</ele>
        <time>2020-02-22T14:19:53Z</time>
      </trkpt>
      <trkpt lat="39.0782930" lon="1.4400820">
        <ele>3.2</ele>
        <time>2020-02-22T14:19:54Z</time>
      </trkpt>
      <trkpt lat="39.0782560" lon="1.4400860">
        <ele>3.1</ele>
        <time>2020-02-22T14:19:55Z</time>
      </trkpt>
      <trkpt lat="39.0782280" lon="1.4400920">
        <ele>2.9</ele>
        <time>2020-02-22T14:19:56Z</time>
      </trkpt>
      <trkpt lat="39.0781830" lon="1.4401000">
        <ele>2.7</ele>
        <time>2020-02-22T14:19:57Z</time>
      </trkpt>
      <trkpt lat="39.0781640" lon="1.4401000">
        <ele>2.7</ele>
        <time>2020-02-22T14:19:58Z</time>
      </trkpt>
      <trkpt lat="39.0781240" lon="1.4401080">
        <ele>2.7</ele>
        <time>2020-02-22T14:19:59Z</time>
      </trkpt>
      <trkpt lat="39.0780920" lon="1.4401210">
        <ele>2.7</ele>
        <time>2020-02-22T14:20:00Z</time>
      </trkpt>
      <trkpt lat="39.0780560" lon="1.4401260">
        <ele>2.8</ele>
        <time>2020-02-22T14:20:01Z</time>
      </trkpt>
      <trkpt lat="39.0780460" lon="1.4401260">
        <ele>2.8</ele>
        <time>2020-02-22T14:20:02Z</time>
      </trkpt>
      <trkpt lat="39.0780320" lon="1.4401560">
        <ele>2.9</ele>
        <time>2020-02-22T14:20:03Z</time>
      </trkpt>
      <trkpt lat="39.0780300" lon="1.4401680">
        <ele>2.9</ele>
        <time>2020-02-22T14:20:04Z</time>
      </trkpt>
      <trkpt lat="39.0780630" lon="1.4401840">
        <ele>3.0</ele>
        <time>2020-02-22T14:20:05Z</time>
      </trkpt>
      <trkpt lat="39.0780760" lon="1.4401890">
        <ele>3.0</ele>
        <time>2020-02-22T14:20:06Z</time>
      </trkpt>
      <trkpt lat="39.0781020" lon="1.4402060">
        <ele>3.1</ele>
        <time>2020-02-22T14:20:07Z</time>
      </trkpt>
      <trkpt lat="39.0781370" lon="1.4402470">
        <ele>3.2</ele>
        <time>2020-02-22T14:20:08Z</time>
      </trkpt>
      <trkpt lat="39.0781900" lon="1.4402980">
        <ele>3.6</ele>
        <time>2020-02-22T14:20:09Z</time>
      </trkpt>
      <trkpt lat="39.0782280" lon="1.4403400">
        <ele>3.8</ele>
        <time>2020-02-22T14:20:10Z</time>
      </trkpt>
      <trkpt lat="39.0782540" lon="1.4403730">
        <ele>3.9</ele>
        <time>2020-02-22T14:20:11Z</time>
      </trkpt>
      <trkpt lat="39.0782850" lon="1.4404340">
        <ele>4.1</ele>
        <time>2020-02-22T14:20:12Z</time>
      </trkpt>
      <trkpt lat="39.0783010" lon="1.4404710">
        <ele>4.2</ele>
        <time>2020-02-22T14:20:13Z</time>
      </trkpt>
      <trkpt lat="39.0783080" lon="1.4405110">
        <ele>4.3</ele>
        <time>2020-02-22T14:20:14Z</time>
      </trkpt>
      <trkpt lat="39.0783180" lon="1.4405480">
        <ele>4.3</ele>
        <time>2020-02-22T14:20:15Z</time>
      </trkpt>
      <trkpt lat="39.0783120" lon="1.4405910">
        <ele>4.4</ele>
        <time>2020-02-22T14:20:16Z</time>
      </trkpt>
      <trkpt lat="39.0783090" lon="1.4406020">
        <ele>4.5</ele>
        <time>2020-02-22T14:20:17Z</time>
      </trkpt>
      <trkpt lat="39.0782910" lon="1.4406390">
        <ele>4.5</ele>
        <time>2020-02-22T14:20:18Z</time>
      </trkpt>
      <trkpt lat="39.0782790" lon="1.4406760">
        <ele>4.6</ele>
        <time>2020-02-22T14:20:19Z</time>
      </trkpt>
      <trkpt lat="39.0782400" lon="1.4407030">
        <ele>4.7</ele>
        <time>2020-02-22T14:20:20Z</time>
      </trkpt>
      <trkpt lat="39.0782230" lon="1.4407130">
        <ele>4.8</ele>
        <time>2020-02-22T14:20:21Z</time>
      </trkpt>
      <trkpt lat="39.0781950" lon="1.4407270">
        <ele>4.9</ele>
        <time>2020-02-22T14:20:22Z</time>
      </trkpt>
      <trkpt lat="39.0781680" lon="1.4407490">
        <ele>5.0</ele>
        <time>2020-02-22T14:20:23Z</time>
      </trkpt>
      <trkpt lat="39.0781300" lon="1.4407700">
        <ele>5.2</ele>
        <time>2020-02-22T14:20:24Z</time>
      </trkpt>
      <trkpt lat="39.0781160" lon="1.4407810">
        <ele>5.3</ele>
        <time>2020-02-22T14:20:25Z</time>
      </trkpt>
      <trkpt lat="39.0780810" lon="1.4408130">
        <ele>5.5</ele>
        <time>2020-02-22T14:20:26Z</time>
      </trkpt>
      <trkpt lat="39.0780470" lon="1.4408440">
        <ele>5.7</ele>
        <time>2020-02-22T14:20:27Z</time>
      </trkpt>
      <trkpt lat="39.0780160" lon="1.4408700">
        <ele>6.0</ele>
        <time>2020-02-22T14:20:28Z</time>
      </trkpt>
      <trkpt lat="39.0779940" lon="1.4409000">
        <ele>6.3</ele>
        <time>2020-02-22T14:20:29Z</time>
      </trkpt>
      <trkpt lat="39.0779680" lon="1.4409300">
        <ele>6.6</ele>
        <time>2020-02-22T14:20:30Z</time>
      </trkpt>
      <trkpt lat="39.0779380" lon="1.4409710">
        <ele>7.0</ele>
        <time>2020-02-22T14:20:31Z</time>
      </trkpt>
      <trkpt lat="39.0779060" lon="1.4410130">
        <ele>7.4</ele>
        <time>2020-02-22T14:20:32Z</time>
      </trkpt>
      <trkpt lat="39.0778860" lon="1.4410510">
        <ele>7.6</ele>
        <time>2020-02-22T14:20:33Z</time>
      </trkpt>
      <trkpt lat="39.0778730" lon="1.4410850">
        <ele>7.8</ele>
        <time>2020-02-22T14:20:34Z</time>
      </trkpt>
      <trkpt lat="39.0778600" lon="1.4411200">
        <ele>8.0</ele>
        <time>2020-02-22T14:20:35Z</time>
      </trkpt>
      <trkpt lat="39.0778490" lon="1.4411600">
        <ele>8.2</ele>
        <time>2020-02-22T14:20:36Z</time>
      </trkpt>
      <trkpt lat="39.0778510" lon="1.4412040">
        <ele>8.4</ele>
        <time>2020-02-22T14:20:37Z</time>
      </trkpt>
      <trkpt lat="39.0778500" lon="1.4412210">
        <ele>8.5</ele>
        <time>2020-02-22T14:20:38Z</time>
      </trkpt>
      <trkpt lat="39.0778380" lon="1.4412540">
        <ele>8.6</ele>
        <time>2020-02-22T14:20:39Z</time>
      </trkpt>
      <trkpt lat="39.0778340" lon="1.4412730">
        <ele>8.7</ele>
        <time>2020-02-22T14:20:40Z</time>
      </trkpt>
      <trkpt lat="39.0778260" lon="1.4413080">
        <ele>8.9</ele>
        <time>2020-02-22T14:20:41Z</time>
      </trkpt>
      <trkpt lat="39.0778180" lon="1.4413160">
        <ele>8.9</ele>
        <time>2020-02-22T14:20:42Z</time>
      </trkpt>
      <trkpt lat="39.0778020" lon="1.4413580">
        <ele>9.2</ele>
        <time>2020-02-22T14:20:43Z</time>
      </trkpt>
      <trkpt lat="39.0777950" lon="1.4413720">
        <ele>9.3</ele>
        <time>2020-02-22T14:20:44Z</time>
      </trkpt>
      <trkpt lat="39.0777730" lon="1.4414040">
        <ele>9.6</ele>
        <time>2020-02-22T14:20:45Z</time>
      </trkpt>
      <trkpt lat="39.0777560" lon="1.4414380">
        <ele>9.9</ele>
        <time>2020-02-22T14:20:46Z</time>
      </trkpt>
      <trkpt lat="39.0777480" lon="1.4414500">
        <ele>10.0</ele>
        <time>2020-02-22T14:20:47Z</time>
      </trkpt>
      <trkpt lat="39.0777240" lon="1.4414870">
        <ele>10.2</ele>
        <time>2020-02-22T14:20:48Z</time>
      </trkpt>
      <trkpt lat="39.0777110" lon="1.4414960">
        <ele>10.3</ele>
        <time>2020-02-22T14:20:49Z</time>
      </trkpt>
      <trkpt lat="39.0777010" lon="1.4415360">
        <ele>10.6</ele>
        <time>2020-02-22T14:20:50Z</time>
      </trkpt>
      <trkpt lat="39.0776960" lon="1.4415560">
        <ele>10.7</ele>
        <time>2020-02-22T14:20:51Z</time>
      </trkpt>
      <trkpt lat="39.0776850" lon="1.4415980">
        <ele>11.0</ele>
        <time>2020-02-22T14:20:52Z</time>
      </trkpt>
      <trkpt lat="39.0776840" lon="1.4416090">
        <ele>11.0</ele>
        <time>2020-02-22T14:20:53Z</time>
      </trkpt>
      <trkpt lat="39.0777070" lon="1.4416350">
        <ele>11.3</ele>
        <time>2020-02-22T14:20:54Z</time>
      </trkpt>
      <trkpt lat="39.0777170" lon="1.4416420">
        <ele>11.4</ele>
        <time>2020-02-22T14:20:55Z</time>
      </trkpt>
      <trkpt lat="39.0777440" lon="1.4416300">
        <ele>11.5</ele>
        <time>2020-02-22T14:20:56Z</time>
      </trkpt>
      <trkpt lat="39.0777520" lon="1.4416320">
        <ele>11.5</ele>
        <time>2020-02-22T14:20:57Z</time>
      </trkpt>
      <trkpt lat="39.0777600" lon="1.4416340">
        <ele>11.5</ele>
        <time>2020-02-22T14:20:58Z</time>
      </trkpt>
      <trkpt lat="39.0777880" lon="1.4416400">
        <ele>11.5</ele>
        <time>2020-02-22T14:20:59Z</time>
      </trkpt>
      <trkpt lat="39.0778300" lon="1.4416430">
        <ele>11.5</ele>
        <time>2020-02-22T14:21:00Z</time>
      </trkpt>
      <trkpt lat="39.0778570" lon="1.4416460">
        <ele>11.6</ele>
        <time>2020-02-22T14:21:01Z</time>
      </trkpt>
      <trkpt lat="39.0778930" lon="1.4416510">
        <ele>11.6</ele>
        <time>2020-02-22T14:21:02Z</time>
      </trkpt>
      <trkpt lat="39.0779220" lon="1.4416550">
        <ele>11.6</ele>
        <time>2020-02-22T14:21:03Z</time>
      </trkpt>
      <trkpt lat="39.0779570" lon="1.4416530">
        <ele>11.6</ele>
        <time>2020-02-22T14:21:04Z</time>
      </trkpt>
      <trkpt lat="39.0779670" lon="1.4416480">
        <ele>11.7</ele>
        <time>2020-02-22T14:21:05Z</time>
      </trkpt>
      <trkpt lat="39.0779990" lon="1.4416430">
        <ele>11.7</ele>
        <time>2020-02-22T14:21:06Z</time>
      </trkpt>
      <trkpt lat="39.0780370" lon="1.4416300">
        <ele>11.8</ele>
        <time>2020-02-22T14:21:07Z</time>
      </trkpt>
      <trkpt lat="39.0780520" lon="1.4416230">
        <ele>11.9</ele>
        <time>2020-02-22T14:21:08Z</time>
      </trkpt>
      <trkpt lat="39.0780910" lon="1.4416100">
        <ele>12.0</ele>
        <time>2020-02-22T14:21:09Z</time>
      </trkpt>
      <trkpt lat="39.0781040" lon="1.4416050">
        <ele>12.1</ele>
        <time>2020-02-22T14:21:10Z</time>
      </trkpt>
      <trkpt lat="39.0781410" lon="1.4415900">
        <ele>12.2</ele>
        <time>2020-02-22T14:21:11Z</time>
      </trkpt>
      <trkpt lat="39.0781510" lon="1.4415830">
        <ele>12.3</ele>
        <time>2020-02-22T14:21:12Z</time>
      </trkpt>
      <trkpt lat="39.0781810" lon="1.4415660">
        <ele>12.5</ele>
        <time>2020-02-22T14:21:13Z</time>
      </trkpt>
      <trkpt lat="39.0782080" lon="1.4415600">
        <ele>12.7</ele>
        <time>2020-02-22T14:21:14Z</time>
      </trkpt>
      <trkpt lat="39.0782380" lon="1.4415610">
        <ele>13.0</ele>
        <time>2020-02-22T14:21:15Z</time>
      </trkpt>
      <trkpt lat="39.0782580" lon="1.4415580">
        <ele>13.2</ele>
        <time>2020-02-22T14:21:16Z</time>
      </trkpt>
      <trkpt lat="39.0782660" lon="1.4415500">
        <ele>13.3</ele>
        <time>2020-02-22T14:21:17Z</time>
      </trkpt>
      <trkpt lat="39.0783050" lon="1.4415490">
        <ele>13.7</ele>
        <time>2020-02-22T14:21:18Z</time>
      </trkpt>
      <trkpt lat="39.0783220" lon="1.4415540">
        <ele>13.8</ele>
        <time>2020-02-22T14:21:19Z</time>
      </trkpt>
      <trkpt lat="39.0783500" lon="1.4415600">
        <ele>14.1</ele>
        <time>2020-02-22T14:21:20Z</time>
      </trkpt>
      <trkpt lat="39.0783580" lon="1.4415630">
        <ele>14.1</ele>
        <time>2020-02-22T14:21:21Z</time>
      </trkpt>
      <trkpt lat="39.0783880" lon="1.4415490">
        <ele>14.4</ele>
        <time>2020-02-22T14:21:22Z</time>
      </trkpt>
      <trkpt lat="39.0783990" lon="1.4415470">
        <ele>14.5</ele>
        <time>2020-02-22T14:21:23Z</time>
      </trkpt>
      <trkpt lat="39.0784110" lon="1.4415590">
        <ele>14.6</ele>
        <time>2020-02-22T14:21:24Z</time>
      </trkpt>
      <trkpt lat="39.0784230" lon="1.4415690">
        <ele>14.7</ele>
        <time>2020-02-22T14:21:25Z</time>
      </trkpt>
      <trkpt lat="39.0784410" lon="1.4415710">
        <ele>14.9</ele>
        <time>2020-02-22T14:21:26Z</time>
      </trkpt>
      <trkpt lat="39.0784580" lon="1.4415690">
        <ele>15.1</ele>
        <time>2020-02-22T14:21:27Z</time>
      </trkpt>
      <trkpt lat="39.0784760" lon="1.4415780">
        <ele>15.3</ele>
        <time>2020-02-22T14:21:28Z</time>
      </trkpt>
      <trkpt lat="39.0784840" lon="1.4415840">
        <ele>15.4</ele>
        <time>2020-02-22T14:21:29Z</time>
      </trkpt>
      <trkpt lat="39.0785060" lon="1.4416020">
        <ele>15.7</ele>
        <time>2020-02-22T14:21:30Z</time>
      </trkpt>
      <trkpt lat="39.0785150" lon="1.4416090">
        <ele>15.8</ele>
        <time>2020-02-22T14:21:31Z</time>
      </trkpt>
      <trkpt lat="39.0785300" lon="1.4416300">
        <ele>16.1</ele>
        <time>2020-02-22T14:21:32Z</time>
      </trkpt>
      <trkpt lat="39.0785410" lon="1.4416280">
        <ele>16.2</ele>
        <time>2020-02-22T14:21:33Z</time>
      </trkpt>
      <trkpt lat="39.0785550" lon="1.4416420">
        <ele>16.3</ele>
        <time>2020-02-22T14:21:34Z</time>
      </trkpt>
      <trkpt lat="39.0785630" lon="1.4416490">
        <ele>16.4</ele>
        <time>2020-02-22T14:21:35Z</time>
      </trkpt>
      <trkpt lat="39.0785700" lon="1.4416570">
        <ele>16.5</ele>
        <time>2020-02-22T14:21:36Z</time>
      </trkpt>
      <trkpt lat="39.0785770" lon="1.4416640">
        <ele>16.5</ele>
        <time>2020-02-22T14:21:37Z</time>
      </trkpt>
      <trkpt lat="39.0785990" lon="1.4416950">
        <ele>16.8</ele>
        <time>2020-02-22T14:21:38Z</time>
      </trkpt>
      <trkpt lat="39.0786050" lon="1.4417030">
        <ele>16.9</ele>
        <time>2020-02-22T14:21:39Z</time>
      </trkpt>
      <trkpt lat="39.0786260" lon="1.4417230">
        <ele>17.1</ele>
        <time>2020-02-22T14:21:40Z</time>
      </trkpt>
      <trkpt lat="39.0786330" lon="1.4417330">
        <ele>17.3</ele>
        <time>2020-02-22T14:21:41Z</time>
      </trkpt>
      <trkpt lat="39.0786490" lon="1.4417670">
        <ele>17.7</ele>
        <time>2020-02-22T14:21:42Z</time>
      </trkpt>
      <trkpt lat="39.0786520" lon="1.4417830">
        <ele>17.9</ele>
        <time>2020-02-22T14:21:43Z</time>
      </trkpt>
      <trkpt lat="39.0786620" lon="1.4418190">
        <ele>18.5</ele>
        <time>2020-02-22T14:21:44Z</time>
      </trkpt>
      <trkpt lat="39.0786650" lon="1.4418360">
        <ele>18.8</ele>
        <time>2020-02-22T14:21:45Z</time>
      </trkpt>
      <trkpt lat="39.0786750" lon="1.4418810">
        <ele>19.4</ele>
        <time>2020-02-22T14:21:46Z</time>
      </trkpt>
      <trkpt lat="39.0786800" lon="1.4418950">
        <ele>19.6</ele>
        <time>2020-02-22T14:21:47Z</time>
      </trkpt>
      <trkpt lat="39.0786910" lon="1.4419220">
        <ele>19.9</ele>
        <time>2020-02-22T14:21:48Z</time>
      </trkpt>
      <trkpt lat="39.0787000" lon="1.4419290">
        <ele>20.1</ele>
        <time>2020-02-22T14:21:49Z</time>
      </trkpt>
      <trkpt lat="39.0787120" lon="1.4419500">
        <ele>20.4</ele>
        <time>2020-02-22T14:21:50Z</time>
      </trkpt>
      <trkpt lat="39.0787190" lon="1.4419570">
        <ele>20.5</ele>
        <time>2020-02-22T14:21:51Z</time>
      </trkpt>
      <trkpt lat="39.0787260" lon="1.4419650">
        <ele>20.6</ele>
        <time>2020-02-22T14:21:52Z</time>
      </trkpt>
      <trkpt lat="39.0787280" lon="1.4420040">
        <ele>21.1</ele>
        <time>2020-02-22T14:21:53Z</time>
      </trkpt>
      <trkpt lat="39.0787310" lon="1.4420150">
        <ele>21.3</ele>
        <time>2020-02-22T14:21:54Z</time>
      </trkpt>
      <trkpt lat="39.0787390" lon="1.4420460">
        <ele>21.8</ele>
        <time>2020-02-22T14:21:55Z</time>
      </trkpt>
      <trkpt lat="39.0787400" lon="1.4420620">
        <ele>22.1</ele>
        <time>2020-02-22T14:21:56Z</time>
      </trkpt>
      <trkpt lat="39.0787380" lon="1.4421030">
        <ele>22.6</ele>
        <time>2020-02-22T14:21:57Z</time>
      </trkpt>
      <trkpt lat="39.0787350" lon="1.4421170">
        <ele>22.8</ele>
        <time>2020-02-22T14:21:58Z</time>
      </trkpt>
      <trkpt lat="39.0787370" lon="1.4421300">
        <ele>22.9</ele>
        <time>2020-02-22T14:21:59Z</time>
      </trkpt>
      <trkpt lat="39.0787510" lon="1.4421500">
        <ele>23.2</ele>
        <time>2020-02-22T14:22:00Z</time>
      </trkpt>
      <trkpt lat="39.0787510" lon="1.4421870">
        <ele>23.6</ele>
        <time>2020-02-22T14:22:01Z</time>
      </trkpt>
      <trkpt lat="39.0787510" lon="1.4422010">
        <ele>23.8</ele>
        <time>2020-02-22T14:22:02Z</time>
      </trkpt>
      <trkpt lat="39.0787550" lon="1.4422350">
        <ele>24.2</ele>
        <time>2020-02-22T14:22:03Z</time>
      </trkpt>
      <trkpt lat="39.0787560" lon="1.4422510">
        <ele>24.3</ele>
        <time>2020-02-22T14:22:04Z</time>
      </trkpt>
      <trkpt lat="39.0787590" lon="1.4422670">
        <ele>24.6</ele>
        <time>2020-02-22T14:22:05Z</time>
      </trkpt>
      <trkpt lat="39.0787560" lon="1.4422860">
        <ele>24.9</ele>
        <time>2020-02-22T14:22:06Z</time>
      </trkpt>
      <trkpt lat="39.0787490" lon="1.4423260">
        <ele>25.6</ele>
        <time>2020-02-22T14:22:07Z</time>
      </trkpt>
      <trkpt lat="39.0787450" lon="1.4423440">
        <ele>25.9</ele>
        <time>2020-02-22T14:22:08Z</time>
      </trkpt>
      <trkpt lat="39.0787440" lon="1.4423720">
        <ele>26.3</ele>
        <time>2020-02-22T14:22:09Z</time>
      </trkpt>
      <trkpt lat="39.0787510" lon="1.4423840">
        <ele>26.5</ele>
        <time>2020-02-22T14:22:10Z</time>
      </trkpt>
      <trkpt lat="39.0787590" lon="1.4423970">
        <ele>26.7</ele>
        <time>2020-02-22T14:22:11Z</time>
      </trkpt>
      <trkpt lat="39.0787630" lon="1.4424390">
        <ele>27.3</ele>
        <time>2020-02-22T14:22:12Z</time>
      </trkpt>
      <trkpt lat="39.0787610" lon="1.4424540">
        <ele>27.5</ele>
        <time>2020-02-22T14:22:13Z</time>
      </trkpt>
      <trkpt lat="39.0787570" lon="1.4424900">
        <ele>28.0</ele>
        <time>2020-02-22T14:22:14Z</time>
      </trkpt>
      <trkpt lat="39.0787600" lon="1.4425020">
        <ele>28.2</ele>
        <time>2020-02-22T14:22:15Z</time>
      </trkpt>
      <trkpt lat="39.0787620" lon="1.4425140">
        <ele>28.4</ele>
        <time>2020-02-22T14:22:16Z</time>
      </trkpt>
      <trkpt lat="39.0787820" lon="1.4425470">
        <ele>28.9</ele>
        <time>2020-02-22T14:22:17Z</time>
      </trkpt>
      <trkpt lat="39.0787920" lon="1.4425540">
        <ele>29.1</ele>
        <time>2020-02-22T14:22:18Z</time>
      </trkpt>
      <trkpt lat="39.0788070" lon="1.4425580">
        <ele>29.4</ele>
        <time>2020-02-22T14:22:19Z</time>
      </trkpt>
      <trkpt lat="39.0788200" lon="1.4425760">
        <ele>29.8</ele>
        <time>2020-02-22T14:22:20Z</time>
      </trkpt>
      <trkpt lat="39.0788340" lon="1.4425840">
        <ele>30.0</ele>
        <time>2020-02-22T14:22:21Z</time>
      </trkpt>
      <trkpt lat="39.0788490" lon="1.4425900">
        <ele>30.2</ele>
        <time>2020-02-22T14:22:22Z</time>
      </trkpt>
      <trkpt lat="39.0788810" lon="1.4426090">
        <ele>30.6</ele>
        <time>2020-02-22T14:22:23Z</time>
      </trkpt>
      <trkpt lat="39.0788930" lon="1.4426140">
        <ele>30.7</ele>
        <time>2020-02-22T14:22:24Z</time>
      </trkpt>
      <trkpt lat="39.0789190" lon="1.4426370">
        <ele>31.1</ele>
        <time>2020-02-22T14:22:25Z</time>
      </trkpt>
      <trkpt lat="39.0789460" lon="1.4426600">
        <ele>31.5</ele>
        <time>2020-02-22T14:22:26Z</time>
      </trkpt>
      <trkpt lat="39.0789550" lon="1.4426670">
        <ele>31.6</ele>
        <time>2020-02-22T14:22:27Z</time>
      </trkpt>
      <trkpt lat="39.0789870" lon="1.4426870">
        <ele>32.0</ele>
        <time>2020-02-22T14:22:28Z</time>
      </trkpt>
      <trkpt lat="39.0789930" lon="1.4426970">
        <ele>32.1</ele>
        <time>2020-02-22T14:22:29Z</time>
      </trkpt>
      <trkpt lat="39.0790210" lon="1.4427140">
        <ele>32.5</ele>
        <time>2020-02-22T14:22:30Z</time>
      </trkpt>
      <trkpt lat="39.0790300" lon="1.4427200">
        <ele>32.6</ele>
        <time>2020-02-22T14:22:31Z</time>
      </trkpt>
      <trkpt lat="39.0790520" lon="1.4427490">
        <ele>32.9</ele>
        <time>2020-02-22T14:22:32Z</time>
      </trkpt>
      <trkpt lat="39.0790590" lon="1.4427560">
        <ele>33.0</ele>
        <time>2020-02-22T14:22:33Z</time>
      </trkpt>
      <trkpt lat="39.0790760" lon="1.4427570">
        <ele>33.2</ele>
        <time>2020-02-22T14:22:34Z</time>
      </trkpt>
      <trkpt lat="39.0790830" lon="1.4427800">
        <ele>33.4</ele>
        <time>2020-02-22T14:22:35Z</time>
      </trkpt>
      <trkpt lat="39.0790970" lon="1.4428140">
        <ele>33.8</ele>
        <time>2020-02-22T14:22:36Z</time>
      </trkpt>
      <trkpt lat="39.0791020" lon="1.4428280">
        <ele>33.9</ele>
        <time>2020-02-22T14:22:37Z</time>
      </trkpt>
      <trkpt lat="39.0791190" lon="1.4428600">
        <ele>34.2</ele>
        <time>2020-02-22T14:22:38Z</time>
      </trkpt>
      <trkpt lat="39.0791250" lon="1.4428720">
        <ele>34.4</ele>
        <time>2020-02-22T14:22:39Z</time>
      </trkpt>
      <trkpt lat="39.0791430" lon="1.4429050">
        <ele>34.8</ele>
        <time>2020-02-22T14:22:40Z</time>
      </trkpt>
      <trkpt lat="39.0791470" lon="1.4429160">
        <ele>35.0</ele>
        <time>2020-02-22T14:22:41Z</time>
      </trkpt>
      <trkpt lat="39.0791540" lon="1.4429390">
        <ele>35.3</ele>
        <time>2020-02-22T14:22:42Z</time>
      </trkpt>
      <trkpt lat="39.0791640" lon="1.4429440">
        <ele>35.5</ele>
        <time>2020-02-22T14:22:43Z</time>
      </trkpt>
      <trkpt lat="39.0791690" lon="1.4429640">
        <ele>35.7</ele>
        <time>2020-02-22T14:22:44Z</time>
      </trkpt>
      <trkpt lat="39.0791820" lon="1.4429740">
        <ele>36.0</ele>
        <time>2020-02-22T14:22:45Z</time>
      </trkpt>
      <trkpt lat="39.0792060" lon="1.4430060">
        <ele>36.6</ele>
        <time>2020-02-22T14:22:46Z</time>
      </trkpt>
      <trkpt lat="39.0792120" lon="1.4430160">
        <ele>36.7</ele>
        <time>2020-02-22T14:22:47Z</time>
      </trkpt>
      <trkpt lat="39.0792260" lon="1.4430460">
        <ele>37.2</ele>
        <time>2020-02-22T14:22:48Z</time>
      </trkpt>
      <trkpt lat="39.0792290" lon="1.4430600">
        <ele>37.4</ele>
        <time>2020-02-22T14:22:49Z</time>
      </trkpt>
      <trkpt lat="39.0792360" lon="1.4431030">
        <ele>38.1</ele>
        <time>2020-02-22T14:22:50Z</time>
      </trkpt>
      <trkpt lat="39.0792300" lon="1.4431160">
        <ele>38.4</ele>
        <time>2020-02-22T14:22:51Z</time>
      </trkpt>
      <trkpt lat="39.0792390" lon="1.4431360">
        <ele>38.8</ele>
        <time>2020-02-22T14:22:52Z</time>
      </trkpt>
      <trkpt lat="39.0792490" lon="1.4431440">
        <ele>39.0</ele>
        <time>2020-02-22T14:22:53Z</time>
      </trkpt>
      <trkpt lat="39.0792580" lon="1.4431550">
        <ele>39.2</ele>
        <time>2020-02-22T14:22:54Z</time>
      </trkpt>
      <trkpt lat="39.0792610" lon="1.4431780">
        <ele>39.6</ele>
        <time>2020-02-22T14:22:55Z</time>
      </trkpt>
      <trkpt lat="39.0792780" lon="1.4432110">
        <ele>40.1</ele>
        <time>2020-02-22T14:22:56Z</time>
      </trkpt>
      <trkpt lat="39.0792850" lon="1.4432180">
        <ele>40.3</ele>
        <time>2020-02-22T14:22:57Z</time>
      </trkpt>
      <trkpt lat="39.0793000" lon="1.4432330">
        <ele>40.6</ele>
        <time>2020-02-22T14:22:58Z</time>
      </trkpt>
      <trkpt lat="39.0793130" lon="1.4432370">
        <ele>40.8</ele>
        <time>2020-02-22T14:22:59Z</time>
      </trkpt>
      <trkpt lat="39.0793200" lon="1.4432490">
        <ele>40.9</ele>
        <time>2020-02-22T14:23:00Z</time>
      </trkpt>
      <trkpt lat="39.0793270" lon="1.4432710">
        <ele>41.2</ele>
        <time>2020-02-22T14:23:01Z</time>
      </trkpt>
      <trkpt lat="39.0793290" lon="1.4433040">
        <ele>41.5</ele>
        <time>2020-02-22T14:23:02Z</time>
      </trkpt>
      <trkpt lat="39.0793280" lon="1.4433180">
        <ele>41.6</ele>
        <time>2020-02-22T14:23:03Z</time>
      </trkpt>
      <trkpt lat="39.0793360" lon="1.4433370">
        <ele>41.8</ele>
        <time>2020-02-22T14:23:04Z</time>
      </trkpt>
      <trkpt lat="39.0793450" lon="1.4433570">
        <ele>42.0</ele>
        <time>2020-02-22T14:23:05Z</time>
      </trkpt>
      <trkpt lat="39.0793520" lon="1.4433680">
        <ele>42.2</ele>
        <time>2020-02-22T14:23:06Z</time>
      </trkpt>
      <trkpt lat="39.0793580" lon="1.4433890">
        <ele>42.4</ele>
        <time>2020-02-22T14:23:07Z</time>
      </trkpt>
      <trkpt lat="39.0793850" lon="1.4434110">
        <ele>42.8</ele>
        <time>2020-02-22T14:23:08Z</time>
      </trkpt>
      <trkpt lat="39.0793930" lon="1.4434150">
        <ele>42.9</ele>
        <time>2020-02-22T14:23:09Z</time>
      </trkpt>
      <trkpt lat="39.0794140" lon="1.4434410">
        <ele>42.8</ele>
        <time>2020-02-22T14:23:10Z</time>
      </trkpt>
      <trkpt lat="39.0794150" lon="1.4434560">
        <ele>42.7</ele>
        <time>2020-02-22T14:23:11Z</time>
      </trkpt>
      <trkpt lat="39.0794280" lon="1.4434710">
        <ele>42.7</ele>
        <time>2020-02-22T14:23:12Z</time>
      </trkpt>
      <trkpt lat="39.0794390" lon="1.4434800">
        <ele>42.6</ele>
        <time>2020-02-22T14:23:13Z</time>
      </trkpt>
      <trkpt lat="39.0794470" lon="1.4434860">
        <ele>42.6</ele>
        <time>2020-02-22T14:23:14Z</time>
      </trkpt>
      <trkpt lat="39.0794550" lon="1.4435010">
        <ele>42.5</ele>
        <time>2020-02-22T14:23:15Z</time>
      </trkpt>
      <trkpt lat="39.0794660" lon="1.4435190">
        <ele>42.4</ele>
        <time>2020-02-22T14:23:16Z</time>
      </trkpt>
      <trkpt lat="39.0794810" lon="1.4435120">
        <ele>42.4</ele>
        <time>2020-02-22T14:23:17Z</time>
      </trkpt>
      <trkpt lat="39.0794930" lon="1.4435110">
        <ele>42.3</ele>
        <time>2020-02-22T14:23:18Z</time>
      </trkpt>
      <trkpt lat="39.0795070" lon="1.4435160">
        <ele>42.3</ele>
        <time>2020-02-22T14:23:19Z</time>
      </trkpt>
      <trkpt lat="39.0795020" lon="1.4435080">
        <ele>42.2</ele>
        <time>2020-02-22T14:23:20Z</time>
      </trkpt>
      <trkpt lat="39.0794950" lon="1.4435010">
        <ele>42.2</ele>
        <time>2020-02-22T14:23:21Z</time>
      </trkpt>
      <trkpt lat="39.0794860" lon="1.4434970">
        <ele>42.1</ele>
        <time>2020-02-22T14:23:22Z</time>
      </trkpt>
      <trkpt lat="39.0794820" lon="1.4434880">
        <ele>42.1</ele>
        <time>2020-02-22T14:23:23Z</time>
      </trkpt>
      <trkpt lat="39.0794770" lon="1.4434750">
        <ele>42.1</ele>
        <time>2020-02-22T14:23:24Z</time>
      </trkpt>
      <trkpt lat="39.0794760" lon="1.4434780">
        <ele>42.1</ele>
        <time>2020-02-22T14:23:25Z</time>
      </trkpt>
      <trkpt lat="39.0794780" lon="1.4434710">
        <ele>42.0</ele>
        <time>2020-02-22T14:23:26Z</time>
      </trkpt>
      <trkpt lat="39.0794790" lon="1.4434700">
        <ele>42.0</ele>
        <time>2020-02-22T14:23:27Z</time>
      </trkpt>
      <trkpt lat="39.0794870" lon="1.4434800">
        <ele>42.0</ele>
        <time>2020-02-22T14:23:28Z</time>
      </trkpt>
      <trkpt lat="39.0794980" lon="1.4434820">
        <ele>41.9</ele>
        <time>2020-02-22T14:23:29Z</time>
      </trkpt>
      <trkpt lat="39.0794990" lon="1.4434860">
        <ele>41.9</ele>
        <time>2020-02-22T14:23:30Z</time>
      </trkpt>
      <trkpt lat="39.0795020" lon="1.4434900">
        <ele>41.9</ele>
        <time>2020-02-22T14:23:31Z</time>
      </trkpt>
      <trkpt lat="39.0795020" lon="1.4434900">
        <ele>41.9</ele>
        <time>2020-02-22T14:23:32Z</time>
      </trkpt>
      <trkpt lat="39.0795020" lon="1.4434900">
        <ele>41.9</ele>
        <time>2020-02-22T14:23:33Z</time>
      </trkpt>
      <trkpt lat="39.0795020" lon="1.4434900">
        <ele>41.9</ele>
        <time>2020-02-22T14:23:34Z</time>
      </trkpt>
      <trkpt lat="39.0795020" lon="1.4434900">
        <ele>41.9</ele>
        <time>2020-02-22T14:23:35Z</time>
      </trkpt>
      <trkpt lat="39.0795040" lon="1.4434940">
        <ele>41.9</ele>
        <time>2020-02-22T14:23:36Z</time>
      </trkpt>
      <trkpt lat="39.0795040" lon="1.4434940">
        <ele>41.9</ele>
        <time>2020-02-22T14:23:37Z</time>
      </trkpt>
      <trkpt lat="39.0795040" lon="1.4434950">
        <ele>41.9</ele>
        <time>2020-02-22T14:23:38Z</time>
      </trkpt>
      <trkpt lat="39.0795460" lon="1.4435260">
        <ele>41.7</ele>
        <time>2020-02-22T14:24:11Z</time>
      </trkpt>
      <trkpt lat="39.0795580" lon="1.4435410">
        <ele>41.6</ele>
        <time>2020-02-22T14:24:12Z</time>
      </trkpt>
      <trkpt lat="39.0795790" lon="1.4435720">
        <ele>41.5</ele>
        <time>2020-02-22T14:24:13Z</time>
      </trkpt>
      <trkpt lat="39.0795870" lon="1.4435810">
        <ele>41.5</ele>
        <time>2020-02-22T14:24:14Z</time>
      </trkpt>
      <trkpt lat="39.0796160" lon="1.4435980">
        <ele>41.3</ele>
        <time>2020-02-22T14:24:15Z</time>
      </trkpt>
      <trkpt lat="39.0796520" lon="1.4436210">
        <ele>41.2</ele>
        <time>2020-02-22T14:24:16Z</time>
      </trkpt>
      <trkpt lat="39.0796640" lon="1.4436300">
        <ele>41.2</ele>
        <time>2020-02-22T14:24:17Z</time>
      </trkpt>
      <trkpt lat="39.0796870" lon="1.4436510">
        <ele>41.1</ele>
        <time>2020-02-22T14:24:18Z</time>
      </trkpt>
      <trkpt lat="39.0797160" lon="1.4436690">
        <ele>41.0</ele>
        <time>2020-02-22T14:24:19Z</time>
      </trkpt>
      <trkpt lat="39.0797500" lon="1.4436850">
        <ele>41.0</ele>
        <time>2020-02-22T14:24:20Z</time>
      </trkpt>
      <trkpt lat="39.0797870" lon="1.4436920">
        <ele>41.0</ele>
        <time>2020-02-22T14:24:21Z</time>
      </trkpt>
      <trkpt lat="39.0798290" lon="1.4436890">
        <ele>41.0</ele>
        <time>2020-02-22T14:24:22Z</time>
      </trkpt>
      <trkpt lat="39.0798680" lon="1.4436720">
        <ele>41.0</ele>
        <time>2020-02-22T14:24:23Z</time>
      </trkpt>
      <trkpt lat="39.0798840" lon="1.4436530">
        <ele>41.0</ele>
        <time>2020-02-22T14:24:24Z</time>
      </trkpt>
      <trkpt lat="39.0799060" lon="1.4436090">
        <ele>41.0</ele>
        <time>2020-02-22T14:24:25Z</time>
      </trkpt>
      <trkpt lat="39.0799230" lon="1.4435680">
        <ele>41.0</ele>
        <time>2020-02-22T14:24:26Z</time>
      </trkpt>
      <trkpt lat="39.0799310" lon="1.4435300">
        <ele>41.0</ele>
        <time>2020-02-22T14:24:27Z</time>
      </trkpt>
      <trkpt lat="39.0799300" lon="1.4434890">
        <ele>41.0</ele>
        <time>2020-02-22T14:24:28Z</time>
      </trkpt>
      <trkpt lat="39.0799270" lon="1.4434430">
        <ele>41.0</ele>
        <time>2020-02-22T14:24:29Z</time>
      </trkpt>
      <trkpt lat="39.0799270" lon="1.4433960">
        <ele>41.1</ele>
        <time>2020-02-22T14:24:30Z</time>
      </trkpt>
      <trkpt lat="39.0799220" lon="1.4433470">
        <ele>41.1</ele>
        <time>2020-02-22T14:24:31Z</time>
      </trkpt>
      <trkpt lat="39.0799200" lon="1.4433320">
        <ele>41.1</ele>
        <time>2020-02-22T14:24:32Z</time>
      </trkpt>
      <trkpt lat="39.0799150" lon="1.4432890">
        <ele>41.1</ele>
        <time>2020-02-22T14:24:33Z</time>
      </trkpt>
      <trkpt lat="39.0799130" lon="1.4432750">
        <ele>41.2</ele>
        <time>2020-02-22T14:24:34Z</time>
      </trkpt>
      <trkpt lat="39.0799080" lon="1.4432280">
        <ele>41.2</ele>
        <time>2020-02-22T14:24:35Z</time>
      </trkpt>
      <trkpt lat="39.0799060" lon="1.4432110">
        <ele>41.2</ele>
        <time>2020-02-22T14:24:36Z</time>
      </trkpt>
      <trkpt lat="39.0799000" lon="1.4431580">
        <ele>41.3</ele>
        <time>2020-02-22T14:24:37Z</time>
      </trkpt>
      <trkpt lat="39.0798990" lon="1.4431380">
        <ele>41.3</ele>
        <time>2020-02-22T14:24:38Z</time>
      </trkpt>
      <trkpt lat="39.0798990" lon="1.4430910">
        <ele>41.3</ele>
        <time>2020-02-22T14:24:39Z</time>
      </trkpt>
      <trkpt lat="39.0798970" lon="1.4430530">
        <ele>41.3</ele>
        <time>2020-02-22T14:24:40Z</time>
      </trkpt>
      <trkpt lat="39.0798910" lon="1.4430180">
        <ele>41.3</ele>
        <time>2020-02-22T14:24:41Z</time>
      </trkpt>
      <trkpt lat="39.0798890" lon="1.4429780">
        <ele>41.3</ele>
        <time>2020-02-22T14:24:42Z</time>
      </trkpt>
      <trkpt lat="39.0798870" lon="1.4429390">
        <ele>41.3</ele>
        <time>2020-02-22T14:24:43Z</time>
      </trkpt>
      <trkpt lat="39.0798830" lon="1.4428940">
        <ele>41.2</ele>
        <time>2020-02-22T14:24:44Z</time>
      </trkpt>
      <trkpt lat="39.0798800" lon="1.4428550">
        <ele>41.2</ele>
        <time>2020-02-22T14:24:45Z</time>
      </trkpt>
      <trkpt lat="39.0798820" lon="1.4428170">
        <ele>41.1</ele>
        <time>2020-02-22T14:24:46Z</time>
      </trkpt>
      <trkpt lat="39.0798840" lon="1.4428050">
        <ele>41.1</ele>
        <time>2020-02-22T14:24:47Z</time>
      </trkpt>
      <trkpt lat="39.0798900" lon="1.4427710">
        <ele>41.1</ele>
        <time>2020-02-22T14:24:48Z</time>
      </trkpt>
      <trkpt lat="39.0798910" lon="1.4427540">
        <ele>41.1</ele>
        <time>2020-02-22T14:24:49Z</time>
      </trkpt>
      <trkpt lat="39.0798990" lon="1.4427120">
        <ele>41.0</ele>
        <time>2020-02-22T14:24:50Z</time>
      </trkpt>
      <trkpt lat="39.0799160" lon="1.4426790">
        <ele>40.9</ele>
        <time>2020-02-22T14:24:51Z</time>
      </trkpt>
      <trkpt lat="39.0799200" lon="1.4426650">
        <ele>40.9</ele>
        <time>2020-02-22T14:24:52Z</time>
      </trkpt>
      <trkpt lat="39.0799310" lon="1.4426280">
        <ele>40.8</ele>
        <time>2020-02-22T14:24:53Z</time>
      </trkpt>
      <trkpt lat="39.0799340" lon="1.4426130">
        <ele>40.8</ele>
        <time>2020-02-22T14:24:54Z</time>
      </trkpt>
      <trkpt lat="39.0799450" lon="1.4425800">
        <ele>40.8</ele>
        <time>2020-02-22T14:24:55Z</time>
      </trkpt>
      <trkpt lat="39.0799550" lon="1.4425380">
        <ele>40.7</ele>
        <time>2020-02-22T14:24:56Z</time>
      </trkpt>
      <trkpt lat="39.0799580" lon="1.4425230">
        <ele>40.7</ele>
        <time>2020-02-22T14:24:57Z</time>
      </trkpt>
      <trkpt lat="39.0799700" lon="1.4424840">
        <ele>40.6</ele>
        <time>2020-02-22T14:24:58Z</time>
      </trkpt>
      <trkpt lat="39.0799730" lon="1.4424700">
        <ele>40.5</ele>
        <time>2020-02-22T14:24:59Z</time>
      </trkpt>
      <trkpt lat="39.0799940" lon="1.4424320">
        <ele>40.4</ele>
        <time>2020-02-22T14:25:00Z</time>
      </trkpt>
      <trkpt lat="39.0800010" lon="1.4424190">
        <ele>40.4</ele>
        <time>2020-02-22T14:25:01Z</time>
      </trkpt>
      <trkpt lat="39.0800160" lon="1.4423830">
        <ele>40.2</ele>
        <time>2020-02-22T14:25:02Z</time>
      </trkpt>
      <trkpt lat="39.0800240" lon="1.4423740">
        <ele>40.2</ele>
        <time>2020-02-22T14:25:03Z</time>
      </trkpt>
      <trkpt lat="39.0800520" lon="1.4423470">
        <ele>40.0</ele>
        <time>2020-02-22T14:25:04Z</time>
      </trkpt>
      <trkpt lat="39.0800600" lon="1.4423380">
        <ele>40.0</ele>
        <time>2020-02-22T14:25:05Z</time>
      </trkpt>
      <trkpt lat="39.0800880" lon="1.4423010">
        <ele>39.8</ele>
        <time>2020-02-22T14:25:06Z</time>
      </trkpt>
      <trkpt lat="39.0800990" lon="1.4422890">
        <ele>39.8</ele>
        <time>2020-02-22T14:25:07Z</time>
      </trkpt>
      <trkpt lat="39.0801180" lon="1.4422530">
        <ele>39.6</ele>
        <time>2020-02-22T14:25:08Z</time>
      </trkpt>
      <trkpt lat="39.0801370" lon="1.4422260">
        <ele>39.5</ele>
        <time>2020-02-22T14:25:09Z</time>
      </trkpt>
      <trkpt lat="39.0801610" lon="1.4421950">
        <ele>39.3</ele>
        <time>2020-02-22T14:25:10Z</time>
      </trkpt>
      <trkpt lat="39.0801690" lon="1.4421850">
        <ele>39.3</ele>
        <time>2020-02-22T14:25:11Z</time>
      </trkpt>
      <trkpt lat="39.0801910" lon="1.4421610">
        <ele>39.1</ele>
        <time>2020-02-22T14:25:12Z</time>
      </trkpt>
      <trkpt lat="39.0802170" lon="1.4421380">
        <ele>38.9</ele>
        <time>2020-02-22T14:25:13Z</time>
      </trkpt>
      <trkpt lat="39.0802460" lon="1.4421280">
        <ele>38.8</ele>
        <time>2020-02-22T14:25:14Z</time>
      </trkpt>
      <trkpt lat="39.0802740" lon="1.4421240">
        <ele>38.6</ele>
        <time>2020-02-22T14:25:15Z</time>
      </trkpt>
      <trkpt lat="39.0803040" lon="1.4421260">
        <ele>38.5</ele>
        <time>2020-02-22T14:25:16Z</time>
      </trkpt>
      <trkpt lat="39.0803370" lon="1.4421230">
        <ele>38.3</ele>
        <time>2020-02-22T14:25:17Z</time>
      </trkpt>
      <trkpt lat="39.0803700" lon="1.4421120">
        <ele>38.1</ele>
        <time>2020-02-22T14:25:18Z</time>
      </trkpt>
      <trkpt lat="39.0804100" lon="1.4421120">
        <ele>37.8</ele>
        <time>2020-02-22T14:25:19Z</time>
      </trkpt>
      <trkpt lat="39.0804530" lon="1.4421040">
        <ele>37.6</ele>
        <time>2020-02-22T14:25:20Z</time>
      </trkpt>
      <trkpt lat="39.0805010" lon="1.4420950">
        <ele>37.3</ele>
        <time>2020-02-22T14:25:21Z</time>
      </trkpt>
      <trkpt lat="39.0805510" lon="1.4420860">
        <ele>37.0</ele>
        <time>2020-02-22T14:25:22Z</time>
      </trkpt>
      <trkpt lat="39.0806020" lon="1.4420770">
        <ele>36.8</ele>
        <time>2020-02-22T14:25:23Z</time>
      </trkpt>
      <trkpt lat="39.0806480" lon="1.4420680">
        <ele>36.5</ele>
        <time>2020-02-22T14:25:24Z</time>
      </trkpt>
      <trkpt lat="39.0806930" lon="1.4420590">
        <ele>36.4</ele>
        <time>2020-02-22T14:25:25Z</time>
      </trkpt>
      <trkpt lat="39.0807410" lon="1.4420440">
        <ele>36.1</ele>
        <time>2020-02-22T14:25:26Z</time>
      </trkpt>
      <trkpt lat="39.0807850" lon="1.4420320">
        <ele>36.0</ele>
        <time>2020-02-22T14:25:27Z</time>
      </trkpt>
      <trkpt lat="39.0808330" lon="1.4420130">
        <ele>35.8</ele>
        <time>2020-02-22T14:25:28Z</time>
      </trkpt>
      <trkpt lat="39.0808770" lon="1.4419900">
        <ele>35.7</ele>
        <time>2020-02-22T14:25:29Z</time>
      </trkpt>
      <trkpt lat="39.0809230" lon="1.4419650">
        <ele>35.6</ele>
        <time>2020-02-22T14:25:30Z</time>
      </trkpt>
      <trkpt lat="39.0809650" lon="1.4419480">
        <ele>35.5</ele>
        <time>2020-02-22T14:25:31Z</time>
      </trkpt>
      <trkpt lat="39.0810010" lon="1.4419230">
        <ele>35.4</ele>
        <time>2020-02-22T14:25:32Z</time>
      </trkpt>
      <trkpt lat="39.0810350" lon="1.4418990">
        <ele>35.4</ele>
        <time>2020-02-22T14:25:33Z</time>
      </trkpt>
      <trkpt lat="39.0810700" lon="1.4418800">
        <ele>35.4</ele>
        <time>2020-02-22T14:25:34Z</time>
      </trkpt>
      <trkpt lat="39.0811010" lon="1.4418600">
        <ele>35.4</ele>
        <time>2020-02-22T14:25:35Z</time>
      </trkpt>
      <trkpt lat="39.0811330" lon="1.4418540">
        <ele>35.4</ele>
        <time>2020-02-22T14:25:36Z</time>
      </trkpt>
      <trkpt lat="39.0811610" lon="1.4418570">
        <ele>35.5</ele>
        <time>2020-02-22T14:25:37Z</time>
      </trkpt>
      <trkpt lat="39.0811970" lon="1.4418530">
        <ele>35.6</ele>
        <time>2020-02-22T14:25:38Z</time>
      </trkpt>
      <trkpt lat="39.0812300" lon="1.4418480">
        <ele>35.6</ele>
        <time>2020-02-22T14:25:39Z</time>
      </trkpt>
      <trkpt lat="39.0812700" lon="1.4418460">
        <ele>35.8</ele>
        <time>2020-02-22T14:25:40Z</time>
      </trkpt>
      <trkpt lat="39.0812830" lon="1.4418450">
        <ele>35.8</ele>
        <time>2020-02-22T14:25:41Z</time>
      </trkpt>
      <trkpt lat="39.0813220" lon="1.4418370">
        <ele>35.9</ele>
        <time>2020-02-22T14:25:42Z</time>
      </trkpt>
      <trkpt lat="39.0813370" lon="1.4418360">
        <ele>36.0</ele>
        <time>2020-02-22T14:25:43Z</time>
      </trkpt>
      <trkpt lat="39.0813690" lon="1.4418410">
        <ele>36.1</ele>
        <time>2020-02-22T14:25:44Z</time>
      </trkpt>
      <trkpt lat="39.0814000" lon="1.4418320">
        <ele>36.2</ele>
        <time>2020-02-22T14:25:45Z</time>
      </trkpt>
      <trkpt lat="39.0814300" lon="1.4418230">
        <ele>36.2</ele>
        <time>2020-02-22T14:25:46Z</time>
      </trkpt>
      <trkpt lat="39.0814370" lon="1.4418260">
        <ele>36.3</ele>
        <time>2020-02-22T14:25:47Z</time>
      </trkpt>
      <trkpt lat="39.0814680" lon="1.4418230">
        <ele>36.3</ele>
        <time>2020-02-22T14:25:49Z</time>
      </trkpt>
      <trkpt lat="39.0814780" lon="1.4418240">
        <ele>36.4</ele>
        <time>2020-02-22T14:25:50Z</time>
      </trkpt>
      <trkpt lat="39.0815060" lon="1.4418240">
        <ele>36.4</ele>
        <time>2020-02-22T14:25:51Z</time>
      </trkpt>
      <trkpt lat="39.0815170" lon="1.4418260">
        <ele>36.5</ele>
        <time>2020-02-22T14:25:52Z</time>
      </trkpt>
      <trkpt lat="39.0815440" lon="1.4418310">
        <ele>36.6</ele>
        <time>2020-02-22T14:25:53Z</time>
      </trkpt>
      <trkpt lat="39.0815710" lon="1.4418410">
        <ele>36.6</ele>
        <time>2020-02-22T14:25:54Z</time>
      </trkpt>
      <trkpt lat="39.0816090" lon="1.4418480">
        <ele>36.7</ele>
        <time>2020-02-22T14:25:55Z</time>
      </trkpt>
      <trkpt lat="39.0816220" lon="1.4418510">
        <ele>36.7</ele>
        <time>2020-02-22T14:25:56Z</time>
      </trkpt>
      <trkpt lat="39.0816560" lon="1.4418510">
        <ele>36.8</ele>
        <time>2020-02-22T14:25:57Z</time>
      </trkpt>
      <trkpt lat="39.0816690" lon="1.4418520">
        <ele>36.9</ele>
        <time>2020-02-22T14:25:58Z</time>
      </trkpt>
      <trkpt lat="39.0817050" lon="1.4418610">
        <ele>36.9</ele>
        <time>2020-02-22T14:25:59Z</time>
      </trkpt>
      <trkpt lat="39.0817170" lon="1.4418620">
        <ele>37.0</ele>
        <time>2020-02-22T14:26:00Z</time>
      </trkpt>
      <trkpt lat="39.0817490" lon="1.4418660">
        <ele>37.0</ele>
        <time>2020-02-22T14:26:01Z</time>
      </trkpt>
      <trkpt lat="39.0817600" lon="1.4418680">
        <ele>37.0</ele>
        <time>2020-02-22T14:26:02Z</time>
      </trkpt>
      <trkpt lat="39.0817900" lon="1.4418560">
        <ele>37.1</ele>
        <time>2020-02-22T14:26:03Z</time>
      </trkpt>
      <trkpt lat="39.0818070" lon="1.4418560">
        <ele>37.1</ele>
        <time>2020-02-22T14:26:04Z</time>
      </trkpt>
      <trkpt lat="39.0818250" lon="1.4418550">
        <ele>37.1</ele>
        <time>2020-02-22T14:26:05Z</time>
      </trkpt>
      <trkpt lat="39.0818490" lon="1.4418280">
        <ele>37.2</ele>
        <time>2020-02-22T14:26:06Z</time>
      </trkpt>
      <trkpt lat="39.0818630" lon="1.4418210">
        <ele>37.2</ele>
        <time>2020-02-22T14:26:07Z</time>
      </trkpt>
      <trkpt lat="39.0818990" lon="1.4418230">
        <ele>37.3</ele>
        <time>2020-02-22T14:26:08Z</time>
      </trkpt>
      <trkpt lat="39.0819140" lon="1.4418270">
        <ele>37.4</ele>
        <time>2020-02-22T14:26:09Z</time>
      </trkpt>
      <trkpt lat="39.0819430" lon="1.4418420">
        <ele>37.4</ele>
        <time>2020-02-22T14:26:10Z</time>
      </trkpt>
      <trkpt lat="39.0819550" lon="1.4418510">
        <ele>37.4</ele>
        <time>2020-02-22T14:26:11Z</time>
      </trkpt>
      <trkpt lat="39.0819710" lon="1.4418830">
        <ele>37.5</ele>
        <time>2020-02-22T14:26:12Z</time>
      </trkpt>
      <trkpt lat="39.0819990" lon="1.4418950">
        <ele>37.6</ele>
        <time>2020-02-22T14:26:13Z</time>
      </trkpt>
      <trkpt lat="39.0820110" lon="1.4418960">
        <ele>37.6</ele>
        <time>2020-02-22T14:26:14Z</time>
      </trkpt>
      <trkpt lat="39.0820430" lon="1.4419070">
        <ele>37.7</ele>
        <time>2020-02-22T14:26:15Z</time>
      </trkpt>
      <trkpt lat="39.0820750" lon="1.4419020">
        <ele>37.8</ele>
        <time>2020-02-22T14:26:16Z</time>
      </trkpt>
      <trkpt lat="39.0820830" lon="1.4418990">
        <ele>37.8</ele>
        <time>2020-02-22T14:26:17Z</time>
      </trkpt>
      <trkpt lat="39.0821150" lon="1.4419070">
        <ele>37.9</ele>
        <time>2020-02-22T14:26:18Z</time>
      </trkpt>
      <trkpt lat="39.0821240" lon="1.4419130">
        <ele>37.9</ele>
        <time>2020-02-22T14:26:19Z</time>
      </trkpt>
      <trkpt lat="39.0821530" lon="1.4419290">
        <ele>38.0</ele>
        <time>2020-02-22T14:26:20Z</time>
      </trkpt>
      <trkpt lat="39.0821610" lon="1.4419350">
        <ele>38.0</ele>
        <time>2020-02-22T14:26:21Z</time>
      </trkpt>
      <trkpt lat="39.0821950" lon="1.4419410">
        <ele>38.1</ele>
        <time>2020-02-22T14:26:22Z</time>
      </trkpt>
      <trkpt lat="39.0822050" lon="1.4419430">
        <ele>38.1</ele>
        <time>2020-02-22T14:26:23Z</time>
      </trkpt>
      <trkpt lat="39.0822340" lon="1.4419520">
        <ele>38.2</ele>
        <time>2020-02-22T14:26:24Z</time>
      </trkpt>
      <trkpt lat="39.0822450" lon="1.4419530">
        <ele>38.3</ele>
        <time>2020-02-22T14:26:25Z</time>
      </trkpt>
      <trkpt lat="39.0822780" lon="1.4419580">
        <ele>38.3</ele>
        <time>2020-02-22T14:26:26Z</time>
      </trkpt>
      <trkpt lat="39.0822880" lon="1.4419590">
        <ele>38.4</ele>
        <time>2020-02-22T14:26:27Z</time>
      </trkpt>
      <trkpt lat="39.0823250" lon="1.4419680">
        <ele>38.5</ele>
        <time>2020-02-22T14:26:28Z</time>
      </trkpt>
      <trkpt lat="39.0823370" lon="1.4419700">
        <ele>38.5</ele>
        <time>2020-02-22T14:26:29Z</time>
      </trkpt>
      <trkpt lat="39.0823670" lon="1.4419800">
        <ele>38.6</ele>
        <time>2020-02-22T14:26:30Z</time>
      </trkpt>
      <trkpt lat="39.0823750" lon="1.4419860">
        <ele>38.6</ele>
        <time>2020-02-22T14:26:31Z</time>
      </trkpt>
      <trkpt lat="39.0824100" lon="1.4419970">
        <ele>38.8</ele>
        <time>2020-02-22T14:26:32Z</time>
      </trkpt>
      <trkpt lat="39.0824230" lon="1.4420000">
        <ele>38.8</ele>
        <time>2020-02-22T14:26:33Z</time>
      </trkpt>
      <trkpt lat="39.0824680" lon="1.4420180">
        <ele>39.0</ele>
        <time>2020-02-22T14:26:34Z</time>
      </trkpt>
      <trkpt lat="39.0824930" lon="1.4420220">
        <ele>39.1</ele>
        <time>2020-02-22T14:26:35Z</time>
      </trkpt>
      <trkpt lat="39.0825090" lon="1.4420240">
        <ele>39.2</ele>
        <time>2020-02-22T14:26:36Z</time>
      </trkpt>
      <trkpt lat="39.0825220" lon="1.4420300">
        <ele>39.3</ele>
        <time>2020-02-22T14:26:37Z</time>
      </trkpt>
      <trkpt lat="39.0825340" lon="1.4420350">
        <ele>39.3</ele>
        <time>2020-02-22T14:26:38Z</time>
      </trkpt>
      <trkpt lat="39.0825450" lon="1.4420410">
        <ele>39.4</ele>
        <time>2020-02-22T14:26:39Z</time>
      </trkpt>
      <trkpt lat="39.0825720" lon="1.4420450">
        <ele>39.5</ele>
        <time>2020-02-22T14:26:40Z</time>
      </trkpt>
      <trkpt lat="39.0825820" lon="1.4420460">
        <ele>39.5</ele>
        <time>2020-02-22T14:26:41Z</time>
      </trkpt>
      <trkpt lat="39.0826120" lon="1.4420610">
        <ele>39.6</ele>
        <time>2020-02-22T14:26:42Z</time>
      </trkpt>
      <trkpt lat="39.0826220" lon="1.4420680">
        <ele>39.7</ele>
        <time>2020-02-22T14:26:43Z</time>
      </trkpt>
      <trkpt lat="39.0826520" lon="1.4420990">
        <ele>39.8</ele>
        <time>2020-02-22T14:26:44Z</time>
      </trkpt>
      <trkpt lat="39.0826620" lon="1.4421090">
        <ele>39.9</ele>
        <time>2020-02-22T14:26:45Z</time>
      </trkpt>
      <trkpt lat="39.0826820" lon="1.4421250">
        <ele>40.0</ele>
        <time>2020-02-22T14:26:46Z</time>
      </trkpt>
      <trkpt lat="39.0826890" lon="1.4421260">
        <ele>40.0</ele>
        <time>2020-02-22T14:26:47Z</time>
      </trkpt>
      <trkpt lat="39.0826970" lon="1.4421270">
        <ele>40.0</ele>
        <time>2020-02-22T14:26:48Z</time>
      </trkpt>
      <trkpt lat="39.0827100" lon="1.4421370">
        <ele>40.1</ele>
        <time>2020-02-22T14:26:49Z</time>
      </trkpt>
      <trkpt lat="39.0827210" lon="1.4421390">
        <ele>40.1</ele>
        <time>2020-02-22T14:26:50Z</time>
      </trkpt>
      <trkpt lat="39.0827330" lon="1.4421410">
        <ele>40.2</ele>
        <time>2020-02-22T14:26:51Z</time>
      </trkpt>
      <trkpt lat="39.0827570" lon="1.4421540">
        <ele>40.2</ele>
        <time>2020-02-22T14:26:52Z</time>
      </trkpt>
      <trkpt lat="39.0827630" lon="1.4421640">
        <ele>40.3</ele>
        <time>2020-02-22T14:26:53Z</time>
      </trkpt>
      <trkpt lat="39.0827690" lon="1.4421730">
        <ele>40.3</ele>
        <time>2020-02-22T14:26:54Z</time>
      </trkpt>
      <trkpt lat="39.0827860" lon="1.4421870">
        <ele>40.4</ele>
        <time>2020-02-22T14:26:55Z</time>
      </trkpt>
      <trkpt lat="39.0827980" lon="1.4422000">
        <ele>40.4</ele>
        <time>2020-02-22T14:26:56Z</time>
      </trkpt>
      <trkpt lat="39.0828180" lon="1.4422270">
        <ele>40.5</ele>
        <time>2020-02-22T14:26:57Z</time>
      </trkpt>
      <trkpt lat="39.0828250" lon="1.4422420">
        <ele>40.6</ele>
        <time>2020-02-22T14:26:58Z</time>
      </trkpt>
      <trkpt lat="39.0828420" lon="1.4422800">
        <ele>40.7</ele>
        <time>2020-02-22T14:26:59Z</time>
      </trkpt>
      <trkpt lat="39.0828460" lon="1.4422890">
        <ele>40.8</ele>
        <time>2020-02-22T14:27:00Z</time>
      </trkpt>
      <trkpt lat="39.0828620" lon="1.4423280">
        <ele>40.9</ele>
        <time>2020-02-22T14:27:01Z</time>
      </trkpt>
      <trkpt lat="39.0828650" lon="1.4423390">
        <ele>40.9</ele>
        <time>2020-02-22T14:27:02Z</time>
      </trkpt>
      <trkpt lat="39.0828600" lon="1.4423740">
        <ele>41.0</ele>
        <time>2020-02-22T14:27:03Z</time>
      </trkpt>
      <trkpt lat="39.0828580" lon="1.4423910">
        <ele>41.1</ele>
        <time>2020-02-22T14:27:04Z</time>
      </trkpt>
      <trkpt lat="39.0828530" lon="1.4424260">
        <ele>42.8</ele>
        <time>2020-02-22T14:27:05Z</time>
      </trkpt>
      <trkpt lat="39.0828480" lon="1.4424390">
        <ele>43.1</ele>
        <time>2020-02-22T14:27:06Z</time>
      </trkpt>
      <trkpt lat="39.0828350" lon="1.4424690">
        <ele>43.9</ele>
        <time>2020-02-22T14:27:07Z</time>
      </trkpt>
      <trkpt lat="39.0828260" lon="1.4424810">
        <ele>44.2</ele>
        <time>2020-02-22T14:27:08Z</time>
      </trkpt>
      <trkpt lat="39.0828100" lon="1.4425130">
        <ele>45.0</ele>
        <time>2020-02-22T14:27:09Z</time>
      </trkpt>
      <trkpt lat="39.0827840" lon="1.4425380">
        <ele>45.9</ele>
        <time>2020-02-22T14:27:10Z</time>
      </trkpt>
      <trkpt lat="39.0827720" lon="1.4425480">
        <ele>46.2</ele>
        <time>2020-02-22T14:27:11Z</time>
      </trkpt>
      <trkpt lat="39.0827590" lon="1.4425620">
        <ele>46.6</ele>
        <time>2020-02-22T14:27:12Z</time>
      </trkpt>
      <trkpt lat="39.0827540" lon="1.4425560">
        <ele>46.7</ele>
        <time>2020-02-22T14:27:13Z</time>
      </trkpt>
      <trkpt lat="39.0827430" lon="1.4425510">
        <ele>47.0</ele>
        <time>2020-02-22T14:27:14Z</time>
      </trkpt>
      <trkpt lat="39.0827130" lon="1.4425600">
        <ele>47.7</ele>
        <time>2020-02-22T14:27:15Z</time>
      </trkpt>
      <trkpt lat="39.0827020" lon="1.4425650">
        <ele>47.9</ele>
        <time>2020-02-22T14:27:16Z</time>
      </trkpt>
      <trkpt lat="39.0826730" lon="1.4425650">
        <ele>48.5</ele>
        <time>2020-02-22T14:27:17Z</time>
      </trkpt>
      <trkpt lat="39.0826590" lon="1.4425650">
        <ele>48.8</ele>
        <time>2020-02-22T14:27:18Z</time>
      </trkpt>
      <trkpt lat="39.0826310" lon="1.4425600">
        <ele>49.4</ele>
        <time>2020-02-22T14:27:19Z</time>
      </trkpt>
      <trkpt lat="39.0826030" lon="1.4425620">
        <ele>50.0</ele>
        <time>2020-02-22T14:27:20Z</time>
      </trkpt>
      <trkpt lat="39.0825790" lon="1.4425490">
        <ele>50.5</ele>
        <time>2020-02-22T14:27:21Z</time>
      </trkpt>
      <trkpt lat="39.0825720" lon="1.4425490">
        <ele>50.6</ele>
        <time>2020-02-22T14:27:22Z</time>
      </trkpt>
      <trkpt lat="39.0825650" lon="1.4425480">
        <ele>50.8</ele>
        <time>2020-02-22T14:27:23Z</time>
      </trkpt>
      <trkpt lat="39.0825530" lon="1.4425580">
        <ele>51.1</ele>
        <time>2020-02-22T14:27:24Z</time>
      </trkpt>
      <trkpt lat="39.0825370" lon="1.4425540">
        <ele>51.4</ele>
        <time>2020-02-22T14:27:25Z</time>
      </trkpt>
      <trkpt lat="39.0825050" lon="1.4425530">
        <ele>52.0</ele>
        <time>2020-02-22T14:27:26Z</time>
      </trkpt>
      <trkpt lat="39.0824940" lon="1.4425530">
        <ele>52.2</ele>
        <time>2020-02-22T14:27:27Z</time>
      </trkpt>
      <trkpt lat="39.0824690" lon="1.4425460">
        <ele>52.7</ele>
        <time>2020-02-22T14:27:28Z</time>
      </trkpt>
      <trkpt lat="39.0824580" lon="1.4425440">
        <ele>53.0</ele>
        <time>2020-02-22T14:27:29Z</time>
      </trkpt>
      <trkpt lat="39.0824470" lon="1.4425360">
        <ele>53.2</ele>
        <time>2020-02-22T14:27:30Z</time>
      </trkpt>
      <trkpt lat="39.0824280" lon="1.4425220">
        <ele>53.7</ele>
        <time>2020-02-22T14:27:31Z</time>
      </trkpt>
      <trkpt lat="39.0823970" lon="1.4425220">
        <ele>54.3</ele>
        <time>2020-02-22T14:27:32Z</time>
      </trkpt>
      <trkpt lat="39.0823890" lon="1.4425210">
        <ele>54.5</ele>
        <time>2020-02-22T14:27:33Z</time>
      </trkpt>
      <trkpt lat="39.0823690" lon="1.4425180">
        <ele>54.9</ele>
        <time>2020-02-22T14:27:34Z</time>
      </trkpt>
      <trkpt lat="39.0823560" lon="1.4425150">
        <ele>55.2</ele>
        <time>2020-02-22T14:27:35Z</time>
      </trkpt>
      <trkpt lat="39.0823250" lon="1.4425220">
        <ele>55.8</ele>
        <time>2020-02-22T14:27:36Z</time>
      </trkpt>
      <trkpt lat="39.0823090" lon="1.4425220">
        <ele>56.1</ele>
        <time>2020-02-22T14:27:37Z</time>
      </trkpt>
      <trkpt lat="39.0822810" lon="1.4425320">
        <ele>56.7</ele>
        <time>2020-02-22T14:27:38Z</time>
      </trkpt>
      <trkpt lat="39.0822670" lon="1.4425380">
        <ele>57.0</ele>
        <time>2020-02-22T14:27:39Z</time>
      </trkpt>
      <trkpt lat="39.0822370" lon="1.4425370">
        <ele>57.6</ele>
        <time>2020-02-22T14:27:40Z</time>
      </trkpt>
      <trkpt lat="39.0822300" lon="1.4425370">
        <ele>57.7</ele>
        <time>2020-02-22T14:27:41Z</time>
      </trkpt>
      <trkpt lat="39.0822260" lon="1.4425190">
        <ele>58.0</ele>
        <time>2020-02-22T14:27:42Z</time>
      </trkpt>
      <trkpt lat="39.0822250" lon="1.4425080">
        <ele>58.2</ele>
        <time>2020-02-22T14:27:43Z</time>
      </trkpt>
      <trkpt lat="39.0822200" lon="1.4425040">
        <ele>58.3</ele>
        <time>2020-02-22T14:27:44Z</time>
      </trkpt>
      <trkpt lat="39.0822050" lon="1.4425090">
        <ele>58.6</ele>
        <time>2020-02-22T14:27:45Z</time>
      </trkpt>
      <trkpt lat="39.0821940" lon="1.4425230">
        <ele>58.8</ele>
        <time>2020-02-22T14:27:46Z</time>
      </trkpt>
      <trkpt lat="39.0821840" lon="1.4425370">
        <ele>59.1</ele>
        <time>2020-02-22T14:27:47Z</time>
      </trkpt>
      <trkpt lat="39.0821730" lon="1.4425520">
        <ele>59.4</ele>
        <time>2020-02-22T14:27:48Z</time>
      </trkpt>
      <trkpt lat="39.0821420" lon="1.4425510">
        <ele>60.0</ele>
        <time>2020-02-22T14:27:49Z</time>
      </trkpt>
      <trkpt lat="39.0821310" lon="1.4425480">
        <ele>60.3</ele>
        <time>2020-02-22T14:27:50Z</time>
      </trkpt>
      <trkpt lat="39.0821110" lon="1.4425480">
        <ele>60.7</ele>
        <time>2020-02-22T14:27:51Z</time>
      </trkpt>
      <trkpt lat="39.0821000" lon="1.4425400">
        <ele>60.9</ele>
        <time>2020-02-22T14:27:52Z</time>
      </trkpt>
      <trkpt lat="39.0820870" lon="1.4425340">
        <ele>61.1</ele>
        <time>2020-02-22T14:27:53Z</time>
      </trkpt>
      <trkpt lat="39.0820680" lon="1.4425260">
        <ele>61.5</ele>
        <time>2020-02-22T14:27:54Z</time>
      </trkpt>
      <trkpt lat="39.0820400" lon="1.4425180">
        <ele>62.0</ele>
        <time>2020-02-22T14:27:55Z</time>
      </trkpt>
      <trkpt lat="39.0820310" lon="1.4425180">
        <ele>62.2</ele>
        <time>2020-02-22T14:27:56Z</time>
      </trkpt>
      <trkpt lat="39.0820010" lon="1.4425340">
        <ele>62.8</ele>
        <time>2020-02-22T14:27:57Z</time>
      </trkpt>
      <trkpt lat="39.0819880" lon="1.4425440">
        <ele>63.0</ele>
        <time>2020-02-22T14:27:58Z</time>
      </trkpt>
      <trkpt lat="39.0819530" lon="1.4425630">
        <ele>63.7</ele>
        <time>2020-02-22T14:27:59Z</time>
      </trkpt>
      <trkpt lat="39.0819380" lon="1.4425650">
        <ele>64.0</ele>
        <time>2020-02-22T14:28:00Z</time>
      </trkpt>
      <trkpt lat="39.0819090" lon="1.4425840">
        <ele>64.6</ele>
        <time>2020-02-22T14:28:01Z</time>
      </trkpt>
      <trkpt lat="39.0819000" lon="1.4425900">
        <ele>64.8</ele>
        <time>2020-02-22T14:28:02Z</time>
      </trkpt>
      <trkpt lat="39.0818890" lon="1.4425970">
        <ele>65.0</ele>
        <time>2020-02-22T14:28:03Z</time>
      </trkpt>
      <trkpt lat="39.0818740" lon="1.4426040">
        <ele>65.3</ele>
        <time>2020-02-22T14:28:04Z</time>
      </trkpt>
      <trkpt lat="39.0818460" lon="1.4426240">
        <ele>66.0</ele>
        <time>2020-02-22T14:28:05Z</time>
      </trkpt>
      <trkpt lat="39.0818370" lon="1.4426310">
        <ele>66.2</ele>
        <time>2020-02-22T14:28:06Z</time>
      </trkpt>
      <trkpt lat="39.0818220" lon="1.4426390">
        <ele>66.5</ele>
        <time>2020-02-22T14:28:07Z</time>
      </trkpt>
      <trkpt lat="39.0818040" lon="1.4426490">
        <ele>66.9</ele>
        <time>2020-02-22T14:28:08Z</time>
      </trkpt>
      <trkpt lat="39.0817720" lon="1.4426810">
        <ele>67.8</ele>
        <time>2020-02-22T14:28:09Z</time>
      </trkpt>
      <trkpt lat="39.0817600" lon="1.4426930">
        <ele>68.0</ele>
        <time>2020-02-22T14:28:10Z</time>
      </trkpt>
      <trkpt lat="39.0817420" lon="1.4427330">
        <ele>68.7</ele>
        <time>2020-02-22T14:28:11Z</time>
      </trkpt>
      <trkpt lat="39.0817270" lon="1.4427680">
        <ele>69.3</ele>
        <time>2020-02-22T14:28:12Z</time>
      </trkpt>
      <trkpt lat="39.0817070" lon="1.4428110">
        <ele>70.0</ele>
        <time>2020-02-22T14:28:13Z</time>
      </trkpt>
      <trkpt lat="39.0817010" lon="1.4428230">
        <ele>70.2</ele>
        <time>2020-02-22T14:28:14Z</time>
      </trkpt>
      <trkpt lat="39.0816890" lon="1.4428610">
        <ele>70.7</ele>
        <time>2020-02-22T14:28:15Z</time>
      </trkpt>
      <trkpt lat="39.0816810" lon="1.4429020">
        <ele>71.3</ele>
        <time>2020-02-22T14:28:16Z</time>
      </trkpt>
      <trkpt lat="39.0816780" lon="1.4429130">
        <ele>71.4</ele>
        <time>2020-02-22T14:28:17Z</time>
      </trkpt>
      <trkpt lat="39.0816690" lon="1.4429520">
        <ele>71.8</ele>
        <time>2020-02-22T14:28:18Z</time>
      </trkpt>
      <trkpt lat="39.0816660" lon="1.4429650">
        <ele>71.9</ele>
        <time>2020-02-22T14:28:19Z</time>
      </trkpt>
      <trkpt lat="39.0816600" lon="1.4430080">
        <ele>72.4</ele>
        <time>2020-02-22T14:28:20Z</time>
      </trkpt>
      <trkpt lat="39.0816590" lon="1.4430200">
        <ele>72.5</ele>
        <time>2020-02-22T14:28:21Z</time>
      </trkpt>
      <trkpt lat="39.0816530" lon="1.4430550">
        <ele>72.9</ele>
        <time>2020-02-22T14:28:22Z</time>
      </trkpt>
      <trkpt lat="39.0816510" lon="1.4430950">
        <ele>73.5</ele>
        <time>2020-02-22T14:28:23Z</time>
      </trkpt>
      <trkpt lat="39.0816480" lon="1.4431320">
        <ele>74.0</ele>
        <time>2020-02-22T14:28:24Z</time>
      </trkpt>
      <trkpt lat="39.0816470" lon="1.4431480">
        <ele>74.2</ele>
        <time>2020-02-22T14:28:25Z</time>
      </trkpt>
      <trkpt lat="39.0816390" lon="1.4431940">
        <ele>74.8</ele>
        <time>2020-02-22T14:28:26Z</time>
      </trkpt>
      <trkpt lat="39.0816370" lon="1.4432070">
        <ele>75.0</ele>
        <time>2020-02-22T14:28:27Z</time>
      </trkpt>
      <trkpt lat="39.0816280" lon="1.4432520">
        <ele>75.7</ele>
        <time>2020-02-22T14:28:28Z</time>
      </trkpt>
      <trkpt lat="39.0816250" lon="1.4432650">
        <ele>75.9</ele>
        <time>2020-02-22T14:28:29Z</time>
      </trkpt>
      <trkpt lat="39.0816230" lon="1.4433110">
        <ele>76.5</ele>
        <time>2020-02-22T14:28:30Z</time>
      </trkpt>
      <trkpt lat="39.0816200" lon="1.4433270">
        <ele>76.7</ele>
        <time>2020-02-22T14:28:31Z</time>
      </trkpt>
      <trkpt lat="39.0816280" lon="1.4433610">
        <ele>77.1</ele>
        <time>2020-02-22T14:28:32Z</time>
      </trkpt>
      <trkpt lat="39.0816300" lon="1.4433740">
        <ele>77.3</ele>
        <time>2020-02-22T14:28:33Z</time>
      </trkpt>
      <trkpt lat="39.0816310" lon="1.4434230">
        <ele>77.8</ele>
        <time>2020-02-22T14:28:34Z</time>
      </trkpt>
      <trkpt lat="39.0816320" lon="1.4434400">
        <ele>78.0</ele>
        <time>2020-02-22T14:28:35Z</time>
      </trkpt>
      <trkpt lat="39.0816320" lon="1.4434820">
        <ele>78.5</ele>
        <time>2020-02-22T14:28:36Z</time>
      </trkpt>
      <trkpt lat="39.0816370" lon="1.4435330">
        <ele>79.3</ele>
        <time>2020-02-22T14:28:37Z</time>
      </trkpt>
      <trkpt lat="39.0816360" lon="1.4435530">
        <ele>79.6</ele>
        <time>2020-02-22T14:28:38Z</time>
      </trkpt>
      <trkpt lat="39.0816450" lon="1.4436100">
        <ele>80.4</ele>
        <time>2020-02-22T14:28:39Z</time>
      </trkpt>
      <trkpt lat="39.0816450" lon="1.4436370">
        <ele>80.8</ele>
        <time>2020-02-22T14:28:40Z</time>
      </trkpt>
      <trkpt lat="39.0816480" lon="1.4436770">
        <ele>81.3</ele>
        <time>2020-02-22T14:28:41Z</time>
      </trkpt>
      <trkpt lat="39.0816610" lon="1.4437200">
        <ele>82.0</ele>
        <time>2020-02-22T14:28:42Z</time>
      </trkpt>
      <trkpt lat="39.0816650" lon="1.4437370">
        <ele>82.3</ele>
        <time>2020-02-22T14:28:43Z</time>
      </trkpt>
      <trkpt lat="39.0816900" lon="1.4437680">
        <ele>83.0</ele>
        <time>2020-02-22T14:28:44Z</time>
      </trkpt>
      <trkpt lat="39.0817000" lon="1.4437780">
        <ele>83.2</ele>
        <time>2020-02-22T14:28:45Z</time>
      </trkpt>
      <trkpt lat="39.0817230" lon="1.4437990">
        <ele>83.7</ele>
        <time>2020-02-22T14:28:46Z</time>
      </trkpt>
      <trkpt lat="39.0817530" lon="1.4438120">
        <ele>83.9</ele>
        <time>2020-02-22T14:28:47Z</time>
      </trkpt>
      <trkpt lat="39.0817630" lon="1.4438150">
        <ele>83.7</ele>
        <time>2020-02-22T14:28:48Z</time>
      </trkpt>
      <trkpt lat="39.0818020" lon="1.4438090">
        <ele>83.1</ele>
        <time>2020-02-22T14:28:49Z</time>
      </trkpt>
      <trkpt lat="39.0818160" lon="1.4438090">
        <ele>82.9</ele>
        <time>2020-02-22T14:28:50Z</time>
      </trkpt>
      <trkpt lat="39.0818550" lon="1.4438170">
        <ele>82.2</ele>
        <time>2020-02-22T14:28:51Z</time>
      </trkpt>
      <trkpt lat="39.0818690" lon="1.4438230">
        <ele>82.0</ele>
        <time>2020-02-22T14:28:52Z</time>
      </trkpt>
      <trkpt lat="39.0818970" lon="1.4438310">
        <ele>81.5</ele>
        <time>2020-02-22T14:28:53Z</time>
      </trkpt>
      <trkpt lat="39.0819080" lon="1.4438350">
        <ele>81.3</ele>
        <time>2020-02-22T14:28:54Z</time>
      </trkpt>
      <trkpt lat="39.0819400" lon="1.4438430">
        <ele>80.9</ele>
        <time>2020-02-22T14:28:55Z</time>
      </trkpt>
      <trkpt lat="39.0819490" lon="1.4438450">
        <ele>80.8</ele>
        <time>2020-02-22T14:28:56Z</time>
      </trkpt>
      <trkpt lat="39.0819670" lon="1.4438550">
        <ele>80.6</ele>
        <time>2020-02-22T14:28:57Z</time>
      </trkpt>
      <trkpt lat="39.0819790" lon="1.4438610">
        <ele>80.5</ele>
        <time>2020-02-22T14:28:58Z</time>
      </trkpt>
      <trkpt lat="39.0820150" lon="1.4438780">
        <ele>80.2</ele>
        <time>2020-02-22T14:28:59Z</time>
      </trkpt>
      <trkpt lat="39.0820290" lon="1.4438810">
        <ele>80.1</ele>
        <time>2020-02-22T14:29:00Z</time>
      </trkpt>
      <trkpt lat="39.0820690" lon="1.4438890">
        <ele>79.7</ele>
        <time>2020-02-22T14:29:01Z</time>
      </trkpt>
      <trkpt lat="39.0820860" lon="1.4438920">
        <ele>79.6</ele>
        <time>2020-02-22T14:29:02Z</time>
      </trkpt>
      <trkpt lat="39.0821190" lon="1.4439040">
        <ele>79.4</ele>
        <time>2020-02-22T14:29:03Z</time>
      </trkpt>
      <trkpt lat="39.0821440" lon="1.4439200">
        <ele>79.2</ele>
        <time>2020-02-22T14:29:04Z</time>
      </trkpt>
      <trkpt lat="39.0821690" lon="1.4439500">
        <ele>79.0</ele>
        <time>2020-02-22T14:29:05Z</time>
      </trkpt>
      <trkpt lat="39.0821960" lon="1.4439650">
        <ele>78.9</ele>
        <time>2020-02-22T14:29:06Z</time>
      </trkpt>
      <trkpt lat="39.0822300" lon="1.4439900">
        <ele>78.7</ele>
        <time>2020-02-22T14:29:07Z</time>
      </trkpt>
      <trkpt lat="39.0822550" lon="1.4440040">
        <ele>78.5</ele>
        <time>2020-02-22T14:29:08Z</time>
      </trkpt>
      <trkpt lat="39.0822760" lon="1.4440520">
        <ele>78.3</ele>
        <time>2020-02-22T14:29:09Z</time>
      </trkpt>
      <trkpt lat="39.0822990" lon="1.4441010">
        <ele>78.0</ele>
        <time>2020-02-22T14:29:10Z</time>
      </trkpt>
      <trkpt lat="39.0823330" lon="1.4441380">
        <ele>77.7</ele>
        <time>2020-02-22T14:29:11Z</time>
      </trkpt>
      <trkpt lat="39.0823680" lon="1.4442010">
        <ele>77.2</ele>
        <time>2020-02-22T14:29:12Z</time>
      </trkpt>
      <trkpt lat="39.0824010" lon="1.4442750">
        <ele>76.9</ele>
        <time>2020-02-22T14:29:13Z</time>
      </trkpt>
      <trkpt lat="39.0824310" lon="1.4443610">
        <ele>76.5</ele>
        <time>2020-02-22T14:29:14Z</time>
      </trkpt>
      <trkpt lat="39.0824590" lon="1.4444420">
        <ele>76.2</ele>
        <time>2020-02-22T14:29:15Z</time>
      </trkpt>
      <trkpt lat="39.0824880" lon="1.4445090">
        <ele>76.0</ele>
        <time>2020-02-22T14:29:16Z</time>
      </trkpt>
      <trkpt lat="39.0825190" lon="1.4445640">
        <ele>75.7</ele>
        <time>2020-02-22T14:29:17Z</time>
      </trkpt>
      <trkpt lat="39.0825510" lon="1.4446310">
        <ele>75.5</ele>
        <time>2020-02-22T14:29:18Z</time>
      </trkpt>
      <trkpt lat="39.0825870" lon="1.4446910">
        <ele>75.3</ele>
        <time>2020-02-22T14:29:19Z</time>
      </trkpt>
      <trkpt lat="39.0826190" lon="1.4447620">
        <ele>75.3</ele>
        <time>2020-02-22T14:29:20Z</time>
      </trkpt>
      <trkpt lat="39.0826530" lon="1.4448200">
        <ele>75.4</ele>
        <time>2020-02-22T14:29:21Z</time>
      </trkpt>
      <trkpt lat="39.0826770" lon="1.4448810">
        <ele>75.5</ele>
        <time>2020-02-22T14:29:22Z</time>
      </trkpt>
      <trkpt lat="39.0827060" lon="1.4449370">
        <ele>75.7</ele>
        <time>2020-02-22T14:29:23Z</time>
      </trkpt>
      <trkpt lat="39.0827360" lon="1.4449970">
        <ele>75.9</ele>
        <time>2020-02-22T14:29:24Z</time>
      </trkpt>
      <trkpt lat="39.0827540" lon="1.4450410">
        <ele>76.1</ele>
        <time>2020-02-22T14:29:25Z</time>
      </trkpt>
      <trkpt lat="39.0827710" lon="1.4450930">
        <ele>76.2</ele>
        <time>2020-02-22T14:29:26Z</time>
      </trkpt>
      <trkpt lat="39.0827920" lon="1.4451340">
        <ele>76.3</ele>
        <time>2020-02-22T14:29:27Z</time>
      </trkpt>
      <trkpt lat="39.0828080" lon="1.4451760">
        <ele>76.3</ele>
        <time>2020-02-22T14:29:28Z</time>
      </trkpt>
      <trkpt lat="39.0828230" lon="1.4452150">
        <ele>76.4</ele>
        <time>2020-02-22T14:29:29Z</time>
      </trkpt>
      <trkpt lat="39.0828430" lon="1.4452500">
        <ele>76.4</ele>
        <time>2020-02-22T14:29:30Z</time>
      </trkpt>
      <trkpt lat="39.0828740" lon="1.4452920">
        <ele>76.4</ele>
        <time>2020-02-22T14:29:31Z</time>
      </trkpt>
      <trkpt lat="39.0829030" lon="1.4453190">
        <ele>76.4</ele>
        <time>2020-02-22T14:29:32Z</time>
      </trkpt>
      <trkpt lat="39.0829450" lon="1.4453470">
        <ele>76.4</ele>
        <time>2020-02-22T14:29:33Z</time>
      </trkpt>
      <trkpt lat="39.0829970" lon="1.4453620">
        <ele>76.5</ele>
        <time>2020-02-22T14:29:34Z</time>
      </trkpt>
      <trkpt lat="39.0830470" lon="1.4453720">
        <ele>76.6</ele>
        <time>2020-02-22T14:29:35Z</time>
      </trkpt>
      <trkpt lat="39.0831100" lon="1.4453700">
        <ele>76.9</ele>
        <time>2020-02-22T14:29:36Z</time>
      </trkpt>
      <trkpt lat="39.0831560" lon="1.4453660">
        <ele>77.1</ele>
        <time>2020-02-22T14:29:37Z</time>
      </trkpt>
      <trkpt lat="39.0831880" lon="1.4453580">
        <ele>77.4</ele>
        <time>2020-02-22T14:29:38Z</time>
      </trkpt>
      <trkpt lat="39.0832190" lon="1.4453440">
        <ele>77.6</ele>
        <time>2020-02-22T14:29:39Z</time>
      </trkpt>
      <trkpt lat="39.0832500" lon="1.4453300">
        <ele>77.9</ele>
        <time>2020-02-22T14:29:40Z</time>
      </trkpt>
      <trkpt lat="39.0832560" lon="1.4453250">
        <ele>77.9</ele>
        <time>2020-02-22T14:29:41Z</time>
      </trkpt>
      <trkpt lat="39.0832730" lon="1.4453140">
        <ele>78.0</ele>
        <time>2020-02-22T14:29:42Z</time>
      </trkpt>
      <trkpt lat="39.0832840" lon="1.4452940">
        <ele>78.2</ele>
        <time>2020-02-22T14:29:43Z</time>
      </trkpt>
      <trkpt lat="39.0833120" lon="1.4452710">
        <ele>78.4</ele>
        <time>2020-02-22T14:29:44Z</time>
      </trkpt>
      <trkpt lat="39.0833230" lon="1.4452650">
        <ele>78.5</ele>
        <time>2020-02-22T14:29:45Z</time>
      </trkpt>
      <trkpt lat="39.0833450" lon="1.4452300">
        <ele>78.7</ele>
        <time>2020-02-22T14:29:46Z</time>
      </trkpt>
      <trkpt lat="39.0833560" lon="1.4452180">
        <ele>78.8</ele>
        <time>2020-02-22T14:29:47Z</time>
      </trkpt>
      <trkpt lat="39.0833820" lon="1.4451810">
        <ele>79.0</ele>
        <time>2020-02-22T14:29:48Z</time>
      </trkpt>
      <trkpt lat="39.0833900" lon="1.4451670">
        <ele>79.2</ele>
        <time>2020-02-22T14:29:49Z</time>
      </trkpt>
      <trkpt lat="39.0833950" lon="1.4451380">
        <ele>79.4</ele>
        <time>2020-02-22T14:29:50Z</time>
      </trkpt>
      <trkpt lat="39.0834000" lon="1.4451230">
        <ele>79.5</ele>
        <time>2020-02-22T14:29:51Z</time>
      </trkpt>
      <trkpt lat="39.0834200" lon="1.4450900">
        <ele>79.9</ele>
        <time>2020-02-22T14:29:52Z</time>
      </trkpt>
      <trkpt lat="39.0834220" lon="1.4450820">
        <ele>79.9</ele>
        <time>2020-02-22T14:29:53Z</time>
      </trkpt>
      <trkpt lat="39.0834180" lon="1.4450690">
        <ele>80.0</ele>
        <time>2020-02-22T14:29:54Z</time>
      </trkpt>
      <trkpt lat="39.0834190" lon="1.4450550">
        <ele>80.2</ele>
        <time>2020-02-22T14:29:55Z</time>
      </trkpt>
      <trkpt lat="39.0834160" lon="1.4450390">
        <ele>80.3</ele>
        <time>2020-02-22T14:29:56Z</time>
      </trkpt>
      <trkpt lat="39.0834210" lon="1.4450170">
        <ele>80.5</ele>
        <time>2020-02-22T14:29:57Z</time>
      </trkpt>
      <trkpt lat="39.0834320" lon="1.4449970">
        <ele>80.7</ele>
        <time>2020-02-22T14:29:58Z</time>
      </trkpt>
      <trkpt lat="39.0834450" lon="1.4449620">
        <ele>81.0</ele>
        <time>2020-02-22T14:29:59Z</time>
      </trkpt>
      <trkpt lat="39.0834520" lon="1.4449450">
        <ele>81.1</ele>
        <time>2020-02-22T14:30:00Z</time>
      </trkpt>
      <trkpt lat="39.0834640" lon="1.4449080">
        <ele>81.3</ele>
        <time>2020-02-22T14:30:01Z</time>
      </trkpt>
      <trkpt lat="39.0834670" lon="1.4448950">
        <ele>81.4</ele>
        <time>2020-02-22T14:30:02Z</time>
      </trkpt>
      <trkpt lat="39.0834710" lon="1.4448620">
        <ele>81.6</ele>
        <time>2020-02-22T14:30:03Z</time>
      </trkpt>
      <trkpt lat="39.0834710" lon="1.4448480">
        <ele>81.7</ele>
        <time>2020-02-22T14:30:04Z</time>
      </trkpt>
      <trkpt lat="39.0834840" lon="1.4448140">
        <ele>81.9</ele>
        <time>2020-02-22T14:30:05Z</time>
      </trkpt>
      <trkpt lat="39.0834900" lon="1.4448010">
        <ele>82.0</ele>
        <time>2020-02-22T14:30:06Z</time>
      </trkpt>
      <trkpt lat="39.0834990" lon="1.4447850">
        <ele>82.1</ele>
        <time>2020-02-22T14:30:07Z</time>
      </trkpt>
      <trkpt lat="39.0835080" lon="1.4447730">
        <ele>82.2</ele>
        <time>2020-02-22T14:30:08Z</time>
      </trkpt>
      <trkpt lat="39.0835310" lon="1.4447550">
        <ele>82.5</ele>
        <time>2020-02-22T14:30:09Z</time>
      </trkpt>
      <trkpt lat="39.0835400" lon="1.4447490">
        <ele>82.5</ele>
        <time>2020-02-22T14:30:10Z</time>
      </trkpt>
      <trkpt lat="39.0835670" lon="1.4447370">
        <ele>82.8</ele>
        <time>2020-02-22T14:30:11Z</time>
      </trkpt>
      <trkpt lat="39.0835990" lon="1.4447130">
        <ele>83.0</ele>
        <time>2020-02-22T14:30:12Z</time>
      </trkpt>
      <trkpt lat="39.0836060" lon="1.4447010">
        <ele>83.2</ele>
        <time>2020-02-22T14:30:13Z</time>
      </trkpt>
      <trkpt lat="39.0836190" lon="1.4446950">
        <ele>83.3</ele>
        <time>2020-02-22T14:30:14Z</time>
      </trkpt>
      <trkpt lat="39.0836330" lon="1.4446970">
        <ele>83.5</ele>
        <time>2020-02-22T14:30:15Z</time>
      </trkpt>
      <trkpt lat="39.0836500" lon="1.4446960">
        <ele>83.7</ele>
        <time>2020-02-22T14:30:16Z</time>
      </trkpt>
      <trkpt lat="39.0836680" lon="1.4446880">
        <ele>83.8</ele>
        <time>2020-02-22T14:30:17Z</time>
      </trkpt>
      <trkpt lat="39.0836960" lon="1.4446960">
        <ele>84.1</ele>
        <time>2020-02-22T14:30:18Z</time>
      </trkpt>
      <trkpt lat="39.0837040" lon="1.4446970">
        <ele>84.1</ele>
        <time>2020-02-22T14:30:19Z</time>
      </trkpt>
      <trkpt lat="39.0837250" lon="1.4446990">
        <ele>84.3</ele>
        <time>2020-02-22T14:30:20Z</time>
      </trkpt>
      <trkpt lat="39.0837370" lon="1.4447120">
        <ele>84.4</ele>
        <time>2020-02-22T14:30:21Z</time>
      </trkpt>
      <trkpt lat="39.0837520" lon="1.4447200">
        <ele>84.5</ele>
        <time>2020-02-22T14:30:22Z</time>
      </trkpt>
      <trkpt lat="39.0837680" lon="1.4447140">
        <ele>84.6</ele>
        <time>2020-02-22T14:30:23Z</time>
      </trkpt>
      <trkpt lat="39.0837840" lon="1.4447200">
        <ele>84.8</ele>
        <time>2020-02-22T14:30:24Z</time>
      </trkpt>
      <trkpt lat="39.0837980" lon="1.4447380">
        <ele>85.0</ele>
        <time>2020-02-22T14:30:25Z</time>
      </trkpt>
      <trkpt lat="39.0838240" lon="1.4447580">
        <ele>85.4</ele>
        <time>2020-02-22T14:30:26Z</time>
      </trkpt>
      <trkpt lat="39.0838310" lon="1.4447620">
        <ele>85.5</ele>
        <time>2020-02-22T14:30:27Z</time>
      </trkpt>
      <trkpt lat="39.0838450" lon="1.4447700">
        <ele>85.6</ele>
        <time>2020-02-22T14:30:28Z</time>
      </trkpt>
      <trkpt lat="39.0838580" lon="1.4447870">
        <ele>85.9</ele>
        <time>2020-02-22T14:30:29Z</time>
      </trkpt>
      <trkpt lat="39.0838790" lon="1.4448160">
        <ele>86.2</ele>
        <time>2020-02-22T14:30:30Z</time>
      </trkpt>
      <trkpt lat="39.0838880" lon="1.4448250">
        <ele>86.3</ele>
        <time>2020-02-22T14:30:31Z</time>
      </trkpt>
      <trkpt lat="39.0839020" lon="1.4448380">
        <ele>86.5</ele>
        <time>2020-02-22T14:30:32Z</time>
      </trkpt>
      <trkpt lat="39.0839160" lon="1.4448520">
        <ele>86.8</ele>
        <time>2020-02-22T14:30:33Z</time>
      </trkpt>
      <trkpt lat="39.0839270" lon="1.4448710">
        <ele>87.0</ele>
        <time>2020-02-22T14:30:34Z</time>
      </trkpt>
      <trkpt lat="39.0839380" lon="1.4448820">
        <ele>87.1</ele>
        <time>2020-02-22T14:30:35Z</time>
      </trkpt>
      <trkpt lat="39.0839400" lon="1.4449040">
        <ele>87.4</ele>
        <time>2020-02-22T14:30:36Z</time>
      </trkpt>
      <trkpt lat="39.0839450" lon="1.4449210">
        <ele>87.5</ele>
        <time>2020-02-22T14:30:37Z</time>
      </trkpt>
      <trkpt lat="39.0839510" lon="1.4449580">
        <ele>87.8</ele>
        <time>2020-02-22T14:30:38Z</time>
      </trkpt>
      <trkpt lat="39.0839530" lon="1.4449690">
        <ele>87.9</ele>
        <time>2020-02-22T14:30:39Z</time>
      </trkpt>
      <trkpt lat="39.0839650" lon="1.4449930">
        <ele>88.2</ele>
        <time>2020-02-22T14:30:40Z</time>
      </trkpt>
      <trkpt lat="39.0839750" lon="1.4450040">
        <ele>88.3</ele>
        <time>2020-02-22T14:30:41Z</time>
      </trkpt>
      <trkpt lat="39.0839730" lon="1.4450120">
        <ele>88.4</ele>
        <time>2020-02-22T14:30:42Z</time>
      </trkpt>
      <trkpt lat="39.0839700" lon="1.4450320">
        <ele>88.6</ele>
        <time>2020-02-22T14:30:43Z</time>
      </trkpt>
      <trkpt lat="39.0839650" lon="1.4450440">
        <ele>88.7</ele>
        <time>2020-02-22T14:30:44Z</time>
      </trkpt>
      <trkpt lat="39.0839610" lon="1.4450910">
        <ele>89.1</ele>
        <time>2020-02-22T14:30:45Z</time>
      </trkpt>
      <trkpt lat="39.0839590" lon="1.4451050">
        <ele>89.2</ele>
        <time>2020-02-22T14:30:46Z</time>
      </trkpt>
      <trkpt lat="39.0839490" lon="1.4451250">
        <ele>89.3</ele>
        <time>2020-02-22T14:30:47Z</time>
      </trkpt>
      <trkpt lat="39.0839410" lon="1.4451420">
        <ele>89.5</ele>
        <time>2020-02-22T14:30:48Z</time>
      </trkpt>
      <trkpt lat="39.0839250" lon="1.4451750">
        <ele>89.7</ele>
        <time>2020-02-22T14:30:49Z</time>
      </trkpt>
      <trkpt lat="39.0839210" lon="1.4451910">
        <ele>89.8</ele>
        <time>2020-02-22T14:30:50Z</time>
      </trkpt>
      <trkpt lat="39.0839200" lon="1.4452380">
        <ele>90.1</ele>
        <time>2020-02-22T14:30:51Z</time>
      </trkpt>
      <trkpt lat="39.0839180" lon="1.4452530">
        <ele>90.2</ele>
        <time>2020-02-22T14:30:52Z</time>
      </trkpt>
      <trkpt lat="39.0839310" lon="1.4452880">
        <ele>90.4</ele>
        <time>2020-02-22T14:30:53Z</time>
      </trkpt>
      <trkpt lat="39.0839410" lon="1.4453010">
        <ele>90.6</ele>
        <time>2020-02-22T14:30:54Z</time>
      </trkpt>
      <trkpt lat="39.0839520" lon="1.4453430">
        <ele>90.9</ele>
        <time>2020-02-22T14:30:55Z</time>
      </trkpt>
      <trkpt lat="39.0839550" lon="1.4453560">
        <ele>91.0</ele>
        <time>2020-02-22T14:30:56Z</time>
      </trkpt>
      <trkpt lat="39.0839770" lon="1.4453780">
        <ele>91.2</ele>
        <time>2020-02-22T14:30:57Z</time>
      </trkpt>
      <trkpt lat="39.0839850" lon="1.4453840">
        <ele>91.3</ele>
        <time>2020-02-22T14:30:58Z</time>
      </trkpt>
      <trkpt lat="39.0840010" lon="1.4453850">
        <ele>91.5</ele>
        <time>2020-02-22T14:30:59Z</time>
      </trkpt>
      <trkpt lat="39.0840180" lon="1.4453980">
        <ele>91.7</ele>
        <time>2020-02-22T14:31:00Z</time>
      </trkpt>
      <trkpt lat="39.0840410" lon="1.4454110">
        <ele>91.9</ele>
        <time>2020-02-22T14:31:01Z</time>
      </trkpt>
      <trkpt lat="39.0840510" lon="1.4454140">
        <ele>92.0</ele>
        <time>2020-02-22T14:31:02Z</time>
      </trkpt>
      <trkpt lat="39.0840840" lon="1.4454150">
        <ele>92.4</ele>
        <time>2020-02-22T14:31:03Z</time>
      </trkpt>
      <trkpt lat="39.0840950" lon="1.4454140">
        <ele>92.5</ele>
        <time>2020-02-22T14:31:04Z</time>
      </trkpt>
      <trkpt lat="39.0841250" lon="1.4454110">
        <ele>92.9</ele>
        <time>2020-02-22T14:31:05Z</time>
      </trkpt>
      <trkpt lat="39.0841370" lon="1.4454090">
        <ele>93.0</ele>
        <time>2020-02-22T14:31:06Z</time>
      </trkpt>
      <trkpt lat="39.0841650" lon="1.4454090">
        <ele>93.4</ele>
        <time>2020-02-22T14:31:07Z</time>
      </trkpt>
      <trkpt lat="39.0841990" lon="1.4454020">
        <ele>93.8</ele>
        <time>2020-02-22T14:31:08Z</time>
      </trkpt>
      <trkpt lat="39.0842070" lon="1.4454000">
        <ele>93.8</ele>
        <time>2020-02-22T14:31:09Z</time>
      </trkpt>
      <trkpt lat="39.0842230" lon="1.4453970">
        <ele>94.0</ele>
        <time>2020-02-22T14:31:10Z</time>
      </trkpt>
      <trkpt lat="39.0842400" lon="1.4453990">
        <ele>94.2</ele>
        <time>2020-02-22T14:31:11Z</time>
      </trkpt>
      <trkpt lat="39.0842520" lon="1.4454050">
        <ele>94.3</ele>
        <time>2020-02-22T14:31:12Z</time>
      </trkpt>
      <trkpt lat="39.0842670" lon="1.4454200">
        <ele>94.5</ele>
        <time>2020-02-22T14:31:13Z</time>
      </trkpt>
      <trkpt lat="39.0842940" lon="1.4454160">
        <ele>94.7</ele>
        <time>2020-02-22T14:31:14Z</time>
      </trkpt>
      <trkpt lat="39.0843040" lon="1.4454180">
        <ele>94.8</ele>
        <time>2020-02-22T14:31:15Z</time>
      </trkpt>
      <trkpt lat="39.0843350" lon="1.4454170">
        <ele>95.3</ele>
        <time>2020-02-22T14:31:16Z</time>
      </trkpt>
      <trkpt lat="39.0843440" lon="1.4454190">
        <ele>95.4</ele>
        <time>2020-02-22T14:31:17Z</time>
      </trkpt>
      <trkpt lat="39.0843660" lon="1.4454410">
        <ele>95.8</ele>
        <time>2020-02-22T14:31:18Z</time>
      </trkpt>
      <trkpt lat="39.0843740" lon="1.4454490">
        <ele>95.9</ele>
        <time>2020-02-22T14:31:19Z</time>
      </trkpt>
      <trkpt lat="39.0843910" lon="1.4454430">
        <ele>96.7</ele>
        <time>2020-02-22T14:31:20Z</time>
      </trkpt>
      <trkpt lat="39.0844070" lon="1.4454500">
        <ele>96.9</ele>
        <time>2020-02-22T14:31:21Z</time>
      </trkpt>
      <trkpt lat="39.0844390" lon="1.4454670">
        <ele>97.2</ele>
        <time>2020-02-22T14:31:22Z</time>
      </trkpt>
      <trkpt lat="39.0844470" lon="1.4454720">
        <ele>97.2</ele>
        <time>2020-02-22T14:31:23Z</time>
      </trkpt>
      <trkpt lat="39.0844740" lon="1.4454900">
        <ele>97.5</ele>
        <time>2020-02-22T14:31:24Z</time>
      </trkpt>
      <trkpt lat="39.0844830" lon="1.4454960">
        <ele>97.6</ele>
        <time>2020-02-22T14:31:25Z</time>
      </trkpt>
      <trkpt lat="39.0845140" lon="1.4455070">
        <ele>97.8</ele>
        <time>2020-02-22T14:31:26Z</time>
      </trkpt>
      <trkpt lat="39.0845260" lon="1.4455120">
        <ele>97.9</ele>
        <time>2020-02-22T14:31:27Z</time>
      </trkpt>
      <trkpt lat="39.0845560" lon="1.4455330">
        <ele>98.2</ele>
        <time>2020-02-22T14:31:28Z</time>
      </trkpt>
      <trkpt lat="39.0845850" lon="1.4455420">
        <ele>98.5</ele>
        <time>2020-02-22T14:31:29Z</time>
      </trkpt>
      <trkpt lat="39.0846190" lon="1.4455390">
        <ele>98.7</ele>
        <time>2020-02-22T14:31:30Z</time>
      </trkpt>
      <trkpt lat="39.0846280" lon="1.4455380">
        <ele>98.8</ele>
        <time>2020-02-22T14:31:31Z</time>
      </trkpt>
      <trkpt lat="39.0846580" lon="1.4455540">
        <ele>99.1</ele>
        <time>2020-02-22T14:31:32Z</time>
      </trkpt>
      <trkpt lat="39.0846690" lon="1.4455580">
        <ele>99.2</ele>
        <time>2020-02-22T14:31:33Z</time>
      </trkpt>
      <trkpt lat="39.0847010" lon="1.4455770">
        <ele>99.5</ele>
        <time>2020-02-22T14:31:34Z</time>
      </trkpt>
      <trkpt lat="39.0847150" lon="1.4455810">
        <ele>99.6</ele>
        <time>2020-02-22T14:31:35Z</time>
      </trkpt>
      <trkpt lat="39.0847470" lon="1.4455900">
        <ele>99.8</ele>
        <time>2020-02-22T14:31:36Z</time>
      </trkpt>
      <trkpt lat="39.0847580" lon="1.4455930">
        <ele>99.9</ele>
        <time>2020-02-22T14:31:37Z</time>
      </trkpt>
      <trkpt lat="39.0847960" lon="1.4456080">
        <ele>100.3</ele>
        <time>2020-02-22T14:31:38Z</time>
      </trkpt>
      <trkpt lat="39.0848090" lon="1.4456170">
        <ele>100.3</ele>
        <time>2020-02-22T14:31:39Z</time>
      </trkpt>
      <trkpt lat="39.0848360" lon="1.4456340">
        <ele>100.2</ele>
        <time>2020-02-22T14:31:40Z</time>
      </trkpt>
      <trkpt lat="39.0848620" lon="1.4456480">
        <ele>100.2</ele>
        <time>2020-02-22T14:31:41Z</time>
      </trkpt>
      <trkpt lat="39.0848940" lon="1.4456770">
        <ele>100.2</ele>
        <time>2020-02-22T14:31:42Z</time>
      </trkpt>
      <trkpt lat="39.0849050" lon="1.4456850">
        <ele>100.2</ele>
        <time>2020-02-22T14:31:43Z</time>
      </trkpt>
      <trkpt lat="39.0849340" lon="1.4457050">
        <ele>100.2</ele>
        <time>2020-02-22T14:31:44Z</time>
      </trkpt>
      <trkpt lat="39.0849590" lon="1.4457280">
        <ele>100.2</ele>
        <time>2020-02-22T14:31:45Z</time>
      </trkpt>
      <trkpt lat="39.0849930" lon="1.4457460">
        <ele>100.1</ele>
        <time>2020-02-22T14:31:46Z</time>
      </trkpt>
      <trkpt lat="39.0850250" lon="1.4457590">
        <ele>100.1</ele>
        <time>2020-02-22T14:31:47Z</time>
      </trkpt>
      <trkpt lat="39.0850670" lon="1.4457770">
        <ele>100.0</ele>
        <time>2020-02-22T14:31:48Z</time>
      </trkpt>
      <trkpt lat="39.0851000" lon="1.4457960">
        <ele>100.0</ele>
        <time>2020-02-22T14:31:49Z</time>
      </trkpt>
      <trkpt lat="39.0851400" lon="1.4458080">
        <ele>99.9</ele>
        <time>2020-02-22T14:31:50Z</time>
      </trkpt>
      <trkpt lat="39.0851730" lon="1.4458200">
        <ele>99.8</ele>
        <time>2020-02-22T14:31:51Z</time>
      </trkpt>
      <trkpt lat="39.0852090" lon="1.4458260">
        <ele>99.8</ele>
        <time>2020-02-22T14:31:52Z</time>
      </trkpt>
      <trkpt lat="39.0852410" lon="1.4458530">
        <ele>99.7</ele>
        <time>2020-02-22T14:31:53Z</time>
      </trkpt>
      <trkpt lat="39.0852840" lon="1.4458810">
        <ele>99.6</ele>
        <time>2020-02-22T14:31:54Z</time>
      </trkpt>
      <trkpt lat="39.0853310" lon="1.4459090">
        <ele>99.5</ele>
        <time>2020-02-22T14:31:55Z</time>
      </trkpt>
      <trkpt lat="39.0853720" lon="1.4459310">
        <ele>99.4</ele>
        <time>2020-02-22T14:31:56Z</time>
      </trkpt>
      <trkpt lat="39.0854080" lon="1.4459550">
        <ele>99.3</ele>
        <time>2020-02-22T14:31:57Z</time>
      </trkpt>
      <trkpt lat="39.0854450" lon="1.4459770">
        <ele>99.3</ele>
        <time>2020-02-22T14:31:58Z</time>
      </trkpt>
      <trkpt lat="39.0854850" lon="1.4460100">
        <ele>99.2</ele>
        <time>2020-02-22T14:31:59Z</time>
      </trkpt>
      <trkpt lat="39.0855140" lon="1.4460510">
        <ele>99.1</ele>
        <time>2020-02-22T14:32:00Z</time>
      </trkpt>
      <trkpt lat="39.0855500" lon="1.4461040">
        <ele>99.0</ele>
        <time>2020-02-22T14:32:01Z</time>
      </trkpt>
      <trkpt lat="39.0855850" lon="1.4461410">
        <ele>99.0</ele>
        <time>2020-02-22T14:32:02Z</time>
      </trkpt>
      <trkpt lat="39.0856110" lon="1.4461790">
        <ele>98.9</ele>
        <time>2020-02-22T14:32:03Z</time>
      </trkpt>
      <trkpt lat="39.0856420" lon="1.4462270">
        <ele>98.8</ele>
        <time>2020-02-22T14:32:04Z</time>
      </trkpt>
      <trkpt lat="39.0856670" lon="1.4462650">
        <ele>98.7</ele>
        <time>2020-02-22T14:32:05Z</time>
      </trkpt>
      <trkpt lat="39.0856960" lon="1.4462940">
        <ele>98.6</ele>
        <time>2020-02-22T14:32:06Z</time>
      </trkpt>
      <trkpt lat="39.0857130" lon="1.4463330">
        <ele>98.4</ele>
        <time>2020-02-22T14:32:07Z</time>
      </trkpt>
      <trkpt lat="39.0857170" lon="1.4463700">
        <ele>98.3</ele>
        <time>2020-02-22T14:32:08Z</time>
      </trkpt>
      <trkpt lat="39.0857100" lon="1.4464200">
        <ele>98.2</ele>
        <time>2020-02-22T14:32:09Z</time>
      </trkpt>
      <trkpt lat="39.0857030" lon="1.4464630">
        <ele>98.1</ele>
        <time>2020-02-22T14:32:10Z</time>
      </trkpt>
      <trkpt lat="39.0857050" lon="1.4465110">
        <ele>98.0</ele>
        <time>2020-02-22T14:32:11Z</time>
      </trkpt>
      <trkpt lat="39.0857090" lon="1.4465590">
        <ele>97.8</ele>
        <time>2020-02-22T14:32:12Z</time>
      </trkpt>
      <trkpt lat="39.0857090" lon="1.4466050">
        <ele>97.7</ele>
        <time>2020-02-22T14:32:13Z</time>
      </trkpt>
      <trkpt lat="39.0857090" lon="1.4466590">
        <ele>97.6</ele>
        <time>2020-02-22T14:32:14Z</time>
      </trkpt>
      <trkpt lat="39.0857040" lon="1.4466950">
        <ele>97.5</ele>
        <time>2020-02-22T14:32:15Z</time>
      </trkpt>
      <trkpt lat="39.0857000" lon="1.4467400">
        <ele>97.4</ele>
        <time>2020-02-22T14:32:16Z</time>
      </trkpt>
      <trkpt lat="39.0856990" lon="1.4467850">
        <ele>97.3</ele>
        <time>2020-02-22T14:32:17Z</time>
      </trkpt>
      <trkpt lat="39.0856990" lon="1.4468380">
        <ele>97.2</ele>
        <time>2020-02-22T14:32:18Z</time>
      </trkpt>
      <trkpt lat="39.0857020" lon="1.4468590">
        <ele>97.2</ele>
        <time>2020-02-22T14:32:19Z</time>
      </trkpt>
      <trkpt lat="39.0857040" lon="1.4469090">
        <ele>97.1</ele>
        <time>2020-02-22T14:32:20Z</time>
      </trkpt>
      <trkpt lat="39.0857070" lon="1.4469550">
        <ele>97.0</ele>
        <time>2020-02-22T14:32:21Z</time>
      </trkpt>
      <trkpt lat="39.0857240" lon="1.4469950">
        <ele>96.9</ele>
        <time>2020-02-22T14:32:22Z</time>
      </trkpt>
      <trkpt lat="39.0857500" lon="1.4470270">
        <ele>96.8</ele>
        <time>2020-02-22T14:32:23Z</time>
      </trkpt>
      <trkpt lat="39.0857650" lon="1.4470620">
        <ele>96.7</ele>
        <time>2020-02-22T14:32:24Z</time>
      </trkpt>
      <trkpt lat="39.0857680" lon="1.4471120">
        <ele>96.6</ele>
        <time>2020-02-22T14:32:25Z</time>
      </trkpt>
      <trkpt lat="39.0857820" lon="1.4471640">
        <ele>96.5</ele>
        <time>2020-02-22T14:32:26Z</time>
      </trkpt>
      <trkpt lat="39.0857880" lon="1.4471840">
        <ele>96.4</ele>
        <time>2020-02-22T14:32:27Z</time>
      </trkpt>
      <trkpt lat="39.0858040" lon="1.4472190">
        <ele>96.3</ele>
        <time>2020-02-22T14:32:28Z</time>
      </trkpt>
      <trkpt lat="39.0858140" lon="1.4472550">
        <ele>96.2</ele>
        <time>2020-02-22T14:32:29Z</time>
      </trkpt>
      <trkpt lat="39.0858260" lon="1.4472970">
        <ele>96.1</ele>
        <time>2020-02-22T14:32:30Z</time>
      </trkpt>
      <trkpt lat="39.0858300" lon="1.4473330">
        <ele>96.0</ele>
        <time>2020-02-22T14:32:31Z</time>
      </trkpt>
      <trkpt lat="39.0858440" lon="1.4473620">
        <ele>95.9</ele>
        <time>2020-02-22T14:32:32Z</time>
      </trkpt>
      <trkpt lat="39.0858590" lon="1.4473950">
        <ele>95.8</ele>
        <time>2020-02-22T14:32:33Z</time>
      </trkpt>
      <trkpt lat="39.0858720" lon="1.4474310">
        <ele>95.7</ele>
        <time>2020-02-22T14:32:34Z</time>
      </trkpt>
      <trkpt lat="39.0858930" lon="1.4474790">
        <ele>95.5</ele>
        <time>2020-02-22T14:32:35Z</time>
      </trkpt>
      <trkpt lat="39.0859160" lon="1.4475160">
        <ele>95.4</ele>
        <time>2020-02-22T14:32:36Z</time>
      </trkpt>
      <trkpt lat="39.0859400" lon="1.4475360">
        <ele>95.3</ele>
        <time>2020-02-22T14:32:37Z</time>
      </trkpt>
      <trkpt lat="39.0859590" lon="1.4475820">
        <ele>95.1</ele>
        <time>2020-02-22T14:32:38Z</time>
      </trkpt>
      <trkpt lat="39.0859640" lon="1.4476010">
        <ele>95.1</ele>
        <time>2020-02-22T14:32:39Z</time>
      </trkpt>
      <trkpt lat="39.0859920" lon="1.4476420">
        <ele>94.9</ele>
        <time>2020-02-22T14:32:40Z</time>
      </trkpt>
      <trkpt lat="39.0860100" lon="1.4476730">
        <ele>94.8</ele>
        <time>2020-02-22T14:32:41Z</time>
      </trkpt>
      <trkpt lat="39.0860270" lon="1.4477050">
        <ele>94.7</ele>
        <time>2020-02-22T14:32:42Z</time>
      </trkpt>
      <trkpt lat="39.0860460" lon="1.4477320">
        <ele>94.6</ele>
        <time>2020-02-22T14:32:43Z</time>
      </trkpt>
      <trkpt lat="39.0860680" lon="1.4477750">
        <ele>94.5</ele>
        <time>2020-02-22T14:32:44Z</time>
      </trkpt>
      <trkpt lat="39.0860750" lon="1.4477940">
        <ele>94.4</ele>
        <time>2020-02-22T14:32:45Z</time>
      </trkpt>
      <trkpt lat="39.0860920" lon="1.4478300">
        <ele>94.2</ele>
        <time>2020-02-22T14:32:46Z</time>
      </trkpt>
      <trkpt lat="39.0861120" lon="1.4478700">
        <ele>94.1</ele>
        <time>2020-02-22T14:32:47Z</time>
      </trkpt>
      <trkpt lat="39.0861180" lon="1.4478830">
        <ele>94.0</ele>
        <time>2020-02-22T14:32:48Z</time>
      </trkpt>
      <trkpt lat="39.0861220" lon="1.4479050">
        <ele>94.0</ele>
        <time>2020-02-22T14:32:49Z</time>
      </trkpt>
      <trkpt lat="39.0861280" lon="1.4479240">
        <ele>93.9</ele>
        <time>2020-02-22T14:32:50Z</time>
      </trkpt>
      <trkpt lat="39.0861320" lon="1.4479450">
        <ele>93.8</ele>
        <time>2020-02-22T14:32:51Z</time>
      </trkpt>
      <trkpt lat="39.0861350" lon="1.4479690">
        <ele>93.7</ele>
        <time>2020-02-22T14:32:52Z</time>
      </trkpt>
      <trkpt lat="39.0861360" lon="1.4479920">
        <ele>93.7</ele>
        <time>2020-02-22T14:32:53Z</time>
      </trkpt>
      <trkpt lat="39.0861490" lon="1.4480010">
        <ele>93.6</ele>
        <time>2020-02-22T14:32:54Z</time>
      </trkpt>
      <trkpt lat="39.0861420" lon="1.4480350">
        <ele>93.5</ele>
        <time>2020-02-22T14:32:55Z</time>
      </trkpt>
      <trkpt lat="39.0861420" lon="1.4480750">
        <ele>93.3</ele>
        <time>2020-02-22T14:32:56Z</time>
      </trkpt>
      <trkpt lat="39.0861440" lon="1.4481080">
        <ele>93.2</ele>
        <time>2020-02-22T14:32:57Z</time>
      </trkpt>
      <trkpt lat="39.0861430" lon="1.4481250">
        <ele>93.2</ele>
        <time>2020-02-22T14:32:58Z</time>
      </trkpt>
      <trkpt lat="39.0861510" lon="1.4481530">
        <ele>93.1</ele>
        <time>2020-02-22T14:32:59Z</time>
      </trkpt>
      <trkpt lat="39.0861640" lon="1.4481620">
        <ele>93.0</ele>
        <time>2020-02-22T14:33:00Z</time>
      </trkpt>
      <trkpt lat="39.0861680" lon="1.4482120">
        <ele>92.9</ele>
        <time>2020-02-22T14:33:01Z</time>
      </trkpt>
      <trkpt lat="39.0861700" lon="1.4482290">
        <ele>92.8</ele>
        <time>2020-02-22T14:33:02Z</time>
      </trkpt>
      <trkpt lat="39.0861750" lon="1.4482570">
        <ele>92.8</ele>
        <time>2020-02-22T14:33:03Z</time>
      </trkpt>
      <trkpt lat="39.0861860" lon="1.4482650">
        <ele>92.7</ele>
        <time>2020-02-22T14:33:04Z</time>
      </trkpt>
      <trkpt lat="39.0861990" lon="1.4482750">
        <ele>92.7</ele>
        <time>2020-02-22T14:33:05Z</time>
      </trkpt>
      <trkpt lat="39.0862040" lon="1.4482810">
        <ele>92.7</ele>
        <time>2020-02-22T14:33:06Z</time>
      </trkpt>
      <trkpt lat="39.0862050" lon="1.4482830">
        <ele>92.6</ele>
        <time>2020-02-22T14:33:07Z</time>
      </trkpt>
      <trkpt lat="39.0862090" lon="1.4482900">
        <ele>92.6</ele>
        <time>2020-02-22T14:33:08Z</time>
      </trkpt>
      <trkpt lat="39.0862100" lon="1.4482920">
        <ele>92.6</ele>
        <time>2020-02-22T14:33:09Z</time>
      </trkpt>
      <trkpt lat="39.0862130" lon="1.4482960">
        <ele>92.6</ele>
        <time>2020-02-22T14:33:10Z</time>
      </trkpt>
      <trkpt lat="39.0862130" lon="1.4482960">
        <ele>92.6</ele>
        <time>2020-02-22T14:33:12Z</time>
      </trkpt>
      <trkpt lat="39.0862140" lon="1.4482970">
        <ele>92.6</ele>
        <time>2020-02-22T14:33:13Z</time>
      </trkpt>
      <trkpt lat="39.0862140" lon="1.4482970">
        <ele>92.6</ele>
        <time>2020-02-22T14:33:14Z</time>
      </trkpt>
      <trkpt lat="39.0862150" lon="1.4482980">
        <ele>92.6</ele>
        <time>2020-02-22T14:33:15Z</time>
      </trkpt>
      <trkpt lat="39.0862010" lon="1.4483560">
        <ele>92.4</ele>
        <time>2020-02-22T14:33:58Z</time>
      </trkpt>
      <trkpt lat="39.0862050" lon="1.4483700">
        <ele>92.4</ele>
        <time>2020-02-22T14:33:59Z</time>
      </trkpt>
      <trkpt lat="39.0862110" lon="1.4483800">
        <ele>92.4</ele>
        <time>2020-02-22T14:34:00Z</time>
      </trkpt>
      <trkpt lat="39.0862190" lon="1.4484200">
        <ele>92.3</ele>
        <time>2020-02-22T14:34:01Z</time>
      </trkpt>
      <trkpt lat="39.0862230" lon="1.4484300">
        <ele>92.3</ele>
        <time>2020-02-22T14:34:02Z</time>
      </trkpt>
      <trkpt lat="39.0862420" lon="1.4484570">
        <ele>92.2</ele>
        <time>2020-02-22T14:34:03Z</time>
      </trkpt>
      <trkpt lat="39.0862500" lon="1.4484700">
        <ele>92.2</ele>
        <time>2020-02-22T14:34:04Z</time>
      </trkpt>
      <trkpt lat="39.0862670" lon="1.4485120">
        <ele>92.1</ele>
        <time>2020-02-22T14:34:05Z</time>
      </trkpt>
      <trkpt lat="39.0862730" lon="1.4485270">
        <ele>92.1</ele>
        <time>2020-02-22T14:34:06Z</time>
      </trkpt>
      <trkpt lat="39.0862810" lon="1.4485610">
        <ele>92.0</ele>
        <time>2020-02-22T14:34:07Z</time>
      </trkpt>
      <trkpt lat="39.0862950" lon="1.4485930">
        <ele>92.0</ele>
        <time>2020-02-22T14:34:08Z</time>
      </trkpt>
      <trkpt lat="39.0863000" lon="1.4486020">
        <ele>91.9</ele>
        <time>2020-02-22T14:34:09Z</time>
      </trkpt>
      <trkpt lat="39.0863150" lon="1.4486230">
        <ele>91.9</ele>
        <time>2020-02-22T14:34:10Z</time>
      </trkpt>
      <trkpt lat="39.0863230" lon="1.4486320">
        <ele>91.9</ele>
        <time>2020-02-22T14:34:11Z</time>
      </trkpt>
      <trkpt lat="39.0863300" lon="1.4486420">
        <ele>91.9</ele>
        <time>2020-02-22T14:34:12Z</time>
      </trkpt>
      <trkpt lat="39.0863600" lon="1.4486690">
        <ele>91.8</ele>
        <time>2020-02-22T14:34:13Z</time>
      </trkpt>
      <trkpt lat="39.0863700" lon="1.4486780">
        <ele>91.8</ele>
        <time>2020-02-22T14:34:14Z</time>
      </trkpt>
      <trkpt lat="39.0863960" lon="1.4487090">
        <ele>91.8</ele>
        <time>2020-02-22T14:34:15Z</time>
      </trkpt>
      <trkpt lat="39.0864070" lon="1.4487180">
        <ele>91.8</ele>
        <time>2020-02-22T14:34:16Z</time>
      </trkpt>
      <trkpt lat="39.0864430" lon="1.4487460">
        <ele>91.8</ele>
        <time>2020-02-22T14:34:17Z</time>
      </trkpt>
      <trkpt lat="39.0864560" lon="1.4487600">
        <ele>91.8</ele>
        <time>2020-02-22T14:34:18Z</time>
      </trkpt>
      <trkpt lat="39.0864810" lon="1.4487960">
        <ele>91.8</ele>
        <time>2020-02-22T14:34:19Z</time>
      </trkpt>
      <trkpt lat="39.0865030" lon="1.4488210">
        <ele>91.9</ele>
        <time>2020-02-22T14:34:20Z</time>
      </trkpt>
      <trkpt lat="39.0865280" lon="1.4488410">
        <ele>91.9</ele>
        <time>2020-02-22T14:34:21Z</time>
      </trkpt>
      <trkpt lat="39.0865560" lon="1.4488690">
        <ele>91.9</ele>
        <time>2020-02-22T14:34:22Z</time>
      </trkpt>
      <trkpt lat="39.0865650" lon="1.4488770">
        <ele>92.0</ele>
        <time>2020-02-22T14:34:23Z</time>
      </trkpt>
      <trkpt lat="39.0865880" lon="1.4489190">
        <ele>92.0</ele>
        <time>2020-02-22T14:34:24Z</time>
      </trkpt>
      <trkpt lat="39.0865960" lon="1.4489330">
        <ele>92.1</ele>
        <time>2020-02-22T14:34:25Z</time>
      </trkpt>
      <trkpt lat="39.0866240" lon="1.4489640">
        <ele>92.2</ele>
        <time>2020-02-22T14:34:26Z</time>
      </trkpt>
      <trkpt lat="39.0866340" lon="1.4489750">
        <ele>92.2</ele>
        <time>2020-02-22T14:34:27Z</time>
      </trkpt>
      <trkpt lat="39.0866670" lon="1.4490060">
        <ele>92.3</ele>
        <time>2020-02-22T14:34:28Z</time>
      </trkpt>
      <trkpt lat="39.0866800" lon="1.4490170">
        <ele>92.3</ele>
        <time>2020-02-22T14:34:29Z</time>
      </trkpt>
      <trkpt lat="39.0867200" lon="1.4490470">
        <ele>92.5</ele>
        <time>2020-02-22T14:34:30Z</time>
      </trkpt>
      <trkpt lat="39.0867390" lon="1.4490560">
        <ele>92.6</ele>
        <time>2020-02-22T14:34:31Z</time>
      </trkpt>
      <trkpt lat="39.0867640" lon="1.4490730">
        <ele>92.7</ele>
        <time>2020-02-22T14:34:32Z</time>
      </trkpt>
      <trkpt lat="39.0867930" lon="1.4490810">
        <ele>92.8</ele>
        <time>2020-02-22T14:34:33Z</time>
      </trkpt>
      <trkpt lat="39.0868270" lon="1.4491120">
        <ele>92.9</ele>
        <time>2020-02-22T14:34:34Z</time>
      </trkpt>
      <trkpt lat="39.0868400" lon="1.4491230">
        <ele>93.0</ele>
        <time>2020-02-22T14:34:35Z</time>
      </trkpt>
      <trkpt lat="39.0868780" lon="1.4491450">
        <ele>93.1</ele>
        <time>2020-02-22T14:34:36Z</time>
      </trkpt>
      <trkpt lat="39.0869240" lon="1.4491750">
        <ele>93.3</ele>
        <time>2020-02-22T14:34:37Z</time>
      </trkpt>
      <trkpt lat="39.0869790" lon="1.4492050">
        <ele>93.5</ele>
        <time>2020-02-22T14:34:38Z</time>
      </trkpt>
      <trkpt lat="39.0870330" lon="1.4492270">
        <ele>93.7</ele>
        <time>2020-02-22T14:34:39Z</time>
      </trkpt>
      <trkpt lat="39.0870940" lon="1.4492380">
        <ele>93.9</ele>
        <time>2020-02-22T14:34:40Z</time>
      </trkpt>
      <trkpt lat="39.0871390" lon="1.4492540">
        <ele>94.1</ele>
        <time>2020-02-22T14:34:41Z</time>
      </trkpt>
      <trkpt lat="39.0871800" lon="1.4492700">
        <ele>94.1</ele>
        <time>2020-02-22T14:34:42Z</time>
      </trkpt>
      <trkpt lat="39.0872150" lon="1.4493030">
        <ele>94.2</ele>
        <time>2020-02-22T14:34:43Z</time>
      </trkpt>
      <trkpt lat="39.0872490" lon="1.4493470">
        <ele>94.3</ele>
        <time>2020-02-22T14:34:44Z</time>
      </trkpt>
      <trkpt lat="39.0872830" lon="1.4493940">
        <ele>94.3</ele>
        <time>2020-02-22T14:34:45Z</time>
      </trkpt>
      <trkpt lat="39.0873180" lon="1.4494440">
        <ele>94.3</ele>
        <time>2020-02-22T14:34:46Z</time>
      </trkpt>
      <trkpt lat="39.0873500" lon="1.4494960">
        <ele>94.3</ele>
        <time>2020-02-22T14:34:47Z</time>
      </trkpt>
      <trkpt lat="39.0873760" lon="1.4495490">
        <ele>94.3</ele>
        <time>2020-02-22T14:34:48Z</time>
      </trkpt>
      <trkpt lat="39.0873970" lon="1.4495960">
        <ele>94.3</ele>
        <time>2020-02-22T14:34:49Z</time>
      </trkpt>
      <trkpt lat="39.0874280" lon="1.4496500">
        <ele>94.2</ele>
        <time>2020-02-22T14:34:50Z</time>
      </trkpt>
      <trkpt lat="39.0874600" lon="1.4497120">
        <ele>94.1</ele>
        <time>2020-02-22T14:34:51Z</time>
      </trkpt>
      <trkpt lat="39.0874900" lon="1.4497730">
        <ele>94.1</ele>
        <time>2020-02-22T14:34:52Z</time>
      </trkpt>
      <trkpt lat="39.0875150" lon="1.4498330">
        <ele>94.0</ele>
        <time>2020-02-22T14:34:53Z</time>
      </trkpt>
      <trkpt lat="39.0875300" lon="1.4498840">
        <ele>93.9</ele>
        <time>2020-02-22T14:34:54Z</time>
      </trkpt>
      <trkpt lat="39.0875310" lon="1.4499340">
        <ele>93.8</ele>
        <time>2020-02-22T14:34:55Z</time>
      </trkpt>
      <trkpt lat="39.0875230" lon="1.4499500">
        <ele>93.8</ele>
        <time>2020-02-22T14:34:56Z</time>
      </trkpt>
      <trkpt lat="39.0874810" lon="1.4499870">
        <ele>93.7</ele>
        <time>2020-02-22T14:34:57Z</time>
      </trkpt>
      <trkpt lat="39.0874360" lon="1.4500250">
        <ele>93.6</ele>
        <time>2020-02-22T14:34:58Z</time>
      </trkpt>
      <trkpt lat="39.0873930" lon="1.4500630">
        <ele>93.5</ele>
        <time>2020-02-22T14:34:59Z</time>
      </trkpt>
      <trkpt lat="39.0873550" lon="1.4501070">
        <ele>93.3</ele>
        <time>2020-02-22T14:35:00Z</time>
      </trkpt>
      <trkpt lat="39.0873140" lon="1.4501390">
        <ele>93.2</ele>
        <time>2020-02-22T14:35:01Z</time>
      </trkpt>
      <trkpt lat="39.0872700" lon="1.4501860">
        <ele>93.0</ele>
        <time>2020-02-22T14:35:02Z</time>
      </trkpt>
      <trkpt lat="39.0872240" lon="1.4502340">
        <ele>92.9</ele>
        <time>2020-02-22T14:35:03Z</time>
      </trkpt>
      <trkpt lat="39.0871780" lon="1.4502820">
        <ele>92.8</ele>
        <time>2020-02-22T14:35:04Z</time>
      </trkpt>
      <trkpt lat="39.0871460" lon="1.4503140">
        <ele>92.8</ele>
        <time>2020-02-22T14:35:05Z</time>
      </trkpt>
      <trkpt lat="39.0871120" lon="1.4503480">
        <ele>92.7</ele>
        <time>2020-02-22T14:35:06Z</time>
      </trkpt>
      <trkpt lat="39.0870670" lon="1.4503860">
        <ele>92.7</ele>
        <time>2020-02-22T14:35:07Z</time>
      </trkpt>
      <trkpt lat="39.0870120" lon="1.4504390">
        <ele>92.7</ele>
        <time>2020-02-22T14:35:08Z</time>
      </trkpt>
      <trkpt lat="39.0869490" lon="1.4504990">
        <ele>92.7</ele>
        <time>2020-02-22T14:35:09Z</time>
      </trkpt>
      <trkpt lat="39.0868880" lon="1.4505560">
        <ele>92.6</ele>
        <time>2020-02-22T14:35:10Z</time>
      </trkpt>
      <trkpt lat="39.0868270" lon="1.4506000">
        <ele>92.6</ele>
        <time>2020-02-22T14:35:11Z</time>
      </trkpt>
      <trkpt lat="39.0867680" lon="1.4506330">
        <ele>92.6</ele>
        <time>2020-02-22T14:35:12Z</time>
      </trkpt>
      <trkpt lat="39.0867130" lon="1.4506730">
        <ele>92.6</ele>
        <time>2020-02-22T14:35:13Z</time>
      </trkpt>
      <trkpt lat="39.0866710" lon="1.4507360">
        <ele>92.6</ele>
        <time>2020-02-22T14:35:14Z</time>
      </trkpt>
      <trkpt lat="39.0866470" lon="1.4508200">
        <ele>91.9</ele>
        <time>2020-02-22T14:35:15Z</time>
      </trkpt>
      <trkpt lat="39.0866350" lon="1.4509180">
        <ele>88.9</ele>
        <time>2020-02-22T14:35:16Z</time>
      </trkpt>
      <trkpt lat="39.0866370" lon="1.4510000">
        <ele>86.3</ele>
        <time>2020-02-22T14:35:17Z</time>
      </trkpt>
      <trkpt lat="39.0866470" lon="1.4510800">
        <ele>84.4</ele>
        <time>2020-02-22T14:35:18Z</time>
      </trkpt>
      <trkpt lat="39.0866600" lon="1.4511710">
        <ele>82.5</ele>
        <time>2020-02-22T14:35:19Z</time>
      </trkpt>
      <trkpt lat="39.0866750" lon="1.4512660">
        <ele>80.3</ele>
        <time>2020-02-22T14:35:20Z</time>
      </trkpt>
      <trkpt lat="39.0866970" lon="1.4513410">
        <ele>77.6</ele>
        <time>2020-02-22T14:35:21Z</time>
      </trkpt>
      <trkpt lat="39.0867020" lon="1.4514520">
        <ele>75.5</ele>
        <time>2020-02-22T14:35:22Z</time>
      </trkpt>
      <trkpt lat="39.0866990" lon="1.4515480">
        <ele>73.7</ele>
        <time>2020-02-22T14:35:23Z</time>
      </trkpt>
      <trkpt lat="39.0866870" lon="1.4516510">
        <ele>71.8</ele>
        <time>2020-02-22T14:35:24Z</time>
      </trkpt>
      <trkpt lat="39.0867200" lon="1.4517490">
        <ele>70.1</ele>
        <time>2020-02-22T14:35:25Z</time>
      </trkpt>
      <trkpt lat="39.0867760" lon="1.4518330">
        <ele>68.4</ele>
        <time>2020-02-22T14:35:26Z</time>
      </trkpt>
      <trkpt lat="39.0868280" lon="1.4518950">
        <ele>66.9</ele>
        <time>2020-02-22T14:35:27Z</time>
      </trkpt>
      <trkpt lat="39.0868630" lon="1.4519670">
        <ele>65.6</ele>
        <time>2020-02-22T14:35:28Z</time>
      </trkpt>
      <trkpt lat="39.0868560" lon="1.4520450">
        <ele>64.3</ele>
        <time>2020-02-22T14:35:29Z</time>
      </trkpt>
      <trkpt lat="39.0868390" lon="1.4521200">
        <ele>63.7</ele>
        <time>2020-02-22T14:35:30Z</time>
      </trkpt>
      <trkpt lat="39.0868060" lon="1.4521820">
        <ele>63.0</ele>
        <time>2020-02-22T14:35:31Z</time>
      </trkpt>
      <trkpt lat="39.0867700" lon="1.4522460">
        <ele>62.3</ele>
        <time>2020-02-22T14:35:32Z</time>
      </trkpt>
      <trkpt lat="39.0867420" lon="1.4523220">
        <ele>61.8</ele>
        <time>2020-02-22T14:35:33Z</time>
      </trkpt>
      <trkpt lat="39.0867130" lon="1.4523950">
        <ele>61.5</ele>
        <time>2020-02-22T14:35:34Z</time>
      </trkpt>
      <trkpt lat="39.0866760" lon="1.4524630">
        <ele>61.3</ele>
        <time>2020-02-22T14:35:35Z</time>
      </trkpt>
      <trkpt lat="39.0866300" lon="1.4525230">
        <ele>61.3</ele>
        <time>2020-02-22T14:35:36Z</time>
      </trkpt>
      <trkpt lat="39.0865870" lon="1.4525760">
        <ele>61.3</ele>
        <time>2020-02-22T14:35:37Z</time>
      </trkpt>
      <trkpt lat="39.0865510" lon="1.4526360">
        <ele>61.3</ele>
        <time>2020-02-22T14:35:38Z</time>
      </trkpt>
      <trkpt lat="39.0865280" lon="1.4527100">
        <ele>61.3</ele>
        <time>2020-02-22T14:35:39Z</time>
      </trkpt>
      <trkpt lat="39.0865190" lon="1.4527870">
        <ele>61.3</ele>
        <time>2020-02-22T14:35:40Z</time>
      </trkpt>
      <trkpt lat="39.0865330" lon="1.4528670">
        <ele>61.3</ele>
        <time>2020-02-22T14:35:41Z</time>
      </trkpt>
      <trkpt lat="39.0865530" lon="1.4529320">
        <ele>61.3</ele>
        <time>2020-02-22T14:35:42Z</time>
      </trkpt>
      <trkpt lat="39.0865720" lon="1.4529870">
        <ele>61.3</ele>
        <time>2020-02-22T14:35:43Z</time>
      </trkpt>
      <trkpt lat="39.0865950" lon="1.4530330">
        <ele>61.3</ele>
        <time>2020-02-22T14:35:44Z</time>
      </trkpt>
      <trkpt lat="39.0866170" lon="1.4530670">
        <ele>61.3</ele>
        <time>2020-02-22T14:35:45Z</time>
      </trkpt>
      <trkpt lat="39.0866230" lon="1.4531010">
        <ele>61.3</ele>
        <time>2020-02-22T14:35:46Z</time>
      </trkpt>
      <trkpt lat="39.0866210" lon="1.4531360">
        <ele>61.3</ele>
        <time>2020-02-22T14:35:47Z</time>
      </trkpt>
      <trkpt lat="39.0866090" lon="1.4531820">
        <ele>61.3</ele>
        <time>2020-02-22T14:35:48Z</time>
      </trkpt>
      <trkpt lat="39.0866060" lon="1.4531970">
        <ele>61.4</ele>
        <time>2020-02-22T14:35:49Z</time>
      </trkpt>
      <trkpt lat="39.0865920" lon="1.4532320">
        <ele>61.4</ele>
        <time>2020-02-22T14:35:50Z</time>
      </trkpt>
      <trkpt lat="39.0865870" lon="1.4532430">
        <ele>61.4</ele>
        <time>2020-02-22T14:35:51Z</time>
      </trkpt>
      <trkpt lat="39.0865830" lon="1.4532860">
        <ele>61.5</ele>
        <time>2020-02-22T14:35:52Z</time>
      </trkpt>
      <trkpt lat="39.0865790" lon="1.4532990">
        <ele>61.5</ele>
        <time>2020-02-22T14:35:53Z</time>
      </trkpt>
      <trkpt lat="39.0865730" lon="1.4533430">
        <ele>61.7</ele>
        <time>2020-02-22T14:35:54Z</time>
      </trkpt>
      <trkpt lat="39.0865710" lon="1.4533580">
        <ele>61.7</ele>
        <time>2020-02-22T14:35:55Z</time>
      </trkpt>
      <trkpt lat="39.0865540" lon="1.4534000">
        <ele>61.9</ele>
        <time>2020-02-22T14:35:56Z</time>
      </trkpt>
      <trkpt lat="39.0865490" lon="1.4534120">
        <ele>62.0</ele>
        <time>2020-02-22T14:35:57Z</time>
      </trkpt>
      <trkpt lat="39.0865390" lon="1.4534520">
        <ele>62.1</ele>
        <time>2020-02-22T14:35:58Z</time>
      </trkpt>
      <trkpt lat="39.0865340" lon="1.4534660">
        <ele>62.2</ele>
        <time>2020-02-22T14:35:59Z</time>
      </trkpt>
      <trkpt lat="39.0865280" lon="1.4535010">
        <ele>62.4</ele>
        <time>2020-02-22T14:36:00Z</time>
      </trkpt>
      <trkpt lat="39.0865220" lon="1.4535130">
        <ele>62.5</ele>
        <time>2020-02-22T14:36:01Z</time>
      </trkpt>
      <trkpt lat="39.0865100" lon="1.4535490">
        <ele>62.7</ele>
        <time>2020-02-22T14:36:02Z</time>
      </trkpt>
      <trkpt lat="39.0865080" lon="1.4535620">
        <ele>62.8</ele>
        <time>2020-02-22T14:36:03Z</time>
      </trkpt>
      <trkpt lat="39.0865010" lon="1.4535820">
        <ele>62.9</ele>
        <time>2020-02-22T14:36:04Z</time>
      </trkpt>
      <trkpt lat="39.0864960" lon="1.4536000">
        <ele>63.0</ele>
        <time>2020-02-22T14:36:05Z</time>
      </trkpt>
      <trkpt lat="39.0864890" lon="1.4536200">
        <ele>63.1</ele>
        <time>2020-02-22T14:36:06Z</time>
      </trkpt>
      <trkpt lat="39.0864800" lon="1.4536410">
        <ele>63.3</ele>
        <time>2020-02-22T14:36:07Z</time>
      </trkpt>
      <trkpt lat="39.0864730" lon="1.4536630">
        <ele>63.5</ele>
        <time>2020-02-22T14:36:08Z</time>
      </trkpt>
      <trkpt lat="39.0864740" lon="1.4536830">
        <ele>63.6</ele>
        <time>2020-02-22T14:36:09Z</time>
      </trkpt>
      <trkpt lat="39.0864710" lon="1.4537190">
        <ele>63.8</ele>
        <time>2020-02-22T14:36:10Z</time>
      </trkpt>
      <trkpt lat="39.0864690" lon="1.4537330">
        <ele>63.9</ele>
        <time>2020-02-22T14:36:11Z</time>
      </trkpt>
      <trkpt lat="39.0864630" lon="1.4537830">
        <ele>64.3</ele>
        <time>2020-02-22T14:36:12Z</time>
      </trkpt>
      <trkpt lat="39.0864590" lon="1.4537980">
        <ele>64.4</ele>
        <time>2020-02-22T14:36:13Z</time>
      </trkpt>
      <trkpt lat="39.0864530" lon="1.4538380">
        <ele>64.7</ele>
        <time>2020-02-22T14:36:14Z</time>
      </trkpt>
      <trkpt lat="39.0864540" lon="1.4538550">
        <ele>64.9</ele>
        <time>2020-02-22T14:36:15Z</time>
      </trkpt>
      <trkpt lat="39.0864460" lon="1.4538930">
        <ele>65.2</ele>
        <time>2020-02-22T14:36:16Z</time>
      </trkpt>
      <trkpt lat="39.0864440" lon="1.4539040">
        <ele>65.2</ele>
        <time>2020-02-22T14:36:17Z</time>
      </trkpt>
      <trkpt lat="39.0864310" lon="1.4539420">
        <ele>65.7</ele>
        <time>2020-02-22T14:36:18Z</time>
      </trkpt>
      <trkpt lat="39.0864280" lon="1.4539520">
        <ele>65.8</ele>
        <time>2020-02-22T14:36:19Z</time>
      </trkpt>
      <trkpt lat="39.0864250" lon="1.4539890">
        <ele>66.2</ele>
        <time>2020-02-22T14:36:20Z</time>
      </trkpt>
      <trkpt lat="39.0864230" lon="1.4540000">
        <ele>66.3</ele>
        <time>2020-02-22T14:36:21Z</time>
      </trkpt>
      <trkpt lat="39.0864180" lon="1.4540400">
        <ele>66.7</ele>
        <time>2020-02-22T14:36:22Z</time>
      </trkpt>
      <trkpt lat="39.0864160" lon="1.4540530">
        <ele>66.9</ele>
        <time>2020-02-22T14:36:23Z</time>
      </trkpt>
      <trkpt lat="39.0864090" lon="1.4540970">
        <ele>67.4</ele>
        <time>2020-02-22T14:36:24Z</time>
      </trkpt>
      <trkpt lat="39.0864060" lon="1.4541120">
        <ele>67.6</ele>
        <time>2020-02-22T14:36:25Z</time>
      </trkpt>
      <trkpt lat="39.0863880" lon="1.4541460">
        <ele>68.1</ele>
        <time>2020-02-22T14:36:26Z</time>
      </trkpt>
      <trkpt lat="39.0863820" lon="1.4541570">
        <ele>68.3</ele>
        <time>2020-02-22T14:36:27Z</time>
      </trkpt>
      <trkpt lat="39.0863580" lon="1.4541980">
        <ele>68.9</ele>
        <time>2020-02-22T14:36:28Z</time>
      </trkpt>
      <trkpt lat="39.0863500" lon="1.4542120">
        <ele>69.1</ele>
        <time>2020-02-22T14:36:29Z</time>
      </trkpt>
      <trkpt lat="39.0863400" lon="1.4542610">
        <ele>69.5</ele>
        <time>2020-02-22T14:36:30Z</time>
      </trkpt>
      <trkpt lat="39.0863370" lon="1.4542770">
        <ele>69.7</ele>
        <time>2020-02-22T14:36:31Z</time>
      </trkpt>
      <trkpt lat="39.0863220" lon="1.4543170">
        <ele>70.0</ele>
        <time>2020-02-22T14:36:32Z</time>
      </trkpt>
      <trkpt lat="39.0863160" lon="1.4543300">
        <ele>70.1</ele>
        <time>2020-02-22T14:36:33Z</time>
      </trkpt>
      <trkpt lat="39.0863040" lon="1.4543680">
        <ele>70.4</ele>
        <time>2020-02-22T14:36:34Z</time>
      </trkpt>
      <trkpt lat="39.0862980" lon="1.4543790">
        <ele>70.5</ele>
        <time>2020-02-22T14:36:35Z</time>
      </trkpt>
      <trkpt lat="39.0862780" lon="1.4544170">
        <ele>70.8</ele>
        <time>2020-02-22T14:36:36Z</time>
      </trkpt>
      <trkpt lat="39.0862700" lon="1.4544290">
        <ele>70.9</ele>
        <time>2020-02-22T14:36:37Z</time>
      </trkpt>
      <trkpt lat="39.0862510" lon="1.4544740">
        <ele>71.2</ele>
        <time>2020-02-22T14:36:38Z</time>
      </trkpt>
      <trkpt lat="39.0862440" lon="1.4544890">
        <ele>71.6</ele>
        <time>2020-02-22T14:36:39Z</time>
      </trkpt>
      <trkpt lat="39.0862230" lon="1.4545250">
        <ele>71.9</ele>
        <time>2020-02-22T14:36:40Z</time>
      </trkpt>
      <trkpt lat="39.0862160" lon="1.4545370">
        <ele>72.0</ele>
        <time>2020-02-22T14:36:41Z</time>
      </trkpt>
      <trkpt lat="39.0862020" lon="1.4545710">
        <ele>72.1</ele>
        <time>2020-02-22T14:36:42Z</time>
      </trkpt>
      <trkpt lat="39.0861810" lon="1.4546090">
        <ele>72.3</ele>
        <time>2020-02-22T14:36:43Z</time>
      </trkpt>
      <trkpt lat="39.0861530" lon="1.4546470">
        <ele>72.5</ele>
        <time>2020-02-22T14:36:44Z</time>
      </trkpt>
      <trkpt lat="39.0861160" lon="1.4546800">
        <ele>72.8</ele>
        <time>2020-02-22T14:36:45Z</time>
      </trkpt>
      <trkpt lat="39.0860750" lon="1.4547040">
        <ele>73.0</ele>
        <time>2020-02-22T14:36:46Z</time>
      </trkpt>
      <trkpt lat="39.0860210" lon="1.4547350">
        <ele>73.4</ele>
        <time>2020-02-22T14:36:47Z</time>
      </trkpt>
      <trkpt lat="39.0859800" lon="1.4547630">
        <ele>73.6</ele>
        <time>2020-02-22T14:36:48Z</time>
      </trkpt>
      <trkpt lat="39.0859360" lon="1.4548060">
        <ele>73.7</ele>
        <time>2020-02-22T14:36:49Z</time>
      </trkpt>
      <trkpt lat="39.0858960" lon="1.4548430">
        <ele>73.8</ele>
        <time>2020-02-22T14:36:50Z</time>
      </trkpt>
      <trkpt lat="39.0858490" lon="1.4548740">
        <ele>73.7</ele>
        <time>2020-02-22T14:36:51Z</time>
      </trkpt>
      <trkpt lat="39.0858060" lon="1.4549430">
        <ele>73.6</ele>
        <time>2020-02-22T14:36:52Z</time>
      </trkpt>
      <trkpt lat="39.0857510" lon="1.4550110">
        <ele>73.5</ele>
        <time>2020-02-22T14:36:53Z</time>
      </trkpt>
      <trkpt lat="39.0857050" lon="1.4550830">
        <ele>73.3</ele>
        <time>2020-02-22T14:36:54Z</time>
      </trkpt>
      <trkpt lat="39.0856450" lon="1.4551590">
        <ele>73.0</ele>
        <time>2020-02-22T14:36:55Z</time>
      </trkpt>
      <trkpt lat="39.0855900" lon="1.4552340">
        <ele>72.7</ele>
        <time>2020-02-22T14:36:56Z</time>
      </trkpt>
      <trkpt lat="39.0855370" lon="1.4553010">
        <ele>72.3</ele>
        <time>2020-02-22T14:36:57Z</time>
      </trkpt>
      <trkpt lat="39.0854770" lon="1.4553520">
        <ele>71.8</ele>
        <time>2020-02-22T14:36:58Z</time>
      </trkpt>
      <trkpt lat="39.0854050" lon="1.4553650">
        <ele>71.3</ele>
        <time>2020-02-22T14:36:59Z</time>
      </trkpt>
      <trkpt lat="39.0853090" lon="1.4553480">
        <ele>70.4</ele>
        <time>2020-02-22T14:37:00Z</time>
      </trkpt>
      <trkpt lat="39.0852190" lon="1.4553440">
        <ele>69.4</ele>
        <time>2020-02-22T14:37:01Z</time>
      </trkpt>
      <trkpt lat="39.0851360" lon="1.4553860">
        <ele>68.4</ele>
        <time>2020-02-22T14:37:02Z</time>
      </trkpt>
      <trkpt lat="39.0850530" lon="1.4554620">
        <ele>67.4</ele>
        <time>2020-02-22T14:37:03Z</time>
      </trkpt>
      <trkpt lat="39.0849910" lon="1.4555590">
        <ele>66.4</ele>
        <time>2020-02-22T14:37:04Z</time>
      </trkpt>
      <trkpt lat="39.0849330" lon="1.4556500">
        <ele>65.3</ele>
        <time>2020-02-22T14:37:05Z</time>
      </trkpt>
      <trkpt lat="39.0848910" lon="1.4557540">
        <ele>64.0</ele>
        <time>2020-02-22T14:37:06Z</time>
      </trkpt>
      <trkpt lat="39.0848570" lon="1.4558600">
        <ele>62.7</ele>
        <time>2020-02-22T14:37:07Z</time>
      </trkpt>
      <trkpt lat="39.0848270" lon="1.4559700">
        <ele>61.5</ele>
        <time>2020-02-22T14:37:08Z</time>
      </trkpt>
      <trkpt lat="39.0847990" lon="1.4560810">
        <ele>60.1</ele>
        <time>2020-02-22T14:37:09Z</time>
      </trkpt>
      <trkpt lat="39.0847730" lon="1.4561880">
        <ele>58.4</ele>
        <time>2020-02-22T14:37:10Z</time>
      </trkpt>
      <trkpt lat="39.0847400" lon="1.4562870">
        <ele>56.8</ele>
        <time>2020-02-22T14:37:11Z</time>
      </trkpt>
      <trkpt lat="39.0847020" lon="1.4563790">
        <ele>55.3</ele>
        <time>2020-02-22T14:37:12Z</time>
      </trkpt>
      <trkpt lat="39.0846620" lon="1.4564670">
        <ele>53.9</ele>
        <time>2020-02-22T14:37:13Z</time>
      </trkpt>
      <trkpt lat="39.0846140" lon="1.4565480">
        <ele>52.6</ele>
        <time>2020-02-22T14:37:14Z</time>
      </trkpt>
      <trkpt lat="39.0845680" lon="1.4566390">
        <ele>51.3</ele>
        <time>2020-02-22T14:37:15Z</time>
      </trkpt>
      <trkpt lat="39.0845300" lon="1.4567360">
        <ele>50.2</ele>
        <time>2020-02-22T14:37:16Z</time>
      </trkpt>
      <trkpt lat="39.0844950" lon="1.4568450">
        <ele>49.3</ele>
        <time>2020-02-22T14:37:17Z</time>
      </trkpt>
      <trkpt lat="39.0844780" lon="1.4569750">
        <ele>48.4</ele>
        <time>2020-02-22T14:37:18Z</time>
      </trkpt>
      <trkpt lat="39.0844780" lon="1.4571040">
        <ele>47.6</ele>
        <time>2020-02-22T14:37:19Z</time>
      </trkpt>
      <trkpt lat="39.0844850" lon="1.4572270">
        <ele>46.9</ele>
        <time>2020-02-22T14:37:20Z</time>
      </trkpt>
      <trkpt lat="39.0845030" lon="1.4573450">
        <ele>46.2</ele>
        <time>2020-02-22T14:37:21Z</time>
      </trkpt>
      <trkpt lat="39.0845360" lon="1.4574470">
        <ele>45.4</ele>
        <time>2020-02-22T14:37:22Z</time>
      </trkpt>
      <trkpt lat="39.0845810" lon="1.4575240">
        <ele>44.8</ele>
        <time>2020-02-22T14:37:23Z</time>
      </trkpt>
      <trkpt lat="39.0846320" lon="1.4576000">
        <ele>44.2</ele>
        <time>2020-02-22T14:37:24Z</time>
      </trkpt>
      <trkpt lat="39.0846960" lon="1.4576440">
        <ele>43.7</ele>
        <time>2020-02-22T14:37:25Z</time>
      </trkpt>
      <trkpt lat="39.0847520" lon="1.4576830">
        <ele>42.8</ele>
        <time>2020-02-22T14:37:26Z</time>
      </trkpt>
      <trkpt lat="39.0848100" lon="1.4577090">
        <ele>42.4</ele>
        <time>2020-02-22T14:37:27Z</time>
      </trkpt>
      <trkpt lat="39.0848720" lon="1.4577270">
        <ele>41.9</ele>
        <time>2020-02-22T14:37:28Z</time>
      </trkpt>
      <trkpt lat="39.0849350" lon="1.4577370">
        <ele>41.4</ele>
        <time>2020-02-22T14:37:29Z</time>
      </trkpt>
      <trkpt lat="39.0849930" lon="1.4577420">
        <ele>40.9</ele>
        <time>2020-02-22T14:37:30Z</time>
      </trkpt>
      <trkpt lat="39.0850540" lon="1.4577520">
        <ele>40.4</ele>
        <time>2020-02-22T14:37:31Z</time>
      </trkpt>
      <trkpt lat="39.0851160" lon="1.4577530">
        <ele>39.8</ele>
        <time>2020-02-22T14:37:32Z</time>
      </trkpt>
      <trkpt lat="39.0851820" lon="1.4577590">
        <ele>39.1</ele>
        <time>2020-02-22T14:37:33Z</time>
      </trkpt>
      <trkpt lat="39.0852450" lon="1.4577940">
        <ele>38.4</ele>
        <time>2020-02-22T14:37:34Z</time>
      </trkpt>
      <trkpt lat="39.0853110" lon="1.4578220">
        <ele>37.4</ele>
        <time>2020-02-22T14:37:35Z</time>
      </trkpt>
      <trkpt lat="39.0853740" lon="1.4578580">
        <ele>36.5</ele>
        <time>2020-02-22T14:37:36Z</time>
      </trkpt>
      <trkpt lat="39.0854400" lon="1.4578920">
        <ele>35.5</ele>
        <time>2020-02-22T14:37:37Z</time>
      </trkpt>
      <trkpt lat="39.0855170" lon="1.4578950">
        <ele>34.2</ele>
        <time>2020-02-22T14:37:38Z</time>
      </trkpt>
      <trkpt lat="39.0855980" lon="1.4578820">
        <ele>32.8</ele>
        <time>2020-02-22T14:37:39Z</time>
      </trkpt>
      <trkpt lat="39.0856790" lon="1.4578570">
        <ele>31.4</ele>
        <time>2020-02-22T14:37:40Z</time>
      </trkpt>
      <trkpt lat="39.0857630" lon="1.4578220">
        <ele>30.2</ele>
        <time>2020-02-22T14:37:41Z</time>
      </trkpt>
      <trkpt lat="39.0858490" lon="1.4577780">
        <ele>29.1</ele>
        <time>2020-02-22T14:37:42Z</time>
      </trkpt>
      <trkpt lat="39.0859390" lon="1.4577290">
        <ele>27.9</ele>
        <time>2020-02-22T14:37:43Z</time>
      </trkpt>
      <trkpt lat="39.0860420" lon="1.4576860">
        <ele>26.7</ele>
        <time>2020-02-22T14:37:44Z</time>
      </trkpt>
      <trkpt lat="39.0861530" lon="1.4576550">
        <ele>25.7</ele>
        <time>2020-02-22T14:37:45Z</time>
      </trkpt>
      <trkpt lat="39.0862700" lon="1.4576370">
        <ele>24.5</ele>
        <time>2020-02-22T14:37:46Z</time>
      </trkpt>
      <trkpt lat="39.0863920" lon="1.4576300">
        <ele>23.6</ele>
        <time>2020-02-22T14:37:47Z</time>
      </trkpt>
      <trkpt lat="39.0865140" lon="1.4576310">
        <ele>22.5</ele>
        <time>2020-02-22T14:37:48Z</time>
      </trkpt>
      <trkpt lat="39.0866300" lon="1.4576310">
        <ele>21.7</ele>
        <time>2020-02-22T14:37:49Z</time>
      </trkpt>
      <trkpt lat="39.0867440" lon="1.4576160">
        <ele>20.9</ele>
        <time>2020-02-22T14:37:50Z</time>
      </trkpt>
      <trkpt lat="39.0868580" lon="1.4576050">
        <ele>20.3</ele>
        <time>2020-02-22T14:37:51Z</time>
      </trkpt>
      <trkpt lat="39.0869680" lon="1.4575980">
        <ele>19.5</ele>
        <time>2020-02-22T14:37:52Z</time>
      </trkpt>
      <trkpt lat="39.0870720" lon="1.4575930">
        <ele>18.9</ele>
        <time>2020-02-22T14:37:53Z</time>
      </trkpt>
      <trkpt lat="39.0871730" lon="1.4575950">
        <ele>18.0</ele>
        <time>2020-02-22T14:37:54Z</time>
      </trkpt>
      <trkpt lat="39.0872720" lon="1.4576110">
        <ele>17.1</ele>
        <time>2020-02-22T14:37:55Z</time>
      </trkpt>
      <trkpt lat="39.0873660" lon="1.4576340">
        <ele>16.1</ele>
        <time>2020-02-22T14:37:56Z</time>
      </trkpt>
      <trkpt lat="39.0874540" lon="1.4576510">
        <ele>15.2</ele>
        <time>2020-02-22T14:37:57Z</time>
      </trkpt>
      <trkpt lat="39.0875400" lon="1.4576630">
        <ele>14.4</ele>
        <time>2020-02-22T14:37:58Z</time>
      </trkpt>
      <trkpt lat="39.0876210" lon="1.4576810">
        <ele>13.8</ele>
        <time>2020-02-22T14:37:59Z</time>
      </trkpt>
      <trkpt lat="39.0876970" lon="1.4576970">
        <ele>13.6</ele>
        <time>2020-02-22T14:38:00Z</time>
      </trkpt>
      <trkpt lat="39.0877660" lon="1.4577150">
        <ele>13.3</ele>
        <time>2020-02-22T14:38:01Z</time>
      </trkpt>
      <trkpt lat="39.0878280" lon="1.4577450">
        <ele>13.3</ele>
        <time>2020-02-22T14:38:02Z</time>
      </trkpt>
      <trkpt lat="39.0878850" lon="1.4577840">
        <ele>13.3</ele>
        <time>2020-02-22T14:38:03Z</time>
      </trkpt>
      <trkpt lat="39.0879250" lon="1.4578310">
        <ele>13.3</ele>
        <time>2020-02-22T14:38:04Z</time>
      </trkpt>
      <trkpt lat="39.0879470" lon="1.4578710">
        <ele>13.4</ele>
        <time>2020-02-22T14:38:05Z</time>
      </trkpt>
      <trkpt lat="39.0879540" lon="1.4578880">
        <ele>13.4</ele>
        <time>2020-02-22T14:38:06Z</time>
      </trkpt>
      <trkpt lat="39.0879470" lon="1.4578940">
        <ele>13.4</ele>
        <time>2020-02-22T14:38:07Z</time>
      </trkpt>
      <trkpt lat="39.0879300" lon="1.4579050">
        <ele>13.5</ele>
        <time>2020-02-22T14:38:08Z</time>
      </trkpt>
      <trkpt lat="39.0879290" lon="1.4579100">
        <ele>13.5</ele>
        <time>2020-02-22T14:38:09Z</time>
      </trkpt>
      <trkpt lat="39.0879230" lon="1.4579220">
        <ele>13.5</ele>
        <time>2020-02-22T14:38:10Z</time>
      </trkpt>
      <trkpt lat="39.0879250" lon="1.4579220">
        <ele>13.5</ele>
        <time>2020-02-22T14:38:11Z</time>
      </trkpt>
      <trkpt lat="39.0879290" lon="1.4579200">
        <ele>13.6</ele>
        <time>2020-02-22T14:38:12Z</time>
      </trkpt>
      <trkpt lat="39.0879300" lon="1.4579210">
        <ele>13.6</ele>
        <time>2020-02-22T14:38:13Z</time>
      </trkpt>
      <trkpt lat="39.0879160" lon="1.4579460">
        <ele>13.6</ele>
        <time>2020-02-22T14:38:14Z</time>
      </trkpt>
      <trkpt lat="39.0879240" lon="1.4579320">
        <ele>13.7</ele>
        <time>2020-02-22T14:38:15Z</time>
      </trkpt>
      <trkpt lat="39.0879370" lon="1.4579140">
        <ele>13.7</ele>
        <time>2020-02-22T14:38:16Z</time>
      </trkpt>
      <trkpt lat="39.0879400" lon="1.4579120">
        <ele>13.7</ele>
        <time>2020-02-22T14:38:17Z</time>
      </trkpt>
      <trkpt lat="39.0879950" lon="1.4579350">
        <ele>14.0</ele>
        <time>2020-02-22T14:38:28Z</time>
      </trkpt>
      <trkpt lat="39.0880190" lon="1.4579030">
        <ele>14.3</ele>
        <time>2020-02-22T14:38:29Z</time>
      </trkpt>
      <trkpt lat="39.0880440" lon="1.4578760">
        <ele>14.3</ele>
        <time>2020-02-22T14:38:30Z</time>
      </trkpt>
      <trkpt lat="39.0880740" lon="1.4578560">
        <ele>14.3</ele>
        <time>2020-02-22T14:38:31Z</time>
      </trkpt>
      <trkpt lat="39.0880950" lon="1.4578240">
        <ele>14.3</ele>
        <time>2020-02-22T14:38:32Z</time>
      </trkpt>
      <trkpt lat="39.0881180" lon="1.4577890">
        <ele>14.3</ele>
        <time>2020-02-22T14:38:33Z</time>
      </trkpt>
      <trkpt lat="39.0881380" lon="1.4577500">
        <ele>14.3</ele>
        <time>2020-02-22T14:38:34Z</time>
      </trkpt>
      <trkpt lat="39.0881610" lon="1.4577100">
        <ele>14.3</ele>
        <time>2020-02-22T14:38:35Z</time>
      </trkpt>
      <trkpt lat="39.0881750" lon="1.4576570">
        <ele>14.3</ele>
        <time>2020-02-22T14:38:36Z</time>
      </trkpt>
      <trkpt lat="39.0881960" lon="1.4576150">
        <ele>14.3</ele>
        <time>2020-02-22T14:38:37Z</time>
      </trkpt>
      <trkpt lat="39.0882110" lon="1.4575640">
        <ele>14.3</ele>
        <time>2020-02-22T14:38:38Z</time>
      </trkpt>
      <trkpt lat="39.0882260" lon="1.4575070">
        <ele>14.3</ele>
        <time>2020-02-22T14:38:39Z</time>
      </trkpt>
      <trkpt lat="39.0882420" lon="1.4574580">
        <ele>14.4</ele>
        <time>2020-02-22T14:38:40Z</time>
      </trkpt>
      <trkpt lat="39.0882630" lon="1.4574110">
        <ele>14.4</ele>
        <time>2020-02-22T14:38:41Z</time>
      </trkpt>
      <trkpt lat="39.0883020" lon="1.4573680">
        <ele>14.4</ele>
        <time>2020-02-22T14:38:42Z</time>
      </trkpt>
      <trkpt lat="39.0883140" lon="1.4573160">
        <ele>14.4</ele>
        <time>2020-02-22T14:38:43Z</time>
      </trkpt>
      <trkpt lat="39.0883390" lon="1.4572670">
        <ele>14.4</ele>
        <time>2020-02-22T14:38:44Z</time>
      </trkpt>
      <trkpt lat="39.0883750" lon="1.4572200">
        <ele>14.4</ele>
        <time>2020-02-22T14:38:45Z</time>
      </trkpt>
      <trkpt lat="39.0884070" lon="1.4571750">
        <ele>14.4</ele>
        <time>2020-02-22T14:38:46Z</time>
      </trkpt>
      <trkpt lat="39.0884390" lon="1.4571230">
        <ele>14.4</ele>
        <time>2020-02-22T14:38:47Z</time>
      </trkpt>
      <trkpt lat="39.0884600" lon="1.4570660">
        <ele>14.4</ele>
        <time>2020-02-22T14:38:48Z</time>
      </trkpt>
      <trkpt lat="39.0884750" lon="1.4570070">
        <ele>14.3</ele>
        <time>2020-02-22T14:38:49Z</time>
      </trkpt>
      <trkpt lat="39.0884910" lon="1.4569470">
        <ele>14.3</ele>
        <time>2020-02-22T14:38:50Z</time>
      </trkpt>
      <trkpt lat="39.0885070" lon="1.4568880">
        <ele>14.3</ele>
        <time>2020-02-22T14:38:51Z</time>
      </trkpt>
      <trkpt lat="39.0885300" lon="1.4568270">
        <ele>14.3</ele>
        <time>2020-02-22T14:38:52Z</time>
      </trkpt>
      <trkpt lat="39.0885530" lon="1.4567720">
        <ele>14.3</ele>
        <time>2020-02-22T14:38:53Z</time>
      </trkpt>
      <trkpt lat="39.0885770" lon="1.4567180">
        <ele>14.3</ele>
        <time>2020-02-22T14:38:54Z</time>
      </trkpt>
      <trkpt lat="39.0886020" lon="1.4566630">
        <ele>14.2</ele>
        <time>2020-02-22T14:38:55Z</time>
      </trkpt>
      <trkpt lat="39.0886300" lon="1.4566080">
        <ele>14.2</ele>
        <time>2020-02-22T14:38:56Z</time>
      </trkpt>
      <trkpt lat="39.0886640" lon="1.4565520">
        <ele>14.2</ele>
        <time>2020-02-22T14:38:57Z</time>
      </trkpt>
      <trkpt lat="39.0886900" lon="1.4564930">
        <ele>14.2</ele>
        <time>2020-02-22T14:38:58Z</time>
      </trkpt>
      <trkpt lat="39.0887210" lon="1.4564390">
        <ele>14.2</ele>
        <time>2020-02-22T14:38:59Z</time>
      </trkpt>
      <trkpt lat="39.0887520" lon="1.4563840">
        <ele>14.2</ele>
        <time>2020-02-22T14:39:00Z</time>
      </trkpt>
      <trkpt lat="39.0887820" lon="1.4563320">
        <ele>14.2</ele>
        <time>2020-02-22T14:39:01Z</time>
      </trkpt>
      <trkpt lat="39.0888140" lon="1.4562910">
        <ele>14.2</ele>
        <time>2020-02-22T14:39:02Z</time>
      </trkpt>
      <trkpt lat="39.0888480" lon="1.4562520">
        <ele>14.2</ele>
        <time>2020-02-22T14:39:03Z</time>
      </trkpt>
      <trkpt lat="39.0888780" lon="1.4562110">
        <ele>14.2</ele>
        <time>2020-02-22T14:39:04Z</time>
      </trkpt>
      <trkpt lat="39.0889080" lon="1.4561710">
        <ele>14.2</ele>
        <time>2020-02-22T14:39:05Z</time>
      </trkpt>
      <trkpt lat="39.0889370" lon="1.4561310">
        <ele>14.1</ele>
        <time>2020-02-22T14:39:06Z</time>
      </trkpt>
      <trkpt lat="39.0889630" lon="1.4560840">
        <ele>14.0</ele>
        <time>2020-02-22T14:39:07Z</time>
      </trkpt>
      <trkpt lat="39.0889980" lon="1.4560410">
        <ele>13.9</ele>
        <time>2020-02-22T14:39:08Z</time>
      </trkpt>
      <trkpt lat="39.0890390" lon="1.4559930">
        <ele>13.7</ele>
        <time>2020-02-22T14:39:09Z</time>
      </trkpt>
      <trkpt lat="39.0890620" lon="1.4559310">
        <ele>13.6</ele>
        <time>2020-02-22T14:39:10Z</time>
      </trkpt>
      <trkpt lat="39.0890960" lon="1.4558690">
        <ele>13.5</ele>
        <time>2020-02-22T14:39:11Z</time>
      </trkpt>
      <trkpt lat="39.0891260" lon="1.4558150">
        <ele>13.4</ele>
        <time>2020-02-22T14:39:12Z</time>
      </trkpt>
      <trkpt lat="39.0891520" lon="1.4557590">
        <ele>13.3</ele>
        <time>2020-02-22T14:39:13Z</time>
      </trkpt>
      <trkpt lat="39.0891810" lon="1.4557040">
        <ele>13.3</ele>
        <time>2020-02-22T14:39:14Z</time>
      </trkpt>
      <trkpt lat="39.0892090" lon="1.4556450">
        <ele>13.2</ele>
        <time>2020-02-22T14:39:15Z</time>
      </trkpt>
      <trkpt lat="39.0892380" lon="1.4555770">
        <ele>13.2</ele>
        <time>2020-02-22T14:39:16Z</time>
      </trkpt>
      <trkpt lat="39.0892720" lon="1.4555280">
        <ele>13.1</ele>
        <time>2020-02-22T14:39:17Z</time>
      </trkpt>
      <trkpt lat="39.0893040" lon="1.4554920">
        <ele>13.0</ele>
        <time>2020-02-22T14:39:18Z</time>
      </trkpt>
      <trkpt lat="39.0893450" lon="1.4554470">
        <ele>12.8</ele>
        <time>2020-02-22T14:39:19Z</time>
      </trkpt>
      <trkpt lat="39.0894000" lon="1.4553850">
        <ele>12.7</ele>
        <time>2020-02-22T14:39:20Z</time>
      </trkpt>
      <trkpt lat="39.0894480" lon="1.4553260">
        <ele>12.5</ele>
        <time>2020-02-22T14:39:21Z</time>
      </trkpt>
      <trkpt lat="39.0895000" lon="1.4552640">
        <ele>12.3</ele>
        <time>2020-02-22T14:39:22Z</time>
      </trkpt>
      <trkpt lat="39.0895510" lon="1.4552140">
        <ele>12.2</ele>
        <time>2020-02-22T14:39:23Z</time>
      </trkpt>
      <trkpt lat="39.0895900" lon="1.4551810">
        <ele>12.2</ele>
        <time>2020-02-22T14:39:24Z</time>
      </trkpt>
      <trkpt lat="39.0896220" lon="1.4551560">
        <ele>12.2</ele>
        <time>2020-02-22T14:39:25Z</time>
      </trkpt>
      <trkpt lat="39.0896600" lon="1.4551230">
        <ele>12.1</ele>
        <time>2020-02-22T14:39:26Z</time>
      </trkpt>
      <trkpt lat="39.0897010" lon="1.4550910">
        <ele>12.1</ele>
        <time>2020-02-22T14:39:27Z</time>
      </trkpt>
      <trkpt lat="39.0897480" lon="1.4550760">
        <ele>12.1</ele>
        <time>2020-02-22T14:39:28Z</time>
      </trkpt>
      <trkpt lat="39.0897970" lon="1.4550690">
        <ele>12.0</ele>
        <time>2020-02-22T14:39:29Z</time>
      </trkpt>
      <trkpt lat="39.0898290" lon="1.4550560">
        <ele>12.0</ele>
        <time>2020-02-22T14:39:30Z</time>
      </trkpt>
      <trkpt lat="39.0898670" lon="1.4550150">
        <ele>12.0</ele>
        <time>2020-02-22T14:39:31Z</time>
      </trkpt>
      <trkpt lat="39.0898890" lon="1.4549690">
        <ele>11.9</ele>
        <time>2020-02-22T14:39:32Z</time>
      </trkpt>
      <trkpt lat="39.0899060" lon="1.4549210">
        <ele>11.9</ele>
        <time>2020-02-22T14:39:33Z</time>
      </trkpt>
      <trkpt lat="39.0899200" lon="1.4548700">
        <ele>11.9</ele>
        <time>2020-02-22T14:39:34Z</time>
      </trkpt>
      <trkpt lat="39.0899340" lon="1.4547930">
        <ele>11.8</ele>
        <time>2020-02-22T14:39:35Z</time>
      </trkpt>
      <trkpt lat="39.0899450" lon="1.4547610">
        <ele>11.8</ele>
        <time>2020-02-22T14:39:36Z</time>
      </trkpt>
      <trkpt lat="39.0899520" lon="1.4547160">
        <ele>11.8</ele>
        <time>2020-02-22T14:39:37Z</time>
      </trkpt>
      <trkpt lat="39.0899590" lon="1.4546800">
        <ele>11.8</ele>
        <time>2020-02-22T14:39:38Z</time>
      </trkpt>
      <trkpt lat="39.0899630" lon="1.4546640">
        <ele>11.8</ele>
        <time>2020-02-22T14:39:39Z</time>
      </trkpt>
      <trkpt lat="39.0899690" lon="1.4546200">
        <ele>11.8</ele>
        <time>2020-02-22T14:39:40Z</time>
      </trkpt>
      <trkpt lat="39.0899550" lon="1.4545810">
        <ele>11.7</ele>
        <time>2020-02-22T14:39:41Z</time>
      </trkpt>
      <trkpt lat="39.0899260" lon="1.4545510">
        <ele>11.7</ele>
        <time>2020-02-22T14:39:42Z</time>
      </trkpt>
      <trkpt lat="39.0898900" lon="1.4545240">
        <ele>11.7</ele>
        <time>2020-02-22T14:39:43Z</time>
      </trkpt>
      <trkpt lat="39.0898560" lon="1.4544960">
        <ele>11.7</ele>
        <time>2020-02-22T14:39:44Z</time>
      </trkpt>
      <trkpt lat="39.0898270" lon="1.4544660">
        <ele>11.6</ele>
        <time>2020-02-22T14:39:45Z</time>
      </trkpt>
      <trkpt lat="39.0898000" lon="1.4544310">
        <ele>11.6</ele>
        <time>2020-02-22T14:39:46Z</time>
      </trkpt>
      <trkpt lat="39.0897910" lon="1.4544220">
        <ele>11.6</ele>
        <time>2020-02-22T14:39:47Z</time>
      </trkpt>
      <trkpt lat="39.0897640" lon="1.4543930">
        <ele>11.6</ele>
        <time>2020-02-22T14:39:48Z</time>
      </trkpt>
      <trkpt lat="39.0897520" lon="1.4543850">
        <ele>11.6</ele>
        <time>2020-02-22T14:39:49Z</time>
      </trkpt>
      <trkpt lat="39.0897250" lon="1.4543570">
        <ele>11.6</ele>
        <time>2020-02-22T14:39:50Z</time>
      </trkpt>
      <trkpt lat="39.0897170" lon="1.4543480">
        <ele>11.6</ele>
        <time>2020-02-22T14:39:51Z</time>
      </trkpt>
      <trkpt lat="39.0896970" lon="1.4543260">
        <ele>11.6</ele>
        <time>2020-02-22T14:39:52Z</time>
      </trkpt>
      <trkpt lat="39.0896900" lon="1.4543140">
        <ele>11.6</ele>
        <time>2020-02-22T14:39:53Z</time>
      </trkpt>
      <trkpt lat="39.0896630" lon="1.4542900">
        <ele>11.6</ele>
        <time>2020-02-22T14:39:54Z</time>
      </trkpt>
      <trkpt lat="39.0896510" lon="1.4542880">
        <ele>11.6</ele>
        <time>2020-02-22T14:39:55Z</time>
      </trkpt>
      <trkpt lat="39.0896230" lon="1.4542720">
        <ele>11.7</ele>
        <time>2020-02-22T14:39:56Z</time>
      </trkpt>
      <trkpt lat="39.0896110" lon="1.4542650">
        <ele>11.7</ele>
        <time>2020-02-22T14:39:57Z</time>
      </trkpt>
      <trkpt lat="39.0895860" lon="1.4542420">
        <ele>11.7</ele>
        <time>2020-02-22T14:39:58Z</time>
      </trkpt>
      <trkpt lat="39.0895750" lon="1.4542370">
        <ele>11.7</ele>
        <time>2020-02-22T14:39:59Z</time>
      </trkpt>
      <trkpt lat="39.0895540" lon="1.4542330">
        <ele>11.7</ele>
        <time>2020-02-22T14:40:00Z</time>
      </trkpt>
      <trkpt lat="39.0895440" lon="1.4542500">
        <ele>11.7</ele>
        <time>2020-02-22T14:40:01Z</time>
      </trkpt>
      <trkpt lat="39.0895430" lon="1.4542380">
        <ele>11.7</ele>
        <time>2020-02-22T14:40:02Z</time>
      </trkpt>
      <trkpt lat="39.0895510" lon="1.4542270">
        <ele>11.7</ele>
        <time>2020-02-22T14:40:03Z</time>
      </trkpt>
      <trkpt lat="39.0895530" lon="1.4542280">
        <ele>11.7</ele>
        <time>2020-02-22T14:40:04Z</time>
      </trkpt>
      <trkpt lat="39.0895580" lon="1.4542210">
        <ele>11.7</ele>
        <time>2020-02-22T14:40:05Z</time>
      </trkpt>
      <trkpt lat="39.0895590" lon="1.4542190">
        <ele>11.7</ele>
        <time>2020-02-22T14:40:06Z</time>
      </trkpt>
      <trkpt lat="39.0895700" lon="1.4542210">
        <ele>11.8</ele>
        <time>2020-02-22T14:40:07Z</time>
      </trkpt>
      <trkpt lat="39.0895780" lon="1.4542280">
        <ele>11.8</ele>
        <time>2020-02-22T14:40:08Z</time>
      </trkpt>
      <trkpt lat="39.0895870" lon="1.4542340">
        <ele>11.8</ele>
        <time>2020-02-22T14:40:09Z</time>
      </trkpt>
      <trkpt lat="39.0895960" lon="1.4542400">
        <ele>11.8</ele>
        <time>2020-02-22T14:40:10Z</time>
      </trkpt>
      <trkpt lat="39.0896040" lon="1.4542470">
        <ele>11.8</ele>
        <time>2020-02-22T14:40:11Z</time>
      </trkpt>
      <trkpt lat="39.0896130" lon="1.4542530">
        <ele>11.8</ele>
        <time>2020-02-22T14:40:12Z</time>
      </trkpt>
      <trkpt lat="39.0896220" lon="1.4542590">
        <ele>11.8</ele>
        <time>2020-02-22T14:40:13Z</time>
      </trkpt>
      <trkpt lat="39.0896300" lon="1.4542660">
        <ele>11.8</ele>
        <time>2020-02-22T14:41:50Z</time>
      </trkpt>
      <trkpt lat="39.0896390" lon="1.4542720">
        <ele>11.8</ele>
        <time>2020-02-22T14:41:51Z</time>
      </trkpt>
      <trkpt lat="39.0896710" lon="1.4542860">
        <ele>11.9</ele>
        <time>2020-02-22T14:41:52Z</time>
      </trkpt>
      <trkpt lat="39.0896980" lon="1.4542950">
        <ele>11.9</ele>
        <time>2020-02-22T14:41:53Z</time>
      </trkpt>
      <trkpt lat="39.0897350" lon="1.4543040">
        <ele>11.9</ele>
        <time>2020-02-22T14:41:54Z</time>
      </trkpt>
      <trkpt lat="39.0897480" lon="1.4543100">
        <ele>11.9</ele>
        <time>2020-02-22T14:41:55Z</time>
      </trkpt>
      <trkpt lat="39.0897610" lon="1.4543230">
        <ele>12.0</ele>
        <time>2020-02-22T14:41:56Z</time>
      </trkpt>
      <trkpt lat="39.0897680" lon="1.4543310">
        <ele>12.0</ele>
        <time>2020-02-22T14:41:57Z</time>
      </trkpt>
      <trkpt lat="39.0897690" lon="1.4543410">
        <ele>12.0</ele>
        <time>2020-02-22T14:41:58Z</time>
      </trkpt>
      <trkpt lat="39.0897750" lon="1.4543830">
        <ele>12.0</ele>
        <time>2020-02-22T14:41:59Z</time>
      </trkpt>
      <trkpt lat="39.0897740" lon="1.4543970">
        <ele>12.0</ele>
        <time>2020-02-22T14:42:00Z</time>
      </trkpt>
      <trkpt lat="39.0897740" lon="1.4544400">
        <ele>12.1</ele>
        <time>2020-02-22T14:42:01Z</time>
      </trkpt>
      <trkpt lat="39.0897760" lon="1.4544570">
        <ele>12.1</ele>
        <time>2020-02-22T14:42:02Z</time>
      </trkpt>
      <trkpt lat="39.0897850" lon="1.4544920">
        <ele>12.1</ele>
        <time>2020-02-22T14:42:03Z</time>
      </trkpt>
      <trkpt lat="39.0898060" lon="1.4545270">
        <ele>12.2</ele>
        <time>2020-02-22T14:42:04Z</time>
      </trkpt>
      <trkpt lat="39.0898190" lon="1.4545390">
        <ele>12.1</ele>
        <time>2020-02-22T14:42:05Z</time>
      </trkpt>
      <trkpt lat="39.0898520" lon="1.4545930">
        <ele>12.0</ele>
        <time>2020-02-22T14:42:06Z</time>
      </trkpt>
      <trkpt lat="39.0898730" lon="1.4546500">
        <ele>11.9</ele>
        <time>2020-02-22T14:42:07Z</time>
      </trkpt>
      <trkpt lat="39.0898690" lon="1.4547060">
        <ele>11.8</ele>
        <time>2020-02-22T14:42:08Z</time>
      </trkpt>
      <trkpt lat="39.0898510" lon="1.4547510">
        <ele>11.7</ele>
        <time>2020-02-22T14:42:09Z</time>
      </trkpt>
      <trkpt lat="39.0898290" lon="1.4547950">
        <ele>11.6</ele>
        <time>2020-02-22T14:42:10Z</time>
      </trkpt>
      <trkpt lat="39.0898040" lon="1.4548350">
        <ele>11.6</ele>
        <time>2020-02-22T14:42:11Z</time>
      </trkpt>
      <trkpt lat="39.0897890" lon="1.4548660">
        <ele>11.6</ele>
        <time>2020-02-22T14:42:12Z</time>
      </trkpt>
      <trkpt lat="39.0897880" lon="1.4549020">
        <ele>11.7</ele>
        <time>2020-02-22T14:42:13Z</time>
      </trkpt>
      <trkpt lat="39.0897740" lon="1.4549530">
        <ele>11.7</ele>
        <time>2020-02-22T14:42:14Z</time>
      </trkpt>
      <trkpt lat="39.0897460" lon="1.4549880">
        <ele>11.8</ele>
        <time>2020-02-22T14:42:15Z</time>
      </trkpt>
      <trkpt lat="39.0897160" lon="1.4550230">
        <ele>11.8</ele>
        <time>2020-02-22T14:42:16Z</time>
      </trkpt>
      <trkpt lat="39.0896930" lon="1.4550520">
        <ele>11.9</ele>
        <time>2020-02-22T14:42:17Z</time>
      </trkpt>
      <trkpt lat="39.0896720" lon="1.4550880">
        <ele>11.9</ele>
        <time>2020-02-22T14:42:18Z</time>
      </trkpt>
      <trkpt lat="39.0896470" lon="1.4551240">
        <ele>12.0</ele>
        <time>2020-02-22T14:42:19Z</time>
      </trkpt>
      <trkpt lat="39.0896210" lon="1.4551560">
        <ele>12.1</ele>
        <time>2020-02-22T14:42:20Z</time>
      </trkpt>
      <trkpt lat="39.0895830" lon="1.4551770">
        <ele>12.1</ele>
        <time>2020-02-22T14:42:21Z</time>
      </trkpt>
      <trkpt lat="39.0895700" lon="1.4551840">
        <ele>12.2</ele>
        <time>2020-02-22T14:42:22Z</time>
      </trkpt>
      <trkpt lat="39.0895440" lon="1.4552260">
        <ele>12.2</ele>
        <time>2020-02-22T14:42:23Z</time>
      </trkpt>
      <trkpt lat="39.0895330" lon="1.4552440">
        <ele>12.3</ele>
        <time>2020-02-22T14:42:24Z</time>
      </trkpt>
      <trkpt lat="39.0895050" lon="1.4552820">
        <ele>12.4</ele>
        <time>2020-02-22T14:42:25Z</time>
      </trkpt>
      <trkpt lat="39.0894740" lon="1.4553140">
        <ele>12.4</ele>
        <time>2020-02-22T14:42:26Z</time>
      </trkpt>
      <trkpt lat="39.0894480" lon="1.4553450">
        <ele>12.5</ele>
        <time>2020-02-22T14:42:27Z</time>
      </trkpt>
      <trkpt lat="39.0894140" lon="1.4553650">
        <ele>12.6</ele>
        <time>2020-02-22T14:42:28Z</time>
      </trkpt>
      <trkpt lat="39.0893860" lon="1.4553890">
        <ele>12.7</ele>
        <time>2020-02-22T14:42:29Z</time>
      </trkpt>
      <trkpt lat="39.0893570" lon="1.4554120">
        <ele>12.8</ele>
        <time>2020-02-22T14:42:30Z</time>
      </trkpt>
      <trkpt lat="39.0893350" lon="1.4554420">
        <ele>12.8</ele>
        <time>2020-02-22T14:42:31Z</time>
      </trkpt>
      <trkpt lat="39.0893170" lon="1.4554710">
        <ele>12.9</ele>
        <time>2020-02-22T14:42:32Z</time>
      </trkpt>
      <trkpt lat="39.0892920" lon="1.4554900">
        <ele>13.0</ele>
        <time>2020-02-22T14:42:33Z</time>
      </trkpt>
      <trkpt lat="39.0892690" lon="1.4555170">
        <ele>13.1</ele>
        <time>2020-02-22T14:42:34Z</time>
      </trkpt>
      <trkpt lat="39.0892580" lon="1.4555500">
        <ele>13.1</ele>
        <time>2020-02-22T14:42:35Z</time>
      </trkpt>
      <trkpt lat="39.0892420" lon="1.4555930">
        <ele>13.2</ele>
        <time>2020-02-22T14:42:36Z</time>
      </trkpt>
      <trkpt lat="39.0892260" lon="1.4556420">
        <ele>13.2</ele>
        <time>2020-02-22T14:42:37Z</time>
      </trkpt>
      <trkpt lat="39.0892090" lon="1.4556810">
        <ele>13.2</ele>
        <time>2020-02-22T14:42:38Z</time>
      </trkpt>
      <trkpt lat="39.0891810" lon="1.4557160">
        <ele>13.3</ele>
        <time>2020-02-22T14:42:39Z</time>
      </trkpt>
      <trkpt lat="39.0891570" lon="1.4557650">
        <ele>13.3</ele>
        <time>2020-02-22T14:42:40Z</time>
      </trkpt>
      <trkpt lat="39.0891460" lon="1.4557880">
        <ele>13.3</ele>
        <time>2020-02-22T14:42:41Z</time>
      </trkpt>
      <trkpt lat="39.0891300" lon="1.4558300">
        <ele>13.4</ele>
        <time>2020-02-22T14:42:42Z</time>
      </trkpt>
      <trkpt lat="39.0891100" lon="1.4558740">
        <ele>13.5</ele>
        <time>2020-02-22T14:42:43Z</time>
      </trkpt>
      <trkpt lat="39.0890920" lon="1.4559070">
        <ele>13.5</ele>
        <time>2020-02-22T14:42:44Z</time>
      </trkpt>
      <trkpt lat="39.0890870" lon="1.4559510">
        <ele>13.6</ele>
        <time>2020-02-22T14:42:45Z</time>
      </trkpt>
      <trkpt lat="39.0890680" lon="1.4559830">
        <ele>13.7</ele>
        <time>2020-02-22T14:42:46Z</time>
      </trkpt>
      <trkpt lat="39.0890400" lon="1.4560100">
        <ele>13.8</ele>
        <time>2020-02-22T14:42:47Z</time>
      </trkpt>
      <trkpt lat="39.0890210" lon="1.4560430">
        <ele>13.9</ele>
        <time>2020-02-22T14:42:48Z</time>
      </trkpt>
      <trkpt lat="39.0890030" lon="1.4560700">
        <ele>13.9</ele>
        <time>2020-02-22T14:42:49Z</time>
      </trkpt>
      <trkpt lat="39.0889710" lon="1.4560900">
        <ele>14.0</ele>
        <time>2020-02-22T14:42:50Z</time>
      </trkpt>
      <trkpt lat="39.0889380" lon="1.4561190">
        <ele>14.1</ele>
        <time>2020-02-22T14:42:51Z</time>
      </trkpt>
      <trkpt lat="39.0889060" lon="1.4561530">
        <ele>14.1</ele>
        <time>2020-02-22T14:42:52Z</time>
      </trkpt>
      <trkpt lat="39.0888780" lon="1.4561790">
        <ele>14.2</ele>
        <time>2020-02-22T14:42:53Z</time>
      </trkpt>
      <trkpt lat="39.0888560" lon="1.4562010">
        <ele>14.2</ele>
        <time>2020-02-22T14:42:54Z</time>
      </trkpt>
      <trkpt lat="39.0888340" lon="1.4562320">
        <ele>14.2</ele>
        <time>2020-02-22T14:42:55Z</time>
      </trkpt>
      <trkpt lat="39.0888030" lon="1.4562740">
        <ele>14.2</ele>
        <time>2020-02-22T14:42:56Z</time>
      </trkpt>
      <trkpt lat="39.0887840" lon="1.4563140">
        <ele>14.2</ele>
        <time>2020-02-22T14:42:57Z</time>
      </trkpt>
      <trkpt lat="39.0887640" lon="1.4563580">
        <ele>14.2</ele>
        <time>2020-02-22T14:42:58Z</time>
      </trkpt>
      <trkpt lat="39.0887500" lon="1.4564000">
        <ele>14.2</ele>
        <time>2020-02-22T14:42:59Z</time>
      </trkpt>
      <trkpt lat="39.0887220" lon="1.4564310">
        <ele>14.2</ele>
        <time>2020-02-22T14:43:00Z</time>
      </trkpt>
      <trkpt lat="39.0887090" lon="1.4564730">
        <ele>14.2</ele>
        <time>2020-02-22T14:43:01Z</time>
      </trkpt>
      <trkpt lat="39.0886880" lon="1.4565190">
        <ele>14.2</ele>
        <time>2020-02-22T14:43:02Z</time>
      </trkpt>
      <trkpt lat="39.0886670" lon="1.4565500">
        <ele>14.2</ele>
        <time>2020-02-22T14:43:03Z</time>
      </trkpt>
      <trkpt lat="39.0886430" lon="1.4565780">
        <ele>14.2</ele>
        <time>2020-02-22T14:43:04Z</time>
      </trkpt>
      <trkpt lat="39.0886190" lon="1.4566080">
        <ele>14.2</ele>
        <time>2020-02-22T14:43:05Z</time>
      </trkpt>
      <trkpt lat="39.0885980" lon="1.4566480">
        <ele>14.2</ele>
        <time>2020-02-22T14:43:06Z</time>
      </trkpt>
      <trkpt lat="39.0885800" lon="1.4566980">
        <ele>14.2</ele>
        <time>2020-02-22T14:43:07Z</time>
      </trkpt>
      <trkpt lat="39.0885620" lon="1.4567370">
        <ele>14.3</ele>
        <time>2020-02-22T14:43:08Z</time>
      </trkpt>
      <trkpt lat="39.0885460" lon="1.4567710">
        <ele>14.3</ele>
        <time>2020-02-22T14:43:09Z</time>
      </trkpt>
      <trkpt lat="39.0885320" lon="1.4568070">
        <ele>14.3</ele>
        <time>2020-02-22T14:43:10Z</time>
      </trkpt>
      <trkpt lat="39.0885140" lon="1.4568460">
        <ele>14.3</ele>
        <time>2020-02-22T14:43:11Z</time>
      </trkpt>
      <trkpt lat="39.0884980" lon="1.4568870">
        <ele>14.3</ele>
        <time>2020-02-22T14:43:12Z</time>
      </trkpt>
      <trkpt lat="39.0884740" lon="1.4569330">
        <ele>14.3</ele>
        <time>2020-02-22T14:43:13Z</time>
      </trkpt>
      <trkpt lat="39.0884530" lon="1.4569730">
        <ele>14.3</ele>
        <time>2020-02-22T14:43:14Z</time>
      </trkpt>
      <trkpt lat="39.0884360" lon="1.4570130">
        <ele>14.4</ele>
        <time>2020-02-22T14:43:15Z</time>
      </trkpt>
      <trkpt lat="39.0884170" lon="1.4570540">
        <ele>14.4</ele>
        <time>2020-02-22T14:43:16Z</time>
      </trkpt>
      <trkpt lat="39.0884130" lon="1.4570970">
        <ele>14.4</ele>
        <time>2020-02-22T14:43:17Z</time>
      </trkpt>
      <trkpt lat="39.0884020" lon="1.4571370">
        <ele>14.4</ele>
        <time>2020-02-22T14:43:18Z</time>
      </trkpt>
      <trkpt lat="39.0883900" lon="1.4571760">
        <ele>14.4</ele>
        <time>2020-02-22T14:43:19Z</time>
      </trkpt>
      <trkpt lat="39.0883850" lon="1.4572130">
        <ele>14.4</ele>
        <time>2020-02-22T14:43:20Z</time>
      </trkpt>
      <trkpt lat="39.0883670" lon="1.4572650">
        <ele>14.4</ele>
        <time>2020-02-22T14:43:21Z</time>
      </trkpt>
      <trkpt lat="39.0883520" lon="1.4573050">
        <ele>14.4</ele>
        <time>2020-02-22T14:43:22Z</time>
      </trkpt>
      <trkpt lat="39.0883260" lon="1.4573510">
        <ele>14.4</ele>
        <time>2020-02-22T14:43:23Z</time>
      </trkpt>
      <trkpt lat="39.0883100" lon="1.4573900">
        <ele>14.4</ele>
        <time>2020-02-22T14:43:24Z</time>
      </trkpt>
      <trkpt lat="39.0882930" lon="1.4574330">
        <ele>14.4</ele>
        <time>2020-02-22T14:43:25Z</time>
      </trkpt>
      <trkpt lat="39.0882790" lon="1.4574820">
        <ele>14.4</ele>
        <time>2020-02-22T14:43:26Z</time>
      </trkpt>
      <trkpt lat="39.0882660" lon="1.4575260">
        <ele>14.3</ele>
        <time>2020-02-22T14:43:27Z</time>
      </trkpt>
      <trkpt lat="39.0882480" lon="1.4575700">
        <ele>14.3</ele>
        <time>2020-02-22T14:43:28Z</time>
      </trkpt>
      <trkpt lat="39.0882280" lon="1.4575990">
        <ele>14.3</ele>
        <time>2020-02-22T14:43:29Z</time>
      </trkpt>
      <trkpt lat="39.0882100" lon="1.4576290">
        <ele>14.3</ele>
        <time>2020-02-22T14:43:30Z</time>
      </trkpt>
      <trkpt lat="39.0881880" lon="1.4576700">
        <ele>14.3</ele>
        <time>2020-02-22T14:43:31Z</time>
      </trkpt>
      <trkpt lat="39.0881540" lon="1.4577060">
        <ele>14.3</ele>
        <time>2020-02-22T14:43:32Z</time>
      </trkpt>
      <trkpt lat="39.0881210" lon="1.4577360">
        <ele>14.3</ele>
        <time>2020-02-22T14:43:33Z</time>
      </trkpt>
      <trkpt lat="39.0881010" lon="1.4577620">
        <ele>14.3</ele>
        <time>2020-02-22T14:43:34Z</time>
      </trkpt>
      <trkpt lat="39.0880660" lon="1.4577930">
        <ele>14.3</ele>
        <time>2020-02-22T14:43:35Z</time>
      </trkpt>
      <trkpt lat="39.0880350" lon="1.4578240">
        <ele>14.3</ele>
        <time>2020-02-22T14:43:36Z</time>
      </trkpt>
      <trkpt lat="39.0880030" lon="1.4578430">
        <ele>14.3</ele>
        <time>2020-02-22T14:43:37Z</time>
      </trkpt>
      <trkpt lat="39.0879760" lon="1.4578790">
        <ele>14.3</ele>
        <time>2020-02-22T14:43:38Z</time>
      </trkpt>
      <trkpt lat="39.0879530" lon="1.4579130">
        <ele>14.3</ele>
        <time>2020-02-22T14:43:39Z</time>
      </trkpt>
      <trkpt lat="39.0879260" lon="1.4579370">
        <ele>14.5</ele>
        <time>2020-02-22T14:43:40Z</time>
      </trkpt>
      <trkpt lat="39.0879050" lon="1.4579690">
        <ele>14.6</ele>
        <time>2020-02-22T14:43:41Z</time>
      </trkpt>
      <trkpt lat="39.0878850" lon="1.4580070">
        <ele>14.8</ele>
        <time>2020-02-22T14:43:42Z</time>
      </trkpt>
      <trkpt lat="39.0878520" lon="1.4580410">
        <ele>15.0</ele>
        <time>2020-02-22T14:43:43Z</time>
      </trkpt>
      <trkpt lat="39.0878140" lon="1.4580680">
        <ele>15.1</ele>
        <time>2020-02-22T14:43:44Z</time>
      </trkpt>
      <trkpt lat="39.0877800" lon="1.4581000">
        <ele>15.3</ele>
        <time>2020-02-22T14:43:45Z</time>
      </trkpt>
      <trkpt lat="39.0877510" lon="1.4581250">
        <ele>15.5</ele>
        <time>2020-02-22T14:43:46Z</time>
      </trkpt>
      <trkpt lat="39.0877200" lon="1.4581580">
        <ele>15.8</ele>
        <time>2020-02-22T14:43:47Z</time>
      </trkpt>
      <trkpt lat="39.0876890" lon="1.4581780">
        <ele>16.0</ele>
        <time>2020-02-22T14:43:48Z</time>
      </trkpt>
      <trkpt lat="39.0876650" lon="1.4582110">
        <ele>16.1</ele>
        <time>2020-02-22T14:43:49Z</time>
      </trkpt>
      <trkpt lat="39.0876370" lon="1.4582350">
        <ele>16.2</ele>
        <time>2020-02-22T14:43:50Z</time>
      </trkpt>
      <trkpt lat="39.0876100" lon="1.4582570">
        <ele>16.4</ele>
        <time>2020-02-22T14:43:51Z</time>
      </trkpt>
      <trkpt lat="39.0875830" lon="1.4582810">
        <ele>16.5</ele>
        <time>2020-02-22T14:43:52Z</time>
      </trkpt>
      <trkpt lat="39.0875490" lon="1.4582910">
        <ele>16.6</ele>
        <time>2020-02-22T14:43:53Z</time>
      </trkpt>
      <trkpt lat="39.0875220" lon="1.4582940">
        <ele>16.7</ele>
        <time>2020-02-22T14:43:54Z</time>
      </trkpt>
      <trkpt lat="39.0874950" lon="1.4582990">
        <ele>16.8</ele>
        <time>2020-02-22T14:43:55Z</time>
      </trkpt>
      <trkpt lat="39.0874570" lon="1.4583150">
        <ele>16.9</ele>
        <time>2020-02-22T14:43:56Z</time>
      </trkpt>
      <trkpt lat="39.0874440" lon="1.4583280">
        <ele>17.0</ele>
        <time>2020-02-22T14:43:57Z</time>
      </trkpt>
      <trkpt lat="39.0874180" lon="1.4583640">
        <ele>17.2</ele>
        <time>2020-02-22T14:43:58Z</time>
      </trkpt>
      <trkpt lat="39.0874080" lon="1.4583760">
        <ele>17.3</ele>
        <time>2020-02-22T14:43:59Z</time>
      </trkpt>
      <trkpt lat="39.0873750" lon="1.4584130">
        <ele>17.5</ele>
        <time>2020-02-22T14:44:00Z</time>
      </trkpt>
      <trkpt lat="39.0873600" lon="1.4584250">
        <ele>17.6</ele>
        <time>2020-02-22T14:44:01Z</time>
      </trkpt>
      <trkpt lat="39.0873270" lon="1.4584510">
        <ele>17.8</ele>
        <time>2020-02-22T14:44:02Z</time>
      </trkpt>
      <trkpt lat="39.0872900" lon="1.4584730">
        <ele>17.9</ele>
        <time>2020-02-22T14:44:03Z</time>
      </trkpt>
      <trkpt lat="39.0872630" lon="1.4584850">
        <ele>18.0</ele>
        <time>2020-02-22T14:44:04Z</time>
      </trkpt>
      <trkpt lat="39.0872410" lon="1.4585120">
        <ele>18.1</ele>
        <time>2020-02-22T14:44:05Z</time>
      </trkpt>
      <trkpt lat="39.0872090" lon="1.4585320">
        <ele>18.3</ele>
        <time>2020-02-22T14:44:06Z</time>
      </trkpt>
      <trkpt lat="39.0871980" lon="1.4585360">
        <ele>18.3</ele>
        <time>2020-02-22T14:44:07Z</time>
      </trkpt>
      <trkpt lat="39.0871690" lon="1.4585480">
        <ele>18.4</ele>
        <time>2020-02-22T14:44:08Z</time>
      </trkpt>
      <trkpt lat="39.0871590" lon="1.4585530">
        <ele>18.5</ele>
        <time>2020-02-22T14:44:09Z</time>
      </trkpt>
      <trkpt lat="39.0871300" lon="1.4585690">
        <ele>18.6</ele>
        <time>2020-02-22T14:44:10Z</time>
      </trkpt>
      <trkpt lat="39.0871030" lon="1.4585760">
        <ele>18.6</ele>
        <time>2020-02-22T14:44:11Z</time>
      </trkpt>
      <trkpt lat="39.0870710" lon="1.4585780">
        <ele>18.7</ele>
        <time>2020-02-22T14:44:12Z</time>
      </trkpt>
      <trkpt lat="39.0870410" lon="1.4586030">
        <ele>18.8</ele>
        <time>2020-02-22T14:44:13Z</time>
      </trkpt>
      <trkpt lat="39.0870320" lon="1.4586150">
        <ele>18.8</ele>
        <time>2020-02-22T14:44:14Z</time>
      </trkpt>
      <trkpt lat="39.0870110" lon="1.4586390">
        <ele>18.9</ele>
        <time>2020-02-22T14:44:15Z</time>
      </trkpt>
      <trkpt lat="39.0869840" lon="1.4586620">
        <ele>19.0</ele>
        <time>2020-02-22T14:44:16Z</time>
      </trkpt>
      <trkpt lat="39.0869650" lon="1.4586890">
        <ele>19.1</ele>
        <time>2020-02-22T14:44:17Z</time>
      </trkpt>
      <trkpt lat="39.0869570" lon="1.4586940">
        <ele>19.2</ele>
        <time>2020-02-22T14:44:18Z</time>
      </trkpt>
      <trkpt lat="39.0869290" lon="1.4587130">
        <ele>19.3</ele>
        <time>2020-02-22T14:44:19Z</time>
      </trkpt>
      <trkpt lat="39.0869220" lon="1.4587190">
        <ele>19.3</ele>
        <time>2020-02-22T14:44:20Z</time>
      </trkpt>
      <trkpt lat="39.0869070" lon="1.4587290">
        <ele>19.4</ele>
        <time>2020-02-22T14:44:21Z</time>
      </trkpt>
      <trkpt lat="39.0868950" lon="1.4587470">
        <ele>19.5</ele>
        <time>2020-02-22T14:44:22Z</time>
      </trkpt>
      <trkpt lat="39.0868870" lon="1.4587730">
        <ele>19.5</ele>
        <time>2020-02-22T14:44:23Z</time>
      </trkpt>
      <trkpt lat="39.0868890" lon="1.4587850">
        <ele>19.6</ele>
        <time>2020-02-22T14:44:24Z</time>
      </trkpt>
      <trkpt lat="39.0868920" lon="1.4587960">
        <ele>19.6</ele>
        <time>2020-02-22T14:44:25Z</time>
      </trkpt>
      <trkpt lat="39.0868790" lon="1.4588430">
        <ele>19.7</ele>
        <time>2020-02-22T14:44:26Z</time>
      </trkpt>
      <trkpt lat="39.0868710" lon="1.4588600">
        <ele>19.8</ele>
        <time>2020-02-22T14:44:27Z</time>
      </trkpt>
      <trkpt lat="39.0868470" lon="1.4588820">
        <ele>19.9</ele>
        <time>2020-02-22T14:44:28Z</time>
      </trkpt>
      <trkpt lat="39.0868210" lon="1.4588580">
        <ele>20.0</ele>
        <time>2020-02-22T14:44:29Z</time>
      </trkpt>
      <trkpt lat="39.0868130" lon="1.4588470">
        <ele>20.0</ele>
        <time>2020-02-22T14:44:30Z</time>
      </trkpt>
      <trkpt lat="39.0867870" lon="1.4588430">
        <ele>20.1</ele>
        <time>2020-02-22T14:44:31Z</time>
      </trkpt>
      <trkpt lat="39.0867750" lon="1.4588430">
        <ele>20.1</ele>
        <time>2020-02-22T14:44:32Z</time>
      </trkpt>
      <trkpt lat="39.0867440" lon="1.4588620">
        <ele>20.3</ele>
        <time>2020-02-22T14:44:33Z</time>
      </trkpt>
      <trkpt lat="39.0867320" lon="1.4588800">
        <ele>20.3</ele>
        <time>2020-02-22T14:44:34Z</time>
      </trkpt>
      <trkpt lat="39.0867200" lon="1.4589250">
        <ele>20.4</ele>
        <time>2020-02-22T14:44:35Z</time>
      </trkpt>
      <trkpt lat="39.0867090" lon="1.4589370">
        <ele>20.5</ele>
        <time>2020-02-22T14:44:36Z</time>
      </trkpt>
      <trkpt lat="39.0866880" lon="1.4589620">
        <ele>20.7</ele>
        <time>2020-02-22T14:44:37Z</time>
      </trkpt>
      <trkpt lat="39.0866690" lon="1.4589990">
        <ele>20.8</ele>
        <time>2020-02-22T14:44:38Z</time>
      </trkpt>
      <trkpt lat="39.0866610" lon="1.4590070">
        <ele>20.9</ele>
        <time>2020-02-22T14:44:39Z</time>
      </trkpt>
      <trkpt lat="39.0866360" lon="1.4590390">
        <ele>21.0</ele>
        <time>2020-02-22T14:44:40Z</time>
      </trkpt>
      <trkpt lat="39.0866270" lon="1.4590450">
        <ele>21.1</ele>
        <time>2020-02-22T14:44:41Z</time>
      </trkpt>
      <trkpt lat="39.0866000" lon="1.4590530">
        <ele>21.2</ele>
        <time>2020-02-22T14:44:42Z</time>
      </trkpt>
      <trkpt lat="39.0865700" lon="1.4590780">
        <ele>21.4</ele>
        <time>2020-02-22T14:44:43Z</time>
      </trkpt>
      <trkpt lat="39.0865580" lon="1.4590910">
        <ele>21.5</ele>
        <time>2020-02-22T14:44:44Z</time>
      </trkpt>
      <trkpt lat="39.0865400" lon="1.4591320">
        <ele>21.6</ele>
        <time>2020-02-22T14:44:45Z</time>
      </trkpt>
      <trkpt lat="39.0865330" lon="1.4591440">
        <ele>21.7</ele>
        <time>2020-02-22T14:44:46Z</time>
      </trkpt>
      <trkpt lat="39.0865160" lon="1.4591450">
        <ele>21.8</ele>
        <time>2020-02-22T14:44:47Z</time>
      </trkpt>
      <trkpt lat="39.0865030" lon="1.4591430">
        <ele>21.8</ele>
        <time>2020-02-22T14:44:48Z</time>
      </trkpt>
      <trkpt lat="39.0864850" lon="1.4591660">
        <ele>21.9</ele>
        <time>2020-02-22T14:44:49Z</time>
      </trkpt>
      <trkpt lat="39.0864770" lon="1.4591740">
        <ele>22.0</ele>
        <time>2020-02-22T14:44:50Z</time>
      </trkpt>
      <trkpt lat="39.0864690" lon="1.4591820">
        <ele>22.0</ele>
        <time>2020-02-22T14:44:51Z</time>
      </trkpt>
      <trkpt lat="39.0864410" lon="1.4592060">
        <ele>22.2</ele>
        <time>2020-02-22T14:44:52Z</time>
      </trkpt>
      <trkpt lat="39.0864310" lon="1.4592100">
        <ele>22.2</ele>
        <time>2020-02-22T14:44:53Z</time>
      </trkpt>
      <trkpt lat="39.0864060" lon="1.4592370">
        <ele>22.3</ele>
        <time>2020-02-22T14:44:54Z</time>
      </trkpt>
      <trkpt lat="39.0864000" lon="1.4592410">
        <ele>22.4</ele>
        <time>2020-02-22T14:44:55Z</time>
      </trkpt>
      <trkpt lat="39.0863880" lon="1.4592780">
        <ele>22.5</ele>
        <time>2020-02-22T14:44:56Z</time>
      </trkpt>
      <trkpt lat="39.0863820" lon="1.4592870">
        <ele>22.5</ele>
        <time>2020-02-22T14:44:57Z</time>
      </trkpt>
      <trkpt lat="39.0863730" lon="1.4592960">
        <ele>22.6</ele>
        <time>2020-02-22T14:44:58Z</time>
      </trkpt>
      <trkpt lat="39.0863590" lon="1.4593190">
        <ele>22.7</ele>
        <time>2020-02-22T14:44:59Z</time>
      </trkpt>
      <trkpt lat="39.0863390" lon="1.4593430">
        <ele>22.8</ele>
        <time>2020-02-22T14:45:00Z</time>
      </trkpt>
      <trkpt lat="39.0863320" lon="1.4593550">
        <ele>22.8</ele>
        <time>2020-02-22T14:45:01Z</time>
      </trkpt>
      <trkpt lat="39.0863070" lon="1.4593780">
        <ele>23.0</ele>
        <time>2020-02-22T14:45:02Z</time>
      </trkpt>
      <trkpt lat="39.0863020" lon="1.4593850">
        <ele>23.0</ele>
        <time>2020-02-22T14:45:03Z</time>
      </trkpt>
      <trkpt lat="39.0862690" lon="1.4594050">
        <ele>23.2</ele>
        <time>2020-02-22T14:45:04Z</time>
      </trkpt>
      <trkpt lat="39.0862590" lon="1.4594160">
        <ele>23.2</ele>
        <time>2020-02-22T14:45:05Z</time>
      </trkpt>
      <trkpt lat="39.0862380" lon="1.4594430">
        <ele>23.4</ele>
        <time>2020-02-22T14:45:06Z</time>
      </trkpt>
      <trkpt lat="39.0862040" lon="1.4594710">
        <ele>23.6</ele>
        <time>2020-02-22T14:45:07Z</time>
      </trkpt>
      <trkpt lat="39.0861890" lon="1.4594810">
        <ele>23.7</ele>
        <time>2020-02-22T14:45:08Z</time>
      </trkpt>
      <trkpt lat="39.0861680" lon="1.4595090">
        <ele>24.0</ele>
        <time>2020-02-22T14:45:09Z</time>
      </trkpt>
      <trkpt lat="39.0861370" lon="1.4595290">
        <ele>24.2</ele>
        <time>2020-02-22T14:45:10Z</time>
      </trkpt>
      <trkpt lat="39.0861280" lon="1.4595300">
        <ele>24.3</ele>
        <time>2020-02-22T14:45:11Z</time>
      </trkpt>
      <trkpt lat="39.0861020" lon="1.4595450">
        <ele>24.5</ele>
        <time>2020-02-22T14:45:12Z</time>
      </trkpt>
      <trkpt lat="39.0860950" lon="1.4595510">
        <ele>24.5</ele>
        <time>2020-02-22T14:45:13Z</time>
      </trkpt>
      <trkpt lat="39.0860830" lon="1.4595570">
        <ele>24.6</ele>
        <time>2020-02-22T14:45:14Z</time>
      </trkpt>
      <trkpt lat="39.0860680" lon="1.4595650">
        <ele>24.7</ele>
        <time>2020-02-22T14:45:15Z</time>
      </trkpt>
      <trkpt lat="39.0860410" lon="1.4596020">
        <ele>24.8</ele>
        <time>2020-02-22T14:45:16Z</time>
      </trkpt>
      <trkpt lat="39.0860330" lon="1.4596180">
        <ele>24.9</ele>
        <time>2020-02-22T14:45:17Z</time>
      </trkpt>
      <trkpt lat="39.0860100" lon="1.4596300">
        <ele>25.0</ele>
        <time>2020-02-22T14:45:18Z</time>
      </trkpt>
      <trkpt lat="39.0859970" lon="1.4596310">
        <ele>25.1</ele>
        <time>2020-02-22T14:45:19Z</time>
      </trkpt>
      <trkpt lat="39.0859670" lon="1.4596450">
        <ele>25.2</ele>
        <time>2020-02-22T14:45:20Z</time>
      </trkpt>
      <trkpt lat="39.0859590" lon="1.4596510">
        <ele>25.3</ele>
        <time>2020-02-22T14:45:21Z</time>
      </trkpt>
      <trkpt lat="39.0859300" lon="1.4596670">
        <ele>25.5</ele>
        <time>2020-02-22T14:45:22Z</time>
      </trkpt>
      <trkpt lat="39.0859210" lon="1.4596720">
        <ele>25.5</ele>
        <time>2020-02-22T14:45:23Z</time>
      </trkpt>
      <trkpt lat="39.0859000" lon="1.4596740">
        <ele>25.6</ele>
        <time>2020-02-22T14:45:24Z</time>
      </trkpt>
      <trkpt lat="39.0858870" lon="1.4596720">
        <ele>25.6</ele>
        <time>2020-02-22T14:45:25Z</time>
      </trkpt>
      <trkpt lat="39.0858570" lon="1.4596760">
        <ele>25.8</ele>
        <time>2020-02-22T14:45:26Z</time>
      </trkpt>
      <trkpt lat="39.0858510" lon="1.4596790">
        <ele>25.8</ele>
        <time>2020-02-22T14:45:27Z</time>
      </trkpt>
      <trkpt lat="39.0858210" lon="1.4597030">
        <ele>25.9</ele>
        <time>2020-02-22T14:45:28Z</time>
      </trkpt>
      <trkpt lat="39.0858070" lon="1.4597130">
        <ele>26.0</ele>
        <time>2020-02-22T14:45:29Z</time>
      </trkpt>
      <trkpt lat="39.0857820" lon="1.4597280">
        <ele>26.0</ele>
        <time>2020-02-22T14:45:30Z</time>
      </trkpt>
      <trkpt lat="39.0857550" lon="1.4597350">
        <ele>26.1</ele>
        <time>2020-02-22T14:45:31Z</time>
      </trkpt>
      <trkpt lat="39.0857240" lon="1.4597320">
        <ele>26.2</ele>
        <time>2020-02-22T14:45:32Z</time>
      </trkpt>
      <trkpt lat="39.0857150" lon="1.4597310">
        <ele>26.2</ele>
        <time>2020-02-22T14:45:33Z</time>
      </trkpt>
      <trkpt lat="39.0856800" lon="1.4597390">
        <ele>26.2</ele>
        <time>2020-02-22T14:45:34Z</time>
      </trkpt>
      <trkpt lat="39.0856700" lon="1.4597420">
        <ele>26.2</ele>
        <time>2020-02-22T14:45:35Z</time>
      </trkpt>
      <trkpt lat="39.0856320" lon="1.4597460">
        <ele>26.3</ele>
        <time>2020-02-22T14:45:36Z</time>
      </trkpt>
      <trkpt lat="39.0856160" lon="1.4597450">
        <ele>26.3</ele>
        <time>2020-02-22T14:45:37Z</time>
      </trkpt>
      <trkpt lat="39.0855760" lon="1.4597370">
        <ele>26.3</ele>
        <time>2020-02-22T14:45:38Z</time>
      </trkpt>
      <trkpt lat="39.0855480" lon="1.4597350">
        <ele>26.3</ele>
        <time>2020-02-22T14:45:39Z</time>
      </trkpt>
      <trkpt lat="39.0855320" lon="1.4597230">
        <ele>26.3</ele>
        <time>2020-02-22T14:45:40Z</time>
      </trkpt>
      <trkpt lat="39.0855140" lon="1.4597210">
        <ele>26.3</ele>
        <time>2020-02-22T14:45:41Z</time>
      </trkpt>
      <trkpt lat="39.0854800" lon="1.4597160">
        <ele>26.3</ele>
        <time>2020-02-22T14:45:42Z</time>
      </trkpt>
      <trkpt lat="39.0854650" lon="1.4597130">
        <ele>26.3</ele>
        <time>2020-02-22T14:45:43Z</time>
      </trkpt>
      <trkpt lat="39.0854360" lon="1.4597090">
        <ele>26.3</ele>
        <time>2020-02-22T14:45:44Z</time>
      </trkpt>
      <trkpt lat="39.0854270" lon="1.4597030">
        <ele>26.3</ele>
        <time>2020-02-22T14:45:45Z</time>
      </trkpt>
      <trkpt lat="39.0853890" lon="1.4596910">
        <ele>26.3</ele>
        <time>2020-02-22T14:45:46Z</time>
      </trkpt>
      <trkpt lat="39.0853510" lon="1.4596970">
        <ele>26.3</ele>
        <time>2020-02-22T14:45:47Z</time>
      </trkpt>
      <trkpt lat="39.0853370" lon="1.4596970">
        <ele>26.3</ele>
        <time>2020-02-22T14:45:48Z</time>
      </trkpt>
      <trkpt lat="39.0853070" lon="1.4596980">
        <ele>26.3</ele>
        <time>2020-02-22T14:45:49Z</time>
      </trkpt>
      <trkpt lat="39.0852730" lon="1.4597020">
        <ele>26.3</ele>
        <time>2020-02-22T14:45:50Z</time>
      </trkpt>
      <trkpt lat="39.0852590" lon="1.4597040">
        <ele>26.4</ele>
        <time>2020-02-22T14:45:51Z</time>
      </trkpt>
      <trkpt lat="39.0852300" lon="1.4596970">
        <ele>26.4</ele>
        <time>2020-02-22T14:45:52Z</time>
      </trkpt>
      <trkpt lat="39.0851950" lon="1.4596840">
        <ele>26.4</ele>
        <time>2020-02-22T14:45:53Z</time>
      </trkpt>
      <trkpt lat="39.0851790" lon="1.4596820">
        <ele>26.5</ele>
        <time>2020-02-22T14:45:54Z</time>
      </trkpt>
      <trkpt lat="39.0851400" lon="1.4596810">
        <ele>26.6</ele>
        <time>2020-02-22T14:45:55Z</time>
      </trkpt>
      <trkpt lat="39.0850990" lon="1.4596770">
        <ele>26.7</ele>
        <time>2020-02-22T14:45:56Z</time>
      </trkpt>
      <trkpt lat="39.0850840" lon="1.4596720">
        <ele>26.7</ele>
        <time>2020-02-22T14:45:57Z</time>
      </trkpt>
      <trkpt lat="39.0850540" lon="1.4596590">
        <ele>26.8</ele>
        <time>2020-02-22T14:45:58Z</time>
      </trkpt>
      <trkpt lat="39.0850240" lon="1.4596510">
        <ele>26.9</ele>
        <time>2020-02-22T14:45:59Z</time>
      </trkpt>
      <trkpt lat="39.0849950" lon="1.4596430">
        <ele>27.0</ele>
        <time>2020-02-22T14:46:00Z</time>
      </trkpt>
      <trkpt lat="39.0849610" lon="1.4596430">
        <ele>27.0</ele>
        <time>2020-02-22T14:46:01Z</time>
      </trkpt>
      <trkpt lat="39.0849270" lon="1.4596410">
        <ele>27.1</ele>
        <time>2020-02-22T14:46:02Z</time>
      </trkpt>
      <trkpt lat="39.0848980" lon="1.4596300">
        <ele>27.1</ele>
        <time>2020-02-22T14:46:03Z</time>
      </trkpt>
      <trkpt lat="39.0848670" lon="1.4596140">
        <ele>27.1</ele>
        <time>2020-02-22T14:46:04Z</time>
      </trkpt>
      <trkpt lat="39.0848520" lon="1.4596110">
        <ele>27.1</ele>
        <time>2020-02-22T14:46:05Z</time>
      </trkpt>
      <trkpt lat="39.0848230" lon="1.4596100">
        <ele>27.1</ele>
        <time>2020-02-22T14:46:06Z</time>
      </trkpt>
      <trkpt lat="39.0847940" lon="1.4595970">
        <ele>27.1</ele>
        <time>2020-02-22T14:46:07Z</time>
      </trkpt>
      <trkpt lat="39.0847670" lon="1.4595920">
        <ele>27.1</ele>
        <time>2020-02-22T14:46:08Z</time>
      </trkpt>
      <trkpt lat="39.0847270" lon="1.4595980">
        <ele>27.1</ele>
        <time>2020-02-22T14:46:09Z</time>
      </trkpt>
      <trkpt lat="39.0847040" lon="1.4596200">
        <ele>27.1</ele>
        <time>2020-02-22T14:46:10Z</time>
      </trkpt>
      <trkpt lat="39.0846990" lon="1.4596700">
        <ele>27.1</ele>
        <time>2020-02-22T14:46:11Z</time>
      </trkpt>
      <trkpt lat="39.0847150" lon="1.4597040">
        <ele>27.1</ele>
        <time>2020-02-22T14:46:12Z</time>
      </trkpt>
      <trkpt lat="39.0847410" lon="1.4597200">
        <ele>27.1</ele>
        <time>2020-02-22T14:46:13Z</time>
      </trkpt>
      <trkpt lat="39.0847480" lon="1.4597280">
        <ele>27.1</ele>
        <time>2020-02-22T14:46:14Z</time>
      </trkpt>
      <trkpt lat="39.0847700" lon="1.4597600">
        <ele>27.1</ele>
        <time>2020-02-22T14:46:15Z</time>
      </trkpt>
      <trkpt lat="39.0848020" lon="1.4597650">
        <ele>27.0</ele>
        <time>2020-02-22T14:46:16Z</time>
      </trkpt>
      <trkpt lat="39.0848120" lon="1.4597690">
        <ele>27.0</ele>
        <time>2020-02-22T14:46:17Z</time>
      </trkpt>
      <trkpt lat="39.0848380" lon="1.4597880">
        <ele>27.0</ele>
        <time>2020-02-22T14:46:18Z</time>
      </trkpt>
      <trkpt lat="39.0848690" lon="1.4598030">
        <ele>26.9</ele>
        <time>2020-02-22T14:46:19Z</time>
      </trkpt>
      <trkpt lat="39.0848770" lon="1.4598090">
        <ele>26.9</ele>
        <time>2020-02-22T14:46:20Z</time>
      </trkpt>
      <trkpt lat="39.0849060" lon="1.4598390">
        <ele>26.8</ele>
        <time>2020-02-22T14:46:21Z</time>
      </trkpt>
      <trkpt lat="39.0849150" lon="1.4598510">
        <ele>26.8</ele>
        <time>2020-02-22T14:46:22Z</time>
      </trkpt>
      <trkpt lat="39.0849480" lon="1.4598570">
        <ele>26.7</ele>
        <time>2020-02-22T14:46:23Z</time>
      </trkpt>
      <trkpt lat="39.0849550" lon="1.4598580">
        <ele>26.7</ele>
        <time>2020-02-22T14:46:24Z</time>
      </trkpt>
      <trkpt lat="39.0849800" lon="1.4598740">
        <ele>26.6</ele>
        <time>2020-02-22T14:46:25Z</time>
      </trkpt>
      <trkpt lat="39.0849880" lon="1.4598810">
        <ele>26.6</ele>
        <time>2020-02-22T14:46:26Z</time>
      </trkpt>
      <trkpt lat="39.0850160" lon="1.4598930">
        <ele>26.6</ele>
        <time>2020-02-22T14:46:27Z</time>
      </trkpt>
      <trkpt lat="39.0850240" lon="1.4598960">
        <ele>26.5</ele>
        <time>2020-02-22T14:46:28Z</time>
      </trkpt>
      <trkpt lat="39.0850660" lon="1.4599010">
        <ele>26.5</ele>
        <time>2020-02-22T14:46:29Z</time>
      </trkpt>
      <trkpt lat="39.0850810" lon="1.4599050">
        <ele>26.4</ele>
        <time>2020-02-22T14:46:30Z</time>
      </trkpt>
      <trkpt lat="39.0851080" lon="1.4599040">
        <ele>26.4</ele>
        <time>2020-02-22T14:46:31Z</time>
      </trkpt>
      <trkpt lat="39.0851450" lon="1.4599190">
        <ele>26.4</ele>
        <time>2020-02-22T14:46:32Z</time>
      </trkpt>
      <trkpt lat="39.0851580" lon="1.4599210">
        <ele>26.4</ele>
        <time>2020-02-22T14:46:33Z</time>
      </trkpt>
      <trkpt lat="39.0851880" lon="1.4599200">
        <ele>26.3</ele>
        <time>2020-02-22T14:46:34Z</time>
      </trkpt>
      <trkpt lat="39.0851960" lon="1.4599190">
        <ele>26.3</ele>
        <time>2020-02-22T14:46:35Z</time>
      </trkpt>
      <trkpt lat="39.0852270" lon="1.4599290">
        <ele>26.3</ele>
        <time>2020-02-22T14:46:36Z</time>
      </trkpt>
      <trkpt lat="39.0852390" lon="1.4599320">
        <ele>26.3</ele>
        <time>2020-02-22T14:46:37Z</time>
      </trkpt>
      <trkpt lat="39.0852640" lon="1.4599460">
        <ele>26.3</ele>
        <time>2020-02-22T14:46:38Z</time>
      </trkpt>
      <trkpt lat="39.0852910" lon="1.4599560">
        <ele>26.3</ele>
        <time>2020-02-22T14:46:39Z</time>
      </trkpt>
      <trkpt lat="39.0853200" lon="1.4599690">
        <ele>26.3</ele>
        <time>2020-02-22T14:46:40Z</time>
      </trkpt>
      <trkpt lat="39.0853570" lon="1.4599880">
        <ele>26.3</ele>
        <time>2020-02-22T14:46:41Z</time>
      </trkpt>
      <trkpt lat="39.0853850" lon="1.4600030">
        <ele>26.3</ele>
        <time>2020-02-22T14:46:42Z</time>
      </trkpt>
      <trkpt lat="39.0854130" lon="1.4600230">
        <ele>26.3</ele>
        <time>2020-02-22T14:46:43Z</time>
      </trkpt>
      <trkpt lat="39.0854510" lon="1.4600460">
        <ele>26.3</ele>
        <time>2020-02-22T14:46:44Z</time>
      </trkpt>
      <trkpt lat="39.0854660" lon="1.4600530">
        <ele>26.3</ele>
        <time>2020-02-22T14:46:45Z</time>
      </trkpt>
      <trkpt lat="39.0855020" lon="1.4600620">
        <ele>26.3</ele>
        <time>2020-02-22T14:46:46Z</time>
      </trkpt>
      <trkpt lat="39.0855140" lon="1.4600620">
        <ele>26.3</ele>
        <time>2020-02-22T14:46:47Z</time>
      </trkpt>
      <trkpt lat="39.0855520" lon="1.4600700">
        <ele>26.3</ele>
        <time>2020-02-22T14:46:48Z</time>
      </trkpt>
      <trkpt lat="39.0855660" lon="1.4600730">
        <ele>26.3</ele>
        <time>2020-02-22T14:46:49Z</time>
      </trkpt>
      <trkpt lat="39.0855990" lon="1.4600820">
        <ele>26.3</ele>
        <time>2020-02-22T14:46:50Z</time>
      </trkpt>
      <trkpt lat="39.0856090" lon="1.4600860">
        <ele>26.3</ele>
        <time>2020-02-22T14:46:51Z</time>
      </trkpt>
      <trkpt lat="39.0856450" lon="1.4600810">
        <ele>26.2</ele>
        <time>2020-02-22T14:46:52Z</time>
      </trkpt>
      <trkpt lat="39.0856570" lon="1.4600760">
        <ele>26.2</ele>
        <time>2020-02-22T14:46:53Z</time>
      </trkpt>
      <trkpt lat="39.0856860" lon="1.4600790">
        <ele>26.2</ele>
        <time>2020-02-22T14:46:54Z</time>
      </trkpt>
      <trkpt lat="39.0856940" lon="1.4600800">
        <ele>26.2</ele>
        <time>2020-02-22T14:46:55Z</time>
      </trkpt>
      <trkpt lat="39.0857150" lon="1.4600870">
        <ele>26.1</ele>
        <time>2020-02-22T14:46:56Z</time>
      </trkpt>
      <trkpt lat="39.0857260" lon="1.4600890">
        <ele>26.2</ele>
        <time>2020-02-22T14:46:57Z</time>
      </trkpt>
      <trkpt lat="39.0857380" lon="1.4600910">
        <ele>26.0</ele>
        <time>2020-02-22T14:46:58Z</time>
      </trkpt>
      <trkpt lat="39.0857670" lon="1.4601010">
        <ele>26.1</ele>
        <time>2020-02-22T14:46:59Z</time>
      </trkpt>
      <trkpt lat="39.0857770" lon="1.4601030">
        <ele>26.0</ele>
        <time>2020-02-22T14:47:00Z</time>
      </trkpt>
      <trkpt lat="39.0858110" lon="1.4601140">
        <ele>26.4</ele>
        <time>2020-02-22T14:47:01Z</time>
      </trkpt>
      <trkpt lat="39.0858210" lon="1.4601190">
        <ele>26.5</ele>
        <time>2020-02-22T14:47:02Z</time>
      </trkpt>
      <trkpt lat="39.0858490" lon="1.4601560">
        <ele>26.9</ele>
        <time>2020-02-22T14:47:03Z</time>
      </trkpt>
      <trkpt lat="39.0858570" lon="1.4601700">
        <ele>27.0</ele>
        <time>2020-02-22T14:47:04Z</time>
      </trkpt>
      <trkpt lat="39.0858810" lon="1.4601950">
        <ele>27.3</ele>
        <time>2020-02-22T14:47:05Z</time>
      </trkpt>
      <trkpt lat="39.0858910" lon="1.4602050">
        <ele>27.4</ele>
        <time>2020-02-22T14:47:06Z</time>
      </trkpt>
      <trkpt lat="39.0859140" lon="1.4602450">
        <ele>27.8</ele>
        <time>2020-02-22T14:47:07Z</time>
      </trkpt>
      <trkpt lat="39.0859220" lon="1.4602580">
        <ele>27.9</ele>
        <time>2020-02-22T14:47:08Z</time>
      </trkpt>
      <trkpt lat="39.0859330" lon="1.4603020">
        <ele>28.6</ele>
        <time>2020-02-22T14:47:09Z</time>
      </trkpt>
      <trkpt lat="39.0859340" lon="1.4603140">
        <ele>28.7</ele>
        <time>2020-02-22T14:47:10Z</time>
      </trkpt>
      <trkpt lat="39.0859440" lon="1.4603340">
        <ele>29.1</ele>
        <time>2020-02-22T14:47:11Z</time>
      </trkpt>
      <trkpt lat="39.0859460" lon="1.4603470">
        <ele>29.2</ele>
        <time>2020-02-22T14:47:12Z</time>
      </trkpt>
      <trkpt lat="39.0859490" lon="1.4603810">
        <ele>29.9</ele>
        <time>2020-02-22T14:47:13Z</time>
      </trkpt>
      <trkpt lat="39.0859500" lon="1.4603940">
        <ele>30.0</ele>
        <time>2020-02-22T14:47:14Z</time>
      </trkpt>
      <trkpt lat="39.0859500" lon="1.4604180">
        <ele>30.7</ele>
        <time>2020-02-22T14:47:15Z</time>
      </trkpt>
      <trkpt lat="39.0859400" lon="1.4604300">
        <ele>30.8</ele>
        <time>2020-02-22T14:47:16Z</time>
      </trkpt>
      <trkpt lat="39.0859450" lon="1.4604420">
        <ele>30.9</ele>
        <time>2020-02-22T14:47:17Z</time>
      </trkpt>
      <trkpt lat="39.0859400" lon="1.4604670">
        <ele>31.5</ele>
        <time>2020-02-22T14:47:18Z</time>
      </trkpt>
      <trkpt lat="39.0859410" lon="1.4605050">
        <ele>32.2</ele>
        <time>2020-02-22T14:47:19Z</time>
      </trkpt>
      <trkpt lat="39.0859390" lon="1.4605150">
        <ele>32.3</ele>
        <time>2020-02-22T14:47:20Z</time>
      </trkpt>
      <trkpt lat="39.0859340" lon="1.4605360">
        <ele>32.7</ele>
        <time>2020-02-22T14:47:21Z</time>
      </trkpt>
      <trkpt lat="39.0859260" lon="1.4605490">
        <ele>33.3</ele>
        <time>2020-02-22T14:47:22Z</time>
      </trkpt>
      <trkpt lat="39.0859110" lon="1.4605420">
        <ele>33.4</ele>
        <time>2020-02-22T14:47:23Z</time>
      </trkpt>
      <trkpt lat="39.0859000" lon="1.4605300">
        <ele>33.3</ele>
        <time>2020-02-22T14:47:24Z</time>
      </trkpt>
      <trkpt lat="39.0858860" lon="1.4605210">
        <ele>33.4</ele>
        <time>2020-02-22T14:47:25Z</time>
      </trkpt>
      <trkpt lat="39.0858740" lon="1.4605180">
        <ele>33.5</ele>
        <time>2020-02-22T14:47:26Z</time>
      </trkpt>
      <trkpt lat="39.0858660" lon="1.4605070">
        <ele>33.9</ele>
        <time>2020-02-22T14:47:27Z</time>
      </trkpt>
      <trkpt lat="39.0858500" lon="1.4604930">
        <ele>33.4</ele>
        <time>2020-02-22T14:47:28Z</time>
      </trkpt>
      <trkpt lat="39.0858370" lon="1.4604810">
        <ele>33.9</ele>
        <time>2020-02-22T14:47:29Z</time>
      </trkpt>
      <trkpt lat="39.0858190" lon="1.4604770">
        <ele>33.9</ele>
        <time>2020-02-22T14:47:30Z</time>
      </trkpt>
      <trkpt lat="39.0858040" lon="1.4604810">
        <ele>34.0</ele>
        <time>2020-02-22T14:47:31Z</time>
      </trkpt>
      <trkpt lat="39.0857890" lon="1.4604770">
        <ele>34.5</ele>
        <time>2020-02-22T14:47:32Z</time>
      </trkpt>
      <trkpt lat="39.0857750" lon="1.4604690">
        <ele>34.6</ele>
        <time>2020-02-22T14:47:33Z</time>
      </trkpt>
      <trkpt lat="39.0857570" lon="1.4604650">
        <ele>35.0</ele>
        <time>2020-02-22T14:47:34Z</time>
      </trkpt>
      <trkpt lat="39.0857460" lon="1.4604600">
        <ele>35.1</ele>
        <time>2020-02-22T14:47:35Z</time>
      </trkpt>
      <trkpt lat="39.0857300" lon="1.4604530">
        <ele>35.5</ele>
        <time>2020-02-22T14:47:36Z</time>
      </trkpt>
      <trkpt lat="39.0857020" lon="1.4604470">
        <ele>35.3</ele>
        <time>2020-02-22T14:47:37Z</time>
      </trkpt>
      <trkpt lat="39.0856900" lon="1.4604480">
        <ele>35.4</ele>
        <time>2020-02-22T14:47:38Z</time>
      </trkpt>
      <trkpt lat="39.0856580" lon="1.4604450">
        <ele>35.8</ele>
        <time>2020-02-22T14:47:39Z</time>
      </trkpt>
      <trkpt lat="39.0856470" lon="1.4604470">
        <ele>35.9</ele>
        <time>2020-02-22T14:47:40Z</time>
      </trkpt>
      <trkpt lat="39.0856280" lon="1.4604490">
        <ele>36.4</ele>
        <time>2020-02-22T14:47:41Z</time>
      </trkpt>
      <trkpt lat="39.0856140" lon="1.4604410">
        <ele>36.5</ele>
        <time>2020-02-22T14:47:42Z</time>
      </trkpt>
      <trkpt lat="39.0855930" lon="1.4604310">
        <ele>37.0</ele>
        <time>2020-02-22T14:47:43Z</time>
      </trkpt>
      <trkpt lat="39.0855810" lon="1.4604340">
        <ele>37.0</ele>
        <time>2020-02-22T14:47:44Z</time>
      </trkpt>
      <trkpt lat="39.0855700" lon="1.4604360">
        <ele>37.5</ele>
        <time>2020-02-22T14:47:45Z</time>
      </trkpt>
      <trkpt lat="39.0855360" lon="1.4604320">
        <ele>38.0</ele>
        <time>2020-02-22T14:47:46Z</time>
      </trkpt>
      <trkpt lat="39.0855270" lon="1.4604310">
        <ele>38.1</ele>
        <time>2020-02-22T14:47:47Z</time>
      </trkpt>
      <trkpt lat="39.0854980" lon="1.4604530">
        <ele>39.4</ele>
        <time>2020-02-22T14:47:48Z</time>
      </trkpt>
      <trkpt lat="39.0854900" lon="1.4604590">
        <ele>39.5</ele>
        <time>2020-02-22T14:47:49Z</time>
      </trkpt>
      <trkpt lat="39.0854680" lon="1.4604590">
        <ele>40.0</ele>
        <time>2020-02-22T14:47:50Z</time>
      </trkpt>
      <trkpt lat="39.0854610" lon="1.4604640">
        <ele>40.1</ele>
        <time>2020-02-22T14:47:51Z</time>
      </trkpt>
      <trkpt lat="39.0854480" lon="1.4604490">
        <ele>39.3</ele>
        <time>2020-02-22T14:47:52Z</time>
      </trkpt>
      <trkpt lat="39.0854360" lon="1.4604600">
        <ele>40.7</ele>
        <time>2020-02-22T14:47:53Z</time>
      </trkpt>
      <trkpt lat="39.0854320" lon="1.4604760">
        <ele>40.8</ele>
        <time>2020-02-22T14:47:54Z</time>
      </trkpt>
      <trkpt lat="39.0854260" lon="1.4604960">
        <ele>41.8</ele>
        <time>2020-02-22T14:47:55Z</time>
      </trkpt>
      <trkpt lat="39.0854250" lon="1.4605150">
        <ele>41.9</ele>
        <time>2020-02-22T14:47:56Z</time>
      </trkpt>
      <trkpt lat="39.0854220" lon="1.4605290">
        <ele>42.0</ele>
        <time>2020-02-22T14:47:57Z</time>
      </trkpt>
      <trkpt lat="39.0854210" lon="1.4605390">
        <ele>43.0</ele>
        <time>2020-02-22T14:47:58Z</time>
      </trkpt>
      <trkpt lat="39.0854200" lon="1.4605410">
        <ele>43.1</ele>
        <time>2020-02-22T14:47:59Z</time>
      </trkpt>
      <trkpt lat="39.0854240" lon="1.4605490">
        <ele>43.2</ele>
        <time>2020-02-22T14:48:00Z</time>
      </trkpt>
      <trkpt lat="39.0854320" lon="1.4605390">
        <ele>43.2</ele>
        <time>2020-02-22T14:48:01Z</time>
      </trkpt>
      <trkpt lat="39.0854470" lon="1.4605420">
        <ele>42.9</ele>
        <time>2020-02-22T14:48:02Z</time>
      </trkpt>
      <trkpt lat="39.0854610" lon="1.4605440">
        <ele>43.0</ele>
        <time>2020-02-22T14:48:03Z</time>
      </trkpt>
      <trkpt lat="39.0854820" lon="1.4605460">
        <ele>42.6</ele>
        <time>2020-02-22T14:48:04Z</time>
      </trkpt>
      <trkpt lat="39.0854980" lon="1.4605500">
        <ele>42.7</ele>
        <time>2020-02-22T14:48:05Z</time>
      </trkpt>
      <trkpt lat="39.0855140" lon="1.4605630">
        <ele>42.3</ele>
        <time>2020-02-22T14:48:06Z</time>
      </trkpt>
      <trkpt lat="39.0855280" lon="1.4605690">
        <ele>42.4</ele>
        <time>2020-02-22T14:48:07Z</time>
      </trkpt>
      <trkpt lat="39.0855420" lon="1.4605780">
        <ele>42.0</ele>
        <time>2020-02-22T14:48:08Z</time>
      </trkpt>
      <trkpt lat="39.0855540" lon="1.4606010">
        <ele>42.9</ele>
        <time>2020-02-22T14:48:09Z</time>
      </trkpt>
      <trkpt lat="39.0855590" lon="1.4606100">
        <ele>43.0</ele>
        <time>2020-02-22T14:48:10Z</time>
      </trkpt>
      <trkpt lat="39.0855630" lon="1.4606200">
        <ele>43.1</ele>
        <time>2020-02-22T14:48:11Z</time>
      </trkpt>
      <trkpt lat="39.0855780" lon="1.4606340">
        <ele>43.3</ele>
        <time>2020-02-22T14:48:12Z</time>
      </trkpt>
      <trkpt lat="39.0855860" lon="1.4606430">
        <ele>43.4</ele>
        <time>2020-02-22T14:48:13Z</time>
      </trkpt>
      <trkpt lat="39.0855930" lon="1.4606510">
        <ele>43.5</ele>
        <time>2020-02-22T14:48:14Z</time>
      </trkpt>
      <trkpt lat="39.0856210" lon="1.4606630">
        <ele>43.1</ele>
        <time>2020-02-22T14:48:15Z</time>
      </trkpt>
      <trkpt lat="39.0856310" lon="1.4606720">
        <ele>43.8</ele>
        <time>2020-02-22T14:48:16Z</time>
      </trkpt>
      <trkpt lat="39.0856390" lon="1.4606740">
        <ele>43.4</ele>
        <time>2020-02-22T14:48:17Z</time>
      </trkpt>
      <trkpt lat="39.0856470" lon="1.4606840">
        <ele>43.5</ele>
        <time>2020-02-22T14:48:18Z</time>
      </trkpt>
      <trkpt lat="39.0856600" lon="1.4606940">
        <ele>43.6</ele>
        <time>2020-02-22T14:48:19Z</time>
      </trkpt>
      <trkpt lat="39.0856620" lon="1.4607010">
        <ele>43.7</ele>
        <time>2020-02-22T14:48:20Z</time>
      </trkpt>
      <trkpt lat="39.0856630" lon="1.4607060">
        <ele>43.7</ele>
        <time>2020-02-22T14:48:21Z</time>
      </trkpt>
      <trkpt lat="39.0856640" lon="1.4607100">
        <ele>44.5</ele>
        <time>2020-02-22T14:48:22Z</time>
      </trkpt>
      <trkpt lat="39.0856650" lon="1.4607150">
        <ele>44.6</ele>
        <time>2020-02-22T14:48:23Z</time>
      </trkpt>
      <trkpt lat="39.0856670" lon="1.4607200">
        <ele>44.7</ele>
        <time>2020-02-22T14:48:24Z</time>
      </trkpt>
      <trkpt lat="39.0856680" lon="1.4607250">
        <ele>44.8</ele>
        <time>2020-02-22T14:48:25Z</time>
      </trkpt>
      <trkpt lat="39.0856690" lon="1.4607300">
        <ele>44.8</ele>
        <time>2020-02-22T14:48:26Z</time>
      </trkpt>
      <trkpt lat="39.0856700" lon="1.4607340">
        <ele>44.9</ele>
        <time>2020-02-22T14:48:27Z</time>
      </trkpt>
      <trkpt lat="39.0856710" lon="1.4607390">
        <ele>44.5</ele>
        <time>2020-02-22T14:48:28Z</time>
      </trkpt>
      <trkpt lat="39.0856720" lon="1.4607440">
        <ele>44.6</ele>
        <time>2020-02-22T14:48:29Z</time>
      </trkpt>
      <trkpt lat="39.0856690" lon="1.4607780">
        <ele>45.9</ele>
        <time>2020-02-22T14:48:30Z</time>
      </trkpt>
      <trkpt lat="39.0856650" lon="1.4607920">
        <ele>46.0</ele>
        <time>2020-02-22T14:48:31Z</time>
      </trkpt>
      <trkpt lat="39.0856500" lon="1.4608030">
        <ele>46.7</ele>
        <time>2020-02-22T14:48:32Z</time>
      </trkpt>
      <trkpt lat="39.0856310" lon="1.4608000">
        <ele>47.4</ele>
        <time>2020-02-22T14:48:33Z</time>
      </trkpt>
      <trkpt lat="39.0856140" lon="1.4608020">
        <ele>47.5</ele>
        <time>2020-02-22T14:48:34Z</time>
      </trkpt>
      <trkpt lat="39.0856000" lon="1.4607920">
        <ele>47.5</ele>
        <time>2020-02-22T14:48:35Z</time>
      </trkpt>
      <trkpt lat="39.0855810" lon="1.4607890">
        <ele>47.6</ele>
        <time>2020-02-22T14:48:36Z</time>
      </trkpt>
      <trkpt lat="39.0855730" lon="1.4607870">
        <ele>47.7</ele>
        <time>2020-02-22T14:48:37Z</time>
      </trkpt>
      <trkpt lat="39.0855660" lon="1.4607840">
        <ele>48.3</ele>
        <time>2020-02-22T14:48:38Z</time>
      </trkpt>
      <trkpt lat="39.0855580" lon="1.4607820">
        <ele>48.4</ele>
        <time>2020-02-22T14:48:39Z</time>
      </trkpt>
      <trkpt lat="39.0855400" lon="1.4607810">
        <ele>48.5</ele>
        <time>2020-02-22T14:48:40Z</time>
      </trkpt>
      <trkpt lat="39.0855280" lon="1.4607770">
        <ele>49.2</ele>
        <time>2020-02-22T14:48:41Z</time>
      </trkpt>
      <trkpt lat="39.0855150" lon="1.4607740">
        <ele>49.3</ele>
        <time>2020-02-22T14:48:42Z</time>
      </trkpt>
      <trkpt lat="39.0854990" lon="1.4607720">
        <ele>49.9</ele>
        <time>2020-02-22T14:48:43Z</time>
      </trkpt>
      <trkpt lat="39.0854930" lon="1.4607740">
        <ele>50.0</ele>
        <time>2020-02-22T14:48:44Z</time>
      </trkpt>
      <trkpt lat="39.0854800" lon="1.4607750">
        <ele>50.1</ele>
        <time>2020-02-22T14:48:45Z</time>
      </trkpt>
      <trkpt lat="39.0854660" lon="1.4607720">
        <ele>50.8</ele>
        <time>2020-02-22T14:48:46Z</time>
      </trkpt>
      <trkpt lat="39.0854390" lon="1.4607850">
        <ele>50.8</ele>
        <time>2020-02-22T14:48:47Z</time>
      </trkpt>
      <trkpt lat="39.0854190" lon="1.4608080">
        <ele>52.1</ele>
        <time>2020-02-22T14:48:48Z</time>
      </trkpt>
      <trkpt lat="39.0854100" lon="1.4608190">
        <ele>52.2</ele>
        <time>2020-02-22T14:48:49Z</time>
      </trkpt>
      <trkpt lat="39.0853900" lon="1.4608450">
        <ele>53.5</ele>
        <time>2020-02-22T14:48:50Z</time>
      </trkpt>
      <trkpt lat="39.0853680" lon="1.4608580">
        <ele>54.2</ele>
        <time>2020-02-22T14:48:51Z</time>
      </trkpt>
      <trkpt lat="39.0853590" lon="1.4608690">
        <ele>54.3</ele>
        <time>2020-02-22T14:48:52Z</time>
      </trkpt>
      <trkpt lat="39.0853600" lon="1.4608800">
        <ele>54.3</ele>
        <time>2020-02-22T14:48:53Z</time>
      </trkpt>
      <trkpt lat="39.0853500" lon="1.4608910">
        <ele>55.1</ele>
        <time>2020-02-22T14:48:54Z</time>
      </trkpt>
      <trkpt lat="39.0853390" lon="1.4609020">
        <ele>55.2</ele>
        <time>2020-02-22T14:48:55Z</time>
      </trkpt>
      <trkpt lat="39.0853250" lon="1.4609080">
        <ele>55.8</ele>
        <time>2020-02-22T14:48:56Z</time>
      </trkpt>
      <trkpt lat="39.0853190" lon="1.4609030">
        <ele>55.9</ele>
        <time>2020-02-22T14:48:57Z</time>
      </trkpt>
      <trkpt lat="39.0853150" lon="1.4609120">
        <ele>56.0</ele>
        <time>2020-02-22T14:48:58Z</time>
      </trkpt>
      <trkpt lat="39.0853180" lon="1.4609140">
        <ele>56.1</ele>
        <time>2020-02-22T14:48:59Z</time>
      </trkpt>
      <trkpt lat="39.0853140" lon="1.4609040">
        <ele>56.2</ele>
        <time>2020-02-22T14:49:00Z</time>
      </trkpt>
      <trkpt lat="39.0853160" lon="1.4609020">
        <ele>56.3</ele>
        <time>2020-02-22T14:49:01Z</time>
      </trkpt>
      <trkpt lat="39.0853210" lon="1.4609000">
        <ele>56.4</ele>
        <time>2020-02-22T14:49:02Z</time>
      </trkpt>
      <trkpt lat="39.0853210" lon="1.4608980">
        <ele>56.5</ele>
        <time>2020-02-22T14:49:03Z</time>
      </trkpt>
      <trkpt lat="39.0853140" lon="1.4609010">
        <ele>56.6</ele>
        <time>2020-02-22T14:49:04Z</time>
      </trkpt>
      <trkpt lat="39.0853210" lon="1.4609060">
        <ele>56.7</ele>
        <time>2020-02-22T14:49:05Z</time>
      </trkpt>
      <trkpt lat="39.0853210" lon="1.4609070">
        <ele>56.8</ele>
        <time>2020-02-22T14:49:06Z</time>
      </trkpt>
      <trkpt lat="39.0853180" lon="1.4609070">
        <ele>56.9</ele>
        <time>2020-02-22T14:49:07Z</time>
      </trkpt>
      <trkpt lat="39.0853180" lon="1.4609080">
        <ele>57.0</ele>
        <time>2020-02-22T14:49:08Z</time>
      </trkpt>
      <trkpt lat="39.0853180" lon="1.4609090">
        <ele>57.1</ele>
        <time>2020-02-22T14:49:09Z</time>
      </trkpt>
      <trkpt lat="39.0853180" lon="1.4609100">
        <ele>57.1</ele>
        <time>2020-02-22T14:49:10Z</time>
      </trkpt>
      <trkpt lat="39.0852730" lon="1.4609230">
        <ele>57.8</ele>
        <time>2020-02-22T14:49:19Z</time>
      </trkpt>
      <trkpt lat="39.0852420" lon="1.4609370">
        <ele>59.0</ele>
        <time>2020-02-22T14:49:20Z</time>
      </trkpt>
      <trkpt lat="39.0852060" lon="1.4609540">
        <ele>59.6</ele>
        <time>2020-02-22T14:49:21Z</time>
      </trkpt>
      <trkpt lat="39.0851940" lon="1.4609570">
        <ele>60.2</ele>
        <time>2020-02-22T14:49:22Z</time>
      </trkpt>
      <trkpt lat="39.0851610" lon="1.4609630">
        <ele>60.7</ele>
        <time>2020-02-22T14:49:23Z</time>
      </trkpt>
      <trkpt lat="39.0851480" lon="1.4609640">
        <ele>60.8</ele>
        <time>2020-02-22T14:49:24Z</time>
      </trkpt>
      <trkpt lat="39.0851120" lon="1.4609700">
        <ele>61.9</ele>
        <time>2020-02-22T14:49:25Z</time>
      </trkpt>
      <trkpt lat="39.0851010" lon="1.4609730">
        <ele>62.4</ele>
        <time>2020-02-22T14:49:26Z</time>
      </trkpt>
      <trkpt lat="39.0850660" lon="1.4609620">
        <ele>62.3</ele>
        <time>2020-02-22T14:49:27Z</time>
      </trkpt>
      <trkpt lat="39.0850550" lon="1.4609570">
        <ele>62.4</ele>
        <time>2020-02-22T14:49:28Z</time>
      </trkpt>
      <trkpt lat="39.0850240" lon="1.4609340">
        <ele>62.9</ele>
        <time>2020-02-22T14:49:29Z</time>
      </trkpt>
      <trkpt lat="39.0850130" lon="1.4609240">
        <ele>62.3</ele>
        <time>2020-02-22T14:49:30Z</time>
      </trkpt>
      <trkpt lat="39.0849880" lon="1.4609080">
        <ele>62.7</ele>
        <time>2020-02-22T14:49:31Z</time>
      </trkpt>
      <trkpt lat="39.0849790" lon="1.4609050">
        <ele>62.8</ele>
        <time>2020-02-22T14:49:32Z</time>
      </trkpt>
      <trkpt lat="39.0849490" lon="1.4608970">
        <ele>63.2</ele>
        <time>2020-02-22T14:49:33Z</time>
      </trkpt>
      <trkpt lat="39.0849340" lon="1.4608940">
        <ele>63.6</ele>
        <time>2020-02-22T14:49:34Z</time>
      </trkpt>
      <trkpt lat="39.0849090" lon="1.4608730">
        <ele>62.9</ele>
        <time>2020-02-22T14:49:35Z</time>
      </trkpt>
      <trkpt lat="39.0849010" lon="1.4608680">
        <ele>63.3</ele>
        <time>2020-02-22T14:49:36Z</time>
      </trkpt>
      <trkpt lat="39.0848720" lon="1.4608510">
        <ele>63.4</ele>
        <time>2020-02-22T14:49:37Z</time>
      </trkpt>
      <trkpt lat="39.0848590" lon="1.4608470">
        <ele>63.7</ele>
        <time>2020-02-22T14:49:38Z</time>
      </trkpt>
      <trkpt lat="39.0848410" lon="1.4608460">
        <ele>63.8</ele>
        <time>2020-02-22T14:49:39Z</time>
      </trkpt>
      <trkpt lat="39.0848290" lon="1.4608570">
        <ele>64.1</ele>
        <time>2020-02-22T14:49:40Z</time>
      </trkpt>
      <trkpt lat="39.0847990" lon="1.4608870">
        <ele>65.2</ele>
        <time>2020-02-22T14:49:41Z</time>
      </trkpt>
      <trkpt lat="39.0847900" lon="1.4608970">
        <ele>65.3</ele>
        <time>2020-02-22T14:49:42Z</time>
      </trkpt>
      <trkpt lat="39.0847740" lon="1.4609260">
        <ele>66.1</ele>
        <time>2020-02-22T14:49:43Z</time>
      </trkpt>
      <trkpt lat="39.0847550" lon="1.4609560">
        <ele>66.4</ele>
        <time>2020-02-22T14:49:44Z</time>
      </trkpt>
      <trkpt lat="39.0847460" lon="1.4609610">
        <ele>66.5</ele>
        <time>2020-02-22T14:49:45Z</time>
      </trkpt>
      <trkpt lat="39.0847290" lon="1.4609980">
        <ele>67.3</ele>
        <time>2020-02-22T14:49:46Z</time>
      </trkpt>
      <trkpt lat="39.0847230" lon="1.4610100">
        <ele>67.9</ele>
        <time>2020-02-22T14:49:47Z</time>
      </trkpt>
      <trkpt lat="39.0847000" lon="1.4610320">
        <ele>68.0</ele>
        <time>2020-02-22T14:49:48Z</time>
      </trkpt>
      <trkpt lat="39.0846780" lon="1.4610690">
        <ele>68.5</ele>
        <time>2020-02-22T14:49:49Z</time>
      </trkpt>
      <trkpt lat="39.0846710" lon="1.4610780">
        <ele>68.6</ele>
        <time>2020-02-22T14:49:50Z</time>
      </trkpt>
      <trkpt lat="39.0846650" lon="1.4610970">
        <ele>69.0</ele>
        <time>2020-02-22T14:49:51Z</time>
      </trkpt>
      <trkpt lat="39.0846560" lon="1.4611140">
        <ele>69.1</ele>
        <time>2020-02-22T14:49:52Z</time>
      </trkpt>
      <trkpt lat="39.0846550" lon="1.4611210">
        <ele>69.2</ele>
        <time>2020-02-22T14:49:53Z</time>
      </trkpt>
      <trkpt lat="39.0846560" lon="1.4611240">
        <ele>69.3</ele>
        <time>2020-02-22T14:49:54Z</time>
      </trkpt>
      <trkpt lat="39.0846490" lon="1.4611430">
        <ele>69.7</ele>
        <time>2020-02-22T14:49:55Z</time>
      </trkpt>
      <trkpt lat="39.0846450" lon="1.4611580">
        <ele>69.8</ele>
        <time>2020-02-22T14:49:56Z</time>
      </trkpt>
      <trkpt lat="39.0846420" lon="1.4611620">
        <ele>69.9</ele>
        <time>2020-02-22T14:49:57Z</time>
      </trkpt>
      <trkpt lat="39.0846470" lon="1.4611750">
        <ele>70.0</ele>
        <time>2020-02-22T14:49:58Z</time>
      </trkpt>
      <trkpt lat="39.0846400" lon="1.4611790">
        <ele>70.1</ele>
        <time>2020-02-22T14:49:59Z</time>
      </trkpt>
      <trkpt lat="39.0846410" lon="1.4611820">
        <ele>70.6</ele>
        <time>2020-02-22T14:50:00Z</time>
      </trkpt>
      <trkpt lat="39.0846410" lon="1.4611840">
        <ele>70.7</ele>
        <time>2020-02-22T14:50:01Z</time>
      </trkpt>
      <trkpt lat="39.0846410" lon="1.4611840">
        <ele>70.8</ele>
        <time>2020-02-22T14:50:02Z</time>
      </trkpt>
      <trkpt lat="39.0846410" lon="1.4611840">
        <ele>70.9</ele>
        <time>2020-02-22T14:50:03Z</time>
      </trkpt>
      <trkpt lat="39.0846410" lon="1.4611850">
        <ele>71.0</ele>
        <time>2020-02-22T14:50:04Z</time>
      </trkpt>
      <trkpt lat="39.0846440" lon="1.4611880">
        <ele>71.1</ele>
        <time>2020-02-22T14:50:05Z</time>
      </trkpt>
      <trkpt lat="39.0846510" lon="1.4611880">
        <ele>71.1</ele>
        <time>2020-02-22T14:50:06Z</time>
      </trkpt>
      <trkpt lat="39.0846540" lon="1.4611840">
        <ele>71.2</ele>
        <time>2020-02-22T14:50:07Z</time>
      </trkpt>
      <trkpt lat="39.0846570" lon="1.4611830">
        <ele>71.3</ele>
        <time>2020-02-22T14:50:08Z</time>
      </trkpt>
      <trkpt lat="39.0846550" lon="1.4611160">
        <ele>70.7</ele>
        <time>2020-02-22T14:50:13Z</time>
      </trkpt>
      <trkpt lat="39.0846500" lon="1.4611050">
        <ele>70.8</ele>
        <time>2020-02-22T14:50:14Z</time>
      </trkpt>
      <trkpt lat="39.0846630" lon="1.4610890">
        <ele>70.6</ele>
        <time>2020-02-22T14:50:15Z</time>
      </trkpt>
      <trkpt lat="39.0846750" lon="1.4610720">
        <ele>70.7</ele>
        <time>2020-02-22T14:50:16Z</time>
      </trkpt>
      <trkpt lat="39.0846840" lon="1.4610590">
        <ele>70.8</ele>
        <time>2020-02-22T14:50:17Z</time>
      </trkpt>
      <trkpt lat="39.0846940" lon="1.4610470">
        <ele>70.5</ele>
        <time>2020-02-22T14:50:18Z</time>
      </trkpt>
      <trkpt lat="39.0847170" lon="1.4610200">
        <ele>70.5</ele>
        <time>2020-02-22T14:50:19Z</time>
      </trkpt>
      <trkpt lat="39.0847420" lon="1.4609990">
        <ele>70.0</ele>
        <time>2020-02-22T14:50:20Z</time>
      </trkpt>
      <trkpt lat="39.0847640" lon="1.4609700">
        <ele>70.1</ele>
        <time>2020-02-22T14:50:21Z</time>
      </trkpt>
      <trkpt lat="39.0847720" lon="1.4609580">
        <ele>69.4</ele>
        <time>2020-02-22T14:50:22Z</time>
      </trkpt>
      <trkpt lat="39.0847930" lon="1.4609270">
        <ele>69.5</ele>
        <time>2020-02-22T14:50:23Z</time>
      </trkpt>
      <trkpt lat="39.0847990" lon="1.4609120">
        <ele>68.9</ele>
        <time>2020-02-22T14:50:24Z</time>
      </trkpt>
      <trkpt lat="39.0848300" lon="1.4608960">
        <ele>68.8</ele>
        <time>2020-02-22T14:50:25Z</time>
      </trkpt>
      <trkpt lat="39.0848600" lon="1.4608810">
        <ele>67.8</ele>
        <time>2020-02-22T14:50:26Z</time>
      </trkpt>
      <trkpt lat="39.0848700" lon="1.4608820">
        <ele>68.7</ele>
        <time>2020-02-22T14:50:27Z</time>
      </trkpt>
      <trkpt lat="39.0848950" lon="1.4608910">
        <ele>68.5</ele>
        <time>2020-02-22T14:50:28Z</time>
      </trkpt>
      <trkpt lat="39.0849050" lon="1.4608940">
        <ele>68.4</ele>
        <time>2020-02-22T14:50:29Z</time>
      </trkpt>
      <trkpt lat="39.0849320" lon="1.4609100">
        <ele>68.5</ele>
        <time>2020-02-22T14:50:30Z</time>
      </trkpt>
      <trkpt lat="39.0849610" lon="1.4609300">
        <ele>69.0</ele>
        <time>2020-02-22T14:50:31Z</time>
      </trkpt>
      <trkpt lat="39.0850000" lon="1.4609660">
        <ele>68.7</ele>
        <time>2020-02-22T14:50:32Z</time>
      </trkpt>
      <trkpt lat="39.0850390" lon="1.4609870">
        <ele>68.7</ele>
        <time>2020-02-22T14:50:33Z</time>
      </trkpt>
      <trkpt lat="39.0850850" lon="1.4610020">
        <ele>68.4</ele>
        <time>2020-02-22T14:50:34Z</time>
      </trkpt>
      <trkpt lat="39.0851250" lon="1.4610080">
        <ele>68.1</ele>
        <time>2020-02-22T14:50:35Z</time>
      </trkpt>
      <trkpt lat="39.0851640" lon="1.4610140">
        <ele>68.3</ele>
        <time>2020-02-22T14:50:36Z</time>
      </trkpt>
      <trkpt lat="39.0852200" lon="1.4610030">
        <ele>67.0</ele>
        <time>2020-02-22T14:50:37Z</time>
      </trkpt>
      <trkpt lat="39.0852660" lon="1.4609890">
        <ele>66.6</ele>
        <time>2020-02-22T14:50:38Z</time>
      </trkpt>
      <trkpt lat="39.0853000" lon="1.4609660">
        <ele>65.5</ele>
        <time>2020-02-22T14:50:39Z</time>
      </trkpt>
      <trkpt lat="39.0853340" lon="1.4609400">
        <ele>65.1</ele>
        <time>2020-02-22T14:50:40Z</time>
      </trkpt>
      <trkpt lat="39.0853640" lon="1.4609130">
        <ele>64.0</ele>
        <time>2020-02-22T14:50:41Z</time>
      </trkpt>
      <trkpt lat="39.0853860" lon="1.4608870">
        <ele>63.6</ele>
        <time>2020-02-22T14:50:42Z</time>
      </trkpt>
      <trkpt lat="39.0854200" lon="1.4608620">
        <ele>62.5</ele>
        <time>2020-02-22T14:50:43Z</time>
      </trkpt>
      <trkpt lat="39.0854310" lon="1.4608540">
        <ele>62.6</ele>
        <time>2020-02-22T14:50:44Z</time>
      </trkpt>
      <trkpt lat="39.0854660" lon="1.4608360">
        <ele>61.5</ele>
        <time>2020-02-22T14:50:45Z</time>
      </trkpt>
      <trkpt lat="39.0854890" lon="1.4608170">
        <ele>61.0</ele>
        <time>2020-02-22T14:50:46Z</time>
      </trkpt>
      <trkpt lat="39.0855290" lon="1.4608060">
        <ele>60.6</ele>
        <time>2020-02-22T14:50:47Z</time>
      </trkpt>
      <trkpt lat="39.0855580" lon="1.4607970">
        <ele>60.1</ele>
        <time>2020-02-22T14:50:48Z</time>
      </trkpt>
      <trkpt lat="39.0855890" lon="1.4607950">
        <ele>58.9</ele>
        <time>2020-02-22T14:50:49Z</time>
      </trkpt>
      <trkpt lat="39.0855950" lon="1.4607910">
        <ele>59.0</ele>
        <time>2020-02-22T14:50:50Z</time>
      </trkpt>
      <trkpt lat="39.0856020" lon="1.4607850">
        <ele>59.1</ele>
        <time>2020-02-22T14:50:51Z</time>
      </trkpt>
      <trkpt lat="39.0856000" lon="1.4607970">
        <ele>59.9</ele>
        <time>2020-02-22T14:50:52Z</time>
      </trkpt>
      <trkpt lat="39.0855980" lon="1.4608240">
        <ele>60.0</ele>
        <time>2020-02-22T14:50:53Z</time>
      </trkpt>
      <trkpt lat="39.0856010" lon="1.4608300">
        <ele>60.1</ele>
        <time>2020-02-22T14:50:54Z</time>
      </trkpt>
      <trkpt lat="39.0856170" lon="1.4608270">
        <ele>59.6</ele>
        <time>2020-02-22T14:50:55Z</time>
      </trkpt>
      <trkpt lat="39.0856280" lon="1.4608220">
        <ele>59.7</ele>
        <time>2020-02-22T14:50:56Z</time>
      </trkpt>
      <trkpt lat="39.0856380" lon="1.4608170">
        <ele>59.2</ele>
        <time>2020-02-22T14:50:57Z</time>
      </trkpt>
      <trkpt lat="39.0856480" lon="1.4608120">
        <ele>59.3</ele>
        <time>2020-02-22T14:50:58Z</time>
      </trkpt>
      <trkpt lat="39.0856590" lon="1.4608070">
        <ele>59.4</ele>
        <time>2020-02-22T14:50:59Z</time>
      </trkpt>
      <trkpt lat="39.0856690" lon="1.4608020">
        <ele>59.5</ele>
        <time>2020-02-22T14:51:00Z</time>
      </trkpt>
      <trkpt lat="39.0856790" lon="1.4607970">
        <ele>59.1</ele>
        <time>2020-02-22T14:51:01Z</time>
      </trkpt>
      <trkpt lat="39.0856890" lon="1.4607920">
        <ele>58.5</ele>
        <time>2020-02-22T14:51:02Z</time>
      </trkpt>
      <trkpt lat="39.0857000" lon="1.4607870">
        <ele>58.6</ele>
        <time>2020-02-22T14:51:27Z</time>
      </trkpt>
      <trkpt lat="39.0857100" lon="1.4607820">
        <ele>58.2</ele>
        <time>2020-02-22T14:51:28Z</time>
      </trkpt>
      <trkpt lat="39.0857100" lon="1.4607440">
        <ele>57.7</ele>
        <time>2020-02-22T14:51:29Z</time>
      </trkpt>
      <trkpt lat="39.0856780" lon="1.4607000">
        <ele>57.6</ele>
        <time>2020-02-22T14:51:30Z</time>
      </trkpt>
      <trkpt lat="39.0856580" lon="1.4606820">
        <ele>58.2</ele>
        <time>2020-02-22T14:51:31Z</time>
      </trkpt>
      <trkpt lat="39.0856170" lon="1.4606450">
        <ele>58.2</ele>
        <time>2020-02-22T14:51:32Z</time>
      </trkpt>
      <trkpt lat="39.0855800" lon="1.4606100">
        <ele>58.1</ele>
        <time>2020-02-22T14:51:33Z</time>
      </trkpt>
      <trkpt lat="39.0855410" lon="1.4605830">
        <ele>58.8</ele>
        <time>2020-02-22T14:51:34Z</time>
      </trkpt>
      <trkpt lat="39.0854870" lon="1.4605550">
        <ele>59.1</ele>
        <time>2020-02-22T14:51:35Z</time>
      </trkpt>
      <trkpt lat="39.0854460" lon="1.4605420">
        <ele>59.6</ele>
        <time>2020-02-22T14:51:36Z</time>
      </trkpt>
      <trkpt lat="39.0854220" lon="1.4605230">
        <ele>59.3</ele>
        <time>2020-02-22T14:51:37Z</time>
      </trkpt>
      <trkpt lat="39.0854210" lon="1.4604840">
        <ele>58.5</ele>
        <time>2020-02-22T14:51:38Z</time>
      </trkpt>
      <trkpt lat="39.0854530" lon="1.4604630">
        <ele>58.2</ele>
        <time>2020-02-22T14:51:39Z</time>
      </trkpt>
      <trkpt lat="39.0854660" lon="1.4604570">
        <ele>58.3</ele>
        <time>2020-02-22T14:51:40Z</time>
      </trkpt>
      <trkpt lat="39.0854980" lon="1.4604620">
        <ele>58.0</ele>
        <time>2020-02-22T14:51:41Z</time>
      </trkpt>
      <trkpt lat="39.0855100" lon="1.4604590">
        <ele>57.6</ele>
        <time>2020-02-22T14:51:42Z</time>
      </trkpt>
      <trkpt lat="39.0855470" lon="1.4604550">
        <ele>57.3</ele>
        <time>2020-02-22T14:51:43Z</time>
      </trkpt>
      <trkpt lat="39.0855790" lon="1.4604630">
        <ele>57.0</ele>
        <time>2020-02-22T14:51:44Z</time>
      </trkpt>
      <trkpt lat="39.0856130" lon="1.4604720">
        <ele>56.6</ele>
        <time>2020-02-22T14:51:45Z</time>
      </trkpt>
      <trkpt lat="39.0856240" lon="1.4604740">
        <ele>56.7</ele>
        <time>2020-02-22T14:51:46Z</time>
      </trkpt>
      <trkpt lat="39.0856430" lon="1.4604650">
        <ele>56.4</ele>
        <time>2020-02-22T14:51:47Z</time>
      </trkpt>
      <trkpt lat="39.0856570" lon="1.4604620">
        <ele>56.5</ele>
        <time>2020-02-22T14:51:48Z</time>
      </trkpt>
      <trkpt lat="39.0856940" lon="1.4604610">
        <ele>56.3</ele>
        <time>2020-02-22T14:51:49Z</time>
      </trkpt>
      <trkpt lat="39.0857090" lon="1.4604590">
        <ele>56.0</ele>
        <time>2020-02-22T14:51:50Z</time>
      </trkpt>
      <trkpt lat="39.0857490" lon="1.4604610">
        <ele>55.8</ele>
        <time>2020-02-22T14:51:51Z</time>
      </trkpt>
      <trkpt lat="39.0857680" lon="1.4604660">
        <ele>55.9</ele>
        <time>2020-02-22T14:51:52Z</time>
      </trkpt>
      <trkpt lat="39.0858060" lon="1.4604830">
        <ele>55.3</ele>
        <time>2020-02-22T14:51:53Z</time>
      </trkpt>
      <trkpt lat="39.0858380" lon="1.4605010">
        <ele>55.6</ele>
        <time>2020-02-22T14:51:54Z</time>
      </trkpt>
      <trkpt lat="39.0858760" lon="1.4605200">
        <ele>55.3</ele>
        <time>2020-02-22T14:51:55Z</time>
      </trkpt>
      <trkpt lat="39.0859010" lon="1.4605430">
        <ele>56.0</ele>
        <time>2020-02-22T14:51:56Z</time>
      </trkpt>
      <trkpt lat="39.0859310" lon="1.4605580">
        <ele>55.7</ele>
        <time>2020-02-22T14:51:57Z</time>
      </trkpt>
      <trkpt lat="39.0859550" lon="1.4605780">
        <ele>55.5</ele>
        <time>2020-02-22T14:51:58Z</time>
      </trkpt>
      <trkpt lat="39.0859700" lon="1.4606160">
        <ele>56.1</ele>
        <time>2020-02-22T14:51:59Z</time>
      </trkpt>
      <trkpt lat="39.0859750" lon="1.4606280">
        <ele>56.3</ele>
        <time>2020-02-22T14:52:00Z</time>
      </trkpt>
      <trkpt lat="39.0859850" lon="1.4606660">
        <ele>56.8</ele>
        <time>2020-02-22T14:52:01Z</time>
      </trkpt>
      <trkpt lat="39.0859840" lon="1.4606760">
        <ele>57.0</ele>
        <time>2020-02-22T14:52:02Z</time>
      </trkpt>
      <trkpt lat="39.0859850" lon="1.4606870">
        <ele>57.1</ele>
        <time>2020-02-22T14:52:03Z</time>
      </trkpt>
      <trkpt lat="39.0859880" lon="1.4606780">
        <ele>57.2</ele>
        <time>2020-02-22T14:52:04Z</time>
      </trkpt>
      <trkpt lat="39.0859860" lon="1.4606810">
        <ele>57.3</ele>
        <time>2020-02-22T14:52:05Z</time>
      </trkpt>
      <trkpt lat="39.0859900" lon="1.4606860">
        <ele>57.4</ele>
        <time>2020-02-22T14:52:06Z</time>
      </trkpt>
      <trkpt lat="39.0859870" lon="1.4606860">
        <ele>57.4</ele>
        <time>2020-02-22T14:52:07Z</time>
      </trkpt>
      <trkpt lat="39.0859850" lon="1.4606880">
        <ele>57.5</ele>
        <time>2020-02-22T14:52:08Z</time>
      </trkpt>
      <trkpt lat="39.0859830" lon="1.4606970">
        <ele>57.6</ele>
        <time>2020-02-22T14:52:09Z</time>
      </trkpt>
      <trkpt lat="39.0859890" lon="1.4607130">
        <ele>57.7</ele>
        <time>2020-02-22T14:52:10Z</time>
      </trkpt>
      <trkpt lat="39.0859920" lon="1.4607290">
        <ele>57.8</ele>
        <time>2020-02-22T14:52:11Z</time>
      </trkpt>
      <trkpt lat="39.0859930" lon="1.4607530">
        <ele>57.9</ele>
        <time>2020-02-22T14:52:12Z</time>
      </trkpt>
      <trkpt lat="39.0860030" lon="1.4607890">
        <ele>58.1</ele>
        <time>2020-02-22T14:52:13Z</time>
      </trkpt>
      <trkpt lat="39.0860090" lon="1.4608040">
        <ele>58.2</ele>
        <time>2020-02-22T14:52:14Z</time>
      </trkpt>
      <trkpt lat="39.0860120" lon="1.4608450">
        <ele>58.2</ele>
        <time>2020-02-22T14:52:15Z</time>
      </trkpt>
      <trkpt lat="39.0860130" lon="1.4608590">
        <ele>58.2</ele>
        <time>2020-02-22T14:52:16Z</time>
      </trkpt>
      <trkpt lat="39.0860110" lon="1.4609020">
        <ele>58.1</ele>
        <time>2020-02-22T14:52:17Z</time>
      </trkpt>
      <trkpt lat="39.0860100" lon="1.4609170">
        <ele>58.0</ele>
        <time>2020-02-22T14:52:18Z</time>
      </trkpt>
      <trkpt lat="39.0860100" lon="1.4609450">
        <ele>57.9</ele>
        <time>2020-02-22T14:52:19Z</time>
      </trkpt>
      <trkpt lat="39.0860100" lon="1.4609650">
        <ele>57.7</ele>
        <time>2020-02-22T14:52:20Z</time>
      </trkpt>
      <trkpt lat="39.0860110" lon="1.4610100">
        <ele>57.3</ele>
        <time>2020-02-22T14:52:21Z</time>
      </trkpt>
      <trkpt lat="39.0860160" lon="1.4610530">
        <ele>56.8</ele>
        <time>2020-02-22T14:52:22Z</time>
      </trkpt>
      <trkpt lat="39.0860140" lon="1.4610920">
        <ele>56.3</ele>
        <time>2020-02-22T14:52:23Z</time>
      </trkpt>
      <trkpt lat="39.0860060" lon="1.4611360">
        <ele>55.7</ele>
        <time>2020-02-22T14:52:24Z</time>
      </trkpt>
      <trkpt lat="39.0860020" lon="1.4611480">
        <ele>55.6</ele>
        <time>2020-02-22T14:52:25Z</time>
      </trkpt>
      <trkpt lat="39.0860020" lon="1.4611760">
        <ele>55.2</ele>
        <time>2020-02-22T14:52:26Z</time>
      </trkpt>
      <trkpt lat="39.0860070" lon="1.4611920">
        <ele>54.9</ele>
        <time>2020-02-22T14:52:27Z</time>
      </trkpt>
      <trkpt lat="39.0860070" lon="1.4612320">
        <ele>54.3</ele>
        <time>2020-02-22T14:52:28Z</time>
      </trkpt>
      <trkpt lat="39.0860070" lon="1.4612430">
        <ele>54.1</ele>
        <time>2020-02-22T14:52:29Z</time>
      </trkpt>
      <trkpt lat="39.0860160" lon="1.4612840">
        <ele>53.4</ele>
        <time>2020-02-22T14:52:30Z</time>
      </trkpt>
      <trkpt lat="39.0860170" lon="1.4612980">
        <ele>53.1</ele>
        <time>2020-02-22T14:52:31Z</time>
      </trkpt>
      <trkpt lat="39.0860110" lon="1.4613390">
        <ele>52.2</ele>
        <time>2020-02-22T14:52:32Z</time>
      </trkpt>
      <trkpt lat="39.0860060" lon="1.4613500">
        <ele>51.9</ele>
        <time>2020-02-22T14:52:33Z</time>
      </trkpt>
      <trkpt lat="39.0860070" lon="1.4613720">
        <ele>51.5</ele>
        <time>2020-02-22T14:52:34Z</time>
      </trkpt>
      <trkpt lat="39.0860100" lon="1.4613890">
        <ele>51.2</ele>
        <time>2020-02-22T14:52:35Z</time>
      </trkpt>
      <trkpt lat="39.0860070" lon="1.4614100">
        <ele>50.8</ele>
        <time>2020-02-22T14:52:36Z</time>
      </trkpt>
      <trkpt lat="39.0860040" lon="1.4614320">
        <ele>50.4</ele>
        <time>2020-02-22T14:52:37Z</time>
      </trkpt>
      <trkpt lat="39.0859940" lon="1.4614560">
        <ele>49.9</ele>
        <time>2020-02-22T14:52:38Z</time>
      </trkpt>
      <trkpt lat="39.0859940" lon="1.4614740">
        <ele>49.5</ele>
        <time>2020-02-22T14:52:39Z</time>
      </trkpt>
      <trkpt lat="39.0859940" lon="1.4614850">
        <ele>49.3</ele>
        <time>2020-02-22T14:52:40Z</time>
      </trkpt>
      <trkpt lat="39.0859840" lon="1.4614880">
        <ele>48.9</ele>
        <time>2020-02-22T14:52:41Z</time>
      </trkpt>
      <trkpt lat="39.0859800" lon="1.4615060">
        <ele>48.3</ele>
        <time>2020-02-22T14:52:42Z</time>
      </trkpt>
      <trkpt lat="39.0859690" lon="1.4615440">
        <ele>47.3</ele>
        <time>2020-02-22T14:52:43Z</time>
      </trkpt>
      <trkpt lat="39.0859730" lon="1.4615600">
        <ele>47.0</ele>
        <time>2020-02-22T14:52:44Z</time>
      </trkpt>
      <trkpt lat="39.0859760" lon="1.4615810">
        <ele>46.7</ele>
        <time>2020-02-22T14:52:45Z</time>
      </trkpt>
      <trkpt lat="39.0859750" lon="1.4615980">
        <ele>46.5</ele>
        <time>2020-02-22T14:52:46Z</time>
      </trkpt>
      <trkpt lat="39.0859740" lon="1.4616170">
        <ele>46.2</ele>
        <time>2020-02-22T14:52:47Z</time>
      </trkpt>
      <trkpt lat="39.0859760" lon="1.4616390">
        <ele>45.9</ele>
        <time>2020-02-22T14:52:48Z</time>
      </trkpt>
      <trkpt lat="39.0859820" lon="1.4616550">
        <ele>45.6</ele>
        <time>2020-02-22T14:52:49Z</time>
      </trkpt>
      <trkpt lat="39.0859950" lon="1.4616720">
        <ele>45.1</ele>
        <time>2020-02-22T14:52:50Z</time>
      </trkpt>
      <trkpt lat="39.0860020" lon="1.4616810">
        <ele>44.9</ele>
        <time>2020-02-22T14:52:51Z</time>
      </trkpt>
      <trkpt lat="39.0860080" lon="1.4616890">
        <ele>44.8</ele>
        <time>2020-02-22T14:52:52Z</time>
      </trkpt>
      <trkpt lat="39.0860110" lon="1.4617180">
        <ele>44.7</ele>
        <time>2020-02-22T14:52:53Z</time>
      </trkpt>
      <trkpt lat="39.0860100" lon="1.4617310">
        <ele>44.6</ele>
        <time>2020-02-22T14:52:54Z</time>
      </trkpt>
      <trkpt lat="39.0860100" lon="1.4617430">
        <ele>44.6</ele>
        <time>2020-02-22T14:52:55Z</time>
      </trkpt>
      <trkpt lat="39.0860060" lon="1.4617840">
        <ele>44.6</ele>
        <time>2020-02-22T14:52:56Z</time>
      </trkpt>
      <trkpt lat="39.0860050" lon="1.4617940">
        <ele>44.7</ele>
        <time>2020-02-22T14:52:57Z</time>
      </trkpt>
      <trkpt lat="39.0860020" lon="1.4618190">
        <ele>44.7</ele>
        <time>2020-02-22T14:52:58Z</time>
      </trkpt>
      <trkpt lat="39.0859970" lon="1.4618360">
        <ele>44.8</ele>
        <time>2020-02-22T14:52:59Z</time>
      </trkpt>
      <trkpt lat="39.0859940" lon="1.4618450">
        <ele>44.8</ele>
        <time>2020-02-22T14:53:00Z</time>
      </trkpt>
      <trkpt lat="39.0859920" lon="1.4618550">
        <ele>44.9</ele>
        <time>2020-02-22T14:53:01Z</time>
      </trkpt>
      <trkpt lat="39.0859890" lon="1.4618720">
        <ele>45.0</ele>
        <time>2020-02-22T14:53:02Z</time>
      </trkpt>
      <trkpt lat="39.0859950" lon="1.4618910">
        <ele>45.2</ele>
        <time>2020-02-22T14:53:03Z</time>
      </trkpt>
      <trkpt lat="39.0859940" lon="1.4619100">
        <ele>45.3</ele>
        <time>2020-02-22T14:53:04Z</time>
      </trkpt>
      <trkpt lat="39.0860080" lon="1.4619460">
        <ele>45.7</ele>
        <time>2020-02-22T14:53:05Z</time>
      </trkpt>
      <trkpt lat="39.0860150" lon="1.4619570">
        <ele>45.9</ele>
        <time>2020-02-22T14:53:06Z</time>
      </trkpt>
      <trkpt lat="39.0860250" lon="1.4619730">
        <ele>46.2</ele>
        <time>2020-02-22T14:53:07Z</time>
      </trkpt>
      <trkpt lat="39.0860270" lon="1.4619900">
        <ele>46.4</ele>
        <time>2020-02-22T14:53:08Z</time>
      </trkpt>
      <trkpt lat="39.0860390" lon="1.4620000">
        <ele>46.8</ele>
        <time>2020-02-22T14:53:09Z</time>
      </trkpt>
      <trkpt lat="39.0860450" lon="1.4620140">
        <ele>47.1</ele>
        <time>2020-02-22T14:53:10Z</time>
      </trkpt>
      <trkpt lat="39.0860510" lon="1.4620280">
        <ele>47.4</ele>
        <time>2020-02-22T14:53:11Z</time>
      </trkpt>
      <trkpt lat="39.0860570" lon="1.4620440">
        <ele>47.8</ele>
        <time>2020-02-22T14:53:12Z</time>
      </trkpt>
      <trkpt lat="39.0860660" lon="1.4620580">
        <ele>48.1</ele>
        <time>2020-02-22T14:53:13Z</time>
      </trkpt>
      <trkpt lat="39.0860690" lon="1.4620690">
        <ele>48.4</ele>
        <time>2020-02-22T14:53:14Z</time>
      </trkpt>
      <trkpt lat="39.0860720" lon="1.4620820">
        <ele>48.6</ele>
        <time>2020-02-22T14:53:15Z</time>
      </trkpt>
      <trkpt lat="39.0860810" lon="1.4620880">
        <ele>48.9</ele>
        <time>2020-02-22T14:53:16Z</time>
      </trkpt>
      <trkpt lat="39.0861010" lon="1.4620940">
        <ele>49.9</ele>
        <time>2020-02-22T14:53:17Z</time>
      </trkpt>
      <trkpt lat="39.0861090" lon="1.4620970">
        <ele>50.2</ele>
        <time>2020-02-22T14:53:18Z</time>
      </trkpt>
      <trkpt lat="39.0861180" lon="1.4621010">
        <ele>50.7</ele>
        <time>2020-02-22T14:53:19Z</time>
      </trkpt>
      <trkpt lat="39.0861430" lon="1.4621130">
        <ele>51.8</ele>
        <time>2020-02-22T14:53:20Z</time>
      </trkpt>
      <trkpt lat="39.0861590" lon="1.4621230">
        <ele>52.6</ele>
        <time>2020-02-22T14:53:21Z</time>
      </trkpt>
      <trkpt lat="39.0861760" lon="1.4621370">
        <ele>56.4</ele>
        <time>2020-02-22T14:53:22Z</time>
      </trkpt>
      <trkpt lat="39.0861820" lon="1.4621410">
        <ele>56.4</ele>
        <time>2020-02-22T14:53:23Z</time>
      </trkpt>
      <trkpt lat="39.0861870" lon="1.4621460">
        <ele>56.5</ele>
        <time>2020-02-22T14:53:24Z</time>
      </trkpt>
      <trkpt lat="39.0861930" lon="1.4621510">
        <ele>56.6</ele>
        <time>2020-02-22T14:53:25Z</time>
      </trkpt>
      <trkpt lat="39.0861860" lon="1.4621710">
        <ele>56.7</ele>
        <time>2020-02-22T14:53:26Z</time>
      </trkpt>
      <trkpt lat="39.0861800" lon="1.4621710">
        <ele>56.8</ele>
        <time>2020-02-22T14:53:27Z</time>
      </trkpt>
      <trkpt lat="39.0861750" lon="1.4621720">
        <ele>56.8</ele>
        <time>2020-02-22T14:53:28Z</time>
      </trkpt>
      <trkpt lat="39.0861690" lon="1.4621720">
        <ele>56.9</ele>
        <time>2020-02-22T14:53:29Z</time>
      </trkpt>
      <trkpt lat="39.0861640" lon="1.4621730">
        <ele>56.9</ele>
        <time>2020-02-22T14:53:30Z</time>
      </trkpt>
      <trkpt lat="39.0861580" lon="1.4621730">
        <ele>57.0</ele>
        <time>2020-02-22T14:53:31Z</time>
      </trkpt>
      <trkpt lat="39.0861420" lon="1.4621670">
        <ele>57.1</ele>
        <time>2020-02-22T14:53:32Z</time>
      </trkpt>
      <trkpt lat="39.0861240" lon="1.4621660">
        <ele>57.3</ele>
        <time>2020-02-22T14:53:33Z</time>
      </trkpt>
      <trkpt lat="39.0861080" lon="1.4621720">
        <ele>57.4</ele>
        <time>2020-02-22T14:53:34Z</time>
      </trkpt>
      <trkpt lat="39.0860950" lon="1.4621800">
        <ele>57.5</ele>
        <time>2020-02-22T14:53:35Z</time>
      </trkpt>
      <trkpt lat="39.0860830" lon="1.4621950">
        <ele>57.6</ele>
        <time>2020-02-22T14:53:36Z</time>
      </trkpt>
      <trkpt lat="39.0860820" lon="1.4622030">
        <ele>57.7</ele>
        <time>2020-02-22T14:53:37Z</time>
      </trkpt>
      <trkpt lat="39.0860720" lon="1.4622100">
        <ele>57.8</ele>
        <time>2020-02-22T14:53:38Z</time>
      </trkpt>
      <trkpt lat="39.0860690" lon="1.4622260">
        <ele>57.8</ele>
        <time>2020-02-22T14:53:39Z</time>
      </trkpt>
      <trkpt lat="39.0860600" lon="1.4622360">
        <ele>57.9</ele>
        <time>2020-02-22T14:53:40Z</time>
      </trkpt>
      <trkpt lat="39.0860500" lon="1.4622400">
        <ele>58.0</ele>
        <time>2020-02-22T14:53:41Z</time>
      </trkpt>
      <trkpt lat="39.0860330" lon="1.4622490">
        <ele>58.2</ele>
        <time>2020-02-22T14:53:42Z</time>
      </trkpt>
      <trkpt lat="39.0860250" lon="1.4622600">
        <ele>58.3</ele>
        <time>2020-02-22T14:53:43Z</time>
      </trkpt>
      <trkpt lat="39.0860070" lon="1.4622770">
        <ele>58.5</ele>
        <time>2020-02-22T14:53:44Z</time>
      </trkpt>
      <trkpt lat="39.0860000" lon="1.4622830">
        <ele>58.5</ele>
        <time>2020-02-22T14:53:45Z</time>
      </trkpt>
      <trkpt lat="39.0859930" lon="1.4622900">
        <ele>58.5</ele>
        <time>2020-02-22T14:53:46Z</time>
      </trkpt>
      <trkpt lat="39.0859850" lon="1.4623070">
        <ele>58.6</ele>
        <time>2020-02-22T14:53:47Z</time>
      </trkpt>
      <trkpt lat="39.0859750" lon="1.4623230">
        <ele>58.6</ele>
        <time>2020-02-22T14:53:48Z</time>
      </trkpt>
      <trkpt lat="39.0859670" lon="1.4623550">
        <ele>58.7</ele>
        <time>2020-02-22T14:53:49Z</time>
      </trkpt>
      <trkpt lat="39.0859610" lon="1.4623670">
        <ele>58.8</ele>
        <time>2020-02-22T14:53:50Z</time>
      </trkpt>
      <trkpt lat="39.0859440" lon="1.4623860">
        <ele>58.8</ele>
        <time>2020-02-22T14:53:51Z</time>
      </trkpt>
      <trkpt lat="39.0859320" lon="1.4623950">
        <ele>58.9</ele>
        <time>2020-02-22T14:53:52Z</time>
      </trkpt>
      <trkpt lat="39.0859160" lon="1.4624010">
        <ele>58.9</ele>
        <time>2020-02-22T14:53:53Z</time>
      </trkpt>
      <trkpt lat="39.0859030" lon="1.4624110">
        <ele>59.0</ele>
        <time>2020-02-22T14:53:54Z</time>
      </trkpt>
      <trkpt lat="39.0858810" lon="1.4624310">
        <ele>59.1</ele>
        <time>2020-02-22T14:53:55Z</time>
      </trkpt>
      <trkpt lat="39.0858720" lon="1.4624400">
        <ele>59.1</ele>
        <time>2020-02-22T14:53:56Z</time>
      </trkpt>
      <trkpt lat="39.0858620" lon="1.4624530">
        <ele>59.2</ele>
        <time>2020-02-22T14:53:57Z</time>
      </trkpt>
      <trkpt lat="39.0858430" lon="1.4624640">
        <ele>59.3</ele>
        <time>2020-02-22T14:53:58Z</time>
      </trkpt>
      <trkpt lat="39.0858310" lon="1.4624760">
        <ele>59.3</ele>
        <time>2020-02-22T14:53:59Z</time>
      </trkpt>
      <trkpt lat="39.0858210" lon="1.4624940">
        <ele>59.3</ele>
        <time>2020-02-22T14:54:00Z</time>
      </trkpt>
      <trkpt lat="39.0858010" lon="1.4625230">
        <ele>59.3</ele>
        <time>2020-02-22T14:54:01Z</time>
      </trkpt>
      <trkpt lat="39.0857910" lon="1.4625340">
        <ele>59.4</ele>
        <time>2020-02-22T14:54:02Z</time>
      </trkpt>
      <trkpt lat="39.0857840" lon="1.4625570">
        <ele>59.4</ele>
        <time>2020-02-22T14:54:03Z</time>
      </trkpt>
      <trkpt lat="39.0857770" lon="1.4625760">
        <ele>59.4</ele>
        <time>2020-02-22T14:54:04Z</time>
      </trkpt>
      <trkpt lat="39.0857700" lon="1.4625890">
        <ele>59.4</ele>
        <time>2020-02-22T14:54:05Z</time>
      </trkpt>
      <trkpt lat="39.0857550" lon="1.4626020">
        <ele>59.5</ele>
        <time>2020-02-22T14:54:06Z</time>
      </trkpt>
      <trkpt lat="39.0857300" lon="1.4626290">
        <ele>59.5</ele>
        <time>2020-02-22T14:54:07Z</time>
      </trkpt>
      <trkpt lat="39.0857200" lon="1.4626350">
        <ele>59.5</ele>
        <time>2020-02-22T14:54:08Z</time>
      </trkpt>
      <trkpt lat="39.0856950" lon="1.4626540">
        <ele>59.6</ele>
        <time>2020-02-22T14:54:09Z</time>
      </trkpt>
      <trkpt lat="39.0856700" lon="1.4626770">
        <ele>59.5</ele>
        <time>2020-02-22T14:54:10Z</time>
      </trkpt>
      <trkpt lat="39.0856630" lon="1.4626860">
        <ele>59.5</ele>
        <time>2020-02-22T14:54:11Z</time>
      </trkpt>
      <trkpt lat="39.0856400" lon="1.4627140">
        <ele>59.4</ele>
        <time>2020-02-22T14:54:12Z</time>
      </trkpt>
      <trkpt lat="39.0856300" lon="1.4627220">
        <ele>59.4</ele>
        <time>2020-02-22T14:54:13Z</time>
      </trkpt>
      <trkpt lat="39.0856030" lon="1.4627440">
        <ele>59.3</ele>
        <time>2020-02-22T14:54:14Z</time>
      </trkpt>
      <trkpt lat="39.0855920" lon="1.4627540">
        <ele>59.2</ele>
        <time>2020-02-22T14:54:15Z</time>
      </trkpt>
      <trkpt lat="39.0855660" lon="1.4627720">
        <ele>59.1</ele>
        <time>2020-02-22T14:54:16Z</time>
      </trkpt>
      <trkpt lat="39.0855390" lon="1.4627920">
        <ele>59.0</ele>
        <time>2020-02-22T14:54:17Z</time>
      </trkpt>
      <trkpt lat="39.0855310" lon="1.4627940">
        <ele>59.0</ele>
        <time>2020-02-22T14:54:18Z</time>
      </trkpt>
      <trkpt lat="39.0855060" lon="1.4628150">
        <ele>58.8</ele>
        <time>2020-02-22T14:54:19Z</time>
      </trkpt>
      <trkpt lat="39.0854990" lon="1.4628200">
        <ele>58.8</ele>
        <time>2020-02-22T14:54:20Z</time>
      </trkpt>
      <trkpt lat="39.0854710" lon="1.4628350">
        <ele>58.6</ele>
        <time>2020-02-22T14:54:21Z</time>
      </trkpt>
      <trkpt lat="39.0854590" lon="1.4628360">
        <ele>58.5</ele>
        <time>2020-02-22T14:54:22Z</time>
      </trkpt>
      <trkpt lat="39.0854400" lon="1.4628430">
        <ele>58.4</ele>
        <time>2020-02-22T14:54:23Z</time>
      </trkpt>
      <trkpt lat="39.0854250" lon="1.4628460">
        <ele>58.3</ele>
        <time>2020-02-22T14:54:24Z</time>
      </trkpt>
      <trkpt lat="39.0853950" lon="1.4628660">
        <ele>58.0</ele>
        <time>2020-02-22T14:54:25Z</time>
      </trkpt>
      <trkpt lat="39.0853800" lon="1.4628740">
        <ele>57.8</ele>
        <time>2020-02-22T14:54:26Z</time>
      </trkpt>
      <trkpt lat="39.0853460" lon="1.4628930">
        <ele>57.5</ele>
        <time>2020-02-22T14:54:27Z</time>
      </trkpt>
      <trkpt lat="39.0853040" lon="1.4629230">
        <ele>56.9</ele>
        <time>2020-02-22T14:54:28Z</time>
      </trkpt>
      <trkpt lat="39.0852620" lon="1.4629420">
        <ele>56.3</ele>
        <time>2020-02-22T14:54:29Z</time>
      </trkpt>
      <trkpt lat="39.0852210" lon="1.4629590">
        <ele>55.6</ele>
        <time>2020-02-22T14:54:30Z</time>
      </trkpt>
      <trkpt lat="39.0851830" lon="1.4629700">
        <ele>55.0</ele>
        <time>2020-02-22T14:54:31Z</time>
      </trkpt>
      <trkpt lat="39.0851560" lon="1.4629720">
        <ele>54.6</ele>
        <time>2020-02-22T14:54:32Z</time>
      </trkpt>
      <trkpt lat="39.0851160" lon="1.4629760">
        <ele>53.9</ele>
        <time>2020-02-22T14:54:33Z</time>
      </trkpt>
      <trkpt lat="39.0851030" lon="1.4629780">
        <ele>53.7</ele>
        <time>2020-02-22T14:54:34Z</time>
      </trkpt>
      <trkpt lat="39.0850620" lon="1.4629790">
        <ele>53.2</ele>
        <time>2020-02-22T14:54:35Z</time>
      </trkpt>
      <trkpt lat="39.0850440" lon="1.4629770">
        <ele>53.0</ele>
        <time>2020-02-22T14:54:36Z</time>
      </trkpt>
      <trkpt lat="39.0850120" lon="1.4629840">
        <ele>52.6</ele>
        <time>2020-02-22T14:54:37Z</time>
      </trkpt>
      <trkpt lat="39.0849840" lon="1.4629870">
        <ele>52.3</ele>
        <time>2020-02-22T14:54:38Z</time>
      </trkpt>
      <trkpt lat="39.0849500" lon="1.4629890">
        <ele>51.9</ele>
        <time>2020-02-22T14:54:39Z</time>
      </trkpt>
      <trkpt lat="39.0849140" lon="1.4629850">
        <ele>51.5</ele>
        <time>2020-02-22T14:54:40Z</time>
      </trkpt>
      <trkpt lat="39.0848810" lon="1.4629850">
        <ele>51.1</ele>
        <time>2020-02-22T14:54:41Z</time>
      </trkpt>
      <trkpt lat="39.0848660" lon="1.4629850">
        <ele>50.9</ele>
        <time>2020-02-22T14:54:42Z</time>
      </trkpt>
      <trkpt lat="39.0848270" lon="1.4629990">
        <ele>50.5</ele>
        <time>2020-02-22T14:54:43Z</time>
      </trkpt>
      <trkpt lat="39.0848090" lon="1.4630030">
        <ele>50.3</ele>
        <time>2020-02-22T14:54:44Z</time>
      </trkpt>
      <trkpt lat="39.0847770" lon="1.4630100">
        <ele>49.9</ele>
        <time>2020-02-22T14:54:45Z</time>
      </trkpt>
      <trkpt lat="39.0847450" lon="1.4629980">
        <ele>49.5</ele>
        <time>2020-02-22T14:54:46Z</time>
      </trkpt>
      <trkpt lat="39.0847140" lon="1.4629900">
        <ele>49.2</ele>
        <time>2020-02-22T14:54:47Z</time>
      </trkpt>
      <trkpt lat="39.0847030" lon="1.4629900">
        <ele>49.1</ele>
        <time>2020-02-22T14:54:48Z</time>
      </trkpt>
      <trkpt lat="39.0846760" lon="1.4629810">
        <ele>48.9</ele>
        <time>2020-02-22T14:54:49Z</time>
      </trkpt>
      <trkpt lat="39.0846370" lon="1.4629730">
        <ele>48.7</ele>
        <time>2020-02-22T14:54:50Z</time>
      </trkpt>
      <trkpt lat="39.0846230" lon="1.4629700">
        <ele>48.6</ele>
        <time>2020-02-22T14:54:51Z</time>
      </trkpt>
      <trkpt lat="39.0845970" lon="1.4629690">
        <ele>48.6</ele>
        <time>2020-02-22T14:54:52Z</time>
      </trkpt>
      <trkpt lat="39.0845870" lon="1.4629690">
        <ele>48.6</ele>
        <time>2020-02-22T14:54:53Z</time>
      </trkpt>
      <trkpt lat="39.0845670" lon="1.4629700">
        <ele>48.6</ele>
        <time>2020-02-22T14:54:54Z</time>
      </trkpt>
      <trkpt lat="39.0845540" lon="1.4629660">
        <ele>48.6</ele>
        <time>2020-02-22T14:54:55Z</time>
      </trkpt>
      <trkpt lat="39.0845390" lon="1.4629670">
        <ele>48.6</ele>
        <time>2020-02-22T14:54:56Z</time>
      </trkpt>
      <trkpt lat="39.0845330" lon="1.4629660">
        <ele>48.6</ele>
        <time>2020-02-22T14:54:57Z</time>
      </trkpt>
      <trkpt lat="39.0845220" lon="1.4629770">
        <ele>48.7</ele>
        <time>2020-02-22T14:54:58Z</time>
      </trkpt>
      <trkpt lat="39.0845170" lon="1.4629830">
        <ele>48.7</ele>
        <time>2020-02-22T14:54:59Z</time>
      </trkpt>
      <trkpt lat="39.0845180" lon="1.4629890">
        <ele>48.8</ele>
        <time>2020-02-22T14:55:00Z</time>
      </trkpt>
      <trkpt lat="39.0845250" lon="1.4629950">
        <ele>48.8</ele>
        <time>2020-02-22T14:55:01Z</time>
      </trkpt>
      <trkpt lat="39.0845110" lon="1.4629860">
        <ele>48.9</ele>
        <time>2020-02-22T14:55:02Z</time>
      </trkpt>
      <trkpt lat="39.0845080" lon="1.4629930">
        <ele>48.9</ele>
        <time>2020-02-22T14:55:03Z</time>
      </trkpt>
      <trkpt lat="39.0845090" lon="1.4629960">
        <ele>49.0</ele>
        <time>2020-02-22T14:55:04Z</time>
      </trkpt>
      <trkpt lat="39.0845040" lon="1.4630000">
        <ele>49.0</ele>
        <time>2020-02-22T14:55:05Z</time>
      </trkpt>
      <trkpt lat="39.0845030" lon="1.4630010">
        <ele>49.0</ele>
        <time>2020-02-22T14:55:06Z</time>
      </trkpt>
      <trkpt lat="39.0845020" lon="1.4630010">
        <ele>49.0</ele>
        <time>2020-02-22T14:55:07Z</time>
      </trkpt>
      <trkpt lat="39.0845020" lon="1.4630020">
        <ele>49.0</ele>
        <time>2020-02-22T14:55:08Z</time>
      </trkpt>
      <trkpt lat="39.0845010" lon="1.4630020">
        <ele>49.0</ele>
        <time>2020-02-22T14:55:09Z</time>
      </trkpt>
      <trkpt lat="39.0845010" lon="1.4630020">
        <ele>49.0</ele>
        <time>2020-02-22T14:55:10Z</time>
      </trkpt>
      <trkpt lat="39.0845010" lon="1.4630020">
        <ele>49.0</ele>
        <time>2020-02-22T14:55:11Z</time>
      </trkpt>
      <trkpt lat="39.0845000" lon="1.4630020">
        <ele>49.1</ele>
        <time>2020-02-22T14:55:12Z</time>
      </trkpt>
      <trkpt lat="39.0845000" lon="1.4630030">
        <ele>49.1</ele>
        <time>2020-02-22T14:55:13Z</time>
      </trkpt>
      <trkpt lat="39.0845000" lon="1.4630030">
        <ele>49.1</ele>
        <time>2020-02-22T14:55:14Z</time>
      </trkpt>
      <trkpt lat="39.0844710" lon="1.4631040">
        <ele>49.8</ele>
        <time>2020-02-22T14:55:44Z</time>
      </trkpt>
      <trkpt lat="39.0844750" lon="1.4631250">
        <ele>50.0</ele>
        <time>2020-02-22T14:55:45Z</time>
      </trkpt>
      <trkpt lat="39.0844790" lon="1.4631370">
        <ele>50.1</ele>
        <time>2020-02-22T14:55:46Z</time>
      </trkpt>
      <trkpt lat="39.0844800" lon="1.4631490">
        <ele>50.2</ele>
        <time>2020-02-22T14:55:47Z</time>
      </trkpt>
      <trkpt lat="39.0844790" lon="1.4631640">
        <ele>50.4</ele>
        <time>2020-02-22T14:55:48Z</time>
      </trkpt>
      <trkpt lat="39.0844790" lon="1.4631810">
        <ele>50.6</ele>
        <time>2020-02-22T14:55:49Z</time>
      </trkpt>
      <trkpt lat="39.0844780" lon="1.4631920">
        <ele>50.7</ele>
        <time>2020-02-22T14:55:50Z</time>
      </trkpt>
      <trkpt lat="39.0844780" lon="1.4632020">
        <ele>50.8</ele>
        <time>2020-02-22T14:55:51Z</time>
      </trkpt>
      <trkpt lat="39.0844770" lon="1.4632120">
        <ele>50.9</ele>
        <time>2020-02-22T14:55:52Z</time>
      </trkpt>
      <trkpt lat="39.0844810" lon="1.4632310">
        <ele>51.1</ele>
        <time>2020-02-22T14:55:53Z</time>
      </trkpt>
      <trkpt lat="39.0844780" lon="1.4632470">
        <ele>51.3</ele>
        <time>2020-02-22T14:55:54Z</time>
      </trkpt>
      <trkpt lat="39.0844820" lon="1.4632560">
        <ele>51.4</ele>
        <time>2020-02-22T14:55:55Z</time>
      </trkpt>
      <trkpt lat="39.0844830" lon="1.4632820">
        <ele>51.6</ele>
        <time>2020-02-22T14:55:56Z</time>
      </trkpt>
      <trkpt lat="39.0844900" lon="1.4633100">
        <ele>52.0</ele>
        <time>2020-02-22T14:55:57Z</time>
      </trkpt>
      <trkpt lat="39.0844920" lon="1.4633240">
        <ele>52.1</ele>
        <time>2020-02-22T14:55:58Z</time>
      </trkpt>
      <trkpt lat="39.0844950" lon="1.4633390">
        <ele>52.3</ele>
        <time>2020-02-22T14:55:59Z</time>
      </trkpt>
      <trkpt lat="39.0844970" lon="1.4633550">
        <ele>52.4</ele>
        <time>2020-02-22T14:56:00Z</time>
      </trkpt>
      <trkpt lat="39.0844940" lon="1.4633750">
        <ele>52.6</ele>
        <time>2020-02-22T14:56:01Z</time>
      </trkpt>
      <trkpt lat="39.0844970" lon="1.4633880">
        <ele>52.8</ele>
        <time>2020-02-22T14:56:02Z</time>
      </trkpt>
      <trkpt lat="39.0845070" lon="1.4634070">
        <ele>53.1</ele>
        <time>2020-02-22T14:56:03Z</time>
      </trkpt>
      <trkpt lat="39.0845100" lon="1.4634190">
        <ele>53.2</ele>
        <time>2020-02-22T14:56:04Z</time>
      </trkpt>
      <trkpt lat="39.0845190" lon="1.4634340">
        <ele>53.5</ele>
        <time>2020-02-22T14:56:05Z</time>
      </trkpt>
      <trkpt lat="39.0845180" lon="1.4634490">
        <ele>53.7</ele>
        <time>2020-02-22T14:56:06Z</time>
      </trkpt>
      <trkpt lat="39.0845210" lon="1.4634570">
        <ele>53.8</ele>
        <time>2020-02-22T14:56:07Z</time>
      </trkpt>
      <trkpt lat="39.0845350" lon="1.4634590">
        <ele>54.1</ele>
        <time>2020-02-22T14:56:08Z</time>
      </trkpt>
      <trkpt lat="39.0845470" lon="1.4634660">
        <ele>54.3</ele>
        <time>2020-02-22T14:56:09Z</time>
      </trkpt>
      <trkpt lat="39.0845760" lon="1.4634600">
        <ele>54.9</ele>
        <time>2020-02-22T14:56:10Z</time>
      </trkpt>
      <trkpt lat="39.0845850" lon="1.4634560">
        <ele>55.0</ele>
        <time>2020-02-22T14:56:11Z</time>
      </trkpt>
      <trkpt lat="39.0846020" lon="1.4634390">
        <ele>55.4</ele>
        <time>2020-02-22T14:56:12Z</time>
      </trkpt>
      <trkpt lat="39.0846090" lon="1.4634320">
        <ele>55.6</ele>
        <time>2020-02-22T14:56:13Z</time>
      </trkpt>
      <trkpt lat="39.0846160" lon="1.4634250">
        <ele>55.7</ele>
        <time>2020-02-22T14:56:14Z</time>
      </trkpt>
      <trkpt lat="39.0846350" lon="1.4634140">
        <ele>56.1</ele>
        <time>2020-02-22T14:56:15Z</time>
      </trkpt>
      <trkpt lat="39.0846390" lon="1.4634040">
        <ele>56.2</ele>
        <time>2020-02-22T14:56:16Z</time>
      </trkpt>
      <trkpt lat="39.0846430" lon="1.4633940">
        <ele>56.4</ele>
        <time>2020-02-22T14:56:17Z</time>
      </trkpt>
      <trkpt lat="39.0846490" lon="1.4633700">
        <ele>56.8</ele>
        <time>2020-02-22T14:56:18Z</time>
      </trkpt>
      <trkpt lat="39.0846490" lon="1.4633560">
        <ele>57.0</ele>
        <time>2020-02-22T14:56:19Z</time>
      </trkpt>
      <trkpt lat="39.0846500" lon="1.4633480">
        <ele>57.1</ele>
        <time>2020-02-22T14:56:20Z</time>
      </trkpt>
      <trkpt lat="39.0846500" lon="1.4633420">
        <ele>57.2</ele>
        <time>2020-02-22T14:56:21Z</time>
      </trkpt>
      <trkpt lat="39.0846490" lon="1.4633350">
        <ele>57.3</ele>
        <time>2020-02-22T14:56:22Z</time>
      </trkpt>
      <trkpt lat="39.0846600" lon="1.4633330">
        <ele>57.5</ele>
        <time>2020-02-22T14:56:23Z</time>
      </trkpt>
      <trkpt lat="39.0846650" lon="1.4633250">
        <ele>57.6</ele>
        <time>2020-02-22T14:56:24Z</time>
      </trkpt>
      <trkpt lat="39.0846880" lon="1.4633230">
        <ele>58.1</ele>
        <time>2020-02-22T14:56:25Z</time>
      </trkpt>
      <trkpt lat="39.0846980" lon="1.4633200">
        <ele>58.3</ele>
        <time>2020-02-22T14:56:26Z</time>
      </trkpt>
      <trkpt lat="39.0847090" lon="1.4633160">
        <ele>58.5</ele>
        <time>2020-02-22T14:56:27Z</time>
      </trkpt>
      <trkpt lat="39.0847210" lon="1.4633090">
        <ele>58.7</ele>
        <time>2020-02-22T14:56:28Z</time>
      </trkpt>
      <trkpt lat="39.0847380" lon="1.4633090">
        <ele>59.0</ele>
        <time>2020-02-22T14:56:29Z</time>
      </trkpt>
      <trkpt lat="39.0847470" lon="1.4633140">
        <ele>59.1</ele>
        <time>2020-02-22T14:56:30Z</time>
      </trkpt>
      <trkpt lat="39.0847650" lon="1.4633170">
        <ele>59.4</ele>
        <time>2020-02-22T14:56:31Z</time>
      </trkpt>
      <trkpt lat="39.0847740" lon="1.4633170">
        <ele>59.5</ele>
        <time>2020-02-22T14:56:32Z</time>
      </trkpt>
      <trkpt lat="39.0847750" lon="1.4633230">
        <ele>59.6</ele>
        <time>2020-02-22T14:56:33Z</time>
      </trkpt>
      <trkpt lat="39.0847830" lon="1.4633280">
        <ele>59.7</ele>
        <time>2020-02-22T14:56:34Z</time>
      </trkpt>
      <trkpt lat="39.0847920" lon="1.4633360">
        <ele>59.9</ele>
        <time>2020-02-22T14:56:35Z</time>
      </trkpt>
      <trkpt lat="39.0847930" lon="1.4633380">
        <ele>59.9</ele>
        <time>2020-02-22T14:56:36Z</time>
      </trkpt>
      <trkpt lat="39.0847920" lon="1.4633250">
        <ele>60.1</ele>
        <time>2020-02-22T14:56:37Z</time>
      </trkpt>
      <trkpt lat="39.0847870" lon="1.4633090">
        <ele>60.3</ele>
        <time>2020-02-22T14:56:38Z</time>
      </trkpt>
      <trkpt lat="39.0847890" lon="1.4633070">
        <ele>60.3</ele>
        <time>2020-02-22T14:56:39Z</time>
      </trkpt>
      <trkpt lat="39.0847910" lon="1.4632950">
        <ele>60.4</ele>
        <time>2020-02-22T14:56:40Z</time>
      </trkpt>
      <trkpt lat="39.0847930" lon="1.4632940">
        <ele>60.5</ele>
        <time>2020-02-22T14:56:41Z</time>
      </trkpt>
      <trkpt lat="39.0847930" lon="1.4632940">
        <ele>60.5</ele>
        <time>2020-02-22T14:56:42Z</time>
      </trkpt>
      <trkpt lat="39.0847930" lon="1.4632940">
        <ele>60.5</ele>
        <time>2020-02-22T14:56:43Z</time>
      </trkpt>
      <trkpt lat="39.0847940" lon="1.4632940">
        <ele>60.5</ele>
        <time>2020-02-22T14:56:44Z</time>
      </trkpt>
      <trkpt lat="39.0847920" lon="1.4632930">
        <ele>60.5</ele>
        <time>2020-02-22T14:56:45Z</time>
      </trkpt>
      <trkpt lat="39.0847920" lon="1.4632940">
        <ele>60.5</ele>
        <time>2020-02-22T14:56:46Z</time>
      </trkpt>
      <trkpt lat="39.0847910" lon="1.4632950">
        <ele>60.5</ele>
        <time>2020-02-22T14:56:47Z</time>
      </trkpt>
      <trkpt lat="39.0848060" lon="1.4633730">
        <ele>61.4</ele>
        <time>2020-02-22T14:56:50Z</time>
      </trkpt>
      <trkpt lat="39.0848090" lon="1.4633960">
        <ele>61.7</ele>
        <time>2020-02-22T14:56:51Z</time>
      </trkpt>
      <trkpt lat="39.0848190" lon="1.4634290">
        <ele>62.1</ele>
        <time>2020-02-22T14:56:52Z</time>
      </trkpt>
      <trkpt lat="39.0848240" lon="1.4634400">
        <ele>62.3</ele>
        <time>2020-02-22T14:56:53Z</time>
      </trkpt>
      <trkpt lat="39.0848290" lon="1.4634680">
        <ele>62.6</ele>
        <time>2020-02-22T14:56:54Z</time>
      </trkpt>
      <trkpt lat="39.0848250" lon="1.4634790">
        <ele>62.7</ele>
        <time>2020-02-22T14:56:55Z</time>
      </trkpt>
      <trkpt lat="39.0848220" lon="1.4634910">
        <ele>62.8</ele>
        <time>2020-02-22T14:56:56Z</time>
      </trkpt>
      <trkpt lat="39.0848310" lon="1.4635220">
        <ele>63.1</ele>
        <time>2020-02-22T14:56:57Z</time>
      </trkpt>
      <trkpt lat="39.0848410" lon="1.4635300">
        <ele>63.3</ele>
        <time>2020-02-22T14:56:58Z</time>
      </trkpt>
      <trkpt lat="39.0848500" lon="1.4635370">
        <ele>63.4</ele>
        <time>2020-02-22T14:56:59Z</time>
      </trkpt>
      <trkpt lat="39.0848530" lon="1.4635650">
        <ele>63.7</ele>
        <time>2020-02-22T14:57:00Z</time>
      </trkpt>
      <trkpt lat="39.0848600" lon="1.4635760">
        <ele>63.8</ele>
        <time>2020-02-22T14:57:01Z</time>
      </trkpt>
      <trkpt lat="39.0848630" lon="1.4635780">
        <ele>63.8</ele>
        <time>2020-02-22T14:57:02Z</time>
      </trkpt>
      <trkpt lat="39.0848700" lon="1.4635850">
        <ele>64.0</ele>
        <time>2020-02-22T14:57:03Z</time>
      </trkpt>
      <trkpt lat="39.0848750" lon="1.4635890">
        <ele>64.1</ele>
        <time>2020-02-22T14:57:04Z</time>
      </trkpt>
      <trkpt lat="39.0848800" lon="1.4635920">
        <ele>64.2</ele>
        <time>2020-02-22T14:57:05Z</time>
      </trkpt>
      <trkpt lat="39.0848910" lon="1.4635940">
        <ele>64.3</ele>
        <time>2020-02-22T14:57:06Z</time>
      </trkpt>
      <trkpt lat="39.0849130" lon="1.4635800">
        <ele>64.7</ele>
        <time>2020-02-22T14:57:07Z</time>
      </trkpt>
      <trkpt lat="39.0849220" lon="1.4635680">
        <ele>65.0</ele>
        <time>2020-02-22T14:57:08Z</time>
      </trkpt>
      <trkpt lat="39.0849290" lon="1.4635460">
        <ele>65.2</ele>
        <time>2020-02-22T14:57:09Z</time>
      </trkpt>
      <trkpt lat="39.0849410" lon="1.4635360">
        <ele>65.5</ele>
        <time>2020-02-22T14:57:10Z</time>
      </trkpt>
      <trkpt lat="39.0849510" lon="1.4635180">
        <ele>65.7</ele>
        <time>2020-02-22T14:57:11Z</time>
      </trkpt>
      <trkpt lat="39.0849610" lon="1.4635110">
        <ele>65.9</ele>
        <time>2020-02-22T14:57:12Z</time>
      </trkpt>
      <trkpt lat="39.0849720" lon="1.4635010">
        <ele>66.1</ele>
        <time>2020-02-22T14:57:13Z</time>
      </trkpt>
      <trkpt lat="39.0849810" lon="1.4634950">
        <ele>66.2</ele>
        <time>2020-02-22T14:57:14Z</time>
      </trkpt>
      <trkpt lat="39.0849860" lon="1.4634850">
        <ele>66.4</ele>
        <time>2020-02-22T14:57:15Z</time>
      </trkpt>
      <trkpt lat="39.0850130" lon="1.4634600">
        <ele>66.8</ele>
        <time>2020-02-22T14:57:16Z</time>
      </trkpt>
      <trkpt lat="39.0850190" lon="1.4634530">
        <ele>66.9</ele>
        <time>2020-02-22T14:57:17Z</time>
      </trkpt>
      <trkpt lat="39.0850310" lon="1.4634480">
        <ele>67.1</ele>
        <time>2020-02-22T14:57:18Z</time>
      </trkpt>
      <trkpt lat="39.0850360" lon="1.4634490">
        <ele>67.1</ele>
        <time>2020-02-22T14:57:19Z</time>
      </trkpt>
      <trkpt lat="39.0850410" lon="1.4634490">
        <ele>67.2</ele>
        <time>2020-02-22T14:57:20Z</time>
      </trkpt>
      <trkpt lat="39.0850520" lon="1.4634500">
        <ele>67.3</ele>
        <time>2020-02-22T14:57:21Z</time>
      </trkpt>
      <trkpt lat="39.0850720" lon="1.4634490">
        <ele>67.6</ele>
        <time>2020-02-22T14:57:22Z</time>
      </trkpt>
      <trkpt lat="39.0850810" lon="1.4634550">
        <ele>67.7</ele>
        <time>2020-02-22T14:57:23Z</time>
      </trkpt>
      <trkpt lat="39.0850910" lon="1.4634600">
        <ele>67.8</ele>
        <time>2020-02-22T14:57:24Z</time>
      </trkpt>
      <trkpt lat="39.0851040" lon="1.4634570">
        <ele>68.0</ele>
        <time>2020-02-22T14:57:25Z</time>
      </trkpt>
      <trkpt lat="39.0851140" lon="1.4634550">
        <ele>68.1</ele>
        <time>2020-02-22T14:57:26Z</time>
      </trkpt>
      <trkpt lat="39.0851260" lon="1.4634470">
        <ele>68.3</ele>
        <time>2020-02-22T14:57:27Z</time>
      </trkpt>
      <trkpt lat="39.0851460" lon="1.4634480">
        <ele>68.6</ele>
        <time>2020-02-22T14:57:28Z</time>
      </trkpt>
      <trkpt lat="39.0851550" lon="1.4634480">
        <ele>68.7</ele>
        <time>2020-02-22T14:57:29Z</time>
      </trkpt>
      <trkpt lat="39.0851640" lon="1.4634490">
        <ele>68.8</ele>
        <time>2020-02-22T14:57:30Z</time>
      </trkpt>
      <trkpt lat="39.0851790" lon="1.4634450">
        <ele>69.1</ele>
        <time>2020-02-22T14:57:31Z</time>
      </trkpt>
      <trkpt lat="39.0851920" lon="1.4634450">
        <ele>69.2</ele>
        <time>2020-02-22T14:57:32Z</time>
      </trkpt>
      <trkpt lat="39.0852040" lon="1.4634490">
        <ele>69.4</ele>
        <time>2020-02-22T14:57:33Z</time>
      </trkpt>
      <trkpt lat="39.0852210" lon="1.4634450">
        <ele>69.7</ele>
        <time>2020-02-22T14:57:34Z</time>
      </trkpt>
      <trkpt lat="39.0852340" lon="1.4634490">
        <ele>69.9</ele>
        <time>2020-02-22T14:57:35Z</time>
      </trkpt>
      <trkpt lat="39.0852510" lon="1.4634460">
        <ele>70.1</ele>
        <time>2020-02-22T14:57:36Z</time>
      </trkpt>
      <trkpt lat="39.0852810" lon="1.4634340">
        <ele>70.6</ele>
        <time>2020-02-22T14:57:37Z</time>
      </trkpt>
      <trkpt lat="39.0852900" lon="1.4634320">
        <ele>70.7</ele>
        <time>2020-02-22T14:57:38Z</time>
      </trkpt>
      <trkpt lat="39.0853180" lon="1.4634330">
        <ele>71.1</ele>
        <time>2020-02-22T14:57:39Z</time>
      </trkpt>
      <trkpt lat="39.0853290" lon="1.4634320">
        <ele>71.2</ele>
        <time>2020-02-22T14:57:40Z</time>
      </trkpt>
      <trkpt lat="39.0853530" lon="1.4634300">
        <ele>71.6</ele>
        <time>2020-02-22T14:57:41Z</time>
      </trkpt>
      <trkpt lat="39.0853620" lon="1.4634320">
        <ele>71.7</ele>
        <time>2020-02-22T14:57:42Z</time>
      </trkpt>
      <trkpt lat="39.0853710" lon="1.4634330">
        <ele>71.8</ele>
        <time>2020-02-22T14:57:43Z</time>
      </trkpt>
      <trkpt lat="39.0853860" lon="1.4634260">
        <ele>72.0</ele>
        <time>2020-02-22T14:57:44Z</time>
      </trkpt>
      <trkpt lat="39.0854000" lon="1.4634290">
        <ele>72.2</ele>
        <time>2020-02-22T14:57:45Z</time>
      </trkpt>
      <trkpt lat="39.0854230" lon="1.4634360">
        <ele>72.5</ele>
        <time>2020-02-22T14:57:46Z</time>
      </trkpt>
      <trkpt lat="39.0854310" lon="1.4634360">
        <ele>72.6</ele>
        <time>2020-02-22T14:57:47Z</time>
      </trkpt>
      <trkpt lat="39.0854390" lon="1.4634370">
        <ele>72.7</ele>
        <time>2020-02-22T14:57:48Z</time>
      </trkpt>
      <trkpt lat="39.0854540" lon="1.4634260">
        <ele>72.9</ele>
        <time>2020-02-22T14:57:49Z</time>
      </trkpt>
      <trkpt lat="39.0854700" lon="1.4634140">
        <ele>73.2</ele>
        <time>2020-02-22T14:57:50Z</time>
      </trkpt>
      <trkpt lat="39.0854910" lon="1.4634010">
        <ele>73.4</ele>
        <time>2020-02-22T14:57:51Z</time>
      </trkpt>
      <trkpt lat="39.0855020" lon="1.4634000">
        <ele>73.6</ele>
        <time>2020-02-22T14:57:52Z</time>
      </trkpt>
      <trkpt lat="39.0855140" lon="1.4633980">
        <ele>73.7</ele>
        <time>2020-02-22T14:57:53Z</time>
      </trkpt>
      <trkpt lat="39.0855340" lon="1.4634000">
        <ele>73.9</ele>
        <time>2020-02-22T14:57:54Z</time>
      </trkpt>
      <trkpt lat="39.0855490" lon="1.4634030">
        <ele>74.1</ele>
        <time>2020-02-22T14:57:55Z</time>
      </trkpt>
      <trkpt lat="39.0855660" lon="1.4634060">
        <ele>74.3</ele>
        <time>2020-02-22T14:57:56Z</time>
      </trkpt>
      <trkpt lat="39.0855760" lon="1.4634060">
        <ele>74.4</ele>
        <time>2020-02-22T14:57:57Z</time>
      </trkpt>
      <trkpt lat="39.0855850" lon="1.4634020">
        <ele>74.5</ele>
        <time>2020-02-22T14:57:58Z</time>
      </trkpt>
      <trkpt lat="39.0855890" lon="1.4634010">
        <ele>74.5</ele>
        <time>2020-02-22T14:57:59Z</time>
      </trkpt>
      <trkpt lat="39.0856040" lon="1.4634130">
        <ele>74.7</ele>
        <time>2020-02-22T14:58:00Z</time>
      </trkpt>
      <trkpt lat="39.0856190" lon="1.4634000">
        <ele>75.0</ele>
        <time>2020-02-22T14:58:01Z</time>
      </trkpt>
      <trkpt lat="39.0856360" lon="1.4634030">
        <ele>75.3</ele>
        <time>2020-02-22T14:58:02Z</time>
      </trkpt>
      <trkpt lat="39.0856540" lon="1.4633990">
        <ele>75.6</ele>
        <time>2020-02-22T14:58:03Z</time>
      </trkpt>
      <trkpt lat="39.0856690" lon="1.4634020">
        <ele>75.8</ele>
        <time>2020-02-22T14:58:04Z</time>
      </trkpt>
      <trkpt lat="39.0856880" lon="1.4634060">
        <ele>76.0</ele>
        <time>2020-02-22T14:58:05Z</time>
      </trkpt>
      <trkpt lat="39.0857030" lon="1.4634090">
        <ele>76.2</ele>
        <time>2020-02-22T14:58:06Z</time>
      </trkpt>
      <trkpt lat="39.0857320" lon="1.4634150">
        <ele>76.6</ele>
        <time>2020-02-22T14:58:07Z</time>
      </trkpt>
      <trkpt lat="39.0857420" lon="1.4634120">
        <ele>76.7</ele>
        <time>2020-02-22T14:58:08Z</time>
      </trkpt>
      <trkpt lat="39.0857530" lon="1.4634050">
        <ele>76.9</ele>
        <time>2020-02-22T14:58:09Z</time>
      </trkpt>
      <trkpt lat="39.0857710" lon="1.4634010">
        <ele>77.1</ele>
        <time>2020-02-22T14:58:10Z</time>
      </trkpt>
      <trkpt lat="39.0857960" lon="1.4634150">
        <ele>77.5</ele>
        <time>2020-02-22T14:58:11Z</time>
      </trkpt>
      <trkpt lat="39.0858060" lon="1.4634220">
        <ele>77.6</ele>
        <time>2020-02-22T14:58:12Z</time>
      </trkpt>
      <trkpt lat="39.0858200" lon="1.4634230">
        <ele>77.8</ele>
        <time>2020-02-22T14:58:13Z</time>
      </trkpt>
      <trkpt lat="39.0858350" lon="1.4634350">
        <ele>78.0</ele>
        <time>2020-02-22T14:58:14Z</time>
      </trkpt>
      <trkpt lat="39.0858420" lon="1.4634460">
        <ele>78.1</ele>
        <time>2020-02-22T14:58:15Z</time>
      </trkpt>
      <trkpt lat="39.0858520" lon="1.4634640">
        <ele>78.4</ele>
        <time>2020-02-22T14:58:16Z</time>
      </trkpt>
      <trkpt lat="39.0858580" lon="1.4634750">
        <ele>78.5</ele>
        <time>2020-02-22T14:58:17Z</time>
      </trkpt>
      <trkpt lat="39.0858570" lon="1.4634840">
        <ele>78.6</ele>
        <time>2020-02-22T14:58:18Z</time>
      </trkpt>
      <trkpt lat="39.0858570" lon="1.4635010">
        <ele>78.8</ele>
        <time>2020-02-22T14:58:19Z</time>
      </trkpt>
      <trkpt lat="39.0858570" lon="1.4635210">
        <ele>79.0</ele>
        <time>2020-02-22T14:58:20Z</time>
      </trkpt>
      <trkpt lat="39.0858580" lon="1.4635370">
        <ele>79.2</ele>
        <time>2020-02-22T14:58:21Z</time>
      </trkpt>
      <trkpt lat="39.0858610" lon="1.4635510">
        <ele>79.3</ele>
        <time>2020-02-22T14:58:22Z</time>
      </trkpt>
      <trkpt lat="39.0858580" lon="1.4635650">
        <ele>79.5</ele>
        <time>2020-02-22T14:58:23Z</time>
      </trkpt>
      <trkpt lat="39.0858530" lon="1.4635810">
        <ele>79.7</ele>
        <time>2020-02-22T14:58:24Z</time>
      </trkpt>
      <trkpt lat="39.0858480" lon="1.4636020">
        <ele>79.9</ele>
        <time>2020-02-22T14:58:25Z</time>
      </trkpt>
      <trkpt lat="39.0858500" lon="1.4636250">
        <ele>80.1</ele>
        <time>2020-02-22T14:58:26Z</time>
      </trkpt>
      <trkpt lat="39.0858450" lon="1.4636480">
        <ele>80.4</ele>
        <time>2020-02-22T14:58:27Z</time>
      </trkpt>
      <trkpt lat="39.0858400" lon="1.4636670">
        <ele>80.6</ele>
        <time>2020-02-22T14:58:28Z</time>
      </trkpt>
      <trkpt lat="39.0858480" lon="1.4636770">
        <ele>80.7</ele>
        <time>2020-02-22T14:58:29Z</time>
      </trkpt>
      <trkpt lat="39.0858510" lon="1.4636920">
        <ele>80.9</ele>
        <time>2020-02-22T14:58:30Z</time>
      </trkpt>
      <trkpt lat="39.0858580" lon="1.4637060">
        <ele>81.0</ele>
        <time>2020-02-22T14:58:31Z</time>
      </trkpt>
      <trkpt lat="39.0858760" lon="1.4637240">
        <ele>81.4</ele>
        <time>2020-02-22T14:58:32Z</time>
      </trkpt>
      <trkpt lat="39.0858870" lon="1.4637270">
        <ele>81.5</ele>
        <time>2020-02-22T14:58:33Z</time>
      </trkpt>
      <trkpt lat="39.0858970" lon="1.4637300">
        <ele>81.7</ele>
        <time>2020-02-22T14:58:34Z</time>
      </trkpt>
      <trkpt lat="39.0859100" lon="1.4637400">
        <ele>81.9</ele>
        <time>2020-02-22T14:58:35Z</time>
      </trkpt>
      <trkpt lat="39.0859290" lon="1.4637410">
        <ele>82.1</ele>
        <time>2020-02-22T14:58:36Z</time>
      </trkpt>
      <trkpt lat="39.0859430" lon="1.4637430">
        <ele>82.3</ele>
        <time>2020-02-22T14:58:37Z</time>
      </trkpt>
      <trkpt lat="39.0859600" lon="1.4637360">
        <ele>82.6</ele>
        <time>2020-02-22T14:58:38Z</time>
      </trkpt>
      <trkpt lat="39.0859900" lon="1.4637240">
        <ele>83.0</ele>
        <time>2020-02-22T14:58:39Z</time>
      </trkpt>
      <trkpt lat="39.0860000" lon="1.4637180">
        <ele>83.1</ele>
        <time>2020-02-22T14:58:40Z</time>
      </trkpt>
      <trkpt lat="39.0860210" lon="1.4636970">
        <ele>83.5</ele>
        <time>2020-02-22T14:58:41Z</time>
      </trkpt>
      <trkpt lat="39.0860290" lon="1.4636900">
        <ele>83.6</ele>
        <time>2020-02-22T14:58:42Z</time>
      </trkpt>
      <trkpt lat="39.0860410" lon="1.4636740">
        <ele>83.8</ele>
        <time>2020-02-22T14:58:43Z</time>
      </trkpt>
      <trkpt lat="39.0860520" lon="1.4636580">
        <ele>83.9</ele>
        <time>2020-02-22T14:58:44Z</time>
      </trkpt>
      <trkpt lat="39.0860640" lon="1.4636350">
        <ele>84.1</ele>
        <time>2020-02-22T14:58:45Z</time>
      </trkpt>
      <trkpt lat="39.0860690" lon="1.4636270">
        <ele>84.1</ele>
        <time>2020-02-22T14:58:46Z</time>
      </trkpt>
      <trkpt lat="39.0860740" lon="1.4636180">
        <ele>84.2</ele>
        <time>2020-02-22T14:58:47Z</time>
      </trkpt>
      <trkpt lat="39.0860860" lon="1.4636110">
        <ele>84.3</ele>
        <time>2020-02-22T14:58:48Z</time>
      </trkpt>
      <trkpt lat="39.0861020" lon="1.4636100">
        <ele>84.5</ele>
        <time>2020-02-22T14:58:49Z</time>
      </trkpt>
      <trkpt lat="39.0861100" lon="1.4636050">
        <ele>84.5</ele>
        <time>2020-02-22T14:58:50Z</time>
      </trkpt>
      <trkpt lat="39.0861190" lon="1.4635990">
        <ele>84.6</ele>
        <time>2020-02-22T14:58:51Z</time>
      </trkpt>
      <trkpt lat="39.0861270" lon="1.4635960">
        <ele>84.7</ele>
        <time>2020-02-22T14:58:52Z</time>
      </trkpt>
      <trkpt lat="39.0861440" lon="1.4635870">
        <ele>84.9</ele>
        <time>2020-02-22T14:58:53Z</time>
      </trkpt>
      <trkpt lat="39.0861560" lon="1.4635860">
        <ele>85.0</ele>
        <time>2020-02-22T14:58:54Z</time>
      </trkpt>
      <trkpt lat="39.0861770" lon="1.4635800">
        <ele>85.3</ele>
        <time>2020-02-22T14:58:55Z</time>
      </trkpt>
      <trkpt lat="39.0861850" lon="1.4635800">
        <ele>85.4</ele>
        <time>2020-02-22T14:58:56Z</time>
      </trkpt>
      <trkpt lat="39.0861940" lon="1.4635790">
        <ele>85.4</ele>
        <time>2020-02-22T14:58:57Z</time>
      </trkpt>
      <trkpt lat="39.0862050" lon="1.4635730">
        <ele>85.5</ele>
        <time>2020-02-22T14:58:58Z</time>
      </trkpt>
      <trkpt lat="39.0862240" lon="1.4635670">
        <ele>85.6</ele>
        <time>2020-02-22T14:58:59Z</time>
      </trkpt>
      <trkpt lat="39.0862450" lon="1.4635680">
        <ele>85.8</ele>
        <time>2020-02-22T14:59:00Z</time>
      </trkpt>
      <trkpt lat="39.0862540" lon="1.4635700">
        <ele>85.8</ele>
        <time>2020-02-22T14:59:01Z</time>
      </trkpt>
      <trkpt lat="39.0862640" lon="1.4635720">
        <ele>85.9</ele>
        <time>2020-02-22T14:59:02Z</time>
      </trkpt>
      <trkpt lat="39.0862810" lon="1.4635850">
        <ele>86.0</ele>
        <time>2020-02-22T14:59:03Z</time>
      </trkpt>
      <trkpt lat="39.0862920" lon="1.4635760">
        <ele>86.1</ele>
        <time>2020-02-22T14:59:04Z</time>
      </trkpt>
      <trkpt lat="39.0863150" lon="1.4635980">
        <ele>86.3</ele>
        <time>2020-02-22T14:59:05Z</time>
      </trkpt>
      <trkpt lat="39.0863230" lon="1.4636080">
        <ele>86.4</ele>
        <time>2020-02-22T14:59:06Z</time>
      </trkpt>
      <trkpt lat="39.0863430" lon="1.4636400">
        <ele>86.7</ele>
        <time>2020-02-22T14:59:07Z</time>
      </trkpt>
      <trkpt lat="39.0863530" lon="1.4636510">
        <ele>86.8</ele>
        <time>2020-02-22T14:59:08Z</time>
      </trkpt>
      <trkpt lat="39.0863630" lon="1.4636660">
        <ele>86.9</ele>
        <time>2020-02-22T14:59:09Z</time>
      </trkpt>
      <trkpt lat="39.0863740" lon="1.4636790">
        <ele>87.0</ele>
        <time>2020-02-22T14:59:10Z</time>
      </trkpt>
      <trkpt lat="39.0863900" lon="1.4636880">
        <ele>87.0</ele>
        <time>2020-02-22T14:59:11Z</time>
      </trkpt>
      <trkpt lat="39.0864050" lon="1.4637010">
        <ele>87.1</ele>
        <time>2020-02-22T14:59:12Z</time>
      </trkpt>
      <trkpt lat="39.0864210" lon="1.4637120">
        <ele>87.2</ele>
        <time>2020-02-22T14:59:13Z</time>
      </trkpt>
      <trkpt lat="39.0864310" lon="1.4637270">
        <ele>87.3</ele>
        <time>2020-02-22T14:59:14Z</time>
      </trkpt>
      <trkpt lat="39.0864420" lon="1.4637360">
        <ele>87.3</ele>
        <time>2020-02-22T14:59:15Z</time>
      </trkpt>
      <trkpt lat="39.0864530" lon="1.4637510">
        <ele>87.4</ele>
        <time>2020-02-22T14:59:16Z</time>
      </trkpt>
      <trkpt lat="39.0864730" lon="1.4637800">
        <ele>87.5</ele>
        <time>2020-02-22T14:59:17Z</time>
      </trkpt>
      <trkpt lat="39.0864790" lon="1.4637900">
        <ele>87.6</ele>
        <time>2020-02-22T14:59:18Z</time>
      </trkpt>
      <trkpt lat="39.0864890" lon="1.4638120">
        <ele>87.7</ele>
        <time>2020-02-22T14:59:19Z</time>
      </trkpt>
      <trkpt lat="39.0865000" lon="1.4638260">
        <ele>87.7</ele>
        <time>2020-02-22T14:59:20Z</time>
      </trkpt>
      <trkpt lat="39.0865080" lon="1.4638350">
        <ele>87.8</ele>
        <time>2020-02-22T14:59:21Z</time>
      </trkpt>
      <trkpt lat="39.0865210" lon="1.4638480">
        <ele>87.9</ele>
        <time>2020-02-22T14:59:22Z</time>
      </trkpt>
      <trkpt lat="39.0865330" lon="1.4638580">
        <ele>87.9</ele>
        <time>2020-02-22T14:59:23Z</time>
      </trkpt>
      <trkpt lat="39.0865450" lon="1.4638720">
        <ele>88.0</ele>
        <time>2020-02-22T14:59:24Z</time>
      </trkpt>
      <trkpt lat="39.0865580" lon="1.4638860">
        <ele>88.1</ele>
        <time>2020-02-22T14:59:25Z</time>
      </trkpt>
      <trkpt lat="39.0865720" lon="1.4639000">
        <ele>88.3</ele>
        <time>2020-02-22T14:59:26Z</time>
      </trkpt>
      <trkpt lat="39.0865950" lon="1.4639310">
        <ele>88.5</ele>
        <time>2020-02-22T14:59:27Z</time>
      </trkpt>
      <trkpt lat="39.0866020" lon="1.4639430">
        <ele>88.6</ele>
        <time>2020-02-22T14:59:28Z</time>
      </trkpt>
      <trkpt lat="39.0866130" lon="1.4639500">
        <ele>88.7</ele>
        <time>2020-02-22T14:59:29Z</time>
      </trkpt>
      <trkpt lat="39.0866240" lon="1.4639650">
        <ele>88.8</ele>
        <time>2020-02-22T14:59:30Z</time>
      </trkpt>
      <trkpt lat="39.0866410" lon="1.4639990">
        <ele>89.2</ele>
        <time>2020-02-22T14:59:31Z</time>
      </trkpt>
      <trkpt lat="39.0866470" lon="1.4640060">
        <ele>89.3</ele>
        <time>2020-02-22T14:59:32Z</time>
      </trkpt>
      <trkpt lat="39.0866570" lon="1.4640220">
        <ele>89.5</ele>
        <time>2020-02-22T14:59:33Z</time>
      </trkpt>
      <trkpt lat="39.0866680" lon="1.4640270">
        <ele>89.6</ele>
        <time>2020-02-22T14:59:34Z</time>
      </trkpt>
      <trkpt lat="39.0866810" lon="1.4640420">
        <ele>89.7</ele>
        <time>2020-02-22T14:59:35Z</time>
      </trkpt>
      <trkpt lat="39.0866890" lon="1.4640540">
        <ele>89.8</ele>
        <time>2020-02-22T14:59:36Z</time>
      </trkpt>
      <trkpt lat="39.0866950" lon="1.4640630">
        <ele>89.9</ele>
        <time>2020-02-22T14:59:37Z</time>
      </trkpt>
      <trkpt lat="39.0867170" lon="1.4640730">
        <ele>90.1</ele>
        <time>2020-02-22T14:59:38Z</time>
      </trkpt>
      <trkpt lat="39.0867460" lon="1.4640750">
        <ele>90.4</ele>
        <time>2020-02-22T14:59:39Z</time>
      </trkpt>
      <trkpt lat="39.0867540" lon="1.4640760">
        <ele>90.5</ele>
        <time>2020-02-22T14:59:40Z</time>
      </trkpt>
      <trkpt lat="39.0867680" lon="1.4640730">
        <ele>90.6</ele>
        <time>2020-02-22T14:59:41Z</time>
      </trkpt>
      <trkpt lat="39.0867840" lon="1.4640720">
        <ele>90.8</ele>
        <time>2020-02-22T14:59:42Z</time>
      </trkpt>
      <trkpt lat="39.0867990" lon="1.4640740">
        <ele>91.0</ele>
        <time>2020-02-22T14:59:43Z</time>
      </trkpt>
      <trkpt lat="39.0868160" lon="1.4640760">
        <ele>91.2</ele>
        <time>2020-02-22T14:59:44Z</time>
      </trkpt>
      <trkpt lat="39.0868280" lon="1.4640770">
        <ele>91.4</ele>
        <time>2020-02-22T14:59:45Z</time>
      </trkpt>
      <trkpt lat="39.0868440" lon="1.4640800">
        <ele>91.6</ele>
        <time>2020-02-22T14:59:46Z</time>
      </trkpt>
      <trkpt lat="39.0868600" lon="1.4640840">
        <ele>91.9</ele>
        <time>2020-02-22T14:59:47Z</time>
      </trkpt>
      <trkpt lat="39.0868770" lon="1.4640900">
        <ele>92.2</ele>
        <time>2020-02-22T14:59:48Z</time>
      </trkpt>
      <trkpt lat="39.0869030" lon="1.4641000">
        <ele>92.5</ele>
        <time>2020-02-22T14:59:49Z</time>
      </trkpt>
      <trkpt lat="39.0869190" lon="1.4641080">
        <ele>92.7</ele>
        <time>2020-02-22T14:59:50Z</time>
      </trkpt>
      <trkpt lat="39.0869350" lon="1.4641160">
        <ele>92.9</ele>
        <time>2020-02-22T14:59:51Z</time>
      </trkpt>
      <trkpt lat="39.0869500" lon="1.4641210">
        <ele>93.1</ele>
        <time>2020-02-22T14:59:52Z</time>
      </trkpt>
      <trkpt lat="39.0869650" lon="1.4641200">
        <ele>93.2</ele>
        <time>2020-02-22T14:59:53Z</time>
      </trkpt>
      <trkpt lat="39.0869910" lon="1.4641140">
        <ele>93.5</ele>
        <time>2020-02-22T14:59:54Z</time>
      </trkpt>
      <trkpt lat="39.0870020" lon="1.4641110">
        <ele>93.6</ele>
        <time>2020-02-22T14:59:55Z</time>
      </trkpt>
      <trkpt lat="39.0870150" lon="1.4641080">
        <ele>93.7</ele>
        <time>2020-02-22T14:59:56Z</time>
      </trkpt>
      <trkpt lat="39.0870360" lon="1.4641020">
        <ele>94.0</ele>
        <time>2020-02-22T14:59:57Z</time>
      </trkpt>
      <trkpt lat="39.0870730" lon="1.4640940">
        <ele>94.5</ele>
        <time>2020-02-22T14:59:58Z</time>
      </trkpt>
      <trkpt lat="39.0870870" lon="1.4640920">
        <ele>94.7</ele>
        <time>2020-02-22T14:59:59Z</time>
      </trkpt>
      <trkpt lat="39.0871180" lon="1.4640760">
        <ele>95.2</ele>
        <time>2020-02-22T15:00:00Z</time>
      </trkpt>
      <trkpt lat="39.0871260" lon="1.4640710">
        <ele>95.3</ele>
        <time>2020-02-22T15:00:01Z</time>
      </trkpt>
      <trkpt lat="39.0871560" lon="1.4640550">
        <ele>95.7</ele>
        <time>2020-02-22T15:00:02Z</time>
      </trkpt>
      <trkpt lat="39.0871640" lon="1.4640490">
        <ele>95.9</ele>
        <time>2020-02-22T15:00:03Z</time>
      </trkpt>
      <trkpt lat="39.0871890" lon="1.4640340">
        <ele>96.2</ele>
        <time>2020-02-22T15:00:04Z</time>
      </trkpt>
      <trkpt lat="39.0871990" lon="1.4640310">
        <ele>96.4</ele>
        <time>2020-02-22T15:00:05Z</time>
      </trkpt>
      <trkpt lat="39.0872280" lon="1.4640170">
        <ele>96.8</ele>
        <time>2020-02-22T15:00:06Z</time>
      </trkpt>
      <trkpt lat="39.0872350" lon="1.4640110">
        <ele>96.9</ele>
        <time>2020-02-22T15:00:07Z</time>
      </trkpt>
      <trkpt lat="39.0872600" lon="1.4639940">
        <ele>97.2</ele>
        <time>2020-02-22T15:00:08Z</time>
      </trkpt>
      <trkpt lat="39.0872670" lon="1.4639860">
        <ele>97.3</ele>
        <time>2020-02-22T15:00:09Z</time>
      </trkpt>
      <trkpt lat="39.0872730" lon="1.4639850">
        <ele>97.4</ele>
        <time>2020-02-22T15:00:10Z</time>
      </trkpt>
      <trkpt lat="39.0872880" lon="1.4639750">
        <ele>97.5</ele>
        <time>2020-02-22T15:00:11Z</time>
      </trkpt>
      <trkpt lat="39.0872960" lon="1.4639610">
        <ele>97.6</ele>
        <time>2020-02-22T15:00:12Z</time>
      </trkpt>
      <trkpt lat="39.0873040" lon="1.4639520">
        <ele>97.7</ele>
        <time>2020-02-22T15:00:13Z</time>
      </trkpt>
      <trkpt lat="39.0873220" lon="1.4639340">
        <ele>97.9</ele>
        <time>2020-02-22T15:00:14Z</time>
      </trkpt>
      <trkpt lat="39.0873500" lon="1.4639090">
        <ele>98.1</ele>
        <time>2020-02-22T15:00:15Z</time>
      </trkpt>
      <trkpt lat="39.0873590" lon="1.4639030">
        <ele>98.2</ele>
        <time>2020-02-22T15:00:16Z</time>
      </trkpt>
      <trkpt lat="39.0873920" lon="1.4638970">
        <ele>98.5</ele>
        <time>2020-02-22T15:00:17Z</time>
      </trkpt>
      <trkpt lat="39.0874030" lon="1.4638920">
        <ele>98.6</ele>
        <time>2020-02-22T15:00:18Z</time>
      </trkpt>
      <trkpt lat="39.0874300" lon="1.4638660">
        <ele>99.0</ele>
        <time>2020-02-22T15:00:19Z</time>
      </trkpt>
      <trkpt lat="39.0874350" lon="1.4638550">
        <ele>99.2</ele>
        <time>2020-02-22T15:00:20Z</time>
      </trkpt>
      <trkpt lat="39.0874630" lon="1.4638420">
        <ele>99.6</ele>
        <time>2020-02-22T15:00:21Z</time>
      </trkpt>
      <trkpt lat="39.0874730" lon="1.4638380">
        <ele>99.7</ele>
        <time>2020-02-22T15:00:22Z</time>
      </trkpt>
      <trkpt lat="39.0874840" lon="1.4638310">
        <ele>99.9</ele>
        <time>2020-02-22T15:00:23Z</time>
      </trkpt>
      <trkpt lat="39.0874990" lon="1.4638260">
        <ele>100.1</ele>
        <time>2020-02-22T15:00:24Z</time>
      </trkpt>
      <trkpt lat="39.0875280" lon="1.4638210">
        <ele>100.4</ele>
        <time>2020-02-22T15:00:25Z</time>
      </trkpt>
      <trkpt lat="39.0875380" lon="1.4638210">
        <ele>100.5</ele>
        <time>2020-02-22T15:00:26Z</time>
      </trkpt>
      <trkpt lat="39.0875700" lon="1.4638250">
        <ele>100.8</ele>
        <time>2020-02-22T15:00:27Z</time>
      </trkpt>
      <trkpt lat="39.0875780" lon="1.4638270">
        <ele>100.9</ele>
        <time>2020-02-22T15:00:28Z</time>
      </trkpt>
      <trkpt lat="39.0876090" lon="1.4638320">
        <ele>101.1</ele>
        <time>2020-02-22T15:00:29Z</time>
      </trkpt>
      <trkpt lat="39.0876200" lon="1.4638340">
        <ele>101.2</ele>
        <time>2020-02-22T15:00:30Z</time>
      </trkpt>
      <trkpt lat="39.0876500" lon="1.4638430">
        <ele>101.5</ele>
        <time>2020-02-22T15:00:31Z</time>
      </trkpt>
      <trkpt lat="39.0876600" lon="1.4638450">
        <ele>101.6</ele>
        <time>2020-02-22T15:00:32Z</time>
      </trkpt>
      <trkpt lat="39.0876890" lon="1.4638480">
        <ele>101.9</ele>
        <time>2020-02-22T15:00:33Z</time>
      </trkpt>
      <trkpt lat="39.0877090" lon="1.4638610">
        <ele>102.2</ele>
        <time>2020-02-22T15:00:34Z</time>
      </trkpt>
      <trkpt lat="39.0877230" lon="1.4638590">
        <ele>102.4</ele>
        <time>2020-02-22T15:00:35Z</time>
      </trkpt>
      <trkpt lat="39.0877530" lon="1.4638650">
        <ele>102.8</ele>
        <time>2020-02-22T15:00:36Z</time>
      </trkpt>
      <trkpt lat="39.0877630" lon="1.4638660">
        <ele>103.0</ele>
        <time>2020-02-22T15:00:37Z</time>
      </trkpt>
      <trkpt lat="39.0877940" lon="1.4638800">
        <ele>103.3</ele>
        <time>2020-02-22T15:00:38Z</time>
      </trkpt>
      <trkpt lat="39.0878020" lon="1.4638860">
        <ele>103.4</ele>
        <time>2020-02-22T15:00:39Z</time>
      </trkpt>
      <trkpt lat="39.0878180" lon="1.4638910">
        <ele>103.6</ele>
        <time>2020-02-22T15:00:40Z</time>
      </trkpt>
      <trkpt lat="39.0878340" lon="1.4639010">
        <ele>103.8</ele>
        <time>2020-02-22T15:00:41Z</time>
      </trkpt>
      <trkpt lat="39.0878610" lon="1.4639040">
        <ele>104.2</ele>
        <time>2020-02-22T15:00:42Z</time>
      </trkpt>
      <trkpt lat="39.0878700" lon="1.4639100">
        <ele>104.3</ele>
        <time>2020-02-22T15:00:43Z</time>
      </trkpt>
      <trkpt lat="39.0879020" lon="1.4639220">
        <ele>104.8</ele>
        <time>2020-02-22T15:00:44Z</time>
      </trkpt>
      <trkpt lat="39.0879090" lon="1.4639250">
        <ele>104.9</ele>
        <time>2020-02-22T15:00:45Z</time>
      </trkpt>
      <trkpt lat="39.0879250" lon="1.4639280">
        <ele>105.1</ele>
        <time>2020-02-22T15:00:46Z</time>
      </trkpt>
      <trkpt lat="39.0879330" lon="1.4639270">
        <ele>105.2</ele>
        <time>2020-02-22T15:00:47Z</time>
      </trkpt>
      <trkpt lat="39.0879280" lon="1.4639180">
        <ele>105.3</ele>
        <time>2020-02-22T15:00:48Z</time>
      </trkpt>
      <trkpt lat="39.0879330" lon="1.4639370">
        <ele>105.5</ele>
        <time>2020-02-22T15:00:49Z</time>
      </trkpt>
      <trkpt lat="39.0879340" lon="1.4639540">
        <ele>105.7</ele>
        <time>2020-02-22T15:00:50Z</time>
      </trkpt>
      <trkpt lat="39.0879370" lon="1.4639630">
        <ele>105.7</ele>
        <time>2020-02-22T15:00:51Z</time>
      </trkpt>
      <trkpt lat="39.0879320" lon="1.4639870">
        <ele>105.9</ele>
        <time>2020-02-22T15:00:52Z</time>
      </trkpt>
      <trkpt lat="39.0879290" lon="1.4640000">
        <ele>106.0</ele>
        <time>2020-02-22T15:00:53Z</time>
      </trkpt>
      <trkpt lat="39.0879250" lon="1.4640040">
        <ele>106.1</ele>
        <time>2020-02-22T15:00:54Z</time>
      </trkpt>
      <trkpt lat="39.0879160" lon="1.4640230">
        <ele>106.3</ele>
        <time>2020-02-22T15:00:55Z</time>
      </trkpt>
      <trkpt lat="39.0879070" lon="1.4640360">
        <ele>106.4</ele>
        <time>2020-02-22T15:00:56Z</time>
      </trkpt>
      <trkpt lat="39.0878970" lon="1.4640720">
        <ele>106.7</ele>
        <time>2020-02-22T15:00:57Z</time>
      </trkpt>
      <trkpt lat="39.0878960" lon="1.4640860">
        <ele>106.8</ele>
        <time>2020-02-22T15:00:58Z</time>
      </trkpt>
      <trkpt lat="39.0878930" lon="1.4641260">
        <ele>107.2</ele>
        <time>2020-02-22T15:00:59Z</time>
      </trkpt>
      <trkpt lat="39.0878920" lon="1.4641370">
        <ele>107.3</ele>
        <time>2020-02-22T15:01:00Z</time>
      </trkpt>
      <trkpt lat="39.0878920" lon="1.4641630">
        <ele>107.5</ele>
        <time>2020-02-22T15:01:01Z</time>
      </trkpt>
      <trkpt lat="39.0878850" lon="1.4641800">
        <ele>107.6</ele>
        <time>2020-02-22T15:01:02Z</time>
      </trkpt>
      <trkpt lat="39.0878740" lon="1.4642000">
        <ele>107.8</ele>
        <time>2020-02-22T15:01:03Z</time>
      </trkpt>
      <trkpt lat="39.0878780" lon="1.4642200">
        <ele>107.9</ele>
        <time>2020-02-22T15:01:04Z</time>
      </trkpt>
      <trkpt lat="39.0878710" lon="1.4642370">
        <ele>108.1</ele>
        <time>2020-02-22T15:01:05Z</time>
      </trkpt>
      <trkpt lat="39.0878580" lon="1.4642580">
        <ele>108.3</ele>
        <time>2020-02-22T15:01:06Z</time>
      </trkpt>
      <trkpt lat="39.0878410" lon="1.4642950">
        <ele>108.5</ele>
        <time>2020-02-22T15:01:07Z</time>
      </trkpt>
      <trkpt lat="39.0878380" lon="1.4643080">
        <ele>108.7</ele>
        <time>2020-02-22T15:01:08Z</time>
      </trkpt>
      <trkpt lat="39.0878340" lon="1.4643290">
        <ele>108.9</ele>
        <time>2020-02-22T15:01:09Z</time>
      </trkpt>
      <trkpt lat="39.0878340" lon="1.4643540">
        <ele>109.2</ele>
        <time>2020-02-22T15:01:10Z</time>
      </trkpt>
      <trkpt lat="39.0878340" lon="1.4643940">
        <ele>109.6</ele>
        <time>2020-02-22T15:01:11Z</time>
      </trkpt>
      <trkpt lat="39.0878320" lon="1.4644050">
        <ele>109.6</ele>
        <time>2020-02-22T15:01:12Z</time>
      </trkpt>
      <trkpt lat="39.0878300" lon="1.4644240">
        <ele>109.8</ele>
        <time>2020-02-22T15:01:13Z</time>
      </trkpt>
      <trkpt lat="39.0878210" lon="1.4644430">
        <ele>110.0</ele>
        <time>2020-02-22T15:01:14Z</time>
      </trkpt>
      <trkpt lat="39.0878120" lon="1.4644640">
        <ele>110.1</ele>
        <time>2020-02-22T15:01:15Z</time>
      </trkpt>
      <trkpt lat="39.0878070" lon="1.4644840">
        <ele>110.3</ele>
        <time>2020-02-22T15:01:16Z</time>
      </trkpt>
      <trkpt lat="39.0878020" lon="1.4645090">
        <ele>110.5</ele>
        <time>2020-02-22T15:01:17Z</time>
      </trkpt>
      <trkpt lat="39.0878040" lon="1.4645220">
        <ele>110.6</ele>
        <time>2020-02-22T15:01:18Z</time>
      </trkpt>
      <trkpt lat="39.0878070" lon="1.4645360">
        <ele>110.7</ele>
        <time>2020-02-22T15:01:19Z</time>
      </trkpt>
      <trkpt lat="39.0878150" lon="1.4645480">
        <ele>110.9</ele>
        <time>2020-02-22T15:01:20Z</time>
      </trkpt>
      <trkpt lat="39.0878290" lon="1.4645600">
        <ele>111.1</ele>
        <time>2020-02-22T15:01:21Z</time>
      </trkpt>
      <trkpt lat="39.0878550" lon="1.4645620">
        <ele>111.4</ele>
        <time>2020-02-22T15:01:22Z</time>
      </trkpt>
      <trkpt lat="39.0878660" lon="1.4645590">
        <ele>111.5</ele>
        <time>2020-02-22T15:01:23Z</time>
      </trkpt>
      <trkpt lat="39.0878780" lon="1.4645570">
        <ele>111.6</ele>
        <time>2020-02-22T15:01:24Z</time>
      </trkpt>
      <trkpt lat="39.0879130" lon="1.4645360">
        <ele>111.9</ele>
        <time>2020-02-22T15:01:25Z</time>
      </trkpt>
      <trkpt lat="39.0879250" lon="1.4645270">
        <ele>112.0</ele>
        <time>2020-02-22T15:01:26Z</time>
      </trkpt>
      <trkpt lat="39.0879550" lon="1.4645070">
        <ele>112.2</ele>
        <time>2020-02-22T15:01:27Z</time>
      </trkpt>
      <trkpt lat="39.0879680" lon="1.4645020">
        <ele>112.2</ele>
        <time>2020-02-22T15:01:28Z</time>
      </trkpt>
      <trkpt lat="39.0879860" lon="1.4645010">
        <ele>112.3</ele>
        <time>2020-02-22T15:01:29Z</time>
      </trkpt>
      <trkpt lat="39.0879970" lon="1.4644880">
        <ele>112.4</ele>
        <time>2020-02-22T15:01:30Z</time>
      </trkpt>
      <trkpt lat="39.0880070" lon="1.4644710">
        <ele>112.5</ele>
        <time>2020-02-22T15:01:31Z</time>
      </trkpt>
      <trkpt lat="39.0880200" lon="1.4644580">
        <ele>112.6</ele>
        <time>2020-02-22T15:01:32Z</time>
      </trkpt>
      <trkpt lat="39.0880350" lon="1.4644550">
        <ele>112.7</ele>
        <time>2020-02-22T15:01:33Z</time>
      </trkpt>
      <trkpt lat="39.0880460" lon="1.4644440">
        <ele>112.8</ele>
        <time>2020-02-22T15:01:34Z</time>
      </trkpt>
      <trkpt lat="39.0880660" lon="1.4644290">
        <ele>113.0</ele>
        <time>2020-02-22T15:01:35Z</time>
      </trkpt>
      <trkpt lat="39.0880790" lon="1.4644230">
        <ele>113.0</ele>
        <time>2020-02-22T15:01:36Z</time>
      </trkpt>
      <trkpt lat="39.0881060" lon="1.4644040">
        <ele>113.2</ele>
        <time>2020-02-22T15:01:37Z</time>
      </trkpt>
      <trkpt lat="39.0881330" lon="1.4643840">
        <ele>113.4</ele>
        <time>2020-02-22T15:01:38Z</time>
      </trkpt>
      <trkpt lat="39.0881420" lon="1.4643790">
        <ele>113.5</ele>
        <time>2020-02-22T15:01:39Z</time>
      </trkpt>
      <trkpt lat="39.0881740" lon="1.4643500">
        <ele>113.9</ele>
        <time>2020-02-22T15:01:40Z</time>
      </trkpt>
      <trkpt lat="39.0881850" lon="1.4643360">
        <ele>114.0</ele>
        <time>2020-02-22T15:01:41Z</time>
      </trkpt>
      <trkpt lat="39.0882100" lon="1.4643060">
        <ele>114.4</ele>
        <time>2020-02-22T15:01:42Z</time>
      </trkpt>
      <trkpt lat="39.0882180" lon="1.4642990">
        <ele>114.4</ele>
        <time>2020-02-22T15:01:43Z</time>
      </trkpt>
      <trkpt lat="39.0882330" lon="1.4642870">
        <ele>114.7</ele>
        <time>2020-02-22T15:01:44Z</time>
      </trkpt>
      <trkpt lat="39.0882420" lon="1.4642820">
        <ele>114.8</ele>
        <time>2020-02-22T15:01:45Z</time>
      </trkpt>
      <trkpt lat="39.0882520" lon="1.4642760">
        <ele>114.9</ele>
        <time>2020-02-22T15:01:46Z</time>
      </trkpt>
      <trkpt lat="39.0882650" lon="1.4642600">
        <ele>115.2</ele>
        <time>2020-02-22T15:01:47Z</time>
      </trkpt>
      <trkpt lat="39.0882780" lon="1.4642470">
        <ele>115.5</ele>
        <time>2020-02-22T15:01:48Z</time>
      </trkpt>
      <trkpt lat="39.0883000" lon="1.4642310">
        <ele>115.9</ele>
        <time>2020-02-22T15:01:49Z</time>
      </trkpt>
      <trkpt lat="39.0883120" lon="1.4642250">
        <ele>116.0</ele>
        <time>2020-02-22T15:01:50Z</time>
      </trkpt>
      <trkpt lat="39.0883370" lon="1.4642030">
        <ele>116.5</ele>
        <time>2020-02-22T15:01:51Z</time>
      </trkpt>
      <trkpt lat="39.0883440" lon="1.4641950">
        <ele>116.7</ele>
        <time>2020-02-22T15:01:52Z</time>
      </trkpt>
      <trkpt lat="39.0883530" lon="1.4641870">
        <ele>116.9</ele>
        <time>2020-02-22T15:01:53Z</time>
      </trkpt>
      <trkpt lat="39.0883620" lon="1.4641790">
        <ele>117.0</ele>
        <time>2020-02-22T15:01:54Z</time>
      </trkpt>
      <trkpt lat="39.0883670" lon="1.4641690">
        <ele>117.2</ele>
        <time>2020-02-22T15:01:55Z</time>
      </trkpt>
      <trkpt lat="39.0883700" lon="1.4641650">
        <ele>117.3</ele>
        <time>2020-02-22T15:01:56Z</time>
      </trkpt>
      <trkpt lat="39.0883730" lon="1.4641640">
        <ele>117.3</ele>
        <time>2020-02-22T15:01:57Z</time>
      </trkpt>
      <trkpt lat="39.0883740" lon="1.4641640">
        <ele>117.3</ele>
        <time>2020-02-22T15:01:58Z</time>
      </trkpt>
      <trkpt lat="39.0883740" lon="1.4641640">
        <ele>117.3</ele>
        <time>2020-02-22T15:01:59Z</time>
      </trkpt>
      <trkpt lat="39.0883750" lon="1.4641640">
        <ele>117.3</ele>
        <time>2020-02-22T15:02:00Z</time>
      </trkpt>
      <trkpt lat="39.0883750" lon="1.4641630">
        <ele>117.3</ele>
        <time>2020-02-22T15:02:01Z</time>
      </trkpt>
      <trkpt lat="39.0883750" lon="1.4641630">
        <ele>117.3</ele>
        <time>2020-02-22T15:02:02Z</time>
      </trkpt>
      <trkpt lat="39.0883760" lon="1.4641630">
        <ele>117.3</ele>
        <time>2020-02-22T15:02:03Z</time>
      </trkpt>
      <trkpt lat="39.0883770" lon="1.4641650">
        <ele>117.4</ele>
        <time>2020-02-22T15:02:04Z</time>
      </trkpt>
      <trkpt lat="39.0884040" lon="1.4641950">
        <ele>117.9</ele>
        <time>2020-02-22T15:02:20Z</time>
      </trkpt>
      <trkpt lat="39.0884120" lon="1.4642000">
        <ele>118.1</ele>
        <time>2020-02-22T15:02:21Z</time>
      </trkpt>
      <trkpt lat="39.0884260" lon="1.4642010">
        <ele>118.3</ele>
        <time>2020-02-22T15:02:22Z</time>
      </trkpt>
      <trkpt lat="39.0884580" lon="1.4642060">
        <ele>118.9</ele>
        <time>2020-02-22T15:02:23Z</time>
      </trkpt>
      <trkpt lat="39.0884670" lon="1.4642040">
        <ele>119.0</ele>
        <time>2020-02-22T15:02:24Z</time>
      </trkpt>
      <trkpt lat="39.0884870" lon="1.4641910">
        <ele>119.4</ele>
        <time>2020-02-22T15:02:25Z</time>
      </trkpt>
      <trkpt lat="39.0884930" lon="1.4641830">
        <ele>119.5</ele>
        <time>2020-02-22T15:02:26Z</time>
      </trkpt>
      <trkpt lat="39.0885310" lon="1.4641730">
        <ele>120.1</ele>
        <time>2020-02-22T15:02:27Z</time>
      </trkpt>
      <trkpt lat="39.0885440" lon="1.4641670">
        <ele>120.2</ele>
        <time>2020-02-22T15:02:28Z</time>
      </trkpt>
      <trkpt lat="39.0885690" lon="1.4641570">
        <ele>120.5</ele>
        <time>2020-02-22T15:02:29Z</time>
      </trkpt>
      <trkpt lat="39.0885800" lon="1.4641510">
        <ele>120.6</ele>
        <time>2020-02-22T15:02:30Z</time>
      </trkpt>
      <trkpt lat="39.0886090" lon="1.4641440">
        <ele>121.0</ele>
        <time>2020-02-22T15:02:31Z</time>
      </trkpt>
      <trkpt lat="39.0886170" lon="1.4641380">
        <ele>121.1</ele>
        <time>2020-02-22T15:02:32Z</time>
      </trkpt>
      <trkpt lat="39.0886400" lon="1.4640960">
        <ele>121.5</ele>
        <time>2020-02-22T15:02:33Z</time>
      </trkpt>
      <trkpt lat="39.0886450" lon="1.4640800">
        <ele>121.6</ele>
        <time>2020-02-22T15:02:34Z</time>
      </trkpt>
      <trkpt lat="39.0886570" lon="1.4640550">
        <ele>121.8</ele>
        <time>2020-02-22T15:02:35Z</time>
      </trkpt>
      <trkpt lat="39.0886650" lon="1.4640420">
        <ele>122.0</ele>
        <time>2020-02-22T15:02:36Z</time>
      </trkpt>
      <trkpt lat="39.0886880" lon="1.4640240">
        <ele>122.2</ele>
        <time>2020-02-22T15:02:37Z</time>
      </trkpt>
      <trkpt lat="39.0887090" lon="1.4639930">
        <ele>122.5</ele>
        <time>2020-02-22T15:02:38Z</time>
      </trkpt>
      <trkpt lat="39.0887150" lon="1.4639850">
        <ele>122.6</ele>
        <time>2020-02-22T15:02:39Z</time>
      </trkpt>
      <trkpt lat="39.0887260" lon="1.4639620">
        <ele>122.8</ele>
        <time>2020-02-22T15:02:40Z</time>
      </trkpt>
      <trkpt lat="39.0887400" lon="1.4639520">
        <ele>122.9</ele>
        <time>2020-02-22T15:02:41Z</time>
      </trkpt>
      <trkpt lat="39.0887480" lon="1.4639360">
        <ele>123.0</ele>
        <time>2020-02-22T15:02:42Z</time>
      </trkpt>
      <trkpt lat="39.0887450" lon="1.4639150">
        <ele>123.2</ele>
        <time>2020-02-22T15:02:43Z</time>
      </trkpt>
      <trkpt lat="39.0887550" lon="1.4638940">
        <ele>123.3</ele>
        <time>2020-02-22T15:02:44Z</time>
      </trkpt>
      <trkpt lat="39.0887590" lon="1.4638820">
        <ele>123.4</ele>
        <time>2020-02-22T15:02:45Z</time>
      </trkpt>
      <trkpt lat="39.0887660" lon="1.4638670">
        <ele>123.5</ele>
        <time>2020-02-22T15:02:46Z</time>
      </trkpt>
      <trkpt lat="39.0887690" lon="1.4638370">
        <ele>123.7</ele>
        <time>2020-02-22T15:02:47Z</time>
      </trkpt>
      <trkpt lat="39.0887790" lon="1.4638050">
        <ele>123.9</ele>
        <time>2020-02-22T15:02:48Z</time>
      </trkpt>
      <trkpt lat="39.0887830" lon="1.4637940">
        <ele>124.0</ele>
        <time>2020-02-22T15:02:49Z</time>
      </trkpt>
      <trkpt lat="39.0887940" lon="1.4637610">
        <ele>124.1</ele>
        <time>2020-02-22T15:02:50Z</time>
      </trkpt>
      <trkpt lat="39.0888010" lon="1.4637450">
        <ele>124.2</ele>
        <time>2020-02-22T15:02:51Z</time>
      </trkpt>
      <trkpt lat="39.0888100" lon="1.4637270">
        <ele>124.3</ele>
        <time>2020-02-22T15:02:52Z</time>
      </trkpt>
      <trkpt lat="39.0888120" lon="1.4637070">
        <ele>124.4</ele>
        <time>2020-02-22T15:02:53Z</time>
      </trkpt>
      <trkpt lat="39.0888200" lon="1.4636880">
        <ele>124.5</ele>
        <time>2020-02-22T15:02:54Z</time>
      </trkpt>
      <trkpt lat="39.0888270" lon="1.4636650">
        <ele>124.6</ele>
        <time>2020-02-22T15:02:55Z</time>
      </trkpt>
      <trkpt lat="39.0888280" lon="1.4636490">
        <ele>124.6</ele>
        <time>2020-02-22T15:02:56Z</time>
      </trkpt>
      <trkpt lat="39.0888310" lon="1.4636320">
        <ele>124.7</ele>
        <time>2020-02-22T15:02:57Z</time>
      </trkpt>
      <trkpt lat="39.0888390" lon="1.4636100">
        <ele>124.8</ele>
        <time>2020-02-22T15:02:58Z</time>
      </trkpt>
      <trkpt lat="39.0888490" lon="1.4635980">
        <ele>124.9</ele>
        <time>2020-02-22T15:02:59Z</time>
      </trkpt>
      <trkpt lat="39.0888610" lon="1.4635780">
        <ele>125.0</ele>
        <time>2020-02-22T15:03:00Z</time>
      </trkpt>
      <trkpt lat="39.0888730" lon="1.4635560">
        <ele>125.1</ele>
        <time>2020-02-22T15:03:01Z</time>
      </trkpt>
      <trkpt lat="39.0888810" lon="1.4635480">
        <ele>125.2</ele>
        <time>2020-02-22T15:03:02Z</time>
      </trkpt>
      <trkpt lat="39.0889080" lon="1.4635500">
        <ele>125.3</ele>
        <time>2020-02-22T15:03:03Z</time>
      </trkpt>
      <trkpt lat="39.0889170" lon="1.4635530">
        <ele>125.4</ele>
        <time>2020-02-22T15:03:04Z</time>
      </trkpt>
      <trkpt lat="39.0889370" lon="1.4635480">
        <ele>125.5</ele>
        <time>2020-02-22T15:03:05Z</time>
      </trkpt>
      <trkpt lat="39.0889510" lon="1.4635350">
        <ele>125.6</ele>
        <time>2020-02-22T15:03:06Z</time>
      </trkpt>
      <trkpt lat="39.0889670" lon="1.4635260">
        <ele>125.8</ele>
        <time>2020-02-22T15:03:07Z</time>
      </trkpt>
      <trkpt lat="39.0889830" lon="1.4635200">
        <ele>125.9</ele>
        <time>2020-02-22T15:03:08Z</time>
      </trkpt>
      <trkpt lat="39.0890150" lon="1.4635050">
        <ele>126.1</ele>
        <time>2020-02-22T15:03:09Z</time>
      </trkpt>
      <trkpt lat="39.0890250" lon="1.4634990">
        <ele>126.2</ele>
        <time>2020-02-22T15:03:10Z</time>
      </trkpt>
      <trkpt lat="39.0890540" lon="1.4634920">
        <ele>126.4</ele>
        <time>2020-02-22T15:03:11Z</time>
      </trkpt>
      <trkpt lat="39.0890620" lon="1.4634910">
        <ele>126.5</ele>
        <time>2020-02-22T15:03:12Z</time>
      </trkpt>
      <trkpt lat="39.0890870" lon="1.4634920">
        <ele>126.6</ele>
        <time>2020-02-22T15:03:13Z</time>
      </trkpt>
      <trkpt lat="39.0890960" lon="1.4634890">
        <ele>126.7</ele>
        <time>2020-02-22T15:03:14Z</time>
      </trkpt>
      <trkpt lat="39.0891060" lon="1.4634870">
        <ele>126.7</ele>
        <time>2020-02-22T15:03:15Z</time>
      </trkpt>
      <trkpt lat="39.0891390" lon="1.4634880">
        <ele>126.9</ele>
        <time>2020-02-22T15:03:16Z</time>
      </trkpt>
      <trkpt lat="39.0891510" lon="1.4634860">
        <ele>127.0</ele>
        <time>2020-02-22T15:03:17Z</time>
      </trkpt>
      <trkpt lat="39.0891800" lon="1.4634820">
        <ele>127.1</ele>
        <time>2020-02-22T15:03:18Z</time>
      </trkpt>
      <trkpt lat="39.0891910" lon="1.4634790">
        <ele>127.2</ele>
        <time>2020-02-22T15:03:19Z</time>
      </trkpt>
      <trkpt lat="39.0892240" lon="1.4634690">
        <ele>127.4</ele>
        <time>2020-02-22T15:03:20Z</time>
      </trkpt>
      <trkpt lat="39.0892380" lon="1.4634670">
        <ele>127.5</ele>
        <time>2020-02-22T15:03:21Z</time>
      </trkpt>
      <trkpt lat="39.0892740" lon="1.4634530">
        <ele>127.7</ele>
        <time>2020-02-22T15:03:22Z</time>
      </trkpt>
      <trkpt lat="39.0892850" lon="1.4634490">
        <ele>127.8</ele>
        <time>2020-02-22T15:03:23Z</time>
      </trkpt>
      <trkpt lat="39.0893110" lon="1.4634390">
        <ele>128.0</ele>
        <time>2020-02-22T15:03:24Z</time>
      </trkpt>
      <trkpt lat="39.0893360" lon="1.4634230">
        <ele>128.1</ele>
        <time>2020-02-22T15:03:25Z</time>
      </trkpt>
      <trkpt lat="39.0893640" lon="1.4634030">
        <ele>128.3</ele>
        <time>2020-02-22T15:03:26Z</time>
      </trkpt>
      <trkpt lat="39.0893750" lon="1.4633990">
        <ele>128.3</ele>
        <time>2020-02-22T15:03:27Z</time>
      </trkpt>
      <trkpt lat="39.0894050" lon="1.4633900">
        <ele>128.4</ele>
        <time>2020-02-22T15:03:28Z</time>
      </trkpt>
      <trkpt lat="39.0894150" lon="1.4633880">
        <ele>128.5</ele>
        <time>2020-02-22T15:03:29Z</time>
      </trkpt>
      <trkpt lat="39.0894500" lon="1.4633920">
        <ele>128.6</ele>
        <time>2020-02-22T15:03:30Z</time>
      </trkpt>
      <trkpt lat="39.0894650" lon="1.4633910">
        <ele>128.7</ele>
        <time>2020-02-22T15:03:31Z</time>
      </trkpt>
      <trkpt lat="39.0894940" lon="1.4633890">
        <ele>128.8</ele>
        <time>2020-02-22T15:03:32Z</time>
      </trkpt>
      <trkpt lat="39.0895020" lon="1.4633850">
        <ele>128.9</ele>
        <time>2020-02-22T15:03:33Z</time>
      </trkpt>
      <trkpt lat="39.0895230" lon="1.4633770">
        <ele>129.0</ele>
        <time>2020-02-22T15:03:34Z</time>
      </trkpt>
      <trkpt lat="39.0895320" lon="1.4633750">
        <ele>129.0</ele>
        <time>2020-02-22T15:03:35Z</time>
      </trkpt>
      <trkpt lat="39.0895400" lon="1.4633720">
        <ele>129.1</ele>
        <time>2020-02-22T15:03:36Z</time>
      </trkpt>
      <trkpt lat="39.0895540" lon="1.4633650">
        <ele>129.2</ele>
        <time>2020-02-22T15:03:37Z</time>
      </trkpt>
      <trkpt lat="39.0895720" lon="1.4633560">
        <ele>129.3</ele>
        <time>2020-02-22T15:03:38Z</time>
      </trkpt>
      <trkpt lat="39.0895960" lon="1.4633260">
        <ele>129.5</ele>
        <time>2020-02-22T15:03:39Z</time>
      </trkpt>
      <trkpt lat="39.0896030" lon="1.4633130">
        <ele>129.6</ele>
        <time>2020-02-22T15:03:40Z</time>
      </trkpt>
      <trkpt lat="39.0896200" lon="1.4632650">
        <ele>130.0</ele>
        <time>2020-02-22T15:03:41Z</time>
      </trkpt>
      <trkpt lat="39.0896250" lon="1.4632470">
        <ele>130.1</ele>
        <time>2020-02-22T15:03:42Z</time>
      </trkpt>
      <trkpt lat="39.0896300" lon="1.4632020">
        <ele>130.4</ele>
        <time>2020-02-22T15:03:43Z</time>
      </trkpt>
      <trkpt lat="39.0896310" lon="1.4631830">
        <ele>130.5</ele>
        <time>2020-02-22T15:03:44Z</time>
      </trkpt>
      <trkpt lat="39.0896330" lon="1.4631450">
        <ele>130.8</ele>
        <time>2020-02-22T15:03:45Z</time>
      </trkpt>
      <trkpt lat="39.0896420" lon="1.4631120">
        <ele>131.1</ele>
        <time>2020-02-22T15:03:46Z</time>
      </trkpt>
      <trkpt lat="39.0896470" lon="1.4630760">
        <ele>131.4</ele>
        <time>2020-02-22T15:03:47Z</time>
      </trkpt>
      <trkpt lat="39.0896590" lon="1.4630300">
        <ele>131.8</ele>
        <time>2020-02-22T15:03:48Z</time>
      </trkpt>
      <trkpt lat="39.0896640" lon="1.4630150">
        <ele>131.9</ele>
        <time>2020-02-22T15:03:49Z</time>
      </trkpt>
      <trkpt lat="39.0896900" lon="1.4630130">
        <ele>132.2</ele>
        <time>2020-02-22T15:03:50Z</time>
      </trkpt>
      <trkpt lat="39.0897010" lon="1.4630140">
        <ele>132.3</ele>
        <time>2020-02-22T15:03:51Z</time>
      </trkpt>
      <trkpt lat="39.0897330" lon="1.4629960">
        <ele>132.7</ele>
        <time>2020-02-22T15:03:52Z</time>
      </trkpt>
      <trkpt lat="39.0897450" lon="1.4629870">
        <ele>132.8</ele>
        <time>2020-02-22T15:03:53Z</time>
      </trkpt>
      <trkpt lat="39.0897610" lon="1.4629650">
        <ele>133.1</ele>
        <time>2020-02-22T15:03:54Z</time>
      </trkpt>
      <trkpt lat="39.0897670" lon="1.4629560">
        <ele>133.2</ele>
        <time>2020-02-22T15:03:55Z</time>
      </trkpt>
      <trkpt lat="39.0897740" lon="1.4629460">
        <ele>133.3</ele>
        <time>2020-02-22T15:03:56Z</time>
      </trkpt>
      <trkpt lat="39.0897910" lon="1.4629410">
        <ele>133.5</ele>
        <time>2020-02-22T15:03:57Z</time>
      </trkpt>
      <trkpt lat="39.0898010" lon="1.4629150">
        <ele>133.8</ele>
        <time>2020-02-22T15:03:58Z</time>
      </trkpt>
      <trkpt lat="39.0898140" lon="1.4628910">
        <ele>134.1</ele>
        <time>2020-02-22T15:03:59Z</time>
      </trkpt>
      <trkpt lat="39.0898210" lon="1.4628810">
        <ele>134.3</ele>
        <time>2020-02-22T15:04:00Z</time>
      </trkpt>
      <trkpt lat="39.0898270" lon="1.4628710">
        <ele>134.4</ele>
        <time>2020-02-22T15:04:01Z</time>
      </trkpt>
      <trkpt lat="39.0898330" lon="1.4628520">
        <ele>134.7</ele>
        <time>2020-02-22T15:04:02Z</time>
      </trkpt>
      <trkpt lat="39.0898270" lon="1.4628340">
        <ele>134.9</ele>
        <time>2020-02-22T15:04:03Z</time>
      </trkpt>
      <trkpt lat="39.0898180" lon="1.4627970">
        <ele>135.0</ele>
        <time>2020-02-22T15:04:04Z</time>
      </trkpt>
      <trkpt lat="39.0898100" lon="1.4627870">
        <ele>134.9</ele>
        <time>2020-02-22T15:04:05Z</time>
      </trkpt>
      <trkpt lat="39.0897990" lon="1.4627620">
        <ele>134.8</ele>
        <time>2020-02-22T15:04:06Z</time>
      </trkpt>
      <trkpt lat="39.0897930" lon="1.4627510">
        <ele>134.8</ele>
        <time>2020-02-22T15:04:07Z</time>
      </trkpt>
      <trkpt lat="39.0897880" lon="1.4627410">
        <ele>134.8</ele>
        <time>2020-02-22T15:04:08Z</time>
      </trkpt>
      <trkpt lat="39.0897770" lon="1.4627290">
        <ele>134.7</ele>
        <time>2020-02-22T15:04:09Z</time>
      </trkpt>
      <trkpt lat="39.0897650" lon="1.4627170">
        <ele>134.6</ele>
        <time>2020-02-22T15:04:10Z</time>
      </trkpt>
      <trkpt lat="39.0897470" lon="1.4626970">
        <ele>134.6</ele>
        <time>2020-02-22T15:04:11Z</time>
      </trkpt>
      <trkpt lat="39.0897440" lon="1.4626840">
        <ele>134.6</ele>
        <time>2020-02-22T15:04:12Z</time>
      </trkpt>
      <trkpt lat="39.0897360" lon="1.4626700">
        <ele>134.5</ele>
        <time>2020-02-22T15:04:13Z</time>
      </trkpt>
      <trkpt lat="39.0897240" lon="1.4626510">
        <ele>134.5</ele>
        <time>2020-02-22T15:04:14Z</time>
      </trkpt>
      <trkpt lat="39.0897220" lon="1.4626040">
        <ele>134.4</ele>
        <time>2020-02-22T15:04:15Z</time>
      </trkpt>
      <trkpt lat="39.0897210" lon="1.4625890">
        <ele>134.4</ele>
        <time>2020-02-22T15:04:16Z</time>
      </trkpt>
      <trkpt lat="39.0897170" lon="1.4625540">
        <ele>134.3</ele>
        <time>2020-02-22T15:04:17Z</time>
      </trkpt>
      <trkpt lat="39.0897120" lon="1.4625420">
        <ele>134.3</ele>
        <time>2020-02-22T15:04:18Z</time>
      </trkpt>
      <trkpt lat="39.0897000" lon="1.4625210">
        <ele>134.3</ele>
        <time>2020-02-22T15:04:19Z</time>
      </trkpt>
      <trkpt lat="39.0896970" lon="1.4625080">
        <ele>134.2</ele>
        <time>2020-02-22T15:04:20Z</time>
      </trkpt>
      <trkpt lat="39.0897040" lon="1.4624940">
        <ele>134.2</ele>
        <time>2020-02-22T15:04:21Z</time>
      </trkpt>
      <trkpt lat="39.0897100" lon="1.4624740">
        <ele>134.2</ele>
        <time>2020-02-22T15:04:22Z</time>
      </trkpt>
      <trkpt lat="39.0897190" lon="1.4624340">
        <ele>134.1</ele>
        <time>2020-02-22T15:04:23Z</time>
      </trkpt>
      <trkpt lat="39.0897230" lon="1.4624240">
        <ele>134.1</ele>
        <time>2020-02-22T15:04:24Z</time>
      </trkpt>
      <trkpt lat="39.0897390" lon="1.4623940">
        <ele>134.0</ele>
        <time>2020-02-22T15:04:25Z</time>
      </trkpt>
      <trkpt lat="39.0897440" lon="1.4623830">
        <ele>134.0</ele>
        <time>2020-02-22T15:04:26Z</time>
      </trkpt>
      <trkpt lat="39.0897520" lon="1.4623590">
        <ele>133.9</ele>
        <time>2020-02-22T15:04:27Z</time>
      </trkpt>
      <trkpt lat="39.0897620" lon="1.4623410">
        <ele>133.9</ele>
        <time>2020-02-22T15:04:28Z</time>
      </trkpt>
      <trkpt lat="39.0897650" lon="1.4623160">
        <ele>133.9</ele>
        <time>2020-02-22T15:04:29Z</time>
      </trkpt>
      <trkpt lat="39.0897740" lon="1.4623020">
        <ele>133.8</ele>
        <time>2020-02-22T15:04:30Z</time>
      </trkpt>
      <trkpt lat="39.0897890" lon="1.4622880">
        <ele>133.7</ele>
        <time>2020-02-22T15:04:31Z</time>
      </trkpt>
      <trkpt lat="39.0898010" lon="1.4622720">
        <ele>133.7</ele>
        <time>2020-02-22T15:04:32Z</time>
      </trkpt>
      <trkpt lat="39.0898210" lon="1.4622630">
        <ele>133.6</ele>
        <time>2020-02-22T15:04:33Z</time>
      </trkpt>
      <trkpt lat="39.0898280" lon="1.4622520">
        <ele>133.6</ele>
        <time>2020-02-22T15:04:34Z</time>
      </trkpt>
      <trkpt lat="39.0898510" lon="1.4622200">
        <ele>133.4</ele>
        <time>2020-02-22T15:04:35Z</time>
      </trkpt>
      <trkpt lat="39.0898640" lon="1.4622100">
        <ele>133.4</ele>
        <time>2020-02-22T15:04:36Z</time>
      </trkpt>
      <trkpt lat="39.0898790" lon="1.4621910">
        <ele>133.3</ele>
        <time>2020-02-22T15:04:37Z</time>
      </trkpt>
      <trkpt lat="39.0898860" lon="1.4621820">
        <ele>133.3</ele>
        <time>2020-02-22T15:04:38Z</time>
      </trkpt>
      <trkpt lat="39.0898940" lon="1.4621720">
        <ele>133.2</ele>
        <time>2020-02-22T15:04:39Z</time>
      </trkpt>
      <trkpt lat="39.0899090" lon="1.4621570">
        <ele>133.2</ele>
        <time>2020-02-22T15:04:40Z</time>
      </trkpt>
      <trkpt lat="39.0899190" lon="1.4621420">
        <ele>133.1</ele>
        <time>2020-02-22T15:04:41Z</time>
      </trkpt>
      <trkpt lat="39.0899330" lon="1.4621350">
        <ele>133.1</ele>
        <time>2020-02-22T15:04:42Z</time>
      </trkpt>
      <trkpt lat="39.0899540" lon="1.4621360">
        <ele>133.0</ele>
        <time>2020-02-22T15:04:43Z</time>
      </trkpt>
      <trkpt lat="39.0899820" lon="1.4621300">
        <ele>132.9</ele>
        <time>2020-02-22T15:04:44Z</time>
      </trkpt>
      <trkpt lat="39.0899930" lon="1.4621260">
        <ele>132.9</ele>
        <time>2020-02-22T15:04:45Z</time>
      </trkpt>
      <trkpt lat="39.0900190" lon="1.4621060">
        <ele>132.8</ele>
        <time>2020-02-22T15:04:46Z</time>
      </trkpt>
      <trkpt lat="39.0900260" lon="1.4620990">
        <ele>132.8</ele>
        <time>2020-02-22T15:04:47Z</time>
      </trkpt>
      <trkpt lat="39.0900390" lon="1.4620850">
        <ele>132.7</ele>
        <time>2020-02-22T15:04:48Z</time>
      </trkpt>
      <trkpt lat="39.0900480" lon="1.4620750">
        <ele>132.7</ele>
        <time>2020-02-22T15:04:49Z</time>
      </trkpt>
      <trkpt lat="39.0900650" lon="1.4620630">
        <ele>132.6</ele>
        <time>2020-02-22T15:04:50Z</time>
      </trkpt>
      <trkpt lat="39.0900740" lon="1.4620470">
        <ele>132.6</ele>
        <time>2020-02-22T15:04:51Z</time>
      </trkpt>
      <trkpt lat="39.0900900" lon="1.4620220">
        <ele>132.5</ele>
        <time>2020-02-22T15:04:52Z</time>
      </trkpt>
      <trkpt lat="39.0900970" lon="1.4620130">
        <ele>132.5</ele>
        <time>2020-02-22T15:04:53Z</time>
      </trkpt>
      <trkpt lat="39.0901240" lon="1.4619970">
        <ele>132.3</ele>
        <time>2020-02-22T15:04:54Z</time>
      </trkpt>
      <trkpt lat="39.0901350" lon="1.4619950">
        <ele>132.3</ele>
        <time>2020-02-22T15:04:55Z</time>
      </trkpt>
      <trkpt lat="39.0901490" lon="1.4619890">
        <ele>132.2</ele>
        <time>2020-02-22T15:04:56Z</time>
      </trkpt>
      <trkpt lat="39.0901660" lon="1.4619890">
        <ele>132.1</ele>
        <time>2020-02-22T15:04:57Z</time>
      </trkpt>
      <trkpt lat="39.0901770" lon="1.4619850">
        <ele>132.1</ele>
        <time>2020-02-22T15:04:58Z</time>
      </trkpt>
      <trkpt lat="39.0901910" lon="1.4619750">
        <ele>132.1</ele>
        <time>2020-02-22T15:04:59Z</time>
      </trkpt>
      <trkpt lat="39.0902020" lon="1.4619670">
        <ele>132.0</ele>
        <time>2020-02-22T15:05:00Z</time>
      </trkpt>
      <trkpt lat="39.0902190" lon="1.4619560">
        <ele>132.0</ele>
        <time>2020-02-22T15:05:01Z</time>
      </trkpt>
      <trkpt lat="39.0902460" lon="1.4619330">
        <ele>131.9</ele>
        <time>2020-02-22T15:05:02Z</time>
      </trkpt>
      <trkpt lat="39.0902570" lon="1.4619260">
        <ele>131.9</ele>
        <time>2020-02-22T15:05:03Z</time>
      </trkpt>
      <trkpt lat="39.0902880" lon="1.4619140">
        <ele>131.8</ele>
        <time>2020-02-22T15:05:04Z</time>
      </trkpt>
      <trkpt lat="39.0902980" lon="1.4619090">
        <ele>131.8</ele>
        <time>2020-02-22T15:05:05Z</time>
      </trkpt>
      <trkpt lat="39.0903270" lon="1.4618930">
        <ele>131.7</ele>
        <time>2020-02-22T15:05:06Z</time>
      </trkpt>
      <trkpt lat="39.0903370" lon="1.4618880">
        <ele>131.7</ele>
        <time>2020-02-22T15:05:07Z</time>
      </trkpt>
      <trkpt lat="39.0903540" lon="1.4618810">
        <ele>131.6</ele>
        <time>2020-02-22T15:05:08Z</time>
      </trkpt>
      <trkpt lat="39.0903660" lon="1.4618780">
        <ele>131.6</ele>
        <time>2020-02-22T15:05:09Z</time>
      </trkpt>
      <trkpt lat="39.0903910" lon="1.4618600">
        <ele>131.5</ele>
        <time>2020-02-22T15:05:10Z</time>
      </trkpt>
      <trkpt lat="39.0904140" lon="1.4618270">
        <ele>131.5</ele>
        <time>2020-02-22T15:05:11Z</time>
      </trkpt>
      <trkpt lat="39.0904190" lon="1.4618200">
        <ele>131.4</ele>
        <time>2020-02-22T15:05:12Z</time>
      </trkpt>
      <trkpt lat="39.0904380" lon="1.4617900">
        <ele>131.4</ele>
        <time>2020-02-22T15:05:13Z</time>
      </trkpt>
      <trkpt lat="39.0904440" lon="1.4617790">
        <ele>131.4</ele>
        <time>2020-02-22T15:05:14Z</time>
      </trkpt>
      <trkpt lat="39.0904620" lon="1.4617520">
        <ele>131.3</ele>
        <time>2020-02-22T15:05:15Z</time>
      </trkpt>
      <trkpt lat="39.0904670" lon="1.4617430">
        <ele>131.3</ele>
        <time>2020-02-22T15:05:16Z</time>
      </trkpt>
      <trkpt lat="39.0904920" lon="1.4617140">
        <ele>131.2</ele>
        <time>2020-02-22T15:05:17Z</time>
      </trkpt>
      <trkpt lat="39.0905050" lon="1.4617020">
        <ele>131.2</ele>
        <time>2020-02-22T15:05:18Z</time>
      </trkpt>
      <trkpt lat="39.0905280" lon="1.4616790">
        <ele>131.1</ele>
        <time>2020-02-22T15:05:19Z</time>
      </trkpt>
      <trkpt lat="39.0905380" lon="1.4616720">
        <ele>131.1</ele>
        <time>2020-02-22T15:05:20Z</time>
      </trkpt>
      <trkpt lat="39.0905500" lon="1.4616600">
        <ele>131.1</ele>
        <time>2020-02-22T15:05:21Z</time>
      </trkpt>
      <trkpt lat="39.0905640" lon="1.4616460">
        <ele>131.0</ele>
        <time>2020-02-22T15:05:22Z</time>
      </trkpt>
      <trkpt lat="39.0905780" lon="1.4616330">
        <ele>131.0</ele>
        <time>2020-02-22T15:05:23Z</time>
      </trkpt>
      <trkpt lat="39.0905960" lon="1.4616240">
        <ele>131.0</ele>
        <time>2020-02-22T15:05:24Z</time>
      </trkpt>
      <trkpt lat="39.0906170" lon="1.4616180">
        <ele>130.9</ele>
        <time>2020-02-22T15:05:25Z</time>
      </trkpt>
      <trkpt lat="39.0906300" lon="1.4616180">
        <ele>130.8</ele>
        <time>2020-02-22T15:05:26Z</time>
      </trkpt>
      <trkpt lat="39.0906630" lon="1.4616080">
        <ele>130.7</ele>
        <time>2020-02-22T15:05:27Z</time>
      </trkpt>
      <trkpt lat="39.0906740" lon="1.4616060">
        <ele>130.7</ele>
        <time>2020-02-22T15:05:28Z</time>
      </trkpt>
      <trkpt lat="39.0907060" lon="1.4615990">
        <ele>130.6</ele>
        <time>2020-02-22T15:05:29Z</time>
      </trkpt>
      <trkpt lat="39.0907170" lon="1.4615980">
        <ele>130.6</ele>
        <time>2020-02-22T15:05:30Z</time>
      </trkpt>
      <trkpt lat="39.0907510" lon="1.4615920">
        <ele>130.5</ele>
        <time>2020-02-22T15:05:31Z</time>
      </trkpt>
      <trkpt lat="39.0907610" lon="1.4615920">
        <ele>130.5</ele>
        <time>2020-02-22T15:05:32Z</time>
      </trkpt>
      <trkpt lat="39.0907760" lon="1.4615880">
        <ele>130.5</ele>
        <time>2020-02-22T15:05:33Z</time>
      </trkpt>
      <trkpt lat="39.0907940" lon="1.4615790">
        <ele>130.4</ele>
        <time>2020-02-22T15:05:34Z</time>
      </trkpt>
      <trkpt lat="39.0908220" lon="1.4615730">
        <ele>130.4</ele>
        <time>2020-02-22T15:05:35Z</time>
      </trkpt>
      <trkpt lat="39.0908520" lon="1.4615670">
        <ele>130.3</ele>
        <time>2020-02-22T15:05:36Z</time>
      </trkpt>
      <trkpt lat="39.0908800" lon="1.4615690">
        <ele>130.3</ele>
        <time>2020-02-22T15:05:37Z</time>
      </trkpt>
      <trkpt lat="39.0909150" lon="1.4615610">
        <ele>130.2</ele>
        <time>2020-02-22T15:05:38Z</time>
      </trkpt>
      <trkpt lat="39.0909270" lon="1.4615570">
        <ele>130.2</ele>
        <time>2020-02-22T15:05:39Z</time>
      </trkpt>
      <trkpt lat="39.0909630" lon="1.4615410">
        <ele>130.1</ele>
        <time>2020-02-22T15:05:40Z</time>
      </trkpt>
      <trkpt lat="39.0909760" lon="1.4615330">
        <ele>130.1</ele>
        <time>2020-02-22T15:05:41Z</time>
      </trkpt>
      <trkpt lat="39.0910040" lon="1.4615140">
        <ele>130.1</ele>
        <time>2020-02-22T15:05:42Z</time>
      </trkpt>
      <trkpt lat="39.0910140" lon="1.4615080">
        <ele>130.1</ele>
        <time>2020-02-22T15:05:43Z</time>
      </trkpt>
      <trkpt lat="39.0910410" lon="1.4614970">
        <ele>130.0</ele>
        <time>2020-02-22T15:05:44Z</time>
      </trkpt>
      <trkpt lat="39.0910740" lon="1.4614780">
        <ele>129.9</ele>
        <time>2020-02-22T15:05:45Z</time>
      </trkpt>
      <trkpt lat="39.0910840" lon="1.4614710">
        <ele>129.9</ele>
        <time>2020-02-22T15:05:46Z</time>
      </trkpt>
      <trkpt lat="39.0911190" lon="1.4614490">
        <ele>129.9</ele>
        <time>2020-02-22T15:05:47Z</time>
      </trkpt>
      <trkpt lat="39.0911310" lon="1.4614450">
        <ele>129.8</ele>
        <time>2020-02-22T15:05:48Z</time>
      </trkpt>
      <trkpt lat="39.0911700" lon="1.4614350">
        <ele>129.7</ele>
        <time>2020-02-22T15:05:49Z</time>
      </trkpt>
      <trkpt lat="39.0912060" lon="1.4614300">
        <ele>129.6</ele>
        <time>2020-02-22T15:05:50Z</time>
      </trkpt>
      <trkpt lat="39.0912380" lon="1.4614280">
        <ele>129.5</ele>
        <time>2020-02-22T15:05:51Z</time>
      </trkpt>
      <trkpt lat="39.0912720" lon="1.4614170">
        <ele>129.4</ele>
        <time>2020-02-22T15:05:52Z</time>
      </trkpt>
      <trkpt lat="39.0913020" lon="1.4614070">
        <ele>129.3</ele>
        <time>2020-02-22T15:05:53Z</time>
      </trkpt>
      <trkpt lat="39.0913380" lon="1.4614020">
        <ele>129.2</ele>
        <time>2020-02-22T15:05:54Z</time>
      </trkpt>
      <trkpt lat="39.0913490" lon="1.4613980">
        <ele>129.2</ele>
        <time>2020-02-22T15:05:55Z</time>
      </trkpt>
      <trkpt lat="39.0913790" lon="1.4613980">
        <ele>129.1</ele>
        <time>2020-02-22T15:05:56Z</time>
      </trkpt>
      <trkpt lat="39.0914090" lon="1.4613890">
        <ele>129.0</ele>
        <time>2020-02-22T15:05:57Z</time>
      </trkpt>
      <trkpt lat="39.0914440" lon="1.4613870">
        <ele>128.9</ele>
        <time>2020-02-22T15:05:58Z</time>
      </trkpt>
      <trkpt lat="39.0914810" lon="1.4613960">
        <ele>128.8</ele>
        <time>2020-02-22T15:05:59Z</time>
      </trkpt>
      <trkpt lat="39.0915130" lon="1.4614120">
        <ele>128.7</ele>
        <time>2020-02-22T15:06:00Z</time>
      </trkpt>
      <trkpt lat="39.0915400" lon="1.4614390">
        <ele>128.5</ele>
        <time>2020-02-22T15:06:01Z</time>
      </trkpt>
      <trkpt lat="39.0915620" lon="1.4614700">
        <ele>128.4</ele>
        <time>2020-02-22T15:06:02Z</time>
      </trkpt>
      <trkpt lat="39.0915890" lon="1.4614970">
        <ele>128.1</ele>
        <time>2020-02-22T15:06:03Z</time>
      </trkpt>
      <trkpt lat="39.0915960" lon="1.4615020">
        <ele>128.1</ele>
        <time>2020-02-22T15:06:04Z</time>
      </trkpt>
      <trkpt lat="39.0916250" lon="1.4615270">
        <ele>127.8</ele>
        <time>2020-02-22T15:06:05Z</time>
      </trkpt>
      <trkpt lat="39.0916360" lon="1.4615290">
        <ele>127.7</ele>
        <time>2020-02-22T15:06:06Z</time>
      </trkpt>
      <trkpt lat="39.0916780" lon="1.4615250">
        <ele>127.4</ele>
        <time>2020-02-22T15:06:07Z</time>
      </trkpt>
      <trkpt lat="39.0916950" lon="1.4615180">
        <ele>127.3</ele>
        <time>2020-02-22T15:06:08Z</time>
      </trkpt>
      <trkpt lat="39.0917260" lon="1.4615130">
        <ele>127.1</ele>
        <time>2020-02-22T15:06:09Z</time>
      </trkpt>
      <trkpt lat="39.0917590" lon="1.4615170">
        <ele>126.9</ele>
        <time>2020-02-22T15:06:10Z</time>
      </trkpt>
      <trkpt lat="39.0917720" lon="1.4615150">
        <ele>126.8</ele>
        <time>2020-02-22T15:06:11Z</time>
      </trkpt>
      <trkpt lat="39.0918000" lon="1.4615060">
        <ele>126.7</ele>
        <time>2020-02-22T15:06:12Z</time>
      </trkpt>
      <trkpt lat="39.0918330" lon="1.4614960">
        <ele>126.5</ele>
        <time>2020-02-22T15:06:13Z</time>
      </trkpt>
      <trkpt lat="39.0918680" lon="1.4614850">
        <ele>126.2</ele>
        <time>2020-02-22T15:06:14Z</time>
      </trkpt>
      <trkpt lat="39.0919020" lon="1.4614810">
        <ele>125.9</ele>
        <time>2020-02-22T15:06:15Z</time>
      </trkpt>
      <trkpt lat="39.0919370" lon="1.4614690">
        <ele>125.5</ele>
        <time>2020-02-22T15:06:16Z</time>
      </trkpt>
      <trkpt lat="39.0919490" lon="1.4614660">
        <ele>125.4</ele>
        <time>2020-02-22T15:06:17Z</time>
      </trkpt>
      <trkpt lat="39.0919860" lon="1.4614590">
        <ele>125.1</ele>
        <time>2020-02-22T15:06:18Z</time>
      </trkpt>
      <trkpt lat="39.0920000" lon="1.4614560">
        <ele>124.9</ele>
        <time>2020-02-22T15:06:19Z</time>
      </trkpt>
      <trkpt lat="39.0920130" lon="1.4614570">
        <ele>124.8</ele>
        <time>2020-02-22T15:06:20Z</time>
      </trkpt>
      <trkpt lat="39.0920240" lon="1.4614440">
        <ele>124.7</ele>
        <time>2020-02-22T15:06:21Z</time>
      </trkpt>
      <trkpt lat="39.0920260" lon="1.4614350">
        <ele>124.6</ele>
        <time>2020-02-22T15:06:22Z</time>
      </trkpt>
      <trkpt lat="39.0920270" lon="1.4614340">
        <ele>124.6</ele>
        <time>2020-02-22T15:06:23Z</time>
      </trkpt>
      <trkpt lat="39.0920290" lon="1.4614390">
        <ele>124.6</ele>
        <time>2020-02-22T15:06:24Z</time>
      </trkpt>
      <trkpt lat="39.0920280" lon="1.4614340">
        <ele>124.6</ele>
        <time>2020-02-22T15:06:25Z</time>
      </trkpt>
      <trkpt lat="39.0920240" lon="1.4614260">
        <ele>124.5</ele>
        <time>2020-02-22T15:06:26Z</time>
      </trkpt>
      <trkpt lat="39.0920220" lon="1.4614230">
        <ele>124.5</ele>
        <time>2020-02-22T15:06:27Z</time>
      </trkpt>
      <trkpt lat="39.0920230" lon="1.4614230">
        <ele>124.5</ele>
        <time>2020-02-22T15:06:28Z</time>
      </trkpt>
      <trkpt lat="39.0920230" lon="1.4614240">
        <ele>124.5</ele>
        <time>2020-02-22T15:06:29Z</time>
      </trkpt>
      <trkpt lat="39.0920230" lon="1.4614240">
        <ele>124.5</ele>
        <time>2020-02-22T15:06:30Z</time>
      </trkpt>
      <trkpt lat="39.0920220" lon="1.4614250">
        <ele>124.5</ele>
        <time>2020-02-22T15:06:31Z</time>
      </trkpt>
      <trkpt lat="39.0921110" lon="1.4614600">
        <ele>123.9</ele>
        <time>2020-02-22T15:07:43Z</time>
      </trkpt>
      <trkpt lat="39.0921370" lon="1.4614690">
        <ele>123.7</ele>
        <time>2020-02-22T15:07:44Z</time>
      </trkpt>
      <trkpt lat="39.0921700" lon="1.4614850">
        <ele>123.5</ele>
        <time>2020-02-22T15:07:45Z</time>
      </trkpt>
      <trkpt lat="39.0922050" lon="1.4614930">
        <ele>123.3</ele>
        <time>2020-02-22T15:07:46Z</time>
      </trkpt>
      <trkpt lat="39.0922370" lon="1.4615050">
        <ele>123.1</ele>
        <time>2020-02-22T15:07:47Z</time>
      </trkpt>
      <trkpt lat="39.0922660" lon="1.4615160">
        <ele>123.0</ele>
        <time>2020-02-22T15:07:48Z</time>
      </trkpt>
      <trkpt lat="39.0923050" lon="1.4615180">
        <ele>122.8</ele>
        <time>2020-02-22T15:07:49Z</time>
      </trkpt>
      <trkpt lat="39.0923180" lon="1.4615170">
        <ele>122.7</ele>
        <time>2020-02-22T15:07:50Z</time>
      </trkpt>
      <trkpt lat="39.0923380" lon="1.4615260">
        <ele>122.6</ele>
        <time>2020-02-22T15:07:51Z</time>
      </trkpt>
      <trkpt lat="39.0923520" lon="1.4615290">
        <ele>122.6</ele>
        <time>2020-02-22T15:07:52Z</time>
      </trkpt>
      <trkpt lat="39.0923380" lon="1.4615660">
        <ele>122.4</ele>
        <time>2020-02-22T15:07:53Z</time>
      </trkpt>
      <trkpt lat="39.0923240" lon="1.4615770">
        <ele>122.4</ele>
        <time>2020-02-22T15:07:54Z</time>
      </trkpt>
      <trkpt lat="39.0922810" lon="1.4615780">
        <ele>122.2</ele>
        <time>2020-02-22T15:07:55Z</time>
      </trkpt>
      <trkpt lat="39.0922530" lon="1.4615880">
        <ele>122.1</ele>
        <time>2020-02-22T15:07:56Z</time>
      </trkpt>
      <trkpt lat="39.0922200" lon="1.4616080">
        <ele>122.0</ele>
        <time>2020-02-22T15:07:57Z</time>
      </trkpt>
      <trkpt lat="39.0921900" lon="1.4616240">
        <ele>121.9</ele>
        <time>2020-02-22T15:07:58Z</time>
      </trkpt>
      <trkpt lat="39.0921650" lon="1.4616520">
        <ele>121.8</ele>
        <time>2020-02-22T15:07:59Z</time>
      </trkpt>
      <trkpt lat="39.0921320" lon="1.4616700">
        <ele>121.7</ele>
        <time>2020-02-22T15:08:00Z</time>
      </trkpt>
      <trkpt lat="39.0920960" lon="1.4616810">
        <ele>121.6</ele>
        <time>2020-02-22T15:08:01Z</time>
      </trkpt>
      <trkpt lat="39.0920610" lon="1.4617060">
        <ele>121.5</ele>
        <time>2020-02-22T15:08:02Z</time>
      </trkpt>
      <trkpt lat="39.0920370" lon="1.4617230">
        <ele>121.5</ele>
        <time>2020-02-22T15:08:03Z</time>
      </trkpt>
      <trkpt lat="39.0920130" lon="1.4617420">
        <ele>121.4</ele>
        <time>2020-02-22T15:08:04Z</time>
      </trkpt>
      <trkpt lat="39.0919790" lon="1.4617650">
        <ele>121.3</ele>
        <time>2020-02-22T15:08:05Z</time>
      </trkpt>
      <trkpt lat="39.0919670" lon="1.4617700">
        <ele>121.2</ele>
        <time>2020-02-22T15:08:06Z</time>
      </trkpt>
      <trkpt lat="39.0919270" lon="1.4617930">
        <ele>121.1</ele>
        <time>2020-02-22T15:08:07Z</time>
      </trkpt>
      <trkpt lat="39.0918970" lon="1.4618260">
        <ele>121.0</ele>
        <time>2020-02-22T15:08:08Z</time>
      </trkpt>
      <trkpt lat="39.0918670" lon="1.4618790">
        <ele>120.9</ele>
        <time>2020-02-22T15:08:09Z</time>
      </trkpt>
      <trkpt lat="39.0918560" lon="1.4619290">
        <ele>120.8</ele>
        <time>2020-02-22T15:08:10Z</time>
      </trkpt>
      <trkpt lat="39.0918560" lon="1.4619750">
        <ele>120.7</ele>
        <time>2020-02-22T15:08:11Z</time>
      </trkpt>
      <trkpt lat="39.0918610" lon="1.4620150">
        <ele>120.6</ele>
        <time>2020-02-22T15:08:12Z</time>
      </trkpt>
      <trkpt lat="39.0918530" lon="1.4620580">
        <ele>120.6</ele>
        <time>2020-02-22T15:08:13Z</time>
      </trkpt>
      <trkpt lat="39.0918450" lon="1.4621010">
        <ele>120.5</ele>
        <time>2020-02-22T15:08:14Z</time>
      </trkpt>
      <trkpt lat="39.0918310" lon="1.4621360">
        <ele>120.4</ele>
        <time>2020-02-22T15:08:15Z</time>
      </trkpt>
      <trkpt lat="39.0918180" lon="1.4621730">
        <ele>120.3</ele>
        <time>2020-02-22T15:08:16Z</time>
      </trkpt>
      <trkpt lat="39.0918090" lon="1.4622150">
        <ele>120.2</ele>
        <time>2020-02-22T15:08:17Z</time>
      </trkpt>
      <trkpt lat="39.0917880" lon="1.4622600">
        <ele>120.1</ele>
        <time>2020-02-22T15:08:18Z</time>
      </trkpt>
      <trkpt lat="39.0917780" lon="1.4622810">
        <ele>120.0</ele>
        <time>2020-02-22T15:08:19Z</time>
      </trkpt>
      <trkpt lat="39.0917570" lon="1.4623130">
        <ele>119.9</ele>
        <time>2020-02-22T15:08:20Z</time>
      </trkpt>
      <trkpt lat="39.0917340" lon="1.4623560">
        <ele>119.7</ele>
        <time>2020-02-22T15:08:21Z</time>
      </trkpt>
      <trkpt lat="39.0917270" lon="1.4623720">
        <ele>119.7</ele>
        <time>2020-02-22T15:08:22Z</time>
      </trkpt>
      <trkpt lat="39.0917100" lon="1.4624090">
        <ele>119.6</ele>
        <time>2020-02-22T15:08:23Z</time>
      </trkpt>
      <trkpt lat="39.0916990" lon="1.4624470">
        <ele>119.4</ele>
        <time>2020-02-22T15:08:24Z</time>
      </trkpt>
      <trkpt lat="39.0916890" lon="1.4624650">
        <ele>119.4</ele>
        <time>2020-02-22T15:08:25Z</time>
      </trkpt>
      <trkpt lat="39.0916850" lon="1.4625170">
        <ele>119.2</ele>
        <time>2020-02-22T15:08:26Z</time>
      </trkpt>
      <trkpt lat="39.0916870" lon="1.4625410">
        <ele>119.1</ele>
        <time>2020-02-22T15:08:27Z</time>
      </trkpt>
      <trkpt lat="39.0917200" lon="1.4625240">
        <ele>119.0</ele>
        <time>2020-02-22T15:08:28Z</time>
      </trkpt>
      <trkpt lat="39.0917330" lon="1.4625110">
        <ele>118.9</ele>
        <time>2020-02-22T15:08:29Z</time>
      </trkpt>
      <trkpt lat="39.0917540" lon="1.4624760">
        <ele>118.8</ele>
        <time>2020-02-22T15:08:30Z</time>
      </trkpt>
      <trkpt lat="39.0917660" lon="1.4624270">
        <ele>118.6</ele>
        <time>2020-02-22T15:08:31Z</time>
      </trkpt>
      <trkpt lat="39.0917980" lon="1.4624000">
        <ele>118.4</ele>
        <time>2020-02-22T15:08:32Z</time>
      </trkpt>
      <trkpt lat="39.0918230" lon="1.4623620">
        <ele>118.2</ele>
        <time>2020-02-22T15:08:33Z</time>
      </trkpt>
      <trkpt lat="39.0918450" lon="1.4623260">
        <ele>118.0</ele>
        <time>2020-02-22T15:08:34Z</time>
      </trkpt>
      <trkpt lat="39.0918510" lon="1.4623160">
        <ele>118.0</ele>
        <time>2020-02-22T15:08:35Z</time>
      </trkpt>
      <trkpt lat="39.0918670" lon="1.4622910">
        <ele>117.8</ele>
        <time>2020-02-22T15:08:36Z</time>
      </trkpt>
      <trkpt lat="39.0918920" lon="1.4622670">
        <ele>117.6</ele>
        <time>2020-02-22T15:08:38Z</time>
      </trkpt>
      <trkpt lat="39.0919180" lon="1.4622440">
        <ele>117.4</ele>
        <time>2020-02-22T15:08:39Z</time>
      </trkpt>
      <trkpt lat="39.0919400" lon="1.4622150">
        <ele>117.3</ele>
        <time>2020-02-22T15:08:40Z</time>
      </trkpt>
      <trkpt lat="39.0919630" lon="1.4621960">
        <ele>117.1</ele>
        <time>2020-02-22T15:08:41Z</time>
      </trkpt>
      <trkpt lat="39.0919920" lon="1.4621710">
        <ele>116.9</ele>
        <time>2020-02-22T15:08:42Z</time>
      </trkpt>
      <trkpt lat="39.0920000" lon="1.4621620">
        <ele>116.8</ele>
        <time>2020-02-22T15:08:43Z</time>
      </trkpt>
      <trkpt lat="39.0920170" lon="1.4621220">
        <ele>116.6</ele>
        <time>2020-02-22T15:08:44Z</time>
      </trkpt>
      <trkpt lat="39.0920340" lon="1.4620850">
        <ele>116.4</ele>
        <time>2020-02-22T15:08:45Z</time>
      </trkpt>
      <trkpt lat="39.0920420" lon="1.4620380">
        <ele>116.2</ele>
        <time>2020-02-22T15:08:46Z</time>
      </trkpt>
      <trkpt lat="39.0920470" lon="1.4620220">
        <ele>116.1</ele>
        <time>2020-02-22T15:08:47Z</time>
      </trkpt>
      <trkpt lat="39.0920700" lon="1.4619910">
        <ele>115.9</ele>
        <time>2020-02-22T15:08:48Z</time>
      </trkpt>
      <trkpt lat="39.0921020" lon="1.4619950">
        <ele>115.7</ele>
        <time>2020-02-22T15:08:49Z</time>
      </trkpt>
      <trkpt lat="39.0921100" lon="1.4620050">
        <ele>115.6</ele>
        <time>2020-02-22T15:08:50Z</time>
      </trkpt>
      <trkpt lat="39.0921140" lon="1.4620460">
        <ele>115.4</ele>
        <time>2020-02-22T15:08:51Z</time>
      </trkpt>
      <trkpt lat="39.0921130" lon="1.4620610">
        <ele>115.4</ele>
        <time>2020-02-22T15:08:52Z</time>
      </trkpt>
      <trkpt lat="39.0920950" lon="1.4621010">
        <ele>115.1</ele>
        <time>2020-02-22T15:08:53Z</time>
      </trkpt>
      <trkpt lat="39.0920840" lon="1.4621430">
        <ele>114.9</ele>
        <time>2020-02-22T15:08:54Z</time>
      </trkpt>
      <trkpt lat="39.0920750" lon="1.4621820">
        <ele>114.8</ele>
        <time>2020-02-22T15:08:55Z</time>
      </trkpt>
      <trkpt lat="39.0920720" lon="1.4621910">
        <ele>114.7</ele>
        <time>2020-02-22T15:08:56Z</time>
      </trkpt>
      <trkpt lat="39.0920540" lon="1.4622400">
        <ele>114.5</ele>
        <time>2020-02-22T15:08:57Z</time>
      </trkpt>
      <trkpt lat="39.0920450" lon="1.4622630">
        <ele>114.4</ele>
        <time>2020-02-22T15:08:58Z</time>
      </trkpt>
      <trkpt lat="39.0920350" lon="1.4622980">
        <ele>114.2</ele>
        <time>2020-02-22T15:08:59Z</time>
      </trkpt>
      <trkpt lat="39.0920030" lon="1.4623360">
        <ele>113.9</ele>
        <time>2020-02-22T15:09:00Z</time>
      </trkpt>
      <trkpt lat="39.0919900" lon="1.4623540">
        <ele>113.8</ele>
        <time>2020-02-22T15:09:01Z</time>
      </trkpt>
      <trkpt lat="39.0919660" lon="1.4623820">
        <ele>113.6</ele>
        <time>2020-02-22T15:09:02Z</time>
      </trkpt>
      <trkpt lat="39.0919440" lon="1.4624110">
        <ele>113.3</ele>
        <time>2020-02-22T15:09:03Z</time>
      </trkpt>
      <trkpt lat="39.0919260" lon="1.4624460">
        <ele>113.1</ele>
        <time>2020-02-22T15:09:04Z</time>
      </trkpt>
      <trkpt lat="39.0919030" lon="1.4624990">
        <ele>112.7</ele>
        <time>2020-02-22T15:09:05Z</time>
      </trkpt>
      <trkpt lat="39.0919220" lon="1.4625210">
        <ele>112.5</ele>
        <time>2020-02-22T15:09:06Z</time>
      </trkpt>
      <trkpt lat="39.0919330" lon="1.4625180">
        <ele>112.4</ele>
        <time>2020-02-22T15:09:07Z</time>
      </trkpt>
      <trkpt lat="39.0919450" lon="1.4625150">
        <ele>112.3</ele>
        <time>2020-02-22T15:09:08Z</time>
      </trkpt>
      <trkpt lat="39.0919770" lon="1.4625010">
        <ele>112.0</ele>
        <time>2020-02-22T15:09:09Z</time>
      </trkpt>
      <trkpt lat="39.0919870" lon="1.4624930">
        <ele>111.9</ele>
        <time>2020-02-22T15:09:10Z</time>
      </trkpt>
      <trkpt lat="39.0920160" lon="1.4624780">
        <ele>111.6</ele>
        <time>2020-02-22T15:09:11Z</time>
      </trkpt>
      <trkpt lat="39.0920480" lon="1.4624590">
        <ele>111.3</ele>
        <time>2020-02-22T15:09:12Z</time>
      </trkpt>
      <trkpt lat="39.0920850" lon="1.4624370">
        <ele>110.9</ele>
        <time>2020-02-22T15:09:13Z</time>
      </trkpt>
      <trkpt lat="39.0920960" lon="1.4624280">
        <ele>110.8</ele>
        <time>2020-02-22T15:09:14Z</time>
      </trkpt>
      <trkpt lat="39.0921260" lon="1.4624020">
        <ele>110.5</ele>
        <time>2020-02-22T15:09:15Z</time>
      </trkpt>
      <trkpt lat="39.0921350" lon="1.4623950">
        <ele>110.4</ele>
        <time>2020-02-22T15:09:16Z</time>
      </trkpt>
      <trkpt lat="39.0921550" lon="1.4623500">
        <ele>110.1</ele>
        <time>2020-02-22T15:09:17Z</time>
      </trkpt>
      <trkpt lat="39.0921610" lon="1.4623330">
        <ele>109.9</ele>
        <time>2020-02-22T15:09:18Z</time>
      </trkpt>
      <trkpt lat="39.0921730" lon="1.4622900">
        <ele>109.6</ele>
        <time>2020-02-22T15:09:19Z</time>
      </trkpt>
      <trkpt lat="39.0921900" lon="1.4622470">
        <ele>109.3</ele>
        <time>2020-02-22T15:09:20Z</time>
      </trkpt>
      <trkpt lat="39.0922020" lon="1.4622050">
        <ele>109.0</ele>
        <time>2020-02-22T15:09:21Z</time>
      </trkpt>
      <trkpt lat="39.0922260" lon="1.4621810">
        <ele>108.8</ele>
        <time>2020-02-22T15:09:22Z</time>
      </trkpt>
      <trkpt lat="39.0922680" lon="1.4621640">
        <ele>108.4</ele>
        <time>2020-02-22T15:09:23Z</time>
      </trkpt>
      <trkpt lat="39.0922980" lon="1.4621630">
        <ele>108.1</ele>
        <time>2020-02-22T15:09:24Z</time>
      </trkpt>
      <trkpt lat="39.0923370" lon="1.4621750">
        <ele>107.8</ele>
        <time>2020-02-22T15:09:25Z</time>
      </trkpt>
      <trkpt lat="39.0923510" lon="1.4621810">
        <ele>107.6</ele>
        <time>2020-02-22T15:09:26Z</time>
      </trkpt>
      <trkpt lat="39.0923860" lon="1.4621920">
        <ele>107.4</ele>
        <time>2020-02-22T15:09:27Z</time>
      </trkpt>
      <trkpt lat="39.0924160" lon="1.4622110">
        <ele>107.2</ele>
        <time>2020-02-22T15:09:28Z</time>
      </trkpt>
      <trkpt lat="39.0924450" lon="1.4622170">
        <ele>107.0</ele>
        <time>2020-02-22T15:09:29Z</time>
      </trkpt>
      <trkpt lat="39.0924720" lon="1.4622170">
        <ele>106.8</ele>
        <time>2020-02-22T15:09:30Z</time>
      </trkpt>
      <trkpt lat="39.0925120" lon="1.4622320">
        <ele>106.4</ele>
        <time>2020-02-22T15:09:31Z</time>
      </trkpt>
      <trkpt lat="39.0925250" lon="1.4622400">
        <ele>106.3</ele>
        <time>2020-02-22T15:09:32Z</time>
      </trkpt>
      <trkpt lat="39.0925510" lon="1.4622570">
        <ele>106.1</ele>
        <time>2020-02-22T15:09:33Z</time>
      </trkpt>
      <trkpt lat="39.0925940" lon="1.4622860">
        <ele>105.8</ele>
        <time>2020-02-22T15:09:34Z</time>
      </trkpt>
      <trkpt lat="39.0926150" lon="1.4622980">
        <ele>105.6</ele>
        <time>2020-02-22T15:09:35Z</time>
      </trkpt>
      <trkpt lat="39.0926470" lon="1.4623150">
        <ele>105.4</ele>
        <time>2020-02-22T15:09:36Z</time>
      </trkpt>
      <trkpt lat="39.0926810" lon="1.4623380">
        <ele>105.1</ele>
        <time>2020-02-22T15:09:37Z</time>
      </trkpt>
      <trkpt lat="39.0927160" lon="1.4623500">
        <ele>104.9</ele>
        <time>2020-02-22T15:09:38Z</time>
      </trkpt>
      <trkpt lat="39.0927280" lon="1.4623550">
        <ele>104.8</ele>
        <time>2020-02-22T15:09:39Z</time>
      </trkpt>
      <trkpt lat="39.0927670" lon="1.4623740">
        <ele>104.5</ele>
        <time>2020-02-22T15:09:40Z</time>
      </trkpt>
      <trkpt lat="39.0928030" lon="1.4623940">
        <ele>104.2</ele>
        <time>2020-02-22T15:09:41Z</time>
      </trkpt>
      <trkpt lat="39.0928430" lon="1.4623940">
        <ele>103.9</ele>
        <time>2020-02-22T15:09:42Z</time>
      </trkpt>
      <trkpt lat="39.0928600" lon="1.4624010">
        <ele>103.7</ele>
        <time>2020-02-22T15:09:43Z</time>
      </trkpt>
      <trkpt lat="39.0928990" lon="1.4624090">
        <ele>103.5</ele>
        <time>2020-02-22T15:09:44Z</time>
      </trkpt>
      <trkpt lat="39.0929360" lon="1.4624190">
        <ele>103.2</ele>
        <time>2020-02-22T15:09:45Z</time>
      </trkpt>
      <trkpt lat="39.0929480" lon="1.4624240">
        <ele>103.1</ele>
        <time>2020-02-22T15:09:46Z</time>
      </trkpt>
      <trkpt lat="39.0929790" lon="1.4624420">
        <ele>102.9</ele>
        <time>2020-02-22T15:09:47Z</time>
      </trkpt>
      <trkpt lat="39.0929880" lon="1.4624490">
        <ele>102.8</ele>
        <time>2020-02-22T15:09:48Z</time>
      </trkpt>
      <trkpt lat="39.0930130" lon="1.4624780">
        <ele>102.6</ele>
        <time>2020-02-22T15:09:49Z</time>
      </trkpt>
      <trkpt lat="39.0930270" lon="1.4625090">
        <ele>102.4</ele>
        <time>2020-02-22T15:09:50Z</time>
      </trkpt>
      <trkpt lat="39.0930050" lon="1.4625340">
        <ele>102.3</ele>
        <time>2020-02-22T15:09:51Z</time>
      </trkpt>
      <trkpt lat="39.0929970" lon="1.4625390">
        <ele>102.2</ele>
        <time>2020-02-22T15:09:52Z</time>
      </trkpt>
      <trkpt lat="39.0929780" lon="1.4625320">
        <ele>102.1</ele>
        <time>2020-02-22T15:09:53Z</time>
      </trkpt>
      <trkpt lat="39.0929600" lon="1.4625200">
        <ele>102.0</ele>
        <time>2020-02-22T15:09:54Z</time>
      </trkpt>
      <trkpt lat="39.0929430" lon="1.4625210">
        <ele>102.0</ele>
        <time>2020-02-22T15:09:55Z</time>
      </trkpt>
      <trkpt lat="39.0929330" lon="1.4625140">
        <ele>101.9</ele>
        <time>2020-02-22T15:09:56Z</time>
      </trkpt>
      <trkpt lat="39.0929020" lon="1.4625090">
        <ele>101.8</ele>
        <time>2020-02-22T15:09:57Z</time>
      </trkpt>
      <trkpt lat="39.0928880" lon="1.4625110">
        <ele>101.7</ele>
        <time>2020-02-22T15:09:58Z</time>
      </trkpt>
      <trkpt lat="39.0928540" lon="1.4624880">
        <ele>101.5</ele>
        <time>2020-02-22T15:09:59Z</time>
      </trkpt>
      <trkpt lat="39.0928290" lon="1.4625030">
        <ele>101.4</ele>
        <time>2020-02-22T15:10:00Z</time>
      </trkpt>
      <trkpt lat="39.0928000" lon="1.4625080">
        <ele>101.3</ele>
        <time>2020-02-22T15:10:01Z</time>
      </trkpt>
      <trkpt lat="39.0927600" lon="1.4625090">
        <ele>101.2</ele>
        <time>2020-02-22T15:10:02Z</time>
      </trkpt>
      <trkpt lat="39.0927460" lon="1.4625080">
        <ele>101.2</ele>
        <time>2020-02-22T15:10:03Z</time>
      </trkpt>
      <trkpt lat="39.0927100" lon="1.4625120">
        <ele>101.1</ele>
        <time>2020-02-22T15:10:04Z</time>
      </trkpt>
      <trkpt lat="39.0926990" lon="1.4625170">
        <ele>101.0</ele>
        <time>2020-02-22T15:10:05Z</time>
      </trkpt>
      <trkpt lat="39.0926570" lon="1.4625220">
        <ele>100.9</ele>
        <time>2020-02-22T15:10:06Z</time>
      </trkpt>
      <trkpt lat="39.0926400" lon="1.4625230">
        <ele>100.9</ele>
        <time>2020-02-22T15:10:07Z</time>
      </trkpt>
      <trkpt lat="39.0926030" lon="1.4625210">
        <ele>100.8</ele>
        <time>2020-02-22T15:10:08Z</time>
      </trkpt>
      <trkpt lat="39.0925650" lon="1.4625200">
        <ele>100.7</ele>
        <time>2020-02-22T15:10:09Z</time>
      </trkpt>
      <trkpt lat="39.0925270" lon="1.4625230">
        <ele>100.6</ele>
        <time>2020-02-22T15:10:10Z</time>
      </trkpt>
      <trkpt lat="39.0924910" lon="1.4625280">
        <ele>100.4</ele>
        <time>2020-02-22T15:10:11Z</time>
      </trkpt>
      <trkpt lat="39.0924620" lon="1.4625400">
        <ele>100.3</ele>
        <time>2020-02-22T15:10:12Z</time>
      </trkpt>
      <trkpt lat="39.0924540" lon="1.4625510">
        <ele>100.3</ele>
        <time>2020-02-22T15:10:13Z</time>
      </trkpt>
      <trkpt lat="39.0924510" lon="1.4626000">
        <ele>100.1</ele>
        <time>2020-02-22T15:10:14Z</time>
      </trkpt>
      <trkpt lat="39.0924510" lon="1.4626190">
        <ele>100.0</ele>
        <time>2020-02-22T15:10:15Z</time>
      </trkpt>
      <trkpt lat="39.0924520" lon="1.4626320">
        <ele>100.0</ele>
        <time>2020-02-22T15:10:16Z</time>
      </trkpt>
      <trkpt lat="39.0924570" lon="1.4626350">
        <ele>100.0</ele>
        <time>2020-02-22T15:10:17Z</time>
      </trkpt>
      <trkpt lat="39.0924670" lon="1.4626330">
        <ele>99.9</ele>
        <time>2020-02-22T15:10:18Z</time>
      </trkpt>
      <trkpt lat="39.0924790" lon="1.4626470">
        <ele>99.8</ele>
        <time>2020-02-22T15:10:19Z</time>
      </trkpt>
      <trkpt lat="39.0925100" lon="1.4626650">
        <ele>99.6</ele>
        <time>2020-02-22T15:10:20Z</time>
      </trkpt>
      <trkpt lat="39.0925210" lon="1.4626730">
        <ele>99.5</ele>
        <time>2020-02-22T15:10:21Z</time>
      </trkpt>
      <trkpt lat="39.0925600" lon="1.4626910">
        <ele>99.3</ele>
        <time>2020-02-22T15:10:22Z</time>
      </trkpt>
      <trkpt lat="39.0925920" lon="1.4626950">
        <ele>99.0</ele>
        <time>2020-02-22T15:10:23Z</time>
      </trkpt>
      <trkpt lat="39.0926260" lon="1.4627030">
        <ele>98.8</ele>
        <time>2020-02-22T15:10:24Z</time>
      </trkpt>
      <trkpt lat="39.0926630" lon="1.4627050">
        <ele>98.6</ele>
        <time>2020-02-22T15:10:25Z</time>
      </trkpt>
      <trkpt lat="39.0927020" lon="1.4627140">
        <ele>98.3</ele>
        <time>2020-02-22T15:10:26Z</time>
      </trkpt>
      <trkpt lat="39.0927400" lon="1.4627000">
        <ele>98.0</ele>
        <time>2020-02-22T15:10:27Z</time>
      </trkpt>
      <trkpt lat="39.0927770" lon="1.4627110">
        <ele>97.7</ele>
        <time>2020-02-22T15:10:28Z</time>
      </trkpt>
      <trkpt lat="39.0928100" lon="1.4627350">
        <ele>97.3</ele>
        <time>2020-02-22T15:10:29Z</time>
      </trkpt>
      <trkpt lat="39.0928200" lon="1.4627450">
        <ele>97.2</ele>
        <time>2020-02-22T15:10:30Z</time>
      </trkpt>
      <trkpt lat="39.0928440" lon="1.4627580">
        <ele>97.0</ele>
        <time>2020-02-22T15:10:31Z</time>
      </trkpt>
      <trkpt lat="39.0928560" lon="1.4627640">
        <ele>96.9</ele>
        <time>2020-02-22T15:10:32Z</time>
      </trkpt>
      <trkpt lat="39.0928850" lon="1.4627840">
        <ele>96.6</ele>
        <time>2020-02-22T15:10:33Z</time>
      </trkpt>
      <trkpt lat="39.0929150" lon="1.4628030">
        <ele>96.3</ele>
        <time>2020-02-22T15:10:34Z</time>
      </trkpt>
      <trkpt lat="39.0929390" lon="1.4628110">
        <ele>96.1</ele>
        <time>2020-02-22T15:10:35Z</time>
      </trkpt>
      <trkpt lat="39.0929460" lon="1.4628150">
        <ele>96.1</ele>
        <time>2020-02-22T15:10:36Z</time>
      </trkpt>
      <trkpt lat="39.0929540" lon="1.4628190">
        <ele>96.0</ele>
        <time>2020-02-22T15:10:37Z</time>
      </trkpt>
      <trkpt lat="39.0929610" lon="1.4628240">
        <ele>95.9</ele>
        <time>2020-02-22T15:10:38Z</time>
      </trkpt>
      <trkpt lat="39.0929690" lon="1.4628280">
        <ele>95.8</ele>
        <time>2020-02-22T15:10:39Z</time>
      </trkpt>
      <trkpt lat="39.0929770" lon="1.4628320">
        <ele>95.7</ele>
        <time>2020-02-22T15:10:40Z</time>
      </trkpt>
      <trkpt lat="39.0929840" lon="1.4628360">
        <ele>95.7</ele>
        <time>2020-02-22T15:10:41Z</time>
      </trkpt>
      <trkpt lat="39.0929920" lon="1.4628400">
        <ele>95.6</ele>
        <time>2020-02-22T15:10:42Z</time>
      </trkpt>
      <trkpt lat="39.0929990" lon="1.4628440">
        <ele>95.5</ele>
        <time>2020-02-22T15:10:43Z</time>
      </trkpt>
      <trkpt lat="39.0930070" lon="1.4628480">
        <ele>95.4</ele>
        <time>2020-02-22T15:10:44Z</time>
      </trkpt>
      <trkpt lat="39.0930150" lon="1.4628520">
        <ele>95.4</ele>
        <time>2020-02-22T15:10:45Z</time>
      </trkpt>
      <trkpt lat="39.0930220" lon="1.4628570">
        <ele>95.3</ele>
        <time>2020-02-22T15:10:46Z</time>
      </trkpt>
      <trkpt lat="39.0930300" lon="1.4628610">
        <ele>95.2</ele>
        <time>2020-02-22T15:10:47Z</time>
      </trkpt>
      <trkpt lat="39.0930370" lon="1.4628650">
        <ele>95.1</ele>
        <time>2020-02-22T15:12:24Z</time>
      </trkpt>
      <trkpt lat="39.0930450" lon="1.4628690">
        <ele>95.1</ele>
        <time>2020-02-22T15:12:25Z</time>
      </trkpt>
      <trkpt lat="39.0930830" lon="1.4628800">
        <ele>94.8</ele>
        <time>2020-02-22T15:12:26Z</time>
      </trkpt>
      <trkpt lat="39.0931190" lon="1.4628960">
        <ele>94.5</ele>
        <time>2020-02-22T15:12:27Z</time>
      </trkpt>
      <trkpt lat="39.0931600" lon="1.4628990">
        <ele>94.1</ele>
        <time>2020-02-22T15:12:28Z</time>
      </trkpt>
      <trkpt lat="39.0932030" lon="1.4629040">
        <ele>93.7</ele>
        <time>2020-02-22T15:12:29Z</time>
      </trkpt>
      <trkpt lat="39.0932430" lon="1.4629230">
        <ele>93.3</ele>
        <time>2020-02-22T15:12:30Z</time>
      </trkpt>
      <trkpt lat="39.0932740" lon="1.4629400">
        <ele>93.0</ele>
        <time>2020-02-22T15:12:31Z</time>
      </trkpt>
      <trkpt lat="39.0933080" lon="1.4629670">
        <ele>92.0</ele>
        <time>2020-02-22T15:12:32Z</time>
      </trkpt>
      <trkpt lat="39.0933200" lon="1.4629740">
        <ele>91.7</ele>
        <time>2020-02-22T15:12:33Z</time>
      </trkpt>
      <trkpt lat="39.0933490" lon="1.4629980">
        <ele>90.8</ele>
        <time>2020-02-22T15:12:34Z</time>
      </trkpt>
      <trkpt lat="39.0933720" lon="1.4630170">
        <ele>90.3</ele>
        <time>2020-02-22T15:12:35Z</time>
      </trkpt>
      <trkpt lat="39.0933890" lon="1.4630290">
        <ele>89.9</ele>
        <time>2020-02-22T15:12:36Z</time>
      </trkpt>
      <trkpt lat="39.0934040" lon="1.4630380">
        <ele>89.6</ele>
        <time>2020-02-22T15:12:37Z</time>
      </trkpt>
      <trkpt lat="39.0934160" lon="1.4630500">
        <ele>89.3</ele>
        <time>2020-02-22T15:12:38Z</time>
      </trkpt>
      <trkpt lat="39.0934270" lon="1.4630580">
        <ele>89.1</ele>
        <time>2020-02-22T15:12:39Z</time>
      </trkpt>
      <trkpt lat="39.0934420" lon="1.4630600">
        <ele>88.8</ele>
        <time>2020-02-22T15:12:40Z</time>
      </trkpt>
      <trkpt lat="39.0934360" lon="1.4630680">
        <ele>88.6</ele>
        <time>2020-02-22T15:12:41Z</time>
      </trkpt>
      <trkpt lat="39.0934450" lon="1.4630880">
        <ele>88.3</ele>
        <time>2020-02-22T15:12:42Z</time>
      </trkpt>
      <trkpt lat="39.0934670" lon="1.4631190">
        <ele>87.6</ele>
        <time>2020-02-22T15:12:43Z</time>
      </trkpt>
      <trkpt lat="39.0934760" lon="1.4631350">
        <ele>87.3</ele>
        <time>2020-02-22T15:12:44Z</time>
      </trkpt>
      <trkpt lat="39.0935010" lon="1.4631580">
        <ele>86.6</ele>
        <time>2020-02-22T15:12:45Z</time>
      </trkpt>
      <trkpt lat="39.0935090" lon="1.4631650">
        <ele>86.4</ele>
        <time>2020-02-22T15:12:46Z</time>
      </trkpt>
      <trkpt lat="39.0935340" lon="1.4631880">
        <ele>85.7</ele>
        <time>2020-02-22T15:12:47Z</time>
      </trkpt>
      <trkpt lat="39.0935620" lon="1.4631970">
        <ele>85.0</ele>
        <time>2020-02-22T15:12:48Z</time>
      </trkpt>
      <trkpt lat="39.0935820" lon="1.4632120">
        <ele>84.4</ele>
        <time>2020-02-22T15:12:49Z</time>
      </trkpt>
      <trkpt lat="39.0935890" lon="1.4632210">
        <ele>84.2</ele>
        <time>2020-02-22T15:12:50Z</time>
      </trkpt>
      <trkpt lat="39.0936210" lon="1.4632490">
        <ele>83.3</ele>
        <time>2020-02-22T15:12:51Z</time>
      </trkpt>
      <trkpt lat="39.0936320" lon="1.4632580">
        <ele>83.0</ele>
        <time>2020-02-22T15:12:52Z</time>
      </trkpt>
      <trkpt lat="39.0936670" lon="1.4632890">
        <ele>82.1</ele>
        <time>2020-02-22T15:12:53Z</time>
      </trkpt>
      <trkpt lat="39.0936810" lon="1.4633010">
        <ele>81.7</ele>
        <time>2020-02-22T15:12:54Z</time>
      </trkpt>
      <trkpt lat="39.0936980" lon="1.4633300">
        <ele>81.1</ele>
        <time>2020-02-22T15:12:55Z</time>
      </trkpt>
      <trkpt lat="39.0937190" lon="1.4633540">
        <ele>80.5</ele>
        <time>2020-02-22T15:12:56Z</time>
      </trkpt>
      <trkpt lat="39.0937340" lon="1.4633860">
        <ele>79.9</ele>
        <time>2020-02-22T15:12:57Z</time>
      </trkpt>
      <trkpt lat="39.0937580" lon="1.4634160">
        <ele>79.2</ele>
        <time>2020-02-22T15:12:58Z</time>
      </trkpt>
      <trkpt lat="39.0937900" lon="1.4634400">
        <ele>78.5</ele>
        <time>2020-02-22T15:12:59Z</time>
      </trkpt>
      <trkpt lat="39.0938330" lon="1.4634360">
        <ele>77.6</ele>
        <time>2020-02-22T15:13:00Z</time>
      </trkpt>
      <trkpt lat="39.0938670" lon="1.4634530">
        <ele>76.9</ele>
        <time>2020-02-22T15:13:01Z</time>
      </trkpt>
      <trkpt lat="39.0938990" lon="1.4634730">
        <ele>76.2</ele>
        <time>2020-02-22T15:13:02Z</time>
      </trkpt>
      <trkpt lat="39.0939270" lon="1.4634840">
        <ele>75.7</ele>
        <time>2020-02-22T15:13:03Z</time>
      </trkpt>
      <trkpt lat="39.0939580" lon="1.4634960">
        <ele>75.1</ele>
        <time>2020-02-22T15:13:04Z</time>
      </trkpt>
      <trkpt lat="39.0939890" lon="1.4635110">
        <ele>74.5</ele>
        <time>2020-02-22T15:13:05Z</time>
      </trkpt>
      <trkpt lat="39.0940180" lon="1.4635340">
        <ele>74.0</ele>
        <time>2020-02-22T15:13:06Z</time>
      </trkpt>
      <trkpt lat="39.0940530" lon="1.4635450">
        <ele>73.4</ele>
        <time>2020-02-22T15:13:07Z</time>
      </trkpt>
      <trkpt lat="39.0940890" lon="1.4635490">
        <ele>72.9</ele>
        <time>2020-02-22T15:13:08Z</time>
      </trkpt>
      <trkpt lat="39.0941340" lon="1.4635540">
        <ele>72.3</ele>
        <time>2020-02-22T15:13:09Z</time>
      </trkpt>
      <trkpt lat="39.0941710" lon="1.4635650">
        <ele>71.8</ele>
        <time>2020-02-22T15:13:10Z</time>
      </trkpt>
      <trkpt lat="39.0942210" lon="1.4635930">
        <ele>71.0</ele>
        <time>2020-02-22T15:13:11Z</time>
      </trkpt>
      <trkpt lat="39.0942700" lon="1.4636080">
        <ele>70.3</ele>
        <time>2020-02-22T15:13:12Z</time>
      </trkpt>
      <trkpt lat="39.0943070" lon="1.4636070">
        <ele>69.8</ele>
        <time>2020-02-22T15:13:13Z</time>
      </trkpt>
      <trkpt lat="39.0943390" lon="1.4635870">
        <ele>69.3</ele>
        <time>2020-02-22T15:13:14Z</time>
      </trkpt>
      <trkpt lat="39.0943610" lon="1.4635710">
        <ele>68.9</ele>
        <time>2020-02-22T15:13:15Z</time>
      </trkpt>
      <trkpt lat="39.0943640" lon="1.4635630">
        <ele>68.8</ele>
        <time>2020-02-22T15:13:16Z</time>
      </trkpt>
      <trkpt lat="39.0943680" lon="1.4635540">
        <ele>68.7</ele>
        <time>2020-02-22T15:13:17Z</time>
      </trkpt>
      <trkpt lat="39.0943890" lon="1.4635330">
        <ele>68.3</ele>
        <time>2020-02-22T15:13:18Z</time>
      </trkpt>
      <trkpt lat="39.0944010" lon="1.4635320">
        <ele>68.1</ele>
        <time>2020-02-22T15:13:19Z</time>
      </trkpt>
      <trkpt lat="39.0944140" lon="1.4635310">
        <ele>67.9</ele>
        <time>2020-02-22T15:13:20Z</time>
      </trkpt>
      <trkpt lat="39.0944270" lon="1.4635300">
        <ele>67.8</ele>
        <time>2020-02-22T15:13:21Z</time>
      </trkpt>
      <trkpt lat="39.0944400" lon="1.4635290">
        <ele>67.6</ele>
        <time>2020-02-22T15:13:22Z</time>
      </trkpt>
      <trkpt lat="39.0944520" lon="1.4635280">
        <ele>67.5</ele>
        <time>2020-02-22T15:13:23Z</time>
      </trkpt>
      <trkpt lat="39.0944650" lon="1.4635280">
        <ele>67.4</ele>
        <time>2020-02-22T15:13:24Z</time>
      </trkpt>
      <trkpt lat="39.0944780" lon="1.4635270">
        <ele>67.2</ele>
        <time>2020-02-22T15:13:25Z</time>
      </trkpt>
      <trkpt lat="39.0944900" lon="1.4635260">
        <ele>67.1</ele>
        <time>2020-02-22T15:13:26Z</time>
      </trkpt>
      <trkpt lat="39.0945030" lon="1.4635250">
        <ele>67.0</ele>
        <time>2020-02-22T15:13:27Z</time>
      </trkpt>
      <trkpt lat="39.0945160" lon="1.4635240">
        <ele>66.8</ele>
        <time>2020-02-22T15:13:28Z</time>
      </trkpt>
      <trkpt lat="39.0945290" lon="1.4635230">
        <ele>66.7</ele>
        <time>2020-02-22T15:13:29Z</time>
      </trkpt>
      <trkpt lat="39.0945410" lon="1.4635220">
        <ele>66.6</ele>
        <time>2020-02-22T15:14:09Z</time>
      </trkpt>
      <trkpt lat="39.0945540" lon="1.4635210">
        <ele>66.4</ele>
        <time>2020-02-22T15:14:10Z</time>
      </trkpt>
      <trkpt lat="39.0946160" lon="1.4635220">
        <ele>65.8</ele>
        <time>2020-02-22T15:14:11Z</time>
      </trkpt>
      <trkpt lat="39.0946870" lon="1.4635180">
        <ele>64.9</ele>
        <time>2020-02-22T15:14:12Z</time>
      </trkpt>
      <trkpt lat="39.0947480" lon="1.4635210">
        <ele>64.2</ele>
        <time>2020-02-22T15:14:13Z</time>
      </trkpt>
      <trkpt lat="39.0948100" lon="1.4635190">
        <ele>63.5</ele>
        <time>2020-02-22T15:14:14Z</time>
      </trkpt>
      <trkpt lat="39.0948610" lon="1.4635140">
        <ele>62.8</ele>
        <time>2020-02-22T15:14:15Z</time>
      </trkpt>
      <trkpt lat="39.0949160" lon="1.4635300">
        <ele>62.1</ele>
        <time>2020-02-22T15:14:16Z</time>
      </trkpt>
      <trkpt lat="39.0949590" lon="1.4635530">
        <ele>61.5</ele>
        <time>2020-02-22T15:14:17Z</time>
      </trkpt>
      <trkpt lat="39.0949950" lon="1.4636440">
        <ele>60.3</ele>
        <time>2020-02-22T15:14:18Z</time>
      </trkpt>
      <trkpt lat="39.0949920" lon="1.4637310">
        <ele>59.4</ele>
        <time>2020-02-22T15:14:19Z</time>
      </trkpt>
      <trkpt lat="39.0949980" lon="1.4637900">
        <ele>58.8</ele>
        <time>2020-02-22T15:14:20Z</time>
      </trkpt>
      <trkpt lat="39.0950290" lon="1.4638210">
        <ele>58.3</ele>
        <time>2020-02-22T15:14:21Z</time>
      </trkpt>
      <trkpt lat="39.0950680" lon="1.4638370">
        <ele>57.9</ele>
        <time>2020-02-22T15:14:22Z</time>
      </trkpt>
      <trkpt lat="39.0951140" lon="1.4638590">
        <ele>57.4</ele>
        <time>2020-02-22T15:14:23Z</time>
      </trkpt>
      <trkpt lat="39.0951480" lon="1.4638590">
        <ele>57.1</ele>
        <time>2020-02-22T15:14:24Z</time>
      </trkpt>
      <trkpt lat="39.0952000" lon="1.4638480">
        <ele>56.8</ele>
        <time>2020-02-22T15:14:25Z</time>
      </trkpt>
      <trkpt lat="39.0952600" lon="1.4638410">
        <ele>56.3</ele>
        <time>2020-02-22T15:14:26Z</time>
      </trkpt>
      <trkpt lat="39.0953350" lon="1.4638330">
        <ele>55.8</ele>
        <time>2020-02-22T15:14:27Z</time>
      </trkpt>
      <trkpt lat="39.0953860" lon="1.4638210">
        <ele>55.6</ele>
        <time>2020-02-22T15:14:28Z</time>
      </trkpt>
      <trkpt lat="39.0954470" lon="1.4638140">
        <ele>55.3</ele>
        <time>2020-02-22T15:14:29Z</time>
      </trkpt>
      <trkpt lat="39.0954950" lon="1.4638010">
        <ele>55.0</ele>
        <time>2020-02-22T15:14:30Z</time>
      </trkpt>
      <trkpt lat="39.0955630" lon="1.4637940">
        <ele>54.6</ele>
        <time>2020-02-22T15:14:31Z</time>
      </trkpt>
      <trkpt lat="39.0956270" lon="1.4637680">
        <ele>54.2</ele>
        <time>2020-02-22T15:14:32Z</time>
      </trkpt>
      <trkpt lat="39.0956950" lon="1.4637410">
        <ele>53.7</ele>
        <time>2020-02-22T15:14:33Z</time>
      </trkpt>
      <trkpt lat="39.0957500" lon="1.4637140">
        <ele>53.3</ele>
        <time>2020-02-22T15:14:34Z</time>
      </trkpt>
      <trkpt lat="39.0958120" lon="1.4636800">
        <ele>52.9</ele>
        <time>2020-02-22T15:14:35Z</time>
      </trkpt>
      <trkpt lat="39.0958530" lon="1.4636650">
        <ele>52.6</ele>
        <time>2020-02-22T15:14:36Z</time>
      </trkpt>
      <trkpt lat="39.0958980" lon="1.4636420">
        <ele>52.1</ele>
        <time>2020-02-22T15:14:37Z</time>
      </trkpt>
      <trkpt lat="39.0959340" lon="1.4636180">
        <ele>51.8</ele>
        <time>2020-02-22T15:14:38Z</time>
      </trkpt>
      <trkpt lat="39.0959650" lon="1.4635990">
        <ele>51.5</ele>
        <time>2020-02-22T15:14:39Z</time>
      </trkpt>
      <trkpt lat="39.0959890" lon="1.4635770">
        <ele>51.2</ele>
        <time>2020-02-22T15:14:40Z</time>
      </trkpt>
      <trkpt lat="39.0960160" lon="1.4635560">
        <ele>50.9</ele>
        <time>2020-02-22T15:14:41Z</time>
      </trkpt>
      <trkpt lat="39.0960460" lon="1.4635310">
        <ele>50.6</ele>
        <time>2020-02-22T15:14:42Z</time>
      </trkpt>
      <trkpt lat="39.0960580" lon="1.4635210">
        <ele>50.5</ele>
        <time>2020-02-22T15:14:43Z</time>
      </trkpt>
      <trkpt lat="39.0960740" lon="1.4635060">
        <ele>50.3</ele>
        <time>2020-02-22T15:14:44Z</time>
      </trkpt>
      <trkpt lat="39.0960850" lon="1.4634990">
        <ele>50.1</ele>
        <time>2020-02-22T15:14:45Z</time>
      </trkpt>
      <trkpt lat="39.0960940" lon="1.4634850">
        <ele>50.0</ele>
        <time>2020-02-22T15:14:46Z</time>
      </trkpt>
      <trkpt lat="39.0961140" lon="1.4634810">
        <ele>49.8</ele>
        <time>2020-02-22T15:14:47Z</time>
      </trkpt>
      <trkpt lat="39.0961400" lon="1.4634750">
        <ele>49.5</ele>
        <time>2020-02-22T15:14:48Z</time>
      </trkpt>
      <trkpt lat="39.0961740" lon="1.4634610">
        <ele>49.1</ele>
        <time>2020-02-22T15:14:49Z</time>
      </trkpt>
      <trkpt lat="39.0961880" lon="1.4634480">
        <ele>48.9</ele>
        <time>2020-02-22T15:14:50Z</time>
      </trkpt>
      <trkpt lat="39.0962230" lon="1.4634240">
        <ele>48.5</ele>
        <time>2020-02-22T15:14:51Z</time>
      </trkpt>
      <trkpt lat="39.0962460" lon="1.4634000">
        <ele>48.1</ele>
        <time>2020-02-22T15:14:52Z</time>
      </trkpt>
      <trkpt lat="39.0962570" lon="1.4633900">
        <ele>47.9</ele>
        <time>2020-02-22T15:14:53Z</time>
      </trkpt>
      <trkpt lat="39.0962840" lon="1.4633780">
        <ele>47.6</ele>
        <time>2020-02-22T15:14:54Z</time>
      </trkpt>
      <trkpt lat="39.0963160" lon="1.4633610">
        <ele>47.2</ele>
        <time>2020-02-22T15:14:55Z</time>
      </trkpt>
      <trkpt lat="39.0963530" lon="1.4633270">
        <ele>46.6</ele>
        <time>2020-02-22T15:14:56Z</time>
      </trkpt>
      <trkpt lat="39.0963730" lon="1.4633120">
        <ele>46.4</ele>
        <time>2020-02-22T15:14:57Z</time>
      </trkpt>
      <trkpt lat="39.0964080" lon="1.4632940">
        <ele>45.9</ele>
        <time>2020-02-22T15:14:58Z</time>
      </trkpt>
      <trkpt lat="39.0964230" lon="1.4632900">
        <ele>45.7</ele>
        <time>2020-02-22T15:14:59Z</time>
      </trkpt>
      <trkpt lat="39.0964630" lon="1.4632890">
        <ele>45.3</ele>
        <time>2020-02-22T15:15:00Z</time>
      </trkpt>
      <trkpt lat="39.0964930" lon="1.4632910">
        <ele>45.0</ele>
        <time>2020-02-22T15:15:01Z</time>
      </trkpt>
      <trkpt lat="39.0965030" lon="1.4632880">
        <ele>44.9</ele>
        <time>2020-02-22T15:15:02Z</time>
      </trkpt>
      <trkpt lat="39.0965330" lon="1.4632760">
        <ele>44.6</ele>
        <time>2020-02-22T15:15:03Z</time>
      </trkpt>
      <trkpt lat="39.0965660" lon="1.4632680">
        <ele>44.3</ele>
        <time>2020-02-22T15:15:04Z</time>
      </trkpt>
      <trkpt lat="39.0965770" lon="1.4632640">
        <ele>44.2</ele>
        <time>2020-02-22T15:15:05Z</time>
      </trkpt>
      <trkpt lat="39.0966090" lon="1.4632650">
        <ele>44.0</ele>
        <time>2020-02-22T15:15:06Z</time>
      </trkpt>
      <trkpt lat="39.0966450" lon="1.4632590">
        <ele>43.6</ele>
        <time>2020-02-22T15:15:07Z</time>
      </trkpt>
      <trkpt lat="39.0966750" lon="1.4632450">
        <ele>43.3</ele>
        <time>2020-02-22T15:15:08Z</time>
      </trkpt>
      <trkpt lat="39.0967130" lon="1.4632310">
        <ele>42.9</ele>
        <time>2020-02-22T15:15:09Z</time>
      </trkpt>
      <trkpt lat="39.0967490" lon="1.4632200">
        <ele>42.6</ele>
        <time>2020-02-22T15:15:10Z</time>
      </trkpt>
      <trkpt lat="39.0967920" lon="1.4632020">
        <ele>42.3</ele>
        <time>2020-02-22T15:15:11Z</time>
      </trkpt>
      <trkpt lat="39.0968320" lon="1.4631890">
        <ele>42.0</ele>
        <time>2020-02-22T15:15:12Z</time>
      </trkpt>
      <trkpt lat="39.0968660" lon="1.4631800">
        <ele>41.8</ele>
        <time>2020-02-22T15:15:13Z</time>
      </trkpt>
      <trkpt lat="39.0969020" lon="1.4631700">
        <ele>41.5</ele>
        <time>2020-02-22T15:15:14Z</time>
      </trkpt>
      <trkpt lat="39.0969460" lon="1.4631660">
        <ele>41.3</ele>
        <time>2020-02-22T15:15:15Z</time>
      </trkpt>
      <trkpt lat="39.0969860" lon="1.4631430">
        <ele>41.1</ele>
        <time>2020-02-22T15:15:16Z</time>
      </trkpt>
      <trkpt lat="39.0970160" lon="1.4631260">
        <ele>40.9</ele>
        <time>2020-02-22T15:15:17Z</time>
      </trkpt>
      <trkpt lat="39.0970460" lon="1.4631020">
        <ele>40.7</ele>
        <time>2020-02-22T15:15:18Z</time>
      </trkpt>
      <trkpt lat="39.0970820" lon="1.4630790">
        <ele>40.4</ele>
        <time>2020-02-22T15:15:19Z</time>
      </trkpt>
      <trkpt lat="39.0971160" lon="1.4630650">
        <ele>40.1</ele>
        <time>2020-02-22T15:15:20Z</time>
      </trkpt>
      <trkpt lat="39.0971580" lon="1.4630420">
        <ele>39.8</ele>
        <time>2020-02-22T15:15:21Z</time>
      </trkpt>
      <trkpt lat="39.0971860" lon="1.4630170">
        <ele>39.6</ele>
        <time>2020-02-22T15:15:22Z</time>
      </trkpt>
      <trkpt lat="39.0972200" lon="1.4630050">
        <ele>39.5</ele>
        <time>2020-02-22T15:15:23Z</time>
      </trkpt>
      <trkpt lat="39.0972510" lon="1.4629940">
        <ele>39.3</ele>
        <time>2020-02-22T15:15:24Z</time>
      </trkpt>
      <trkpt lat="39.0972830" lon="1.4629900">
        <ele>39.2</ele>
        <time>2020-02-22T15:15:25Z</time>
      </trkpt>
      <trkpt lat="39.0973220" lon="1.4629900">
        <ele>38.9</ele>
        <time>2020-02-22T15:15:26Z</time>
      </trkpt>
      <trkpt lat="39.0973630" lon="1.4629880">
        <ele>38.7</ele>
        <time>2020-02-22T15:15:27Z</time>
      </trkpt>
      <trkpt lat="39.0973940" lon="1.4629910">
        <ele>38.5</ele>
        <time>2020-02-22T15:15:28Z</time>
      </trkpt>
      <trkpt lat="39.0974240" lon="1.4629780">
        <ele>38.3</ele>
        <time>2020-02-22T15:15:29Z</time>
      </trkpt>
      <trkpt lat="39.0974510" lon="1.4629670">
        <ele>38.1</ele>
        <time>2020-02-22T15:15:30Z</time>
      </trkpt>
      <trkpt lat="39.0974850" lon="1.4629520">
        <ele>37.8</ele>
        <time>2020-02-22T15:15:31Z</time>
      </trkpt>
      <trkpt lat="39.0975320" lon="1.4629470">
        <ele>37.4</ele>
        <time>2020-02-22T15:15:32Z</time>
      </trkpt>
      <trkpt lat="39.0975800" lon="1.4629380">
        <ele>37.0</ele>
        <time>2020-02-22T15:15:33Z</time>
      </trkpt>
      <trkpt lat="39.0976090" lon="1.4629270">
        <ele>36.7</ele>
        <time>2020-02-22T15:15:34Z</time>
      </trkpt>
      <trkpt lat="39.0976410" lon="1.4629090">
        <ele>36.4</ele>
        <time>2020-02-22T15:15:35Z</time>
      </trkpt>
      <trkpt lat="39.0976830" lon="1.4628930">
        <ele>35.9</ele>
        <time>2020-02-22T15:15:36Z</time>
      </trkpt>
      <trkpt lat="39.0977190" lon="1.4628810">
        <ele>35.5</ele>
        <time>2020-02-22T15:15:37Z</time>
      </trkpt>
      <trkpt lat="39.0977530" lon="1.4628640">
        <ele>35.2</ele>
        <time>2020-02-22T15:15:38Z</time>
      </trkpt>
      <trkpt lat="39.0977850" lon="1.4628490">
        <ele>34.9</ele>
        <time>2020-02-22T15:15:39Z</time>
      </trkpt>
      <trkpt lat="39.0978250" lon="1.4628350">
        <ele>34.5</ele>
        <time>2020-02-22T15:15:40Z</time>
      </trkpt>
      <trkpt lat="39.0978390" lon="1.4628280">
        <ele>34.4</ele>
        <time>2020-02-22T15:15:41Z</time>
      </trkpt>
      <trkpt lat="39.0978720" lon="1.4628040">
        <ele>34.1</ele>
        <time>2020-02-22T15:15:42Z</time>
      </trkpt>
      <trkpt lat="39.0978820" lon="1.4627940">
        <ele>33.9</ele>
        <time>2020-02-22T15:15:43Z</time>
      </trkpt>
      <trkpt lat="39.0979070" lon="1.4627650">
        <ele>33.6</ele>
        <time>2020-02-22T15:15:44Z</time>
      </trkpt>
      <trkpt lat="39.0979470" lon="1.4627380">
        <ele>33.1</ele>
        <time>2020-02-22T15:15:45Z</time>
      </trkpt>
      <trkpt lat="39.0979860" lon="1.4627030">
        <ele>32.6</ele>
        <time>2020-02-22T15:15:46Z</time>
      </trkpt>
      <trkpt lat="39.0980080" lon="1.4626610">
        <ele>32.2</ele>
        <time>2020-02-22T15:15:47Z</time>
      </trkpt>
      <trkpt lat="39.0980260" lon="1.4626270">
        <ele>31.8</ele>
        <time>2020-02-22T15:15:48Z</time>
      </trkpt>
      <trkpt lat="39.0980360" lon="1.4625830">
        <ele>31.5</ele>
        <time>2020-02-22T15:15:49Z</time>
      </trkpt>
      <trkpt lat="39.0980470" lon="1.4625460">
        <ele>31.2</ele>
        <time>2020-02-22T15:15:50Z</time>
      </trkpt>
      <trkpt lat="39.0980500" lon="1.4624970">
        <ele>30.8</ele>
        <time>2020-02-22T15:15:51Z</time>
      </trkpt>
      <trkpt lat="39.0980510" lon="1.4624770">
        <ele>30.6</ele>
        <time>2020-02-22T15:15:52Z</time>
      </trkpt>
      <trkpt lat="39.0980590" lon="1.4624380">
        <ele>30.4</ele>
        <time>2020-02-22T15:15:53Z</time>
      </trkpt>
      <trkpt lat="39.0980730" lon="1.4623940">
        <ele>30.0</ele>
        <time>2020-02-22T15:15:54Z</time>
      </trkpt>
      <trkpt lat="39.0980950" lon="1.4623690">
        <ele>29.8</ele>
        <time>2020-02-22T15:15:55Z</time>
      </trkpt>
      <trkpt lat="39.0981240" lon="1.4623380">
        <ele>29.4</ele>
        <time>2020-02-22T15:15:56Z</time>
      </trkpt>
      <trkpt lat="39.0981570" lon="1.4623060">
        <ele>29.2</ele>
        <time>2020-02-22T15:15:57Z</time>
      </trkpt>
      <trkpt lat="39.0981870" lon="1.4622850">
        <ele>28.9</ele>
        <time>2020-02-22T15:15:58Z</time>
      </trkpt>
      <trkpt lat="39.0982120" lon="1.4622560">
        <ele>28.8</ele>
        <time>2020-02-22T15:15:59Z</time>
      </trkpt>
      <trkpt lat="39.0982540" lon="1.4622560">
        <ele>28.5</ele>
        <time>2020-02-22T15:16:00Z</time>
      </trkpt>
      <trkpt lat="39.0982720" lon="1.4622620">
        <ele>28.4</ele>
        <time>2020-02-22T15:16:01Z</time>
      </trkpt>
      <trkpt lat="39.0983090" lon="1.4622740">
        <ele>28.2</ele>
        <time>2020-02-22T15:16:02Z</time>
      </trkpt>
      <trkpt lat="39.0983200" lon="1.4622790">
        <ele>28.2</ele>
        <time>2020-02-22T15:16:03Z</time>
      </trkpt>
      <trkpt lat="39.0983570" lon="1.4622840">
        <ele>28.0</ele>
        <time>2020-02-22T15:16:04Z</time>
      </trkpt>
      <trkpt lat="39.0983890" lon="1.4622530">
        <ele>27.9</ele>
        <time>2020-02-22T15:16:05Z</time>
      </trkpt>
      <trkpt lat="39.0984010" lon="1.4622430">
        <ele>27.8</ele>
        <time>2020-02-22T15:16:06Z</time>
      </trkpt>
      <trkpt lat="39.0984280" lon="1.4622400">
        <ele>27.7</ele>
        <time>2020-02-22T15:16:07Z</time>
      </trkpt>
      <trkpt lat="39.0984570" lon="1.4622710">
        <ele>27.5</ele>
        <time>2020-02-22T15:16:08Z</time>
      </trkpt>
      <trkpt lat="39.0984640" lon="1.4622830">
        <ele>27.4</ele>
        <time>2020-02-22T15:16:09Z</time>
      </trkpt>
      <trkpt lat="39.0984820" lon="1.4623100">
        <ele>27.3</ele>
        <time>2020-02-22T15:16:10Z</time>
      </trkpt>
      <trkpt lat="39.0985010" lon="1.4623510">
        <ele>27.1</ele>
        <time>2020-02-22T15:16:11Z</time>
      </trkpt>
      <trkpt lat="39.0985050" lon="1.4623670">
        <ele>27.1</ele>
        <time>2020-02-22T15:16:12Z</time>
      </trkpt>
      <trkpt lat="39.0985080" lon="1.4624090">
        <ele>26.9</ele>
        <time>2020-02-22T15:16:13Z</time>
      </trkpt>
      <trkpt lat="39.0985100" lon="1.4624220">
        <ele>26.9</ele>
        <time>2020-02-22T15:16:14Z</time>
      </trkpt>
      <trkpt lat="39.0985210" lon="1.4624630">
        <ele>26.7</ele>
        <time>2020-02-22T15:16:15Z</time>
      </trkpt>
      <trkpt lat="39.0985280" lon="1.4624740">
        <ele>26.7</ele>
        <time>2020-02-22T15:16:16Z</time>
      </trkpt>
      <trkpt lat="39.0985450" lon="1.4625060">
        <ele>26.5</ele>
        <time>2020-02-22T15:16:17Z</time>
      </trkpt>
      <trkpt lat="39.0985480" lon="1.4625190">
        <ele>26.5</ele>
        <time>2020-02-22T15:16:18Z</time>
      </trkpt>
      <trkpt lat="39.0985590" lon="1.4625540">
        <ele>26.4</ele>
        <time>2020-02-22T15:16:19Z</time>
      </trkpt>
      <trkpt lat="39.0985620" lon="1.4625680">
        <ele>26.3</ele>
        <time>2020-02-22T15:16:20Z</time>
      </trkpt>
      <trkpt lat="39.0985710" lon="1.4626030">
        <ele>26.2</ele>
        <time>2020-02-22T15:16:21Z</time>
      </trkpt>
      <trkpt lat="39.0985810" lon="1.4626370">
        <ele>26.1</ele>
        <time>2020-02-22T15:16:22Z</time>
      </trkpt>
      <trkpt lat="39.0985930" lon="1.4626700">
        <ele>26.0</ele>
        <time>2020-02-22T15:16:23Z</time>
      </trkpt>
      <trkpt lat="39.0986000" lon="1.4627090">
        <ele>25.8</ele>
        <time>2020-02-22T15:16:24Z</time>
      </trkpt>
      <trkpt lat="39.0986020" lon="1.4627210">
        <ele>25.8</ele>
        <time>2020-02-22T15:16:25Z</time>
      </trkpt>
      <trkpt lat="39.0986080" lon="1.4627590">
        <ele>25.7</ele>
        <time>2020-02-22T15:16:26Z</time>
      </trkpt>
      <trkpt lat="39.0986080" lon="1.4627740">
        <ele>25.6</ele>
        <time>2020-02-22T15:16:27Z</time>
      </trkpt>
      <trkpt lat="39.0986070" lon="1.4628170">
        <ele>25.5</ele>
        <time>2020-02-22T15:16:28Z</time>
      </trkpt>
      <trkpt lat="39.0986060" lon="1.4628310">
        <ele>25.4</ele>
        <time>2020-02-22T15:16:29Z</time>
      </trkpt>
      <trkpt lat="39.0986120" lon="1.4628780">
        <ele>25.3</ele>
        <time>2020-02-22T15:16:30Z</time>
      </trkpt>
      <trkpt lat="39.0986160" lon="1.4628960">
        <ele>25.2</ele>
        <time>2020-02-22T15:16:31Z</time>
      </trkpt>
      <trkpt lat="39.0986210" lon="1.4629210">
        <ele>25.1</ele>
        <time>2020-02-22T15:16:32Z</time>
      </trkpt>
      <trkpt lat="39.0986260" lon="1.4629390">
        <ele>25.0</ele>
        <time>2020-02-22T15:16:33Z</time>
      </trkpt>
      <trkpt lat="39.0986320" lon="1.4629650">
        <ele>24.9</ele>
        <time>2020-02-22T15:16:34Z</time>
      </trkpt>
      <trkpt lat="39.0986390" lon="1.4629830">
        <ele>24.9</ele>
        <time>2020-02-22T15:16:35Z</time>
      </trkpt>
      <trkpt lat="39.0986410" lon="1.4629940">
        <ele>24.8</ele>
        <time>2020-02-22T15:16:36Z</time>
      </trkpt>
      <trkpt lat="39.0986380" lon="1.4630160">
        <ele>24.8</ele>
        <time>2020-02-22T15:16:37Z</time>
      </trkpt>
      <trkpt lat="39.0986440" lon="1.4630260">
        <ele>24.7</ele>
        <time>2020-02-22T15:16:38Z</time>
      </trkpt>
      <trkpt lat="39.0986550" lon="1.4630150">
        <ele>24.7</ele>
        <time>2020-02-22T15:16:39Z</time>
      </trkpt>
      <trkpt lat="39.0986540" lon="1.4630090">
        <ele>24.7</ele>
        <time>2020-02-22T15:16:40Z</time>
      </trkpt>
      <trkpt lat="39.0986530" lon="1.4630110">
        <ele>24.7</ele>
        <time>2020-02-22T15:16:41Z</time>
      </trkpt>
      <trkpt lat="39.0986520" lon="1.4630130">
        <ele>24.6</ele>
        <time>2020-02-22T15:16:42Z</time>
      </trkpt>
      <trkpt lat="39.0986530" lon="1.4630140">
        <ele>24.6</ele>
        <time>2020-02-22T15:16:43Z</time>
      </trkpt>
      <trkpt lat="39.0986500" lon="1.4630200">
        <ele>24.6</ele>
        <time>2020-02-22T15:16:44Z</time>
      </trkpt>
      <trkpt lat="39.0986440" lon="1.4630310">
        <ele>24.6</ele>
        <time>2020-02-22T15:16:45Z</time>
      </trkpt>
      <trkpt lat="39.0986440" lon="1.4630320">
        <ele>24.6</ele>
        <time>2020-02-22T15:16:46Z</time>
      </trkpt>
      <trkpt lat="39.0986440" lon="1.4630320">
        <ele>24.6</ele>
        <time>2020-02-22T15:16:47Z</time>
      </trkpt>
      <trkpt lat="39.0986440" lon="1.4630320">
        <ele>24.6</ele>
        <time>2020-02-22T15:16:48Z</time>
      </trkpt>
      <trkpt lat="39.0986440" lon="1.4630300">
        <ele>24.6</ele>
        <time>2020-02-22T15:16:49Z</time>
      </trkpt>
      <trkpt lat="39.0986440" lon="1.4630290">
        <ele>24.6</ele>
        <time>2020-02-22T15:16:50Z</time>
      </trkpt>
      <trkpt lat="39.0986440" lon="1.4630290">
        <ele>24.6</ele>
        <time>2020-02-22T15:16:51Z</time>
      </trkpt>
      <trkpt lat="39.0986680" lon="1.4630940">
        <ele>24.3</ele>
        <time>2020-02-22T15:18:06Z</time>
      </trkpt>
      <trkpt lat="39.0986730" lon="1.4631170">
        <ele>24.3</ele>
        <time>2020-02-22T15:18:07Z</time>
      </trkpt>
      <trkpt lat="39.0986730" lon="1.4631320">
        <ele>24.2</ele>
        <time>2020-02-22T15:18:08Z</time>
      </trkpt>
      <trkpt lat="39.0986730" lon="1.4631540">
        <ele>24.2</ele>
        <time>2020-02-22T15:18:09Z</time>
      </trkpt>
      <trkpt lat="39.0986850" lon="1.4631990">
        <ele>24.0</ele>
        <time>2020-02-22T15:18:10Z</time>
      </trkpt>
      <trkpt lat="39.0986900" lon="1.4632250">
        <ele>24.0</ele>
        <time>2020-02-22T15:18:11Z</time>
      </trkpt>
      <trkpt lat="39.0986900" lon="1.4632370">
        <ele>23.9</ele>
        <time>2020-02-22T15:18:12Z</time>
      </trkpt>
      <trkpt lat="39.0986900" lon="1.4632480">
        <ele>23.9</ele>
        <time>2020-02-22T15:18:13Z</time>
      </trkpt>
      <trkpt lat="39.0986930" lon="1.4632720">
        <ele>23.8</ele>
        <time>2020-02-22T15:18:14Z</time>
      </trkpt>
      <trkpt lat="39.0986930" lon="1.4632910">
        <ele>23.8</ele>
        <time>2020-02-22T15:18:15Z</time>
      </trkpt>
      <trkpt lat="39.0986940" lon="1.4633150">
        <ele>23.7</ele>
        <time>2020-02-22T15:18:16Z</time>
      </trkpt>
      <trkpt lat="39.0986980" lon="1.4633370">
        <ele>23.6</ele>
        <time>2020-02-22T15:18:17Z</time>
      </trkpt>
      <trkpt lat="39.0987100" lon="1.4633590">
        <ele>23.6</ele>
        <time>2020-02-22T15:18:18Z</time>
      </trkpt>
      <trkpt lat="39.0987130" lon="1.4633710">
        <ele>23.5</ele>
        <time>2020-02-22T15:18:19Z</time>
      </trkpt>
      <trkpt lat="39.0987150" lon="1.4633840">
        <ele>23.5</ele>
        <time>2020-02-22T15:18:20Z</time>
      </trkpt>
      <trkpt lat="39.0987200" lon="1.4634180">
        <ele>23.4</ele>
        <time>2020-02-22T15:18:21Z</time>
      </trkpt>
      <trkpt lat="39.0987200" lon="1.4634310">
        <ele>23.3</ele>
        <time>2020-02-22T15:18:22Z</time>
      </trkpt>
      <trkpt lat="39.0987200" lon="1.4634570">
        <ele>23.3</ele>
        <time>2020-02-22T15:18:23Z</time>
      </trkpt>
      <trkpt lat="39.0987130" lon="1.4634660">
        <ele>23.2</ele>
        <time>2020-02-22T15:18:24Z</time>
      </trkpt>
      <trkpt lat="39.0987030" lon="1.4634760">
        <ele>23.2</ele>
        <time>2020-02-22T15:18:25Z</time>
      </trkpt>
      <trkpt lat="39.0986970" lon="1.4634980">
        <ele>23.1</ele>
        <time>2020-02-22T15:18:26Z</time>
      </trkpt>
      <trkpt lat="39.0986940" lon="1.4635180">
        <ele>23.0</ele>
        <time>2020-02-22T15:18:27Z</time>
      </trkpt>
      <trkpt lat="39.0986890" lon="1.4635350">
        <ele>22.9</ele>
        <time>2020-02-22T15:18:28Z</time>
      </trkpt>
      <trkpt lat="39.0986820" lon="1.4635480">
        <ele>22.9</ele>
        <time>2020-02-22T15:18:29Z</time>
      </trkpt>
      <trkpt lat="39.0986740" lon="1.4635670">
        <ele>22.8</ele>
        <time>2020-02-22T15:18:30Z</time>
      </trkpt>
      <trkpt lat="39.0986810" lon="1.4635940">
        <ele>22.7</ele>
        <time>2020-02-22T15:18:31Z</time>
      </trkpt>
      <trkpt lat="39.0986820" lon="1.4636030">
        <ele>22.7</ele>
        <time>2020-02-22T15:18:32Z</time>
      </trkpt>
      <trkpt lat="39.0986830" lon="1.4636130">
        <ele>22.6</ele>
        <time>2020-02-22T15:18:33Z</time>
      </trkpt>
      <trkpt lat="39.0986830" lon="1.4636340">
        <ele>22.5</ele>
        <time>2020-02-22T15:18:34Z</time>
      </trkpt>
      <trkpt lat="39.0986840" lon="1.4636460">
        <ele>22.5</ele>
        <time>2020-02-22T15:18:35Z</time>
      </trkpt>
      <trkpt lat="39.0986820" lon="1.4636600">
        <ele>22.4</ele>
        <time>2020-02-22T15:18:36Z</time>
      </trkpt>
      <trkpt lat="39.0986850" lon="1.4636670">
        <ele>22.4</ele>
        <time>2020-02-22T15:18:37Z</time>
      </trkpt>
      <trkpt lat="39.0986890" lon="1.4636800">
        <ele>22.4</ele>
        <time>2020-02-22T15:18:38Z</time>
      </trkpt>
      <trkpt lat="39.0986990" lon="1.4636980">
        <ele>22.3</ele>
        <time>2020-02-22T15:18:39Z</time>
      </trkpt>
      <trkpt lat="39.0987000" lon="1.4637190">
        <ele>22.2</ele>
        <time>2020-02-22T15:18:40Z</time>
      </trkpt>
      <trkpt lat="39.0987030" lon="1.4637300">
        <ele>22.2</ele>
        <time>2020-02-22T15:18:41Z</time>
      </trkpt>
      <trkpt lat="39.0987080" lon="1.4637320">
        <ele>22.1</ele>
        <time>2020-02-22T15:18:42Z</time>
      </trkpt>
      <trkpt lat="39.0987070" lon="1.4637290">
        <ele>22.1</ele>
        <time>2020-02-22T15:18:43Z</time>
      </trkpt>
      <trkpt lat="39.0987150" lon="1.4637080">
        <ele>22.1</ele>
        <time>2020-02-22T15:18:44Z</time>
      </trkpt>
      <trkpt lat="39.0987170" lon="1.4636920">
        <ele>22.0</ele>
        <time>2020-02-22T15:18:45Z</time>
      </trkpt>
      <trkpt lat="39.0987200" lon="1.4636700">
        <ele>21.9</ele>
        <time>2020-02-22T15:18:46Z</time>
      </trkpt>
      <trkpt lat="39.0987140" lon="1.4636580">
        <ele>21.8</ele>
        <time>2020-02-22T15:18:47Z</time>
      </trkpt>
      <trkpt lat="39.0987040" lon="1.4636670">
        <ele>21.8</ele>
        <time>2020-02-22T15:18:48Z</time>
      </trkpt>
      <trkpt lat="39.0986910" lon="1.4636640">
        <ele>21.7</ele>
        <time>2020-02-22T15:18:49Z</time>
      </trkpt>
      <trkpt lat="39.0986890" lon="1.4636580">
        <ele>21.7</ele>
        <time>2020-02-22T15:18:50Z</time>
      </trkpt>
      <trkpt lat="39.0986880" lon="1.4636580">
        <ele>21.7</ele>
        <time>2020-02-22T15:18:51Z</time>
      </trkpt>
      <trkpt lat="39.0986880" lon="1.4636570">
        <ele>21.6</ele>
        <time>2020-02-22T15:18:52Z</time>
      </trkpt>
      <trkpt lat="39.0986880" lon="1.4636560">
        <ele>21.6</ele>
        <time>2020-02-22T15:18:53Z</time>
      </trkpt>
      <trkpt lat="39.0986870" lon="1.4636550">
        <ele>21.6</ele>
        <time>2020-02-22T15:18:54Z</time>
      </trkpt>
      <trkpt lat="39.0986870" lon="1.4636550">
        <ele>21.6</ele>
        <time>2020-02-22T15:18:55Z</time>
      </trkpt>
      <trkpt lat="39.0986870" lon="1.4636540">
        <ele>21.6</ele>
        <time>2020-02-22T15:18:56Z</time>
      </trkpt>
      <trkpt lat="39.0986860" lon="1.4636530">
        <ele>21.6</ele>
        <time>2020-02-22T15:18:57Z</time>
      </trkpt>
      <trkpt lat="39.0986860" lon="1.4636530">
        <ele>21.6</ele>
        <time>2020-02-22T15:18:58Z</time>
      </trkpt>
      <trkpt lat="39.0986860" lon="1.4636520">
        <ele>21.6</ele>
        <time>2020-02-22T15:18:59Z</time>
      </trkpt>
      <trkpt lat="39.0986850" lon="1.4636510">
        <ele>21.6</ele>
        <time>2020-02-22T15:19:00Z</time>
      </trkpt>
      <trkpt lat="39.0986850" lon="1.4636500">
        <ele>21.6</ele>
        <time>2020-02-22T15:20:11Z</time>
      </trkpt>
      <trkpt lat="39.0986850" lon="1.4636500">
        <ele>21.6</ele>
        <time>2020-02-22T15:20:12Z</time>
      </trkpt>
      <trkpt lat="39.0986850" lon="1.4636490">
        <ele>21.6</ele>
        <time>2020-02-22T15:20:13Z</time>
      </trkpt>
      <trkpt lat="39.0986840" lon="1.4636480">
        <ele>21.6</ele>
        <time>2020-02-22T15:20:14Z</time>
      </trkpt>
      <trkpt lat="39.0986840" lon="1.4636480">
        <ele>21.6</ele>
        <time>2020-02-22T15:20:15Z</time>
      </trkpt>
      <trkpt lat="39.0986840" lon="1.4636470">
        <ele>21.6</ele>
        <time>2020-02-22T15:20:16Z</time>
      </trkpt>
      <trkpt lat="39.0986830" lon="1.4636460">
        <ele>21.6</ele>
        <time>2020-02-22T15:20:17Z</time>
      </trkpt>
      <trkpt lat="39.0986830" lon="1.4636450">
        <ele>21.6</ele>
        <time>2020-02-22T15:20:18Z</time>
      </trkpt>
      <trkpt lat="39.0986830" lon="1.4636450">
        <ele>21.6</ele>
        <time>2020-02-22T15:20:19Z</time>
      </trkpt>
      <trkpt lat="39.0986820" lon="1.4636440">
        <ele>21.6</ele>
        <time>2020-02-22T15:20:20Z</time>
      </trkpt>
      <trkpt lat="39.0986820" lon="1.4636430">
        <ele>21.6</ele>
        <time>2020-02-22T15:20:21Z</time>
      </trkpt>
      <trkpt lat="39.0986820" lon="1.4636430">
        <ele>21.6</ele>
        <time>2020-02-22T15:20:22Z</time>
      </trkpt>
      <trkpt lat="39.0986810" lon="1.4636420">
        <ele>21.6</ele>
        <time>2020-02-22T15:20:23Z</time>
      </trkpt>
      <trkpt lat="39.0986810" lon="1.4636410">
        <ele>21.6</ele>
        <time>2020-02-22T15:20:24Z</time>
      </trkpt>
      <trkpt lat="39.0986810" lon="1.4636400">
        <ele>21.6</ele>
        <time>2020-02-22T15:29:46Z</time>
      </trkpt>
      <trkpt lat="39.0986800" lon="1.4636400">
        <ele>21.5</ele>
        <time>2020-02-22T15:29:47Z</time>
      </trkpt>
      <trkpt lat="39.0986800" lon="1.4636390">
        <ele>21.5</ele>
        <time>2020-02-22T15:29:48Z</time>
      </trkpt>
      <trkpt lat="39.0986860" lon="1.4636440">
        <ele>21.5</ele>
        <time>2020-02-22T15:29:49Z</time>
      </trkpt>
      <trkpt lat="39.0986870" lon="1.4636450">
        <ele>21.5</ele>
        <time>2020-02-22T15:29:50Z</time>
      </trkpt>
      <trkpt lat="39.0986880" lon="1.4636470">
        <ele>21.5</ele>
        <time>2020-02-22T15:29:51Z</time>
      </trkpt>
      <trkpt lat="39.0986890" lon="1.4636480">
        <ele>21.5</ele>
        <time>2020-02-22T15:29:52Z</time>
      </trkpt>
      <trkpt lat="39.0986900" lon="1.4636490">
        <ele>21.5</ele>
        <time>2020-02-22T15:29:53Z</time>
      </trkpt>
      <trkpt lat="39.0986920" lon="1.4636500">
        <ele>21.5</ele>
        <time>2020-02-22T15:29:54Z</time>
      </trkpt>
      <trkpt lat="39.0986930" lon="1.4636520">
        <ele>21.4</ele>
        <time>2020-02-22T15:29:55Z</time>
      </trkpt>
      <trkpt lat="39.0986940" lon="1.4636530">
        <ele>21.4</ele>
        <time>2020-02-22T15:29:56Z</time>
      </trkpt>
      <trkpt lat="39.0986950" lon="1.4636540">
        <ele>21.4</ele>
        <time>2020-02-22T15:29:57Z</time>
      </trkpt>
      <trkpt lat="39.0986960" lon="1.4636550">
        <ele>21.4</ele>
        <time>2020-02-22T15:29:58Z</time>
      </trkpt>
      <trkpt lat="39.0986970" lon="1.4636570">
        <ele>21.4</ele>
        <time>2020-02-22T15:29:59Z</time>
      </trkpt>
      <trkpt lat="39.0986980" lon="1.4636580">
        <ele>21.4</ele>
        <time>2020-02-22T15:30:00Z</time>
      </trkpt>
      <trkpt lat="39.0986990" lon="1.4636590">
        <ele>21.4</ele>
        <time>2020-02-22T15:30:01Z</time>
      </trkpt>
      <trkpt lat="39.0987000" lon="1.4636600">
        <ele>21.4</ele>
        <time>2020-02-22T15:30:02Z</time>
      </trkpt>
      <trkpt lat="39.0987010" lon="1.4636610">
        <ele>21.4</ele>
        <time>2020-02-22T15:30:03Z</time>
      </trkpt>
      <trkpt lat="39.0987020" lon="1.4636630">
        <ele>21.4</ele>
        <time>2020-02-22T15:30:04Z</time>
      </trkpt>
      <trkpt lat="39.0987030" lon="1.4636640">
        <ele>21.4</ele>
        <time>2020-02-22T15:30:05Z</time>
      </trkpt>
      <trkpt lat="39.0987050" lon="1.4636650">
        <ele>21.3</ele>
        <time>2020-02-22T15:30:50Z</time>
      </trkpt>
      <trkpt lat="39.0987060" lon="1.4636660">
        <ele>21.3</ele>
        <time>2020-02-22T15:30:51Z</time>
      </trkpt>
      <trkpt lat="39.0987070" lon="1.4636680">
        <ele>21.3</ele>
        <time>2020-02-22T15:30:52Z</time>
      </trkpt>
      <trkpt lat="39.0987080" lon="1.4636690">
        <ele>21.3</ele>
        <time>2020-02-22T15:30:53Z</time>
      </trkpt>
      <trkpt lat="39.0987090" lon="1.4636700">
        <ele>21.3</ele>
        <time>2020-02-22T15:30:54Z</time>
      </trkpt>
      <trkpt lat="39.0987100" lon="1.4636710">
        <ele>21.3</ele>
        <time>2020-02-22T15:30:55Z</time>
      </trkpt>
      <trkpt lat="39.0987110" lon="1.4636720">
        <ele>21.3</ele>
        <time>2020-02-22T15:30:56Z</time>
      </trkpt>
      <trkpt lat="39.0987120" lon="1.4636740">
        <ele>21.3</ele>
        <time>2020-02-22T15:30:57Z</time>
      </trkpt>
      <trkpt lat="39.0987130" lon="1.4636750">
        <ele>21.3</ele>
        <time>2020-02-22T15:30:58Z</time>
      </trkpt>
      <trkpt lat="39.0987140" lon="1.4636760">
        <ele>21.3</ele>
        <time>2020-02-22T15:30:59Z</time>
      </trkpt>
      <trkpt lat="39.0987150" lon="1.4636770">
        <ele>21.3</ele>
        <time>2020-02-22T15:31:00Z</time>
      </trkpt>
      <trkpt lat="39.0987160" lon="1.4636790">
        <ele>21.3</ele>
        <time>2020-02-22T15:31:01Z</time>
      </trkpt>
      <trkpt lat="39.0987180" lon="1.4636800">
        <ele>21.2</ele>
        <time>2020-02-22T15:31:02Z</time>
      </trkpt>
      <trkpt lat="39.0987190" lon="1.4636810">
        <ele>21.2</ele>
        <time>2020-02-22T15:31:03Z</time>
      </trkpt>
      <trkpt lat="39.0987200" lon="1.4636820">
        <ele>21.2</ele>
        <time>2020-02-22T15:31:04Z</time>
      </trkpt>
      <trkpt lat="39.0987210" lon="1.4636840">
        <ele>21.2</ele>
        <time>2020-02-22T15:31:58Z</time>
      </trkpt>
      <trkpt lat="39.0987220" lon="1.4636850">
        <ele>21.2</ele>
        <time>2020-02-22T15:31:59Z</time>
      </trkpt>
      <trkpt lat="39.0987230" lon="1.4636860">
        <ele>21.2</ele>
        <time>2020-02-22T15:32:00Z</time>
      </trkpt>
      <trkpt lat="39.0987250" lon="1.4637090">
        <ele>21.1</ele>
        <time>2020-02-22T15:32:01Z</time>
      </trkpt>
      <trkpt lat="39.0987270" lon="1.4637060">
        <ele>21.1</ele>
        <time>2020-02-22T15:32:02Z</time>
      </trkpt>
      <trkpt lat="39.0987290" lon="1.4637040">
        <ele>21.1</ele>
        <time>2020-02-22T15:32:03Z</time>
      </trkpt>
      <trkpt lat="39.0987330" lon="1.4636990">
        <ele>21.0</ele>
        <time>2020-02-22T15:32:04Z</time>
      </trkpt>
      <trkpt lat="39.0987340" lon="1.4637010">
        <ele>21.0</ele>
        <time>2020-02-22T15:32:05Z</time>
      </trkpt>
      <trkpt lat="39.0987340" lon="1.4637010">
        <ele>21.0</ele>
        <time>2020-02-22T15:32:06Z</time>
      </trkpt>
      <trkpt lat="39.0987340" lon="1.4637010">
        <ele>21.0</ele>
        <time>2020-02-22T15:32:07Z</time>
      </trkpt>
      <trkpt lat="39.0987340" lon="1.4637000">
        <ele>21.0</ele>
        <time>2020-02-22T15:32:08Z</time>
      </trkpt>
      <trkpt lat="39.0987340" lon="1.4637000">
        <ele>21.0</ele>
        <time>2020-02-22T15:32:09Z</time>
      </trkpt>
      <trkpt lat="39.0987350" lon="1.4637020">
        <ele>21.0</ele>
        <time>2020-02-22T15:32:10Z</time>
      </trkpt>
      <trkpt lat="39.0987340" lon="1.4637020">
        <ele>21.0</ele>
        <time>2020-02-22T15:32:11Z</time>
      </trkpt>
      <trkpt lat="39.0987350" lon="1.4637040">
        <ele>21.0</ele>
        <time>2020-02-22T15:32:12Z</time>
      </trkpt>
      <trkpt lat="39.0987520" lon="1.4637860">
        <ele>20.5</ele>
        <time>2020-02-22T15:32:16Z</time>
      </trkpt>
      <trkpt lat="39.0987500" lon="1.4638250">
        <ele>20.2</ele>
        <time>2020-02-22T15:32:17Z</time>
      </trkpt>
      <trkpt lat="39.0987560" lon="1.4638730">
        <ele>19.9</ele>
        <time>2020-02-22T15:32:18Z</time>
      </trkpt>
      <trkpt lat="39.0987590" lon="1.4639110">
        <ele>19.7</ele>
        <time>2020-02-22T15:32:19Z</time>
      </trkpt>
      <trkpt lat="39.0987610" lon="1.4639680">
        <ele>19.3</ele>
        <time>2020-02-22T15:32:20Z</time>
      </trkpt>
      <trkpt lat="39.0987630" lon="1.4640190">
        <ele>18.9</ele>
        <time>2020-02-22T15:32:21Z</time>
      </trkpt>
      <trkpt lat="39.0987610" lon="1.4640660">
        <ele>18.6</ele>
        <time>2020-02-22T15:32:22Z</time>
      </trkpt>
      <trkpt lat="39.0987650" lon="1.4641180">
        <ele>18.3</ele>
        <time>2020-02-22T15:32:23Z</time>
      </trkpt>
      <trkpt lat="39.0987720" lon="1.4641800">
        <ele>17.9</ele>
        <time>2020-02-22T15:32:24Z</time>
      </trkpt>
      <trkpt lat="39.0987880" lon="1.4642370">
        <ele>17.5</ele>
        <time>2020-02-22T15:32:25Z</time>
      </trkpt>
      <trkpt lat="39.0987940" lon="1.4642640">
        <ele>17.3</ele>
        <time>2020-02-22T15:32:26Z</time>
      </trkpt>
      <trkpt lat="39.0988100" lon="1.4643220">
        <ele>16.9</ele>
        <time>2020-02-22T15:32:27Z</time>
      </trkpt>
      <trkpt lat="39.0988170" lon="1.4643880">
        <ele>16.5</ele>
        <time>2020-02-22T15:32:28Z</time>
      </trkpt>
      <trkpt lat="39.0988210" lon="1.4644710">
        <ele>16.1</ele>
        <time>2020-02-22T15:32:29Z</time>
      </trkpt>
      <trkpt lat="39.0988310" lon="1.4645420">
        <ele>15.7</ele>
        <time>2020-02-22T15:32:30Z</time>
      </trkpt>
      <trkpt lat="39.0988390" lon="1.4646130">
        <ele>15.4</ele>
        <time>2020-02-22T15:32:31Z</time>
      </trkpt>
      <trkpt lat="39.0988490" lon="1.4646900">
        <ele>15.0</ele>
        <time>2020-02-22T15:32:32Z</time>
      </trkpt>
      <trkpt lat="39.0988550" lon="1.4647750">
        <ele>14.7</ele>
        <time>2020-02-22T15:32:33Z</time>
      </trkpt>
      <trkpt lat="39.0988650" lon="1.4648530">
        <ele>14.4</ele>
        <time>2020-02-22T15:32:34Z</time>
      </trkpt>
      <trkpt lat="39.0988780" lon="1.4649320">
        <ele>14.2</ele>
        <time>2020-02-22T15:32:35Z</time>
      </trkpt>
      <trkpt lat="39.0988950" lon="1.4650110">
        <ele>14.0</ele>
        <time>2020-02-22T15:32:36Z</time>
      </trkpt>
      <trkpt lat="39.0989090" lon="1.4650940">
        <ele>13.6</ele>
        <time>2020-02-22T15:32:37Z</time>
      </trkpt>
      <trkpt lat="39.0989260" lon="1.4651680">
        <ele>13.4</ele>
        <time>2020-02-22T15:32:38Z</time>
      </trkpt>
      <trkpt lat="39.0989320" lon="1.4652490">
        <ele>13.1</ele>
        <time>2020-02-22T15:32:39Z</time>
      </trkpt>
      <trkpt lat="39.0989430" lon="1.4653170">
        <ele>12.8</ele>
        <time>2020-02-22T15:32:40Z</time>
      </trkpt>
      <trkpt lat="39.0989400" lon="1.4653860">
        <ele>12.5</ele>
        <time>2020-02-22T15:32:41Z</time>
      </trkpt>
      <trkpt lat="39.0989230" lon="1.4654550">
        <ele>12.2</ele>
        <time>2020-02-22T15:32:42Z</time>
      </trkpt>
      <trkpt lat="39.0988950" lon="1.4654920">
        <ele>12.0</ele>
        <time>2020-02-22T15:32:43Z</time>
      </trkpt>
      <trkpt lat="39.0988670" lon="1.4655380">
        <ele>11.7</ele>
        <time>2020-02-22T15:32:44Z</time>
      </trkpt>
      <trkpt lat="39.0988360" lon="1.4655970">
        <ele>11.5</ele>
        <time>2020-02-22T15:32:45Z</time>
      </trkpt>
      <trkpt lat="39.0988150" lon="1.4656470">
        <ele>11.3</ele>
        <time>2020-02-22T15:32:46Z</time>
      </trkpt>
      <trkpt lat="39.0987810" lon="1.4657130">
        <ele>11.1</ele>
        <time>2020-02-22T15:32:47Z</time>
      </trkpt>
      <trkpt lat="39.0987490" lon="1.4657730">
        <ele>10.8</ele>
        <time>2020-02-22T15:32:48Z</time>
      </trkpt>
      <trkpt lat="39.0987120" lon="1.4658290">
        <ele>10.6</ele>
        <time>2020-02-22T15:32:49Z</time>
      </trkpt>
      <trkpt lat="39.0986820" lon="1.4658930">
        <ele>10.3</ele>
        <time>2020-02-22T15:32:50Z</time>
      </trkpt>
      <trkpt lat="39.0986530" lon="1.4659470">
        <ele>9.9</ele>
        <time>2020-02-22T15:32:51Z</time>
      </trkpt>
      <trkpt lat="39.0986250" lon="1.4659910">
        <ele>9.5</ele>
        <time>2020-02-22T15:32:52Z</time>
      </trkpt>
      <trkpt lat="39.0986150" lon="1.4660400">
        <ele>9.2</ele>
        <time>2020-02-22T15:32:53Z</time>
      </trkpt>
      <trkpt lat="39.0986450" lon="1.4660790">
        <ele>8.8</ele>
        <time>2020-02-22T15:32:54Z</time>
      </trkpt>
      <trkpt lat="39.0986870" lon="1.4660500">
        <ele>8.4</ele>
        <time>2020-02-22T15:32:55Z</time>
      </trkpt>
      <trkpt lat="39.0987050" lon="1.4660210">
        <ele>8.2</ele>
        <time>2020-02-22T15:32:56Z</time>
      </trkpt>
      <trkpt lat="39.0987580" lon="1.4659620">
        <ele>7.4</ele>
        <time>2020-02-22T15:32:57Z</time>
      </trkpt>
      <trkpt lat="39.0988080" lon="1.4659070">
        <ele>6.7</ele>
        <time>2020-02-22T15:32:58Z</time>
      </trkpt>
      <trkpt lat="39.0988510" lon="1.4658780">
        <ele>6.1</ele>
        <time>2020-02-22T15:32:59Z</time>
      </trkpt>
      <trkpt lat="39.0988960" lon="1.4658760">
        <ele>5.6</ele>
        <time>2020-02-22T15:33:00Z</time>
      </trkpt>
      <trkpt lat="39.0989290" lon="1.4659220">
        <ele>4.9</ele>
        <time>2020-02-22T15:33:01Z</time>
      </trkpt>
      <trkpt lat="39.0989350" lon="1.4659560">
        <ele>4.7</ele>
        <time>2020-02-22T15:33:02Z</time>
      </trkpt>
      <trkpt lat="39.0989130" lon="1.4659920">
        <ele>4.4</ele>
        <time>2020-02-22T15:33:03Z</time>
      </trkpt>
      <trkpt lat="39.0988720" lon="1.4660260">
        <ele>3.9</ele>
        <time>2020-02-22T15:33:04Z</time>
      </trkpt>
      <trkpt lat="39.0988410" lon="1.4660800">
        <ele>3.5</ele>
        <time>2020-02-22T15:33:05Z</time>
      </trkpt>
      <trkpt lat="39.0988300" lon="1.4661510">
        <ele>3.0</ele>
        <time>2020-02-22T15:33:06Z</time>
      </trkpt>
      <trkpt lat="39.0988440" lon="1.4662120">
        <ele>2.7</ele>
        <time>2020-02-22T15:33:07Z</time>
      </trkpt>
      <trkpt lat="39.0988720" lon="1.4662770">
        <ele>2.5</ele>
        <time>2020-02-22T15:33:08Z</time>
      </trkpt>
      <trkpt lat="39.0988970" lon="1.4663360">
        <ele>2.5</ele>
        <time>2020-02-22T15:33:09Z</time>
      </trkpt>
      <trkpt lat="39.0989240" lon="1.4663820">
        <ele>2.6</ele>
        <time>2020-02-22T15:33:10Z</time>
      </trkpt>
      <trkpt lat="39.0989460" lon="1.4664260">
        <ele>2.8</ele>
        <time>2020-02-22T15:33:11Z</time>
      </trkpt>
      <trkpt lat="39.0989570" lon="1.4664590">
        <ele>3.2</ele>
        <time>2020-02-22T15:33:12Z</time>
      </trkpt>
      <trkpt lat="39.0989540" lon="1.4665010">
        <ele>3.7</ele>
        <time>2020-02-22T15:33:13Z</time>
      </trkpt>
      <trkpt lat="39.0989450" lon="1.4665400">
        <ele>4.3</ele>
        <time>2020-02-22T15:33:14Z</time>
      </trkpt>
      <trkpt lat="39.0989430" lon="1.4665750">
        <ele>4.8</ele>
        <time>2020-02-22T15:33:15Z</time>
      </trkpt>
      <trkpt lat="39.0989570" lon="1.4665960">
        <ele>5.4</ele>
        <time>2020-02-22T15:33:16Z</time>
      </trkpt>
      <trkpt lat="39.0989730" lon="1.4665990">
        <ele>5.8</ele>
        <time>2020-02-22T15:33:17Z</time>
      </trkpt>
      <trkpt lat="39.0989900" lon="1.4665730">
        <ele>6.0</ele>
        <time>2020-02-22T15:33:18Z</time>
      </trkpt>
      <trkpt lat="39.0989960" lon="1.4665610">
        <ele>6.5</ele>
        <time>2020-02-22T15:33:19Z</time>
      </trkpt>
      <trkpt lat="39.0990070" lon="1.4665290">
        <ele>6.7</ele>
        <time>2020-02-22T15:33:20Z</time>
      </trkpt>
      <trkpt lat="39.0990210" lon="1.4664950">
        <ele>6.8</ele>
        <time>2020-02-22T15:33:21Z</time>
      </trkpt>
      <trkpt lat="39.0990270" lon="1.4664460">
        <ele>7.0</ele>
        <time>2020-02-22T15:33:22Z</time>
      </trkpt>
      <trkpt lat="39.0990280" lon="1.4664270">
        <ele>7.5</ele>
        <time>2020-02-22T15:33:23Z</time>
      </trkpt>
      <trkpt lat="39.0990400" lon="1.4663900">
        <ele>7.5</ele>
        <time>2020-02-22T15:33:24Z</time>
      </trkpt>
      <trkpt lat="39.0990460" lon="1.4663720">
        <ele>7.6</ele>
        <time>2020-02-22T15:33:25Z</time>
      </trkpt>
      <trkpt lat="39.0990510" lon="1.4663480">
        <ele>8.0</ele>
        <time>2020-02-22T15:33:26Z</time>
      </trkpt>
      <trkpt lat="39.0990660" lon="1.4663350">
        <ele>8.3</ele>
        <time>2020-02-22T15:33:27Z</time>
      </trkpt>
      <trkpt lat="39.0990750" lon="1.4663210">
        <ele>8.3</ele>
        <time>2020-02-22T15:33:28Z</time>
      </trkpt>
      <trkpt lat="39.0990880" lon="1.4663160">
        <ele>8.7</ele>
        <time>2020-02-22T15:33:29Z</time>
      </trkpt>
      <trkpt lat="39.0991060" lon="1.4663110">
        <ele>8.9</ele>
        <time>2020-02-22T15:33:30Z</time>
      </trkpt>
      <trkpt lat="39.0991300" lon="1.4662880">
        <ele>8.6</ele>
        <time>2020-02-22T15:33:31Z</time>
      </trkpt>
      <trkpt lat="39.0991370" lon="1.4662810">
        <ele>9.0</ele>
        <time>2020-02-22T15:33:32Z</time>
      </trkpt>
      <trkpt lat="39.0991660" lon="1.4662680">
        <ele>9.1</ele>
        <time>2020-02-22T15:33:33Z</time>
      </trkpt>
      <trkpt lat="39.0991730" lon="1.4662600">
        <ele>9.5</ele>
        <time>2020-02-22T15:33:34Z</time>
      </trkpt>
      <trkpt lat="39.0992010" lon="1.4662310">
        <ele>9.4</ele>
        <time>2020-02-22T15:33:35Z</time>
      </trkpt>
      <trkpt lat="39.0992080" lon="1.4662220">
        <ele>9.8</ele>
        <time>2020-02-22T15:33:36Z</time>
      </trkpt>
      <trkpt lat="39.0992200" lon="1.4662080">
        <ele>10.2</ele>
        <time>2020-02-22T15:33:37Z</time>
      </trkpt>
      <trkpt lat="39.0992280" lon="1.4661970">
        <ele>10.4</ele>
        <time>2020-02-22T15:33:38Z</time>
      </trkpt>
      <trkpt lat="39.0992350" lon="1.4661870">
        <ele>10.8</ele>
        <time>2020-02-22T15:33:39Z</time>
      </trkpt>
      <trkpt lat="39.0992420" lon="1.4661760">
        <ele>11.2</ele>
        <time>2020-02-22T15:33:40Z</time>
      </trkpt>
      <trkpt lat="39.0992500" lon="1.4661590">
        <ele>11.3</ele>
        <time>2020-02-22T15:33:41Z</time>
      </trkpt>
      <trkpt lat="39.0992570" lon="1.4661610">
        <ele>11.3</ele>
        <time>2020-02-22T15:33:42Z</time>
      </trkpt>
      <trkpt lat="39.0992660" lon="1.4661480">
        <ele>11.4</ele>
        <time>2020-02-22T15:33:43Z</time>
      </trkpt>
      <trkpt lat="39.0992720" lon="1.4661410">
        <ele>11.5</ele>
        <time>2020-02-22T15:33:44Z</time>
      </trkpt>
      <trkpt lat="39.0992770" lon="1.4661330">
        <ele>11.5</ele>
        <time>2020-02-22T15:33:45Z</time>
      </trkpt>
      <trkpt lat="39.0992820" lon="1.4661250">
        <ele>11.6</ele>
        <time>2020-02-22T15:33:46Z</time>
      </trkpt>
      <trkpt lat="39.0992840" lon="1.4661290">
        <ele>11.6</ele>
        <time>2020-02-22T15:33:47Z</time>
      </trkpt>
      <trkpt lat="39.0992830" lon="1.4661340">
        <ele>11.6</ele>
        <time>2020-02-22T15:33:48Z</time>
      </trkpt>
      <trkpt lat="39.0992820" lon="1.4661390">
        <ele>11.7</ele>
        <time>2020-02-22T15:33:49Z</time>
      </trkpt>
      <trkpt lat="39.0992810" lon="1.4661440">
        <ele>11.7</ele>
        <time>2020-02-22T15:33:50Z</time>
      </trkpt>
      <trkpt lat="39.0992800" lon="1.4661490">
        <ele>11.7</ele>
        <time>2020-02-22T15:33:51Z</time>
      </trkpt>
      <trkpt lat="39.0992790" lon="1.4661540">
        <ele>11.7</ele>
        <time>2020-02-22T15:33:52Z</time>
      </trkpt>
      <trkpt lat="39.0992770" lon="1.4661580">
        <ele>11.8</ele>
        <time>2020-02-22T15:33:53Z</time>
      </trkpt>
      <trkpt lat="39.0992760" lon="1.4661630">
        <ele>11.8</ele>
        <time>2020-02-22T15:33:54Z</time>
      </trkpt>
      <trkpt lat="39.0992750" lon="1.4661680">
        <ele>11.8</ele>
        <time>2020-02-22T15:33:55Z</time>
      </trkpt>
      <trkpt lat="39.0992740" lon="1.4661730">
        <ele>11.8</ele>
        <time>2020-02-22T15:33:56Z</time>
      </trkpt>
      <trkpt lat="39.0992730" lon="1.4661780">
        <ele>11.9</ele>
        <time>2020-02-22T15:34:14Z</time>
      </trkpt>
      <trkpt lat="39.0992720" lon="1.4661830">
        <ele>11.9</ele>
        <time>2020-02-22T15:34:15Z</time>
      </trkpt>
      <trkpt lat="39.0992710" lon="1.4661880">
        <ele>11.9</ele>
        <time>2020-02-22T15:34:16Z</time>
      </trkpt>
      <trkpt lat="39.0992800" lon="1.4662090">
        <ele>12.0</ele>
        <time>2020-02-22T15:34:17Z</time>
      </trkpt>
      <trkpt lat="39.0992780" lon="1.4662160">
        <ele>12.1</ele>
        <time>2020-02-22T15:34:18Z</time>
      </trkpt>
      <trkpt lat="39.0992730" lon="1.4662270">
        <ele>12.1</ele>
        <time>2020-02-22T15:34:19Z</time>
      </trkpt>
      <trkpt lat="39.0992620" lon="1.4662550">
        <ele>12.3</ele>
        <time>2020-02-22T15:34:20Z</time>
      </trkpt>
      <trkpt lat="39.0992550" lon="1.4662690">
        <ele>12.4</ele>
        <time>2020-02-22T15:34:21Z</time>
      </trkpt>
      <trkpt lat="39.0992490" lon="1.4662840">
        <ele>12.5</ele>
        <time>2020-02-22T15:34:22Z</time>
      </trkpt>
      <trkpt lat="39.0992500" lon="1.4663310">
        <ele>12.8</ele>
        <time>2020-02-22T15:34:23Z</time>
      </trkpt>
      <trkpt lat="39.0992500" lon="1.4663440">
        <ele>12.9</ele>
        <time>2020-02-22T15:34:24Z</time>
      </trkpt>
      <trkpt lat="39.0992510" lon="1.4663660">
        <ele>13.0</ele>
        <time>2020-02-22T15:34:25Z</time>
      </trkpt>
      <trkpt lat="39.0992510" lon="1.4663840">
        <ele>13.1</ele>
        <time>2020-02-22T15:34:26Z</time>
      </trkpt>
      <trkpt lat="39.0992470" lon="1.4664040">
        <ele>13.3</ele>
        <time>2020-02-22T15:34:27Z</time>
      </trkpt>
      <trkpt lat="39.0992320" lon="1.4664210">
        <ele>13.4</ele>
        <time>2020-02-22T15:34:28Z</time>
      </trkpt>
      <trkpt lat="39.0992200" lon="1.4664380">
        <ele>13.6</ele>
        <time>2020-02-22T15:34:29Z</time>
      </trkpt>
      <trkpt lat="39.0992090" lon="1.4664510">
        <ele>13.7</ele>
        <time>2020-02-22T15:34:30Z</time>
      </trkpt>
      <trkpt lat="39.0991930" lon="1.4664610">
        <ele>13.9</ele>
        <time>2020-02-22T15:34:31Z</time>
      </trkpt>
      <trkpt lat="39.0991870" lon="1.4664820">
        <ele>14.0</ele>
        <time>2020-02-22T15:34:32Z</time>
      </trkpt>
      <trkpt lat="39.0991740" lon="1.4665120">
        <ele>14.2</ele>
        <time>2020-02-22T15:34:33Z</time>
      </trkpt>
      <trkpt lat="39.0991680" lon="1.4665220">
        <ele>14.3</ele>
        <time>2020-02-22T15:34:34Z</time>
      </trkpt>
      <trkpt lat="39.0991430" lon="1.4665410">
        <ele>14.5</ele>
        <time>2020-02-22T15:34:35Z</time>
      </trkpt>
      <trkpt lat="39.0991350" lon="1.4665460">
        <ele>14.6</ele>
        <time>2020-02-22T15:34:36Z</time>
      </trkpt>
      <trkpt lat="39.0991290" lon="1.4665650">
        <ele>14.7</ele>
        <time>2020-02-22T15:34:37Z</time>
      </trkpt>
      <trkpt lat="39.0991190" lon="1.4665870">
        <ele>14.9</ele>
        <time>2020-02-22T15:34:38Z</time>
      </trkpt>
      <trkpt lat="39.0991130" lon="1.4666290">
        <ele>15.1</ele>
        <time>2020-02-22T15:34:39Z</time>
      </trkpt>
      <trkpt lat="39.0991120" lon="1.4666430">
        <ele>15.2</ele>
        <time>2020-02-22T15:34:40Z</time>
      </trkpt>
      <trkpt lat="39.0991220" lon="1.4666860">
        <ele>15.4</ele>
        <time>2020-02-22T15:34:41Z</time>
      </trkpt>
      <trkpt lat="39.0991240" lon="1.4666990">
        <ele>15.5</ele>
        <time>2020-02-22T15:34:42Z</time>
      </trkpt>
      <trkpt lat="39.0991280" lon="1.4667250">
        <ele>15.7</ele>
        <time>2020-02-22T15:34:43Z</time>
      </trkpt>
      <trkpt lat="39.0991270" lon="1.4667440">
        <ele>15.8</ele>
        <time>2020-02-22T15:34:44Z</time>
      </trkpt>
      <trkpt lat="39.0991270" lon="1.4667670">
        <ele>15.9</ele>
        <time>2020-02-22T15:34:45Z</time>
      </trkpt>
      <trkpt lat="39.0991280" lon="1.4667900">
        <ele>16.0</ele>
        <time>2020-02-22T15:34:46Z</time>
      </trkpt>
      <trkpt lat="39.0991340" lon="1.4668040">
        <ele>16.1</ele>
        <time>2020-02-22T15:34:47Z</time>
      </trkpt>
      <trkpt lat="39.0991510" lon="1.4668180">
        <ele>16.3</ele>
        <time>2020-02-22T15:34:48Z</time>
      </trkpt>
      <trkpt lat="39.0991660" lon="1.4668530">
        <ele>16.5</ele>
        <time>2020-02-22T15:34:49Z</time>
      </trkpt>
      <trkpt lat="39.0991710" lon="1.4668630">
        <ele>16.6</ele>
        <time>2020-02-22T15:34:50Z</time>
      </trkpt>
      <trkpt lat="39.0991850" lon="1.4668830">
        <ele>16.8</ele>
        <time>2020-02-22T15:34:51Z</time>
      </trkpt>
      <trkpt lat="39.0991900" lon="1.4668990">
        <ele>16.9</ele>
        <time>2020-02-22T15:34:52Z</time>
      </trkpt>
      <trkpt lat="39.0991940" lon="1.4669140">
        <ele>17.0</ele>
        <time>2020-02-22T15:34:53Z</time>
      </trkpt>
      <trkpt lat="39.0991960" lon="1.4669370">
        <ele>17.1</ele>
        <time>2020-02-22T15:34:54Z</time>
      </trkpt>
      <trkpt lat="39.0991990" lon="1.4669570">
        <ele>17.2</ele>
        <time>2020-02-22T15:34:55Z</time>
      </trkpt>
      <trkpt lat="39.0992170" lon="1.4669860">
        <ele>17.5</ele>
        <time>2020-02-22T15:34:56Z</time>
      </trkpt>
      <trkpt lat="39.0992260" lon="1.4669970">
        <ele>17.6</ele>
        <time>2020-02-22T15:34:57Z</time>
      </trkpt>
      <trkpt lat="39.0992470" lon="1.4670370">
        <ele>17.9</ele>
        <time>2020-02-22T15:34:58Z</time>
      </trkpt>
      <trkpt lat="39.0992560" lon="1.4670570">
        <ele>18.1</ele>
        <time>2020-02-22T15:34:59Z</time>
      </trkpt>
      <trkpt lat="39.0992670" lon="1.4670940">
        <ele>18.3</ele>
        <time>2020-02-22T15:35:00Z</time>
      </trkpt>
      <trkpt lat="39.0992700" lon="1.4671060">
        <ele>18.4</ele>
        <time>2020-02-22T15:35:01Z</time>
      </trkpt>
      <trkpt lat="39.0992740" lon="1.4671280">
        <ele>18.6</ele>
        <time>2020-02-22T15:35:02Z</time>
      </trkpt>
      <trkpt lat="39.0992720" lon="1.4671430">
        <ele>18.7</ele>
        <time>2020-02-22T15:35:03Z</time>
      </trkpt>
      <trkpt lat="39.0992770" lon="1.4671590">
        <ele>18.8</ele>
        <time>2020-02-22T15:35:04Z</time>
      </trkpt>
      <trkpt lat="39.0992810" lon="1.4671870">
        <ele>18.9</ele>
        <time>2020-02-22T15:35:05Z</time>
      </trkpt>
      <trkpt lat="39.0992810" lon="1.4672070">
        <ele>19.1</ele>
        <time>2020-02-22T15:35:06Z</time>
      </trkpt>
      <trkpt lat="39.0992760" lon="1.4672250">
        <ele>19.2</ele>
        <time>2020-02-22T15:35:07Z</time>
      </trkpt>
      <trkpt lat="39.0992680" lon="1.4672440">
        <ele>19.3</ele>
        <time>2020-02-22T15:35:08Z</time>
      </trkpt>
      <trkpt lat="39.0992700" lon="1.4672630">
        <ele>19.4</ele>
        <time>2020-02-22T15:35:09Z</time>
      </trkpt>
      <trkpt lat="39.0992790" lon="1.4672820">
        <ele>19.6</ele>
        <time>2020-02-22T15:35:10Z</time>
      </trkpt>
      <trkpt lat="39.0992750" lon="1.4673050">
        <ele>19.7</ele>
        <time>2020-02-22T15:35:11Z</time>
      </trkpt>
      <trkpt lat="39.0992580" lon="1.4673220">
        <ele>19.9</ele>
        <time>2020-02-22T15:35:12Z</time>
      </trkpt>
      <trkpt lat="39.0992590" lon="1.4673360">
        <ele>20.0</ele>
        <time>2020-02-22T15:35:13Z</time>
      </trkpt>
      <trkpt lat="39.0992520" lon="1.4673800">
        <ele>20.4</ele>
        <time>2020-02-22T15:35:14Z</time>
      </trkpt>
      <trkpt lat="39.0992480" lon="1.4673900">
        <ele>20.4</ele>
        <time>2020-02-22T15:35:15Z</time>
      </trkpt>
      <trkpt lat="39.0992310" lon="1.4674260">
        <ele>20.7</ele>
        <time>2020-02-22T15:35:16Z</time>
      </trkpt>
      <trkpt lat="39.0992230" lon="1.4674360">
        <ele>20.8</ele>
        <time>2020-02-22T15:35:17Z</time>
      </trkpt>
      <trkpt lat="39.0992060" lon="1.4674650">
        <ele>21.1</ele>
        <time>2020-02-22T15:35:18Z</time>
      </trkpt>
      <trkpt lat="39.0992050" lon="1.4674830">
        <ele>21.2</ele>
        <time>2020-02-22T15:35:19Z</time>
      </trkpt>
      <trkpt lat="39.0992080" lon="1.4675060">
        <ele>21.4</ele>
        <time>2020-02-22T15:35:20Z</time>
      </trkpt>
      <trkpt lat="39.0992030" lon="1.4675190">
        <ele>21.5</ele>
        <time>2020-02-22T15:35:21Z</time>
      </trkpt>
      <trkpt lat="39.0991990" lon="1.4675410">
        <ele>21.6</ele>
        <time>2020-02-22T15:35:22Z</time>
      </trkpt>
      <trkpt lat="39.0991830" lon="1.4675660">
        <ele>21.9</ele>
        <time>2020-02-22T15:35:23Z</time>
      </trkpt>
      <trkpt lat="39.0991730" lon="1.4675730">
        <ele>22.0</ele>
        <time>2020-02-22T15:35:24Z</time>
      </trkpt>
      <trkpt lat="39.0991620" lon="1.4675790">
        <ele>22.1</ele>
        <time>2020-02-22T15:35:25Z</time>
      </trkpt>
      <trkpt lat="39.0991490" lon="1.4676100">
        <ele>22.3</ele>
        <time>2020-02-22T15:35:26Z</time>
      </trkpt>
      <trkpt lat="39.0991450" lon="1.4676210">
        <ele>22.4</ele>
        <time>2020-02-22T15:35:27Z</time>
      </trkpt>
      <trkpt lat="39.0991480" lon="1.4676560">
        <ele>22.7</ele>
        <time>2020-02-22T15:35:28Z</time>
      </trkpt>
      <trkpt lat="39.0991630" lon="1.4677010">
        <ele>23.2</ele>
        <time>2020-02-22T15:35:29Z</time>
      </trkpt>
      <trkpt lat="39.0991650" lon="1.4677210">
        <ele>23.4</ele>
        <time>2020-02-22T15:35:30Z</time>
      </trkpt>
      <trkpt lat="39.0991610" lon="1.4677670">
        <ele>23.9</ele>
        <time>2020-02-22T15:35:31Z</time>
      </trkpt>
      <trkpt lat="39.0991570" lon="1.4677840">
        <ele>24.1</ele>
        <time>2020-02-22T15:35:32Z</time>
      </trkpt>
      <trkpt lat="39.0991500" lon="1.4677960">
        <ele>24.2</ele>
        <time>2020-02-22T15:35:33Z</time>
      </trkpt>
      <trkpt lat="39.0991490" lon="1.4678190">
        <ele>24.5</ele>
        <time>2020-02-22T15:35:34Z</time>
      </trkpt>
      <trkpt lat="39.0991470" lon="1.4678410">
        <ele>24.8</ele>
        <time>2020-02-22T15:35:35Z</time>
      </trkpt>
      <trkpt lat="39.0991560" lon="1.4678570">
        <ele>25.0</ele>
        <time>2020-02-22T15:35:36Z</time>
      </trkpt>
      <trkpt lat="39.0991550" lon="1.4678820">
        <ele>25.3</ele>
        <time>2020-02-22T15:35:37Z</time>
      </trkpt>
      <trkpt lat="39.0991490" lon="1.4679000">
        <ele>25.5</ele>
        <time>2020-02-22T15:35:38Z</time>
      </trkpt>
      <trkpt lat="39.0991450" lon="1.4679170">
        <ele>25.6</ele>
        <time>2020-02-22T15:35:39Z</time>
      </trkpt>
      <trkpt lat="39.0991380" lon="1.4679330">
        <ele>25.8</ele>
        <time>2020-02-22T15:35:40Z</time>
      </trkpt>
      <trkpt lat="39.0991270" lon="1.4679560">
        <ele>26.1</ele>
        <time>2020-02-22T15:35:41Z</time>
      </trkpt>
      <trkpt lat="39.0991220" lon="1.4679710">
        <ele>26.2</ele>
        <time>2020-02-22T15:35:42Z</time>
      </trkpt>
      <trkpt lat="39.0991180" lon="1.4679850">
        <ele>26.4</ele>
        <time>2020-02-22T15:35:43Z</time>
      </trkpt>
      <trkpt lat="39.0991130" lon="1.4680230">
        <ele>26.7</ele>
        <time>2020-02-22T15:35:44Z</time>
      </trkpt>
      <trkpt lat="39.0991110" lon="1.4680340">
        <ele>26.8</ele>
        <time>2020-02-22T15:35:45Z</time>
      </trkpt>
      <trkpt lat="39.0991090" lon="1.4680550">
        <ele>27.0</ele>
        <time>2020-02-22T15:35:46Z</time>
      </trkpt>
      <trkpt lat="39.0991080" lon="1.4680730">
        <ele>27.2</ele>
        <time>2020-02-22T15:35:47Z</time>
      </trkpt>
      <trkpt lat="39.0991080" lon="1.4681070">
        <ele>27.5</ele>
        <time>2020-02-22T15:35:48Z</time>
      </trkpt>
      <trkpt lat="39.0991040" lon="1.4681210">
        <ele>27.6</ele>
        <time>2020-02-22T15:35:49Z</time>
      </trkpt>
      <trkpt lat="39.0990950" lon="1.4681500">
        <ele>27.8</ele>
        <time>2020-02-22T15:35:50Z</time>
      </trkpt>
      <trkpt lat="39.0990880" lon="1.4681630">
        <ele>27.9</ele>
        <time>2020-02-22T15:35:51Z</time>
      </trkpt>
      <trkpt lat="39.0990760" lon="1.4681910">
        <ele>28.2</ele>
        <time>2020-02-22T15:35:52Z</time>
      </trkpt>
      <trkpt lat="39.0990710" lon="1.4682030">
        <ele>28.3</ele>
        <time>2020-02-22T15:35:53Z</time>
      </trkpt>
      <trkpt lat="39.0990660" lon="1.4682150">
        <ele>28.4</ele>
        <time>2020-02-22T15:35:54Z</time>
      </trkpt>
      <trkpt lat="39.0990570" lon="1.4682540">
        <ele>28.6</ele>
        <time>2020-02-22T15:35:55Z</time>
      </trkpt>
      <trkpt lat="39.0990550" lon="1.4682660">
        <ele>28.7</ele>
        <time>2020-02-22T15:35:56Z</time>
      </trkpt>
      <trkpt lat="39.0990490" lon="1.4682830">
        <ele>28.8</ele>
        <time>2020-02-22T15:35:57Z</time>
      </trkpt>
      <trkpt lat="39.0990490" lon="1.4682930">
        <ele>28.8</ele>
        <time>2020-02-22T15:35:58Z</time>
      </trkpt>
      <trkpt lat="39.0990510" lon="1.4683100">
        <ele>28.9</ele>
        <time>2020-02-22T15:35:59Z</time>
      </trkpt>
      <trkpt lat="39.0990490" lon="1.4683550">
        <ele>29.2</ele>
        <time>2020-02-22T15:36:00Z</time>
      </trkpt>
      <trkpt lat="39.0990470" lon="1.4683710">
        <ele>29.3</ele>
        <time>2020-02-22T15:36:01Z</time>
      </trkpt>
      <trkpt lat="39.0990380" lon="1.4683900">
        <ele>29.4</ele>
        <time>2020-02-22T15:36:02Z</time>
      </trkpt>
      <trkpt lat="39.0990370" lon="1.4684140">
        <ele>29.5</ele>
        <time>2020-02-22T15:36:03Z</time>
      </trkpt>
      <trkpt lat="39.0990370" lon="1.4684380">
        <ele>29.6</ele>
        <time>2020-02-22T15:36:04Z</time>
      </trkpt>
      <trkpt lat="39.0990370" lon="1.4684550">
        <ele>29.7</ele>
        <time>2020-02-22T15:36:05Z</time>
      </trkpt>
      <trkpt lat="39.0990260" lon="1.4684780">
        <ele>29.8</ele>
        <time>2020-02-22T15:36:06Z</time>
      </trkpt>
      <trkpt lat="39.0990220" lon="1.4684910">
        <ele>29.8</ele>
        <time>2020-02-22T15:36:07Z</time>
      </trkpt>
      <trkpt lat="39.0990170" lon="1.4685030">
        <ele>29.9</ele>
        <time>2020-02-22T15:36:08Z</time>
      </trkpt>
      <trkpt lat="39.0990130" lon="1.4685130">
        <ele>29.9</ele>
        <time>2020-02-22T15:36:09Z</time>
      </trkpt>
      <trkpt lat="39.0990030" lon="1.4685390">
        <ele>30.0</ele>
        <time>2020-02-22T15:36:10Z</time>
      </trkpt>
      <trkpt lat="39.0990030" lon="1.4685420">
        <ele>30.0</ele>
        <time>2020-02-22T15:36:11Z</time>
      </trkpt>
      <trkpt lat="39.0989950" lon="1.4685530">
        <ele>30.0</ele>
        <time>2020-02-22T15:36:12Z</time>
      </trkpt>
      <trkpt lat="39.0989850" lon="1.4685710">
        <ele>30.1</ele>
        <time>2020-02-22T15:36:13Z</time>
      </trkpt>
      <trkpt lat="39.0989710" lon="1.4686060">
        <ele>30.2</ele>
        <time>2020-02-22T15:36:14Z</time>
      </trkpt>
      <trkpt lat="39.0989680" lon="1.4686180">
        <ele>30.2</ele>
        <time>2020-02-22T15:36:15Z</time>
      </trkpt>
      <trkpt lat="39.0989570" lon="1.4686530">
        <ele>30.4</ele>
        <time>2020-02-22T15:36:16Z</time>
      </trkpt>
      <trkpt lat="39.0989530" lon="1.4686680">
        <ele>30.4</ele>
        <time>2020-02-22T15:36:17Z</time>
      </trkpt>
      <trkpt lat="39.0989400" lon="1.4686880">
        <ele>30.5</ele>
        <time>2020-02-22T15:36:18Z</time>
      </trkpt>
      <trkpt lat="39.0989330" lon="1.4687060">
        <ele>30.6</ele>
        <time>2020-02-22T15:36:19Z</time>
      </trkpt>
      <trkpt lat="39.0989140" lon="1.4687380">
        <ele>30.8</ele>
        <time>2020-02-22T15:36:20Z</time>
      </trkpt>
      <trkpt lat="39.0989100" lon="1.4687480">
        <ele>30.8</ele>
        <time>2020-02-22T15:36:21Z</time>
      </trkpt>
      <trkpt lat="39.0988980" lon="1.4687850">
        <ele>30.9</ele>
        <time>2020-02-22T15:36:22Z</time>
      </trkpt>
      <trkpt lat="39.0988930" lon="1.4687960">
        <ele>31.0</ele>
        <time>2020-02-22T15:36:23Z</time>
      </trkpt>
      <trkpt lat="39.0988750" lon="1.4688240">
        <ele>31.3</ele>
        <time>2020-02-22T15:36:24Z</time>
      </trkpt>
      <trkpt lat="39.0988500" lon="1.4688570">
        <ele>31.6</ele>
        <time>2020-02-22T15:36:25Z</time>
      </trkpt>
      <trkpt lat="39.0988420" lon="1.4688640">
        <ele>31.7</ele>
        <time>2020-02-22T15:36:26Z</time>
      </trkpt>
      <trkpt lat="39.0988180" lon="1.4688820">
        <ele>32.0</ele>
        <time>2020-02-22T15:36:27Z</time>
      </trkpt>
      <trkpt lat="39.0988100" lon="1.4688880">
        <ele>32.1</ele>
        <time>2020-02-22T15:36:28Z</time>
      </trkpt>
      <trkpt lat="39.0987900" lon="1.4689110">
        <ele>32.4</ele>
        <time>2020-02-22T15:36:29Z</time>
      </trkpt>
      <trkpt lat="39.0987830" lon="1.4689210">
        <ele>32.6</ele>
        <time>2020-02-22T15:36:30Z</time>
      </trkpt>
      <trkpt lat="39.0987760" lon="1.4689410">
        <ele>32.8</ele>
        <time>2020-02-22T15:36:31Z</time>
      </trkpt>
      <trkpt lat="39.0987740" lon="1.4689630">
        <ele>33.0</ele>
        <time>2020-02-22T15:36:32Z</time>
      </trkpt>
      <trkpt lat="39.0987700" lon="1.4689810">
        <ele>33.1</ele>
        <time>2020-02-22T15:36:33Z</time>
      </trkpt>
      <trkpt lat="39.0987560" lon="1.4689900">
        <ele>33.3</ele>
        <time>2020-02-22T15:36:34Z</time>
      </trkpt>
      <trkpt lat="39.0987390" lon="1.4690150">
        <ele>33.7</ele>
        <time>2020-02-22T15:36:35Z</time>
      </trkpt>
      <trkpt lat="39.0987350" lon="1.4690230">
        <ele>33.8</ele>
        <time>2020-02-22T15:36:36Z</time>
      </trkpt>
      <trkpt lat="39.0987310" lon="1.4690320">
        <ele>33.9</ele>
        <time>2020-02-22T15:36:37Z</time>
      </trkpt>
      <trkpt lat="39.0987180" lon="1.4690600">
        <ele>34.2</ele>
        <time>2020-02-22T15:36:38Z</time>
      </trkpt>
      <trkpt lat="39.0987120" lon="1.4690690">
        <ele>34.3</ele>
        <time>2020-02-22T15:36:39Z</time>
      </trkpt>
      <trkpt lat="39.0987070" lon="1.4690770">
        <ele>34.4</ele>
        <time>2020-02-22T15:36:40Z</time>
      </trkpt>
      <trkpt lat="39.0986980" lon="1.4691100">
        <ele>34.6</ele>
        <time>2020-02-22T15:36:41Z</time>
      </trkpt>
      <trkpt lat="39.0986960" lon="1.4691260">
        <ele>34.8</ele>
        <time>2020-02-22T15:36:42Z</time>
      </trkpt>
      <trkpt lat="39.0986880" lon="1.4691450">
        <ele>34.9</ele>
        <time>2020-02-22T15:36:43Z</time>
      </trkpt>
      <trkpt lat="39.0986880" lon="1.4691600">
        <ele>35.0</ele>
        <time>2020-02-22T15:36:44Z</time>
      </trkpt>
      <trkpt lat="39.0986840" lon="1.4692000">
        <ele>35.3</ele>
        <time>2020-02-22T15:36:45Z</time>
      </trkpt>
      <trkpt lat="39.0986800" lon="1.4692130">
        <ele>35.4</ele>
        <time>2020-02-22T15:36:46Z</time>
      </trkpt>
      <trkpt lat="39.0986750" lon="1.4692330">
        <ele>35.6</ele>
        <time>2020-02-22T15:36:47Z</time>
      </trkpt>
      <trkpt lat="39.0986660" lon="1.4692540">
        <ele>35.8</ele>
        <time>2020-02-22T15:36:48Z</time>
      </trkpt>
      <trkpt lat="39.0986560" lon="1.4692940">
        <ele>36.2</ele>
        <time>2020-02-22T15:36:49Z</time>
      </trkpt>
      <trkpt lat="39.0986530" lon="1.4693080">
        <ele>36.4</ele>
        <time>2020-02-22T15:36:50Z</time>
      </trkpt>
      <trkpt lat="39.0986500" lon="1.4693480">
        <ele>36.7</ele>
        <time>2020-02-22T15:36:51Z</time>
      </trkpt>
      <trkpt lat="39.0986470" lon="1.4693610">
        <ele>36.8</ele>
        <time>2020-02-22T15:36:52Z</time>
      </trkpt>
      <trkpt lat="39.0986320" lon="1.4693960">
        <ele>37.1</ele>
        <time>2020-02-22T15:36:53Z</time>
      </trkpt>
      <trkpt lat="39.0986250" lon="1.4694050">
        <ele>37.2</ele>
        <time>2020-02-22T15:36:54Z</time>
      </trkpt>
      <trkpt lat="39.0986150" lon="1.4694200">
        <ele>37.4</ele>
        <time>2020-02-22T15:36:55Z</time>
      </trkpt>
      <trkpt lat="39.0986100" lon="1.4694350">
        <ele>37.5</ele>
        <time>2020-02-22T15:36:56Z</time>
      </trkpt>
      <trkpt lat="39.0986050" lon="1.4694500">
        <ele>37.6</ele>
        <time>2020-02-22T15:36:57Z</time>
      </trkpt>
      <trkpt lat="39.0985990" lon="1.4694940">
        <ele>37.9</ele>
        <time>2020-02-22T15:36:58Z</time>
      </trkpt>
      <trkpt lat="39.0985990" lon="1.4695060">
        <ele>38.0</ele>
        <time>2020-02-22T15:36:59Z</time>
      </trkpt>
      <trkpt lat="39.0986100" lon="1.4695430">
        <ele>38.3</ele>
        <time>2020-02-22T15:37:00Z</time>
      </trkpt>
      <trkpt lat="39.0986090" lon="1.4695550">
        <ele>38.4</ele>
        <time>2020-02-22T15:37:01Z</time>
      </trkpt>
      <trkpt lat="39.0985960" lon="1.4695870">
        <ele>38.7</ele>
        <time>2020-02-22T15:37:02Z</time>
      </trkpt>
      <trkpt lat="39.0985890" lon="1.4695980">
        <ele>38.8</ele>
        <time>2020-02-22T15:37:04Z</time>
      </trkpt>
      <trkpt lat="39.0985810" lon="1.4696090">
        <ele>38.8</ele>
        <time>2020-02-22T15:37:05Z</time>
      </trkpt>
      <trkpt lat="39.0985740" lon="1.4696200">
        <ele>38.9</ele>
        <time>2020-02-22T15:37:06Z</time>
      </trkpt>
      <trkpt lat="39.0985660" lon="1.4696310">
        <ele>39.0</ele>
        <time>2020-02-22T15:37:07Z</time>
      </trkpt>
      <trkpt lat="39.0985500" lon="1.4696620">
        <ele>39.3</ele>
        <time>2020-02-22T15:37:08Z</time>
      </trkpt>
      <trkpt lat="39.0985460" lon="1.4696740">
        <ele>39.3</ele>
        <time>2020-02-22T15:37:09Z</time>
      </trkpt>
      <trkpt lat="39.0985420" lon="1.4697110">
        <ele>39.4</ele>
        <time>2020-02-22T15:37:10Z</time>
      </trkpt>
      <trkpt lat="39.0985420" lon="1.4697280">
        <ele>39.4</ele>
        <time>2020-02-22T15:37:11Z</time>
      </trkpt>
      <trkpt lat="39.0985470" lon="1.4697690">
        <ele>39.6</ele>
        <time>2020-02-22T15:37:12Z</time>
      </trkpt>
      <trkpt lat="39.0985520" lon="1.4697780">
        <ele>39.6</ele>
        <time>2020-02-22T15:37:13Z</time>
      </trkpt>
      <trkpt lat="39.0985720" lon="1.4698050">
        <ele>39.7</ele>
        <time>2020-02-22T15:37:14Z</time>
      </trkpt>
      <trkpt lat="39.0985770" lon="1.4698130">
        <ele>39.7</ele>
        <time>2020-02-22T15:37:15Z</time>
      </trkpt>
      <trkpt lat="39.0986040" lon="1.4698380">
        <ele>39.7</ele>
        <time>2020-02-22T15:37:16Z</time>
      </trkpt>
      <trkpt lat="39.0986120" lon="1.4698500">
        <ele>39.7</ele>
        <time>2020-02-22T15:37:17Z</time>
      </trkpt>
      <trkpt lat="39.0986140" lon="1.4698700">
        <ele>39.7</ele>
        <time>2020-02-22T15:37:18Z</time>
      </trkpt>
      <trkpt lat="39.0986230" lon="1.4698890">
        <ele>39.7</ele>
        <time>2020-02-22T15:37:19Z</time>
      </trkpt>
      <trkpt lat="39.0986410" lon="1.4699160">
        <ele>39.8</ele>
        <time>2020-02-22T15:37:20Z</time>
      </trkpt>
      <trkpt lat="39.0986640" lon="1.4699490">
        <ele>39.8</ele>
        <time>2020-02-22T15:37:21Z</time>
      </trkpt>
      <trkpt lat="39.0986700" lon="1.4699600">
        <ele>39.8</ele>
        <time>2020-02-22T15:37:22Z</time>
      </trkpt>
      <trkpt lat="39.0987040" lon="1.4699860">
        <ele>39.8</ele>
        <time>2020-02-22T15:37:23Z</time>
      </trkpt>
      <trkpt lat="39.0987200" lon="1.4699930">
        <ele>39.8</ele>
        <time>2020-02-22T15:37:24Z</time>
      </trkpt>
      <trkpt lat="39.0987470" lon="1.4700300">
        <ele>39.8</ele>
        <time>2020-02-22T15:37:25Z</time>
      </trkpt>
      <trkpt lat="39.0987560" lon="1.4700500">
        <ele>39.8</ele>
        <time>2020-02-22T15:37:26Z</time>
      </trkpt>
      <trkpt lat="39.0987780" lon="1.4700880">
        <ele>39.8</ele>
        <time>2020-02-22T15:37:27Z</time>
      </trkpt>
      <trkpt lat="39.0988020" lon="1.4701110">
        <ele>39.7</ele>
        <time>2020-02-22T15:37:28Z</time>
      </trkpt>
      <trkpt lat="39.0988320" lon="1.4701390">
        <ele>39.7</ele>
        <time>2020-02-22T15:37:29Z</time>
      </trkpt>
      <trkpt lat="39.0988700" lon="1.4701930">
        <ele>39.6</ele>
        <time>2020-02-22T15:37:30Z</time>
      </trkpt>
      <trkpt lat="39.0988800" lon="1.4702180">
        <ele>39.6</ele>
        <time>2020-02-22T15:37:31Z</time>
      </trkpt>
      <trkpt lat="39.0989050" lon="1.4702330">
        <ele>39.6</ele>
        <time>2020-02-22T15:37:32Z</time>
      </trkpt>
      <trkpt lat="39.0989160" lon="1.4702370">
        <ele>39.6</ele>
        <time>2020-02-22T15:37:33Z</time>
      </trkpt>
      <trkpt lat="39.0989440" lon="1.4702550">
        <ele>39.6</ele>
        <time>2020-02-22T15:37:34Z</time>
      </trkpt>
      <trkpt lat="39.0989670" lon="1.4702900">
        <ele>39.6</ele>
        <time>2020-02-22T15:37:35Z</time>
      </trkpt>
      <trkpt lat="39.0989880" lon="1.4703230">
        <ele>39.6</ele>
        <time>2020-02-22T15:37:36Z</time>
      </trkpt>
      <trkpt lat="39.0990030" lon="1.4703650">
        <ele>39.6</ele>
        <time>2020-02-22T15:37:37Z</time>
      </trkpt>
      <trkpt lat="39.0990090" lon="1.4703810">
        <ele>39.6</ele>
        <time>2020-02-22T15:37:38Z</time>
      </trkpt>
      <trkpt lat="39.0990440" lon="1.4703940">
        <ele>39.7</ele>
        <time>2020-02-22T15:37:39Z</time>
      </trkpt>
      <trkpt lat="39.0990400" lon="1.4704430">
        <ele>39.8</ele>
        <time>2020-02-22T15:37:40Z</time>
      </trkpt>
      <trkpt lat="39.0990380" lon="1.4704580">
        <ele>39.8</ele>
        <time>2020-02-22T15:37:41Z</time>
      </trkpt>
      <trkpt lat="39.0990400" lon="1.4705010">
        <ele>39.9</ele>
        <time>2020-02-22T15:37:42Z</time>
      </trkpt>
      <trkpt lat="39.0990400" lon="1.4705190">
        <ele>39.9</ele>
        <time>2020-02-22T15:37:43Z</time>
      </trkpt>
      <trkpt lat="39.0990400" lon="1.4705710">
        <ele>39.9</ele>
        <time>2020-02-22T15:37:44Z</time>
      </trkpt>
      <trkpt lat="39.0990390" lon="1.4705890">
        <ele>39.9</ele>
        <time>2020-02-22T15:37:45Z</time>
      </trkpt>
      <trkpt lat="39.0990330" lon="1.4706290">
        <ele>40.0</ele>
        <time>2020-02-22T15:37:46Z</time>
      </trkpt>
      <trkpt lat="39.0990280" lon="1.4706640">
        <ele>40.0</ele>
        <time>2020-02-22T15:37:47Z</time>
      </trkpt>
      <trkpt lat="39.0990370" lon="1.4707130">
        <ele>40.1</ele>
        <time>2020-02-22T15:37:48Z</time>
      </trkpt>
      <trkpt lat="39.0990400" lon="1.4707280">
        <ele>40.1</ele>
        <time>2020-02-22T15:37:49Z</time>
      </trkpt>
      <trkpt lat="39.0990390" lon="1.4707660">
        <ele>40.1</ele>
        <time>2020-02-22T15:37:50Z</time>
      </trkpt>
      <trkpt lat="39.0990420" lon="1.4708120">
        <ele>40.1</ele>
        <time>2020-02-22T15:37:51Z</time>
      </trkpt>
      <trkpt lat="39.0990410" lon="1.4708280">
        <ele>40.1</ele>
        <time>2020-02-22T15:37:52Z</time>
      </trkpt>
      <trkpt lat="39.0990460" lon="1.4708800">
        <ele>40.2</ele>
        <time>2020-02-22T15:37:53Z</time>
      </trkpt>
      <trkpt lat="39.0990480" lon="1.4709010">
        <ele>40.2</ele>
        <time>2020-02-22T15:37:54Z</time>
      </trkpt>
      <trkpt lat="39.0990490" lon="1.4709480">
        <ele>40.2</ele>
        <time>2020-02-22T15:37:55Z</time>
      </trkpt>
      <trkpt lat="39.0990520" lon="1.4709670">
        <ele>40.2</ele>
        <time>2020-02-22T15:37:56Z</time>
      </trkpt>
      <trkpt lat="39.0990600" lon="1.4710100">
        <ele>40.2</ele>
        <time>2020-02-22T15:37:57Z</time>
      </trkpt>
      <trkpt lat="39.0990740" lon="1.4710560">
        <ele>40.2</ele>
        <time>2020-02-22T15:37:58Z</time>
      </trkpt>
      <trkpt lat="39.0990840" lon="1.4710920">
        <ele>40.2</ele>
        <time>2020-02-22T15:37:59Z</time>
      </trkpt>
      <trkpt lat="39.0990960" lon="1.4711340">
        <ele>40.2</ele>
        <time>2020-02-22T15:38:00Z</time>
      </trkpt>
      <trkpt lat="39.0991010" lon="1.4711750">
        <ele>40.2</ele>
        <time>2020-02-22T15:38:01Z</time>
      </trkpt>
      <trkpt lat="39.0991100" lon="1.4712140">
        <ele>40.2</ele>
        <time>2020-02-22T15:38:02Z</time>
      </trkpt>
      <trkpt lat="39.0991170" lon="1.4712490">
        <ele>40.2</ele>
        <time>2020-02-22T15:38:03Z</time>
      </trkpt>
      <trkpt lat="39.0991250" lon="1.4713000">
        <ele>40.1</ele>
        <time>2020-02-22T15:38:04Z</time>
      </trkpt>
      <trkpt lat="39.0991280" lon="1.4713210">
        <ele>40.1</ele>
        <time>2020-02-22T15:38:05Z</time>
      </trkpt>
      <trkpt lat="39.0991320" lon="1.4713640">
        <ele>40.1</ele>
        <time>2020-02-22T15:38:06Z</time>
      </trkpt>
      <trkpt lat="39.0991420" lon="1.4714020">
        <ele>40.1</ele>
        <time>2020-02-22T15:38:07Z</time>
      </trkpt>
      <trkpt lat="39.0991470" lon="1.4714430">
        <ele>40.1</ele>
        <time>2020-02-22T15:38:08Z</time>
      </trkpt>
      <trkpt lat="39.0991520" lon="1.4714800">
        <ele>40.0</ele>
        <time>2020-02-22T15:38:09Z</time>
      </trkpt>
      <trkpt lat="39.0991640" lon="1.4715230">
        <ele>40.0</ele>
        <time>2020-02-22T15:38:10Z</time>
      </trkpt>
      <trkpt lat="39.0991710" lon="1.4715720">
        <ele>40.0</ele>
        <time>2020-02-22T15:38:11Z</time>
      </trkpt>
      <trkpt lat="39.0991840" lon="1.4716270">
        <ele>40.0</ele>
        <time>2020-02-22T15:38:12Z</time>
      </trkpt>
      <trkpt lat="39.0991960" lon="1.4716750">
        <ele>39.9</ele>
        <time>2020-02-22T15:38:13Z</time>
      </trkpt>
      <trkpt lat="39.0992100" lon="1.4717300">
        <ele>39.9</ele>
        <time>2020-02-22T15:38:14Z</time>
      </trkpt>
      <trkpt lat="39.0992150" lon="1.4717840">
        <ele>39.8</ele>
        <time>2020-02-22T15:38:15Z</time>
      </trkpt>
      <trkpt lat="39.0992160" lon="1.4718200">
        <ele>39.8</ele>
        <time>2020-02-22T15:38:16Z</time>
      </trkpt>
      <trkpt lat="39.0992150" lon="1.4718730">
        <ele>39.7</ele>
        <time>2020-02-22T15:38:17Z</time>
      </trkpt>
      <trkpt lat="39.0992230" lon="1.4719230">
        <ele>39.7</ele>
        <time>2020-02-22T15:38:18Z</time>
      </trkpt>
      <trkpt lat="39.0992160" lon="1.4719700">
        <ele>39.7</ele>
        <time>2020-02-22T15:38:19Z</time>
      </trkpt>
      <trkpt lat="39.0992290" lon="1.4720080">
        <ele>39.6</ele>
        <time>2020-02-22T15:38:20Z</time>
      </trkpt>
      <trkpt lat="39.0992360" lon="1.4720500">
        <ele>39.6</ele>
        <time>2020-02-22T15:38:21Z</time>
      </trkpt>
      <trkpt lat="39.0992380" lon="1.4720670">
        <ele>39.6</ele>
        <time>2020-02-22T15:38:22Z</time>
      </trkpt>
      <trkpt lat="39.0992370" lon="1.4721080">
        <ele>39.5</ele>
        <time>2020-02-22T15:38:23Z</time>
      </trkpt>
      <trkpt lat="39.0992170" lon="1.4721520">
        <ele>39.5</ele>
        <time>2020-02-22T15:38:24Z</time>
      </trkpt>
      <trkpt lat="39.0992130" lon="1.4721730">
        <ele>39.5</ele>
        <time>2020-02-22T15:38:25Z</time>
      </trkpt>
      <trkpt lat="39.0992010" lon="1.4722210">
        <ele>39.6</ele>
        <time>2020-02-22T15:38:26Z</time>
      </trkpt>
      <trkpt lat="39.0991970" lon="1.4722360">
        <ele>39.6</ele>
        <time>2020-02-22T15:38:27Z</time>
      </trkpt>
      <trkpt lat="39.0991810" lon="1.4722750">
        <ele>39.6</ele>
        <time>2020-02-22T15:38:28Z</time>
      </trkpt>
      <trkpt lat="39.0991750" lon="1.4722890">
        <ele>39.7</ele>
        <time>2020-02-22T15:38:29Z</time>
      </trkpt>
      <trkpt lat="39.0991560" lon="1.4723260">
        <ele>39.7</ele>
        <time>2020-02-22T15:38:30Z</time>
      </trkpt>
      <trkpt lat="39.0991520" lon="1.4723380">
        <ele>39.8</ele>
        <time>2020-02-22T15:38:31Z</time>
      </trkpt>
      <trkpt lat="39.0991340" lon="1.4723660">
        <ele>39.9</ele>
        <time>2020-02-22T15:38:32Z</time>
      </trkpt>
      <trkpt lat="39.0991180" lon="1.4724030">
        <ele>40.0</ele>
        <time>2020-02-22T15:38:33Z</time>
      </trkpt>
      <trkpt lat="39.0991160" lon="1.4724140">
        <ele>40.0</ele>
        <time>2020-02-22T15:38:34Z</time>
      </trkpt>
      <trkpt lat="39.0991010" lon="1.4724490">
        <ele>40.1</ele>
        <time>2020-02-22T15:38:35Z</time>
      </trkpt>
      <trkpt lat="39.0990950" lon="1.4724570">
        <ele>40.2</ele>
        <time>2020-02-22T15:38:36Z</time>
      </trkpt>
      <trkpt lat="39.0990830" lon="1.4725000">
        <ele>40.4</ele>
        <time>2020-02-22T15:38:37Z</time>
      </trkpt>
      <trkpt lat="39.0990780" lon="1.4725150">
        <ele>40.4</ele>
        <time>2020-02-22T15:38:38Z</time>
      </trkpt>
      <trkpt lat="39.0990680" lon="1.4725540">
        <ele>40.6</ele>
        <time>2020-02-22T15:38:39Z</time>
      </trkpt>
      <trkpt lat="39.0990640" lon="1.4725670">
        <ele>40.6</ele>
        <time>2020-02-22T15:38:40Z</time>
      </trkpt>
      <trkpt lat="39.0990580" lon="1.4726070">
        <ele>40.8</ele>
        <time>2020-02-22T15:38:41Z</time>
      </trkpt>
      <trkpt lat="39.0990570" lon="1.4726220">
        <ele>40.8</ele>
        <time>2020-02-22T15:38:42Z</time>
      </trkpt>
      <trkpt lat="39.0990580" lon="1.4726680">
        <ele>40.9</ele>
        <time>2020-02-22T15:38:43Z</time>
      </trkpt>
      <trkpt lat="39.0990560" lon="1.4726860">
        <ele>41.0</ele>
        <time>2020-02-22T15:38:44Z</time>
      </trkpt>
      <trkpt lat="39.0990510" lon="1.4727290">
        <ele>41.1</ele>
        <time>2020-02-22T15:38:45Z</time>
      </trkpt>
      <trkpt lat="39.0990510" lon="1.4727480">
        <ele>41.1</ele>
        <time>2020-02-22T15:38:46Z</time>
      </trkpt>
      <trkpt lat="39.0990430" lon="1.4727920">
        <ele>41.3</ele>
        <time>2020-02-22T15:38:47Z</time>
      </trkpt>
      <trkpt lat="39.0990390" lon="1.4728090">
        <ele>41.3</ele>
        <time>2020-02-22T15:38:48Z</time>
      </trkpt>
      <trkpt lat="39.0990320" lon="1.4728460">
        <ele>41.4</ele>
        <time>2020-02-22T15:38:49Z</time>
      </trkpt>
      <trkpt lat="39.0990310" lon="1.4728820">
        <ele>41.5</ele>
        <time>2020-02-22T15:38:50Z</time>
      </trkpt>
      <trkpt lat="39.0990240" lon="1.4729290">
        <ele>41.8</ele>
        <time>2020-02-22T15:38:51Z</time>
      </trkpt>
      <trkpt lat="39.0990190" lon="1.4729440">
        <ele>41.9</ele>
        <time>2020-02-22T15:38:52Z</time>
      </trkpt>
      <trkpt lat="39.0990030" lon="1.4729830">
        <ele>42.1</ele>
        <time>2020-02-22T15:38:53Z</time>
      </trkpt>
      <trkpt lat="39.0989990" lon="1.4729950">
        <ele>42.1</ele>
        <time>2020-02-22T15:38:54Z</time>
      </trkpt>
      <trkpt lat="39.0989880" lon="1.4730420">
        <ele>42.3</ele>
        <time>2020-02-22T15:38:55Z</time>
      </trkpt>
      <trkpt lat="39.0989840" lon="1.4730580">
        <ele>42.4</ele>
        <time>2020-02-22T15:38:56Z</time>
      </trkpt>
      <trkpt lat="39.0989700" lon="1.4730950">
        <ele>42.6</ele>
        <time>2020-02-22T15:38:57Z</time>
      </trkpt>
      <trkpt lat="39.0989580" lon="1.4731270">
        <ele>42.7</ele>
        <time>2020-02-22T15:38:58Z</time>
      </trkpt>
      <trkpt lat="39.0989390" lon="1.4731670">
        <ele>42.9</ele>
        <time>2020-02-22T15:38:59Z</time>
      </trkpt>
      <trkpt lat="39.0989310" lon="1.4731780">
        <ele>43.0</ele>
        <time>2020-02-22T15:39:00Z</time>
      </trkpt>
      <trkpt lat="39.0989090" lon="1.4732190">
        <ele>43.2</ele>
        <time>2020-02-22T15:39:01Z</time>
      </trkpt>
      <trkpt lat="39.0989020" lon="1.4732360">
        <ele>43.3</ele>
        <time>2020-02-22T15:39:02Z</time>
      </trkpt>
      <trkpt lat="39.0988800" lon="1.4732700">
        <ele>43.5</ele>
        <time>2020-02-22T15:39:03Z</time>
      </trkpt>
      <trkpt lat="39.0988650" lon="1.4733080">
        <ele>43.6</ele>
        <time>2020-02-22T15:39:04Z</time>
      </trkpt>
      <trkpt lat="39.0988600" lon="1.4733180">
        <ele>43.7</ele>
        <time>2020-02-22T15:39:05Z</time>
      </trkpt>
      <trkpt lat="39.0988570" lon="1.4733340">
        <ele>43.8</ele>
        <time>2020-02-22T15:39:06Z</time>
      </trkpt>
      <trkpt lat="39.0988540" lon="1.4733530">
        <ele>43.9</ele>
        <time>2020-02-22T15:39:07Z</time>
      </trkpt>
      <trkpt lat="39.0988500" lon="1.4733730">
        <ele>43.9</ele>
        <time>2020-02-22T15:39:08Z</time>
      </trkpt>
      <trkpt lat="39.0988380" lon="1.4734220">
        <ele>44.2</ele>
        <time>2020-02-22T15:39:09Z</time>
      </trkpt>
      <trkpt lat="39.0988330" lon="1.4734390">
        <ele>44.3</ele>
        <time>2020-02-22T15:39:10Z</time>
      </trkpt>
      <trkpt lat="39.0988320" lon="1.4734780">
        <ele>44.4</ele>
        <time>2020-02-22T15:39:11Z</time>
      </trkpt>
      <trkpt lat="39.0988230" lon="1.4735160">
        <ele>44.6</ele>
        <time>2020-02-22T15:39:12Z</time>
      </trkpt>
      <trkpt lat="39.0988080" lon="1.4735630">
        <ele>44.8</ele>
        <time>2020-02-22T15:39:13Z</time>
      </trkpt>
      <trkpt lat="39.0988030" lon="1.4735780">
        <ele>44.9</ele>
        <time>2020-02-22T15:39:14Z</time>
      </trkpt>
      <trkpt lat="39.0987950" lon="1.4736160">
        <ele>45.1</ele>
        <time>2020-02-22T15:39:15Z</time>
      </trkpt>
      <trkpt lat="39.0987910" lon="1.4736330">
        <ele>45.1</ele>
        <time>2020-02-22T15:39:16Z</time>
      </trkpt>
      <trkpt lat="39.0987960" lon="1.4736690">
        <ele>45.3</ele>
        <time>2020-02-22T15:39:17Z</time>
      </trkpt>
      <trkpt lat="39.0987940" lon="1.4736850">
        <ele>45.4</ele>
        <time>2020-02-22T15:39:18Z</time>
      </trkpt>
      <trkpt lat="39.0987880" lon="1.4737190">
        <ele>45.5</ele>
        <time>2020-02-22T15:39:19Z</time>
      </trkpt>
      <trkpt lat="39.0987790" lon="1.4737570">
        <ele>45.7</ele>
        <time>2020-02-22T15:39:20Z</time>
      </trkpt>
      <trkpt lat="39.0987600" lon="1.4737950">
        <ele>45.9</ele>
        <time>2020-02-22T15:39:21Z</time>
      </trkpt>
      <trkpt lat="39.0987530" lon="1.4738060">
        <ele>46.0</ele>
        <time>2020-02-22T15:39:22Z</time>
      </trkpt>
      <trkpt lat="39.0987450" lon="1.4738390">
        <ele>46.1</ele>
        <time>2020-02-22T15:39:23Z</time>
      </trkpt>
      <trkpt lat="39.0987370" lon="1.4738860">
        <ele>46.3</ele>
        <time>2020-02-22T15:39:24Z</time>
      </trkpt>
      <trkpt lat="39.0987350" lon="1.4739020">
        <ele>46.4</ele>
        <time>2020-02-22T15:39:25Z</time>
      </trkpt>
      <trkpt lat="39.0987300" lon="1.4739390">
        <ele>46.6</ele>
        <time>2020-02-22T15:39:26Z</time>
      </trkpt>
      <trkpt lat="39.0987140" lon="1.4739810">
        <ele>46.8</ele>
        <time>2020-02-22T15:39:27Z</time>
      </trkpt>
      <trkpt lat="39.0987080" lon="1.4739920">
        <ele>46.8</ele>
        <time>2020-02-22T15:39:28Z</time>
      </trkpt>
      <trkpt lat="39.0986980" lon="1.4740300">
        <ele>47.0</ele>
        <time>2020-02-22T15:39:29Z</time>
      </trkpt>
      <trkpt lat="39.0986930" lon="1.4740450">
        <ele>47.1</ele>
        <time>2020-02-22T15:39:30Z</time>
      </trkpt>
      <trkpt lat="39.0986760" lon="1.4740900">
        <ele>47.3</ele>
        <time>2020-02-22T15:39:31Z</time>
      </trkpt>
      <trkpt lat="39.0986700" lon="1.4741050">
        <ele>47.4</ele>
        <time>2020-02-22T15:39:32Z</time>
      </trkpt>
      <trkpt lat="39.0986580" lon="1.4741380">
        <ele>47.6</ele>
        <time>2020-02-22T15:39:33Z</time>
      </trkpt>
      <trkpt lat="39.0986440" lon="1.4741680">
        <ele>47.8</ele>
        <time>2020-02-22T15:39:34Z</time>
      </trkpt>
      <trkpt lat="39.0986300" lon="1.4741980">
        <ele>47.9</ele>
        <time>2020-02-22T15:39:35Z</time>
      </trkpt>
      <trkpt lat="39.0986080" lon="1.4742300">
        <ele>48.2</ele>
        <time>2020-02-22T15:39:36Z</time>
      </trkpt>
      <trkpt lat="39.0985950" lon="1.4742360">
        <ele>48.3</ele>
        <time>2020-02-22T15:39:37Z</time>
      </trkpt>
      <trkpt lat="39.0985680" lon="1.4742520">
        <ele>48.5</ele>
        <time>2020-02-22T15:39:38Z</time>
      </trkpt>
      <trkpt lat="39.0985500" lon="1.4742940">
        <ele>48.7</ele>
        <time>2020-02-22T15:39:39Z</time>
      </trkpt>
      <trkpt lat="39.0985470" lon="1.4743100">
        <ele>48.8</ele>
        <time>2020-02-22T15:39:40Z</time>
      </trkpt>
      <trkpt lat="39.0985320" lon="1.4743460">
        <ele>49.1</ele>
        <time>2020-02-22T15:39:41Z</time>
      </trkpt>
      <trkpt lat="39.0985250" lon="1.4743550">
        <ele>49.2</ele>
        <time>2020-02-22T15:39:42Z</time>
      </trkpt>
      <trkpt lat="39.0985170" lon="1.4743960">
        <ele>49.4</ele>
        <time>2020-02-22T15:39:43Z</time>
      </trkpt>
      <trkpt lat="39.0985190" lon="1.4744080">
        <ele>49.5</ele>
        <time>2020-02-22T15:39:44Z</time>
      </trkpt>
      <trkpt lat="39.0985020" lon="1.4744470">
        <ele>49.8</ele>
        <time>2020-02-22T15:39:45Z</time>
      </trkpt>
      <trkpt lat="39.0984990" lon="1.4744590">
        <ele>49.9</ele>
        <time>2020-02-22T15:39:46Z</time>
      </trkpt>
      <trkpt lat="39.0984920" lon="1.4745020">
        <ele>50.2</ele>
        <time>2020-02-22T15:39:47Z</time>
      </trkpt>
      <trkpt lat="39.0984910" lon="1.4745180">
        <ele>50.4</ele>
        <time>2020-02-22T15:39:48Z</time>
      </trkpt>
      <trkpt lat="39.0984870" lon="1.4745650">
        <ele>50.7</ele>
        <time>2020-02-22T15:39:49Z</time>
      </trkpt>
      <trkpt lat="39.0984860" lon="1.4745800">
        <ele>50.8</ele>
        <time>2020-02-22T15:39:50Z</time>
      </trkpt>
      <trkpt lat="39.0984820" lon="1.4746070">
        <ele>51.1</ele>
        <time>2020-02-22T15:39:51Z</time>
      </trkpt>
      <trkpt lat="39.0984770" lon="1.4746240">
        <ele>51.2</ele>
        <time>2020-02-22T15:39:52Z</time>
      </trkpt>
      <trkpt lat="39.0984650" lon="1.4746540">
        <ele>51.5</ele>
        <time>2020-02-22T15:39:53Z</time>
      </trkpt>
      <trkpt lat="39.0984620" lon="1.4746690">
        <ele>51.6</ele>
        <time>2020-02-22T15:39:54Z</time>
      </trkpt>
      <trkpt lat="39.0984570" lon="1.4747110">
        <ele>52.0</ele>
        <time>2020-02-22T15:39:55Z</time>
      </trkpt>
      <trkpt lat="39.0984550" lon="1.4747230">
        <ele>52.1</ele>
        <time>2020-02-22T15:39:56Z</time>
      </trkpt>
      <trkpt lat="39.0984480" lon="1.4747660">
        <ele>52.5</ele>
        <time>2020-02-22T15:39:57Z</time>
      </trkpt>
      <trkpt lat="39.0984450" lon="1.4747770">
        <ele>52.6</ele>
        <time>2020-02-22T15:39:58Z</time>
      </trkpt>
      <trkpt lat="39.0984360" lon="1.4748260">
        <ele>53.0</ele>
        <time>2020-02-22T15:39:59Z</time>
      </trkpt>
      <trkpt lat="39.0984320" lon="1.4748430">
        <ele>53.2</ele>
        <time>2020-02-22T15:40:00Z</time>
      </trkpt>
      <trkpt lat="39.0984230" lon="1.4748800">
        <ele>53.5</ele>
        <time>2020-02-22T15:40:01Z</time>
      </trkpt>
      <trkpt lat="39.0984200" lon="1.4748910">
        <ele>53.6</ele>
        <time>2020-02-22T15:40:02Z</time>
      </trkpt>
      <trkpt lat="39.0983980" lon="1.4749150">
        <ele>54.0</ele>
        <time>2020-02-22T15:40:03Z</time>
      </trkpt>
      <trkpt lat="39.0983790" lon="1.4749530">
        <ele>54.3</ele>
        <time>2020-02-22T15:40:04Z</time>
      </trkpt>
      <trkpt lat="39.0983740" lon="1.4749650">
        <ele>54.5</ele>
        <time>2020-02-22T15:40:05Z</time>
      </trkpt>
      <trkpt lat="39.0983710" lon="1.4750080">
        <ele>54.8</ele>
        <time>2020-02-22T15:40:06Z</time>
      </trkpt>
      <trkpt lat="39.0983730" lon="1.4750290">
        <ele>55.0</ele>
        <time>2020-02-22T15:40:07Z</time>
      </trkpt>
      <trkpt lat="39.0983710" lon="1.4750460">
        <ele>55.2</ele>
        <time>2020-02-22T15:40:08Z</time>
      </trkpt>
      <trkpt lat="39.0983650" lon="1.4750720">
        <ele>55.4</ele>
        <time>2020-02-22T15:40:09Z</time>
      </trkpt>
      <trkpt lat="39.0983520" lon="1.4751160">
        <ele>55.9</ele>
        <time>2020-02-22T15:40:10Z</time>
      </trkpt>
      <trkpt lat="39.0983480" lon="1.4751290">
        <ele>56.0</ele>
        <time>2020-02-22T15:40:11Z</time>
      </trkpt>
      <trkpt lat="39.0983400" lon="1.4751720">
        <ele>56.3</ele>
        <time>2020-02-22T15:40:12Z</time>
      </trkpt>
      <trkpt lat="39.0983380" lon="1.4751850">
        <ele>56.5</ele>
        <time>2020-02-22T15:40:13Z</time>
      </trkpt>
      <trkpt lat="39.0983330" lon="1.4752340">
        <ele>56.9</ele>
        <time>2020-02-22T15:40:14Z</time>
      </trkpt>
      <trkpt lat="39.0983300" lon="1.4752510">
        <ele>57.0</ele>
        <time>2020-02-22T15:40:15Z</time>
      </trkpt>
      <trkpt lat="39.0983230" lon="1.4752990">
        <ele>57.3</ele>
        <time>2020-02-22T15:40:16Z</time>
      </trkpt>
      <trkpt lat="39.0983200" lon="1.4753180">
        <ele>57.4</ele>
        <time>2020-02-22T15:40:17Z</time>
      </trkpt>
      <trkpt lat="39.0982980" lon="1.4753560">
        <ele>57.7</ele>
        <time>2020-02-22T15:40:18Z</time>
      </trkpt>
      <trkpt lat="39.0982900" lon="1.4753690">
        <ele>57.8</ele>
        <time>2020-02-22T15:40:19Z</time>
      </trkpt>
      <trkpt lat="39.0982840" lon="1.4753930">
        <ele>57.9</ele>
        <time>2020-02-22T15:40:20Z</time>
      </trkpt>
      <trkpt lat="39.0982990" lon="1.4754110">
        <ele>58.0</ele>
        <time>2020-02-22T15:40:21Z</time>
      </trkpt>
      <trkpt lat="39.0983110" lon="1.4754620">
        <ele>58.3</ele>
        <time>2020-02-22T15:40:22Z</time>
      </trkpt>
      <trkpt lat="39.0983140" lon="1.4754830">
        <ele>58.4</ele>
        <time>2020-02-22T15:40:23Z</time>
      </trkpt>
      <trkpt lat="39.0983170" lon="1.4755280">
        <ele>58.5</ele>
        <time>2020-02-22T15:40:24Z</time>
      </trkpt>
      <trkpt lat="39.0983260" lon="1.4755730">
        <ele>58.7</ele>
        <time>2020-02-22T15:40:25Z</time>
      </trkpt>
      <trkpt lat="39.0983410" lon="1.4756260">
        <ele>58.9</ele>
        <time>2020-02-22T15:40:26Z</time>
      </trkpt>
      <trkpt lat="39.0983530" lon="1.4756590">
        <ele>59.0</ele>
        <time>2020-02-22T15:40:27Z</time>
      </trkpt>
      <trkpt lat="39.0983630" lon="1.4756930">
        <ele>59.2</ele>
        <time>2020-02-22T15:40:28Z</time>
      </trkpt>
      <trkpt lat="39.0983700" lon="1.4757320">
        <ele>59.3</ele>
        <time>2020-02-22T15:40:29Z</time>
      </trkpt>
      <trkpt lat="39.0983800" lon="1.4757790">
        <ele>59.4</ele>
        <time>2020-02-22T15:40:30Z</time>
      </trkpt>
      <trkpt lat="39.0983930" lon="1.4758290">
        <ele>59.5</ele>
        <time>2020-02-22T15:40:31Z</time>
      </trkpt>
      <trkpt lat="39.0984050" lon="1.4758740">
        <ele>59.6</ele>
        <time>2020-02-22T15:40:32Z</time>
      </trkpt>
      <trkpt lat="39.0984140" lon="1.4759370">
        <ele>59.7</ele>
        <time>2020-02-22T15:40:33Z</time>
      </trkpt>
      <trkpt lat="39.0984430" lon="1.4759950">
        <ele>59.7</ele>
        <time>2020-02-22T15:40:34Z</time>
      </trkpt>
      <trkpt lat="39.0984560" lon="1.4760620">
        <ele>59.7</ele>
        <time>2020-02-22T15:40:35Z</time>
      </trkpt>
      <trkpt lat="39.0984700" lon="1.4761330">
        <ele>59.7</ele>
        <time>2020-02-22T15:40:36Z</time>
      </trkpt>
      <trkpt lat="39.0984910" lon="1.4761960">
        <ele>59.7</ele>
        <time>2020-02-22T15:40:37Z</time>
      </trkpt>
      <trkpt lat="39.0985210" lon="1.4762630">
        <ele>59.7</ele>
        <time>2020-02-22T15:40:38Z</time>
      </trkpt>
      <trkpt lat="39.0985670" lon="1.4763320">
        <ele>59.7</ele>
        <time>2020-02-22T15:40:39Z</time>
      </trkpt>
      <trkpt lat="39.0986130" lon="1.4763900">
        <ele>59.6</ele>
        <time>2020-02-22T15:40:40Z</time>
      </trkpt>
      <trkpt lat="39.0986590" lon="1.4764570">
        <ele>59.6</ele>
        <time>2020-02-22T15:40:41Z</time>
      </trkpt>
      <trkpt lat="39.0987050" lon="1.4765220">
        <ele>59.6</ele>
        <time>2020-02-22T15:40:42Z</time>
      </trkpt>
      <trkpt lat="39.0987470" lon="1.4765850">
        <ele>59.6</ele>
        <time>2020-02-22T15:40:43Z</time>
      </trkpt>
      <trkpt lat="39.0987900" lon="1.4766380">
        <ele>59.6</ele>
        <time>2020-02-22T15:40:44Z</time>
      </trkpt>
      <trkpt lat="39.0988310" lon="1.4766900">
        <ele>59.6</ele>
        <time>2020-02-22T15:40:45Z</time>
      </trkpt>
      <trkpt lat="39.0988500" lon="1.4767390">
        <ele>59.6</ele>
        <time>2020-02-22T15:40:46Z</time>
      </trkpt>
      <trkpt lat="39.0988600" lon="1.4767920">
        <ele>59.7</ele>
        <time>2020-02-22T15:40:47Z</time>
      </trkpt>
      <trkpt lat="39.0988620" lon="1.4768300">
        <ele>59.7</ele>
        <time>2020-02-22T15:40:48Z</time>
      </trkpt>
      <trkpt lat="39.0988590" lon="1.4768710">
        <ele>59.7</ele>
        <time>2020-02-22T15:40:49Z</time>
      </trkpt>
      <trkpt lat="39.0988650" lon="1.4769220">
        <ele>59.8</ele>
        <time>2020-02-22T15:40:50Z</time>
      </trkpt>
      <trkpt lat="39.0988750" lon="1.4769780">
        <ele>59.9</ele>
        <time>2020-02-22T15:40:51Z</time>
      </trkpt>
      <trkpt lat="39.0988820" lon="1.4770390">
        <ele>60.0</ele>
        <time>2020-02-22T15:40:52Z</time>
      </trkpt>
      <trkpt lat="39.0988880" lon="1.4770870">
        <ele>60.1</ele>
        <time>2020-02-22T15:40:53Z</time>
      </trkpt>
      <trkpt lat="39.0988930" lon="1.4771330">
        <ele>60.3</ele>
        <time>2020-02-22T15:40:54Z</time>
      </trkpt>
      <trkpt lat="39.0988930" lon="1.4771810">
        <ele>60.4</ele>
        <time>2020-02-22T15:40:55Z</time>
      </trkpt>
      <trkpt lat="39.0988950" lon="1.4772390">
        <ele>60.6</ele>
        <time>2020-02-22T15:40:56Z</time>
      </trkpt>
      <trkpt lat="39.0988940" lon="1.4772910">
        <ele>60.7</ele>
        <time>2020-02-22T15:40:57Z</time>
      </trkpt>
      <trkpt lat="39.0988850" lon="1.4773410">
        <ele>60.9</ele>
        <time>2020-02-22T15:40:58Z</time>
      </trkpt>
      <trkpt lat="39.0988870" lon="1.4773680">
        <ele>61.0</ele>
        <time>2020-02-22T15:40:59Z</time>
      </trkpt>
      <trkpt lat="39.0988840" lon="1.4774120">
        <ele>61.1</ele>
        <time>2020-02-22T15:41:00Z</time>
      </trkpt>
      <trkpt lat="39.0988790" lon="1.4774490">
        <ele>61.2</ele>
        <time>2020-02-22T15:41:01Z</time>
      </trkpt>
      <trkpt lat="39.0988790" lon="1.4774870">
        <ele>61.3</ele>
        <time>2020-02-22T15:41:02Z</time>
      </trkpt>
      <trkpt lat="39.0988770" lon="1.4775410">
        <ele>61.5</ele>
        <time>2020-02-22T15:41:03Z</time>
      </trkpt>
      <trkpt lat="39.0988730" lon="1.4775610">
        <ele>61.5</ele>
        <time>2020-02-22T15:41:04Z</time>
      </trkpt>
      <trkpt lat="39.0988710" lon="1.4775990">
        <ele>61.6</ele>
        <time>2020-02-22T15:41:05Z</time>
      </trkpt>
      <trkpt lat="39.0988620" lon="1.4776450">
        <ele>61.7</ele>
        <time>2020-02-22T15:41:06Z</time>
      </trkpt>
      <trkpt lat="39.0988530" lon="1.4776810">
        <ele>61.8</ele>
        <time>2020-02-22T15:41:07Z</time>
      </trkpt>
      <trkpt lat="39.0988470" lon="1.4777230">
        <ele>61.9</ele>
        <time>2020-02-22T15:41:08Z</time>
      </trkpt>
      <trkpt lat="39.0988400" lon="1.4777710">
        <ele>62.1</ele>
        <time>2020-02-22T15:41:09Z</time>
      </trkpt>
      <trkpt lat="39.0988370" lon="1.4777890">
        <ele>62.1</ele>
        <time>2020-02-22T15:41:10Z</time>
      </trkpt>
      <trkpt lat="39.0988230" lon="1.4778190">
        <ele>62.2</ele>
        <time>2020-02-22T15:41:11Z</time>
      </trkpt>
      <trkpt lat="39.0988000" lon="1.4778470">
        <ele>62.3</ele>
        <time>2020-02-22T15:41:12Z</time>
      </trkpt>
      <trkpt lat="39.0987850" lon="1.4778820">
        <ele>62.4</ele>
        <time>2020-02-22T15:41:13Z</time>
      </trkpt>
      <trkpt lat="39.0987760" lon="1.4779210">
        <ele>62.5</ele>
        <time>2020-02-22T15:41:14Z</time>
      </trkpt>
      <trkpt lat="39.0987690" lon="1.4779620">
        <ele>62.6</ele>
        <time>2020-02-22T15:41:15Z</time>
      </trkpt>
      <trkpt lat="39.0987480" lon="1.4780140">
        <ele>62.8</ele>
        <time>2020-02-22T15:41:16Z</time>
      </trkpt>
      <trkpt lat="39.0987390" lon="1.4780360">
        <ele>62.9</ele>
        <time>2020-02-22T15:41:17Z</time>
      </trkpt>
      <trkpt lat="39.0987240" lon="1.4780830">
        <ele>63.0</ele>
        <time>2020-02-22T15:41:18Z</time>
      </trkpt>
      <trkpt lat="39.0987180" lon="1.4781040">
        <ele>63.1</ele>
        <time>2020-02-22T15:41:19Z</time>
      </trkpt>
      <trkpt lat="39.0986920" lon="1.4781460">
        <ele>63.3</ele>
        <time>2020-02-22T15:41:20Z</time>
      </trkpt>
      <trkpt lat="39.0986830" lon="1.4781630">
        <ele>63.4</ele>
        <time>2020-02-22T15:41:21Z</time>
      </trkpt>
      <trkpt lat="39.0986670" lon="1.4782190">
        <ele>63.6</ele>
        <time>2020-02-22T15:41:22Z</time>
      </trkpt>
      <trkpt lat="39.0986610" lon="1.4782430">
        <ele>63.7</ele>
        <time>2020-02-22T15:41:23Z</time>
      </trkpt>
      <trkpt lat="39.0986470" lon="1.4782930">
        <ele>63.9</ele>
        <time>2020-02-22T15:41:24Z</time>
      </trkpt>
      <trkpt lat="39.0986430" lon="1.4783100">
        <ele>64.0</ele>
        <time>2020-02-22T15:41:25Z</time>
      </trkpt>
      <trkpt lat="39.0986320" lon="1.4783440">
        <ele>64.1</ele>
        <time>2020-02-22T15:41:26Z</time>
      </trkpt>
      <trkpt lat="39.0986170" lon="1.4783900">
        <ele>64.3</ele>
        <time>2020-02-22T15:41:27Z</time>
      </trkpt>
      <trkpt lat="39.0985960" lon="1.4784280">
        <ele>64.5</ele>
        <time>2020-02-22T15:41:28Z</time>
      </trkpt>
      <trkpt lat="39.0985810" lon="1.4784690">
        <ele>64.7</ele>
        <time>2020-02-22T15:41:29Z</time>
      </trkpt>
      <trkpt lat="39.0985770" lon="1.4784880">
        <ele>64.8</ele>
        <time>2020-02-22T15:41:30Z</time>
      </trkpt>
      <trkpt lat="39.0985700" lon="1.4785350">
        <ele>64.9</ele>
        <time>2020-02-22T15:41:31Z</time>
      </trkpt>
      <trkpt lat="39.0985680" lon="1.4785490">
        <ele>65.0</ele>
        <time>2020-02-22T15:41:32Z</time>
      </trkpt>
      <trkpt lat="39.0985710" lon="1.4785920">
        <ele>65.2</ele>
        <time>2020-02-22T15:41:33Z</time>
      </trkpt>
      <trkpt lat="39.0985690" lon="1.4786130">
        <ele>65.2</ele>
        <time>2020-02-22T15:41:34Z</time>
      </trkpt>
      <trkpt lat="39.0985610" lon="1.4786540">
        <ele>65.4</ele>
        <time>2020-02-22T15:41:35Z</time>
      </trkpt>
      <trkpt lat="39.0985510" lon="1.4786990">
        <ele>65.6</ele>
        <time>2020-02-22T15:41:36Z</time>
      </trkpt>
      <trkpt lat="39.0985380" lon="1.4787400">
        <ele>65.7</ele>
        <time>2020-02-22T15:41:37Z</time>
      </trkpt>
      <trkpt lat="39.0985310" lon="1.4787760">
        <ele>65.9</ele>
        <time>2020-02-22T15:41:38Z</time>
      </trkpt>
      <trkpt lat="39.0985220" lon="1.4788110">
        <ele>66.0</ele>
        <time>2020-02-22T15:41:39Z</time>
      </trkpt>
      <trkpt lat="39.0985180" lon="1.4788260">
        <ele>66.1</ele>
        <time>2020-02-22T15:41:40Z</time>
      </trkpt>
      <trkpt lat="39.0985060" lon="1.4788580">
        <ele>66.2</ele>
        <time>2020-02-22T15:41:41Z</time>
      </trkpt>
      <trkpt lat="39.0984950" lon="1.4788930">
        <ele>66.3</ele>
        <time>2020-02-22T15:41:42Z</time>
      </trkpt>
      <trkpt lat="39.0984940" lon="1.4789310">
        <ele>66.5</ele>
        <time>2020-02-22T15:41:43Z</time>
      </trkpt>
      <trkpt lat="39.0984830" lon="1.4789680">
        <ele>66.6</ele>
        <time>2020-02-22T15:41:44Z</time>
      </trkpt>
      <trkpt lat="39.0984800" lon="1.4789920">
        <ele>66.6</ele>
        <time>2020-02-22T15:41:45Z</time>
      </trkpt>
      <trkpt lat="39.0984780" lon="1.4790260">
        <ele>66.7</ele>
        <time>2020-02-22T15:41:46Z</time>
      </trkpt>
      <trkpt lat="39.0984830" lon="1.4790630">
        <ele>66.8</ele>
        <time>2020-02-22T15:41:47Z</time>
      </trkpt>
      <trkpt lat="39.0984870" lon="1.4791000">
        <ele>66.9</ele>
        <time>2020-02-22T15:41:48Z</time>
      </trkpt>
      <trkpt lat="39.0984890" lon="1.4791390">
        <ele>67.0</ele>
        <time>2020-02-22T15:41:49Z</time>
      </trkpt>
      <trkpt lat="39.0984850" lon="1.4791780">
        <ele>67.1</ele>
        <time>2020-02-22T15:41:50Z</time>
      </trkpt>
      <trkpt lat="39.0984810" lon="1.4792140">
        <ele>67.2</ele>
        <time>2020-02-22T15:41:51Z</time>
      </trkpt>
      <trkpt lat="39.0984720" lon="1.4792540">
        <ele>67.3</ele>
        <time>2020-02-22T15:41:52Z</time>
      </trkpt>
      <trkpt lat="39.0984610" lon="1.4793010">
        <ele>67.5</ele>
        <time>2020-02-22T15:41:53Z</time>
      </trkpt>
      <trkpt lat="39.0984440" lon="1.4793590">
        <ele>67.6</ele>
        <time>2020-02-22T15:41:54Z</time>
      </trkpt>
      <trkpt lat="39.0984250" lon="1.4793990">
        <ele>67.8</ele>
        <time>2020-02-22T15:41:55Z</time>
      </trkpt>
      <trkpt lat="39.0984070" lon="1.4794350">
        <ele>67.9</ele>
        <time>2020-02-22T15:41:56Z</time>
      </trkpt>
      <trkpt lat="39.0983910" lon="1.4794650">
        <ele>68.0</ele>
        <time>2020-02-22T15:41:57Z</time>
      </trkpt>
      <trkpt lat="39.0983810" lon="1.4794980">
        <ele>68.1</ele>
        <time>2020-02-22T15:41:58Z</time>
      </trkpt>
      <trkpt lat="39.0983730" lon="1.4795460">
        <ele>68.2</ele>
        <time>2020-02-22T15:41:59Z</time>
      </trkpt>
      <trkpt lat="39.0983710" lon="1.4795620">
        <ele>68.2</ele>
        <time>2020-02-22T15:42:00Z</time>
      </trkpt>
      <trkpt lat="39.0983680" lon="1.4796070">
        <ele>68.4</ele>
        <time>2020-02-22T15:42:01Z</time>
      </trkpt>
      <trkpt lat="39.0983640" lon="1.4796240">
        <ele>68.4</ele>
        <time>2020-02-22T15:42:02Z</time>
      </trkpt>
      <trkpt lat="39.0983500" lon="1.4796620">
        <ele>68.5</ele>
        <time>2020-02-22T15:42:03Z</time>
      </trkpt>
      <trkpt lat="39.0983420" lon="1.4796780">
        <ele>68.6</ele>
        <time>2020-02-22T15:42:04Z</time>
      </trkpt>
      <trkpt lat="39.0983290" lon="1.4797090">
        <ele>68.7</ele>
        <time>2020-02-22T15:42:05Z</time>
      </trkpt>
      <trkpt lat="39.0983140" lon="1.4797490">
        <ele>68.8</ele>
        <time>2020-02-22T15:42:06Z</time>
      </trkpt>
      <trkpt lat="39.0982990" lon="1.4797780">
        <ele>69.0</ele>
        <time>2020-02-22T15:42:07Z</time>
      </trkpt>
      <trkpt lat="39.0982800" lon="1.4798120">
        <ele>69.1</ele>
        <time>2020-02-22T15:42:08Z</time>
      </trkpt>
      <trkpt lat="39.0982640" lon="1.4798450">
        <ele>69.2</ele>
        <time>2020-02-22T15:42:09Z</time>
      </trkpt>
      <trkpt lat="39.0982370" lon="1.4798870">
        <ele>69.4</ele>
        <time>2020-02-22T15:42:10Z</time>
      </trkpt>
      <trkpt lat="39.0982240" lon="1.4799030">
        <ele>69.4</ele>
        <time>2020-02-22T15:42:11Z</time>
      </trkpt>
      <trkpt lat="39.0981940" lon="1.4799430">
        <ele>69.6</ele>
        <time>2020-02-22T15:42:12Z</time>
      </trkpt>
      <trkpt lat="39.0981830" lon="1.4799770">
        <ele>69.7</ele>
        <time>2020-02-22T15:42:13Z</time>
      </trkpt>
      <trkpt lat="39.0981620" lon="1.4800190">
        <ele>69.9</ele>
        <time>2020-02-22T15:42:14Z</time>
      </trkpt>
      <trkpt lat="39.0981530" lon="1.4800350">
        <ele>69.9</ele>
        <time>2020-02-22T15:42:15Z</time>
      </trkpt>
      <trkpt lat="39.0981380" lon="1.4800680">
        <ele>70.0</ele>
        <time>2020-02-22T15:42:16Z</time>
      </trkpt>
      <trkpt lat="39.0981140" lon="1.4801050">
        <ele>70.1</ele>
        <time>2020-02-22T15:42:17Z</time>
      </trkpt>
      <trkpt lat="39.0981030" lon="1.4801200">
        <ele>70.2</ele>
        <time>2020-02-22T15:42:18Z</time>
      </trkpt>
      <trkpt lat="39.0980920" lon="1.4801340">
        <ele>70.2</ele>
        <time>2020-02-22T15:42:19Z</time>
      </trkpt>
      <trkpt lat="39.0980710" lon="1.4801680">
        <ele>70.3</ele>
        <time>2020-02-22T15:42:20Z</time>
      </trkpt>
      <trkpt lat="39.0980650" lon="1.4801780">
        <ele>70.3</ele>
        <time>2020-02-22T15:42:21Z</time>
      </trkpt>
      <trkpt lat="39.0980490" lon="1.4802130">
        <ele>70.3</ele>
        <time>2020-02-22T15:42:22Z</time>
      </trkpt>
      <trkpt lat="39.0980290" lon="1.4802450">
        <ele>70.3</ele>
        <time>2020-02-22T15:42:23Z</time>
      </trkpt>
      <trkpt lat="39.0980100" lon="1.4802780">
        <ele>70.3</ele>
        <time>2020-02-22T15:42:24Z</time>
      </trkpt>
      <trkpt lat="39.0979910" lon="1.4803240">
        <ele>70.3</ele>
        <time>2020-02-22T15:42:25Z</time>
      </trkpt>
      <trkpt lat="39.0979800" lon="1.4803410">
        <ele>70.3</ele>
        <time>2020-02-22T15:42:26Z</time>
      </trkpt>
      <trkpt lat="39.0979550" lon="1.4803700">
        <ele>70.2</ele>
        <time>2020-02-22T15:42:27Z</time>
      </trkpt>
      <trkpt lat="39.0979310" lon="1.4803950">
        <ele>70.1</ele>
        <time>2020-02-22T15:42:28Z</time>
      </trkpt>
      <trkpt lat="39.0979020" lon="1.4804330">
        <ele>70.3</ele>
        <time>2020-02-22T15:42:29Z</time>
      </trkpt>
      <trkpt lat="39.0978890" lon="1.4804430">
        <ele>70.4</ele>
        <time>2020-02-22T15:42:30Z</time>
      </trkpt>
      <trkpt lat="39.0978650" lon="1.4804810">
        <ele>70.6</ele>
        <time>2020-02-22T15:42:31Z</time>
      </trkpt>
      <trkpt lat="39.0978380" lon="1.4805160">
        <ele>70.9</ele>
        <time>2020-02-22T15:42:32Z</time>
      </trkpt>
      <trkpt lat="39.0978290" lon="1.4805270">
        <ele>70.9</ele>
        <time>2020-02-22T15:42:33Z</time>
      </trkpt>
      <trkpt lat="39.0978310" lon="1.4805390">
        <ele>71.0</ele>
        <time>2020-02-22T15:42:34Z</time>
      </trkpt>
      <trkpt lat="39.0978190" lon="1.4805640">
        <ele>71.1</ele>
        <time>2020-02-22T15:42:35Z</time>
      </trkpt>
      <trkpt lat="39.0977960" lon="1.4806000">
        <ele>71.3</ele>
        <time>2020-02-22T15:42:36Z</time>
      </trkpt>
      <trkpt lat="39.0977770" lon="1.4806300">
        <ele>71.5</ele>
        <time>2020-02-22T15:42:37Z</time>
      </trkpt>
      <trkpt lat="39.0977550" lon="1.4806530">
        <ele>71.6</ele>
        <time>2020-02-22T15:42:38Z</time>
      </trkpt>
      <trkpt lat="39.0977270" lon="1.4806770">
        <ele>71.8</ele>
        <time>2020-02-22T15:42:39Z</time>
      </trkpt>
      <trkpt lat="39.0976970" lon="1.4807080">
        <ele>72.0</ele>
        <time>2020-02-22T15:42:40Z</time>
      </trkpt>
      <trkpt lat="39.0976770" lon="1.4807340">
        <ele>72.2</ele>
        <time>2020-02-22T15:42:41Z</time>
      </trkpt>
      <trkpt lat="39.0976470" lon="1.4807660">
        <ele>72.4</ele>
        <time>2020-02-22T15:42:42Z</time>
      </trkpt>
      <trkpt lat="39.0976380" lon="1.4807780">
        <ele>72.4</ele>
        <time>2020-02-22T15:42:43Z</time>
      </trkpt>
      <trkpt lat="39.0975990" lon="1.4808150">
        <ele>72.7</ele>
        <time>2020-02-22T15:42:44Z</time>
      </trkpt>
      <trkpt lat="39.0975770" lon="1.4808410">
        <ele>72.9</ele>
        <time>2020-02-22T15:42:45Z</time>
      </trkpt>
      <trkpt lat="39.0975490" lon="1.4808680">
        <ele>73.0</ele>
        <time>2020-02-22T15:42:46Z</time>
      </trkpt>
      <trkpt lat="39.0975280" lon="1.4808920">
        <ele>73.2</ele>
        <time>2020-02-22T15:42:47Z</time>
      </trkpt>
      <trkpt lat="39.0975160" lon="1.4809040">
        <ele>73.2</ele>
        <time>2020-02-22T15:42:48Z</time>
      </trkpt>
      <trkpt lat="39.0974850" lon="1.4809340">
        <ele>73.4</ele>
        <time>2020-02-22T15:42:49Z</time>
      </trkpt>
      <trkpt lat="39.0974720" lon="1.4809460">
        <ele>73.5</ele>
        <time>2020-02-22T15:42:50Z</time>
      </trkpt>
      <trkpt lat="39.0974450" lon="1.4809750">
        <ele>73.7</ele>
        <time>2020-02-22T15:42:51Z</time>
      </trkpt>
      <trkpt lat="39.0974240" lon="1.4810050">
        <ele>73.9</ele>
        <time>2020-02-22T15:42:52Z</time>
      </trkpt>
      <trkpt lat="39.0974010" lon="1.4810290">
        <ele>74.0</ele>
        <time>2020-02-22T15:42:53Z</time>
      </trkpt>
      <trkpt lat="39.0973690" lon="1.4810640">
        <ele>74.2</ele>
        <time>2020-02-22T15:42:54Z</time>
      </trkpt>
      <trkpt lat="39.0973470" lon="1.4810910">
        <ele>74.4</ele>
        <time>2020-02-22T15:42:55Z</time>
      </trkpt>
      <trkpt lat="39.0973250" lon="1.4811210">
        <ele>74.5</ele>
        <time>2020-02-22T15:42:56Z</time>
      </trkpt>
      <trkpt lat="39.0973020" lon="1.4811440">
        <ele>74.7</ele>
        <time>2020-02-22T15:42:57Z</time>
      </trkpt>
      <trkpt lat="39.0972720" lon="1.4811680">
        <ele>74.9</ele>
        <time>2020-02-22T15:42:58Z</time>
      </trkpt>
      <trkpt lat="39.0972620" lon="1.4811740">
        <ele>74.9</ele>
        <time>2020-02-22T15:42:59Z</time>
      </trkpt>
      <trkpt lat="39.0972370" lon="1.4811910">
        <ele>75.0</ele>
        <time>2020-02-22T15:43:00Z</time>
      </trkpt>
      <trkpt lat="39.0972020" lon="1.4812080">
        <ele>75.2</ele>
        <time>2020-02-22T15:43:01Z</time>
      </trkpt>
      <trkpt lat="39.0971750" lon="1.4812240">
        <ele>75.3</ele>
        <time>2020-02-22T15:43:02Z</time>
      </trkpt>
      <trkpt lat="39.0971470" lon="1.4812420">
        <ele>75.5</ele>
        <time>2020-02-22T15:43:03Z</time>
      </trkpt>
      <trkpt lat="39.0971150" lon="1.4812600">
        <ele>75.6</ele>
        <time>2020-02-22T15:43:04Z</time>
      </trkpt>
      <trkpt lat="39.0970790" lon="1.4812810">
        <ele>75.8</ele>
        <time>2020-02-22T15:43:05Z</time>
      </trkpt>
      <trkpt lat="39.0970410" lon="1.4813060">
        <ele>75.9</ele>
        <time>2020-02-22T15:43:06Z</time>
      </trkpt>
      <trkpt lat="39.0970270" lon="1.4813190">
        <ele>76.0</ele>
        <time>2020-02-22T15:43:07Z</time>
      </trkpt>
      <trkpt lat="39.0970000" lon="1.4813440">
        <ele>76.1</ele>
        <time>2020-02-22T15:43:08Z</time>
      </trkpt>
      <trkpt lat="39.0969650" lon="1.4813750">
        <ele>76.2</ele>
        <time>2020-02-22T15:43:09Z</time>
      </trkpt>
      <trkpt lat="39.0969500" lon="1.4813910">
        <ele>76.3</ele>
        <time>2020-02-22T15:43:10Z</time>
      </trkpt>
      <trkpt lat="39.0969210" lon="1.4814150">
        <ele>76.4</ele>
        <time>2020-02-22T15:43:11Z</time>
      </trkpt>
      <trkpt lat="39.0969080" lon="1.4814240">
        <ele>76.4</ele>
        <time>2020-02-22T15:43:12Z</time>
      </trkpt>
      <trkpt lat="39.0968730" lon="1.4814520">
        <ele>76.5</ele>
        <time>2020-02-22T15:43:13Z</time>
      </trkpt>
      <trkpt lat="39.0968570" lon="1.4814620">
        <ele>76.6</ele>
        <time>2020-02-22T15:43:14Z</time>
      </trkpt>
      <trkpt lat="39.0968250" lon="1.4814870">
        <ele>76.7</ele>
        <time>2020-02-22T15:43:15Z</time>
      </trkpt>
      <trkpt lat="39.0968140" lon="1.4814990">
        <ele>76.8</ele>
        <time>2020-02-22T15:43:16Z</time>
      </trkpt>
      <trkpt lat="39.0967820" lon="1.4815230">
        <ele>76.9</ele>
        <time>2020-02-22T15:43:17Z</time>
      </trkpt>
      <trkpt lat="39.0967710" lon="1.4815300">
        <ele>77.0</ele>
        <time>2020-02-22T15:43:18Z</time>
      </trkpt>
      <trkpt lat="39.0967470" lon="1.4815550">
        <ele>77.1</ele>
        <time>2020-02-22T15:43:19Z</time>
      </trkpt>
      <trkpt lat="39.0967230" lon="1.4815770">
        <ele>77.2</ele>
        <time>2020-02-22T15:43:20Z</time>
      </trkpt>
      <trkpt lat="39.0966940" lon="1.4816060">
        <ele>77.3</ele>
        <time>2020-02-22T15:43:21Z</time>
      </trkpt>
      <trkpt lat="39.0966700" lon="1.4816380">
        <ele>77.5</ele>
        <time>2020-02-22T15:43:22Z</time>
      </trkpt>
      <trkpt lat="39.0966480" lon="1.4816600">
        <ele>77.6</ele>
        <time>2020-02-22T15:43:23Z</time>
      </trkpt>
      <trkpt lat="39.0966190" lon="1.4816970">
        <ele>77.7</ele>
        <time>2020-02-22T15:43:24Z</time>
      </trkpt>
      <trkpt lat="39.0966110" lon="1.4817120">
        <ele>77.8</ele>
        <time>2020-02-22T15:43:25Z</time>
      </trkpt>
      <trkpt lat="39.0965850" lon="1.4817490">
        <ele>77.9</ele>
        <time>2020-02-22T15:43:26Z</time>
      </trkpt>
      <trkpt lat="39.0965750" lon="1.4817610">
        <ele>77.9</ele>
        <time>2020-02-22T15:43:27Z</time>
      </trkpt>
      <trkpt lat="39.0965500" lon="1.4817870">
        <ele>78.0</ele>
        <time>2020-02-22T15:43:28Z</time>
      </trkpt>
      <trkpt lat="39.0965280" lon="1.4818100">
        <ele>78.1</ele>
        <time>2020-02-22T15:43:29Z</time>
      </trkpt>
      <trkpt lat="39.0965010" lon="1.4818410">
        <ele>78.2</ele>
        <time>2020-02-22T15:43:30Z</time>
      </trkpt>
      <trkpt lat="39.0964750" lon="1.4818670">
        <ele>78.3</ele>
        <time>2020-02-22T15:43:31Z</time>
      </trkpt>
      <trkpt lat="39.0964370" lon="1.4818850">
        <ele>78.4</ele>
        <time>2020-02-22T15:43:32Z</time>
      </trkpt>
      <trkpt lat="39.0964080" lon="1.4819070">
        <ele>78.5</ele>
        <time>2020-02-22T15:43:33Z</time>
      </trkpt>
      <trkpt lat="39.0963820" lon="1.4819240">
        <ele>78.6</ele>
        <time>2020-02-22T15:43:34Z</time>
      </trkpt>
      <trkpt lat="39.0963530" lon="1.4819550">
        <ele>78.7</ele>
        <time>2020-02-22T15:43:35Z</time>
      </trkpt>
      <trkpt lat="39.0963400" lon="1.4819690">
        <ele>78.7</ele>
        <time>2020-02-22T15:43:36Z</time>
      </trkpt>
      <trkpt lat="39.0963220" lon="1.4819990">
        <ele>78.8</ele>
        <time>2020-02-22T15:43:37Z</time>
      </trkpt>
      <trkpt lat="39.0962980" lon="1.4820350">
        <ele>78.9</ele>
        <time>2020-02-22T15:43:38Z</time>
      </trkpt>
      <trkpt lat="39.0962740" lon="1.4820630">
        <ele>79.0</ele>
        <time>2020-02-22T15:43:39Z</time>
      </trkpt>
      <trkpt lat="39.0962530" lon="1.4820890">
        <ele>79.1</ele>
        <time>2020-02-22T15:43:40Z</time>
      </trkpt>
      <trkpt lat="39.0962200" lon="1.4821150">
        <ele>79.2</ele>
        <time>2020-02-22T15:43:41Z</time>
      </trkpt>
      <trkpt lat="39.0962090" lon="1.4821300">
        <ele>79.3</ele>
        <time>2020-02-22T15:43:42Z</time>
      </trkpt>
      <trkpt lat="39.0961890" lon="1.4821620">
        <ele>79.4</ele>
        <time>2020-02-22T15:43:43Z</time>
      </trkpt>
      <trkpt lat="39.0961760" lon="1.4821790">
        <ele>79.4</ele>
        <time>2020-02-22T15:43:44Z</time>
      </trkpt>
      <trkpt lat="39.0961550" lon="1.4822090">
        <ele>79.6</ele>
        <time>2020-02-22T15:43:45Z</time>
      </trkpt>
      <trkpt lat="39.0961350" lon="1.4822340">
        <ele>79.7</ele>
        <time>2020-02-22T15:43:46Z</time>
      </trkpt>
      <trkpt lat="39.0961060" lon="1.4822570">
        <ele>79.8</ele>
        <time>2020-02-22T15:43:47Z</time>
      </trkpt>
      <trkpt lat="39.0960750" lon="1.4822910">
        <ele>79.9</ele>
        <time>2020-02-22T15:43:48Z</time>
      </trkpt>
      <trkpt lat="39.0960700" lon="1.4823030">
        <ele>80.0</ele>
        <time>2020-02-22T15:43:49Z</time>
      </trkpt>
      <trkpt lat="39.0960540" lon="1.4823280">
        <ele>80.1</ele>
        <time>2020-02-22T15:43:50Z</time>
      </trkpt>
      <trkpt lat="39.0960240" lon="1.4823620">
        <ele>80.3</ele>
        <time>2020-02-22T15:43:51Z</time>
      </trkpt>
      <trkpt lat="39.0960120" lon="1.4823730">
        <ele>80.3</ele>
        <time>2020-02-22T15:43:52Z</time>
      </trkpt>
      <trkpt lat="39.0959720" lon="1.4824110">
        <ele>80.6</ele>
        <time>2020-02-22T15:43:53Z</time>
      </trkpt>
      <trkpt lat="39.0959470" lon="1.4824370">
        <ele>80.7</ele>
        <time>2020-02-22T15:43:54Z</time>
      </trkpt>
      <trkpt lat="39.0959190" lon="1.4824610">
        <ele>80.9</ele>
        <time>2020-02-22T15:43:55Z</time>
      </trkpt>
      <trkpt lat="39.0958950" lon="1.4824950">
        <ele>81.1</ele>
        <time>2020-02-22T15:43:56Z</time>
      </trkpt>
      <trkpt lat="39.0958860" lon="1.4825040">
        <ele>81.1</ele>
        <time>2020-02-22T15:43:57Z</time>
      </trkpt>
      <trkpt lat="39.0958430" lon="1.4825420">
        <ele>81.4</ele>
        <time>2020-02-22T15:43:58Z</time>
      </trkpt>
      <trkpt lat="39.0958220" lon="1.4825620">
        <ele>81.6</ele>
        <time>2020-02-22T15:43:59Z</time>
      </trkpt>
      <trkpt lat="39.0957970" lon="1.4825970">
        <ele>81.8</ele>
        <time>2020-02-22T15:44:00Z</time>
      </trkpt>
      <trkpt lat="39.0957690" lon="1.4826380">
        <ele>82.0</ele>
        <time>2020-02-22T15:44:01Z</time>
      </trkpt>
      <trkpt lat="39.0957440" lon="1.4826620">
        <ele>82.2</ele>
        <time>2020-02-22T15:44:02Z</time>
      </trkpt>
      <trkpt lat="39.0957250" lon="1.4826980">
        <ele>82.4</ele>
        <time>2020-02-22T15:44:03Z</time>
      </trkpt>
      <trkpt lat="39.0957180" lon="1.4827120">
        <ele>82.5</ele>
        <time>2020-02-22T15:44:04Z</time>
      </trkpt>
      <trkpt lat="39.0956910" lon="1.4827500">
        <ele>82.8</ele>
        <time>2020-02-22T15:44:05Z</time>
      </trkpt>
      <trkpt lat="39.0956640" lon="1.4827840">
        <ele>83.0</ele>
        <time>2020-02-22T15:44:06Z</time>
      </trkpt>
      <trkpt lat="39.0956570" lon="1.4827950">
        <ele>83.1</ele>
        <time>2020-02-22T15:44:07Z</time>
      </trkpt>
      <trkpt lat="39.0956330" lon="1.4828310">
        <ele>83.3</ele>
        <time>2020-02-22T15:44:08Z</time>
      </trkpt>
      <trkpt lat="39.0956090" lon="1.4828760">
        <ele>83.6</ele>
        <time>2020-02-22T15:44:09Z</time>
      </trkpt>
      <trkpt lat="39.0955980" lon="1.4828910">
        <ele>83.7</ele>
        <time>2020-02-22T15:44:10Z</time>
      </trkpt>
      <trkpt lat="39.0955780" lon="1.4829150">
        <ele>83.8</ele>
        <time>2020-02-22T15:44:11Z</time>
      </trkpt>
      <trkpt lat="39.0955580" lon="1.4829400">
        <ele>84.0</ele>
        <time>2020-02-22T15:44:12Z</time>
      </trkpt>
      <trkpt lat="39.0955360" lon="1.4829900">
        <ele>84.3</ele>
        <time>2020-02-22T15:44:13Z</time>
      </trkpt>
      <trkpt lat="39.0955210" lon="1.4830200">
        <ele>84.4</ele>
        <time>2020-02-22T15:44:14Z</time>
      </trkpt>
      <trkpt lat="39.0954930" lon="1.4830550">
        <ele>84.7</ele>
        <time>2020-02-22T15:44:15Z</time>
      </trkpt>
      <trkpt lat="39.0954690" lon="1.4830850">
        <ele>84.8</ele>
        <time>2020-02-22T15:44:16Z</time>
      </trkpt>
      <trkpt lat="39.0954530" lon="1.4831150">
        <ele>85.0</ele>
        <time>2020-02-22T15:44:17Z</time>
      </trkpt>
      <trkpt lat="39.0954260" lon="1.4831540">
        <ele>85.2</ele>
        <time>2020-02-22T15:44:18Z</time>
      </trkpt>
      <trkpt lat="39.0954150" lon="1.4831710">
        <ele>85.3</ele>
        <time>2020-02-22T15:44:19Z</time>
      </trkpt>
      <trkpt lat="39.0953950" lon="1.4832050">
        <ele>85.5</ele>
        <time>2020-02-22T15:44:20Z</time>
      </trkpt>
      <trkpt lat="39.0953880" lon="1.4832140">
        <ele>85.5</ele>
        <time>2020-02-22T15:44:21Z</time>
      </trkpt>
      <trkpt lat="39.0953560" lon="1.4832450">
        <ele>85.8</ele>
        <time>2020-02-22T15:44:22Z</time>
      </trkpt>
      <trkpt lat="39.0953370" lon="1.4832780">
        <ele>85.9</ele>
        <time>2020-02-22T15:44:23Z</time>
      </trkpt>
      <trkpt lat="39.0953110" lon="1.4833020">
        <ele>86.1</ele>
        <time>2020-02-22T15:44:24Z</time>
      </trkpt>
      <trkpt lat="39.0952790" lon="1.4833190">
        <ele>86.4</ele>
        <time>2020-02-22T15:44:25Z</time>
      </trkpt>
      <trkpt lat="39.0952580" lon="1.4833480">
        <ele>86.5</ele>
        <time>2020-02-22T15:44:26Z</time>
      </trkpt>
      <trkpt lat="39.0952300" lon="1.4833860">
        <ele>86.5</ele>
        <time>2020-02-22T15:44:27Z</time>
      </trkpt>
      <trkpt lat="39.0952200" lon="1.4834050">
        <ele>86.5</ele>
        <time>2020-02-22T15:44:28Z</time>
      </trkpt>
      <trkpt lat="39.0951950" lon="1.4834460">
        <ele>86.5</ele>
        <time>2020-02-22T15:44:29Z</time>
      </trkpt>
      <trkpt lat="39.0951860" lon="1.4834590">
        <ele>86.5</ele>
        <time>2020-02-22T15:44:30Z</time>
      </trkpt>
      <trkpt lat="39.0951630" lon="1.4834860">
        <ele>86.5</ele>
        <time>2020-02-22T15:44:31Z</time>
      </trkpt>
      <trkpt lat="39.0951460" lon="1.4835260">
        <ele>86.5</ele>
        <time>2020-02-22T15:44:32Z</time>
      </trkpt>
      <trkpt lat="39.0951250" lon="1.4835480">
        <ele>86.6</ele>
        <time>2020-02-22T15:44:33Z</time>
      </trkpt>
      <trkpt lat="39.0951040" lon="1.4835830">
        <ele>86.6</ele>
        <time>2020-02-22T15:44:34Z</time>
      </trkpt>
      <trkpt lat="39.0950810" lon="1.4836220">
        <ele>86.6</ele>
        <time>2020-02-22T15:44:35Z</time>
      </trkpt>
      <trkpt lat="39.0950560" lon="1.4836530">
        <ele>86.7</ele>
        <time>2020-02-22T15:44:36Z</time>
      </trkpt>
      <trkpt lat="39.0950460" lon="1.4836660">
        <ele>86.7</ele>
        <time>2020-02-22T15:44:37Z</time>
      </trkpt>
      <trkpt lat="39.0950180" lon="1.4837020">
        <ele>86.7</ele>
        <time>2020-02-22T15:44:38Z</time>
      </trkpt>
      <trkpt lat="39.0950100" lon="1.4837150">
        <ele>86.8</ele>
        <time>2020-02-22T15:44:39Z</time>
      </trkpt>
      <trkpt lat="39.0949860" lon="1.4837500">
        <ele>86.9</ele>
        <time>2020-02-22T15:44:40Z</time>
      </trkpt>
      <trkpt lat="39.0949630" lon="1.4837920">
        <ele>87.0</ele>
        <time>2020-02-22T15:44:41Z</time>
      </trkpt>
      <trkpt lat="39.0949590" lon="1.4838100">
        <ele>87.0</ele>
        <time>2020-02-22T15:44:42Z</time>
      </trkpt>
      <trkpt lat="39.0949410" lon="1.4838350">
        <ele>87.1</ele>
        <time>2020-02-22T15:44:43Z</time>
      </trkpt>
      <trkpt lat="39.0949230" lon="1.4838670">
        <ele>87.3</ele>
        <time>2020-02-22T15:44:44Z</time>
      </trkpt>
      <trkpt lat="39.0948950" lon="1.4839100">
        <ele>87.4</ele>
        <time>2020-02-22T15:44:45Z</time>
      </trkpt>
      <trkpt lat="39.0948770" lon="1.4839380">
        <ele>87.5</ele>
        <time>2020-02-22T15:44:46Z</time>
      </trkpt>
      <trkpt lat="39.0948550" lon="1.4839610">
        <ele>87.7</ele>
        <time>2020-02-22T15:44:47Z</time>
      </trkpt>
      <trkpt lat="39.0948340" lon="1.4839860">
        <ele>87.8</ele>
        <time>2020-02-22T15:44:48Z</time>
      </trkpt>
      <trkpt lat="39.0948100" lon="1.4840330">
        <ele>88.0</ele>
        <time>2020-02-22T15:44:49Z</time>
      </trkpt>
      <trkpt lat="39.0948000" lon="1.4840520">
        <ele>88.1</ele>
        <time>2020-02-22T15:44:50Z</time>
      </trkpt>
      <trkpt lat="39.0947840" lon="1.4840890">
        <ele>88.2</ele>
        <time>2020-02-22T15:44:51Z</time>
      </trkpt>
      <trkpt lat="39.0947680" lon="1.4841300">
        <ele>88.4</ele>
        <time>2020-02-22T15:44:52Z</time>
      </trkpt>
      <trkpt lat="39.0947510" lon="1.4841640">
        <ele>88.6</ele>
        <time>2020-02-22T15:44:53Z</time>
      </trkpt>
      <trkpt lat="39.0947460" lon="1.4841740">
        <ele>88.6</ele>
        <time>2020-02-22T15:44:54Z</time>
      </trkpt>
      <trkpt lat="39.0947370" lon="1.4842090">
        <ele>88.8</ele>
        <time>2020-02-22T15:44:55Z</time>
      </trkpt>
      <trkpt lat="39.0947340" lon="1.4842220">
        <ele>88.8</ele>
        <time>2020-02-22T15:44:56Z</time>
      </trkpt>
      <trkpt lat="39.0947170" lon="1.4842580">
        <ele>89.0</ele>
        <time>2020-02-22T15:44:57Z</time>
      </trkpt>
      <trkpt lat="39.0947090" lon="1.4842700">
        <ele>89.1</ele>
        <time>2020-02-22T15:44:58Z</time>
      </trkpt>
      <trkpt lat="39.0946930" lon="1.4842980">
        <ele>89.2</ele>
        <time>2020-02-22T15:44:59Z</time>
      </trkpt>
      <trkpt lat="39.0946760" lon="1.4843360">
        <ele>89.4</ele>
        <time>2020-02-22T15:45:00Z</time>
      </trkpt>
      <trkpt lat="39.0946580" lon="1.4843890">
        <ele>89.7</ele>
        <time>2020-02-22T15:45:01Z</time>
      </trkpt>
      <trkpt lat="39.0946370" lon="1.4844400">
        <ele>89.9</ele>
        <time>2020-02-22T15:45:02Z</time>
      </trkpt>
      <trkpt lat="39.0946210" lon="1.4844950">
        <ele>90.2</ele>
        <time>2020-02-22T15:45:03Z</time>
      </trkpt>
      <trkpt lat="39.0946060" lon="1.4845330">
        <ele>90.4</ele>
        <time>2020-02-22T15:45:04Z</time>
      </trkpt>
      <trkpt lat="39.0945990" lon="1.4845500">
        <ele>90.5</ele>
        <time>2020-02-22T15:45:05Z</time>
      </trkpt>
      <trkpt lat="39.0945820" lon="1.4845940">
        <ele>90.7</ele>
        <time>2020-02-22T15:45:06Z</time>
      </trkpt>
      <trkpt lat="39.0945760" lon="1.4846130">
        <ele>90.8</ele>
        <time>2020-02-22T15:45:07Z</time>
      </trkpt>
      <trkpt lat="39.0945660" lon="1.4846570">
        <ele>91.0</ele>
        <time>2020-02-22T15:45:08Z</time>
      </trkpt>
      <trkpt lat="39.0945640" lon="1.4846730">
        <ele>91.1</ele>
        <time>2020-02-22T15:45:09Z</time>
      </trkpt>
      <trkpt lat="39.0945560" lon="1.4847080">
        <ele>91.2</ele>
        <time>2020-02-22T15:45:10Z</time>
      </trkpt>
      <trkpt lat="39.0945460" lon="1.4847460">
        <ele>91.4</ele>
        <time>2020-02-22T15:45:11Z</time>
      </trkpt>
      <trkpt lat="39.0945430" lon="1.4847600">
        <ele>91.5</ele>
        <time>2020-02-22T15:45:12Z</time>
      </trkpt>
      <trkpt lat="39.0945370" lon="1.4848060">
        <ele>91.7</ele>
        <time>2020-02-22T15:45:13Z</time>
      </trkpt>
      <trkpt lat="39.0945350" lon="1.4848240">
        <ele>92.0</ele>
        <time>2020-02-22T15:45:14Z</time>
      </trkpt>
      <trkpt lat="39.0945130" lon="1.4848750">
        <ele>92.3</ele>
        <time>2020-02-22T15:45:15Z</time>
      </trkpt>
      <trkpt lat="39.0945060" lon="1.4849160">
        <ele>92.5</ele>
        <time>2020-02-22T15:45:16Z</time>
      </trkpt>
      <trkpt lat="39.0945050" lon="1.4849280">
        <ele>92.5</ele>
        <time>2020-02-22T15:45:17Z</time>
      </trkpt>
      <trkpt lat="39.0944890" lon="1.4849660">
        <ele>92.7</ele>
        <time>2020-02-22T15:45:18Z</time>
      </trkpt>
      <trkpt lat="39.0944840" lon="1.4849740">
        <ele>92.7</ele>
        <time>2020-02-22T15:45:19Z</time>
      </trkpt>
      <trkpt lat="39.0944660" lon="1.4850070">
        <ele>92.9</ele>
        <time>2020-02-22T15:45:20Z</time>
      </trkpt>
      <trkpt lat="39.0944600" lon="1.4850200">
        <ele>92.9</ele>
        <time>2020-02-22T15:45:21Z</time>
      </trkpt>
      <trkpt lat="39.0944510" lon="1.4850710">
        <ele>93.1</ele>
        <time>2020-02-22T15:45:22Z</time>
      </trkpt>
      <trkpt lat="39.0944450" lon="1.4850880">
        <ele>93.2</ele>
        <time>2020-02-22T15:45:23Z</time>
      </trkpt>
      <trkpt lat="39.0944240" lon="1.4851240">
        <ele>93.4</ele>
        <time>2020-02-22T15:45:24Z</time>
      </trkpt>
      <trkpt lat="39.0944150" lon="1.4851410">
        <ele>93.4</ele>
        <time>2020-02-22T15:45:25Z</time>
      </trkpt>
      <trkpt lat="39.0944050" lon="1.4851840">
        <ele>93.6</ele>
        <time>2020-02-22T15:45:26Z</time>
      </trkpt>
      <trkpt lat="39.0944020" lon="1.4851990">
        <ele>93.6</ele>
        <time>2020-02-22T15:45:27Z</time>
      </trkpt>
      <trkpt lat="39.0943870" lon="1.4852510">
        <ele>93.9</ele>
        <time>2020-02-22T15:45:28Z</time>
      </trkpt>
      <trkpt lat="39.0943790" lon="1.4852740">
        <ele>94.1</ele>
        <time>2020-02-22T15:45:29Z</time>
      </trkpt>
      <trkpt lat="39.0943670" lon="1.4853090">
        <ele>94.3</ele>
        <time>2020-02-22T15:45:30Z</time>
      </trkpt>
      <trkpt lat="39.0943580" lon="1.4853500">
        <ele>94.5</ele>
        <time>2020-02-22T15:45:31Z</time>
      </trkpt>
      <trkpt lat="39.0943430" lon="1.4853870">
        <ele>94.7</ele>
        <time>2020-02-22T15:45:32Z</time>
      </trkpt>
      <trkpt lat="39.0943380" lon="1.4854000">
        <ele>94.8</ele>
        <time>2020-02-22T15:45:33Z</time>
      </trkpt>
      <trkpt lat="39.0943270" lon="1.4854350">
        <ele>95.0</ele>
        <time>2020-02-22T15:45:34Z</time>
      </trkpt>
      <trkpt lat="39.0943240" lon="1.4854450">
        <ele>95.0</ele>
        <time>2020-02-22T15:45:35Z</time>
      </trkpt>
      <trkpt lat="39.0943090" lon="1.4854850">
        <ele>95.3</ele>
        <time>2020-02-22T15:45:36Z</time>
      </trkpt>
      <trkpt lat="39.0943010" lon="1.4854990">
        <ele>95.3</ele>
        <time>2020-02-22T15:45:37Z</time>
      </trkpt>
      <trkpt lat="39.0942890" lon="1.4855310">
        <ele>95.5</ele>
        <time>2020-02-22T15:45:38Z</time>
      </trkpt>
      <trkpt lat="39.0942870" lon="1.4855440">
        <ele>95.5</ele>
        <time>2020-02-22T15:45:39Z</time>
      </trkpt>
      <trkpt lat="39.0942730" lon="1.4855760">
        <ele>95.7</ele>
        <time>2020-02-22T15:45:40Z</time>
      </trkpt>
      <trkpt lat="39.0942580" lon="1.4856150">
        <ele>95.9</ele>
        <time>2020-02-22T15:45:41Z</time>
      </trkpt>
      <trkpt lat="39.0942530" lon="1.4856280">
        <ele>95.9</ele>
        <time>2020-02-22T15:45:42Z</time>
      </trkpt>
      <trkpt lat="39.0942400" lon="1.4856650">
        <ele>96.1</ele>
        <time>2020-02-22T15:45:43Z</time>
      </trkpt>
      <trkpt lat="39.0942350" lon="1.4856780">
        <ele>96.2</ele>
        <time>2020-02-22T15:45:44Z</time>
      </trkpt>
      <trkpt lat="39.0942230" lon="1.4857180">
        <ele>96.3</ele>
        <time>2020-02-22T15:45:45Z</time>
      </trkpt>
      <trkpt lat="39.0942010" lon="1.4857530">
        <ele>96.5</ele>
        <time>2020-02-22T15:45:46Z</time>
      </trkpt>
      <trkpt lat="39.0941780" lon="1.4857830">
        <ele>96.7</ele>
        <time>2020-02-22T15:45:47Z</time>
      </trkpt>
      <trkpt lat="39.0941690" lon="1.4857900">
        <ele>96.8</ele>
        <time>2020-02-22T15:45:48Z</time>
      </trkpt>
      <trkpt lat="39.0941400" lon="1.4858270">
        <ele>97.0</ele>
        <time>2020-02-22T15:45:49Z</time>
      </trkpt>
      <trkpt lat="39.0941300" lon="1.4858390">
        <ele>97.0</ele>
        <time>2020-02-22T15:45:50Z</time>
      </trkpt>
      <trkpt lat="39.0940980" lon="1.4858730">
        <ele>97.3</ele>
        <time>2020-02-22T15:45:51Z</time>
      </trkpt>
      <trkpt lat="39.0940830" lon="1.4858900">
        <ele>97.4</ele>
        <time>2020-02-22T15:45:52Z</time>
      </trkpt>
      <trkpt lat="39.0940540" lon="1.4859240">
        <ele>97.6</ele>
        <time>2020-02-22T15:45:53Z</time>
      </trkpt>
      <trkpt lat="39.0940450" lon="1.4859340">
        <ele>97.6</ele>
        <time>2020-02-22T15:45:54Z</time>
      </trkpt>
      <trkpt lat="39.0940200" lon="1.4859550">
        <ele>97.8</ele>
        <time>2020-02-22T15:45:55Z</time>
      </trkpt>
      <trkpt lat="39.0939990" lon="1.4859790">
        <ele>98.0</ele>
        <time>2020-02-22T15:45:56Z</time>
      </trkpt>
      <trkpt lat="39.0939740" lon="1.4860020">
        <ele>98.1</ele>
        <time>2020-02-22T15:45:57Z</time>
      </trkpt>
      <trkpt lat="39.0939460" lon="1.4860230">
        <ele>98.3</ele>
        <time>2020-02-22T15:45:58Z</time>
      </trkpt>
      <trkpt lat="39.0939130" lon="1.4860430">
        <ele>98.5</ele>
        <time>2020-02-22T15:45:59Z</time>
      </trkpt>
      <trkpt lat="39.0938870" lon="1.4860640">
        <ele>98.6</ele>
        <time>2020-02-22T15:46:00Z</time>
      </trkpt>
      <trkpt lat="39.0938850" lon="1.4861070">
        <ele>98.9</ele>
        <time>2020-02-22T15:46:01Z</time>
      </trkpt>
      <trkpt lat="39.0938810" lon="1.4861530">
        <ele>99.1</ele>
        <time>2020-02-22T15:46:02Z</time>
      </trkpt>
      <trkpt lat="39.0938780" lon="1.4861760">
        <ele>99.3</ele>
        <time>2020-02-22T15:46:03Z</time>
      </trkpt>
      <trkpt lat="39.0938760" lon="1.4862120">
        <ele>99.5</ele>
        <time>2020-02-22T15:46:04Z</time>
      </trkpt>
      <trkpt lat="39.0938720" lon="1.4862240">
        <ele>99.5</ele>
        <time>2020-02-22T15:46:05Z</time>
      </trkpt>
      <trkpt lat="39.0938650" lon="1.4862650">
        <ele>99.6</ele>
        <time>2020-02-22T15:46:06Z</time>
      </trkpt>
      <trkpt lat="39.0938640" lon="1.4862800">
        <ele>99.7</ele>
        <time>2020-02-22T15:46:07Z</time>
      </trkpt>
      <trkpt lat="39.0938590" lon="1.4863190">
        <ele>99.8</ele>
        <time>2020-02-22T15:46:08Z</time>
      </trkpt>
      <trkpt lat="39.0938510" lon="1.4863530">
        <ele>100.0</ele>
        <time>2020-02-22T15:46:09Z</time>
      </trkpt>
      <trkpt lat="39.0938440" lon="1.4863980">
        <ele>100.1</ele>
        <time>2020-02-22T15:46:10Z</time>
      </trkpt>
      <trkpt lat="39.0938400" lon="1.4864140">
        <ele>100.2</ele>
        <time>2020-02-22T15:46:11Z</time>
      </trkpt>
      <trkpt lat="39.0938220" lon="1.4864530">
        <ele>100.3</ele>
        <time>2020-02-22T15:46:12Z</time>
      </trkpt>
      <trkpt lat="39.0938170" lon="1.4864680">
        <ele>100.4</ele>
        <time>2020-02-22T15:46:13Z</time>
      </trkpt>
      <trkpt lat="39.0938080" lon="1.4865030">
        <ele>100.5</ele>
        <time>2020-02-22T15:46:14Z</time>
      </trkpt>
      <trkpt lat="39.0937900" lon="1.4865340">
        <ele>100.6</ele>
        <time>2020-02-22T15:46:15Z</time>
      </trkpt>
      <trkpt lat="39.0937840" lon="1.4865480">
        <ele>100.7</ele>
        <time>2020-02-22T15:46:16Z</time>
      </trkpt>
      <trkpt lat="39.0937730" lon="1.4865910">
        <ele>100.9</ele>
        <time>2020-02-22T15:46:17Z</time>
      </trkpt>
      <trkpt lat="39.0937710" lon="1.4866040">
        <ele>101.0</ele>
        <time>2020-02-22T15:46:18Z</time>
      </trkpt>
      <trkpt lat="39.0937570" lon="1.4866490">
        <ele>101.2</ele>
        <time>2020-02-22T15:46:19Z</time>
      </trkpt>
      <trkpt lat="39.0937510" lon="1.4866630">
        <ele>101.3</ele>
        <time>2020-02-22T15:46:20Z</time>
      </trkpt>
      <trkpt lat="39.0937360" lon="1.4866940">
        <ele>101.5</ele>
        <time>2020-02-22T15:46:21Z</time>
      </trkpt>
      <trkpt lat="39.0937090" lon="1.4867330">
        <ele>101.7</ele>
        <time>2020-02-22T15:46:22Z</time>
      </trkpt>
      <trkpt lat="39.0937000" lon="1.4867450">
        <ele>101.8</ele>
        <time>2020-02-22T15:46:23Z</time>
      </trkpt>
      <trkpt lat="39.0936750" lon="1.4867800">
        <ele>102.0</ele>
        <time>2020-02-22T15:46:24Z</time>
      </trkpt>
      <trkpt lat="39.0936670" lon="1.4867960">
        <ele>102.1</ele>
        <time>2020-02-22T15:46:25Z</time>
      </trkpt>
      <trkpt lat="39.0936470" lon="1.4868320">
        <ele>102.4</ele>
        <time>2020-02-22T15:46:26Z</time>
      </trkpt>
      <trkpt lat="39.0936400" lon="1.4868430">
        <ele>102.5</ele>
        <time>2020-02-22T15:46:27Z</time>
      </trkpt>
      <trkpt lat="39.0936290" lon="1.4868850">
        <ele>102.7</ele>
        <time>2020-02-22T15:46:28Z</time>
      </trkpt>
      <trkpt lat="39.0936230" lon="1.4868980">
        <ele>102.8</ele>
        <time>2020-02-22T15:46:29Z</time>
      </trkpt>
      <trkpt lat="39.0936000" lon="1.4869380">
        <ele>103.1</ele>
        <time>2020-02-22T15:46:30Z</time>
      </trkpt>
      <trkpt lat="39.0935930" lon="1.4869530">
        <ele>103.2</ele>
        <time>2020-02-22T15:46:31Z</time>
      </trkpt>
      <trkpt lat="39.0935710" lon="1.4869930">
        <ele>103.5</ele>
        <time>2020-02-22T15:46:32Z</time>
      </trkpt>
      <trkpt lat="39.0935600" lon="1.4870070">
        <ele>103.7</ele>
        <time>2020-02-22T15:46:33Z</time>
      </trkpt>
      <trkpt lat="39.0935390" lon="1.4870450">
        <ele>104.0</ele>
        <time>2020-02-22T15:46:34Z</time>
      </trkpt>
      <trkpt lat="39.0935320" lon="1.4870580">
        <ele>104.1</ele>
        <time>2020-02-22T15:46:35Z</time>
      </trkpt>
      <trkpt lat="39.0935190" lon="1.4870910">
        <ele>104.3</ele>
        <time>2020-02-22T15:46:36Z</time>
      </trkpt>
      <trkpt lat="39.0935020" lon="1.4871180">
        <ele>104.6</ele>
        <time>2020-02-22T15:46:37Z</time>
      </trkpt>
      <trkpt lat="39.0934890" lon="1.4871490">
        <ele>104.8</ele>
        <time>2020-02-22T15:46:38Z</time>
      </trkpt>
      <trkpt lat="39.0934650" lon="1.4871880">
        <ele>105.1</ele>
        <time>2020-02-22T15:46:39Z</time>
      </trkpt>
      <trkpt lat="39.0934570" lon="1.4872010">
        <ele>105.2</ele>
        <time>2020-02-22T15:46:40Z</time>
      </trkpt>
      <trkpt lat="39.0934410" lon="1.4872400">
        <ele>105.5</ele>
        <time>2020-02-22T15:46:41Z</time>
      </trkpt>
      <trkpt lat="39.0934270" lon="1.4872740">
        <ele>105.3</ele>
        <time>2020-02-22T15:46:42Z</time>
      </trkpt>
      <trkpt lat="39.0934000" lon="1.4873140">
        <ele>105.0</ele>
        <time>2020-02-22T15:46:43Z</time>
      </trkpt>
      <trkpt lat="39.0933890" lon="1.4873300">
        <ele>104.9</ele>
        <time>2020-02-22T15:46:44Z</time>
      </trkpt>
      <trkpt lat="39.0933690" lon="1.4873680">
        <ele>104.7</ele>
        <time>2020-02-22T15:46:45Z</time>
      </trkpt>
      <trkpt lat="39.0933490" lon="1.4874040">
        <ele>104.5</ele>
        <time>2020-02-22T15:46:46Z</time>
      </trkpt>
      <trkpt lat="39.0933270" lon="1.4874460">
        <ele>104.2</ele>
        <time>2020-02-22T15:46:47Z</time>
      </trkpt>
      <trkpt lat="39.0933190" lon="1.4874620">
        <ele>104.1</ele>
        <time>2020-02-22T15:46:48Z</time>
      </trkpt>
      <trkpt lat="39.0933000" lon="1.4874950">
        <ele>104.0</ele>
        <time>2020-02-22T15:46:49Z</time>
      </trkpt>
      <trkpt lat="39.0932820" lon="1.4875310">
        <ele>103.8</ele>
        <time>2020-02-22T15:46:50Z</time>
      </trkpt>
      <trkpt lat="39.0932630" lon="1.4875680">
        <ele>103.6</ele>
        <time>2020-02-22T15:46:51Z</time>
      </trkpt>
      <trkpt lat="39.0932440" lon="1.4876070">
        <ele>103.5</ele>
        <time>2020-02-22T15:46:52Z</time>
      </trkpt>
      <trkpt lat="39.0932210" lon="1.4876460">
        <ele>103.3</ele>
        <time>2020-02-22T15:46:53Z</time>
      </trkpt>
      <trkpt lat="39.0931940" lon="1.4876860">
        <ele>103.1</ele>
        <time>2020-02-22T15:46:54Z</time>
      </trkpt>
      <trkpt lat="39.0931650" lon="1.4877300">
        <ele>102.9</ele>
        <time>2020-02-22T15:46:55Z</time>
      </trkpt>
      <trkpt lat="39.0931280" lon="1.4877750">
        <ele>102.7</ele>
        <time>2020-02-22T15:46:56Z</time>
      </trkpt>
      <trkpt lat="39.0930880" lon="1.4878250">
        <ele>102.5</ele>
        <time>2020-02-22T15:46:57Z</time>
      </trkpt>
      <trkpt lat="39.0930500" lon="1.4878740">
        <ele>102.2</ele>
        <time>2020-02-22T15:46:58Z</time>
      </trkpt>
      <trkpt lat="39.0930030" lon="1.4879240">
        <ele>101.9</ele>
        <time>2020-02-22T15:46:59Z</time>
      </trkpt>
      <trkpt lat="39.0929490" lon="1.4879670">
        <ele>101.5</ele>
        <time>2020-02-22T15:47:00Z</time>
      </trkpt>
      <trkpt lat="39.0929000" lon="1.4879970">
        <ele>101.2</ele>
        <time>2020-02-22T15:47:01Z</time>
      </trkpt>
      <trkpt lat="39.0928370" lon="1.4880160">
        <ele>100.8</ele>
        <time>2020-02-22T15:47:02Z</time>
      </trkpt>
      <trkpt lat="39.0927630" lon="1.4880040">
        <ele>100.3</ele>
        <time>2020-02-22T15:47:03Z</time>
      </trkpt>
      <trkpt lat="39.0926850" lon="1.4879800">
        <ele>99.8</ele>
        <time>2020-02-22T15:47:04Z</time>
      </trkpt>
      <trkpt lat="39.0926180" lon="1.4879650">
        <ele>99.4</ele>
        <time>2020-02-22T15:47:05Z</time>
      </trkpt>
      <trkpt lat="39.0925390" lon="1.4879400">
        <ele>98.9</ele>
        <time>2020-02-22T15:47:06Z</time>
      </trkpt>
      <trkpt lat="39.0924550" lon="1.4879160">
        <ele>98.5</ele>
        <time>2020-02-22T15:47:07Z</time>
      </trkpt>
      <trkpt lat="39.0923730" lon="1.4878950">
        <ele>98.1</ele>
        <time>2020-02-22T15:47:08Z</time>
      </trkpt>
      <trkpt lat="39.0922950" lon="1.4879080">
        <ele>97.7</ele>
        <time>2020-02-22T15:47:09Z</time>
      </trkpt>
      <trkpt lat="39.0922180" lon="1.4879340">
        <ele>97.4</ele>
        <time>2020-02-22T15:47:10Z</time>
      </trkpt>
      <trkpt lat="39.0921460" lon="1.4879780">
        <ele>97.0</ele>
        <time>2020-02-22T15:47:11Z</time>
      </trkpt>
      <trkpt lat="39.0920780" lon="1.4880220">
        <ele>96.7</ele>
        <time>2020-02-22T15:47:12Z</time>
      </trkpt>
      <trkpt lat="39.0920110" lon="1.4880690">
        <ele>96.4</ele>
        <time>2020-02-22T15:47:13Z</time>
      </trkpt>
      <trkpt lat="39.0919540" lon="1.4881300">
        <ele>96.0</ele>
        <time>2020-02-22T15:47:14Z</time>
      </trkpt>
      <trkpt lat="39.0919070" lon="1.4882030">
        <ele>95.7</ele>
        <time>2020-02-22T15:47:15Z</time>
      </trkpt>
      <trkpt lat="39.0918560" lon="1.4882680">
        <ele>95.4</ele>
        <time>2020-02-22T15:47:16Z</time>
      </trkpt>
      <trkpt lat="39.0918010" lon="1.4883250">
        <ele>95.1</ele>
        <time>2020-02-22T15:47:17Z</time>
      </trkpt>
      <trkpt lat="39.0917460" lon="1.4883850">
        <ele>94.8</ele>
        <time>2020-02-22T15:47:18Z</time>
      </trkpt>
      <trkpt lat="39.0916970" lon="1.4884490">
        <ele>94.6</ele>
        <time>2020-02-22T15:47:19Z</time>
      </trkpt>
      <trkpt lat="39.0916410" lon="1.4885060">
        <ele>94.3</ele>
        <time>2020-02-22T15:47:20Z</time>
      </trkpt>
      <trkpt lat="39.0915820" lon="1.4885590">
        <ele>94.0</ele>
        <time>2020-02-22T15:47:21Z</time>
      </trkpt>
      <trkpt lat="39.0915210" lon="1.4886120">
        <ele>93.7</ele>
        <time>2020-02-22T15:47:22Z</time>
      </trkpt>
      <trkpt lat="39.0914590" lon="1.4886620">
        <ele>93.4</ele>
        <time>2020-02-22T15:47:23Z</time>
      </trkpt>
      <trkpt lat="39.0913940" lon="1.4887050">
        <ele>93.1</ele>
        <time>2020-02-22T15:47:24Z</time>
      </trkpt>
      <trkpt lat="39.0913250" lon="1.4887370">
        <ele>92.7</ele>
        <time>2020-02-22T15:47:25Z</time>
      </trkpt>
      <trkpt lat="39.0912580" lon="1.4887760">
        <ele>92.4</ele>
        <time>2020-02-22T15:47:26Z</time>
      </trkpt>
      <trkpt lat="39.0911930" lon="1.4888200">
        <ele>92.0</ele>
        <time>2020-02-22T15:47:27Z</time>
      </trkpt>
      <trkpt lat="39.0911280" lon="1.4888430">
        <ele>91.7</ele>
        <time>2020-02-22T15:47:28Z</time>
      </trkpt>
      <trkpt lat="39.0910550" lon="1.4888460">
        <ele>91.3</ele>
        <time>2020-02-22T15:47:29Z</time>
      </trkpt>
      <trkpt lat="39.0909780" lon="1.4888160">
        <ele>90.8</ele>
        <time>2020-02-22T15:47:30Z</time>
      </trkpt>
      <trkpt lat="39.0909090" lon="1.4887690">
        <ele>90.3</ele>
        <time>2020-02-22T15:47:31Z</time>
      </trkpt>
      <trkpt lat="39.0908630" lon="1.4887050">
        <ele>89.8</ele>
        <time>2020-02-22T15:47:32Z</time>
      </trkpt>
      <trkpt lat="39.0908290" lon="1.4886490">
        <ele>89.4</ele>
        <time>2020-02-22T15:47:33Z</time>
      </trkpt>
      <trkpt lat="39.0908010" lon="1.4886030">
        <ele>89.1</ele>
        <time>2020-02-22T15:47:34Z</time>
      </trkpt>
      <trkpt lat="39.0907680" lon="1.4885510">
        <ele>88.7</ele>
        <time>2020-02-22T15:47:35Z</time>
      </trkpt>
      <trkpt lat="39.0907300" lon="1.4885020">
        <ele>88.3</ele>
        <time>2020-02-22T15:47:36Z</time>
      </trkpt>
      <trkpt lat="39.0907010" lon="1.4884650">
        <ele>88.0</ele>
        <time>2020-02-22T15:47:37Z</time>
      </trkpt>
      <trkpt lat="39.0906840" lon="1.4884350">
        <ele>87.7</ele>
        <time>2020-02-22T15:47:38Z</time>
      </trkpt>
      <trkpt lat="39.0906780" lon="1.4884260">
        <ele>87.7</ele>
        <time>2020-02-22T15:47:39Z</time>
      </trkpt>
      <trkpt lat="39.0906510" lon="1.4884110">
        <ele>87.4</ele>
        <time>2020-02-22T15:47:40Z</time>
      </trkpt>
      <trkpt lat="39.0906400" lon="1.4884120">
        <ele>87.3</ele>
        <time>2020-02-22T15:47:41Z</time>
      </trkpt>
      <trkpt lat="39.0906140" lon="1.4884430">
        <ele>86.2</ele>
        <time>2020-02-22T15:47:42Z</time>
      </trkpt>
      <trkpt lat="39.0906160" lon="1.4884910">
        <ele>85.8</ele>
        <time>2020-02-22T15:47:43Z</time>
      </trkpt>
      <trkpt lat="39.0906200" lon="1.4885060">
        <ele>85.6</ele>
        <time>2020-02-22T15:47:44Z</time>
      </trkpt>
      <trkpt lat="39.0906280" lon="1.4885440">
        <ele>85.3</ele>
        <time>2020-02-22T15:47:45Z</time>
      </trkpt>
      <trkpt lat="39.0906230" lon="1.4885860">
        <ele>85.0</ele>
        <time>2020-02-22T15:47:46Z</time>
      </trkpt>
      <trkpt lat="39.0906150" lon="1.4886150">
        <ele>84.8</ele>
        <time>2020-02-22T15:47:47Z</time>
      </trkpt>
      <trkpt lat="39.0906140" lon="1.4886240">
        <ele>84.8</ele>
        <time>2020-02-22T15:47:48Z</time>
      </trkpt>
      <trkpt lat="39.0906060" lon="1.4886200">
        <ele>84.7</ele>
        <time>2020-02-22T15:47:49Z</time>
      </trkpt>
      <trkpt lat="39.0906070" lon="1.4886240">
        <ele>84.7</ele>
        <time>2020-02-22T15:47:50Z</time>
      </trkpt>
      <trkpt lat="39.0906050" lon="1.4886240">
        <ele>84.6</ele>
        <time>2020-02-22T15:47:51Z</time>
      </trkpt>
      <trkpt lat="39.0906180" lon="1.4886300">
        <ele>84.5</ele>
        <time>2020-02-22T15:47:52Z</time>
      </trkpt>
      <trkpt lat="39.0906110" lon="1.4886290">
        <ele>84.5</ele>
        <time>2020-02-22T15:47:53Z</time>
      </trkpt>
      <trkpt lat="39.0906230" lon="1.4886310">
        <ele>84.3</ele>
        <time>2020-02-22T15:47:54Z</time>
      </trkpt>
      <trkpt lat="39.0906340" lon="1.4886340">
        <ele>84.2</ele>
        <time>2020-02-22T15:47:55Z</time>
      </trkpt>
      <trkpt lat="39.0906400" lon="1.4886370">
        <ele>84.2</ele>
        <time>2020-02-22T15:47:56Z</time>
      </trkpt>
      <trkpt lat="39.0906500" lon="1.4886920">
        <ele>83.8</ele>
        <time>2020-02-22T15:47:57Z</time>
      </trkpt>
      <trkpt lat="39.0906560" lon="1.4887450">
        <ele>83.5</ele>
        <time>2020-02-22T15:47:58Z</time>
      </trkpt>
      <trkpt lat="39.0906620" lon="1.4887970">
        <ele>83.2</ele>
        <time>2020-02-22T15:48:37Z</time>
      </trkpt>
      <trkpt lat="39.0906680" lon="1.4888500">
        <ele>82.9</ele>
        <time>2020-02-22T15:48:38Z</time>
      </trkpt>
      <trkpt lat="39.0906890" lon="1.4889140">
        <ele>82.4</ele>
        <time>2020-02-22T15:48:39Z</time>
      </trkpt>
      <trkpt lat="39.0907120" lon="1.4889850">
        <ele>81.8</ele>
        <time>2020-02-22T15:48:40Z</time>
      </trkpt>
      <trkpt lat="39.0907380" lon="1.4890420">
        <ele>81.3</ele>
        <time>2020-02-22T15:48:41Z</time>
      </trkpt>
      <trkpt lat="39.0907560" lon="1.4890680">
        <ele>81.1</ele>
        <time>2020-02-22T15:48:42Z</time>
      </trkpt>
      <trkpt lat="39.0907770" lon="1.4891230">
        <ele>80.8</ele>
        <time>2020-02-22T15:48:43Z</time>
      </trkpt>
      <trkpt lat="39.0908000" lon="1.4891770">
        <ele>80.4</ele>
        <time>2020-02-22T15:48:44Z</time>
      </trkpt>
      <trkpt lat="39.0908310" lon="1.4892320">
        <ele>80.1</ele>
        <time>2020-02-22T15:48:45Z</time>
      </trkpt>
      <trkpt lat="39.0908640" lon="1.4892910">
        <ele>79.6</ele>
        <time>2020-02-22T15:48:46Z</time>
      </trkpt>
      <trkpt lat="39.0908990" lon="1.4893240">
        <ele>79.3</ele>
        <time>2020-02-22T15:48:47Z</time>
      </trkpt>
      <trkpt lat="39.0909440" lon="1.4893700">
        <ele>78.8</ele>
        <time>2020-02-22T15:48:48Z</time>
      </trkpt>
      <trkpt lat="39.0910030" lon="1.4894190">
        <ele>78.2</ele>
        <time>2020-02-22T15:48:49Z</time>
      </trkpt>
      <trkpt lat="39.0910590" lon="1.4894630">
        <ele>77.7</ele>
        <time>2020-02-22T15:48:50Z</time>
      </trkpt>
      <trkpt lat="39.0911180" lon="1.4895110">
        <ele>77.1</ele>
        <time>2020-02-22T15:48:51Z</time>
      </trkpt>
      <trkpt lat="39.0911880" lon="1.4895690">
        <ele>76.4</ele>
        <time>2020-02-22T15:48:52Z</time>
      </trkpt>
      <trkpt lat="39.0912530" lon="1.4896220">
        <ele>75.7</ele>
        <time>2020-02-22T15:48:53Z</time>
      </trkpt>
      <trkpt lat="39.0913180" lon="1.4896860">
        <ele>75.1</ele>
        <time>2020-02-22T15:48:54Z</time>
      </trkpt>
      <trkpt lat="39.0913760" lon="1.4897720">
        <ele>74.4</ele>
        <time>2020-02-22T15:48:55Z</time>
      </trkpt>
      <trkpt lat="39.0914160" lon="1.4898550">
        <ele>73.7</ele>
        <time>2020-02-22T15:48:56Z</time>
      </trkpt>
      <trkpt lat="39.0914560" lon="1.4899450">
        <ele>73.0</ele>
        <time>2020-02-22T15:48:57Z</time>
      </trkpt>
      <trkpt lat="39.0914910" lon="1.4900180">
        <ele>72.3</ele>
        <time>2020-02-22T15:48:58Z</time>
      </trkpt>
      <trkpt lat="39.0915270" lon="1.4900860">
        <ele>71.9</ele>
        <time>2020-02-22T15:48:59Z</time>
      </trkpt>
      <trkpt lat="39.0915660" lon="1.4901550">
        <ele>71.4</ele>
        <time>2020-02-22T15:49:00Z</time>
      </trkpt>
      <trkpt lat="39.0916210" lon="1.4901990">
        <ele>70.9</ele>
        <time>2020-02-22T15:49:01Z</time>
      </trkpt>
      <trkpt lat="39.0916840" lon="1.4902310">
        <ele>70.5</ele>
        <time>2020-02-22T15:49:02Z</time>
      </trkpt>
      <trkpt lat="39.0917600" lon="1.4902190">
        <ele>70.1</ele>
        <time>2020-02-22T15:49:03Z</time>
      </trkpt>
      <trkpt lat="39.0918400" lon="1.4902010">
        <ele>69.7</ele>
        <time>2020-02-22T15:49:04Z</time>
      </trkpt>
      <trkpt lat="39.0919110" lon="1.4901860">
        <ele>69.4</ele>
        <time>2020-02-22T15:49:05Z</time>
      </trkpt>
      <trkpt lat="39.0919840" lon="1.4901630">
        <ele>69.3</ele>
        <time>2020-02-22T15:49:06Z</time>
      </trkpt>
      <trkpt lat="39.0920520" lon="1.4901860">
        <ele>69.1</ele>
        <time>2020-02-22T15:49:07Z</time>
      </trkpt>
      <trkpt lat="39.0921060" lon="1.4902420">
        <ele>68.9</ele>
        <time>2020-02-22T15:49:08Z</time>
      </trkpt>
      <trkpt lat="39.0921450" lon="1.4903120">
        <ele>68.7</ele>
        <time>2020-02-22T15:49:09Z</time>
      </trkpt>
      <trkpt lat="39.0921700" lon="1.4903860">
        <ele>68.5</ele>
        <time>2020-02-22T15:49:10Z</time>
      </trkpt>
      <trkpt lat="39.0921960" lon="1.4904570">
        <ele>68.4</ele>
        <time>2020-02-22T15:49:11Z</time>
      </trkpt>
      <trkpt lat="39.0922280" lon="1.4905250">
        <ele>68.3</ele>
        <time>2020-02-22T15:49:12Z</time>
      </trkpt>
      <trkpt lat="39.0922590" lon="1.4905920">
        <ele>68.2</ele>
        <time>2020-02-22T15:49:13Z</time>
      </trkpt>
      <trkpt lat="39.0922970" lon="1.4906510">
        <ele>68.2</ele>
        <time>2020-02-22T15:49:14Z</time>
      </trkpt>
      <trkpt lat="39.0923190" lon="1.4907170">
        <ele>68.1</ele>
        <time>2020-02-22T15:49:15Z</time>
      </trkpt>
      <trkpt lat="39.0923470" lon="1.4907880">
        <ele>68.0</ele>
        <time>2020-02-22T15:49:16Z</time>
      </trkpt>
      <trkpt lat="39.0923760" lon="1.4908620">
        <ele>67.9</ele>
        <time>2020-02-22T15:49:17Z</time>
      </trkpt>
      <trkpt lat="39.0924000" lon="1.4909360">
        <ele>67.8</ele>
        <time>2020-02-22T15:49:18Z</time>
      </trkpt>
      <trkpt lat="39.0924270" lon="1.4910080">
        <ele>67.7</ele>
        <time>2020-02-22T15:49:19Z</time>
      </trkpt>
      <trkpt lat="39.0924430" lon="1.4910850">
        <ele>67.5</ele>
        <time>2020-02-22T15:49:20Z</time>
      </trkpt>
      <trkpt lat="39.0924610" lon="1.4911610">
        <ele>67.4</ele>
        <time>2020-02-22T15:49:21Z</time>
      </trkpt>
      <trkpt lat="39.0924840" lon="1.4912350">
        <ele>67.3</ele>
        <time>2020-02-22T15:49:22Z</time>
      </trkpt>
      <trkpt lat="39.0925080" lon="1.4913080">
        <ele>67.1</ele>
        <time>2020-02-22T15:49:23Z</time>
      </trkpt>
      <trkpt lat="39.0925500" lon="1.4913700">
        <ele>67.0</ele>
        <time>2020-02-22T15:49:24Z</time>
      </trkpt>
      <trkpt lat="39.0925990" lon="1.4914280">
        <ele>66.9</ele>
        <time>2020-02-22T15:49:25Z</time>
      </trkpt>
      <trkpt lat="39.0926470" lon="1.4914840">
        <ele>66.7</ele>
        <time>2020-02-22T15:49:26Z</time>
      </trkpt>
      <trkpt lat="39.0926930" lon="1.4915470">
        <ele>66.4</ele>
        <time>2020-02-22T15:49:27Z</time>
      </trkpt>
      <trkpt lat="39.0927410" lon="1.4916070">
        <ele>66.1</ele>
        <time>2020-02-22T15:49:28Z</time>
      </trkpt>
      <trkpt lat="39.0927700" lon="1.4916770">
        <ele>65.7</ele>
        <time>2020-02-22T15:49:29Z</time>
      </trkpt>
      <trkpt lat="39.0927920" lon="1.4917500">
        <ele>65.3</ele>
        <time>2020-02-22T15:49:30Z</time>
      </trkpt>
      <trkpt lat="39.0928140" lon="1.4918240">
        <ele>64.9</ele>
        <time>2020-02-22T15:49:31Z</time>
      </trkpt>
      <trkpt lat="39.0928370" lon="1.4919050">
        <ele>64.5</ele>
        <time>2020-02-22T15:49:32Z</time>
      </trkpt>
      <trkpt lat="39.0928660" lon="1.4919800">
        <ele>64.2</ele>
        <time>2020-02-22T15:49:33Z</time>
      </trkpt>
      <trkpt lat="39.0928940" lon="1.4920520">
        <ele>64.0</ele>
        <time>2020-02-22T15:49:34Z</time>
      </trkpt>
      <trkpt lat="39.0929200" lon="1.4921250">
        <ele>63.7</ele>
        <time>2020-02-22T15:49:35Z</time>
      </trkpt>
      <trkpt lat="39.0929480" lon="1.4922000">
        <ele>63.4</ele>
        <time>2020-02-22T15:49:36Z</time>
      </trkpt>
      <trkpt lat="39.0930000" lon="1.4922620">
        <ele>63.0</ele>
        <time>2020-02-22T15:49:37Z</time>
      </trkpt>
      <trkpt lat="39.0930540" lon="1.4923220">
        <ele>62.5</ele>
        <time>2020-02-22T15:49:38Z</time>
      </trkpt>
      <trkpt lat="39.0931080" lon="1.4923840">
        <ele>62.0</ele>
        <time>2020-02-22T15:49:39Z</time>
      </trkpt>
      <trkpt lat="39.0931640" lon="1.4924460">
        <ele>61.5</ele>
        <time>2020-02-22T15:49:40Z</time>
      </trkpt>
      <trkpt lat="39.0932220" lon="1.4925130">
        <ele>60.9</ele>
        <time>2020-02-22T15:49:41Z</time>
      </trkpt>
      <trkpt lat="39.0932870" lon="1.4925710">
        <ele>60.2</ele>
        <time>2020-02-22T15:49:42Z</time>
      </trkpt>
      <trkpt lat="39.0933550" lon="1.4926250">
        <ele>59.5</ele>
        <time>2020-02-22T15:49:43Z</time>
      </trkpt>
      <trkpt lat="39.0934200" lon="1.4926790">
        <ele>58.9</ele>
        <time>2020-02-22T15:49:44Z</time>
      </trkpt>
      <trkpt lat="39.0934860" lon="1.4927350">
        <ele>58.4</ele>
        <time>2020-02-22T15:49:45Z</time>
      </trkpt>
      <trkpt lat="39.0935540" lon="1.4927920">
        <ele>57.9</ele>
        <time>2020-02-22T15:49:46Z</time>
      </trkpt>
      <trkpt lat="39.0936210" lon="1.4928530">
        <ele>57.4</ele>
        <time>2020-02-22T15:49:47Z</time>
      </trkpt>
      <trkpt lat="39.0936870" lon="1.4929180">
        <ele>56.9</ele>
        <time>2020-02-22T15:49:48Z</time>
      </trkpt>
      <trkpt lat="39.0937530" lon="1.4929900">
        <ele>56.3</ele>
        <time>2020-02-22T15:49:49Z</time>
      </trkpt>
      <trkpt lat="39.0938180" lon="1.4930700">
        <ele>55.6</ele>
        <time>2020-02-22T15:49:50Z</time>
      </trkpt>
      <trkpt lat="39.0938830" lon="1.4931520">
        <ele>55.0</ele>
        <time>2020-02-22T15:49:51Z</time>
      </trkpt>
      <trkpt lat="39.0939440" lon="1.4932390">
        <ele>54.4</ele>
        <time>2020-02-22T15:49:52Z</time>
      </trkpt>
      <trkpt lat="39.0940140" lon="1.4933190">
        <ele>53.8</ele>
        <time>2020-02-22T15:49:53Z</time>
      </trkpt>
      <trkpt lat="39.0940770" lon="1.4934060">
        <ele>53.3</ele>
        <time>2020-02-22T15:49:54Z</time>
      </trkpt>
      <trkpt lat="39.0941440" lon="1.4934900">
        <ele>52.7</ele>
        <time>2020-02-22T15:49:55Z</time>
      </trkpt>
      <trkpt lat="39.0942100" lon="1.4935760">
        <ele>52.1</ele>
        <time>2020-02-22T15:49:56Z</time>
      </trkpt>
      <trkpt lat="39.0942740" lon="1.4936640">
        <ele>51.2</ele>
        <time>2020-02-22T15:49:57Z</time>
      </trkpt>
      <trkpt lat="39.0943390" lon="1.4937520">
        <ele>50.5</ele>
        <time>2020-02-22T15:49:58Z</time>
      </trkpt>
      <trkpt lat="39.0944070" lon="1.4938360">
        <ele>49.9</ele>
        <time>2020-02-22T15:49:59Z</time>
      </trkpt>
      <trkpt lat="39.0944730" lon="1.4939190">
        <ele>49.5</ele>
        <time>2020-02-22T15:50:00Z</time>
      </trkpt>
      <trkpt lat="39.0945410" lon="1.4939980">
        <ele>49.0</ele>
        <time>2020-02-22T15:50:01Z</time>
      </trkpt>
      <trkpt lat="39.0946100" lon="1.4940760">
        <ele>48.3</ele>
        <time>2020-02-22T15:50:02Z</time>
      </trkpt>
      <trkpt lat="39.0946760" lon="1.4941560">
        <ele>47.6</ele>
        <time>2020-02-22T15:50:03Z</time>
      </trkpt>
      <trkpt lat="39.0947430" lon="1.4942340">
        <ele>47.0</ele>
        <time>2020-02-22T15:50:04Z</time>
      </trkpt>
      <trkpt lat="39.0948020" lon="1.4943250">
        <ele>46.5</ele>
        <time>2020-02-22T15:50:05Z</time>
      </trkpt>
      <trkpt lat="39.0948410" lon="1.4944310">
        <ele>45.9</ele>
        <time>2020-02-22T15:50:06Z</time>
      </trkpt>
      <trkpt lat="39.0948730" lon="1.4945450">
        <ele>45.2</ele>
        <time>2020-02-22T15:50:07Z</time>
      </trkpt>
      <trkpt lat="39.0949050" lon="1.4946590">
        <ele>44.5</ele>
        <time>2020-02-22T15:50:08Z</time>
      </trkpt>
      <trkpt lat="39.0949340" lon="1.4947720">
        <ele>43.7</ele>
        <time>2020-02-22T15:50:09Z</time>
      </trkpt>
      <trkpt lat="39.0949780" lon="1.4948760">
        <ele>42.7</ele>
        <time>2020-02-22T15:50:10Z</time>
      </trkpt>
      <trkpt lat="39.0950380" lon="1.4949650">
        <ele>41.8</ele>
        <time>2020-02-22T15:50:11Z</time>
      </trkpt>
      <trkpt lat="39.0951080" lon="1.4950520">
        <ele>40.8</ele>
        <time>2020-02-22T15:50:12Z</time>
      </trkpt>
      <trkpt lat="39.0951860" lon="1.4951390">
        <ele>40.0</ele>
        <time>2020-02-22T15:50:13Z</time>
      </trkpt>
      <trkpt lat="39.0952650" lon="1.4952240">
        <ele>39.2</ele>
        <time>2020-02-22T15:50:14Z</time>
      </trkpt>
      <trkpt lat="39.0953420" lon="1.4953110">
        <ele>38.7</ele>
        <time>2020-02-22T15:50:15Z</time>
      </trkpt>
      <trkpt lat="39.0954220" lon="1.4953920">
        <ele>38.2</ele>
        <time>2020-02-22T15:50:16Z</time>
      </trkpt>
      <trkpt lat="39.0955010" lon="1.4954740">
        <ele>37.7</ele>
        <time>2020-02-22T15:50:17Z</time>
      </trkpt>
      <trkpt lat="39.0955820" lon="1.4955470">
        <ele>37.1</ele>
        <time>2020-02-22T15:50:18Z</time>
      </trkpt>
      <trkpt lat="39.0956600" lon="1.4956180">
        <ele>36.5</ele>
        <time>2020-02-22T15:50:19Z</time>
      </trkpt>
      <trkpt lat="39.0957350" lon="1.4956940">
        <ele>36.3</ele>
        <time>2020-02-22T15:50:20Z</time>
      </trkpt>
      <trkpt lat="39.0958180" lon="1.4957350">
        <ele>36.4</ele>
        <time>2020-02-22T15:50:21Z</time>
      </trkpt>
      <trkpt lat="39.0959020" lon="1.4957540">
        <ele>36.4</ele>
        <time>2020-02-22T15:50:22Z</time>
      </trkpt>
      <trkpt lat="39.0959810" lon="1.4957610">
        <ele>36.4</ele>
        <time>2020-02-22T15:50:23Z</time>
      </trkpt>
      <trkpt lat="39.0960560" lon="1.4957710">
        <ele>36.3</ele>
        <time>2020-02-22T15:50:24Z</time>
      </trkpt>
      <trkpt lat="39.0961220" lon="1.4958040">
        <ele>36.1</ele>
        <time>2020-02-22T15:50:25Z</time>
      </trkpt>
      <trkpt lat="39.0961880" lon="1.4958330">
        <ele>35.9</ele>
        <time>2020-02-22T15:50:26Z</time>
      </trkpt>
      <trkpt lat="39.0962470" lon="1.4958770">
        <ele>35.7</ele>
        <time>2020-02-22T15:50:27Z</time>
      </trkpt>
      <trkpt lat="39.0963040" lon="1.4959250">
        <ele>35.4</ele>
        <time>2020-02-22T15:50:28Z</time>
      </trkpt>
      <trkpt lat="39.0963620" lon="1.4959640">
        <ele>35.2</ele>
        <time>2020-02-22T15:50:29Z</time>
      </trkpt>
      <trkpt lat="39.0964180" lon="1.4960070">
        <ele>34.8</ele>
        <time>2020-02-22T15:50:30Z</time>
      </trkpt>
      <trkpt lat="39.0964740" lon="1.4960550">
        <ele>34.3</ele>
        <time>2020-02-22T15:50:31Z</time>
      </trkpt>
      <trkpt lat="39.0965310" lon="1.4961020">
        <ele>33.8</ele>
        <time>2020-02-22T15:50:32Z</time>
      </trkpt>
      <trkpt lat="39.0965760" lon="1.4961630">
        <ele>33.1</ele>
        <time>2020-02-22T15:50:33Z</time>
      </trkpt>
      <trkpt lat="39.0966170" lon="1.4962260">
        <ele>32.3</ele>
        <time>2020-02-22T15:50:34Z</time>
      </trkpt>
      <trkpt lat="39.0966380" lon="1.4963000">
        <ele>31.6</ele>
        <time>2020-02-22T15:50:35Z</time>
      </trkpt>
      <trkpt lat="39.0966410" lon="1.4963950">
        <ele>30.7</ele>
        <time>2020-02-22T15:50:36Z</time>
      </trkpt>
      <trkpt lat="39.0966260" lon="1.4964960">
        <ele>29.7</ele>
        <time>2020-02-22T15:50:37Z</time>
      </trkpt>
      <trkpt lat="39.0966140" lon="1.4965970">
        <ele>28.8</ele>
        <time>2020-02-22T15:50:38Z</time>
      </trkpt>
      <trkpt lat="39.0965930" lon="1.4966990">
        <ele>28.0</ele>
        <time>2020-02-22T15:50:39Z</time>
      </trkpt>
      <trkpt lat="39.0965930" lon="1.4967990">
        <ele>27.2</ele>
        <time>2020-02-22T15:50:40Z</time>
      </trkpt>
      <trkpt lat="39.0965920" lon="1.4969020">
        <ele>25.9</ele>
        <time>2020-02-22T15:50:41Z</time>
      </trkpt>
      <trkpt lat="39.0965960" lon="1.4970070">
        <ele>24.9</ele>
        <time>2020-02-22T15:50:42Z</time>
      </trkpt>
      <trkpt lat="39.0965970" lon="1.4971140">
        <ele>24.0</ele>
        <time>2020-02-22T15:50:43Z</time>
      </trkpt>
      <trkpt lat="39.0965930" lon="1.4972220">
        <ele>23.2</ele>
        <time>2020-02-22T15:50:44Z</time>
      </trkpt>
      <trkpt lat="39.0965880" lon="1.4973250">
        <ele>22.5</ele>
        <time>2020-02-22T15:50:45Z</time>
      </trkpt>
      <trkpt lat="39.0965930" lon="1.4974230">
        <ele>21.9</ele>
        <time>2020-02-22T15:50:46Z</time>
      </trkpt>
      <trkpt lat="39.0966140" lon="1.4975150">
        <ele>21.1</ele>
        <time>2020-02-22T15:50:47Z</time>
      </trkpt>
      <trkpt lat="39.0966590" lon="1.4975930">
        <ele>20.1</ele>
        <time>2020-02-22T15:50:48Z</time>
      </trkpt>
      <trkpt lat="39.0967180" lon="1.4976640">
        <ele>19.0</ele>
        <time>2020-02-22T15:50:49Z</time>
      </trkpt>
      <trkpt lat="39.0967890" lon="1.4977200">
        <ele>17.3</ele>
        <time>2020-02-22T15:50:50Z</time>
      </trkpt>
      <trkpt lat="39.0968530" lon="1.4977690">
        <ele>15.8</ele>
        <time>2020-02-22T15:50:51Z</time>
      </trkpt>
      <trkpt lat="39.0969030" lon="1.4978110">
        <ele>14.8</ele>
        <time>2020-02-22T15:50:52Z</time>
      </trkpt>
      <trkpt lat="39.0969590" lon="1.4978080">
        <ele>13.9</ele>
        <time>2020-02-22T15:50:53Z</time>
      </trkpt>
      <trkpt lat="39.0970160" lon="1.4977720">
        <ele>13.1</ele>
        <time>2020-02-22T15:50:54Z</time>
      </trkpt>
      <trkpt lat="39.0970670" lon="1.4977000">
        <ele>12.4</ele>
        <time>2020-02-22T15:50:55Z</time>
      </trkpt>
      <trkpt lat="39.0971100" lon="1.4976210">
        <ele>12.1</ele>
        <time>2020-02-22T15:50:56Z</time>
      </trkpt>
      <trkpt lat="39.0971530" lon="1.4975520">
        <ele>12.1</ele>
        <time>2020-02-22T15:50:57Z</time>
      </trkpt>
      <trkpt lat="39.0972000" lon="1.4975150">
        <ele>12.2</ele>
        <time>2020-02-22T15:50:58Z</time>
      </trkpt>
      <trkpt lat="39.0972340" lon="1.4974710">
        <ele>12.6</ele>
        <time>2020-02-22T15:50:59Z</time>
      </trkpt>
      <trkpt lat="39.0972670" lon="1.4974470">
        <ele>12.8</ele>
        <time>2020-02-22T15:51:00Z</time>
      </trkpt>
      <trkpt lat="39.0973070" lon="1.4974410">
        <ele>13.3</ele>
        <time>2020-02-22T15:51:01Z</time>
      </trkpt>
      <trkpt lat="39.0973580" lon="1.4974470">
        <ele>14.0</ele>
        <time>2020-02-22T15:51:02Z</time>
      </trkpt>
      <trkpt lat="39.0974060" lon="1.4974880">
        <ele>14.9</ele>
        <time>2020-02-22T15:51:03Z</time>
      </trkpt>
      <trkpt lat="39.0974400" lon="1.4975570">
        <ele>16.0</ele>
        <time>2020-02-22T15:51:04Z</time>
      </trkpt>
      <trkpt lat="39.0974610" lon="1.4976270">
        <ele>16.0</ele>
        <time>2020-02-22T15:51:05Z</time>
      </trkpt>
      <trkpt lat="39.0974770" lon="1.4976770">
        <ele>16.6</ele>
        <time>2020-02-22T15:51:06Z</time>
      </trkpt>
      <trkpt lat="39.0974890" lon="1.4977150">
        <ele>16.9</ele>
        <time>2020-02-22T15:51:07Z</time>
      </trkpt>
      <trkpt lat="39.0975050" lon="1.4977470">
        <ele>17.1</ele>
        <time>2020-02-22T15:51:08Z</time>
      </trkpt>
      <trkpt lat="39.0975350" lon="1.4977650">
        <ele>17.3</ele>
        <time>2020-02-22T15:51:09Z</time>
      </trkpt>
      <trkpt lat="39.0975460" lon="1.4977680">
        <ele>17.4</ele>
        <time>2020-02-22T15:51:10Z</time>
      </trkpt>
      <trkpt lat="39.0975770" lon="1.4977770">
        <ele>17.6</ele>
        <time>2020-02-22T15:51:11Z</time>
      </trkpt>
      <trkpt lat="39.0975860" lon="1.4977810">
        <ele>17.6</ele>
        <time>2020-02-22T15:51:12Z</time>
      </trkpt>
      <trkpt lat="39.0976190" lon="1.4977940">
        <ele>17.8</ele>
        <time>2020-02-22T15:51:13Z</time>
      </trkpt>
      <trkpt lat="39.0976290" lon="1.4977970">
        <ele>17.9</ele>
        <time>2020-02-22T15:51:14Z</time>
      </trkpt>
      <trkpt lat="39.0976600" lon="1.4978030">
        <ele>18.1</ele>
        <time>2020-02-22T15:51:15Z</time>
      </trkpt>
      <trkpt lat="39.0976690" lon="1.4978040">
        <ele>18.2</ele>
        <time>2020-02-22T15:51:16Z</time>
      </trkpt>
      <trkpt lat="39.0976880" lon="1.4978300">
        <ele>18.4</ele>
        <time>2020-02-22T15:51:17Z</time>
      </trkpt>
      <trkpt lat="39.0977140" lon="1.4978500">
        <ele>18.6</ele>
        <time>2020-02-22T15:51:18Z</time>
      </trkpt>
      <trkpt lat="39.0977230" lon="1.4978660">
        <ele>18.7</ele>
        <time>2020-02-22T15:51:19Z</time>
      </trkpt>
      <trkpt lat="39.0977390" lon="1.4978960">
        <ele>18.9</ele>
        <time>2020-02-22T15:51:20Z</time>
      </trkpt>
      <trkpt lat="39.0977560" lon="1.4979230">
        <ele>19.1</ele>
        <time>2020-02-22T15:51:21Z</time>
      </trkpt>
      <trkpt lat="39.0977720" lon="1.4979640">
        <ele>19.4</ele>
        <time>2020-02-22T15:51:22Z</time>
      </trkpt>
      <trkpt lat="39.0977730" lon="1.4979820">
        <ele>19.5</ele>
        <time>2020-02-22T15:51:23Z</time>
      </trkpt>
      <trkpt lat="39.0977740" lon="1.4980050">
        <ele>19.7</ele>
        <time>2020-02-22T15:51:24Z</time>
      </trkpt>
      <trkpt lat="39.0977760" lon="1.4980190">
        <ele>19.8</ele>
        <time>2020-02-22T15:51:25Z</time>
      </trkpt>
      <trkpt lat="39.0977810" lon="1.4980450">
        <ele>20.0</ele>
        <time>2020-02-22T15:51:26Z</time>
      </trkpt>
      <trkpt lat="39.0977800" lon="1.4980650">
        <ele>20.2</ele>
        <time>2020-02-22T15:51:27Z</time>
      </trkpt>
      <trkpt lat="39.0977890" lon="1.4981020">
        <ele>20.5</ele>
        <time>2020-02-22T15:51:28Z</time>
      </trkpt>
      <trkpt lat="39.0977930" lon="1.4981140">
        <ele>20.6</ele>
        <time>2020-02-22T15:51:29Z</time>
      </trkpt>
      <trkpt lat="39.0978090" lon="1.4981520">
        <ele>20.8</ele>
        <time>2020-02-22T15:51:30Z</time>
      </trkpt>
      <trkpt lat="39.0978110" lon="1.4981640">
        <ele>20.9</ele>
        <time>2020-02-22T15:51:31Z</time>
      </trkpt>
      <trkpt lat="39.0978100" lon="1.4981880">
        <ele>21.0</ele>
        <time>2020-02-22T15:51:32Z</time>
      </trkpt>
      <trkpt lat="39.0977980" lon="1.4982000">
        <ele>21.1</ele>
        <time>2020-02-22T15:51:33Z</time>
      </trkpt>
      <trkpt lat="39.0977900" lon="1.4982180">
        <ele>21.2</ele>
        <time>2020-02-22T15:51:34Z</time>
      </trkpt>
      <trkpt lat="39.0977760" lon="1.4982320">
        <ele>21.3</ele>
        <time>2020-02-22T15:51:35Z</time>
      </trkpt>
      <trkpt lat="39.0977620" lon="1.4982350">
        <ele>21.4</ele>
        <time>2020-02-22T15:51:36Z</time>
      </trkpt>
      <trkpt lat="39.0977440" lon="1.4982420">
        <ele>21.5</ele>
        <time>2020-02-22T15:51:37Z</time>
      </trkpt>
      <trkpt lat="39.0977340" lon="1.4982570">
        <ele>21.6</ele>
        <time>2020-02-22T15:51:38Z</time>
      </trkpt>
      <trkpt lat="39.0977200" lon="1.4982640">
        <ele>21.7</ele>
        <time>2020-02-22T15:51:39Z</time>
      </trkpt>
      <trkpt lat="39.0977100" lon="1.4982710">
        <ele>21.8</ele>
        <time>2020-02-22T15:51:40Z</time>
      </trkpt>
      <trkpt lat="39.0976930" lon="1.4982790">
        <ele>21.9</ele>
        <time>2020-02-22T15:51:41Z</time>
      </trkpt>
      <trkpt lat="39.0976760" lon="1.4982830">
        <ele>22.0</ele>
        <time>2020-02-22T15:51:42Z</time>
      </trkpt>
      <trkpt lat="39.0976600" lon="1.4982840">
        <ele>22.1</ele>
        <time>2020-02-22T15:51:43Z</time>
      </trkpt>
      <trkpt lat="39.0976330" lon="1.4982860">
        <ele>22.3</ele>
        <time>2020-02-22T15:51:44Z</time>
      </trkpt>
      <trkpt lat="39.0976240" lon="1.4982860">
        <ele>22.3</ele>
        <time>2020-02-22T15:51:45Z</time>
      </trkpt>
      <trkpt lat="39.0976080" lon="1.4982950">
        <ele>22.4</ele>
        <time>2020-02-22T15:51:46Z</time>
      </trkpt>
      <trkpt lat="39.0975900" lon="1.4982960">
        <ele>22.5</ele>
        <time>2020-02-22T15:51:47Z</time>
      </trkpt>
      <trkpt lat="39.0975760" lon="1.4983040">
        <ele>22.5</ele>
        <time>2020-02-22T15:51:48Z</time>
      </trkpt>
      <trkpt lat="39.0975600" lon="1.4983100">
        <ele>22.6</ele>
        <time>2020-02-22T15:51:49Z</time>
      </trkpt>
      <trkpt lat="39.0975440" lon="1.4983100">
        <ele>22.7</ele>
        <time>2020-02-22T15:51:50Z</time>
      </trkpt>
      <trkpt lat="39.0975250" lon="1.4983210">
        <ele>22.7</ele>
        <time>2020-02-22T15:51:51Z</time>
      </trkpt>
      <trkpt lat="39.0975150" lon="1.4983260">
        <ele>22.8</ele>
        <time>2020-02-22T15:51:52Z</time>
      </trkpt>
      <trkpt lat="39.0975000" lon="1.4983360">
        <ele>22.8</ele>
        <time>2020-02-22T15:51:53Z</time>
      </trkpt>
      <trkpt lat="39.0974710" lon="1.4983390">
        <ele>22.9</ele>
        <time>2020-02-22T15:51:54Z</time>
      </trkpt>
      <trkpt lat="39.0974610" lon="1.4983400">
        <ele>22.9</ele>
        <time>2020-02-22T15:51:55Z</time>
      </trkpt>
      <trkpt lat="39.0974330" lon="1.4983540">
        <ele>23.0</ele>
        <time>2020-02-22T15:51:56Z</time>
      </trkpt>
      <trkpt lat="39.0974240" lon="1.4983600">
        <ele>23.0</ele>
        <time>2020-02-22T15:51:57Z</time>
      </trkpt>
      <trkpt lat="39.0974100" lon="1.4983590">
        <ele>23.0</ele>
        <time>2020-02-22T15:51:58Z</time>
      </trkpt>
      <trkpt lat="39.0973910" lon="1.4983700">
        <ele>23.0</ele>
        <time>2020-02-22T15:51:59Z</time>
      </trkpt>
      <trkpt lat="39.0973600" lon="1.4983790">
        <ele>23.0</ele>
        <time>2020-02-22T15:52:00Z</time>
      </trkpt>
      <trkpt lat="39.0973510" lon="1.4983820">
        <ele>23.0</ele>
        <time>2020-02-22T15:52:01Z</time>
      </trkpt>
      <trkpt lat="39.0973220" lon="1.4983960">
        <ele>23.0</ele>
        <time>2020-02-22T15:52:02Z</time>
      </trkpt>
      <trkpt lat="39.0973100" lon="1.4984000">
        <ele>23.0</ele>
        <time>2020-02-22T15:52:03Z</time>
      </trkpt>
      <trkpt lat="39.0972950" lon="1.4984080">
        <ele>23.1</ele>
        <time>2020-02-22T15:52:04Z</time>
      </trkpt>
      <trkpt lat="39.0972800" lon="1.4984140">
        <ele>23.1</ele>
        <time>2020-02-22T15:52:05Z</time>
      </trkpt>
      <trkpt lat="39.0972510" lon="1.4984230">
        <ele>23.1</ele>
        <time>2020-02-22T15:52:06Z</time>
      </trkpt>
      <trkpt lat="39.0972410" lon="1.4984280">
        <ele>23.1</ele>
        <time>2020-02-22T15:52:07Z</time>
      </trkpt>
      <trkpt lat="39.0972260" lon="1.4984370">
        <ele>22.9</ele>
        <time>2020-02-22T15:52:08Z</time>
      </trkpt>
      <trkpt lat="39.0972250" lon="1.4984560">
        <ele>22.8</ele>
        <time>2020-02-22T15:52:09Z</time>
      </trkpt>
      <trkpt lat="39.0972410" lon="1.4984850">
        <ele>22.5</ele>
        <time>2020-02-22T15:52:10Z</time>
      </trkpt>
      <trkpt lat="39.0972470" lon="1.4984920">
        <ele>22.5</ele>
        <time>2020-02-22T15:52:11Z</time>
      </trkpt>
      <trkpt lat="39.0972540" lon="1.4985000">
        <ele>22.4</ele>
        <time>2020-02-22T15:52:12Z</time>
      </trkpt>
      <trkpt lat="39.0972780" lon="1.4985320">
        <ele>22.1</ele>
        <time>2020-02-22T15:52:13Z</time>
      </trkpt>
      <trkpt lat="39.0972850" lon="1.4985420">
        <ele>22.1</ele>
        <time>2020-02-22T15:52:14Z</time>
      </trkpt>
      <trkpt lat="39.0973090" lon="1.4985630">
        <ele>21.9</ele>
        <time>2020-02-22T15:52:15Z</time>
      </trkpt>
      <trkpt lat="39.0973170" lon="1.4985700">
        <ele>21.8</ele>
        <time>2020-02-22T15:52:16Z</time>
      </trkpt>
      <trkpt lat="39.0973520" lon="1.4985860">
        <ele>21.5</ele>
        <time>2020-02-22T15:52:17Z</time>
      </trkpt>
      <trkpt lat="39.0973640" lon="1.4985950">
        <ele>21.5</ele>
        <time>2020-02-22T15:52:18Z</time>
      </trkpt>
      <trkpt lat="39.0973980" lon="1.4986130">
        <ele>21.2</ele>
        <time>2020-02-22T15:52:19Z</time>
      </trkpt>
      <trkpt lat="39.0974120" lon="1.4986150">
        <ele>21.1</ele>
        <time>2020-02-22T15:52:20Z</time>
      </trkpt>
      <trkpt lat="39.0974420" lon="1.4986080">
        <ele>20.9</ele>
        <time>2020-02-22T15:52:21Z</time>
      </trkpt>
      <trkpt lat="39.0974770" lon="1.4986030">
        <ele>20.7</ele>
        <time>2020-02-22T15:52:22Z</time>
      </trkpt>
      <trkpt lat="39.0975120" lon="1.4986000">
        <ele>20.5</ele>
        <time>2020-02-22T15:52:23Z</time>
      </trkpt>
      <trkpt lat="39.0975420" lon="1.4985990">
        <ele>20.4</ele>
        <time>2020-02-22T15:52:24Z</time>
      </trkpt>
      <trkpt lat="39.0975710" lon="1.4986110">
        <ele>20.2</ele>
        <time>2020-02-22T15:52:25Z</time>
      </trkpt>
      <trkpt lat="39.0976010" lon="1.4986180">
        <ele>20.0</ele>
        <time>2020-02-22T15:52:26Z</time>
      </trkpt>
      <trkpt lat="39.0976390" lon="1.4986160">
        <ele>19.8</ele>
        <time>2020-02-22T15:52:27Z</time>
      </trkpt>
      <trkpt lat="39.0976550" lon="1.4986140">
        <ele>19.8</ele>
        <time>2020-02-22T15:52:28Z</time>
      </trkpt>
      <trkpt lat="39.0976910" lon="1.4986160">
        <ele>19.6</ele>
        <time>2020-02-22T15:52:29Z</time>
      </trkpt>
      <trkpt lat="39.0977200" lon="1.4986180">
        <ele>19.5</ele>
        <time>2020-02-22T15:52:30Z</time>
      </trkpt>
      <trkpt lat="39.0977510" lon="1.4986230">
        <ele>19.4</ele>
        <time>2020-02-22T15:52:31Z</time>
      </trkpt>
      <trkpt lat="39.0977800" lon="1.4986360">
        <ele>19.2</ele>
        <time>2020-02-22T15:52:32Z</time>
      </trkpt>
      <trkpt lat="39.0978180" lon="1.4986370">
        <ele>19.1</ele>
        <time>2020-02-22T15:52:33Z</time>
      </trkpt>
      <trkpt lat="39.0978310" lon="1.4986380">
        <ele>19.0</ele>
        <time>2020-02-22T15:52:34Z</time>
      </trkpt>
      <trkpt lat="39.0978680" lon="1.4986470">
        <ele>18.9</ele>
        <time>2020-02-22T15:52:35Z</time>
      </trkpt>
      <trkpt lat="39.0978820" lon="1.4986550">
        <ele>18.8</ele>
        <time>2020-02-22T15:52:36Z</time>
      </trkpt>
      <trkpt lat="39.0979130" lon="1.4986610">
        <ele>18.7</ele>
        <time>2020-02-22T15:52:37Z</time>
      </trkpt>
      <trkpt lat="39.0979470" lon="1.4986800">
        <ele>18.5</ele>
        <time>2020-02-22T15:52:38Z</time>
      </trkpt>
      <trkpt lat="39.0979780" lon="1.4986890">
        <ele>18.4</ele>
        <time>2020-02-22T15:52:39Z</time>
      </trkpt>
      <trkpt lat="39.0980050" lon="1.4986930">
        <ele>18.3</ele>
        <time>2020-02-22T15:52:40Z</time>
      </trkpt>
      <trkpt lat="39.0980450" lon="1.4987020">
        <ele>18.2</ele>
        <time>2020-02-22T15:52:41Z</time>
      </trkpt>
      <trkpt lat="39.0980590" lon="1.4987080">
        <ele>18.1</ele>
        <time>2020-02-22T15:52:42Z</time>
      </trkpt>
      <trkpt lat="39.0980910" lon="1.4987270">
        <ele>18.0</ele>
        <time>2020-02-22T15:52:43Z</time>
      </trkpt>
      <trkpt lat="39.0981300" lon="1.4987500">
        <ele>17.9</ele>
        <time>2020-02-22T15:52:44Z</time>
      </trkpt>
      <trkpt lat="39.0981630" lon="1.4987640">
        <ele>17.7</ele>
        <time>2020-02-22T15:52:45Z</time>
      </trkpt>
      <trkpt lat="39.0981940" lon="1.4987830">
        <ele>17.6</ele>
        <time>2020-02-22T15:52:46Z</time>
      </trkpt>
      <trkpt lat="39.0982220" lon="1.4987970">
        <ele>17.5</ele>
        <time>2020-02-22T15:52:47Z</time>
      </trkpt>
      <trkpt lat="39.0982480" lon="1.4988150">
        <ele>17.5</ele>
        <time>2020-02-22T15:52:48Z</time>
      </trkpt>
      <trkpt lat="39.0982800" lon="1.4988410">
        <ele>17.4</ele>
        <time>2020-02-22T15:52:49Z</time>
      </trkpt>
      <trkpt lat="39.0982920" lon="1.4988520">
        <ele>17.3</ele>
        <time>2020-02-22T15:52:50Z</time>
      </trkpt>
      <trkpt lat="39.0983170" lon="1.4988740">
        <ele>17.2</ele>
        <time>2020-02-22T15:52:51Z</time>
      </trkpt>
      <trkpt lat="39.0983460" lon="1.4989070">
        <ele>17.1</ele>
        <time>2020-02-22T15:52:52Z</time>
      </trkpt>
      <trkpt lat="39.0983560" lon="1.4989170">
        <ele>17.1</ele>
        <time>2020-02-22T15:52:53Z</time>
      </trkpt>
      <trkpt lat="39.0983810" lon="1.4989450">
        <ele>17.0</ele>
        <time>2020-02-22T15:52:54Z</time>
      </trkpt>
      <trkpt lat="39.0984040" lon="1.4989710">
        <ele>16.9</ele>
        <time>2020-02-22T15:52:55Z</time>
      </trkpt>
      <trkpt lat="39.0984300" lon="1.4989990">
        <ele>16.8</ele>
        <time>2020-02-22T15:52:56Z</time>
      </trkpt>
      <trkpt lat="39.0984620" lon="1.4990240">
        <ele>16.7</ele>
        <time>2020-02-22T15:52:57Z</time>
      </trkpt>
      <trkpt lat="39.0984770" lon="1.4990350">
        <ele>16.7</ele>
        <time>2020-02-22T15:52:58Z</time>
      </trkpt>
      <trkpt lat="39.0985060" lon="1.4990490">
        <ele>16.7</ele>
        <time>2020-02-22T15:52:59Z</time>
      </trkpt>
      <trkpt lat="39.0985300" lon="1.4990710">
        <ele>16.6</ele>
        <time>2020-02-22T15:53:00Z</time>
      </trkpt>
      <trkpt lat="39.0985550" lon="1.4990920">
        <ele>16.6</ele>
        <time>2020-02-22T15:53:01Z</time>
      </trkpt>
      <trkpt lat="39.0985630" lon="1.4991030">
        <ele>16.6</ele>
        <time>2020-02-22T15:53:02Z</time>
      </trkpt>
      <trkpt lat="39.0985950" lon="1.4991380">
        <ele>16.5</ele>
        <time>2020-02-22T15:53:03Z</time>
      </trkpt>
      <trkpt lat="39.0986080" lon="1.4991530">
        <ele>16.5</ele>
        <time>2020-02-22T15:53:04Z</time>
      </trkpt>
      <trkpt lat="39.0986490" lon="1.4991840">
        <ele>16.5</ele>
        <time>2020-02-22T15:53:05Z</time>
      </trkpt>
      <trkpt lat="39.0986670" lon="1.4991990">
        <ele>16.5</ele>
        <time>2020-02-22T15:53:06Z</time>
      </trkpt>
      <trkpt lat="39.0986920" lon="1.4992200">
        <ele>16.5</ele>
        <time>2020-02-22T15:53:07Z</time>
      </trkpt>
      <trkpt lat="39.0987170" lon="1.4992470">
        <ele>16.5</ele>
        <time>2020-02-22T15:53:08Z</time>
      </trkpt>
      <trkpt lat="39.0987260" lon="1.4992600">
        <ele>16.5</ele>
        <time>2020-02-22T15:53:09Z</time>
      </trkpt>
      <trkpt lat="39.0987550" lon="1.4993010">
        <ele>16.5</ele>
        <time>2020-02-22T15:53:10Z</time>
      </trkpt>
      <trkpt lat="39.0987650" lon="1.4993170">
        <ele>16.5</ele>
        <time>2020-02-22T15:53:11Z</time>
      </trkpt>
      <trkpt lat="39.0987910" lon="1.4993380">
        <ele>16.5</ele>
        <time>2020-02-22T15:53:12Z</time>
      </trkpt>
      <trkpt lat="39.0988010" lon="1.4993500">
        <ele>16.5</ele>
        <time>2020-02-22T15:53:13Z</time>
      </trkpt>
      <trkpt lat="39.0988250" lon="1.4993660">
        <ele>16.6</ele>
        <time>2020-02-22T15:53:14Z</time>
      </trkpt>
      <trkpt lat="39.0988470" lon="1.4993910">
        <ele>16.6</ele>
        <time>2020-02-22T15:53:15Z</time>
      </trkpt>
      <trkpt lat="39.0988730" lon="1.4994120">
        <ele>16.7</ele>
        <time>2020-02-22T15:53:16Z</time>
      </trkpt>
      <trkpt lat="39.0989020" lon="1.4994350">
        <ele>16.7</ele>
        <time>2020-02-22T15:53:17Z</time>
      </trkpt>
      <trkpt lat="39.0989280" lon="1.4994600">
        <ele>16.8</ele>
        <time>2020-02-22T15:53:18Z</time>
      </trkpt>
      <trkpt lat="39.0989550" lon="1.4994860">
        <ele>16.9</ele>
        <time>2020-02-22T15:53:19Z</time>
      </trkpt>
      <trkpt lat="39.0989730" lon="1.4995150">
        <ele>17.0</ele>
        <time>2020-02-22T15:53:20Z</time>
      </trkpt>
      <trkpt lat="39.0989930" lon="1.4995470">
        <ele>17.0</ele>
        <time>2020-02-22T15:53:21Z</time>
      </trkpt>
      <trkpt lat="39.0990120" lon="1.4995790">
        <ele>17.1</ele>
        <time>2020-02-22T15:53:22Z</time>
      </trkpt>
      <trkpt lat="39.0990280" lon="1.4996140">
        <ele>17.2</ele>
        <time>2020-02-22T15:53:23Z</time>
      </trkpt>
      <trkpt lat="39.0990480" lon="1.4996460">
        <ele>17.2</ele>
        <time>2020-02-22T15:53:24Z</time>
      </trkpt>
      <trkpt lat="39.0990660" lon="1.4996820">
        <ele>17.3</ele>
        <time>2020-02-22T15:53:25Z</time>
      </trkpt>
      <trkpt lat="39.0990830" lon="1.4997220">
        <ele>17.3</ele>
        <time>2020-02-22T15:53:26Z</time>
      </trkpt>
      <trkpt lat="39.0991010" lon="1.4997610">
        <ele>17.4</ele>
        <time>2020-02-22T15:53:27Z</time>
      </trkpt>
      <trkpt lat="39.0991210" lon="1.4998070">
        <ele>17.4</ele>
        <time>2020-02-22T15:53:28Z</time>
      </trkpt>
      <trkpt lat="39.0991300" lon="1.4998580">
        <ele>17.5</ele>
        <time>2020-02-22T15:53:29Z</time>
      </trkpt>
      <trkpt lat="39.0991320" lon="1.4998970">
        <ele>17.5</ele>
        <time>2020-02-22T15:53:30Z</time>
      </trkpt>
      <trkpt lat="39.0991330" lon="1.4999370">
        <ele>17.5</ele>
        <time>2020-02-22T15:53:31Z</time>
      </trkpt>
      <trkpt lat="39.0991360" lon="1.4999810">
        <ele>17.6</ele>
        <time>2020-02-22T15:53:32Z</time>
      </trkpt>
      <trkpt lat="39.0991400" lon="1.5000260">
        <ele>17.6</ele>
        <time>2020-02-22T15:53:33Z</time>
      </trkpt>
      <trkpt lat="39.0991470" lon="1.5000710">
        <ele>17.7</ele>
        <time>2020-02-22T15:53:34Z</time>
      </trkpt>
      <trkpt lat="39.0991510" lon="1.5001110">
        <ele>17.7</ele>
        <time>2020-02-22T15:53:35Z</time>
      </trkpt>
      <trkpt lat="39.0991580" lon="1.5001450">
        <ele>17.8</ele>
        <time>2020-02-22T15:53:36Z</time>
      </trkpt>
      <trkpt lat="39.0991670" lon="1.5001870">
        <ele>17.9</ele>
        <time>2020-02-22T15:53:37Z</time>
      </trkpt>
      <trkpt lat="39.0991690" lon="1.5002060">
        <ele>17.9</ele>
        <time>2020-02-22T15:53:38Z</time>
      </trkpt>
      <trkpt lat="39.0991760" lon="1.5002450">
        <ele>18.0</ele>
        <time>2020-02-22T15:53:39Z</time>
      </trkpt>
      <trkpt lat="39.0991780" lon="1.5002860">
        <ele>18.0</ele>
        <time>2020-02-22T15:53:40Z</time>
      </trkpt>
      <trkpt lat="39.0991810" lon="1.5003280">
        <ele>18.1</ele>
        <time>2020-02-22T15:53:41Z</time>
      </trkpt>
      <trkpt lat="39.0991820" lon="1.5003680">
        <ele>18.2</ele>
        <time>2020-02-22T15:53:42Z</time>
      </trkpt>
      <trkpt lat="39.0991800" lon="1.5004080">
        <ele>18.2</ele>
        <time>2020-02-22T15:53:43Z</time>
      </trkpt>
      <trkpt lat="39.0991870" lon="1.5004630">
        <ele>18.3</ele>
        <time>2020-02-22T15:53:44Z</time>
      </trkpt>
      <trkpt lat="39.0991910" lon="1.5004850">
        <ele>18.4</ele>
        <time>2020-02-22T15:53:45Z</time>
      </trkpt>
      <trkpt lat="39.0991930" lon="1.5005290">
        <ele>18.5</ele>
        <time>2020-02-22T15:53:46Z</time>
      </trkpt>
      <trkpt lat="39.0991870" lon="1.5005690">
        <ele>18.5</ele>
        <time>2020-02-22T15:53:47Z</time>
      </trkpt>
      <trkpt lat="39.0991860" lon="1.5006170">
        <ele>18.6</ele>
        <time>2020-02-22T15:53:48Z</time>
      </trkpt>
      <trkpt lat="39.0991930" lon="1.5006620">
        <ele>18.7</ele>
        <time>2020-02-22T15:53:49Z</time>
      </trkpt>
      <trkpt lat="39.0991980" lon="1.5007060">
        <ele>18.8</ele>
        <time>2020-02-22T15:53:50Z</time>
      </trkpt>
      <trkpt lat="39.0991990" lon="1.5007480">
        <ele>18.8</ele>
        <time>2020-02-22T15:53:51Z</time>
      </trkpt>
      <trkpt lat="39.0992070" lon="1.5007820">
        <ele>18.9</ele>
        <time>2020-02-22T15:53:52Z</time>
      </trkpt>
      <trkpt lat="39.0992010" lon="1.5008320">
        <ele>19.0</ele>
        <time>2020-02-22T15:53:53Z</time>
      </trkpt>
      <trkpt lat="39.0991980" lon="1.5008760">
        <ele>19.1</ele>
        <time>2020-02-22T15:53:54Z</time>
      </trkpt>
      <trkpt lat="39.0992020" lon="1.5009220">
        <ele>19.2</ele>
        <time>2020-02-22T15:53:55Z</time>
      </trkpt>
      <trkpt lat="39.0991960" lon="1.5009470">
        <ele>19.2</ele>
        <time>2020-02-22T15:53:56Z</time>
      </trkpt>
      <trkpt lat="39.0992150" lon="1.5009780">
        <ele>19.3</ele>
        <time>2020-02-22T15:53:57Z</time>
      </trkpt>
      <trkpt lat="39.0992130" lon="1.5010240">
        <ele>19.4</ele>
        <time>2020-02-22T15:53:58Z</time>
      </trkpt>
      <trkpt lat="39.0992190" lon="1.5010700">
        <ele>19.4</ele>
        <time>2020-02-22T15:53:59Z</time>
      </trkpt>
      <trkpt lat="39.0992300" lon="1.5011110">
        <ele>19.5</ele>
        <time>2020-02-22T15:54:00Z</time>
      </trkpt>
      <trkpt lat="39.0992410" lon="1.5011520">
        <ele>19.6</ele>
        <time>2020-02-22T15:54:01Z</time>
      </trkpt>
      <trkpt lat="39.0992510" lon="1.5011890">
        <ele>19.7</ele>
        <time>2020-02-22T15:54:02Z</time>
      </trkpt>
      <trkpt lat="39.0992600" lon="1.5012310">
        <ele>19.7</ele>
        <time>2020-02-22T15:54:03Z</time>
      </trkpt>
      <trkpt lat="39.0992680" lon="1.5012720">
        <ele>19.8</ele>
        <time>2020-02-22T15:54:04Z</time>
      </trkpt>
      <trkpt lat="39.0992820" lon="1.5013120">
        <ele>19.9</ele>
        <time>2020-02-22T15:54:05Z</time>
      </trkpt>
      <trkpt lat="39.0992930" lon="1.5013510">
        <ele>20.0</ele>
        <time>2020-02-22T15:54:06Z</time>
      </trkpt>
      <trkpt lat="39.0993000" lon="1.5013930">
        <ele>20.1</ele>
        <time>2020-02-22T15:54:07Z</time>
      </trkpt>
      <trkpt lat="39.0993110" lon="1.5014290">
        <ele>20.2</ele>
        <time>2020-02-22T15:54:08Z</time>
      </trkpt>
      <trkpt lat="39.0993200" lon="1.5014640">
        <ele>20.2</ele>
        <time>2020-02-22T15:54:09Z</time>
      </trkpt>
      <trkpt lat="39.0993110" lon="1.5015160">
        <ele>20.3</ele>
        <time>2020-02-22T15:54:10Z</time>
      </trkpt>
      <trkpt lat="39.0993100" lon="1.5015580">
        <ele>20.4</ele>
        <time>2020-02-22T15:54:11Z</time>
      </trkpt>
      <trkpt lat="39.0993090" lon="1.5015720">
        <ele>20.5</ele>
        <time>2020-02-22T15:54:12Z</time>
      </trkpt>
      <trkpt lat="39.0993160" lon="1.5016130">
        <ele>20.5</ele>
        <time>2020-02-22T15:54:13Z</time>
      </trkpt>
      <trkpt lat="39.0993140" lon="1.5016300">
        <ele>20.6</ele>
        <time>2020-02-22T15:54:14Z</time>
      </trkpt>
      <trkpt lat="39.0993310" lon="1.5016780">
        <ele>20.7</ele>
        <time>2020-02-22T15:54:15Z</time>
      </trkpt>
      <trkpt lat="39.0993380" lon="1.5016950">
        <ele>20.7</ele>
        <time>2020-02-22T15:54:16Z</time>
      </trkpt>
      <trkpt lat="39.0993470" lon="1.5017350">
        <ele>20.8</ele>
        <time>2020-02-22T15:54:17Z</time>
      </trkpt>
      <trkpt lat="39.0993570" lon="1.5017780">
        <ele>20.9</ele>
        <time>2020-02-22T15:54:18Z</time>
      </trkpt>
      <trkpt lat="39.0993700" lon="1.5018260">
        <ele>21.0</ele>
        <time>2020-02-22T15:54:19Z</time>
      </trkpt>
      <trkpt lat="39.0993760" lon="1.5018420">
        <ele>21.1</ele>
        <time>2020-02-22T15:54:20Z</time>
      </trkpt>
      <trkpt lat="39.0993840" lon="1.5018770">
        <ele>21.2</ele>
        <time>2020-02-22T15:54:21Z</time>
      </trkpt>
      <trkpt lat="39.0993840" lon="1.5019180">
        <ele>21.3</ele>
        <time>2020-02-22T15:54:22Z</time>
      </trkpt>
      <trkpt lat="39.0993860" lon="1.5019610">
        <ele>21.4</ele>
        <time>2020-02-22T15:54:23Z</time>
      </trkpt>
      <trkpt lat="39.0993920" lon="1.5019990">
        <ele>21.4</ele>
        <time>2020-02-22T15:54:24Z</time>
      </trkpt>
      <trkpt lat="39.0993910" lon="1.5020340">
        <ele>21.5</ele>
        <time>2020-02-22T15:54:25Z</time>
      </trkpt>
      <trkpt lat="39.0993860" lon="1.5020820">
        <ele>21.6</ele>
        <time>2020-02-22T15:54:26Z</time>
      </trkpt>
      <trkpt lat="39.0993840" lon="1.5020990">
        <ele>21.6</ele>
        <time>2020-02-22T15:54:27Z</time>
      </trkpt>
      <trkpt lat="39.0993820" lon="1.5021340">
        <ele>21.7</ele>
        <time>2020-02-22T15:54:28Z</time>
      </trkpt>
      <trkpt lat="39.0993850" lon="1.5021700">
        <ele>21.7</ele>
        <time>2020-02-22T15:54:29Z</time>
      </trkpt>
      <trkpt lat="39.0993780" lon="1.5022170">
        <ele>21.8</ele>
        <time>2020-02-22T15:54:30Z</time>
      </trkpt>
      <trkpt lat="39.0993760" lon="1.5022410">
        <ele>21.8</ele>
        <time>2020-02-22T15:54:31Z</time>
      </trkpt>
      <trkpt lat="39.0993680" lon="1.5022820">
        <ele>21.8</ele>
        <time>2020-02-22T15:54:32Z</time>
      </trkpt>
      <trkpt lat="39.0993580" lon="1.5023290">
        <ele>21.9</ele>
        <time>2020-02-22T15:54:33Z</time>
      </trkpt>
      <trkpt lat="39.0993540" lon="1.5023470">
        <ele>21.9</ele>
        <time>2020-02-22T15:54:34Z</time>
      </trkpt>
      <trkpt lat="39.0993380" lon="1.5023940">
        <ele>22.0</ele>
        <time>2020-02-22T15:54:35Z</time>
      </trkpt>
      <trkpt lat="39.0993250" lon="1.5024390">
        <ele>22.1</ele>
        <time>2020-02-22T15:54:36Z</time>
      </trkpt>
      <trkpt lat="39.0993180" lon="1.5024860">
        <ele>22.3</ele>
        <time>2020-02-22T15:54:37Z</time>
      </trkpt>
      <trkpt lat="39.0993170" lon="1.5025440">
        <ele>22.4</ele>
        <time>2020-02-22T15:54:38Z</time>
      </trkpt>
      <trkpt lat="39.0993150" lon="1.5026030">
        <ele>22.5</ele>
        <time>2020-02-22T15:54:39Z</time>
      </trkpt>
      <trkpt lat="39.0993090" lon="1.5026670">
        <ele>22.6</ele>
        <time>2020-02-22T15:54:40Z</time>
      </trkpt>
      <trkpt lat="39.0993100" lon="1.5027260">
        <ele>22.7</ele>
        <time>2020-02-22T15:54:41Z</time>
      </trkpt>
      <trkpt lat="39.0993190" lon="1.5028010">
        <ele>22.8</ele>
        <time>2020-02-22T15:54:42Z</time>
      </trkpt>
      <trkpt lat="39.0993310" lon="1.5028710">
        <ele>22.8</ele>
        <time>2020-02-22T15:54:43Z</time>
      </trkpt>
      <trkpt lat="39.0993410" lon="1.5029340">
        <ele>22.8</ele>
        <time>2020-02-22T15:54:44Z</time>
      </trkpt>
      <trkpt lat="39.0993510" lon="1.5029980">
        <ele>22.8</ele>
        <time>2020-02-22T15:54:45Z</time>
      </trkpt>
      <trkpt lat="39.0993570" lon="1.5030690">
        <ele>22.9</ele>
        <time>2020-02-22T15:54:46Z</time>
      </trkpt>
      <trkpt lat="39.0993650" lon="1.5031330">
        <ele>22.9</ele>
        <time>2020-02-22T15:54:47Z</time>
      </trkpt>
      <trkpt lat="39.0993910" lon="1.5032110">
        <ele>22.9</ele>
        <time>2020-02-22T15:54:48Z</time>
      </trkpt>
      <trkpt lat="39.0994020" lon="1.5032870">
        <ele>22.9</ele>
        <time>2020-02-22T15:54:49Z</time>
      </trkpt>
      <trkpt lat="39.0994130" lon="1.5033590">
        <ele>22.9</ele>
        <time>2020-02-22T15:54:50Z</time>
      </trkpt>
      <trkpt lat="39.0994340" lon="1.5034350">
        <ele>22.9</ele>
        <time>2020-02-22T15:54:51Z</time>
      </trkpt>
      <trkpt lat="39.0994420" lon="1.5035150">
        <ele>22.9</ele>
        <time>2020-02-22T15:54:52Z</time>
      </trkpt>
      <trkpt lat="39.0994540" lon="1.5035860">
        <ele>22.9</ele>
        <time>2020-02-22T15:54:53Z</time>
      </trkpt>
      <trkpt lat="39.0994640" lon="1.5036570">
        <ele>22.9</ele>
        <time>2020-02-22T15:54:54Z</time>
      </trkpt>
      <trkpt lat="39.0994730" lon="1.5037300">
        <ele>22.9</ele>
        <time>2020-02-22T15:54:55Z</time>
      </trkpt>
      <trkpt lat="39.0994860" lon="1.5037970">
        <ele>23.0</ele>
        <time>2020-02-22T15:54:56Z</time>
      </trkpt>
      <trkpt lat="39.0994990" lon="1.5038560">
        <ele>23.0</ele>
        <time>2020-02-22T15:54:57Z</time>
      </trkpt>
      <trkpt lat="39.0995070" lon="1.5039250">
        <ele>23.0</ele>
        <time>2020-02-22T15:54:58Z</time>
      </trkpt>
      <trkpt lat="39.0995150" lon="1.5039890">
        <ele>23.1</ele>
        <time>2020-02-22T15:54:59Z</time>
      </trkpt>
      <trkpt lat="39.0995160" lon="1.5040590">
        <ele>23.2</ele>
        <time>2020-02-22T15:55:00Z</time>
      </trkpt>
      <trkpt lat="39.0995320" lon="1.5041200">
        <ele>23.4</ele>
        <time>2020-02-22T15:55:01Z</time>
      </trkpt>
      <trkpt lat="39.0995350" lon="1.5041930">
        <ele>23.5</ele>
        <time>2020-02-22T15:55:02Z</time>
      </trkpt>
      <trkpt lat="39.0995410" lon="1.5042760">
        <ele>23.7</ele>
        <time>2020-02-22T15:55:03Z</time>
      </trkpt>
      <trkpt lat="39.0995330" lon="1.5043510">
        <ele>23.8</ele>
        <time>2020-02-22T15:55:04Z</time>
      </trkpt>
      <trkpt lat="39.0995210" lon="1.5044340">
        <ele>24.0</ele>
        <time>2020-02-22T15:55:05Z</time>
      </trkpt>
      <trkpt lat="39.0995000" lon="1.5045130">
        <ele>24.2</ele>
        <time>2020-02-22T15:55:06Z</time>
      </trkpt>
      <trkpt lat="39.0994800" lon="1.5046000">
        <ele>24.5</ele>
        <time>2020-02-22T15:55:07Z</time>
      </trkpt>
      <trkpt lat="39.0994580" lon="1.5046930">
        <ele>24.9</ele>
        <time>2020-02-22T15:55:08Z</time>
      </trkpt>
      <trkpt lat="39.0994370" lon="1.5047800">
        <ele>25.4</ele>
        <time>2020-02-22T15:55:09Z</time>
      </trkpt>
      <trkpt lat="39.0994150" lon="1.5048680">
        <ele>25.8</ele>
        <time>2020-02-22T15:55:10Z</time>
      </trkpt>
      <trkpt lat="39.0993930" lon="1.5049480">
        <ele>26.2</ele>
        <time>2020-02-22T15:55:11Z</time>
      </trkpt>
      <trkpt lat="39.0993810" lon="1.5050230">
        <ele>26.5</ele>
        <time>2020-02-22T15:55:12Z</time>
      </trkpt>
      <trkpt lat="39.0993640" lon="1.5050880">
        <ele>26.8</ele>
        <time>2020-02-22T15:55:13Z</time>
      </trkpt>
      <trkpt lat="39.0993520" lon="1.5051460">
        <ele>27.1</ele>
        <time>2020-02-22T15:55:14Z</time>
      </trkpt>
      <trkpt lat="39.0993380" lon="1.5052060">
        <ele>27.3</ele>
        <time>2020-02-22T15:55:15Z</time>
      </trkpt>
      <trkpt lat="39.0993180" lon="1.5052520">
        <ele>27.6</ele>
        <time>2020-02-22T15:55:16Z</time>
      </trkpt>
      <trkpt lat="39.0993130" lon="1.5052990">
        <ele>27.8</ele>
        <time>2020-02-22T15:55:17Z</time>
      </trkpt>
      <trkpt lat="39.0993110" lon="1.5053470">
        <ele>28.0</ele>
        <time>2020-02-22T15:55:18Z</time>
      </trkpt>
      <trkpt lat="39.0993090" lon="1.5053900">
        <ele>28.1</ele>
        <time>2020-02-22T15:55:19Z</time>
      </trkpt>
      <trkpt lat="39.0993140" lon="1.5054340">
        <ele>28.3</ele>
        <time>2020-02-22T15:55:20Z</time>
      </trkpt>
      <trkpt lat="39.0993090" lon="1.5054860">
        <ele>28.5</ele>
        <time>2020-02-22T15:55:21Z</time>
      </trkpt>
      <trkpt lat="39.0992950" lon="1.5055290">
        <ele>28.7</ele>
        <time>2020-02-22T15:55:22Z</time>
      </trkpt>
      <trkpt lat="39.0992940" lon="1.5055890">
        <ele>29.0</ele>
        <time>2020-02-22T15:55:23Z</time>
      </trkpt>
      <trkpt lat="39.0992970" lon="1.5056370">
        <ele>29.2</ele>
        <time>2020-02-22T15:55:24Z</time>
      </trkpt>
      <trkpt lat="39.0992990" lon="1.5056900">
        <ele>29.4</ele>
        <time>2020-02-22T15:55:25Z</time>
      </trkpt>
      <trkpt lat="39.0992940" lon="1.5057470">
        <ele>29.6</ele>
        <time>2020-02-22T15:55:26Z</time>
      </trkpt>
      <trkpt lat="39.0992920" lon="1.5058150">
        <ele>29.9</ele>
        <time>2020-02-22T15:55:27Z</time>
      </trkpt>
      <trkpt lat="39.0992940" lon="1.5058820">
        <ele>30.2</ele>
        <time>2020-02-22T15:55:28Z</time>
      </trkpt>
      <trkpt lat="39.0993020" lon="1.5059430">
        <ele>30.5</ele>
        <time>2020-02-22T15:55:29Z</time>
      </trkpt>
      <trkpt lat="39.0993210" lon="1.5059910">
        <ele>30.8</ele>
        <time>2020-02-22T15:55:30Z</time>
      </trkpt>
      <trkpt lat="39.0993330" lon="1.5060440">
        <ele>31.1</ele>
        <time>2020-02-22T15:55:31Z</time>
      </trkpt>
      <trkpt lat="39.0993440" lon="1.5060980">
        <ele>31.3</ele>
        <time>2020-02-22T15:55:32Z</time>
      </trkpt>
      <trkpt lat="39.0993580" lon="1.5061490">
        <ele>31.6</ele>
        <time>2020-02-22T15:55:33Z</time>
      </trkpt>
      <trkpt lat="39.0993700" lon="1.5061880">
        <ele>31.8</ele>
        <time>2020-02-22T15:55:34Z</time>
      </trkpt>
      <trkpt lat="39.0993810" lon="1.5062400">
        <ele>32.1</ele>
        <time>2020-02-22T15:55:35Z</time>
      </trkpt>
      <trkpt lat="39.0993980" lon="1.5062860">
        <ele>32.3</ele>
        <time>2020-02-22T15:55:36Z</time>
      </trkpt>
      <trkpt lat="39.0994130" lon="1.5063290">
        <ele>32.5</ele>
        <time>2020-02-22T15:55:37Z</time>
      </trkpt>
      <trkpt lat="39.0994190" lon="1.5063560">
        <ele>32.7</ele>
        <time>2020-02-22T15:55:38Z</time>
      </trkpt>
      <trkpt lat="39.0994310" lon="1.5064010">
        <ele>32.9</ele>
        <time>2020-02-22T15:55:39Z</time>
      </trkpt>
      <trkpt lat="39.0994370" lon="1.5064380">
        <ele>33.1</ele>
        <time>2020-02-22T15:55:40Z</time>
      </trkpt>
      <trkpt lat="39.0994400" lon="1.5064840">
        <ele>33.4</ele>
        <time>2020-02-22T15:55:41Z</time>
      </trkpt>
      <trkpt lat="39.0994410" lon="1.5064990">
        <ele>33.4</ele>
        <time>2020-02-22T15:55:42Z</time>
      </trkpt>
      <trkpt lat="39.0994630" lon="1.5065460">
        <ele>33.7</ele>
        <time>2020-02-22T15:55:43Z</time>
      </trkpt>
      <trkpt lat="39.0994740" lon="1.5065640">
        <ele>33.8</ele>
        <time>2020-02-22T15:55:44Z</time>
      </trkpt>
      <trkpt lat="39.0995090" lon="1.5066040">
        <ele>34.2</ele>
        <time>2020-02-22T15:55:45Z</time>
      </trkpt>
      <trkpt lat="39.0995290" lon="1.5066280">
        <ele>34.3</ele>
        <time>2020-02-22T15:55:46Z</time>
      </trkpt>
      <trkpt lat="39.0995510" lon="1.5066620">
        <ele>34.6</ele>
        <time>2020-02-22T15:55:47Z</time>
      </trkpt>
      <trkpt lat="39.0995560" lon="1.5066710">
        <ele>34.6</ele>
        <time>2020-02-22T15:55:48Z</time>
      </trkpt>
      <trkpt lat="39.0995790" lon="1.5067010">
        <ele>34.9</ele>
        <time>2020-02-22T15:55:49Z</time>
      </trkpt>
      <trkpt lat="39.0995990" lon="1.5067240">
        <ele>35.0</ele>
        <time>2020-02-22T15:55:50Z</time>
      </trkpt>
      <trkpt lat="39.0996170" lon="1.5067550">
        <ele>35.3</ele>
        <time>2020-02-22T15:55:51Z</time>
      </trkpt>
      <trkpt lat="39.0996310" lon="1.5067890">
        <ele>35.5</ele>
        <time>2020-02-22T15:55:52Z</time>
      </trkpt>
      <trkpt lat="39.0996500" lon="1.5068260">
        <ele>35.7</ele>
        <time>2020-02-22T15:55:53Z</time>
      </trkpt>
      <trkpt lat="39.0996720" lon="1.5068620">
        <ele>36.0</ele>
        <time>2020-02-22T15:55:54Z</time>
      </trkpt>
      <trkpt lat="39.0997010" lon="1.5068850">
        <ele>36.2</ele>
        <time>2020-02-22T15:55:55Z</time>
      </trkpt>
      <trkpt lat="39.0997230" lon="1.5069050">
        <ele>36.4</ele>
        <time>2020-02-22T15:55:56Z</time>
      </trkpt>
      <trkpt lat="39.0997450" lon="1.5069390">
        <ele>36.7</ele>
        <time>2020-02-22T15:55:57Z</time>
      </trkpt>
      <trkpt lat="39.0997740" lon="1.5069660">
        <ele>36.9</ele>
        <time>2020-02-22T15:55:58Z</time>
      </trkpt>
      <trkpt lat="39.0997960" lon="1.5069910">
        <ele>37.2</ele>
        <time>2020-02-22T15:55:59Z</time>
      </trkpt>
      <trkpt lat="39.0998130" lon="1.5070210">
        <ele>37.4</ele>
        <time>2020-02-22T15:56:00Z</time>
      </trkpt>
      <trkpt lat="39.0998350" lon="1.5070460">
        <ele>37.7</ele>
        <time>2020-02-22T15:56:01Z</time>
      </trkpt>
      <trkpt lat="39.0998500" lon="1.5070760">
        <ele>37.9</ele>
        <time>2020-02-22T15:56:02Z</time>
      </trkpt>
      <trkpt lat="39.0998640" lon="1.5071100">
        <ele>38.2</ele>
        <time>2020-02-22T15:56:03Z</time>
      </trkpt>
      <trkpt lat="39.0998750" lon="1.5071310">
        <ele>38.4</ele>
        <time>2020-02-22T15:56:04Z</time>
      </trkpt>
      <trkpt lat="39.0998990" lon="1.5071610">
        <ele>38.7</ele>
        <time>2020-02-22T15:56:05Z</time>
      </trkpt>
      <trkpt lat="39.0999130" lon="1.5071930">
        <ele>38.9</ele>
        <time>2020-02-22T15:56:06Z</time>
      </trkpt>
      <trkpt lat="39.0999410" lon="1.5072300">
        <ele>39.2</ele>
        <time>2020-02-22T15:56:07Z</time>
      </trkpt>
      <trkpt lat="39.0999510" lon="1.5072440">
        <ele>39.4</ele>
        <time>2020-02-22T15:56:08Z</time>
      </trkpt>
      <trkpt lat="39.0999770" lon="1.5072720">
        <ele>39.6</ele>
        <time>2020-02-22T15:56:09Z</time>
      </trkpt>
      <trkpt lat="39.1000000" lon="1.5073110">
        <ele>40.0</ele>
        <time>2020-02-22T15:56:10Z</time>
      </trkpt>
      <trkpt lat="39.1000070" lon="1.5073270">
        <ele>40.1</ele>
        <time>2020-02-22T15:56:11Z</time>
      </trkpt>
      <trkpt lat="39.1000350" lon="1.5073590">
        <ele>40.4</ele>
        <time>2020-02-22T15:56:12Z</time>
      </trkpt>
      <trkpt lat="39.1000460" lon="1.5073710">
        <ele>40.5</ele>
        <time>2020-02-22T15:56:13Z</time>
      </trkpt>
      <trkpt lat="39.1000620" lon="1.5074020">
        <ele>40.7</ele>
        <time>2020-02-22T15:56:14Z</time>
      </trkpt>
      <trkpt lat="39.1000780" lon="1.5074480">
        <ele>41.0</ele>
        <time>2020-02-22T15:56:15Z</time>
      </trkpt>
      <trkpt lat="39.1000840" lon="1.5074630">
        <ele>41.1</ele>
        <time>2020-02-22T15:56:16Z</time>
      </trkpt>
      <trkpt lat="39.1001020" lon="1.5075060">
        <ele>41.4</ele>
        <time>2020-02-22T15:56:17Z</time>
      </trkpt>
      <trkpt lat="39.1001070" lon="1.5075220">
        <ele>41.5</ele>
        <time>2020-02-22T15:56:18Z</time>
      </trkpt>
      <trkpt lat="39.1001130" lon="1.5075570">
        <ele>41.7</ele>
        <time>2020-02-22T15:56:19Z</time>
      </trkpt>
      <trkpt lat="39.1001110" lon="1.5075990">
        <ele>41.9</ele>
        <time>2020-02-22T15:56:20Z</time>
      </trkpt>
      <trkpt lat="39.1001110" lon="1.5076130">
        <ele>42.0</ele>
        <time>2020-02-22T15:56:21Z</time>
      </trkpt>
      <trkpt lat="39.1001170" lon="1.5076510">
        <ele>42.2</ele>
        <time>2020-02-22T15:56:22Z</time>
      </trkpt>
      <trkpt lat="39.1001230" lon="1.5076940">
        <ele>42.4</ele>
        <time>2020-02-22T15:56:23Z</time>
      </trkpt>
      <trkpt lat="39.1001260" lon="1.5077070">
        <ele>42.4</ele>
        <time>2020-02-22T15:56:24Z</time>
      </trkpt>
      <trkpt lat="39.1001290" lon="1.5077440">
        <ele>42.6</ele>
        <time>2020-02-22T15:56:25Z</time>
      </trkpt>
      <trkpt lat="39.1001320" lon="1.5077880">
        <ele>42.8</ele>
        <time>2020-02-22T15:56:26Z</time>
      </trkpt>
      <trkpt lat="39.1001330" lon="1.5078290">
        <ele>42.9</ele>
        <time>2020-02-22T15:56:27Z</time>
      </trkpt>
      <trkpt lat="39.1001270" lon="1.5078790">
        <ele>43.1</ele>
        <time>2020-02-22T15:56:28Z</time>
      </trkpt>
      <trkpt lat="39.1001230" lon="1.5078970">
        <ele>43.2</ele>
        <time>2020-02-22T15:56:29Z</time>
      </trkpt>
      <trkpt lat="39.1001230" lon="1.5079450">
        <ele>43.3</ele>
        <time>2020-02-22T15:56:30Z</time>
      </trkpt>
      <trkpt lat="39.1001160" lon="1.5079830">
        <ele>43.4</ele>
        <time>2020-02-22T15:56:31Z</time>
      </trkpt>
      <trkpt lat="39.1001090" lon="1.5080200">
        <ele>43.5</ele>
        <time>2020-02-22T15:56:32Z</time>
      </trkpt>
      <trkpt lat="39.1001140" lon="1.5080730">
        <ele>43.7</ele>
        <time>2020-02-22T15:56:33Z</time>
      </trkpt>
      <trkpt lat="39.1001130" lon="1.5080920">
        <ele>43.7</ele>
        <time>2020-02-22T15:56:34Z</time>
      </trkpt>
      <trkpt lat="39.1001150" lon="1.5081320">
        <ele>43.8</ele>
        <time>2020-02-22T15:56:35Z</time>
      </trkpt>
      <trkpt lat="39.1001050" lon="1.5081710">
        <ele>43.9</ele>
        <time>2020-02-22T15:56:36Z</time>
      </trkpt>
      <trkpt lat="39.1001010" lon="1.5082180">
        <ele>43.9</ele>
        <time>2020-02-22T15:56:37Z</time>
      </trkpt>
      <trkpt lat="39.1000900" lon="1.5082620">
        <ele>43.9</ele>
        <time>2020-02-22T15:56:38Z</time>
      </trkpt>
      <trkpt lat="39.1000850" lon="1.5083100">
        <ele>43.9</ele>
        <time>2020-02-22T15:56:39Z</time>
      </trkpt>
      <trkpt lat="39.1000810" lon="1.5083560">
        <ele>43.9</ele>
        <time>2020-02-22T15:56:40Z</time>
      </trkpt>
      <trkpt lat="39.1000840" lon="1.5084100">
        <ele>43.9</ele>
        <time>2020-02-22T15:56:41Z</time>
      </trkpt>
      <trkpt lat="39.1000800" lon="1.5084730">
        <ele>43.9</ele>
        <time>2020-02-22T15:56:42Z</time>
      </trkpt>
      <trkpt lat="39.1000740" lon="1.5085500">
        <ele>43.9</ele>
        <time>2020-02-22T15:56:43Z</time>
      </trkpt>
      <trkpt lat="39.1000670" lon="1.5086180">
        <ele>43.8</ele>
        <time>2020-02-22T15:56:44Z</time>
      </trkpt>
      <trkpt lat="39.1000670" lon="1.5086970">
        <ele>43.8</ele>
        <time>2020-02-22T15:56:45Z</time>
      </trkpt>
      <trkpt lat="39.1000710" lon="1.5087790">
        <ele>43.8</ele>
        <time>2020-02-22T15:56:46Z</time>
      </trkpt>
      <trkpt lat="39.1000640" lon="1.5088460">
        <ele>43.8</ele>
        <time>2020-02-22T15:56:47Z</time>
      </trkpt>
      <trkpt lat="39.1000660" lon="1.5089270">
        <ele>43.8</ele>
        <time>2020-02-22T15:56:48Z</time>
      </trkpt>
      <trkpt lat="39.1000620" lon="1.5090180">
        <ele>43.8</ele>
        <time>2020-02-22T15:56:49Z</time>
      </trkpt>
      <trkpt lat="39.1000490" lon="1.5091140">
        <ele>43.8</ele>
        <time>2020-02-22T15:56:50Z</time>
      </trkpt>
      <trkpt lat="39.1000390" lon="1.5092090">
        <ele>43.9</ele>
        <time>2020-02-22T15:56:51Z</time>
      </trkpt>
      <trkpt lat="39.1000220" lon="1.5092860">
        <ele>44.0</ele>
        <time>2020-02-22T15:56:52Z</time>
      </trkpt>
      <trkpt lat="39.0999990" lon="1.5093750">
        <ele>44.2</ele>
        <time>2020-02-22T15:56:53Z</time>
      </trkpt>
      <trkpt lat="39.0999730" lon="1.5094610">
        <ele>44.3</ele>
        <time>2020-02-22T15:56:54Z</time>
      </trkpt>
      <trkpt lat="39.0999440" lon="1.5095500">
        <ele>44.5</ele>
        <time>2020-02-22T15:56:55Z</time>
      </trkpt>
      <trkpt lat="39.0999070" lon="1.5096220">
        <ele>44.6</ele>
        <time>2020-02-22T15:56:56Z</time>
      </trkpt>
      <trkpt lat="39.0998680" lon="1.5096990">
        <ele>44.6</ele>
        <time>2020-02-22T15:56:57Z</time>
      </trkpt>
      <trkpt lat="39.0998290" lon="1.5097720">
        <ele>44.6</ele>
        <time>2020-02-22T15:56:58Z</time>
      </trkpt>
      <trkpt lat="39.0997910" lon="1.5098460">
        <ele>44.6</ele>
        <time>2020-02-22T15:56:59Z</time>
      </trkpt>
      <trkpt lat="39.0997530" lon="1.5099210">
        <ele>44.7</ele>
        <time>2020-02-22T15:57:00Z</time>
      </trkpt>
      <trkpt lat="39.0997100" lon="1.5099850">
        <ele>44.7</ele>
        <time>2020-02-22T15:57:01Z</time>
      </trkpt>
      <trkpt lat="39.0996760" lon="1.5100590">
        <ele>44.9</ele>
        <time>2020-02-22T15:57:02Z</time>
      </trkpt>
      <trkpt lat="39.0996440" lon="1.5101310">
        <ele>45.1</ele>
        <time>2020-02-22T15:57:03Z</time>
      </trkpt>
      <trkpt lat="39.0996120" lon="1.5101990">
        <ele>45.3</ele>
        <time>2020-02-22T15:57:04Z</time>
      </trkpt>
      <trkpt lat="39.0995750" lon="1.5102590">
        <ele>45.5</ele>
        <time>2020-02-22T15:57:05Z</time>
      </trkpt>
      <trkpt lat="39.0995420" lon="1.5103240">
        <ele>45.3</ele>
        <time>2020-02-22T15:57:06Z</time>
      </trkpt>
      <trkpt lat="39.0995040" lon="1.5103850">
        <ele>45.1</ele>
        <time>2020-02-22T15:57:07Z</time>
      </trkpt>
      <trkpt lat="39.0994660" lon="1.5104430">
        <ele>44.9</ele>
        <time>2020-02-22T15:57:08Z</time>
      </trkpt>
      <trkpt lat="39.0994260" lon="1.5104930">
        <ele>44.8</ele>
        <time>2020-02-22T15:57:09Z</time>
      </trkpt>
      <trkpt lat="39.0993840" lon="1.5105390">
        <ele>44.7</ele>
        <time>2020-02-22T15:57:10Z</time>
      </trkpt>
      <trkpt lat="39.0993450" lon="1.5105850">
        <ele>44.7</ele>
        <time>2020-02-22T15:57:11Z</time>
      </trkpt>
      <trkpt lat="39.0993050" lon="1.5106300">
        <ele>44.7</ele>
        <time>2020-02-22T15:57:12Z</time>
      </trkpt>
      <trkpt lat="39.0992590" lon="1.5106710">
        <ele>44.7</ele>
        <time>2020-02-22T15:57:13Z</time>
      </trkpt>
      <trkpt lat="39.0992280" lon="1.5107280">
        <ele>44.6</ele>
        <time>2020-02-22T15:57:14Z</time>
      </trkpt>
      <trkpt lat="39.0992030" lon="1.5107850">
        <ele>44.6</ele>
        <time>2020-02-22T15:57:15Z</time>
      </trkpt>
      <trkpt lat="39.0991760" lon="1.5108450">
        <ele>44.7</ele>
        <time>2020-02-22T15:57:16Z</time>
      </trkpt>
      <trkpt lat="39.0991660" lon="1.5109140">
        <ele>44.7</ele>
        <time>2020-02-22T15:57:17Z</time>
      </trkpt>
      <trkpt lat="39.0991610" lon="1.5109740">
        <ele>44.7</ele>
        <time>2020-02-22T15:57:18Z</time>
      </trkpt>
      <trkpt lat="39.0991620" lon="1.5110310">
        <ele>44.7</ele>
        <time>2020-02-22T15:57:19Z</time>
      </trkpt>
      <trkpt lat="39.0991720" lon="1.5110880">
        <ele>44.7</ele>
        <time>2020-02-22T15:57:20Z</time>
      </trkpt>
      <trkpt lat="39.0991760" lon="1.5111490">
        <ele>44.7</ele>
        <time>2020-02-22T15:57:21Z</time>
      </trkpt>
      <trkpt lat="39.0991930" lon="1.5112020">
        <ele>44.7</ele>
        <time>2020-02-22T15:57:22Z</time>
      </trkpt>
      <trkpt lat="39.0992230" lon="1.5112490">
        <ele>44.7</ele>
        <time>2020-02-22T15:57:23Z</time>
      </trkpt>
      <trkpt lat="39.0992590" lon="1.5112810">
        <ele>44.7</ele>
        <time>2020-02-22T15:57:24Z</time>
      </trkpt>
      <trkpt lat="39.0992960" lon="1.5113110">
        <ele>44.7</ele>
        <time>2020-02-22T15:57:25Z</time>
      </trkpt>
      <trkpt lat="39.0993330" lon="1.5113240">
        <ele>44.7</ele>
        <time>2020-02-22T15:57:26Z</time>
      </trkpt>
      <trkpt lat="39.0993610" lon="1.5113570">
        <ele>44.7</ele>
        <time>2020-02-22T15:57:27Z</time>
      </trkpt>
      <trkpt lat="39.0993940" lon="1.5113740">
        <ele>44.7</ele>
        <time>2020-02-22T15:57:28Z</time>
      </trkpt>
      <trkpt lat="39.0994300" lon="1.5113760">
        <ele>44.8</ele>
        <time>2020-02-22T15:57:29Z</time>
      </trkpt>
      <trkpt lat="39.0994690" lon="1.5113810">
        <ele>44.8</ele>
        <time>2020-02-22T15:57:30Z</time>
      </trkpt>
      <trkpt lat="39.0995070" lon="1.5113760">
        <ele>44.8</ele>
        <time>2020-02-22T15:57:31Z</time>
      </trkpt>
      <trkpt lat="39.0995470" lon="1.5113670">
        <ele>44.9</ele>
        <time>2020-02-22T15:57:32Z</time>
      </trkpt>
      <trkpt lat="39.0995860" lon="1.5113560">
        <ele>45.0</ele>
        <time>2020-02-22T15:57:33Z</time>
      </trkpt>
      <trkpt lat="39.0996250" lon="1.5113570">
        <ele>45.1</ele>
        <time>2020-02-22T15:57:34Z</time>
      </trkpt>
      <trkpt lat="39.0996610" lon="1.5113510">
        <ele>45.2</ele>
        <time>2020-02-22T15:57:35Z</time>
      </trkpt>
      <trkpt lat="39.0996980" lon="1.5113390">
        <ele>45.3</ele>
        <time>2020-02-22T15:57:36Z</time>
      </trkpt>
      <trkpt lat="39.0997360" lon="1.5113240">
        <ele>45.4</ele>
        <time>2020-02-22T15:57:37Z</time>
      </trkpt>
      <trkpt lat="39.0997720" lon="1.5113150">
        <ele>45.6</ele>
        <time>2020-02-22T15:57:38Z</time>
      </trkpt>
      <trkpt lat="39.0998070" lon="1.5113040">
        <ele>45.7</ele>
        <time>2020-02-22T15:57:39Z</time>
      </trkpt>
      <trkpt lat="39.0998420" lon="1.5112870">
        <ele>45.8</ele>
        <time>2020-02-22T15:57:40Z</time>
      </trkpt>
      <trkpt lat="39.0998770" lon="1.5112700">
        <ele>46.0</ele>
        <time>2020-02-22T15:57:41Z</time>
      </trkpt>
      <trkpt lat="39.0999140" lon="1.5112570">
        <ele>46.1</ele>
        <time>2020-02-22T15:57:42Z</time>
      </trkpt>
      <trkpt lat="39.0999490" lon="1.5112470">
        <ele>46.3</ele>
        <time>2020-02-22T15:57:43Z</time>
      </trkpt>
      <trkpt lat="39.0999830" lon="1.5112390">
        <ele>46.4</ele>
        <time>2020-02-22T15:57:44Z</time>
      </trkpt>
      <trkpt lat="39.1000170" lon="1.5112300">
        <ele>46.5</ele>
        <time>2020-02-22T15:57:45Z</time>
      </trkpt>
      <trkpt lat="39.1000610" lon="1.5112350">
        <ele>46.8</ele>
        <time>2020-02-22T15:57:46Z</time>
      </trkpt>
      <trkpt lat="39.1001080" lon="1.5112240">
        <ele>47.0</ele>
        <time>2020-02-22T15:57:47Z</time>
      </trkpt>
      <trkpt lat="39.1001550" lon="1.5112270">
        <ele>47.2</ele>
        <time>2020-02-22T15:57:48Z</time>
      </trkpt>
      <trkpt lat="39.1002090" lon="1.5112110">
        <ele>47.6</ele>
        <time>2020-02-22T15:57:49Z</time>
      </trkpt>
      <trkpt lat="39.1002460" lon="1.5111930">
        <ele>47.8</ele>
        <time>2020-02-22T15:57:50Z</time>
      </trkpt>
      <trkpt lat="39.1002910" lon="1.5111720">
        <ele>47.3</ele>
        <time>2020-02-22T15:57:51Z</time>
      </trkpt>
      <trkpt lat="39.1003350" lon="1.5111560">
        <ele>46.8</ele>
        <time>2020-02-22T15:57:52Z</time>
      </trkpt>
      <trkpt lat="39.1004020" lon="1.5111280">
        <ele>46.3</ele>
        <time>2020-02-22T15:57:53Z</time>
      </trkpt>
      <trkpt lat="39.1004420" lon="1.5111170">
        <ele>46.0</ele>
        <time>2020-02-22T15:57:54Z</time>
      </trkpt>
      <trkpt lat="39.1004810" lon="1.5111100">
        <ele>45.8</ele>
        <time>2020-02-22T15:57:55Z</time>
      </trkpt>
      <trkpt lat="39.1005150" lon="1.5111030">
        <ele>45.6</ele>
        <time>2020-02-22T15:57:56Z</time>
      </trkpt>
      <trkpt lat="39.1005540" lon="1.5110920">
        <ele>45.5</ele>
        <time>2020-02-22T15:57:57Z</time>
      </trkpt>
      <trkpt lat="39.1005930" lon="1.5110760">
        <ele>45.4</ele>
        <time>2020-02-22T15:57:58Z</time>
      </trkpt>
      <trkpt lat="39.1006090" lon="1.5110710">
        <ele>45.4</ele>
        <time>2020-02-22T15:57:59Z</time>
      </trkpt>
      <trkpt lat="39.1006420" lon="1.5110660">
        <ele>45.3</ele>
        <time>2020-02-22T15:58:00Z</time>
      </trkpt>
      <trkpt lat="39.1006760" lon="1.5110670">
        <ele>45.2</ele>
        <time>2020-02-22T15:58:01Z</time>
      </trkpt>
      <trkpt lat="39.1007180" lon="1.5110590">
        <ele>45.1</ele>
        <time>2020-02-22T15:58:02Z</time>
      </trkpt>
      <trkpt lat="39.1007640" lon="1.5110460">
        <ele>45.0</ele>
        <time>2020-02-22T15:58:03Z</time>
      </trkpt>
      <trkpt lat="39.1008140" lon="1.5110400">
        <ele>44.8</ele>
        <time>2020-02-22T15:58:04Z</time>
      </trkpt>
      <trkpt lat="39.1008670" lon="1.5110410">
        <ele>44.7</ele>
        <time>2020-02-22T15:58:05Z</time>
      </trkpt>
      <trkpt lat="39.1009090" lon="1.5110360">
        <ele>44.6</ele>
        <time>2020-02-22T15:58:06Z</time>
      </trkpt>
      <trkpt lat="39.1009600" lon="1.5110280">
        <ele>44.6</ele>
        <time>2020-02-22T15:58:07Z</time>
      </trkpt>
      <trkpt lat="39.1010100" lon="1.5110140">
        <ele>44.4</ele>
        <time>2020-02-22T15:58:08Z</time>
      </trkpt>
      <trkpt lat="39.1010550" lon="1.5110000">
        <ele>44.4</ele>
        <time>2020-02-22T15:58:09Z</time>
      </trkpt>
      <trkpt lat="39.1011040" lon="1.5109860">
        <ele>44.4</ele>
        <time>2020-02-22T15:58:10Z</time>
      </trkpt>
      <trkpt lat="39.1011540" lon="1.5109760">
        <ele>44.4</ele>
        <time>2020-02-22T15:58:11Z</time>
      </trkpt>
      <trkpt lat="39.1011920" lon="1.5109700">
        <ele>44.4</ele>
        <time>2020-02-22T15:58:12Z</time>
      </trkpt>
      <trkpt lat="39.1012300" lon="1.5109600">
        <ele>44.4</ele>
        <time>2020-02-22T15:58:13Z</time>
      </trkpt>
      <trkpt lat="39.1012710" lon="1.5109480">
        <ele>44.4</ele>
        <time>2020-02-22T15:58:14Z</time>
      </trkpt>
      <trkpt lat="39.1013150" lon="1.5109360">
        <ele>44.4</ele>
        <time>2020-02-22T15:58:15Z</time>
      </trkpt>
      <trkpt lat="39.1013590" lon="1.5109220">
        <ele>44.4</ele>
        <time>2020-02-22T15:58:16Z</time>
      </trkpt>
      <trkpt lat="39.1014130" lon="1.5109120">
        <ele>44.4</ele>
        <time>2020-02-22T15:58:17Z</time>
      </trkpt>
      <trkpt lat="39.1014750" lon="1.5109030">
        <ele>44.2</ele>
        <time>2020-02-22T15:58:18Z</time>
      </trkpt>
      <trkpt lat="39.1015260" lon="1.5108880">
        <ele>44.0</ele>
        <time>2020-02-22T15:58:19Z</time>
      </trkpt>
      <trkpt lat="39.1015750" lon="1.5108720">
        <ele>43.9</ele>
        <time>2020-02-22T15:58:20Z</time>
      </trkpt>
      <trkpt lat="39.1016280" lon="1.5108590">
        <ele>43.8</ele>
        <time>2020-02-22T15:58:21Z</time>
      </trkpt>
      <trkpt lat="39.1016780" lon="1.5108500">
        <ele>43.6</ele>
        <time>2020-02-22T15:58:22Z</time>
      </trkpt>
      <trkpt lat="39.1017260" lon="1.5108410">
        <ele>43.5</ele>
        <time>2020-02-22T15:58:23Z</time>
      </trkpt>
      <trkpt lat="39.1017780" lon="1.5108320">
        <ele>43.3</ele>
        <time>2020-02-22T15:58:24Z</time>
      </trkpt>
      <trkpt lat="39.1018270" lon="1.5108150">
        <ele>43.1</ele>
        <time>2020-02-22T15:58:25Z</time>
      </trkpt>
      <trkpt lat="39.1018730" lon="1.5107940">
        <ele>42.8</ele>
        <time>2020-02-22T15:58:26Z</time>
      </trkpt>
      <trkpt lat="39.1019240" lon="1.5107750">
        <ele>42.7</ele>
        <time>2020-02-22T15:58:27Z</time>
      </trkpt>
      <trkpt lat="39.1019830" lon="1.5107550">
        <ele>42.5</ele>
        <time>2020-02-22T15:58:28Z</time>
      </trkpt>
      <trkpt lat="39.1020420" lon="1.5107400">
        <ele>42.3</ele>
        <time>2020-02-22T15:58:29Z</time>
      </trkpt>
      <trkpt lat="39.1020930" lon="1.5107270">
        <ele>42.3</ele>
        <time>2020-02-22T15:58:30Z</time>
      </trkpt>
      <trkpt lat="39.1021430" lon="1.5107160">
        <ele>42.3</ele>
        <time>2020-02-22T15:58:31Z</time>
      </trkpt>
      <trkpt lat="39.1021960" lon="1.5107070">
        <ele>42.2</ele>
        <time>2020-02-22T15:58:32Z</time>
      </trkpt>
      <trkpt lat="39.1022430" lon="1.5106950">
        <ele>42.2</ele>
        <time>2020-02-22T15:58:33Z</time>
      </trkpt>
      <trkpt lat="39.1022900" lon="1.5106820">
        <ele>42.3</ele>
        <time>2020-02-22T15:58:34Z</time>
      </trkpt>
      <trkpt lat="39.1023290" lon="1.5106700">
        <ele>42.3</ele>
        <time>2020-02-22T15:58:35Z</time>
      </trkpt>
      <trkpt lat="39.1023710" lon="1.5106510">
        <ele>42.3</ele>
        <time>2020-02-22T15:58:36Z</time>
      </trkpt>
      <trkpt lat="39.1024180" lon="1.5106360">
        <ele>42.4</ele>
        <time>2020-02-22T15:58:37Z</time>
      </trkpt>
      <trkpt lat="39.1024640" lon="1.5106210">
        <ele>42.5</ele>
        <time>2020-02-22T15:58:38Z</time>
      </trkpt>
      <trkpt lat="39.1025070" lon="1.5106180">
        <ele>42.5</ele>
        <time>2020-02-22T15:58:39Z</time>
      </trkpt>
      <trkpt lat="39.1025570" lon="1.5105990">
        <ele>42.6</ele>
        <time>2020-02-22T15:58:40Z</time>
      </trkpt>
      <trkpt lat="39.1025940" lon="1.5105940">
        <ele>42.7</ele>
        <time>2020-02-22T15:58:41Z</time>
      </trkpt>
      <trkpt lat="39.1026310" lon="1.5105800">
        <ele>42.7</ele>
        <time>2020-02-22T15:58:42Z</time>
      </trkpt>
      <trkpt lat="39.1026860" lon="1.5105620">
        <ele>42.8</ele>
        <time>2020-02-22T15:58:43Z</time>
      </trkpt>
      <trkpt lat="39.1027420" lon="1.5105420">
        <ele>42.9</ele>
        <time>2020-02-22T15:58:44Z</time>
      </trkpt>
      <trkpt lat="39.1027820" lon="1.5105340">
        <ele>42.9</ele>
        <time>2020-02-22T15:58:45Z</time>
      </trkpt>
      <trkpt lat="39.1028240" lon="1.5105240">
        <ele>43.0</ele>
        <time>2020-02-22T15:58:46Z</time>
      </trkpt>
      <trkpt lat="39.1028640" lon="1.5105170">
        <ele>43.0</ele>
        <time>2020-02-22T15:58:47Z</time>
      </trkpt>
      <trkpt lat="39.1029080" lon="1.5105030">
        <ele>43.1</ele>
        <time>2020-02-22T15:58:48Z</time>
      </trkpt>
      <trkpt lat="39.1029450" lon="1.5104810">
        <ele>43.2</ele>
        <time>2020-02-22T15:58:49Z</time>
      </trkpt>
      <trkpt lat="39.1029860" lon="1.5104680">
        <ele>43.3</ele>
        <time>2020-02-22T15:58:50Z</time>
      </trkpt>
      <trkpt lat="39.1030240" lon="1.5104540">
        <ele>43.3</ele>
        <time>2020-02-22T15:58:51Z</time>
      </trkpt>
      <trkpt lat="39.1030530" lon="1.5104580">
        <ele>43.4</ele>
        <time>2020-02-22T15:58:52Z</time>
      </trkpt>
      <trkpt lat="39.1030810" lon="1.5104550">
        <ele>43.5</ele>
        <time>2020-02-22T15:58:53Z</time>
      </trkpt>
      <trkpt lat="39.1031250" lon="1.5104670">
        <ele>43.6</ele>
        <time>2020-02-22T15:58:54Z</time>
      </trkpt>
      <trkpt lat="39.1031470" lon="1.5104770">
        <ele>43.7</ele>
        <time>2020-02-22T15:58:55Z</time>
      </trkpt>
      <trkpt lat="39.1031790" lon="1.5104900">
        <ele>43.8</ele>
        <time>2020-02-22T15:58:56Z</time>
      </trkpt>
      <trkpt lat="39.1032130" lon="1.5105100">
        <ele>43.9</ele>
        <time>2020-02-22T15:58:57Z</time>
      </trkpt>
      <trkpt lat="39.1032440" lon="1.5105280">
        <ele>44.0</ele>
        <time>2020-02-22T15:58:58Z</time>
      </trkpt>
      <trkpt lat="39.1032780" lon="1.5105580">
        <ele>44.2</ele>
        <time>2020-02-22T15:58:59Z</time>
      </trkpt>
      <trkpt lat="39.1032920" lon="1.5105710">
        <ele>44.2</ele>
        <time>2020-02-22T15:59:00Z</time>
      </trkpt>
      <trkpt lat="39.1033160" lon="1.5106040">
        <ele>44.3</ele>
        <time>2020-02-22T15:59:01Z</time>
      </trkpt>
      <trkpt lat="39.1033380" lon="1.5106400">
        <ele>44.4</ele>
        <time>2020-02-22T15:59:02Z</time>
      </trkpt>
      <trkpt lat="39.1033640" lon="1.5106820">
        <ele>44.6</ele>
        <time>2020-02-22T15:59:03Z</time>
      </trkpt>
      <trkpt lat="39.1033980" lon="1.5107270">
        <ele>44.7</ele>
        <time>2020-02-22T15:59:04Z</time>
      </trkpt>
      <trkpt lat="39.1034230" lon="1.5107620">
        <ele>44.8</ele>
        <time>2020-02-22T15:59:05Z</time>
      </trkpt>
      <trkpt lat="39.1034510" lon="1.5107970">
        <ele>44.9</ele>
        <time>2020-02-22T15:59:06Z</time>
      </trkpt>
      <trkpt lat="39.1034750" lon="1.5108300">
        <ele>45.0</ele>
        <time>2020-02-22T15:59:07Z</time>
      </trkpt>
      <trkpt lat="39.1034930" lon="1.5108630">
        <ele>45.1</ele>
        <time>2020-02-22T15:59:08Z</time>
      </trkpt>
      <trkpt lat="39.1035040" lon="1.5109010">
        <ele>45.2</ele>
        <time>2020-02-22T15:59:09Z</time>
      </trkpt>
      <trkpt lat="39.1035150" lon="1.5109400">
        <ele>45.3</ele>
        <time>2020-02-22T15:59:10Z</time>
      </trkpt>
      <trkpt lat="39.1035390" lon="1.5109770">
        <ele>45.5</ele>
        <time>2020-02-22T15:59:11Z</time>
      </trkpt>
      <trkpt lat="39.1035610" lon="1.5110220">
        <ele>45.5</ele>
        <time>2020-02-22T15:59:12Z</time>
      </trkpt>
      <trkpt lat="39.1035760" lon="1.5110530">
        <ele>45.6</ele>
        <time>2020-02-22T15:59:13Z</time>
      </trkpt>
      <trkpt lat="39.1035900" lon="1.5110850">
        <ele>45.6</ele>
        <time>2020-02-22T15:59:14Z</time>
      </trkpt>
      <trkpt lat="39.1036060" lon="1.5111390">
        <ele>45.6</ele>
        <time>2020-02-22T15:59:15Z</time>
      </trkpt>
      <trkpt lat="39.1036260" lon="1.5111780">
        <ele>45.7</ele>
        <time>2020-02-22T15:59:16Z</time>
      </trkpt>
      <trkpt lat="39.1036440" lon="1.5112170">
        <ele>45.7</ele>
        <time>2020-02-22T15:59:17Z</time>
      </trkpt>
      <trkpt lat="39.1036620" lon="1.5112600">
        <ele>45.8</ele>
        <time>2020-02-22T15:59:18Z</time>
      </trkpt>
      <trkpt lat="39.1036890" lon="1.5113130">
        <ele>45.9</ele>
        <time>2020-02-22T15:59:19Z</time>
      </trkpt>
      <trkpt lat="39.1037160" lon="1.5113420">
        <ele>46.0</ele>
        <time>2020-02-22T15:59:20Z</time>
      </trkpt>
      <trkpt lat="39.1037350" lon="1.5113850">
        <ele>46.1</ele>
        <time>2020-02-22T15:59:21Z</time>
      </trkpt>
      <trkpt lat="39.1037620" lon="1.5114330">
        <ele>46.2</ele>
        <time>2020-02-22T15:59:22Z</time>
      </trkpt>
      <trkpt lat="39.1037890" lon="1.5114920">
        <ele>46.3</ele>
        <time>2020-02-22T15:59:23Z</time>
      </trkpt>
      <trkpt lat="39.1038170" lon="1.5115310">
        <ele>46.4</ele>
        <time>2020-02-22T15:59:24Z</time>
      </trkpt>
      <trkpt lat="39.1038390" lon="1.5115880">
        <ele>46.5</ele>
        <time>2020-02-22T15:59:25Z</time>
      </trkpt>
      <trkpt lat="39.1038640" lon="1.5116400">
        <ele>46.3</ele>
        <time>2020-02-22T15:59:26Z</time>
      </trkpt>
      <trkpt lat="39.1038850" lon="1.5116880">
        <ele>46.2</ele>
        <time>2020-02-22T15:59:27Z</time>
      </trkpt>
      <trkpt lat="39.1039120" lon="1.5117390">
        <ele>46.0</ele>
        <time>2020-02-22T15:59:28Z</time>
      </trkpt>
      <trkpt lat="39.1039300" lon="1.5117910">
        <ele>45.9</ele>
        <time>2020-02-22T15:59:29Z</time>
      </trkpt>
      <trkpt lat="39.1039680" lon="1.5118400">
        <ele>45.7</ele>
        <time>2020-02-22T15:59:30Z</time>
      </trkpt>
      <trkpt lat="39.1039840" lon="1.5119040">
        <ele>45.6</ele>
        <time>2020-02-22T15:59:31Z</time>
      </trkpt>
      <trkpt lat="39.1039960" lon="1.5119620">
        <ele>45.4</ele>
        <time>2020-02-22T15:59:32Z</time>
      </trkpt>
      <trkpt lat="39.1040140" lon="1.5120170">
        <ele>45.3</ele>
        <time>2020-02-22T15:59:33Z</time>
      </trkpt>
      <trkpt lat="39.1040290" lon="1.5120760">
        <ele>45.2</ele>
        <time>2020-02-22T15:59:34Z</time>
      </trkpt>
      <trkpt lat="39.1040470" lon="1.5121400">
        <ele>45.0</ele>
        <time>2020-02-22T15:59:35Z</time>
      </trkpt>
      <trkpt lat="39.1040670" lon="1.5122020">
        <ele>44.9</ele>
        <time>2020-02-22T15:59:36Z</time>
      </trkpt>
      <trkpt lat="39.1040840" lon="1.5122650">
        <ele>44.7</ele>
        <time>2020-02-22T15:59:37Z</time>
      </trkpt>
      <trkpt lat="39.1041140" lon="1.5123190">
        <ele>44.6</ele>
        <time>2020-02-22T15:59:38Z</time>
      </trkpt>
      <trkpt lat="39.1041420" lon="1.5123630">
        <ele>44.4</ele>
        <time>2020-02-22T15:59:39Z</time>
      </trkpt>
      <trkpt lat="39.1041750" lon="1.5124120">
        <ele>44.3</ele>
        <time>2020-02-22T15:59:40Z</time>
      </trkpt>
      <trkpt lat="39.1042050" lon="1.5124600">
        <ele>44.0</ele>
        <time>2020-02-22T15:59:41Z</time>
      </trkpt>
      <trkpt lat="39.1042350" lon="1.5125100">
        <ele>43.8</ele>
        <time>2020-02-22T15:59:42Z</time>
      </trkpt>
      <trkpt lat="39.1042620" lon="1.5125620">
        <ele>43.5</ele>
        <time>2020-02-22T15:59:43Z</time>
      </trkpt>
      <trkpt lat="39.1042970" lon="1.5126170">
        <ele>43.3</ele>
        <time>2020-02-22T15:59:44Z</time>
      </trkpt>
      <trkpt lat="39.1043300" lon="1.5126700">
        <ele>43.0</ele>
        <time>2020-02-22T15:59:45Z</time>
      </trkpt>
      <trkpt lat="39.1043650" lon="1.5127220">
        <ele>42.7</ele>
        <time>2020-02-22T15:59:46Z</time>
      </trkpt>
      <trkpt lat="39.1043990" lon="1.5127750">
        <ele>42.5</ele>
        <time>2020-02-22T15:59:47Z</time>
      </trkpt>
      <trkpt lat="39.1044340" lon="1.5128280">
        <ele>42.2</ele>
        <time>2020-02-22T15:59:48Z</time>
      </trkpt>
      <trkpt lat="39.1044740" lon="1.5128910">
        <ele>41.9</ele>
        <time>2020-02-22T15:59:49Z</time>
      </trkpt>
      <trkpt lat="39.1045160" lon="1.5129550">
        <ele>41.4</ele>
        <time>2020-02-22T15:59:50Z</time>
      </trkpt>
      <trkpt lat="39.1045560" lon="1.5130200">
        <ele>41.0</ele>
        <time>2020-02-22T15:59:51Z</time>
      </trkpt>
      <trkpt lat="39.1045880" lon="1.5130840">
        <ele>40.6</ele>
        <time>2020-02-22T15:59:52Z</time>
      </trkpt>
      <trkpt lat="39.1046160" lon="1.5131610">
        <ele>40.2</ele>
        <time>2020-02-22T15:59:53Z</time>
      </trkpt>
      <trkpt lat="39.1046440" lon="1.5132440">
        <ele>39.7</ele>
        <time>2020-02-22T15:59:54Z</time>
      </trkpt>
      <trkpt lat="39.1046660" lon="1.5133290">
        <ele>39.3</ele>
        <time>2020-02-22T15:59:55Z</time>
      </trkpt>
      <trkpt lat="39.1046840" lon="1.5134190">
        <ele>38.8</ele>
        <time>2020-02-22T15:59:56Z</time>
      </trkpt>
      <trkpt lat="39.1046990" lon="1.5135110">
        <ele>38.3</ele>
        <time>2020-02-22T15:59:57Z</time>
      </trkpt>
      <trkpt lat="39.1047180" lon="1.5136040">
        <ele>37.8</ele>
        <time>2020-02-22T15:59:58Z</time>
      </trkpt>
      <trkpt lat="39.1047310" lon="1.5136960">
        <ele>37.4</ele>
        <time>2020-02-22T15:59:59Z</time>
      </trkpt>
      <trkpt lat="39.1047480" lon="1.5138020">
        <ele>36.9</ele>
        <time>2020-02-22T16:00:00Z</time>
      </trkpt>
      <trkpt lat="39.1047670" lon="1.5139060">
        <ele>36.5</ele>
        <time>2020-02-22T16:00:01Z</time>
      </trkpt>
      <trkpt lat="39.1047880" lon="1.5140060">
        <ele>36.2</ele>
        <time>2020-02-22T16:00:02Z</time>
      </trkpt>
      <trkpt lat="39.1048100" lon="1.5141080">
        <ele>35.9</ele>
        <time>2020-02-22T16:00:03Z</time>
      </trkpt>
      <trkpt lat="39.1048300" lon="1.5142020">
        <ele>35.6</ele>
        <time>2020-02-22T16:00:04Z</time>
      </trkpt>
      <trkpt lat="39.1048510" lon="1.5143020">
        <ele>35.4</ele>
        <time>2020-02-22T16:00:05Z</time>
      </trkpt>
      <trkpt lat="39.1048700" lon="1.5144050">
        <ele>35.4</ele>
        <time>2020-02-22T16:00:06Z</time>
      </trkpt>
      <trkpt lat="39.1048830" lon="1.5145020">
        <ele>35.4</ele>
        <time>2020-02-22T16:00:07Z</time>
      </trkpt>
      <trkpt lat="39.1049030" lon="1.5145890">
        <ele>35.5</ele>
        <time>2020-02-22T16:00:08Z</time>
      </trkpt>
      <trkpt lat="39.1049210" lon="1.5146750">
        <ele>35.6</ele>
        <time>2020-02-22T16:00:09Z</time>
      </trkpt>
      <trkpt lat="39.1049400" lon="1.5147650">
        <ele>35.7</ele>
        <time>2020-02-22T16:00:10Z</time>
      </trkpt>
      <trkpt lat="39.1049570" lon="1.5148510">
        <ele>35.7</ele>
        <time>2020-02-22T16:00:11Z</time>
      </trkpt>
      <trkpt lat="39.1049690" lon="1.5149330">
        <ele>35.8</ele>
        <time>2020-02-22T16:00:12Z</time>
      </trkpt>
      <trkpt lat="39.1049880" lon="1.5150090">
        <ele>35.8</ele>
        <time>2020-02-22T16:00:13Z</time>
      </trkpt>
      <trkpt lat="39.1050000" lon="1.5150860">
        <ele>35.8</ele>
        <time>2020-02-22T16:00:14Z</time>
      </trkpt>
      <trkpt lat="39.1050120" lon="1.5151540">
        <ele>35.8</ele>
        <time>2020-02-22T16:00:15Z</time>
      </trkpt>
      <trkpt lat="39.1050300" lon="1.5152220">
        <ele>35.8</ele>
        <time>2020-02-22T16:00:16Z</time>
      </trkpt>
      <trkpt lat="39.1050490" lon="1.5152940">
        <ele>35.8</ele>
        <time>2020-02-22T16:00:17Z</time>
      </trkpt>
      <trkpt lat="39.1050640" lon="1.5153680">
        <ele>35.8</ele>
        <time>2020-02-22T16:00:18Z</time>
      </trkpt>
      <trkpt lat="39.1050690" lon="1.5154430">
        <ele>35.8</ele>
        <time>2020-02-22T16:00:19Z</time>
      </trkpt>
      <trkpt lat="39.1050790" lon="1.5155090">
        <ele>35.8</ele>
        <time>2020-02-22T16:00:20Z</time>
      </trkpt>
      <trkpt lat="39.1051010" lon="1.5155620">
        <ele>35.8</ele>
        <time>2020-02-22T16:00:21Z</time>
      </trkpt>
      <trkpt lat="39.1051190" lon="1.5156100">
        <ele>35.8</ele>
        <time>2020-02-22T16:00:22Z</time>
      </trkpt>
      <trkpt lat="39.1051570" lon="1.5156320">
        <ele>35.8</ele>
        <time>2020-02-22T16:00:23Z</time>
      </trkpt>
      <trkpt lat="39.1051930" lon="1.5156510">
        <ele>35.8</ele>
        <time>2020-02-22T16:00:24Z</time>
      </trkpt>
      <trkpt lat="39.1052200" lon="1.5156770">
        <ele>35.2</ele>
        <time>2020-02-22T16:00:25Z</time>
      </trkpt>
      <trkpt lat="39.1052480" lon="1.5157060">
        <ele>34.8</ele>
        <time>2020-02-22T16:00:26Z</time>
      </trkpt>
      <trkpt lat="39.1052860" lon="1.5157030">
        <ele>34.5</ele>
        <time>2020-02-22T16:00:27Z</time>
      </trkpt>
      <trkpt lat="39.1053320" lon="1.5156830">
        <ele>33.9</ele>
        <time>2020-02-22T16:00:28Z</time>
      </trkpt>
      <trkpt lat="39.1053910" lon="1.5156700">
        <ele>33.3</ele>
        <time>2020-02-22T16:00:29Z</time>
      </trkpt>
      <trkpt lat="39.1054530" lon="1.5156580">
        <ele>32.6</ele>
        <time>2020-02-22T16:00:30Z</time>
      </trkpt>
      <trkpt lat="39.1055130" lon="1.5156410">
        <ele>31.9</ele>
        <time>2020-02-22T16:00:31Z</time>
      </trkpt>
      <trkpt lat="39.1055770" lon="1.5156270">
        <ele>31.2</ele>
        <time>2020-02-22T16:00:32Z</time>
      </trkpt>
      <trkpt lat="39.1056490" lon="1.5156140">
        <ele>30.5</ele>
        <time>2020-02-22T16:00:33Z</time>
      </trkpt>
      <trkpt lat="39.1057270" lon="1.5155960">
        <ele>29.6</ele>
        <time>2020-02-22T16:00:34Z</time>
      </trkpt>
      <trkpt lat="39.1058050" lon="1.5155750">
        <ele>28.9</ele>
        <time>2020-02-22T16:00:35Z</time>
      </trkpt>
      <trkpt lat="39.1058680" lon="1.5155620">
        <ele>28.2</ele>
        <time>2020-02-22T16:00:36Z</time>
      </trkpt>
      <trkpt lat="39.1059110" lon="1.5155400">
        <ele>27.7</ele>
        <time>2020-02-22T16:00:37Z</time>
      </trkpt>
      <trkpt lat="39.1059440" lon="1.5155040">
        <ele>27.1</ele>
        <time>2020-02-22T16:00:38Z</time>
      </trkpt>
      <trkpt lat="39.1059650" lon="1.5154560">
        <ele>26.2</ele>
        <time>2020-02-22T16:00:39Z</time>
      </trkpt>
      <trkpt lat="39.1059820" lon="1.5154040">
        <ele>25.8</ele>
        <time>2020-02-22T16:00:40Z</time>
      </trkpt>
      <trkpt lat="39.1059900" lon="1.5153490">
        <ele>25.5</ele>
        <time>2020-02-22T16:00:41Z</time>
      </trkpt>
      <trkpt lat="39.1060110" lon="1.5152830">
        <ele>25.0</ele>
        <time>2020-02-22T16:00:42Z</time>
      </trkpt>
      <trkpt lat="39.1060460" lon="1.5152110">
        <ele>24.4</ele>
        <time>2020-02-22T16:00:43Z</time>
      </trkpt>
      <trkpt lat="39.1060860" lon="1.5151280">
        <ele>23.7</ele>
        <time>2020-02-22T16:00:44Z</time>
      </trkpt>
      <trkpt lat="39.1061300" lon="1.5150450">
        <ele>23.1</ele>
        <time>2020-02-22T16:00:45Z</time>
      </trkpt>
      <trkpt lat="39.1061850" lon="1.5149780">
        <ele>22.5</ele>
        <time>2020-02-22T16:00:46Z</time>
      </trkpt>
      <trkpt lat="39.1062430" lon="1.5149260">
        <ele>22.1</ele>
        <time>2020-02-22T16:00:47Z</time>
      </trkpt>
      <trkpt lat="39.1062920" lon="1.5148640">
        <ele>21.6</ele>
        <time>2020-02-22T16:00:48Z</time>
      </trkpt>
      <trkpt lat="39.1063430" lon="1.5148120">
        <ele>21.2</ele>
        <time>2020-02-22T16:00:49Z</time>
      </trkpt>
      <trkpt lat="39.1064000" lon="1.5147780">
        <ele>20.9</ele>
        <time>2020-02-22T16:00:50Z</time>
      </trkpt>
      <trkpt lat="39.1064670" lon="1.5147610">
        <ele>20.6</ele>
        <time>2020-02-22T16:00:51Z</time>
      </trkpt>
      <trkpt lat="39.1065360" lon="1.5147560">
        <ele>20.4</ele>
        <time>2020-02-22T16:00:52Z</time>
      </trkpt>
      <trkpt lat="39.1066080" lon="1.5147520">
        <ele>20.2</ele>
        <time>2020-02-22T16:00:53Z</time>
      </trkpt>
      <trkpt lat="39.1066920" lon="1.5147620">
        <ele>20.1</ele>
        <time>2020-02-22T16:00:54Z</time>
      </trkpt>
      <trkpt lat="39.1067790" lon="1.5147970">
        <ele>19.9</ele>
        <time>2020-02-22T16:00:55Z</time>
      </trkpt>
      <trkpt lat="39.1068570" lon="1.5148340">
        <ele>19.8</ele>
        <time>2020-02-22T16:00:56Z</time>
      </trkpt>
      <trkpt lat="39.1069220" lon="1.5148810">
        <ele>19.7</ele>
        <time>2020-02-22T16:00:57Z</time>
      </trkpt>
      <trkpt lat="39.1069900" lon="1.5149270">
        <ele>19.4</ele>
        <time>2020-02-22T16:00:58Z</time>
      </trkpt>
      <trkpt lat="39.1070610" lon="1.5149760">
        <ele>19.2</ele>
        <time>2020-02-22T16:00:59Z</time>
      </trkpt>
      <trkpt lat="39.1071340" lon="1.5150090">
        <ele>18.9</ele>
        <time>2020-02-22T16:01:00Z</time>
      </trkpt>
      <trkpt lat="39.1072080" lon="1.5150150">
        <ele>18.7</ele>
        <time>2020-02-22T16:01:01Z</time>
      </trkpt>
      <trkpt lat="39.1072850" lon="1.5150140">
        <ele>18.4</ele>
        <time>2020-02-22T16:01:02Z</time>
      </trkpt>
      <trkpt lat="39.1073610" lon="1.5150100">
        <ele>18.2</ele>
        <time>2020-02-22T16:01:03Z</time>
      </trkpt>
      <trkpt lat="39.1074420" lon="1.5150110">
        <ele>17.8</ele>
        <time>2020-02-22T16:01:04Z</time>
      </trkpt>
      <trkpt lat="39.1075210" lon="1.5150360">
        <ele>17.5</ele>
        <time>2020-02-22T16:01:05Z</time>
      </trkpt>
      <trkpt lat="39.1075930" lon="1.5150540">
        <ele>17.0</ele>
        <time>2020-02-22T16:01:06Z</time>
      </trkpt>
      <trkpt lat="39.1076590" lon="1.5150590">
        <ele>16.4</ele>
        <time>2020-02-22T16:01:07Z</time>
      </trkpt>
      <trkpt lat="39.1077170" lon="1.5150770">
        <ele>15.8</ele>
        <time>2020-02-22T16:01:08Z</time>
      </trkpt>
      <trkpt lat="39.1077670" lon="1.5151040">
        <ele>15.1</ele>
        <time>2020-02-22T16:01:09Z</time>
      </trkpt>
      <trkpt lat="39.1078090" lon="1.5151090">
        <ele>14.7</ele>
        <time>2020-02-22T16:01:10Z</time>
      </trkpt>
      <trkpt lat="39.1078420" lon="1.5151130">
        <ele>14.4</ele>
        <time>2020-02-22T16:01:11Z</time>
      </trkpt>
      <trkpt lat="39.1078700" lon="1.5151210">
        <ele>14.1</ele>
        <time>2020-02-22T16:01:12Z</time>
      </trkpt>
      <trkpt lat="39.1078850" lon="1.5151570">
        <ele>13.8</ele>
        <time>2020-02-22T16:01:13Z</time>
      </trkpt>
      <trkpt lat="39.1079160" lon="1.5151410">
        <ele>13.4</ele>
        <time>2020-02-22T16:01:14Z</time>
      </trkpt>
      <trkpt lat="39.1079270" lon="1.5151310">
        <ele>13.3</ele>
        <time>2020-02-22T16:01:15Z</time>
      </trkpt>
      <trkpt lat="39.1079550" lon="1.5151270">
        <ele>13.1</ele>
        <time>2020-02-22T16:01:16Z</time>
      </trkpt>
      <trkpt lat="39.1079920" lon="1.5151270">
        <ele>13.0</ele>
        <time>2020-02-22T16:01:17Z</time>
      </trkpt>
      <trkpt lat="39.1080380" lon="1.5151130">
        <ele>12.8</ele>
        <time>2020-02-22T16:01:18Z</time>
      </trkpt>
      <trkpt lat="39.1080860" lon="1.5151340">
        <ele>12.6</ele>
        <time>2020-02-22T16:01:19Z</time>
      </trkpt>
      <trkpt lat="39.1081370" lon="1.5151510">
        <ele>12.4</ele>
        <time>2020-02-22T16:01:20Z</time>
      </trkpt>
      <trkpt lat="39.1081790" lon="1.5151840">
        <ele>12.2</ele>
        <time>2020-02-22T16:01:21Z</time>
      </trkpt>
      <trkpt lat="39.1082330" lon="1.5151880">
        <ele>11.4</ele>
        <time>2020-02-22T16:01:22Z</time>
      </trkpt>
      <trkpt lat="39.1082760" lon="1.5152020">
        <ele>10.8</ele>
        <time>2020-02-22T16:01:23Z</time>
      </trkpt>
      <trkpt lat="39.1083170" lon="1.5152250">
        <ele>10.2</ele>
        <time>2020-02-22T16:01:24Z</time>
      </trkpt>
      <trkpt lat="39.1083520" lon="1.5152300">
        <ele>9.8</ele>
        <time>2020-02-22T16:01:25Z</time>
      </trkpt>
      <trkpt lat="39.1083830" lon="1.5152410">
        <ele>9.5</ele>
        <time>2020-02-22T16:01:26Z</time>
      </trkpt>
      <trkpt lat="39.1084170" lon="1.5152510">
        <ele>9.1</ele>
        <time>2020-02-22T16:01:27Z</time>
      </trkpt>
      <trkpt lat="39.1084420" lon="1.5152670">
        <ele>8.8</ele>
        <time>2020-02-22T16:01:28Z</time>
      </trkpt>
      <trkpt lat="39.1084670" lon="1.5153000">
        <ele>8.5</ele>
        <time>2020-02-22T16:01:29Z</time>
      </trkpt>
      <trkpt lat="39.1084990" lon="1.5153260">
        <ele>8.1</ele>
        <time>2020-02-22T16:01:30Z</time>
      </trkpt>
      <trkpt lat="39.1085180" lon="1.5153650">
        <ele>7.8</ele>
        <time>2020-02-22T16:01:31Z</time>
      </trkpt>
      <trkpt lat="39.1085400" lon="1.5154090">
        <ele>7.4</ele>
        <time>2020-02-22T16:01:32Z</time>
      </trkpt>
      <trkpt lat="39.1085690" lon="1.5154420">
        <ele>7.0</ele>
        <time>2020-02-22T16:01:33Z</time>
      </trkpt>
      <trkpt lat="39.1085840" lon="1.5154850">
        <ele>6.7</ele>
        <time>2020-02-22T16:01:34Z</time>
      </trkpt>
      <trkpt lat="39.1086030" lon="1.5155300">
        <ele>6.3</ele>
        <time>2020-02-22T16:01:35Z</time>
      </trkpt>
      <trkpt lat="39.1086300" lon="1.5155650">
        <ele>6.0</ele>
        <time>2020-02-22T16:01:36Z</time>
      </trkpt>
      <trkpt lat="39.1086510" lon="1.5156050">
        <ele>5.6</ele>
        <time>2020-02-22T16:01:37Z</time>
      </trkpt>
      <trkpt lat="39.1086670" lon="1.5156440">
        <ele>5.3</ele>
        <time>2020-02-22T16:01:38Z</time>
      </trkpt>
      <trkpt lat="39.1086920" lon="1.5156810">
        <ele>4.9</ele>
        <time>2020-02-22T16:01:39Z</time>
      </trkpt>
      <trkpt lat="39.1087040" lon="1.5157270">
        <ele>4.6</ele>
        <time>2020-02-22T16:01:40Z</time>
      </trkpt>
      <trkpt lat="39.1087260" lon="1.5157670">
        <ele>4.3</ele>
        <time>2020-02-22T16:01:41Z</time>
      </trkpt>
      <trkpt lat="39.1087550" lon="1.5157900">
        <ele>4.0</ele>
        <time>2020-02-22T16:01:42Z</time>
      </trkpt>
      <trkpt lat="39.1087870" lon="1.5158150">
        <ele>3.8</ele>
        <time>2020-02-22T16:01:43Z</time>
      </trkpt>
      <trkpt lat="39.1088200" lon="1.5158320">
        <ele>3.6</ele>
        <time>2020-02-22T16:01:44Z</time>
      </trkpt>
      <trkpt lat="39.1088520" lon="1.5158490">
        <ele>3.5</ele>
        <time>2020-02-22T16:01:45Z</time>
      </trkpt>
      <trkpt lat="39.1088860" lon="1.5158650">
        <ele>3.4</ele>
        <time>2020-02-22T16:01:46Z</time>
      </trkpt>
      <trkpt lat="39.1089200" lon="1.5158800">
        <ele>3.4</ele>
        <time>2020-02-22T16:01:47Z</time>
      </trkpt>
      <trkpt lat="39.1089510" lon="1.5158960">
        <ele>3.5</ele>
        <time>2020-02-22T16:01:48Z</time>
      </trkpt>
      <trkpt lat="39.1089830" lon="1.5159160">
        <ele>3.6</ele>
        <time>2020-02-22T16:01:49Z</time>
      </trkpt>
      <trkpt lat="39.1090130" lon="1.5159180">
        <ele>3.7</ele>
        <time>2020-02-22T16:01:50Z</time>
      </trkpt>
      <trkpt lat="39.1090410" lon="1.5159290">
        <ele>3.8</ele>
        <time>2020-02-22T16:01:51Z</time>
      </trkpt>
      <trkpt lat="39.1090690" lon="1.5159410">
        <ele>3.8</ele>
        <time>2020-02-22T16:01:52Z</time>
      </trkpt>
      <trkpt lat="39.1090960" lon="1.5159640">
        <ele>3.8</ele>
        <time>2020-02-22T16:01:53Z</time>
      </trkpt>
      <trkpt lat="39.1091220" lon="1.5159920">
        <ele>3.7</ele>
        <time>2020-02-22T16:01:54Z</time>
      </trkpt>
      <trkpt lat="39.1091450" lon="1.5160240">
        <ele>3.7</ele>
        <time>2020-02-22T16:01:55Z</time>
      </trkpt>
      <trkpt lat="39.1091640" lon="1.5160580">
        <ele>3.6</ele>
        <time>2020-02-22T16:01:56Z</time>
      </trkpt>
      <trkpt lat="39.1091910" lon="1.5160810">
        <ele>3.6</ele>
        <time>2020-02-22T16:01:57Z</time>
      </trkpt>
      <trkpt lat="39.1092150" lon="1.5161070">
        <ele>3.5</ele>
        <time>2020-02-22T16:01:58Z</time>
      </trkpt>
      <trkpt lat="39.1092340" lon="1.5161350">
        <ele>3.5</ele>
        <time>2020-02-22T16:01:59Z</time>
      </trkpt>
      <trkpt lat="39.1092470" lon="1.5161550">
        <ele>3.5</ele>
        <time>2020-02-22T16:02:00Z</time>
      </trkpt>
      <trkpt lat="39.1092490" lon="1.5161650">
        <ele>3.4</ele>
        <time>2020-02-22T16:02:01Z</time>
      </trkpt>
      <trkpt lat="39.1092290" lon="1.5161790">
        <ele>3.4</ele>
        <time>2020-02-22T16:02:02Z</time>
      </trkpt>
      <trkpt lat="39.1092410" lon="1.5161500">
        <ele>3.4</ele>
        <time>2020-02-22T16:02:03Z</time>
      </trkpt>
      <trkpt lat="39.1092640" lon="1.5161400">
        <ele>3.3</ele>
        <time>2020-02-22T16:02:04Z</time>
      </trkpt>
      <trkpt lat="39.1092620" lon="1.5161420">
        <ele>3.3</ele>
        <time>2020-02-22T16:02:05Z</time>
      </trkpt>
      <trkpt lat="39.1092580" lon="1.5161450">
        <ele>3.3</ele>
        <time>2020-02-22T16:02:06Z</time>
      </trkpt>
      <trkpt lat="39.1092470" lon="1.5161540">
        <ele>3.3</ele>
        <time>2020-02-22T16:02:07Z</time>
      </trkpt>
      <trkpt lat="39.1092400" lon="1.5161560">
        <ele>3.3</ele>
        <time>2020-02-22T16:02:08Z</time>
      </trkpt>
      <trkpt lat="39.1092380" lon="1.5161600">
        <ele>3.3</ele>
        <time>2020-02-22T16:02:09Z</time>
      </trkpt>
      <trkpt lat="39.1092330" lon="1.5161620">
        <ele>3.3</ele>
        <time>2020-02-22T16:02:10Z</time>
      </trkpt>
      <trkpt lat="39.1092330" lon="1.5161530">
        <ele>3.3</ele>
        <time>2020-02-22T16:02:11Z</time>
      </trkpt>
      <trkpt lat="39.1092630" lon="1.5162340">
        <ele>3.1</ele>
        <time>2020-02-22T16:02:43Z</time>
      </trkpt>
      <trkpt lat="39.1092550" lon="1.5162510">
        <ele>3.1</ele>
        <time>2020-02-22T16:02:44Z</time>
      </trkpt>
      <trkpt lat="39.1092460" lon="1.5162690">
        <ele>3.1</ele>
        <time>2020-02-22T16:02:45Z</time>
      </trkpt>
      <trkpt lat="39.1092400" lon="1.5162880">
        <ele>3.1</ele>
        <time>2020-02-22T16:02:46Z</time>
      </trkpt>
      <trkpt lat="39.1092280" lon="1.5163220">
        <ele>3.3</ele>
        <time>2020-02-22T16:02:47Z</time>
      </trkpt>
      <trkpt lat="39.1092300" lon="1.5163350">
        <ele>3.3</ele>
        <time>2020-02-22T16:02:48Z</time>
      </trkpt>
      <trkpt lat="39.1092390" lon="1.5163770">
        <ele>3.5</ele>
        <time>2020-02-22T16:02:49Z</time>
      </trkpt>
      <trkpt lat="39.1092630" lon="1.5164140">
        <ele>3.7</ele>
        <time>2020-02-22T16:02:50Z</time>
      </trkpt>
      <trkpt lat="39.1092700" lon="1.5164280">
        <ele>3.8</ele>
        <time>2020-02-22T16:02:51Z</time>
      </trkpt>
      <trkpt lat="39.1092910" lon="1.5164660">
        <ele>4.0</ele>
        <time>2020-02-22T16:02:52Z</time>
      </trkpt>
      <trkpt lat="39.1093140" lon="1.5165080">
        <ele>4.2</ele>
        <time>2020-02-22T16:02:53Z</time>
      </trkpt>
      <trkpt lat="39.1093470" lon="1.5165460">
        <ele>4.5</ele>
        <time>2020-02-22T16:02:54Z</time>
      </trkpt>
      <trkpt lat="39.1093810" lon="1.5165880">
        <ele>4.8</ele>
        <time>2020-02-22T16:02:55Z</time>
      </trkpt>
      <trkpt lat="39.1094140" lon="1.5166250">
        <ele>5.1</ele>
        <time>2020-02-22T16:02:56Z</time>
      </trkpt>
      <trkpt lat="39.1094460" lon="1.5166580">
        <ele>5.3</ele>
        <time>2020-02-22T16:02:57Z</time>
      </trkpt>
      <trkpt lat="39.1094660" lon="1.5167060">
        <ele>5.6</ele>
        <time>2020-02-22T16:02:58Z</time>
      </trkpt>
      <trkpt lat="39.1094900" lon="1.5167500">
        <ele>5.9</ele>
        <time>2020-02-22T16:02:59Z</time>
      </trkpt>
      <trkpt lat="39.1094990" lon="1.5167880">
        <ele>6.1</ele>
        <time>2020-02-22T16:03:00Z</time>
      </trkpt>
      <trkpt lat="39.1094900" lon="1.5168450">
        <ele>6.4</ele>
        <time>2020-02-22T16:03:01Z</time>
      </trkpt>
      <trkpt lat="39.1094810" lon="1.5169130">
        <ele>6.8</ele>
        <time>2020-02-22T16:03:02Z</time>
      </trkpt>
      <trkpt lat="39.1094870" lon="1.5169780">
        <ele>7.1</ele>
        <time>2020-02-22T16:03:03Z</time>
      </trkpt>
      <trkpt lat="39.1094910" lon="1.5170300">
        <ele>7.3</ele>
        <time>2020-02-22T16:03:04Z</time>
      </trkpt>
      <trkpt lat="39.1094890" lon="1.5170720">
        <ele>7.5</ele>
        <time>2020-02-22T16:03:05Z</time>
      </trkpt>
      <trkpt lat="39.1094850" lon="1.5171150">
        <ele>7.8</ele>
        <time>2020-02-22T16:03:06Z</time>
      </trkpt>
      <trkpt lat="39.1094800" lon="1.5171490">
        <ele>7.9</ele>
        <time>2020-02-22T16:03:07Z</time>
      </trkpt>
      <trkpt lat="39.1094760" lon="1.5171900">
        <ele>8.1</ele>
        <time>2020-02-22T16:03:08Z</time>
      </trkpt>
      <trkpt lat="39.1094780" lon="1.5172070">
        <ele>8.2</ele>
        <time>2020-02-22T16:03:09Z</time>
      </trkpt>
      <trkpt lat="39.1094780" lon="1.5172530">
        <ele>8.4</ele>
        <time>2020-02-22T16:03:10Z</time>
      </trkpt>
      <trkpt lat="39.1094660" lon="1.5173040">
        <ele>8.6</ele>
        <time>2020-02-22T16:03:11Z</time>
      </trkpt>
      <trkpt lat="39.1094590" lon="1.5173530">
        <ele>8.8</ele>
        <time>2020-02-22T16:03:12Z</time>
      </trkpt>
      <trkpt lat="39.1094470" lon="1.5173990">
        <ele>9.0</ele>
        <time>2020-02-22T16:03:13Z</time>
      </trkpt>
      <trkpt lat="39.1094210" lon="1.5174310">
        <ele>9.2</ele>
        <time>2020-02-22T16:03:14Z</time>
      </trkpt>
      <trkpt lat="39.1093970" lon="1.5174580">
        <ele>9.4</ele>
        <time>2020-02-22T16:03:15Z</time>
      </trkpt>
      <trkpt lat="39.1093790" lon="1.5174940">
        <ele>9.6</ele>
        <time>2020-02-22T16:03:16Z</time>
      </trkpt>
      <trkpt lat="39.1093610" lon="1.5175290">
        <ele>9.8</ele>
        <time>2020-02-22T16:03:17Z</time>
      </trkpt>
      <trkpt lat="39.1093540" lon="1.5175620">
        <ele>10.0</ele>
        <time>2020-02-22T16:03:18Z</time>
      </trkpt>
      <trkpt lat="39.1093560" lon="1.5176060">
        <ele>10.2</ele>
        <time>2020-02-22T16:03:19Z</time>
      </trkpt>
      <trkpt lat="39.1093590" lon="1.5176230">
        <ele>10.3</ele>
        <time>2020-02-22T16:03:20Z</time>
      </trkpt>
      <trkpt lat="39.1093740" lon="1.5176690">
        <ele>10.2</ele>
        <time>2020-02-22T16:03:21Z</time>
      </trkpt>
      <trkpt lat="39.1093810" lon="1.5176830">
        <ele>10.2</ele>
        <time>2020-02-22T16:03:22Z</time>
      </trkpt>
      <trkpt lat="39.1093990" lon="1.5177230">
        <ele>10.1</ele>
        <time>2020-02-22T16:03:23Z</time>
      </trkpt>
      <trkpt lat="39.1094010" lon="1.5177380">
        <ele>10.1</ele>
        <time>2020-02-22T16:03:24Z</time>
      </trkpt>
      <trkpt lat="39.1094110" lon="1.5177570">
        <ele>10.1</ele>
        <time>2020-02-22T16:03:25Z</time>
      </trkpt>
      <trkpt lat="39.1094250" lon="1.5177700">
        <ele>10.1</ele>
        <time>2020-02-22T16:03:26Z</time>
      </trkpt>
      <trkpt lat="39.1094530" lon="1.5177560">
        <ele>10.0</ele>
        <time>2020-02-22T16:03:27Z</time>
      </trkpt>
      <trkpt lat="39.1094640" lon="1.5177460">
        <ele>10.0</ele>
        <time>2020-02-22T16:03:28Z</time>
      </trkpt>
      <trkpt lat="39.1094980" lon="1.5177530">
        <ele>10.0</ele>
        <time>2020-02-22T16:03:29Z</time>
      </trkpt>
      <trkpt lat="39.1095080" lon="1.5177600">
        <ele>9.9</ele>
        <time>2020-02-22T16:03:30Z</time>
      </trkpt>
      <trkpt lat="39.1095320" lon="1.5177840">
        <ele>9.9</ele>
        <time>2020-02-22T16:03:31Z</time>
      </trkpt>
      <trkpt lat="39.1095370" lon="1.5177950">
        <ele>9.9</ele>
        <time>2020-02-22T16:03:32Z</time>
      </trkpt>
      <trkpt lat="39.1095380" lon="1.5178140">
        <ele>9.9</ele>
        <time>2020-02-22T16:03:33Z</time>
      </trkpt>
      <trkpt lat="39.1095440" lon="1.5178350">
        <ele>9.9</ele>
        <time>2020-02-22T16:03:34Z</time>
      </trkpt>
      <trkpt lat="39.1095550" lon="1.5178490">
        <ele>9.8</ele>
        <time>2020-02-22T16:03:35Z</time>
      </trkpt>
      <trkpt lat="39.1095650" lon="1.5178610">
        <ele>9.8</ele>
        <time>2020-02-22T16:03:36Z</time>
      </trkpt>
      <trkpt lat="39.1095730" lon="1.5178560">
        <ele>9.8</ele>
        <time>2020-02-22T16:03:37Z</time>
      </trkpt>
      <trkpt lat="39.1095810" lon="1.5178430">
        <ele>9.8</ele>
        <time>2020-02-22T16:03:38Z</time>
      </trkpt>
      <trkpt lat="39.1095930" lon="1.5178330">
        <ele>9.8</ele>
        <time>2020-02-22T16:03:39Z</time>
      </trkpt>
      <trkpt lat="39.1095990" lon="1.5178140">
        <ele>9.8</ele>
        <time>2020-02-22T16:03:40Z</time>
      </trkpt>
      <trkpt lat="39.1096150" lon="1.5178000">
        <ele>9.7</ele>
        <time>2020-02-22T16:03:41Z</time>
      </trkpt>
      <trkpt lat="39.1096460" lon="1.5177730">
        <ele>9.7</ele>
        <time>2020-02-22T16:03:42Z</time>
      </trkpt>
      <trkpt lat="39.1096560" lon="1.5177600">
        <ele>9.7</ele>
        <time>2020-02-22T16:03:43Z</time>
      </trkpt>
      <trkpt lat="39.1096740" lon="1.5177220">
        <ele>9.6</ele>
        <time>2020-02-22T16:03:44Z</time>
      </trkpt>
      <trkpt lat="39.1097040" lon="1.5177250">
        <ele>9.6</ele>
        <time>2020-02-22T16:03:45Z</time>
      </trkpt>
      <trkpt lat="39.1097120" lon="1.5177280">
        <ele>9.6</ele>
        <time>2020-02-22T16:03:46Z</time>
      </trkpt>
      <trkpt lat="39.1097360" lon="1.5177590">
        <ele>9.5</ele>
        <time>2020-02-22T16:03:47Z</time>
      </trkpt>
      <trkpt lat="39.1097440" lon="1.5177690">
        <ele>9.5</ele>
        <time>2020-02-22T16:03:48Z</time>
      </trkpt>
      <trkpt lat="39.1097690" lon="1.5177890">
        <ele>9.9</ele>
        <time>2020-02-22T16:03:49Z</time>
      </trkpt>
      <trkpt lat="39.1097760" lon="1.5178010">
        <ele>10.0</ele>
        <time>2020-02-22T16:03:50Z</time>
      </trkpt>
      <trkpt lat="39.1097930" lon="1.5178010">
        <ele>10.1</ele>
        <time>2020-02-22T16:03:51Z</time>
      </trkpt>
      <trkpt lat="39.1098050" lon="1.5178120">
        <ele>10.2</ele>
        <time>2020-02-22T16:03:52Z</time>
      </trkpt>
      <trkpt lat="39.1098190" lon="1.5178220">
        <ele>10.2</ele>
        <time>2020-02-22T16:03:53Z</time>
      </trkpt>
      <trkpt lat="39.1098350" lon="1.5178190">
        <ele>10.3</ele>
        <time>2020-02-22T16:03:54Z</time>
      </trkpt>
      <trkpt lat="39.1098510" lon="1.5178210">
        <ele>10.4</ele>
        <time>2020-02-22T16:03:55Z</time>
      </trkpt>
      <trkpt lat="39.1098670" lon="1.5178220">
        <ele>10.5</ele>
        <time>2020-02-22T16:03:56Z</time>
      </trkpt>
      <trkpt lat="39.1098810" lon="1.5178350">
        <ele>10.6</ele>
        <time>2020-02-22T16:03:57Z</time>
      </trkpt>
      <trkpt lat="39.1098980" lon="1.5178380">
        <ele>10.7</ele>
        <time>2020-02-22T16:03:58Z</time>
      </trkpt>
      <trkpt lat="39.1099140" lon="1.5178400">
        <ele>10.7</ele>
        <time>2020-02-22T16:03:59Z</time>
      </trkpt>
      <trkpt lat="39.1099310" lon="1.5178440">
        <ele>10.8</ele>
        <time>2020-02-22T16:04:00Z</time>
      </trkpt>
      <trkpt lat="39.1099450" lon="1.5178540">
        <ele>10.9</ele>
        <time>2020-02-22T16:04:01Z</time>
      </trkpt>
      <trkpt lat="39.1099590" lon="1.5178540">
        <ele>11.0</ele>
        <time>2020-02-22T16:04:02Z</time>
      </trkpt>
      <trkpt lat="39.1099720" lon="1.5178660">
        <ele>11.1</ele>
        <time>2020-02-22T16:04:03Z</time>
      </trkpt>
      <trkpt lat="39.1099900" lon="1.5178520">
        <ele>11.2</ele>
        <time>2020-02-22T16:04:04Z</time>
      </trkpt>
      <trkpt lat="39.1100030" lon="1.5178490">
        <ele>11.3</ele>
        <time>2020-02-22T16:04:05Z</time>
      </trkpt>
      <trkpt lat="39.1100170" lon="1.5178630">
        <ele>11.5</ele>
        <time>2020-02-22T16:04:06Z</time>
      </trkpt>
      <trkpt lat="39.1100310" lon="1.5178720">
        <ele>11.6</ele>
        <time>2020-02-22T16:04:07Z</time>
      </trkpt>
      <trkpt lat="39.1100410" lon="1.5178850">
        <ele>11.7</ele>
        <time>2020-02-22T16:04:08Z</time>
      </trkpt>
      <trkpt lat="39.1100550" lon="1.5178790">
        <ele>11.8</ele>
        <time>2020-02-22T16:04:09Z</time>
      </trkpt>
      <trkpt lat="39.1100700" lon="1.5178880">
        <ele>11.9</ele>
        <time>2020-02-22T16:04:10Z</time>
      </trkpt>
      <trkpt lat="39.1100870" lon="1.5178770">
        <ele>12.0</ele>
        <time>2020-02-22T16:04:11Z</time>
      </trkpt>
      <trkpt lat="39.1101020" lon="1.5178790">
        <ele>12.0</ele>
        <time>2020-02-22T16:04:12Z</time>
      </trkpt>
      <trkpt lat="39.1101320" lon="1.5178930">
        <ele>12.2</ele>
        <time>2020-02-22T16:04:13Z</time>
      </trkpt>
      <trkpt lat="39.1101460" lon="1.5178980">
        <ele>12.2</ele>
        <time>2020-02-22T16:04:14Z</time>
      </trkpt>
      <trkpt lat="39.1101670" lon="1.5179260">
        <ele>12.3</ele>
        <time>2020-02-22T16:04:15Z</time>
      </trkpt>
      <trkpt lat="39.1101680" lon="1.5179360">
        <ele>12.3</ele>
        <time>2020-02-22T16:04:16Z</time>
      </trkpt>
      <trkpt lat="39.1101620" lon="1.5179480">
        <ele>12.4</ele>
        <time>2020-02-22T16:04:17Z</time>
      </trkpt>
      <trkpt lat="39.1101550" lon="1.5179600">
        <ele>12.7</ele>
        <time>2020-02-22T16:04:18Z</time>
      </trkpt>
      <trkpt lat="39.1101530" lon="1.5179780">
        <ele>12.8</ele>
        <time>2020-02-22T16:04:19Z</time>
      </trkpt>
      <trkpt lat="39.1101330" lon="1.5179880">
        <ele>12.8</ele>
        <time>2020-02-22T16:04:20Z</time>
      </trkpt>
      <trkpt lat="39.1101240" lon="1.5179950">
        <ele>12.8</ele>
        <time>2020-02-22T16:04:21Z</time>
      </trkpt>
      <trkpt lat="39.1101150" lon="1.5180020">
        <ele>12.8</ele>
        <time>2020-02-22T16:04:22Z</time>
      </trkpt>
      <trkpt lat="39.1100990" lon="1.5179980">
        <ele>12.9</ele>
        <time>2020-02-22T16:04:23Z</time>
      </trkpt>
      <trkpt lat="39.1100830" lon="1.5179990">
        <ele>12.9</ele>
        <time>2020-02-22T16:04:24Z</time>
      </trkpt>
      <trkpt lat="39.1100660" lon="1.5180170">
        <ele>12.9</ele>
        <time>2020-02-22T16:04:25Z</time>
      </trkpt>
      <trkpt lat="39.1100570" lon="1.5180240">
        <ele>13.0</ele>
        <time>2020-02-22T16:04:26Z</time>
      </trkpt>
      <trkpt lat="39.1100490" lon="1.5180310">
        <ele>13.0</ele>
        <time>2020-02-22T16:04:27Z</time>
      </trkpt>
      <trkpt lat="39.1100330" lon="1.5180350">
        <ele>13.0</ele>
        <time>2020-02-22T16:04:28Z</time>
      </trkpt>
      <trkpt lat="39.1100190" lon="1.5180450">
        <ele>13.0</ele>
        <time>2020-02-22T16:04:29Z</time>
      </trkpt>
      <trkpt lat="39.1100040" lon="1.5180560">
        <ele>13.1</ele>
        <time>2020-02-22T16:04:30Z</time>
      </trkpt>
      <trkpt lat="39.1099930" lon="1.5180730">
        <ele>13.1</ele>
        <time>2020-02-22T16:04:31Z</time>
      </trkpt>
      <trkpt lat="39.1099850" lon="1.5180910">
        <ele>13.1</ele>
        <time>2020-02-22T16:04:32Z</time>
      </trkpt>
      <trkpt lat="39.1099770" lon="1.5181070">
        <ele>13.2</ele>
        <time>2020-02-22T16:04:33Z</time>
      </trkpt>
      <trkpt lat="39.1099680" lon="1.5181200">
        <ele>13.2</ele>
        <time>2020-02-22T16:04:34Z</time>
      </trkpt>
      <trkpt lat="39.1099580" lon="1.5181420">
        <ele>13.2</ele>
        <time>2020-02-22T16:04:35Z</time>
      </trkpt>
      <trkpt lat="39.1099320" lon="1.5181560">
        <ele>13.3</ele>
        <time>2020-02-22T16:04:36Z</time>
      </trkpt>
      <trkpt lat="39.1099260" lon="1.5181660">
        <ele>13.3</ele>
        <time>2020-02-22T16:04:37Z</time>
      </trkpt>
      <trkpt lat="39.1099030" lon="1.5181880">
        <ele>13.4</ele>
        <time>2020-02-22T16:04:38Z</time>
      </trkpt>
      <trkpt lat="39.1098970" lon="1.5181960">
        <ele>13.4</ele>
        <time>2020-02-22T16:04:39Z</time>
      </trkpt>
      <trkpt lat="39.1098830" lon="1.5182060">
        <ele>13.5</ele>
        <time>2020-02-22T16:04:40Z</time>
      </trkpt>
      <trkpt lat="39.1098730" lon="1.5182200">
        <ele>13.5</ele>
        <time>2020-02-22T16:04:41Z</time>
      </trkpt>
      <trkpt lat="39.1098730" lon="1.5182420">
        <ele>13.6</ele>
        <time>2020-02-22T16:04:42Z</time>
      </trkpt>
      <trkpt lat="39.1098780" lon="1.5182580">
        <ele>13.6</ele>
        <time>2020-02-22T16:04:43Z</time>
      </trkpt>
      <trkpt lat="39.1098840" lon="1.5182610">
        <ele>13.6</ele>
        <time>2020-02-22T16:04:44Z</time>
      </trkpt>
      <trkpt lat="39.1098870" lon="1.5182600">
        <ele>13.6</ele>
        <time>2020-02-22T16:04:45Z</time>
      </trkpt>
      <trkpt lat="39.1098940" lon="1.5182500">
        <ele>13.6</ele>
        <time>2020-02-22T16:04:46Z</time>
      </trkpt>
      <trkpt lat="39.1098910" lon="1.5182540">
        <ele>13.7</ele>
        <time>2020-02-22T16:04:47Z</time>
      </trkpt>
      <trkpt lat="39.1098900" lon="1.5182560">
        <ele>13.7</ele>
        <time>2020-02-22T16:04:48Z</time>
      </trkpt>
      <trkpt lat="39.1098860" lon="1.5182650">
        <ele>13.7</ele>
        <time>2020-02-22T16:04:49Z</time>
      </trkpt>
      <trkpt lat="39.1098840" lon="1.5182760">
        <ele>13.7</ele>
        <time>2020-02-22T16:04:50Z</time>
      </trkpt>
      <trkpt lat="39.1098840" lon="1.5182780">
        <ele>13.7</ele>
        <time>2020-02-22T16:04:51Z</time>
      </trkpt>
      <trkpt lat="39.1098840" lon="1.5182800">
        <ele>13.7</ele>
        <time>2020-02-22T16:04:52Z</time>
      </trkpt>
      <trkpt lat="39.1098840" lon="1.5182770">
        <ele>13.7</ele>
        <time>2020-02-22T16:04:53Z</time>
      </trkpt>
      <trkpt lat="39.1098860" lon="1.5182720">
        <ele>13.7</ele>
        <time>2020-02-22T16:04:54Z</time>
      </trkpt>
      <trkpt lat="39.1098950" lon="1.5183110">
        <ele>13.8</ele>
        <time>2020-02-22T16:04:59Z</time>
      </trkpt>
      <trkpt lat="39.1099020" lon="1.5183150">
        <ele>13.8</ele>
        <time>2020-02-22T16:05:00Z</time>
      </trkpt>
      <trkpt lat="39.1099110" lon="1.5183210">
        <ele>13.9</ele>
        <time>2020-02-22T16:05:01Z</time>
      </trkpt>
      <trkpt lat="39.1099130" lon="1.5183300">
        <ele>13.9</ele>
        <time>2020-02-22T16:05:02Z</time>
      </trkpt>
      <trkpt lat="39.1099130" lon="1.5183330">
        <ele>13.9</ele>
        <time>2020-02-22T16:05:03Z</time>
      </trkpt>
      <trkpt lat="39.1099110" lon="1.5183420">
        <ele>13.9</ele>
        <time>2020-02-22T16:05:04Z</time>
      </trkpt>
      <trkpt lat="39.1099170" lon="1.5183380">
        <ele>13.9</ele>
        <time>2020-02-22T16:05:05Z</time>
      </trkpt>
      <trkpt lat="39.1099190" lon="1.5183380">
        <ele>13.9</ele>
        <time>2020-02-22T16:05:06Z</time>
      </trkpt>
      <trkpt lat="39.1099160" lon="1.5183440">
        <ele>13.9</ele>
        <time>2020-02-22T16:05:07Z</time>
      </trkpt>
      <trkpt lat="39.1099120" lon="1.5183480">
        <ele>13.9</ele>
        <time>2020-02-22T16:05:08Z</time>
      </trkpt>
      <trkpt lat="39.1099190" lon="1.5183370">
        <ele>14.0</ele>
        <time>2020-02-22T16:05:09Z</time>
      </trkpt>
      <trkpt lat="39.1099190" lon="1.5183370">
        <ele>14.0</ele>
        <time>2020-02-22T16:05:10Z</time>
      </trkpt>
      <trkpt lat="39.1099210" lon="1.5183340">
        <ele>14.0</ele>
        <time>2020-02-22T16:05:11Z</time>
      </trkpt>
      <trkpt lat="39.1099270" lon="1.5183230">
        <ele>14.0</ele>
        <time>2020-02-22T16:05:12Z</time>
      </trkpt>
      <trkpt lat="39.1099180" lon="1.5183290">
        <ele>14.0</ele>
        <time>2020-02-22T16:05:13Z</time>
      </trkpt>
      <trkpt lat="39.1099420" lon="1.5183670">
        <ele>14.1</ele>
        <time>2020-02-22T16:06:19Z</time>
      </trkpt>
      <trkpt lat="39.1099460" lon="1.5183680">
        <ele>14.1</ele>
        <time>2020-02-22T16:06:20Z</time>
      </trkpt>
      <trkpt lat="39.1099510" lon="1.5183660">
        <ele>14.1</ele>
        <time>2020-02-22T16:06:21Z</time>
      </trkpt>
      <trkpt lat="39.1099500" lon="1.5183620">
        <ele>14.1</ele>
        <time>2020-02-22T16:06:22Z</time>
      </trkpt>
      <trkpt lat="39.1099530" lon="1.5183630">
        <ele>14.1</ele>
        <time>2020-02-22T16:06:23Z</time>
      </trkpt>
      <trkpt lat="39.1099650" lon="1.5183650">
        <ele>14.1</ele>
        <time>2020-02-22T16:06:24Z</time>
      </trkpt>
      <trkpt lat="39.1099940" lon="1.5183700">
        <ele>14.2</ele>
        <time>2020-02-22T16:06:25Z</time>
      </trkpt>
      <trkpt lat="39.1100020" lon="1.5183710">
        <ele>14.2</ele>
        <time>2020-02-22T16:06:26Z</time>
      </trkpt>
      <trkpt lat="39.1100180" lon="1.5183610">
        <ele>14.2</ele>
        <time>2020-02-22T16:06:27Z</time>
      </trkpt>
      <trkpt lat="39.1100280" lon="1.5183510">
        <ele>14.2</ele>
        <time>2020-02-22T16:06:28Z</time>
      </trkpt>
      <trkpt lat="39.1100380" lon="1.5183420">
        <ele>14.3</ele>
        <time>2020-02-22T16:06:29Z</time>
      </trkpt>
      <trkpt lat="39.1100500" lon="1.5183330">
        <ele>14.3</ele>
        <time>2020-02-22T16:06:30Z</time>
      </trkpt>
      <trkpt lat="39.1100680" lon="1.5183240">
        <ele>14.3</ele>
        <time>2020-02-22T16:06:31Z</time>
      </trkpt>
      <trkpt lat="39.1100790" lon="1.5182990">
        <ele>14.3</ele>
        <time>2020-02-22T16:06:32Z</time>
      </trkpt>
      <trkpt lat="39.1100820" lon="1.5182940">
        <ele>14.4</ele>
        <time>2020-02-22T16:06:33Z</time>
      </trkpt>
      <trkpt lat="39.1100860" lon="1.5182940">
        <ele>14.4</ele>
        <time>2020-02-22T16:06:34Z</time>
      </trkpt>
      <trkpt lat="39.1100930" lon="1.5182980">
        <ele>14.4</ele>
        <time>2020-02-22T16:06:35Z</time>
      </trkpt>
      <trkpt lat="39.1100890" lon="1.5182920">
        <ele>14.4</ele>
        <time>2020-02-22T16:06:36Z</time>
      </trkpt>
      <trkpt lat="39.1100790" lon="1.5182730">
        <ele>14.4</ele>
        <time>2020-02-22T16:06:37Z</time>
      </trkpt>
      <trkpt lat="39.1100760" lon="1.5182680">
        <ele>14.4</ele>
        <time>2020-02-22T16:06:38Z</time>
      </trkpt>
      <trkpt lat="39.1100740" lon="1.5182730">
        <ele>14.4</ele>
        <time>2020-02-22T16:06:39Z</time>
      </trkpt>
      <trkpt lat="39.1100860" lon="1.5182540">
        <ele>14.4</ele>
        <time>2020-02-22T16:06:40Z</time>
      </trkpt>
      <trkpt lat="39.1100830" lon="1.5182720">
        <ele>14.4</ele>
        <time>2020-02-22T16:06:41Z</time>
      </trkpt>
      <trkpt lat="39.1100850" lon="1.5182810">
        <ele>14.4</ele>
        <time>2020-02-22T16:06:42Z</time>
      </trkpt>
      <trkpt lat="39.1100820" lon="1.5182800">
        <ele>14.4</ele>
        <time>2020-02-22T16:06:43Z</time>
      </trkpt>
      <trkpt lat="39.1100650" lon="1.5182810">
        <ele>14.5</ele>
        <time>2020-02-22T16:06:44Z</time>
      </trkpt>
      <trkpt lat="39.1100590" lon="1.5182810">
        <ele>14.5</ele>
        <time>2020-02-22T16:06:45Z</time>
      </trkpt>
      <trkpt lat="39.1100590" lon="1.5182810">
        <ele>14.5</ele>
        <time>2020-02-22T16:06:46Z</time>
      </trkpt>
      <trkpt lat="39.1100590" lon="1.5182810">
        <ele>14.5</ele>
        <time>2020-02-22T16:06:47Z</time>
      </trkpt>
      <trkpt lat="39.1101300" lon="1.5182130">
        <ele>14.5</ele>
        <time>2020-02-22T16:10:51Z</time>
      </trkpt>
      <trkpt lat="39.1101210" lon="1.5182170">
        <ele>14.5</ele>
        <time>2020-02-22T16:10:52Z</time>
      </trkpt>
      <trkpt lat="39.1101090" lon="1.5182250">
        <ele>14.5</ele>
        <time>2020-02-22T16:10:53Z</time>
      </trkpt>
      <trkpt lat="39.1100870" lon="1.5182430">
        <ele>14.5</ele>
        <time>2020-02-22T16:10:54Z</time>
      </trkpt>
      <trkpt lat="39.1100770" lon="1.5182500">
        <ele>14.5</ele>
        <time>2020-02-22T16:10:55Z</time>
      </trkpt>
      <trkpt lat="39.1100560" lon="1.5182680">
        <ele>14.5</ele>
        <time>2020-02-22T16:10:56Z</time>
      </trkpt>
      <trkpt lat="39.1100500" lon="1.5182710">
        <ele>14.5</ele>
        <time>2020-02-22T16:10:57Z</time>
      </trkpt>
      <trkpt lat="39.1100430" lon="1.5182730">
        <ele>14.6</ele>
        <time>2020-02-22T16:10:58Z</time>
      </trkpt>
      <trkpt lat="39.1100380" lon="1.5182700">
        <ele>14.6</ele>
        <time>2020-02-22T16:10:59Z</time>
      </trkpt>
      <trkpt lat="39.1100340" lon="1.5182660">
        <ele>14.6</ele>
        <time>2020-02-22T16:11:00Z</time>
      </trkpt>
      <trkpt lat="39.1100300" lon="1.5182550">
        <ele>14.6</ele>
        <time>2020-02-22T16:11:01Z</time>
      </trkpt>
      <trkpt lat="39.1100230" lon="1.5182480">
        <ele>14.6</ele>
        <time>2020-02-22T16:11:02Z</time>
      </trkpt>
      <trkpt lat="39.1100190" lon="1.5182490">
        <ele>14.6</ele>
        <time>2020-02-22T16:11:03Z</time>
      </trkpt>
      <trkpt lat="39.1100150" lon="1.5182520">
        <ele>14.6</ele>
        <time>2020-02-22T16:11:04Z</time>
      </trkpt>
      <trkpt lat="39.1100110" lon="1.5182480">
        <ele>14.6</ele>
        <time>2020-02-22T16:11:05Z</time>
      </trkpt>
      <trkpt lat="39.1100100" lon="1.5182470">
        <ele>14.6</ele>
        <time>2020-02-22T16:11:06Z</time>
      </trkpt>
      <trkpt lat="39.1100100" lon="1.5182470">
        <ele>14.6</ele>
        <time>2020-02-22T16:11:07Z</time>
      </trkpt>
      <trkpt lat="39.1100390" lon="1.5182490">
        <ele>14.6</ele>
        <time>2020-02-22T16:13:19Z</time>
      </trkpt>
      <trkpt lat="39.1100460" lon="1.5182410">
        <ele>14.6</ele>
        <time>2020-02-22T16:13:20Z</time>
      </trkpt>
      <trkpt lat="39.1100500" lon="1.5182360">
        <ele>14.6</ele>
        <time>2020-02-22T16:13:21Z</time>
      </trkpt>
      <trkpt lat="39.1100520" lon="1.5182330">
        <ele>14.6</ele>
        <time>2020-02-22T16:13:22Z</time>
      </trkpt>
      <trkpt lat="39.1100580" lon="1.5182270">
        <ele>14.6</ele>
        <time>2020-02-22T16:13:23Z</time>
      </trkpt>
      <trkpt lat="39.1100600" lon="1.5182290">
        <ele>14.6</ele>
        <time>2020-02-22T16:13:24Z</time>
      </trkpt>
      <trkpt lat="39.1100570" lon="1.5182330">
        <ele>14.6</ele>
        <time>2020-02-22T16:13:25Z</time>
      </trkpt>
      <trkpt lat="39.1100570" lon="1.5182350">
        <ele>14.6</ele>
        <time>2020-02-22T16:13:26Z</time>
      </trkpt>
      <trkpt lat="39.1100600" lon="1.5182330">
        <ele>14.6</ele>
        <time>2020-02-22T16:13:27Z</time>
      </trkpt>
      <trkpt lat="39.1100620" lon="1.5182300">
        <ele>14.6</ele>
        <time>2020-02-22T16:13:28Z</time>
      </trkpt>
      <trkpt lat="39.1100640" lon="1.5182290">
        <ele>14.6</ele>
        <time>2020-02-22T16:13:29Z</time>
      </trkpt>
      <trkpt lat="39.1100650" lon="1.5182280">
        <ele>14.6</ele>
        <time>2020-02-22T16:13:30Z</time>
      </trkpt>
      <trkpt lat="39.1100630" lon="1.5182310">
        <ele>14.6</ele>
        <time>2020-02-22T16:13:31Z</time>
      </trkpt>
      <trkpt lat="39.1100650" lon="1.5182280">
        <ele>14.6</ele>
        <time>2020-02-22T16:13:32Z</time>
      </trkpt>
      <trkpt lat="39.1100650" lon="1.5182280">
        <ele>14.6</ele>
        <time>2020-02-22T16:13:33Z</time>
      </trkpt>
      <trkpt lat="39.1100650" lon="1.5182280">
        <ele>14.6</ele>
        <time>2020-02-22T16:13:34Z</time>
      </trkpt>
      <trkpt lat="39.1100650" lon="1.5182280">
        <ele>14.6</ele>
        <time>2020-02-22T16:13:35Z</time>
      </trkpt>
      <trkpt lat="39.1100650" lon="1.5182280">
        <ele>14.6</ele>
        <time>2020-02-22T16:13:36Z</time>
      </trkpt>
      <trkpt lat="39.1100630" lon="1.5182300">
        <ele>14.6</ele>
        <time>2020-02-22T16:13:37Z</time>
      </trkpt>
      <trkpt lat="39.1100560" lon="1.5182390">
        <ele>14.6</ele>
        <time>2020-02-22T16:13:38Z</time>
      </trkpt>
      <trkpt lat="39.1100530" lon="1.5182430">
        <ele>14.6</ele>
        <time>2020-02-22T16:13:39Z</time>
      </trkpt>
      <trkpt lat="39.1100530" lon="1.5182420">
        <ele>14.6</ele>
        <time>2020-02-22T16:13:40Z</time>
      </trkpt>
      <trkpt lat="39.1100530" lon="1.5182420">
        <ele>14.6</ele>
        <time>2020-02-22T16:13:41Z</time>
      </trkpt>
      <trkpt lat="39.1100540" lon="1.5182420">
        <ele>14.6</ele>
        <time>2020-02-22T16:13:42Z</time>
      </trkpt>
      <trkpt lat="39.1098950" lon="1.5182740">
        <ele>14.6</ele>
        <time>2020-02-22T16:16:09Z</time>
      </trkpt>
      <trkpt lat="39.1098920" lon="1.5182550">
        <ele>14.6</ele>
        <time>2020-02-22T16:16:10Z</time>
      </trkpt>
      <trkpt lat="39.1098780" lon="1.5182520">
        <ele>14.6</ele>
        <time>2020-02-22T16:16:11Z</time>
      </trkpt>
      <trkpt lat="39.1098710" lon="1.5182490">
        <ele>14.6</ele>
        <time>2020-02-22T16:16:12Z</time>
      </trkpt>
      <trkpt lat="39.1098620" lon="1.5182420">
        <ele>14.6</ele>
        <time>2020-02-22T16:16:13Z</time>
      </trkpt>
      <trkpt lat="39.1098460" lon="1.5182380">
        <ele>14.6</ele>
        <time>2020-02-22T16:16:14Z</time>
      </trkpt>
      <trkpt lat="39.1098340" lon="1.5182340">
        <ele>14.6</ele>
        <time>2020-02-22T16:16:15Z</time>
      </trkpt>
      <trkpt lat="39.1098270" lon="1.5182260">
        <ele>14.6</ele>
        <time>2020-02-22T16:16:16Z</time>
      </trkpt>
      <trkpt lat="39.1098180" lon="1.5182180">
        <ele>14.6</ele>
        <time>2020-02-22T16:16:17Z</time>
      </trkpt>
      <trkpt lat="39.1098220" lon="1.5182140">
        <ele>14.6</ele>
        <time>2020-02-22T16:16:18Z</time>
      </trkpt>
      <trkpt lat="39.1098190" lon="1.5182130">
        <ele>14.6</ele>
        <time>2020-02-22T16:16:19Z</time>
      </trkpt>
      <trkpt lat="39.1098070" lon="1.5182070">
        <ele>14.6</ele>
        <time>2020-02-22T16:16:20Z</time>
      </trkpt>
      <trkpt lat="39.1097970" lon="1.5182100">
        <ele>14.6</ele>
        <time>2020-02-22T16:16:21Z</time>
      </trkpt>
      <trkpt lat="39.1097970" lon="1.5182130">
        <ele>14.6</ele>
        <time>2020-02-22T16:16:22Z</time>
      </trkpt>
      <trkpt lat="39.1097970" lon="1.5182020">
        <ele>14.6</ele>
        <time>2020-02-22T16:16:23Z</time>
      </trkpt>
      <trkpt lat="39.1097990" lon="1.5181960">
        <ele>14.6</ele>
        <time>2020-02-22T16:16:24Z</time>
      </trkpt>
      <trkpt lat="39.1098000" lon="1.5181810">
        <ele>14.6</ele>
        <time>2020-02-22T16:16:25Z</time>
      </trkpt>
      <trkpt lat="39.1097920" lon="1.5181750">
        <ele>14.6</ele>
        <time>2020-02-22T16:16:26Z</time>
      </trkpt>
      <trkpt lat="39.1097890" lon="1.5181830">
        <ele>14.6</ele>
        <time>2020-02-22T16:16:27Z</time>
      </trkpt>
      <trkpt lat="39.1097880" lon="1.5181850">
        <ele>14.6</ele>
        <time>2020-02-22T16:16:28Z</time>
      </trkpt>
      <trkpt lat="39.1097880" lon="1.5181860">
        <ele>14.6</ele>
        <time>2020-02-22T16:16:29Z</time>
      </trkpt>
      <trkpt lat="39.1097880" lon="1.5181870">
        <ele>14.6</ele>
        <time>2020-02-22T16:16:30Z</time>
      </trkpt>
      <trkpt lat="39.1097880" lon="1.5181890">
        <ele>14.6</ele>
        <time>2020-02-22T16:16:31Z</time>
      </trkpt>
      <trkpt lat="39.1097870" lon="1.5181900">
        <ele>14.6</ele>
        <time>2020-02-22T16:16:32Z</time>
      </trkpt>
      <trkpt lat="39.1097870" lon="1.5181910">
        <ele>14.6</ele>
        <time>2020-02-22T16:16:33Z</time>
      </trkpt>
      <trkpt lat="39.1097870" lon="1.5181930">
        <ele>14.6</ele>
        <time>2020-02-22T16:16:34Z</time>
      </trkpt>
      <trkpt lat="39.1097870" lon="1.5181940">
        <ele>14.6</ele>
        <time>2020-02-22T16:16:35Z</time>
      </trkpt>
      <trkpt lat="39.1097860" lon="1.5181950">
        <ele>14.6</ele>
        <time>2020-02-22T16:16:36Z</time>
      </trkpt>
      <trkpt lat="39.1097860" lon="1.5181970">
        <ele>14.6</ele>
        <time>2020-02-22T16:16:37Z</time>
      </trkpt>
      <trkpt lat="39.1097860" lon="1.5181980">
        <ele>14.6</ele>
        <time>2020-02-22T16:16:38Z</time>
      </trkpt>
      <trkpt lat="39.1097860" lon="1.5181990">
        <ele>14.6</ele>
        <time>2020-02-22T16:28:58Z</time>
      </trkpt>
      <trkpt lat="39.1097850" lon="1.5182010">
        <ele>14.6</ele>
        <time>2020-02-22T16:28:59Z</time>
      </trkpt>
      <trkpt lat="39.1097850" lon="1.5182020">
        <ele>14.6</ele>
        <time>2020-02-22T16:29:00Z</time>
      </trkpt>
      <trkpt lat="39.1098140" lon="1.5181790">
        <ele>14.6</ele>
        <time>2020-02-22T16:29:01Z</time>
      </trkpt>
      <trkpt lat="39.1098800" lon="1.5181610">
        <ele>14.7</ele>
        <time>2020-02-22T16:29:02Z</time>
      </trkpt>
      <trkpt lat="39.1099310" lon="1.5181320">
        <ele>14.7</ele>
        <time>2020-02-22T16:29:03Z</time>
      </trkpt>
      <trkpt lat="39.1099690" lon="1.5181070">
        <ele>14.7</ele>
        <time>2020-02-22T16:29:04Z</time>
      </trkpt>
      <trkpt lat="39.1100130" lon="1.5180790">
        <ele>14.7</ele>
        <time>2020-02-22T16:29:05Z</time>
      </trkpt>
      <trkpt lat="39.1100630" lon="1.5180420">
        <ele>14.8</ele>
        <time>2020-02-22T16:29:06Z</time>
      </trkpt>
      <trkpt lat="39.1101060" lon="1.5180040">
        <ele>14.8</ele>
        <time>2020-02-22T16:29:07Z</time>
      </trkpt>
      <trkpt lat="39.1101450" lon="1.5179760">
        <ele>14.9</ele>
        <time>2020-02-22T16:29:08Z</time>
      </trkpt>
      <trkpt lat="39.1101850" lon="1.5179780">
        <ele>14.9</ele>
        <time>2020-02-22T16:29:09Z</time>
      </trkpt>
      <trkpt lat="39.1101880" lon="1.5179730">
        <ele>15.0</ele>
        <time>2020-02-22T16:29:10Z</time>
      </trkpt>
      <trkpt lat="39.1101920" lon="1.5179770">
        <ele>15.0</ele>
        <time>2020-02-22T16:29:11Z</time>
      </trkpt>
      <trkpt lat="39.1102010" lon="1.5179880">
        <ele>15.0</ele>
        <time>2020-02-22T16:29:12Z</time>
      </trkpt>
      <trkpt lat="39.1102050" lon="1.5179830">
        <ele>15.0</ele>
        <time>2020-02-22T16:29:13Z</time>
      </trkpt>
      <trkpt lat="39.1102030" lon="1.5179920">
        <ele>15.0</ele>
        <time>2020-02-22T16:29:14Z</time>
      </trkpt>
      <trkpt lat="39.1102040" lon="1.5179930">
        <ele>15.0</ele>
        <time>2020-02-22T16:29:15Z</time>
      </trkpt>
      <trkpt lat="39.1102090" lon="1.5180050">
        <ele>15.0</ele>
        <time>2020-02-22T16:29:16Z</time>
      </trkpt>
      <trkpt lat="39.1101990" lon="1.5179930">
        <ele>15.0</ele>
        <time>2020-02-22T16:29:17Z</time>
      </trkpt>
      <trkpt lat="39.1101960" lon="1.5179900">
        <ele>15.0</ele>
        <time>2020-02-22T16:29:18Z</time>
      </trkpt>
      <trkpt lat="39.1101940" lon="1.5179880">
        <ele>15.0</ele>
        <time>2020-02-22T16:29:19Z</time>
      </trkpt>
      <trkpt lat="39.1101910" lon="1.5179850">
        <ele>15.0</ele>
        <time>2020-02-22T16:29:20Z</time>
      </trkpt>
      <trkpt lat="39.1101880" lon="1.5179820">
        <ele>15.0</ele>
        <time>2020-02-22T16:29:21Z</time>
      </trkpt>
      <trkpt lat="39.1101850" lon="1.5179790">
        <ele>15.0</ele>
        <time>2020-02-22T16:29:22Z</time>
      </trkpt>
      <trkpt lat="39.1101820" lon="1.5179760">
        <ele>15.1</ele>
        <time>2020-02-22T16:29:23Z</time>
      </trkpt>
      <trkpt lat="39.1101790" lon="1.5179730">
        <ele>15.1</ele>
        <time>2020-02-22T16:29:24Z</time>
      </trkpt>
      <trkpt lat="39.1101770" lon="1.5179710">
        <ele>15.1</ele>
        <time>2020-02-22T16:29:25Z</time>
      </trkpt>
      <trkpt lat="39.1101740" lon="1.5179680">
        <ele>15.1</ele>
        <time>2020-02-22T16:29:26Z</time>
      </trkpt>
      <trkpt lat="39.1101710" lon="1.5179650">
        <ele>15.1</ele>
        <time>2020-02-22T16:29:27Z</time>
      </trkpt>
      <trkpt lat="39.1101680" lon="1.5179620">
        <ele>15.1</ele>
        <time>2020-02-22T16:29:28Z</time>
      </trkpt>
      <trkpt lat="39.1101650" lon="1.5179590">
        <ele>15.1</ele>
        <time>2020-02-22T16:29:29Z</time>
      </trkpt>
      <trkpt lat="39.1101620" lon="1.5179560">
        <ele>15.1</ele>
        <time>2020-02-22T16:29:30Z</time>
      </trkpt>
      <trkpt lat="39.1101600" lon="1.5179540">
        <ele>15.1</ele>
        <time>2020-02-22T16:29:31Z</time>
      </trkpt>
      <trkpt lat="39.1101570" lon="1.5179510">
        <ele>15.1</ele>
        <time>2020-02-22T16:29:47Z</time>
      </trkpt>
      <trkpt lat="39.1101540" lon="1.5179480">
        <ele>15.1</ele>
        <time>2020-02-22T16:29:48Z</time>
      </trkpt>
      <trkpt lat="39.1101320" lon="1.5179770">
        <ele>15.2</ele>
        <time>2020-02-22T16:29:49Z</time>
      </trkpt>
      <trkpt lat="39.1101260" lon="1.5179860">
        <ele>15.2</ele>
        <time>2020-02-22T16:29:50Z</time>
      </trkpt>
      <trkpt lat="39.1101160" lon="1.5179950">
        <ele>15.2</ele>
        <time>2020-02-22T16:29:51Z</time>
      </trkpt>
      <trkpt lat="39.1100950" lon="1.5179970">
        <ele>15.2</ele>
        <time>2020-02-22T16:29:52Z</time>
      </trkpt>
      <trkpt lat="39.1100700" lon="1.5180100">
        <ele>15.3</ele>
        <time>2020-02-22T16:29:53Z</time>
      </trkpt>
      <trkpt lat="39.1100410" lon="1.5180370">
        <ele>15.4</ele>
        <time>2020-02-22T16:29:54Z</time>
      </trkpt>
      <trkpt lat="39.1100310" lon="1.5180430">
        <ele>15.4</ele>
        <time>2020-02-22T16:29:55Z</time>
      </trkpt>
      <trkpt lat="39.1100080" lon="1.5180640">
        <ele>15.5</ele>
        <time>2020-02-22T16:29:56Z</time>
      </trkpt>
      <trkpt lat="39.1099830" lon="1.5180910">
        <ele>15.5</ele>
        <time>2020-02-22T16:29:57Z</time>
      </trkpt>
      <trkpt lat="39.1099730" lon="1.5180980">
        <ele>15.5</ele>
        <time>2020-02-22T16:29:58Z</time>
      </trkpt>
      <trkpt lat="39.1099450" lon="1.5181270">
        <ele>15.6</ele>
        <time>2020-02-22T16:29:59Z</time>
      </trkpt>
      <trkpt lat="39.1099350" lon="1.5181370">
        <ele>15.6</ele>
        <time>2020-02-22T16:30:00Z</time>
      </trkpt>
      <trkpt lat="39.1099140" lon="1.5181620">
        <ele>15.7</ele>
        <time>2020-02-22T16:30:01Z</time>
      </trkpt>
      <trkpt lat="39.1098980" lon="1.5181910">
        <ele>15.7</ele>
        <time>2020-02-22T16:30:02Z</time>
      </trkpt>
      <trkpt lat="39.1098750" lon="1.5182120">
        <ele>15.8</ele>
        <time>2020-02-22T16:30:03Z</time>
      </trkpt>
      <trkpt lat="39.1098640" lon="1.5182260">
        <ele>15.8</ele>
        <time>2020-02-22T16:30:04Z</time>
      </trkpt>
      <trkpt lat="39.1098470" lon="1.5182340">
        <ele>15.9</ele>
        <time>2020-02-22T16:30:05Z</time>
      </trkpt>
      <trkpt lat="39.1098230" lon="1.5182610">
        <ele>15.9</ele>
        <time>2020-02-22T16:30:06Z</time>
      </trkpt>
      <trkpt lat="39.1098170" lon="1.5182750">
        <ele>15.9</ele>
        <time>2020-02-22T16:30:07Z</time>
      </trkpt>
      <trkpt lat="39.1098000" lon="1.5183030">
        <ele>16.0</ele>
        <time>2020-02-22T16:30:08Z</time>
      </trkpt>
      <trkpt lat="39.1097820" lon="1.5183380">
        <ele>16.1</ele>
        <time>2020-02-22T16:30:09Z</time>
      </trkpt>
      <trkpt lat="39.1097770" lon="1.5183480">
        <ele>16.1</ele>
        <time>2020-02-22T16:30:10Z</time>
      </trkpt>
      <trkpt lat="39.1097640" lon="1.5183840">
        <ele>16.2</ele>
        <time>2020-02-22T16:30:11Z</time>
      </trkpt>
      <trkpt lat="39.1097600" lon="1.5183960">
        <ele>16.2</ele>
        <time>2020-02-22T16:30:12Z</time>
      </trkpt>
      <trkpt lat="39.1097440" lon="1.5184330">
        <ele>16.3</ele>
        <time>2020-02-22T16:30:13Z</time>
      </trkpt>
      <trkpt lat="39.1097390" lon="1.5184450">
        <ele>16.3</ele>
        <time>2020-02-22T16:30:14Z</time>
      </trkpt>
      <trkpt lat="39.1097280" lon="1.5184780">
        <ele>16.4</ele>
        <time>2020-02-22T16:30:15Z</time>
      </trkpt>
      <trkpt lat="39.1097230" lon="1.5184900">
        <ele>16.4</ele>
        <time>2020-02-22T16:30:16Z</time>
      </trkpt>
      <trkpt lat="39.1097060" lon="1.5185350">
        <ele>16.5</ele>
        <time>2020-02-22T16:30:17Z</time>
      </trkpt>
      <trkpt lat="39.1096970" lon="1.5185480">
        <ele>16.5</ele>
        <time>2020-02-22T16:30:18Z</time>
      </trkpt>
      <trkpt lat="39.1096880" lon="1.5185900">
        <ele>16.6</ele>
        <time>2020-02-22T16:30:19Z</time>
      </trkpt>
      <trkpt lat="39.1096830" lon="1.5186060">
        <ele>16.6</ele>
        <time>2020-02-22T16:30:20Z</time>
      </trkpt>
      <trkpt lat="39.1096480" lon="1.5186390">
        <ele>16.7</ele>
        <time>2020-02-22T16:30:21Z</time>
      </trkpt>
      <trkpt lat="39.1096250" lon="1.5186760">
        <ele>16.8</ele>
        <time>2020-02-22T16:30:22Z</time>
      </trkpt>
      <trkpt lat="39.1096130" lon="1.5186870">
        <ele>16.8</ele>
        <time>2020-02-22T16:30:23Z</time>
      </trkpt>
      <trkpt lat="39.1095920" lon="1.5187090">
        <ele>16.9</ele>
        <time>2020-02-22T16:30:24Z</time>
      </trkpt>
      <trkpt lat="39.1095640" lon="1.5187360">
        <ele>16.9</ele>
        <time>2020-02-22T16:30:25Z</time>
      </trkpt>
      <trkpt lat="39.1095170" lon="1.5187620">
        <ele>17.0</ele>
        <time>2020-02-22T16:30:26Z</time>
      </trkpt>
      <trkpt lat="39.1094890" lon="1.5187880">
        <ele>17.0</ele>
        <time>2020-02-22T16:30:27Z</time>
      </trkpt>
      <trkpt lat="39.1094580" lon="1.5188050">
        <ele>17.0</ele>
        <time>2020-02-22T16:30:28Z</time>
      </trkpt>
      <trkpt lat="39.1094260" lon="1.5188230">
        <ele>17.0</ele>
        <time>2020-02-22T16:30:29Z</time>
      </trkpt>
      <trkpt lat="39.1093960" lon="1.5188430">
        <ele>17.0</ele>
        <time>2020-02-22T16:30:30Z</time>
      </trkpt>
      <trkpt lat="39.1093640" lon="1.5188670">
        <ele>17.0</ele>
        <time>2020-02-22T16:30:31Z</time>
      </trkpt>
      <trkpt lat="39.1093300" lon="1.5188950">
        <ele>17.0</ele>
        <time>2020-02-22T16:30:32Z</time>
      </trkpt>
      <trkpt lat="39.1092980" lon="1.5189160">
        <ele>17.0</ele>
        <time>2020-02-22T16:30:33Z</time>
      </trkpt>
      <trkpt lat="39.1092620" lon="1.5189340">
        <ele>17.0</ele>
        <time>2020-02-22T16:30:34Z</time>
      </trkpt>
      <trkpt lat="39.1092260" lon="1.5189540">
        <ele>17.0</ele>
        <time>2020-02-22T16:30:35Z</time>
      </trkpt>
      <trkpt lat="39.1091920" lon="1.5189800">
        <ele>16.9</ele>
        <time>2020-02-22T16:30:36Z</time>
      </trkpt>
      <trkpt lat="39.1091500" lon="1.5190110">
        <ele>16.9</ele>
        <time>2020-02-22T16:30:37Z</time>
      </trkpt>
      <trkpt lat="39.1091200" lon="1.5190250">
        <ele>16.9</ele>
        <time>2020-02-22T16:30:38Z</time>
      </trkpt>
      <trkpt lat="39.1090940" lon="1.5190370">
        <ele>16.9</ele>
        <time>2020-02-22T16:30:39Z</time>
      </trkpt>
      <trkpt lat="39.1090660" lon="1.5190580">
        <ele>16.9</ele>
        <time>2020-02-22T16:30:40Z</time>
      </trkpt>
      <trkpt lat="39.1090290" lon="1.5190760">
        <ele>16.8</ele>
        <time>2020-02-22T16:30:41Z</time>
      </trkpt>
      <trkpt lat="39.1090000" lon="1.5191010">
        <ele>16.8</ele>
        <time>2020-02-22T16:30:42Z</time>
      </trkpt>
      <trkpt lat="39.1089750" lon="1.5191210">
        <ele>16.8</ele>
        <time>2020-02-22T16:30:43Z</time>
      </trkpt>
      <trkpt lat="39.1089520" lon="1.5191490">
        <ele>16.8</ele>
        <time>2020-02-22T16:30:44Z</time>
      </trkpt>
      <trkpt lat="39.1089220" lon="1.5191770">
        <ele>16.8</ele>
        <time>2020-02-22T16:30:45Z</time>
      </trkpt>
      <trkpt lat="39.1089130" lon="1.5191880">
        <ele>16.9</ele>
        <time>2020-02-22T16:30:46Z</time>
      </trkpt>
      <trkpt lat="39.1088940" lon="1.5192210">
        <ele>16.9</ele>
        <time>2020-02-22T16:30:47Z</time>
      </trkpt>
      <trkpt lat="39.1088860" lon="1.5192320">
        <ele>16.9</ele>
        <time>2020-02-22T16:30:48Z</time>
      </trkpt>
      <trkpt lat="39.1088710" lon="1.5192680">
        <ele>16.9</ele>
        <time>2020-02-22T16:30:49Z</time>
      </trkpt>
      <trkpt lat="39.1088530" lon="1.5193110">
        <ele>16.9</ele>
        <time>2020-02-22T16:30:50Z</time>
      </trkpt>
      <trkpt lat="39.1088340" lon="1.5193490">
        <ele>17.0</ele>
        <time>2020-02-22T16:30:51Z</time>
      </trkpt>
      <trkpt lat="39.1088150" lon="1.5193900">
        <ele>17.0</ele>
        <time>2020-02-22T16:30:52Z</time>
      </trkpt>
      <trkpt lat="39.1087980" lon="1.5194300">
        <ele>17.0</ele>
        <time>2020-02-22T16:30:53Z</time>
      </trkpt>
      <trkpt lat="39.1087940" lon="1.5194410">
        <ele>17.1</ele>
        <time>2020-02-22T16:30:54Z</time>
      </trkpt>
      <trkpt lat="39.1087820" lon="1.5194890">
        <ele>17.1</ele>
        <time>2020-02-22T16:30:55Z</time>
      </trkpt>
      <trkpt lat="39.1087660" lon="1.5195280">
        <ele>17.1</ele>
        <time>2020-02-22T16:30:56Z</time>
      </trkpt>
      <trkpt lat="39.1087430" lon="1.5195640">
        <ele>17.2</ele>
        <time>2020-02-22T16:30:57Z</time>
      </trkpt>
      <trkpt lat="39.1087160" lon="1.5196010">
        <ele>17.3</ele>
        <time>2020-02-22T16:30:58Z</time>
      </trkpt>
      <trkpt lat="39.1086890" lon="1.5196280">
        <ele>17.3</ele>
        <time>2020-02-22T16:30:59Z</time>
      </trkpt>
      <trkpt lat="39.1086540" lon="1.5196670">
        <ele>17.4</ele>
        <time>2020-02-22T16:31:00Z</time>
      </trkpt>
      <trkpt lat="39.1086000" lon="1.5196890">
        <ele>17.5</ele>
        <time>2020-02-22T16:31:01Z</time>
      </trkpt>
      <trkpt lat="39.1085660" lon="1.5197090">
        <ele>17.5</ele>
        <time>2020-02-22T16:31:02Z</time>
      </trkpt>
      <trkpt lat="39.1085280" lon="1.5197290">
        <ele>17.6</ele>
        <time>2020-02-22T16:31:03Z</time>
      </trkpt>
      <trkpt lat="39.1084920" lon="1.5197510">
        <ele>17.7</ele>
        <time>2020-02-22T16:31:04Z</time>
      </trkpt>
      <trkpt lat="39.1084620" lon="1.5197710">
        <ele>17.8</ele>
        <time>2020-02-22T16:31:05Z</time>
      </trkpt>
      <trkpt lat="39.1084320" lon="1.5197900">
        <ele>17.9</ele>
        <time>2020-02-22T16:31:06Z</time>
      </trkpt>
      <trkpt lat="39.1083970" lon="1.5198070">
        <ele>18.0</ele>
        <time>2020-02-22T16:31:07Z</time>
      </trkpt>
      <trkpt lat="39.1083580" lon="1.5198280">
        <ele>18.1</ele>
        <time>2020-02-22T16:31:08Z</time>
      </trkpt>
      <trkpt lat="39.1083270" lon="1.5198440">
        <ele>18.2</ele>
        <time>2020-02-22T16:31:09Z</time>
      </trkpt>
      <trkpt lat="39.1082970" lon="1.5198610">
        <ele>18.3</ele>
        <time>2020-02-22T16:31:10Z</time>
      </trkpt>
      <trkpt lat="39.1082700" lon="1.5198660">
        <ele>18.4</ele>
        <time>2020-02-22T16:31:11Z</time>
      </trkpt>
      <trkpt lat="39.1082360" lon="1.5198830">
        <ele>18.4</ele>
        <time>2020-02-22T16:31:12Z</time>
      </trkpt>
      <trkpt lat="39.1082090" lon="1.5198990">
        <ele>18.5</ele>
        <time>2020-02-22T16:31:13Z</time>
      </trkpt>
      <trkpt lat="39.1081780" lon="1.5199110">
        <ele>18.5</ele>
        <time>2020-02-22T16:31:14Z</time>
      </trkpt>
      <trkpt lat="39.1081380" lon="1.5199300">
        <ele>18.6</ele>
        <time>2020-02-22T16:31:15Z</time>
      </trkpt>
      <trkpt lat="39.1081170" lon="1.5199400">
        <ele>18.6</ele>
        <time>2020-02-22T16:31:16Z</time>
      </trkpt>
      <trkpt lat="39.1080840" lon="1.5199600">
        <ele>18.6</ele>
        <time>2020-02-22T16:31:17Z</time>
      </trkpt>
      <trkpt lat="39.1080590" lon="1.5199790">
        <ele>18.7</ele>
        <time>2020-02-22T16:31:18Z</time>
      </trkpt>
      <trkpt lat="39.1080280" lon="1.5200100">
        <ele>18.7</ele>
        <time>2020-02-22T16:31:19Z</time>
      </trkpt>
      <trkpt lat="39.1080170" lon="1.5200180">
        <ele>18.7</ele>
        <time>2020-02-22T16:31:20Z</time>
      </trkpt>
      <trkpt lat="39.1079890" lon="1.5200400">
        <ele>18.7</ele>
        <time>2020-02-22T16:31:21Z</time>
      </trkpt>
      <trkpt lat="39.1079620" lon="1.5200570">
        <ele>18.7</ele>
        <time>2020-02-22T16:31:22Z</time>
      </trkpt>
      <trkpt lat="39.1079420" lon="1.5200830">
        <ele>18.7</ele>
        <time>2020-02-22T16:31:23Z</time>
      </trkpt>
      <trkpt lat="39.1079280" lon="1.5201140">
        <ele>18.7</ele>
        <time>2020-02-22T16:31:24Z</time>
      </trkpt>
      <trkpt lat="39.1079080" lon="1.5201400">
        <ele>18.7</ele>
        <time>2020-02-22T16:31:25Z</time>
      </trkpt>
      <trkpt lat="39.1078830" lon="1.5201590">
        <ele>18.7</ele>
        <time>2020-02-22T16:31:26Z</time>
      </trkpt>
      <trkpt lat="39.1078600" lon="1.5201910">
        <ele>18.7</ele>
        <time>2020-02-22T16:31:27Z</time>
      </trkpt>
      <trkpt lat="39.1078420" lon="1.5202210">
        <ele>18.7</ele>
        <time>2020-02-22T16:31:28Z</time>
      </trkpt>
      <trkpt lat="39.1078250" lon="1.5202530">
        <ele>18.6</ele>
        <time>2020-02-22T16:31:29Z</time>
      </trkpt>
      <trkpt lat="39.1078060" lon="1.5202810">
        <ele>18.6</ele>
        <time>2020-02-22T16:31:30Z</time>
      </trkpt>
      <trkpt lat="39.1077920" lon="1.5203110">
        <ele>18.6</ele>
        <time>2020-02-22T16:31:31Z</time>
      </trkpt>
      <trkpt lat="39.1077780" lon="1.5203520">
        <ele>18.6</ele>
        <time>2020-02-22T16:31:32Z</time>
      </trkpt>
      <trkpt lat="39.1077570" lon="1.5203960">
        <ele>18.5</ele>
        <time>2020-02-22T16:31:33Z</time>
      </trkpt>
      <trkpt lat="39.1077410" lon="1.5204390">
        <ele>18.5</ele>
        <time>2020-02-22T16:31:34Z</time>
      </trkpt>
      <trkpt lat="39.1077320" lon="1.5204810">
        <ele>18.4</ele>
        <time>2020-02-22T16:31:35Z</time>
      </trkpt>
      <trkpt lat="39.1077270" lon="1.5205170">
        <ele>18.4</ele>
        <time>2020-02-22T16:31:36Z</time>
      </trkpt>
      <trkpt lat="39.1077250" lon="1.5205730">
        <ele>18.3</ele>
        <time>2020-02-22T16:31:37Z</time>
      </trkpt>
      <trkpt lat="39.1077200" lon="1.5206130">
        <ele>18.3</ele>
        <time>2020-02-22T16:31:38Z</time>
      </trkpt>
      <trkpt lat="39.1077010" lon="1.5206650">
        <ele>18.2</ele>
        <time>2020-02-22T16:31:39Z</time>
      </trkpt>
      <trkpt lat="39.1076940" lon="1.5207200">
        <ele>18.2</ele>
        <time>2020-02-22T16:31:40Z</time>
      </trkpt>
      <trkpt lat="39.1076880" lon="1.5207660">
        <ele>18.1</ele>
        <time>2020-02-22T16:31:41Z</time>
      </trkpt>
      <trkpt lat="39.1076850" lon="1.5208200">
        <ele>18.1</ele>
        <time>2020-02-22T16:31:42Z</time>
      </trkpt>
      <trkpt lat="39.1076830" lon="1.5208640">
        <ele>18.1</ele>
        <time>2020-02-22T16:31:43Z</time>
      </trkpt>
      <trkpt lat="39.1076780" lon="1.5209200">
        <ele>18.0</ele>
        <time>2020-02-22T16:31:44Z</time>
      </trkpt>
      <trkpt lat="39.1076810" lon="1.5209770">
        <ele>18.0</ele>
        <time>2020-02-22T16:31:45Z</time>
      </trkpt>
      <trkpt lat="39.1076870" lon="1.5210340">
        <ele>17.9</ele>
        <time>2020-02-22T16:31:46Z</time>
      </trkpt>
      <trkpt lat="39.1076880" lon="1.5210890">
        <ele>17.8</ele>
        <time>2020-02-22T16:31:47Z</time>
      </trkpt>
      <trkpt lat="39.1076850" lon="1.5211510">
        <ele>17.7</ele>
        <time>2020-02-22T16:31:48Z</time>
      </trkpt>
      <trkpt lat="39.1076720" lon="1.5212050">
        <ele>17.7</ele>
        <time>2020-02-22T16:31:49Z</time>
      </trkpt>
      <trkpt lat="39.1076470" lon="1.5212560">
        <ele>17.7</ele>
        <time>2020-02-22T16:31:50Z</time>
      </trkpt>
      <trkpt lat="39.1076050" lon="1.5212840">
        <ele>17.7</ele>
        <time>2020-02-22T16:31:51Z</time>
      </trkpt>
      <trkpt lat="39.1075600" lon="1.5212960">
        <ele>17.8</ele>
        <time>2020-02-22T16:31:52Z</time>
      </trkpt>
      <trkpt lat="39.1075160" lon="1.5213050">
        <ele>18.0</ele>
        <time>2020-02-22T16:31:53Z</time>
      </trkpt>
      <trkpt lat="39.1074860" lon="1.5213160">
        <ele>18.1</ele>
        <time>2020-02-22T16:31:54Z</time>
      </trkpt>
      <trkpt lat="39.1074510" lon="1.5213010">
        <ele>18.3</ele>
        <time>2020-02-22T16:31:55Z</time>
      </trkpt>
      <trkpt lat="39.1074450" lon="1.5212960">
        <ele>18.3</ele>
        <time>2020-02-22T16:31:56Z</time>
      </trkpt>
      <trkpt lat="39.1074410" lon="1.5212870">
        <ele>18.4</ele>
        <time>2020-02-22T16:31:57Z</time>
      </trkpt>
      <trkpt lat="39.1074370" lon="1.5212680">
        <ele>18.5</ele>
        <time>2020-02-22T16:31:58Z</time>
      </trkpt>
      <trkpt lat="39.1074340" lon="1.5212600">
        <ele>18.5</ele>
        <time>2020-02-22T16:31:59Z</time>
      </trkpt>
      <trkpt lat="39.1074310" lon="1.5212600">
        <ele>18.5</ele>
        <time>2020-02-22T16:32:00Z</time>
      </trkpt>
      <trkpt lat="39.1074220" lon="1.5212680">
        <ele>18.6</ele>
        <time>2020-02-22T16:32:01Z</time>
      </trkpt>
      <trkpt lat="39.1074120" lon="1.5212700">
        <ele>18.6</ele>
        <time>2020-02-22T16:32:02Z</time>
      </trkpt>
      <trkpt lat="39.1074020" lon="1.5212710">
        <ele>18.7</ele>
        <time>2020-02-22T16:32:03Z</time>
      </trkpt>
      <trkpt lat="39.1073920" lon="1.5212770">
        <ele>18.8</ele>
        <time>2020-02-22T16:32:04Z</time>
      </trkpt>
      <trkpt lat="39.1073800" lon="1.5212730">
        <ele>18.9</ele>
        <time>2020-02-22T16:32:05Z</time>
      </trkpt>
      <trkpt lat="39.1073670" lon="1.5212700">
        <ele>19.0</ele>
        <time>2020-02-22T16:32:06Z</time>
      </trkpt>
      <trkpt lat="39.1073550" lon="1.5212670">
        <ele>19.0</ele>
        <time>2020-02-22T16:32:07Z</time>
      </trkpt>
      <trkpt lat="39.1073430" lon="1.5212640">
        <ele>19.1</ele>
        <time>2020-02-22T16:32:08Z</time>
      </trkpt>
      <trkpt lat="39.1073310" lon="1.5212600">
        <ele>19.2</ele>
        <time>2020-02-22T16:33:44Z</time>
      </trkpt>
      <trkpt lat="39.1073180" lon="1.5212570">
        <ele>19.3</ele>
        <time>2020-02-22T16:33:45Z</time>
      </trkpt>
      <trkpt lat="39.1073060" lon="1.5212540">
        <ele>19.4</ele>
        <time>2020-02-22T16:33:46Z</time>
      </trkpt>
      <trkpt lat="39.1072750" lon="1.5212320">
        <ele>19.6</ele>
        <time>2020-02-22T16:33:47Z</time>
      </trkpt>
      <trkpt lat="39.1072680" lon="1.5212260">
        <ele>19.7</ele>
        <time>2020-02-22T16:33:48Z</time>
      </trkpt>
      <trkpt lat="39.1072410" lon="1.5212090">
        <ele>19.9</ele>
        <time>2020-02-22T16:33:49Z</time>
      </trkpt>
      <trkpt lat="39.1072130" lon="1.5211780">
        <ele>20.2</ele>
        <time>2020-02-22T16:33:50Z</time>
      </trkpt>
      <trkpt lat="39.1071790" lon="1.5211590">
        <ele>20.4</ele>
        <time>2020-02-22T16:33:51Z</time>
      </trkpt>
      <trkpt lat="39.1071460" lon="1.5211410">
        <ele>20.6</ele>
        <time>2020-02-22T16:33:52Z</time>
      </trkpt>
      <trkpt lat="39.1071180" lon="1.5211270">
        <ele>20.8</ele>
        <time>2020-02-22T16:33:53Z</time>
      </trkpt>
      <trkpt lat="39.1070920" lon="1.5211080">
        <ele>21.0</ele>
        <time>2020-02-22T16:33:54Z</time>
      </trkpt>
      <trkpt lat="39.1070570" lon="1.5210850">
        <ele>21.2</ele>
        <time>2020-02-22T16:33:55Z</time>
      </trkpt>
      <trkpt lat="39.1070410" lon="1.5210780">
        <ele>21.3</ele>
        <time>2020-02-22T16:33:56Z</time>
      </trkpt>
      <trkpt lat="39.1070110" lon="1.5210630">
        <ele>21.5</ele>
        <time>2020-02-22T16:33:57Z</time>
      </trkpt>
      <trkpt lat="39.1069710" lon="1.5210400">
        <ele>21.7</ele>
        <time>2020-02-22T16:33:58Z</time>
      </trkpt>
      <trkpt lat="39.1069550" lon="1.5210320">
        <ele>21.8</ele>
        <time>2020-02-22T16:33:59Z</time>
      </trkpt>
      <trkpt lat="39.1069250" lon="1.5210010">
        <ele>22.0</ele>
        <time>2020-02-22T16:34:00Z</time>
      </trkpt>
      <trkpt lat="39.1068950" lon="1.5209850">
        <ele>22.2</ele>
        <time>2020-02-22T16:34:01Z</time>
      </trkpt>
      <trkpt lat="39.1068710" lon="1.5209550">
        <ele>22.3</ele>
        <time>2020-02-22T16:34:02Z</time>
      </trkpt>
      <trkpt lat="39.1068350" lon="1.5209430">
        <ele>22.5</ele>
        <time>2020-02-22T16:34:03Z</time>
      </trkpt>
      <trkpt lat="39.1068000" lon="1.5209110">
        <ele>22.8</ele>
        <time>2020-02-22T16:34:04Z</time>
      </trkpt>
      <trkpt lat="39.1067860" lon="1.5209000">
        <ele>22.8</ele>
        <time>2020-02-22T16:34:05Z</time>
      </trkpt>
      <trkpt lat="39.1067540" lon="1.5208780">
        <ele>23.0</ele>
        <time>2020-02-22T16:34:06Z</time>
      </trkpt>
      <trkpt lat="39.1067280" lon="1.5208520">
        <ele>23.2</ele>
        <time>2020-02-22T16:34:07Z</time>
      </trkpt>
      <trkpt lat="39.1066870" lon="1.5208250">
        <ele>23.5</ele>
        <time>2020-02-22T16:34:08Z</time>
      </trkpt>
      <trkpt lat="39.1066530" lon="1.5207940">
        <ele>23.7</ele>
        <time>2020-02-22T16:34:09Z</time>
      </trkpt>
      <trkpt lat="39.1066410" lon="1.5207810">
        <ele>23.8</ele>
        <time>2020-02-22T16:34:10Z</time>
      </trkpt>
      <trkpt lat="39.1066300" lon="1.5207390">
        <ele>24.0</ele>
        <time>2020-02-22T16:34:11Z</time>
      </trkpt>
      <trkpt lat="39.1066240" lon="1.5207270">
        <ele>24.1</ele>
        <time>2020-02-22T16:34:12Z</time>
      </trkpt>
      <trkpt lat="39.1066000" lon="1.5206910">
        <ele>24.3</ele>
        <time>2020-02-22T16:34:13Z</time>
      </trkpt>
      <trkpt lat="39.1065930" lon="1.5206790">
        <ele>24.4</ele>
        <time>2020-02-22T16:34:14Z</time>
      </trkpt>
      <trkpt lat="39.1065780" lon="1.5206410">
        <ele>24.6</ele>
        <time>2020-02-22T16:34:15Z</time>
      </trkpt>
      <trkpt lat="39.1065580" lon="1.5206010">
        <ele>24.9</ele>
        <time>2020-02-22T16:34:16Z</time>
      </trkpt>
      <trkpt lat="39.1065510" lon="1.5205880">
        <ele>24.9</ele>
        <time>2020-02-22T16:34:17Z</time>
      </trkpt>
      <trkpt lat="39.1065400" lon="1.5205450">
        <ele>25.2</ele>
        <time>2020-02-22T16:34:18Z</time>
      </trkpt>
      <trkpt lat="39.1065360" lon="1.5205250">
        <ele>25.5</ele>
        <time>2020-02-22T16:34:19Z</time>
      </trkpt>
      <trkpt lat="39.1065210" lon="1.5204840">
        <ele>25.6</ele>
        <time>2020-02-22T16:34:20Z</time>
      </trkpt>
      <trkpt lat="39.1065100" lon="1.5204390">
        <ele>25.7</ele>
        <time>2020-02-22T16:34:21Z</time>
      </trkpt>
      <trkpt lat="39.1065100" lon="1.5204230">
        <ele>25.7</ele>
        <time>2020-02-22T16:34:22Z</time>
      </trkpt>
      <trkpt lat="39.1065030" lon="1.5203810">
        <ele>25.8</ele>
        <time>2020-02-22T16:34:23Z</time>
      </trkpt>
      <trkpt lat="39.1065030" lon="1.5203680">
        <ele>25.8</ele>
        <time>2020-02-22T16:34:24Z</time>
      </trkpt>
      <trkpt lat="39.1064910" lon="1.5203320">
        <ele>26.0</ele>
        <time>2020-02-22T16:34:25Z</time>
      </trkpt>
      <trkpt lat="39.1064780" lon="1.5202840">
        <ele>26.1</ele>
        <time>2020-02-22T16:34:26Z</time>
      </trkpt>
      <trkpt lat="39.1064720" lon="1.5202670">
        <ele>26.2</ele>
        <time>2020-02-22T16:34:27Z</time>
      </trkpt>
      <trkpt lat="39.1064680" lon="1.5202330">
        <ele>26.3</ele>
        <time>2020-02-22T16:34:28Z</time>
      </trkpt>
      <trkpt lat="39.1064590" lon="1.5201960">
        <ele>26.5</ele>
        <time>2020-02-22T16:34:29Z</time>
      </trkpt>
      <trkpt lat="39.1064580" lon="1.5201610">
        <ele>26.7</ele>
        <time>2020-02-22T16:34:30Z</time>
      </trkpt>
      <trkpt lat="39.1064570" lon="1.5201420">
        <ele>26.7</ele>
        <time>2020-02-22T16:34:31Z</time>
      </trkpt>
      <trkpt lat="39.1064530" lon="1.5200810">
        <ele>27.0</ele>
        <time>2020-02-22T16:34:32Z</time>
      </trkpt>
      <trkpt lat="39.1064500" lon="1.5200530">
        <ele>27.1</ele>
        <time>2020-02-22T16:34:33Z</time>
      </trkpt>
      <trkpt lat="39.1064400" lon="1.5200120">
        <ele>27.2</ele>
        <time>2020-02-22T16:34:34Z</time>
      </trkpt>
      <trkpt lat="39.1064250" lon="1.5199700">
        <ele>27.3</ele>
        <time>2020-02-22T16:34:35Z</time>
      </trkpt>
      <trkpt lat="39.1064220" lon="1.5199560">
        <ele>27.4</ele>
        <time>2020-02-22T16:34:36Z</time>
      </trkpt>
      <trkpt lat="39.1064140" lon="1.5199300">
        <ele>27.4</ele>
        <time>2020-02-22T16:34:37Z</time>
      </trkpt>
      <trkpt lat="39.1064000" lon="1.5198940">
        <ele>27.5</ele>
        <time>2020-02-22T16:34:38Z</time>
      </trkpt>
      <trkpt lat="39.1063940" lon="1.5198800">
        <ele>27.5</ele>
        <time>2020-02-22T16:34:39Z</time>
      </trkpt>
      <trkpt lat="39.1063820" lon="1.5198460">
        <ele>27.6</ele>
        <time>2020-02-22T16:34:40Z</time>
      </trkpt>
      <trkpt lat="39.1063770" lon="1.5198110">
        <ele>27.7</ele>
        <time>2020-02-22T16:34:41Z</time>
      </trkpt>
      <trkpt lat="39.1063690" lon="1.5198010">
        <ele>27.7</ele>
        <time>2020-02-22T16:34:42Z</time>
      </trkpt>
      <trkpt lat="39.1063570" lon="1.5197650">
        <ele>27.8</ele>
        <time>2020-02-22T16:34:43Z</time>
      </trkpt>
      <trkpt lat="39.1063490" lon="1.5197190">
        <ele>27.9</ele>
        <time>2020-02-22T16:34:44Z</time>
      </trkpt>
      <trkpt lat="39.1063420" lon="1.5196820">
        <ele>28.0</ele>
        <time>2020-02-22T16:34:45Z</time>
      </trkpt>
      <trkpt lat="39.1063340" lon="1.5196290">
        <ele>28.2</ele>
        <time>2020-02-22T16:34:46Z</time>
      </trkpt>
      <trkpt lat="39.1063310" lon="1.5196100">
        <ele>28.3</ele>
        <time>2020-02-22T16:34:47Z</time>
      </trkpt>
      <trkpt lat="39.1063270" lon="1.5195710">
        <ele>28.4</ele>
        <time>2020-02-22T16:34:48Z</time>
      </trkpt>
      <trkpt lat="39.1063220" lon="1.5195180">
        <ele>28.6</ele>
        <time>2020-02-22T16:34:49Z</time>
      </trkpt>
      <trkpt lat="39.1063200" lon="1.5194990">
        <ele>28.6</ele>
        <time>2020-02-22T16:34:50Z</time>
      </trkpt>
      <trkpt lat="39.1063240" lon="1.5194470">
        <ele>28.7</ele>
        <time>2020-02-22T16:34:51Z</time>
      </trkpt>
      <trkpt lat="39.1063210" lon="1.5194270">
        <ele>28.7</ele>
        <time>2020-02-22T16:34:52Z</time>
      </trkpt>
      <trkpt lat="39.1063080" lon="1.5193910">
        <ele>28.7</ele>
        <time>2020-02-22T16:34:53Z</time>
      </trkpt>
      <trkpt lat="39.1063010" lon="1.5193370">
        <ele>28.7</ele>
        <time>2020-02-22T16:34:54Z</time>
      </trkpt>
      <trkpt lat="39.1062990" lon="1.5193160">
        <ele>28.8</ele>
        <time>2020-02-22T16:34:55Z</time>
      </trkpt>
      <trkpt lat="39.1062770" lon="1.5192660">
        <ele>28.9</ele>
        <time>2020-02-22T16:34:56Z</time>
      </trkpt>
      <trkpt lat="39.1062670" lon="1.5192460">
        <ele>28.9</ele>
        <time>2020-02-22T16:34:57Z</time>
      </trkpt>
      <trkpt lat="39.1062500" lon="1.5192060">
        <ele>29.0</ele>
        <time>2020-02-22T16:34:58Z</time>
      </trkpt>
      <trkpt lat="39.1062370" lon="1.5191650">
        <ele>29.1</ele>
        <time>2020-02-22T16:34:59Z</time>
      </trkpt>
      <trkpt lat="39.1062290" lon="1.5191190">
        <ele>29.2</ele>
        <time>2020-02-22T16:35:00Z</time>
      </trkpt>
      <trkpt lat="39.1062200" lon="1.5190710">
        <ele>29.3</ele>
        <time>2020-02-22T16:35:01Z</time>
      </trkpt>
      <trkpt lat="39.1062160" lon="1.5190230">
        <ele>29.4</ele>
        <time>2020-02-22T16:35:02Z</time>
      </trkpt>
      <trkpt lat="39.1062140" lon="1.5189780">
        <ele>29.4</ele>
        <time>2020-02-22T16:35:03Z</time>
      </trkpt>
      <trkpt lat="39.1062170" lon="1.5189360">
        <ele>29.5</ele>
        <time>2020-02-22T16:35:04Z</time>
      </trkpt>
      <trkpt lat="39.1062140" lon="1.5188890">
        <ele>29.5</ele>
        <time>2020-02-22T16:35:05Z</time>
      </trkpt>
      <trkpt lat="39.1062070" lon="1.5188490">
        <ele>29.6</ele>
        <time>2020-02-22T16:35:06Z</time>
      </trkpt>
      <trkpt lat="39.1061990" lon="1.5188100">
        <ele>29.6</ele>
        <time>2020-02-22T16:35:07Z</time>
      </trkpt>
      <trkpt lat="39.1061970" lon="1.5187660">
        <ele>29.7</ele>
        <time>2020-02-22T16:35:08Z</time>
      </trkpt>
      <trkpt lat="39.1061940" lon="1.5187200">
        <ele>29.7</ele>
        <time>2020-02-22T16:35:09Z</time>
      </trkpt>
      <trkpt lat="39.1061790" lon="1.5186740">
        <ele>29.8</ele>
        <time>2020-02-22T16:35:10Z</time>
      </trkpt>
      <trkpt lat="39.1061730" lon="1.5186540">
        <ele>29.9</ele>
        <time>2020-02-22T16:35:11Z</time>
      </trkpt>
      <trkpt lat="39.1061700" lon="1.5186140">
        <ele>30.0</ele>
        <time>2020-02-22T16:35:12Z</time>
      </trkpt>
      <trkpt lat="39.1061720" lon="1.5185750">
        <ele>30.1</ele>
        <time>2020-02-22T16:35:13Z</time>
      </trkpt>
      <trkpt lat="39.1061660" lon="1.5185380">
        <ele>30.2</ele>
        <time>2020-02-22T16:35:14Z</time>
      </trkpt>
      <trkpt lat="39.1061640" lon="1.5185000">
        <ele>30.4</ele>
        <time>2020-02-22T16:35:15Z</time>
      </trkpt>
      <trkpt lat="39.1061560" lon="1.5184610">
        <ele>30.5</ele>
        <time>2020-02-22T16:35:16Z</time>
      </trkpt>
      <trkpt lat="39.1061460" lon="1.5184260">
        <ele>30.6</ele>
        <time>2020-02-22T16:35:17Z</time>
      </trkpt>
      <trkpt lat="39.1061390" lon="1.5183860">
        <ele>30.8</ele>
        <time>2020-02-22T16:35:18Z</time>
      </trkpt>
      <trkpt lat="39.1061330" lon="1.5183440">
        <ele>30.9</ele>
        <time>2020-02-22T16:35:19Z</time>
      </trkpt>
      <trkpt lat="39.1061290" lon="1.5183010">
        <ele>31.1</ele>
        <time>2020-02-22T16:35:20Z</time>
      </trkpt>
      <trkpt lat="39.1061240" lon="1.5182570">
        <ele>31.2</ele>
        <time>2020-02-22T16:35:21Z</time>
      </trkpt>
      <trkpt lat="39.1061110" lon="1.5182240">
        <ele>31.4</ele>
        <time>2020-02-22T16:35:22Z</time>
      </trkpt>
      <trkpt lat="39.1060970" lon="1.5181760">
        <ele>31.5</ele>
        <time>2020-02-22T16:35:23Z</time>
      </trkpt>
      <trkpt lat="39.1060810" lon="1.5181300">
        <ele>31.6</ele>
        <time>2020-02-22T16:35:24Z</time>
      </trkpt>
      <trkpt lat="39.1060680" lon="1.5180850">
        <ele>31.7</ele>
        <time>2020-02-22T16:35:25Z</time>
      </trkpt>
      <trkpt lat="39.1060570" lon="1.5180420">
        <ele>31.8</ele>
        <time>2020-02-22T16:35:26Z</time>
      </trkpt>
      <trkpt lat="39.1060310" lon="1.5180100">
        <ele>31.9</ele>
        <time>2020-02-22T16:35:27Z</time>
      </trkpt>
      <trkpt lat="39.1060210" lon="1.5179700">
        <ele>31.9</ele>
        <time>2020-02-22T16:35:28Z</time>
      </trkpt>
      <trkpt lat="39.1060160" lon="1.5179270">
        <ele>32.0</ele>
        <time>2020-02-22T16:35:29Z</time>
      </trkpt>
      <trkpt lat="39.1060030" lon="1.5178880">
        <ele>32.0</ele>
        <time>2020-02-22T16:35:30Z</time>
      </trkpt>
      <trkpt lat="39.1059920" lon="1.5178450">
        <ele>32.0</ele>
        <time>2020-02-22T16:35:31Z</time>
      </trkpt>
      <trkpt lat="39.1059850" lon="1.5178060">
        <ele>32.1</ele>
        <time>2020-02-22T16:35:32Z</time>
      </trkpt>
      <trkpt lat="39.1059650" lon="1.5177670">
        <ele>32.1</ele>
        <time>2020-02-22T16:35:33Z</time>
      </trkpt>
      <trkpt lat="39.1059520" lon="1.5177310">
        <ele>32.2</ele>
        <time>2020-02-22T16:35:34Z</time>
      </trkpt>
      <trkpt lat="39.1059400" lon="1.5176930">
        <ele>32.3</ele>
        <time>2020-02-22T16:35:35Z</time>
      </trkpt>
      <trkpt lat="39.1059270" lon="1.5176540">
        <ele>32.4</ele>
        <time>2020-02-22T16:35:36Z</time>
      </trkpt>
      <trkpt lat="39.1059220" lon="1.5176190">
        <ele>32.5</ele>
        <time>2020-02-22T16:35:37Z</time>
      </trkpt>
      <trkpt lat="39.1059060" lon="1.5175850">
        <ele>32.6</ele>
        <time>2020-02-22T16:35:38Z</time>
      </trkpt>
      <trkpt lat="39.1058880" lon="1.5175510">
        <ele>32.7</ele>
        <time>2020-02-22T16:35:39Z</time>
      </trkpt>
      <trkpt lat="39.1058720" lon="1.5175180">
        <ele>32.8</ele>
        <time>2020-02-22T16:35:40Z</time>
      </trkpt>
      <trkpt lat="39.1058530" lon="1.5174900">
        <ele>32.9</ele>
        <time>2020-02-22T16:35:41Z</time>
      </trkpt>
      <trkpt lat="39.1058410" lon="1.5174420">
        <ele>33.1</ele>
        <time>2020-02-22T16:35:42Z</time>
      </trkpt>
      <trkpt lat="39.1058360" lon="1.5174260">
        <ele>33.1</ele>
        <time>2020-02-22T16:35:43Z</time>
      </trkpt>
      <trkpt lat="39.1058210" lon="1.5173970">
        <ele>33.2</ele>
        <time>2020-02-22T16:35:44Z</time>
      </trkpt>
      <trkpt lat="39.1057960" lon="1.5173580">
        <ele>33.4</ele>
        <time>2020-02-22T16:35:45Z</time>
      </trkpt>
      <trkpt lat="39.1057880" lon="1.5173440">
        <ele>33.5</ele>
        <time>2020-02-22T16:35:46Z</time>
      </trkpt>
      <trkpt lat="39.1057700" lon="1.5173130">
        <ele>33.6</ele>
        <time>2020-02-22T16:35:47Z</time>
      </trkpt>
      <trkpt lat="39.1057520" lon="1.5172770">
        <ele>33.8</ele>
        <time>2020-02-22T16:35:48Z</time>
      </trkpt>
      <trkpt lat="39.1057350" lon="1.5172500">
        <ele>33.9</ele>
        <time>2020-02-22T16:35:49Z</time>
      </trkpt>
      <trkpt lat="39.1057170" lon="1.5172050">
        <ele>34.0</ele>
        <time>2020-02-22T16:35:50Z</time>
      </trkpt>
      <trkpt lat="39.1057120" lon="1.5171880">
        <ele>34.0</ele>
        <time>2020-02-22T16:35:51Z</time>
      </trkpt>
      <trkpt lat="39.1057010" lon="1.5171390">
        <ele>34.1</ele>
        <time>2020-02-22T16:35:52Z</time>
      </trkpt>
      <trkpt lat="39.1056830" lon="1.5171060">
        <ele>34.2</ele>
        <time>2020-02-22T16:35:53Z</time>
      </trkpt>
      <trkpt lat="39.1056660" lon="1.5170640">
        <ele>34.3</ele>
        <time>2020-02-22T16:35:54Z</time>
      </trkpt>
      <trkpt lat="39.1056610" lon="1.5170490">
        <ele>34.3</ele>
        <time>2020-02-22T16:35:55Z</time>
      </trkpt>
      <trkpt lat="39.1056490" lon="1.5170150">
        <ele>34.3</ele>
        <time>2020-02-22T16:35:56Z</time>
      </trkpt>
      <trkpt lat="39.1056340" lon="1.5169780">
        <ele>34.3</ele>
        <time>2020-02-22T16:35:57Z</time>
      </trkpt>
      <trkpt lat="39.1056260" lon="1.5169350">
        <ele>34.4</ele>
        <time>2020-02-22T16:35:58Z</time>
      </trkpt>
      <trkpt lat="39.1056020" lon="1.5168950">
        <ele>34.4</ele>
        <time>2020-02-22T16:35:59Z</time>
      </trkpt>
      <trkpt lat="39.1055700" lon="1.5168650">
        <ele>34.4</ele>
        <time>2020-02-22T16:36:00Z</time>
      </trkpt>
      <trkpt lat="39.1055480" lon="1.5168290">
        <ele>34.4</ele>
        <time>2020-02-22T16:36:01Z</time>
      </trkpt>
      <trkpt lat="39.1055210" lon="1.5167900">
        <ele>34.3</ele>
        <time>2020-02-22T16:36:02Z</time>
      </trkpt>
      <trkpt lat="39.1054930" lon="1.5167470">
        <ele>34.3</ele>
        <time>2020-02-22T16:36:03Z</time>
      </trkpt>
      <trkpt lat="39.1054670" lon="1.5167000">
        <ele>34.3</ele>
        <time>2020-02-22T16:36:04Z</time>
      </trkpt>
      <trkpt lat="39.1054450" lon="1.5166570">
        <ele>34.3</ele>
        <time>2020-02-22T16:36:05Z</time>
      </trkpt>
      <trkpt lat="39.1054270" lon="1.5166020">
        <ele>34.3</ele>
        <time>2020-02-22T16:36:06Z</time>
      </trkpt>
      <trkpt lat="39.1054060" lon="1.5165540">
        <ele>34.3</ele>
        <time>2020-02-22T16:36:07Z</time>
      </trkpt>
      <trkpt lat="39.1053790" lon="1.5164960">
        <ele>34.4</ele>
        <time>2020-02-22T16:36:08Z</time>
      </trkpt>
      <trkpt lat="39.1053620" lon="1.5164450">
        <ele>34.4</ele>
        <time>2020-02-22T16:36:09Z</time>
      </trkpt>
      <trkpt lat="39.1053450" lon="1.5163960">
        <ele>34.5</ele>
        <time>2020-02-22T16:36:10Z</time>
      </trkpt>
      <trkpt lat="39.1053310" lon="1.5163420">
        <ele>34.5</ele>
        <time>2020-02-22T16:36:11Z</time>
      </trkpt>
      <trkpt lat="39.1053170" lon="1.5162860">
        <ele>34.6</ele>
        <time>2020-02-22T16:36:12Z</time>
      </trkpt>
      <trkpt lat="39.1053010" lon="1.5162270">
        <ele>34.7</ele>
        <time>2020-02-22T16:36:13Z</time>
      </trkpt>
      <trkpt lat="39.1052910" lon="1.5161770">
        <ele>34.8</ele>
        <time>2020-02-22T16:36:14Z</time>
      </trkpt>
      <trkpt lat="39.1052830" lon="1.5161190">
        <ele>34.9</ele>
        <time>2020-02-22T16:36:15Z</time>
      </trkpt>
      <trkpt lat="39.1052750" lon="1.5160590">
        <ele>35.1</ele>
        <time>2020-02-22T16:36:16Z</time>
      </trkpt>
      <trkpt lat="39.1052640" lon="1.5159960">
        <ele>35.2</ele>
        <time>2020-02-22T16:36:17Z</time>
      </trkpt>
      <trkpt lat="39.1052450" lon="1.5159380">
        <ele>35.4</ele>
        <time>2020-02-22T16:36:18Z</time>
      </trkpt>
      <trkpt lat="39.1052300" lon="1.5158790">
        <ele>35.5</ele>
        <time>2020-02-22T16:36:19Z</time>
      </trkpt>
      <trkpt lat="39.1052180" lon="1.5158230">
        <ele>35.6</ele>
        <time>2020-02-22T16:36:20Z</time>
      </trkpt>
      <trkpt lat="39.1052050" lon="1.5157660">
        <ele>35.6</ele>
        <time>2020-02-22T16:36:21Z</time>
      </trkpt>
      <trkpt lat="39.1051960" lon="1.5157120">
        <ele>35.7</ele>
        <time>2020-02-22T16:36:22Z</time>
      </trkpt>
      <trkpt lat="39.1051840" lon="1.5156570">
        <ele>35.7</ele>
        <time>2020-02-22T16:36:23Z</time>
      </trkpt>
      <trkpt lat="39.1051660" lon="1.5156120">
        <ele>35.8</ele>
        <time>2020-02-22T16:36:24Z</time>
      </trkpt>
      <trkpt lat="39.1051530" lon="1.5155570">
        <ele>35.8</ele>
        <time>2020-02-22T16:36:25Z</time>
      </trkpt>
      <trkpt lat="39.1051420" lon="1.5154910">
        <ele>35.8</ele>
        <time>2020-02-22T16:36:26Z</time>
      </trkpt>
      <trkpt lat="39.1051320" lon="1.5154270">
        <ele>35.8</ele>
        <time>2020-02-22T16:36:27Z</time>
      </trkpt>
      <trkpt lat="39.1051230" lon="1.5153690">
        <ele>35.8</ele>
        <time>2020-02-22T16:36:28Z</time>
      </trkpt>
      <trkpt lat="39.1051110" lon="1.5153220">
        <ele>35.8</ele>
        <time>2020-02-22T16:36:29Z</time>
      </trkpt>
      <trkpt lat="39.1051080" lon="1.5152460">
        <ele>35.8</ele>
        <time>2020-02-22T16:36:30Z</time>
      </trkpt>
      <trkpt lat="39.1050920" lon="1.5151790">
        <ele>35.8</ele>
        <time>2020-02-22T16:36:31Z</time>
      </trkpt>
      <trkpt lat="39.1050680" lon="1.5151140">
        <ele>35.8</ele>
        <time>2020-02-22T16:36:32Z</time>
      </trkpt>
      <trkpt lat="39.1050490" lon="1.5150530">
        <ele>35.8</ele>
        <time>2020-02-22T16:36:33Z</time>
      </trkpt>
      <trkpt lat="39.1050390" lon="1.5149950">
        <ele>35.8</ele>
        <time>2020-02-22T16:36:34Z</time>
      </trkpt>
      <trkpt lat="39.1050300" lon="1.5149380">
        <ele>35.8</ele>
        <time>2020-02-22T16:36:35Z</time>
      </trkpt>
      <trkpt lat="39.1050250" lon="1.5148790">
        <ele>35.8</ele>
        <time>2020-02-22T16:36:36Z</time>
      </trkpt>
      <trkpt lat="39.1050160" lon="1.5148150">
        <ele>35.7</ele>
        <time>2020-02-22T16:36:37Z</time>
      </trkpt>
      <trkpt lat="39.1050070" lon="1.5147420">
        <ele>35.7</ele>
        <time>2020-02-22T16:36:38Z</time>
      </trkpt>
      <trkpt lat="39.1049910" lon="1.5146720">
        <ele>35.7</ele>
        <time>2020-02-22T16:36:39Z</time>
      </trkpt>
      <trkpt lat="39.1049700" lon="1.5146000">
        <ele>35.6</ele>
        <time>2020-02-22T16:36:40Z</time>
      </trkpt>
      <trkpt lat="39.1049480" lon="1.5145270">
        <ele>35.5</ele>
        <time>2020-02-22T16:36:41Z</time>
      </trkpt>
      <trkpt lat="39.1049370" lon="1.5144630">
        <ele>35.4</ele>
        <time>2020-02-22T16:36:42Z</time>
      </trkpt>
      <trkpt lat="39.1049170" lon="1.5144060">
        <ele>35.4</ele>
        <time>2020-02-22T16:36:43Z</time>
      </trkpt>
      <trkpt lat="39.1048980" lon="1.5143460">
        <ele>35.4</ele>
        <time>2020-02-22T16:36:44Z</time>
      </trkpt>
      <trkpt lat="39.1048850" lon="1.5142880">
        <ele>35.4</ele>
        <time>2020-02-22T16:36:45Z</time>
      </trkpt>
      <trkpt lat="39.1048800" lon="1.5142180">
        <ele>35.5</ele>
        <time>2020-02-22T16:36:46Z</time>
      </trkpt>
      <trkpt lat="39.1048710" lon="1.5141640">
        <ele>35.6</ele>
        <time>2020-02-22T16:36:47Z</time>
      </trkpt>
      <trkpt lat="39.1048570" lon="1.5141060">
        <ele>35.7</ele>
        <time>2020-02-22T16:36:48Z</time>
      </trkpt>
      <trkpt lat="39.1048440" lon="1.5140500">
        <ele>35.9</ele>
        <time>2020-02-22T16:36:49Z</time>
      </trkpt>
      <trkpt lat="39.1048350" lon="1.5139950">
        <ele>36.0</ele>
        <time>2020-02-22T16:36:50Z</time>
      </trkpt>
      <trkpt lat="39.1048260" lon="1.5139460">
        <ele>36.2</ele>
        <time>2020-02-22T16:36:51Z</time>
      </trkpt>
      <trkpt lat="39.1048170" lon="1.5138910">
        <ele>36.4</ele>
        <time>2020-02-22T16:36:52Z</time>
      </trkpt>
      <trkpt lat="39.1048130" lon="1.5138280">
        <ele>36.6</ele>
        <time>2020-02-22T16:36:53Z</time>
      </trkpt>
      <trkpt lat="39.1048080" lon="1.5137790">
        <ele>36.7</ele>
        <time>2020-02-22T16:36:54Z</time>
      </trkpt>
      <trkpt lat="39.1047990" lon="1.5137350">
        <ele>36.9</ele>
        <time>2020-02-22T16:36:55Z</time>
      </trkpt>
      <trkpt lat="39.1047880" lon="1.5137000">
        <ele>37.1</ele>
        <time>2020-02-22T16:36:56Z</time>
      </trkpt>
      <trkpt lat="39.1047760" lon="1.5136640">
        <ele>37.2</ele>
        <time>2020-02-22T16:36:57Z</time>
      </trkpt>
      <trkpt lat="39.1047700" lon="1.5136230">
        <ele>37.5</ele>
        <time>2020-02-22T16:36:58Z</time>
      </trkpt>
      <trkpt lat="39.1047620" lon="1.5135890">
        <ele>37.6</ele>
        <time>2020-02-22T16:36:59Z</time>
      </trkpt>
      <trkpt lat="39.1047570" lon="1.5135470">
        <ele>37.8</ele>
        <time>2020-02-22T16:37:00Z</time>
      </trkpt>
      <trkpt lat="39.1047500" lon="1.5134950">
        <ele>38.1</ele>
        <time>2020-02-22T16:37:01Z</time>
      </trkpt>
      <trkpt lat="39.1047430" lon="1.5134540">
        <ele>38.3</ele>
        <time>2020-02-22T16:37:02Z</time>
      </trkpt>
      <trkpt lat="39.1047410" lon="1.5134190">
        <ele>38.5</ele>
        <time>2020-02-22T16:37:03Z</time>
      </trkpt>
      <trkpt lat="39.1047320" lon="1.5133720">
        <ele>38.7</ele>
        <time>2020-02-22T16:37:04Z</time>
      </trkpt>
      <trkpt lat="39.1047300" lon="1.5133520">
        <ele>38.8</ele>
        <time>2020-02-22T16:37:05Z</time>
      </trkpt>
      <trkpt lat="39.1047240" lon="1.5133100">
        <ele>39.1</ele>
        <time>2020-02-22T16:37:06Z</time>
      </trkpt>
      <trkpt lat="39.1047170" lon="1.5132670">
        <ele>39.3</ele>
        <time>2020-02-22T16:37:07Z</time>
      </trkpt>
      <trkpt lat="39.1047070" lon="1.5132340">
        <ele>39.4</ele>
        <time>2020-02-22T16:37:08Z</time>
      </trkpt>
      <trkpt lat="39.1047010" lon="1.5131930">
        <ele>39.6</ele>
        <time>2020-02-22T16:37:09Z</time>
      </trkpt>
      <trkpt lat="39.1047050" lon="1.5131820">
        <ele>39.7</ele>
        <time>2020-02-22T16:37:10Z</time>
      </trkpt>
      <trkpt lat="39.1046990" lon="1.5131490">
        <ele>39.9</ele>
        <time>2020-02-22T16:37:11Z</time>
      </trkpt>
      <trkpt lat="39.1046900" lon="1.5131030">
        <ele>40.1</ele>
        <time>2020-02-22T16:37:12Z</time>
      </trkpt>
      <trkpt lat="39.1046740" lon="1.5130690">
        <ele>40.3</ele>
        <time>2020-02-22T16:37:13Z</time>
      </trkpt>
      <trkpt lat="39.1046590" lon="1.5130380">
        <ele>40.5</ele>
        <time>2020-02-22T16:37:14Z</time>
      </trkpt>
      <trkpt lat="39.1046450" lon="1.5129880">
        <ele>40.8</ele>
        <time>2020-02-22T16:37:15Z</time>
      </trkpt>
      <trkpt lat="39.1046400" lon="1.5129690">
        <ele>40.9</ele>
        <time>2020-02-22T16:37:16Z</time>
      </trkpt>
      <trkpt lat="39.1046150" lon="1.5129440">
        <ele>41.1</ele>
        <time>2020-02-22T16:37:17Z</time>
      </trkpt>
      <trkpt lat="39.1045970" lon="1.5129020">
        <ele>41.3</ele>
        <time>2020-02-22T16:37:18Z</time>
      </trkpt>
      <trkpt lat="39.1045760" lon="1.5128650">
        <ele>41.6</ele>
        <time>2020-02-22T16:37:19Z</time>
      </trkpt>
      <trkpt lat="39.1045530" lon="1.5128230">
        <ele>41.8</ele>
        <time>2020-02-22T16:37:20Z</time>
      </trkpt>
      <trkpt lat="39.1045370" lon="1.5127890">
        <ele>42.1</ele>
        <time>2020-02-22T16:37:21Z</time>
      </trkpt>
      <trkpt lat="39.1045240" lon="1.5127540">
        <ele>42.2</ele>
        <time>2020-02-22T16:37:22Z</time>
      </trkpt>
      <trkpt lat="39.1045060" lon="1.5127180">
        <ele>42.3</ele>
        <time>2020-02-22T16:37:23Z</time>
      </trkpt>
      <trkpt lat="39.1044930" lon="1.5126830">
        <ele>42.5</ele>
        <time>2020-02-22T16:37:24Z</time>
      </trkpt>
      <trkpt lat="39.1044720" lon="1.5126520">
        <ele>42.6</ele>
        <time>2020-02-22T16:37:25Z</time>
      </trkpt>
      <trkpt lat="39.1044440" lon="1.5126130">
        <ele>42.8</ele>
        <time>2020-02-22T16:37:26Z</time>
      </trkpt>
      <trkpt lat="39.1044320" lon="1.5126010">
        <ele>42.9</ele>
        <time>2020-02-22T16:37:27Z</time>
      </trkpt>
      <trkpt lat="39.1044050" lon="1.5125740">
        <ele>43.1</ele>
        <time>2020-02-22T16:37:28Z</time>
      </trkpt>
      <trkpt lat="39.1043850" lon="1.5125400">
        <ele>43.2</ele>
        <time>2020-02-22T16:37:29Z</time>
      </trkpt>
      <trkpt lat="39.1043660" lon="1.5125100">
        <ele>43.4</ele>
        <time>2020-02-22T16:37:30Z</time>
      </trkpt>
      <trkpt lat="39.1043460" lon="1.5124720">
        <ele>43.6</ele>
        <time>2020-02-22T16:37:31Z</time>
      </trkpt>
      <trkpt lat="39.1043260" lon="1.5124380">
        <ele>43.8</ele>
        <time>2020-02-22T16:37:32Z</time>
      </trkpt>
      <trkpt lat="39.1043070" lon="1.5124090">
        <ele>43.9</ele>
        <time>2020-02-22T16:37:33Z</time>
      </trkpt>
      <trkpt lat="39.1042910" lon="1.5123660">
        <ele>44.1</ele>
        <time>2020-02-22T16:37:34Z</time>
      </trkpt>
      <trkpt lat="39.1042670" lon="1.5123320">
        <ele>44.3</ele>
        <time>2020-02-22T16:37:35Z</time>
      </trkpt>
      <trkpt lat="39.1042570" lon="1.5122970">
        <ele>44.4</ele>
        <time>2020-02-22T16:37:36Z</time>
      </trkpt>
      <trkpt lat="39.1042380" lon="1.5122580">
        <ele>44.5</ele>
        <time>2020-02-22T16:37:37Z</time>
      </trkpt>
      <trkpt lat="39.1042240" lon="1.5122250">
        <ele>44.6</ele>
        <time>2020-02-22T16:37:38Z</time>
      </trkpt>
      <trkpt lat="39.1041990" lon="1.5121940">
        <ele>44.7</ele>
        <time>2020-02-22T16:37:39Z</time>
      </trkpt>
      <trkpt lat="39.1041820" lon="1.5121550">
        <ele>44.8</ele>
        <time>2020-02-22T16:37:40Z</time>
      </trkpt>
      <trkpt lat="39.1041610" lon="1.5121270">
        <ele>44.9</ele>
        <time>2020-02-22T16:37:41Z</time>
      </trkpt>
      <trkpt lat="39.1041450" lon="1.5120920">
        <ele>45.0</ele>
        <time>2020-02-22T16:37:42Z</time>
      </trkpt>
      <trkpt lat="39.1041240" lon="1.5120560">
        <ele>45.1</ele>
        <time>2020-02-22T16:37:43Z</time>
      </trkpt>
      <trkpt lat="39.1041070" lon="1.5120170">
        <ele>45.2</ele>
        <time>2020-02-22T16:37:44Z</time>
      </trkpt>
      <trkpt lat="39.1040940" lon="1.5119790">
        <ele>45.3</ele>
        <time>2020-02-22T16:37:45Z</time>
      </trkpt>
      <trkpt lat="39.1040800" lon="1.5119460">
        <ele>45.4</ele>
        <time>2020-02-22T16:37:46Z</time>
      </trkpt>
      <trkpt lat="39.1040710" lon="1.5119050">
        <ele>45.4</ele>
        <time>2020-02-22T16:37:47Z</time>
      </trkpt>
      <trkpt lat="39.1040540" lon="1.5118670">
        <ele>45.6</ele>
        <time>2020-02-22T16:37:48Z</time>
      </trkpt>
      <trkpt lat="39.1040350" lon="1.5118160">
        <ele>45.7</ele>
        <time>2020-02-22T16:37:49Z</time>
      </trkpt>
      <trkpt lat="39.1040280" lon="1.5117960">
        <ele>45.7</ele>
        <time>2020-02-22T16:37:50Z</time>
      </trkpt>
      <trkpt lat="39.1040110" lon="1.5117610">
        <ele>45.8</ele>
        <time>2020-02-22T16:37:51Z</time>
      </trkpt>
      <trkpt lat="39.1039920" lon="1.5117350">
        <ele>45.9</ele>
        <time>2020-02-22T16:37:52Z</time>
      </trkpt>
      <trkpt lat="39.1039790" lon="1.5117030">
        <ele>46.0</ele>
        <time>2020-02-22T16:37:53Z</time>
      </trkpt>
      <trkpt lat="39.1039700" lon="1.5116680">
        <ele>46.1</ele>
        <time>2020-02-22T16:37:54Z</time>
      </trkpt>
      <trkpt lat="39.1039570" lon="1.5116310">
        <ele>46.2</ele>
        <time>2020-02-22T16:37:55Z</time>
      </trkpt>
      <trkpt lat="39.1039440" lon="1.5115920">
        <ele>46.3</ele>
        <time>2020-02-22T16:37:56Z</time>
      </trkpt>
      <trkpt lat="39.1039220" lon="1.5115520">
        <ele>46.5</ele>
        <time>2020-02-22T16:37:57Z</time>
      </trkpt>
      <trkpt lat="39.1039060" lon="1.5115160">
        <ele>46.4</ele>
        <time>2020-02-22T16:37:58Z</time>
      </trkpt>
      <trkpt lat="39.1038920" lon="1.5114800">
        <ele>46.4</ele>
        <time>2020-02-22T16:37:59Z</time>
      </trkpt>
      <trkpt lat="39.1038730" lon="1.5114350">
        <ele>46.3</ele>
        <time>2020-02-22T16:38:00Z</time>
      </trkpt>
      <trkpt lat="39.1038590" lon="1.5113960">
        <ele>46.2</ele>
        <time>2020-02-22T16:38:01Z</time>
      </trkpt>
      <trkpt lat="39.1038440" lon="1.5113480">
        <ele>46.1</ele>
        <time>2020-02-22T16:38:02Z</time>
      </trkpt>
      <trkpt lat="39.1038390" lon="1.5113280">
        <ele>46.1</ele>
        <time>2020-02-22T16:38:03Z</time>
      </trkpt>
      <trkpt lat="39.1038220" lon="1.5112950">
        <ele>46.0</ele>
        <time>2020-02-22T16:38:04Z</time>
      </trkpt>
      <trkpt lat="39.1038080" lon="1.5112640">
        <ele>45.9</ele>
        <time>2020-02-22T16:38:05Z</time>
      </trkpt>
      <trkpt lat="39.1037920" lon="1.5112320">
        <ele>45.9</ele>
        <time>2020-02-22T16:38:06Z</time>
      </trkpt>
      <trkpt lat="39.1037680" lon="1.5112010">
        <ele>45.8</ele>
        <time>2020-02-22T16:38:07Z</time>
      </trkpt>
      <trkpt lat="39.1037480" lon="1.5111500">
        <ele>45.7</ele>
        <time>2020-02-22T16:38:08Z</time>
      </trkpt>
      <trkpt lat="39.1037240" lon="1.5111180">
        <ele>45.6</ele>
        <time>2020-02-22T16:38:09Z</time>
      </trkpt>
      <trkpt lat="39.1036970" lon="1.5110790">
        <ele>45.6</ele>
        <time>2020-02-22T16:38:10Z</time>
      </trkpt>
      <trkpt lat="39.1036860" lon="1.5110650">
        <ele>45.6</ele>
        <time>2020-02-22T16:38:11Z</time>
      </trkpt>
      <trkpt lat="39.1036660" lon="1.5110290">
        <ele>45.6</ele>
        <time>2020-02-22T16:38:12Z</time>
      </trkpt>
      <trkpt lat="39.1036430" lon="1.5109970">
        <ele>45.5</ele>
        <time>2020-02-22T16:38:13Z</time>
      </trkpt>
      <trkpt lat="39.1036180" lon="1.5109520">
        <ele>45.4</ele>
        <time>2020-02-22T16:38:14Z</time>
      </trkpt>
      <trkpt lat="39.1035950" lon="1.5109160">
        <ele>45.3</ele>
        <time>2020-02-22T16:38:15Z</time>
      </trkpt>
      <trkpt lat="39.1035730" lon="1.5108730">
        <ele>45.1</ele>
        <time>2020-02-22T16:38:16Z</time>
      </trkpt>
      <trkpt lat="39.1035490" lon="1.5108360">
        <ele>45.1</ele>
        <time>2020-02-22T16:38:17Z</time>
      </trkpt>
      <trkpt lat="39.1035250" lon="1.5108000">
        <ele>45.0</ele>
        <time>2020-02-22T16:38:18Z</time>
      </trkpt>
      <trkpt lat="39.1034960" lon="1.5107580">
        <ele>44.8</ele>
        <time>2020-02-22T16:38:19Z</time>
      </trkpt>
      <trkpt lat="39.1034720" lon="1.5107150">
        <ele>44.7</ele>
        <time>2020-02-22T16:38:20Z</time>
      </trkpt>
      <trkpt lat="39.1034500" lon="1.5106600">
        <ele>44.6</ele>
        <time>2020-02-22T16:38:21Z</time>
      </trkpt>
      <trkpt lat="39.1034250" lon="1.5106100">
        <ele>44.5</ele>
        <time>2020-02-22T16:38:22Z</time>
      </trkpt>
      <trkpt lat="39.1033960" lon="1.5105630">
        <ele>44.3</ele>
        <time>2020-02-22T16:38:23Z</time>
      </trkpt>
      <trkpt lat="39.1033660" lon="1.5104970">
        <ele>44.2</ele>
        <time>2020-02-22T16:38:24Z</time>
      </trkpt>
      <trkpt lat="39.1033370" lon="1.5104510">
        <ele>44.0</ele>
        <time>2020-02-22T16:38:25Z</time>
      </trkpt>
      <trkpt lat="39.1032790" lon="1.5104330">
        <ele>43.9</ele>
        <time>2020-02-22T16:38:26Z</time>
      </trkpt>
      <trkpt lat="39.1032190" lon="1.5104220">
        <ele>43.7</ele>
        <time>2020-02-22T16:38:27Z</time>
      </trkpt>
      <trkpt lat="39.1031550" lon="1.5104060">
        <ele>43.5</ele>
        <time>2020-02-22T16:38:28Z</time>
      </trkpt>
      <trkpt lat="39.1030900" lon="1.5104110">
        <ele>43.3</ele>
        <time>2020-02-22T16:38:29Z</time>
      </trkpt>
      <trkpt lat="39.1030240" lon="1.5104230">
        <ele>43.2</ele>
        <time>2020-02-22T16:38:30Z</time>
      </trkpt>
      <trkpt lat="39.1029580" lon="1.5104510">
        <ele>43.0</ele>
        <time>2020-02-22T16:38:31Z</time>
      </trkpt>
      <trkpt lat="39.1028930" lon="1.5104710">
        <ele>43.0</ele>
        <time>2020-02-22T16:38:32Z</time>
      </trkpt>
      <trkpt lat="39.1028340" lon="1.5104970">
        <ele>42.9</ele>
        <time>2020-02-22T16:38:33Z</time>
      </trkpt>
      <trkpt lat="39.1027750" lon="1.5105150">
        <ele>42.8</ele>
        <time>2020-02-22T16:38:34Z</time>
      </trkpt>
      <trkpt lat="39.1027100" lon="1.5105320">
        <ele>42.7</ele>
        <time>2020-02-22T16:38:35Z</time>
      </trkpt>
      <trkpt lat="39.1026330" lon="1.5105500">
        <ele>42.6</ele>
        <time>2020-02-22T16:38:36Z</time>
      </trkpt>
      <trkpt lat="39.1025690" lon="1.5105720">
        <ele>42.5</ele>
        <time>2020-02-22T16:38:37Z</time>
      </trkpt>
      <trkpt lat="39.1025100" lon="1.5105990">
        <ele>42.4</ele>
        <time>2020-02-22T16:38:38Z</time>
      </trkpt>
      <trkpt lat="39.1024500" lon="1.5106180">
        <ele>42.4</ele>
        <time>2020-02-22T16:38:39Z</time>
      </trkpt>
      <trkpt lat="39.1023860" lon="1.5106440">
        <ele>42.3</ele>
        <time>2020-02-22T16:38:40Z</time>
      </trkpt>
      <trkpt lat="39.1023250" lon="1.5106480">
        <ele>42.2</ele>
        <time>2020-02-22T16:38:41Z</time>
      </trkpt>
      <trkpt lat="39.1022690" lon="1.5106620">
        <ele>42.2</ele>
        <time>2020-02-22T16:38:42Z</time>
      </trkpt>
      <trkpt lat="39.1022110" lon="1.5106750">
        <ele>42.2</ele>
        <time>2020-02-22T16:38:43Z</time>
      </trkpt>
      <trkpt lat="39.1021440" lon="1.5106860">
        <ele>42.3</ele>
        <time>2020-02-22T16:38:44Z</time>
      </trkpt>
      <trkpt lat="39.1020740" lon="1.5107030">
        <ele>42.3</ele>
        <time>2020-02-22T16:38:45Z</time>
      </trkpt>
      <trkpt lat="39.1020130" lon="1.5107240">
        <ele>42.5</ele>
        <time>2020-02-22T16:38:46Z</time>
      </trkpt>
      <trkpt lat="39.1019460" lon="1.5107450">
        <ele>42.7</ele>
        <time>2020-02-22T16:38:47Z</time>
      </trkpt>
      <trkpt lat="39.1018900" lon="1.5107630">
        <ele>42.8</ele>
        <time>2020-02-22T16:38:48Z</time>
      </trkpt>
      <trkpt lat="39.1018380" lon="1.5107790">
        <ele>43.1</ele>
        <time>2020-02-22T16:38:49Z</time>
      </trkpt>
      <trkpt lat="39.1017730" lon="1.5107940">
        <ele>43.4</ele>
        <time>2020-02-22T16:38:50Z</time>
      </trkpt>
      <trkpt lat="39.1017270" lon="1.5108060">
        <ele>43.5</ele>
        <time>2020-02-22T16:38:51Z</time>
      </trkpt>
      <trkpt lat="39.1016770" lon="1.5108180">
        <ele>43.7</ele>
        <time>2020-02-22T16:38:52Z</time>
      </trkpt>
      <trkpt lat="39.1016230" lon="1.5108350">
        <ele>43.8</ele>
        <time>2020-02-22T16:38:53Z</time>
      </trkpt>
      <trkpt lat="39.1015670" lon="1.5108480">
        <ele>44.0</ele>
        <time>2020-02-22T16:38:54Z</time>
      </trkpt>
      <trkpt lat="39.1015080" lon="1.5108470">
        <ele>44.1</ele>
        <time>2020-02-22T16:38:55Z</time>
      </trkpt>
      <trkpt lat="39.1014530" lon="1.5108580">
        <ele>44.3</ele>
        <time>2020-02-22T16:38:56Z</time>
      </trkpt>
      <trkpt lat="39.1014000" lon="1.5108740">
        <ele>44.4</ele>
        <time>2020-02-22T16:38:57Z</time>
      </trkpt>
      <trkpt lat="39.1013520" lon="1.5108850">
        <ele>44.4</ele>
        <time>2020-02-22T16:38:58Z</time>
      </trkpt>
      <trkpt lat="39.1013110" lon="1.5108940">
        <ele>44.4</ele>
        <time>2020-02-22T16:38:59Z</time>
      </trkpt>
      <trkpt lat="39.1012560" lon="1.5109080">
        <ele>44.4</ele>
        <time>2020-02-22T16:39:00Z</time>
      </trkpt>
      <trkpt lat="39.1012000" lon="1.5109210">
        <ele>44.4</ele>
        <time>2020-02-22T16:39:01Z</time>
      </trkpt>
      <trkpt lat="39.1011520" lon="1.5109320">
        <ele>44.4</ele>
        <time>2020-02-22T16:39:02Z</time>
      </trkpt>
      <trkpt lat="39.1011020" lon="1.5109440">
        <ele>44.4</ele>
        <time>2020-02-22T16:39:03Z</time>
      </trkpt>
      <trkpt lat="39.1010730" lon="1.5109500">
        <ele>44.4</ele>
        <time>2020-02-22T16:39:04Z</time>
      </trkpt>
      <trkpt lat="39.1010240" lon="1.5109600">
        <ele>44.5</ele>
        <time>2020-02-22T16:39:05Z</time>
      </trkpt>
      <trkpt lat="39.1009900" lon="1.5109640">
        <ele>44.5</ele>
        <time>2020-02-22T16:39:06Z</time>
      </trkpt>
      <trkpt lat="39.1009420" lon="1.5109740">
        <ele>44.6</ele>
        <time>2020-02-22T16:39:07Z</time>
      </trkpt>
      <trkpt lat="39.1008740" lon="1.5109930">
        <ele>44.7</ele>
        <time>2020-02-22T16:39:08Z</time>
      </trkpt>
      <trkpt lat="39.1008180" lon="1.5110090">
        <ele>44.9</ele>
        <time>2020-02-22T16:39:09Z</time>
      </trkpt>
      <trkpt lat="39.1007670" lon="1.5110060">
        <ele>45.0</ele>
        <time>2020-02-22T16:39:10Z</time>
      </trkpt>
      <trkpt lat="39.1007280" lon="1.5110070">
        <ele>45.0</ele>
        <time>2020-02-22T16:39:11Z</time>
      </trkpt>
      <trkpt lat="39.1006770" lon="1.5110150">
        <ele>45.2</ele>
        <time>2020-02-22T16:39:12Z</time>
      </trkpt>
      <trkpt lat="39.1006240" lon="1.5110220">
        <ele>45.3</ele>
        <time>2020-02-22T16:39:13Z</time>
      </trkpt>
      <trkpt lat="39.1005700" lon="1.5110340">
        <ele>45.5</ele>
        <time>2020-02-22T16:39:14Z</time>
      </trkpt>
      <trkpt lat="39.1005210" lon="1.5110480">
        <ele>45.6</ele>
        <time>2020-02-22T16:39:15Z</time>
      </trkpt>
      <trkpt lat="39.1004690" lon="1.5110600">
        <ele>45.9</ele>
        <time>2020-02-22T16:39:16Z</time>
      </trkpt>
      <trkpt lat="39.1004210" lon="1.5110750">
        <ele>46.1</ele>
        <time>2020-02-22T16:39:17Z</time>
      </trkpt>
      <trkpt lat="39.1003660" lon="1.5110940">
        <ele>46.5</ele>
        <time>2020-02-22T16:39:18Z</time>
      </trkpt>
      <trkpt lat="39.1003270" lon="1.5111040">
        <ele>46.8</ele>
        <time>2020-02-22T16:39:19Z</time>
      </trkpt>
      <trkpt lat="39.1002780" lon="1.5111200">
        <ele>47.3</ele>
        <time>2020-02-22T16:39:20Z</time>
      </trkpt>
      <trkpt lat="39.1002370" lon="1.5111290">
        <ele>47.7</ele>
        <time>2020-02-22T16:39:21Z</time>
      </trkpt>
      <trkpt lat="39.1001840" lon="1.5111490">
        <ele>47.5</ele>
        <time>2020-02-22T16:39:22Z</time>
      </trkpt>
      <trkpt lat="39.1001360" lon="1.5111670">
        <ele>47.2</ele>
        <time>2020-02-22T16:39:23Z</time>
      </trkpt>
      <trkpt lat="39.1000840" lon="1.5111840">
        <ele>46.9</ele>
        <time>2020-02-22T16:39:24Z</time>
      </trkpt>
      <trkpt lat="39.1000260" lon="1.5111880">
        <ele>46.6</ele>
        <time>2020-02-22T16:39:25Z</time>
      </trkpt>
      <trkpt lat="39.0999650" lon="1.5112040">
        <ele>46.3</ele>
        <time>2020-02-22T16:39:26Z</time>
      </trkpt>
      <trkpt lat="39.0999000" lon="1.5112230">
        <ele>46.0</ele>
        <time>2020-02-22T16:39:27Z</time>
      </trkpt>
      <trkpt lat="39.0998360" lon="1.5112440">
        <ele>45.7</ele>
        <time>2020-02-22T16:39:28Z</time>
      </trkpt>
      <trkpt lat="39.0997750" lon="1.5112550">
        <ele>45.4</ele>
        <time>2020-02-22T16:39:29Z</time>
      </trkpt>
      <trkpt lat="39.0997150" lon="1.5112870">
        <ele>45.2</ele>
        <time>2020-02-22T16:39:30Z</time>
      </trkpt>
      <trkpt lat="39.0996360" lon="1.5113060">
        <ele>44.9</ele>
        <time>2020-02-22T16:39:31Z</time>
      </trkpt>
      <trkpt lat="39.0995700" lon="1.5113150">
        <ele>44.8</ele>
        <time>2020-02-22T16:39:32Z</time>
      </trkpt>
      <trkpt lat="39.0995100" lon="1.5113230">
        <ele>44.8</ele>
        <time>2020-02-22T16:39:33Z</time>
      </trkpt>
      <trkpt lat="39.0994470" lon="1.5113220">
        <ele>44.7</ele>
        <time>2020-02-22T16:39:34Z</time>
      </trkpt>
      <trkpt lat="39.0993910" lon="1.5112930">
        <ele>44.7</ele>
        <time>2020-02-22T16:39:35Z</time>
      </trkpt>
      <trkpt lat="39.0993420" lon="1.5112360">
        <ele>44.7</ele>
        <time>2020-02-22T16:39:36Z</time>
      </trkpt>
      <trkpt lat="39.0993070" lon="1.5111440">
        <ele>44.7</ele>
        <time>2020-02-22T16:39:37Z</time>
      </trkpt>
      <trkpt lat="39.0992830" lon="1.5110470">
        <ele>44.7</ele>
        <time>2020-02-22T16:39:38Z</time>
      </trkpt>
      <trkpt lat="39.0992850" lon="1.5109190">
        <ele>44.7</ele>
        <time>2020-02-22T16:39:39Z</time>
      </trkpt>
      <trkpt lat="39.0993050" lon="1.5108330">
        <ele>44.6</ele>
        <time>2020-02-22T16:39:40Z</time>
      </trkpt>
      <trkpt lat="39.0993520" lon="1.5107700">
        <ele>44.6</ele>
        <time>2020-02-22T16:39:41Z</time>
      </trkpt>
      <trkpt lat="39.0993920" lon="1.5106930">
        <ele>44.7</ele>
        <time>2020-02-22T16:39:42Z</time>
      </trkpt>
      <trkpt lat="39.0994340" lon="1.5106170">
        <ele>44.7</ele>
        <time>2020-02-22T16:39:43Z</time>
      </trkpt>
      <trkpt lat="39.0994800" lon="1.5105490">
        <ele>44.8</ele>
        <time>2020-02-22T16:39:44Z</time>
      </trkpt>
      <trkpt lat="39.0995180" lon="1.5104910">
        <ele>44.9</ele>
        <time>2020-02-22T16:39:45Z</time>
      </trkpt>
      <trkpt lat="39.0995500" lon="1.5104270">
        <ele>45.1</ele>
        <time>2020-02-22T16:39:46Z</time>
      </trkpt>
      <trkpt lat="39.0995850" lon="1.5103710">
        <ele>45.3</ele>
        <time>2020-02-22T16:39:47Z</time>
      </trkpt>
      <trkpt lat="39.0996250" lon="1.5103100">
        <ele>45.6</ele>
        <time>2020-02-22T16:39:48Z</time>
      </trkpt>
      <trkpt lat="39.0996640" lon="1.5102500">
        <ele>45.3</ele>
        <time>2020-02-22T16:39:49Z</time>
      </trkpt>
      <trkpt lat="39.0997010" lon="1.5101880">
        <ele>45.1</ele>
        <time>2020-02-22T16:39:50Z</time>
      </trkpt>
      <trkpt lat="39.0997360" lon="1.5101240">
        <ele>44.9</ele>
        <time>2020-02-22T16:39:51Z</time>
      </trkpt>
      <trkpt lat="39.0997680" lon="1.5100500">
        <ele>44.7</ele>
        <time>2020-02-22T16:39:52Z</time>
      </trkpt>
      <trkpt lat="39.0997840" lon="1.5099730">
        <ele>44.7</ele>
        <time>2020-02-22T16:39:53Z</time>
      </trkpt>
      <trkpt lat="39.0998090" lon="1.5099020">
        <ele>44.6</ele>
        <time>2020-02-22T16:39:54Z</time>
      </trkpt>
      <trkpt lat="39.0998360" lon="1.5098340">
        <ele>44.6</ele>
        <time>2020-02-22T16:39:55Z</time>
      </trkpt>
      <trkpt lat="39.0998720" lon="1.5097530">
        <ele>44.6</ele>
        <time>2020-02-22T16:39:56Z</time>
      </trkpt>
      <trkpt lat="39.0998940" lon="1.5096960">
        <ele>44.6</ele>
        <time>2020-02-22T16:39:57Z</time>
      </trkpt>
      <trkpt lat="39.0999260" lon="1.5096280">
        <ele>44.6</ele>
        <time>2020-02-22T16:39:58Z</time>
      </trkpt>
      <trkpt lat="39.0999560" lon="1.5095700">
        <ele>44.5</ele>
        <time>2020-02-22T16:39:59Z</time>
      </trkpt>
      <trkpt lat="39.1000050" lon="1.5094950">
        <ele>44.4</ele>
        <time>2020-02-22T16:40:00Z</time>
      </trkpt>
      <trkpt lat="39.1000300" lon="1.5094370">
        <ele>44.3</ele>
        <time>2020-02-22T16:40:01Z</time>
      </trkpt>
      <trkpt lat="39.1000510" lon="1.5093930">
        <ele>44.2</ele>
        <time>2020-02-22T16:40:02Z</time>
      </trkpt>
      <trkpt lat="39.1000660" lon="1.5093410">
        <ele>44.1</ele>
        <time>2020-02-22T16:40:03Z</time>
      </trkpt>
      <trkpt lat="39.1000790" lon="1.5092890">
        <ele>44.0</ele>
        <time>2020-02-22T16:40:04Z</time>
      </trkpt>
      <trkpt lat="39.1000960" lon="1.5092340">
        <ele>43.9</ele>
        <time>2020-02-22T16:40:05Z</time>
      </trkpt>
      <trkpt lat="39.1001110" lon="1.5091870">
        <ele>43.8</ele>
        <time>2020-02-22T16:40:06Z</time>
      </trkpt>
      <trkpt lat="39.1001220" lon="1.5091410">
        <ele>43.8</ele>
        <time>2020-02-22T16:40:07Z</time>
      </trkpt>
      <trkpt lat="39.1001360" lon="1.5090850">
        <ele>43.8</ele>
        <time>2020-02-22T16:40:08Z</time>
      </trkpt>
      <trkpt lat="39.1001480" lon="1.5090350">
        <ele>43.8</ele>
        <time>2020-02-22T16:40:09Z</time>
      </trkpt>
      <trkpt lat="39.1001580" lon="1.5089850">
        <ele>43.8</ele>
        <time>2020-02-22T16:40:10Z</time>
      </trkpt>
      <trkpt lat="39.1001610" lon="1.5089480">
        <ele>43.8</ele>
        <time>2020-02-22T16:40:11Z</time>
      </trkpt>
      <trkpt lat="39.1001520" lon="1.5088830">
        <ele>43.8</ele>
        <time>2020-02-22T16:40:12Z</time>
      </trkpt>
      <trkpt lat="39.1001470" lon="1.5088270">
        <ele>43.8</ele>
        <time>2020-02-22T16:40:13Z</time>
      </trkpt>
      <trkpt lat="39.1001460" lon="1.5087650">
        <ele>43.8</ele>
        <time>2020-02-22T16:40:14Z</time>
      </trkpt>
      <trkpt lat="39.1001470" lon="1.5087360">
        <ele>43.8</ele>
        <time>2020-02-22T16:40:15Z</time>
      </trkpt>
      <trkpt lat="39.1001570" lon="1.5086810">
        <ele>43.8</ele>
        <time>2020-02-22T16:40:16Z</time>
      </trkpt>
      <trkpt lat="39.1001600" lon="1.5086530">
        <ele>43.8</ele>
        <time>2020-02-22T16:40:17Z</time>
      </trkpt>
      <trkpt lat="39.1001630" lon="1.5086140">
        <ele>43.8</ele>
        <time>2020-02-22T16:40:18Z</time>
      </trkpt>
      <trkpt lat="39.1001620" lon="1.5085690">
        <ele>43.8</ele>
        <time>2020-02-22T16:40:19Z</time>
      </trkpt>
      <trkpt lat="39.1001630" lon="1.5085160">
        <ele>43.9</ele>
        <time>2020-02-22T16:40:20Z</time>
      </trkpt>
      <trkpt lat="39.1001660" lon="1.5084910">
        <ele>43.9</ele>
        <time>2020-02-22T16:40:21Z</time>
      </trkpt>
      <trkpt lat="39.1001710" lon="1.5084510">
        <ele>43.9</ele>
        <time>2020-02-22T16:40:22Z</time>
      </trkpt>
      <trkpt lat="39.1001770" lon="1.5084130">
        <ele>43.9</ele>
        <time>2020-02-22T16:40:23Z</time>
      </trkpt>
      <trkpt lat="39.1001790" lon="1.5083570">
        <ele>43.9</ele>
        <time>2020-02-22T16:40:24Z</time>
      </trkpt>
      <trkpt lat="39.1001770" lon="1.5083340">
        <ele>43.9</ele>
        <time>2020-02-22T16:40:25Z</time>
      </trkpt>
      <trkpt lat="39.1001770" lon="1.5082790">
        <ele>43.9</ele>
        <time>2020-02-22T16:40:26Z</time>
      </trkpt>
      <trkpt lat="39.1001780" lon="1.5082200">
        <ele>43.9</ele>
        <time>2020-02-22T16:40:27Z</time>
      </trkpt>
      <trkpt lat="39.1001830" lon="1.5081640">
        <ele>43.9</ele>
        <time>2020-02-22T16:40:28Z</time>
      </trkpt>
      <trkpt lat="39.1001900" lon="1.5081180">
        <ele>43.8</ele>
        <time>2020-02-22T16:40:29Z</time>
      </trkpt>
      <trkpt lat="39.1001970" lon="1.5080700">
        <ele>43.7</ele>
        <time>2020-02-22T16:40:30Z</time>
      </trkpt>
      <trkpt lat="39.1001980" lon="1.5080500">
        <ele>43.6</ele>
        <time>2020-02-22T16:40:31Z</time>
      </trkpt>
      <trkpt lat="39.1002000" lon="1.5080020">
        <ele>43.5</ele>
        <time>2020-02-22T16:40:32Z</time>
      </trkpt>
      <trkpt lat="39.1002010" lon="1.5079560">
        <ele>43.4</ele>
        <time>2020-02-22T16:40:33Z</time>
      </trkpt>
      <trkpt lat="39.1001980" lon="1.5079170">
        <ele>43.2</ele>
        <time>2020-02-22T16:40:34Z</time>
      </trkpt>
      <trkpt lat="39.1001940" lon="1.5078790">
        <ele>43.1</ele>
        <time>2020-02-22T16:40:35Z</time>
      </trkpt>
      <trkpt lat="39.1001840" lon="1.5078270">
        <ele>42.9</ele>
        <time>2020-02-22T16:40:36Z</time>
      </trkpt>
      <trkpt lat="39.1001770" lon="1.5078000">
        <ele>42.8</ele>
        <time>2020-02-22T16:40:37Z</time>
      </trkpt>
      <trkpt lat="39.1001710" lon="1.5077620">
        <ele>42.7</ele>
        <time>2020-02-22T16:40:38Z</time>
      </trkpt>
      <trkpt lat="39.1001660" lon="1.5077190">
        <ele>42.5</ele>
        <time>2020-02-22T16:40:39Z</time>
      </trkpt>
      <trkpt lat="39.1001600" lon="1.5076710">
        <ele>42.2</ele>
        <time>2020-02-22T16:40:40Z</time>
      </trkpt>
      <trkpt lat="39.1001530" lon="1.5076340">
        <ele>42.1</ele>
        <time>2020-02-22T16:40:41Z</time>
      </trkpt>
      <trkpt lat="39.1001440" lon="1.5075740">
        <ele>41.7</ele>
        <time>2020-02-22T16:40:42Z</time>
      </trkpt>
      <trkpt lat="39.1001330" lon="1.5075020">
        <ele>41.3</ele>
        <time>2020-02-22T16:40:43Z</time>
      </trkpt>
      <trkpt lat="39.1001230" lon="1.5074250">
        <ele>40.9</ele>
        <time>2020-02-22T16:40:44Z</time>
      </trkpt>
      <trkpt lat="39.1001010" lon="1.5073600">
        <ele>40.5</ele>
        <time>2020-02-22T16:40:45Z</time>
      </trkpt>
      <trkpt lat="39.1000680" lon="1.5072860">
        <ele>39.9</ele>
        <time>2020-02-22T16:40:46Z</time>
      </trkpt>
      <trkpt lat="39.1000210" lon="1.5072130">
        <ele>39.3</ele>
        <time>2020-02-22T16:40:47Z</time>
      </trkpt>
      <trkpt lat="39.0999710" lon="1.5071310">
        <ele>38.6</ele>
        <time>2020-02-22T16:40:48Z</time>
      </trkpt>
      <trkpt lat="39.0999320" lon="1.5070590">
        <ele>38.0</ele>
        <time>2020-02-22T16:40:49Z</time>
      </trkpt>
      <trkpt lat="39.0998900" lon="1.5069760">
        <ele>37.3</ele>
        <time>2020-02-22T16:40:50Z</time>
      </trkpt>
      <trkpt lat="39.0998310" lon="1.5068790">
        <ele>36.5</ele>
        <time>2020-02-22T16:40:51Z</time>
      </trkpt>
      <trkpt lat="39.0997750" lon="1.5067870">
        <ele>35.9</ele>
        <time>2020-02-22T16:40:52Z</time>
      </trkpt>
      <trkpt lat="39.0997320" lon="1.5066980">
        <ele>35.3</ele>
        <time>2020-02-22T16:40:53Z</time>
      </trkpt>
      <trkpt lat="39.0996860" lon="1.5066110">
        <ele>34.7</ele>
        <time>2020-02-22T16:40:54Z</time>
      </trkpt>
      <trkpt lat="39.0996380" lon="1.5065160">
        <ele>34.1</ele>
        <time>2020-02-22T16:40:55Z</time>
      </trkpt>
      <trkpt lat="39.0995910" lon="1.5064220">
        <ele>33.5</ele>
        <time>2020-02-22T16:40:56Z</time>
      </trkpt>
      <trkpt lat="39.0995500" lon="1.5063180">
        <ele>32.9</ele>
        <time>2020-02-22T16:40:57Z</time>
      </trkpt>
      <trkpt lat="39.0995090" lon="1.5062080">
        <ele>32.3</ele>
        <time>2020-02-22T16:40:58Z</time>
      </trkpt>
      <trkpt lat="39.0994740" lon="1.5060920">
        <ele>31.7</ele>
        <time>2020-02-22T16:40:59Z</time>
      </trkpt>
      <trkpt lat="39.0994420" lon="1.5059740">
        <ele>31.1</ele>
        <time>2020-02-22T16:41:00Z</time>
      </trkpt>
      <trkpt lat="39.0994150" lon="1.5058650">
        <ele>30.5</ele>
        <time>2020-02-22T16:41:01Z</time>
      </trkpt>
      <trkpt lat="39.0993930" lon="1.5057570">
        <ele>30.0</ele>
        <time>2020-02-22T16:41:02Z</time>
      </trkpt>
      <trkpt lat="39.0993730" lon="1.5056580">
        <ele>29.5</ele>
        <time>2020-02-22T16:41:03Z</time>
      </trkpt>
      <trkpt lat="39.0993610" lon="1.5055540">
        <ele>29.1</ele>
        <time>2020-02-22T16:41:04Z</time>
      </trkpt>
      <trkpt lat="39.0993560" lon="1.5054500">
        <ele>28.6</ele>
        <time>2020-02-22T16:41:05Z</time>
      </trkpt>
      <trkpt lat="39.0993490" lon="1.5053510">
        <ele>28.2</ele>
        <time>2020-02-22T16:41:06Z</time>
      </trkpt>
      <trkpt lat="39.0993650" lon="1.5052520">
        <ele>27.8</ele>
        <time>2020-02-22T16:41:07Z</time>
      </trkpt>
      <trkpt lat="39.0993920" lon="1.5051510">
        <ele>27.4</ele>
        <time>2020-02-22T16:41:08Z</time>
      </trkpt>
      <trkpt lat="39.0994180" lon="1.5050460">
        <ele>26.9</ele>
        <time>2020-02-22T16:41:09Z</time>
      </trkpt>
      <trkpt lat="39.0994460" lon="1.5049380">
        <ele>26.4</ele>
        <time>2020-02-22T16:41:10Z</time>
      </trkpt>
      <trkpt lat="39.0994700" lon="1.5048300">
        <ele>25.9</ele>
        <time>2020-02-22T16:41:11Z</time>
      </trkpt>
      <trkpt lat="39.0994970" lon="1.5047280">
        <ele>25.3</ele>
        <time>2020-02-22T16:41:12Z</time>
      </trkpt>
      <trkpt lat="39.0995240" lon="1.5046310">
        <ele>24.9</ele>
        <time>2020-02-22T16:41:13Z</time>
      </trkpt>
      <trkpt lat="39.0995510" lon="1.5045370">
        <ele>24.5</ele>
        <time>2020-02-22T16:41:14Z</time>
      </trkpt>
      <trkpt lat="39.0995720" lon="1.5044460">
        <ele>24.2</ele>
        <time>2020-02-22T16:41:15Z</time>
      </trkpt>
      <trkpt lat="39.0995900" lon="1.5043670">
        <ele>24.0</ele>
        <time>2020-02-22T16:41:16Z</time>
      </trkpt>
      <trkpt lat="39.0996020" lon="1.5042920">
        <ele>23.8</ele>
        <time>2020-02-22T16:41:17Z</time>
      </trkpt>
      <trkpt lat="39.0996130" lon="1.5042190">
        <ele>23.6</ele>
        <time>2020-02-22T16:41:18Z</time>
      </trkpt>
      <trkpt lat="39.0996140" lon="1.5041460">
        <ele>23.5</ele>
        <time>2020-02-22T16:41:19Z</time>
      </trkpt>
      <trkpt lat="39.0996210" lon="1.5040770">
        <ele>23.3</ele>
        <time>2020-02-22T16:41:20Z</time>
      </trkpt>
      <trkpt lat="39.0996210" lon="1.5040090">
        <ele>23.2</ele>
        <time>2020-02-22T16:41:21Z</time>
      </trkpt>
      <trkpt lat="39.0996170" lon="1.5039470">
        <ele>23.1</ele>
        <time>2020-02-22T16:41:22Z</time>
      </trkpt>
      <trkpt lat="39.0996040" lon="1.5038910">
        <ele>23.0</ele>
        <time>2020-02-22T16:41:23Z</time>
      </trkpt>
      <trkpt lat="39.0995910" lon="1.5038310">
        <ele>23.0</ele>
        <time>2020-02-22T16:41:24Z</time>
      </trkpt>
      <trkpt lat="39.0995830" lon="1.5037690">
        <ele>23.0</ele>
        <time>2020-02-22T16:41:25Z</time>
      </trkpt>
      <trkpt lat="39.0995730" lon="1.5037090">
        <ele>22.9</ele>
        <time>2020-02-22T16:41:26Z</time>
      </trkpt>
      <trkpt lat="39.0995640" lon="1.5036500">
        <ele>22.9</ele>
        <time>2020-02-22T16:41:27Z</time>
      </trkpt>
      <trkpt lat="39.0995570" lon="1.5035920">
        <ele>22.9</ele>
        <time>2020-02-22T16:41:28Z</time>
      </trkpt>
      <trkpt lat="39.0995500" lon="1.5035340">
        <ele>22.9</ele>
        <time>2020-02-22T16:41:29Z</time>
      </trkpt>
      <trkpt lat="39.0995460" lon="1.5034740">
        <ele>22.9</ele>
        <time>2020-02-22T16:41:30Z</time>
      </trkpt>
      <trkpt lat="39.0995450" lon="1.5034160">
        <ele>22.9</ele>
        <time>2020-02-22T16:41:31Z</time>
      </trkpt>
      <trkpt lat="39.0995490" lon="1.5033540">
        <ele>22.9</ele>
        <time>2020-02-22T16:41:32Z</time>
      </trkpt>
      <trkpt lat="39.0995480" lon="1.5032940">
        <ele>22.9</ele>
        <time>2020-02-22T16:41:33Z</time>
      </trkpt>
      <trkpt lat="39.0995400" lon="1.5032310">
        <ele>22.9</ele>
        <time>2020-02-22T16:41:34Z</time>
      </trkpt>
      <trkpt lat="39.0995320" lon="1.5031660">
        <ele>22.9</ele>
        <time>2020-02-22T16:41:35Z</time>
      </trkpt>
      <trkpt lat="39.0995290" lon="1.5031000">
        <ele>22.9</ele>
        <time>2020-02-22T16:41:36Z</time>
      </trkpt>
      <trkpt lat="39.0995250" lon="1.5030350">
        <ele>22.9</ele>
        <time>2020-02-22T16:41:37Z</time>
      </trkpt>
      <trkpt lat="39.0995150" lon="1.5029780">
        <ele>22.9</ele>
        <time>2020-02-22T16:41:38Z</time>
      </trkpt>
      <trkpt lat="39.0995040" lon="1.5029270">
        <ele>22.8</ele>
        <time>2020-02-22T16:41:39Z</time>
      </trkpt>
      <trkpt lat="39.0994970" lon="1.5028790">
        <ele>22.8</ele>
        <time>2020-02-22T16:41:40Z</time>
      </trkpt>
      <trkpt lat="39.0994840" lon="1.5028250">
        <ele>22.8</ele>
        <time>2020-02-22T16:41:41Z</time>
      </trkpt>
      <trkpt lat="39.0994690" lon="1.5027830">
        <ele>22.8</ele>
        <time>2020-02-22T16:41:42Z</time>
      </trkpt>
      <trkpt lat="39.0994590" lon="1.5027220">
        <ele>22.7</ele>
        <time>2020-02-22T16:41:43Z</time>
      </trkpt>
      <trkpt lat="39.0994590" lon="1.5026740">
        <ele>22.7</ele>
        <time>2020-02-22T16:41:44Z</time>
      </trkpt>
      <trkpt lat="39.0994510" lon="1.5026230">
        <ele>22.6</ele>
        <time>2020-02-22T16:41:45Z</time>
      </trkpt>
      <trkpt lat="39.0994460" lon="1.5025820">
        <ele>22.6</ele>
        <time>2020-02-22T16:41:46Z</time>
      </trkpt>
      <trkpt lat="39.0994480" lon="1.5025190">
        <ele>22.4</ele>
        <time>2020-02-22T16:41:47Z</time>
      </trkpt>
      <trkpt lat="39.0994500" lon="1.5024640">
        <ele>22.3</ele>
        <time>2020-02-22T16:41:48Z</time>
      </trkpt>
      <trkpt lat="39.0994510" lon="1.5024420">
        <ele>22.2</ele>
        <time>2020-02-22T16:41:49Z</time>
      </trkpt>
      <trkpt lat="39.0994530" lon="1.5024000">
        <ele>22.1</ele>
        <time>2020-02-22T16:41:50Z</time>
      </trkpt>
      <trkpt lat="39.0994540" lon="1.5023620">
        <ele>22.0</ele>
        <time>2020-02-22T16:41:51Z</time>
      </trkpt>
      <trkpt lat="39.0994500" lon="1.5023090">
        <ele>21.9</ele>
        <time>2020-02-22T16:41:52Z</time>
      </trkpt>
      <trkpt lat="39.0994460" lon="1.5022860">
        <ele>21.9</ele>
        <time>2020-02-22T16:41:53Z</time>
      </trkpt>
      <trkpt lat="39.0994400" lon="1.5022300">
        <ele>21.8</ele>
        <time>2020-02-22T16:41:54Z</time>
      </trkpt>
      <trkpt lat="39.0994430" lon="1.5021950">
        <ele>21.8</ele>
        <time>2020-02-22T16:41:55Z</time>
      </trkpt>
      <trkpt lat="39.0994430" lon="1.5021430">
        <ele>21.7</ele>
        <time>2020-02-22T16:41:56Z</time>
      </trkpt>
      <trkpt lat="39.0994500" lon="1.5020790">
        <ele>21.6</ele>
        <time>2020-02-22T16:41:57Z</time>
      </trkpt>
      <trkpt lat="39.0994530" lon="1.5020190">
        <ele>21.6</ele>
        <time>2020-02-22T16:41:58Z</time>
      </trkpt>
      <trkpt lat="39.0994560" lon="1.5019550">
        <ele>21.4</ele>
        <time>2020-02-22T16:41:59Z</time>
      </trkpt>
      <trkpt lat="39.0994570" lon="1.5018940">
        <ele>21.3</ele>
        <time>2020-02-22T16:42:00Z</time>
      </trkpt>
      <trkpt lat="39.0994540" lon="1.5018540">
        <ele>21.2</ele>
        <time>2020-02-22T16:42:01Z</time>
      </trkpt>
      <trkpt lat="39.0994490" lon="1.5017900">
        <ele>21.1</ele>
        <time>2020-02-22T16:42:02Z</time>
      </trkpt>
      <trkpt lat="39.0994420" lon="1.5017180">
        <ele>20.9</ele>
        <time>2020-02-22T16:42:03Z</time>
      </trkpt>
      <trkpt lat="39.0994300" lon="1.5016460">
        <ele>20.7</ele>
        <time>2020-02-22T16:42:04Z</time>
      </trkpt>
      <trkpt lat="39.0994210" lon="1.5015770">
        <ele>20.6</ele>
        <time>2020-02-22T16:42:05Z</time>
      </trkpt>
      <trkpt lat="39.0994060" lon="1.5014960">
        <ele>20.4</ele>
        <time>2020-02-22T16:42:06Z</time>
      </trkpt>
      <trkpt lat="39.0993740" lon="1.5014130">
        <ele>20.2</ele>
        <time>2020-02-22T16:42:07Z</time>
      </trkpt>
      <trkpt lat="39.0993580" lon="1.5013320">
        <ele>20.1</ele>
        <time>2020-02-22T16:42:08Z</time>
      </trkpt>
      <trkpt lat="39.0993390" lon="1.5012530">
        <ele>19.9</ele>
        <time>2020-02-22T16:42:09Z</time>
      </trkpt>
      <trkpt lat="39.0993160" lon="1.5011630">
        <ele>19.7</ele>
        <time>2020-02-22T16:42:10Z</time>
      </trkpt>
      <trkpt lat="39.0993010" lon="1.5010710">
        <ele>19.6</ele>
        <time>2020-02-22T16:42:11Z</time>
      </trkpt>
      <trkpt lat="39.0992730" lon="1.5009810">
        <ele>19.4</ele>
        <time>2020-02-22T16:42:12Z</time>
      </trkpt>
      <trkpt lat="39.0992620" lon="1.5008760">
        <ele>19.2</ele>
        <time>2020-02-22T16:42:13Z</time>
      </trkpt>
      <trkpt lat="39.0992640" lon="1.5007740">
        <ele>19.0</ele>
        <time>2020-02-22T16:42:14Z</time>
      </trkpt>
      <trkpt lat="39.0992640" lon="1.5006740">
        <ele>18.8</ele>
        <time>2020-02-22T16:42:15Z</time>
      </trkpt>
      <trkpt lat="39.0992650" lon="1.5005770">
        <ele>18.6</ele>
        <time>2020-02-22T16:42:16Z</time>
      </trkpt>
      <trkpt lat="39.0992660" lon="1.5004830">
        <ele>18.5</ele>
        <time>2020-02-22T16:42:17Z</time>
      </trkpt>
      <trkpt lat="39.0992620" lon="1.5003920">
        <ele>18.3</ele>
        <time>2020-02-22T16:42:18Z</time>
      </trkpt>
      <trkpt lat="39.0992540" lon="1.5002890">
        <ele>18.1</ele>
        <time>2020-02-22T16:42:19Z</time>
      </trkpt>
      <trkpt lat="39.0992450" lon="1.5001920">
        <ele>18.0</ele>
        <time>2020-02-22T16:42:20Z</time>
      </trkpt>
      <trkpt lat="39.0992330" lon="1.5000990">
        <ele>17.8</ele>
        <time>2020-02-22T16:42:21Z</time>
      </trkpt>
      <trkpt lat="39.0992240" lon="1.4999900">
        <ele>17.7</ele>
        <time>2020-02-22T16:42:22Z</time>
      </trkpt>
      <trkpt lat="39.0992050" lon="1.4998840">
        <ele>17.5</ele>
        <time>2020-02-22T16:42:23Z</time>
      </trkpt>
      <trkpt lat="39.0991790" lon="1.4997860">
        <ele>17.5</ele>
        <time>2020-02-22T16:42:24Z</time>
      </trkpt>
      <trkpt lat="39.0991520" lon="1.4996970">
        <ele>17.4</ele>
        <time>2020-02-22T16:42:25Z</time>
      </trkpt>
      <trkpt lat="39.0991230" lon="1.4996090">
        <ele>17.3</ele>
        <time>2020-02-22T16:42:26Z</time>
      </trkpt>
      <trkpt lat="39.0990760" lon="1.4995380">
        <ele>17.1</ele>
        <time>2020-02-22T16:42:27Z</time>
      </trkpt>
      <trkpt lat="39.0990240" lon="1.4994740">
        <ele>17.0</ele>
        <time>2020-02-22T16:42:28Z</time>
      </trkpt>
      <trkpt lat="39.0989720" lon="1.4994150">
        <ele>16.8</ele>
        <time>2020-02-22T16:42:29Z</time>
      </trkpt>
      <trkpt lat="39.0989180" lon="1.4993600">
        <ele>16.7</ele>
        <time>2020-02-22T16:42:30Z</time>
      </trkpt>
      <trkpt lat="39.0988590" lon="1.4993080">
        <ele>16.6</ele>
        <time>2020-02-22T16:42:31Z</time>
      </trkpt>
      <trkpt lat="39.0987970" lon="1.4992640">
        <ele>16.5</ele>
        <time>2020-02-22T16:42:32Z</time>
      </trkpt>
      <trkpt lat="39.0987380" lon="1.4992170">
        <ele>16.5</ele>
        <time>2020-02-22T16:42:33Z</time>
      </trkpt>
      <trkpt lat="39.0986790" lon="1.4991670">
        <ele>16.5</ele>
        <time>2020-02-22T16:42:34Z</time>
      </trkpt>
      <trkpt lat="39.0986270" lon="1.4991040">
        <ele>16.5</ele>
        <time>2020-02-22T16:42:35Z</time>
      </trkpt>
      <trkpt lat="39.0985740" lon="1.4990440">
        <ele>16.6</ele>
        <time>2020-02-22T16:42:36Z</time>
      </trkpt>
      <trkpt lat="39.0985180" lon="1.4989870">
        <ele>16.7</ele>
        <time>2020-02-22T16:42:37Z</time>
      </trkpt>
      <trkpt lat="39.0984640" lon="1.4989260">
        <ele>16.9</ele>
        <time>2020-02-22T16:42:38Z</time>
      </trkpt>
      <trkpt lat="39.0984050" lon="1.4988660">
        <ele>17.1</ele>
        <time>2020-02-22T16:42:39Z</time>
      </trkpt>
      <trkpt lat="39.0983420" lon="1.4988130">
        <ele>17.3</ele>
        <time>2020-02-22T16:42:40Z</time>
      </trkpt>
      <trkpt lat="39.0982750" lon="1.4987650">
        <ele>17.5</ele>
        <time>2020-02-22T16:42:41Z</time>
      </trkpt>
      <trkpt lat="39.0982080" lon="1.4987190">
        <ele>17.7</ele>
        <time>2020-02-22T16:42:42Z</time>
      </trkpt>
      <trkpt lat="39.0981400" lon="1.4986780">
        <ele>18.0</ele>
        <time>2020-02-22T16:42:43Z</time>
      </trkpt>
      <trkpt lat="39.0980680" lon="1.4986530">
        <ele>18.2</ele>
        <time>2020-02-22T16:42:44Z</time>
      </trkpt>
      <trkpt lat="39.0979960" lon="1.4986270">
        <ele>18.5</ele>
        <time>2020-02-22T16:42:45Z</time>
      </trkpt>
      <trkpt lat="39.0979270" lon="1.4985950">
        <ele>18.8</ele>
        <time>2020-02-22T16:42:46Z</time>
      </trkpt>
      <trkpt lat="39.0978590" lon="1.4985700">
        <ele>19.1</ele>
        <time>2020-02-22T16:42:47Z</time>
      </trkpt>
      <trkpt lat="39.0977940" lon="1.4985550">
        <ele>19.4</ele>
        <time>2020-02-22T16:42:48Z</time>
      </trkpt>
      <trkpt lat="39.0977300" lon="1.4985420">
        <ele>19.6</ele>
        <time>2020-02-22T16:42:49Z</time>
      </trkpt>
      <trkpt lat="39.0976640" lon="1.4985330">
        <ele>20.0</ele>
        <time>2020-02-22T16:42:50Z</time>
      </trkpt>
      <trkpt lat="39.0975980" lon="1.4985290">
        <ele>20.3</ele>
        <time>2020-02-22T16:42:51Z</time>
      </trkpt>
      <trkpt lat="39.0975360" lon="1.4985340">
        <ele>20.7</ele>
        <time>2020-02-22T16:42:52Z</time>
      </trkpt>
      <trkpt lat="39.0974750" lon="1.4985450">
        <ele>21.0</ele>
        <time>2020-02-22T16:42:53Z</time>
      </trkpt>
      <trkpt lat="39.0974160" lon="1.4985480">
        <ele>21.4</ele>
        <time>2020-02-22T16:42:54Z</time>
      </trkpt>
      <trkpt lat="39.0973600" lon="1.4985260">
        <ele>21.8</ele>
        <time>2020-02-22T16:42:55Z</time>
      </trkpt>
      <trkpt lat="39.0973000" lon="1.4985150">
        <ele>22.2</ele>
        <time>2020-02-22T16:42:56Z</time>
      </trkpt>
      <trkpt lat="39.0972410" lon="1.4985050">
        <ele>22.7</ele>
        <time>2020-02-22T16:42:57Z</time>
      </trkpt>
      <trkpt lat="39.0971830" lon="1.4984970">
        <ele>23.2</ele>
        <time>2020-02-22T16:42:58Z</time>
      </trkpt>
      <trkpt lat="39.0971240" lon="1.4984900">
        <ele>23.5</ele>
        <time>2020-02-22T16:42:59Z</time>
      </trkpt>
      <trkpt lat="39.0970650" lon="1.4984800">
        <ele>23.8</ele>
        <time>2020-02-22T16:43:00Z</time>
      </trkpt>
      <trkpt lat="39.0970080" lon="1.4984650">
        <ele>24.1</ele>
        <time>2020-02-22T16:43:01Z</time>
      </trkpt>
      <trkpt lat="39.0969510" lon="1.4984550">
        <ele>24.3</ele>
        <time>2020-02-22T16:43:02Z</time>
      </trkpt>
      <trkpt lat="39.0968940" lon="1.4984430">
        <ele>24.5</ele>
        <time>2020-02-22T16:43:03Z</time>
      </trkpt>
      <trkpt lat="39.0968370" lon="1.4984260">
        <ele>24.7</ele>
        <time>2020-02-22T16:43:04Z</time>
      </trkpt>
      <trkpt lat="39.0967800" lon="1.4984170">
        <ele>24.9</ele>
        <time>2020-02-22T16:43:05Z</time>
      </trkpt>
      <trkpt lat="39.0967250" lon="1.4984100">
        <ele>25.1</ele>
        <time>2020-02-22T16:43:06Z</time>
      </trkpt>
      <trkpt lat="39.0966720" lon="1.4984000">
        <ele>25.2</ele>
        <time>2020-02-22T16:43:07Z</time>
      </trkpt>
      <trkpt lat="39.0966180" lon="1.4983930">
        <ele>25.4</ele>
        <time>2020-02-22T16:43:08Z</time>
      </trkpt>
      <trkpt lat="39.0965640" lon="1.4983860">
        <ele>25.6</ele>
        <time>2020-02-22T16:43:09Z</time>
      </trkpt>
      <trkpt lat="39.0965080" lon="1.4983810">
        <ele>25.8</ele>
        <time>2020-02-22T16:43:10Z</time>
      </trkpt>
      <trkpt lat="39.0964510" lon="1.4983650">
        <ele>26.0</ele>
        <time>2020-02-22T16:43:11Z</time>
      </trkpt>
      <trkpt lat="39.0963950" lon="1.4983490">
        <ele>26.3</ele>
        <time>2020-02-22T16:43:12Z</time>
      </trkpt>
      <trkpt lat="39.0963390" lon="1.4983270">
        <ele>26.5</ele>
        <time>2020-02-22T16:43:13Z</time>
      </trkpt>
      <trkpt lat="39.0962830" lon="1.4983150">
        <ele>26.8</ele>
        <time>2020-02-22T16:43:14Z</time>
      </trkpt>
      <trkpt lat="39.0962300" lon="1.4982960">
        <ele>27.1</ele>
        <time>2020-02-22T16:43:15Z</time>
      </trkpt>
      <trkpt lat="39.0961780" lon="1.4982830">
        <ele>27.3</ele>
        <time>2020-02-22T16:43:16Z</time>
      </trkpt>
      <trkpt lat="39.0961280" lon="1.4982710">
        <ele>27.5</ele>
        <time>2020-02-22T16:43:17Z</time>
      </trkpt>
      <trkpt lat="39.0960770" lon="1.4982670">
        <ele>27.7</ele>
        <time>2020-02-22T16:43:18Z</time>
      </trkpt>
      <trkpt lat="39.0960310" lon="1.4982610">
        <ele>27.9</ele>
        <time>2020-02-22T16:43:19Z</time>
      </trkpt>
      <trkpt lat="39.0959810" lon="1.4982440">
        <ele>28.1</ele>
        <time>2020-02-22T16:43:20Z</time>
      </trkpt>
      <trkpt lat="39.0959350" lon="1.4982390">
        <ele>28.3</ele>
        <time>2020-02-22T16:43:21Z</time>
      </trkpt>
      <trkpt lat="39.0958950" lon="1.4982450">
        <ele>28.5</ele>
        <time>2020-02-22T16:43:22Z</time>
      </trkpt>
      <trkpt lat="39.0958620" lon="1.4982460">
        <ele>28.7</ele>
        <time>2020-02-22T16:43:23Z</time>
      </trkpt>
      <trkpt lat="39.0958170" lon="1.4982530">
        <ele>28.9</ele>
        <time>2020-02-22T16:43:24Z</time>
      </trkpt>
      <trkpt lat="39.0957550" lon="1.4982390">
        <ele>29.2</ele>
        <time>2020-02-22T16:43:25Z</time>
      </trkpt>
      <trkpt lat="39.0957150" lon="1.4982440">
        <ele>29.5</ele>
        <time>2020-02-22T16:43:26Z</time>
      </trkpt>
      <trkpt lat="39.0956780" lon="1.4982500">
        <ele>29.7</ele>
        <time>2020-02-22T16:43:27Z</time>
      </trkpt>
      <trkpt lat="39.0956340" lon="1.4982540">
        <ele>29.9</ele>
        <time>2020-02-22T16:43:28Z</time>
      </trkpt>
      <trkpt lat="39.0955850" lon="1.4982630">
        <ele>30.3</ele>
        <time>2020-02-22T16:43:29Z</time>
      </trkpt>
      <trkpt lat="39.0955370" lon="1.4982720">
        <ele>30.6</ele>
        <time>2020-02-22T16:43:30Z</time>
      </trkpt>
      <trkpt lat="39.0954990" lon="1.4982810">
        <ele>30.8</ele>
        <time>2020-02-22T16:43:31Z</time>
      </trkpt>
      <trkpt lat="39.0954810" lon="1.4982850">
        <ele>31.0</ele>
        <time>2020-02-22T16:43:32Z</time>
      </trkpt>
      <trkpt lat="39.0954470" lon="1.4982960">
        <ele>31.2</ele>
        <time>2020-02-22T16:43:33Z</time>
      </trkpt>
      <trkpt lat="39.0954150" lon="1.4983080">
        <ele>31.5</ele>
        <time>2020-02-22T16:43:34Z</time>
      </trkpt>
      <trkpt lat="39.0953800" lon="1.4983170">
        <ele>31.7</ele>
        <time>2020-02-22T16:43:35Z</time>
      </trkpt>
      <trkpt lat="39.0953400" lon="1.4983230">
        <ele>32.1</ele>
        <time>2020-02-22T16:43:36Z</time>
      </trkpt>
      <trkpt lat="39.0953080" lon="1.4983270">
        <ele>32.3</ele>
        <time>2020-02-22T16:43:37Z</time>
      </trkpt>
      <trkpt lat="39.0952690" lon="1.4983440">
        <ele>32.6</ele>
        <time>2020-02-22T16:43:38Z</time>
      </trkpt>
      <trkpt lat="39.0952220" lon="1.4983600">
        <ele>33.0</ele>
        <time>2020-02-22T16:43:39Z</time>
      </trkpt>
      <trkpt lat="39.0951860" lon="1.4983780">
        <ele>33.3</ele>
        <time>2020-02-22T16:43:40Z</time>
      </trkpt>
      <trkpt lat="39.0951650" lon="1.4984240">
        <ele>33.6</ele>
        <time>2020-02-22T16:43:41Z</time>
      </trkpt>
      <trkpt lat="39.0951240" lon="1.4984410">
        <ele>34.0</ele>
        <time>2020-02-22T16:43:42Z</time>
      </trkpt>
      <trkpt lat="39.0951080" lon="1.4984480">
        <ele>34.1</ele>
        <time>2020-02-22T16:43:43Z</time>
      </trkpt>
      <trkpt lat="39.0950750" lon="1.4984690">
        <ele>34.4</ele>
        <time>2020-02-22T16:43:44Z</time>
      </trkpt>
      <trkpt lat="39.0950480" lon="1.4984880">
        <ele>34.6</ele>
        <time>2020-02-22T16:43:45Z</time>
      </trkpt>
      <trkpt lat="39.0950190" lon="1.4985070">
        <ele>34.9</ele>
        <time>2020-02-22T16:43:46Z</time>
      </trkpt>
      <trkpt lat="39.0949910" lon="1.4985260">
        <ele>35.1</ele>
        <time>2020-02-22T16:43:47Z</time>
      </trkpt>
      <trkpt lat="39.0949610" lon="1.4985430">
        <ele>35.3</ele>
        <time>2020-02-22T16:43:48Z</time>
      </trkpt>
      <trkpt lat="39.0949250" lon="1.4985620">
        <ele>35.5</ele>
        <time>2020-02-22T16:43:49Z</time>
      </trkpt>
      <trkpt lat="39.0948910" lon="1.4985800">
        <ele>35.8</ele>
        <time>2020-02-22T16:43:50Z</time>
      </trkpt>
      <trkpt lat="39.0948430" lon="1.4986010">
        <ele>36.1</ele>
        <time>2020-02-22T16:43:51Z</time>
      </trkpt>
      <trkpt lat="39.0947910" lon="1.4986290">
        <ele>36.4</ele>
        <time>2020-02-22T16:43:52Z</time>
      </trkpt>
      <trkpt lat="39.0947610" lon="1.4986470">
        <ele>36.6</ele>
        <time>2020-02-22T16:43:53Z</time>
      </trkpt>
      <trkpt lat="39.0947300" lon="1.4986650">
        <ele>36.8</ele>
        <time>2020-02-22T16:43:54Z</time>
      </trkpt>
      <trkpt lat="39.0947020" lon="1.4986730">
        <ele>36.9</ele>
        <time>2020-02-22T16:43:55Z</time>
      </trkpt>
      <trkpt lat="39.0946710" lon="1.4986840">
        <ele>37.1</ele>
        <time>2020-02-22T16:43:56Z</time>
      </trkpt>
      <trkpt lat="39.0946350" lon="1.4987000">
        <ele>37.3</ele>
        <time>2020-02-22T16:43:57Z</time>
      </trkpt>
      <trkpt lat="39.0946200" lon="1.4987060">
        <ele>37.4</ele>
        <time>2020-02-22T16:43:58Z</time>
      </trkpt>
      <trkpt lat="39.0945940" lon="1.4987200">
        <ele>37.5</ele>
        <time>2020-02-22T16:43:59Z</time>
      </trkpt>
      <trkpt lat="39.0945700" lon="1.4987400">
        <ele>37.7</ele>
        <time>2020-02-22T16:44:00Z</time>
      </trkpt>
      <trkpt lat="39.0945470" lon="1.4987610">
        <ele>37.8</ele>
        <time>2020-02-22T16:44:01Z</time>
      </trkpt>
      <trkpt lat="39.0945210" lon="1.4987790">
        <ele>38.0</ele>
        <time>2020-02-22T16:44:02Z</time>
      </trkpt>
      <trkpt lat="39.0944910" lon="1.4988000">
        <ele>38.2</ele>
        <time>2020-02-22T16:44:03Z</time>
      </trkpt>
      <trkpt lat="39.0944650" lon="1.4988160">
        <ele>38.3</ele>
        <time>2020-02-22T16:44:04Z</time>
      </trkpt>
      <trkpt lat="39.0944230" lon="1.4988410">
        <ele>38.6</ele>
        <time>2020-02-22T16:44:05Z</time>
      </trkpt>
      <trkpt lat="39.0944040" lon="1.4988500">
        <ele>38.7</ele>
        <time>2020-02-22T16:44:06Z</time>
      </trkpt>
      <trkpt lat="39.0943660" lon="1.4988770">
        <ele>38.9</ele>
        <time>2020-02-22T16:44:07Z</time>
      </trkpt>
      <trkpt lat="39.0943500" lon="1.4988880">
        <ele>39.1</ele>
        <time>2020-02-22T16:44:08Z</time>
      </trkpt>
      <trkpt lat="39.0943240" lon="1.4989030">
        <ele>39.2</ele>
        <time>2020-02-22T16:44:09Z</time>
      </trkpt>
      <trkpt lat="39.0942910" lon="1.4989200">
        <ele>39.4</ele>
        <time>2020-02-22T16:44:10Z</time>
      </trkpt>
      <trkpt lat="39.0942550" lon="1.4989320">
        <ele>39.6</ele>
        <time>2020-02-22T16:44:11Z</time>
      </trkpt>
      <trkpt lat="39.0942430" lon="1.4989360">
        <ele>39.7</ele>
        <time>2020-02-22T16:44:12Z</time>
      </trkpt>
      <trkpt lat="39.0942100" lon="1.4989520">
        <ele>39.8</ele>
        <time>2020-02-22T16:44:13Z</time>
      </trkpt>
      <trkpt lat="39.0941990" lon="1.4989570">
        <ele>39.9</ele>
        <time>2020-02-22T16:44:14Z</time>
      </trkpt>
      <trkpt lat="39.0941720" lon="1.4989750">
        <ele>40.1</ele>
        <time>2020-02-22T16:44:15Z</time>
      </trkpt>
      <trkpt lat="39.0941410" lon="1.4989900">
        <ele>40.2</ele>
        <time>2020-02-22T16:44:16Z</time>
      </trkpt>
      <trkpt lat="39.0941150" lon="1.4989980">
        <ele>40.4</ele>
        <time>2020-02-22T16:44:17Z</time>
      </trkpt>
      <trkpt lat="39.0941050" lon="1.4989980">
        <ele>40.4</ele>
        <time>2020-02-22T16:44:18Z</time>
      </trkpt>
      <trkpt lat="39.0940840" lon="1.4990200">
        <ele>40.5</ele>
        <time>2020-02-22T16:44:19Z</time>
      </trkpt>
      <trkpt lat="39.0940760" lon="1.4990310">
        <ele>40.6</ele>
        <time>2020-02-22T16:44:20Z</time>
      </trkpt>
      <trkpt lat="39.0940480" lon="1.4990680">
        <ele>40.8</ele>
        <time>2020-02-22T16:44:21Z</time>
      </trkpt>
      <trkpt lat="39.0940310" lon="1.4990830">
        <ele>40.9</ele>
        <time>2020-02-22T16:44:22Z</time>
      </trkpt>
      <trkpt lat="39.0940020" lon="1.4991110">
        <ele>41.1</ele>
        <time>2020-02-22T16:44:23Z</time>
      </trkpt>
      <trkpt lat="39.0939920" lon="1.4991190">
        <ele>41.1</ele>
        <time>2020-02-22T16:44:24Z</time>
      </trkpt>
      <trkpt lat="39.0939660" lon="1.4991400">
        <ele>41.3</ele>
        <time>2020-02-22T16:44:25Z</time>
      </trkpt>
      <trkpt lat="39.0939580" lon="1.4991480">
        <ele>41.3</ele>
        <time>2020-02-22T16:44:26Z</time>
      </trkpt>
      <trkpt lat="39.0939280" lon="1.4991740">
        <ele>41.5</ele>
        <time>2020-02-22T16:44:27Z</time>
      </trkpt>
      <trkpt lat="39.0939180" lon="1.4991810">
        <ele>41.6</ele>
        <time>2020-02-22T16:44:28Z</time>
      </trkpt>
      <trkpt lat="39.0938900" lon="1.4991990">
        <ele>41.7</ele>
        <time>2020-02-22T16:44:29Z</time>
      </trkpt>
      <trkpt lat="39.0938830" lon="1.4992040">
        <ele>41.7</ele>
        <time>2020-02-22T16:44:30Z</time>
      </trkpt>
      <trkpt lat="39.0938580" lon="1.4992240">
        <ele>41.9</ele>
        <time>2020-02-22T16:44:31Z</time>
      </trkpt>
      <trkpt lat="39.0938350" lon="1.4992480">
        <ele>42.0</ele>
        <time>2020-02-22T16:44:32Z</time>
      </trkpt>
      <trkpt lat="39.0938280" lon="1.4992560">
        <ele>42.1</ele>
        <time>2020-02-22T16:44:33Z</time>
      </trkpt>
      <trkpt lat="39.0938010" lon="1.4992830">
        <ele>42.2</ele>
        <time>2020-02-22T16:44:34Z</time>
      </trkpt>
      <trkpt lat="39.0937900" lon="1.4992900">
        <ele>42.3</ele>
        <time>2020-02-22T16:44:35Z</time>
      </trkpt>
      <trkpt lat="39.0937590" lon="1.4993150">
        <ele>42.5</ele>
        <time>2020-02-22T16:44:36Z</time>
      </trkpt>
      <trkpt lat="39.0937490" lon="1.4993230">
        <ele>42.6</ele>
        <time>2020-02-22T16:44:37Z</time>
      </trkpt>
      <trkpt lat="39.0937220" lon="1.4993490">
        <ele>42.7</ele>
        <time>2020-02-22T16:44:38Z</time>
      </trkpt>
      <trkpt lat="39.0937120" lon="1.4993550">
        <ele>42.8</ele>
        <time>2020-02-22T16:44:39Z</time>
      </trkpt>
      <trkpt lat="39.0936890" lon="1.4993880">
        <ele>43.0</ele>
        <time>2020-02-22T16:44:40Z</time>
      </trkpt>
      <trkpt lat="39.0936820" lon="1.4994010">
        <ele>43.0</ele>
        <time>2020-02-22T16:44:41Z</time>
      </trkpt>
      <trkpt lat="39.0936620" lon="1.4994300">
        <ele>43.2</ele>
        <time>2020-02-22T16:44:42Z</time>
      </trkpt>
      <trkpt lat="39.0936560" lon="1.4994370">
        <ele>43.2</ele>
        <time>2020-02-22T16:44:43Z</time>
      </trkpt>
      <trkpt lat="39.0936320" lon="1.4994540">
        <ele>43.3</ele>
        <time>2020-02-22T16:44:44Z</time>
      </trkpt>
      <trkpt lat="39.0936210" lon="1.4994630">
        <ele>43.4</ele>
        <time>2020-02-22T16:44:45Z</time>
      </trkpt>
      <trkpt lat="39.0935850" lon="1.4994900">
        <ele>43.6</ele>
        <time>2020-02-22T16:44:46Z</time>
      </trkpt>
      <trkpt lat="39.0935620" lon="1.4995040">
        <ele>43.7</ele>
        <time>2020-02-22T16:44:47Z</time>
      </trkpt>
      <trkpt lat="39.0935360" lon="1.4995250">
        <ele>43.8</ele>
        <time>2020-02-22T16:44:48Z</time>
      </trkpt>
      <trkpt lat="39.0935130" lon="1.4995460">
        <ele>43.9</ele>
        <time>2020-02-22T16:44:49Z</time>
      </trkpt>
      <trkpt lat="39.0934900" lon="1.4995720">
        <ele>44.0</ele>
        <time>2020-02-22T16:44:50Z</time>
      </trkpt>
      <trkpt lat="39.0934650" lon="1.4995920">
        <ele>44.1</ele>
        <time>2020-02-22T16:44:51Z</time>
      </trkpt>
      <trkpt lat="39.0934550" lon="1.4995920">
        <ele>44.1</ele>
        <time>2020-02-22T16:44:52Z</time>
      </trkpt>
      <trkpt lat="39.0934320" lon="1.4996130">
        <ele>44.2</ele>
        <time>2020-02-22T16:44:53Z</time>
      </trkpt>
      <trkpt lat="39.0934090" lon="1.4996420">
        <ele>44.3</ele>
        <time>2020-02-22T16:44:54Z</time>
      </trkpt>
      <trkpt lat="39.0933800" lon="1.4996730">
        <ele>44.4</ele>
        <time>2020-02-22T16:44:55Z</time>
      </trkpt>
      <trkpt lat="39.0933540" lon="1.4996970">
        <ele>44.5</ele>
        <time>2020-02-22T16:44:56Z</time>
      </trkpt>
      <trkpt lat="39.0933480" lon="1.4997090">
        <ele>44.5</ele>
        <time>2020-02-22T16:44:57Z</time>
      </trkpt>
      <trkpt lat="39.0933400" lon="1.4997500">
        <ele>44.6</ele>
        <time>2020-02-22T16:44:58Z</time>
      </trkpt>
      <trkpt lat="39.0933220" lon="1.4997790">
        <ele>44.6</ele>
        <time>2020-02-22T16:44:59Z</time>
      </trkpt>
      <trkpt lat="39.0933160" lon="1.4997860">
        <ele>44.7</ele>
        <time>2020-02-22T16:45:00Z</time>
      </trkpt>
      <trkpt lat="39.0932920" lon="1.4998110">
        <ele>44.7</ele>
        <time>2020-02-22T16:45:01Z</time>
      </trkpt>
      <trkpt lat="39.0932850" lon="1.4998190">
        <ele>44.7</ele>
        <time>2020-02-22T16:45:02Z</time>
      </trkpt>
      <trkpt lat="39.0932620" lon="1.4998450">
        <ele>44.8</ele>
        <time>2020-02-22T16:45:03Z</time>
      </trkpt>
      <trkpt lat="39.0932550" lon="1.4998550">
        <ele>44.9</ele>
        <time>2020-02-22T16:45:04Z</time>
      </trkpt>
      <trkpt lat="39.0932330" lon="1.4998820">
        <ele>45.0</ele>
        <time>2020-02-22T16:45:05Z</time>
      </trkpt>
      <trkpt lat="39.0932260" lon="1.4998900">
        <ele>45.0</ele>
        <time>2020-02-22T16:45:06Z</time>
      </trkpt>
      <trkpt lat="39.0932170" lon="1.4999020">
        <ele>45.0</ele>
        <time>2020-02-22T16:45:07Z</time>
      </trkpt>
      <trkpt lat="39.0932060" lon="1.4999260">
        <ele>45.1</ele>
        <time>2020-02-22T16:45:08Z</time>
      </trkpt>
      <trkpt lat="39.0931790" lon="1.4999510">
        <ele>45.2</ele>
        <time>2020-02-22T16:45:09Z</time>
      </trkpt>
      <trkpt lat="39.0931580" lon="1.4999790">
        <ele>45.3</ele>
        <time>2020-02-22T16:45:10Z</time>
      </trkpt>
      <trkpt lat="39.0931290" lon="1.5000020">
        <ele>45.4</ele>
        <time>2020-02-22T16:45:11Z</time>
      </trkpt>
      <trkpt lat="39.0931020" lon="1.5000250">
        <ele>45.6</ele>
        <time>2020-02-22T16:45:12Z</time>
      </trkpt>
      <trkpt lat="39.0930930" lon="1.5000310">
        <ele>45.6</ele>
        <time>2020-02-22T16:45:13Z</time>
      </trkpt>
      <trkpt lat="39.0930770" lon="1.5000230">
        <ele>45.7</ele>
        <time>2020-02-22T16:45:14Z</time>
      </trkpt>
      <trkpt lat="39.0930600" lon="1.5000290">
        <ele>45.7</ele>
        <time>2020-02-22T16:45:15Z</time>
      </trkpt>
      <trkpt lat="39.0930350" lon="1.5000450">
        <ele>45.8</ele>
        <time>2020-02-22T16:45:16Z</time>
      </trkpt>
      <trkpt lat="39.0930100" lon="1.5000690">
        <ele>45.9</ele>
        <time>2020-02-22T16:45:17Z</time>
      </trkpt>
      <trkpt lat="39.0929900" lon="1.5000950">
        <ele>46.0</ele>
        <time>2020-02-22T16:45:18Z</time>
      </trkpt>
      <trkpt lat="39.0929580" lon="1.5001190">
        <ele>46.1</ele>
        <time>2020-02-22T16:45:19Z</time>
      </trkpt>
      <trkpt lat="39.0929380" lon="1.5001450">
        <ele>46.2</ele>
        <time>2020-02-22T16:45:20Z</time>
      </trkpt>
      <trkpt lat="39.0929050" lon="1.5001680">
        <ele>46.3</ele>
        <time>2020-02-22T16:45:21Z</time>
      </trkpt>
      <trkpt lat="39.0928940" lon="1.5001730">
        <ele>46.4</ele>
        <time>2020-02-22T16:45:22Z</time>
      </trkpt>
      <trkpt lat="39.0928700" lon="1.5002010">
        <ele>46.5</ele>
        <time>2020-02-22T16:45:23Z</time>
      </trkpt>
      <trkpt lat="39.0928630" lon="1.5002120">
        <ele>46.5</ele>
        <time>2020-02-22T16:45:24Z</time>
      </trkpt>
      <trkpt lat="39.0928420" lon="1.5002410">
        <ele>46.6</ele>
        <time>2020-02-22T16:45:25Z</time>
      </trkpt>
      <trkpt lat="39.0928280" lon="1.5002540">
        <ele>46.7</ele>
        <time>2020-02-22T16:45:26Z</time>
      </trkpt>
      <trkpt lat="39.0928040" lon="1.5002820">
        <ele>46.7</ele>
        <time>2020-02-22T16:45:27Z</time>
      </trkpt>
      <trkpt lat="39.0927790" lon="1.5003170">
        <ele>46.8</ele>
        <time>2020-02-22T16:45:28Z</time>
      </trkpt>
      <trkpt lat="39.0927710" lon="1.5003280">
        <ele>46.8</ele>
        <time>2020-02-22T16:45:29Z</time>
      </trkpt>
      <trkpt lat="39.0927470" lon="1.5003530">
        <ele>46.9</ele>
        <time>2020-02-22T16:45:30Z</time>
      </trkpt>
      <trkpt lat="39.0927370" lon="1.5003580">
        <ele>46.9</ele>
        <time>2020-02-22T16:45:31Z</time>
      </trkpt>
      <trkpt lat="39.0927070" lon="1.5003850">
        <ele>46.9</ele>
        <time>2020-02-22T16:45:32Z</time>
      </trkpt>
      <trkpt lat="39.0926960" lon="1.5003950">
        <ele>46.9</ele>
        <time>2020-02-22T16:45:33Z</time>
      </trkpt>
      <trkpt lat="39.0926730" lon="1.5004130">
        <ele>46.9</ele>
        <time>2020-02-22T16:45:34Z</time>
      </trkpt>
      <trkpt lat="39.0926400" lon="1.5004430">
        <ele>46.9</ele>
        <time>2020-02-22T16:45:35Z</time>
      </trkpt>
      <trkpt lat="39.0926250" lon="1.5004530">
        <ele>46.9</ele>
        <time>2020-02-22T16:45:36Z</time>
      </trkpt>
      <trkpt lat="39.0925940" lon="1.5004770">
        <ele>46.9</ele>
        <time>2020-02-22T16:45:37Z</time>
      </trkpt>
      <trkpt lat="39.0925850" lon="1.5004830">
        <ele>46.9</ele>
        <time>2020-02-22T16:45:38Z</time>
      </trkpt>
      <trkpt lat="39.0925490" lon="1.5004940">
        <ele>46.8</ele>
        <time>2020-02-22T16:45:39Z</time>
      </trkpt>
      <trkpt lat="39.0925380" lon="1.5005030">
        <ele>46.9</ele>
        <time>2020-02-22T16:45:40Z</time>
      </trkpt>
      <trkpt lat="39.0925040" lon="1.5005300">
        <ele>46.9</ele>
        <time>2020-02-22T16:45:41Z</time>
      </trkpt>
      <trkpt lat="39.0924920" lon="1.5005400">
        <ele>46.9</ele>
        <time>2020-02-22T16:45:42Z</time>
      </trkpt>
      <trkpt lat="39.0924700" lon="1.5005640">
        <ele>46.9</ele>
        <time>2020-02-22T16:45:43Z</time>
      </trkpt>
      <trkpt lat="39.0924480" lon="1.5005870">
        <ele>47.0</ele>
        <time>2020-02-22T16:45:44Z</time>
      </trkpt>
      <trkpt lat="39.0924240" lon="1.5006080">
        <ele>47.0</ele>
        <time>2020-02-22T16:45:45Z</time>
      </trkpt>
      <trkpt lat="39.0923970" lon="1.5006380">
        <ele>47.1</ele>
        <time>2020-02-22T16:45:46Z</time>
      </trkpt>
      <trkpt lat="39.0923750" lon="1.5006630">
        <ele>47.2</ele>
        <time>2020-02-22T16:45:47Z</time>
      </trkpt>
      <trkpt lat="39.0923530" lon="1.5006880">
        <ele>47.2</ele>
        <time>2020-02-22T16:45:48Z</time>
      </trkpt>
      <trkpt lat="39.0923280" lon="1.5007050">
        <ele>47.2</ele>
        <time>2020-02-22T16:45:49Z</time>
      </trkpt>
      <trkpt lat="39.0923020" lon="1.5007230">
        <ele>47.3</ele>
        <time>2020-02-22T16:45:50Z</time>
      </trkpt>
      <trkpt lat="39.0922740" lon="1.5007450">
        <ele>47.3</ele>
        <time>2020-02-22T16:45:51Z</time>
      </trkpt>
      <trkpt lat="39.0922410" lon="1.5007690">
        <ele>47.3</ele>
        <time>2020-02-22T16:45:52Z</time>
      </trkpt>
      <trkpt lat="39.0922110" lon="1.5007990">
        <ele>47.3</ele>
        <time>2020-02-22T16:45:53Z</time>
      </trkpt>
      <trkpt lat="39.0921780" lon="1.5008350">
        <ele>47.3</ele>
        <time>2020-02-22T16:45:54Z</time>
      </trkpt>
      <trkpt lat="39.0921510" lon="1.5008700">
        <ele>47.2</ele>
        <time>2020-02-22T16:45:55Z</time>
      </trkpt>
      <trkpt lat="39.0921270" lon="1.5009040">
        <ele>47.2</ele>
        <time>2020-02-22T16:45:56Z</time>
      </trkpt>
      <trkpt lat="39.0920940" lon="1.5009380">
        <ele>47.2</ele>
        <time>2020-02-22T16:45:57Z</time>
      </trkpt>
      <trkpt lat="39.0920650" lon="1.5009690">
        <ele>47.2</ele>
        <time>2020-02-22T16:45:58Z</time>
      </trkpt>
      <trkpt lat="39.0920340" lon="1.5010010">
        <ele>47.3</ele>
        <time>2020-02-22T16:45:59Z</time>
      </trkpt>
      <trkpt lat="39.0920060" lon="1.5010360">
        <ele>47.3</ele>
        <time>2020-02-22T16:46:00Z</time>
      </trkpt>
      <trkpt lat="39.0919800" lon="1.5010630">
        <ele>47.3</ele>
        <time>2020-02-22T16:46:01Z</time>
      </trkpt>
      <trkpt lat="39.0919540" lon="1.5010930">
        <ele>47.4</ele>
        <time>2020-02-22T16:46:02Z</time>
      </trkpt>
      <trkpt lat="39.0919270" lon="1.5011230">
        <ele>47.5</ele>
        <time>2020-02-22T16:46:03Z</time>
      </trkpt>
      <trkpt lat="39.0919030" lon="1.5011500">
        <ele>47.5</ele>
        <time>2020-02-22T16:46:04Z</time>
      </trkpt>
      <trkpt lat="39.0918790" lon="1.5011810">
        <ele>47.6</ele>
        <time>2020-02-22T16:46:05Z</time>
      </trkpt>
      <trkpt lat="39.0918520" lon="1.5012210">
        <ele>47.7</ele>
        <time>2020-02-22T16:46:06Z</time>
      </trkpt>
      <trkpt lat="39.0918230" lon="1.5012600">
        <ele>47.9</ele>
        <time>2020-02-22T16:46:07Z</time>
      </trkpt>
      <trkpt lat="39.0917950" lon="1.5012990">
        <ele>48.0</ele>
        <time>2020-02-22T16:46:08Z</time>
      </trkpt>
      <trkpt lat="39.0917620" lon="1.5013360">
        <ele>48.1</ele>
        <time>2020-02-22T16:46:09Z</time>
      </trkpt>
      <trkpt lat="39.0917380" lon="1.5013710">
        <ele>48.2</ele>
        <time>2020-02-22T16:46:10Z</time>
      </trkpt>
      <trkpt lat="39.0917010" lon="1.5014120">
        <ele>48.3</ele>
        <time>2020-02-22T16:46:11Z</time>
      </trkpt>
      <trkpt lat="39.0916700" lon="1.5014530">
        <ele>48.4</ele>
        <time>2020-02-22T16:46:12Z</time>
      </trkpt>
      <trkpt lat="39.0916360" lon="1.5014940">
        <ele>48.5</ele>
        <time>2020-02-22T16:46:13Z</time>
      </trkpt>
      <trkpt lat="39.0916120" lon="1.5015390">
        <ele>48.6</ele>
        <time>2020-02-22T16:46:14Z</time>
      </trkpt>
      <trkpt lat="39.0915930" lon="1.5015810">
        <ele>48.7</ele>
        <time>2020-02-22T16:46:15Z</time>
      </trkpt>
      <trkpt lat="39.0915760" lon="1.5016220">
        <ele>48.8</ele>
        <time>2020-02-22T16:46:16Z</time>
      </trkpt>
      <trkpt lat="39.0915560" lon="1.5016620">
        <ele>48.9</ele>
        <time>2020-02-22T16:46:17Z</time>
      </trkpt>
      <trkpt lat="39.0915330" lon="1.5016930">
        <ele>49.0</ele>
        <time>2020-02-22T16:46:18Z</time>
      </trkpt>
      <trkpt lat="39.0915040" lon="1.5017240">
        <ele>49.2</ele>
        <time>2020-02-22T16:46:19Z</time>
      </trkpt>
      <trkpt lat="39.0914790" lon="1.5017590">
        <ele>49.4</ele>
        <time>2020-02-22T16:46:20Z</time>
      </trkpt>
      <trkpt lat="39.0914470" lon="1.5018000">
        <ele>49.6</ele>
        <time>2020-02-22T16:46:21Z</time>
      </trkpt>
      <trkpt lat="39.0914180" lon="1.5018480">
        <ele>49.8</ele>
        <time>2020-02-22T16:46:22Z</time>
      </trkpt>
      <trkpt lat="39.0913950" lon="1.5018810">
        <ele>49.9</ele>
        <time>2020-02-22T16:46:23Z</time>
      </trkpt>
      <trkpt lat="39.0913670" lon="1.5019130">
        <ele>50.1</ele>
        <time>2020-02-22T16:46:24Z</time>
      </trkpt>
      <trkpt lat="39.0913440" lon="1.5019470">
        <ele>50.2</ele>
        <time>2020-02-22T16:46:25Z</time>
      </trkpt>
      <trkpt lat="39.0913150" lon="1.5019860">
        <ele>50.4</ele>
        <time>2020-02-22T16:46:26Z</time>
      </trkpt>
      <trkpt lat="39.0912890" lon="1.5020210">
        <ele>50.5</ele>
        <time>2020-02-22T16:46:27Z</time>
      </trkpt>
      <trkpt lat="39.0912670" lon="1.5020540">
        <ele>50.6</ele>
        <time>2020-02-22T16:46:28Z</time>
      </trkpt>
      <trkpt lat="39.0912390" lon="1.5020990">
        <ele>50.7</ele>
        <time>2020-02-22T16:46:29Z</time>
      </trkpt>
      <trkpt lat="39.0912120" lon="1.5021250">
        <ele>50.8</ele>
        <time>2020-02-22T16:46:30Z</time>
      </trkpt>
      <trkpt lat="39.0911910" lon="1.5021650">
        <ele>50.9</ele>
        <time>2020-02-22T16:46:31Z</time>
      </trkpt>
      <trkpt lat="39.0911570" lon="1.5022130">
        <ele>50.9</ele>
        <time>2020-02-22T16:46:32Z</time>
      </trkpt>
      <trkpt lat="39.0911360" lon="1.5022630">
        <ele>51.0</ele>
        <time>2020-02-22T16:46:33Z</time>
      </trkpt>
      <trkpt lat="39.0911130" lon="1.5023040">
        <ele>51.0</ele>
        <time>2020-02-22T16:46:34Z</time>
      </trkpt>
      <trkpt lat="39.0910880" lon="1.5023340">
        <ele>51.0</ele>
        <time>2020-02-22T16:46:35Z</time>
      </trkpt>
      <trkpt lat="39.0910720" lon="1.5023720">
        <ele>50.9</ele>
        <time>2020-02-22T16:46:36Z</time>
      </trkpt>
      <trkpt lat="39.0910540" lon="1.5024060">
        <ele>50.9</ele>
        <time>2020-02-22T16:46:37Z</time>
      </trkpt>
      <trkpt lat="39.0910360" lon="1.5024410">
        <ele>50.9</ele>
        <time>2020-02-22T16:46:38Z</time>
      </trkpt>
      <trkpt lat="39.0910030" lon="1.5024740">
        <ele>50.8</ele>
        <time>2020-02-22T16:46:39Z</time>
      </trkpt>
      <trkpt lat="39.0909880" lon="1.5024850">
        <ele>50.8</ele>
        <time>2020-02-22T16:46:40Z</time>
      </trkpt>
      <trkpt lat="39.0909540" lon="1.5025120">
        <ele>50.8</ele>
        <time>2020-02-22T16:46:41Z</time>
      </trkpt>
      <trkpt lat="39.0909340" lon="1.5025390">
        <ele>50.8</ele>
        <time>2020-02-22T16:46:42Z</time>
      </trkpt>
      <trkpt lat="39.0909070" lon="1.5025570">
        <ele>50.8</ele>
        <time>2020-02-22T16:46:43Z</time>
      </trkpt>
      <trkpt lat="39.0908860" lon="1.5025800">
        <ele>50.8</ele>
        <time>2020-02-22T16:46:44Z</time>
      </trkpt>
      <trkpt lat="39.0908560" lon="1.5026030">
        <ele>50.9</ele>
        <time>2020-02-22T16:46:45Z</time>
      </trkpt>
      <trkpt lat="39.0908140" lon="1.5026330">
        <ele>51.0</ele>
        <time>2020-02-22T16:46:46Z</time>
      </trkpt>
      <trkpt lat="39.0907900" lon="1.5026440">
        <ele>51.0</ele>
        <time>2020-02-22T16:46:47Z</time>
      </trkpt>
      <trkpt lat="39.0907530" lon="1.5026610">
        <ele>51.2</ele>
        <time>2020-02-22T16:46:48Z</time>
      </trkpt>
      <trkpt lat="39.0907290" lon="1.5026800">
        <ele>51.3</ele>
        <time>2020-02-22T16:46:49Z</time>
      </trkpt>
      <trkpt lat="39.0907150" lon="1.5026820">
        <ele>51.4</ele>
        <time>2020-02-22T16:46:50Z</time>
      </trkpt>
      <trkpt lat="39.0906720" lon="1.5026930">
        <ele>51.6</ele>
        <time>2020-02-22T16:46:51Z</time>
      </trkpt>
      <trkpt lat="39.0906450" lon="1.5026930">
        <ele>51.7</ele>
        <time>2020-02-22T16:46:52Z</time>
      </trkpt>
      <trkpt lat="39.0906020" lon="1.5027090">
        <ele>51.9</ele>
        <time>2020-02-22T16:46:53Z</time>
      </trkpt>
      <trkpt lat="39.0905600" lon="1.5027060">
        <ele>52.0</ele>
        <time>2020-02-22T16:46:54Z</time>
      </trkpt>
      <trkpt lat="39.0905310" lon="1.5027240">
        <ele>52.1</ele>
        <time>2020-02-22T16:46:55Z</time>
      </trkpt>
      <trkpt lat="39.0904960" lon="1.5027240">
        <ele>52.2</ele>
        <time>2020-02-22T16:46:56Z</time>
      </trkpt>
      <trkpt lat="39.0904630" lon="1.5027230">
        <ele>52.2</ele>
        <time>2020-02-22T16:46:57Z</time>
      </trkpt>
      <trkpt lat="39.0904280" lon="1.5027150">
        <ele>52.2</ele>
        <time>2020-02-22T16:46:58Z</time>
      </trkpt>
      <trkpt lat="39.0903930" lon="1.5027100">
        <ele>52.2</ele>
        <time>2020-02-22T16:46:59Z</time>
      </trkpt>
      <trkpt lat="39.0903530" lon="1.5027040">
        <ele>52.1</ele>
        <time>2020-02-22T16:47:00Z</time>
      </trkpt>
      <trkpt lat="39.0903160" lon="1.5026930">
        <ele>52.0</ele>
        <time>2020-02-22T16:47:01Z</time>
      </trkpt>
      <trkpt lat="39.0902770" lon="1.5026810">
        <ele>51.9</ele>
        <time>2020-02-22T16:47:02Z</time>
      </trkpt>
      <trkpt lat="39.0902350" lon="1.5026950">
        <ele>51.7</ele>
        <time>2020-02-22T16:47:03Z</time>
      </trkpt>
      <trkpt lat="39.0901940" lon="1.5026790">
        <ele>51.7</ele>
        <time>2020-02-22T16:47:04Z</time>
      </trkpt>
      <trkpt lat="39.0901550" lon="1.5026700">
        <ele>51.7</ele>
        <time>2020-02-22T16:47:05Z</time>
      </trkpt>
      <trkpt lat="39.0901120" lon="1.5026470">
        <ele>51.9</ele>
        <time>2020-02-22T16:47:06Z</time>
      </trkpt>
      <trkpt lat="39.0900640" lon="1.5026190">
        <ele>52.2</ele>
        <time>2020-02-22T16:47:07Z</time>
      </trkpt>
      <trkpt lat="39.0900190" lon="1.5026040">
        <ele>52.5</ele>
        <time>2020-02-22T16:47:08Z</time>
      </trkpt>
      <trkpt lat="39.0899820" lon="1.5025890">
        <ele>52.7</ele>
        <time>2020-02-22T16:47:09Z</time>
      </trkpt>
      <trkpt lat="39.0899480" lon="1.5025780">
        <ele>52.9</ele>
        <time>2020-02-22T16:47:10Z</time>
      </trkpt>
      <trkpt lat="39.0899110" lon="1.5025710">
        <ele>53.2</ele>
        <time>2020-02-22T16:47:11Z</time>
      </trkpt>
      <trkpt lat="39.0898770" lon="1.5025620">
        <ele>53.3</ele>
        <time>2020-02-22T16:47:12Z</time>
      </trkpt>
      <trkpt lat="39.0898290" lon="1.5025360">
        <ele>53.6</ele>
        <time>2020-02-22T16:47:13Z</time>
      </trkpt>
      <trkpt lat="39.0897870" lon="1.5025210">
        <ele>53.7</ele>
        <time>2020-02-22T16:47:14Z</time>
      </trkpt>
      <trkpt lat="39.0897510" lon="1.5025050">
        <ele>53.9</ele>
        <time>2020-02-22T16:47:15Z</time>
      </trkpt>
      <trkpt lat="39.0897070" lon="1.5024900">
        <ele>54.0</ele>
        <time>2020-02-22T16:47:16Z</time>
      </trkpt>
      <trkpt lat="39.0896580" lon="1.5024570">
        <ele>54.2</ele>
        <time>2020-02-22T16:47:17Z</time>
      </trkpt>
      <trkpt lat="39.0896120" lon="1.5024390">
        <ele>54.5</ele>
        <time>2020-02-22T16:47:18Z</time>
      </trkpt>
      <trkpt lat="39.0895640" lon="1.5024210">
        <ele>54.4</ele>
        <time>2020-02-22T16:47:19Z</time>
      </trkpt>
      <trkpt lat="39.0895190" lon="1.5024090">
        <ele>54.3</ele>
        <time>2020-02-22T16:47:20Z</time>
      </trkpt>
      <trkpt lat="39.0894650" lon="1.5023890">
        <ele>54.2</ele>
        <time>2020-02-22T16:47:21Z</time>
      </trkpt>
      <trkpt lat="39.0894090" lon="1.5023690">
        <ele>54.1</ele>
        <time>2020-02-22T16:47:22Z</time>
      </trkpt>
      <trkpt lat="39.0893580" lon="1.5023480">
        <ele>54.2</ele>
        <time>2020-02-22T16:47:23Z</time>
      </trkpt>
      <trkpt lat="39.0893130" lon="1.5023210">
        <ele>54.4</ele>
        <time>2020-02-22T16:47:24Z</time>
      </trkpt>
      <trkpt lat="39.0892710" lon="1.5022880">
        <ele>54.5</ele>
        <time>2020-02-22T16:47:25Z</time>
      </trkpt>
      <trkpt lat="39.0892200" lon="1.5022770">
        <ele>54.7</ele>
        <time>2020-02-22T16:47:26Z</time>
      </trkpt>
      <trkpt lat="39.0891690" lon="1.5022570">
        <ele>54.9</ele>
        <time>2020-02-22T16:47:27Z</time>
      </trkpt>
      <trkpt lat="39.0891160" lon="1.5022350">
        <ele>55.1</ele>
        <time>2020-02-22T16:47:28Z</time>
      </trkpt>
      <trkpt lat="39.0890670" lon="1.5022180">
        <ele>55.3</ele>
        <time>2020-02-22T16:47:29Z</time>
      </trkpt>
      <trkpt lat="39.0890170" lon="1.5022000">
        <ele>55.6</ele>
        <time>2020-02-22T16:47:30Z</time>
      </trkpt>
      <trkpt lat="39.0889750" lon="1.5021930">
        <ele>55.8</ele>
        <time>2020-02-22T16:47:31Z</time>
      </trkpt>
      <trkpt lat="39.0889280" lon="1.5021760">
        <ele>56.0</ele>
        <time>2020-02-22T16:47:32Z</time>
      </trkpt>
      <trkpt lat="39.0888910" lon="1.5021510">
        <ele>56.2</ele>
        <time>2020-02-22T16:47:33Z</time>
      </trkpt>
      <trkpt lat="39.0888550" lon="1.5021330">
        <ele>56.6</ele>
        <time>2020-02-22T16:47:34Z</time>
      </trkpt>
      <trkpt lat="39.0888230" lon="1.5021120">
        <ele>56.6</ele>
        <time>2020-02-22T16:47:35Z</time>
      </trkpt>
      <trkpt lat="39.0887870" lon="1.5021010">
        <ele>56.6</ele>
        <time>2020-02-22T16:47:36Z</time>
      </trkpt>
      <trkpt lat="39.0887600" lon="1.5020900">
        <ele>56.7</ele>
        <time>2020-02-22T16:47:37Z</time>
      </trkpt>
      <trkpt lat="39.0887330" lon="1.5020790">
        <ele>56.7</ele>
        <time>2020-02-22T16:47:38Z</time>
      </trkpt>
      <trkpt lat="39.0886990" lon="1.5020700">
        <ele>56.7</ele>
        <time>2020-02-22T16:47:39Z</time>
      </trkpt>
      <trkpt lat="39.0886720" lon="1.5020460">
        <ele>56.8</ele>
        <time>2020-02-22T16:47:40Z</time>
      </trkpt>
      <trkpt lat="39.0886600" lon="1.5020380">
        <ele>56.8</ele>
        <time>2020-02-22T16:47:41Z</time>
      </trkpt>
      <trkpt lat="39.0886310" lon="1.5020310">
        <ele>56.9</ele>
        <time>2020-02-22T16:47:42Z</time>
      </trkpt>
      <trkpt lat="39.0886000" lon="1.5020200">
        <ele>57.0</ele>
        <time>2020-02-22T16:47:43Z</time>
      </trkpt>
      <trkpt lat="39.0885660" lon="1.5020170">
        <ele>57.2</ele>
        <time>2020-02-22T16:47:44Z</time>
      </trkpt>
      <trkpt lat="39.0885370" lon="1.5020090">
        <ele>57.3</ele>
        <time>2020-02-22T16:47:45Z</time>
      </trkpt>
      <trkpt lat="39.0885080" lon="1.5019890">
        <ele>57.5</ele>
        <time>2020-02-22T16:47:46Z</time>
      </trkpt>
      <trkpt lat="39.0884960" lon="1.5019790">
        <ele>57.6</ele>
        <time>2020-02-22T16:47:47Z</time>
      </trkpt>
      <trkpt lat="39.0884580" lon="1.5019610">
        <ele>57.9</ele>
        <time>2020-02-22T16:47:48Z</time>
      </trkpt>
      <trkpt lat="39.0884440" lon="1.5019550">
        <ele>58.0</ele>
        <time>2020-02-22T16:47:49Z</time>
      </trkpt>
      <trkpt lat="39.0884150" lon="1.5019350">
        <ele>58.3</ele>
        <time>2020-02-22T16:47:50Z</time>
      </trkpt>
      <trkpt lat="39.0883840" lon="1.5019080">
        <ele>58.6</ele>
        <time>2020-02-22T16:47:51Z</time>
      </trkpt>
      <trkpt lat="39.0883710" lon="1.5019020">
        <ele>58.7</ele>
        <time>2020-02-22T16:47:52Z</time>
      </trkpt>
      <trkpt lat="39.0883360" lon="1.5018870">
        <ele>59.0</ele>
        <time>2020-02-22T16:47:53Z</time>
      </trkpt>
      <trkpt lat="39.0883090" lon="1.5018820">
        <ele>59.3</ele>
        <time>2020-02-22T16:47:54Z</time>
      </trkpt>
      <trkpt lat="39.0882720" lon="1.5018770">
        <ele>59.6</ele>
        <time>2020-02-22T16:47:55Z</time>
      </trkpt>
      <trkpt lat="39.0882590" lon="1.5018730">
        <ele>59.7</ele>
        <time>2020-02-22T16:47:56Z</time>
      </trkpt>
      <trkpt lat="39.0882350" lon="1.5018540">
        <ele>59.9</ele>
        <time>2020-02-22T16:47:57Z</time>
      </trkpt>
      <trkpt lat="39.0882080" lon="1.5018370">
        <ele>60.1</ele>
        <time>2020-02-22T16:47:58Z</time>
      </trkpt>
      <trkpt lat="39.0881780" lon="1.5018270">
        <ele>60.4</ele>
        <time>2020-02-22T16:47:59Z</time>
      </trkpt>
      <trkpt lat="39.0881510" lon="1.5018160">
        <ele>60.6</ele>
        <time>2020-02-22T16:48:00Z</time>
      </trkpt>
      <trkpt lat="39.0881240" lon="1.5018040">
        <ele>60.8</ele>
        <time>2020-02-22T16:48:01Z</time>
      </trkpt>
      <trkpt lat="39.0880970" lon="1.5017860">
        <ele>61.0</ele>
        <time>2020-02-22T16:48:02Z</time>
      </trkpt>
      <trkpt lat="39.0880650" lon="1.5017710">
        <ele>61.2</ele>
        <time>2020-02-22T16:48:03Z</time>
      </trkpt>
      <trkpt lat="39.0880330" lon="1.5017550">
        <ele>61.4</ele>
        <time>2020-02-22T16:48:04Z</time>
      </trkpt>
      <trkpt lat="39.0879940" lon="1.5017510">
        <ele>61.7</ele>
        <time>2020-02-22T16:48:05Z</time>
      </trkpt>
      <trkpt lat="39.0879810" lon="1.5017500">
        <ele>61.8</ele>
        <time>2020-02-22T16:48:06Z</time>
      </trkpt>
      <trkpt lat="39.0879580" lon="1.5017310">
        <ele>61.9</ele>
        <time>2020-02-22T16:48:07Z</time>
      </trkpt>
      <trkpt lat="39.0879310" lon="1.5017190">
        <ele>62.1</ele>
        <time>2020-02-22T16:48:08Z</time>
      </trkpt>
      <trkpt lat="39.0878990" lon="1.5017120">
        <ele>62.4</ele>
        <time>2020-02-22T16:48:09Z</time>
      </trkpt>
      <trkpt lat="39.0878710" lon="1.5017100">
        <ele>62.6</ele>
        <time>2020-02-22T16:48:10Z</time>
      </trkpt>
      <trkpt lat="39.0878400" lon="1.5017000">
        <ele>62.8</ele>
        <time>2020-02-22T16:48:11Z</time>
      </trkpt>
      <trkpt lat="39.0878250" lon="1.5016970">
        <ele>62.9</ele>
        <time>2020-02-22T16:48:12Z</time>
      </trkpt>
      <trkpt lat="39.0877950" lon="1.5016890">
        <ele>63.1</ele>
        <time>2020-02-22T16:48:13Z</time>
      </trkpt>
      <trkpt lat="39.0877670" lon="1.5016820">
        <ele>63.3</ele>
        <time>2020-02-22T16:48:14Z</time>
      </trkpt>
      <trkpt lat="39.0877270" lon="1.5016810">
        <ele>63.6</ele>
        <time>2020-02-22T16:48:15Z</time>
      </trkpt>
      <trkpt lat="39.0876900" lon="1.5016850">
        <ele>63.9</ele>
        <time>2020-02-22T16:48:16Z</time>
      </trkpt>
      <trkpt lat="39.0876790" lon="1.5016860">
        <ele>64.0</ele>
        <time>2020-02-22T16:48:17Z</time>
      </trkpt>
      <trkpt lat="39.0876500" lon="1.5016870">
        <ele>64.2</ele>
        <time>2020-02-22T16:48:18Z</time>
      </trkpt>
      <trkpt lat="39.0876390" lon="1.5016870">
        <ele>64.3</ele>
        <time>2020-02-22T16:48:19Z</time>
      </trkpt>
      <trkpt lat="39.0875990" lon="1.5016860">
        <ele>64.6</ele>
        <time>2020-02-22T16:48:20Z</time>
      </trkpt>
      <trkpt lat="39.0875620" lon="1.5016830">
        <ele>64.9</ele>
        <time>2020-02-22T16:48:21Z</time>
      </trkpt>
      <trkpt lat="39.0875330" lon="1.5016820">
        <ele>65.1</ele>
        <time>2020-02-22T16:48:22Z</time>
      </trkpt>
      <trkpt lat="39.0875130" lon="1.5016800">
        <ele>65.2</ele>
        <time>2020-02-22T16:48:23Z</time>
      </trkpt>
      <trkpt lat="39.0874990" lon="1.5016810">
        <ele>65.3</ele>
        <time>2020-02-22T16:48:24Z</time>
      </trkpt>
      <trkpt lat="39.0874820" lon="1.5016800">
        <ele>65.4</ele>
        <time>2020-02-22T16:48:25Z</time>
      </trkpt>
      <trkpt lat="39.0874640" lon="1.5016810">
        <ele>65.6</ele>
        <time>2020-02-22T16:48:26Z</time>
      </trkpt>
      <trkpt lat="39.0874290" lon="1.5016900">
        <ele>65.8</ele>
        <time>2020-02-22T16:48:27Z</time>
      </trkpt>
      <trkpt lat="39.0873920" lon="1.5016990">
        <ele>66.1</ele>
        <time>2020-02-22T16:48:28Z</time>
      </trkpt>
      <trkpt lat="39.0873800" lon="1.5017020">
        <ele>66.3</ele>
        <time>2020-02-22T16:48:29Z</time>
      </trkpt>
      <trkpt lat="39.0873410" lon="1.5017040">
        <ele>66.6</ele>
        <time>2020-02-22T16:48:30Z</time>
      </trkpt>
      <trkpt lat="39.0873270" lon="1.5017040">
        <ele>66.7</ele>
        <time>2020-02-22T16:48:31Z</time>
      </trkpt>
      <trkpt lat="39.0873120" lon="1.5017130">
        <ele>66.8</ele>
        <time>2020-02-22T16:48:32Z</time>
      </trkpt>
      <trkpt lat="39.0873000" lon="1.5017100">
        <ele>66.9</ele>
        <time>2020-02-22T16:48:33Z</time>
      </trkpt>
      <trkpt lat="39.0872710" lon="1.5017060">
        <ele>67.2</ele>
        <time>2020-02-22T16:48:34Z</time>
      </trkpt>
      <trkpt lat="39.0872610" lon="1.5017060">
        <ele>67.3</ele>
        <time>2020-02-22T16:48:35Z</time>
      </trkpt>
      <trkpt lat="39.0872340" lon="1.5017060">
        <ele>67.6</ele>
        <time>2020-02-22T16:48:36Z</time>
      </trkpt>
      <trkpt lat="39.0872030" lon="1.5017040">
        <ele>67.9</ele>
        <time>2020-02-22T16:48:37Z</time>
      </trkpt>
      <trkpt lat="39.0871930" lon="1.5017020">
        <ele>68.0</ele>
        <time>2020-02-22T16:48:38Z</time>
      </trkpt>
      <trkpt lat="39.0871600" lon="1.5016970">
        <ele>68.3</ele>
        <time>2020-02-22T16:48:39Z</time>
      </trkpt>
      <trkpt lat="39.0871490" lon="1.5016990">
        <ele>68.4</ele>
        <time>2020-02-22T16:48:40Z</time>
      </trkpt>
      <trkpt lat="39.0871310" lon="1.5016960">
        <ele>68.6</ele>
        <time>2020-02-22T16:48:41Z</time>
      </trkpt>
      <trkpt lat="39.0871130" lon="1.5016980">
        <ele>68.7</ele>
        <time>2020-02-22T16:48:42Z</time>
      </trkpt>
      <trkpt lat="39.0870790" lon="1.5016920">
        <ele>69.0</ele>
        <time>2020-02-22T16:48:43Z</time>
      </trkpt>
      <trkpt lat="39.0870670" lon="1.5016930">
        <ele>69.1</ele>
        <time>2020-02-22T16:48:44Z</time>
      </trkpt>
      <trkpt lat="39.0870310" lon="1.5016950">
        <ele>69.4</ele>
        <time>2020-02-22T16:48:45Z</time>
      </trkpt>
      <trkpt lat="39.0870210" lon="1.5016930">
        <ele>69.4</ele>
        <time>2020-02-22T16:48:46Z</time>
      </trkpt>
      <trkpt lat="39.0869920" lon="1.5017090">
        <ele>69.7</ele>
        <time>2020-02-22T16:48:47Z</time>
      </trkpt>
      <trkpt lat="39.0869640" lon="1.5017160">
        <ele>69.8</ele>
        <time>2020-02-22T16:48:48Z</time>
      </trkpt>
      <trkpt lat="39.0869380" lon="1.5017280">
        <ele>70.0</ele>
        <time>2020-02-22T16:48:49Z</time>
      </trkpt>
      <trkpt lat="39.0869240" lon="1.5017310">
        <ele>70.1</ele>
        <time>2020-02-22T16:48:50Z</time>
      </trkpt>
      <trkpt lat="39.0868900" lon="1.5017330">
        <ele>70.3</ele>
        <time>2020-02-22T16:48:51Z</time>
      </trkpt>
      <trkpt lat="39.0868570" lon="1.5017310">
        <ele>70.5</ele>
        <time>2020-02-22T16:48:52Z</time>
      </trkpt>
      <trkpt lat="39.0868300" lon="1.5017260">
        <ele>70.6</ele>
        <time>2020-02-22T16:48:53Z</time>
      </trkpt>
      <trkpt lat="39.0868020" lon="1.5017180">
        <ele>70.8</ele>
        <time>2020-02-22T16:48:54Z</time>
      </trkpt>
      <trkpt lat="39.0867660" lon="1.5016990">
        <ele>71.0</ele>
        <time>2020-02-22T16:48:55Z</time>
      </trkpt>
      <trkpt lat="39.0867540" lon="1.5016930">
        <ele>71.0</ele>
        <time>2020-02-22T16:48:56Z</time>
      </trkpt>
      <trkpt lat="39.0867210" lon="1.5016760">
        <ele>71.2</ele>
        <time>2020-02-22T16:48:57Z</time>
      </trkpt>
      <trkpt lat="39.0867080" lon="1.5016680">
        <ele>71.3</ele>
        <time>2020-02-22T16:48:58Z</time>
      </trkpt>
      <trkpt lat="39.0866820" lon="1.5016500">
        <ele>71.4</ele>
        <time>2020-02-22T16:48:59Z</time>
      </trkpt>
      <trkpt lat="39.0866740" lon="1.5016430">
        <ele>71.4</ele>
        <time>2020-02-22T16:49:00Z</time>
      </trkpt>
      <trkpt lat="39.0866460" lon="1.5016290">
        <ele>71.6</ele>
        <time>2020-02-22T16:49:01Z</time>
      </trkpt>
      <trkpt lat="39.0866360" lon="1.5016260">
        <ele>71.7</ele>
        <time>2020-02-22T16:49:02Z</time>
      </trkpt>
      <trkpt lat="39.0866090" lon="1.5016050">
        <ele>71.8</ele>
        <time>2020-02-22T16:49:03Z</time>
      </trkpt>
      <trkpt lat="39.0865990" lon="1.5015960">
        <ele>71.9</ele>
        <time>2020-02-22T16:49:04Z</time>
      </trkpt>
      <trkpt lat="39.0865630" lon="1.5015800">
        <ele>72.1</ele>
        <time>2020-02-22T16:49:05Z</time>
      </trkpt>
      <trkpt lat="39.0865520" lon="1.5015730">
        <ele>72.2</ele>
        <time>2020-02-22T16:49:06Z</time>
      </trkpt>
      <trkpt lat="39.0865250" lon="1.5015550">
        <ele>72.4</ele>
        <time>2020-02-22T16:49:07Z</time>
      </trkpt>
      <trkpt lat="39.0865160" lon="1.5015490">
        <ele>72.4</ele>
        <time>2020-02-22T16:49:08Z</time>
      </trkpt>
      <trkpt lat="39.0864870" lon="1.5015280">
        <ele>72.6</ele>
        <time>2020-02-22T16:49:09Z</time>
      </trkpt>
      <trkpt lat="39.0864760" lon="1.5015220">
        <ele>72.7</ele>
        <time>2020-02-22T16:49:10Z</time>
      </trkpt>
      <trkpt lat="39.0864410" lon="1.5015000">
        <ele>73.0</ele>
        <time>2020-02-22T16:49:11Z</time>
      </trkpt>
      <trkpt lat="39.0864300" lon="1.5014920">
        <ele>73.1</ele>
        <time>2020-02-22T16:49:12Z</time>
      </trkpt>
      <trkpt lat="39.0863940" lon="1.5014850">
        <ele>73.4</ele>
        <time>2020-02-22T16:49:13Z</time>
      </trkpt>
      <trkpt lat="39.0863800" lon="1.5014770">
        <ele>73.5</ele>
        <time>2020-02-22T16:49:14Z</time>
      </trkpt>
      <trkpt lat="39.0863490" lon="1.5014590">
        <ele>73.7</ele>
        <time>2020-02-22T16:49:15Z</time>
      </trkpt>
      <trkpt lat="39.0863390" lon="1.5014500">
        <ele>73.8</ele>
        <time>2020-02-22T16:49:16Z</time>
      </trkpt>
      <trkpt lat="39.0863090" lon="1.5014260">
        <ele>74.1</ele>
        <time>2020-02-22T16:49:17Z</time>
      </trkpt>
      <trkpt lat="39.0863010" lon="1.5014180">
        <ele>74.2</ele>
        <time>2020-02-22T16:49:18Z</time>
      </trkpt>
      <trkpt lat="39.0862700" lon="1.5013960">
        <ele>74.5</ele>
        <time>2020-02-22T16:49:19Z</time>
      </trkpt>
      <trkpt lat="39.0862600" lon="1.5013890">
        <ele>74.6</ele>
        <time>2020-02-22T16:49:20Z</time>
      </trkpt>
      <trkpt lat="39.0862270" lon="1.5013790">
        <ele>74.8</ele>
        <time>2020-02-22T16:49:21Z</time>
      </trkpt>
      <trkpt lat="39.0862170" lon="1.5013750">
        <ele>74.9</ele>
        <time>2020-02-22T16:49:22Z</time>
      </trkpt>
      <trkpt lat="39.0861840" lon="1.5013470">
        <ele>75.2</ele>
        <time>2020-02-22T16:49:23Z</time>
      </trkpt>
      <trkpt lat="39.0861730" lon="1.5013380">
        <ele>75.3</ele>
        <time>2020-02-22T16:49:24Z</time>
      </trkpt>
      <trkpt lat="39.0861470" lon="1.5013240">
        <ele>75.5</ele>
        <time>2020-02-22T16:49:25Z</time>
      </trkpt>
      <trkpt lat="39.0861110" lon="1.5013090">
        <ele>75.8</ele>
        <time>2020-02-22T16:49:26Z</time>
      </trkpt>
      <trkpt lat="39.0860980" lon="1.5013000">
        <ele>75.9</ele>
        <time>2020-02-22T16:49:27Z</time>
      </trkpt>
      <trkpt lat="39.0860680" lon="1.5012920">
        <ele>76.1</ele>
        <time>2020-02-22T16:49:28Z</time>
      </trkpt>
      <trkpt lat="39.0860560" lon="1.5012900">
        <ele>76.2</ele>
        <time>2020-02-22T16:49:29Z</time>
      </trkpt>
      <trkpt lat="39.0860260" lon="1.5012750">
        <ele>76.4</ele>
        <time>2020-02-22T16:49:30Z</time>
      </trkpt>
      <trkpt lat="39.0860140" lon="1.5012700">
        <ele>76.5</ele>
        <time>2020-02-22T16:49:31Z</time>
      </trkpt>
      <trkpt lat="39.0859790" lon="1.5012570">
        <ele>76.8</ele>
        <time>2020-02-22T16:49:32Z</time>
      </trkpt>
      <trkpt lat="39.0859680" lon="1.5012570">
        <ele>76.9</ele>
        <time>2020-02-22T16:49:33Z</time>
      </trkpt>
      <trkpt lat="39.0859410" lon="1.5012430">
        <ele>77.1</ele>
        <time>2020-02-22T16:49:34Z</time>
      </trkpt>
      <trkpt lat="39.0859150" lon="1.5012220">
        <ele>77.3</ele>
        <time>2020-02-22T16:49:35Z</time>
      </trkpt>
      <trkpt lat="39.0858930" lon="1.5011990">
        <ele>77.5</ele>
        <time>2020-02-22T16:49:36Z</time>
      </trkpt>
      <trkpt lat="39.0858640" lon="1.5011810">
        <ele>77.8</ele>
        <time>2020-02-22T16:49:37Z</time>
      </trkpt>
      <trkpt lat="39.0858540" lon="1.5011750">
        <ele>77.9</ele>
        <time>2020-02-22T16:49:38Z</time>
      </trkpt>
      <trkpt lat="39.0858400" lon="1.5011590">
        <ele>78.1</ele>
        <time>2020-02-22T16:49:39Z</time>
      </trkpt>
      <trkpt lat="39.0858250" lon="1.5011470">
        <ele>78.2</ele>
        <time>2020-02-22T16:49:40Z</time>
      </trkpt>
      <trkpt lat="39.0857960" lon="1.5011220">
        <ele>78.6</ele>
        <time>2020-02-22T16:49:41Z</time>
      </trkpt>
      <trkpt lat="39.0857840" lon="1.5011140">
        <ele>78.7</ele>
        <time>2020-02-22T16:49:42Z</time>
      </trkpt>
      <trkpt lat="39.0857570" lon="1.5011020">
        <ele>79.1</ele>
        <time>2020-02-22T16:49:43Z</time>
      </trkpt>
      <trkpt lat="39.0857290" lon="1.5010910">
        <ele>79.4</ele>
        <time>2020-02-22T16:49:44Z</time>
      </trkpt>
      <trkpt lat="39.0857020" lon="1.5010780">
        <ele>79.7</ele>
        <time>2020-02-22T16:49:45Z</time>
      </trkpt>
      <trkpt lat="39.0856900" lon="1.5010470">
        <ele>80.1</ele>
        <time>2020-02-22T16:49:46Z</time>
      </trkpt>
      <trkpt lat="39.0856620" lon="1.5010130">
        <ele>80.5</ele>
        <time>2020-02-22T16:49:47Z</time>
      </trkpt>
      <trkpt lat="39.0856530" lon="1.5009980">
        <ele>80.7</ele>
        <time>2020-02-22T16:49:48Z</time>
      </trkpt>
      <trkpt lat="39.0856360" lon="1.5009520">
        <ele>81.1</ele>
        <time>2020-02-22T16:49:49Z</time>
      </trkpt>
      <trkpt lat="39.0856290" lon="1.5009370">
        <ele>81.2</ele>
        <time>2020-02-22T16:49:50Z</time>
      </trkpt>
      <trkpt lat="39.0856100" lon="1.5009110">
        <ele>81.5</ele>
        <time>2020-02-22T16:49:51Z</time>
      </trkpt>
      <trkpt lat="39.0855940" lon="1.5008820">
        <ele>81.7</ele>
        <time>2020-02-22T16:49:52Z</time>
      </trkpt>
      <trkpt lat="39.0855750" lon="1.5008480">
        <ele>82.0</ele>
        <time>2020-02-22T16:49:53Z</time>
      </trkpt>
      <trkpt lat="39.0855690" lon="1.5008360">
        <ele>82.2</ele>
        <time>2020-02-22T16:49:54Z</time>
      </trkpt>
      <trkpt lat="39.0855540" lon="1.5007880">
        <ele>82.5</ele>
        <time>2020-02-22T16:49:55Z</time>
      </trkpt>
      <trkpt lat="39.0855390" lon="1.5007540">
        <ele>82.8</ele>
        <time>2020-02-22T16:49:56Z</time>
      </trkpt>
      <trkpt lat="39.0855260" lon="1.5007380">
        <ele>83.0</ele>
        <time>2020-02-22T16:49:57Z</time>
      </trkpt>
      <trkpt lat="39.0855070" lon="1.5007010">
        <ele>83.4</ele>
        <time>2020-02-22T16:49:58Z</time>
      </trkpt>
      <trkpt lat="39.0855010" lon="1.5006900">
        <ele>83.5</ele>
        <time>2020-02-22T16:49:59Z</time>
      </trkpt>
      <trkpt lat="39.0854870" lon="1.5006460">
        <ele>83.8</ele>
        <time>2020-02-22T16:50:00Z</time>
      </trkpt>
      <trkpt lat="39.0854830" lon="1.5006330">
        <ele>83.9</ele>
        <time>2020-02-22T16:50:01Z</time>
      </trkpt>
      <trkpt lat="39.0854730" lon="1.5005870">
        <ele>84.3</ele>
        <time>2020-02-22T16:50:02Z</time>
      </trkpt>
      <trkpt lat="39.0854680" lon="1.5005700">
        <ele>84.4</ele>
        <time>2020-02-22T16:50:03Z</time>
      </trkpt>
      <trkpt lat="39.0854530" lon="1.5005260">
        <ele>84.8</ele>
        <time>2020-02-22T16:50:04Z</time>
      </trkpt>
      <trkpt lat="39.0854490" lon="1.5005130">
        <ele>84.9</ele>
        <time>2020-02-22T16:50:05Z</time>
      </trkpt>
      <trkpt lat="39.0854360" lon="1.5004710">
        <ele>85.3</ele>
        <time>2020-02-22T16:50:06Z</time>
      </trkpt>
      <trkpt lat="39.0854320" lon="1.5004590">
        <ele>85.4</ele>
        <time>2020-02-22T16:50:07Z</time>
      </trkpt>
      <trkpt lat="39.0854230" lon="1.5004250">
        <ele>85.6</ele>
        <time>2020-02-22T16:50:08Z</time>
      </trkpt>
      <trkpt lat="39.0854080" lon="1.5003960">
        <ele>85.9</ele>
        <time>2020-02-22T16:50:09Z</time>
      </trkpt>
      <trkpt lat="39.0854000" lon="1.5003560">
        <ele>86.2</ele>
        <time>2020-02-22T16:50:10Z</time>
      </trkpt>
      <trkpt lat="39.0853930" lon="1.5003460">
        <ele>86.3</ele>
        <time>2020-02-22T16:50:11Z</time>
      </trkpt>
      <trkpt lat="39.0853840" lon="1.5003240">
        <ele>86.4</ele>
        <time>2020-02-22T16:50:12Z</time>
      </trkpt>
      <trkpt lat="39.0853680" lon="1.5002840">
        <ele>86.7</ele>
        <time>2020-02-22T16:50:13Z</time>
      </trkpt>
      <trkpt lat="39.0853630" lon="1.5002670">
        <ele>86.9</ele>
        <time>2020-02-22T16:50:14Z</time>
      </trkpt>
      <trkpt lat="39.0853560" lon="1.5002250">
        <ele>87.1</ele>
        <time>2020-02-22T16:50:15Z</time>
      </trkpt>
      <trkpt lat="39.0853470" lon="1.5002080">
        <ele>87.3</ele>
        <time>2020-02-22T16:50:16Z</time>
      </trkpt>
      <trkpt lat="39.0853340" lon="1.5001690">
        <ele>87.6</ele>
        <time>2020-02-22T16:50:17Z</time>
      </trkpt>
      <trkpt lat="39.0853300" lon="1.5001550">
        <ele>87.7</ele>
        <time>2020-02-22T16:50:18Z</time>
      </trkpt>
      <trkpt lat="39.0853220" lon="1.5001110">
        <ele>88.0</ele>
        <time>2020-02-22T16:50:19Z</time>
      </trkpt>
      <trkpt lat="39.0853090" lon="1.5000700">
        <ele>88.2</ele>
        <time>2020-02-22T16:50:20Z</time>
      </trkpt>
      <trkpt lat="39.0853040" lon="1.5000600">
        <ele>88.3</ele>
        <time>2020-02-22T16:50:21Z</time>
      </trkpt>
      <trkpt lat="39.0852910" lon="1.5000110">
        <ele>88.6</ele>
        <time>2020-02-22T16:50:22Z</time>
      </trkpt>
      <trkpt lat="39.0852870" lon="1.4999940">
        <ele>88.7</ele>
        <time>2020-02-22T16:50:23Z</time>
      </trkpt>
      <trkpt lat="39.0852820" lon="1.4999570">
        <ele>89.0</ele>
        <time>2020-02-22T16:50:24Z</time>
      </trkpt>
      <trkpt lat="39.0852730" lon="1.4999070">
        <ele>89.3</ele>
        <time>2020-02-22T16:50:25Z</time>
      </trkpt>
      <trkpt lat="39.0852690" lon="1.4998900">
        <ele>89.4</ele>
        <time>2020-02-22T16:50:26Z</time>
      </trkpt>
      <trkpt lat="39.0852600" lon="1.4998520">
        <ele>89.6</ele>
        <time>2020-02-22T16:50:27Z</time>
      </trkpt>
      <trkpt lat="39.0852560" lon="1.4998430">
        <ele>89.7</ele>
        <time>2020-02-22T16:50:28Z</time>
      </trkpt>
      <trkpt lat="39.0852520" lon="1.4998110">
        <ele>89.9</ele>
        <time>2020-02-22T16:50:29Z</time>
      </trkpt>
      <trkpt lat="39.0852460" lon="1.4997980">
        <ele>90.0</ele>
        <time>2020-02-22T16:50:30Z</time>
      </trkpt>
      <trkpt lat="39.0852350" lon="1.4997620">
        <ele>90.2</ele>
        <time>2020-02-22T16:50:31Z</time>
      </trkpt>
      <trkpt lat="39.0852330" lon="1.4997510">
        <ele>90.3</ele>
        <time>2020-02-22T16:50:32Z</time>
      </trkpt>
      <trkpt lat="39.0852260" lon="1.4997170">
        <ele>90.5</ele>
        <time>2020-02-22T16:50:33Z</time>
      </trkpt>
      <trkpt lat="39.0852220" lon="1.4997050">
        <ele>90.6</ele>
        <time>2020-02-22T16:50:34Z</time>
      </trkpt>
      <trkpt lat="39.0852000" lon="1.4996830">
        <ele>90.8</ele>
        <time>2020-02-22T16:50:35Z</time>
      </trkpt>
      <trkpt lat="39.0851720" lon="1.4996480">
        <ele>91.1</ele>
        <time>2020-02-22T16:50:36Z</time>
      </trkpt>
      <trkpt lat="39.0851640" lon="1.4996360">
        <ele>91.2</ele>
        <time>2020-02-22T16:50:37Z</time>
      </trkpt>
      <trkpt lat="39.0851470" lon="1.4996020">
        <ele>91.5</ele>
        <time>2020-02-22T16:50:38Z</time>
      </trkpt>
      <trkpt lat="39.0851380" lon="1.4995900">
        <ele>91.6</ele>
        <time>2020-02-22T16:50:39Z</time>
      </trkpt>
      <trkpt lat="39.0851090" lon="1.4995640">
        <ele>91.9</ele>
        <time>2020-02-22T16:50:40Z</time>
      </trkpt>
      <trkpt lat="39.0851000" lon="1.4995540">
        <ele>92.0</ele>
        <time>2020-02-22T16:50:41Z</time>
      </trkpt>
      <trkpt lat="39.0850720" lon="1.4995280">
        <ele>92.2</ele>
        <time>2020-02-22T16:50:42Z</time>
      </trkpt>
      <trkpt lat="39.0850620" lon="1.4995190">
        <ele>92.3</ele>
        <time>2020-02-22T16:50:43Z</time>
      </trkpt>
      <trkpt lat="39.0850340" lon="1.4995080">
        <ele>92.6</ele>
        <time>2020-02-22T16:50:44Z</time>
      </trkpt>
      <trkpt lat="39.0850210" lon="1.4995040">
        <ele>92.7</ele>
        <time>2020-02-22T16:50:45Z</time>
      </trkpt>
      <trkpt lat="39.0849990" lon="1.4994830">
        <ele>92.9</ele>
        <time>2020-02-22T16:50:46Z</time>
      </trkpt>
      <trkpt lat="39.0849720" lon="1.4994680">
        <ele>93.2</ele>
        <time>2020-02-22T16:50:47Z</time>
      </trkpt>
      <trkpt lat="39.0849480" lon="1.4994510">
        <ele>93.4</ele>
        <time>2020-02-22T16:50:48Z</time>
      </trkpt>
      <trkpt lat="39.0849130" lon="1.4994420">
        <ele>93.7</ele>
        <time>2020-02-22T16:50:49Z</time>
      </trkpt>
      <trkpt lat="39.0848990" lon="1.4994380">
        <ele>93.8</ele>
        <time>2020-02-22T16:50:50Z</time>
      </trkpt>
      <trkpt lat="39.0848660" lon="1.4994110">
        <ele>94.5</ele>
        <time>2020-02-22T16:50:51Z</time>
      </trkpt>
      <trkpt lat="39.0848580" lon="1.4993960">
        <ele>94.7</ele>
        <time>2020-02-22T16:50:52Z</time>
      </trkpt>
      <trkpt lat="39.0848260" lon="1.4993900">
        <ele>95.3</ele>
        <time>2020-02-22T16:50:53Z</time>
      </trkpt>
      <trkpt lat="39.0848140" lon="1.4993830">
        <ele>95.4</ele>
        <time>2020-02-22T16:50:54Z</time>
      </trkpt>
      <trkpt lat="39.0847900" lon="1.4993590">
        <ele>95.8</ele>
        <time>2020-02-22T16:50:55Z</time>
      </trkpt>
      <trkpt lat="39.0847810" lon="1.4993520">
        <ele>95.9</ele>
        <time>2020-02-22T16:50:56Z</time>
      </trkpt>
      <trkpt lat="39.0847540" lon="1.4993320">
        <ele>96.3</ele>
        <time>2020-02-22T16:50:57Z</time>
      </trkpt>
      <trkpt lat="39.0847430" lon="1.4993310">
        <ele>96.5</ele>
        <time>2020-02-22T16:50:58Z</time>
      </trkpt>
      <trkpt lat="39.0847080" lon="1.4993210">
        <ele>96.9</ele>
        <time>2020-02-22T16:50:59Z</time>
      </trkpt>
      <trkpt lat="39.0846940" lon="1.4993090">
        <ele>97.2</ele>
        <time>2020-02-22T16:51:00Z</time>
      </trkpt>
      <trkpt lat="39.0846650" lon="1.4992920">
        <ele>97.7</ele>
        <time>2020-02-22T16:51:01Z</time>
      </trkpt>
      <trkpt lat="39.0846550" lon="1.4992930">
        <ele>97.9</ele>
        <time>2020-02-22T16:51:02Z</time>
      </trkpt>
      <trkpt lat="39.0846200" lon="1.4992700">
        <ele>98.4</ele>
        <time>2020-02-22T16:51:03Z</time>
      </trkpt>
      <trkpt lat="39.0846060" lon="1.4992640">
        <ele>98.5</ele>
        <time>2020-02-22T16:51:04Z</time>
      </trkpt>
      <trkpt lat="39.0845940" lon="1.4992470">
        <ele>98.7</ele>
        <time>2020-02-22T16:51:05Z</time>
      </trkpt>
      <trkpt lat="39.0845760" lon="1.4992560">
        <ele>98.8</ele>
        <time>2020-02-22T16:51:06Z</time>
      </trkpt>
      <trkpt lat="39.0845520" lon="1.4992400">
        <ele>99.0</ele>
        <time>2020-02-22T16:51:07Z</time>
      </trkpt>
      <trkpt lat="39.0845440" lon="1.4992350">
        <ele>99.1</ele>
        <time>2020-02-22T16:51:08Z</time>
      </trkpt>
      <trkpt lat="39.0845100" lon="1.4992230">
        <ele>99.4</ele>
        <time>2020-02-22T16:51:09Z</time>
      </trkpt>
      <trkpt lat="39.0844990" lon="1.4992170">
        <ele>99.5</ele>
        <time>2020-02-22T16:51:10Z</time>
      </trkpt>
      <trkpt lat="39.0844660" lon="1.4992030">
        <ele>99.8</ele>
        <time>2020-02-22T16:51:11Z</time>
      </trkpt>
      <trkpt lat="39.0844560" lon="1.4991980">
        <ele>99.9</ele>
        <time>2020-02-22T16:51:12Z</time>
      </trkpt>
      <trkpt lat="39.0844280" lon="1.4991870">
        <ele>100.2</ele>
        <time>2020-02-22T16:51:13Z</time>
      </trkpt>
      <trkpt lat="39.0844200" lon="1.4991810">
        <ele>100.2</ele>
        <time>2020-02-22T16:51:14Z</time>
      </trkpt>
      <trkpt lat="39.0843880" lon="1.4991660">
        <ele>100.5</ele>
        <time>2020-02-22T16:51:15Z</time>
      </trkpt>
      <trkpt lat="39.0843780" lon="1.4991630">
        <ele>100.6</ele>
        <time>2020-02-22T16:51:16Z</time>
      </trkpt>
      <trkpt lat="39.0843790" lon="1.4991480">
        <ele>100.7</ele>
        <time>2020-02-22T16:51:17Z</time>
      </trkpt>
      <trkpt lat="39.0843570" lon="1.4991360">
        <ele>100.9</ele>
        <time>2020-02-22T16:51:18Z</time>
      </trkpt>
      <trkpt lat="39.0843280" lon="1.4991180">
        <ele>101.2</ele>
        <time>2020-02-22T16:51:19Z</time>
      </trkpt>
      <trkpt lat="39.0843180" lon="1.4991170">
        <ele>101.3</ele>
        <time>2020-02-22T16:51:20Z</time>
      </trkpt>
      <trkpt lat="39.0842850" lon="1.4991020">
        <ele>101.6</ele>
        <time>2020-02-22T16:51:21Z</time>
      </trkpt>
      <trkpt lat="39.0842720" lon="1.4990950">
        <ele>101.7</ele>
        <time>2020-02-22T16:51:22Z</time>
      </trkpt>
      <trkpt lat="39.0842460" lon="1.4990780">
        <ele>101.9</ele>
        <time>2020-02-22T16:51:23Z</time>
      </trkpt>
      <trkpt lat="39.0842180" lon="1.4990520">
        <ele>102.2</ele>
        <time>2020-02-22T16:51:24Z</time>
      </trkpt>
      <trkpt lat="39.0842050" lon="1.4990420">
        <ele>102.3</ele>
        <time>2020-02-22T16:51:25Z</time>
      </trkpt>
      <trkpt lat="39.0841820" lon="1.4990160">
        <ele>102.5</ele>
        <time>2020-02-22T16:51:26Z</time>
      </trkpt>
      <trkpt lat="39.0841570" lon="1.4989840">
        <ele>102.8</ele>
        <time>2020-02-22T16:51:27Z</time>
      </trkpt>
      <trkpt lat="39.0841490" lon="1.4989750">
        <ele>102.9</ele>
        <time>2020-02-22T16:51:28Z</time>
      </trkpt>
      <trkpt lat="39.0841220" lon="1.4989540">
        <ele>103.1</ele>
        <time>2020-02-22T16:51:29Z</time>
      </trkpt>
      <trkpt lat="39.0841110" lon="1.4989420">
        <ele>103.2</ele>
        <time>2020-02-22T16:51:30Z</time>
      </trkpt>
      <trkpt lat="39.0841000" lon="1.4989090">
        <ele>103.5</ele>
        <time>2020-02-22T16:51:31Z</time>
      </trkpt>
      <trkpt lat="39.0840920" lon="1.4988720">
        <ele>103.7</ele>
        <time>2020-02-22T16:51:32Z</time>
      </trkpt>
      <trkpt lat="39.0840890" lon="1.4988610">
        <ele>103.8</ele>
        <time>2020-02-22T16:51:33Z</time>
      </trkpt>
      <trkpt lat="39.0840820" lon="1.4988200">
        <ele>104.1</ele>
        <time>2020-02-22T16:51:34Z</time>
      </trkpt>
      <trkpt lat="39.0840800" lon="1.4987970">
        <ele>104.3</ele>
        <time>2020-02-22T16:51:35Z</time>
      </trkpt>
      <trkpt lat="39.0840590" lon="1.4987740">
        <ele>104.5</ele>
        <time>2020-02-22T16:51:36Z</time>
      </trkpt>
      <trkpt lat="39.0840520" lon="1.4987640">
        <ele>104.6</ele>
        <time>2020-02-22T16:51:37Z</time>
      </trkpt>
      <trkpt lat="39.0840380" lon="1.4987240">
        <ele>105.0</ele>
        <time>2020-02-22T16:51:38Z</time>
      </trkpt>
      <trkpt lat="39.0840340" lon="1.4987090">
        <ele>105.1</ele>
        <time>2020-02-22T16:51:39Z</time>
      </trkpt>
      <trkpt lat="39.0840210" lon="1.4986590">
        <ele>105.6</ele>
        <time>2020-02-22T16:51:40Z</time>
      </trkpt>
      <trkpt lat="39.0840140" lon="1.4986430">
        <ele>105.7</ele>
        <time>2020-02-22T16:51:41Z</time>
      </trkpt>
      <trkpt lat="39.0840000" lon="1.4986120">
        <ele>106.0</ele>
        <time>2020-02-22T16:51:42Z</time>
      </trkpt>
      <trkpt lat="39.0839980" lon="1.4985980">
        <ele>106.2</ele>
        <time>2020-02-22T16:51:43Z</time>
      </trkpt>
      <trkpt lat="39.0839950" lon="1.4985610">
        <ele>106.6</ele>
        <time>2020-02-22T16:51:44Z</time>
      </trkpt>
      <trkpt lat="39.0839940" lon="1.4985500">
        <ele>106.7</ele>
        <time>2020-02-22T16:51:45Z</time>
      </trkpt>
      <trkpt lat="39.0839970" lon="1.4985130">
        <ele>107.1</ele>
        <time>2020-02-22T16:51:46Z</time>
      </trkpt>
      <trkpt lat="39.0839970" lon="1.4984990">
        <ele>107.2</ele>
        <time>2020-02-22T16:51:47Z</time>
      </trkpt>
      <trkpt lat="39.0839850" lon="1.4984560">
        <ele>107.5</ele>
        <time>2020-02-22T16:51:48Z</time>
      </trkpt>
      <trkpt lat="39.0839800" lon="1.4984450">
        <ele>107.6</ele>
        <time>2020-02-22T16:51:49Z</time>
      </trkpt>
      <trkpt lat="39.0839700" lon="1.4984030">
        <ele>107.9</ele>
        <time>2020-02-22T16:51:50Z</time>
      </trkpt>
      <trkpt lat="39.0839660" lon="1.4983900">
        <ele>108.0</ele>
        <time>2020-02-22T16:51:51Z</time>
      </trkpt>
      <trkpt lat="39.0839520" lon="1.4983510">
        <ele>108.3</ele>
        <time>2020-02-22T16:51:52Z</time>
      </trkpt>
      <trkpt lat="39.0839490" lon="1.4983380">
        <ele>108.4</ele>
        <time>2020-02-22T16:51:53Z</time>
      </trkpt>
      <trkpt lat="39.0839460" lon="1.4982940">
        <ele>108.7</ele>
        <time>2020-02-22T16:51:54Z</time>
      </trkpt>
      <trkpt lat="39.0839460" lon="1.4982780">
        <ele>108.8</ele>
        <time>2020-02-22T16:51:55Z</time>
      </trkpt>
      <trkpt lat="39.0839310" lon="1.4982650">
        <ele>109.0</ele>
        <time>2020-02-22T16:51:56Z</time>
      </trkpt>
      <trkpt lat="39.0839260" lon="1.4982490">
        <ele>109.1</ele>
        <time>2020-02-22T16:51:57Z</time>
      </trkpt>
      <trkpt lat="39.0839180" lon="1.4982150">
        <ele>109.4</ele>
        <time>2020-02-22T16:51:58Z</time>
      </trkpt>
      <trkpt lat="39.0839150" lon="1.4982010">
        <ele>109.6</ele>
        <time>2020-02-22T16:51:59Z</time>
      </trkpt>
      <trkpt lat="39.0839090" lon="1.4981610">
        <ele>109.9</ele>
        <time>2020-02-22T16:52:00Z</time>
      </trkpt>
      <trkpt lat="39.0839070" lon="1.4981500">
        <ele>110.0</ele>
        <time>2020-02-22T16:52:01Z</time>
      </trkpt>
      <trkpt lat="39.0838950" lon="1.4981160">
        <ele>110.4</ele>
        <time>2020-02-22T16:52:02Z</time>
      </trkpt>
      <trkpt lat="39.0838900" lon="1.4981040">
        <ele>110.5</ele>
        <time>2020-02-22T16:52:03Z</time>
      </trkpt>
      <trkpt lat="39.0838930" lon="1.4980570">
        <ele>111.1</ele>
        <time>2020-02-22T16:52:04Z</time>
      </trkpt>
      <trkpt lat="39.0838930" lon="1.4980430">
        <ele>111.2</ele>
        <time>2020-02-22T16:52:05Z</time>
      </trkpt>
      <trkpt lat="39.0838930" lon="1.4980000">
        <ele>111.6</ele>
        <time>2020-02-22T16:52:06Z</time>
      </trkpt>
      <trkpt lat="39.0838910" lon="1.4979920">
        <ele>111.7</ele>
        <time>2020-02-22T16:52:07Z</time>
      </trkpt>
      <trkpt lat="39.0838840" lon="1.4979530">
        <ele>112.0</ele>
        <time>2020-02-22T16:52:08Z</time>
      </trkpt>
      <trkpt lat="39.0838820" lon="1.4979390">
        <ele>112.1</ele>
        <time>2020-02-22T16:52:09Z</time>
      </trkpt>
      <trkpt lat="39.0838840" lon="1.4978960">
        <ele>112.4</ele>
        <time>2020-02-22T16:52:10Z</time>
      </trkpt>
      <trkpt lat="39.0838850" lon="1.4978820">
        <ele>112.5</ele>
        <time>2020-02-22T16:52:11Z</time>
      </trkpt>
      <trkpt lat="39.0838870" lon="1.4978490">
        <ele>112.7</ele>
        <time>2020-02-22T16:52:12Z</time>
      </trkpt>
      <trkpt lat="39.0838900" lon="1.4978340">
        <ele>112.8</ele>
        <time>2020-02-22T16:52:13Z</time>
      </trkpt>
      <trkpt lat="39.0838930" lon="1.4978200">
        <ele>112.9</ele>
        <time>2020-02-22T16:52:14Z</time>
      </trkpt>
      <trkpt lat="39.0838920" lon="1.4977790">
        <ele>113.2</ele>
        <time>2020-02-22T16:52:15Z</time>
      </trkpt>
      <trkpt lat="39.0838900" lon="1.4977640">
        <ele>113.3</ele>
        <time>2020-02-22T16:52:16Z</time>
      </trkpt>
      <trkpt lat="39.0838850" lon="1.4977290">
        <ele>113.6</ele>
        <time>2020-02-22T16:52:17Z</time>
      </trkpt>
      <trkpt lat="39.0838780" lon="1.4976880">
        <ele>113.9</ele>
        <time>2020-02-22T16:52:18Z</time>
      </trkpt>
      <trkpt lat="39.0838750" lon="1.4976740">
        <ele>114.1</ele>
        <time>2020-02-22T16:52:19Z</time>
      </trkpt>
      <trkpt lat="39.0838670" lon="1.4976340">
        <ele>114.4</ele>
        <time>2020-02-22T16:52:20Z</time>
      </trkpt>
      <trkpt lat="39.0838620" lon="1.4976200">
        <ele>114.6</ele>
        <time>2020-02-22T16:52:21Z</time>
      </trkpt>
      <trkpt lat="39.0838510" lon="1.4975770">
        <ele>115.0</ele>
        <time>2020-02-22T16:52:22Z</time>
      </trkpt>
      <trkpt lat="39.0838500" lon="1.4975640">
        <ele>115.1</ele>
        <time>2020-02-22T16:52:23Z</time>
      </trkpt>
      <trkpt lat="39.0838430" lon="1.4975460">
        <ele>115.3</ele>
        <time>2020-02-22T16:52:24Z</time>
      </trkpt>
      <trkpt lat="39.0838400" lon="1.4975240">
        <ele>115.5</ele>
        <time>2020-02-22T16:52:25Z</time>
      </trkpt>
      <trkpt lat="39.0838360" lon="1.4974880">
        <ele>115.9</ele>
        <time>2020-02-22T16:52:26Z</time>
      </trkpt>
      <trkpt lat="39.0838340" lon="1.4974730">
        <ele>116.0</ele>
        <time>2020-02-22T16:52:27Z</time>
      </trkpt>
      <trkpt lat="39.0838240" lon="1.4974390">
        <ele>116.4</ele>
        <time>2020-02-22T16:52:28Z</time>
      </trkpt>
      <trkpt lat="39.0838170" lon="1.4974240">
        <ele>116.6</ele>
        <time>2020-02-22T16:52:29Z</time>
      </trkpt>
      <trkpt lat="39.0837990" lon="1.4973840">
        <ele>117.2</ele>
        <time>2020-02-22T16:52:30Z</time>
      </trkpt>
      <trkpt lat="39.0837910" lon="1.4973750">
        <ele>117.4</ele>
        <time>2020-02-22T16:52:31Z</time>
      </trkpt>
      <trkpt lat="39.0837790" lon="1.4973400">
        <ele>117.9</ele>
        <time>2020-02-22T16:52:32Z</time>
      </trkpt>
      <trkpt lat="39.0837750" lon="1.4973330">
        <ele>118.0</ele>
        <time>2020-02-22T16:52:33Z</time>
      </trkpt>
      <trkpt lat="39.0837560" lon="1.4973020">
        <ele>118.4</ele>
        <time>2020-02-22T16:52:34Z</time>
      </trkpt>
      <trkpt lat="39.0837500" lon="1.4972920">
        <ele>118.6</ele>
        <time>2020-02-22T16:52:35Z</time>
      </trkpt>
      <trkpt lat="39.0837350" lon="1.4972550">
        <ele>119.0</ele>
        <time>2020-02-22T16:52:36Z</time>
      </trkpt>
      <trkpt lat="39.0837300" lon="1.4972430">
        <ele>119.1</ele>
        <time>2020-02-22T16:52:37Z</time>
      </trkpt>
      <trkpt lat="39.0837110" lon="1.4972060">
        <ele>119.5</ele>
        <time>2020-02-22T16:52:38Z</time>
      </trkpt>
      <trkpt lat="39.0837030" lon="1.4971970">
        <ele>119.6</ele>
        <time>2020-02-22T16:52:39Z</time>
      </trkpt>
      <trkpt lat="39.0836730" lon="1.4971840">
        <ele>119.9</ele>
        <time>2020-02-22T16:52:40Z</time>
      </trkpt>
      <trkpt lat="39.0836650" lon="1.4971780">
        <ele>120.0</ele>
        <time>2020-02-22T16:52:41Z</time>
      </trkpt>
      <trkpt lat="39.0836440" lon="1.4971420">
        <ele>120.4</ele>
        <time>2020-02-22T16:52:42Z</time>
      </trkpt>
      <trkpt lat="39.0836390" lon="1.4971300">
        <ele>120.6</ele>
        <time>2020-02-22T16:52:43Z</time>
      </trkpt>
      <trkpt lat="39.0836230" lon="1.4971000">
        <ele>120.9</ele>
        <time>2020-02-22T16:52:44Z</time>
      </trkpt>
      <trkpt lat="39.0836180" lon="1.4970870">
        <ele>121.1</ele>
        <time>2020-02-22T16:52:45Z</time>
      </trkpt>
      <trkpt lat="39.0835980" lon="1.4970570">
        <ele>121.4</ele>
        <time>2020-02-22T16:52:46Z</time>
      </trkpt>
      <trkpt lat="39.0835900" lon="1.4970490">
        <ele>121.5</ele>
        <time>2020-02-22T16:52:47Z</time>
      </trkpt>
      <trkpt lat="39.0835690" lon="1.4970180">
        <ele>121.9</ele>
        <time>2020-02-22T16:52:48Z</time>
      </trkpt>
      <trkpt lat="39.0835610" lon="1.4970060">
        <ele>122.0</ele>
        <time>2020-02-22T16:52:49Z</time>
      </trkpt>
      <trkpt lat="39.0835460" lon="1.4969720">
        <ele>122.3</ele>
        <time>2020-02-22T16:52:50Z</time>
      </trkpt>
      <trkpt lat="39.0835410" lon="1.4969570">
        <ele>122.4</ele>
        <time>2020-02-22T16:52:51Z</time>
      </trkpt>
      <trkpt lat="39.0835300" lon="1.4969250">
        <ele>122.7</ele>
        <time>2020-02-22T16:52:52Z</time>
      </trkpt>
      <trkpt lat="39.0835190" lon="1.4968860">
        <ele>123.1</ele>
        <time>2020-02-22T16:52:53Z</time>
      </trkpt>
      <trkpt lat="39.0835160" lon="1.4968710">
        <ele>123.2</ele>
        <time>2020-02-22T16:52:54Z</time>
      </trkpt>
      <trkpt lat="39.0835170" lon="1.4968320">
        <ele>123.6</ele>
        <time>2020-02-22T16:52:55Z</time>
      </trkpt>
      <trkpt lat="39.0835170" lon="1.4968180">
        <ele>123.8</ele>
        <time>2020-02-22T16:52:56Z</time>
      </trkpt>
      <trkpt lat="39.0835010" lon="1.4967770">
        <ele>124.2</ele>
        <time>2020-02-22T16:52:57Z</time>
      </trkpt>
      <trkpt lat="39.0834960" lon="1.4967600">
        <ele>124.4</ele>
        <time>2020-02-22T16:52:58Z</time>
      </trkpt>
      <trkpt lat="39.0834880" lon="1.4967170">
        <ele>124.7</ele>
        <time>2020-02-22T16:52:59Z</time>
      </trkpt>
      <trkpt lat="39.0834850" lon="1.4967030">
        <ele>124.8</ele>
        <time>2020-02-22T16:53:00Z</time>
      </trkpt>
      <trkpt lat="39.0834710" lon="1.4966570">
        <ele>125.2</ele>
        <time>2020-02-22T16:53:01Z</time>
      </trkpt>
      <trkpt lat="39.0834650" lon="1.4966410">
        <ele>125.4</ele>
        <time>2020-02-22T16:53:02Z</time>
      </trkpt>
      <trkpt lat="39.0834600" lon="1.4966070">
        <ele>125.6</ele>
        <time>2020-02-22T16:53:03Z</time>
      </trkpt>
      <trkpt lat="39.0834510" lon="1.4965690">
        <ele>126.0</ele>
        <time>2020-02-22T16:53:04Z</time>
      </trkpt>
      <trkpt lat="39.0834560" lon="1.4965290">
        <ele>126.3</ele>
        <time>2020-02-22T16:53:05Z</time>
      </trkpt>
      <trkpt lat="39.0834600" lon="1.4964910">
        <ele>126.6</ele>
        <time>2020-02-22T16:53:06Z</time>
      </trkpt>
      <trkpt lat="39.0834580" lon="1.4964750">
        <ele>126.8</ele>
        <time>2020-02-22T16:53:07Z</time>
      </trkpt>
      <trkpt lat="39.0834460" lon="1.4964330">
        <ele>127.1</ele>
        <time>2020-02-22T16:53:08Z</time>
      </trkpt>
      <trkpt lat="39.0834440" lon="1.4964210">
        <ele>127.3</ele>
        <time>2020-02-22T16:53:09Z</time>
      </trkpt>
      <trkpt lat="39.0834400" lon="1.4963830">
        <ele>127.6</ele>
        <time>2020-02-22T16:53:10Z</time>
      </trkpt>
      <trkpt lat="39.0834380" lon="1.4963380">
        <ele>128.0</ele>
        <time>2020-02-22T16:53:11Z</time>
      </trkpt>
      <trkpt lat="39.0834360" lon="1.4962890">
        <ele>128.4</ele>
        <time>2020-02-22T16:53:12Z</time>
      </trkpt>
      <trkpt lat="39.0834360" lon="1.4962720">
        <ele>128.5</ele>
        <time>2020-02-22T16:53:13Z</time>
      </trkpt>
      <trkpt lat="39.0834390" lon="1.4962310">
        <ele>128.9</ele>
        <time>2020-02-22T16:53:14Z</time>
      </trkpt>
      <trkpt lat="39.0834370" lon="1.4961960">
        <ele>129.2</ele>
        <time>2020-02-22T16:53:15Z</time>
      </trkpt>
      <trkpt lat="39.0834330" lon="1.4961610">
        <ele>129.6</ele>
        <time>2020-02-22T16:53:16Z</time>
      </trkpt>
      <trkpt lat="39.0834390" lon="1.4961180">
        <ele>130.0</ele>
        <time>2020-02-22T16:53:17Z</time>
      </trkpt>
      <trkpt lat="39.0834420" lon="1.4961030">
        <ele>130.1</ele>
        <time>2020-02-22T16:53:18Z</time>
      </trkpt>
      <trkpt lat="39.0834450" lon="1.4960610">
        <ele>130.4</ele>
        <time>2020-02-22T16:53:19Z</time>
      </trkpt>
      <trkpt lat="39.0834440" lon="1.4960460">
        <ele>130.6</ele>
        <time>2020-02-22T16:53:20Z</time>
      </trkpt>
      <trkpt lat="39.0834460" lon="1.4960040">
        <ele>130.9</ele>
        <time>2020-02-22T16:53:21Z</time>
      </trkpt>
      <trkpt lat="39.0834480" lon="1.4959870">
        <ele>131.0</ele>
        <time>2020-02-22T16:53:22Z</time>
      </trkpt>
      <trkpt lat="39.0834470" lon="1.4959640">
        <ele>131.1</ele>
        <time>2020-02-22T16:53:23Z</time>
      </trkpt>
      <trkpt lat="39.0834480" lon="1.4959420">
        <ele>131.3</ele>
        <time>2020-02-22T16:53:24Z</time>
      </trkpt>
      <trkpt lat="39.0834440" lon="1.4959220">
        <ele>131.5</ele>
        <time>2020-02-22T16:53:25Z</time>
      </trkpt>
      <trkpt lat="39.0834440" lon="1.4958970">
        <ele>131.7</ele>
        <time>2020-02-22T16:53:26Z</time>
      </trkpt>
      <trkpt lat="39.0834450" lon="1.4958570">
        <ele>132.0</ele>
        <time>2020-02-22T16:53:27Z</time>
      </trkpt>
      <trkpt lat="39.0834470" lon="1.4958470">
        <ele>132.1</ele>
        <time>2020-02-22T16:53:28Z</time>
      </trkpt>
      <trkpt lat="39.0834500" lon="1.4958360">
        <ele>132.2</ele>
        <time>2020-02-22T16:53:29Z</time>
      </trkpt>
      <trkpt lat="39.0834660" lon="1.4958180">
        <ele>132.5</ele>
        <time>2020-02-22T16:53:30Z</time>
      </trkpt>
      <trkpt lat="39.0834790" lon="1.4957720">
        <ele>132.9</ele>
        <time>2020-02-22T16:53:31Z</time>
      </trkpt>
      <trkpt lat="39.0834820" lon="1.4957560">
        <ele>133.1</ele>
        <time>2020-02-22T16:53:32Z</time>
      </trkpt>
      <trkpt lat="39.0834830" lon="1.4957170">
        <ele>133.5</ele>
        <time>2020-02-22T16:53:33Z</time>
      </trkpt>
      <trkpt lat="39.0834830" lon="1.4957020">
        <ele>133.6</ele>
        <time>2020-02-22T16:53:34Z</time>
      </trkpt>
      <trkpt lat="39.0834890" lon="1.4956580">
        <ele>134.1</ele>
        <time>2020-02-22T16:53:35Z</time>
      </trkpt>
      <trkpt lat="39.0834910" lon="1.4956460">
        <ele>134.3</ele>
        <time>2020-02-22T16:53:36Z</time>
      </trkpt>
      <trkpt lat="39.0834970" lon="1.4955980">
        <ele>134.9</ele>
        <time>2020-02-22T16:53:37Z</time>
      </trkpt>
      <trkpt lat="39.0835000" lon="1.4955820">
        <ele>135.1</ele>
        <time>2020-02-22T16:53:38Z</time>
      </trkpt>
      <trkpt lat="39.0834990" lon="1.4955620">
        <ele>135.3</ele>
        <time>2020-02-22T16:53:39Z</time>
      </trkpt>
      <trkpt lat="39.0835070" lon="1.4955400">
        <ele>135.6</ele>
        <time>2020-02-22T16:53:40Z</time>
      </trkpt>
      <trkpt lat="39.0835170" lon="1.4954970">
        <ele>136.1</ele>
        <time>2020-02-22T16:53:41Z</time>
      </trkpt>
      <trkpt lat="39.0835190" lon="1.4954820">
        <ele>136.3</ele>
        <time>2020-02-22T16:53:42Z</time>
      </trkpt>
      <trkpt lat="39.0835300" lon="1.4954450">
        <ele>136.8</ele>
        <time>2020-02-22T16:53:43Z</time>
      </trkpt>
      <trkpt lat="39.0835300" lon="1.4954280">
        <ele>137.0</ele>
        <time>2020-02-22T16:53:44Z</time>
      </trkpt>
      <trkpt lat="39.0835220" lon="1.4954160">
        <ele>137.2</ele>
        <time>2020-02-22T16:53:45Z</time>
      </trkpt>
      <trkpt lat="39.0835140" lon="1.4953890">
        <ele>137.6</ele>
        <time>2020-02-22T16:53:46Z</time>
      </trkpt>
      <trkpt lat="39.0835030" lon="1.4953660">
        <ele>138.0</ele>
        <time>2020-02-22T16:53:47Z</time>
      </trkpt>
      <trkpt lat="39.0834900" lon="1.4953530">
        <ele>138.3</ele>
        <time>2020-02-22T16:53:48Z</time>
      </trkpt>
      <trkpt lat="39.0834680" lon="1.4953240">
        <ele>138.8</ele>
        <time>2020-02-22T16:53:49Z</time>
      </trkpt>
      <trkpt lat="39.0834620" lon="1.4953120">
        <ele>139.0</ele>
        <time>2020-02-22T16:53:50Z</time>
      </trkpt>
      <trkpt lat="39.0834280" lon="1.4952840">
        <ele>139.6</ele>
        <time>2020-02-22T16:53:51Z</time>
      </trkpt>
      <trkpt lat="39.0834140" lon="1.4952750">
        <ele>139.8</ele>
        <time>2020-02-22T16:53:52Z</time>
      </trkpt>
      <trkpt lat="39.0833780" lon="1.4952810">
        <ele>139.9</ele>
        <time>2020-02-22T16:53:53Z</time>
      </trkpt>
      <trkpt lat="39.0833450" lon="1.4952840">
        <ele>140.0</ele>
        <time>2020-02-22T16:53:54Z</time>
      </trkpt>
      <trkpt lat="39.0833340" lon="1.4952840">
        <ele>140.0</ele>
        <time>2020-02-22T16:53:55Z</time>
      </trkpt>
      <trkpt lat="39.0833060" lon="1.4952770">
        <ele>140.0</ele>
        <time>2020-02-22T16:53:56Z</time>
      </trkpt>
      <trkpt lat="39.0832960" lon="1.4952770">
        <ele>140.1</ele>
        <time>2020-02-22T16:53:57Z</time>
      </trkpt>
      <trkpt lat="39.0832650" lon="1.4952860">
        <ele>140.1</ele>
        <time>2020-02-22T16:53:58Z</time>
      </trkpt>
      <trkpt lat="39.0832540" lon="1.4952910">
        <ele>140.2</ele>
        <time>2020-02-22T16:53:59Z</time>
      </trkpt>
      <trkpt lat="39.0832230" lon="1.4953060">
        <ele>140.3</ele>
        <time>2020-02-22T16:54:00Z</time>
      </trkpt>
      <trkpt lat="39.0832140" lon="1.4953100">
        <ele>140.3</ele>
        <time>2020-02-22T16:54:01Z</time>
      </trkpt>
      <trkpt lat="39.0832020" lon="1.4953220">
        <ele>140.4</ele>
        <time>2020-02-22T16:54:02Z</time>
      </trkpt>
      <trkpt lat="39.0831900" lon="1.4953400">
        <ele>140.4</ele>
        <time>2020-02-22T16:54:03Z</time>
      </trkpt>
      <trkpt lat="39.0831810" lon="1.4953800">
        <ele>140.5</ele>
        <time>2020-02-22T16:54:04Z</time>
      </trkpt>
      <trkpt lat="39.0831630" lon="1.4954210">
        <ele>140.7</ele>
        <time>2020-02-22T16:54:05Z</time>
      </trkpt>
      <trkpt lat="39.0831600" lon="1.4954380">
        <ele>140.7</ele>
        <time>2020-02-22T16:54:06Z</time>
      </trkpt>
      <trkpt lat="39.0831500" lon="1.4954790">
        <ele>140.8</ele>
        <time>2020-02-22T16:54:07Z</time>
      </trkpt>
      <trkpt lat="39.0831460" lon="1.4954910">
        <ele>140.9</ele>
        <time>2020-02-22T16:54:08Z</time>
      </trkpt>
      <trkpt lat="39.0831370" lon="1.4955340">
        <ele>141.0</ele>
        <time>2020-02-22T16:54:09Z</time>
      </trkpt>
      <trkpt lat="39.0831330" lon="1.4955500">
        <ele>141.1</ele>
        <time>2020-02-22T16:54:10Z</time>
      </trkpt>
      <trkpt lat="39.0831310" lon="1.4955890">
        <ele>141.2</ele>
        <time>2020-02-22T16:54:11Z</time>
      </trkpt>
      <trkpt lat="39.0831230" lon="1.4956250">
        <ele>141.3</ele>
        <time>2020-02-22T16:54:12Z</time>
      </trkpt>
      <trkpt lat="39.0831210" lon="1.4956680">
        <ele>141.5</ele>
        <time>2020-02-22T16:54:13Z</time>
      </trkpt>
      <trkpt lat="39.0831080" lon="1.4957070">
        <ele>141.6</ele>
        <time>2020-02-22T16:54:14Z</time>
      </trkpt>
      <trkpt lat="39.0831030" lon="1.4957460">
        <ele>141.8</ele>
        <time>2020-02-22T16:54:15Z</time>
      </trkpt>
      <trkpt lat="39.0831020" lon="1.4957560">
        <ele>141.8</ele>
        <time>2020-02-22T16:54:16Z</time>
      </trkpt>
      <trkpt lat="39.0830880" lon="1.4957920">
        <ele>142.0</ele>
        <time>2020-02-22T16:54:17Z</time>
      </trkpt>
      <trkpt lat="39.0830820" lon="1.4958060">
        <ele>142.0</ele>
        <time>2020-02-22T16:54:18Z</time>
      </trkpt>
      <trkpt lat="39.0830640" lon="1.4958440">
        <ele>142.2</ele>
        <time>2020-02-22T16:54:19Z</time>
      </trkpt>
      <trkpt lat="39.0830580" lon="1.4958580">
        <ele>142.3</ele>
        <time>2020-02-22T16:54:20Z</time>
      </trkpt>
      <trkpt lat="39.0830310" lon="1.4958920">
        <ele>142.5</ele>
        <time>2020-02-22T16:54:21Z</time>
      </trkpt>
      <trkpt lat="39.0830220" lon="1.4959010">
        <ele>142.6</ele>
        <time>2020-02-22T16:54:22Z</time>
      </trkpt>
      <trkpt lat="39.0830050" lon="1.4959290">
        <ele>142.7</ele>
        <time>2020-02-22T16:54:23Z</time>
      </trkpt>
      <trkpt lat="39.0829910" lon="1.4959610">
        <ele>142.9</ele>
        <time>2020-02-22T16:54:24Z</time>
      </trkpt>
      <trkpt lat="39.0829680" lon="1.4959890">
        <ele>143.2</ele>
        <time>2020-02-22T16:54:25Z</time>
      </trkpt>
      <trkpt lat="39.0829440" lon="1.4960160">
        <ele>143.4</ele>
        <time>2020-02-22T16:54:26Z</time>
      </trkpt>
      <trkpt lat="39.0829110" lon="1.4960400">
        <ele>143.7</ele>
        <time>2020-02-22T16:54:27Z</time>
      </trkpt>
      <trkpt lat="39.0828610" lon="1.4960600">
        <ele>144.2</ele>
        <time>2020-02-22T16:54:28Z</time>
      </trkpt>
      <trkpt lat="39.0828240" lon="1.4960850">
        <ele>144.6</ele>
        <time>2020-02-22T16:54:29Z</time>
      </trkpt>
      <trkpt lat="39.0827880" lon="1.4961170">
        <ele>145.0</ele>
        <time>2020-02-22T16:54:30Z</time>
      </trkpt>
      <trkpt lat="39.0827590" lon="1.4961540">
        <ele>145.5</ele>
        <time>2020-02-22T16:54:31Z</time>
      </trkpt>
      <trkpt lat="39.0827370" lon="1.4961870">
        <ele>145.8</ele>
        <time>2020-02-22T16:54:32Z</time>
      </trkpt>
      <trkpt lat="39.0827200" lon="1.4962190">
        <ele>146.1</ele>
        <time>2020-02-22T16:54:33Z</time>
      </trkpt>
      <trkpt lat="39.0827010" lon="1.4962490">
        <ele>146.4</ele>
        <time>2020-02-22T16:54:34Z</time>
      </trkpt>
      <trkpt lat="39.0826720" lon="1.4962880">
        <ele>146.9</ele>
        <time>2020-02-22T16:54:35Z</time>
      </trkpt>
      <trkpt lat="39.0826360" lon="1.4963260">
        <ele>147.3</ele>
        <time>2020-02-22T16:54:36Z</time>
      </trkpt>
      <trkpt lat="39.0826100" lon="1.4963590">
        <ele>147.7</ele>
        <time>2020-02-22T16:54:37Z</time>
      </trkpt>
      <trkpt lat="39.0825930" lon="1.4963880">
        <ele>147.9</ele>
        <time>2020-02-22T16:54:38Z</time>
      </trkpt>
      <trkpt lat="39.0825670" lon="1.4964260">
        <ele>148.3</ele>
        <time>2020-02-22T16:54:39Z</time>
      </trkpt>
      <trkpt lat="39.0825580" lon="1.4964380">
        <ele>148.4</ele>
        <time>2020-02-22T16:54:40Z</time>
      </trkpt>
      <trkpt lat="39.0825390" lon="1.4964680">
        <ele>148.6</ele>
        <time>2020-02-22T16:54:41Z</time>
      </trkpt>
      <trkpt lat="39.0825110" lon="1.4964930">
        <ele>148.8</ele>
        <time>2020-02-22T16:54:42Z</time>
      </trkpt>
      <trkpt lat="39.0824890" lon="1.4965340">
        <ele>149.1</ele>
        <time>2020-02-22T16:54:43Z</time>
      </trkpt>
      <trkpt lat="39.0824820" lon="1.4965480">
        <ele>149.2</ele>
        <time>2020-02-22T16:54:44Z</time>
      </trkpt>
      <trkpt lat="39.0824650" lon="1.4965780">
        <ele>149.4</ele>
        <time>2020-02-22T16:54:45Z</time>
      </trkpt>
      <trkpt lat="39.0824450" lon="1.4966220">
        <ele>149.7</ele>
        <time>2020-02-22T16:54:46Z</time>
      </trkpt>
      <trkpt lat="39.0824380" lon="1.4966360">
        <ele>149.7</ele>
        <time>2020-02-22T16:54:47Z</time>
      </trkpt>
      <trkpt lat="39.0824130" lon="1.4966730">
        <ele>150.0</ele>
        <time>2020-02-22T16:54:48Z</time>
      </trkpt>
      <trkpt lat="39.0823910" lon="1.4967060">
        <ele>150.2</ele>
        <time>2020-02-22T16:54:49Z</time>
      </trkpt>
      <trkpt lat="39.0823680" lon="1.4967420">
        <ele>150.4</ele>
        <time>2020-02-22T16:54:50Z</time>
      </trkpt>
      <trkpt lat="39.0823450" lon="1.4967740">
        <ele>150.6</ele>
        <time>2020-02-22T16:54:51Z</time>
      </trkpt>
      <trkpt lat="39.0823210" lon="1.4968040">
        <ele>150.9</ele>
        <time>2020-02-22T16:54:52Z</time>
      </trkpt>
      <trkpt lat="39.0823040" lon="1.4968320">
        <ele>151.0</ele>
        <time>2020-02-22T16:54:53Z</time>
      </trkpt>
      <trkpt lat="39.0822830" lon="1.4968700">
        <ele>151.3</ele>
        <time>2020-02-22T16:54:54Z</time>
      </trkpt>
      <trkpt lat="39.0822680" lon="1.4969050">
        <ele>151.5</ele>
        <time>2020-02-22T16:54:55Z</time>
      </trkpt>
      <trkpt lat="39.0822530" lon="1.4969380">
        <ele>151.7</ele>
        <time>2020-02-22T16:54:56Z</time>
      </trkpt>
      <trkpt lat="39.0822350" lon="1.4969650">
        <ele>151.9</ele>
        <time>2020-02-22T16:54:57Z</time>
      </trkpt>
      <trkpt lat="39.0822140" lon="1.4969930">
        <ele>152.1</ele>
        <time>2020-02-22T16:54:58Z</time>
      </trkpt>
      <trkpt lat="39.0821890" lon="1.4970280">
        <ele>152.3</ele>
        <time>2020-02-22T16:54:59Z</time>
      </trkpt>
      <trkpt lat="39.0821810" lon="1.4970410">
        <ele>152.4</ele>
        <time>2020-02-22T16:55:00Z</time>
      </trkpt>
      <trkpt lat="39.0821610" lon="1.4970750">
        <ele>152.6</ele>
        <time>2020-02-22T16:55:01Z</time>
      </trkpt>
      <trkpt lat="39.0821480" lon="1.4971090">
        <ele>152.8</ele>
        <time>2020-02-22T16:55:02Z</time>
      </trkpt>
      <trkpt lat="39.0821330" lon="1.4971460">
        <ele>153.0</ele>
        <time>2020-02-22T16:55:03Z</time>
      </trkpt>
      <trkpt lat="39.0821130" lon="1.4971890">
        <ele>153.3</ele>
        <time>2020-02-22T16:55:04Z</time>
      </trkpt>
      <trkpt lat="39.0821060" lon="1.4972040">
        <ele>153.4</ele>
        <time>2020-02-22T16:55:05Z</time>
      </trkpt>
      <trkpt lat="39.0820900" lon="1.4972470">
        <ele>153.6</ele>
        <time>2020-02-22T16:55:06Z</time>
      </trkpt>
      <trkpt lat="39.0820700" lon="1.4972880">
        <ele>153.8</ele>
        <time>2020-02-22T16:55:07Z</time>
      </trkpt>
      <trkpt lat="39.0820630" lon="1.4973030">
        <ele>153.9</ele>
        <time>2020-02-22T16:55:08Z</time>
      </trkpt>
      <trkpt lat="39.0820240" lon="1.4973240">
        <ele>154.1</ele>
        <time>2020-02-22T16:55:09Z</time>
      </trkpt>
      <trkpt lat="39.0819980" lon="1.4973490">
        <ele>154.3</ele>
        <time>2020-02-22T16:55:10Z</time>
      </trkpt>
      <trkpt lat="39.0819680" lon="1.4973810">
        <ele>154.5</ele>
        <time>2020-02-22T16:55:11Z</time>
      </trkpt>
      <trkpt lat="39.0819590" lon="1.4973930">
        <ele>154.5</ele>
        <time>2020-02-22T16:55:12Z</time>
      </trkpt>
      <trkpt lat="39.0819330" lon="1.4974190">
        <ele>154.7</ele>
        <time>2020-02-22T16:55:13Z</time>
      </trkpt>
      <trkpt lat="39.0819220" lon="1.4974230">
        <ele>154.8</ele>
        <time>2020-02-22T16:55:14Z</time>
      </trkpt>
      <trkpt lat="39.0818880" lon="1.4974400">
        <ele>154.9</ele>
        <time>2020-02-22T16:55:15Z</time>
      </trkpt>
      <trkpt lat="39.0818770" lon="1.4974430">
        <ele>155.0</ele>
        <time>2020-02-22T16:55:16Z</time>
      </trkpt>
      <trkpt lat="39.0818380" lon="1.4974560">
        <ele>155.2</ele>
        <time>2020-02-22T16:55:17Z</time>
      </trkpt>
      <trkpt lat="39.0818200" lon="1.4974590">
        <ele>155.2</ele>
        <time>2020-02-22T16:55:18Z</time>
      </trkpt>
      <trkpt lat="39.0817890" lon="1.4974690">
        <ele>155.4</ele>
        <time>2020-02-22T16:55:19Z</time>
      </trkpt>
      <trkpt lat="39.0817610" lon="1.4974680">
        <ele>155.5</ele>
        <time>2020-02-22T16:55:20Z</time>
      </trkpt>
      <trkpt lat="39.0817430" lon="1.4974720">
        <ele>155.6</ele>
        <time>2020-02-22T16:55:21Z</time>
      </trkpt>
      <trkpt lat="39.0817070" lon="1.4974820">
        <ele>155.8</ele>
        <time>2020-02-22T16:55:22Z</time>
      </trkpt>
      <trkpt lat="39.0816940" lon="1.4974840">
        <ele>155.8</ele>
        <time>2020-02-22T16:55:23Z</time>
      </trkpt>
      <trkpt lat="39.0816570" lon="1.4974930">
        <ele>156.0</ele>
        <time>2020-02-22T16:55:24Z</time>
      </trkpt>
      <trkpt lat="39.0816450" lon="1.4974960">
        <ele>156.1</ele>
        <time>2020-02-22T16:55:25Z</time>
      </trkpt>
      <trkpt lat="39.0816190" lon="1.4975080">
        <ele>156.2</ele>
        <time>2020-02-22T16:55:26Z</time>
      </trkpt>
      <trkpt lat="39.0815880" lon="1.4975250">
        <ele>156.4</ele>
        <time>2020-02-22T16:55:27Z</time>
      </trkpt>
      <trkpt lat="39.0815750" lon="1.4975280">
        <ele>156.4</ele>
        <time>2020-02-22T16:55:28Z</time>
      </trkpt>
      <trkpt lat="39.0815550" lon="1.4975370">
        <ele>156.5</ele>
        <time>2020-02-22T16:55:29Z</time>
      </trkpt>
      <trkpt lat="39.0815440" lon="1.4975410">
        <ele>156.6</ele>
        <time>2020-02-22T16:55:30Z</time>
      </trkpt>
      <trkpt lat="39.0815140" lon="1.4975530">
        <ele>156.7</ele>
        <time>2020-02-22T16:55:31Z</time>
      </trkpt>
      <trkpt lat="39.0815000" lon="1.4975540">
        <ele>156.8</ele>
        <time>2020-02-22T16:55:32Z</time>
      </trkpt>
      <trkpt lat="39.0814630" lon="1.4975550">
        <ele>157.0</ele>
        <time>2020-02-22T16:55:33Z</time>
      </trkpt>
      <trkpt lat="39.0814490" lon="1.4975560">
        <ele>157.0</ele>
        <time>2020-02-22T16:55:34Z</time>
      </trkpt>
      <trkpt lat="39.0814210" lon="1.4975550">
        <ele>157.2</ele>
        <time>2020-02-22T16:55:35Z</time>
      </trkpt>
      <trkpt lat="39.0813870" lon="1.4975490">
        <ele>157.3</ele>
        <time>2020-02-22T16:55:36Z</time>
      </trkpt>
      <trkpt lat="39.0813750" lon="1.4975460">
        <ele>157.4</ele>
        <time>2020-02-22T16:55:37Z</time>
      </trkpt>
      <trkpt lat="39.0813370" lon="1.4975510">
        <ele>157.6</ele>
        <time>2020-02-22T16:55:38Z</time>
      </trkpt>
      <trkpt lat="39.0813230" lon="1.4975550">
        <ele>157.6</ele>
        <time>2020-02-22T16:55:39Z</time>
      </trkpt>
      <trkpt lat="39.0812880" lon="1.4975720">
        <ele>157.8</ele>
        <time>2020-02-22T16:55:40Z</time>
      </trkpt>
      <trkpt lat="39.0812760" lon="1.4975770">
        <ele>157.9</ele>
        <time>2020-02-22T16:55:41Z</time>
      </trkpt>
      <trkpt lat="39.0812380" lon="1.4975870">
        <ele>158.0</ele>
        <time>2020-02-22T16:55:42Z</time>
      </trkpt>
      <trkpt lat="39.0812260" lon="1.4975910">
        <ele>158.1</ele>
        <time>2020-02-22T16:55:43Z</time>
      </trkpt>
      <trkpt lat="39.0811930" lon="1.4975950">
        <ele>158.3</ele>
        <time>2020-02-22T16:55:44Z</time>
      </trkpt>
      <trkpt lat="39.0811820" lon="1.4975960">
        <ele>158.3</ele>
        <time>2020-02-22T16:55:45Z</time>
      </trkpt>
      <trkpt lat="39.0811440" lon="1.4976050">
        <ele>158.5</ele>
        <time>2020-02-22T16:55:46Z</time>
      </trkpt>
      <trkpt lat="39.0811300" lon="1.4976090">
        <ele>158.6</ele>
        <time>2020-02-22T16:55:47Z</time>
      </trkpt>
      <trkpt lat="39.0810920" lon="1.4976140">
        <ele>158.7</ele>
        <time>2020-02-22T16:55:48Z</time>
      </trkpt>
      <trkpt lat="39.0810790" lon="1.4976150">
        <ele>158.8</ele>
        <time>2020-02-22T16:55:49Z</time>
      </trkpt>
      <trkpt lat="39.0810430" lon="1.4976180">
        <ele>159.0</ele>
        <time>2020-02-22T16:55:50Z</time>
      </trkpt>
      <trkpt lat="39.0810330" lon="1.4976180">
        <ele>159.0</ele>
        <time>2020-02-22T16:55:51Z</time>
      </trkpt>
      <trkpt lat="39.0809980" lon="1.4976120">
        <ele>159.2</ele>
        <time>2020-02-22T16:55:52Z</time>
      </trkpt>
      <trkpt lat="39.0809860" lon="1.4976110">
        <ele>159.3</ele>
        <time>2020-02-22T16:55:53Z</time>
      </trkpt>
      <trkpt lat="39.0809510" lon="1.4976080">
        <ele>159.4</ele>
        <time>2020-02-22T16:55:54Z</time>
      </trkpt>
      <trkpt lat="39.0809400" lon="1.4976090">
        <ele>159.5</ele>
        <time>2020-02-22T16:55:55Z</time>
      </trkpt>
      <trkpt lat="39.0809210" lon="1.4976120">
        <ele>159.6</ele>
        <time>2020-02-22T16:55:56Z</time>
      </trkpt>
      <trkpt lat="39.0809060" lon="1.4976070">
        <ele>159.7</ele>
        <time>2020-02-22T16:55:57Z</time>
      </trkpt>
      <trkpt lat="39.0808660" lon="1.4976090">
        <ele>159.9</ele>
        <time>2020-02-22T16:55:58Z</time>
      </trkpt>
      <trkpt lat="39.0808520" lon="1.4976100">
        <ele>159.9</ele>
        <time>2020-02-22T16:55:59Z</time>
      </trkpt>
      <trkpt lat="39.0808160" lon="1.4976030">
        <ele>160.1</ele>
        <time>2020-02-22T16:56:00Z</time>
      </trkpt>
      <trkpt lat="39.0808040" lon="1.4976020">
        <ele>160.2</ele>
        <time>2020-02-22T16:56:01Z</time>
      </trkpt>
      <trkpt lat="39.0807660" lon="1.4976050">
        <ele>160.4</ele>
        <time>2020-02-22T16:56:02Z</time>
      </trkpt>
      <trkpt lat="39.0807530" lon="1.4976060">
        <ele>160.5</ele>
        <time>2020-02-22T16:56:03Z</time>
      </trkpt>
      <trkpt lat="39.0807240" lon="1.4976090">
        <ele>160.6</ele>
        <time>2020-02-22T16:56:04Z</time>
      </trkpt>
      <trkpt lat="39.0806910" lon="1.4976190">
        <ele>160.8</ele>
        <time>2020-02-22T16:56:05Z</time>
      </trkpt>
      <trkpt lat="39.0806580" lon="1.4976290">
        <ele>161.0</ele>
        <time>2020-02-22T16:56:06Z</time>
      </trkpt>
      <trkpt lat="39.0806480" lon="1.4976330">
        <ele>161.1</ele>
        <time>2020-02-22T16:56:07Z</time>
      </trkpt>
      <trkpt lat="39.0806180" lon="1.4976470">
        <ele>161.2</ele>
        <time>2020-02-22T16:56:08Z</time>
      </trkpt>
      <trkpt lat="39.0806080" lon="1.4976560">
        <ele>161.3</ele>
        <time>2020-02-22T16:56:09Z</time>
      </trkpt>
      <trkpt lat="39.0805810" lon="1.4976830">
        <ele>161.5</ele>
        <time>2020-02-22T16:56:10Z</time>
      </trkpt>
      <trkpt lat="39.0805720" lon="1.4976920">
        <ele>161.6</ele>
        <time>2020-02-22T16:56:11Z</time>
      </trkpt>
      <trkpt lat="39.0805530" lon="1.4977200">
        <ele>161.7</ele>
        <time>2020-02-22T16:56:12Z</time>
      </trkpt>
      <trkpt lat="39.0805470" lon="1.4977290">
        <ele>161.8</ele>
        <time>2020-02-22T16:56:13Z</time>
      </trkpt>
      <trkpt lat="39.0805360" lon="1.4977390">
        <ele>161.8</ele>
        <time>2020-02-22T16:56:14Z</time>
      </trkpt>
      <trkpt lat="39.0805240" lon="1.4977610">
        <ele>162.0</ele>
        <time>2020-02-22T16:56:15Z</time>
      </trkpt>
      <trkpt lat="39.0805060" lon="1.4977980">
        <ele>162.2</ele>
        <time>2020-02-22T16:56:16Z</time>
      </trkpt>
      <trkpt lat="39.0805010" lon="1.4978070">
        <ele>162.2</ele>
        <time>2020-02-22T16:56:17Z</time>
      </trkpt>
      <trkpt lat="39.0804850" lon="1.4978350">
        <ele>162.4</ele>
        <time>2020-02-22T16:56:18Z</time>
      </trkpt>
      <trkpt lat="39.0804780" lon="1.4978450">
        <ele>162.4</ele>
        <time>2020-02-22T16:56:19Z</time>
      </trkpt>
      <trkpt lat="39.0804600" lon="1.4978730">
        <ele>162.6</ele>
        <time>2020-02-22T16:56:20Z</time>
      </trkpt>
      <trkpt lat="39.0804450" lon="1.4979040">
        <ele>162.8</ele>
        <time>2020-02-22T16:56:21Z</time>
      </trkpt>
      <trkpt lat="39.0804250" lon="1.4979470">
        <ele>163.0</ele>
        <time>2020-02-22T16:56:22Z</time>
      </trkpt>
      <trkpt lat="39.0804140" lon="1.4979650">
        <ele>163.1</ele>
        <time>2020-02-22T16:56:23Z</time>
      </trkpt>
      <trkpt lat="39.0803950" lon="1.4980040">
        <ele>163.4</ele>
        <time>2020-02-22T16:56:24Z</time>
      </trkpt>
      <trkpt lat="39.0803850" lon="1.4980370">
        <ele>163.5</ele>
        <time>2020-02-22T16:56:25Z</time>
      </trkpt>
      <trkpt lat="39.0803860" lon="1.4980690">
        <ele>163.7</ele>
        <time>2020-02-22T16:56:26Z</time>
      </trkpt>
      <trkpt lat="39.0803860" lon="1.4980850">
        <ele>163.8</ele>
        <time>2020-02-22T16:56:27Z</time>
      </trkpt>
      <trkpt lat="39.0803870" lon="1.4981230">
        <ele>164.0</ele>
        <time>2020-02-22T16:56:28Z</time>
      </trkpt>
      <trkpt lat="39.0803900" lon="1.4981580">
        <ele>164.2</ele>
        <time>2020-02-22T16:56:29Z</time>
      </trkpt>
      <trkpt lat="39.0803980" lon="1.4982160">
        <ele>164.5</ele>
        <time>2020-02-22T16:56:30Z</time>
      </trkpt>
      <trkpt lat="39.0804100" lon="1.4982540">
        <ele>164.7</ele>
        <time>2020-02-22T16:56:31Z</time>
      </trkpt>
      <trkpt lat="39.0804290" lon="1.4983050">
        <ele>164.9</ele>
        <time>2020-02-22T16:56:32Z</time>
      </trkpt>
      <trkpt lat="39.0804450" lon="1.4983390">
        <ele>165.1</ele>
        <time>2020-02-22T16:56:33Z</time>
      </trkpt>
      <trkpt lat="39.0804620" lon="1.4983690">
        <ele>165.3</ele>
        <time>2020-02-22T16:56:34Z</time>
      </trkpt>
      <trkpt lat="39.0804820" lon="1.4984050">
        <ele>165.5</ele>
        <time>2020-02-22T16:56:35Z</time>
      </trkpt>
      <trkpt lat="39.0805050" lon="1.4984350">
        <ele>165.7</ele>
        <time>2020-02-22T16:56:36Z</time>
      </trkpt>
      <trkpt lat="39.0805270" lon="1.4984630">
        <ele>165.9</ele>
        <time>2020-02-22T16:56:37Z</time>
      </trkpt>
      <trkpt lat="39.0805510" lon="1.4984940">
        <ele>166.1</ele>
        <time>2020-02-22T16:56:38Z</time>
      </trkpt>
      <trkpt lat="39.0805750" lon="1.4985290">
        <ele>166.3</ele>
        <time>2020-02-22T16:56:39Z</time>
      </trkpt>
      <trkpt lat="39.0805980" lon="1.4985610">
        <ele>166.6</ele>
        <time>2020-02-22T16:56:40Z</time>
      </trkpt>
      <trkpt lat="39.0806210" lon="1.4985940">
        <ele>166.8</ele>
        <time>2020-02-22T16:56:41Z</time>
      </trkpt>
      <trkpt lat="39.0806490" lon="1.4986200">
        <ele>167.0</ele>
        <time>2020-02-22T16:56:42Z</time>
      </trkpt>
      <trkpt lat="39.0806750" lon="1.4986510">
        <ele>167.2</ele>
        <time>2020-02-22T16:56:43Z</time>
      </trkpt>
      <trkpt lat="39.0806970" lon="1.4986820">
        <ele>167.5</ele>
        <time>2020-02-22T16:56:44Z</time>
      </trkpt>
      <trkpt lat="39.0807200" lon="1.4987230">
        <ele>167.7</ele>
        <time>2020-02-22T16:56:45Z</time>
      </trkpt>
      <trkpt lat="39.0807290" lon="1.4987370">
        <ele>167.8</ele>
        <time>2020-02-22T16:56:46Z</time>
      </trkpt>
      <trkpt lat="39.0807500" lon="1.4987640">
        <ele>168.0</ele>
        <time>2020-02-22T16:56:47Z</time>
      </trkpt>
      <trkpt lat="39.0807820" lon="1.4988040">
        <ele>168.3</ele>
        <time>2020-02-22T16:56:48Z</time>
      </trkpt>
      <trkpt lat="39.0807940" lon="1.4988210">
        <ele>168.5</ele>
        <time>2020-02-22T16:56:49Z</time>
      </trkpt>
      <trkpt lat="39.0808210" lon="1.4988510">
        <ele>168.7</ele>
        <time>2020-02-22T16:56:50Z</time>
      </trkpt>
      <trkpt lat="39.0808460" lon="1.4988830">
        <ele>168.9</ele>
        <time>2020-02-22T16:56:51Z</time>
      </trkpt>
      <trkpt lat="39.0808660" lon="1.4989150">
        <ele>169.1</ele>
        <time>2020-02-22T16:56:52Z</time>
      </trkpt>
      <trkpt lat="39.0808850" lon="1.4989420">
        <ele>169.3</ele>
        <time>2020-02-22T16:56:53Z</time>
      </trkpt>
      <trkpt lat="39.0809120" lon="1.4989810">
        <ele>169.5</ele>
        <time>2020-02-22T16:56:54Z</time>
      </trkpt>
      <trkpt lat="39.0809210" lon="1.4989970">
        <ele>169.6</ele>
        <time>2020-02-22T16:56:55Z</time>
      </trkpt>
      <trkpt lat="39.0809320" lon="1.4990320">
        <ele>169.7</ele>
        <time>2020-02-22T16:56:56Z</time>
      </trkpt>
      <trkpt lat="39.0809470" lon="1.4990620">
        <ele>169.9</ele>
        <time>2020-02-22T16:56:57Z</time>
      </trkpt>
      <trkpt lat="39.0809690" lon="1.4990970">
        <ele>170.1</ele>
        <time>2020-02-22T16:56:58Z</time>
      </trkpt>
      <trkpt lat="39.0809750" lon="1.4991110">
        <ele>170.1</ele>
        <time>2020-02-22T16:56:59Z</time>
      </trkpt>
      <trkpt lat="39.0809970" lon="1.4991540">
        <ele>170.3</ele>
        <time>2020-02-22T16:57:00Z</time>
      </trkpt>
      <trkpt lat="39.0810060" lon="1.4991680">
        <ele>170.3</ele>
        <time>2020-02-22T16:57:01Z</time>
      </trkpt>
      <trkpt lat="39.0810210" lon="1.4992170">
        <ele>170.5</ele>
        <time>2020-02-22T16:57:02Z</time>
      </trkpt>
      <trkpt lat="39.0810320" lon="1.4992520">
        <ele>170.6</ele>
        <time>2020-02-22T16:57:03Z</time>
      </trkpt>
      <trkpt lat="39.0810430" lon="1.4992870">
        <ele>170.7</ele>
        <time>2020-02-22T16:57:04Z</time>
      </trkpt>
      <trkpt lat="39.0810560" lon="1.4993320">
        <ele>170.9</ele>
        <time>2020-02-22T16:57:05Z</time>
      </trkpt>
      <trkpt lat="39.0810610" lon="1.4993480">
        <ele>170.9</ele>
        <time>2020-02-22T16:57:06Z</time>
      </trkpt>
      <trkpt lat="39.0810710" lon="1.4993820">
        <ele>171.0</ele>
        <time>2020-02-22T16:57:07Z</time>
      </trkpt>
      <trkpt lat="39.0810790" lon="1.4994250">
        <ele>171.2</ele>
        <time>2020-02-22T16:57:08Z</time>
      </trkpt>
      <trkpt lat="39.0810810" lon="1.4994650">
        <ele>171.3</ele>
        <time>2020-02-22T16:57:09Z</time>
      </trkpt>
      <trkpt lat="39.0810830" lon="1.4995110">
        <ele>171.5</ele>
        <time>2020-02-22T16:57:10Z</time>
      </trkpt>
      <trkpt lat="39.0810850" lon="1.4995250">
        <ele>171.5</ele>
        <time>2020-02-22T16:57:11Z</time>
      </trkpt>
      <trkpt lat="39.0810870" lon="1.4995770">
        <ele>171.7</ele>
        <time>2020-02-22T16:57:12Z</time>
      </trkpt>
      <trkpt lat="39.0810840" lon="1.4995980">
        <ele>171.8</ele>
        <time>2020-02-22T16:57:13Z</time>
      </trkpt>
      <trkpt lat="39.0810740" lon="1.4996370">
        <ele>172.0</ele>
        <time>2020-02-22T16:57:14Z</time>
      </trkpt>
      <trkpt lat="39.0810710" lon="1.4996460">
        <ele>172.0</ele>
        <time>2020-02-22T16:57:15Z</time>
      </trkpt>
      <trkpt lat="39.0810460" lon="1.4996760">
        <ele>172.2</ele>
        <time>2020-02-22T16:57:16Z</time>
      </trkpt>
      <trkpt lat="39.0810150" lon="1.4997020">
        <ele>172.4</ele>
        <time>2020-02-22T16:57:17Z</time>
      </trkpt>
      <trkpt lat="39.0809840" lon="1.4997290">
        <ele>172.6</ele>
        <time>2020-02-22T16:57:18Z</time>
      </trkpt>
      <trkpt lat="39.0809570" lon="1.4997600">
        <ele>172.8</ele>
        <time>2020-02-22T16:57:19Z</time>
      </trkpt>
      <trkpt lat="39.0809230" lon="1.4997780">
        <ele>173.1</ele>
        <time>2020-02-22T16:57:20Z</time>
      </trkpt>
      <trkpt lat="39.0808820" lon="1.4997900">
        <ele>173.3</ele>
        <time>2020-02-22T16:57:21Z</time>
      </trkpt>
      <trkpt lat="39.0808550" lon="1.4997960">
        <ele>173.5</ele>
        <time>2020-02-22T16:57:22Z</time>
      </trkpt>
      <trkpt lat="39.0808220" lon="1.4998050">
        <ele>173.7</ele>
        <time>2020-02-22T16:57:23Z</time>
      </trkpt>
      <trkpt lat="39.0807880" lon="1.4998180">
        <ele>173.9</ele>
        <time>2020-02-22T16:57:24Z</time>
      </trkpt>
      <trkpt lat="39.0807520" lon="1.4998240">
        <ele>174.2</ele>
        <time>2020-02-22T16:57:25Z</time>
      </trkpt>
      <trkpt lat="39.0807150" lon="1.4998330">
        <ele>174.4</ele>
        <time>2020-02-22T16:57:26Z</time>
      </trkpt>
      <trkpt lat="39.0806820" lon="1.4998330">
        <ele>174.6</ele>
        <time>2020-02-22T16:57:27Z</time>
      </trkpt>
      <trkpt lat="39.0806440" lon="1.4998260">
        <ele>174.9</ele>
        <time>2020-02-22T16:57:28Z</time>
      </trkpt>
      <trkpt lat="39.0806310" lon="1.4998230">
        <ele>175.0</ele>
        <time>2020-02-22T16:57:29Z</time>
      </trkpt>
      <trkpt lat="39.0806020" lon="1.4998270">
        <ele>175.2</ele>
        <time>2020-02-22T16:57:30Z</time>
      </trkpt>
      <trkpt lat="39.0805920" lon="1.4998280">
        <ele>175.2</ele>
        <time>2020-02-22T16:57:31Z</time>
      </trkpt>
      <trkpt lat="39.0805530" lon="1.4998320">
        <ele>175.5</ele>
        <time>2020-02-22T16:57:32Z</time>
      </trkpt>
      <trkpt lat="39.0805360" lon="1.4998330">
        <ele>175.6</ele>
        <time>2020-02-22T16:57:33Z</time>
      </trkpt>
      <trkpt lat="39.0805080" lon="1.4998300">
        <ele>175.8</ele>
        <time>2020-02-22T16:57:34Z</time>
      </trkpt>
      <trkpt lat="39.0804840" lon="1.4998130">
        <ele>176.0</ele>
        <time>2020-02-22T16:57:35Z</time>
      </trkpt>
      <trkpt lat="39.0804530" lon="1.4998040">
        <ele>176.2</ele>
        <time>2020-02-22T16:57:36Z</time>
      </trkpt>
      <trkpt lat="39.0804270" lon="1.4997950">
        <ele>176.4</ele>
        <time>2020-02-22T16:57:37Z</time>
      </trkpt>
      <trkpt lat="39.0803960" lon="1.4997890">
        <ele>176.6</ele>
        <time>2020-02-22T16:57:38Z</time>
      </trkpt>
      <trkpt lat="39.0803600" lon="1.4997860">
        <ele>176.9</ele>
        <time>2020-02-22T16:57:39Z</time>
      </trkpt>
      <trkpt lat="39.0803460" lon="1.4997840">
        <ele>177.0</ele>
        <time>2020-02-22T16:57:40Z</time>
      </trkpt>
      <trkpt lat="39.0803180" lon="1.4997880">
        <ele>177.2</ele>
        <time>2020-02-22T16:57:41Z</time>
      </trkpt>
      <trkpt lat="39.0802830" lon="1.4997970">
        <ele>177.4</ele>
        <time>2020-02-22T16:57:42Z</time>
      </trkpt>
      <trkpt lat="39.0802710" lon="1.4998000">
        <ele>177.5</ele>
        <time>2020-02-22T16:57:43Z</time>
      </trkpt>
      <trkpt lat="39.0802570" lon="1.4998140">
        <ele>177.6</ele>
        <time>2020-02-22T16:57:44Z</time>
      </trkpt>
      <trkpt lat="39.0802400" lon="1.4998220">
        <ele>177.8</ele>
        <time>2020-02-22T16:57:45Z</time>
      </trkpt>
      <trkpt lat="39.0802110" lon="1.4998410">
        <ele>178.0</ele>
        <time>2020-02-22T16:57:46Z</time>
      </trkpt>
      <trkpt lat="39.0802040" lon="1.4998500">
        <ele>178.1</ele>
        <time>2020-02-22T16:57:47Z</time>
      </trkpt>
      <trkpt lat="39.0801860" lon="1.4998770">
        <ele>178.3</ele>
        <time>2020-02-22T16:57:48Z</time>
      </trkpt>
      <trkpt lat="39.0801800" lon="1.4998870">
        <ele>178.4</ele>
        <time>2020-02-22T16:57:49Z</time>
      </trkpt>
      <trkpt lat="39.0801620" lon="1.4999180">
        <ele>178.6</ele>
        <time>2020-02-22T16:57:50Z</time>
      </trkpt>
      <trkpt lat="39.0801550" lon="1.4999670">
        <ele>178.9</ele>
        <time>2020-02-22T16:57:51Z</time>
      </trkpt>
      <trkpt lat="39.0801540" lon="1.4999850">
        <ele>179.0</ele>
        <time>2020-02-22T16:57:52Z</time>
      </trkpt>
      <trkpt lat="39.0801690" lon="1.5000150">
        <ele>179.2</ele>
        <time>2020-02-22T16:57:53Z</time>
      </trkpt>
      <trkpt lat="39.0801760" lon="1.5000700">
        <ele>179.5</ele>
        <time>2020-02-22T16:57:54Z</time>
      </trkpt>
      <trkpt lat="39.0801920" lon="1.5001110">
        <ele>179.8</ele>
        <time>2020-02-22T16:57:55Z</time>
      </trkpt>
      <trkpt lat="39.0802110" lon="1.5001490">
        <ele>180.1</ele>
        <time>2020-02-22T16:57:56Z</time>
      </trkpt>
      <trkpt lat="39.0802180" lon="1.5001670">
        <ele>180.2</ele>
        <time>2020-02-22T16:57:57Z</time>
      </trkpt>
      <trkpt lat="39.0802270" lon="1.5002040">
        <ele>180.5</ele>
        <time>2020-02-22T16:57:58Z</time>
      </trkpt>
      <trkpt lat="39.0802420" lon="1.5002420">
        <ele>180.7</ele>
        <time>2020-02-22T16:57:59Z</time>
      </trkpt>
      <trkpt lat="39.0802590" lon="1.5002770">
        <ele>181.0</ele>
        <time>2020-02-22T16:58:00Z</time>
      </trkpt>
      <trkpt lat="39.0802830" lon="1.5003170">
        <ele>181.3</ele>
        <time>2020-02-22T16:58:01Z</time>
      </trkpt>
      <trkpt lat="39.0803080" lon="1.5003490">
        <ele>181.6</ele>
        <time>2020-02-22T16:58:02Z</time>
      </trkpt>
      <trkpt lat="39.0803360" lon="1.5003840">
        <ele>181.9</ele>
        <time>2020-02-22T16:58:03Z</time>
      </trkpt>
      <trkpt lat="39.0803480" lon="1.5004170">
        <ele>182.1</ele>
        <time>2020-02-22T16:58:04Z</time>
      </trkpt>
      <trkpt lat="39.0803560" lon="1.5004510">
        <ele>182.3</ele>
        <time>2020-02-22T16:58:05Z</time>
      </trkpt>
      <trkpt lat="39.0803660" lon="1.5004880">
        <ele>182.5</ele>
        <time>2020-02-22T16:58:06Z</time>
      </trkpt>
      <trkpt lat="39.0803720" lon="1.5005510">
        <ele>182.9</ele>
        <time>2020-02-22T16:58:07Z</time>
      </trkpt>
      <trkpt lat="39.0803830" lon="1.5006000">
        <ele>183.2</ele>
        <time>2020-02-22T16:58:08Z</time>
      </trkpt>
      <trkpt lat="39.0803940" lon="1.5006430">
        <ele>183.4</ele>
        <time>2020-02-22T16:58:09Z</time>
      </trkpt>
      <trkpt lat="39.0803980" lon="1.5006870">
        <ele>183.7</ele>
        <time>2020-02-22T16:58:10Z</time>
      </trkpt>
      <trkpt lat="39.0803940" lon="1.5007370">
        <ele>183.9</ele>
        <time>2020-02-22T16:58:11Z</time>
      </trkpt>
      <trkpt lat="39.0803910" lon="1.5007540">
        <ele>184.0</ele>
        <time>2020-02-22T16:58:12Z</time>
      </trkpt>
      <trkpt lat="39.0803860" lon="1.5007940">
        <ele>184.2</ele>
        <time>2020-02-22T16:58:13Z</time>
      </trkpt>
      <trkpt lat="39.0803790" lon="1.5008440">
        <ele>184.5</ele>
        <time>2020-02-22T16:58:14Z</time>
      </trkpt>
      <trkpt lat="39.0803760" lon="1.5008650">
        <ele>184.6</ele>
        <time>2020-02-22T16:58:15Z</time>
      </trkpt>
      <trkpt lat="39.0803650" lon="1.5009030">
        <ele>184.8</ele>
        <time>2020-02-22T16:58:16Z</time>
      </trkpt>
      <trkpt lat="39.0803590" lon="1.5009180">
        <ele>184.8</ele>
        <time>2020-02-22T16:58:17Z</time>
      </trkpt>
      <trkpt lat="39.0803550" lon="1.5009530">
        <ele>185.0</ele>
        <time>2020-02-22T16:58:18Z</time>
      </trkpt>
      <trkpt lat="39.0803520" lon="1.5010020">
        <ele>185.2</ele>
        <time>2020-02-22T16:58:19Z</time>
      </trkpt>
      <trkpt lat="39.0803520" lon="1.5010170">
        <ele>185.3</ele>
        <time>2020-02-22T16:58:20Z</time>
      </trkpt>
      <trkpt lat="39.0803500" lon="1.5010530">
        <ele>185.4</ele>
        <time>2020-02-22T16:58:21Z</time>
      </trkpt>
      <trkpt lat="39.0803620" lon="1.5011020">
        <ele>185.6</ele>
        <time>2020-02-22T16:58:22Z</time>
      </trkpt>
      <trkpt lat="39.0803620" lon="1.5011220">
        <ele>185.7</ele>
        <time>2020-02-22T16:58:23Z</time>
      </trkpt>
      <trkpt lat="39.0803600" lon="1.5011620">
        <ele>185.8</ele>
        <time>2020-02-22T16:58:24Z</time>
      </trkpt>
      <trkpt lat="39.0803650" lon="1.5011990">
        <ele>186.0</ele>
        <time>2020-02-22T16:58:25Z</time>
      </trkpt>
      <trkpt lat="39.0803700" lon="1.5012350">
        <ele>186.1</ele>
        <time>2020-02-22T16:58:26Z</time>
      </trkpt>
      <trkpt lat="39.0803860" lon="1.5012790">
        <ele>186.3</ele>
        <time>2020-02-22T16:58:27Z</time>
      </trkpt>
      <trkpt lat="39.0803920" lon="1.5012940">
        <ele>186.3</ele>
        <time>2020-02-22T16:58:28Z</time>
      </trkpt>
      <trkpt lat="39.0804010" lon="1.5013490">
        <ele>186.6</ele>
        <time>2020-02-22T16:58:29Z</time>
      </trkpt>
      <trkpt lat="39.0804000" lon="1.5013730">
        <ele>186.6</ele>
        <time>2020-02-22T16:58:30Z</time>
      </trkpt>
      <trkpt lat="39.0804030" lon="1.5014120">
        <ele>186.8</ele>
        <time>2020-02-22T16:58:31Z</time>
      </trkpt>
      <trkpt lat="39.0804230" lon="1.5014390">
        <ele>186.9</ele>
        <time>2020-02-22T16:58:32Z</time>
      </trkpt>
      <trkpt lat="39.0804230" lon="1.5014750">
        <ele>187.1</ele>
        <time>2020-02-22T16:58:33Z</time>
      </trkpt>
      <trkpt lat="39.0804250" lon="1.5015170">
        <ele>187.2</ele>
        <time>2020-02-22T16:58:34Z</time>
      </trkpt>
      <trkpt lat="39.0804250" lon="1.5015320">
        <ele>187.3</ele>
        <time>2020-02-22T16:58:35Z</time>
      </trkpt>
      <trkpt lat="39.0804190" lon="1.5015810">
        <ele>187.5</ele>
        <time>2020-02-22T16:58:36Z</time>
      </trkpt>
      <trkpt lat="39.0804180" lon="1.5015990">
        <ele>187.6</ele>
        <time>2020-02-22T16:58:37Z</time>
      </trkpt>
      <trkpt lat="39.0804170" lon="1.5016420">
        <ele>187.7</ele>
        <time>2020-02-22T16:58:38Z</time>
      </trkpt>
      <trkpt lat="39.0804300" lon="1.5016920">
        <ele>188.0</ele>
        <time>2020-02-22T16:58:39Z</time>
      </trkpt>
      <trkpt lat="39.0804320" lon="1.5017110">
        <ele>188.0</ele>
        <time>2020-02-22T16:58:40Z</time>
      </trkpt>
      <trkpt lat="39.0804340" lon="1.5017490">
        <ele>188.2</ele>
        <time>2020-02-22T16:58:41Z</time>
      </trkpt>
      <trkpt lat="39.0804270" lon="1.5017880">
        <ele>188.3</ele>
        <time>2020-02-22T16:58:42Z</time>
      </trkpt>
      <trkpt lat="39.0804200" lon="1.5018240">
        <ele>188.5</ele>
        <time>2020-02-22T16:58:43Z</time>
      </trkpt>
      <trkpt lat="39.0804050" lon="1.5018570">
        <ele>188.6</ele>
        <time>2020-02-22T16:58:44Z</time>
      </trkpt>
      <trkpt lat="39.0803910" lon="1.5018870">
        <ele>188.7</ele>
        <time>2020-02-22T16:58:45Z</time>
      </trkpt>
      <trkpt lat="39.0803710" lon="1.5019270">
        <ele>188.9</ele>
        <time>2020-02-22T16:58:46Z</time>
      </trkpt>
      <trkpt lat="39.0803610" lon="1.5019390">
        <ele>188.9</ele>
        <time>2020-02-22T16:58:47Z</time>
      </trkpt>
      <trkpt lat="39.0803440" lon="1.5019710">
        <ele>189.0</ele>
        <time>2020-02-22T16:58:48Z</time>
      </trkpt>
      <trkpt lat="39.0803390" lon="1.5019800">
        <ele>189.0</ele>
        <time>2020-02-22T16:58:49Z</time>
      </trkpt>
      <trkpt lat="39.0803170" lon="1.5020150">
        <ele>189.1</ele>
        <time>2020-02-22T16:58:50Z</time>
      </trkpt>
      <trkpt lat="39.0803090" lon="1.5020330">
        <ele>189.2</ele>
        <time>2020-02-22T16:58:51Z</time>
      </trkpt>
      <trkpt lat="39.0802890" lon="1.5020580">
        <ele>189.2</ele>
        <time>2020-02-22T16:58:52Z</time>
      </trkpt>
      <trkpt lat="39.0802660" lon="1.5020760">
        <ele>189.2</ele>
        <time>2020-02-22T16:58:53Z</time>
      </trkpt>
      <trkpt lat="39.0802250" lon="1.5020870">
        <ele>189.3</ele>
        <time>2020-02-22T16:58:54Z</time>
      </trkpt>
      <trkpt lat="39.0801970" lon="1.5021160">
        <ele>189.3</ele>
        <time>2020-02-22T16:58:55Z</time>
      </trkpt>
      <trkpt lat="39.0801890" lon="1.5021290">
        <ele>189.4</ele>
        <time>2020-02-22T16:58:56Z</time>
      </trkpt>
      <trkpt lat="39.0801650" lon="1.5021700">
        <ele>189.4</ele>
        <time>2020-02-22T16:58:57Z</time>
      </trkpt>
      <trkpt lat="39.0801520" lon="1.5021820">
        <ele>189.4</ele>
        <time>2020-02-22T16:58:58Z</time>
      </trkpt>
      <trkpt lat="39.0801280" lon="1.5022120">
        <ele>189.4</ele>
        <time>2020-02-22T16:58:59Z</time>
      </trkpt>
      <trkpt lat="39.0801200" lon="1.5022200">
        <ele>189.4</ele>
        <time>2020-02-22T16:59:00Z</time>
      </trkpt>
      <trkpt lat="39.0801020" lon="1.5022340">
        <ele>189.4</ele>
        <time>2020-02-22T16:59:01Z</time>
      </trkpt>
      <trkpt lat="39.0800900" lon="1.5022450">
        <ele>189.4</ele>
        <time>2020-02-22T16:59:02Z</time>
      </trkpt>
      <trkpt lat="39.0800570" lon="1.5022710">
        <ele>189.4</ele>
        <time>2020-02-22T16:59:03Z</time>
      </trkpt>
      <trkpt lat="39.0800460" lon="1.5022820">
        <ele>189.4</ele>
        <time>2020-02-22T16:59:04Z</time>
      </trkpt>
      <trkpt lat="39.0800220" lon="1.5022990">
        <ele>189.4</ele>
        <time>2020-02-22T16:59:05Z</time>
      </trkpt>
      <trkpt lat="39.0799960" lon="1.5023110">
        <ele>189.4</ele>
        <time>2020-02-22T16:59:06Z</time>
      </trkpt>
      <trkpt lat="39.0799780" lon="1.5023210">
        <ele>189.4</ele>
        <time>2020-02-22T16:59:07Z</time>
      </trkpt>
      <trkpt lat="39.0799670" lon="1.5023350">
        <ele>189.4</ele>
        <time>2020-02-22T16:59:08Z</time>
      </trkpt>
      <trkpt lat="39.0799550" lon="1.5023420">
        <ele>189.4</ele>
        <time>2020-02-22T16:59:09Z</time>
      </trkpt>
      <trkpt lat="39.0799340" lon="1.5023530">
        <ele>189.4</ele>
        <time>2020-02-22T16:59:10Z</time>
      </trkpt>
      <trkpt lat="39.0798950" lon="1.5023730">
        <ele>189.4</ele>
        <time>2020-02-22T16:59:11Z</time>
      </trkpt>
      <trkpt lat="39.0798780" lon="1.5023780">
        <ele>189.4</ele>
        <time>2020-02-22T16:59:12Z</time>
      </trkpt>
      <trkpt lat="39.0798520" lon="1.5023920">
        <ele>189.4</ele>
        <time>2020-02-22T16:59:13Z</time>
      </trkpt>
      <trkpt lat="39.0798160" lon="1.5024080">
        <ele>189.4</ele>
        <time>2020-02-22T16:59:14Z</time>
      </trkpt>
      <trkpt lat="39.0797830" lon="1.5024200">
        <ele>189.4</ele>
        <time>2020-02-22T16:59:15Z</time>
      </trkpt>
      <trkpt lat="39.0797430" lon="1.5024330">
        <ele>189.4</ele>
        <time>2020-02-22T16:59:16Z</time>
      </trkpt>
      <trkpt lat="39.0797170" lon="1.5024460">
        <ele>189.4</ele>
        <time>2020-02-22T16:59:17Z</time>
      </trkpt>
      <trkpt lat="39.0796870" lon="1.5024630">
        <ele>189.4</ele>
        <time>2020-02-22T16:59:18Z</time>
      </trkpt>
      <trkpt lat="39.0796780" lon="1.5024710">
        <ele>189.4</ele>
        <time>2020-02-22T16:59:19Z</time>
      </trkpt>
      <trkpt lat="39.0796540" lon="1.5024880">
        <ele>189.4</ele>
        <time>2020-02-22T16:59:20Z</time>
      </trkpt>
      <trkpt lat="39.0796190" lon="1.5025080">
        <ele>189.4</ele>
        <time>2020-02-22T16:59:21Z</time>
      </trkpt>
      <trkpt lat="39.0796070" lon="1.5025160">
        <ele>189.4</ele>
        <time>2020-02-22T16:59:22Z</time>
      </trkpt>
      <trkpt lat="39.0795840" lon="1.5025340">
        <ele>189.4</ele>
        <time>2020-02-22T16:59:23Z</time>
      </trkpt>
      <trkpt lat="39.0795460" lon="1.5025470">
        <ele>189.4</ele>
        <time>2020-02-22T16:59:24Z</time>
      </trkpt>
      <trkpt lat="39.0795340" lon="1.5025510">
        <ele>189.4</ele>
        <time>2020-02-22T16:59:25Z</time>
      </trkpt>
      <trkpt lat="39.0795170" lon="1.5025490">
        <ele>189.4</ele>
        <time>2020-02-22T16:59:26Z</time>
      </trkpt>
      <trkpt lat="39.0795010" lon="1.5025470">
        <ele>189.4</ele>
        <time>2020-02-22T16:59:27Z</time>
      </trkpt>
      <trkpt lat="39.0794650" lon="1.5025590">
        <ele>189.4</ele>
        <time>2020-02-22T16:59:28Z</time>
      </trkpt>
      <trkpt lat="39.0794500" lon="1.5025660">
        <ele>189.4</ele>
        <time>2020-02-22T16:59:29Z</time>
      </trkpt>
      <trkpt lat="39.0794190" lon="1.5025960">
        <ele>189.4</ele>
        <time>2020-02-22T16:59:30Z</time>
      </trkpt>
      <trkpt lat="39.0794060" lon="1.5026070">
        <ele>189.3</ele>
        <time>2020-02-22T16:59:31Z</time>
      </trkpt>
      <trkpt lat="39.0793730" lon="1.5026220">
        <ele>189.3</ele>
        <time>2020-02-22T16:59:32Z</time>
      </trkpt>
      <trkpt lat="39.0793370" lon="1.5026460">
        <ele>189.2</ele>
        <time>2020-02-22T16:59:33Z</time>
      </trkpt>
      <trkpt lat="39.0793090" lon="1.5026540">
        <ele>189.2</ele>
        <time>2020-02-22T16:59:34Z</time>
      </trkpt>
      <trkpt lat="39.0792800" lon="1.5026600">
        <ele>189.1</ele>
        <time>2020-02-22T16:59:35Z</time>
      </trkpt>
      <trkpt lat="39.0792420" lon="1.5026490">
        <ele>189.0</ele>
        <time>2020-02-22T16:59:36Z</time>
      </trkpt>
      <trkpt lat="39.0792240" lon="1.5026440">
        <ele>188.9</ele>
        <time>2020-02-22T16:59:37Z</time>
      </trkpt>
      <trkpt lat="39.0791850" lon="1.5026470">
        <ele>188.8</ele>
        <time>2020-02-22T16:59:38Z</time>
      </trkpt>
      <trkpt lat="39.0791720" lon="1.5026510">
        <ele>188.8</ele>
        <time>2020-02-22T16:59:39Z</time>
      </trkpt>
      <trkpt lat="39.0791360" lon="1.5026450">
        <ele>188.7</ele>
        <time>2020-02-22T16:59:40Z</time>
      </trkpt>
      <trkpt lat="39.0791220" lon="1.5026370">
        <ele>188.7</ele>
        <time>2020-02-22T16:59:41Z</time>
      </trkpt>
      <trkpt lat="39.0790870" lon="1.5026150">
        <ele>188.6</ele>
        <time>2020-02-22T16:59:42Z</time>
      </trkpt>
      <trkpt lat="39.0790480" lon="1.5025990">
        <ele>188.6</ele>
        <time>2020-02-22T16:59:43Z</time>
      </trkpt>
      <trkpt lat="39.0790160" lon="1.5025790">
        <ele>188.5</ele>
        <time>2020-02-22T16:59:44Z</time>
      </trkpt>
      <trkpt lat="39.0789800" lon="1.5025530">
        <ele>188.5</ele>
        <time>2020-02-22T16:59:45Z</time>
      </trkpt>
      <trkpt lat="39.0789460" lon="1.5025210">
        <ele>188.5</ele>
        <time>2020-02-22T16:59:46Z</time>
      </trkpt>
      <trkpt lat="39.0789160" lon="1.5024760">
        <ele>188.4</ele>
        <time>2020-02-22T16:59:47Z</time>
      </trkpt>
      <trkpt lat="39.0788740" lon="1.5024450">
        <ele>188.4</ele>
        <time>2020-02-22T16:59:48Z</time>
      </trkpt>
      <trkpt lat="39.0788300" lon="1.5024140">
        <ele>188.1</ele>
        <time>2020-02-22T16:59:49Z</time>
      </trkpt>
      <trkpt lat="39.0787890" lon="1.5023820">
        <ele>188.1</ele>
        <time>2020-02-22T16:59:50Z</time>
      </trkpt>
      <trkpt lat="39.0787400" lon="1.5023550">
        <ele>188.1</ele>
        <time>2020-02-22T16:59:51Z</time>
      </trkpt>
      <trkpt lat="39.0786900" lon="1.5023320">
        <ele>188.2</ele>
        <time>2020-02-22T16:59:52Z</time>
      </trkpt>
      <trkpt lat="39.0786350" lon="1.5023140">
        <ele>188.3</ele>
        <time>2020-02-22T16:59:53Z</time>
      </trkpt>
      <trkpt lat="39.0785820" lon="1.5022940">
        <ele>188.3</ele>
        <time>2020-02-22T16:59:54Z</time>
      </trkpt>
      <trkpt lat="39.0785330" lon="1.5022880">
        <ele>188.4</ele>
        <time>2020-02-22T16:59:55Z</time>
      </trkpt>
      <trkpt lat="39.0784870" lon="1.5022740">
        <ele>188.6</ele>
        <time>2020-02-22T16:59:56Z</time>
      </trkpt>
      <trkpt lat="39.0784440" lon="1.5022710">
        <ele>188.6</ele>
        <time>2020-02-22T16:59:57Z</time>
      </trkpt>
      <trkpt lat="39.0784080" lon="1.5022710">
        <ele>188.5</ele>
        <time>2020-02-22T16:59:58Z</time>
      </trkpt>
      <trkpt lat="39.0783670" lon="1.5022620">
        <ele>188.5</ele>
        <time>2020-02-22T16:59:59Z</time>
      </trkpt>
      <trkpt lat="39.0783230" lon="1.5022550">
        <ele>188.5</ele>
        <time>2020-02-22T17:00:00Z</time>
      </trkpt>
      <trkpt lat="39.0782780" lon="1.5022580">
        <ele>188.3</ele>
        <time>2020-02-22T17:00:01Z</time>
      </trkpt>
      <trkpt lat="39.0782320" lon="1.5022630">
        <ele>188.1</ele>
        <time>2020-02-22T17:00:02Z</time>
      </trkpt>
      <trkpt lat="39.0781910" lon="1.5022560">
        <ele>187.9</ele>
        <time>2020-02-22T17:00:03Z</time>
      </trkpt>
      <trkpt lat="39.0781360" lon="1.5022490">
        <ele>187.6</ele>
        <time>2020-02-22T17:00:04Z</time>
      </trkpt>
      <trkpt lat="39.0780900" lon="1.5022450">
        <ele>187.4</ele>
        <time>2020-02-22T17:00:05Z</time>
      </trkpt>
      <trkpt lat="39.0780450" lon="1.5022400">
        <ele>187.2</ele>
        <time>2020-02-22T17:00:06Z</time>
      </trkpt>
      <trkpt lat="39.0779980" lon="1.5022380">
        <ele>186.9</ele>
        <time>2020-02-22T17:00:07Z</time>
      </trkpt>
      <trkpt lat="39.0779520" lon="1.5022380">
        <ele>186.7</ele>
        <time>2020-02-22T17:00:08Z</time>
      </trkpt>
      <trkpt lat="39.0779090" lon="1.5022170">
        <ele>186.5</ele>
        <time>2020-02-22T17:00:09Z</time>
      </trkpt>
      <trkpt lat="39.0778530" lon="1.5022100">
        <ele>186.3</ele>
        <time>2020-02-22T17:00:10Z</time>
      </trkpt>
      <trkpt lat="39.0778080" lon="1.5022090">
        <ele>186.1</ele>
        <time>2020-02-22T17:00:11Z</time>
      </trkpt>
      <trkpt lat="39.0777650" lon="1.5022130">
        <ele>185.9</ele>
        <time>2020-02-22T17:00:12Z</time>
      </trkpt>
      <trkpt lat="39.0777210" lon="1.5022230">
        <ele>185.6</ele>
        <time>2020-02-22T17:00:13Z</time>
      </trkpt>
      <trkpt lat="39.0776810" lon="1.5022330">
        <ele>185.3</ele>
        <time>2020-02-22T17:00:14Z</time>
      </trkpt>
      <trkpt lat="39.0776300" lon="1.5022520">
        <ele>184.9</ele>
        <time>2020-02-22T17:00:15Z</time>
      </trkpt>
      <trkpt lat="39.0775820" lon="1.5022740">
        <ele>184.6</ele>
        <time>2020-02-22T17:00:16Z</time>
      </trkpt>
      <trkpt lat="39.0775350" lon="1.5022990">
        <ele>184.3</ele>
        <time>2020-02-22T17:00:17Z</time>
      </trkpt>
      <trkpt lat="39.0774910" lon="1.5023210">
        <ele>184.1</ele>
        <time>2020-02-22T17:00:18Z</time>
      </trkpt>
      <trkpt lat="39.0774470" lon="1.5023450">
        <ele>183.8</ele>
        <time>2020-02-22T17:00:19Z</time>
      </trkpt>
      <trkpt lat="39.0774060" lon="1.5023720">
        <ele>183.6</ele>
        <time>2020-02-22T17:00:20Z</time>
      </trkpt>
      <trkpt lat="39.0773690" lon="1.5024100">
        <ele>183.3</ele>
        <time>2020-02-22T17:00:21Z</time>
      </trkpt>
      <trkpt lat="39.0773280" lon="1.5024560">
        <ele>182.8</ele>
        <time>2020-02-22T17:00:22Z</time>
      </trkpt>
      <trkpt lat="39.0772790" lon="1.5025150">
        <ele>182.3</ele>
        <time>2020-02-22T17:00:23Z</time>
      </trkpt>
      <trkpt lat="39.0772270" lon="1.5025860">
        <ele>181.8</ele>
        <time>2020-02-22T17:00:24Z</time>
      </trkpt>
      <trkpt lat="39.0771800" lon="1.5026520">
        <ele>181.4</ele>
        <time>2020-02-22T17:00:25Z</time>
      </trkpt>
      <trkpt lat="39.0771330" lon="1.5027190">
        <ele>181.0</ele>
        <time>2020-02-22T17:00:26Z</time>
      </trkpt>
      <trkpt lat="39.0770870" lon="1.5027820">
        <ele>180.6</ele>
        <time>2020-02-22T17:00:27Z</time>
      </trkpt>
      <trkpt lat="39.0770400" lon="1.5028600">
        <ele>180.1</ele>
        <time>2020-02-22T17:00:28Z</time>
      </trkpt>
      <trkpt lat="39.0769850" lon="1.5029420">
        <ele>179.8</ele>
        <time>2020-02-22T17:00:29Z</time>
      </trkpt>
      <trkpt lat="39.0769340" lon="1.5030180">
        <ele>179.5</ele>
        <time>2020-02-22T17:00:30Z</time>
      </trkpt>
      <trkpt lat="39.0768910" lon="1.5030960">
        <ele>179.2</ele>
        <time>2020-02-22T17:00:31Z</time>
      </trkpt>
      <trkpt lat="39.0768470" lon="1.5031840">
        <ele>178.9</ele>
        <time>2020-02-22T17:00:32Z</time>
      </trkpt>
      <trkpt lat="39.0768010" lon="1.5032800">
        <ele>178.5</ele>
        <time>2020-02-22T17:00:33Z</time>
      </trkpt>
      <trkpt lat="39.0767590" lon="1.5033850">
        <ele>178.1</ele>
        <time>2020-02-22T17:00:34Z</time>
      </trkpt>
      <trkpt lat="39.0767200" lon="1.5034790">
        <ele>177.9</ele>
        <time>2020-02-22T17:00:35Z</time>
      </trkpt>
      <trkpt lat="39.0766790" lon="1.5035770">
        <ele>177.6</ele>
        <time>2020-02-22T17:00:36Z</time>
      </trkpt>
      <trkpt lat="39.0766360" lon="1.5036750">
        <ele>177.4</ele>
        <time>2020-02-22T17:00:37Z</time>
      </trkpt>
      <trkpt lat="39.0765910" lon="1.5037740">
        <ele>177.3</ele>
        <time>2020-02-22T17:00:38Z</time>
      </trkpt>
      <trkpt lat="39.0765490" lon="1.5038760">
        <ele>177.2</ele>
        <time>2020-02-22T17:00:39Z</time>
      </trkpt>
      <trkpt lat="39.0764930" lon="1.5039650">
        <ele>177.1</ele>
        <time>2020-02-22T17:00:40Z</time>
      </trkpt>
      <trkpt lat="39.0764370" lon="1.5040540">
        <ele>176.9</ele>
        <time>2020-02-22T17:00:41Z</time>
      </trkpt>
      <trkpt lat="39.0763880" lon="1.5041430">
        <ele>176.9</ele>
        <time>2020-02-22T17:00:42Z</time>
      </trkpt>
      <trkpt lat="39.0763420" lon="1.5042300">
        <ele>176.9</ele>
        <time>2020-02-22T17:00:43Z</time>
      </trkpt>
      <trkpt lat="39.0763010" lon="1.5043180">
        <ele>177.0</ele>
        <time>2020-02-22T17:00:44Z</time>
      </trkpt>
      <trkpt lat="39.0762490" lon="1.5043980">
        <ele>177.0</ele>
        <time>2020-02-22T17:00:45Z</time>
      </trkpt>
      <trkpt lat="39.0762000" lon="1.5044760">
        <ele>177.1</ele>
        <time>2020-02-22T17:00:46Z</time>
      </trkpt>
      <trkpt lat="39.0761550" lon="1.5045550">
        <ele>177.2</ele>
        <time>2020-02-22T17:00:47Z</time>
      </trkpt>
      <trkpt lat="39.0761180" lon="1.5046290">
        <ele>177.3</ele>
        <time>2020-02-22T17:00:48Z</time>
      </trkpt>
      <trkpt lat="39.0760830" lon="1.5047010">
        <ele>177.5</ele>
        <time>2020-02-22T17:00:49Z</time>
      </trkpt>
      <trkpt lat="39.0760530" lon="1.5047750">
        <ele>177.6</ele>
        <time>2020-02-22T17:00:50Z</time>
      </trkpt>
      <trkpt lat="39.0760360" lon="1.5048480">
        <ele>177.7</ele>
        <time>2020-02-22T17:00:51Z</time>
      </trkpt>
      <trkpt lat="39.0760290" lon="1.5049230">
        <ele>177.8</ele>
        <time>2020-02-22T17:00:52Z</time>
      </trkpt>
      <trkpt lat="39.0760180" lon="1.5050020">
        <ele>178.0</ele>
        <time>2020-02-22T17:00:53Z</time>
      </trkpt>
      <trkpt lat="39.0760180" lon="1.5050800">
        <ele>178.1</ele>
        <time>2020-02-22T17:00:54Z</time>
      </trkpt>
      <trkpt lat="39.0760180" lon="1.5051640">
        <ele>178.3</ele>
        <time>2020-02-22T17:00:55Z</time>
      </trkpt>
      <trkpt lat="39.0760190" lon="1.5052450">
        <ele>178.4</ele>
        <time>2020-02-22T17:00:56Z</time>
      </trkpt>
      <trkpt lat="39.0760210" lon="1.5053180">
        <ele>178.5</ele>
        <time>2020-02-22T17:00:57Z</time>
      </trkpt>
      <trkpt lat="39.0760250" lon="1.5053920">
        <ele>178.6</ele>
        <time>2020-02-22T17:00:58Z</time>
      </trkpt>
      <trkpt lat="39.0760310" lon="1.5054780">
        <ele>178.7</ele>
        <time>2020-02-22T17:00:59Z</time>
      </trkpt>
      <trkpt lat="39.0760350" lon="1.5055580">
        <ele>178.8</ele>
        <time>2020-02-22T17:01:00Z</time>
      </trkpt>
      <trkpt lat="39.0760270" lon="1.5056410">
        <ele>178.9</ele>
        <time>2020-02-22T17:01:01Z</time>
      </trkpt>
      <trkpt lat="39.0760200" lon="1.5057170">
        <ele>178.9</ele>
        <time>2020-02-22T17:01:02Z</time>
      </trkpt>
      <trkpt lat="39.0760050" lon="1.5057900">
        <ele>179.0</ele>
        <time>2020-02-22T17:01:03Z</time>
      </trkpt>
      <trkpt lat="39.0759780" lon="1.5058640">
        <ele>179.1</ele>
        <time>2020-02-22T17:01:04Z</time>
      </trkpt>
      <trkpt lat="39.0759460" lon="1.5059280">
        <ele>179.2</ele>
        <time>2020-02-22T17:01:05Z</time>
      </trkpt>
      <trkpt lat="39.0759020" lon="1.5059720">
        <ele>178.7</ele>
        <time>2020-02-22T17:01:06Z</time>
      </trkpt>
      <trkpt lat="39.0758390" lon="1.5059700">
        <ele>177.9</ele>
        <time>2020-02-22T17:01:07Z</time>
      </trkpt>
      <trkpt lat="39.0757770" lon="1.5059360">
        <ele>177.0</ele>
        <time>2020-02-22T17:01:08Z</time>
      </trkpt>
      <trkpt lat="39.0757310" lon="1.5059200">
        <ele>176.4</ele>
        <time>2020-02-22T17:01:09Z</time>
      </trkpt>
      <trkpt lat="39.0756820" lon="1.5059250">
        <ele>175.7</ele>
        <time>2020-02-22T17:01:10Z</time>
      </trkpt>
      <trkpt lat="39.0756370" lon="1.5059460">
        <ele>175.1</ele>
        <time>2020-02-22T17:01:11Z</time>
      </trkpt>
      <trkpt lat="39.0756070" lon="1.5060050">
        <ele>174.7</ele>
        <time>2020-02-22T17:01:12Z</time>
      </trkpt>
      <trkpt lat="39.0755970" lon="1.5060770">
        <ele>174.4</ele>
        <time>2020-02-22T17:01:13Z</time>
      </trkpt>
      <trkpt lat="39.0756110" lon="1.5061440">
        <ele>174.2</ele>
        <time>2020-02-22T17:01:14Z</time>
      </trkpt>
      <trkpt lat="39.0756320" lon="1.5062070">
        <ele>177.1</ele>
        <time>2020-02-22T17:01:15Z</time>
      </trkpt>
      <trkpt lat="39.0756510" lon="1.5062840">
        <ele>177.0</ele>
        <time>2020-02-22T17:01:16Z</time>
      </trkpt>
      <trkpt lat="39.0756690" lon="1.5063640">
        <ele>176.8</ele>
        <time>2020-02-22T17:01:17Z</time>
      </trkpt>
      <trkpt lat="39.0756870" lon="1.5064410">
        <ele>176.8</ele>
        <time>2020-02-22T17:01:18Z</time>
      </trkpt>
      <trkpt lat="39.0756990" lon="1.5065040">
        <ele>176.7</ele>
        <time>2020-02-22T17:01:19Z</time>
      </trkpt>
      <trkpt lat="39.0757030" lon="1.5065700">
        <ele>176.7</ele>
        <time>2020-02-22T17:01:20Z</time>
      </trkpt>
      <trkpt lat="39.0757150" lon="1.5066340">
        <ele>176.6</ele>
        <time>2020-02-22T17:01:21Z</time>
      </trkpt>
      <trkpt lat="39.0757250" lon="1.5066910">
        <ele>176.5</ele>
        <time>2020-02-22T17:01:22Z</time>
      </trkpt>
      <trkpt lat="39.0757320" lon="1.5067460">
        <ele>176.5</ele>
        <time>2020-02-22T17:01:23Z</time>
      </trkpt>
      <trkpt lat="39.0757390" lon="1.5067980">
        <ele>176.5</ele>
        <time>2020-02-22T17:01:24Z</time>
      </trkpt>
      <trkpt lat="39.0757480" lon="1.5068510">
        <ele>176.4</ele>
        <time>2020-02-22T17:01:25Z</time>
      </trkpt>
      <trkpt lat="39.0757540" lon="1.5068970">
        <ele>176.4</ele>
        <time>2020-02-22T17:01:26Z</time>
      </trkpt>
      <trkpt lat="39.0757720" lon="1.5069500">
        <ele>176.3</ele>
        <time>2020-02-22T17:01:27Z</time>
      </trkpt>
      <trkpt lat="39.0757870" lon="1.5070020">
        <ele>176.3</ele>
        <time>2020-02-22T17:01:28Z</time>
      </trkpt>
      <trkpt lat="39.0758040" lon="1.5070530">
        <ele>176.3</ele>
        <time>2020-02-22T17:01:29Z</time>
      </trkpt>
      <trkpt lat="39.0758130" lon="1.5070990">
        <ele>176.2</ele>
        <time>2020-02-22T17:01:30Z</time>
      </trkpt>
      <trkpt lat="39.0758170" lon="1.5071470">
        <ele>176.2</ele>
        <time>2020-02-22T17:01:31Z</time>
      </trkpt>
      <trkpt lat="39.0758350" lon="1.5072000">
        <ele>176.2</ele>
        <time>2020-02-22T17:01:32Z</time>
      </trkpt>
      <trkpt lat="39.0758530" lon="1.5072450">
        <ele>176.1</ele>
        <time>2020-02-22T17:01:33Z</time>
      </trkpt>
      <trkpt lat="39.0758610" lon="1.5072810">
        <ele>176.1</ele>
        <time>2020-02-22T17:01:34Z</time>
      </trkpt>
      <trkpt lat="39.0758720" lon="1.5073250">
        <ele>176.2</ele>
        <time>2020-02-22T17:01:35Z</time>
      </trkpt>
      <trkpt lat="39.0758810" lon="1.5073680">
        <ele>176.3</ele>
        <time>2020-02-22T17:01:36Z</time>
      </trkpt>
      <trkpt lat="39.0758930" lon="1.5074040">
        <ele>176.3</ele>
        <time>2020-02-22T17:01:37Z</time>
      </trkpt>
      <trkpt lat="39.0759070" lon="1.5074420">
        <ele>176.4</ele>
        <time>2020-02-22T17:01:38Z</time>
      </trkpt>
      <trkpt lat="39.0759200" lon="1.5074860">
        <ele>176.5</ele>
        <time>2020-02-22T17:01:39Z</time>
      </trkpt>
      <trkpt lat="39.0759310" lon="1.5075260">
        <ele>176.6</ele>
        <time>2020-02-22T17:01:40Z</time>
      </trkpt>
      <trkpt lat="39.0759510" lon="1.5075740">
        <ele>176.7</ele>
        <time>2020-02-22T17:01:41Z</time>
      </trkpt>
      <trkpt lat="39.0759590" lon="1.5075910">
        <ele>176.7</ele>
        <time>2020-02-22T17:01:42Z</time>
      </trkpt>
      <trkpt lat="39.0759750" lon="1.5076330">
        <ele>176.8</ele>
        <time>2020-02-22T17:01:43Z</time>
      </trkpt>
      <trkpt lat="39.0759970" lon="1.5076750">
        <ele>176.9</ele>
        <time>2020-02-22T17:01:44Z</time>
      </trkpt>
      <trkpt lat="39.0760060" lon="1.5077080">
        <ele>177.0</ele>
        <time>2020-02-22T17:01:45Z</time>
      </trkpt>
      <trkpt lat="39.0760200" lon="1.5077430">
        <ele>177.1</ele>
        <time>2020-02-22T17:01:46Z</time>
      </trkpt>
      <trkpt lat="39.0760400" lon="1.5077880">
        <ele>177.2</ele>
        <time>2020-02-22T17:01:47Z</time>
      </trkpt>
      <trkpt lat="39.0760460" lon="1.5078040">
        <ele>177.2</ele>
        <time>2020-02-22T17:01:48Z</time>
      </trkpt>
      <trkpt lat="39.0760700" lon="1.5078490">
        <ele>177.4</ele>
        <time>2020-02-22T17:01:49Z</time>
      </trkpt>
      <trkpt lat="39.0760800" lon="1.5078660">
        <ele>177.4</ele>
        <time>2020-02-22T17:01:50Z</time>
      </trkpt>
      <trkpt lat="39.0760990" lon="1.5079060">
        <ele>177.5</ele>
        <time>2020-02-22T17:01:51Z</time>
      </trkpt>
      <trkpt lat="39.0761160" lon="1.5079430">
        <ele>177.6</ele>
        <time>2020-02-22T17:01:52Z</time>
      </trkpt>
      <trkpt lat="39.0761340" lon="1.5079780">
        <ele>177.6</ele>
        <time>2020-02-22T17:01:53Z</time>
      </trkpt>
      <trkpt lat="39.0761600" lon="1.5080090">
        <ele>177.7</ele>
        <time>2020-02-22T17:01:54Z</time>
      </trkpt>
      <trkpt lat="39.0761880" lon="1.5080510">
        <ele>177.8</ele>
        <time>2020-02-22T17:01:55Z</time>
      </trkpt>
      <trkpt lat="39.0762110" lon="1.5080860">
        <ele>177.9</ele>
        <time>2020-02-22T17:01:56Z</time>
      </trkpt>
      <trkpt lat="39.0762320" lon="1.5081280">
        <ele>177.9</ele>
        <time>2020-02-22T17:01:57Z</time>
      </trkpt>
      <trkpt lat="39.0762620" lon="1.5081710">
        <ele>178.0</ele>
        <time>2020-02-22T17:01:58Z</time>
      </trkpt>
      <trkpt lat="39.0762860" lon="1.5082140">
        <ele>178.1</ele>
        <time>2020-02-22T17:01:59Z</time>
      </trkpt>
      <trkpt lat="39.0763100" lon="1.5082540">
        <ele>178.1</ele>
        <time>2020-02-22T17:02:00Z</time>
      </trkpt>
      <trkpt lat="39.0763260" lon="1.5082940">
        <ele>178.2</ele>
        <time>2020-02-22T17:02:01Z</time>
      </trkpt>
      <trkpt lat="39.0763470" lon="1.5083360">
        <ele>178.3</ele>
        <time>2020-02-22T17:02:02Z</time>
      </trkpt>
      <trkpt lat="39.0763670" lon="1.5083700">
        <ele>178.3</ele>
        <time>2020-02-22T17:02:03Z</time>
      </trkpt>
      <trkpt lat="39.0763930" lon="1.5084070">
        <ele>178.4</ele>
        <time>2020-02-22T17:02:04Z</time>
      </trkpt>
      <trkpt lat="39.0764160" lon="1.5084420">
        <ele>178.5</ele>
        <time>2020-02-22T17:02:05Z</time>
      </trkpt>
      <trkpt lat="39.0764310" lon="1.5084810">
        <ele>178.5</ele>
        <time>2020-02-22T17:02:06Z</time>
      </trkpt>
      <trkpt lat="39.0764600" lon="1.5085210">
        <ele>178.6</ele>
        <time>2020-02-22T17:02:07Z</time>
      </trkpt>
      <trkpt lat="39.0764720" lon="1.5085410">
        <ele>178.7</ele>
        <time>2020-02-22T17:02:08Z</time>
      </trkpt>
      <trkpt lat="39.0764980" lon="1.5085840">
        <ele>178.8</ele>
        <time>2020-02-22T17:02:09Z</time>
      </trkpt>
      <trkpt lat="39.0765120" lon="1.5086060">
        <ele>178.8</ele>
        <time>2020-02-22T17:02:10Z</time>
      </trkpt>
      <trkpt lat="39.0765430" lon="1.5086450">
        <ele>178.9</ele>
        <time>2020-02-22T17:02:11Z</time>
      </trkpt>
      <trkpt lat="39.0765750" lon="1.5086910">
        <ele>179.0</ele>
        <time>2020-02-22T17:02:12Z</time>
      </trkpt>
      <trkpt lat="39.0765910" lon="1.5087190">
        <ele>179.1</ele>
        <time>2020-02-22T17:02:13Z</time>
      </trkpt>
      <trkpt lat="39.0766120" lon="1.5087490">
        <ele>179.1</ele>
        <time>2020-02-22T17:02:14Z</time>
      </trkpt>
      <trkpt lat="39.0766380" lon="1.5087930">
        <ele>179.3</ele>
        <time>2020-02-22T17:02:15Z</time>
      </trkpt>
      <trkpt lat="39.0766670" lon="1.5088210">
        <ele>179.3</ele>
        <time>2020-02-22T17:02:16Z</time>
      </trkpt>
      <trkpt lat="39.0766910" lon="1.5088530">
        <ele>179.4</ele>
        <time>2020-02-22T17:02:17Z</time>
      </trkpt>
      <trkpt lat="39.0767210" lon="1.5088920">
        <ele>179.5</ele>
        <time>2020-02-22T17:02:18Z</time>
      </trkpt>
      <trkpt lat="39.0767450" lon="1.5089350">
        <ele>179.6</ele>
        <time>2020-02-22T17:02:19Z</time>
      </trkpt>
      <trkpt lat="39.0767680" lon="1.5089630">
        <ele>179.7</ele>
        <time>2020-02-22T17:02:20Z</time>
      </trkpt>
      <trkpt lat="39.0767880" lon="1.5090000">
        <ele>179.8</ele>
        <time>2020-02-22T17:02:21Z</time>
      </trkpt>
      <trkpt lat="39.0768060" lon="1.5090400">
        <ele>179.9</ele>
        <time>2020-02-22T17:02:22Z</time>
      </trkpt>
      <trkpt lat="39.0768280" lon="1.5090710">
        <ele>179.9</ele>
        <time>2020-02-22T17:02:23Z</time>
      </trkpt>
      <trkpt lat="39.0768360" lon="1.5090820">
        <ele>179.9</ele>
        <time>2020-02-22T17:02:24Z</time>
      </trkpt>
      <trkpt lat="39.0768590" lon="1.5091160">
        <ele>180.0</ele>
        <time>2020-02-22T17:02:25Z</time>
      </trkpt>
      <trkpt lat="39.0768780" lon="1.5091460">
        <ele>180.0</ele>
        <time>2020-02-22T17:02:26Z</time>
      </trkpt>
      <trkpt lat="39.0768970" lon="1.5091810">
        <ele>180.0</ele>
        <time>2020-02-22T17:02:27Z</time>
      </trkpt>
      <trkpt lat="39.0769300" lon="1.5092250">
        <ele>180.0</ele>
        <time>2020-02-22T17:02:28Z</time>
      </trkpt>
      <trkpt lat="39.0769430" lon="1.5092470">
        <ele>180.4</ele>
        <time>2020-02-22T17:02:29Z</time>
      </trkpt>
      <trkpt lat="39.0769700" lon="1.5092960">
        <ele>180.7</ele>
        <time>2020-02-22T17:02:30Z</time>
      </trkpt>
      <trkpt lat="39.0769810" lon="1.5093230">
        <ele>180.9</ele>
        <time>2020-02-22T17:02:31Z</time>
      </trkpt>
      <trkpt lat="39.0770050" lon="1.5093540">
        <ele>181.1</ele>
        <time>2020-02-22T17:02:32Z</time>
      </trkpt>
      <trkpt lat="39.0770260" lon="1.5093860">
        <ele>181.3</ele>
        <time>2020-02-22T17:02:33Z</time>
      </trkpt>
      <trkpt lat="39.0770580" lon="1.5094180">
        <ele>181.6</ele>
        <time>2020-02-22T17:02:34Z</time>
      </trkpt>
      <trkpt lat="39.0770690" lon="1.5094290">
        <ele>181.6</ele>
        <time>2020-02-22T17:02:35Z</time>
      </trkpt>
      <trkpt lat="39.0770900" lon="1.5094690">
        <ele>181.8</ele>
        <time>2020-02-22T17:02:36Z</time>
      </trkpt>
      <trkpt lat="39.0771120" lon="1.5095120">
        <ele>182.0</ele>
        <time>2020-02-22T17:02:37Z</time>
      </trkpt>
      <trkpt lat="39.0771210" lon="1.5095290">
        <ele>182.0</ele>
        <time>2020-02-22T17:02:38Z</time>
      </trkpt>
      <trkpt lat="39.0771440" lon="1.5095650">
        <ele>182.2</ele>
        <time>2020-02-22T17:02:39Z</time>
      </trkpt>
      <trkpt lat="39.0771680" lon="1.5096080">
        <ele>182.3</ele>
        <time>2020-02-22T17:02:40Z</time>
      </trkpt>
      <trkpt lat="39.0771880" lon="1.5096470">
        <ele>182.4</ele>
        <time>2020-02-22T17:02:41Z</time>
      </trkpt>
      <trkpt lat="39.0772080" lon="1.5096860">
        <ele>182.6</ele>
        <time>2020-02-22T17:02:42Z</time>
      </trkpt>
      <trkpt lat="39.0772310" lon="1.5097210">
        <ele>182.7</ele>
        <time>2020-02-22T17:02:43Z</time>
      </trkpt>
      <trkpt lat="39.0772500" lon="1.5097500">
        <ele>182.8</ele>
        <time>2020-02-22T17:02:44Z</time>
      </trkpt>
      <trkpt lat="39.0772740" lon="1.5098050">
        <ele>183.0</ele>
        <time>2020-02-22T17:02:45Z</time>
      </trkpt>
      <trkpt lat="39.0772920" lon="1.5098420">
        <ele>183.2</ele>
        <time>2020-02-22T17:02:46Z</time>
      </trkpt>
      <trkpt lat="39.0773110" lon="1.5098860">
        <ele>183.3</ele>
        <time>2020-02-22T17:02:47Z</time>
      </trkpt>
      <trkpt lat="39.0773320" lon="1.5099300">
        <ele>183.5</ele>
        <time>2020-02-22T17:02:48Z</time>
      </trkpt>
      <trkpt lat="39.0773510" lon="1.5099650">
        <ele>183.6</ele>
        <time>2020-02-22T17:02:49Z</time>
      </trkpt>
      <trkpt lat="39.0773740" lon="1.5100080">
        <ele>183.7</ele>
        <time>2020-02-22T17:02:50Z</time>
      </trkpt>
      <trkpt lat="39.0773940" lon="1.5100510">
        <ele>183.9</ele>
        <time>2020-02-22T17:02:51Z</time>
      </trkpt>
      <trkpt lat="39.0774120" lon="1.5100910">
        <ele>184.0</ele>
        <time>2020-02-22T17:02:52Z</time>
      </trkpt>
      <trkpt lat="39.0774230" lon="1.5101340">
        <ele>184.1</ele>
        <time>2020-02-22T17:02:53Z</time>
      </trkpt>
      <trkpt lat="39.0774370" lon="1.5101770">
        <ele>184.2</ele>
        <time>2020-02-22T17:02:54Z</time>
      </trkpt>
      <trkpt lat="39.0774510" lon="1.5102140">
        <ele>184.4</ele>
        <time>2020-02-22T17:02:55Z</time>
      </trkpt>
      <trkpt lat="39.0774550" lon="1.5102280">
        <ele>184.4</ele>
        <time>2020-02-22T17:02:56Z</time>
      </trkpt>
      <trkpt lat="39.0774740" lon="1.5102800">
        <ele>184.5</ele>
        <time>2020-02-22T17:02:57Z</time>
      </trkpt>
      <trkpt lat="39.0774820" lon="1.5103140">
        <ele>184.6</ele>
        <time>2020-02-22T17:02:58Z</time>
      </trkpt>
      <trkpt lat="39.0774870" lon="1.5103520">
        <ele>184.8</ele>
        <time>2020-02-22T17:02:59Z</time>
      </trkpt>
      <trkpt lat="39.0774890" lon="1.5103870">
        <ele>184.9</ele>
        <time>2020-02-22T17:03:00Z</time>
      </trkpt>
      <trkpt lat="39.0775030" lon="1.5104480">
        <ele>185.1</ele>
        <time>2020-02-22T17:03:01Z</time>
      </trkpt>
      <trkpt lat="39.0775090" lon="1.5104800">
        <ele>185.2</ele>
        <time>2020-02-22T17:03:02Z</time>
      </trkpt>
      <trkpt lat="39.0775240" lon="1.5105300">
        <ele>185.3</ele>
        <time>2020-02-22T17:03:03Z</time>
      </trkpt>
      <trkpt lat="39.0775310" lon="1.5105590">
        <ele>185.4</ele>
        <time>2020-02-22T17:03:04Z</time>
      </trkpt>
      <trkpt lat="39.0775320" lon="1.5105750">
        <ele>185.5</ele>
        <time>2020-02-22T17:03:05Z</time>
      </trkpt>
      <trkpt lat="39.0775290" lon="1.5106260">
        <ele>185.6</ele>
        <time>2020-02-22T17:03:06Z</time>
      </trkpt>
      <trkpt lat="39.0775320" lon="1.5106650">
        <ele>185.7</ele>
        <time>2020-02-22T17:03:07Z</time>
      </trkpt>
      <trkpt lat="39.0775330" lon="1.5107110">
        <ele>185.8</ele>
        <time>2020-02-22T17:03:08Z</time>
      </trkpt>
      <trkpt lat="39.0775430" lon="1.5107480">
        <ele>185.9</ele>
        <time>2020-02-22T17:03:09Z</time>
      </trkpt>
      <trkpt lat="39.0775480" lon="1.5107880">
        <ele>186.0</ele>
        <time>2020-02-22T17:03:10Z</time>
      </trkpt>
      <trkpt lat="39.0775480" lon="1.5108310">
        <ele>186.1</ele>
        <time>2020-02-22T17:03:11Z</time>
      </trkpt>
      <trkpt lat="39.0775450" lon="1.5108910">
        <ele>186.2</ele>
        <time>2020-02-22T17:03:12Z</time>
      </trkpt>
      <trkpt lat="39.0775510" lon="1.5109420">
        <ele>186.4</ele>
        <time>2020-02-22T17:03:13Z</time>
      </trkpt>
      <trkpt lat="39.0775510" lon="1.5109650">
        <ele>186.4</ele>
        <time>2020-02-22T17:03:14Z</time>
      </trkpt>
      <trkpt lat="39.0775500" lon="1.5110180">
        <ele>186.5</ele>
        <time>2020-02-22T17:03:15Z</time>
      </trkpt>
      <trkpt lat="39.0775460" lon="1.5110370">
        <ele>186.6</ele>
        <time>2020-02-22T17:03:16Z</time>
      </trkpt>
      <trkpt lat="39.0775420" lon="1.5110790">
        <ele>186.7</ele>
        <time>2020-02-22T17:03:17Z</time>
      </trkpt>
      <trkpt lat="39.0775390" lon="1.5111230">
        <ele>186.8</ele>
        <time>2020-02-22T17:03:18Z</time>
      </trkpt>
      <trkpt lat="39.0775380" lon="1.5111750">
        <ele>186.9</ele>
        <time>2020-02-22T17:03:19Z</time>
      </trkpt>
      <trkpt lat="39.0775310" lon="1.5112320">
        <ele>187.0</ele>
        <time>2020-02-22T17:03:20Z</time>
      </trkpt>
      <trkpt lat="39.0775270" lon="1.5112860">
        <ele>187.1</ele>
        <time>2020-02-22T17:03:21Z</time>
      </trkpt>
      <trkpt lat="39.0775180" lon="1.5113390">
        <ele>187.2</ele>
        <time>2020-02-22T17:03:22Z</time>
      </trkpt>
      <trkpt lat="39.0775160" lon="1.5113600">
        <ele>187.2</ele>
        <time>2020-02-22T17:03:23Z</time>
      </trkpt>
      <trkpt lat="39.0775130" lon="1.5113990">
        <ele>187.3</ele>
        <time>2020-02-22T17:03:24Z</time>
      </trkpt>
      <trkpt lat="39.0775040" lon="1.5114450">
        <ele>187.4</ele>
        <time>2020-02-22T17:03:25Z</time>
      </trkpt>
      <trkpt lat="39.0775020" lon="1.5114640">
        <ele>187.4</ele>
        <time>2020-02-22T17:03:26Z</time>
      </trkpt>
      <trkpt lat="39.0774980" lon="1.5115080">
        <ele>187.5</ele>
        <time>2020-02-22T17:03:27Z</time>
      </trkpt>
      <trkpt lat="39.0774950" lon="1.5115510">
        <ele>187.7</ele>
        <time>2020-02-22T17:03:28Z</time>
      </trkpt>
      <trkpt lat="39.0774950" lon="1.5115900">
        <ele>187.8</ele>
        <time>2020-02-22T17:03:29Z</time>
      </trkpt>
      <trkpt lat="39.0774970" lon="1.5116340">
        <ele>188.0</ele>
        <time>2020-02-22T17:03:30Z</time>
      </trkpt>
      <trkpt lat="39.0774950" lon="1.5116830">
        <ele>188.2</ele>
        <time>2020-02-22T17:03:31Z</time>
      </trkpt>
      <trkpt lat="39.0774920" lon="1.5117330">
        <ele>188.3</ele>
        <time>2020-02-22T17:03:32Z</time>
      </trkpt>
      <trkpt lat="39.0774830" lon="1.5117980">
        <ele>188.6</ele>
        <time>2020-02-22T17:03:33Z</time>
      </trkpt>
      <trkpt lat="39.0774770" lon="1.5118450">
        <ele>188.8</ele>
        <time>2020-02-22T17:03:34Z</time>
      </trkpt>
      <trkpt lat="39.0774760" lon="1.5118910">
        <ele>188.9</ele>
        <time>2020-02-22T17:03:35Z</time>
      </trkpt>
      <trkpt lat="39.0774760" lon="1.5119090">
        <ele>189.0</ele>
        <time>2020-02-22T17:03:36Z</time>
      </trkpt>
      <trkpt lat="39.0774720" lon="1.5119440">
        <ele>189.1</ele>
        <time>2020-02-22T17:03:37Z</time>
      </trkpt>
      <trkpt lat="39.0774660" lon="1.5119840">
        <ele>189.3</ele>
        <time>2020-02-22T17:03:38Z</time>
      </trkpt>
      <trkpt lat="39.0774640" lon="1.5120220">
        <ele>189.3</ele>
        <time>2020-02-22T17:03:39Z</time>
      </trkpt>
      <trkpt lat="39.0774620" lon="1.5120810">
        <ele>189.5</ele>
        <time>2020-02-22T17:03:40Z</time>
      </trkpt>
      <trkpt lat="39.0774600" lon="1.5121050">
        <ele>189.5</ele>
        <time>2020-02-22T17:03:41Z</time>
      </trkpt>
      <trkpt lat="39.0774590" lon="1.5121510">
        <ele>189.6</ele>
        <time>2020-02-22T17:03:42Z</time>
      </trkpt>
      <trkpt lat="39.0774640" lon="1.5122060">
        <ele>189.7</ele>
        <time>2020-02-22T17:03:43Z</time>
      </trkpt>
      <trkpt lat="39.0774620" lon="1.5122500">
        <ele>189.8</ele>
        <time>2020-02-22T17:03:44Z</time>
      </trkpt>
      <trkpt lat="39.0774600" lon="1.5123100">
        <ele>189.9</ele>
        <time>2020-02-22T17:03:45Z</time>
      </trkpt>
      <trkpt lat="39.0774610" lon="1.5123490">
        <ele>189.9</ele>
        <time>2020-02-22T17:03:46Z</time>
      </trkpt>
      <trkpt lat="39.0774710" lon="1.5123850">
        <ele>190.0</ele>
        <time>2020-02-22T17:03:47Z</time>
      </trkpt>
      <trkpt lat="39.0774800" lon="1.5124290">
        <ele>190.1</ele>
        <time>2020-02-22T17:03:48Z</time>
      </trkpt>
      <trkpt lat="39.0774890" lon="1.5124620">
        <ele>190.1</ele>
        <time>2020-02-22T17:03:49Z</time>
      </trkpt>
      <trkpt lat="39.0774960" lon="1.5125010">
        <ele>190.4</ele>
        <time>2020-02-22T17:03:50Z</time>
      </trkpt>
      <trkpt lat="39.0775040" lon="1.5125510">
        <ele>190.5</ele>
        <time>2020-02-22T17:03:51Z</time>
      </trkpt>
      <trkpt lat="39.0775090" lon="1.5125940">
        <ele>190.7</ele>
        <time>2020-02-22T17:03:52Z</time>
      </trkpt>
      <trkpt lat="39.0775150" lon="1.5126320">
        <ele>190.8</ele>
        <time>2020-02-22T17:03:53Z</time>
      </trkpt>
      <trkpt lat="39.0775270" lon="1.5126730">
        <ele>191.0</ele>
        <time>2020-02-22T17:03:54Z</time>
      </trkpt>
      <trkpt lat="39.0775320" lon="1.5126860">
        <ele>191.1</ele>
        <time>2020-02-22T17:03:55Z</time>
      </trkpt>
      <trkpt lat="39.0775470" lon="1.5127180">
        <ele>191.2</ele>
        <time>2020-02-22T17:03:56Z</time>
      </trkpt>
      <trkpt lat="39.0775650" lon="1.5127660">
        <ele>191.6</ele>
        <time>2020-02-22T17:03:57Z</time>
      </trkpt>
      <trkpt lat="39.0775830" lon="1.5128030">
        <ele>191.7</ele>
        <time>2020-02-22T17:03:58Z</time>
      </trkpt>
      <trkpt lat="39.0775940" lon="1.5128380">
        <ele>191.7</ele>
        <time>2020-02-22T17:03:59Z</time>
      </trkpt>
      <trkpt lat="39.0776040" lon="1.5128510">
        <ele>191.8</ele>
        <time>2020-02-22T17:04:00Z</time>
      </trkpt>
      <trkpt lat="39.0776140" lon="1.5128740">
        <ele>191.8</ele>
        <time>2020-02-22T17:04:01Z</time>
      </trkpt>
      <trkpt lat="39.0776440" lon="1.5129030">
        <ele>191.9</ele>
        <time>2020-02-22T17:04:02Z</time>
      </trkpt>
      <trkpt lat="39.0776530" lon="1.5129140">
        <ele>191.9</ele>
        <time>2020-02-22T17:04:03Z</time>
      </trkpt>
      <trkpt lat="39.0776530" lon="1.5129420">
        <ele>192.0</ele>
        <time>2020-02-22T17:04:04Z</time>
      </trkpt>
      <trkpt lat="39.0776540" lon="1.5129530">
        <ele>192.0</ele>
        <time>2020-02-22T17:04:05Z</time>
      </trkpt>
      <trkpt lat="39.0776550" lon="1.5129640">
        <ele>192.1</ele>
        <time>2020-02-22T17:04:06Z</time>
      </trkpt>
      <trkpt lat="39.0776620" lon="1.5129800">
        <ele>192.1</ele>
        <time>2020-02-22T17:04:07Z</time>
      </trkpt>
      <trkpt lat="39.0776540" lon="1.5130060">
        <ele>192.2</ele>
        <time>2020-02-22T17:04:08Z</time>
      </trkpt>
      <trkpt lat="39.0776530" lon="1.5129990">
        <ele>192.2</ele>
        <time>2020-02-22T17:04:09Z</time>
      </trkpt>
      <trkpt lat="39.0776480" lon="1.5130070">
        <ele>192.3</ele>
        <time>2020-02-22T17:04:10Z</time>
      </trkpt>
      <trkpt lat="39.0776410" lon="1.5130200">
        <ele>192.3</ele>
        <time>2020-02-22T17:04:11Z</time>
      </trkpt>
      <trkpt lat="39.0776410" lon="1.5130330">
        <ele>192.4</ele>
        <time>2020-02-22T17:04:12Z</time>
      </trkpt>
      <trkpt lat="39.0776390" lon="1.5130390">
        <ele>192.4</ele>
        <time>2020-02-22T17:04:13Z</time>
      </trkpt>
      <trkpt lat="39.0776490" lon="1.5130520">
        <ele>192.4</ele>
        <time>2020-02-22T17:04:14Z</time>
      </trkpt>
      <trkpt lat="39.0776590" lon="1.5130670">
        <ele>192.5</ele>
        <time>2020-02-22T17:04:15Z</time>
      </trkpt>
      <trkpt lat="39.0776680" lon="1.5130820">
        <ele>192.6</ele>
        <time>2020-02-22T17:04:16Z</time>
      </trkpt>
      <trkpt lat="39.0776770" lon="1.5130970">
        <ele>192.6</ele>
        <time>2020-02-22T17:04:17Z</time>
      </trkpt>
      <trkpt lat="39.0776870" lon="1.5131120">
        <ele>192.7</ele>
        <time>2020-02-22T17:05:07Z</time>
      </trkpt>
      <trkpt lat="39.0776960" lon="1.5131270">
        <ele>192.8</ele>
        <time>2020-02-22T17:05:08Z</time>
      </trkpt>
      <trkpt lat="39.0777080" lon="1.5131540">
        <ele>192.9</ele>
        <time>2020-02-22T17:05:09Z</time>
      </trkpt>
      <trkpt lat="39.0777130" lon="1.5131690">
        <ele>192.9</ele>
        <time>2020-02-22T17:05:10Z</time>
      </trkpt>
      <trkpt lat="39.0777280" lon="1.5132010">
        <ele>193.0</ele>
        <time>2020-02-22T17:05:11Z</time>
      </trkpt>
      <trkpt lat="39.0777440" lon="1.5132450">
        <ele>193.2</ele>
        <time>2020-02-22T17:05:12Z</time>
      </trkpt>
      <trkpt lat="39.0777550" lon="1.5132770">
        <ele>193.3</ele>
        <time>2020-02-22T17:05:13Z</time>
      </trkpt>
      <trkpt lat="39.0777680" lon="1.5133080">
        <ele>193.4</ele>
        <time>2020-02-22T17:05:14Z</time>
      </trkpt>
      <trkpt lat="39.0777750" lon="1.5133240">
        <ele>193.5</ele>
        <time>2020-02-22T17:05:15Z</time>
      </trkpt>
      <trkpt lat="39.0777910" lon="1.5133600">
        <ele>193.6</ele>
        <time>2020-02-22T17:05:16Z</time>
      </trkpt>
      <trkpt lat="39.0778030" lon="1.5133910">
        <ele>193.7</ele>
        <time>2020-02-22T17:05:17Z</time>
      </trkpt>
      <trkpt lat="39.0778120" lon="1.5134280">
        <ele>193.9</ele>
        <time>2020-02-22T17:05:18Z</time>
      </trkpt>
      <trkpt lat="39.0778150" lon="1.5134430">
        <ele>193.9</ele>
        <time>2020-02-22T17:05:19Z</time>
      </trkpt>
      <trkpt lat="39.0778290" lon="1.5134770">
        <ele>194.1</ele>
        <time>2020-02-22T17:05:20Z</time>
      </trkpt>
      <trkpt lat="39.0778460" lon="1.5135090">
        <ele>194.2</ele>
        <time>2020-02-22T17:05:21Z</time>
      </trkpt>
      <trkpt lat="39.0778510" lon="1.5135470">
        <ele>194.4</ele>
        <time>2020-02-22T17:05:22Z</time>
      </trkpt>
      <trkpt lat="39.0778480" lon="1.5135630">
        <ele>194.5</ele>
        <time>2020-02-22T17:05:23Z</time>
      </trkpt>
      <trkpt lat="39.0778450" lon="1.5136000">
        <ele>194.7</ele>
        <time>2020-02-22T17:05:24Z</time>
      </trkpt>
      <trkpt lat="39.0778520" lon="1.5136400">
        <ele>194.9</ele>
        <time>2020-02-22T17:05:25Z</time>
      </trkpt>
      <trkpt lat="39.0778550" lon="1.5136540">
        <ele>194.9</ele>
        <time>2020-02-22T17:05:26Z</time>
      </trkpt>
      <trkpt lat="39.0778670" lon="1.5137040">
        <ele>195.6</ele>
        <time>2020-02-22T17:05:27Z</time>
      </trkpt>
      <trkpt lat="39.0778750" lon="1.5137430">
        <ele>195.8</ele>
        <time>2020-02-22T17:05:28Z</time>
      </trkpt>
      <trkpt lat="39.0778750" lon="1.5137530">
        <ele>195.8</ele>
        <time>2020-02-22T17:05:29Z</time>
      </trkpt>
      <trkpt lat="39.0778730" lon="1.5137910">
        <ele>196.0</ele>
        <time>2020-02-22T17:05:30Z</time>
      </trkpt>
      <trkpt lat="39.0778730" lon="1.5138030">
        <ele>196.1</ele>
        <time>2020-02-22T17:05:31Z</time>
      </trkpt>
      <trkpt lat="39.0778740" lon="1.5138230">
        <ele>196.2</ele>
        <time>2020-02-22T17:05:32Z</time>
      </trkpt>
      <trkpt lat="39.0778890" lon="1.5138380">
        <ele>196.3</ele>
        <time>2020-02-22T17:05:33Z</time>
      </trkpt>
      <trkpt lat="39.0778970" lon="1.5138340">
        <ele>196.4</ele>
        <time>2020-02-22T17:05:34Z</time>
      </trkpt>
      <trkpt lat="39.0779090" lon="1.5138190">
        <ele>196.5</ele>
        <time>2020-02-22T17:05:35Z</time>
      </trkpt>
      <trkpt lat="39.0779140" lon="1.5138200">
        <ele>196.6</ele>
        <time>2020-02-22T17:05:36Z</time>
      </trkpt>
      <trkpt lat="39.0779160" lon="1.5138210">
        <ele>196.6</ele>
        <time>2020-02-22T17:05:37Z</time>
      </trkpt>
      <trkpt lat="39.0779170" lon="1.5138240">
        <ele>196.6</ele>
        <time>2020-02-22T17:05:38Z</time>
      </trkpt>
      <trkpt lat="39.0779170" lon="1.5138270">
        <ele>196.6</ele>
        <time>2020-02-22T17:05:39Z</time>
      </trkpt>
      <trkpt lat="39.0779180" lon="1.5138300">
        <ele>196.6</ele>
        <time>2020-02-22T17:05:40Z</time>
      </trkpt>
      <trkpt lat="39.0779180" lon="1.5138340">
        <ele>196.6</ele>
        <time>2020-02-22T17:05:41Z</time>
      </trkpt>
      <trkpt lat="39.0779190" lon="1.5138370">
        <ele>196.7</ele>
        <time>2020-02-22T17:05:42Z</time>
      </trkpt>
      <trkpt lat="39.0779190" lon="1.5138400">
        <ele>196.7</ele>
        <time>2020-02-22T17:05:43Z</time>
      </trkpt>
      <trkpt lat="39.0779190" lon="1.5138430">
        <ele>196.7</ele>
        <time>2020-02-22T17:05:44Z</time>
      </trkpt>
      <trkpt lat="39.0779200" lon="1.5138460">
        <ele>196.7</ele>
        <time>2020-02-22T17:05:45Z</time>
      </trkpt>
      <trkpt lat="39.0779200" lon="1.5138490">
        <ele>196.7</ele>
        <time>2020-02-22T17:05:46Z</time>
      </trkpt>
      <trkpt lat="39.0779210" lon="1.5138520">
        <ele>196.7</ele>
        <time>2020-02-22T17:05:47Z</time>
      </trkpt>
      <trkpt lat="39.0779210" lon="1.5138550">
        <ele>196.8</ele>
        <time>2020-02-22T17:05:48Z</time>
      </trkpt>
      <trkpt lat="39.0779210" lon="1.5138590">
        <ele>196.8</ele>
        <time>2020-02-22T17:05:49Z</time>
      </trkpt>
      <trkpt lat="39.0779220" lon="1.5138620">
        <ele>196.8</ele>
        <time>2020-02-22T17:05:50Z</time>
      </trkpt>
      <trkpt lat="39.0779220" lon="1.5138650">
        <ele>196.8</ele>
        <time>2020-02-22T17:05:51Z</time>
      </trkpt>
      <trkpt lat="39.0779230" lon="1.5138680">
        <ele>196.8</ele>
        <time>2020-02-22T17:05:52Z</time>
      </trkpt>
      <trkpt lat="39.0779230" lon="1.5138710">
        <ele>196.8</ele>
        <time>2020-02-22T17:05:53Z</time>
      </trkpt>
      <trkpt lat="39.0779240" lon="1.5138740">
        <ele>196.9</ele>
        <time>2020-02-22T17:05:54Z</time>
      </trkpt>
      <trkpt lat="39.0779240" lon="1.5138770">
        <ele>196.9</ele>
        <time>2020-02-22T17:05:55Z</time>
      </trkpt>
      <trkpt lat="39.0779240" lon="1.5138800">
        <ele>196.9</ele>
        <time>2020-02-22T17:05:56Z</time>
      </trkpt>
      <trkpt lat="39.0779250" lon="1.5138840">
        <ele>196.9</ele>
        <time>2020-02-22T17:05:57Z</time>
      </trkpt>
      <trkpt lat="39.0779250" lon="1.5138870">
        <ele>196.9</ele>
        <time>2020-02-22T17:09:08Z</time>
      </trkpt>
      <trkpt lat="39.0779260" lon="1.5138900">
        <ele>197.0</ele>
        <time>2020-02-22T17:09:09Z</time>
      </trkpt>
      <trkpt lat="39.0779260" lon="1.5138930">
        <ele>197.0</ele>
        <time>2020-02-22T17:09:10Z</time>
      </trkpt>
      <trkpt lat="39.0779240" lon="1.5139070">
        <ele>197.4</ele>
        <time>2020-02-22T17:09:11Z</time>
      </trkpt>
      <trkpt lat="39.0779360" lon="1.5139130">
        <ele>197.5</ele>
        <time>2020-02-22T17:09:12Z</time>
      </trkpt>
      <trkpt lat="39.0779400" lon="1.5139230">
        <ele>197.6</ele>
        <time>2020-02-22T17:09:13Z</time>
      </trkpt>
      <trkpt lat="39.0779540" lon="1.5139550">
        <ele>197.8</ele>
        <time>2020-02-22T17:09:14Z</time>
      </trkpt>
      <trkpt lat="39.0779590" lon="1.5139670">
        <ele>197.8</ele>
        <time>2020-02-22T17:09:15Z</time>
      </trkpt>
      <trkpt lat="39.0779640" lon="1.5140110">
        <ele>198.1</ele>
        <time>2020-02-22T17:09:16Z</time>
      </trkpt>
      <trkpt lat="39.0779630" lon="1.5140250">
        <ele>198.1</ele>
        <time>2020-02-22T17:09:17Z</time>
      </trkpt>
      <trkpt lat="39.0779630" lon="1.5140670">
        <ele>198.4</ele>
        <time>2020-02-22T17:09:18Z</time>
      </trkpt>
      <trkpt lat="39.0779660" lon="1.5140800">
        <ele>198.4</ele>
        <time>2020-02-22T17:09:19Z</time>
      </trkpt>
      <trkpt lat="39.0779700" lon="1.5141320">
        <ele>198.7</ele>
        <time>2020-02-22T17:09:20Z</time>
      </trkpt>
      <trkpt lat="39.0779720" lon="1.5141510">
        <ele>198.8</ele>
        <time>2020-02-22T17:09:21Z</time>
      </trkpt>
      <trkpt lat="39.0779650" lon="1.5141840">
        <ele>199.0</ele>
        <time>2020-02-22T17:09:22Z</time>
      </trkpt>
      <trkpt lat="39.0779680" lon="1.5142190">
        <ele>199.1</ele>
        <time>2020-02-22T17:09:23Z</time>
      </trkpt>
      <trkpt lat="39.0779720" lon="1.5142660">
        <ele>199.4</ele>
        <time>2020-02-22T17:09:24Z</time>
      </trkpt>
      <trkpt lat="39.0779720" lon="1.5142820">
        <ele>199.5</ele>
        <time>2020-02-22T17:09:25Z</time>
      </trkpt>
      <trkpt lat="39.0779710" lon="1.5143250">
        <ele>199.7</ele>
        <time>2020-02-22T17:09:26Z</time>
      </trkpt>
      <trkpt lat="39.0779670" lon="1.5143380">
        <ele>199.8</ele>
        <time>2020-02-22T17:09:27Z</time>
      </trkpt>
      <trkpt lat="39.0779730" lon="1.5143750">
        <ele>200.0</ele>
        <time>2020-02-22T17:09:28Z</time>
      </trkpt>
      <trkpt lat="39.0779720" lon="1.5144220">
        <ele>200.2</ele>
        <time>2020-02-22T17:09:29Z</time>
      </trkpt>
      <trkpt lat="39.0779690" lon="1.5144360">
        <ele>200.4</ele>
        <time>2020-02-22T17:09:30Z</time>
      </trkpt>
      <trkpt lat="39.0779700" lon="1.5144820">
        <ele>200.8</ele>
        <time>2020-02-22T17:09:31Z</time>
      </trkpt>
      <trkpt lat="39.0779710" lon="1.5144970">
        <ele>200.9</ele>
        <time>2020-02-22T17:09:32Z</time>
      </trkpt>
      <trkpt lat="39.0779690" lon="1.5145400">
        <ele>201.3</ele>
        <time>2020-02-22T17:09:33Z</time>
      </trkpt>
      <trkpt lat="39.0779670" lon="1.5145540">
        <ele>201.4</ele>
        <time>2020-02-22T17:09:34Z</time>
      </trkpt>
      <trkpt lat="39.0779680" lon="1.5146000">
        <ele>201.6</ele>
        <time>2020-02-22T17:09:35Z</time>
      </trkpt>
      <trkpt lat="39.0779700" lon="1.5146130">
        <ele>201.6</ele>
        <time>2020-02-22T17:09:36Z</time>
      </trkpt>
      <trkpt lat="39.0779680" lon="1.5146570">
        <ele>201.7</ele>
        <time>2020-02-22T17:09:37Z</time>
      </trkpt>
      <trkpt lat="39.0779680" lon="1.5146720">
        <ele>201.8</ele>
        <time>2020-02-22T17:09:38Z</time>
      </trkpt>
      <trkpt lat="39.0779720" lon="1.5147090">
        <ele>201.9</ele>
        <time>2020-02-22T17:09:39Z</time>
      </trkpt>
      <trkpt lat="39.0779740" lon="1.5147210">
        <ele>201.9</ele>
        <time>2020-02-22T17:09:40Z</time>
      </trkpt>
      <trkpt lat="39.0779770" lon="1.5147570">
        <ele>202.0</ele>
        <time>2020-02-22T17:09:41Z</time>
      </trkpt>
      <trkpt lat="39.0779770" lon="1.5147770">
        <ele>202.1</ele>
        <time>2020-02-22T17:09:42Z</time>
      </trkpt>
      <trkpt lat="39.0779760" lon="1.5148030">
        <ele>202.2</ele>
        <time>2020-02-22T17:09:43Z</time>
      </trkpt>
      <trkpt lat="39.0779800" lon="1.5148480">
        <ele>202.3</ele>
        <time>2020-02-22T17:09:44Z</time>
      </trkpt>
      <trkpt lat="39.0779820" lon="1.5148650">
        <ele>202.4</ele>
        <time>2020-02-22T17:09:45Z</time>
      </trkpt>
      <trkpt lat="39.0779840" lon="1.5149060">
        <ele>202.5</ele>
        <time>2020-02-22T17:09:46Z</time>
      </trkpt>
      <trkpt lat="39.0779840" lon="1.5149200">
        <ele>202.5</ele>
        <time>2020-02-22T17:09:47Z</time>
      </trkpt>
      <trkpt lat="39.0779930" lon="1.5149580">
        <ele>202.6</ele>
        <time>2020-02-22T17:09:48Z</time>
      </trkpt>
      <trkpt lat="39.0779950" lon="1.5149730">
        <ele>202.7</ele>
        <time>2020-02-22T17:09:49Z</time>
      </trkpt>
      <trkpt lat="39.0779980" lon="1.5150180">
        <ele>202.8</ele>
        <time>2020-02-22T17:09:50Z</time>
      </trkpt>
      <trkpt lat="39.0779970" lon="1.5150320">
        <ele>202.8</ele>
        <time>2020-02-22T17:09:51Z</time>
      </trkpt>
      <trkpt lat="39.0780080" lon="1.5150750">
        <ele>202.9</ele>
        <time>2020-02-22T17:09:52Z</time>
      </trkpt>
      <trkpt lat="39.0780130" lon="1.5150890">
        <ele>203.0</ele>
        <time>2020-02-22T17:09:53Z</time>
      </trkpt>
      <trkpt lat="39.0780300" lon="1.5151210">
        <ele>203.1</ele>
        <time>2020-02-22T17:09:54Z</time>
      </trkpt>
      <trkpt lat="39.0780360" lon="1.5151290">
        <ele>203.1</ele>
        <time>2020-02-22T17:09:55Z</time>
      </trkpt>
      <trkpt lat="39.0780440" lon="1.5151390">
        <ele>203.1</ele>
        <time>2020-02-22T17:09:56Z</time>
      </trkpt>
      <trkpt lat="39.0780550" lon="1.5151270">
        <ele>203.2</ele>
        <time>2020-02-22T17:09:57Z</time>
      </trkpt>
      <trkpt lat="39.0780680" lon="1.5151250">
        <ele>203.2</ele>
        <time>2020-02-22T17:09:58Z</time>
      </trkpt>
      <trkpt lat="39.0780870" lon="1.5151250">
        <ele>203.3</ele>
        <time>2020-02-22T17:09:59Z</time>
      </trkpt>
      <trkpt lat="39.0780970" lon="1.5151260">
        <ele>203.3</ele>
        <time>2020-02-22T17:10:00Z</time>
      </trkpt>
      <trkpt lat="39.0781060" lon="1.5151270">
        <ele>203.4</ele>
        <time>2020-02-22T17:10:01Z</time>
      </trkpt>
      <trkpt lat="39.0781070" lon="1.5151290">
        <ele>203.4</ele>
        <time>2020-02-22T17:10:02Z</time>
      </trkpt>
      <trkpt lat="39.0781100" lon="1.5151290">
        <ele>203.4</ele>
        <time>2020-02-22T17:10:03Z</time>
      </trkpt>
      <trkpt lat="39.0781110" lon="1.5151290">
        <ele>203.4</ele>
        <time>2020-02-22T17:10:04Z</time>
      </trkpt>
      <trkpt lat="39.0781120" lon="1.5151290">
        <ele>203.4</ele>
        <time>2020-02-22T17:10:05Z</time>
      </trkpt>
      <trkpt lat="39.0781130" lon="1.5151280">
        <ele>203.4</ele>
        <time>2020-02-22T17:10:06Z</time>
      </trkpt>
      <trkpt lat="39.0781110" lon="1.5151250">
        <ele>203.4</ele>
        <time>2020-02-22T17:10:07Z</time>
      </trkpt>
      <trkpt lat="39.0781160" lon="1.5151210">
        <ele>203.4</ele>
        <time>2020-02-22T17:10:08Z</time>
      </trkpt>
      <trkpt lat="39.0781170" lon="1.5151210">
        <ele>203.4</ele>
        <time>2020-02-22T17:10:09Z</time>
      </trkpt>
      <trkpt lat="39.0781170" lon="1.5151190">
        <ele>203.4</ele>
        <time>2020-02-22T17:10:10Z</time>
      </trkpt>
      <trkpt lat="39.0781180" lon="1.5151160">
        <ele>203.4</ele>
        <time>2020-02-22T17:10:11Z</time>
      </trkpt>
      <trkpt lat="39.0781190" lon="1.5151100">
        <ele>203.4</ele>
        <time>2020-02-22T17:10:12Z</time>
      </trkpt>
      <trkpt lat="39.0781210" lon="1.5151090">
        <ele>203.5</ele>
        <time>2020-02-22T17:10:13Z</time>
      </trkpt>
      <trkpt lat="39.0781240" lon="1.5151040">
        <ele>203.5</ele>
        <time>2020-02-22T17:10:14Z</time>
      </trkpt>
      <trkpt lat="39.0781230" lon="1.5151080">
        <ele>203.5</ele>
        <time>2020-02-22T17:10:15Z</time>
      </trkpt>
      <trkpt lat="39.0781230" lon="1.5151070">
        <ele>203.5</ele>
        <time>2020-02-22T17:10:16Z</time>
      </trkpt>
      <trkpt lat="39.0781180" lon="1.5151010">
        <ele>203.5</ele>
        <time>2020-02-22T17:10:17Z</time>
      </trkpt>
      <trkpt lat="39.0781180" lon="1.5150960">
        <ele>203.5</ele>
        <time>2020-02-22T17:10:18Z</time>
      </trkpt>
      <trkpt lat="39.0781180" lon="1.5150920">
        <ele>203.5</ele>
        <time>2020-02-22T17:10:19Z</time>
      </trkpt>
      <trkpt lat="39.0781190" lon="1.5150900">
        <ele>203.5</ele>
        <time>2020-02-22T17:10:20Z</time>
      </trkpt>
      <trkpt lat="39.0781200" lon="1.5150940">
        <ele>203.5</ele>
        <time>2020-02-22T17:10:21Z</time>
      </trkpt>
      <trkpt lat="39.0781200" lon="1.5150910">
        <ele>203.5</ele>
        <time>2020-02-22T17:10:22Z</time>
      </trkpt>
      <trkpt lat="39.0781210" lon="1.5150900">
        <ele>203.6</ele>
        <time>2020-02-22T17:10:23Z</time>
      </trkpt>
      <trkpt lat="39.0781180" lon="1.5150890">
        <ele>203.6</ele>
        <time>2020-02-22T17:10:24Z</time>
      </trkpt>
      <trkpt lat="39.0781140" lon="1.5150810">
        <ele>203.6</ele>
        <time>2020-02-22T17:10:25Z</time>
      </trkpt>
      <trkpt lat="39.0781170" lon="1.5150910">
        <ele>203.6</ele>
        <time>2020-02-22T17:10:26Z</time>
      </trkpt>
      <trkpt lat="39.0781190" lon="1.5150960">
        <ele>203.6</ele>
        <time>2020-02-22T17:10:27Z</time>
      </trkpt>
      <trkpt lat="39.0781210" lon="1.5151020">
        <ele>203.6</ele>
        <time>2020-02-22T17:10:28Z</time>
      </trkpt>
      <trkpt lat="39.0781220" lon="1.5151050">
        <ele>203.7</ele>
        <time>2020-02-22T17:10:29Z</time>
      </trkpt>
      <trkpt lat="39.0781230" lon="1.5151090">
        <ele>203.7</ele>
        <time>2020-02-22T17:10:30Z</time>
      </trkpt>
      <trkpt lat="39.0781230" lon="1.5151110">
        <ele>203.7</ele>
        <time>2020-02-22T17:10:31Z</time>
      </trkpt>
      <trkpt lat="39.0781240" lon="1.5151170">
        <ele>203.7</ele>
        <time>2020-02-22T17:10:32Z</time>
      </trkpt>
      <trkpt lat="39.0781230" lon="1.5151210">
        <ele>203.7</ele>
        <time>2020-02-22T17:10:33Z</time>
      </trkpt>
      <trkpt lat="39.0781040" lon="1.5151070">
        <ele>203.8</ele>
        <time>2020-02-22T17:12:13Z</time>
      </trkpt>
      <trkpt lat="39.0781080" lon="1.5151110">
        <ele>203.8</ele>
        <time>2020-02-22T17:12:14Z</time>
      </trkpt>
      <trkpt lat="39.0780980" lon="1.5151120">
        <ele>203.8</ele>
        <time>2020-02-22T17:12:15Z</time>
      </trkpt>
      <trkpt lat="39.0780940" lon="1.5151110">
        <ele>203.8</ele>
        <time>2020-02-22T17:12:16Z</time>
      </trkpt>
      <trkpt lat="39.0780880" lon="1.5151140">
        <ele>203.8</ele>
        <time>2020-02-22T17:12:17Z</time>
      </trkpt>
      <trkpt lat="39.0780800" lon="1.5151210">
        <ele>203.9</ele>
        <time>2020-02-22T17:12:18Z</time>
      </trkpt>
      <trkpt lat="39.0780780" lon="1.5151190">
        <ele>203.9</ele>
        <time>2020-02-22T17:12:19Z</time>
      </trkpt>
      <trkpt lat="39.0780790" lon="1.5151170">
        <ele>203.9</ele>
        <time>2020-02-22T17:12:20Z</time>
      </trkpt>
      <trkpt lat="39.0780790" lon="1.5151190">
        <ele>203.9</ele>
        <time>2020-02-22T17:12:21Z</time>
      </trkpt>
      <trkpt lat="39.0780780" lon="1.5151190">
        <ele>203.9</ele>
        <time>2020-02-22T17:12:22Z</time>
      </trkpt>
      <trkpt lat="39.0780770" lon="1.5151190">
        <ele>203.9</ele>
        <time>2020-02-22T17:12:23Z</time>
      </trkpt>
      <trkpt lat="39.0780770" lon="1.5151180">
        <ele>203.9</ele>
        <time>2020-02-22T17:12:24Z</time>
      </trkpt>
      <trkpt lat="39.0780760" lon="1.5151160">
        <ele>203.9</ele>
        <time>2020-02-22T17:12:25Z</time>
      </trkpt>
      <trkpt lat="39.0780860" lon="1.5151000">
        <ele>203.9</ele>
        <time>2020-02-22T17:12:26Z</time>
      </trkpt>
      <trkpt lat="39.0780930" lon="1.5150900">
        <ele>204.0</ele>
        <time>2020-02-22T17:12:27Z</time>
      </trkpt>
      <trkpt lat="39.0780970" lon="1.5150880">
        <ele>204.0</ele>
        <time>2020-02-22T17:12:28Z</time>
      </trkpt>
      <trkpt lat="39.0780930" lon="1.5150860">
        <ele>204.0</ele>
        <time>2020-02-22T17:12:29Z</time>
      </trkpt>
      <trkpt lat="39.0780980" lon="1.5150920">
        <ele>204.0</ele>
        <time>2020-02-22T17:12:30Z</time>
      </trkpt>
      <trkpt lat="39.0781070" lon="1.5150970">
        <ele>204.0</ele>
        <time>2020-02-22T17:12:31Z</time>
      </trkpt>
      <trkpt lat="39.0781110" lon="1.5151090">
        <ele>204.1</ele>
        <time>2020-02-22T17:12:32Z</time>
      </trkpt>
      <trkpt lat="39.0781150" lon="1.5151150">
        <ele>204.1</ele>
        <time>2020-02-22T17:12:33Z</time>
      </trkpt>
      <trkpt lat="39.0781160" lon="1.5151090">
        <ele>204.1</ele>
        <time>2020-02-22T17:12:34Z</time>
      </trkpt>
      <trkpt lat="39.0781150" lon="1.5151060">
        <ele>204.1</ele>
        <time>2020-02-22T17:12:35Z</time>
      </trkpt>
      <trkpt lat="39.0781140" lon="1.5151040">
        <ele>204.1</ele>
        <time>2020-02-22T17:12:36Z</time>
      </trkpt>
      <trkpt lat="39.0781130" lon="1.5151010">
        <ele>204.1</ele>
        <time>2020-02-22T17:12:37Z</time>
      </trkpt>
      <trkpt lat="39.0781120" lon="1.5150990">
        <ele>204.1</ele>
        <time>2020-02-22T17:12:38Z</time>
      </trkpt>
      <trkpt lat="39.0781110" lon="1.5150960">
        <ele>204.1</ele>
        <time>2020-02-22T17:12:39Z</time>
      </trkpt>
      <trkpt lat="39.0781100" lon="1.5150940">
        <ele>204.1</ele>
        <time>2020-02-22T17:12:40Z</time>
      </trkpt>
      <trkpt lat="39.0781090" lon="1.5150910">
        <ele>204.1</ele>
        <time>2020-02-22T17:12:41Z</time>
      </trkpt>
      <trkpt lat="39.0781080" lon="1.5150890">
        <ele>204.1</ele>
        <time>2020-02-22T17:12:42Z</time>
      </trkpt>
      <trkpt lat="39.0781070" lon="1.5150860">
        <ele>204.1</ele>
        <time>2020-02-22T17:12:43Z</time>
      </trkpt>
      <trkpt lat="39.0781060" lon="1.5150840">
        <ele>204.2</ele>
        <time>2020-02-22T17:12:44Z</time>
      </trkpt>
      <trkpt lat="39.0781050" lon="1.5150810">
        <ele>204.2</ele>
        <time>2020-02-22T17:14:13Z</time>
      </trkpt>
      <trkpt lat="39.0781040" lon="1.5150790">
        <ele>204.2</ele>
        <time>2020-02-22T17:14:14Z</time>
      </trkpt>
      <trkpt lat="39.0781030" lon="1.5150760">
        <ele>204.2</ele>
        <time>2020-02-22T17:14:15Z</time>
      </trkpt>
      <trkpt lat="39.0781020" lon="1.5150740">
        <ele>204.2</ele>
        <time>2020-02-22T17:14:16Z</time>
      </trkpt>
      <trkpt lat="39.0781010" lon="1.5150710">
        <ele>204.2</ele>
        <time>2020-02-22T17:14:17Z</time>
      </trkpt>
      <trkpt lat="39.0781000" lon="1.5150690">
        <ele>204.2</ele>
        <time>2020-02-22T17:14:18Z</time>
      </trkpt>
      <trkpt lat="39.0780990" lon="1.5150660">
        <ele>204.2</ele>
        <time>2020-02-22T17:14:19Z</time>
      </trkpt>
      <trkpt lat="39.0780980" lon="1.5150640">
        <ele>204.2</ele>
        <time>2020-02-22T17:14:20Z</time>
      </trkpt>
      <trkpt lat="39.0780960" lon="1.5150610">
        <ele>204.1</ele>
        <time>2020-02-22T17:14:21Z</time>
      </trkpt>
      <trkpt lat="39.0780950" lon="1.5150590">
        <ele>204.1</ele>
        <time>2020-02-22T17:14:22Z</time>
      </trkpt>
      <trkpt lat="39.0780940" lon="1.5150560">
        <ele>204.1</ele>
        <time>2020-02-22T17:14:23Z</time>
      </trkpt>
      <trkpt lat="39.0780930" lon="1.5150540">
        <ele>204.1</ele>
        <time>2020-02-22T17:14:24Z</time>
      </trkpt>
      <trkpt lat="39.0780920" lon="1.5150510">
        <ele>204.1</ele>
        <time>2020-02-22T17:14:25Z</time>
      </trkpt>
      <trkpt lat="39.0780910" lon="1.5150490">
        <ele>204.1</ele>
        <time>2020-02-22T17:21:32Z</time>
      </trkpt>
      <trkpt lat="39.0780900" lon="1.5150460">
        <ele>204.1</ele>
        <time>2020-02-22T17:21:33Z</time>
      </trkpt>
      <trkpt lat="39.0780890" lon="1.5150440">
        <ele>204.1</ele>
        <time>2020-02-22T17:21:34Z</time>
      </trkpt>
      <trkpt lat="39.0780880" lon="1.5150410">
        <ele>204.0</ele>
        <time>2020-02-22T17:21:35Z</time>
      </trkpt>
      <trkpt lat="39.0780870" lon="1.5150390">
        <ele>204.0</ele>
        <time>2020-02-22T17:21:36Z</time>
      </trkpt>
      <trkpt lat="39.0780860" lon="1.5150360">
        <ele>204.0</ele>
        <time>2020-02-22T17:21:37Z</time>
      </trkpt>
      <trkpt lat="39.0780850" lon="1.5150340">
        <ele>204.0</ele>
        <time>2020-02-22T17:21:38Z</time>
      </trkpt>
      <trkpt lat="39.0780840" lon="1.5150310">
        <ele>204.0</ele>
        <time>2020-02-22T17:21:39Z</time>
      </trkpt>
      <trkpt lat="39.0780830" lon="1.5150290">
        <ele>204.0</ele>
        <time>2020-02-22T17:21:40Z</time>
      </trkpt>
      <trkpt lat="39.0780820" lon="1.5150260">
        <ele>204.0</ele>
        <time>2020-02-22T17:21:41Z</time>
      </trkpt>
      <trkpt lat="39.0780810" lon="1.5150240">
        <ele>204.0</ele>
        <time>2020-02-22T17:21:42Z</time>
      </trkpt>
      <trkpt lat="39.0780800" lon="1.5150210">
        <ele>204.0</ele>
        <time>2020-02-22T17:21:43Z</time>
      </trkpt>
      <trkpt lat="39.0780790" lon="1.5150190">
        <ele>203.9</ele>
        <time>2020-02-22T17:21:44Z</time>
      </trkpt>
      <trkpt lat="39.0780780" lon="1.5150160">
        <ele>203.9</ele>
        <time>2020-02-22T17:23:12Z</time>
      </trkpt>
      <trkpt lat="39.0780770" lon="1.5150140">
        <ele>203.9</ele>
        <time>2020-02-22T17:23:13Z</time>
      </trkpt>
      <trkpt lat="39.0780690" lon="1.5149640">
        <ele>203.7</ele>
        <time>2020-02-22T17:23:14Z</time>
      </trkpt>
      <trkpt lat="39.0780670" lon="1.5149460">
        <ele>203.6</ele>
        <time>2020-02-22T17:23:15Z</time>
      </trkpt>
      <trkpt lat="39.0780600" lon="1.5149040">
        <ele>203.4</ele>
        <time>2020-02-22T17:23:16Z</time>
      </trkpt>
      <trkpt lat="39.0780510" lon="1.5148640">
        <ele>203.2</ele>
        <time>2020-02-22T17:23:17Z</time>
      </trkpt>
      <trkpt lat="39.0780400" lon="1.5147980">
        <ele>202.9</ele>
        <time>2020-02-22T17:23:18Z</time>
      </trkpt>
      <trkpt lat="39.0780290" lon="1.5147390">
        <ele>202.6</ele>
        <time>2020-02-22T17:23:19Z</time>
      </trkpt>
      <trkpt lat="39.0780230" lon="1.5146850">
        <ele>202.3</ele>
        <time>2020-02-22T17:23:20Z</time>
      </trkpt>
      <trkpt lat="39.0780110" lon="1.5146220">
        <ele>201.9</ele>
        <time>2020-02-22T17:23:21Z</time>
      </trkpt>
      <trkpt lat="39.0780010" lon="1.5145600">
        <ele>201.5</ele>
        <time>2020-02-22T17:23:22Z</time>
      </trkpt>
      <trkpt lat="39.0779950" lon="1.5144910">
        <ele>200.9</ele>
        <time>2020-02-22T17:23:23Z</time>
      </trkpt>
      <trkpt lat="39.0779860" lon="1.5144150">
        <ele>200.2</ele>
        <time>2020-02-22T17:23:24Z</time>
      </trkpt>
      <trkpt lat="39.0779790" lon="1.5143390">
        <ele>199.7</ele>
        <time>2020-02-22T17:23:25Z</time>
      </trkpt>
      <trkpt lat="39.0779710" lon="1.5142600">
        <ele>199.3</ele>
        <time>2020-02-22T17:23:26Z</time>
      </trkpt>
      <trkpt lat="39.0779660" lon="1.5141820">
        <ele>198.8</ele>
        <time>2020-02-22T17:23:27Z</time>
      </trkpt>
      <trkpt lat="39.0779610" lon="1.5141020">
        <ele>198.3</ele>
        <time>2020-02-22T17:23:28Z</time>
      </trkpt>
      <trkpt lat="39.0779530" lon="1.5140230">
        <ele>197.9</ele>
        <time>2020-02-22T17:23:29Z</time>
      </trkpt>
      <trkpt lat="39.0779470" lon="1.5139500">
        <ele>197.4</ele>
        <time>2020-02-22T17:23:30Z</time>
      </trkpt>
      <trkpt lat="39.0779370" lon="1.5138810">
        <ele>196.9</ele>
        <time>2020-02-22T17:23:31Z</time>
      </trkpt>
      <trkpt lat="39.0779260" lon="1.5138180">
        <ele>196.5</ele>
        <time>2020-02-22T17:23:32Z</time>
      </trkpt>
      <trkpt lat="39.0779070" lon="1.5137600">
        <ele>196.0</ele>
        <time>2020-02-22T17:23:33Z</time>
      </trkpt>
      <trkpt lat="39.0778910" lon="1.5137080">
        <ele>195.6</ele>
        <time>2020-02-22T17:23:34Z</time>
      </trkpt>
      <trkpt lat="39.0778810" lon="1.5136400">
        <ele>194.9</ele>
        <time>2020-02-22T17:23:35Z</time>
      </trkpt>
      <trkpt lat="39.0778630" lon="1.5135610">
        <ele>194.4</ele>
        <time>2020-02-22T17:23:36Z</time>
      </trkpt>
      <trkpt lat="39.0778340" lon="1.5134800">
        <ele>194.1</ele>
        <time>2020-02-22T17:23:37Z</time>
      </trkpt>
      <trkpt lat="39.0778040" lon="1.5133960">
        <ele>193.7</ele>
        <time>2020-02-22T17:23:38Z</time>
      </trkpt>
      <trkpt lat="39.0777680" lon="1.5133100">
        <ele>193.4</ele>
        <time>2020-02-22T17:23:39Z</time>
      </trkpt>
      <trkpt lat="39.0777340" lon="1.5132200">
        <ele>193.0</ele>
        <time>2020-02-22T17:23:40Z</time>
      </trkpt>
      <trkpt lat="39.0777060" lon="1.5131300">
        <ele>192.7</ele>
        <time>2020-02-22T17:23:41Z</time>
      </trkpt>
      <trkpt lat="39.0776800" lon="1.5130400">
        <ele>192.3</ele>
        <time>2020-02-22T17:23:42Z</time>
      </trkpt>
      <trkpt lat="39.0776400" lon="1.5129450">
        <ele>192.0</ele>
        <time>2020-02-22T17:23:43Z</time>
      </trkpt>
      <trkpt lat="39.0776030" lon="1.5128520">
        <ele>191.6</ele>
        <time>2020-02-22T17:23:44Z</time>
      </trkpt>
      <trkpt lat="39.0775720" lon="1.5127590">
        <ele>191.4</ele>
        <time>2020-02-22T17:23:45Z</time>
      </trkpt>
      <trkpt lat="39.0775410" lon="1.5126640">
        <ele>190.8</ele>
        <time>2020-02-22T17:23:46Z</time>
      </trkpt>
      <trkpt lat="39.0775150" lon="1.5125800">
        <ele>190.6</ele>
        <time>2020-02-22T17:23:47Z</time>
      </trkpt>
      <trkpt lat="39.0774990" lon="1.5124740">
        <ele>190.1</ele>
        <time>2020-02-22T17:23:48Z</time>
      </trkpt>
      <trkpt lat="39.0774810" lon="1.5123750">
        <ele>190.0</ele>
        <time>2020-02-22T17:23:49Z</time>
      </trkpt>
      <trkpt lat="39.0774740" lon="1.5122800">
        <ele>189.8</ele>
        <time>2020-02-22T17:23:50Z</time>
      </trkpt>
      <trkpt lat="39.0774710" lon="1.5121780">
        <ele>189.6</ele>
        <time>2020-02-22T17:23:51Z</time>
      </trkpt>
      <trkpt lat="39.0774710" lon="1.5120680">
        <ele>189.3</ele>
        <time>2020-02-22T17:23:52Z</time>
      </trkpt>
      <trkpt lat="39.0774760" lon="1.5119610">
        <ele>189.0</ele>
        <time>2020-02-22T17:23:53Z</time>
      </trkpt>
      <trkpt lat="39.0774850" lon="1.5118550">
        <ele>188.7</ele>
        <time>2020-02-22T17:23:54Z</time>
      </trkpt>
      <trkpt lat="39.0774980" lon="1.5117500">
        <ele>188.3</ele>
        <time>2020-02-22T17:23:55Z</time>
      </trkpt>
      <trkpt lat="39.0775100" lon="1.5116500">
        <ele>188.0</ele>
        <time>2020-02-22T17:23:56Z</time>
      </trkpt>
      <trkpt lat="39.0775180" lon="1.5115410">
        <ele>187.6</ele>
        <time>2020-02-22T17:23:57Z</time>
      </trkpt>
      <trkpt lat="39.0775260" lon="1.5114430">
        <ele>187.4</ele>
        <time>2020-02-22T17:23:58Z</time>
      </trkpt>
      <trkpt lat="39.0775380" lon="1.5113480">
        <ele>187.2</ele>
        <time>2020-02-22T17:23:59Z</time>
      </trkpt>
      <trkpt lat="39.0775480" lon="1.5112420">
        <ele>187.1</ele>
        <time>2020-02-22T17:24:00Z</time>
      </trkpt>
      <trkpt lat="39.0775500" lon="1.5111480">
        <ele>186.9</ele>
        <time>2020-02-22T17:24:01Z</time>
      </trkpt>
      <trkpt lat="39.0775540" lon="1.5110570">
        <ele>186.7</ele>
        <time>2020-02-22T17:24:02Z</time>
      </trkpt>
      <trkpt lat="39.0775540" lon="1.5109590">
        <ele>186.5</ele>
        <time>2020-02-22T17:24:03Z</time>
      </trkpt>
      <trkpt lat="39.0775580" lon="1.5108920">
        <ele>186.4</ele>
        <time>2020-02-22T17:24:04Z</time>
      </trkpt>
      <trkpt lat="39.0775650" lon="1.5108340">
        <ele>186.3</ele>
        <time>2020-02-22T17:24:05Z</time>
      </trkpt>
      <trkpt lat="39.0775740" lon="1.5107780">
        <ele>186.2</ele>
        <time>2020-02-22T17:24:06Z</time>
      </trkpt>
      <trkpt lat="39.0775800" lon="1.5107330">
        <ele>186.1</ele>
        <time>2020-02-22T17:24:07Z</time>
      </trkpt>
      <trkpt lat="39.0775900" lon="1.5107080">
        <ele>186.0</ele>
        <time>2020-02-22T17:24:08Z</time>
      </trkpt>
      <trkpt lat="39.0775910" lon="1.5107020">
        <ele>186.0</ele>
        <time>2020-02-22T17:24:09Z</time>
      </trkpt>
      <trkpt lat="39.0775920" lon="1.5107050">
        <ele>186.0</ele>
        <time>2020-02-22T17:24:10Z</time>
      </trkpt>
      <trkpt lat="39.0775930" lon="1.5107070">
        <ele>186.0</ele>
        <time>2020-02-22T17:24:11Z</time>
      </trkpt>
      <trkpt lat="39.0775940" lon="1.5107050">
        <ele>186.0</ele>
        <time>2020-02-22T17:24:12Z</time>
      </trkpt>
      <trkpt lat="39.0775960" lon="1.5107040">
        <ele>186.0</ele>
        <time>2020-02-22T17:24:13Z</time>
      </trkpt>
      <trkpt lat="39.0775970" lon="1.5107010">
        <ele>186.0</ele>
        <time>2020-02-22T17:24:14Z</time>
      </trkpt>
      <trkpt lat="39.0775980" lon="1.5106960">
        <ele>186.0</ele>
        <time>2020-02-22T17:24:15Z</time>
      </trkpt>
      <trkpt lat="39.0775990" lon="1.5106920">
        <ele>186.0</ele>
        <time>2020-02-22T17:24:16Z</time>
      </trkpt>
      <trkpt lat="39.0776010" lon="1.5106890">
        <ele>186.0</ele>
        <time>2020-02-22T17:24:17Z</time>
      </trkpt>
      <trkpt lat="39.0776020" lon="1.5106860">
        <ele>186.0</ele>
        <time>2020-02-22T17:24:18Z</time>
      </trkpt>
      <trkpt lat="39.0776040" lon="1.5106820">
        <ele>186.0</ele>
        <time>2020-02-22T17:24:19Z</time>
      </trkpt>
      <trkpt lat="39.0775960" lon="1.5105990">
        <ele>185.8</ele>
        <time>2020-02-22T17:24:28Z</time>
      </trkpt>
      <trkpt lat="39.0775880" lon="1.5105580">
        <ele>185.7</ele>
        <time>2020-02-22T17:24:29Z</time>
      </trkpt>
      <trkpt lat="39.0775750" lon="1.5105160">
        <ele>185.6</ele>
        <time>2020-02-22T17:24:30Z</time>
      </trkpt>
      <trkpt lat="39.0775570" lon="1.5104740">
        <ele>185.4</ele>
        <time>2020-02-22T17:24:31Z</time>
      </trkpt>
      <trkpt lat="39.0775410" lon="1.5104270">
        <ele>185.3</ele>
        <time>2020-02-22T17:24:32Z</time>
      </trkpt>
      <trkpt lat="39.0775300" lon="1.5103750">
        <ele>185.1</ele>
        <time>2020-02-22T17:24:33Z</time>
      </trkpt>
      <trkpt lat="39.0775140" lon="1.5103230">
        <ele>185.0</ele>
        <time>2020-02-22T17:24:34Z</time>
      </trkpt>
      <trkpt lat="39.0775030" lon="1.5102680">
        <ele>184.8</ele>
        <time>2020-02-22T17:24:35Z</time>
      </trkpt>
      <trkpt lat="39.0774920" lon="1.5102130">
        <ele>184.7</ele>
        <time>2020-02-22T17:24:36Z</time>
      </trkpt>
      <trkpt lat="39.0774730" lon="1.5101610">
        <ele>184.5</ele>
        <time>2020-02-22T17:24:37Z</time>
      </trkpt>
      <trkpt lat="39.0774570" lon="1.5101120">
        <ele>184.4</ele>
        <time>2020-02-22T17:24:38Z</time>
      </trkpt>
      <trkpt lat="39.0774460" lon="1.5100720">
        <ele>184.3</ele>
        <time>2020-02-22T17:24:39Z</time>
      </trkpt>
      <trkpt lat="39.0774410" lon="1.5100320">
        <ele>184.2</ele>
        <time>2020-02-22T17:24:40Z</time>
      </trkpt>
      <trkpt lat="39.0774390" lon="1.5100230">
        <ele>184.2</ele>
        <time>2020-02-22T17:24:41Z</time>
      </trkpt>
      <trkpt lat="39.0774310" lon="1.5100060">
        <ele>184.2</ele>
        <time>2020-02-22T17:24:42Z</time>
      </trkpt>
      <trkpt lat="39.0774190" lon="1.5099870">
        <ele>184.1</ele>
        <time>2020-02-22T17:24:43Z</time>
      </trkpt>
      <trkpt lat="39.0774020" lon="1.5099390">
        <ele>184.0</ele>
        <time>2020-02-22T17:24:44Z</time>
      </trkpt>
      <trkpt lat="39.0773940" lon="1.5099240">
        <ele>183.9</ele>
        <time>2020-02-22T17:24:45Z</time>
      </trkpt>
      <trkpt lat="39.0773830" lon="1.5098920">
        <ele>183.8</ele>
        <time>2020-02-22T17:24:46Z</time>
      </trkpt>
      <trkpt lat="39.0773720" lon="1.5098600">
        <ele>183.8</ele>
        <time>2020-02-22T17:24:47Z</time>
      </trkpt>
      <trkpt lat="39.0773700" lon="1.5098300">
        <ele>183.7</ele>
        <time>2020-02-22T17:24:48Z</time>
      </trkpt>
      <trkpt lat="39.0773760" lon="1.5098150">
        <ele>183.6</ele>
        <time>2020-02-22T17:24:49Z</time>
      </trkpt>
      <trkpt lat="39.0773880" lon="1.5098130">
        <ele>183.6</ele>
        <time>2020-02-22T17:24:50Z</time>
      </trkpt>
      <trkpt lat="39.0773980" lon="1.5098150">
        <ele>183.6</ele>
        <time>2020-02-22T17:24:51Z</time>
      </trkpt>
      <trkpt lat="39.0774050" lon="1.5098070">
        <ele>183.5</ele>
        <time>2020-02-22T17:24:52Z</time>
      </trkpt>
      <trkpt lat="39.0774130" lon="1.5097960">
        <ele>183.5</ele>
        <time>2020-02-22T17:24:53Z</time>
      </trkpt>
      <trkpt lat="39.0773960" lon="1.5097890">
        <ele>183.4</ele>
        <time>2020-02-22T17:24:54Z</time>
      </trkpt>
      <trkpt lat="39.0773970" lon="1.5097830">
        <ele>183.4</ele>
        <time>2020-02-22T17:24:55Z</time>
      </trkpt>
      <trkpt lat="39.0773980" lon="1.5097790">
        <ele>183.4</ele>
        <time>2020-02-22T17:24:56Z</time>
      </trkpt>
      <trkpt lat="39.0774010" lon="1.5097720">
        <ele>183.4</ele>
        <time>2020-02-22T17:24:57Z</time>
      </trkpt>
      <trkpt lat="39.0773900" lon="1.5097610">
        <ele>183.3</ele>
        <time>2020-02-22T17:24:58Z</time>
      </trkpt>
      <trkpt lat="39.0773830" lon="1.5097570">
        <ele>183.3</ele>
        <time>2020-02-22T17:24:59Z</time>
      </trkpt>
      <trkpt lat="39.0773750" lon="1.5097540">
        <ele>183.3</ele>
        <time>2020-02-22T17:25:00Z</time>
      </trkpt>
      <trkpt lat="39.0773680" lon="1.5097510">
        <ele>183.3</ele>
        <time>2020-02-22T17:25:01Z</time>
      </trkpt>
      <trkpt lat="39.0773790" lon="1.5097490">
        <ele>183.2</ele>
        <time>2020-02-22T17:25:02Z</time>
      </trkpt>
      <trkpt lat="39.0773780" lon="1.5097520">
        <ele>183.2</ele>
        <time>2020-02-22T17:25:03Z</time>
      </trkpt>
      <trkpt lat="39.0773790" lon="1.5097640">
        <ele>183.2</ele>
        <time>2020-02-22T17:25:04Z</time>
      </trkpt>
      <trkpt lat="39.0773810" lon="1.5097750">
        <ele>183.2</ele>
        <time>2020-02-22T17:25:05Z</time>
      </trkpt>
      <trkpt lat="39.0773840" lon="1.5097790">
        <ele>183.1</ele>
        <time>2020-02-22T17:25:06Z</time>
      </trkpt>
      <trkpt lat="39.0773850" lon="1.5097820">
        <ele>183.1</ele>
        <time>2020-02-22T17:25:07Z</time>
      </trkpt>
      <trkpt lat="39.0773800" lon="1.5097840">
        <ele>183.1</ele>
        <time>2020-02-22T17:25:08Z</time>
      </trkpt>
      <trkpt lat="39.0773780" lon="1.5097870">
        <ele>183.1</ele>
        <time>2020-02-22T17:25:09Z</time>
      </trkpt>
      <trkpt lat="39.0773760" lon="1.5097910">
        <ele>183.1</ele>
        <time>2020-02-22T17:25:10Z</time>
      </trkpt>
      <trkpt lat="39.0773730" lon="1.5098060">
        <ele>183.0</ele>
        <time>2020-02-22T17:25:11Z</time>
      </trkpt>
      <trkpt lat="39.0772640" lon="1.5097140">
        <ele>182.6</ele>
        <time>2020-02-22T17:25:33Z</time>
      </trkpt>
      <trkpt lat="39.0772410" lon="1.5096760">
        <ele>182.5</ele>
        <time>2020-02-22T17:25:34Z</time>
      </trkpt>
      <trkpt lat="39.0772150" lon="1.5096290">
        <ele>182.3</ele>
        <time>2020-02-22T17:25:35Z</time>
      </trkpt>
      <trkpt lat="39.0771880" lon="1.5095700">
        <ele>182.1</ele>
        <time>2020-02-22T17:25:36Z</time>
      </trkpt>
      <trkpt lat="39.0771680" lon="1.5095180">
        <ele>182.0</ele>
        <time>2020-02-22T17:25:37Z</time>
      </trkpt>
      <trkpt lat="39.0771310" lon="1.5094650">
        <ele>181.8</ele>
        <time>2020-02-22T17:25:38Z</time>
      </trkpt>
      <trkpt lat="39.0770990" lon="1.5094160">
        <ele>181.6</ele>
        <time>2020-02-22T17:25:39Z</time>
      </trkpt>
      <trkpt lat="39.0770630" lon="1.5093600">
        <ele>181.3</ele>
        <time>2020-02-22T17:25:40Z</time>
      </trkpt>
      <trkpt lat="39.0770250" lon="1.5093000">
        <ele>180.9</ele>
        <time>2020-02-22T17:25:41Z</time>
      </trkpt>
      <trkpt lat="39.0769900" lon="1.5092460">
        <ele>180.6</ele>
        <time>2020-02-22T17:25:42Z</time>
      </trkpt>
      <trkpt lat="39.0769580" lon="1.5091950">
        <ele>180.0</ele>
        <time>2020-02-22T17:25:43Z</time>
      </trkpt>
      <trkpt lat="39.0769310" lon="1.5091500">
        <ele>180.0</ele>
        <time>2020-02-22T17:25:44Z</time>
      </trkpt>
      <trkpt lat="39.0769070" lon="1.5091110">
        <ele>180.0</ele>
        <time>2020-02-22T17:25:45Z</time>
      </trkpt>
      <trkpt lat="39.0768850" lon="1.5090780">
        <ele>180.0</ele>
        <time>2020-02-22T17:25:46Z</time>
      </trkpt>
      <trkpt lat="39.0768640" lon="1.5090510">
        <ele>179.9</ele>
        <time>2020-02-22T17:25:47Z</time>
      </trkpt>
      <trkpt lat="39.0768450" lon="1.5090200">
        <ele>179.9</ele>
        <time>2020-02-22T17:25:48Z</time>
      </trkpt>
      <trkpt lat="39.0768390" lon="1.5090130">
        <ele>179.9</ele>
        <time>2020-02-22T17:25:49Z</time>
      </trkpt>
      <trkpt lat="39.0768340" lon="1.5090010">
        <ele>179.9</ele>
        <time>2020-02-22T17:25:50Z</time>
      </trkpt>
      <trkpt lat="39.0768320" lon="1.5089950">
        <ele>179.9</ele>
        <time>2020-02-22T17:25:51Z</time>
      </trkpt>
      <trkpt lat="39.0768330" lon="1.5089890">
        <ele>179.9</ele>
        <time>2020-02-22T17:25:52Z</time>
      </trkpt>
      <trkpt lat="39.0768340" lon="1.5089880">
        <ele>179.8</ele>
        <time>2020-02-22T17:25:53Z</time>
      </trkpt>
      <trkpt lat="39.0768370" lon="1.5089850">
        <ele>179.8</ele>
        <time>2020-02-22T17:25:54Z</time>
      </trkpt>
      <trkpt lat="39.0768390" lon="1.5089830">
        <ele>179.8</ele>
        <time>2020-02-22T17:25:55Z</time>
      </trkpt>
      <trkpt lat="39.0768410" lon="1.5089810">
        <ele>179.8</ele>
        <time>2020-02-22T17:25:56Z</time>
      </trkpt>
      <trkpt lat="39.0768430" lon="1.5089790">
        <ele>179.8</ele>
        <time>2020-02-22T17:25:57Z</time>
      </trkpt>
      <trkpt lat="39.0768440" lon="1.5089780">
        <ele>179.8</ele>
        <time>2020-02-22T17:25:58Z</time>
      </trkpt>
      <trkpt lat="39.0768300" lon="1.5089550">
        <ele>179.8</ele>
        <time>2020-02-22T17:25:59Z</time>
      </trkpt>
      <trkpt lat="39.0768140" lon="1.5089340">
        <ele>179.7</ele>
        <time>2020-02-22T17:26:00Z</time>
      </trkpt>
      <trkpt lat="39.0767990" lon="1.5089120">
        <ele>179.6</ele>
        <time>2020-02-22T17:26:01Z</time>
      </trkpt>
      <trkpt lat="39.0767830" lon="1.5088910">
        <ele>179.6</ele>
        <time>2020-02-22T17:26:06Z</time>
      </trkpt>
      <trkpt lat="39.0767670" lon="1.5088700">
        <ele>179.5</ele>
        <time>2020-02-22T17:26:07Z</time>
      </trkpt>
      <trkpt lat="39.0767400" lon="1.5088280">
        <ele>179.4</ele>
        <time>2020-02-22T17:26:08Z</time>
      </trkpt>
      <trkpt lat="39.0767090" lon="1.5087810">
        <ele>179.3</ele>
        <time>2020-02-22T17:26:09Z</time>
      </trkpt>
      <trkpt lat="39.0766770" lon="1.5087300">
        <ele>179.2</ele>
        <time>2020-02-22T17:26:10Z</time>
      </trkpt>
      <trkpt lat="39.0766430" lon="1.5086770">
        <ele>179.1</ele>
        <time>2020-02-22T17:26:11Z</time>
      </trkpt>
      <trkpt lat="39.0765930" lon="1.5086300">
        <ele>178.9</ele>
        <time>2020-02-22T17:26:12Z</time>
      </trkpt>
      <trkpt lat="39.0765530" lon="1.5085750">
        <ele>178.8</ele>
        <time>2020-02-22T17:26:13Z</time>
      </trkpt>
      <trkpt lat="39.0765100" lon="1.5085250">
        <ele>178.7</ele>
        <time>2020-02-22T17:26:14Z</time>
      </trkpt>
      <trkpt lat="39.0764650" lon="1.5084700">
        <ele>178.5</ele>
        <time>2020-02-22T17:26:15Z</time>
      </trkpt>
      <trkpt lat="39.0764200" lon="1.5084080">
        <ele>178.4</ele>
        <time>2020-02-22T17:26:16Z</time>
      </trkpt>
      <trkpt lat="39.0763750" lon="1.5083420">
        <ele>178.3</ele>
        <time>2020-02-22T17:26:17Z</time>
      </trkpt>
      <trkpt lat="39.0763290" lon="1.5082770">
        <ele>178.1</ele>
        <time>2020-02-22T17:26:18Z</time>
      </trkpt>
      <trkpt lat="39.0762840" lon="1.5082130">
        <ele>178.0</ele>
        <time>2020-02-22T17:26:19Z</time>
      </trkpt>
      <trkpt lat="39.0762400" lon="1.5081470">
        <ele>177.9</ele>
        <time>2020-02-22T17:26:20Z</time>
      </trkpt>
      <trkpt lat="39.0761910" lon="1.5080710">
        <ele>177.8</ele>
        <time>2020-02-22T17:26:21Z</time>
      </trkpt>
      <trkpt lat="39.0761490" lon="1.5080050">
        <ele>177.7</ele>
        <time>2020-02-22T17:26:22Z</time>
      </trkpt>
      <trkpt lat="39.0761110" lon="1.5079380">
        <ele>177.5</ele>
        <time>2020-02-22T17:26:23Z</time>
      </trkpt>
      <trkpt lat="39.0760690" lon="1.5078690">
        <ele>177.4</ele>
        <time>2020-02-22T17:26:24Z</time>
      </trkpt>
      <trkpt lat="39.0760250" lon="1.5077940">
        <ele>177.2</ele>
        <time>2020-02-22T17:26:25Z</time>
      </trkpt>
      <trkpt lat="39.0759830" lon="1.5077280">
        <ele>177.0</ele>
        <time>2020-02-22T17:26:26Z</time>
      </trkpt>
      <trkpt lat="39.0759460" lon="1.5076530">
        <ele>176.8</ele>
        <time>2020-02-22T17:26:27Z</time>
      </trkpt>
      <trkpt lat="39.0759140" lon="1.5075700">
        <ele>176.6</ele>
        <time>2020-02-22T17:26:28Z</time>
      </trkpt>
      <trkpt lat="39.0758850" lon="1.5074910">
        <ele>176.4</ele>
        <time>2020-02-22T17:26:29Z</time>
      </trkpt>
      <trkpt lat="39.0758570" lon="1.5074090">
        <ele>176.3</ele>
        <time>2020-02-22T17:26:30Z</time>
      </trkpt>
      <trkpt lat="39.0758310" lon="1.5073230">
        <ele>176.2</ele>
        <time>2020-02-22T17:26:31Z</time>
      </trkpt>
      <trkpt lat="39.0758080" lon="1.5072380">
        <ele>176.1</ele>
        <time>2020-02-22T17:26:32Z</time>
      </trkpt>
      <trkpt lat="39.0757870" lon="1.5071460">
        <ele>176.2</ele>
        <time>2020-02-22T17:26:33Z</time>
      </trkpt>
      <trkpt lat="39.0757720" lon="1.5070520">
        <ele>176.3</ele>
        <time>2020-02-22T17:26:34Z</time>
      </trkpt>
      <trkpt lat="39.0757600" lon="1.5069580">
        <ele>176.3</ele>
        <time>2020-02-22T17:26:35Z</time>
      </trkpt>
      <trkpt lat="39.0757480" lon="1.5068640">
        <ele>176.4</ele>
        <time>2020-02-22T17:26:36Z</time>
      </trkpt>
      <trkpt lat="39.0757380" lon="1.5067740">
        <ele>176.5</ele>
        <time>2020-02-22T17:26:37Z</time>
      </trkpt>
      <trkpt lat="39.0757210" lon="1.5066820">
        <ele>176.6</ele>
        <time>2020-02-22T17:26:38Z</time>
      </trkpt>
      <trkpt lat="39.0757120" lon="1.5065880">
        <ele>176.6</ele>
        <time>2020-02-22T17:26:39Z</time>
      </trkpt>
      <trkpt lat="39.0757040" lon="1.5064940">
        <ele>176.7</ele>
        <time>2020-02-22T17:26:40Z</time>
      </trkpt>
      <trkpt lat="39.0756950" lon="1.5064020">
        <ele>176.8</ele>
        <time>2020-02-22T17:26:41Z</time>
      </trkpt>
      <trkpt lat="39.0756870" lon="1.5063130">
        <ele>176.9</ele>
        <time>2020-02-22T17:26:42Z</time>
      </trkpt>
      <trkpt lat="39.0756850" lon="1.5062140">
        <ele>177.1</ele>
        <time>2020-02-22T17:26:43Z</time>
      </trkpt>
      <trkpt lat="39.0756920" lon="1.5061200">
        <ele>178.8</ele>
        <time>2020-02-22T17:26:44Z</time>
      </trkpt>
      <trkpt lat="39.0756960" lon="1.5060100">
        <ele>174.9</ele>
        <time>2020-02-22T17:26:45Z</time>
      </trkpt>
      <trkpt lat="39.0756890" lon="1.5059090">
        <ele>174.4</ele>
        <time>2020-02-22T17:26:46Z</time>
      </trkpt>
      <trkpt lat="39.0756760" lon="1.5058200">
        <ele>174.1</ele>
        <time>2020-02-22T17:26:47Z</time>
      </trkpt>
      <trkpt lat="39.0756610" lon="1.5057350">
        <ele>173.8</ele>
        <time>2020-02-22T17:26:48Z</time>
      </trkpt>
      <trkpt lat="39.0756440" lon="1.5056370">
        <ele>173.5</ele>
        <time>2020-02-22T17:26:49Z</time>
      </trkpt>
      <trkpt lat="39.0756440" lon="1.5055370">
        <ele>173.2</ele>
        <time>2020-02-22T17:26:50Z</time>
      </trkpt>
      <trkpt lat="39.0756500" lon="1.5054480">
        <ele>172.9</ele>
        <time>2020-02-22T17:26:51Z</time>
      </trkpt>
      <trkpt lat="39.0756560" lon="1.5053490">
        <ele>172.6</ele>
        <time>2020-02-22T17:26:52Z</time>
      </trkpt>
      <trkpt lat="39.0756610" lon="1.5052560">
        <ele>172.5</ele>
        <time>2020-02-22T17:26:53Z</time>
      </trkpt>
      <trkpt lat="39.0756760" lon="1.5051590">
        <ele>172.4</ele>
        <time>2020-02-22T17:26:54Z</time>
      </trkpt>
      <trkpt lat="39.0756830" lon="1.5050520">
        <ele>172.2</ele>
        <time>2020-02-22T17:26:55Z</time>
      </trkpt>
      <trkpt lat="39.0756960" lon="1.5049390">
        <ele>172.0</ele>
        <time>2020-02-22T17:26:56Z</time>
      </trkpt>
      <trkpt lat="39.0757100" lon="1.5048280">
        <ele>171.7</ele>
        <time>2020-02-22T17:26:57Z</time>
      </trkpt>
      <trkpt lat="39.0757230" lon="1.5047280">
        <ele>171.4</ele>
        <time>2020-02-22T17:26:58Z</time>
      </trkpt>
      <trkpt lat="39.0757380" lon="1.5046270">
        <ele>171.1</ele>
        <time>2020-02-22T17:26:59Z</time>
      </trkpt>
      <trkpt lat="39.0757540" lon="1.5045130">
        <ele>170.8</ele>
        <time>2020-02-22T17:27:00Z</time>
      </trkpt>
      <trkpt lat="39.0757710" lon="1.5044040">
        <ele>170.1</ele>
        <time>2020-02-22T17:27:01Z</time>
      </trkpt>
      <trkpt lat="39.0757850" lon="1.5042980">
        <ele>169.5</ele>
        <time>2020-02-22T17:27:02Z</time>
      </trkpt>
      <trkpt lat="39.0758020" lon="1.5041890">
        <ele>168.8</ele>
        <time>2020-02-22T17:27:03Z</time>
      </trkpt>
      <trkpt lat="39.0758120" lon="1.5040830">
        <ele>168.2</ele>
        <time>2020-02-22T17:27:04Z</time>
      </trkpt>
      <trkpt lat="39.0758230" lon="1.5039710">
        <ele>167.6</ele>
        <time>2020-02-22T17:27:05Z</time>
      </trkpt>
      <trkpt lat="39.0758310" lon="1.5038590">
        <ele>167.0</ele>
        <time>2020-02-22T17:27:06Z</time>
      </trkpt>
      <trkpt lat="39.0758420" lon="1.5037430">
        <ele>166.2</ele>
        <time>2020-02-22T17:27:07Z</time>
      </trkpt>
      <trkpt lat="39.0758550" lon="1.5036280">
        <ele>165.2</ele>
        <time>2020-02-22T17:27:08Z</time>
      </trkpt>
      <trkpt lat="39.0758670" lon="1.5035150">
        <ele>164.5</ele>
        <time>2020-02-22T17:27:09Z</time>
      </trkpt>
      <trkpt lat="39.0758740" lon="1.5034080">
        <ele>163.8</ele>
        <time>2020-02-22T17:27:10Z</time>
      </trkpt>
      <trkpt lat="39.0758790" lon="1.5033020">
        <ele>163.3</ele>
        <time>2020-02-22T17:27:11Z</time>
      </trkpt>
      <trkpt lat="39.0758830" lon="1.5031960">
        <ele>162.9</ele>
        <time>2020-02-22T17:27:12Z</time>
      </trkpt>
      <trkpt lat="39.0758800" lon="1.5030840">
        <ele>162.3</ele>
        <time>2020-02-22T17:27:13Z</time>
      </trkpt>
      <trkpt lat="39.0758760" lon="1.5029710">
        <ele>161.6</ele>
        <time>2020-02-22T17:27:14Z</time>
      </trkpt>
      <trkpt lat="39.0758680" lon="1.5028620">
        <ele>161.1</ele>
        <time>2020-02-22T17:27:15Z</time>
      </trkpt>
      <trkpt lat="39.0758590" lon="1.5027460">
        <ele>160.8</ele>
        <time>2020-02-22T17:27:16Z</time>
      </trkpt>
      <trkpt lat="39.0758520" lon="1.5026370">
        <ele>160.5</ele>
        <time>2020-02-22T17:27:17Z</time>
      </trkpt>
      <trkpt lat="39.0758430" lon="1.5025370">
        <ele>160.2</ele>
        <time>2020-02-22T17:27:18Z</time>
      </trkpt>
      <trkpt lat="39.0758330" lon="1.5024320">
        <ele>159.9</ele>
        <time>2020-02-22T17:27:19Z</time>
      </trkpt>
      <trkpt lat="39.0758190" lon="1.5023240">
        <ele>159.6</ele>
        <time>2020-02-22T17:27:20Z</time>
      </trkpt>
      <trkpt lat="39.0757740" lon="1.5022260">
        <ele>159.3</ele>
        <time>2020-02-22T17:27:21Z</time>
      </trkpt>
      <trkpt lat="39.0757580" lon="1.5021290">
        <ele>159.1</ele>
        <time>2020-02-22T17:27:22Z</time>
      </trkpt>
      <trkpt lat="39.0757360" lon="1.5020330">
        <ele>158.8</ele>
        <time>2020-02-22T17:27:23Z</time>
      </trkpt>
      <trkpt lat="39.0757150" lon="1.5019340">
        <ele>158.6</ele>
        <time>2020-02-22T17:27:24Z</time>
      </trkpt>
      <trkpt lat="39.0756920" lon="1.5018310">
        <ele>158.3</ele>
        <time>2020-02-22T17:27:25Z</time>
      </trkpt>
      <trkpt lat="39.0756680" lon="1.5017270">
        <ele>158.0</ele>
        <time>2020-02-22T17:27:26Z</time>
      </trkpt>
      <trkpt lat="39.0756430" lon="1.5016310">
        <ele>157.8</ele>
        <time>2020-02-22T17:27:27Z</time>
      </trkpt>
      <trkpt lat="39.0756180" lon="1.5015360">
        <ele>157.5</ele>
        <time>2020-02-22T17:27:28Z</time>
      </trkpt>
      <trkpt lat="39.0755920" lon="1.5014430">
        <ele>157.3</ele>
        <time>2020-02-22T17:27:29Z</time>
      </trkpt>
      <trkpt lat="39.0755660" lon="1.5013520">
        <ele>157.2</ele>
        <time>2020-02-22T17:27:30Z</time>
      </trkpt>
      <trkpt lat="39.0755380" lon="1.5012600">
        <ele>157.0</ele>
        <time>2020-02-22T17:27:31Z</time>
      </trkpt>
      <trkpt lat="39.0755080" lon="1.5011660">
        <ele>157.5</ele>
        <time>2020-02-22T17:27:32Z</time>
      </trkpt>
      <trkpt lat="39.0754780" lon="1.5010750">
        <ele>157.8</ele>
        <time>2020-02-22T17:27:33Z</time>
      </trkpt>
      <trkpt lat="39.0754480" lon="1.5009900">
        <ele>158.2</ele>
        <time>2020-02-22T17:27:34Z</time>
      </trkpt>
      <trkpt lat="39.0754120" lon="1.5008900">
        <ele>158.5</ele>
        <time>2020-02-22T17:27:35Z</time>
      </trkpt>
      <trkpt lat="39.0753350" lon="1.5008110">
        <ele>159.0</ele>
        <time>2020-02-22T17:27:36Z</time>
      </trkpt>
      <trkpt lat="39.0752680" lon="1.5007240">
        <ele>159.4</ele>
        <time>2020-02-22T17:27:37Z</time>
      </trkpt>
      <trkpt lat="39.0752100" lon="1.5006420">
        <ele>159.7</ele>
        <time>2020-02-22T17:27:38Z</time>
      </trkpt>
      <trkpt lat="39.0751510" lon="1.5005590">
        <ele>159.9</ele>
        <time>2020-02-22T17:27:39Z</time>
      </trkpt>
      <trkpt lat="39.0750940" lon="1.5004770">
        <ele>160.2</ele>
        <time>2020-02-22T17:27:40Z</time>
      </trkpt>
      <trkpt lat="39.0750360" lon="1.5003930">
        <ele>160.2</ele>
        <time>2020-02-22T17:27:41Z</time>
      </trkpt>
      <trkpt lat="39.0749760" lon="1.5003130">
        <ele>160.0</ele>
        <time>2020-02-22T17:27:42Z</time>
      </trkpt>
      <trkpt lat="39.0749160" lon="1.5002330">
        <ele>159.8</ele>
        <time>2020-02-22T17:27:43Z</time>
      </trkpt>
      <trkpt lat="39.0748600" lon="1.5001560">
        <ele>159.5</ele>
        <time>2020-02-22T17:27:44Z</time>
      </trkpt>
      <trkpt lat="39.0748020" lon="1.5000810">
        <ele>159.3</ele>
        <time>2020-02-22T17:27:45Z</time>
      </trkpt>
      <trkpt lat="39.0747470" lon="1.5000160">
        <ele>159.0</ele>
        <time>2020-02-22T17:27:46Z</time>
      </trkpt>
      <trkpt lat="39.0746850" lon="1.4999460">
        <ele>158.6</ele>
        <time>2020-02-22T17:27:47Z</time>
      </trkpt>
      <trkpt lat="39.0746180" lon="1.4998710">
        <ele>158.1</ele>
        <time>2020-02-22T17:27:48Z</time>
      </trkpt>
      <trkpt lat="39.0745570" lon="1.4998090">
        <ele>157.6</ele>
        <time>2020-02-22T17:27:49Z</time>
      </trkpt>
      <trkpt lat="39.0744700" lon="1.4997690">
        <ele>157.0</ele>
        <time>2020-02-22T17:27:50Z</time>
      </trkpt>
      <trkpt lat="39.0743970" lon="1.4997200">
        <ele>156.6</ele>
        <time>2020-02-22T17:27:51Z</time>
      </trkpt>
      <trkpt lat="39.0743280" lon="1.4996710">
        <ele>156.2</ele>
        <time>2020-02-22T17:27:52Z</time>
      </trkpt>
      <trkpt lat="39.0742510" lon="1.4996260">
        <ele>155.9</ele>
        <time>2020-02-22T17:27:53Z</time>
      </trkpt>
      <trkpt lat="39.0741760" lon="1.4995800">
        <ele>155.6</ele>
        <time>2020-02-22T17:27:54Z</time>
      </trkpt>
      <trkpt lat="39.0741070" lon="1.4995440">
        <ele>155.4</ele>
        <time>2020-02-22T17:27:55Z</time>
      </trkpt>
      <trkpt lat="39.0740370" lon="1.4995040">
        <ele>155.2</ele>
        <time>2020-02-22T17:27:56Z</time>
      </trkpt>
      <trkpt lat="39.0739680" lon="1.4994610">
        <ele>155.0</ele>
        <time>2020-02-22T17:27:57Z</time>
      </trkpt>
      <trkpt lat="39.0738910" lon="1.4994210">
        <ele>154.7</ele>
        <time>2020-02-22T17:27:58Z</time>
      </trkpt>
      <trkpt lat="39.0738180" lon="1.4993850">
        <ele>154.5</ele>
        <time>2020-02-22T17:27:59Z</time>
      </trkpt>
      <trkpt lat="39.0737440" lon="1.4993430">
        <ele>154.3</ele>
        <time>2020-02-22T17:28:00Z</time>
      </trkpt>
      <trkpt lat="39.0736720" lon="1.4993050">
        <ele>154.1</ele>
        <time>2020-02-22T17:28:01Z</time>
      </trkpt>
      <trkpt lat="39.0736050" lon="1.4992660">
        <ele>153.9</ele>
        <time>2020-02-22T17:28:02Z</time>
      </trkpt>
      <trkpt lat="39.0735500" lon="1.4992350">
        <ele>153.8</ele>
        <time>2020-02-22T17:28:03Z</time>
      </trkpt>
      <trkpt lat="39.0734900" lon="1.4991980">
        <ele>153.6</ele>
        <time>2020-02-22T17:28:04Z</time>
      </trkpt>
      <trkpt lat="39.0734180" lon="1.4991550">
        <ele>153.4</ele>
        <time>2020-02-22T17:28:05Z</time>
      </trkpt>
      <trkpt lat="39.0733500" lon="1.4991130">
        <ele>153.2</ele>
        <time>2020-02-22T17:28:06Z</time>
      </trkpt>
      <trkpt lat="39.0732790" lon="1.4990670">
        <ele>152.9</ele>
        <time>2020-02-22T17:28:07Z</time>
      </trkpt>
      <trkpt lat="39.0732100" lon="1.4990240">
        <ele>152.7</ele>
        <time>2020-02-22T17:28:08Z</time>
      </trkpt>
      <trkpt lat="39.0731400" lon="1.4989860">
        <ele>152.5</ele>
        <time>2020-02-22T17:28:09Z</time>
      </trkpt>
      <trkpt lat="39.0730690" lon="1.4989430">
        <ele>152.2</ele>
        <time>2020-02-22T17:28:10Z</time>
      </trkpt>
      <trkpt lat="39.0729910" lon="1.4988920">
        <ele>151.9</ele>
        <time>2020-02-22T17:28:11Z</time>
      </trkpt>
      <trkpt lat="39.0729220" lon="1.4988510">
        <ele>151.7</ele>
        <time>2020-02-22T17:28:12Z</time>
      </trkpt>
      <trkpt lat="39.0728460" lon="1.4987960">
        <ele>151.5</ele>
        <time>2020-02-22T17:28:13Z</time>
      </trkpt>
      <trkpt lat="39.0727700" lon="1.4987450">
        <ele>151.3</ele>
        <time>2020-02-22T17:28:14Z</time>
      </trkpt>
      <trkpt lat="39.0726960" lon="1.4986920">
        <ele>151.2</ele>
        <time>2020-02-22T17:28:15Z</time>
      </trkpt>
      <trkpt lat="39.0726330" lon="1.4986270">
        <ele>151.1</ele>
        <time>2020-02-22T17:28:16Z</time>
      </trkpt>
      <trkpt lat="39.0725740" lon="1.4985620">
        <ele>151.0</ele>
        <time>2020-02-22T17:28:17Z</time>
      </trkpt>
      <trkpt lat="39.0725130" lon="1.4984900">
        <ele>150.8</ele>
        <time>2020-02-22T17:28:18Z</time>
      </trkpt>
      <trkpt lat="39.0724570" lon="1.4984200">
        <ele>150.6</ele>
        <time>2020-02-22T17:28:19Z</time>
      </trkpt>
      <trkpt lat="39.0724110" lon="1.4983540">
        <ele>150.4</ele>
        <time>2020-02-22T17:28:20Z</time>
      </trkpt>
      <trkpt lat="39.0723580" lon="1.4982880">
        <ele>150.3</ele>
        <time>2020-02-22T17:28:21Z</time>
      </trkpt>
      <trkpt lat="39.0723080" lon="1.4982230">
        <ele>150.3</ele>
        <time>2020-02-22T17:28:22Z</time>
      </trkpt>
      <trkpt lat="39.0722600" lon="1.4981530">
        <ele>150.2</ele>
        <time>2020-02-22T17:28:23Z</time>
      </trkpt>
      <trkpt lat="39.0722150" lon="1.4980880">
        <ele>150.2</ele>
        <time>2020-02-22T17:28:24Z</time>
      </trkpt>
      <trkpt lat="39.0721710" lon="1.4980230">
        <ele>150.2</ele>
        <time>2020-02-22T17:28:25Z</time>
      </trkpt>
      <trkpt lat="39.0721300" lon="1.4979610">
        <ele>150.2</ele>
        <time>2020-02-22T17:28:26Z</time>
      </trkpt>
      <trkpt lat="39.0720910" lon="1.4979010">
        <ele>150.1</ele>
        <time>2020-02-22T17:28:27Z</time>
      </trkpt>
      <trkpt lat="39.0720500" lon="1.4978390">
        <ele>150.0</ele>
        <time>2020-02-22T17:28:28Z</time>
      </trkpt>
      <trkpt lat="39.0720100" lon="1.4977770">
        <ele>149.9</ele>
        <time>2020-02-22T17:28:29Z</time>
      </trkpt>
      <trkpt lat="39.0719660" lon="1.4977160">
        <ele>149.7</ele>
        <time>2020-02-22T17:28:30Z</time>
      </trkpt>
      <trkpt lat="39.0719270" lon="1.4976620">
        <ele>149.5</ele>
        <time>2020-02-22T17:28:31Z</time>
      </trkpt>
      <trkpt lat="39.0718850" lon="1.4976010">
        <ele>149.4</ele>
        <time>2020-02-22T17:28:32Z</time>
      </trkpt>
      <trkpt lat="39.0718400" lon="1.4975370">
        <ele>149.3</ele>
        <time>2020-02-22T17:28:33Z</time>
      </trkpt>
      <trkpt lat="39.0717970" lon="1.4974760">
        <ele>149.3</ele>
        <time>2020-02-22T17:28:34Z</time>
      </trkpt>
      <trkpt lat="39.0717490" lon="1.4974110">
        <ele>149.2</ele>
        <time>2020-02-22T17:28:35Z</time>
      </trkpt>
      <trkpt lat="39.0717100" lon="1.4973610">
        <ele>149.2</ele>
        <time>2020-02-22T17:28:36Z</time>
      </trkpt>
      <trkpt lat="39.0716580" lon="1.4973050">
        <ele>149.2</ele>
        <time>2020-02-22T17:28:37Z</time>
      </trkpt>
      <trkpt lat="39.0716050" lon="1.4972510">
        <ele>149.2</ele>
        <time>2020-02-22T17:28:38Z</time>
      </trkpt>
      <trkpt lat="39.0715550" lon="1.4972040">
        <ele>149.2</ele>
        <time>2020-02-22T17:28:39Z</time>
      </trkpt>
      <trkpt lat="39.0715020" lon="1.4971560">
        <ele>149.2</ele>
        <time>2020-02-22T17:28:40Z</time>
      </trkpt>
      <trkpt lat="39.0714360" lon="1.4971120">
        <ele>149.2</ele>
        <time>2020-02-22T17:28:41Z</time>
      </trkpt>
      <trkpt lat="39.0713870" lon="1.4970680">
        <ele>149.2</ele>
        <time>2020-02-22T17:28:42Z</time>
      </trkpt>
      <trkpt lat="39.0713360" lon="1.4970260">
        <ele>149.2</ele>
        <time>2020-02-22T17:28:43Z</time>
      </trkpt>
      <trkpt lat="39.0712840" lon="1.4969900">
        <ele>149.2</ele>
        <time>2020-02-22T17:28:44Z</time>
      </trkpt>
      <trkpt lat="39.0712310" lon="1.4969530">
        <ele>149.2</ele>
        <time>2020-02-22T17:28:45Z</time>
      </trkpt>
      <trkpt lat="39.0711720" lon="1.4969120">
        <ele>149.2</ele>
        <time>2020-02-22T17:28:46Z</time>
      </trkpt>
      <trkpt lat="39.0711150" lon="1.4968710">
        <ele>149.1</ele>
        <time>2020-02-22T17:28:47Z</time>
      </trkpt>
      <trkpt lat="39.0710610" lon="1.4968320">
        <ele>149.0</ele>
        <time>2020-02-22T17:28:48Z</time>
      </trkpt>
      <trkpt lat="39.0710030" lon="1.4967920">
        <ele>148.9</ele>
        <time>2020-02-22T17:28:49Z</time>
      </trkpt>
      <trkpt lat="39.0709420" lon="1.4967530">
        <ele>148.7</ele>
        <time>2020-02-22T17:28:50Z</time>
      </trkpt>
      <trkpt lat="39.0708810" lon="1.4967300">
        <ele>148.5</ele>
        <time>2020-02-22T17:28:51Z</time>
      </trkpt>
      <trkpt lat="39.0708130" lon="1.4966920">
        <ele>148.3</ele>
        <time>2020-02-22T17:28:52Z</time>
      </trkpt>
      <trkpt lat="39.0707520" lon="1.4966520">
        <ele>148.1</ele>
        <time>2020-02-22T17:28:53Z</time>
      </trkpt>
      <trkpt lat="39.0706970" lon="1.4966190">
        <ele>147.9</ele>
        <time>2020-02-22T17:28:54Z</time>
      </trkpt>
      <trkpt lat="39.0706380" lon="1.4965800">
        <ele>147.2</ele>
        <time>2020-02-22T17:28:55Z</time>
      </trkpt>
      <trkpt lat="39.0705790" lon="1.4965420">
        <ele>146.5</ele>
        <time>2020-02-22T17:28:56Z</time>
      </trkpt>
      <trkpt lat="39.0705160" lon="1.4965020">
        <ele>146.0</ele>
        <time>2020-02-22T17:28:57Z</time>
      </trkpt>
      <trkpt lat="39.0704540" lon="1.4964620">
        <ele>145.6</ele>
        <time>2020-02-22T17:28:58Z</time>
      </trkpt>
      <trkpt lat="39.0703940" lon="1.4964220">
        <ele>145.1</ele>
        <time>2020-02-22T17:28:59Z</time>
      </trkpt>
      <trkpt lat="39.0703260" lon="1.4963800">
        <ele>144.7</ele>
        <time>2020-02-22T17:29:00Z</time>
      </trkpt>
      <trkpt lat="39.0702700" lon="1.4963460">
        <ele>144.2</ele>
        <time>2020-02-22T17:29:01Z</time>
      </trkpt>
      <trkpt lat="39.0702140" lon="1.4963110">
        <ele>143.8</ele>
        <time>2020-02-22T17:29:02Z</time>
      </trkpt>
      <trkpt lat="39.0701540" lon="1.4962750">
        <ele>143.3</ele>
        <time>2020-02-22T17:29:03Z</time>
      </trkpt>
      <trkpt lat="39.0700940" lon="1.4962420">
        <ele>142.9</ele>
        <time>2020-02-22T17:29:04Z</time>
      </trkpt>
      <trkpt lat="39.0700320" lon="1.4962050">
        <ele>142.4</ele>
        <time>2020-02-22T17:29:05Z</time>
      </trkpt>
      <trkpt lat="39.0699730" lon="1.4961690">
        <ele>142.0</ele>
        <time>2020-02-22T17:29:06Z</time>
      </trkpt>
      <trkpt lat="39.0699150" lon="1.4961300">
        <ele>141.6</ele>
        <time>2020-02-22T17:29:07Z</time>
      </trkpt>
      <trkpt lat="39.0698560" lon="1.4960950">
        <ele>141.2</ele>
        <time>2020-02-22T17:29:08Z</time>
      </trkpt>
      <trkpt lat="39.0697920" lon="1.4960590">
        <ele>140.5</ele>
        <time>2020-02-22T17:29:09Z</time>
      </trkpt>
      <trkpt lat="39.0697300" lon="1.4960230">
        <ele>140.2</ele>
        <time>2020-02-22T17:29:10Z</time>
      </trkpt>
      <trkpt lat="39.0696670" lon="1.4959880">
        <ele>139.8</ele>
        <time>2020-02-22T17:29:11Z</time>
      </trkpt>
      <trkpt lat="39.0696020" lon="1.4959470">
        <ele>139.4</ele>
        <time>2020-02-22T17:29:12Z</time>
      </trkpt>
      <trkpt lat="39.0695450" lon="1.4959060">
        <ele>139.1</ele>
        <time>2020-02-22T17:29:13Z</time>
      </trkpt>
      <trkpt lat="39.0694810" lon="1.4958600">
        <ele>138.7</ele>
        <time>2020-02-22T17:29:14Z</time>
      </trkpt>
      <trkpt lat="39.0694210" lon="1.4958170">
        <ele>138.4</ele>
        <time>2020-02-22T17:29:15Z</time>
      </trkpt>
      <trkpt lat="39.0693660" lon="1.4957790">
        <ele>138.2</ele>
        <time>2020-02-22T17:29:16Z</time>
      </trkpt>
      <trkpt lat="39.0693100" lon="1.4957430">
        <ele>138.0</ele>
        <time>2020-02-22T17:29:17Z</time>
      </trkpt>
      <trkpt lat="39.0692580" lon="1.4957120">
        <ele>137.8</ele>
        <time>2020-02-22T17:29:18Z</time>
      </trkpt>
      <trkpt lat="39.0692000" lon="1.4956580">
        <ele>137.5</ele>
        <time>2020-02-22T17:29:19Z</time>
      </trkpt>
      <trkpt lat="39.0691450" lon="1.4956220">
        <ele>137.3</ele>
        <time>2020-02-22T17:29:20Z</time>
      </trkpt>
      <trkpt lat="39.0690960" lon="1.4955900">
        <ele>137.1</ele>
        <time>2020-02-22T17:29:21Z</time>
      </trkpt>
      <trkpt lat="39.0690420" lon="1.4955530">
        <ele>136.8</ele>
        <time>2020-02-22T17:29:22Z</time>
      </trkpt>
      <trkpt lat="39.0689800" lon="1.4955170">
        <ele>136.5</ele>
        <time>2020-02-22T17:29:23Z</time>
      </trkpt>
      <trkpt lat="39.0689260" lon="1.4954860">
        <ele>136.3</ele>
        <time>2020-02-22T17:29:24Z</time>
      </trkpt>
      <trkpt lat="39.0688810" lon="1.4954570">
        <ele>136.1</ele>
        <time>2020-02-22T17:29:25Z</time>
      </trkpt>
      <trkpt lat="39.0688310" lon="1.4954320">
        <ele>135.9</ele>
        <time>2020-02-22T17:29:26Z</time>
      </trkpt>
      <trkpt lat="39.0687710" lon="1.4954050">
        <ele>135.6</ele>
        <time>2020-02-22T17:29:27Z</time>
      </trkpt>
      <trkpt lat="39.0687140" lon="1.4953740">
        <ele>135.5</ele>
        <time>2020-02-22T17:29:28Z</time>
      </trkpt>
      <trkpt lat="39.0686550" lon="1.4953410">
        <ele>135.4</ele>
        <time>2020-02-22T17:29:29Z</time>
      </trkpt>
      <trkpt lat="39.0685960" lon="1.4953070">
        <ele>135.2</ele>
        <time>2020-02-22T17:29:30Z</time>
      </trkpt>
      <trkpt lat="39.0685330" lon="1.4952700">
        <ele>135.1</ele>
        <time>2020-02-22T17:29:31Z</time>
      </trkpt>
      <trkpt lat="39.0684700" lon="1.4952330">
        <ele>135.0</ele>
        <time>2020-02-22T17:29:32Z</time>
      </trkpt>
      <trkpt lat="39.0683990" lon="1.4952130">
        <ele>134.9</ele>
        <time>2020-02-22T17:29:33Z</time>
      </trkpt>
      <trkpt lat="39.0683350" lon="1.4951800">
        <ele>134.8</ele>
        <time>2020-02-22T17:29:34Z</time>
      </trkpt>
      <trkpt lat="39.0682690" lon="1.4951480">
        <ele>134.7</ele>
        <time>2020-02-22T17:29:35Z</time>
      </trkpt>
      <trkpt lat="39.0682020" lon="1.4951160">
        <ele>134.7</ele>
        <time>2020-02-22T17:29:36Z</time>
      </trkpt>
      <trkpt lat="39.0681400" lon="1.4950870">
        <ele>134.6</ele>
        <time>2020-02-22T17:29:37Z</time>
      </trkpt>
      <trkpt lat="39.0680750" lon="1.4950550">
        <ele>134.6</ele>
        <time>2020-02-22T17:29:38Z</time>
      </trkpt>
      <trkpt lat="39.0680120" lon="1.4950250">
        <ele>134.6</ele>
        <time>2020-02-22T17:29:39Z</time>
      </trkpt>
      <trkpt lat="39.0679470" lon="1.4949950">
        <ele>134.5</ele>
        <time>2020-02-22T17:29:40Z</time>
      </trkpt>
      <trkpt lat="39.0678850" lon="1.4949650">
        <ele>134.5</ele>
        <time>2020-02-22T17:29:41Z</time>
      </trkpt>
      <trkpt lat="39.0678080" lon="1.4949270">
        <ele>134.5</ele>
        <time>2020-02-22T17:29:42Z</time>
      </trkpt>
      <trkpt lat="39.0677370" lon="1.4948930">
        <ele>134.5</ele>
        <time>2020-02-22T17:29:43Z</time>
      </trkpt>
      <trkpt lat="39.0676710" lon="1.4948620">
        <ele>134.5</ele>
        <time>2020-02-22T17:29:44Z</time>
      </trkpt>
      <trkpt lat="39.0676030" lon="1.4948290">
        <ele>134.5</ele>
        <time>2020-02-22T17:29:45Z</time>
      </trkpt>
      <trkpt lat="39.0675390" lon="1.4947990">
        <ele>134.5</ele>
        <time>2020-02-22T17:29:46Z</time>
      </trkpt>
      <trkpt lat="39.0674690" lon="1.4947750">
        <ele>134.4</ele>
        <time>2020-02-22T17:29:47Z</time>
      </trkpt>
      <trkpt lat="39.0674120" lon="1.4947490">
        <ele>134.4</ele>
        <time>2020-02-22T17:29:48Z</time>
      </trkpt>
      <trkpt lat="39.0673470" lon="1.4947190">
        <ele>134.4</ele>
        <time>2020-02-22T17:29:49Z</time>
      </trkpt>
      <trkpt lat="39.0672860" lon="1.4946920">
        <ele>134.4</ele>
        <time>2020-02-22T17:29:50Z</time>
      </trkpt>
      <trkpt lat="39.0672250" lon="1.4946640">
        <ele>134.3</ele>
        <time>2020-02-22T17:29:51Z</time>
      </trkpt>
      <trkpt lat="39.0671720" lon="1.4946380">
        <ele>134.3</ele>
        <time>2020-02-22T17:29:52Z</time>
      </trkpt>
      <trkpt lat="39.0671030" lon="1.4946070">
        <ele>134.2</ele>
        <time>2020-02-22T17:29:53Z</time>
      </trkpt>
      <trkpt lat="39.0670400" lon="1.4945780">
        <ele>134.1</ele>
        <time>2020-02-22T17:29:54Z</time>
      </trkpt>
      <trkpt lat="39.0669800" lon="1.4945470">
        <ele>134.1</ele>
        <time>2020-02-22T17:29:55Z</time>
      </trkpt>
      <trkpt lat="39.0669160" lon="1.4945080">
        <ele>134.0</ele>
        <time>2020-02-22T17:29:56Z</time>
      </trkpt>
      <trkpt lat="39.0668510" lon="1.4944760">
        <ele>134.0</ele>
        <time>2020-02-22T17:29:57Z</time>
      </trkpt>
      <trkpt lat="39.0667910" lon="1.4944480">
        <ele>134.0</ele>
        <time>2020-02-22T17:29:58Z</time>
      </trkpt>
      <trkpt lat="39.0667330" lon="1.4944230">
        <ele>133.8</ele>
        <time>2020-02-22T17:29:59Z</time>
      </trkpt>
      <trkpt lat="39.0666790" lon="1.4944010">
        <ele>133.7</ele>
        <time>2020-02-22T17:30:00Z</time>
      </trkpt>
      <trkpt lat="39.0666210" lon="1.4943770">
        <ele>133.5</ele>
        <time>2020-02-22T17:30:01Z</time>
      </trkpt>
      <trkpt lat="39.0665680" lon="1.4943570">
        <ele>133.3</ele>
        <time>2020-02-22T17:30:02Z</time>
      </trkpt>
      <trkpt lat="39.0664980" lon="1.4943720">
        <ele>133.2</ele>
        <time>2020-02-22T17:30:03Z</time>
      </trkpt>
      <trkpt lat="39.0664290" lon="1.4943520">
        <ele>133.0</ele>
        <time>2020-02-22T17:30:04Z</time>
      </trkpt>
      <trkpt lat="39.0663620" lon="1.4943300">
        <ele>132.9</ele>
        <time>2020-02-22T17:30:05Z</time>
      </trkpt>
      <trkpt lat="39.0662980" lon="1.4943110">
        <ele>132.8</ele>
        <time>2020-02-22T17:30:06Z</time>
      </trkpt>
      <trkpt lat="39.0662350" lon="1.4942940">
        <ele>132.7</ele>
        <time>2020-02-22T17:30:07Z</time>
      </trkpt>
      <trkpt lat="39.0661720" lon="1.4942770">
        <ele>132.5</ele>
        <time>2020-02-22T17:30:08Z</time>
      </trkpt>
      <trkpt lat="39.0661070" lon="1.4942640">
        <ele>132.4</ele>
        <time>2020-02-22T17:30:09Z</time>
      </trkpt>
      <trkpt lat="39.0660380" lon="1.4942510">
        <ele>132.3</ele>
        <time>2020-02-22T17:30:10Z</time>
      </trkpt>
      <trkpt lat="39.0659660" lon="1.4942400">
        <ele>132.2</ele>
        <time>2020-02-22T17:30:11Z</time>
      </trkpt>
      <trkpt lat="39.0658940" lon="1.4942300">
        <ele>132.0</ele>
        <time>2020-02-22T17:30:12Z</time>
      </trkpt>
      <trkpt lat="39.0658220" lon="1.4942220">
        <ele>131.9</ele>
        <time>2020-02-22T17:30:13Z</time>
      </trkpt>
      <trkpt lat="39.0657520" lon="1.4942110">
        <ele>131.7</ele>
        <time>2020-02-22T17:30:14Z</time>
      </trkpt>
      <trkpt lat="39.0656820" lon="1.4942050">
        <ele>131.6</ele>
        <time>2020-02-22T17:30:15Z</time>
      </trkpt>
      <trkpt lat="39.0655980" lon="1.4942050">
        <ele>131.4</ele>
        <time>2020-02-22T17:30:16Z</time>
      </trkpt>
      <trkpt lat="39.0655260" lon="1.4942090">
        <ele>131.3</ele>
        <time>2020-02-22T17:30:17Z</time>
      </trkpt>
      <trkpt lat="39.0654520" lon="1.4942150">
        <ele>131.1</ele>
        <time>2020-02-22T17:30:18Z</time>
      </trkpt>
      <trkpt lat="39.0653820" lon="1.4942230">
        <ele>130.9</ele>
        <time>2020-02-22T17:30:19Z</time>
      </trkpt>
      <trkpt lat="39.0653120" lon="1.4942330">
        <ele>130.8</ele>
        <time>2020-02-22T17:30:20Z</time>
      </trkpt>
      <trkpt lat="39.0652410" lon="1.4942430">
        <ele>130.6</ele>
        <time>2020-02-22T17:30:21Z</time>
      </trkpt>
      <trkpt lat="39.0651630" lon="1.4942600">
        <ele>130.5</ele>
        <time>2020-02-22T17:30:22Z</time>
      </trkpt>
      <trkpt lat="39.0650940" lon="1.4942720">
        <ele>130.3</ele>
        <time>2020-02-22T17:30:23Z</time>
      </trkpt>
      <trkpt lat="39.0650190" lon="1.4942860">
        <ele>130.1</ele>
        <time>2020-02-22T17:30:24Z</time>
      </trkpt>
      <trkpt lat="39.0649490" lon="1.4942970">
        <ele>130.0</ele>
        <time>2020-02-22T17:30:25Z</time>
      </trkpt>
      <trkpt lat="39.0648750" lon="1.4943090">
        <ele>129.9</ele>
        <time>2020-02-22T17:30:26Z</time>
      </trkpt>
      <trkpt lat="39.0647980" lon="1.4943200">
        <ele>129.8</ele>
        <time>2020-02-22T17:30:27Z</time>
      </trkpt>
      <trkpt lat="39.0647390" lon="1.4943810">
        <ele>129.3</ele>
        <time>2020-02-22T17:30:28Z</time>
      </trkpt>
      <trkpt lat="39.0646670" lon="1.4944030">
        <ele>128.9</ele>
        <time>2020-02-22T17:30:29Z</time>
      </trkpt>
      <trkpt lat="39.0645930" lon="1.4944240">
        <ele>128.6</ele>
        <time>2020-02-22T17:30:30Z</time>
      </trkpt>
      <trkpt lat="39.0645200" lon="1.4944410">
        <ele>128.3</ele>
        <time>2020-02-22T17:30:31Z</time>
      </trkpt>
      <trkpt lat="39.0644470" lon="1.4944630">
        <ele>128.0</ele>
        <time>2020-02-22T17:30:32Z</time>
      </trkpt>
      <trkpt lat="39.0643700" lon="1.4944830">
        <ele>127.6</ele>
        <time>2020-02-22T17:30:33Z</time>
      </trkpt>
      <trkpt lat="39.0642950" lon="1.4945010">
        <ele>127.3</ele>
        <time>2020-02-22T17:30:34Z</time>
      </trkpt>
      <trkpt lat="39.0642200" lon="1.4945180">
        <ele>127.0</ele>
        <time>2020-02-22T17:30:35Z</time>
      </trkpt>
      <trkpt lat="39.0641420" lon="1.4945360">
        <ele>126.7</ele>
        <time>2020-02-22T17:30:36Z</time>
      </trkpt>
      <trkpt lat="39.0640640" lon="1.4945520">
        <ele>126.3</ele>
        <time>2020-02-22T17:30:37Z</time>
      </trkpt>
      <trkpt lat="39.0639850" lon="1.4945690">
        <ele>126.0</ele>
        <time>2020-02-22T17:30:38Z</time>
      </trkpt>
      <trkpt lat="39.0639050" lon="1.4945870">
        <ele>125.7</ele>
        <time>2020-02-22T17:30:39Z</time>
      </trkpt>
      <trkpt lat="39.0638260" lon="1.4946070">
        <ele>125.3</ele>
        <time>2020-02-22T17:30:40Z</time>
      </trkpt>
      <trkpt lat="39.0637460" lon="1.4946250">
        <ele>125.0</ele>
        <time>2020-02-22T17:30:41Z</time>
      </trkpt>
      <trkpt lat="39.0636640" lon="1.4946420">
        <ele>124.6</ele>
        <time>2020-02-22T17:30:42Z</time>
      </trkpt>
      <trkpt lat="39.0635810" lon="1.4946610">
        <ele>124.3</ele>
        <time>2020-02-22T17:30:43Z</time>
      </trkpt>
      <trkpt lat="39.0635010" lon="1.4946820">
        <ele>124.0</ele>
        <time>2020-02-22T17:30:44Z</time>
      </trkpt>
      <trkpt lat="39.0634160" lon="1.4946990">
        <ele>123.7</ele>
        <time>2020-02-22T17:30:45Z</time>
      </trkpt>
      <trkpt lat="39.0633320" lon="1.4947130">
        <ele>123.4</ele>
        <time>2020-02-22T17:30:46Z</time>
      </trkpt>
      <trkpt lat="39.0632470" lon="1.4947280">
        <ele>123.0</ele>
        <time>2020-02-22T17:30:47Z</time>
      </trkpt>
      <trkpt lat="39.0631630" lon="1.4947440">
        <ele>122.6</ele>
        <time>2020-02-22T17:30:48Z</time>
      </trkpt>
      <trkpt lat="39.0630780" lon="1.4947590">
        <ele>121.7</ele>
        <time>2020-02-22T17:30:49Z</time>
      </trkpt>
      <trkpt lat="39.0629960" lon="1.4947780">
        <ele>121.7</ele>
        <time>2020-02-22T17:30:50Z</time>
      </trkpt>
      <trkpt lat="39.0629120" lon="1.4947930">
        <ele>121.7</ele>
        <time>2020-02-22T17:30:51Z</time>
      </trkpt>
      <trkpt lat="39.0628280" lon="1.4948070">
        <ele>121.6</ele>
        <time>2020-02-22T17:30:52Z</time>
      </trkpt>
      <trkpt lat="39.0627420" lon="1.4948190">
        <ele>121.6</ele>
        <time>2020-02-22T17:30:53Z</time>
      </trkpt>
      <trkpt lat="39.0626580" lon="1.4948260">
        <ele>121.5</ele>
        <time>2020-02-22T17:30:54Z</time>
      </trkpt>
      <trkpt lat="39.0625730" lon="1.4948310">
        <ele>121.4</ele>
        <time>2020-02-22T17:30:55Z</time>
      </trkpt>
      <trkpt lat="39.0624900" lon="1.4948370">
        <ele>121.2</ele>
        <time>2020-02-22T17:30:56Z</time>
      </trkpt>
      <trkpt lat="39.0624080" lon="1.4948440">
        <ele>121.0</ele>
        <time>2020-02-22T17:30:57Z</time>
      </trkpt>
      <trkpt lat="39.0623220" lon="1.4948450">
        <ele>120.7</ele>
        <time>2020-02-22T17:30:58Z</time>
      </trkpt>
      <trkpt lat="39.0622400" lon="1.4948470">
        <ele>120.4</ele>
        <time>2020-02-22T17:30:59Z</time>
      </trkpt>
      <trkpt lat="39.0621470" lon="1.4948460">
        <ele>120.1</ele>
        <time>2020-02-22T17:31:00Z</time>
      </trkpt>
      <trkpt lat="39.0620620" lon="1.4948420">
        <ele>119.7</ele>
        <time>2020-02-22T17:31:01Z</time>
      </trkpt>
      <trkpt lat="39.0619770" lon="1.4948310">
        <ele>119.3</ele>
        <time>2020-02-22T17:31:02Z</time>
      </trkpt>
      <trkpt lat="39.0618910" lon="1.4948190">
        <ele>119.0</ele>
        <time>2020-02-22T17:31:03Z</time>
      </trkpt>
      <trkpt lat="39.0618060" lon="1.4948080">
        <ele>118.6</ele>
        <time>2020-02-22T17:31:04Z</time>
      </trkpt>
      <trkpt lat="39.0617280" lon="1.4947950">
        <ele>118.3</ele>
        <time>2020-02-22T17:31:05Z</time>
      </trkpt>
      <trkpt lat="39.0616460" lon="1.4947840">
        <ele>118.0</ele>
        <time>2020-02-22T17:31:06Z</time>
      </trkpt>
      <trkpt lat="39.0615640" lon="1.4947690">
        <ele>117.7</ele>
        <time>2020-02-22T17:31:07Z</time>
      </trkpt>
      <trkpt lat="39.0614810" lon="1.4947520">
        <ele>117.4</ele>
        <time>2020-02-22T17:31:08Z</time>
      </trkpt>
      <trkpt lat="39.0613930" lon="1.4947350">
        <ele>117.2</ele>
        <time>2020-02-22T17:31:09Z</time>
      </trkpt>
      <trkpt lat="39.0613120" lon="1.4947170">
        <ele>116.9</ele>
        <time>2020-02-22T17:31:10Z</time>
      </trkpt>
      <trkpt lat="39.0612300" lon="1.4946900">
        <ele>116.6</ele>
        <time>2020-02-22T17:31:11Z</time>
      </trkpt>
      <trkpt lat="39.0611500" lon="1.4946650">
        <ele>116.4</ele>
        <time>2020-02-22T17:31:12Z</time>
      </trkpt>
      <trkpt lat="39.0610660" lon="1.4946430">
        <ele>116.1</ele>
        <time>2020-02-22T17:31:13Z</time>
      </trkpt>
      <trkpt lat="39.0609880" lon="1.4946260">
        <ele>115.9</ele>
        <time>2020-02-22T17:31:14Z</time>
      </trkpt>
      <trkpt lat="39.0609040" lon="1.4946010">
        <ele>115.8</ele>
        <time>2020-02-22T17:31:15Z</time>
      </trkpt>
      <trkpt lat="39.0608270" lon="1.4945740">
        <ele>115.6</ele>
        <time>2020-02-22T17:31:16Z</time>
      </trkpt>
      <trkpt lat="39.0607470" lon="1.4945480">
        <ele>115.5</ele>
        <time>2020-02-22T17:31:17Z</time>
      </trkpt>
      <trkpt lat="39.0606690" lon="1.4945260">
        <ele>115.4</ele>
        <time>2020-02-22T17:31:18Z</time>
      </trkpt>
      <trkpt lat="39.0605930" lon="1.4945040">
        <ele>115.3</ele>
        <time>2020-02-22T17:31:19Z</time>
      </trkpt>
      <trkpt lat="39.0605210" lon="1.4944880">
        <ele>115.1</ele>
        <time>2020-02-22T17:31:20Z</time>
      </trkpt>
      <trkpt lat="39.0604430" lon="1.4944710">
        <ele>114.9</ele>
        <time>2020-02-22T17:31:21Z</time>
      </trkpt>
      <trkpt lat="39.0603700" lon="1.4944540">
        <ele>114.7</ele>
        <time>2020-02-22T17:31:22Z</time>
      </trkpt>
      <trkpt lat="39.0603050" lon="1.4944310">
        <ele>114.4</ele>
        <time>2020-02-22T17:31:23Z</time>
      </trkpt>
      <trkpt lat="39.0602330" lon="1.4944110">
        <ele>114.4</ele>
        <time>2020-02-22T17:31:24Z</time>
      </trkpt>
      <trkpt lat="39.0601610" lon="1.4943900">
        <ele>114.4</ele>
        <time>2020-02-22T17:31:25Z</time>
      </trkpt>
      <trkpt lat="39.0600840" lon="1.4943680">
        <ele>114.3</ele>
        <time>2020-02-22T17:31:26Z</time>
      </trkpt>
      <trkpt lat="39.0600150" lon="1.4943480">
        <ele>114.3</ele>
        <time>2020-02-22T17:31:27Z</time>
      </trkpt>
      <trkpt lat="39.0599490" lon="1.4943210">
        <ele>114.2</ele>
        <time>2020-02-22T17:31:28Z</time>
      </trkpt>
      <trkpt lat="39.0598610" lon="1.4944040">
        <ele>114.1</ele>
        <time>2020-02-22T17:31:29Z</time>
      </trkpt>
      <trkpt lat="39.0597860" lon="1.4943870">
        <ele>113.9</ele>
        <time>2020-02-22T17:31:30Z</time>
      </trkpt>
      <trkpt lat="39.0597130" lon="1.4943670">
        <ele>113.7</ele>
        <time>2020-02-22T17:31:31Z</time>
      </trkpt>
      <trkpt lat="39.0596400" lon="1.4943510">
        <ele>113.5</ele>
        <time>2020-02-22T17:31:32Z</time>
      </trkpt>
      <trkpt lat="39.0595690" lon="1.4943300">
        <ele>113.3</ele>
        <time>2020-02-22T17:31:33Z</time>
      </trkpt>
      <trkpt lat="39.0595060" lon="1.4943120">
        <ele>113.2</ele>
        <time>2020-02-22T17:31:34Z</time>
      </trkpt>
      <trkpt lat="39.0594400" lon="1.4942920">
        <ele>113.0</ele>
        <time>2020-02-22T17:31:35Z</time>
      </trkpt>
      <trkpt lat="39.0593660" lon="1.4942700">
        <ele>112.8</ele>
        <time>2020-02-22T17:31:36Z</time>
      </trkpt>
      <trkpt lat="39.0592980" lon="1.4942510">
        <ele>112.6</ele>
        <time>2020-02-22T17:31:37Z</time>
      </trkpt>
      <trkpt lat="39.0592210" lon="1.4942280">
        <ele>112.4</ele>
        <time>2020-02-22T17:31:38Z</time>
      </trkpt>
      <trkpt lat="39.0591430" lon="1.4942040">
        <ele>112.3</ele>
        <time>2020-02-22T17:31:39Z</time>
      </trkpt>
      <trkpt lat="39.0590700" lon="1.4941800">
        <ele>112.1</ele>
        <time>2020-02-22T17:31:40Z</time>
      </trkpt>
      <trkpt lat="39.0590050" lon="1.4941570">
        <ele>111.8</ele>
        <time>2020-02-22T17:31:41Z</time>
      </trkpt>
      <trkpt lat="39.0589290" lon="1.4941320">
        <ele>111.6</ele>
        <time>2020-02-22T17:31:42Z</time>
      </trkpt>
      <trkpt lat="39.0588530" lon="1.4941070">
        <ele>111.4</ele>
        <time>2020-02-22T17:31:43Z</time>
      </trkpt>
      <trkpt lat="39.0587800" lon="1.4940790">
        <ele>111.2</ele>
        <time>2020-02-22T17:31:44Z</time>
      </trkpt>
      <trkpt lat="39.0587190" lon="1.4940520">
        <ele>111.1</ele>
        <time>2020-02-22T17:31:45Z</time>
      </trkpt>
      <trkpt lat="39.0586510" lon="1.4940250">
        <ele>110.9</ele>
        <time>2020-02-22T17:31:46Z</time>
      </trkpt>
      <trkpt lat="39.0585790" lon="1.4940430">
        <ele>110.8</ele>
        <time>2020-02-22T17:31:47Z</time>
      </trkpt>
      <trkpt lat="39.0585080" lon="1.4940280">
        <ele>110.6</ele>
        <time>2020-02-22T17:31:48Z</time>
      </trkpt>
      <trkpt lat="39.0584300" lon="1.4940080">
        <ele>110.4</ele>
        <time>2020-02-22T17:31:49Z</time>
      </trkpt>
      <trkpt lat="39.0583570" lon="1.4939890">
        <ele>110.3</ele>
        <time>2020-02-22T17:31:50Z</time>
      </trkpt>
      <trkpt lat="39.0582820" lon="1.4939710">
        <ele>110.1</ele>
        <time>2020-02-22T17:31:51Z</time>
      </trkpt>
      <trkpt lat="39.0582090" lon="1.4939500">
        <ele>109.9</ele>
        <time>2020-02-22T17:31:52Z</time>
      </trkpt>
      <trkpt lat="39.0581380" lon="1.4939280">
        <ele>109.7</ele>
        <time>2020-02-22T17:31:53Z</time>
      </trkpt>
      <trkpt lat="39.0580630" lon="1.4939060">
        <ele>109.6</ele>
        <time>2020-02-22T17:31:54Z</time>
      </trkpt>
      <trkpt lat="39.0579760" lon="1.4938820">
        <ele>109.3</ele>
        <time>2020-02-22T17:31:55Z</time>
      </trkpt>
      <trkpt lat="39.0578960" lon="1.4938570">
        <ele>109.1</ele>
        <time>2020-02-22T17:31:56Z</time>
      </trkpt>
      <trkpt lat="39.0578040" lon="1.4938280">
        <ele>108.8</ele>
        <time>2020-02-22T17:31:57Z</time>
      </trkpt>
      <trkpt lat="39.0577310" lon="1.4937990">
        <ele>108.6</ele>
        <time>2020-02-22T17:31:58Z</time>
      </trkpt>
      <trkpt lat="39.0576570" lon="1.4937700">
        <ele>108.4</ele>
        <time>2020-02-22T17:31:59Z</time>
      </trkpt>
      <trkpt lat="39.0575700" lon="1.4937690">
        <ele>108.1</ele>
        <time>2020-02-22T17:32:00Z</time>
      </trkpt>
      <trkpt lat="39.0574870" lon="1.4937490">
        <ele>107.9</ele>
        <time>2020-02-22T17:32:01Z</time>
      </trkpt>
      <trkpt lat="39.0574090" lon="1.4937280">
        <ele>107.7</ele>
        <time>2020-02-22T17:32:02Z</time>
      </trkpt>
      <trkpt lat="39.0573340" lon="1.4937110">
        <ele>107.5</ele>
        <time>2020-02-22T17:32:03Z</time>
      </trkpt>
      <trkpt lat="39.0572560" lon="1.4936920">
        <ele>107.3</ele>
        <time>2020-02-22T17:32:04Z</time>
      </trkpt>
      <trkpt lat="39.0571780" lon="1.4936710">
        <ele>107.1</ele>
        <time>2020-02-22T17:32:05Z</time>
      </trkpt>
      <trkpt lat="39.0570950" lon="1.4936490">
        <ele>106.9</ele>
        <time>2020-02-22T17:32:06Z</time>
      </trkpt>
      <trkpt lat="39.0570230" lon="1.4936260">
        <ele>106.8</ele>
        <time>2020-02-22T17:32:07Z</time>
      </trkpt>
      <trkpt lat="39.0569410" lon="1.4936000">
        <ele>106.5</ele>
        <time>2020-02-22T17:32:08Z</time>
      </trkpt>
      <trkpt lat="39.0568620" lon="1.4935710">
        <ele>106.3</ele>
        <time>2020-02-22T17:32:09Z</time>
      </trkpt>
      <trkpt lat="39.0567820" lon="1.4935450">
        <ele>106.1</ele>
        <time>2020-02-22T17:32:10Z</time>
      </trkpt>
      <trkpt lat="39.0567070" lon="1.4935200">
        <ele>105.9</ele>
        <time>2020-02-22T17:32:11Z</time>
      </trkpt>
      <trkpt lat="39.0566340" lon="1.4935010">
        <ele>105.7</ele>
        <time>2020-02-22T17:32:12Z</time>
      </trkpt>
      <trkpt lat="39.0565540" lon="1.4934780">
        <ele>105.4</ele>
        <time>2020-02-22T17:32:13Z</time>
      </trkpt>
      <trkpt lat="39.0564670" lon="1.4934780">
        <ele>105.2</ele>
        <time>2020-02-22T17:32:14Z</time>
      </trkpt>
      <trkpt lat="39.0563850" lon="1.4934580">
        <ele>104.9</ele>
        <time>2020-02-22T17:32:15Z</time>
      </trkpt>
      <trkpt lat="39.0563080" lon="1.4934370">
        <ele>104.7</ele>
        <time>2020-02-22T17:32:16Z</time>
      </trkpt>
      <trkpt lat="39.0562310" lon="1.4934160">
        <ele>104.5</ele>
        <time>2020-02-22T17:32:17Z</time>
      </trkpt>
      <trkpt lat="39.0561500" lon="1.4933940">
        <ele>104.2</ele>
        <time>2020-02-22T17:32:18Z</time>
      </trkpt>
      <trkpt lat="39.0560770" lon="1.4933710">
        <ele>104.0</ele>
        <time>2020-02-22T17:32:19Z</time>
      </trkpt>
      <trkpt lat="39.0559980" lon="1.4933510">
        <ele>103.8</ele>
        <time>2020-02-22T17:32:20Z</time>
      </trkpt>
      <trkpt lat="39.0559170" lon="1.4933320">
        <ele>103.6</ele>
        <time>2020-02-22T17:32:21Z</time>
      </trkpt>
      <trkpt lat="39.0558380" lon="1.4933100">
        <ele>103.4</ele>
        <time>2020-02-22T17:32:22Z</time>
      </trkpt>
      <trkpt lat="39.0557590" lon="1.4932870">
        <ele>103.2</ele>
        <time>2020-02-22T17:32:23Z</time>
      </trkpt>
      <trkpt lat="39.0556810" lon="1.4932670">
        <ele>103.0</ele>
        <time>2020-02-22T17:32:24Z</time>
      </trkpt>
      <trkpt lat="39.0556050" lon="1.4932460">
        <ele>102.8</ele>
        <time>2020-02-22T17:32:25Z</time>
      </trkpt>
      <trkpt lat="39.0555270" lon="1.4932240">
        <ele>102.6</ele>
        <time>2020-02-22T17:32:26Z</time>
      </trkpt>
      <trkpt lat="39.0554520" lon="1.4932000">
        <ele>102.4</ele>
        <time>2020-02-22T17:32:27Z</time>
      </trkpt>
      <trkpt lat="39.0553780" lon="1.4931740">
        <ele>102.2</ele>
        <time>2020-02-22T17:32:28Z</time>
      </trkpt>
      <trkpt lat="39.0552970" lon="1.4931450">
        <ele>102.0</ele>
        <time>2020-02-22T17:32:29Z</time>
      </trkpt>
      <trkpt lat="39.0552160" lon="1.4931180">
        <ele>101.7</ele>
        <time>2020-02-22T17:32:30Z</time>
      </trkpt>
      <trkpt lat="39.0551360" lon="1.4930900">
        <ele>101.5</ele>
        <time>2020-02-22T17:32:31Z</time>
      </trkpt>
      <trkpt lat="39.0550560" lon="1.4930960">
        <ele>101.3</ele>
        <time>2020-02-22T17:32:32Z</time>
      </trkpt>
      <trkpt lat="39.0549780" lon="1.4930780">
        <ele>101.1</ele>
        <time>2020-02-22T17:32:33Z</time>
      </trkpt>
      <trkpt lat="39.0548960" lon="1.4930560">
        <ele>100.8</ele>
        <time>2020-02-22T17:32:34Z</time>
      </trkpt>
      <trkpt lat="39.0548190" lon="1.4930340">
        <ele>100.6</ele>
        <time>2020-02-22T17:32:35Z</time>
      </trkpt>
      <trkpt lat="39.0547410" lon="1.4930130">
        <ele>100.4</ele>
        <time>2020-02-22T17:32:36Z</time>
      </trkpt>
      <trkpt lat="39.0546720" lon="1.4929940">
        <ele>100.3</ele>
        <time>2020-02-22T17:32:37Z</time>
      </trkpt>
      <trkpt lat="39.0545970" lon="1.4929730">
        <ele>100.1</ele>
        <time>2020-02-22T17:32:38Z</time>
      </trkpt>
      <trkpt lat="39.0545230" lon="1.4929520">
        <ele>99.9</ele>
        <time>2020-02-22T17:32:39Z</time>
      </trkpt>
      <trkpt lat="39.0544510" lon="1.4929330">
        <ele>99.8</ele>
        <time>2020-02-22T17:32:40Z</time>
      </trkpt>
      <trkpt lat="39.0543730" lon="1.4929110">
        <ele>99.6</ele>
        <time>2020-02-22T17:32:41Z</time>
      </trkpt>
      <trkpt lat="39.0542930" lon="1.4928890">
        <ele>99.5</ele>
        <time>2020-02-22T17:32:42Z</time>
      </trkpt>
      <trkpt lat="39.0542110" lon="1.4928700">
        <ele>99.3</ele>
        <time>2020-02-22T17:32:43Z</time>
      </trkpt>
      <trkpt lat="39.0541430" lon="1.4928530">
        <ele>99.3</ele>
        <time>2020-02-22T17:32:44Z</time>
      </trkpt>
      <trkpt lat="39.0540680" lon="1.4928330">
        <ele>99.2</ele>
        <time>2020-02-22T17:32:45Z</time>
      </trkpt>
      <trkpt lat="39.0539960" lon="1.4928160">
        <ele>99.1</ele>
        <time>2020-02-22T17:32:46Z</time>
      </trkpt>
      <trkpt lat="39.0539240" lon="1.4927980">
        <ele>99.0</ele>
        <time>2020-02-22T17:32:47Z</time>
      </trkpt>
      <trkpt lat="39.0538490" lon="1.4927800">
        <ele>98.8</ele>
        <time>2020-02-22T17:32:48Z</time>
      </trkpt>
      <trkpt lat="39.0537760" lon="1.4927550">
        <ele>98.7</ele>
        <time>2020-02-22T17:32:49Z</time>
      </trkpt>
      <trkpt lat="39.0537000" lon="1.4927250">
        <ele>98.4</ele>
        <time>2020-02-22T17:32:50Z</time>
      </trkpt>
      <trkpt lat="39.0536250" lon="1.4926910">
        <ele>98.2</ele>
        <time>2020-02-22T17:32:51Z</time>
      </trkpt>
      <trkpt lat="39.0535520" lon="1.4926530">
        <ele>98.0</ele>
        <time>2020-02-22T17:32:52Z</time>
      </trkpt>
      <trkpt lat="39.0534780" lon="1.4926080">
        <ele>97.7</ele>
        <time>2020-02-22T17:32:53Z</time>
      </trkpt>
      <trkpt lat="39.0534090" lon="1.4925630">
        <ele>97.3</ele>
        <time>2020-02-22T17:32:54Z</time>
      </trkpt>
      <trkpt lat="39.0533360" lon="1.4925100">
        <ele>97.1</ele>
        <time>2020-02-22T17:32:55Z</time>
      </trkpt>
      <trkpt lat="39.0532620" lon="1.4924580">
        <ele>96.9</ele>
        <time>2020-02-22T17:32:56Z</time>
      </trkpt>
      <trkpt lat="39.0531930" lon="1.4924090">
        <ele>96.7</ele>
        <time>2020-02-22T17:32:57Z</time>
      </trkpt>
      <trkpt lat="39.0531270" lon="1.4923590">
        <ele>96.4</ele>
        <time>2020-02-22T17:32:58Z</time>
      </trkpt>
      <trkpt lat="39.0530610" lon="1.4923120">
        <ele>96.2</ele>
        <time>2020-02-22T17:32:59Z</time>
      </trkpt>
      <trkpt lat="39.0529920" lon="1.4922590">
        <ele>95.5</ele>
        <time>2020-02-22T17:33:00Z</time>
      </trkpt>
      <trkpt lat="39.0529370" lon="1.4922110">
        <ele>95.3</ele>
        <time>2020-02-22T17:33:01Z</time>
      </trkpt>
      <trkpt lat="39.0528880" lon="1.4921600">
        <ele>95.2</ele>
        <time>2020-02-22T17:33:02Z</time>
      </trkpt>
      <trkpt lat="39.0528340" lon="1.4921010">
        <ele>95.0</ele>
        <time>2020-02-22T17:33:03Z</time>
      </trkpt>
      <trkpt lat="39.0527830" lon="1.4920440">
        <ele>94.8</ele>
        <time>2020-02-22T17:33:04Z</time>
      </trkpt>
      <trkpt lat="39.0527280" lon="1.4919870">
        <ele>94.7</ele>
        <time>2020-02-22T17:33:05Z</time>
      </trkpt>
      <trkpt lat="39.0526800" lon="1.4919380">
        <ele>94.6</ele>
        <time>2020-02-22T17:33:06Z</time>
      </trkpt>
      <trkpt lat="39.0526320" lon="1.4918770">
        <ele>94.6</ele>
        <time>2020-02-22T17:33:07Z</time>
      </trkpt>
      <trkpt lat="39.0525850" lon="1.4918230">
        <ele>94.6</ele>
        <time>2020-02-22T17:33:08Z</time>
      </trkpt>
      <trkpt lat="39.0525340" lon="1.4917660">
        <ele>94.6</ele>
        <time>2020-02-22T17:33:09Z</time>
      </trkpt>
      <trkpt lat="39.0524810" lon="1.4917100">
        <ele>94.5</ele>
        <time>2020-02-22T17:33:10Z</time>
      </trkpt>
      <trkpt lat="39.0524290" lon="1.4916580">
        <ele>94.5</ele>
        <time>2020-02-22T17:33:11Z</time>
      </trkpt>
      <trkpt lat="39.0523760" lon="1.4916050">
        <ele>94.4</ele>
        <time>2020-02-22T17:33:12Z</time>
      </trkpt>
      <trkpt lat="39.0523220" lon="1.4915480">
        <ele>94.3</ele>
        <time>2020-02-22T17:33:13Z</time>
      </trkpt>
      <trkpt lat="39.0522690" lon="1.4914930">
        <ele>94.2</ele>
        <time>2020-02-22T17:33:14Z</time>
      </trkpt>
      <trkpt lat="39.0522180" lon="1.4914420">
        <ele>94.0</ele>
        <time>2020-02-22T17:33:15Z</time>
      </trkpt>
      <trkpt lat="39.0521700" lon="1.4913950">
        <ele>93.9</ele>
        <time>2020-02-22T17:33:16Z</time>
      </trkpt>
      <trkpt lat="39.0521150" lon="1.4913400">
        <ele>93.8</ele>
        <time>2020-02-22T17:33:17Z</time>
      </trkpt>
      <trkpt lat="39.0520650" lon="1.4912900">
        <ele>93.7</ele>
        <time>2020-02-22T17:33:18Z</time>
      </trkpt>
      <trkpt lat="39.0520180" lon="1.4912420">
        <ele>93.7</ele>
        <time>2020-02-22T17:33:19Z</time>
      </trkpt>
      <trkpt lat="39.0519800" lon="1.4911800">
        <ele>93.9</ele>
        <time>2020-02-22T17:33:20Z</time>
      </trkpt>
      <trkpt lat="39.0519560" lon="1.4911050">
        <ele>94.0</ele>
        <time>2020-02-22T17:33:21Z</time>
      </trkpt>
      <trkpt lat="39.0519360" lon="1.4910400">
        <ele>94.1</ele>
        <time>2020-02-22T17:33:22Z</time>
      </trkpt>
      <trkpt lat="39.0519090" lon="1.4909730">
        <ele>94.1</ele>
        <time>2020-02-22T17:33:23Z</time>
      </trkpt>
      <trkpt lat="39.0518720" lon="1.4909190">
        <ele>93.9</ele>
        <time>2020-02-22T17:33:24Z</time>
      </trkpt>
      <trkpt lat="39.0518250" lon="1.4908840">
        <ele>93.8</ele>
        <time>2020-02-22T17:33:25Z</time>
      </trkpt>
      <trkpt lat="39.0517800" lon="1.4908620">
        <ele>93.5</ele>
        <time>2020-02-22T17:33:26Z</time>
      </trkpt>
      <trkpt lat="39.0517230" lon="1.4908600">
        <ele>93.4</ele>
        <time>2020-02-22T17:33:27Z</time>
      </trkpt>
      <trkpt lat="39.0516590" lon="1.4908780">
        <ele>93.3</ele>
        <time>2020-02-22T17:33:28Z</time>
      </trkpt>
      <trkpt lat="39.0516040" lon="1.4908920">
        <ele>92.9</ele>
        <time>2020-02-22T17:33:29Z</time>
      </trkpt>
      <trkpt lat="39.0515490" lon="1.4909020">
        <ele>92.9</ele>
        <time>2020-02-22T17:33:30Z</time>
      </trkpt>
      <trkpt lat="39.0514920" lon="1.4908880">
        <ele>92.9</ele>
        <time>2020-02-22T17:33:31Z</time>
      </trkpt>
      <trkpt lat="39.0514360" lon="1.4908570">
        <ele>92.8</ele>
        <time>2020-02-22T17:33:32Z</time>
      </trkpt>
      <trkpt lat="39.0513780" lon="1.4908200">
        <ele>92.8</ele>
        <time>2020-02-22T17:33:33Z</time>
      </trkpt>
      <trkpt lat="39.0513170" lon="1.4907900">
        <ele>92.7</ele>
        <time>2020-02-22T17:33:34Z</time>
      </trkpt>
      <trkpt lat="39.0512590" lon="1.4907650">
        <ele>92.6</ele>
        <time>2020-02-22T17:33:35Z</time>
      </trkpt>
      <trkpt lat="39.0511970" lon="1.4907440">
        <ele>92.5</ele>
        <time>2020-02-22T17:33:36Z</time>
      </trkpt>
      <trkpt lat="39.0511290" lon="1.4907250">
        <ele>92.4</ele>
        <time>2020-02-22T17:33:37Z</time>
      </trkpt>
      <trkpt lat="39.0510700" lon="1.4907050">
        <ele>92.4</ele>
        <time>2020-02-22T17:33:38Z</time>
      </trkpt>
      <trkpt lat="39.0510120" lon="1.4906860">
        <ele>92.3</ele>
        <time>2020-02-22T17:33:39Z</time>
      </trkpt>
      <trkpt lat="39.0509600" lon="1.4906700">
        <ele>92.3</ele>
        <time>2020-02-22T17:33:40Z</time>
      </trkpt>
      <trkpt lat="39.0509070" lon="1.4906520">
        <ele>92.2</ele>
        <time>2020-02-22T17:33:41Z</time>
      </trkpt>
      <trkpt lat="39.0508450" lon="1.4906390">
        <ele>92.2</ele>
        <time>2020-02-22T17:33:42Z</time>
      </trkpt>
      <trkpt lat="39.0507900" lon="1.4906290">
        <ele>92.2</ele>
        <time>2020-02-22T17:33:43Z</time>
      </trkpt>
      <trkpt lat="39.0507250" lon="1.4906220">
        <ele>92.2</ele>
        <time>2020-02-22T17:33:44Z</time>
      </trkpt>
      <trkpt lat="39.0506550" lon="1.4906110">
        <ele>92.2</ele>
        <time>2020-02-22T17:33:45Z</time>
      </trkpt>
      <trkpt lat="39.0505750" lon="1.4906080">
        <ele>92.2</ele>
        <time>2020-02-22T17:33:46Z</time>
      </trkpt>
      <trkpt lat="39.0505060" lon="1.4906090">
        <ele>92.2</ele>
        <time>2020-02-22T17:33:47Z</time>
      </trkpt>
      <trkpt lat="39.0504410" lon="1.4906090">
        <ele>92.2</ele>
        <time>2020-02-22T17:33:48Z</time>
      </trkpt>
      <trkpt lat="39.0503750" lon="1.4906070">
        <ele>92.2</ele>
        <time>2020-02-22T17:33:49Z</time>
      </trkpt>
      <trkpt lat="39.0503120" lon="1.4906120">
        <ele>92.2</ele>
        <time>2020-02-22T17:33:50Z</time>
      </trkpt>
      <trkpt lat="39.0502480" lon="1.4906180">
        <ele>92.2</ele>
        <time>2020-02-22T17:33:51Z</time>
      </trkpt>
      <trkpt lat="39.0501830" lon="1.4906320">
        <ele>92.3</ele>
        <time>2020-02-22T17:33:52Z</time>
      </trkpt>
      <trkpt lat="39.0501210" lon="1.4906440">
        <ele>92.3</ele>
        <time>2020-02-22T17:33:53Z</time>
      </trkpt>
      <trkpt lat="39.0500570" lon="1.4906550">
        <ele>92.3</ele>
        <time>2020-02-22T17:33:54Z</time>
      </trkpt>
      <trkpt lat="39.0499970" lon="1.4906700">
        <ele>92.3</ele>
        <time>2020-02-22T17:33:55Z</time>
      </trkpt>
      <trkpt lat="39.0499330" lon="1.4906840">
        <ele>92.3</ele>
        <time>2020-02-22T17:33:56Z</time>
      </trkpt>
      <trkpt lat="39.0498680" lon="1.4907020">
        <ele>92.3</ele>
        <time>2020-02-22T17:33:57Z</time>
      </trkpt>
      <trkpt lat="39.0498050" lon="1.4907210">
        <ele>92.3</ele>
        <time>2020-02-22T17:33:58Z</time>
      </trkpt>
      <trkpt lat="39.0497420" lon="1.4907420">
        <ele>92.3</ele>
        <time>2020-02-22T17:33:59Z</time>
      </trkpt>
      <trkpt lat="39.0496800" lon="1.4907660">
        <ele>92.4</ele>
        <time>2020-02-22T17:34:00Z</time>
      </trkpt>
      <trkpt lat="39.0496150" lon="1.4907860">
        <ele>92.4</ele>
        <time>2020-02-22T17:34:01Z</time>
      </trkpt>
      <trkpt lat="39.0495490" lon="1.4908080">
        <ele>92.4</ele>
        <time>2020-02-22T17:34:02Z</time>
      </trkpt>
      <trkpt lat="39.0494840" lon="1.4908320">
        <ele>92.4</ele>
        <time>2020-02-22T17:34:03Z</time>
      </trkpt>
      <trkpt lat="39.0494200" lon="1.4908470">
        <ele>92.5</ele>
        <time>2020-02-22T17:34:04Z</time>
      </trkpt>
      <trkpt lat="39.0493560" lon="1.4908620">
        <ele>92.5</ele>
        <time>2020-02-22T17:34:05Z</time>
      </trkpt>
      <trkpt lat="39.0492930" lon="1.4908770">
        <ele>92.5</ele>
        <time>2020-02-22T17:34:06Z</time>
      </trkpt>
      <trkpt lat="39.0492290" lon="1.4908950">
        <ele>92.5</ele>
        <time>2020-02-22T17:34:07Z</time>
      </trkpt>
      <trkpt lat="39.0491620" lon="1.4909070">
        <ele>92.5</ele>
        <time>2020-02-22T17:34:08Z</time>
      </trkpt>
      <trkpt lat="39.0491000" lon="1.4909240">
        <ele>92.5</ele>
        <time>2020-02-22T17:34:09Z</time>
      </trkpt>
      <trkpt lat="39.0490380" lon="1.4909400">
        <ele>92.5</ele>
        <time>2020-02-22T17:34:10Z</time>
      </trkpt>
      <trkpt lat="39.0489750" lon="1.4909520">
        <ele>92.4</ele>
        <time>2020-02-22T17:34:11Z</time>
      </trkpt>
      <trkpt lat="39.0489150" lon="1.4909660">
        <ele>92.4</ele>
        <time>2020-02-22T17:34:12Z</time>
      </trkpt>
      <trkpt lat="39.0488520" lon="1.4909790">
        <ele>92.4</ele>
        <time>2020-02-22T17:34:13Z</time>
      </trkpt>
      <trkpt lat="39.0487890" lon="1.4909930">
        <ele>92.3</ele>
        <time>2020-02-22T17:34:14Z</time>
      </trkpt>
      <trkpt lat="39.0487240" lon="1.4910070">
        <ele>92.2</ele>
        <time>2020-02-22T17:34:15Z</time>
      </trkpt>
      <trkpt lat="39.0486600" lon="1.4910250">
        <ele>92.0</ele>
        <time>2020-02-22T17:34:16Z</time>
      </trkpt>
      <trkpt lat="39.0485950" lon="1.4910420">
        <ele>91.9</ele>
        <time>2020-02-22T17:34:17Z</time>
      </trkpt>
      <trkpt lat="39.0485310" lon="1.4910570">
        <ele>91.7</ele>
        <time>2020-02-22T17:34:18Z</time>
      </trkpt>
      <trkpt lat="39.0484670" lon="1.4910710">
        <ele>91.6</ele>
        <time>2020-02-22T17:34:19Z</time>
      </trkpt>
      <trkpt lat="39.0484040" lon="1.4910860">
        <ele>91.6</ele>
        <time>2020-02-22T17:34:20Z</time>
      </trkpt>
      <trkpt lat="39.0483400" lon="1.4910970">
        <ele>91.5</ele>
        <time>2020-02-22T17:34:21Z</time>
      </trkpt>
      <trkpt lat="39.0482770" lon="1.4911110">
        <ele>91.5</ele>
        <time>2020-02-22T17:34:22Z</time>
      </trkpt>
      <trkpt lat="39.0482140" lon="1.4911290">
        <ele>91.5</ele>
        <time>2020-02-22T17:34:23Z</time>
      </trkpt>
      <trkpt lat="39.0481500" lon="1.4911450">
        <ele>91.5</ele>
        <time>2020-02-22T17:34:24Z</time>
      </trkpt>
      <trkpt lat="39.0480890" lon="1.4911460">
        <ele>91.5</ele>
        <time>2020-02-22T17:34:25Z</time>
      </trkpt>
      <trkpt lat="39.0480230" lon="1.4911510">
        <ele>91.5</ele>
        <time>2020-02-22T17:34:26Z</time>
      </trkpt>
      <trkpt lat="39.0479610" lon="1.4911610">
        <ele>91.5</ele>
        <time>2020-02-22T17:34:27Z</time>
      </trkpt>
      <trkpt lat="39.0478980" lon="1.4911700">
        <ele>91.6</ele>
        <time>2020-02-22T17:34:28Z</time>
      </trkpt>
      <trkpt lat="39.0478340" lon="1.4911790">
        <ele>91.6</ele>
        <time>2020-02-22T17:34:29Z</time>
      </trkpt>
      <trkpt lat="39.0477700" lon="1.4911900">
        <ele>91.7</ele>
        <time>2020-02-22T17:34:30Z</time>
      </trkpt>
      <trkpt lat="39.0477070" lon="1.4912050">
        <ele>91.8</ele>
        <time>2020-02-22T17:34:31Z</time>
      </trkpt>
      <trkpt lat="39.0476470" lon="1.4912150">
        <ele>91.9</ele>
        <time>2020-02-22T17:34:32Z</time>
      </trkpt>
      <trkpt lat="39.0475860" lon="1.4912230">
        <ele>92.0</ele>
        <time>2020-02-22T17:34:33Z</time>
      </trkpt>
      <trkpt lat="39.0475230" lon="1.4912320">
        <ele>92.2</ele>
        <time>2020-02-22T17:34:34Z</time>
      </trkpt>
      <trkpt lat="39.0474600" lon="1.4912470">
        <ele>92.3</ele>
        <time>2020-02-22T17:34:35Z</time>
      </trkpt>
      <trkpt lat="39.0473980" lon="1.4912650">
        <ele>92.4</ele>
        <time>2020-02-22T17:34:36Z</time>
      </trkpt>
      <trkpt lat="39.0473350" lon="1.4912800">
        <ele>92.5</ele>
        <time>2020-02-22T17:34:37Z</time>
      </trkpt>
      <trkpt lat="39.0472700" lon="1.4912930">
        <ele>92.5</ele>
        <time>2020-02-22T17:34:38Z</time>
      </trkpt>
      <trkpt lat="39.0472040" lon="1.4913010">
        <ele>92.5</ele>
        <time>2020-02-22T17:34:39Z</time>
      </trkpt>
      <trkpt lat="39.0471320" lon="1.4913120">
        <ele>92.5</ele>
        <time>2020-02-22T17:34:40Z</time>
      </trkpt>
      <trkpt lat="39.0470740" lon="1.4913260">
        <ele>92.5</ele>
        <time>2020-02-22T17:34:41Z</time>
      </trkpt>
      <trkpt lat="39.0470140" lon="1.4913300">
        <ele>92.6</ele>
        <time>2020-02-22T17:34:42Z</time>
      </trkpt>
      <trkpt lat="39.0469540" lon="1.4913350">
        <ele>92.6</ele>
        <time>2020-02-22T17:34:43Z</time>
      </trkpt>
      <trkpt lat="39.0468950" lon="1.4913420">
        <ele>92.6</ele>
        <time>2020-02-22T17:34:44Z</time>
      </trkpt>
      <trkpt lat="39.0468310" lon="1.4913500">
        <ele>92.6</ele>
        <time>2020-02-22T17:34:45Z</time>
      </trkpt>
      <trkpt lat="39.0467770" lon="1.4913550">
        <ele>92.7</ele>
        <time>2020-02-22T17:34:46Z</time>
      </trkpt>
      <trkpt lat="39.0467120" lon="1.4913670">
        <ele>92.8</ele>
        <time>2020-02-22T17:34:47Z</time>
      </trkpt>
      <trkpt lat="39.0466480" lon="1.4913760">
        <ele>92.9</ele>
        <time>2020-02-22T17:34:48Z</time>
      </trkpt>
      <trkpt lat="39.0465850" lon="1.4913820">
        <ele>93.1</ele>
        <time>2020-02-22T17:34:49Z</time>
      </trkpt>
      <trkpt lat="39.0465220" lon="1.4913840">
        <ele>93.6</ele>
        <time>2020-02-22T17:34:50Z</time>
      </trkpt>
      <trkpt lat="39.0464600" lon="1.4913960">
        <ele>93.5</ele>
        <time>2020-02-22T17:34:51Z</time>
      </trkpt>
      <trkpt lat="39.0463950" lon="1.4913980">
        <ele>93.5</ele>
        <time>2020-02-22T17:34:52Z</time>
      </trkpt>
      <trkpt lat="39.0463330" lon="1.4914040">
        <ele>93.4</ele>
        <time>2020-02-22T17:34:53Z</time>
      </trkpt>
      <trkpt lat="39.0462680" lon="1.4914110">
        <ele>93.3</ele>
        <time>2020-02-22T17:34:54Z</time>
      </trkpt>
      <trkpt lat="39.0462000" lon="1.4914130">
        <ele>93.1</ele>
        <time>2020-02-22T17:34:55Z</time>
      </trkpt>
      <trkpt lat="39.0461330" lon="1.4914190">
        <ele>92.9</ele>
        <time>2020-02-22T17:34:56Z</time>
      </trkpt>
      <trkpt lat="39.0460670" lon="1.4914260">
        <ele>92.7</ele>
        <time>2020-02-22T17:34:57Z</time>
      </trkpt>
      <trkpt lat="39.0459990" lon="1.4914350">
        <ele>92.6</ele>
        <time>2020-02-22T17:34:58Z</time>
      </trkpt>
      <trkpt lat="39.0459300" lon="1.4914440">
        <ele>92.6</ele>
        <time>2020-02-22T17:34:59Z</time>
      </trkpt>
      <trkpt lat="39.0458600" lon="1.4914490">
        <ele>92.6</ele>
        <time>2020-02-22T17:35:00Z</time>
      </trkpt>
      <trkpt lat="39.0457920" lon="1.4914560">
        <ele>92.6</ele>
        <time>2020-02-22T17:35:01Z</time>
      </trkpt>
      <trkpt lat="39.0457220" lon="1.4914600">
        <ele>92.6</ele>
        <time>2020-02-22T17:35:02Z</time>
      </trkpt>
      <trkpt lat="39.0456560" lon="1.4914670">
        <ele>92.6</ele>
        <time>2020-02-22T17:35:03Z</time>
      </trkpt>
      <trkpt lat="39.0455850" lon="1.4914720">
        <ele>92.6</ele>
        <time>2020-02-22T17:35:04Z</time>
      </trkpt>
      <trkpt lat="39.0455140" lon="1.4914830">
        <ele>92.6</ele>
        <time>2020-02-22T17:35:05Z</time>
      </trkpt>
      <trkpt lat="39.0454410" lon="1.4914920">
        <ele>92.6</ele>
        <time>2020-02-22T17:35:06Z</time>
      </trkpt>
      <trkpt lat="39.0453800" lon="1.4914960">
        <ele>92.6</ele>
        <time>2020-02-22T17:35:07Z</time>
      </trkpt>
      <trkpt lat="39.0453190" lon="1.4915050">
        <ele>92.6</ele>
        <time>2020-02-22T17:35:08Z</time>
      </trkpt>
      <trkpt lat="39.0452560" lon="1.4915130">
        <ele>92.6</ele>
        <time>2020-02-22T17:35:09Z</time>
      </trkpt>
      <trkpt lat="39.0451860" lon="1.4915180">
        <ele>92.6</ele>
        <time>2020-02-22T17:35:10Z</time>
      </trkpt>
      <trkpt lat="39.0451140" lon="1.4915220">
        <ele>92.6</ele>
        <time>2020-02-22T17:35:11Z</time>
      </trkpt>
      <trkpt lat="39.0450420" lon="1.4915270">
        <ele>92.6</ele>
        <time>2020-02-22T17:35:12Z</time>
      </trkpt>
      <trkpt lat="39.0449710" lon="1.4915330">
        <ele>92.6</ele>
        <time>2020-02-22T17:35:13Z</time>
      </trkpt>
      <trkpt lat="39.0449040" lon="1.4915410">
        <ele>92.6</ele>
        <time>2020-02-22T17:35:14Z</time>
      </trkpt>
      <trkpt lat="39.0448370" lon="1.4915510">
        <ele>92.6</ele>
        <time>2020-02-22T17:35:15Z</time>
      </trkpt>
      <trkpt lat="39.0447690" lon="1.4915570">
        <ele>92.6</ele>
        <time>2020-02-22T17:35:16Z</time>
      </trkpt>
      <trkpt lat="39.0447050" lon="1.4915660">
        <ele>92.6</ele>
        <time>2020-02-22T17:35:17Z</time>
      </trkpt>
      <trkpt lat="39.0446350" lon="1.4915720">
        <ele>92.6</ele>
        <time>2020-02-22T17:35:18Z</time>
      </trkpt>
      <trkpt lat="39.0445670" lon="1.4915810">
        <ele>92.6</ele>
        <time>2020-02-22T17:35:19Z</time>
      </trkpt>
      <trkpt lat="39.0445000" lon="1.4915890">
        <ele>92.6</ele>
        <time>2020-02-22T17:35:20Z</time>
      </trkpt>
      <trkpt lat="39.0444300" lon="1.4915950">
        <ele>92.6</ele>
        <time>2020-02-22T17:35:21Z</time>
      </trkpt>
      <trkpt lat="39.0443590" lon="1.4916000">
        <ele>92.6</ele>
        <time>2020-02-22T17:35:22Z</time>
      </trkpt>
      <trkpt lat="39.0442880" lon="1.4916040">
        <ele>92.5</ele>
        <time>2020-02-22T17:35:23Z</time>
      </trkpt>
      <trkpt lat="39.0442190" lon="1.4916100">
        <ele>92.5</ele>
        <time>2020-02-22T17:35:24Z</time>
      </trkpt>
      <trkpt lat="39.0441440" lon="1.4916180">
        <ele>92.5</ele>
        <time>2020-02-22T17:35:25Z</time>
      </trkpt>
      <trkpt lat="39.0440760" lon="1.4916310">
        <ele>92.4</ele>
        <time>2020-02-22T17:35:26Z</time>
      </trkpt>
      <trkpt lat="39.0440090" lon="1.4916470">
        <ele>92.2</ele>
        <time>2020-02-22T17:35:27Z</time>
      </trkpt>
      <trkpt lat="39.0439430" lon="1.4916630">
        <ele>92.0</ele>
        <time>2020-02-22T17:35:28Z</time>
      </trkpt>
      <trkpt lat="39.0438700" lon="1.4916750">
        <ele>91.8</ele>
        <time>2020-02-22T17:35:29Z</time>
      </trkpt>
      <trkpt lat="39.0438070" lon="1.4916860">
        <ele>91.7</ele>
        <time>2020-02-22T17:35:30Z</time>
      </trkpt>
      <trkpt lat="39.0437390" lon="1.4917040">
        <ele>91.6</ele>
        <time>2020-02-22T17:35:31Z</time>
      </trkpt>
      <trkpt lat="39.0436750" lon="1.4917150">
        <ele>91.6</ele>
        <time>2020-02-22T17:35:32Z</time>
      </trkpt>
      <trkpt lat="39.0436070" lon="1.4917240">
        <ele>91.6</ele>
        <time>2020-02-22T17:35:33Z</time>
      </trkpt>
      <trkpt lat="39.0435550" lon="1.4917840">
        <ele>91.6</ele>
        <time>2020-02-22T17:35:34Z</time>
      </trkpt>
      <trkpt lat="39.0434830" lon="1.4917930">
        <ele>91.6</ele>
        <time>2020-02-22T17:35:35Z</time>
      </trkpt>
      <trkpt lat="39.0434160" lon="1.4917990">
        <ele>91.6</ele>
        <time>2020-02-22T17:35:36Z</time>
      </trkpt>
      <trkpt lat="39.0433470" lon="1.4918060">
        <ele>91.6</ele>
        <time>2020-02-22T17:35:37Z</time>
      </trkpt>
      <trkpt lat="39.0432730" lon="1.4918120">
        <ele>91.6</ele>
        <time>2020-02-22T17:35:38Z</time>
      </trkpt>
      <trkpt lat="39.0432010" lon="1.4918210">
        <ele>91.6</ele>
        <time>2020-02-22T17:35:39Z</time>
      </trkpt>
      <trkpt lat="39.0431310" lon="1.4918260">
        <ele>91.6</ele>
        <time>2020-02-22T17:35:40Z</time>
      </trkpt>
      <trkpt lat="39.0430610" lon="1.4918300">
        <ele>91.6</ele>
        <time>2020-02-22T17:35:41Z</time>
      </trkpt>
      <trkpt lat="39.0429930" lon="1.4918340">
        <ele>91.6</ele>
        <time>2020-02-22T17:35:42Z</time>
      </trkpt>
      <trkpt lat="39.0429310" lon="1.4918770">
        <ele>91.6</ele>
        <time>2020-02-22T17:35:43Z</time>
      </trkpt>
      <trkpt lat="39.0428680" lon="1.4918890">
        <ele>91.6</ele>
        <time>2020-02-22T17:35:44Z</time>
      </trkpt>
      <trkpt lat="39.0428030" lon="1.4918990">
        <ele>91.6</ele>
        <time>2020-02-22T17:35:45Z</time>
      </trkpt>
      <trkpt lat="39.0427390" lon="1.4919080">
        <ele>91.6</ele>
        <time>2020-02-22T17:35:46Z</time>
      </trkpt>
      <trkpt lat="39.0426720" lon="1.4919170">
        <ele>91.6</ele>
        <time>2020-02-22T17:35:47Z</time>
      </trkpt>
      <trkpt lat="39.0426050" lon="1.4919270">
        <ele>91.6</ele>
        <time>2020-02-22T17:35:48Z</time>
      </trkpt>
      <trkpt lat="39.0425380" lon="1.4919370">
        <ele>91.6</ele>
        <time>2020-02-22T17:35:49Z</time>
      </trkpt>
      <trkpt lat="39.0424700" lon="1.4919460">
        <ele>91.6</ele>
        <time>2020-02-22T17:35:50Z</time>
      </trkpt>
      <trkpt lat="39.0424030" lon="1.4919550">
        <ele>91.6</ele>
        <time>2020-02-22T17:35:51Z</time>
      </trkpt>
      <trkpt lat="39.0423350" lon="1.4919660">
        <ele>91.6</ele>
        <time>2020-02-22T17:35:52Z</time>
      </trkpt>
      <trkpt lat="39.0422700" lon="1.4919750">
        <ele>91.6</ele>
        <time>2020-02-22T17:35:53Z</time>
      </trkpt>
      <trkpt lat="39.0422030" lon="1.4919830">
        <ele>91.6</ele>
        <time>2020-02-22T17:35:54Z</time>
      </trkpt>
      <trkpt lat="39.0421370" lon="1.4919900">
        <ele>91.6</ele>
        <time>2020-02-22T17:35:55Z</time>
      </trkpt>
      <trkpt lat="39.0420710" lon="1.4919990">
        <ele>91.6</ele>
        <time>2020-02-22T17:35:56Z</time>
      </trkpt>
      <trkpt lat="39.0420040" lon="1.4920060">
        <ele>91.6</ele>
        <time>2020-02-22T17:35:57Z</time>
      </trkpt>
      <trkpt lat="39.0419360" lon="1.4920120">
        <ele>91.6</ele>
        <time>2020-02-22T17:35:58Z</time>
      </trkpt>
      <trkpt lat="39.0418680" lon="1.4920170">
        <ele>91.6</ele>
        <time>2020-02-22T17:35:59Z</time>
      </trkpt>
      <trkpt lat="39.0418000" lon="1.4920200">
        <ele>91.7</ele>
        <time>2020-02-22T17:36:00Z</time>
      </trkpt>
      <trkpt lat="39.0417370" lon="1.4920240">
        <ele>91.7</ele>
        <time>2020-02-22T17:36:01Z</time>
      </trkpt>
      <trkpt lat="39.0416760" lon="1.4920470">
        <ele>91.7</ele>
        <time>2020-02-22T17:36:02Z</time>
      </trkpt>
      <trkpt lat="39.0416100" lon="1.4920570">
        <ele>91.7</ele>
        <time>2020-02-22T17:36:03Z</time>
      </trkpt>
      <trkpt lat="39.0415430" lon="1.4920660">
        <ele>91.8</ele>
        <time>2020-02-22T17:36:04Z</time>
      </trkpt>
      <trkpt lat="39.0414710" lon="1.4920720">
        <ele>91.8</ele>
        <time>2020-02-22T17:36:05Z</time>
      </trkpt>
      <trkpt lat="39.0414040" lon="1.4920790">
        <ele>91.9</ele>
        <time>2020-02-22T17:36:06Z</time>
      </trkpt>
      <trkpt lat="39.0413380" lon="1.4920860">
        <ele>92.0</ele>
        <time>2020-02-22T17:36:07Z</time>
      </trkpt>
      <trkpt lat="39.0412770" lon="1.4920930">
        <ele>92.1</ele>
        <time>2020-02-22T17:36:08Z</time>
      </trkpt>
      <trkpt lat="39.0412130" lon="1.4920940">
        <ele>92.2</ele>
        <time>2020-02-22T17:36:09Z</time>
      </trkpt>
      <trkpt lat="39.0411410" lon="1.4921000">
        <ele>92.4</ele>
        <time>2020-02-22T17:36:10Z</time>
      </trkpt>
      <trkpt lat="39.0410710" lon="1.4921070">
        <ele>92.6</ele>
        <time>2020-02-22T17:36:11Z</time>
      </trkpt>
      <trkpt lat="39.0410070" lon="1.4921130">
        <ele>92.7</ele>
        <time>2020-02-22T17:36:12Z</time>
      </trkpt>
      <trkpt lat="39.0409430" lon="1.4921130">
        <ele>92.9</ele>
        <time>2020-02-22T17:36:13Z</time>
      </trkpt>
      <trkpt lat="39.0408740" lon="1.4921090">
        <ele>93.1</ele>
        <time>2020-02-22T17:36:14Z</time>
      </trkpt>
      <trkpt lat="39.0408070" lon="1.4921130">
        <ele>93.2</ele>
        <time>2020-02-22T17:36:15Z</time>
      </trkpt>
      <trkpt lat="39.0407530" lon="1.4921160">
        <ele>93.4</ele>
        <time>2020-02-22T17:36:16Z</time>
      </trkpt>
      <trkpt lat="39.0406880" lon="1.4921200">
        <ele>93.5</ele>
        <time>2020-02-22T17:36:17Z</time>
      </trkpt>
      <trkpt lat="39.0406260" lon="1.4921140">
        <ele>93.7</ele>
        <time>2020-02-22T17:36:18Z</time>
      </trkpt>
      <trkpt lat="39.0405590" lon="1.4921120">
        <ele>93.9</ele>
        <time>2020-02-22T17:36:19Z</time>
      </trkpt>
      <trkpt lat="39.0404890" lon="1.4921120">
        <ele>94.1</ele>
        <time>2020-02-22T17:36:20Z</time>
      </trkpt>
      <trkpt lat="39.0404180" lon="1.4921090">
        <ele>94.3</ele>
        <time>2020-02-22T17:36:21Z</time>
      </trkpt>
      <trkpt lat="39.0403620" lon="1.4921060">
        <ele>94.5</ele>
        <time>2020-02-22T17:36:22Z</time>
      </trkpt>
      <trkpt lat="39.0402990" lon="1.4921010">
        <ele>94.6</ele>
        <time>2020-02-22T17:36:23Z</time>
      </trkpt>
      <trkpt lat="39.0402320" lon="1.4920950">
        <ele>94.8</ele>
        <time>2020-02-22T17:36:24Z</time>
      </trkpt>
      <trkpt lat="39.0401630" lon="1.4920870">
        <ele>95.0</ele>
        <time>2020-02-22T17:36:25Z</time>
      </trkpt>
      <trkpt lat="39.0401000" lon="1.4920840">
        <ele>95.1</ele>
        <time>2020-02-22T17:36:26Z</time>
      </trkpt>
      <trkpt lat="39.0400370" lon="1.4920780">
        <ele>95.2</ele>
        <time>2020-02-22T17:36:27Z</time>
      </trkpt>
      <trkpt lat="39.0399710" lon="1.4920710">
        <ele>95.3</ele>
        <time>2020-02-22T17:36:28Z</time>
      </trkpt>
      <trkpt lat="39.0399070" lon="1.4920880">
        <ele>95.3</ele>
        <time>2020-02-22T17:36:29Z</time>
      </trkpt>
      <trkpt lat="39.0398480" lon="1.4920820">
        <ele>95.3</ele>
        <time>2020-02-22T17:36:30Z</time>
      </trkpt>
      <trkpt lat="39.0397890" lon="1.4920770">
        <ele>95.4</ele>
        <time>2020-02-22T17:36:31Z</time>
      </trkpt>
      <trkpt lat="39.0397280" lon="1.4920720">
        <ele>95.4</ele>
        <time>2020-02-22T17:36:32Z</time>
      </trkpt>
      <trkpt lat="39.0396630" lon="1.4920690">
        <ele>95.5</ele>
        <time>2020-02-22T17:36:33Z</time>
      </trkpt>
      <trkpt lat="39.0395960" lon="1.4920640">
        <ele>95.6</ele>
        <time>2020-02-22T17:36:34Z</time>
      </trkpt>
      <trkpt lat="39.0395260" lon="1.4920550">
        <ele>95.7</ele>
        <time>2020-02-22T17:36:35Z</time>
      </trkpt>
      <trkpt lat="39.0394700" lon="1.4920520">
        <ele>95.8</ele>
        <time>2020-02-22T17:36:36Z</time>
      </trkpt>
      <trkpt lat="39.0394150" lon="1.4920390">
        <ele>95.9</ele>
        <time>2020-02-22T17:36:37Z</time>
      </trkpt>
      <trkpt lat="39.0393610" lon="1.4920300">
        <ele>96.0</ele>
        <time>2020-02-22T17:36:38Z</time>
      </trkpt>
      <trkpt lat="39.0393010" lon="1.4920230">
        <ele>96.1</ele>
        <time>2020-02-22T17:36:39Z</time>
      </trkpt>
      <trkpt lat="39.0392470" lon="1.4920180">
        <ele>96.2</ele>
        <time>2020-02-22T17:36:40Z</time>
      </trkpt>
      <trkpt lat="39.0391870" lon="1.4920080">
        <ele>96.3</ele>
        <time>2020-02-22T17:36:41Z</time>
      </trkpt>
      <trkpt lat="39.0391280" lon="1.4919980">
        <ele>96.4</ele>
        <time>2020-02-22T17:36:42Z</time>
      </trkpt>
      <trkpt lat="39.0390620" lon="1.4919880">
        <ele>96.5</ele>
        <time>2020-02-22T17:36:43Z</time>
      </trkpt>
      <trkpt lat="39.0390000" lon="1.4919710">
        <ele>96.7</ele>
        <time>2020-02-22T17:36:44Z</time>
      </trkpt>
      <trkpt lat="39.0389390" lon="1.4919570">
        <ele>96.9</ele>
        <time>2020-02-22T17:36:45Z</time>
      </trkpt>
      <trkpt lat="39.0388730" lon="1.4919460">
        <ele>97.2</ele>
        <time>2020-02-22T17:36:46Z</time>
      </trkpt>
      <trkpt lat="39.0388110" lon="1.4919330">
        <ele>97.3</ele>
        <time>2020-02-22T17:36:47Z</time>
      </trkpt>
      <trkpt lat="39.0387520" lon="1.4919160">
        <ele>97.5</ele>
        <time>2020-02-22T17:36:48Z</time>
      </trkpt>
      <trkpt lat="39.0387020" lon="1.4918970">
        <ele>97.6</ele>
        <time>2020-02-22T17:36:49Z</time>
      </trkpt>
      <trkpt lat="39.0386420" lon="1.4918760">
        <ele>97.7</ele>
        <time>2020-02-22T17:36:50Z</time>
      </trkpt>
      <trkpt lat="39.0385830" lon="1.4918540">
        <ele>97.7</ele>
        <time>2020-02-22T17:36:51Z</time>
      </trkpt>
      <trkpt lat="39.0385260" lon="1.4918350">
        <ele>97.8</ele>
        <time>2020-02-22T17:36:52Z</time>
      </trkpt>
      <trkpt lat="39.0384630" lon="1.4918130">
        <ele>97.8</ele>
        <time>2020-02-22T17:36:53Z</time>
      </trkpt>
      <trkpt lat="39.0384060" lon="1.4917930">
        <ele>97.8</ele>
        <time>2020-02-22T17:36:54Z</time>
      </trkpt>
      <trkpt lat="39.0383480" lon="1.4917760">
        <ele>97.9</ele>
        <time>2020-02-22T17:36:55Z</time>
      </trkpt>
      <trkpt lat="39.0382970" lon="1.4917600">
        <ele>97.9</ele>
        <time>2020-02-22T17:36:56Z</time>
      </trkpt>
      <trkpt lat="39.0382410" lon="1.4917480">
        <ele>97.9</ele>
        <time>2020-02-22T17:36:57Z</time>
      </trkpt>
      <trkpt lat="39.0381900" lon="1.4917230">
        <ele>97.9</ele>
        <time>2020-02-22T17:36:58Z</time>
      </trkpt>
      <trkpt lat="39.0381390" lon="1.4917010">
        <ele>97.9</ele>
        <time>2020-02-22T17:36:59Z</time>
      </trkpt>
      <trkpt lat="39.0380870" lon="1.4916820">
        <ele>97.9</ele>
        <time>2020-02-22T17:37:00Z</time>
      </trkpt>
      <trkpt lat="39.0380460" lon="1.4916600">
        <ele>98.0</ele>
        <time>2020-02-22T17:37:01Z</time>
      </trkpt>
      <trkpt lat="39.0379890" lon="1.4916480">
        <ele>98.0</ele>
        <time>2020-02-22T17:37:02Z</time>
      </trkpt>
      <trkpt lat="39.0379310" lon="1.4916380">
        <ele>98.0</ele>
        <time>2020-02-22T17:37:03Z</time>
      </trkpt>
      <trkpt lat="39.0378800" lon="1.4916230">
        <ele>98.0</ele>
        <time>2020-02-22T17:37:04Z</time>
      </trkpt>
      <trkpt lat="39.0378140" lon="1.4916090">
        <ele>98.0</ele>
        <time>2020-02-22T17:37:05Z</time>
      </trkpt>
      <trkpt lat="39.0377640" lon="1.4915890">
        <ele>98.0</ele>
        <time>2020-02-22T17:37:06Z</time>
      </trkpt>
      <trkpt lat="39.0376980" lon="1.4915750">
        <ele>98.0</ele>
        <time>2020-02-22T17:37:07Z</time>
      </trkpt>
      <trkpt lat="39.0376370" lon="1.4915690">
        <ele>98.0</ele>
        <time>2020-02-22T17:37:08Z</time>
      </trkpt>
      <trkpt lat="39.0375840" lon="1.4915490">
        <ele>98.0</ele>
        <time>2020-02-22T17:37:09Z</time>
      </trkpt>
      <trkpt lat="39.0375220" lon="1.4915340">
        <ele>97.9</ele>
        <time>2020-02-22T17:37:10Z</time>
      </trkpt>
      <trkpt lat="39.0374580" lon="1.4915150">
        <ele>97.8</ele>
        <time>2020-02-22T17:37:11Z</time>
      </trkpt>
      <trkpt lat="39.0374100" lon="1.4914990">
        <ele>97.7</ele>
        <time>2020-02-22T17:37:12Z</time>
      </trkpt>
      <trkpt lat="39.0373510" lon="1.4914880">
        <ele>97.5</ele>
        <time>2020-02-22T17:37:13Z</time>
      </trkpt>
      <trkpt lat="39.0372940" lon="1.4914760">
        <ele>97.4</ele>
        <time>2020-02-22T17:37:14Z</time>
      </trkpt>
      <trkpt lat="39.0372490" lon="1.4914570">
        <ele>97.3</ele>
        <time>2020-02-22T17:37:15Z</time>
      </trkpt>
      <trkpt lat="39.0371970" lon="1.4914430">
        <ele>97.2</ele>
        <time>2020-02-22T17:37:16Z</time>
      </trkpt>
      <trkpt lat="39.0371440" lon="1.4914240">
        <ele>97.1</ele>
        <time>2020-02-22T17:37:17Z</time>
      </trkpt>
      <trkpt lat="39.0370870" lon="1.4914020">
        <ele>97.0</ele>
        <time>2020-02-22T17:37:18Z</time>
      </trkpt>
      <trkpt lat="39.0370300" lon="1.4913840">
        <ele>97.0</ele>
        <time>2020-02-22T17:37:19Z</time>
      </trkpt>
      <trkpt lat="39.0369720" lon="1.4913650">
        <ele>96.8</ele>
        <time>2020-02-22T17:37:20Z</time>
      </trkpt>
      <trkpt lat="39.0369130" lon="1.4913490">
        <ele>96.7</ele>
        <time>2020-02-22T17:37:21Z</time>
      </trkpt>
      <trkpt lat="39.0368560" lon="1.4913370">
        <ele>96.5</ele>
        <time>2020-02-22T17:37:22Z</time>
      </trkpt>
      <trkpt lat="39.0367940" lon="1.4913220">
        <ele>96.3</ele>
        <time>2020-02-22T17:37:23Z</time>
      </trkpt>
      <trkpt lat="39.0367330" lon="1.4913060">
        <ele>96.1</ele>
        <time>2020-02-22T17:37:24Z</time>
      </trkpt>
      <trkpt lat="39.0366720" lon="1.4912920">
        <ele>95.9</ele>
        <time>2020-02-22T17:37:25Z</time>
      </trkpt>
      <trkpt lat="39.0366110" lon="1.4912770">
        <ele>95.7</ele>
        <time>2020-02-22T17:37:26Z</time>
      </trkpt>
      <trkpt lat="39.0365460" lon="1.4912710">
        <ele>95.5</ele>
        <time>2020-02-22T17:37:27Z</time>
      </trkpt>
      <trkpt lat="39.0364840" lon="1.4912590">
        <ele>95.3</ele>
        <time>2020-02-22T17:37:28Z</time>
      </trkpt>
      <trkpt lat="39.0364210" lon="1.4912410">
        <ele>95.1</ele>
        <time>2020-02-22T17:37:29Z</time>
      </trkpt>
      <trkpt lat="39.0363480" lon="1.4912210">
        <ele>94.8</ele>
        <time>2020-02-22T17:37:30Z</time>
      </trkpt>
      <trkpt lat="39.0362760" lon="1.4912020">
        <ele>94.5</ele>
        <time>2020-02-22T17:37:31Z</time>
      </trkpt>
      <trkpt lat="39.0362100" lon="1.4911880">
        <ele>94.3</ele>
        <time>2020-02-22T17:37:32Z</time>
      </trkpt>
      <trkpt lat="39.0361410" lon="1.4911700">
        <ele>94.1</ele>
        <time>2020-02-22T17:37:33Z</time>
      </trkpt>
      <trkpt lat="39.0360660" lon="1.4911490">
        <ele>93.8</ele>
        <time>2020-02-22T17:37:34Z</time>
      </trkpt>
      <trkpt lat="39.0359870" lon="1.4911250">
        <ele>93.5</ele>
        <time>2020-02-22T17:37:35Z</time>
      </trkpt>
      <trkpt lat="39.0359140" lon="1.4911050">
        <ele>93.3</ele>
        <time>2020-02-22T17:37:36Z</time>
      </trkpt>
      <trkpt lat="39.0358460" lon="1.4910860">
        <ele>93.0</ele>
        <time>2020-02-22T17:37:37Z</time>
      </trkpt>
      <trkpt lat="39.0357700" lon="1.4910660">
        <ele>92.7</ele>
        <time>2020-02-22T17:37:38Z</time>
      </trkpt>
      <trkpt lat="39.0356950" lon="1.4910430">
        <ele>92.4</ele>
        <time>2020-02-22T17:37:39Z</time>
      </trkpt>
      <trkpt lat="39.0356210" lon="1.4910210">
        <ele>92.1</ele>
        <time>2020-02-22T17:37:40Z</time>
      </trkpt>
      <trkpt lat="39.0355490" lon="1.4910030">
        <ele>91.9</ele>
        <time>2020-02-22T17:37:41Z</time>
      </trkpt>
      <trkpt lat="39.0354770" lon="1.4909830">
        <ele>91.6</ele>
        <time>2020-02-22T17:37:42Z</time>
      </trkpt>
      <trkpt lat="39.0354010" lon="1.4909630">
        <ele>91.4</ele>
        <time>2020-02-22T17:37:43Z</time>
      </trkpt>
      <trkpt lat="39.0353270" lon="1.4909470">
        <ele>91.2</ele>
        <time>2020-02-22T17:37:44Z</time>
      </trkpt>
      <trkpt lat="39.0352440" lon="1.4909250">
        <ele>90.9</ele>
        <time>2020-02-22T17:37:45Z</time>
      </trkpt>
      <trkpt lat="39.0351600" lon="1.4908960">
        <ele>90.7</ele>
        <time>2020-02-22T17:37:46Z</time>
      </trkpt>
      <trkpt lat="39.0350880" lon="1.4908700">
        <ele>90.5</ele>
        <time>2020-02-22T17:37:47Z</time>
      </trkpt>
      <trkpt lat="39.0350130" lon="1.4908500">
        <ele>90.2</ele>
        <time>2020-02-22T17:37:48Z</time>
      </trkpt>
      <trkpt lat="39.0349340" lon="1.4908290">
        <ele>90.0</ele>
        <time>2020-02-22T17:37:49Z</time>
      </trkpt>
      <trkpt lat="39.0348480" lon="1.4908070">
        <ele>89.7</ele>
        <time>2020-02-22T17:37:50Z</time>
      </trkpt>
      <trkpt lat="39.0347660" lon="1.4907860">
        <ele>89.5</ele>
        <time>2020-02-22T17:37:51Z</time>
      </trkpt>
      <trkpt lat="39.0346920" lon="1.4907670">
        <ele>89.3</ele>
        <time>2020-02-22T17:37:52Z</time>
      </trkpt>
      <trkpt lat="39.0346190" lon="1.4907440">
        <ele>89.0</ele>
        <time>2020-02-22T17:37:53Z</time>
      </trkpt>
      <trkpt lat="39.0345370" lon="1.4907250">
        <ele>88.8</ele>
        <time>2020-02-22T17:37:54Z</time>
      </trkpt>
      <trkpt lat="39.0344620" lon="1.4907100">
        <ele>88.7</ele>
        <time>2020-02-22T17:37:55Z</time>
      </trkpt>
      <trkpt lat="39.0343870" lon="1.4906940">
        <ele>88.6</ele>
        <time>2020-02-22T17:37:56Z</time>
      </trkpt>
      <trkpt lat="39.0343150" lon="1.4906730">
        <ele>88.5</ele>
        <time>2020-02-22T17:37:57Z</time>
      </trkpt>
      <trkpt lat="39.0342430" lon="1.4906540">
        <ele>88.5</ele>
        <time>2020-02-22T17:37:58Z</time>
      </trkpt>
      <trkpt lat="39.0341730" lon="1.4906310">
        <ele>88.4</ele>
        <time>2020-02-22T17:37:59Z</time>
      </trkpt>
      <trkpt lat="39.0341060" lon="1.4906070">
        <ele>88.4</ele>
        <time>2020-02-22T17:38:00Z</time>
      </trkpt>
      <trkpt lat="39.0340390" lon="1.4905810">
        <ele>88.4</ele>
        <time>2020-02-22T17:38:01Z</time>
      </trkpt>
      <trkpt lat="39.0339730" lon="1.4905500">
        <ele>88.4</ele>
        <time>2020-02-22T17:38:02Z</time>
      </trkpt>
      <trkpt lat="39.0339080" lon="1.4905290">
        <ele>88.4</ele>
        <time>2020-02-22T17:38:03Z</time>
      </trkpt>
      <trkpt lat="39.0338430" lon="1.4905160">
        <ele>88.4</ele>
        <time>2020-02-22T17:38:04Z</time>
      </trkpt>
      <trkpt lat="39.0337810" lon="1.4904930">
        <ele>88.3</ele>
        <time>2020-02-22T17:38:05Z</time>
      </trkpt>
      <trkpt lat="39.0337160" lon="1.4904750">
        <ele>88.3</ele>
        <time>2020-02-22T17:38:06Z</time>
      </trkpt>
      <trkpt lat="39.0336550" lon="1.4904490">
        <ele>88.3</ele>
        <time>2020-02-22T17:38:07Z</time>
      </trkpt>
      <trkpt lat="39.0335970" lon="1.4904190">
        <ele>88.3</ele>
        <time>2020-02-22T17:38:08Z</time>
      </trkpt>
      <trkpt lat="39.0335410" lon="1.4903890">
        <ele>88.3</ele>
        <time>2020-02-22T17:38:09Z</time>
      </trkpt>
      <trkpt lat="39.0334800" lon="1.4903670">
        <ele>88.4</ele>
        <time>2020-02-22T17:38:10Z</time>
      </trkpt>
      <trkpt lat="39.0334260" lon="1.4903380">
        <ele>88.4</ele>
        <time>2020-02-22T17:38:11Z</time>
      </trkpt>
      <trkpt lat="39.0333690" lon="1.4903150">
        <ele>88.4</ele>
        <time>2020-02-22T17:38:12Z</time>
      </trkpt>
      <trkpt lat="39.0333120" lon="1.4902950">
        <ele>88.4</ele>
        <time>2020-02-22T17:38:13Z</time>
      </trkpt>
      <trkpt lat="39.0332550" lon="1.4902800">
        <ele>88.4</ele>
        <time>2020-02-22T17:38:14Z</time>
      </trkpt>
      <trkpt lat="39.0332000" lon="1.4902630">
        <ele>88.4</ele>
        <time>2020-02-22T17:38:15Z</time>
      </trkpt>
      <trkpt lat="39.0331420" lon="1.4902340">
        <ele>88.5</ele>
        <time>2020-02-22T17:38:16Z</time>
      </trkpt>
      <trkpt lat="39.0330790" lon="1.4902130">
        <ele>88.6</ele>
        <time>2020-02-22T17:38:17Z</time>
      </trkpt>
      <trkpt lat="39.0330220" lon="1.4901920">
        <ele>88.7</ele>
        <time>2020-02-22T17:38:18Z</time>
      </trkpt>
      <trkpt lat="39.0329640" lon="1.4901740">
        <ele>88.8</ele>
        <time>2020-02-22T17:38:19Z</time>
      </trkpt>
      <trkpt lat="39.0329080" lon="1.4901530">
        <ele>88.9</ele>
        <time>2020-02-22T17:38:20Z</time>
      </trkpt>
      <trkpt lat="39.0328560" lon="1.4901290">
        <ele>89.0</ele>
        <time>2020-02-22T17:38:21Z</time>
      </trkpt>
      <trkpt lat="39.0328020" lon="1.4901070">
        <ele>89.1</ele>
        <time>2020-02-22T17:38:22Z</time>
      </trkpt>
      <trkpt lat="39.0327490" lon="1.4900750">
        <ele>89.1</ele>
        <time>2020-02-22T17:38:23Z</time>
      </trkpt>
      <trkpt lat="39.0326980" lon="1.4900480">
        <ele>89.1</ele>
        <time>2020-02-22T17:38:24Z</time>
      </trkpt>
      <trkpt lat="39.0326440" lon="1.4900160">
        <ele>89.1</ele>
        <time>2020-02-22T17:38:25Z</time>
      </trkpt>
      <trkpt lat="39.0325890" lon="1.4899930">
        <ele>89.1</ele>
        <time>2020-02-22T17:38:26Z</time>
      </trkpt>
      <trkpt lat="39.0325360" lon="1.4899770">
        <ele>89.1</ele>
        <time>2020-02-22T17:38:27Z</time>
      </trkpt>
      <trkpt lat="39.0324780" lon="1.4899570">
        <ele>89.1</ele>
        <time>2020-02-22T17:38:28Z</time>
      </trkpt>
      <trkpt lat="39.0324230" lon="1.4899400">
        <ele>89.1</ele>
        <time>2020-02-22T17:38:29Z</time>
      </trkpt>
      <trkpt lat="39.0323710" lon="1.4899210">
        <ele>89.1</ele>
        <time>2020-02-22T17:38:30Z</time>
      </trkpt>
      <trkpt lat="39.0323110" lon="1.4899030">
        <ele>89.1</ele>
        <time>2020-02-22T17:38:31Z</time>
      </trkpt>
      <trkpt lat="39.0322730" lon="1.4898800">
        <ele>89.1</ele>
        <time>2020-02-22T17:38:32Z</time>
      </trkpt>
      <trkpt lat="39.0322190" lon="1.4898550">
        <ele>89.0</ele>
        <time>2020-02-22T17:38:33Z</time>
      </trkpt>
      <trkpt lat="39.0321610" lon="1.4898320">
        <ele>89.0</ele>
        <time>2020-02-22T17:38:34Z</time>
      </trkpt>
      <trkpt lat="39.0321080" lon="1.4898040">
        <ele>89.0</ele>
        <time>2020-02-22T17:38:35Z</time>
      </trkpt>
      <trkpt lat="39.0320440" lon="1.4897770">
        <ele>89.0</ele>
        <time>2020-02-22T17:38:36Z</time>
      </trkpt>
      <trkpt lat="39.0319870" lon="1.4897430">
        <ele>89.0</ele>
        <time>2020-02-22T17:38:37Z</time>
      </trkpt>
      <trkpt lat="39.0319300" lon="1.4897110">
        <ele>89.0</ele>
        <time>2020-02-22T17:38:38Z</time>
      </trkpt>
      <trkpt lat="39.0318740" lon="1.4896880">
        <ele>88.9</ele>
        <time>2020-02-22T17:38:39Z</time>
      </trkpt>
      <trkpt lat="39.0318180" lon="1.4896620">
        <ele>88.8</ele>
        <time>2020-02-22T17:38:40Z</time>
      </trkpt>
      <trkpt lat="39.0317590" lon="1.4896410">
        <ele>88.7</ele>
        <time>2020-02-22T17:38:41Z</time>
      </trkpt>
      <trkpt lat="39.0316900" lon="1.4896120">
        <ele>88.6</ele>
        <time>2020-02-22T17:38:42Z</time>
      </trkpt>
      <trkpt lat="39.0316270" lon="1.4895840">
        <ele>88.5</ele>
        <time>2020-02-22T17:38:43Z</time>
      </trkpt>
      <trkpt lat="39.0315690" lon="1.4895590">
        <ele>88.4</ele>
        <time>2020-02-22T17:38:44Z</time>
      </trkpt>
      <trkpt lat="39.0315010" lon="1.4895350">
        <ele>88.3</ele>
        <time>2020-02-22T17:38:45Z</time>
      </trkpt>
      <trkpt lat="39.0314250" lon="1.4895040">
        <ele>88.2</ele>
        <time>2020-02-22T17:38:46Z</time>
      </trkpt>
      <trkpt lat="39.0313650" lon="1.4894740">
        <ele>88.2</ele>
        <time>2020-02-22T17:38:47Z</time>
      </trkpt>
      <trkpt lat="39.0313060" lon="1.4894490">
        <ele>88.1</ele>
        <time>2020-02-22T17:38:48Z</time>
      </trkpt>
      <trkpt lat="39.0312470" lon="1.4894240">
        <ele>88.1</ele>
        <time>2020-02-22T17:38:49Z</time>
      </trkpt>
      <trkpt lat="39.0311820" lon="1.4893960">
        <ele>88.0</ele>
        <time>2020-02-22T17:38:50Z</time>
      </trkpt>
      <trkpt lat="39.0311180" lon="1.4893690">
        <ele>87.9</ele>
        <time>2020-02-22T17:38:51Z</time>
      </trkpt>
      <trkpt lat="39.0310590" lon="1.4893400">
        <ele>87.9</ele>
        <time>2020-02-22T17:38:52Z</time>
      </trkpt>
      <trkpt lat="39.0309730" lon="1.4893650">
        <ele>87.8</ele>
        <time>2020-02-22T17:38:53Z</time>
      </trkpt>
      <trkpt lat="39.0309270" lon="1.4893490">
        <ele>87.7</ele>
        <time>2020-02-22T17:38:54Z</time>
      </trkpt>
      <trkpt lat="39.0308790" lon="1.4893350">
        <ele>87.7</ele>
        <time>2020-02-22T17:38:55Z</time>
      </trkpt>
      <trkpt lat="39.0308740" lon="1.4892970">
        <ele>87.6</ele>
        <time>2020-02-22T17:38:56Z</time>
      </trkpt>
      <trkpt lat="39.0308760" lon="1.4892880">
        <ele>87.6</ele>
        <time>2020-02-22T17:38:57Z</time>
      </trkpt>
      <trkpt lat="39.0308560" lon="1.4892780">
        <ele>87.6</ele>
        <time>2020-02-22T17:38:58Z</time>
      </trkpt>
      <trkpt lat="39.0308470" lon="1.4892940">
        <ele>87.6</ele>
        <time>2020-02-22T17:38:59Z</time>
      </trkpt>
      <trkpt lat="39.0308420" lon="1.4892950">
        <ele>87.6</ele>
        <time>2020-02-22T17:39:00Z</time>
      </trkpt>
      <trkpt lat="39.0308310" lon="1.4892900">
        <ele>87.5</ele>
        <time>2020-02-22T17:39:01Z</time>
      </trkpt>
      <trkpt lat="39.0308190" lon="1.4892850">
        <ele>87.5</ele>
        <time>2020-02-22T17:39:02Z</time>
      </trkpt>
      <trkpt lat="39.0308070" lon="1.4892800">
        <ele>87.5</ele>
        <time>2020-02-22T17:39:03Z</time>
      </trkpt>
      <trkpt lat="39.0307960" lon="1.4892750">
        <ele>87.5</ele>
        <time>2020-02-22T17:39:04Z</time>
      </trkpt>
      <trkpt lat="39.0307840" lon="1.4892710">
        <ele>87.5</ele>
        <time>2020-02-22T17:39:05Z</time>
      </trkpt>
      <trkpt lat="39.0307720" lon="1.4892660">
        <ele>87.5</ele>
        <time>2020-02-22T17:39:06Z</time>
      </trkpt>
      <trkpt lat="39.0307600" lon="1.4892610">
        <ele>87.5</ele>
        <time>2020-02-22T17:39:07Z</time>
      </trkpt>
      <trkpt lat="39.0307490" lon="1.4892560">
        <ele>87.5</ele>
        <time>2020-02-22T17:40:29Z</time>
      </trkpt>
      <trkpt lat="39.0307370" lon="1.4892510">
        <ele>87.4</ele>
        <time>2020-02-22T17:40:30Z</time>
      </trkpt>
      <trkpt lat="39.0306880" lon="1.4892260">
        <ele>87.4</ele>
        <time>2020-02-22T17:40:31Z</time>
      </trkpt>
      <trkpt lat="39.0306390" lon="1.4891990">
        <ele>87.3</ele>
        <time>2020-02-22T17:40:32Z</time>
      </trkpt>
      <trkpt lat="39.0305870" lon="1.4891690">
        <ele>87.3</ele>
        <time>2020-02-22T17:40:33Z</time>
      </trkpt>
      <trkpt lat="39.0305450" lon="1.4891390">
        <ele>87.3</ele>
        <time>2020-02-22T17:40:34Z</time>
      </trkpt>
      <trkpt lat="39.0304960" lon="1.4891120">
        <ele>87.2</ele>
        <time>2020-02-22T17:40:35Z</time>
      </trkpt>
      <trkpt lat="39.0304460" lon="1.4890860">
        <ele>87.2</ele>
        <time>2020-02-22T17:40:36Z</time>
      </trkpt>
      <trkpt lat="39.0303940" lon="1.4890610">
        <ele>87.2</ele>
        <time>2020-02-22T17:40:37Z</time>
      </trkpt>
      <trkpt lat="39.0303430" lon="1.4890370">
        <ele>87.2</ele>
        <time>2020-02-22T17:40:38Z</time>
      </trkpt>
      <trkpt lat="39.0302940" lon="1.4890110">
        <ele>87.2</ele>
        <time>2020-02-22T17:40:39Z</time>
      </trkpt>
      <trkpt lat="39.0302340" lon="1.4890100">
        <ele>87.2</ele>
        <time>2020-02-22T17:40:40Z</time>
      </trkpt>
      <trkpt lat="39.0301780" lon="1.4889900">
        <ele>87.2</ele>
        <time>2020-02-22T17:40:41Z</time>
      </trkpt>
      <trkpt lat="39.0301280" lon="1.4889660">
        <ele>87.1</ele>
        <time>2020-02-22T17:40:42Z</time>
      </trkpt>
      <trkpt lat="39.0300770" lon="1.4889440">
        <ele>87.1</ele>
        <time>2020-02-22T17:40:43Z</time>
      </trkpt>
      <trkpt lat="39.0300260" lon="1.4889220">
        <ele>87.1</ele>
        <time>2020-02-22T17:40:44Z</time>
      </trkpt>
      <trkpt lat="39.0299730" lon="1.4888970">
        <ele>87.0</ele>
        <time>2020-02-22T17:40:45Z</time>
      </trkpt>
      <trkpt lat="39.0299180" lon="1.4888730">
        <ele>86.9</ele>
        <time>2020-02-22T17:40:46Z</time>
      </trkpt>
      <trkpt lat="39.0298600" lon="1.4888460">
        <ele>86.8</ele>
        <time>2020-02-22T17:40:47Z</time>
      </trkpt>
      <trkpt lat="39.0297980" lon="1.4888190">
        <ele>86.6</ele>
        <time>2020-02-22T17:40:48Z</time>
      </trkpt>
      <trkpt lat="39.0297370" lon="1.4887890">
        <ele>86.4</ele>
        <time>2020-02-22T17:40:49Z</time>
      </trkpt>
      <trkpt lat="39.0296760" lon="1.4887670">
        <ele>86.1</ele>
        <time>2020-02-22T17:40:50Z</time>
      </trkpt>
      <trkpt lat="39.0296180" lon="1.4887360">
        <ele>85.8</ele>
        <time>2020-02-22T17:40:51Z</time>
      </trkpt>
      <trkpt lat="39.0295580" lon="1.4887080">
        <ele>85.5</ele>
        <time>2020-02-22T17:40:52Z</time>
      </trkpt>
      <trkpt lat="39.0294990" lon="1.4886790">
        <ele>85.3</ele>
        <time>2020-02-22T17:40:53Z</time>
      </trkpt>
      <trkpt lat="39.0294360" lon="1.4886420">
        <ele>85.0</ele>
        <time>2020-02-22T17:40:54Z</time>
      </trkpt>
      <trkpt lat="39.0293700" lon="1.4886120">
        <ele>84.8</ele>
        <time>2020-02-22T17:40:55Z</time>
      </trkpt>
      <trkpt lat="39.0293040" lon="1.4885830">
        <ele>84.6</ele>
        <time>2020-02-22T17:40:56Z</time>
      </trkpt>
      <trkpt lat="39.0292360" lon="1.4885530">
        <ele>84.3</ele>
        <time>2020-02-22T17:40:57Z</time>
      </trkpt>
      <trkpt lat="39.0291670" lon="1.4885210">
        <ele>84.0</ele>
        <time>2020-02-22T17:40:58Z</time>
      </trkpt>
      <trkpt lat="39.0290980" lon="1.4884870">
        <ele>83.6</ele>
        <time>2020-02-22T17:40:59Z</time>
      </trkpt>
      <trkpt lat="39.0290300" lon="1.4884510">
        <ele>83.1</ele>
        <time>2020-02-22T17:41:00Z</time>
      </trkpt>
      <trkpt lat="39.0289620" lon="1.4884140">
        <ele>82.5</ele>
        <time>2020-02-22T17:41:01Z</time>
      </trkpt>
      <trkpt lat="39.0288930" lon="1.4883770">
        <ele>81.7</ele>
        <time>2020-02-22T17:41:02Z</time>
      </trkpt>
      <trkpt lat="39.0288240" lon="1.4883390">
        <ele>80.9</ele>
        <time>2020-02-22T17:41:03Z</time>
      </trkpt>
      <trkpt lat="39.0287530" lon="1.4883030">
        <ele>80.4</ele>
        <time>2020-02-22T17:41:04Z</time>
      </trkpt>
      <trkpt lat="39.0286820" lon="1.4882670">
        <ele>80.0</ele>
        <time>2020-02-22T17:41:05Z</time>
      </trkpt>
      <trkpt lat="39.0286120" lon="1.4882310">
        <ele>79.7</ele>
        <time>2020-02-22T17:41:06Z</time>
      </trkpt>
      <trkpt lat="39.0285310" lon="1.4882250">
        <ele>79.4</ele>
        <time>2020-02-22T17:41:07Z</time>
      </trkpt>
      <trkpt lat="39.0284570" lon="1.4881950">
        <ele>79.1</ele>
        <time>2020-02-22T17:41:08Z</time>
      </trkpt>
      <trkpt lat="39.0283840" lon="1.4881650">
        <ele>78.8</ele>
        <time>2020-02-22T17:41:09Z</time>
      </trkpt>
      <trkpt lat="39.0283090" lon="1.4881350">
        <ele>78.4</ele>
        <time>2020-02-22T17:41:10Z</time>
      </trkpt>
      <trkpt lat="39.0282340" lon="1.4881050">
        <ele>78.1</ele>
        <time>2020-02-22T17:41:11Z</time>
      </trkpt>
      <trkpt lat="39.0281600" lon="1.4880720">
        <ele>77.7</ele>
        <time>2020-02-22T17:41:12Z</time>
      </trkpt>
      <trkpt lat="39.0280840" lon="1.4880390">
        <ele>77.3</ele>
        <time>2020-02-22T17:41:13Z</time>
      </trkpt>
      <trkpt lat="39.0280080" lon="1.4880070">
        <ele>77.1</ele>
        <time>2020-02-22T17:41:14Z</time>
      </trkpt>
      <trkpt lat="39.0279340" lon="1.4879760">
        <ele>76.8</ele>
        <time>2020-02-22T17:41:15Z</time>
      </trkpt>
      <trkpt lat="39.0278620" lon="1.4879450">
        <ele>76.7</ele>
        <time>2020-02-22T17:41:16Z</time>
      </trkpt>
      <trkpt lat="39.0277830" lon="1.4879120">
        <ele>76.5</ele>
        <time>2020-02-22T17:41:17Z</time>
      </trkpt>
      <trkpt lat="39.0277030" lon="1.4878770">
        <ele>76.3</ele>
        <time>2020-02-22T17:41:18Z</time>
      </trkpt>
      <trkpt lat="39.0276230" lon="1.4878410">
        <ele>76.0</ele>
        <time>2020-02-22T17:41:19Z</time>
      </trkpt>
      <trkpt lat="39.0275440" lon="1.4878050">
        <ele>75.8</ele>
        <time>2020-02-22T17:41:20Z</time>
      </trkpt>
      <trkpt lat="39.0274700" lon="1.4877670">
        <ele>75.7</ele>
        <time>2020-02-22T17:41:21Z</time>
      </trkpt>
      <trkpt lat="39.0273960" lon="1.4877300">
        <ele>75.5</ele>
        <time>2020-02-22T17:41:22Z</time>
      </trkpt>
      <trkpt lat="39.0273210" lon="1.4876930">
        <ele>75.3</ele>
        <time>2020-02-22T17:41:23Z</time>
      </trkpt>
      <trkpt lat="39.0272400" lon="1.4876550">
        <ele>75.1</ele>
        <time>2020-02-22T17:41:24Z</time>
      </trkpt>
      <trkpt lat="39.0271600" lon="1.4876160">
        <ele>74.9</ele>
        <time>2020-02-22T17:41:25Z</time>
      </trkpt>
      <trkpt lat="39.0270790" lon="1.4875840">
        <ele>74.6</ele>
        <time>2020-02-22T17:41:26Z</time>
      </trkpt>
      <trkpt lat="39.0269960" lon="1.4875530">
        <ele>74.3</ele>
        <time>2020-02-22T17:41:27Z</time>
      </trkpt>
      <trkpt lat="39.0269150" lon="1.4875230">
        <ele>74.1</ele>
        <time>2020-02-22T17:41:28Z</time>
      </trkpt>
      <trkpt lat="39.0268330" lon="1.4874900">
        <ele>73.9</ele>
        <time>2020-02-22T17:41:29Z</time>
      </trkpt>
      <trkpt lat="39.0267520" lon="1.4874560">
        <ele>73.6</ele>
        <time>2020-02-22T17:41:30Z</time>
      </trkpt>
      <trkpt lat="39.0266700" lon="1.4874200">
        <ele>73.3</ele>
        <time>2020-02-22T17:41:31Z</time>
      </trkpt>
      <trkpt lat="39.0265890" lon="1.4873840">
        <ele>73.0</ele>
        <time>2020-02-22T17:41:32Z</time>
      </trkpt>
      <trkpt lat="39.0265070" lon="1.4873480">
        <ele>72.7</ele>
        <time>2020-02-22T17:41:33Z</time>
      </trkpt>
      <trkpt lat="39.0264260" lon="1.4873130">
        <ele>72.5</ele>
        <time>2020-02-22T17:41:34Z</time>
      </trkpt>
      <trkpt lat="39.0263410" lon="1.4872820">
        <ele>72.2</ele>
        <time>2020-02-22T17:41:35Z</time>
      </trkpt>
      <trkpt lat="39.0262580" lon="1.4872540">
        <ele>71.9</ele>
        <time>2020-02-22T17:41:36Z</time>
      </trkpt>
      <trkpt lat="39.0261760" lon="1.4872230">
        <ele>71.7</ele>
        <time>2020-02-22T17:41:37Z</time>
      </trkpt>
      <trkpt lat="39.0260950" lon="1.4871910">
        <ele>71.5</ele>
        <time>2020-02-22T17:41:38Z</time>
      </trkpt>
      <trkpt lat="39.0260140" lon="1.4871650">
        <ele>71.2</ele>
        <time>2020-02-22T17:41:39Z</time>
      </trkpt>
      <trkpt lat="39.0259330" lon="1.4871420">
        <ele>70.9</ele>
        <time>2020-02-22T17:41:40Z</time>
      </trkpt>
      <trkpt lat="39.0258500" lon="1.4871210">
        <ele>70.7</ele>
        <time>2020-02-22T17:41:41Z</time>
      </trkpt>
      <trkpt lat="39.0257680" lon="1.4871060">
        <ele>70.4</ele>
        <time>2020-02-22T17:41:42Z</time>
      </trkpt>
      <trkpt lat="39.0256850" lon="1.4870900">
        <ele>70.1</ele>
        <time>2020-02-22T17:41:43Z</time>
      </trkpt>
      <trkpt lat="39.0256010" lon="1.4870750">
        <ele>69.9</ele>
        <time>2020-02-22T17:41:44Z</time>
      </trkpt>
      <trkpt lat="39.0255160" lon="1.4870640">
        <ele>69.6</ele>
        <time>2020-02-22T17:41:45Z</time>
      </trkpt>
      <trkpt lat="39.0254320" lon="1.4870540">
        <ele>69.5</ele>
        <time>2020-02-22T17:41:46Z</time>
      </trkpt>
      <trkpt lat="39.0253490" lon="1.4870490">
        <ele>69.3</ele>
        <time>2020-02-22T17:41:47Z</time>
      </trkpt>
      <trkpt lat="39.0252650" lon="1.4870420">
        <ele>69.1</ele>
        <time>2020-02-22T17:41:48Z</time>
      </trkpt>
      <trkpt lat="39.0251830" lon="1.4870350">
        <ele>68.9</ele>
        <time>2020-02-22T17:41:49Z</time>
      </trkpt>
      <trkpt lat="39.0251030" lon="1.4870260">
        <ele>68.8</ele>
        <time>2020-02-22T17:41:50Z</time>
      </trkpt>
      <trkpt lat="39.0250210" lon="1.4870190">
        <ele>68.6</ele>
        <time>2020-02-22T17:41:51Z</time>
      </trkpt>
      <trkpt lat="39.0249390" lon="1.4870220">
        <ele>68.4</ele>
        <time>2020-02-22T17:41:52Z</time>
      </trkpt>
      <trkpt lat="39.0248560" lon="1.4870250">
        <ele>68.2</ele>
        <time>2020-02-22T17:41:53Z</time>
      </trkpt>
      <trkpt lat="39.0247740" lon="1.4870290">
        <ele>68.1</ele>
        <time>2020-02-22T17:41:54Z</time>
      </trkpt>
      <trkpt lat="39.0246930" lon="1.4870320">
        <ele>67.9</ele>
        <time>2020-02-22T17:41:55Z</time>
      </trkpt>
      <trkpt lat="39.0246120" lon="1.4870350">
        <ele>67.8</ele>
        <time>2020-02-22T17:41:56Z</time>
      </trkpt>
      <trkpt lat="39.0245320" lon="1.4870360">
        <ele>67.6</ele>
        <time>2020-02-22T17:41:57Z</time>
      </trkpt>
      <trkpt lat="39.0244530" lon="1.4870380">
        <ele>67.5</ele>
        <time>2020-02-22T17:41:58Z</time>
      </trkpt>
      <trkpt lat="39.0243740" lon="1.4870420">
        <ele>67.5</ele>
        <time>2020-02-22T17:41:59Z</time>
      </trkpt>
      <trkpt lat="39.0242950" lon="1.4870440">
        <ele>67.4</ele>
        <time>2020-02-22T17:42:00Z</time>
      </trkpt>
      <trkpt lat="39.0242160" lon="1.4870490">
        <ele>67.4</ele>
        <time>2020-02-22T17:42:01Z</time>
      </trkpt>
      <trkpt lat="39.0241380" lon="1.4870520">
        <ele>67.4</ele>
        <time>2020-02-22T17:42:02Z</time>
      </trkpt>
      <trkpt lat="39.0240620" lon="1.4870530">
        <ele>67.4</ele>
        <time>2020-02-22T17:42:03Z</time>
      </trkpt>
      <trkpt lat="39.0239860" lon="1.4870540">
        <ele>67.4</ele>
        <time>2020-02-22T17:42:04Z</time>
      </trkpt>
      <trkpt lat="39.0239100" lon="1.4870560">
        <ele>67.4</ele>
        <time>2020-02-22T17:42:05Z</time>
      </trkpt>
      <trkpt lat="39.0238350" lon="1.4870550">
        <ele>67.4</ele>
        <time>2020-02-22T17:42:06Z</time>
      </trkpt>
      <trkpt lat="39.0237610" lon="1.4870550">
        <ele>67.4</ele>
        <time>2020-02-22T17:42:07Z</time>
      </trkpt>
      <trkpt lat="39.0236870" lon="1.4870560">
        <ele>67.4</ele>
        <time>2020-02-22T17:42:08Z</time>
      </trkpt>
      <trkpt lat="39.0236140" lon="1.4870570">
        <ele>67.4</ele>
        <time>2020-02-22T17:42:09Z</time>
      </trkpt>
      <trkpt lat="39.0235400" lon="1.4870550">
        <ele>67.4</ele>
        <time>2020-02-22T17:42:10Z</time>
      </trkpt>
      <trkpt lat="39.0234670" lon="1.4870540">
        <ele>67.5</ele>
        <time>2020-02-22T17:42:11Z</time>
      </trkpt>
      <trkpt lat="39.0233950" lon="1.4870530">
        <ele>67.7</ele>
        <time>2020-02-22T17:42:12Z</time>
      </trkpt>
      <trkpt lat="39.0233230" lon="1.4870540">
        <ele>67.9</ele>
        <time>2020-02-22T17:42:13Z</time>
      </trkpt>
      <trkpt lat="39.0232520" lon="1.4870580">
        <ele>68.0</ele>
        <time>2020-02-22T17:42:14Z</time>
      </trkpt>
      <trkpt lat="39.0231820" lon="1.4870590">
        <ele>68.2</ele>
        <time>2020-02-22T17:42:15Z</time>
      </trkpt>
      <trkpt lat="39.0231140" lon="1.4870580">
        <ele>68.4</ele>
        <time>2020-02-22T17:42:16Z</time>
      </trkpt>
      <trkpt lat="39.0230460" lon="1.4870570">
        <ele>68.5</ele>
        <time>2020-02-22T17:42:17Z</time>
      </trkpt>
      <trkpt lat="39.0229780" lon="1.4870560">
        <ele>68.7</ele>
        <time>2020-02-22T17:42:18Z</time>
      </trkpt>
      <trkpt lat="39.0229100" lon="1.4870560">
        <ele>68.8</ele>
        <time>2020-02-22T17:42:19Z</time>
      </trkpt>
      <trkpt lat="39.0228450" lon="1.4870530">
        <ele>69.0</ele>
        <time>2020-02-22T17:42:20Z</time>
      </trkpt>
      <trkpt lat="39.0227790" lon="1.4870530">
        <ele>69.1</ele>
        <time>2020-02-22T17:42:21Z</time>
      </trkpt>
      <trkpt lat="39.0227150" lon="1.4870510">
        <ele>69.2</ele>
        <time>2020-02-22T17:42:22Z</time>
      </trkpt>
      <trkpt lat="39.0226520" lon="1.4870510">
        <ele>69.4</ele>
        <time>2020-02-22T17:42:23Z</time>
      </trkpt>
      <trkpt lat="39.0225910" lon="1.4870510">
        <ele>69.5</ele>
        <time>2020-02-22T17:42:24Z</time>
      </trkpt>
      <trkpt lat="39.0225290" lon="1.4870500">
        <ele>69.6</ele>
        <time>2020-02-22T17:42:25Z</time>
      </trkpt>
      <trkpt lat="39.0224680" lon="1.4870480">
        <ele>69.7</ele>
        <time>2020-02-22T17:42:26Z</time>
      </trkpt>
      <trkpt lat="39.0224090" lon="1.4870470">
        <ele>69.8</ele>
        <time>2020-02-22T17:42:27Z</time>
      </trkpt>
      <trkpt lat="39.0223500" lon="1.4870430">
        <ele>69.9</ele>
        <time>2020-02-22T17:42:28Z</time>
      </trkpt>
      <trkpt lat="39.0222900" lon="1.4870410">
        <ele>70.0</ele>
        <time>2020-02-22T17:42:29Z</time>
      </trkpt>
      <trkpt lat="39.0222330" lon="1.4870410">
        <ele>70.0</ele>
        <time>2020-02-22T17:42:30Z</time>
      </trkpt>
      <trkpt lat="39.0221770" lon="1.4870410">
        <ele>70.0</ele>
        <time>2020-02-22T17:42:31Z</time>
      </trkpt>
      <trkpt lat="39.0221210" lon="1.4870410">
        <ele>70.0</ele>
        <time>2020-02-22T17:42:32Z</time>
      </trkpt>
      <trkpt lat="39.0220650" lon="1.4870410">
        <ele>70.0</ele>
        <time>2020-02-22T17:42:33Z</time>
      </trkpt>
      <trkpt lat="39.0220080" lon="1.4870430">
        <ele>69.9</ele>
        <time>2020-02-22T17:42:34Z</time>
      </trkpt>
      <trkpt lat="39.0219510" lon="1.4870510">
        <ele>69.9</ele>
        <time>2020-02-22T17:42:35Z</time>
      </trkpt>
      <trkpt lat="39.0218950" lon="1.4870540">
        <ele>69.8</ele>
        <time>2020-02-22T17:42:36Z</time>
      </trkpt>
      <trkpt lat="39.0218380" lon="1.4870550">
        <ele>69.7</ele>
        <time>2020-02-22T17:42:37Z</time>
      </trkpt>
      <trkpt lat="39.0217790" lon="1.4870580">
        <ele>69.5</ele>
        <time>2020-02-22T17:42:38Z</time>
      </trkpt>
      <trkpt lat="39.0217160" lon="1.4870620">
        <ele>69.4</ele>
        <time>2020-02-22T17:42:39Z</time>
      </trkpt>
      <trkpt lat="39.0216550" lon="1.4870580">
        <ele>69.2</ele>
        <time>2020-02-22T17:42:40Z</time>
      </trkpt>
      <trkpt lat="39.0215930" lon="1.4870590">
        <ele>69.1</ele>
        <time>2020-02-22T17:42:41Z</time>
      </trkpt>
      <trkpt lat="39.0215280" lon="1.4870640">
        <ele>68.9</ele>
        <time>2020-02-22T17:42:42Z</time>
      </trkpt>
      <trkpt lat="39.0214630" lon="1.4870660">
        <ele>68.7</ele>
        <time>2020-02-22T17:42:43Z</time>
      </trkpt>
      <trkpt lat="39.0213990" lon="1.4870670">
        <ele>68.5</ele>
        <time>2020-02-22T17:42:44Z</time>
      </trkpt>
      <trkpt lat="39.0213340" lon="1.4870690">
        <ele>68.4</ele>
        <time>2020-02-22T17:42:45Z</time>
      </trkpt>
      <trkpt lat="39.0212670" lon="1.4870720">
        <ele>68.2</ele>
        <time>2020-02-22T17:42:46Z</time>
      </trkpt>
      <trkpt lat="39.0211990" lon="1.4870740">
        <ele>68.0</ele>
        <time>2020-02-22T17:42:47Z</time>
      </trkpt>
      <trkpt lat="39.0211300" lon="1.4870790">
        <ele>67.9</ele>
        <time>2020-02-22T17:42:48Z</time>
      </trkpt>
      <trkpt lat="39.0210600" lon="1.4870820">
        <ele>67.7</ele>
        <time>2020-02-22T17:42:49Z</time>
      </trkpt>
      <trkpt lat="39.0209870" lon="1.4870860">
        <ele>67.6</ele>
        <time>2020-02-22T17:42:50Z</time>
      </trkpt>
      <trkpt lat="39.0209140" lon="1.4870900">
        <ele>67.5</ele>
        <time>2020-02-22T17:42:51Z</time>
      </trkpt>
      <trkpt lat="39.0208390" lon="1.4870940">
        <ele>67.4</ele>
        <time>2020-02-22T17:42:52Z</time>
      </trkpt>
      <trkpt lat="39.0207630" lon="1.4870990">
        <ele>67.3</ele>
        <time>2020-02-22T17:42:53Z</time>
      </trkpt>
      <trkpt lat="39.0206850" lon="1.4871040">
        <ele>67.3</ele>
        <time>2020-02-22T17:42:54Z</time>
      </trkpt>
      <trkpt lat="39.0206060" lon="1.4871110">
        <ele>67.3</ele>
        <time>2020-02-22T17:42:55Z</time>
      </trkpt>
      <trkpt lat="39.0205270" lon="1.4871160">
        <ele>67.2</ele>
        <time>2020-02-22T17:42:56Z</time>
      </trkpt>
      <trkpt lat="39.0204470" lon="1.4871230">
        <ele>67.2</ele>
        <time>2020-02-22T17:42:57Z</time>
      </trkpt>
      <trkpt lat="39.0203670" lon="1.4871340">
        <ele>67.2</ele>
        <time>2020-02-22T17:42:58Z</time>
      </trkpt>
      <trkpt lat="39.0202850" lon="1.4871420">
        <ele>67.2</ele>
        <time>2020-02-22T17:42:59Z</time>
      </trkpt>
      <trkpt lat="39.0201950" lon="1.4871490">
        <ele>67.1</ele>
        <time>2020-02-22T17:43:00Z</time>
      </trkpt>
      <trkpt lat="39.0201090" lon="1.4871690">
        <ele>67.0</ele>
        <time>2020-02-22T17:43:01Z</time>
      </trkpt>
      <trkpt lat="39.0200250" lon="1.4871830">
        <ele>66.9</ele>
        <time>2020-02-22T17:43:02Z</time>
      </trkpt>
      <trkpt lat="39.0199440" lon="1.4871970">
        <ele>66.9</ele>
        <time>2020-02-22T17:43:03Z</time>
      </trkpt>
      <trkpt lat="39.0198620" lon="1.4872090">
        <ele>66.7</ele>
        <time>2020-02-22T17:43:04Z</time>
      </trkpt>
      <trkpt lat="39.0197740" lon="1.4872280">
        <ele>66.6</ele>
        <time>2020-02-22T17:43:05Z</time>
      </trkpt>
      <trkpt lat="39.0196820" lon="1.4872400">
        <ele>66.5</ele>
        <time>2020-02-22T17:43:06Z</time>
      </trkpt>
      <trkpt lat="39.0195970" lon="1.4872480">
        <ele>66.4</ele>
        <time>2020-02-22T17:43:07Z</time>
      </trkpt>
      <trkpt lat="39.0195120" lon="1.4872590">
        <ele>66.3</ele>
        <time>2020-02-22T17:43:08Z</time>
      </trkpt>
      <trkpt lat="39.0194310" lon="1.4872650">
        <ele>66.2</ele>
        <time>2020-02-22T17:43:09Z</time>
      </trkpt>
      <trkpt lat="39.0193500" lon="1.4872650">
        <ele>66.2</ele>
        <time>2020-02-22T17:43:10Z</time>
      </trkpt>
      <trkpt lat="39.0192710" lon="1.4872700">
        <ele>66.2</ele>
        <time>2020-02-22T17:43:11Z</time>
      </trkpt>
      <trkpt lat="39.0191920" lon="1.4872730">
        <ele>66.2</ele>
        <time>2020-02-22T17:43:12Z</time>
      </trkpt>
      <trkpt lat="39.0191110" lon="1.4872730">
        <ele>66.1</ele>
        <time>2020-02-22T17:43:13Z</time>
      </trkpt>
      <trkpt lat="39.0190360" lon="1.4872850">
        <ele>66.0</ele>
        <time>2020-02-22T17:43:14Z</time>
      </trkpt>
      <trkpt lat="39.0189570" lon="1.4872990">
        <ele>65.8</ele>
        <time>2020-02-22T17:43:15Z</time>
      </trkpt>
      <trkpt lat="39.0188800" lon="1.4873140">
        <ele>65.7</ele>
        <time>2020-02-22T17:43:16Z</time>
      </trkpt>
      <trkpt lat="39.0188020" lon="1.4873210">
        <ele>65.5</ele>
        <time>2020-02-22T17:43:17Z</time>
      </trkpt>
      <trkpt lat="39.0187250" lon="1.4873260">
        <ele>65.4</ele>
        <time>2020-02-22T17:43:18Z</time>
      </trkpt>
      <trkpt lat="39.0186470" lon="1.4873340">
        <ele>65.3</ele>
        <time>2020-02-22T17:43:19Z</time>
      </trkpt>
      <trkpt lat="39.0185710" lon="1.4873450">
        <ele>65.3</ele>
        <time>2020-02-22T17:43:20Z</time>
      </trkpt>
      <trkpt lat="39.0184950" lon="1.4873550">
        <ele>65.3</ele>
        <time>2020-02-22T17:43:21Z</time>
      </trkpt>
      <trkpt lat="39.0184190" lon="1.4873650">
        <ele>65.3</ele>
        <time>2020-02-22T17:43:22Z</time>
      </trkpt>
      <trkpt lat="39.0183420" lon="1.4873730">
        <ele>65.3</ele>
        <time>2020-02-22T17:43:23Z</time>
      </trkpt>
      <trkpt lat="39.0182660" lon="1.4873750">
        <ele>65.3</ele>
        <time>2020-02-22T17:43:24Z</time>
      </trkpt>
      <trkpt lat="39.0181910" lon="1.4873880">
        <ele>65.3</ele>
        <time>2020-02-22T17:43:25Z</time>
      </trkpt>
      <trkpt lat="39.0181150" lon="1.4873860">
        <ele>65.3</ele>
        <time>2020-02-22T17:43:26Z</time>
      </trkpt>
      <trkpt lat="39.0180400" lon="1.4873890">
        <ele>65.3</ele>
        <time>2020-02-22T17:43:27Z</time>
      </trkpt>
      <trkpt lat="39.0179660" lon="1.4873940">
        <ele>65.3</ele>
        <time>2020-02-22T17:43:28Z</time>
      </trkpt>
      <trkpt lat="39.0178910" lon="1.4873970">
        <ele>65.3</ele>
        <time>2020-02-22T17:43:29Z</time>
      </trkpt>
      <trkpt lat="39.0178170" lon="1.4874070">
        <ele>65.4</ele>
        <time>2020-02-22T17:43:30Z</time>
      </trkpt>
      <trkpt lat="39.0177430" lon="1.4874110">
        <ele>65.4</ele>
        <time>2020-02-22T17:43:31Z</time>
      </trkpt>
      <trkpt lat="39.0176690" lon="1.4874100">
        <ele>65.4</ele>
        <time>2020-02-22T17:43:32Z</time>
      </trkpt>
      <trkpt lat="39.0175950" lon="1.4874180">
        <ele>65.5</ele>
        <time>2020-02-22T17:43:33Z</time>
      </trkpt>
      <trkpt lat="39.0175210" lon="1.4874220">
        <ele>65.5</ele>
        <time>2020-02-22T17:43:34Z</time>
      </trkpt>
      <trkpt lat="39.0174470" lon="1.4874280">
        <ele>65.5</ele>
        <time>2020-02-22T17:43:35Z</time>
      </trkpt>
      <trkpt lat="39.0173730" lon="1.4874380">
        <ele>65.4</ele>
        <time>2020-02-22T17:43:36Z</time>
      </trkpt>
      <trkpt lat="39.0173000" lon="1.4874460">
        <ele>65.4</ele>
        <time>2020-02-22T17:43:37Z</time>
      </trkpt>
      <trkpt lat="39.0172260" lon="1.4874510">
        <ele>65.3</ele>
        <time>2020-02-22T17:43:38Z</time>
      </trkpt>
      <trkpt lat="39.0171510" lon="1.4874530">
        <ele>65.2</ele>
        <time>2020-02-22T17:43:39Z</time>
      </trkpt>
      <trkpt lat="39.0170770" lon="1.4874530">
        <ele>65.2</ele>
        <time>2020-02-22T17:43:40Z</time>
      </trkpt>
      <trkpt lat="39.0170020" lon="1.4874560">
        <ele>65.1</ele>
        <time>2020-02-22T17:43:41Z</time>
      </trkpt>
      <trkpt lat="39.0169280" lon="1.4874620">
        <ele>65.0</ele>
        <time>2020-02-22T17:43:42Z</time>
      </trkpt>
      <trkpt lat="39.0168540" lon="1.4874550">
        <ele>64.8</ele>
        <time>2020-02-22T17:43:43Z</time>
      </trkpt>
      <trkpt lat="39.0167790" lon="1.4874570">
        <ele>64.7</ele>
        <time>2020-02-22T17:43:44Z</time>
      </trkpt>
      <trkpt lat="39.0167020" lon="1.4874560">
        <ele>64.5</ele>
        <time>2020-02-22T17:43:45Z</time>
      </trkpt>
      <trkpt lat="39.0166250" lon="1.4874500">
        <ele>64.4</ele>
        <time>2020-02-22T17:43:46Z</time>
      </trkpt>
      <trkpt lat="39.0165490" lon="1.4874390">
        <ele>64.3</ele>
        <time>2020-02-22T17:43:47Z</time>
      </trkpt>
      <trkpt lat="39.0164740" lon="1.4874360">
        <ele>64.3</ele>
        <time>2020-02-22T17:43:48Z</time>
      </trkpt>
      <trkpt lat="39.0163980" lon="1.4874380">
        <ele>64.3</ele>
        <time>2020-02-22T17:43:49Z</time>
      </trkpt>
      <trkpt lat="39.0163160" lon="1.4874450">
        <ele>64.2</ele>
        <time>2020-02-22T17:43:50Z</time>
      </trkpt>
      <trkpt lat="39.0162390" lon="1.4874420">
        <ele>64.2</ele>
        <time>2020-02-22T17:43:51Z</time>
      </trkpt>
      <trkpt lat="39.0161600" lon="1.4874390">
        <ele>64.1</ele>
        <time>2020-02-22T17:43:52Z</time>
      </trkpt>
      <trkpt lat="39.0160790" lon="1.4874450">
        <ele>64.0</ele>
        <time>2020-02-22T17:43:53Z</time>
      </trkpt>
      <trkpt lat="39.0159990" lon="1.4874500">
        <ele>63.8</ele>
        <time>2020-02-22T17:43:54Z</time>
      </trkpt>
      <trkpt lat="39.0159200" lon="1.4874480">
        <ele>63.6</ele>
        <time>2020-02-22T17:43:55Z</time>
      </trkpt>
      <trkpt lat="39.0158420" lon="1.4874510">
        <ele>63.4</ele>
        <time>2020-02-22T17:43:56Z</time>
      </trkpt>
      <trkpt lat="39.0157610" lon="1.4874500">
        <ele>63.2</ele>
        <time>2020-02-22T17:43:57Z</time>
      </trkpt>
      <trkpt lat="39.0156820" lon="1.4874440">
        <ele>62.9</ele>
        <time>2020-02-22T17:43:58Z</time>
      </trkpt>
      <trkpt lat="39.0156010" lon="1.4874520">
        <ele>62.7</ele>
        <time>2020-02-22T17:43:59Z</time>
      </trkpt>
      <trkpt lat="39.0155200" lon="1.4874690">
        <ele>62.4</ele>
        <time>2020-02-22T17:44:00Z</time>
      </trkpt>
      <trkpt lat="39.0154390" lon="1.4874670">
        <ele>62.2</ele>
        <time>2020-02-22T17:44:01Z</time>
      </trkpt>
      <trkpt lat="39.0153580" lon="1.4874660">
        <ele>61.9</ele>
        <time>2020-02-22T17:44:02Z</time>
      </trkpt>
      <trkpt lat="39.0152770" lon="1.4874800">
        <ele>61.7</ele>
        <time>2020-02-22T17:44:03Z</time>
      </trkpt>
      <trkpt lat="39.0151920" lon="1.4874940">
        <ele>61.4</ele>
        <time>2020-02-22T17:44:04Z</time>
      </trkpt>
      <trkpt lat="39.0151080" lon="1.4875000">
        <ele>61.2</ele>
        <time>2020-02-22T17:44:05Z</time>
      </trkpt>
      <trkpt lat="39.0150270" lon="1.4875090">
        <ele>61.0</ele>
        <time>2020-02-22T17:44:06Z</time>
      </trkpt>
      <trkpt lat="39.0149470" lon="1.4875080">
        <ele>60.8</ele>
        <time>2020-02-22T17:44:07Z</time>
      </trkpt>
      <trkpt lat="39.0148650" lon="1.4875220">
        <ele>60.6</ele>
        <time>2020-02-22T17:44:08Z</time>
      </trkpt>
      <trkpt lat="39.0147850" lon="1.4875310">
        <ele>60.3</ele>
        <time>2020-02-22T17:44:09Z</time>
      </trkpt>
      <trkpt lat="39.0147060" lon="1.4875380">
        <ele>60.0</ele>
        <time>2020-02-22T17:44:10Z</time>
      </trkpt>
      <trkpt lat="39.0146260" lon="1.4875420">
        <ele>59.7</ele>
        <time>2020-02-22T17:44:11Z</time>
      </trkpt>
      <trkpt lat="39.0145450" lon="1.4875460">
        <ele>59.5</ele>
        <time>2020-02-22T17:44:12Z</time>
      </trkpt>
      <trkpt lat="39.0144650" lon="1.4875520">
        <ele>59.3</ele>
        <time>2020-02-22T17:44:13Z</time>
      </trkpt>
      <trkpt lat="39.0143860" lon="1.4875610">
        <ele>59.1</ele>
        <time>2020-02-22T17:44:14Z</time>
      </trkpt>
      <trkpt lat="39.0143090" lon="1.4875620">
        <ele>58.9</ele>
        <time>2020-02-22T17:44:15Z</time>
      </trkpt>
      <trkpt lat="39.0142310" lon="1.4875640">
        <ele>58.8</ele>
        <time>2020-02-22T17:44:16Z</time>
      </trkpt>
      <trkpt lat="39.0141530" lon="1.4875670">
        <ele>58.7</ele>
        <time>2020-02-22T17:44:17Z</time>
      </trkpt>
      <trkpt lat="39.0140750" lon="1.4875690">
        <ele>58.5</ele>
        <time>2020-02-22T17:44:18Z</time>
      </trkpt>
      <trkpt lat="39.0139980" lon="1.4875730">
        <ele>58.3</ele>
        <time>2020-02-22T17:44:19Z</time>
      </trkpt>
      <trkpt lat="39.0139210" lon="1.4875820">
        <ele>58.2</ele>
        <time>2020-02-22T17:44:20Z</time>
      </trkpt>
      <trkpt lat="39.0138450" lon="1.4875910">
        <ele>58.1</ele>
        <time>2020-02-22T17:44:21Z</time>
      </trkpt>
      <trkpt lat="39.0137690" lon="1.4875960">
        <ele>58.0</ele>
        <time>2020-02-22T17:44:22Z</time>
      </trkpt>
      <trkpt lat="39.0136940" lon="1.4876030">
        <ele>57.9</ele>
        <time>2020-02-22T17:44:23Z</time>
      </trkpt>
      <trkpt lat="39.0136180" lon="1.4876080">
        <ele>57.5</ele>
        <time>2020-02-22T17:44:24Z</time>
      </trkpt>
      <trkpt lat="39.0135430" lon="1.4876180">
        <ele>57.3</ele>
        <time>2020-02-22T17:44:25Z</time>
      </trkpt>
      <trkpt lat="39.0134670" lon="1.4876240">
        <ele>57.1</ele>
        <time>2020-02-22T17:44:26Z</time>
      </trkpt>
      <trkpt lat="39.0133910" lon="1.4876300">
        <ele>57.0</ele>
        <time>2020-02-22T17:44:27Z</time>
      </trkpt>
      <trkpt lat="39.0133150" lon="1.4876370">
        <ele>57.0</ele>
        <time>2020-02-22T17:44:28Z</time>
      </trkpt>
      <trkpt lat="39.0132400" lon="1.4876440">
        <ele>57.0</ele>
        <time>2020-02-22T17:44:29Z</time>
      </trkpt>
      <trkpt lat="39.0131660" lon="1.4876520">
        <ele>57.0</ele>
        <time>2020-02-22T17:44:30Z</time>
      </trkpt>
      <trkpt lat="39.0130920" lon="1.4876610">
        <ele>57.0</ele>
        <time>2020-02-22T17:44:31Z</time>
      </trkpt>
      <trkpt lat="39.0130180" lon="1.4876690">
        <ele>57.0</ele>
        <time>2020-02-22T17:44:32Z</time>
      </trkpt>
      <trkpt lat="39.0129430" lon="1.4876750">
        <ele>57.0</ele>
        <time>2020-02-22T17:44:33Z</time>
      </trkpt>
      <trkpt lat="39.0128690" lon="1.4876830">
        <ele>57.0</ele>
        <time>2020-02-22T17:44:34Z</time>
      </trkpt>
      <trkpt lat="39.0127960" lon="1.4876880">
        <ele>57.0</ele>
        <time>2020-02-22T17:44:35Z</time>
      </trkpt>
      <trkpt lat="39.0127230" lon="1.4876900">
        <ele>57.0</ele>
        <time>2020-02-22T17:44:36Z</time>
      </trkpt>
      <trkpt lat="39.0126500" lon="1.4876960">
        <ele>57.0</ele>
        <time>2020-02-22T17:44:37Z</time>
      </trkpt>
      <trkpt lat="39.0125770" lon="1.4877010">
        <ele>57.0</ele>
        <time>2020-02-22T17:44:38Z</time>
      </trkpt>
      <trkpt lat="39.0125040" lon="1.4877060">
        <ele>57.0</ele>
        <time>2020-02-22T17:44:39Z</time>
      </trkpt>
      <trkpt lat="39.0124310" lon="1.4877120">
        <ele>57.0</ele>
        <time>2020-02-22T17:44:40Z</time>
      </trkpt>
      <trkpt lat="39.0123580" lon="1.4877210">
        <ele>57.0</ele>
        <time>2020-02-22T17:44:41Z</time>
      </trkpt>
      <trkpt lat="39.0122840" lon="1.4877270">
        <ele>57.0</ele>
        <time>2020-02-22T17:44:42Z</time>
      </trkpt>
      <trkpt lat="39.0122100" lon="1.4877320">
        <ele>57.0</ele>
        <time>2020-02-22T17:44:43Z</time>
      </trkpt>
      <trkpt lat="39.0121350" lon="1.4877360">
        <ele>56.9</ele>
        <time>2020-02-22T17:44:44Z</time>
      </trkpt>
      <trkpt lat="39.0120600" lon="1.4877430">
        <ele>56.9</ele>
        <time>2020-02-22T17:44:45Z</time>
      </trkpt>
      <trkpt lat="39.0119850" lon="1.4877500">
        <ele>56.7</ele>
        <time>2020-02-22T17:44:46Z</time>
      </trkpt>
      <trkpt lat="39.0119090" lon="1.4877560">
        <ele>56.6</ele>
        <time>2020-02-22T17:44:47Z</time>
      </trkpt>
      <trkpt lat="39.0118330" lon="1.4877580">
        <ele>56.4</ele>
        <time>2020-02-22T17:44:48Z</time>
      </trkpt>
      <trkpt lat="39.0117570" lon="1.4877570">
        <ele>56.3</ele>
        <time>2020-02-22T17:44:49Z</time>
      </trkpt>
      <trkpt lat="39.0116810" lon="1.4877620">
        <ele>56.1</ele>
        <time>2020-02-22T17:44:50Z</time>
      </trkpt>
      <trkpt lat="39.0116050" lon="1.4877670">
        <ele>56.0</ele>
        <time>2020-02-22T17:44:51Z</time>
      </trkpt>
      <trkpt lat="39.0115290" lon="1.4877750">
        <ele>55.9</ele>
        <time>2020-02-22T17:44:52Z</time>
      </trkpt>
      <trkpt lat="39.0114520" lon="1.4877840">
        <ele>55.8</ele>
        <time>2020-02-22T17:44:53Z</time>
      </trkpt>
      <trkpt lat="39.0113760" lon="1.4877910">
        <ele>55.7</ele>
        <time>2020-02-22T17:44:54Z</time>
      </trkpt>
      <trkpt lat="39.0112990" lon="1.4877940">
        <ele>55.5</ele>
        <time>2020-02-22T17:44:55Z</time>
      </trkpt>
      <trkpt lat="39.0112220" lon="1.4877960">
        <ele>55.4</ele>
        <time>2020-02-22T17:44:56Z</time>
      </trkpt>
      <trkpt lat="39.0111470" lon="1.4877960">
        <ele>55.3</ele>
        <time>2020-02-22T17:44:57Z</time>
      </trkpt>
      <trkpt lat="39.0110720" lon="1.4877960">
        <ele>55.2</ele>
        <time>2020-02-22T17:44:58Z</time>
      </trkpt>
      <trkpt lat="39.0109970" lon="1.4878000">
        <ele>55.2</ele>
        <time>2020-02-22T17:44:59Z</time>
      </trkpt>
      <trkpt lat="39.0109220" lon="1.4878090">
        <ele>55.2</ele>
        <time>2020-02-22T17:45:00Z</time>
      </trkpt>
      <trkpt lat="39.0108480" lon="1.4878110">
        <ele>55.2</ele>
        <time>2020-02-22T17:45:01Z</time>
      </trkpt>
      <trkpt lat="39.0107770" lon="1.4878170">
        <ele>55.2</ele>
        <time>2020-02-22T17:45:02Z</time>
      </trkpt>
      <trkpt lat="39.0107110" lon="1.4878190">
        <ele>55.2</ele>
        <time>2020-02-22T17:45:03Z</time>
      </trkpt>
      <trkpt lat="39.0106480" lon="1.4878220">
        <ele>55.2</ele>
        <time>2020-02-22T17:45:04Z</time>
      </trkpt>
      <trkpt lat="39.0105880" lon="1.4878220">
        <ele>55.2</ele>
        <time>2020-02-22T17:45:05Z</time>
      </trkpt>
      <trkpt lat="39.0105270" lon="1.4878250">
        <ele>55.2</ele>
        <time>2020-02-22T17:45:06Z</time>
      </trkpt>
      <trkpt lat="39.0104660" lon="1.4878320">
        <ele>55.1</ele>
        <time>2020-02-22T17:45:07Z</time>
      </trkpt>
      <trkpt lat="39.0104060" lon="1.4878460">
        <ele>55.1</ele>
        <time>2020-02-22T17:45:08Z</time>
      </trkpt>
      <trkpt lat="39.0103480" lon="1.4878420">
        <ele>55.1</ele>
        <time>2020-02-22T17:45:09Z</time>
      </trkpt>
      <trkpt lat="39.0102870" lon="1.4878380">
        <ele>55.1</ele>
        <time>2020-02-22T17:45:10Z</time>
      </trkpt>
      <trkpt lat="39.0102230" lon="1.4878240">
        <ele>55.1</ele>
        <time>2020-02-22T17:45:11Z</time>
      </trkpt>
      <trkpt lat="39.0101590" lon="1.4878150">
        <ele>55.1</ele>
        <time>2020-02-22T17:45:12Z</time>
      </trkpt>
      <trkpt lat="39.0100980" lon="1.4878080">
        <ele>55.1</ele>
        <time>2020-02-22T17:45:13Z</time>
      </trkpt>
      <trkpt lat="39.0100340" lon="1.4878030">
        <ele>55.1</ele>
        <time>2020-02-22T17:45:14Z</time>
      </trkpt>
      <trkpt lat="39.0099660" lon="1.4878110">
        <ele>55.1</ele>
        <time>2020-02-22T17:45:15Z</time>
      </trkpt>
      <trkpt lat="39.0098990" lon="1.4878190">
        <ele>55.1</ele>
        <time>2020-02-22T17:45:16Z</time>
      </trkpt>
      <trkpt lat="39.0098330" lon="1.4878260">
        <ele>55.1</ele>
        <time>2020-02-22T17:45:17Z</time>
      </trkpt>
      <trkpt lat="39.0097660" lon="1.4878290">
        <ele>55.1</ele>
        <time>2020-02-22T17:45:18Z</time>
      </trkpt>
      <trkpt lat="39.0097000" lon="1.4878240">
        <ele>55.1</ele>
        <time>2020-02-22T17:45:19Z</time>
      </trkpt>
      <trkpt lat="39.0096350" lon="1.4878240">
        <ele>55.1</ele>
        <time>2020-02-22T17:45:20Z</time>
      </trkpt>
      <trkpt lat="39.0095690" lon="1.4878200">
        <ele>55.1</ele>
        <time>2020-02-22T17:45:21Z</time>
      </trkpt>
      <trkpt lat="39.0095020" lon="1.4878230">
        <ele>55.1</ele>
        <time>2020-02-22T17:45:22Z</time>
      </trkpt>
      <trkpt lat="39.0094360" lon="1.4878230">
        <ele>55.1</ele>
        <time>2020-02-22T17:45:23Z</time>
      </trkpt>
      <trkpt lat="39.0093670" lon="1.4878280">
        <ele>55.1</ele>
        <time>2020-02-22T17:45:24Z</time>
      </trkpt>
      <trkpt lat="39.0092980" lon="1.4878380">
        <ele>55.1</ele>
        <time>2020-02-22T17:45:25Z</time>
      </trkpt>
      <trkpt lat="39.0092280" lon="1.4878450">
        <ele>55.0</ele>
        <time>2020-02-22T17:45:26Z</time>
      </trkpt>
      <trkpt lat="39.0091600" lon="1.4878420">
        <ele>55.0</ele>
        <time>2020-02-22T17:45:27Z</time>
      </trkpt>
      <trkpt lat="39.0090910" lon="1.4878480">
        <ele>54.8</ele>
        <time>2020-02-22T17:45:28Z</time>
      </trkpt>
      <trkpt lat="39.0090260" lon="1.4878510">
        <ele>54.7</ele>
        <time>2020-02-22T17:45:29Z</time>
      </trkpt>
      <trkpt lat="39.0089590" lon="1.4878550">
        <ele>54.6</ele>
        <time>2020-02-22T17:45:30Z</time>
      </trkpt>
      <trkpt lat="39.0088910" lon="1.4878560">
        <ele>54.4</ele>
        <time>2020-02-22T17:45:31Z</time>
      </trkpt>
      <trkpt lat="39.0088230" lon="1.4878640">
        <ele>54.3</ele>
        <time>2020-02-22T17:45:32Z</time>
      </trkpt>
      <trkpt lat="39.0087540" lon="1.4878710">
        <ele>54.2</ele>
        <time>2020-02-22T17:45:33Z</time>
      </trkpt>
      <trkpt lat="39.0086840" lon="1.4878820">
        <ele>54.2</ele>
        <time>2020-02-22T17:45:34Z</time>
      </trkpt>
      <trkpt lat="39.0086130" lon="1.4878920">
        <ele>54.1</ele>
        <time>2020-02-22T17:45:35Z</time>
      </trkpt>
      <trkpt lat="39.0085410" lon="1.4878930">
        <ele>54.1</ele>
        <time>2020-02-22T17:45:36Z</time>
      </trkpt>
      <trkpt lat="39.0084710" lon="1.4878950">
        <ele>54.1</ele>
        <time>2020-02-22T17:45:37Z</time>
      </trkpt>
      <trkpt lat="39.0084010" lon="1.4879010">
        <ele>54.1</ele>
        <time>2020-02-22T17:45:38Z</time>
      </trkpt>
      <trkpt lat="39.0083310" lon="1.4879080">
        <ele>54.1</ele>
        <time>2020-02-22T17:45:39Z</time>
      </trkpt>
      <trkpt lat="39.0082610" lon="1.4879160">
        <ele>54.1</ele>
        <time>2020-02-22T17:45:40Z</time>
      </trkpt>
      <trkpt lat="39.0081910" lon="1.4879230">
        <ele>54.1</ele>
        <time>2020-02-22T17:45:41Z</time>
      </trkpt>
      <trkpt lat="39.0081210" lon="1.4879250">
        <ele>54.1</ele>
        <time>2020-02-22T17:45:42Z</time>
      </trkpt>
      <trkpt lat="39.0080500" lon="1.4879310">
        <ele>54.1</ele>
        <time>2020-02-22T17:45:43Z</time>
      </trkpt>
      <trkpt lat="39.0079790" lon="1.4879340">
        <ele>54.1</ele>
        <time>2020-02-22T17:45:44Z</time>
      </trkpt>
      <trkpt lat="39.0079100" lon="1.4879370">
        <ele>54.1</ele>
        <time>2020-02-22T17:45:45Z</time>
      </trkpt>
      <trkpt lat="39.0078390" lon="1.4879400">
        <ele>54.1</ele>
        <time>2020-02-22T17:45:46Z</time>
      </trkpt>
      <trkpt lat="39.0077690" lon="1.4879450">
        <ele>54.1</ele>
        <time>2020-02-22T17:45:47Z</time>
      </trkpt>
      <trkpt lat="39.0076980" lon="1.4879520">
        <ele>54.2</ele>
        <time>2020-02-22T17:45:48Z</time>
      </trkpt>
      <trkpt lat="39.0076260" lon="1.4879610">
        <ele>54.2</ele>
        <time>2020-02-22T17:45:49Z</time>
      </trkpt>
      <trkpt lat="39.0075540" lon="1.4879650">
        <ele>54.2</ele>
        <time>2020-02-22T17:45:50Z</time>
      </trkpt>
      <trkpt lat="39.0074820" lon="1.4879670">
        <ele>54.2</ele>
        <time>2020-02-22T17:45:51Z</time>
      </trkpt>
      <trkpt lat="39.0074100" lon="1.4879740">
        <ele>54.2</ele>
        <time>2020-02-22T17:45:52Z</time>
      </trkpt>
      <trkpt lat="39.0073380" lon="1.4879850">
        <ele>54.2</ele>
        <time>2020-02-22T17:45:53Z</time>
      </trkpt>
      <trkpt lat="39.0072680" lon="1.4879870">
        <ele>54.2</ele>
        <time>2020-02-22T17:45:54Z</time>
      </trkpt>
      <trkpt lat="39.0071980" lon="1.4879930">
        <ele>54.2</ele>
        <time>2020-02-22T17:45:55Z</time>
      </trkpt>
      <trkpt lat="39.0071280" lon="1.4879930">
        <ele>54.2</ele>
        <time>2020-02-22T17:45:56Z</time>
      </trkpt>
      <trkpt lat="39.0070590" lon="1.4879900">
        <ele>54.2</ele>
        <time>2020-02-22T17:45:57Z</time>
      </trkpt>
      <trkpt lat="39.0069920" lon="1.4879930">
        <ele>54.3</ele>
        <time>2020-02-22T17:45:58Z</time>
      </trkpt>
      <trkpt lat="39.0069240" lon="1.4879960">
        <ele>54.5</ele>
        <time>2020-02-22T17:45:59Z</time>
      </trkpt>
      <trkpt lat="39.0068560" lon="1.4880050">
        <ele>54.7</ele>
        <time>2020-02-22T17:46:00Z</time>
      </trkpt>
      <trkpt lat="39.0067900" lon="1.4880110">
        <ele>54.8</ele>
        <time>2020-02-22T17:46:01Z</time>
      </trkpt>
      <trkpt lat="39.0067260" lon="1.4880120">
        <ele>54.8</ele>
        <time>2020-02-22T17:46:02Z</time>
      </trkpt>
      <trkpt lat="39.0066630" lon="1.4880160">
        <ele>54.7</ele>
        <time>2020-02-22T17:46:03Z</time>
      </trkpt>
      <trkpt lat="39.0066000" lon="1.4880200">
        <ele>54.8</ele>
        <time>2020-02-22T17:46:04Z</time>
      </trkpt>
      <trkpt lat="39.0065370" lon="1.4880250">
        <ele>54.8</ele>
        <time>2020-02-22T17:46:05Z</time>
      </trkpt>
      <trkpt lat="39.0064750" lon="1.4880310">
        <ele>54.9</ele>
        <time>2020-02-22T17:46:06Z</time>
      </trkpt>
      <trkpt lat="39.0064150" lon="1.4880370">
        <ele>54.9</ele>
        <time>2020-02-22T17:46:07Z</time>
      </trkpt>
      <trkpt lat="39.0063560" lon="1.4880430">
        <ele>54.9</ele>
        <time>2020-02-22T17:46:08Z</time>
      </trkpt>
      <trkpt lat="39.0062980" lon="1.4880400">
        <ele>55.0</ele>
        <time>2020-02-22T17:46:09Z</time>
      </trkpt>
      <trkpt lat="39.0062400" lon="1.4880440">
        <ele>55.1</ele>
        <time>2020-02-22T17:46:10Z</time>
      </trkpt>
      <trkpt lat="39.0061810" lon="1.4880360">
        <ele>55.2</ele>
        <time>2020-02-22T17:46:11Z</time>
      </trkpt>
      <trkpt lat="39.0061310" lon="1.4879900">
        <ele>55.3</ele>
        <time>2020-02-22T17:46:12Z</time>
      </trkpt>
      <trkpt lat="39.0060840" lon="1.4879410">
        <ele>55.4</ele>
        <time>2020-02-22T17:46:13Z</time>
      </trkpt>
      <trkpt lat="39.0060360" lon="1.4878990">
        <ele>55.5</ele>
        <time>2020-02-22T17:46:14Z</time>
      </trkpt>
      <trkpt lat="39.0059970" lon="1.4878570">
        <ele>55.8</ele>
        <time>2020-02-22T17:46:15Z</time>
      </trkpt>
      <trkpt lat="39.0059550" lon="1.4878220">
        <ele>55.8</ele>
        <time>2020-02-22T17:46:16Z</time>
      </trkpt>
      <trkpt lat="39.0059100" lon="1.4877990">
        <ele>55.8</ele>
        <time>2020-02-22T17:46:17Z</time>
      </trkpt>
      <trkpt lat="39.0058690" lon="1.4878120">
        <ele>55.8</ele>
        <time>2020-02-22T17:46:18Z</time>
      </trkpt>
      <trkpt lat="39.0058340" lon="1.4878580">
        <ele>55.8</ele>
        <time>2020-02-22T17:46:19Z</time>
      </trkpt>
      <trkpt lat="39.0058010" lon="1.4879090">
        <ele>55.8</ele>
        <time>2020-02-22T17:46:20Z</time>
      </trkpt>
      <trkpt lat="39.0057750" lon="1.4879710">
        <ele>55.8</ele>
        <time>2020-02-22T17:46:21Z</time>
      </trkpt>
      <trkpt lat="39.0057640" lon="1.4880480">
        <ele>55.8</ele>
        <time>2020-02-22T17:46:22Z</time>
      </trkpt>
      <trkpt lat="39.0057680" lon="1.4881290">
        <ele>55.6</ele>
        <time>2020-02-22T17:46:23Z</time>
      </trkpt>
      <trkpt lat="39.0057830" lon="1.4882090">
        <ele>55.6</ele>
        <time>2020-02-22T17:46:24Z</time>
      </trkpt>
      <trkpt lat="39.0057980" lon="1.4882920">
        <ele>55.3</ele>
        <time>2020-02-22T17:46:25Z</time>
      </trkpt>
      <trkpt lat="39.0058120" lon="1.4883780">
        <ele>55.2</ele>
        <time>2020-02-22T17:46:26Z</time>
      </trkpt>
      <trkpt lat="39.0058210" lon="1.4884650">
        <ele>55.1</ele>
        <time>2020-02-22T17:46:27Z</time>
      </trkpt>
      <trkpt lat="39.0058200" lon="1.4885520">
        <ele>55.0</ele>
        <time>2020-02-22T17:46:28Z</time>
      </trkpt>
      <trkpt lat="39.0058100" lon="1.4886380">
        <ele>54.9</ele>
        <time>2020-02-22T17:46:29Z</time>
      </trkpt>
      <trkpt lat="39.0057970" lon="1.4887240">
        <ele>54.8</ele>
        <time>2020-02-22T17:46:30Z</time>
      </trkpt>
      <trkpt lat="39.0057840" lon="1.4888090">
        <ele>54.7</ele>
        <time>2020-02-22T17:46:31Z</time>
      </trkpt>
      <trkpt lat="39.0057740" lon="1.4888950">
        <ele>54.7</ele>
        <time>2020-02-22T17:46:32Z</time>
      </trkpt>
      <trkpt lat="39.0057650" lon="1.4889780">
        <ele>54.6</ele>
        <time>2020-02-22T17:46:33Z</time>
      </trkpt>
      <trkpt lat="39.0057520" lon="1.4890610">
        <ele>54.6</ele>
        <time>2020-02-22T17:46:34Z</time>
      </trkpt>
      <trkpt lat="39.0057430" lon="1.4891440">
        <ele>54.6</ele>
        <time>2020-02-22T17:46:35Z</time>
      </trkpt>
      <trkpt lat="39.0057300" lon="1.4892230">
        <ele>54.5</ele>
        <time>2020-02-22T17:46:36Z</time>
      </trkpt>
      <trkpt lat="39.0057170" lon="1.4893060">
        <ele>54.5</ele>
        <time>2020-02-22T17:46:37Z</time>
      </trkpt>
      <trkpt lat="39.0057030" lon="1.4893840">
        <ele>54.5</ele>
        <time>2020-02-22T17:46:38Z</time>
      </trkpt>
      <trkpt lat="39.0056880" lon="1.4894610">
        <ele>54.5</ele>
        <time>2020-02-22T17:46:39Z</time>
      </trkpt>
      <trkpt lat="39.0056760" lon="1.4895400">
        <ele>54.5</ele>
        <time>2020-02-22T17:46:40Z</time>
      </trkpt>
      <trkpt lat="39.0056670" lon="1.4896220">
        <ele>54.6</ele>
        <time>2020-02-22T17:46:41Z</time>
      </trkpt>
      <trkpt lat="39.0056520" lon="1.4897030">
        <ele>54.6</ele>
        <time>2020-02-22T17:46:42Z</time>
      </trkpt>
      <trkpt lat="39.0056450" lon="1.4897860">
        <ele>54.7</ele>
        <time>2020-02-22T17:46:43Z</time>
      </trkpt>
      <trkpt lat="39.0056350" lon="1.4898650">
        <ele>54.8</ele>
        <time>2020-02-22T17:46:44Z</time>
      </trkpt>
      <trkpt lat="39.0056200" lon="1.4899450">
        <ele>54.9</ele>
        <time>2020-02-22T17:46:45Z</time>
      </trkpt>
      <trkpt lat="39.0056090" lon="1.4900250">
        <ele>54.9</ele>
        <time>2020-02-22T17:46:46Z</time>
      </trkpt>
      <trkpt lat="39.0055960" lon="1.4901050">
        <ele>55.0</ele>
        <time>2020-02-22T17:46:47Z</time>
      </trkpt>
      <trkpt lat="39.0055800" lon="1.4901870">
        <ele>55.0</ele>
        <time>2020-02-22T17:46:48Z</time>
      </trkpt>
      <trkpt lat="39.0055640" lon="1.4902690">
        <ele>54.9</ele>
        <time>2020-02-22T17:46:49Z</time>
      </trkpt>
      <trkpt lat="39.0055500" lon="1.4903540">
        <ele>54.8</ele>
        <time>2020-02-22T17:46:50Z</time>
      </trkpt>
      <trkpt lat="39.0055330" lon="1.4904380">
        <ele>54.6</ele>
        <time>2020-02-22T17:46:51Z</time>
      </trkpt>
      <trkpt lat="39.0055150" lon="1.4905190">
        <ele>54.6</ele>
        <time>2020-02-22T17:46:52Z</time>
      </trkpt>
      <trkpt lat="39.0054980" lon="1.4906020">
        <ele>54.7</ele>
        <time>2020-02-22T17:46:53Z</time>
      </trkpt>
      <trkpt lat="39.0054840" lon="1.4906880">
        <ele>54.7</ele>
        <time>2020-02-22T17:46:54Z</time>
      </trkpt>
      <trkpt lat="39.0054680" lon="1.4907710">
        <ele>54.8</ele>
        <time>2020-02-22T17:46:55Z</time>
      </trkpt>
      <trkpt lat="39.0054510" lon="1.4908500">
        <ele>54.8</ele>
        <time>2020-02-22T17:46:56Z</time>
      </trkpt>
      <trkpt lat="39.0054280" lon="1.4909330">
        <ele>54.9</ele>
        <time>2020-02-22T17:46:57Z</time>
      </trkpt>
      <trkpt lat="39.0054020" lon="1.4910160">
        <ele>54.9</ele>
        <time>2020-02-22T17:46:58Z</time>
      </trkpt>
      <trkpt lat="39.0053750" lon="1.4910970">
        <ele>55.0</ele>
        <time>2020-02-22T17:46:59Z</time>
      </trkpt>
      <trkpt lat="39.0053470" lon="1.4911780">
        <ele>54.9</ele>
        <time>2020-02-22T17:47:00Z</time>
      </trkpt>
      <trkpt lat="39.0053220" lon="1.4912590">
        <ele>54.7</ele>
        <time>2020-02-22T17:47:01Z</time>
      </trkpt>
      <trkpt lat="39.0052900" lon="1.4913370">
        <ele>54.7</ele>
        <time>2020-02-22T17:47:02Z</time>
      </trkpt>
      <trkpt lat="39.0052640" lon="1.4914170">
        <ele>54.7</ele>
        <time>2020-02-22T17:47:03Z</time>
      </trkpt>
      <trkpt lat="39.0052360" lon="1.4914980">
        <ele>54.7</ele>
        <time>2020-02-22T17:47:04Z</time>
      </trkpt>
      <trkpt lat="39.0052060" lon="1.4915800">
        <ele>54.7</ele>
        <time>2020-02-22T17:47:05Z</time>
      </trkpt>
      <trkpt lat="39.0051740" lon="1.4916590">
        <ele>54.8</ele>
        <time>2020-02-22T17:47:06Z</time>
      </trkpt>
      <trkpt lat="39.0051430" lon="1.4917370">
        <ele>54.8</ele>
        <time>2020-02-22T17:47:07Z</time>
      </trkpt>
      <trkpt lat="39.0051160" lon="1.4918170">
        <ele>54.8</ele>
        <time>2020-02-22T17:47:08Z</time>
      </trkpt>
      <trkpt lat="39.0050940" lon="1.4919010">
        <ele>54.7</ele>
        <time>2020-02-22T17:47:09Z</time>
      </trkpt>
      <trkpt lat="39.0050670" lon="1.4919840">
        <ele>54.6</ele>
        <time>2020-02-22T17:47:10Z</time>
      </trkpt>
      <trkpt lat="39.0050500" lon="1.4920710">
        <ele>54.4</ele>
        <time>2020-02-22T17:47:11Z</time>
      </trkpt>
      <trkpt lat="39.0050290" lon="1.4921570">
        <ele>54.2</ele>
        <time>2020-02-22T17:47:12Z</time>
      </trkpt>
      <trkpt lat="39.0050070" lon="1.4922420">
        <ele>53.9</ele>
        <time>2020-02-22T17:47:13Z</time>
      </trkpt>
      <trkpt lat="39.0049870" lon="1.4923260">
        <ele>53.7</ele>
        <time>2020-02-22T17:47:14Z</time>
      </trkpt>
      <trkpt lat="39.0049710" lon="1.4924130">
        <ele>53.4</ele>
        <time>2020-02-22T17:47:15Z</time>
      </trkpt>
      <trkpt lat="39.0049550" lon="1.4924940">
        <ele>53.1</ele>
        <time>2020-02-22T17:47:16Z</time>
      </trkpt>
      <trkpt lat="39.0049340" lon="1.4925730">
        <ele>52.9</ele>
        <time>2020-02-22T17:47:17Z</time>
      </trkpt>
      <trkpt lat="39.0049080" lon="1.4926520">
        <ele>52.8</ele>
        <time>2020-02-22T17:47:18Z</time>
      </trkpt>
      <trkpt lat="39.0048820" lon="1.4927320">
        <ele>52.7</ele>
        <time>2020-02-22T17:47:19Z</time>
      </trkpt>
      <trkpt lat="39.0048610" lon="1.4928140">
        <ele>52.6</ele>
        <time>2020-02-22T17:47:20Z</time>
      </trkpt>
      <trkpt lat="39.0048400" lon="1.4928970">
        <ele>52.5</ele>
        <time>2020-02-22T17:47:21Z</time>
      </trkpt>
      <trkpt lat="39.0048140" lon="1.4929780">
        <ele>52.4</ele>
        <time>2020-02-22T17:47:22Z</time>
      </trkpt>
      <trkpt lat="39.0047940" lon="1.4930630">
        <ele>52.2</ele>
        <time>2020-02-22T17:47:23Z</time>
      </trkpt>
      <trkpt lat="39.0047800" lon="1.4931490">
        <ele>52.0</ele>
        <time>2020-02-22T17:47:24Z</time>
      </trkpt>
      <trkpt lat="39.0047580" lon="1.4932310">
        <ele>51.8</ele>
        <time>2020-02-22T17:47:25Z</time>
      </trkpt>
      <trkpt lat="39.0047370" lon="1.4933140">
        <ele>51.6</ele>
        <time>2020-02-22T17:47:26Z</time>
      </trkpt>
      <trkpt lat="39.0047120" lon="1.4933950">
        <ele>51.6</ele>
        <time>2020-02-22T17:47:27Z</time>
      </trkpt>
      <trkpt lat="39.0046980" lon="1.4934750">
        <ele>51.5</ele>
        <time>2020-02-22T17:47:28Z</time>
      </trkpt>
      <trkpt lat="39.0046760" lon="1.4935540">
        <ele>51.5</ele>
        <time>2020-02-22T17:47:29Z</time>
      </trkpt>
      <trkpt lat="39.0046530" lon="1.4936340">
        <ele>51.4</ele>
        <time>2020-02-22T17:47:30Z</time>
      </trkpt>
      <trkpt lat="39.0046290" lon="1.4937140">
        <ele>51.3</ele>
        <time>2020-02-22T17:47:31Z</time>
      </trkpt>
      <trkpt lat="39.0046090" lon="1.4937950">
        <ele>51.2</ele>
        <time>2020-02-22T17:47:32Z</time>
      </trkpt>
      <trkpt lat="39.0045880" lon="1.4938770">
        <ele>51.2</ele>
        <time>2020-02-22T17:47:33Z</time>
      </trkpt>
      <trkpt lat="39.0045610" lon="1.4939560">
        <ele>51.1</ele>
        <time>2020-02-22T17:47:34Z</time>
      </trkpt>
      <trkpt lat="39.0045400" lon="1.4940370">
        <ele>51.0</ele>
        <time>2020-02-22T17:47:35Z</time>
      </trkpt>
      <trkpt lat="39.0045220" lon="1.4941160">
        <ele>51.0</ele>
        <time>2020-02-22T17:47:36Z</time>
      </trkpt>
      <trkpt lat="39.0045060" lon="1.4941950">
        <ele>51.0</ele>
        <time>2020-02-22T17:47:37Z</time>
      </trkpt>
      <trkpt lat="39.0044870" lon="1.4942760">
        <ele>51.0</ele>
        <time>2020-02-22T17:47:38Z</time>
      </trkpt>
      <trkpt lat="39.0044560" lon="1.4943540">
        <ele>51.0</ele>
        <time>2020-02-22T17:47:39Z</time>
      </trkpt>
      <trkpt lat="39.0044270" lon="1.4944330">
        <ele>51.0</ele>
        <time>2020-02-22T17:47:40Z</time>
      </trkpt>
      <trkpt lat="39.0044010" lon="1.4945140">
        <ele>51.0</ele>
        <time>2020-02-22T17:47:41Z</time>
      </trkpt>
      <trkpt lat="39.0043670" lon="1.4945900">
        <ele>51.0</ele>
        <time>2020-02-22T17:47:42Z</time>
      </trkpt>
      <trkpt lat="39.0043300" lon="1.4946640">
        <ele>51.0</ele>
        <time>2020-02-22T17:47:43Z</time>
      </trkpt>
      <trkpt lat="39.0042930" lon="1.4947380">
        <ele>51.0</ele>
        <time>2020-02-22T17:47:44Z</time>
      </trkpt>
      <trkpt lat="39.0042570" lon="1.4948080">
        <ele>51.0</ele>
        <time>2020-02-22T17:47:45Z</time>
      </trkpt>
      <trkpt lat="39.0042250" lon="1.4948850">
        <ele>51.0</ele>
        <time>2020-02-22T17:47:46Z</time>
      </trkpt>
      <trkpt lat="39.0041880" lon="1.4949610">
        <ele>51.0</ele>
        <time>2020-02-22T17:47:47Z</time>
      </trkpt>
      <trkpt lat="39.0041470" lon="1.4950330">
        <ele>51.0</ele>
        <time>2020-02-22T17:47:48Z</time>
      </trkpt>
      <trkpt lat="39.0041060" lon="1.4951060">
        <ele>51.0</ele>
        <time>2020-02-22T17:47:49Z</time>
      </trkpt>
      <trkpt lat="39.0040670" lon="1.4951830">
        <ele>50.9</ele>
        <time>2020-02-22T17:47:50Z</time>
      </trkpt>
      <trkpt lat="39.0040290" lon="1.4952600">
        <ele>50.8</ele>
        <time>2020-02-22T17:47:51Z</time>
      </trkpt>
      <trkpt lat="39.0039960" lon="1.4953400">
        <ele>50.7</ele>
        <time>2020-02-22T17:47:52Z</time>
      </trkpt>
      <trkpt lat="39.0039580" lon="1.4954210">
        <ele>50.5</ele>
        <time>2020-02-22T17:47:53Z</time>
      </trkpt>
      <trkpt lat="39.0039230" lon="1.4955050">
        <ele>50.3</ele>
        <time>2020-02-22T17:47:54Z</time>
      </trkpt>
      <trkpt lat="39.0038850" lon="1.4955860">
        <ele>50.1</ele>
        <time>2020-02-22T17:47:55Z</time>
      </trkpt>
      <trkpt lat="39.0038430" lon="1.4956670">
        <ele>49.9</ele>
        <time>2020-02-22T17:47:56Z</time>
      </trkpt>
      <trkpt lat="39.0038060" lon="1.4957480">
        <ele>49.7</ele>
        <time>2020-02-22T17:47:57Z</time>
      </trkpt>
      <trkpt lat="39.0037690" lon="1.4958310">
        <ele>49.5</ele>
        <time>2020-02-22T17:47:58Z</time>
      </trkpt>
      <trkpt lat="39.0037350" lon="1.4959180">
        <ele>49.3</ele>
        <time>2020-02-22T17:47:59Z</time>
      </trkpt>
      <trkpt lat="39.0037010" lon="1.4960020">
        <ele>49.2</ele>
        <time>2020-02-22T17:48:00Z</time>
      </trkpt>
      <trkpt lat="39.0036650" lon="1.4960850">
        <ele>49.1</ele>
        <time>2020-02-22T17:48:01Z</time>
      </trkpt>
      <trkpt lat="39.0036300" lon="1.4961720">
        <ele>49.0</ele>
        <time>2020-02-22T17:48:02Z</time>
      </trkpt>
      <trkpt lat="39.0036030" lon="1.4962640">
        <ele>48.9</ele>
        <time>2020-02-22T17:48:03Z</time>
      </trkpt>
      <trkpt lat="39.0035810" lon="1.4963560">
        <ele>48.8</ele>
        <time>2020-02-22T17:48:04Z</time>
      </trkpt>
      <trkpt lat="39.0035660" lon="1.4964540">
        <ele>48.6</ele>
        <time>2020-02-22T17:48:05Z</time>
      </trkpt>
      <trkpt lat="39.0035500" lon="1.4965520">
        <ele>48.4</ele>
        <time>2020-02-22T17:48:06Z</time>
      </trkpt>
      <trkpt lat="39.0035410" lon="1.4966530">
        <ele>48.3</ele>
        <time>2020-02-22T17:48:07Z</time>
      </trkpt>
      <trkpt lat="39.0035260" lon="1.4967490">
        <ele>48.2</ele>
        <time>2020-02-22T17:48:08Z</time>
      </trkpt>
      <trkpt lat="39.0035120" lon="1.4968460">
        <ele>48.1</ele>
        <time>2020-02-22T17:48:09Z</time>
      </trkpt>
      <trkpt lat="39.0035020" lon="1.4969450">
        <ele>48.1</ele>
        <time>2020-02-22T17:48:10Z</time>
      </trkpt>
      <trkpt lat="39.0034920" lon="1.4970470">
        <ele>48.1</ele>
        <time>2020-02-22T17:48:11Z</time>
      </trkpt>
      <trkpt lat="39.0034830" lon="1.4971470">
        <ele>48.1</ele>
        <time>2020-02-22T17:48:12Z</time>
      </trkpt>
      <trkpt lat="39.0034690" lon="1.4972480">
        <ele>47.6</ele>
        <time>2020-02-22T17:48:13Z</time>
      </trkpt>
      <trkpt lat="39.0034510" lon="1.4973470">
        <ele>47.3</ele>
        <time>2020-02-22T17:48:14Z</time>
      </trkpt>
      <trkpt lat="39.0034270" lon="1.4974430">
        <ele>47.2</ele>
        <time>2020-02-22T17:48:15Z</time>
      </trkpt>
      <trkpt lat="39.0034000" lon="1.4975370">
        <ele>47.1</ele>
        <time>2020-02-22T17:48:16Z</time>
      </trkpt>
      <trkpt lat="39.0033720" lon="1.4976330">
        <ele>47.1</ele>
        <time>2020-02-22T17:48:17Z</time>
      </trkpt>
      <trkpt lat="39.0033420" lon="1.4977300">
        <ele>47.0</ele>
        <time>2020-02-22T17:48:18Z</time>
      </trkpt>
      <trkpt lat="39.0033150" lon="1.4978240">
        <ele>47.0</ele>
        <time>2020-02-22T17:48:19Z</time>
      </trkpt>
      <trkpt lat="39.0032910" lon="1.4979190">
        <ele>46.9</ele>
        <time>2020-02-22T17:48:20Z</time>
      </trkpt>
      <trkpt lat="39.0032620" lon="1.4980100">
        <ele>46.8</ele>
        <time>2020-02-22T17:48:21Z</time>
      </trkpt>
      <trkpt lat="39.0032360" lon="1.4981050">
        <ele>46.6</ele>
        <time>2020-02-22T17:48:22Z</time>
      </trkpt>
      <trkpt lat="39.0032140" lon="1.4982000">
        <ele>46.4</ele>
        <time>2020-02-22T17:48:23Z</time>
      </trkpt>
      <trkpt lat="39.0031850" lon="1.4982890">
        <ele>46.2</ele>
        <time>2020-02-22T17:48:24Z</time>
      </trkpt>
      <trkpt lat="39.0031630" lon="1.4983850">
        <ele>46.1</ele>
        <time>2020-02-22T17:48:25Z</time>
      </trkpt>
      <trkpt lat="39.0031440" lon="1.4984820">
        <ele>45.9</ele>
        <time>2020-02-22T17:48:26Z</time>
      </trkpt>
      <trkpt lat="39.0031230" lon="1.4985770">
        <ele>45.8</ele>
        <time>2020-02-22T17:48:27Z</time>
      </trkpt>
      <trkpt lat="39.0030990" lon="1.4986690">
        <ele>45.6</ele>
        <time>2020-02-22T17:48:28Z</time>
      </trkpt>
      <trkpt lat="39.0030740" lon="1.4987560">
        <ele>45.4</ele>
        <time>2020-02-22T17:48:29Z</time>
      </trkpt>
      <trkpt lat="39.0030520" lon="1.4988440">
        <ele>45.2</ele>
        <time>2020-02-22T17:48:30Z</time>
      </trkpt>
      <trkpt lat="39.0030240" lon="1.4989310">
        <ele>45.1</ele>
        <time>2020-02-22T17:48:31Z</time>
      </trkpt>
      <trkpt lat="39.0029960" lon="1.4990200">
        <ele>45.0</ele>
        <time>2020-02-22T17:48:32Z</time>
      </trkpt>
      <trkpt lat="39.0029660" lon="1.4991070">
        <ele>45.0</ele>
        <time>2020-02-22T17:48:33Z</time>
      </trkpt>
      <trkpt lat="39.0029390" lon="1.4991950">
        <ele>45.0</ele>
        <time>2020-02-22T17:48:34Z</time>
      </trkpt>
      <trkpt lat="39.0029250" lon="1.4992830">
        <ele>45.0</ele>
        <time>2020-02-22T17:48:35Z</time>
      </trkpt>
      <trkpt lat="39.0029180" lon="1.4993740">
        <ele>44.9</ele>
        <time>2020-02-22T17:48:36Z</time>
      </trkpt>
      <trkpt lat="39.0029410" lon="1.4994600">
        <ele>44.8</ele>
        <time>2020-02-22T17:48:37Z</time>
      </trkpt>
      <trkpt lat="39.0029750" lon="1.4995380">
        <ele>44.6</ele>
        <time>2020-02-22T17:48:38Z</time>
      </trkpt>
      <trkpt lat="39.0030190" lon="1.4996070">
        <ele>44.4</ele>
        <time>2020-02-22T17:48:39Z</time>
      </trkpt>
      <trkpt lat="39.0030770" lon="1.4996590">
        <ele>44.2</ele>
        <time>2020-02-22T17:48:40Z</time>
      </trkpt>
      <trkpt lat="39.0031290" lon="1.4997230">
        <ele>44.0</ele>
        <time>2020-02-22T17:48:41Z</time>
      </trkpt>
      <trkpt lat="39.0031800" lon="1.4997860">
        <ele>43.9</ele>
        <time>2020-02-22T17:48:42Z</time>
      </trkpt>
      <trkpt lat="39.0032330" lon="1.4998460">
        <ele>43.7</ele>
        <time>2020-02-22T17:48:43Z</time>
      </trkpt>
      <trkpt lat="39.0032880" lon="1.4999050">
        <ele>43.6</ele>
        <time>2020-02-22T17:48:44Z</time>
      </trkpt>
      <trkpt lat="39.0033400" lon="1.4999660">
        <ele>43.5</ele>
        <time>2020-02-22T17:48:45Z</time>
      </trkpt>
      <trkpt lat="39.0033940" lon="1.5000260">
        <ele>43.4</ele>
        <time>2020-02-22T17:48:46Z</time>
      </trkpt>
      <trkpt lat="39.0034470" lon="1.5000870">
        <ele>43.3</ele>
        <time>2020-02-22T17:48:47Z</time>
      </trkpt>
      <trkpt lat="39.0034930" lon="1.5001500">
        <ele>43.1</ele>
        <time>2020-02-22T17:48:48Z</time>
      </trkpt>
      <trkpt lat="39.0035220" lon="1.5002250">
        <ele>43.0</ele>
        <time>2020-02-22T17:48:49Z</time>
      </trkpt>
      <trkpt lat="39.0035160" lon="1.5003100">
        <ele>42.7</ele>
        <time>2020-02-22T17:48:50Z</time>
      </trkpt>
      <trkpt lat="39.0035020" lon="1.5003830">
        <ele>42.6</ele>
        <time>2020-02-22T17:48:51Z</time>
      </trkpt>
      <trkpt lat="39.0034780" lon="1.5004460">
        <ele>42.5</ele>
        <time>2020-02-22T17:48:52Z</time>
      </trkpt>
      <trkpt lat="39.0034400" lon="1.5005110">
        <ele>42.3</ele>
        <time>2020-02-22T17:48:53Z</time>
      </trkpt>
      <trkpt lat="39.0033820" lon="1.5005700">
        <ele>42.1</ele>
        <time>2020-02-22T17:48:54Z</time>
      </trkpt>
      <trkpt lat="39.0033270" lon="1.5006310">
        <ele>42.0</ele>
        <time>2020-02-22T17:48:55Z</time>
      </trkpt>
      <trkpt lat="39.0032760" lon="1.5006990">
        <ele>42.0</ele>
        <time>2020-02-22T17:48:56Z</time>
      </trkpt>
      <trkpt lat="39.0032290" lon="1.5007740">
        <ele>42.0</ele>
        <time>2020-02-22T17:48:57Z</time>
      </trkpt>
      <trkpt lat="39.0031820" lon="1.5008430">
        <ele>42.0</ele>
        <time>2020-02-22T17:48:58Z</time>
      </trkpt>
      <trkpt lat="39.0031350" lon="1.5009110">
        <ele>42.0</ele>
        <time>2020-02-22T17:48:59Z</time>
      </trkpt>
      <trkpt lat="39.0030900" lon="1.5009840">
        <ele>42.0</ele>
        <time>2020-02-22T17:49:00Z</time>
      </trkpt>
      <trkpt lat="39.0030390" lon="1.5010520">
        <ele>42.0</ele>
        <time>2020-02-22T17:49:01Z</time>
      </trkpt>
      <trkpt lat="39.0029910" lon="1.5011180">
        <ele>41.9</ele>
        <time>2020-02-22T17:49:02Z</time>
      </trkpt>
      <trkpt lat="39.0029470" lon="1.5011870">
        <ele>41.9</ele>
        <time>2020-02-22T17:49:03Z</time>
      </trkpt>
      <trkpt lat="39.0029040" lon="1.5012540">
        <ele>41.9</ele>
        <time>2020-02-22T17:49:04Z</time>
      </trkpt>
      <trkpt lat="39.0028550" lon="1.5013240">
        <ele>41.9</ele>
        <time>2020-02-22T17:49:05Z</time>
      </trkpt>
      <trkpt lat="39.0028010" lon="1.5013920">
        <ele>41.7</ele>
        <time>2020-02-22T17:49:06Z</time>
      </trkpt>
      <trkpt lat="39.0027490" lon="1.5014580">
        <ele>41.6</ele>
        <time>2020-02-22T17:49:07Z</time>
      </trkpt>
      <trkpt lat="39.0026980" lon="1.5015190">
        <ele>41.4</ele>
        <time>2020-02-22T17:49:08Z</time>
      </trkpt>
      <trkpt lat="39.0026480" lon="1.5015830">
        <ele>41.3</ele>
        <time>2020-02-22T17:49:09Z</time>
      </trkpt>
      <trkpt lat="39.0025940" lon="1.5016440">
        <ele>41.1</ele>
        <time>2020-02-22T17:49:10Z</time>
      </trkpt>
      <trkpt lat="39.0025430" lon="1.5017090">
        <ele>41.1</ele>
        <time>2020-02-22T17:49:11Z</time>
      </trkpt>
      <trkpt lat="39.0024900" lon="1.5017730">
        <ele>41.0</ele>
        <time>2020-02-22T17:49:12Z</time>
      </trkpt>
      <trkpt lat="39.0024370" lon="1.5018340">
        <ele>41.0</ele>
        <time>2020-02-22T17:49:13Z</time>
      </trkpt>
      <trkpt lat="39.0023910" lon="1.5019010">
        <ele>41.0</ele>
        <time>2020-02-22T17:49:14Z</time>
      </trkpt>
      <trkpt lat="39.0023400" lon="1.5019620">
        <ele>41.0</ele>
        <time>2020-02-22T17:49:15Z</time>
      </trkpt>
      <trkpt lat="39.0022920" lon="1.5020230">
        <ele>41.0</ele>
        <time>2020-02-22T17:49:16Z</time>
      </trkpt>
      <trkpt lat="39.0022450" lon="1.5020840">
        <ele>41.0</ele>
        <time>2020-02-22T17:49:17Z</time>
      </trkpt>
      <trkpt lat="39.0021980" lon="1.5021450">
        <ele>41.0</ele>
        <time>2020-02-22T17:49:18Z</time>
      </trkpt>
      <trkpt lat="39.0021560" lon="1.5022150">
        <ele>41.0</ele>
        <time>2020-02-22T17:49:19Z</time>
      </trkpt>
      <trkpt lat="39.0021140" lon="1.5022820">
        <ele>41.0</ele>
        <time>2020-02-22T17:49:20Z</time>
      </trkpt>
      <trkpt lat="39.0020670" lon="1.5023430">
        <ele>41.0</ele>
        <time>2020-02-22T17:49:21Z</time>
      </trkpt>
      <trkpt lat="39.0020130" lon="1.5023970">
        <ele>41.0</ele>
        <time>2020-02-22T17:49:22Z</time>
      </trkpt>
      <trkpt lat="39.0019630" lon="1.5024570">
        <ele>41.0</ele>
        <time>2020-02-22T17:49:23Z</time>
      </trkpt>
      <trkpt lat="39.0019140" lon="1.5025170">
        <ele>41.0</ele>
        <time>2020-02-22T17:49:24Z</time>
      </trkpt>
      <trkpt lat="39.0018650" lon="1.5025820">
        <ele>41.0</ele>
        <time>2020-02-22T17:49:25Z</time>
      </trkpt>
      <trkpt lat="39.0018180" lon="1.5026410">
        <ele>41.0</ele>
        <time>2020-02-22T17:49:26Z</time>
      </trkpt>
      <trkpt lat="39.0017730" lon="1.5026970">
        <ele>41.0</ele>
        <time>2020-02-22T17:49:27Z</time>
      </trkpt>
      <trkpt lat="39.0017340" lon="1.5027690">
        <ele>41.0</ele>
        <time>2020-02-22T17:49:28Z</time>
      </trkpt>
      <trkpt lat="39.0016900" lon="1.5028440">
        <ele>41.0</ele>
        <time>2020-02-22T17:49:29Z</time>
      </trkpt>
      <trkpt lat="39.0016420" lon="1.5029110">
        <ele>41.0</ele>
        <time>2020-02-22T17:49:30Z</time>
      </trkpt>
      <trkpt lat="39.0016030" lon="1.5029800">
        <ele>41.0</ele>
        <time>2020-02-22T17:49:31Z</time>
      </trkpt>
      <trkpt lat="39.0015600" lon="1.5030400">
        <ele>41.1</ele>
        <time>2020-02-22T17:49:32Z</time>
      </trkpt>
      <trkpt lat="39.0015080" lon="1.5030980">
        <ele>41.1</ele>
        <time>2020-02-22T17:49:33Z</time>
      </trkpt>
      <trkpt lat="39.0014520" lon="1.5031520">
        <ele>41.1</ele>
        <time>2020-02-22T17:49:34Z</time>
      </trkpt>
      <trkpt lat="39.0013950" lon="1.5032110">
        <ele>41.1</ele>
        <time>2020-02-22T17:49:35Z</time>
      </trkpt>
      <trkpt lat="39.0013360" lon="1.5032590">
        <ele>41.1</ele>
        <time>2020-02-22T17:49:36Z</time>
      </trkpt>
      <trkpt lat="39.0012740" lon="1.5032950">
        <ele>41.1</ele>
        <time>2020-02-22T17:49:37Z</time>
      </trkpt>
      <trkpt lat="39.0012110" lon="1.5033320">
        <ele>41.1</ele>
        <time>2020-02-22T17:49:38Z</time>
      </trkpt>
      <trkpt lat="39.0011500" lon="1.5033750">
        <ele>41.1</ele>
        <time>2020-02-22T17:49:39Z</time>
      </trkpt>
      <trkpt lat="39.0010880" lon="1.5034150">
        <ele>41.0</ele>
        <time>2020-02-22T17:49:40Z</time>
      </trkpt>
      <trkpt lat="39.0010280" lon="1.5034560">
        <ele>41.0</ele>
        <time>2020-02-22T17:49:41Z</time>
      </trkpt>
      <trkpt lat="39.0009720" lon="1.5035000">
        <ele>40.8</ele>
        <time>2020-02-22T17:49:42Z</time>
      </trkpt>
      <trkpt lat="39.0009210" lon="1.5035520">
        <ele>40.7</ele>
        <time>2020-02-22T17:49:43Z</time>
      </trkpt>
      <trkpt lat="39.0008800" lon="1.5036210">
        <ele>40.5</ele>
        <time>2020-02-22T17:49:44Z</time>
      </trkpt>
      <trkpt lat="39.0008570" lon="1.5037030">
        <ele>40.4</ele>
        <time>2020-02-22T17:49:45Z</time>
      </trkpt>
      <trkpt lat="39.0008360" lon="1.5037870">
        <ele>40.3</ele>
        <time>2020-02-22T17:49:46Z</time>
      </trkpt>
      <trkpt lat="39.0008160" lon="1.5038680">
        <ele>40.2</ele>
        <time>2020-02-22T17:49:47Z</time>
      </trkpt>
      <trkpt lat="39.0007920" lon="1.5039490">
        <ele>40.2</ele>
        <time>2020-02-22T17:49:48Z</time>
      </trkpt>
      <trkpt lat="39.0007570" lon="1.5040260">
        <ele>40.1</ele>
        <time>2020-02-22T17:49:49Z</time>
      </trkpt>
      <trkpt lat="39.0007170" lon="1.5040920">
        <ele>40.1</ele>
        <time>2020-02-22T17:49:50Z</time>
      </trkpt>
      <trkpt lat="39.0006740" lon="1.5041410">
        <ele>40.1</ele>
        <time>2020-02-22T17:49:51Z</time>
      </trkpt>
      <trkpt lat="39.0006270" lon="1.5041760">
        <ele>40.1</ele>
        <time>2020-02-22T17:49:52Z</time>
      </trkpt>
      <trkpt lat="39.0005730" lon="1.5042130">
        <ele>40.1</ele>
        <time>2020-02-22T17:49:53Z</time>
      </trkpt>
      <trkpt lat="39.0005040" lon="1.5042310">
        <ele>40.1</ele>
        <time>2020-02-22T17:49:54Z</time>
      </trkpt>
      <trkpt lat="39.0004430" lon="1.5042500">
        <ele>40.1</ele>
        <time>2020-02-22T17:49:55Z</time>
      </trkpt>
      <trkpt lat="39.0003780" lon="1.5042700">
        <ele>40.1</ele>
        <time>2020-02-22T17:49:56Z</time>
      </trkpt>
      <trkpt lat="39.0003030" lon="1.5042970">
        <ele>40.0</ele>
        <time>2020-02-22T17:49:57Z</time>
      </trkpt>
      <trkpt lat="39.0002310" lon="1.5043400">
        <ele>39.9</ele>
        <time>2020-02-22T17:49:58Z</time>
      </trkpt>
      <trkpt lat="39.0001590" lon="1.5043560">
        <ele>39.8</ele>
        <time>2020-02-22T17:49:59Z</time>
      </trkpt>
      <trkpt lat="39.0000870" lon="1.5043650">
        <ele>39.8</ele>
        <time>2020-02-22T17:50:00Z</time>
      </trkpt>
      <trkpt lat="39.0000180" lon="1.5043780">
        <ele>39.8</ele>
        <time>2020-02-22T17:50:01Z</time>
      </trkpt>
      <trkpt lat="38.9999470" lon="1.5043830">
        <ele>39.9</ele>
        <time>2020-02-22T17:50:02Z</time>
      </trkpt>
      <trkpt lat="38.9998740" lon="1.5043980">
        <ele>40.0</ele>
        <time>2020-02-22T17:50:03Z</time>
      </trkpt>
      <trkpt lat="38.9998020" lon="1.5044260">
        <ele>40.1</ele>
        <time>2020-02-22T17:50:04Z</time>
      </trkpt>
      <trkpt lat="38.9997340" lon="1.5044530">
        <ele>40.1</ele>
        <time>2020-02-22T17:50:05Z</time>
      </trkpt>
      <trkpt lat="38.9996690" lon="1.5044830">
        <ele>40.2</ele>
        <time>2020-02-22T17:50:06Z</time>
      </trkpt>
      <trkpt lat="38.9996050" lon="1.5045080">
        <ele>40.2</ele>
        <time>2020-02-22T17:50:07Z</time>
      </trkpt>
      <trkpt lat="38.9995400" lon="1.5045340">
        <ele>40.2</ele>
        <time>2020-02-22T17:50:08Z</time>
      </trkpt>
      <trkpt lat="38.9994710" lon="1.5045510">
        <ele>40.2</ele>
        <time>2020-02-22T17:50:09Z</time>
      </trkpt>
      <trkpt lat="38.9994020" lon="1.5045710">
        <ele>40.2</ele>
        <time>2020-02-22T17:50:10Z</time>
      </trkpt>
      <trkpt lat="38.9993260" lon="1.5045800">
        <ele>40.2</ele>
        <time>2020-02-22T17:50:11Z</time>
      </trkpt>
      <trkpt lat="38.9992550" lon="1.5046000">
        <ele>40.2</ele>
        <time>2020-02-22T17:50:12Z</time>
      </trkpt>
      <trkpt lat="38.9991900" lon="1.5046180">
        <ele>40.1</ele>
        <time>2020-02-22T17:50:13Z</time>
      </trkpt>
      <trkpt lat="38.9991280" lon="1.5046380">
        <ele>40.1</ele>
        <time>2020-02-22T17:50:14Z</time>
      </trkpt>
      <trkpt lat="38.9990630" lon="1.5046570">
        <ele>39.9</ele>
        <time>2020-02-22T17:50:15Z</time>
      </trkpt>
      <trkpt lat="38.9989950" lon="1.5046790">
        <ele>39.7</ele>
        <time>2020-02-22T17:50:16Z</time>
      </trkpt>
      <trkpt lat="38.9989260" lon="1.5047060">
        <ele>39.5</ele>
        <time>2020-02-22T17:50:17Z</time>
      </trkpt>
      <trkpt lat="38.9988570" lon="1.5047250">
        <ele>39.4</ele>
        <time>2020-02-22T17:50:18Z</time>
      </trkpt>
      <trkpt lat="38.9987890" lon="1.5047540">
        <ele>39.3</ele>
        <time>2020-02-22T17:50:19Z</time>
      </trkpt>
      <trkpt lat="38.9987200" lon="1.5047830">
        <ele>39.3</ele>
        <time>2020-02-22T17:50:20Z</time>
      </trkpt>
      <trkpt lat="38.9986490" lon="1.5048010">
        <ele>39.2</ele>
        <time>2020-02-22T17:50:21Z</time>
      </trkpt>
      <trkpt lat="38.9985810" lon="1.5048400">
        <ele>39.2</ele>
        <time>2020-02-22T17:50:22Z</time>
      </trkpt>
      <trkpt lat="38.9985100" lon="1.5048710">
        <ele>39.2</ele>
        <time>2020-02-22T17:50:23Z</time>
      </trkpt>
      <trkpt lat="38.9984330" lon="1.5049120">
        <ele>39.2</ele>
        <time>2020-02-22T17:50:24Z</time>
      </trkpt>
      <trkpt lat="38.9983530" lon="1.5049460">
        <ele>39.2</ele>
        <time>2020-02-22T17:50:25Z</time>
      </trkpt>
      <trkpt lat="38.9982750" lon="1.5049750">
        <ele>39.2</ele>
        <time>2020-02-22T17:50:26Z</time>
      </trkpt>
      <trkpt lat="38.9982000" lon="1.5050050">
        <ele>39.2</ele>
        <time>2020-02-22T17:50:27Z</time>
      </trkpt>
      <trkpt lat="38.9981250" lon="1.5050320">
        <ele>39.1</ele>
        <time>2020-02-22T17:50:28Z</time>
      </trkpt>
      <trkpt lat="38.9980560" lon="1.5050620">
        <ele>38.9</ele>
        <time>2020-02-22T17:50:29Z</time>
      </trkpt>
      <trkpt lat="38.9979860" lon="1.5050800">
        <ele>38.7</ele>
        <time>2020-02-22T17:50:30Z</time>
      </trkpt>
      <trkpt lat="38.9979160" lon="1.5050990">
        <ele>38.6</ele>
        <time>2020-02-22T17:50:31Z</time>
      </trkpt>
      <trkpt lat="38.9978410" lon="1.5051280">
        <ele>38.4</ele>
        <time>2020-02-22T17:50:32Z</time>
      </trkpt>
      <trkpt lat="38.9977660" lon="1.5051550">
        <ele>38.3</ele>
        <time>2020-02-22T17:50:33Z</time>
      </trkpt>
      <trkpt lat="38.9976990" lon="1.5051790">
        <ele>38.3</ele>
        <time>2020-02-22T17:50:34Z</time>
      </trkpt>
      <trkpt lat="38.9976310" lon="1.5052120">
        <ele>38.3</ele>
        <time>2020-02-22T17:50:35Z</time>
      </trkpt>
      <trkpt lat="38.9975690" lon="1.5052390">
        <ele>38.3</ele>
        <time>2020-02-22T17:50:36Z</time>
      </trkpt>
      <trkpt lat="38.9975040" lon="1.5052620">
        <ele>38.4</ele>
        <time>2020-02-22T17:50:37Z</time>
      </trkpt>
      <trkpt lat="38.9974450" lon="1.5052900">
        <ele>38.5</ele>
        <time>2020-02-22T17:50:38Z</time>
      </trkpt>
      <trkpt lat="38.9973880" lon="1.5053100">
        <ele>38.6</ele>
        <time>2020-02-22T17:50:39Z</time>
      </trkpt>
      <trkpt lat="38.9973400" lon="1.5053210">
        <ele>38.8</ele>
        <time>2020-02-22T17:50:40Z</time>
      </trkpt>
      <trkpt lat="38.9972990" lon="1.5053260">
        <ele>38.9</ele>
        <time>2020-02-22T17:50:41Z</time>
      </trkpt>
      <trkpt lat="38.9972720" lon="1.5053350">
        <ele>39.1</ele>
        <time>2020-02-22T17:50:42Z</time>
      </trkpt>
      <trkpt lat="38.9972600" lon="1.5053710">
        <ele>39.2</ele>
        <time>2020-02-22T17:50:43Z</time>
      </trkpt>
      <trkpt lat="38.9972650" lon="1.5054220">
        <ele>39.3</ele>
        <time>2020-02-22T17:50:44Z</time>
      </trkpt>
      <trkpt lat="38.9972840" lon="1.5054640">
        <ele>39.3</ele>
        <time>2020-02-22T17:50:45Z</time>
      </trkpt>
      <trkpt lat="38.9973030" lon="1.5055070">
        <ele>39.3</ele>
        <time>2020-02-22T17:50:46Z</time>
      </trkpt>
      <trkpt lat="38.9973180" lon="1.5055600">
        <ele>39.3</ele>
        <time>2020-02-22T17:50:47Z</time>
      </trkpt>
      <trkpt lat="38.9973330" lon="1.5056210">
        <ele>39.3</ele>
        <time>2020-02-22T17:50:48Z</time>
      </trkpt>
      <trkpt lat="38.9973550" lon="1.5056740">
        <ele>39.3</ele>
        <time>2020-02-22T17:50:49Z</time>
      </trkpt>
      <trkpt lat="38.9973720" lon="1.5057310">
        <ele>39.3</ele>
        <time>2020-02-22T17:50:50Z</time>
      </trkpt>
      <trkpt lat="38.9973770" lon="1.5057940">
        <ele>39.3</ele>
        <time>2020-02-22T17:50:51Z</time>
      </trkpt>
      <trkpt lat="38.9973690" lon="1.5058630">
        <ele>39.3</ele>
        <time>2020-02-22T17:50:52Z</time>
      </trkpt>
      <trkpt lat="38.9973520" lon="1.5059260">
        <ele>39.3</ele>
        <time>2020-02-22T17:50:53Z</time>
      </trkpt>
      <trkpt lat="38.9973190" lon="1.5059670">
        <ele>39.3</ele>
        <time>2020-02-22T17:50:54Z</time>
      </trkpt>
      <trkpt lat="38.9972750" lon="1.5059830">
        <ele>39.3</ele>
        <time>2020-02-22T17:50:55Z</time>
      </trkpt>
      <trkpt lat="38.9972340" lon="1.5060050">
        <ele>39.4</ele>
        <time>2020-02-22T17:50:56Z</time>
      </trkpt>
      <trkpt lat="38.9971940" lon="1.5060310">
        <ele>39.5</ele>
        <time>2020-02-22T17:50:57Z</time>
      </trkpt>
      <trkpt lat="38.9971430" lon="1.5060550">
        <ele>39.6</ele>
        <time>2020-02-22T17:50:58Z</time>
      </trkpt>
      <trkpt lat="38.9971000" lon="1.5060780">
        <ele>39.7</ele>
        <time>2020-02-22T17:50:59Z</time>
      </trkpt>
      <trkpt lat="38.9970500" lon="1.5061060">
        <ele>39.9</ele>
        <time>2020-02-22T17:51:00Z</time>
      </trkpt>
      <trkpt lat="38.9969980" lon="1.5061230">
        <ele>40.0</ele>
        <time>2020-02-22T17:51:01Z</time>
      </trkpt>
      <trkpt lat="38.9969540" lon="1.5061400">
        <ele>40.1</ele>
        <time>2020-02-22T17:51:02Z</time>
      </trkpt>
      <trkpt lat="38.9969170" lon="1.5061590">
        <ele>40.1</ele>
        <time>2020-02-22T17:51:03Z</time>
      </trkpt>
      <trkpt lat="38.9968720" lon="1.5061720">
        <ele>40.1</ele>
        <time>2020-02-22T17:51:04Z</time>
      </trkpt>
      <trkpt lat="38.9968280" lon="1.5061930">
        <ele>40.1</ele>
        <time>2020-02-22T17:51:05Z</time>
      </trkpt>
      <trkpt lat="38.9967620" lon="1.5062250">
        <ele>40.1</ele>
        <time>2020-02-22T17:51:06Z</time>
      </trkpt>
      <trkpt lat="38.9967110" lon="1.5062490">
        <ele>40.1</ele>
        <time>2020-02-22T17:51:07Z</time>
      </trkpt>
      <trkpt lat="38.9966540" lon="1.5062920">
        <ele>40.1</ele>
        <time>2020-02-22T17:51:08Z</time>
      </trkpt>
      <trkpt lat="38.9965990" lon="1.5063320">
        <ele>40.1</ele>
        <time>2020-02-22T17:51:09Z</time>
      </trkpt>
      <trkpt lat="38.9965460" lon="1.5063610">
        <ele>40.1</ele>
        <time>2020-02-22T17:51:10Z</time>
      </trkpt>
      <trkpt lat="38.9964940" lon="1.5064010">
        <ele>40.1</ele>
        <time>2020-02-22T17:51:11Z</time>
      </trkpt>
      <trkpt lat="38.9964440" lon="1.5064380">
        <ele>40.1</ele>
        <time>2020-02-22T17:51:12Z</time>
      </trkpt>
      <trkpt lat="38.9963680" lon="1.5064870">
        <ele>40.1</ele>
        <time>2020-02-22T17:51:13Z</time>
      </trkpt>
      <trkpt lat="38.9963060" lon="1.5065270">
        <ele>40.1</ele>
        <time>2020-02-22T17:51:14Z</time>
      </trkpt>
      <trkpt lat="38.9962510" lon="1.5065690">
        <ele>40.0</ele>
        <time>2020-02-22T17:51:15Z</time>
      </trkpt>
      <trkpt lat="38.9961900" lon="1.5066210">
        <ele>40.0</ele>
        <time>2020-02-22T17:51:16Z</time>
      </trkpt>
      <trkpt lat="38.9961350" lon="1.5066690">
        <ele>40.0</ele>
        <time>2020-02-22T17:51:17Z</time>
      </trkpt>
      <trkpt lat="38.9960840" lon="1.5067290">
        <ele>39.9</ele>
        <time>2020-02-22T17:51:18Z</time>
      </trkpt>
      <trkpt lat="38.9960380" lon="1.5067910">
        <ele>39.8</ele>
        <time>2020-02-22T17:51:19Z</time>
      </trkpt>
      <trkpt lat="38.9959840" lon="1.5068510">
        <ele>39.6</ele>
        <time>2020-02-22T17:51:20Z</time>
      </trkpt>
      <trkpt lat="38.9959340" lon="1.5069030">
        <ele>39.5</ele>
        <time>2020-02-22T17:51:21Z</time>
      </trkpt>
      <trkpt lat="38.9958770" lon="1.5069550">
        <ele>39.3</ele>
        <time>2020-02-22T17:51:22Z</time>
      </trkpt>
      <trkpt lat="38.9958360" lon="1.5070070">
        <ele>39.2</ele>
        <time>2020-02-22T17:51:23Z</time>
      </trkpt>
      <trkpt lat="38.9957920" lon="1.5070770">
        <ele>39.0</ele>
        <time>2020-02-22T17:51:24Z</time>
      </trkpt>
      <trkpt lat="38.9957530" lon="1.5071560">
        <ele>38.9</ele>
        <time>2020-02-22T17:51:25Z</time>
      </trkpt>
      <trkpt lat="38.9957200" lon="1.5072300">
        <ele>38.7</ele>
        <time>2020-02-22T17:51:26Z</time>
      </trkpt>
      <trkpt lat="38.9956900" lon="1.5073050">
        <ele>38.6</ele>
        <time>2020-02-22T17:51:27Z</time>
      </trkpt>
      <trkpt lat="38.9956630" lon="1.5073840">
        <ele>38.4</ele>
        <time>2020-02-22T17:51:28Z</time>
      </trkpt>
      <trkpt lat="38.9956650" lon="1.5074700">
        <ele>38.2</ele>
        <time>2020-02-22T17:51:29Z</time>
      </trkpt>
      <trkpt lat="38.9956490" lon="1.5075470">
        <ele>38.1</ele>
        <time>2020-02-22T17:51:30Z</time>
      </trkpt>
      <trkpt lat="38.9956430" lon="1.5076220">
        <ele>38.0</ele>
        <time>2020-02-22T17:51:31Z</time>
      </trkpt>
      <trkpt lat="38.9956400" lon="1.5076930">
        <ele>38.0</ele>
        <time>2020-02-22T17:51:32Z</time>
      </trkpt>
      <trkpt lat="38.9956370" lon="1.5077640">
        <ele>37.9</ele>
        <time>2020-02-22T17:51:33Z</time>
      </trkpt>
      <trkpt lat="38.9956330" lon="1.5078290">
        <ele>37.9</ele>
        <time>2020-02-22T17:51:34Z</time>
      </trkpt>
      <trkpt lat="38.9956280" lon="1.5079100">
        <ele>37.9</ele>
        <time>2020-02-22T17:51:35Z</time>
      </trkpt>
      <trkpt lat="38.9956230" lon="1.5079870">
        <ele>37.9</ele>
        <time>2020-02-22T17:51:36Z</time>
      </trkpt>
      <trkpt lat="38.9956200" lon="1.5080730">
        <ele>37.9</ele>
        <time>2020-02-22T17:51:37Z</time>
      </trkpt>
      <trkpt lat="38.9956220" lon="1.5081650">
        <ele>37.9</ele>
        <time>2020-02-22T17:51:38Z</time>
      </trkpt>
      <trkpt lat="38.9956190" lon="1.5082400">
        <ele>37.9</ele>
        <time>2020-02-22T17:51:39Z</time>
      </trkpt>
      <trkpt lat="38.9956170" lon="1.5083120">
        <ele>37.9</ele>
        <time>2020-02-22T17:51:40Z</time>
      </trkpt>
      <trkpt lat="38.9956150" lon="1.5083860">
        <ele>37.9</ele>
        <time>2020-02-22T17:51:41Z</time>
      </trkpt>
      <trkpt lat="38.9956130" lon="1.5084600">
        <ele>38.0</ele>
        <time>2020-02-22T17:51:42Z</time>
      </trkpt>
      <trkpt lat="38.9956110" lon="1.5085370">
        <ele>38.1</ele>
        <time>2020-02-22T17:51:43Z</time>
      </trkpt>
      <trkpt lat="38.9956090" lon="1.5086180">
        <ele>38.2</ele>
        <time>2020-02-22T17:51:44Z</time>
      </trkpt>
      <trkpt lat="38.9956070" lon="1.5086970">
        <ele>38.4</ele>
        <time>2020-02-22T17:51:45Z</time>
      </trkpt>
      <trkpt lat="38.9956040" lon="1.5087680">
        <ele>38.5</ele>
        <time>2020-02-22T17:51:46Z</time>
      </trkpt>
      <trkpt lat="38.9955990" lon="1.5088420">
        <ele>38.6</ele>
        <time>2020-02-22T17:51:47Z</time>
      </trkpt>
      <trkpt lat="38.9955960" lon="1.5089190">
        <ele>38.6</ele>
        <time>2020-02-22T17:51:48Z</time>
      </trkpt>
      <trkpt lat="38.9955940" lon="1.5089950">
        <ele>38.7</ele>
        <time>2020-02-22T17:51:49Z</time>
      </trkpt>
      <trkpt lat="38.9955930" lon="1.5090670">
        <ele>38.7</ele>
        <time>2020-02-22T17:51:50Z</time>
      </trkpt>
      <trkpt lat="38.9955880" lon="1.5091450">
        <ele>38.7</ele>
        <time>2020-02-22T17:51:51Z</time>
      </trkpt>
      <trkpt lat="38.9955840" lon="1.5092210">
        <ele>38.7</ele>
        <time>2020-02-22T17:51:52Z</time>
      </trkpt>
      <trkpt lat="38.9955790" lon="1.5093010">
        <ele>38.7</ele>
        <time>2020-02-22T17:51:53Z</time>
      </trkpt>
      <trkpt lat="38.9955740" lon="1.5093760">
        <ele>38.7</ele>
        <time>2020-02-22T17:51:54Z</time>
      </trkpt>
      <trkpt lat="38.9955710" lon="1.5094580">
        <ele>38.7</ele>
        <time>2020-02-22T17:51:55Z</time>
      </trkpt>
      <trkpt lat="38.9955680" lon="1.5095370">
        <ele>38.7</ele>
        <time>2020-02-22T17:51:56Z</time>
      </trkpt>
      <trkpt lat="38.9955640" lon="1.5096230">
        <ele>38.7</ele>
        <time>2020-02-22T17:51:57Z</time>
      </trkpt>
      <trkpt lat="38.9955600" lon="1.5097140">
        <ele>38.7</ele>
        <time>2020-02-22T17:51:58Z</time>
      </trkpt>
      <trkpt lat="38.9955570" lon="1.5098060">
        <ele>38.6</ele>
        <time>2020-02-22T17:51:59Z</time>
      </trkpt>
      <trkpt lat="38.9955530" lon="1.5098940">
        <ele>38.6</ele>
        <time>2020-02-22T17:52:00Z</time>
      </trkpt>
      <trkpt lat="38.9955480" lon="1.5099810">
        <ele>38.6</ele>
        <time>2020-02-22T17:52:01Z</time>
      </trkpt>
      <trkpt lat="38.9955420" lon="1.5100700">
        <ele>38.6</ele>
        <time>2020-02-22T17:52:02Z</time>
      </trkpt>
      <trkpt lat="38.9955400" lon="1.5101570">
        <ele>38.5</ele>
        <time>2020-02-22T17:52:03Z</time>
      </trkpt>
      <trkpt lat="38.9955360" lon="1.5102480">
        <ele>38.4</ele>
        <time>2020-02-22T17:52:04Z</time>
      </trkpt>
      <trkpt lat="38.9955310" lon="1.5103370">
        <ele>38.2</ele>
        <time>2020-02-22T17:52:05Z</time>
      </trkpt>
      <trkpt lat="38.9955290" lon="1.5104240">
        <ele>38.0</ele>
        <time>2020-02-22T17:52:06Z</time>
      </trkpt>
      <trkpt lat="38.9955200" lon="1.5105150">
        <ele>37.9</ele>
        <time>2020-02-22T17:52:07Z</time>
      </trkpt>
      <trkpt lat="38.9955140" lon="1.5105960">
        <ele>37.7</ele>
        <time>2020-02-22T17:52:08Z</time>
      </trkpt>
      <trkpt lat="38.9955000" lon="1.5106800">
        <ele>37.6</ele>
        <time>2020-02-22T17:52:09Z</time>
      </trkpt>
      <trkpt lat="38.9954830" lon="1.5107620">
        <ele>37.6</ele>
        <time>2020-02-22T17:52:10Z</time>
      </trkpt>
      <trkpt lat="38.9954580" lon="1.5108340">
        <ele>37.6</ele>
        <time>2020-02-22T17:52:11Z</time>
      </trkpt>
      <trkpt lat="38.9954350" lon="1.5109070">
        <ele>37.5</ele>
        <time>2020-02-22T17:52:12Z</time>
      </trkpt>
      <trkpt lat="38.9953980" lon="1.5109720">
        <ele>37.5</ele>
        <time>2020-02-22T17:52:13Z</time>
      </trkpt>
      <trkpt lat="38.9953560" lon="1.5110260">
        <ele>37.5</ele>
        <time>2020-02-22T17:52:14Z</time>
      </trkpt>
      <trkpt lat="38.9953110" lon="1.5110690">
        <ele>37.5</ele>
        <time>2020-02-22T17:52:15Z</time>
      </trkpt>
      <trkpt lat="38.9952630" lon="1.5111100">
        <ele>37.5</ele>
        <time>2020-02-22T17:52:16Z</time>
      </trkpt>
      <trkpt lat="38.9952110" lon="1.5111480">
        <ele>37.6</ele>
        <time>2020-02-22T17:52:17Z</time>
      </trkpt>
      <trkpt lat="38.9951600" lon="1.5111840">
        <ele>37.6</ele>
        <time>2020-02-22T17:52:18Z</time>
      </trkpt>
      <trkpt lat="38.9951080" lon="1.5112220">
        <ele>37.7</ele>
        <time>2020-02-22T17:52:19Z</time>
      </trkpt>
      <trkpt lat="38.9950580" lon="1.5112650">
        <ele>37.9</ele>
        <time>2020-02-22T17:52:20Z</time>
      </trkpt>
      <trkpt lat="38.9950070" lon="1.5113100">
        <ele>38.0</ele>
        <time>2020-02-22T17:52:21Z</time>
      </trkpt>
      <trkpt lat="38.9949520" lon="1.5113520">
        <ele>38.2</ele>
        <time>2020-02-22T17:52:22Z</time>
      </trkpt>
      <trkpt lat="38.9949070" lon="1.5114140">
        <ele>38.3</ele>
        <time>2020-02-22T17:52:23Z</time>
      </trkpt>
      <trkpt lat="38.9948630" lon="1.5114620">
        <ele>38.4</ele>
        <time>2020-02-22T17:52:24Z</time>
      </trkpt>
      <trkpt lat="38.9948140" lon="1.5115130">
        <ele>38.5</ele>
        <time>2020-02-22T17:52:25Z</time>
      </trkpt>
      <trkpt lat="38.9947660" lon="1.5115630">
        <ele>38.6</ele>
        <time>2020-02-22T17:52:26Z</time>
      </trkpt>
      <trkpt lat="38.9947170" lon="1.5116150">
        <ele>38.7</ele>
        <time>2020-02-22T17:52:27Z</time>
      </trkpt>
      <trkpt lat="38.9946920" lon="1.5116630">
        <ele>38.7</ele>
        <time>2020-02-22T17:52:28Z</time>
      </trkpt>
      <trkpt lat="38.9946510" lon="1.5117240">
        <ele>38.8</ele>
        <time>2020-02-22T17:52:29Z</time>
      </trkpt>
      <trkpt lat="38.9946100" lon="1.5117930">
        <ele>38.9</ele>
        <time>2020-02-22T17:52:30Z</time>
      </trkpt>
      <trkpt lat="38.9945790" lon="1.5118530">
        <ele>39.0</ele>
        <time>2020-02-22T17:52:31Z</time>
      </trkpt>
      <trkpt lat="38.9945450" lon="1.5119120">
        <ele>39.0</ele>
        <time>2020-02-22T17:52:32Z</time>
      </trkpt>
      <trkpt lat="38.9945070" lon="1.5119750">
        <ele>39.1</ele>
        <time>2020-02-22T17:52:33Z</time>
      </trkpt>
      <trkpt lat="38.9944690" lon="1.5120320">
        <ele>39.1</ele>
        <time>2020-02-22T17:52:34Z</time>
      </trkpt>
      <trkpt lat="38.9944300" lon="1.5120960">
        <ele>39.0</ele>
        <time>2020-02-22T17:52:35Z</time>
      </trkpt>
      <trkpt lat="38.9943940" lon="1.5121580">
        <ele>38.9</ele>
        <time>2020-02-22T17:52:36Z</time>
      </trkpt>
      <trkpt lat="38.9943540" lon="1.5122290">
        <ele>38.8</ele>
        <time>2020-02-22T17:52:37Z</time>
      </trkpt>
      <trkpt lat="38.9943080" lon="1.5123060">
        <ele>38.7</ele>
        <time>2020-02-22T17:52:38Z</time>
      </trkpt>
      <trkpt lat="38.9942670" lon="1.5123760">
        <ele>38.6</ele>
        <time>2020-02-22T17:52:39Z</time>
      </trkpt>
      <trkpt lat="38.9942280" lon="1.5124420">
        <ele>38.6</ele>
        <time>2020-02-22T17:52:40Z</time>
      </trkpt>
      <trkpt lat="38.9941890" lon="1.5125140">
        <ele>38.5</ele>
        <time>2020-02-22T17:52:41Z</time>
      </trkpt>
      <trkpt lat="38.9941410" lon="1.5125950">
        <ele>38.5</ele>
        <time>2020-02-22T17:52:42Z</time>
      </trkpt>
      <trkpt lat="38.9940970" lon="1.5126690">
        <ele>38.5</ele>
        <time>2020-02-22T17:52:43Z</time>
      </trkpt>
      <trkpt lat="38.9940550" lon="1.5127420">
        <ele>38.5</ele>
        <time>2020-02-22T17:52:44Z</time>
      </trkpt>
      <trkpt lat="38.9940110" lon="1.5128140">
        <ele>38.5</ele>
        <time>2020-02-22T17:52:45Z</time>
      </trkpt>
      <trkpt lat="38.9939660" lon="1.5128830">
        <ele>38.5</ele>
        <time>2020-02-22T17:52:46Z</time>
      </trkpt>
      <trkpt lat="38.9939220" lon="1.5129520">
        <ele>38.5</ele>
        <time>2020-02-22T17:52:47Z</time>
      </trkpt>
      <trkpt lat="38.9938780" lon="1.5130210">
        <ele>38.5</ele>
        <time>2020-02-22T17:52:48Z</time>
      </trkpt>
      <trkpt lat="38.9938320" lon="1.5130920">
        <ele>38.5</ele>
        <time>2020-02-22T17:52:49Z</time>
      </trkpt>
      <trkpt lat="38.9937880" lon="1.5131560">
        <ele>38.5</ele>
        <time>2020-02-22T17:52:50Z</time>
      </trkpt>
      <trkpt lat="38.9937420" lon="1.5132140">
        <ele>38.5</ele>
        <time>2020-02-22T17:52:51Z</time>
      </trkpt>
      <trkpt lat="38.9936940" lon="1.5132640">
        <ele>38.5</ele>
        <time>2020-02-22T17:52:52Z</time>
      </trkpt>
      <trkpt lat="38.9936450" lon="1.5133150">
        <ele>38.5</ele>
        <time>2020-02-22T17:52:53Z</time>
      </trkpt>
      <trkpt lat="38.9935930" lon="1.5133690">
        <ele>38.5</ele>
        <time>2020-02-22T17:52:54Z</time>
      </trkpt>
      <trkpt lat="38.9935410" lon="1.5134250">
        <ele>38.5</ele>
        <time>2020-02-22T17:52:55Z</time>
      </trkpt>
      <trkpt lat="38.9934850" lon="1.5134760">
        <ele>38.5</ele>
        <time>2020-02-22T17:52:56Z</time>
      </trkpt>
      <trkpt lat="38.9934270" lon="1.5135220">
        <ele>38.5</ele>
        <time>2020-02-22T17:52:57Z</time>
      </trkpt>
      <trkpt lat="38.9933720" lon="1.5135660">
        <ele>38.5</ele>
        <time>2020-02-22T17:52:58Z</time>
      </trkpt>
      <trkpt lat="38.9933150" lon="1.5136190">
        <ele>38.5</ele>
        <time>2020-02-22T17:52:59Z</time>
      </trkpt>
      <trkpt lat="38.9932640" lon="1.5136680">
        <ele>38.5</ele>
        <time>2020-02-22T17:53:00Z</time>
      </trkpt>
      <trkpt lat="38.9932150" lon="1.5137180">
        <ele>38.6</ele>
        <time>2020-02-22T17:53:01Z</time>
      </trkpt>
      <trkpt lat="38.9931690" lon="1.5137690">
        <ele>38.7</ele>
        <time>2020-02-22T17:53:02Z</time>
      </trkpt>
      <trkpt lat="38.9931240" lon="1.5138160">
        <ele>38.8</ele>
        <time>2020-02-22T17:53:03Z</time>
      </trkpt>
      <trkpt lat="38.9930820" lon="1.5138720">
        <ele>38.9</ele>
        <time>2020-02-22T17:53:04Z</time>
      </trkpt>
      <trkpt lat="38.9930370" lon="1.5139160">
        <ele>39.1</ele>
        <time>2020-02-22T17:53:05Z</time>
      </trkpt>
      <trkpt lat="38.9929950" lon="1.5139610">
        <ele>39.2</ele>
        <time>2020-02-22T17:53:06Z</time>
      </trkpt>
      <trkpt lat="38.9929530" lon="1.5140050">
        <ele>39.4</ele>
        <time>2020-02-22T17:53:07Z</time>
      </trkpt>
      <trkpt lat="38.9929120" lon="1.5140500">
        <ele>39.5</ele>
        <time>2020-02-22T17:53:08Z</time>
      </trkpt>
      <trkpt lat="38.9928670" lon="1.5140940">
        <ele>39.7</ele>
        <time>2020-02-22T17:53:09Z</time>
      </trkpt>
      <trkpt lat="38.9928190" lon="1.5141290">
        <ele>39.8</ele>
        <time>2020-02-22T17:53:10Z</time>
      </trkpt>
      <trkpt lat="38.9927710" lon="1.5141700">
        <ele>40.1</ele>
        <time>2020-02-22T17:53:11Z</time>
      </trkpt>
      <trkpt lat="38.9927220" lon="1.5142130">
        <ele>40.3</ele>
        <time>2020-02-22T17:53:12Z</time>
      </trkpt>
      <trkpt lat="38.9926740" lon="1.5142600">
        <ele>40.6</ele>
        <time>2020-02-22T17:53:13Z</time>
      </trkpt>
      <trkpt lat="38.9926230" lon="1.5142990">
        <ele>40.9</ele>
        <time>2020-02-22T17:53:14Z</time>
      </trkpt>
      <trkpt lat="38.9925750" lon="1.5143460">
        <ele>41.1</ele>
        <time>2020-02-22T17:53:15Z</time>
      </trkpt>
      <trkpt lat="38.9925290" lon="1.5143960">
        <ele>41.3</ele>
        <time>2020-02-22T17:53:16Z</time>
      </trkpt>
      <trkpt lat="38.9924840" lon="1.5144490">
        <ele>41.4</ele>
        <time>2020-02-22T17:53:17Z</time>
      </trkpt>
      <trkpt lat="38.9924310" lon="1.5144930">
        <ele>41.5</ele>
        <time>2020-02-22T17:53:18Z</time>
      </trkpt>
      <trkpt lat="38.9923810" lon="1.5145370">
        <ele>41.5</ele>
        <time>2020-02-22T17:53:19Z</time>
      </trkpt>
      <trkpt lat="38.9923330" lon="1.5145830">
        <ele>41.5</ele>
        <time>2020-02-22T17:53:20Z</time>
      </trkpt>
      <trkpt lat="38.9922850" lon="1.5146300">
        <ele>41.6</ele>
        <time>2020-02-22T17:53:21Z</time>
      </trkpt>
      <trkpt lat="38.9922400" lon="1.5146800">
        <ele>41.6</ele>
        <time>2020-02-22T17:53:22Z</time>
      </trkpt>
      <trkpt lat="38.9921880" lon="1.5147280">
        <ele>41.6</ele>
        <time>2020-02-22T17:53:23Z</time>
      </trkpt>
      <trkpt lat="38.9921360" lon="1.5148030">
        <ele>41.6</ele>
        <time>2020-02-22T17:53:24Z</time>
      </trkpt>
      <trkpt lat="38.9920920" lon="1.5148560">
        <ele>41.6</ele>
        <time>2020-02-22T17:53:25Z</time>
      </trkpt>
      <trkpt lat="38.9920560" lon="1.5148970">
        <ele>41.6</ele>
        <time>2020-02-22T17:53:26Z</time>
      </trkpt>
      <trkpt lat="38.9920030" lon="1.5149450">
        <ele>41.7</ele>
        <time>2020-02-22T17:53:27Z</time>
      </trkpt>
      <trkpt lat="38.9919540" lon="1.5149970">
        <ele>41.7</ele>
        <time>2020-02-22T17:53:28Z</time>
      </trkpt>
      <trkpt lat="38.9919070" lon="1.5150430">
        <ele>41.7</ele>
        <time>2020-02-22T17:53:29Z</time>
      </trkpt>
      <trkpt lat="38.9918610" lon="1.5150860">
        <ele>41.7</ele>
        <time>2020-02-22T17:53:30Z</time>
      </trkpt>
      <trkpt lat="38.9918150" lon="1.5151290">
        <ele>41.7</ele>
        <time>2020-02-22T17:53:31Z</time>
      </trkpt>
      <trkpt lat="38.9917690" lon="1.5151750">
        <ele>41.7</ele>
        <time>2020-02-22T17:53:32Z</time>
      </trkpt>
      <trkpt lat="38.9917290" lon="1.5152160">
        <ele>41.7</ele>
        <time>2020-02-22T17:53:33Z</time>
      </trkpt>
      <trkpt lat="38.9916900" lon="1.5152620">
        <ele>41.7</ele>
        <time>2020-02-22T17:53:34Z</time>
      </trkpt>
      <trkpt lat="38.9916460" lon="1.5153160">
        <ele>41.7</ele>
        <time>2020-02-22T17:53:35Z</time>
      </trkpt>
      <trkpt lat="38.9916050" lon="1.5153690">
        <ele>41.7</ele>
        <time>2020-02-22T17:53:36Z</time>
      </trkpt>
      <trkpt lat="38.9915550" lon="1.5154290">
        <ele>41.7</ele>
        <time>2020-02-22T17:53:37Z</time>
      </trkpt>
      <trkpt lat="38.9915020" lon="1.5154920">
        <ele>41.7</ele>
        <time>2020-02-22T17:53:38Z</time>
      </trkpt>
      <trkpt lat="38.9914540" lon="1.5155580">
        <ele>41.6</ele>
        <time>2020-02-22T17:53:39Z</time>
      </trkpt>
      <trkpt lat="38.9914030" lon="1.5156180">
        <ele>41.5</ele>
        <time>2020-02-22T17:53:40Z</time>
      </trkpt>
      <trkpt lat="38.9913580" lon="1.5156710">
        <ele>41.3</ele>
        <time>2020-02-22T17:53:41Z</time>
      </trkpt>
      <trkpt lat="38.9913120" lon="1.5157270">
        <ele>41.2</ele>
        <time>2020-02-22T17:53:42Z</time>
      </trkpt>
      <trkpt lat="38.9912670" lon="1.5157810">
        <ele>41.0</ele>
        <time>2020-02-22T17:53:43Z</time>
      </trkpt>
      <trkpt lat="38.9912230" lon="1.5158330">
        <ele>40.9</ele>
        <time>2020-02-22T17:53:44Z</time>
      </trkpt>
      <trkpt lat="38.9911780" lon="1.5158900">
        <ele>40.7</ele>
        <time>2020-02-22T17:53:45Z</time>
      </trkpt>
      <trkpt lat="38.9911340" lon="1.5159390">
        <ele>40.6</ele>
        <time>2020-02-22T17:53:46Z</time>
      </trkpt>
      <trkpt lat="38.9910850" lon="1.5160020">
        <ele>40.5</ele>
        <time>2020-02-22T17:53:47Z</time>
      </trkpt>
      <trkpt lat="38.9910390" lon="1.5160640">
        <ele>40.4</ele>
        <time>2020-02-22T17:53:48Z</time>
      </trkpt>
      <trkpt lat="38.9909960" lon="1.5161250">
        <ele>40.4</ele>
        <time>2020-02-22T17:53:49Z</time>
      </trkpt>
      <trkpt lat="38.9909590" lon="1.5161810">
        <ele>40.3</ele>
        <time>2020-02-22T17:53:50Z</time>
      </trkpt>
      <trkpt lat="38.9909140" lon="1.5162400">
        <ele>40.2</ele>
        <time>2020-02-22T17:53:51Z</time>
      </trkpt>
      <trkpt lat="38.9908640" lon="1.5163050">
        <ele>40.1</ele>
        <time>2020-02-22T17:53:52Z</time>
      </trkpt>
      <trkpt lat="38.9908180" lon="1.5163690">
        <ele>40.0</ele>
        <time>2020-02-22T17:53:53Z</time>
      </trkpt>
      <trkpt lat="38.9907670" lon="1.5164340">
        <ele>40.0</ele>
        <time>2020-02-22T17:53:54Z</time>
      </trkpt>
      <trkpt lat="38.9907170" lon="1.5165020">
        <ele>40.0</ele>
        <time>2020-02-22T17:53:55Z</time>
      </trkpt>
      <trkpt lat="38.9906740" lon="1.5165680">
        <ele>39.9</ele>
        <time>2020-02-22T17:53:56Z</time>
      </trkpt>
      <trkpt lat="38.9906330" lon="1.5166400">
        <ele>39.9</ele>
        <time>2020-02-22T17:53:57Z</time>
      </trkpt>
      <trkpt lat="38.9905900" lon="1.5167210">
        <ele>39.7</ele>
        <time>2020-02-22T17:53:58Z</time>
      </trkpt>
      <trkpt lat="38.9905510" lon="1.5168020">
        <ele>39.6</ele>
        <time>2020-02-22T17:53:59Z</time>
      </trkpt>
      <trkpt lat="38.9905130" lon="1.5168780">
        <ele>39.5</ele>
        <time>2020-02-22T17:54:00Z</time>
      </trkpt>
      <trkpt lat="38.9904780" lon="1.5169580">
        <ele>39.4</ele>
        <time>2020-02-22T17:54:01Z</time>
      </trkpt>
      <trkpt lat="38.9904400" lon="1.5170390">
        <ele>39.3</ele>
        <time>2020-02-22T17:54:02Z</time>
      </trkpt>
      <trkpt lat="38.9904010" lon="1.5171220">
        <ele>39.3</ele>
        <time>2020-02-22T17:54:03Z</time>
      </trkpt>
      <trkpt lat="38.9903610" lon="1.5171990">
        <ele>39.1</ele>
        <time>2020-02-22T17:54:04Z</time>
      </trkpt>
      <trkpt lat="38.9903240" lon="1.5172740">
        <ele>39.0</ele>
        <time>2020-02-22T17:54:05Z</time>
      </trkpt>
      <trkpt lat="38.9902880" lon="1.5173540">
        <ele>38.8</ele>
        <time>2020-02-22T17:54:06Z</time>
      </trkpt>
      <trkpt lat="38.9902530" lon="1.5174370">
        <ele>38.7</ele>
        <time>2020-02-22T17:54:07Z</time>
      </trkpt>
      <trkpt lat="38.9902150" lon="1.5175160">
        <ele>38.6</ele>
        <time>2020-02-22T17:54:08Z</time>
      </trkpt>
      <trkpt lat="38.9901780" lon="1.5175960">
        <ele>38.4</ele>
        <time>2020-02-22T17:54:09Z</time>
      </trkpt>
      <trkpt lat="38.9901410" lon="1.5176790">
        <ele>38.3</ele>
        <time>2020-02-22T17:54:10Z</time>
      </trkpt>
      <trkpt lat="38.9901010" lon="1.5177590">
        <ele>38.2</ele>
        <time>2020-02-22T17:54:11Z</time>
      </trkpt>
      <trkpt lat="38.9900620" lon="1.5178400">
        <ele>38.1</ele>
        <time>2020-02-22T17:54:12Z</time>
      </trkpt>
      <trkpt lat="38.9900200" lon="1.5179200">
        <ele>38.0</ele>
        <time>2020-02-22T17:54:13Z</time>
      </trkpt>
      <trkpt lat="38.9899810" lon="1.5180010">
        <ele>38.0</ele>
        <time>2020-02-22T17:54:14Z</time>
      </trkpt>
      <trkpt lat="38.9899380" lon="1.5180810">
        <ele>38.0</ele>
        <time>2020-02-22T17:54:15Z</time>
      </trkpt>
      <trkpt lat="38.9898980" lon="1.5181650">
        <ele>38.0</ele>
        <time>2020-02-22T17:54:16Z</time>
      </trkpt>
      <trkpt lat="38.9898530" lon="1.5182480">
        <ele>38.0</ele>
        <time>2020-02-22T17:54:17Z</time>
      </trkpt>
      <trkpt lat="38.9898020" lon="1.5183280">
        <ele>38.1</ele>
        <time>2020-02-22T17:54:18Z</time>
      </trkpt>
      <trkpt lat="38.9897580" lon="1.5184130">
        <ele>38.2</ele>
        <time>2020-02-22T17:54:19Z</time>
      </trkpt>
      <trkpt lat="38.9897170" lon="1.5184960">
        <ele>38.4</ele>
        <time>2020-02-22T17:54:20Z</time>
      </trkpt>
      <trkpt lat="38.9896760" lon="1.5185730">
        <ele>38.7</ele>
        <time>2020-02-22T17:54:21Z</time>
      </trkpt>
      <trkpt lat="38.9896310" lon="1.5186460">
        <ele>38.9</ele>
        <time>2020-02-22T17:54:22Z</time>
      </trkpt>
      <trkpt lat="38.9895920" lon="1.5187260">
        <ele>39.2</ele>
        <time>2020-02-22T17:54:23Z</time>
      </trkpt>
      <trkpt lat="38.9895480" lon="1.5188020">
        <ele>39.5</ele>
        <time>2020-02-22T17:54:24Z</time>
      </trkpt>
      <trkpt lat="38.9895080" lon="1.5188800">
        <ele>39.8</ele>
        <time>2020-02-22T17:54:25Z</time>
      </trkpt>
      <trkpt lat="38.9894660" lon="1.5189560">
        <ele>40.1</ele>
        <time>2020-02-22T17:54:26Z</time>
      </trkpt>
      <trkpt lat="38.9894240" lon="1.5190280">
        <ele>40.3</ele>
        <time>2020-02-22T17:54:27Z</time>
      </trkpt>
      <trkpt lat="38.9893830" lon="1.5190980">
        <ele>40.5</ele>
        <time>2020-02-22T17:54:28Z</time>
      </trkpt>
      <trkpt lat="38.9893450" lon="1.5191700">
        <ele>40.7</ele>
        <time>2020-02-22T17:54:29Z</time>
      </trkpt>
      <trkpt lat="38.9893050" lon="1.5192430">
        <ele>40.8</ele>
        <time>2020-02-22T17:54:30Z</time>
      </trkpt>
      <trkpt lat="38.9892630" lon="1.5193120">
        <ele>40.8</ele>
        <time>2020-02-22T17:54:31Z</time>
      </trkpt>
      <trkpt lat="38.9892220" lon="1.5193790">
        <ele>40.9</ele>
        <time>2020-02-22T17:54:32Z</time>
      </trkpt>
      <trkpt lat="38.9891850" lon="1.5194510">
        <ele>40.9</ele>
        <time>2020-02-22T17:54:33Z</time>
      </trkpt>
      <trkpt lat="38.9891510" lon="1.5195250">
        <ele>40.9</ele>
        <time>2020-02-22T17:54:34Z</time>
      </trkpt>
      <trkpt lat="38.9891230" lon="1.5196040">
        <ele>40.9</ele>
        <time>2020-02-22T17:54:35Z</time>
      </trkpt>
      <trkpt lat="38.9890960" lon="1.5196850">
        <ele>40.9</ele>
        <time>2020-02-22T17:54:36Z</time>
      </trkpt>
      <trkpt lat="38.9890720" lon="1.5197660">
        <ele>40.8</ele>
        <time>2020-02-22T17:54:37Z</time>
      </trkpt>
      <trkpt lat="38.9890520" lon="1.5198460">
        <ele>40.8</ele>
        <time>2020-02-22T17:54:38Z</time>
      </trkpt>
      <trkpt lat="38.9890240" lon="1.5199210">
        <ele>40.7</ele>
        <time>2020-02-22T17:54:39Z</time>
      </trkpt>
      <trkpt lat="38.9889970" lon="1.5199970">
        <ele>40.5</ele>
        <time>2020-02-22T17:54:40Z</time>
      </trkpt>
      <trkpt lat="38.9889750" lon="1.5200780">
        <ele>40.4</ele>
        <time>2020-02-22T17:54:41Z</time>
      </trkpt>
      <trkpt lat="38.9889530" lon="1.5201590">
        <ele>40.2</ele>
        <time>2020-02-22T17:54:42Z</time>
      </trkpt>
      <trkpt lat="38.9889410" lon="1.5202420">
        <ele>40.1</ele>
        <time>2020-02-22T17:54:43Z</time>
      </trkpt>
      <trkpt lat="38.9889320" lon="1.5203210">
        <ele>40.0</ele>
        <time>2020-02-22T17:54:44Z</time>
      </trkpt>
      <trkpt lat="38.9889170" lon="1.5204030">
        <ele>39.9</ele>
        <time>2020-02-22T17:54:45Z</time>
      </trkpt>
      <trkpt lat="38.9889130" lon="1.5204860">
        <ele>39.8</ele>
        <time>2020-02-22T17:54:46Z</time>
      </trkpt>
      <trkpt lat="38.9889180" lon="1.5205700">
        <ele>39.8</ele>
        <time>2020-02-22T17:54:47Z</time>
      </trkpt>
      <trkpt lat="38.9889250" lon="1.5206580">
        <ele>39.8</ele>
        <time>2020-02-22T17:54:48Z</time>
      </trkpt>
      <trkpt lat="38.9889280" lon="1.5207490">
        <ele>39.8</ele>
        <time>2020-02-22T17:54:49Z</time>
      </trkpt>
      <trkpt lat="38.9889340" lon="1.5208390">
        <ele>39.8</ele>
        <time>2020-02-22T17:54:50Z</time>
      </trkpt>
      <trkpt lat="38.9889350" lon="1.5209270">
        <ele>39.8</ele>
        <time>2020-02-22T17:54:51Z</time>
      </trkpt>
      <trkpt lat="38.9889320" lon="1.5210160">
        <ele>39.8</ele>
        <time>2020-02-22T17:54:52Z</time>
      </trkpt>
      <trkpt lat="38.9889310" lon="1.5211050">
        <ele>39.7</ele>
        <time>2020-02-22T17:54:53Z</time>
      </trkpt>
      <trkpt lat="38.9889260" lon="1.5211950">
        <ele>39.7</ele>
        <time>2020-02-22T17:54:54Z</time>
      </trkpt>
      <trkpt lat="38.9889120" lon="1.5212830">
        <ele>39.7</ele>
        <time>2020-02-22T17:54:55Z</time>
      </trkpt>
      <trkpt lat="38.9888900" lon="1.5213700">
        <ele>39.7</ele>
        <time>2020-02-22T17:54:56Z</time>
      </trkpt>
      <trkpt lat="38.9888660" lon="1.5214580">
        <ele>39.6</ele>
        <time>2020-02-22T17:54:57Z</time>
      </trkpt>
      <trkpt lat="38.9888410" lon="1.5215450">
        <ele>39.4</ele>
        <time>2020-02-22T17:54:58Z</time>
      </trkpt>
      <trkpt lat="38.9888200" lon="1.5216350">
        <ele>39.2</ele>
        <time>2020-02-22T17:54:59Z</time>
      </trkpt>
      <trkpt lat="38.9887960" lon="1.5217280">
        <ele>39.0</ele>
        <time>2020-02-22T17:55:00Z</time>
      </trkpt>
      <trkpt lat="38.9887670" lon="1.5218220">
        <ele>38.8</ele>
        <time>2020-02-22T17:55:01Z</time>
      </trkpt>
      <trkpt lat="38.9887370" lon="1.5219120">
        <ele>38.6</ele>
        <time>2020-02-22T17:55:02Z</time>
      </trkpt>
      <trkpt lat="38.9887140" lon="1.5220050">
        <ele>38.4</ele>
        <time>2020-02-22T17:55:03Z</time>
      </trkpt>
      <trkpt lat="38.9886880" lon="1.5220980">
        <ele>38.1</ele>
        <time>2020-02-22T17:55:04Z</time>
      </trkpt>
      <trkpt lat="38.9886690" lon="1.5221940">
        <ele>37.7</ele>
        <time>2020-02-22T17:55:05Z</time>
      </trkpt>
      <trkpt lat="38.9886510" lon="1.5222860">
        <ele>37.4</ele>
        <time>2020-02-22T17:55:06Z</time>
      </trkpt>
      <trkpt lat="38.9886380" lon="1.5223790">
        <ele>37.1</ele>
        <time>2020-02-22T17:55:07Z</time>
      </trkpt>
      <trkpt lat="38.9886260" lon="1.5224740">
        <ele>36.9</ele>
        <time>2020-02-22T17:55:08Z</time>
      </trkpt>
      <trkpt lat="38.9886140" lon="1.5225680">
        <ele>36.6</ele>
        <time>2020-02-22T17:55:09Z</time>
      </trkpt>
      <trkpt lat="38.9886080" lon="1.5226610">
        <ele>36.5</ele>
        <time>2020-02-22T17:55:10Z</time>
      </trkpt>
      <trkpt lat="38.9886010" lon="1.5227460">
        <ele>36.3</ele>
        <time>2020-02-22T17:55:11Z</time>
      </trkpt>
      <trkpt lat="38.9885880" lon="1.5228340">
        <ele>36.2</ele>
        <time>2020-02-22T17:55:12Z</time>
      </trkpt>
      <trkpt lat="38.9885740" lon="1.5229310">
        <ele>36.0</ele>
        <time>2020-02-22T17:55:13Z</time>
      </trkpt>
      <trkpt lat="38.9885550" lon="1.5230240">
        <ele>35.9</ele>
        <time>2020-02-22T17:55:14Z</time>
      </trkpt>
      <trkpt lat="38.9885350" lon="1.5231160">
        <ele>35.7</ele>
        <time>2020-02-22T17:55:15Z</time>
      </trkpt>
      <trkpt lat="38.9885180" lon="1.5232080">
        <ele>35.6</ele>
        <time>2020-02-22T17:55:16Z</time>
      </trkpt>
      <trkpt lat="38.9884890" lon="1.5232890">
        <ele>35.5</ele>
        <time>2020-02-22T17:55:17Z</time>
      </trkpt>
      <trkpt lat="38.9884470" lon="1.5233590">
        <ele>35.3</ele>
        <time>2020-02-22T17:55:18Z</time>
      </trkpt>
      <trkpt lat="38.9883950" lon="1.5234260">
        <ele>35.2</ele>
        <time>2020-02-22T17:55:19Z</time>
      </trkpt>
      <trkpt lat="38.9883370" lon="1.5234930">
        <ele>35.1</ele>
        <time>2020-02-22T17:55:20Z</time>
      </trkpt>
      <trkpt lat="38.9882770" lon="1.5235570">
        <ele>35.0</ele>
        <time>2020-02-22T17:55:21Z</time>
      </trkpt>
      <trkpt lat="38.9882230" lon="1.5236250">
        <ele>34.7</ele>
        <time>2020-02-22T17:55:22Z</time>
      </trkpt>
      <trkpt lat="38.9881690" lon="1.5236890">
        <ele>34.5</ele>
        <time>2020-02-22T17:55:23Z</time>
      </trkpt>
      <trkpt lat="38.9881160" lon="1.5237560">
        <ele>34.1</ele>
        <time>2020-02-22T17:55:24Z</time>
      </trkpt>
      <trkpt lat="38.9880630" lon="1.5238330">
        <ele>33.4</ele>
        <time>2020-02-22T17:55:25Z</time>
      </trkpt>
      <trkpt lat="38.9880160" lon="1.5239070">
        <ele>33.1</ele>
        <time>2020-02-22T17:55:26Z</time>
      </trkpt>
      <trkpt lat="38.9879690" lon="1.5239890">
        <ele>32.8</ele>
        <time>2020-02-22T17:55:27Z</time>
      </trkpt>
      <trkpt lat="38.9879280" lon="1.5240750">
        <ele>32.6</ele>
        <time>2020-02-22T17:55:28Z</time>
      </trkpt>
      <trkpt lat="38.9878910" lon="1.5241710">
        <ele>32.5</ele>
        <time>2020-02-22T17:55:29Z</time>
      </trkpt>
      <trkpt lat="38.9878680" lon="1.5242520">
        <ele>32.4</ele>
        <time>2020-02-22T17:55:30Z</time>
      </trkpt>
      <trkpt lat="38.9878460" lon="1.5243330">
        <ele>32.3</ele>
        <time>2020-02-22T17:55:31Z</time>
      </trkpt>
      <trkpt lat="38.9878090" lon="1.5244090">
        <ele>32.1</ele>
        <time>2020-02-22T17:55:32Z</time>
      </trkpt>
      <trkpt lat="38.9877580" lon="1.5244910">
        <ele>31.9</ele>
        <time>2020-02-22T17:55:33Z</time>
      </trkpt>
      <trkpt lat="38.9877110" lon="1.5245530">
        <ele>31.7</ele>
        <time>2020-02-22T17:55:34Z</time>
      </trkpt>
      <trkpt lat="38.9876580" lon="1.5246060">
        <ele>31.5</ele>
        <time>2020-02-22T17:55:35Z</time>
      </trkpt>
      <trkpt lat="38.9876090" lon="1.5246610">
        <ele>31.4</ele>
        <time>2020-02-22T17:55:36Z</time>
      </trkpt>
      <trkpt lat="38.9875610" lon="1.5247140">
        <ele>31.3</ele>
        <time>2020-02-22T17:55:37Z</time>
      </trkpt>
      <trkpt lat="38.9875110" lon="1.5247760">
        <ele>31.1</ele>
        <time>2020-02-22T17:55:38Z</time>
      </trkpt>
      <trkpt lat="38.9874660" lon="1.5248550">
        <ele>31.0</ele>
        <time>2020-02-22T17:55:39Z</time>
      </trkpt>
      <trkpt lat="38.9874240" lon="1.5249350">
        <ele>30.8</ele>
        <time>2020-02-22T17:55:40Z</time>
      </trkpt>
      <trkpt lat="38.9873830" lon="1.5250260">
        <ele>30.5</ele>
        <time>2020-02-22T17:55:41Z</time>
      </trkpt>
      <trkpt lat="38.9873420" lon="1.5251120">
        <ele>30.3</ele>
        <time>2020-02-22T17:55:42Z</time>
      </trkpt>
      <trkpt lat="38.9873060" lon="1.5251970">
        <ele>30.1</ele>
        <time>2020-02-22T17:55:43Z</time>
      </trkpt>
      <trkpt lat="38.9872740" lon="1.5252840">
        <ele>29.9</ele>
        <time>2020-02-22T17:55:44Z</time>
      </trkpt>
      <trkpt lat="38.9872450" lon="1.5253780">
        <ele>29.6</ele>
        <time>2020-02-22T17:55:45Z</time>
      </trkpt>
      <trkpt lat="38.9872160" lon="1.5254720">
        <ele>29.4</ele>
        <time>2020-02-22T17:55:46Z</time>
      </trkpt>
      <trkpt lat="38.9871880" lon="1.5255680">
        <ele>29.3</ele>
        <time>2020-02-22T17:55:47Z</time>
      </trkpt>
      <trkpt lat="38.9871590" lon="1.5256560">
        <ele>29.1</ele>
        <time>2020-02-22T17:55:48Z</time>
      </trkpt>
      <trkpt lat="38.9871330" lon="1.5257400">
        <ele>28.9</ele>
        <time>2020-02-22T17:55:49Z</time>
      </trkpt>
      <trkpt lat="38.9871110" lon="1.5258180">
        <ele>28.8</ele>
        <time>2020-02-22T17:55:50Z</time>
      </trkpt>
      <trkpt lat="38.9870910" lon="1.5258920">
        <ele>28.6</ele>
        <time>2020-02-22T17:55:51Z</time>
      </trkpt>
      <trkpt lat="38.9870700" lon="1.5259630">
        <ele>28.3</ele>
        <time>2020-02-22T17:55:52Z</time>
      </trkpt>
      <trkpt lat="38.9870330" lon="1.5260090">
        <ele>28.2</ele>
        <time>2020-02-22T17:55:53Z</time>
      </trkpt>
      <trkpt lat="38.9869800" lon="1.5260330">
        <ele>28.0</ele>
        <time>2020-02-22T17:55:54Z</time>
      </trkpt>
      <trkpt lat="38.9869210" lon="1.5260500">
        <ele>27.8</ele>
        <time>2020-02-22T17:55:55Z</time>
      </trkpt>
      <trkpt lat="38.9868560" lon="1.5260620">
        <ele>27.0</ele>
        <time>2020-02-22T17:55:56Z</time>
      </trkpt>
      <trkpt lat="38.9867900" lon="1.5260600">
        <ele>26.2</ele>
        <time>2020-02-22T17:55:57Z</time>
      </trkpt>
      <trkpt lat="38.9867260" lon="1.5260400">
        <ele>25.4</ele>
        <time>2020-02-22T17:55:58Z</time>
      </trkpt>
      <trkpt lat="38.9866620" lon="1.5260290">
        <ele>24.5</ele>
        <time>2020-02-22T17:55:59Z</time>
      </trkpt>
      <trkpt lat="38.9865990" lon="1.5260410">
        <ele>23.6</ele>
        <time>2020-02-22T17:56:00Z</time>
      </trkpt>
      <trkpt lat="38.9865440" lon="1.5260810">
        <ele>23.2</ele>
        <time>2020-02-22T17:56:01Z</time>
      </trkpt>
      <trkpt lat="38.9865020" lon="1.5261440">
        <ele>22.9</ele>
        <time>2020-02-22T17:56:02Z</time>
      </trkpt>
      <trkpt lat="38.9864830" lon="1.5262180">
        <ele>23.1</ele>
        <time>2020-02-22T17:56:03Z</time>
      </trkpt>
      <trkpt lat="38.9864810" lon="1.5263010">
        <ele>23.6</ele>
        <time>2020-02-22T17:56:04Z</time>
      </trkpt>
      <trkpt lat="38.9865080" lon="1.5263700">
        <ele>24.0</ele>
        <time>2020-02-22T17:56:05Z</time>
      </trkpt>
      <trkpt lat="38.9865440" lon="1.5264260">
        <ele>24.4</ele>
        <time>2020-02-22T17:56:06Z</time>
      </trkpt>
      <trkpt lat="38.9865760" lon="1.5264760">
        <ele>25.3</ele>
        <time>2020-02-22T17:56:07Z</time>
      </trkpt>
      <trkpt lat="38.9866150" lon="1.5265070">
        <ele>25.9</ele>
        <time>2020-02-22T17:56:08Z</time>
      </trkpt>
      <trkpt lat="38.9866570" lon="1.5265400">
        <ele>26.5</ele>
        <time>2020-02-22T17:56:09Z</time>
      </trkpt>
      <trkpt lat="38.9866800" lon="1.5266000">
        <ele>27.2</ele>
        <time>2020-02-22T17:56:10Z</time>
      </trkpt>
      <trkpt lat="38.9866980" lon="1.5266580">
        <ele>27.8</ele>
        <time>2020-02-22T17:56:11Z</time>
      </trkpt>
      <trkpt lat="38.9867160" lon="1.5267100">
        <ele>28.4</ele>
        <time>2020-02-22T17:56:12Z</time>
      </trkpt>
      <trkpt lat="38.9867330" lon="1.5267650">
        <ele>29.1</ele>
        <time>2020-02-22T17:56:13Z</time>
      </trkpt>
      <trkpt lat="38.9867540" lon="1.5268140">
        <ele>29.6</ele>
        <time>2020-02-22T17:56:14Z</time>
      </trkpt>
      <trkpt lat="38.9867680" lon="1.5268650">
        <ele>30.0</ele>
        <time>2020-02-22T17:56:15Z</time>
      </trkpt>
      <trkpt lat="38.9867790" lon="1.5269190">
        <ele>30.5</ele>
        <time>2020-02-22T17:56:16Z</time>
      </trkpt>
      <trkpt lat="38.9867930" lon="1.5269730">
        <ele>30.9</ele>
        <time>2020-02-22T17:56:17Z</time>
      </trkpt>
      <trkpt lat="38.9868010" lon="1.5270290">
        <ele>31.1</ele>
        <time>2020-02-22T17:56:18Z</time>
      </trkpt>
      <trkpt lat="38.9868160" lon="1.5270790">
        <ele>31.2</ele>
        <time>2020-02-22T17:56:19Z</time>
      </trkpt>
      <trkpt lat="38.9868360" lon="1.5271270">
        <ele>31.3</ele>
        <time>2020-02-22T17:56:20Z</time>
      </trkpt>
      <trkpt lat="38.9868490" lon="1.5271770">
        <ele>31.4</ele>
        <time>2020-02-22T17:56:21Z</time>
      </trkpt>
      <trkpt lat="38.9868640" lon="1.5272250">
        <ele>31.5</ele>
        <time>2020-02-22T17:56:22Z</time>
      </trkpt>
      <trkpt lat="38.9868800" lon="1.5272830">
        <ele>31.6</ele>
        <time>2020-02-22T17:56:23Z</time>
      </trkpt>
      <trkpt lat="38.9868880" lon="1.5273360">
        <ele>31.7</ele>
        <time>2020-02-22T17:56:24Z</time>
      </trkpt>
      <trkpt lat="38.9868890" lon="1.5273850">
        <ele>31.8</ele>
        <time>2020-02-22T17:56:25Z</time>
      </trkpt>
      <trkpt lat="38.9868860" lon="1.5274410">
        <ele>31.9</ele>
        <time>2020-02-22T17:56:26Z</time>
      </trkpt>
      <trkpt lat="38.9868880" lon="1.5274940">
        <ele>32.0</ele>
        <time>2020-02-22T17:56:27Z</time>
      </trkpt>
      <trkpt lat="38.9868850" lon="1.5275560">
        <ele>32.1</ele>
        <time>2020-02-22T17:56:28Z</time>
      </trkpt>
      <trkpt lat="38.9868730" lon="1.5276220">
        <ele>32.3</ele>
        <time>2020-02-22T17:56:29Z</time>
      </trkpt>
      <trkpt lat="38.9868630" lon="1.5276710">
        <ele>32.4</ele>
        <time>2020-02-22T17:56:30Z</time>
      </trkpt>
      <trkpt lat="38.9868450" lon="1.5277290">
        <ele>32.5</ele>
        <time>2020-02-22T17:56:31Z</time>
      </trkpt>
      <trkpt lat="38.9868240" lon="1.5277880">
        <ele>32.6</ele>
        <time>2020-02-22T17:56:32Z</time>
      </trkpt>
      <trkpt lat="38.9868020" lon="1.5278490">
        <ele>32.7</ele>
        <time>2020-02-22T17:56:33Z</time>
      </trkpt>
      <trkpt lat="38.9867920" lon="1.5278970">
        <ele>32.7</ele>
        <time>2020-02-22T17:56:34Z</time>
      </trkpt>
      <trkpt lat="38.9867700" lon="1.5279540">
        <ele>32.7</ele>
        <time>2020-02-22T17:56:35Z</time>
      </trkpt>
      <trkpt lat="38.9867440" lon="1.5280050">
        <ele>32.8</ele>
        <time>2020-02-22T17:56:36Z</time>
      </trkpt>
      <trkpt lat="38.9867210" lon="1.5280540">
        <ele>32.7</ele>
        <time>2020-02-22T17:56:37Z</time>
      </trkpt>
      <trkpt lat="38.9866930" lon="1.5281070">
        <ele>32.7</ele>
        <time>2020-02-22T17:56:38Z</time>
      </trkpt>
      <trkpt lat="38.9866650" lon="1.5281490">
        <ele>32.6</ele>
        <time>2020-02-22T17:56:39Z</time>
      </trkpt>
      <trkpt lat="38.9866390" lon="1.5282030">
        <ele>32.6</ele>
        <time>2020-02-22T17:56:40Z</time>
      </trkpt>
      <trkpt lat="38.9866080" lon="1.5282580">
        <ele>32.5</ele>
        <time>2020-02-22T17:56:41Z</time>
      </trkpt>
      <trkpt lat="38.9865830" lon="1.5283100">
        <ele>32.4</ele>
        <time>2020-02-22T17:56:42Z</time>
      </trkpt>
      <trkpt lat="38.9865510" lon="1.5283630">
        <ele>32.4</ele>
        <time>2020-02-22T17:56:43Z</time>
      </trkpt>
      <trkpt lat="38.9865200" lon="1.5284030">
        <ele>32.3</ele>
        <time>2020-02-22T17:56:44Z</time>
      </trkpt>
      <trkpt lat="38.9864960" lon="1.5284200">
        <ele>32.3</ele>
        <time>2020-02-22T17:56:45Z</time>
      </trkpt>
      <trkpt lat="38.9864920" lon="1.5284080">
        <ele>32.2</ele>
        <time>2020-02-22T17:56:46Z</time>
      </trkpt>
      <trkpt lat="38.9864940" lon="1.5284020">
        <ele>32.2</ele>
        <time>2020-02-22T17:56:47Z</time>
      </trkpt>
      <trkpt lat="38.9865010" lon="1.5283930">
        <ele>32.2</ele>
        <time>2020-02-22T17:56:48Z</time>
      </trkpt>
      <trkpt lat="38.9865050" lon="1.5283920">
        <ele>32.2</ele>
        <time>2020-02-22T17:56:49Z</time>
      </trkpt>
      <trkpt lat="38.9865060" lon="1.5283900">
        <ele>32.2</ele>
        <time>2020-02-22T17:56:50Z</time>
      </trkpt>
      <trkpt lat="38.9865080" lon="1.5283840">
        <ele>32.2</ele>
        <time>2020-02-22T17:56:51Z</time>
      </trkpt>
      <trkpt lat="38.9864990" lon="1.5283860">
        <ele>32.2</ele>
        <time>2020-02-22T17:56:52Z</time>
      </trkpt>
      <trkpt lat="38.9864970" lon="1.5283870">
        <ele>32.2</ele>
        <time>2020-02-22T17:56:53Z</time>
      </trkpt>
      <trkpt lat="38.9864960" lon="1.5283860">
        <ele>32.2</ele>
        <time>2020-02-22T17:56:54Z</time>
      </trkpt>
      <trkpt lat="38.9865030" lon="1.5283870">
        <ele>32.2</ele>
        <time>2020-02-22T17:56:55Z</time>
      </trkpt>
      <trkpt lat="38.9865060" lon="1.5283920">
        <ele>32.2</ele>
        <time>2020-02-22T17:56:56Z</time>
      </trkpt>
      <trkpt lat="38.9864680" lon="1.5283310">
        <ele>32.1</ele>
        <time>2020-02-22T18:03:11Z</time>
      </trkpt>
      <trkpt lat="38.9864670" lon="1.5283330">
        <ele>32.1</ele>
        <time>2020-02-22T18:03:12Z</time>
      </trkpt>
      <trkpt lat="38.9864640" lon="1.5283310">
        <ele>32.1</ele>
        <time>2020-02-22T18:03:13Z</time>
      </trkpt>
      <trkpt lat="38.9864660" lon="1.5283350">
        <ele>32.1</ele>
        <time>2020-02-22T18:03:14Z</time>
      </trkpt>
      <trkpt lat="38.9864670" lon="1.5283380">
        <ele>32.1</ele>
        <time>2020-02-22T18:03:15Z</time>
      </trkpt>
      <trkpt lat="38.9864670" lon="1.5283410">
        <ele>32.1</ele>
        <time>2020-02-22T18:03:16Z</time>
      </trkpt>
      <trkpt lat="38.9864640" lon="1.5283390">
        <ele>32.1</ele>
        <time>2020-02-22T18:03:17Z</time>
      </trkpt>
      <trkpt lat="38.9864650" lon="1.5283400">
        <ele>32.1</ele>
        <time>2020-02-22T18:03:18Z</time>
      </trkpt>
      <trkpt lat="38.9864650" lon="1.5283400">
        <ele>32.1</ele>
        <time>2020-02-22T18:03:19Z</time>
      </trkpt>
      <trkpt lat="38.9864650" lon="1.5283410">
        <ele>32.1</ele>
        <time>2020-02-22T18:03:20Z</time>
      </trkpt>
      <trkpt lat="38.9864660" lon="1.5283410">
        <ele>32.1</ele>
        <time>2020-02-22T18:03:21Z</time>
      </trkpt>
      <trkpt lat="38.9864660" lon="1.5283410">
        <ele>32.1</ele>
        <time>2020-02-22T18:03:22Z</time>
      </trkpt>
      <trkpt lat="38.9864660" lon="1.5283410">
        <ele>32.1</ele>
        <time>2020-02-22T18:03:23Z</time>
      </trkpt>
      <trkpt lat="38.9864660" lon="1.5283410">
        <ele>32.1</ele>
        <time>2020-02-22T18:03:24Z</time>
      </trkpt>
      <trkpt lat="38.9864660" lon="1.5283420">
        <ele>32.1</ele>
        <time>2020-02-22T18:03:25Z</time>
      </trkpt>
      <trkpt lat="38.9864660" lon="1.5283420">
        <ele>32.1</ele>
        <time>2020-02-22T18:03:26Z</time>
      </trkpt>
      <trkpt lat="38.9864670" lon="1.5283430">
        <ele>32.1</ele>
        <time>2020-02-22T18:03:27Z</time>
      </trkpt>
      <trkpt lat="38.9864720" lon="1.5284300">
        <ele>32.0</ele>
        <time>2020-02-22T18:04:41Z</time>
      </trkpt>
      <trkpt lat="38.9864660" lon="1.5284500">
        <ele>32.0</ele>
        <time>2020-02-22T18:04:42Z</time>
      </trkpt>
      <trkpt lat="38.9864560" lon="1.5284990">
        <ele>31.9</ele>
        <time>2020-02-22T18:04:43Z</time>
      </trkpt>
      <trkpt lat="38.9864540" lon="1.5285160">
        <ele>31.8</ele>
        <time>2020-02-22T18:04:44Z</time>
      </trkpt>
      <trkpt lat="38.9864470" lon="1.5285530">
        <ele>31.7</ele>
        <time>2020-02-22T18:04:45Z</time>
      </trkpt>
      <trkpt lat="38.9864420" lon="1.5285930">
        <ele>31.6</ele>
        <time>2020-02-22T18:04:46Z</time>
      </trkpt>
      <trkpt lat="38.9864330" lon="1.5286430">
        <ele>31.5</ele>
        <time>2020-02-22T18:04:47Z</time>
      </trkpt>
      <trkpt lat="38.9864250" lon="1.5286960">
        <ele>31.4</ele>
        <time>2020-02-22T18:04:48Z</time>
      </trkpt>
      <trkpt lat="38.9864150" lon="1.5287480">
        <ele>31.3</ele>
        <time>2020-02-22T18:04:49Z</time>
      </trkpt>
      <trkpt lat="38.9864100" lon="1.5288110">
        <ele>31.2</ele>
        <time>2020-02-22T18:04:50Z</time>
      </trkpt>
      <trkpt lat="38.9864020" lon="1.5288770">
        <ele>31.1</ele>
        <time>2020-02-22T18:04:51Z</time>
      </trkpt>
      <trkpt lat="38.9863920" lon="1.5289390">
        <ele>30.9</ele>
        <time>2020-02-22T18:04:52Z</time>
      </trkpt>
      <trkpt lat="38.9863820" lon="1.5290050">
        <ele>30.8</ele>
        <time>2020-02-22T18:04:53Z</time>
      </trkpt>
      <trkpt lat="38.9863690" lon="1.5290650">
        <ele>30.6</ele>
        <time>2020-02-22T18:04:54Z</time>
      </trkpt>
      <trkpt lat="38.9863570" lon="1.5291330">
        <ele>30.5</ele>
        <time>2020-02-22T18:04:55Z</time>
      </trkpt>
      <trkpt lat="38.9863430" lon="1.5291950">
        <ele>30.4</ele>
        <time>2020-02-22T18:04:56Z</time>
      </trkpt>
      <trkpt lat="38.9863300" lon="1.5292510">
        <ele>30.3</ele>
        <time>2020-02-22T18:04:57Z</time>
      </trkpt>
      <trkpt lat="38.9863130" lon="1.5293160">
        <ele>30.2</ele>
        <time>2020-02-22T18:04:58Z</time>
      </trkpt>
      <trkpt lat="38.9863050" lon="1.5293840">
        <ele>30.1</ele>
        <time>2020-02-22T18:04:59Z</time>
      </trkpt>
      <trkpt lat="38.9862960" lon="1.5294590">
        <ele>30.0</ele>
        <time>2020-02-22T18:05:00Z</time>
      </trkpt>
      <trkpt lat="38.9862900" lon="1.5295310">
        <ele>29.9</ele>
        <time>2020-02-22T18:05:01Z</time>
      </trkpt>
      <trkpt lat="38.9862870" lon="1.5296020">
        <ele>29.8</ele>
        <time>2020-02-22T18:05:02Z</time>
      </trkpt>
      <trkpt lat="38.9862910" lon="1.5296850">
        <ele>29.6</ele>
        <time>2020-02-22T18:05:03Z</time>
      </trkpt>
      <trkpt lat="38.9862990" lon="1.5297640">
        <ele>29.5</ele>
        <time>2020-02-22T18:05:04Z</time>
      </trkpt>
      <trkpt lat="38.9862990" lon="1.5298420">
        <ele>29.2</ele>
        <time>2020-02-22T18:05:05Z</time>
      </trkpt>
      <trkpt lat="38.9863020" lon="1.5299210">
        <ele>29.0</ele>
        <time>2020-02-22T18:05:06Z</time>
      </trkpt>
      <trkpt lat="38.9863040" lon="1.5300020">
        <ele>28.8</ele>
        <time>2020-02-22T18:05:07Z</time>
      </trkpt>
      <trkpt lat="38.9863070" lon="1.5300790">
        <ele>28.7</ele>
        <time>2020-02-22T18:05:08Z</time>
      </trkpt>
      <trkpt lat="38.9863120" lon="1.5301660">
        <ele>28.5</ele>
        <time>2020-02-22T18:05:09Z</time>
      </trkpt>
      <trkpt lat="38.9863250" lon="1.5302640">
        <ele>28.3</ele>
        <time>2020-02-22T18:05:10Z</time>
      </trkpt>
      <trkpt lat="38.9863390" lon="1.5303650">
        <ele>28.0</ele>
        <time>2020-02-22T18:05:11Z</time>
      </trkpt>
      <trkpt lat="38.9863450" lon="1.5304670">
        <ele>27.8</ele>
        <time>2020-02-22T18:05:12Z</time>
      </trkpt>
      <trkpt lat="38.9863540" lon="1.5305640">
        <ele>27.6</ele>
        <time>2020-02-22T18:05:13Z</time>
      </trkpt>
      <trkpt lat="38.9863630" lon="1.5306670">
        <ele>27.4</ele>
        <time>2020-02-22T18:05:14Z</time>
      </trkpt>
      <trkpt lat="38.9863750" lon="1.5307690">
        <ele>27.2</ele>
        <time>2020-02-22T18:05:15Z</time>
      </trkpt>
      <trkpt lat="38.9863850" lon="1.5308610">
        <ele>27.0</ele>
        <time>2020-02-22T18:05:16Z</time>
      </trkpt>
      <trkpt lat="38.9863980" lon="1.5309590">
        <ele>26.7</ele>
        <time>2020-02-22T18:05:17Z</time>
      </trkpt>
      <trkpt lat="38.9864150" lon="1.5310570">
        <ele>26.4</ele>
        <time>2020-02-22T18:05:18Z</time>
      </trkpt>
      <trkpt lat="38.9864320" lon="1.5311610">
        <ele>26.2</ele>
        <time>2020-02-22T18:05:19Z</time>
      </trkpt>
      <trkpt lat="38.9864460" lon="1.5312390">
        <ele>26.1</ele>
        <time>2020-02-22T18:05:20Z</time>
      </trkpt>
      <trkpt lat="38.9864660" lon="1.5313280">
        <ele>25.9</ele>
        <time>2020-02-22T18:05:21Z</time>
      </trkpt>
      <trkpt lat="38.9865390" lon="1.5314350">
        <ele>25.6</ele>
        <time>2020-02-22T18:05:22Z</time>
      </trkpt>
      <trkpt lat="38.9865650" lon="1.5315300">
        <ele>25.2</ele>
        <time>2020-02-22T18:05:23Z</time>
      </trkpt>
      <trkpt lat="38.9865880" lon="1.5316170">
        <ele>25.1</ele>
        <time>2020-02-22T18:05:24Z</time>
      </trkpt>
      <trkpt lat="38.9866090" lon="1.5317010">
        <ele>25.1</ele>
        <time>2020-02-22T18:05:25Z</time>
      </trkpt>
      <trkpt lat="38.9866270" lon="1.5317870">
        <ele>25.1</ele>
        <time>2020-02-22T18:05:26Z</time>
      </trkpt>
      <trkpt lat="38.9866420" lon="1.5318690">
        <ele>25.0</ele>
        <time>2020-02-22T18:05:27Z</time>
      </trkpt>
      <trkpt lat="38.9866570" lon="1.5319550">
        <ele>25.1</ele>
        <time>2020-02-22T18:05:28Z</time>
      </trkpt>
      <trkpt lat="38.9866670" lon="1.5320320">
        <ele>25.1</ele>
        <time>2020-02-22T18:05:29Z</time>
      </trkpt>
      <trkpt lat="38.9866780" lon="1.5321110">
        <ele>25.2</ele>
        <time>2020-02-22T18:05:30Z</time>
      </trkpt>
      <trkpt lat="38.9866880" lon="1.5321840">
        <ele>25.2</ele>
        <time>2020-02-22T18:05:31Z</time>
      </trkpt>
      <trkpt lat="38.9866970" lon="1.5322490">
        <ele>25.2</ele>
        <time>2020-02-22T18:05:32Z</time>
      </trkpt>
      <trkpt lat="38.9867040" lon="1.5323060">
        <ele>25.3</ele>
        <time>2020-02-22T18:05:33Z</time>
      </trkpt>
      <trkpt lat="38.9867060" lon="1.5323660">
        <ele>25.3</ele>
        <time>2020-02-22T18:05:34Z</time>
      </trkpt>
      <trkpt lat="38.9867070" lon="1.5324350">
        <ele>25.3</ele>
        <time>2020-02-22T18:05:35Z</time>
      </trkpt>
      <trkpt lat="38.9867100" lon="1.5325030">
        <ele>25.3</ele>
        <time>2020-02-22T18:05:36Z</time>
      </trkpt>
      <trkpt lat="38.9867230" lon="1.5325750">
        <ele>25.3</ele>
        <time>2020-02-22T18:05:37Z</time>
      </trkpt>
      <trkpt lat="38.9867350" lon="1.5326390">
        <ele>25.3</ele>
        <time>2020-02-22T18:05:38Z</time>
      </trkpt>
      <trkpt lat="38.9867440" lon="1.5327040">
        <ele>25.2</ele>
        <time>2020-02-22T18:05:39Z</time>
      </trkpt>
      <trkpt lat="38.9867540" lon="1.5327760">
        <ele>25.2</ele>
        <time>2020-02-22T18:05:40Z</time>
      </trkpt>
      <trkpt lat="38.9867640" lon="1.5328510">
        <ele>25.2</ele>
        <time>2020-02-22T18:05:41Z</time>
      </trkpt>
      <trkpt lat="38.9867710" lon="1.5329110">
        <ele>25.1</ele>
        <time>2020-02-22T18:05:42Z</time>
      </trkpt>
      <trkpt lat="38.9867870" lon="1.5329810">
        <ele>25.1</ele>
        <time>2020-02-22T18:05:43Z</time>
      </trkpt>
      <trkpt lat="38.9868010" lon="1.5330590">
        <ele>25.0</ele>
        <time>2020-02-22T18:05:44Z</time>
      </trkpt>
      <trkpt lat="38.9868200" lon="1.5331280">
        <ele>25.0</ele>
        <time>2020-02-22T18:05:45Z</time>
      </trkpt>
      <trkpt lat="38.9868410" lon="1.5332030">
        <ele>24.9</ele>
        <time>2020-02-22T18:05:46Z</time>
      </trkpt>
      <trkpt lat="38.9868620" lon="1.5332810">
        <ele>24.8</ele>
        <time>2020-02-22T18:05:47Z</time>
      </trkpt>
      <trkpt lat="38.9868830" lon="1.5333590">
        <ele>24.7</ele>
        <time>2020-02-22T18:05:48Z</time>
      </trkpt>
      <trkpt lat="38.9869020" lon="1.5334290">
        <ele>24.6</ele>
        <time>2020-02-22T18:05:49Z</time>
      </trkpt>
      <trkpt lat="38.9869200" lon="1.5335070">
        <ele>24.4</ele>
        <time>2020-02-22T18:05:50Z</time>
      </trkpt>
      <trkpt lat="38.9869390" lon="1.5335780">
        <ele>24.3</ele>
        <time>2020-02-22T18:05:51Z</time>
      </trkpt>
      <trkpt lat="38.9869610" lon="1.5336560">
        <ele>24.1</ele>
        <time>2020-02-22T18:05:52Z</time>
      </trkpt>
      <trkpt lat="38.9869800" lon="1.5337270">
        <ele>23.9</ele>
        <time>2020-02-22T18:05:53Z</time>
      </trkpt>
      <trkpt lat="38.9869960" lon="1.5338000">
        <ele>23.7</ele>
        <time>2020-02-22T18:05:54Z</time>
      </trkpt>
      <trkpt lat="38.9870140" lon="1.5338790">
        <ele>23.5</ele>
        <time>2020-02-22T18:05:55Z</time>
      </trkpt>
      <trkpt lat="38.9870200" lon="1.5339610">
        <ele>23.3</ele>
        <time>2020-02-22T18:05:56Z</time>
      </trkpt>
      <trkpt lat="38.9870360" lon="1.5340360">
        <ele>23.1</ele>
        <time>2020-02-22T18:05:57Z</time>
      </trkpt>
      <trkpt lat="38.9870510" lon="1.5341220">
        <ele>22.9</ele>
        <time>2020-02-22T18:05:58Z</time>
      </trkpt>
      <trkpt lat="38.9870700" lon="1.5342150">
        <ele>22.7</ele>
        <time>2020-02-22T18:05:59Z</time>
      </trkpt>
      <trkpt lat="38.9870850" lon="1.5342990">
        <ele>22.5</ele>
        <time>2020-02-22T18:06:00Z</time>
      </trkpt>
      <trkpt lat="38.9871000" lon="1.5343870">
        <ele>22.3</ele>
        <time>2020-02-22T18:06:01Z</time>
      </trkpt>
      <trkpt lat="38.9871200" lon="1.5344720">
        <ele>22.0</ele>
        <time>2020-02-22T18:06:02Z</time>
      </trkpt>
      <trkpt lat="38.9871380" lon="1.5345620">
        <ele>21.8</ele>
        <time>2020-02-22T18:06:03Z</time>
      </trkpt>
      <trkpt lat="38.9871540" lon="1.5346510">
        <ele>21.5</ele>
        <time>2020-02-22T18:06:04Z</time>
      </trkpt>
      <trkpt lat="38.9871690" lon="1.5347420">
        <ele>21.3</ele>
        <time>2020-02-22T18:06:05Z</time>
      </trkpt>
      <trkpt lat="38.9871840" lon="1.5348290">
        <ele>21.2</ele>
        <time>2020-02-22T18:06:06Z</time>
      </trkpt>
      <trkpt lat="38.9872000" lon="1.5349130">
        <ele>21.0</ele>
        <time>2020-02-22T18:06:07Z</time>
      </trkpt>
      <trkpt lat="38.9872140" lon="1.5349950">
        <ele>20.8</ele>
        <time>2020-02-22T18:06:08Z</time>
      </trkpt>
      <trkpt lat="38.9872380" lon="1.5350760">
        <ele>20.6</ele>
        <time>2020-02-22T18:06:09Z</time>
      </trkpt>
      <trkpt lat="38.9872670" lon="1.5351560">
        <ele>20.9</ele>
        <time>2020-02-22T18:06:10Z</time>
      </trkpt>
      <trkpt lat="38.9872970" lon="1.5352310">
        <ele>21.1</ele>
        <time>2020-02-22T18:06:11Z</time>
      </trkpt>
      <trkpt lat="38.9873260" lon="1.5353050">
        <ele>21.3</ele>
        <time>2020-02-22T18:06:12Z</time>
      </trkpt>
      <trkpt lat="38.9873560" lon="1.5353790">
        <ele>21.4</ele>
        <time>2020-02-22T18:06:13Z</time>
      </trkpt>
      <trkpt lat="38.9873870" lon="1.5354490">
        <ele>21.5</ele>
        <time>2020-02-22T18:06:14Z</time>
      </trkpt>
      <trkpt lat="38.9874290" lon="1.5355100">
        <ele>21.6</ele>
        <time>2020-02-22T18:06:15Z</time>
      </trkpt>
      <trkpt lat="38.9874630" lon="1.5355720">
        <ele>21.7</ele>
        <time>2020-02-22T18:06:16Z</time>
      </trkpt>
      <trkpt lat="38.9874960" lon="1.5356310">
        <ele>21.8</ele>
        <time>2020-02-22T18:06:17Z</time>
      </trkpt>
      <trkpt lat="38.9875240" lon="1.5356940">
        <ele>22.0</ele>
        <time>2020-02-22T18:06:18Z</time>
      </trkpt>
      <trkpt lat="38.9875510" lon="1.5357540">
        <ele>22.1</ele>
        <time>2020-02-22T18:06:19Z</time>
      </trkpt>
      <trkpt lat="38.9875790" lon="1.5358120">
        <ele>22.3</ele>
        <time>2020-02-22T18:06:20Z</time>
      </trkpt>
      <trkpt lat="38.9876110" lon="1.5358670">
        <ele>22.5</ele>
        <time>2020-02-22T18:06:21Z</time>
      </trkpt>
      <trkpt lat="38.9876360" lon="1.5359270">
        <ele>22.5</ele>
        <time>2020-02-22T18:06:22Z</time>
      </trkpt>
      <trkpt lat="38.9876680" lon="1.5359780">
        <ele>22.5</ele>
        <time>2020-02-22T18:06:23Z</time>
      </trkpt>
      <trkpt lat="38.9876990" lon="1.5360220">
        <ele>22.5</ele>
        <time>2020-02-22T18:06:24Z</time>
      </trkpt>
      <trkpt lat="38.9877250" lon="1.5360720">
        <ele>22.5</ele>
        <time>2020-02-22T18:06:25Z</time>
      </trkpt>
      <trkpt lat="38.9877160" lon="1.5361330">
        <ele>21.9</ele>
        <time>2020-02-22T18:06:26Z</time>
      </trkpt>
      <trkpt lat="38.9876870" lon="1.5361910">
        <ele>21.4</ele>
        <time>2020-02-22T18:06:27Z</time>
      </trkpt>
      <trkpt lat="38.9876370" lon="1.5362300">
        <ele>20.9</ele>
        <time>2020-02-22T18:06:28Z</time>
      </trkpt>
      <trkpt lat="38.9875930" lon="1.5362850">
        <ele>20.3</ele>
        <time>2020-02-22T18:06:29Z</time>
      </trkpt>
      <trkpt lat="38.9875470" lon="1.5363320">
        <ele>19.8</ele>
        <time>2020-02-22T18:06:30Z</time>
      </trkpt>
      <trkpt lat="38.9875040" lon="1.5363820">
        <ele>19.3</ele>
        <time>2020-02-22T18:06:31Z</time>
      </trkpt>
      <trkpt lat="38.9874670" lon="1.5364250">
        <ele>18.8</ele>
        <time>2020-02-22T18:06:32Z</time>
      </trkpt>
      <trkpt lat="38.9874240" lon="1.5364680">
        <ele>18.4</ele>
        <time>2020-02-22T18:06:33Z</time>
      </trkpt>
      <trkpt lat="38.9873740" lon="1.5365250">
        <ele>17.9</ele>
        <time>2020-02-22T18:06:34Z</time>
      </trkpt>
      <trkpt lat="38.9873400" lon="1.5365790">
        <ele>17.5</ele>
        <time>2020-02-22T18:06:35Z</time>
      </trkpt>
      <trkpt lat="38.9873150" lon="1.5366100">
        <ele>17.3</ele>
        <time>2020-02-22T18:06:36Z</time>
      </trkpt>
      <trkpt lat="38.9873090" lon="1.5366170">
        <ele>17.2</ele>
        <time>2020-02-22T18:06:37Z</time>
      </trkpt>
      <trkpt lat="38.9872910" lon="1.5366430">
        <ele>17.0</ele>
        <time>2020-02-22T18:06:38Z</time>
      </trkpt>
      <trkpt lat="38.9872850" lon="1.5366540">
        <ele>16.9</ele>
        <time>2020-02-22T18:06:39Z</time>
      </trkpt>
      <trkpt lat="38.9872590" lon="1.5366910">
        <ele>16.7</ele>
        <time>2020-02-22T18:06:40Z</time>
      </trkpt>
      <trkpt lat="38.9872510" lon="1.5367080">
        <ele>16.6</ele>
        <time>2020-02-22T18:06:41Z</time>
      </trkpt>
      <trkpt lat="38.9872300" lon="1.5367400">
        <ele>16.3</ele>
        <time>2020-02-22T18:06:42Z</time>
      </trkpt>
      <trkpt lat="38.9872070" lon="1.5367750">
        <ele>16.0</ele>
        <time>2020-02-22T18:06:43Z</time>
      </trkpt>
      <trkpt lat="38.9871790" lon="1.5368060">
        <ele>15.8</ele>
        <time>2020-02-22T18:06:44Z</time>
      </trkpt>
      <trkpt lat="38.9871540" lon="1.5368370">
        <ele>15.7</ele>
        <time>2020-02-22T18:06:45Z</time>
      </trkpt>
      <trkpt lat="38.9871090" lon="1.5368690">
        <ele>15.4</ele>
        <time>2020-02-22T18:06:46Z</time>
      </trkpt>
      <trkpt lat="38.9870850" lon="1.5369040">
        <ele>15.2</ele>
        <time>2020-02-22T18:06:47Z</time>
      </trkpt>
      <trkpt lat="38.9870660" lon="1.5369310">
        <ele>15.1</ele>
        <time>2020-02-22T18:06:48Z</time>
      </trkpt>
      <trkpt lat="38.9870520" lon="1.5369420">
        <ele>15.0</ele>
        <time>2020-02-22T18:06:49Z</time>
      </trkpt>
      <trkpt lat="38.9870450" lon="1.5369610">
        <ele>15.0</ele>
        <time>2020-02-22T18:06:50Z</time>
      </trkpt>
      <trkpt lat="38.9870280" lon="1.5369970">
        <ele>14.9</ele>
        <time>2020-02-22T18:06:51Z</time>
      </trkpt>
      <trkpt lat="38.9869900" lon="1.5370360">
        <ele>14.7</ele>
        <time>2020-02-22T18:06:52Z</time>
      </trkpt>
      <trkpt lat="38.9869670" lon="1.5370660">
        <ele>14.6</ele>
        <time>2020-02-22T18:06:53Z</time>
      </trkpt>
      <trkpt lat="38.9869400" lon="1.5370980">
        <ele>14.5</ele>
        <time>2020-02-22T18:06:54Z</time>
      </trkpt>
      <trkpt lat="38.9869130" lon="1.5371300">
        <ele>14.4</ele>
        <time>2020-02-22T18:06:55Z</time>
      </trkpt>
      <trkpt lat="38.9868870" lon="1.5371620">
        <ele>14.3</ele>
        <time>2020-02-22T18:06:56Z</time>
      </trkpt>
      <trkpt lat="38.9868720" lon="1.5371810">
        <ele>14.2</ele>
        <time>2020-02-22T18:06:57Z</time>
      </trkpt>
      <trkpt lat="38.9868600" lon="1.5371880">
        <ele>14.2</ele>
        <time>2020-02-22T18:06:58Z</time>
      </trkpt>
      <trkpt lat="38.9868500" lon="1.5371930">
        <ele>14.1</ele>
        <time>2020-02-22T18:06:59Z</time>
      </trkpt>
      <trkpt lat="38.9868390" lon="1.5371960">
        <ele>14.1</ele>
        <time>2020-02-22T18:07:00Z</time>
      </trkpt>
      <trkpt lat="38.9868300" lon="1.5371970">
        <ele>14.1</ele>
        <time>2020-02-22T18:07:01Z</time>
      </trkpt>
      <trkpt lat="38.9868260" lon="1.5371970">
        <ele>14.0</ele>
        <time>2020-02-22T18:07:02Z</time>
      </trkpt>
      <trkpt lat="38.9868210" lon="1.5371980">
        <ele>14.0</ele>
        <time>2020-02-22T18:07:03Z</time>
      </trkpt>
      <trkpt lat="38.9868200" lon="1.5372000">
        <ele>14.0</ele>
        <time>2020-02-22T18:07:04Z</time>
      </trkpt>
      <trkpt lat="38.9868180" lon="1.5371990">
        <ele>14.0</ele>
        <time>2020-02-22T18:07:05Z</time>
      </trkpt>
      <trkpt lat="38.9868160" lon="1.5372010">
        <ele>14.0</ele>
        <time>2020-02-22T18:07:06Z</time>
      </trkpt>
      <trkpt lat="38.9868150" lon="1.5372010">
        <ele>14.0</ele>
        <time>2020-02-22T18:07:07Z</time>
      </trkpt>
      <trkpt lat="38.9868150" lon="1.5372010">
        <ele>14.0</ele>
        <time>2020-02-22T18:07:08Z</time>
      </trkpt>
      <trkpt lat="38.9868170" lon="1.5372000">
        <ele>14.0</ele>
        <time>2020-02-22T18:07:09Z</time>
      </trkpt>
      <trkpt lat="38.9868170" lon="1.5371990">
        <ele>14.0</ele>
        <time>2020-02-22T18:07:10Z</time>
      </trkpt>
      <trkpt lat="38.9867990" lon="1.5372390">
        <ele>13.9</ele>
        <time>2020-02-22T18:07:24Z</time>
      </trkpt>
      <trkpt lat="38.9867900" lon="1.5372610">
        <ele>13.8</ele>
        <time>2020-02-22T18:07:25Z</time>
      </trkpt>
      <trkpt lat="38.9867710" lon="1.5372750">
        <ele>13.8</ele>
        <time>2020-02-22T18:07:26Z</time>
      </trkpt>
      <trkpt lat="38.9867640" lon="1.5372790">
        <ele>13.8</ele>
        <time>2020-02-22T18:07:27Z</time>
      </trkpt>
      <trkpt lat="38.9867560" lon="1.5372840">
        <ele>13.7</ele>
        <time>2020-02-22T18:07:28Z</time>
      </trkpt>
      <trkpt lat="38.9867500" lon="1.5372860">
        <ele>13.7</ele>
        <time>2020-02-22T18:07:29Z</time>
      </trkpt>
      <trkpt lat="38.9867500" lon="1.5372860">
        <ele>13.7</ele>
        <time>2020-02-22T18:07:30Z</time>
      </trkpt>
      <trkpt lat="38.9867430" lon="1.5372830">
        <ele>13.7</ele>
        <time>2020-02-22T18:07:31Z</time>
      </trkpt>
      <trkpt lat="38.9867360" lon="1.5372790">
        <ele>13.7</ele>
        <time>2020-02-22T18:07:32Z</time>
      </trkpt>
      <trkpt lat="38.9867250" lon="1.5372720">
        <ele>13.7</ele>
        <time>2020-02-22T18:07:33Z</time>
      </trkpt>
      <trkpt lat="38.9867160" lon="1.5372710">
        <ele>13.6</ele>
        <time>2020-02-22T18:07:34Z</time>
      </trkpt>
      <trkpt lat="38.9867110" lon="1.5372760">
        <ele>13.6</ele>
        <time>2020-02-22T18:07:35Z</time>
      </trkpt>
      <trkpt lat="38.9867070" lon="1.5372790">
        <ele>13.6</ele>
        <time>2020-02-22T18:07:36Z</time>
      </trkpt>
      <trkpt lat="38.9867000" lon="1.5372870">
        <ele>13.6</ele>
        <time>2020-02-22T18:07:37Z</time>
      </trkpt>
      <trkpt lat="38.9867000" lon="1.5372920">
        <ele>13.6</ele>
        <time>2020-02-22T18:07:38Z</time>
      </trkpt>
      <trkpt lat="38.9866930" lon="1.5373030">
        <ele>13.6</ele>
        <time>2020-02-22T18:07:39Z</time>
      </trkpt>
      <trkpt lat="38.9866890" lon="1.5373090">
        <ele>13.5</ele>
        <time>2020-02-22T18:07:40Z</time>
      </trkpt>
      <trkpt lat="38.9866870" lon="1.5373110">
        <ele>13.5</ele>
        <time>2020-02-22T18:07:41Z</time>
      </trkpt>
      <trkpt lat="38.9866850" lon="1.5373110">
        <ele>13.5</ele>
        <time>2020-02-22T18:07:42Z</time>
      </trkpt>
      <trkpt lat="38.9866850" lon="1.5373100">
        <ele>13.5</ele>
        <time>2020-02-22T18:07:43Z</time>
      </trkpt>
      <trkpt lat="38.9866860" lon="1.5373090">
        <ele>13.5</ele>
        <time>2020-02-22T18:07:44Z</time>
      </trkpt>
      <trkpt lat="38.9866860" lon="1.5373090">
        <ele>13.5</ele>
        <time>2020-02-22T18:07:45Z</time>
      </trkpt>
      <trkpt lat="38.9866800" lon="1.5373100">
        <ele>13.5</ele>
        <time>2020-02-22T18:07:46Z</time>
      </trkpt>
      <trkpt lat="38.9866780" lon="1.5373110">
        <ele>13.5</ele>
        <time>2020-02-22T18:07:47Z</time>
      </trkpt>
      <trkpt lat="38.9866700" lon="1.5373060">
        <ele>13.5</ele>
        <time>2020-02-22T18:07:48Z</time>
      </trkpt>
      <trkpt lat="38.9866570" lon="1.5373040">
        <ele>13.3</ele>
        <time>2020-02-22T18:07:49Z</time>
      </trkpt>
      <trkpt lat="38.9866400" lon="1.5373020">
        <ele>13.3</ele>
        <time>2020-02-22T18:07:50Z</time>
      </trkpt>
      <trkpt lat="38.9866250" lon="1.5372990">
        <ele>13.2</ele>
        <time>2020-02-22T18:07:51Z</time>
      </trkpt>
      <trkpt lat="38.9866080" lon="1.5372980">
        <ele>13.2</ele>
        <time>2020-02-22T18:07:52Z</time>
      </trkpt>
      <trkpt lat="38.9865910" lon="1.5372980">
        <ele>13.1</ele>
        <time>2020-02-22T18:07:53Z</time>
      </trkpt>
      <trkpt lat="38.9865740" lon="1.5372970">
        <ele>13.1</ele>
        <time>2020-02-22T18:07:54Z</time>
      </trkpt>
      <trkpt lat="38.9865570" lon="1.5372970">
        <ele>13.0</ele>
        <time>2020-02-22T18:07:55Z</time>
      </trkpt>
      <trkpt lat="38.9865410" lon="1.5372970">
        <ele>13.0</ele>
        <time>2020-02-22T18:07:56Z</time>
      </trkpt>
      <trkpt lat="38.9865240" lon="1.5372960">
        <ele>12.9</ele>
        <time>2020-02-22T18:07:57Z</time>
      </trkpt>
      <trkpt lat="38.9865240" lon="1.5372960">
        <ele>12.9</ele>
        <time>2020-02-22T18:08:08Z</time>
      </trkpt>
      <trkpt lat="38.9879890" lon="1.5369730">
        <ele>18.2</ele>
        <time>2020-02-22T18:15:44Z</time>
      </trkpt>
      <trkpt lat="38.9879110" lon="1.5369850">
        <ele>18.0</ele>
        <time>2020-02-22T18:15:45Z</time>
      </trkpt>
      <trkpt lat="38.9878620" lon="1.5369990">
        <ele>17.8</ele>
        <time>2020-02-22T18:15:46Z</time>
      </trkpt>
      <trkpt lat="38.9878140" lon="1.5370130">
        <ele>17.7</ele>
        <time>2020-02-22T18:15:47Z</time>
      </trkpt>
      <trkpt lat="38.9877680" lon="1.5370260">
        <ele>17.3</ele>
        <time>2020-02-22T18:15:48Z</time>
      </trkpt>
      <trkpt lat="38.9877240" lon="1.5370350">
        <ele>17.1</ele>
        <time>2020-02-22T18:15:49Z</time>
      </trkpt>
      <trkpt lat="38.9877040" lon="1.5370380">
        <ele>17.1</ele>
        <time>2020-02-22T18:15:50Z</time>
      </trkpt>
      <trkpt lat="38.9876930" lon="1.5370360">
        <ele>17.0</ele>
        <time>2020-02-22T18:15:51Z</time>
      </trkpt>
      <trkpt lat="38.9876850" lon="1.5370320">
        <ele>17.0</ele>
        <time>2020-02-22T18:15:52Z</time>
      </trkpt>
      <trkpt lat="38.9876730" lon="1.5370230">
        <ele>17.0</ele>
        <time>2020-02-22T18:15:53Z</time>
      </trkpt>
      <trkpt lat="38.9876610" lon="1.5370250">
        <ele>16.9</ele>
        <time>2020-02-22T18:15:54Z</time>
      </trkpt>
      <trkpt lat="38.9876320" lon="1.5370280">
        <ele>16.8</ele>
        <time>2020-02-22T18:15:55Z</time>
      </trkpt>
      <trkpt lat="38.9876250" lon="1.5370280">
        <ele>16.8</ele>
        <time>2020-02-22T18:15:56Z</time>
      </trkpt>
      <trkpt lat="38.9875950" lon="1.5370430">
        <ele>16.7</ele>
        <time>2020-02-22T18:15:57Z</time>
      </trkpt>
      <trkpt lat="38.9875800" lon="1.5370450">
        <ele>16.7</ele>
        <time>2020-02-22T18:15:58Z</time>
      </trkpt>
      <trkpt lat="38.9875690" lon="1.5370310">
        <ele>16.7</ele>
        <time>2020-02-22T18:15:59Z</time>
      </trkpt>
      <trkpt lat="38.9875570" lon="1.5370240">
        <ele>16.6</ele>
        <time>2020-02-22T18:16:00Z</time>
      </trkpt>
      <trkpt lat="38.9875230" lon="1.5370380">
        <ele>16.5</ele>
        <time>2020-02-22T18:16:01Z</time>
      </trkpt>
      <trkpt lat="38.9875090" lon="1.5370440">
        <ele>16.5</ele>
        <time>2020-02-22T18:16:02Z</time>
      </trkpt>
      <trkpt lat="38.9874840" lon="1.5370620">
        <ele>16.3</ele>
        <time>2020-02-22T18:16:03Z</time>
      </trkpt>
      <trkpt lat="38.9874750" lon="1.5370640">
        <ele>16.3</ele>
        <time>2020-02-22T18:16:04Z</time>
      </trkpt>
      <trkpt lat="38.9874640" lon="1.5370620">
        <ele>16.2</ele>
        <time>2020-02-22T18:16:05Z</time>
      </trkpt>
      <trkpt lat="38.9874650" lon="1.5370650">
        <ele>16.2</ele>
        <time>2020-02-22T18:16:06Z</time>
      </trkpt>
      <trkpt lat="38.9874610" lon="1.5370690">
        <ele>16.2</ele>
        <time>2020-02-22T18:16:07Z</time>
      </trkpt>
      <trkpt lat="38.9874520" lon="1.5370670">
        <ele>16.2</ele>
        <time>2020-02-22T18:16:08Z</time>
      </trkpt>
      <trkpt lat="38.9874420" lon="1.5370730">
        <ele>16.2</ele>
        <time>2020-02-22T18:16:09Z</time>
      </trkpt>
      <trkpt lat="38.9874150" lon="1.5370940">
        <ele>16.2</ele>
        <time>2020-02-22T18:16:10Z</time>
      </trkpt>
      <trkpt lat="38.9874080" lon="1.5371050">
        <ele>16.1</ele>
        <time>2020-02-22T18:16:11Z</time>
      </trkpt>
      <trkpt lat="38.9874000" lon="1.5371240">
        <ele>16.0</ele>
        <time>2020-02-22T18:16:12Z</time>
      </trkpt>
      <trkpt lat="38.9873940" lon="1.5371400">
        <ele>16.0</ele>
        <time>2020-02-22T18:16:13Z</time>
      </trkpt>
      <trkpt lat="38.9873920" lon="1.5371500">
        <ele>16.0</ele>
        <time>2020-02-22T18:16:14Z</time>
      </trkpt>
      <trkpt lat="38.9873940" lon="1.5371500">
        <ele>16.0</ele>
        <time>2020-02-22T18:16:15Z</time>
      </trkpt>
      <trkpt lat="38.9873210" lon="1.5371420">
        <ele>15.8</ele>
        <time>2020-02-22T18:16:16Z</time>
      </trkpt>
      <trkpt lat="38.9873210" lon="1.5371420">
        <ele>15.8</ele>
        <time>2020-02-22T18:16:17Z</time>
      </trkpt>
      <trkpt lat="38.9873210" lon="1.5371420">
        <ele>15.8</ele>
        <time>2020-02-22T18:16:18Z</time>
      </trkpt>
      <trkpt lat="38.9873210" lon="1.5371420">
        <ele>15.8</ele>
        <time>2020-02-22T18:16:19Z</time>
      </trkpt>
      <trkpt lat="38.9873230" lon="1.5371430">
        <ele>15.8</ele>
        <time>2020-02-22T18:16:20Z</time>
      </trkpt>
      <trkpt lat="38.9869290" lon="1.5372130">
        <ele>14.5</ele>
        <time>2020-02-22T18:17:36Z</time>
      </trkpt>
      <trkpt lat="38.9869290" lon="1.5372170">
        <ele>14.5</ele>
        <time>2020-02-22T18:17:37Z</time>
      </trkpt>
      <trkpt lat="38.9869300" lon="1.5372190">
        <ele>14.5</ele>
        <time>2020-02-22T18:17:38Z</time>
      </trkpt>
      <trkpt lat="38.9869300" lon="1.5372170">
        <ele>14.5</ele>
        <time>2020-02-22T18:17:39Z</time>
      </trkpt>
      <trkpt lat="38.9869300" lon="1.5372170">
        <ele>14.5</ele>
        <time>2020-02-22T18:17:40Z</time>
      </trkpt>
      <trkpt lat="38.9869300" lon="1.5372180">
        <ele>14.5</ele>
        <time>2020-02-22T18:17:41Z</time>
      </trkpt>
      <trkpt lat="38.9869330" lon="1.5372170">
        <ele>14.5</ele>
        <time>2020-02-22T18:17:42Z</time>
      </trkpt>
      <trkpt lat="38.9869370" lon="1.5372240">
        <ele>14.7</ele>
        <time>2020-02-22T18:17:43Z</time>
      </trkpt>
      <trkpt lat="38.9869370" lon="1.5372200">
        <ele>14.7</ele>
        <time>2020-02-22T18:17:44Z</time>
      </trkpt>
      <trkpt lat="38.9869390" lon="1.5372160">
        <ele>14.7</ele>
        <time>2020-02-22T18:17:45Z</time>
      </trkpt>
      <trkpt lat="38.9869400" lon="1.5372100">
        <ele>14.7</ele>
        <time>2020-02-22T18:17:46Z</time>
      </trkpt>
      <trkpt lat="38.9893630" lon="1.5426560">
        <ele>7.4</ele>
        <time>2020-02-23T09:33:29Z</time>
      </trkpt>
      <trkpt lat="38.9893840" lon="1.5426920">
        <ele>7.4</ele>
        <time>2020-02-23T09:33:30Z</time>
      </trkpt>
      <trkpt lat="38.9894000" lon="1.5427250">
        <ele>7.4</ele>
        <time>2020-02-23T09:33:31Z</time>
      </trkpt>
      <trkpt lat="38.9894210" lon="1.5427590">
        <ele>7.4</ele>
        <time>2020-02-23T09:33:32Z</time>
      </trkpt>
      <trkpt lat="38.9894490" lon="1.5427970">
        <ele>7.4</ele>
        <time>2020-02-23T09:33:33Z</time>
      </trkpt>
      <trkpt lat="38.9894690" lon="1.5428420">
        <ele>7.5</ele>
        <time>2020-02-23T09:33:34Z</time>
      </trkpt>
      <trkpt lat="38.9894870" lon="1.5428840">
        <ele>7.5</ele>
        <time>2020-02-23T09:33:35Z</time>
      </trkpt>
      <trkpt lat="38.9895080" lon="1.5429240">
        <ele>7.5</ele>
        <time>2020-02-23T09:33:36Z</time>
      </trkpt>
      <trkpt lat="38.9895280" lon="1.5429640">
        <ele>7.5</ele>
        <time>2020-02-23T09:33:37Z</time>
      </trkpt>
      <trkpt lat="38.9895410" lon="1.5430210">
        <ele>7.6</ele>
        <time>2020-02-23T09:33:38Z</time>
      </trkpt>
      <trkpt lat="38.9895590" lon="1.5430710">
        <ele>7.6</ele>
        <time>2020-02-23T09:33:39Z</time>
      </trkpt>
      <trkpt lat="38.9895810" lon="1.5431180">
        <ele>7.6</ele>
        <time>2020-02-23T09:33:40Z</time>
      </trkpt>
      <trkpt lat="38.9896080" lon="1.5431590">
        <ele>7.7</ele>
        <time>2020-02-23T09:33:41Z</time>
      </trkpt>
      <trkpt lat="38.9896270" lon="1.5432010">
        <ele>7.7</ele>
        <time>2020-02-23T09:33:42Z</time>
      </trkpt>
      <trkpt lat="38.9896520" lon="1.5432430">
        <ele>7.7</ele>
        <time>2020-02-23T09:33:43Z</time>
      </trkpt>
      <trkpt lat="38.9896740" lon="1.5432810">
        <ele>7.7</ele>
        <time>2020-02-23T09:33:44Z</time>
      </trkpt>
      <trkpt lat="38.9896950" lon="1.5433190">
        <ele>7.7</ele>
        <time>2020-02-23T09:33:45Z</time>
      </trkpt>
      <trkpt lat="38.9897170" lon="1.5433580">
        <ele>7.7</ele>
        <time>2020-02-23T09:33:46Z</time>
      </trkpt>
      <trkpt lat="38.9897380" lon="1.5434010">
        <ele>7.8</ele>
        <time>2020-02-23T09:33:47Z</time>
      </trkpt>
      <trkpt lat="38.9897640" lon="1.5434390">
        <ele>7.8</ele>
        <time>2020-02-23T09:33:48Z</time>
      </trkpt>
      <trkpt lat="38.9897860" lon="1.5434720">
        <ele>7.8</ele>
        <time>2020-02-23T09:33:49Z</time>
      </trkpt>
      <trkpt lat="38.9898150" lon="1.5435120">
        <ele>7.8</ele>
        <time>2020-02-23T09:33:50Z</time>
      </trkpt>
      <trkpt lat="38.9898410" lon="1.5435450">
        <ele>7.8</ele>
        <time>2020-02-23T09:33:51Z</time>
      </trkpt>
      <trkpt lat="38.9898610" lon="1.5435770">
        <ele>7.8</ele>
        <time>2020-02-23T09:33:52Z</time>
      </trkpt>
      <trkpt lat="38.9898800" lon="1.5436250">
        <ele>7.8</ele>
        <time>2020-02-23T09:33:53Z</time>
      </trkpt>
      <trkpt lat="38.9898860" lon="1.5436430">
        <ele>7.9</ele>
        <time>2020-02-23T09:33:54Z</time>
      </trkpt>
      <trkpt lat="38.9899020" lon="1.5436870">
        <ele>7.9</ele>
        <time>2020-02-23T09:33:55Z</time>
      </trkpt>
      <trkpt lat="38.9899190" lon="1.5437270">
        <ele>7.9</ele>
        <time>2020-02-23T09:33:56Z</time>
      </trkpt>
      <trkpt lat="38.9899370" lon="1.5437770">
        <ele>7.9</ele>
        <time>2020-02-23T09:33:57Z</time>
      </trkpt>
      <trkpt lat="38.9899600" lon="1.5438190">
        <ele>7.9</ele>
        <time>2020-02-23T09:33:58Z</time>
      </trkpt>
      <trkpt lat="38.9899830" lon="1.5438580">
        <ele>7.9</ele>
        <time>2020-02-23T09:33:59Z</time>
      </trkpt>
      <trkpt lat="38.9900070" lon="1.5438990">
        <ele>7.9</ele>
        <time>2020-02-23T09:34:00Z</time>
      </trkpt>
      <trkpt lat="38.9900300" lon="1.5439370">
        <ele>7.9</ele>
        <time>2020-02-23T09:34:01Z</time>
      </trkpt>
      <trkpt lat="38.9900560" lon="1.5439840">
        <ele>8.0</ele>
        <time>2020-02-23T09:34:02Z</time>
      </trkpt>
      <trkpt lat="38.9900770" lon="1.5440220">
        <ele>8.0</ele>
        <time>2020-02-23T09:34:03Z</time>
      </trkpt>
      <trkpt lat="38.9901050" lon="1.5440620">
        <ele>8.0</ele>
        <time>2020-02-23T09:34:04Z</time>
      </trkpt>
      <trkpt lat="38.9901250" lon="1.5441040">
        <ele>8.0</ele>
        <time>2020-02-23T09:34:05Z</time>
      </trkpt>
      <trkpt lat="38.9901480" lon="1.5441540">
        <ele>8.0</ele>
        <time>2020-02-23T09:34:06Z</time>
      </trkpt>
      <trkpt lat="38.9901750" lon="1.5442020">
        <ele>8.0</ele>
        <time>2020-02-23T09:34:07Z</time>
      </trkpt>
      <trkpt lat="38.9901960" lon="1.5442430">
        <ele>8.0</ele>
        <time>2020-02-23T09:34:08Z</time>
      </trkpt>
      <trkpt lat="38.9902200" lon="1.5442780">
        <ele>8.0</ele>
        <time>2020-02-23T09:34:09Z</time>
      </trkpt>
      <trkpt lat="38.9902450" lon="1.5443140">
        <ele>8.1</ele>
        <time>2020-02-23T09:34:10Z</time>
      </trkpt>
      <trkpt lat="38.9902620" lon="1.5443530">
        <ele>8.1</ele>
        <time>2020-02-23T09:34:11Z</time>
      </trkpt>
      <trkpt lat="38.9902770" lon="1.5443950">
        <ele>8.1</ele>
        <time>2020-02-23T09:34:12Z</time>
      </trkpt>
      <trkpt lat="38.9902970" lon="1.5444310">
        <ele>8.1</ele>
        <time>2020-02-23T09:34:13Z</time>
      </trkpt>
      <trkpt lat="38.9903170" lon="1.5444700">
        <ele>8.1</ele>
        <time>2020-02-23T09:34:14Z</time>
      </trkpt>
      <trkpt lat="38.9903390" lon="1.5445110">
        <ele>8.1</ele>
        <time>2020-02-23T09:34:15Z</time>
      </trkpt>
      <trkpt lat="38.9903590" lon="1.5445580">
        <ele>8.1</ele>
        <time>2020-02-23T09:34:16Z</time>
      </trkpt>
      <trkpt lat="38.9903770" lon="1.5445960">
        <ele>8.1</ele>
        <time>2020-02-23T09:34:17Z</time>
      </trkpt>
      <trkpt lat="38.9903960" lon="1.5446310">
        <ele>8.2</ele>
        <time>2020-02-23T09:34:18Z</time>
      </trkpt>
      <trkpt lat="38.9904120" lon="1.5446800">
        <ele>8.2</ele>
        <time>2020-02-23T09:34:19Z</time>
      </trkpt>
      <trkpt lat="38.9904290" lon="1.5447300">
        <ele>8.2</ele>
        <time>2020-02-23T09:34:20Z</time>
      </trkpt>
      <trkpt lat="38.9904540" lon="1.5447820">
        <ele>8.2</ele>
        <time>2020-02-23T09:34:21Z</time>
      </trkpt>
      <trkpt lat="38.9904820" lon="1.5448370">
        <ele>8.2</ele>
        <time>2020-02-23T09:34:22Z</time>
      </trkpt>
      <trkpt lat="38.9905090" lon="1.5448840">
        <ele>8.2</ele>
        <time>2020-02-23T09:34:23Z</time>
      </trkpt>
      <trkpt lat="38.9905390" lon="1.5449180">
        <ele>8.2</ele>
        <time>2020-02-23T09:34:24Z</time>
      </trkpt>
      <trkpt lat="38.9905640" lon="1.5449710">
        <ele>8.2</ele>
        <time>2020-02-23T09:34:25Z</time>
      </trkpt>
      <trkpt lat="38.9905890" lon="1.5450130">
        <ele>8.2</ele>
        <time>2020-02-23T09:34:26Z</time>
      </trkpt>
      <trkpt lat="38.9906100" lon="1.5450540">
        <ele>8.1</ele>
        <time>2020-02-23T09:34:27Z</time>
      </trkpt>
      <trkpt lat="38.9906310" lon="1.5450900">
        <ele>8.1</ele>
        <time>2020-02-23T09:34:28Z</time>
      </trkpt>
      <trkpt lat="38.9906580" lon="1.5451250">
        <ele>8.0</ele>
        <time>2020-02-23T09:34:29Z</time>
      </trkpt>
      <trkpt lat="38.9906920" lon="1.5451690">
        <ele>8.0</ele>
        <time>2020-02-23T09:34:30Z</time>
      </trkpt>
      <trkpt lat="38.9907190" lon="1.5452240">
        <ele>8.0</ele>
        <time>2020-02-23T09:34:31Z</time>
      </trkpt>
      <trkpt lat="38.9907440" lon="1.5452780">
        <ele>8.0</ele>
        <time>2020-02-23T09:34:32Z</time>
      </trkpt>
      <trkpt lat="38.9907740" lon="1.5453190">
        <ele>7.9</ele>
        <time>2020-02-23T09:34:33Z</time>
      </trkpt>
      <trkpt lat="38.9908000" lon="1.5453600">
        <ele>7.9</ele>
        <time>2020-02-23T09:34:34Z</time>
      </trkpt>
      <trkpt lat="38.9908260" lon="1.5454020">
        <ele>7.9</ele>
        <time>2020-02-23T09:34:35Z</time>
      </trkpt>
      <trkpt lat="38.9908590" lon="1.5454580">
        <ele>7.8</ele>
        <time>2020-02-23T09:34:36Z</time>
      </trkpt>
      <trkpt lat="38.9908810" lon="1.5455090">
        <ele>7.8</ele>
        <time>2020-02-23T09:34:37Z</time>
      </trkpt>
      <trkpt lat="38.9909090" lon="1.5455680">
        <ele>7.7</ele>
        <time>2020-02-23T09:34:38Z</time>
      </trkpt>
      <trkpt lat="38.9909310" lon="1.5456080">
        <ele>7.7</ele>
        <time>2020-02-23T09:34:39Z</time>
      </trkpt>
      <trkpt lat="38.9909570" lon="1.5456540">
        <ele>7.7</ele>
        <time>2020-02-23T09:34:40Z</time>
      </trkpt>
      <trkpt lat="38.9909810" lon="1.5456990">
        <ele>7.6</ele>
        <time>2020-02-23T09:34:41Z</time>
      </trkpt>
      <trkpt lat="38.9910060" lon="1.5457490">
        <ele>7.6</ele>
        <time>2020-02-23T09:34:42Z</time>
      </trkpt>
      <trkpt lat="38.9910370" lon="1.5458030">
        <ele>7.5</ele>
        <time>2020-02-23T09:34:43Z</time>
      </trkpt>
      <trkpt lat="38.9910720" lon="1.5458520">
        <ele>7.5</ele>
        <time>2020-02-23T09:34:44Z</time>
      </trkpt>
      <trkpt lat="38.9911060" lon="1.5459010">
        <ele>7.5</ele>
        <time>2020-02-23T09:34:45Z</time>
      </trkpt>
      <trkpt lat="38.9911370" lon="1.5459510">
        <ele>7.5</ele>
        <time>2020-02-23T09:34:46Z</time>
      </trkpt>
      <trkpt lat="38.9911690" lon="1.5460000">
        <ele>7.5</ele>
        <time>2020-02-23T09:34:47Z</time>
      </trkpt>
      <trkpt lat="38.9911950" lon="1.5460560">
        <ele>7.4</ele>
        <time>2020-02-23T09:34:48Z</time>
      </trkpt>
      <trkpt lat="38.9912200" lon="1.5461160">
        <ele>7.4</ele>
        <time>2020-02-23T09:34:49Z</time>
      </trkpt>
      <trkpt lat="38.9912410" lon="1.5461740">
        <ele>7.4</ele>
        <time>2020-02-23T09:34:50Z</time>
      </trkpt>
      <trkpt lat="38.9912670" lon="1.5462320">
        <ele>7.4</ele>
        <time>2020-02-23T09:34:51Z</time>
      </trkpt>
      <trkpt lat="38.9912960" lon="1.5462840">
        <ele>7.3</ele>
        <time>2020-02-23T09:34:52Z</time>
      </trkpt>
      <trkpt lat="38.9913280" lon="1.5463460">
        <ele>7.2</ele>
        <time>2020-02-23T09:34:53Z</time>
      </trkpt>
      <trkpt lat="38.9913610" lon="1.5463980">
        <ele>7.1</ele>
        <time>2020-02-23T09:34:54Z</time>
      </trkpt>
      <trkpt lat="38.9913920" lon="1.5464480">
        <ele>6.9</ele>
        <time>2020-02-23T09:34:55Z</time>
      </trkpt>
      <trkpt lat="38.9914230" lon="1.5464900">
        <ele>6.8</ele>
        <time>2020-02-23T09:34:56Z</time>
      </trkpt>
      <trkpt lat="38.9914520" lon="1.5465420">
        <ele>6.6</ele>
        <time>2020-02-23T09:34:57Z</time>
      </trkpt>
      <trkpt lat="38.9914780" lon="1.5465920">
        <ele>6.4</ele>
        <time>2020-02-23T09:34:58Z</time>
      </trkpt>
      <trkpt lat="38.9915090" lon="1.5466440">
        <ele>6.2</ele>
        <time>2020-02-23T09:34:59Z</time>
      </trkpt>
      <trkpt lat="38.9915420" lon="1.5466970">
        <ele>6.2</ele>
        <time>2020-02-23T09:35:00Z</time>
      </trkpt>
      <trkpt lat="38.9915730" lon="1.5467510">
        <ele>6.1</ele>
        <time>2020-02-23T09:35:01Z</time>
      </trkpt>
      <trkpt lat="38.9916040" lon="1.5468030">
        <ele>6.0</ele>
        <time>2020-02-23T09:35:02Z</time>
      </trkpt>
      <trkpt lat="38.9916310" lon="1.5468500">
        <ele>5.9</ele>
        <time>2020-02-23T09:35:03Z</time>
      </trkpt>
      <trkpt lat="38.9916590" lon="1.5468970">
        <ele>5.9</ele>
        <time>2020-02-23T09:35:04Z</time>
      </trkpt>
      <trkpt lat="38.9916970" lon="1.5469500">
        <ele>5.8</ele>
        <time>2020-02-23T09:35:05Z</time>
      </trkpt>
      <trkpt lat="38.9917290" lon="1.5469980">
        <ele>5.7</ele>
        <time>2020-02-23T09:35:06Z</time>
      </trkpt>
      <trkpt lat="38.9917610" lon="1.5470580">
        <ele>5.6</ele>
        <time>2020-02-23T09:35:07Z</time>
      </trkpt>
      <trkpt lat="38.9917940" lon="1.5471100">
        <ele>5.6</ele>
        <time>2020-02-23T09:35:08Z</time>
      </trkpt>
      <trkpt lat="38.9918190" lon="1.5471660">
        <ele>5.5</ele>
        <time>2020-02-23T09:35:09Z</time>
      </trkpt>
      <trkpt lat="38.9918440" lon="1.5472220">
        <ele>5.5</ele>
        <time>2020-02-23T09:35:10Z</time>
      </trkpt>
      <trkpt lat="38.9918680" lon="1.5472780">
        <ele>5.4</ele>
        <time>2020-02-23T09:35:11Z</time>
      </trkpt>
      <trkpt lat="38.9919050" lon="1.5473360">
        <ele>5.4</ele>
        <time>2020-02-23T09:35:12Z</time>
      </trkpt>
      <trkpt lat="38.9919340" lon="1.5473950">
        <ele>5.3</ele>
        <time>2020-02-23T09:35:13Z</time>
      </trkpt>
      <trkpt lat="38.9919640" lon="1.5474530">
        <ele>5.3</ele>
        <time>2020-02-23T09:35:14Z</time>
      </trkpt>
      <trkpt lat="38.9919920" lon="1.5475090">
        <ele>5.2</ele>
        <time>2020-02-23T09:35:15Z</time>
      </trkpt>
      <trkpt lat="38.9920190" lon="1.5475680">
        <ele>5.2</ele>
        <time>2020-02-23T09:35:16Z</time>
      </trkpt>
      <trkpt lat="38.9920510" lon="1.5476230">
        <ele>5.2</ele>
        <time>2020-02-23T09:35:17Z</time>
      </trkpt>
      <trkpt lat="38.9920830" lon="1.5476730">
        <ele>5.2</ele>
        <time>2020-02-23T09:35:18Z</time>
      </trkpt>
      <trkpt lat="38.9921100" lon="1.5477240">
        <ele>5.1</ele>
        <time>2020-02-23T09:35:19Z</time>
      </trkpt>
      <trkpt lat="38.9921390" lon="1.5477870">
        <ele>5.0</ele>
        <time>2020-02-23T09:35:20Z</time>
      </trkpt>
      <trkpt lat="38.9921660" lon="1.5478420">
        <ele>5.0</ele>
        <time>2020-02-23T09:35:21Z</time>
      </trkpt>
      <trkpt lat="38.9921980" lon="1.5479020">
        <ele>5.0</ele>
        <time>2020-02-23T09:35:22Z</time>
      </trkpt>
      <trkpt lat="38.9922300" lon="1.5479580">
        <ele>4.9</ele>
        <time>2020-02-23T09:35:23Z</time>
      </trkpt>
      <trkpt lat="38.9922600" lon="1.5480130">
        <ele>4.9</ele>
        <time>2020-02-23T09:35:24Z</time>
      </trkpt>
      <trkpt lat="38.9922920" lon="1.5480690">
        <ele>4.9</ele>
        <time>2020-02-23T09:35:25Z</time>
      </trkpt>
      <trkpt lat="38.9923190" lon="1.5481270">
        <ele>4.9</ele>
        <time>2020-02-23T09:35:26Z</time>
      </trkpt>
      <trkpt lat="38.9923460" lon="1.5481840">
        <ele>4.9</ele>
        <time>2020-02-23T09:35:27Z</time>
      </trkpt>
      <trkpt lat="38.9923730" lon="1.5482410">
        <ele>5.0</ele>
        <time>2020-02-23T09:35:28Z</time>
      </trkpt>
      <trkpt lat="38.9924040" lon="1.5482920">
        <ele>5.0</ele>
        <time>2020-02-23T09:35:29Z</time>
      </trkpt>
      <trkpt lat="38.9924340" lon="1.5483380">
        <ele>5.0</ele>
        <time>2020-02-23T09:35:30Z</time>
      </trkpt>
      <trkpt lat="38.9924620" lon="1.5483890">
        <ele>5.0</ele>
        <time>2020-02-23T09:35:31Z</time>
      </trkpt>
      <trkpt lat="38.9924920" lon="1.5484390">
        <ele>5.0</ele>
        <time>2020-02-23T09:35:32Z</time>
      </trkpt>
      <trkpt lat="38.9925200" lon="1.5484860">
        <ele>5.1</ele>
        <time>2020-02-23T09:35:33Z</time>
      </trkpt>
      <trkpt lat="38.9925480" lon="1.5485260">
        <ele>5.1</ele>
        <time>2020-02-23T09:35:34Z</time>
      </trkpt>
      <trkpt lat="38.9925770" lon="1.5485730">
        <ele>5.1</ele>
        <time>2020-02-23T09:35:35Z</time>
      </trkpt>
      <trkpt lat="38.9925980" lon="1.5486180">
        <ele>5.0</ele>
        <time>2020-02-23T09:35:36Z</time>
      </trkpt>
      <trkpt lat="38.9926210" lon="1.5486590">
        <ele>5.0</ele>
        <time>2020-02-23T09:35:37Z</time>
      </trkpt>
      <trkpt lat="38.9926390" lon="1.5487030">
        <ele>5.0</ele>
        <time>2020-02-23T09:35:38Z</time>
      </trkpt>
      <trkpt lat="38.9926640" lon="1.5487440">
        <ele>5.0</ele>
        <time>2020-02-23T09:35:39Z</time>
      </trkpt>
      <trkpt lat="38.9926930" lon="1.5487850">
        <ele>5.0</ele>
        <time>2020-02-23T09:35:40Z</time>
      </trkpt>
      <trkpt lat="38.9927210" lon="1.5488230">
        <ele>4.9</ele>
        <time>2020-02-23T09:35:41Z</time>
      </trkpt>
      <trkpt lat="38.9927470" lon="1.5488700">
        <ele>4.9</ele>
        <time>2020-02-23T09:35:42Z</time>
      </trkpt>
      <trkpt lat="38.9927740" lon="1.5489230">
        <ele>4.9</ele>
        <time>2020-02-23T09:35:43Z</time>
      </trkpt>
      <trkpt lat="38.9927930" lon="1.5489780">
        <ele>4.9</ele>
        <time>2020-02-23T09:35:44Z</time>
      </trkpt>
      <trkpt lat="38.9928130" lon="1.5490250">
        <ele>4.9</ele>
        <time>2020-02-23T09:35:45Z</time>
      </trkpt>
      <trkpt lat="38.9928380" lon="1.5490690">
        <ele>4.8</ele>
        <time>2020-02-23T09:35:46Z</time>
      </trkpt>
      <trkpt lat="38.9928620" lon="1.5491130">
        <ele>4.8</ele>
        <time>2020-02-23T09:35:47Z</time>
      </trkpt>
      <trkpt lat="38.9928840" lon="1.5491580">
        <ele>4.8</ele>
        <time>2020-02-23T09:35:48Z</time>
      </trkpt>
      <trkpt lat="38.9929050" lon="1.5492060">
        <ele>4.8</ele>
        <time>2020-02-23T09:35:49Z</time>
      </trkpt>
      <trkpt lat="38.9929320" lon="1.5492560">
        <ele>4.9</ele>
        <time>2020-02-23T09:35:50Z</time>
      </trkpt>
      <trkpt lat="38.9929540" lon="1.5493040">
        <ele>5.0</ele>
        <time>2020-02-23T09:35:51Z</time>
      </trkpt>
      <trkpt lat="38.9929750" lon="1.5493520">
        <ele>5.1</ele>
        <time>2020-02-23T09:35:52Z</time>
      </trkpt>
      <trkpt lat="38.9929980" lon="1.5493920">
        <ele>5.1</ele>
        <time>2020-02-23T09:35:53Z</time>
      </trkpt>
      <trkpt lat="38.9930240" lon="1.5494380">
        <ele>5.2</ele>
        <time>2020-02-23T09:35:54Z</time>
      </trkpt>
      <trkpt lat="38.9930480" lon="1.5494820">
        <ele>5.3</ele>
        <time>2020-02-23T09:35:55Z</time>
      </trkpt>
      <trkpt lat="38.9930740" lon="1.5495230">
        <ele>5.4</ele>
        <time>2020-02-23T09:35:56Z</time>
      </trkpt>
      <trkpt lat="38.9931010" lon="1.5495710">
        <ele>5.4</ele>
        <time>2020-02-23T09:35:57Z</time>
      </trkpt>
      <trkpt lat="38.9931240" lon="1.5496130">
        <ele>5.5</ele>
        <time>2020-02-23T09:35:58Z</time>
      </trkpt>
      <trkpt lat="38.9931450" lon="1.5496610">
        <ele>5.6</ele>
        <time>2020-02-23T09:35:59Z</time>
      </trkpt>
      <trkpt lat="38.9931720" lon="1.5497040">
        <ele>5.6</ele>
        <time>2020-02-23T09:36:00Z</time>
      </trkpt>
      <trkpt lat="38.9932010" lon="1.5497390">
        <ele>5.7</ele>
        <time>2020-02-23T09:36:01Z</time>
      </trkpt>
      <trkpt lat="38.9932320" lon="1.5497830">
        <ele>5.8</ele>
        <time>2020-02-23T09:36:02Z</time>
      </trkpt>
      <trkpt lat="38.9932630" lon="1.5498330">
        <ele>5.9</ele>
        <time>2020-02-23T09:36:03Z</time>
      </trkpt>
      <trkpt lat="38.9932920" lon="1.5498790">
        <ele>5.9</ele>
        <time>2020-02-23T09:36:04Z</time>
      </trkpt>
      <trkpt lat="38.9933180" lon="1.5499300">
        <ele>6.0</ele>
        <time>2020-02-23T09:36:05Z</time>
      </trkpt>
      <trkpt lat="38.9933480" lon="1.5499730">
        <ele>6.1</ele>
        <time>2020-02-23T09:36:06Z</time>
      </trkpt>
      <trkpt lat="38.9933720" lon="1.5500180">
        <ele>6.2</ele>
        <time>2020-02-23T09:36:07Z</time>
      </trkpt>
      <trkpt lat="38.9934030" lon="1.5500670">
        <ele>6.2</ele>
        <time>2020-02-23T09:36:08Z</time>
      </trkpt>
      <trkpt lat="38.9934310" lon="1.5501170">
        <ele>6.3</ele>
        <time>2020-02-23T09:36:09Z</time>
      </trkpt>
      <trkpt lat="38.9934560" lon="1.5501670">
        <ele>6.4</ele>
        <time>2020-02-23T09:36:10Z</time>
      </trkpt>
      <trkpt lat="38.9934870" lon="1.5502190">
        <ele>6.5</ele>
        <time>2020-02-23T09:36:11Z</time>
      </trkpt>
      <trkpt lat="38.9935160" lon="1.5502700">
        <ele>6.6</ele>
        <time>2020-02-23T09:36:12Z</time>
      </trkpt>
      <trkpt lat="38.9935440" lon="1.5503190">
        <ele>6.7</ele>
        <time>2020-02-23T09:36:13Z</time>
      </trkpt>
      <trkpt lat="38.9935760" lon="1.5503610">
        <ele>6.8</ele>
        <time>2020-02-23T09:36:14Z</time>
      </trkpt>
      <trkpt lat="38.9936050" lon="1.5503970">
        <ele>6.9</ele>
        <time>2020-02-23T09:36:15Z</time>
      </trkpt>
      <trkpt lat="38.9936330" lon="1.5504390">
        <ele>7.0</ele>
        <time>2020-02-23T09:36:16Z</time>
      </trkpt>
      <trkpt lat="38.9936600" lon="1.5504910">
        <ele>7.1</ele>
        <time>2020-02-23T09:36:17Z</time>
      </trkpt>
      <trkpt lat="38.9936900" lon="1.5505390">
        <ele>7.1</ele>
        <time>2020-02-23T09:36:18Z</time>
      </trkpt>
      <trkpt lat="38.9937120" lon="1.5505880">
        <ele>7.2</ele>
        <time>2020-02-23T09:36:19Z</time>
      </trkpt>
      <trkpt lat="38.9937330" lon="1.5506260">
        <ele>7.3</ele>
        <time>2020-02-23T09:36:20Z</time>
      </trkpt>
      <trkpt lat="38.9937560" lon="1.5506720">
        <ele>7.3</ele>
        <time>2020-02-23T09:36:21Z</time>
      </trkpt>
      <trkpt lat="38.9937820" lon="1.5507100">
        <ele>7.4</ele>
        <time>2020-02-23T09:36:22Z</time>
      </trkpt>
      <trkpt lat="38.9938080" lon="1.5507600">
        <ele>7.4</ele>
        <time>2020-02-23T09:36:23Z</time>
      </trkpt>
      <trkpt lat="38.9938360" lon="1.5508070">
        <ele>7.4</ele>
        <time>2020-02-23T09:36:24Z</time>
      </trkpt>
      <trkpt lat="38.9938620" lon="1.5508580">
        <ele>7.5</ele>
        <time>2020-02-23T09:36:25Z</time>
      </trkpt>
      <trkpt lat="38.9938900" lon="1.5509030">
        <ele>7.5</ele>
        <time>2020-02-23T09:36:26Z</time>
      </trkpt>
      <trkpt lat="38.9939150" lon="1.5509500">
        <ele>7.5</ele>
        <time>2020-02-23T09:36:27Z</time>
      </trkpt>
      <trkpt lat="38.9939390" lon="1.5510050">
        <ele>7.5</ele>
        <time>2020-02-23T09:36:28Z</time>
      </trkpt>
      <trkpt lat="38.9939610" lon="1.5510570">
        <ele>7.6</ele>
        <time>2020-02-23T09:36:29Z</time>
      </trkpt>
      <trkpt lat="38.9939910" lon="1.5511050">
        <ele>7.6</ele>
        <time>2020-02-23T09:36:30Z</time>
      </trkpt>
      <trkpt lat="38.9940170" lon="1.5511560">
        <ele>7.7</ele>
        <time>2020-02-23T09:36:31Z</time>
      </trkpt>
      <trkpt lat="38.9940490" lon="1.5512110">
        <ele>7.7</ele>
        <time>2020-02-23T09:36:32Z</time>
      </trkpt>
      <trkpt lat="38.9940780" lon="1.5512590">
        <ele>7.8</ele>
        <time>2020-02-23T09:36:33Z</time>
      </trkpt>
      <trkpt lat="38.9941020" lon="1.5513070">
        <ele>7.8</ele>
        <time>2020-02-23T09:36:34Z</time>
      </trkpt>
      <trkpt lat="38.9941290" lon="1.5513540">
        <ele>7.8</ele>
        <time>2020-02-23T09:36:35Z</time>
      </trkpt>
      <trkpt lat="38.9941490" lon="1.5514030">
        <ele>7.7</ele>
        <time>2020-02-23T09:36:36Z</time>
      </trkpt>
      <trkpt lat="38.9941650" lon="1.5514510">
        <ele>7.7</ele>
        <time>2020-02-23T09:36:37Z</time>
      </trkpt>
      <trkpt lat="38.9941910" lon="1.5514910">
        <ele>7.7</ele>
        <time>2020-02-23T09:36:38Z</time>
      </trkpt>
      <trkpt lat="38.9942090" lon="1.5515440">
        <ele>7.7</ele>
        <time>2020-02-23T09:36:39Z</time>
      </trkpt>
      <trkpt lat="38.9942320" lon="1.5516020">
        <ele>7.6</ele>
        <time>2020-02-23T09:36:40Z</time>
      </trkpt>
      <trkpt lat="38.9942620" lon="1.5516520">
        <ele>7.5</ele>
        <time>2020-02-23T09:36:41Z</time>
      </trkpt>
      <trkpt lat="38.9942920" lon="1.5516900">
        <ele>7.4</ele>
        <time>2020-02-23T09:36:42Z</time>
      </trkpt>
      <trkpt lat="38.9943190" lon="1.5517310">
        <ele>7.3</ele>
        <time>2020-02-23T09:36:43Z</time>
      </trkpt>
      <trkpt lat="38.9943470" lon="1.5517770">
        <ele>7.2</ele>
        <time>2020-02-23T09:36:44Z</time>
      </trkpt>
      <trkpt lat="38.9943740" lon="1.5518240">
        <ele>7.1</ele>
        <time>2020-02-23T09:36:45Z</time>
      </trkpt>
      <trkpt lat="38.9943950" lon="1.5518800">
        <ele>7.0</ele>
        <time>2020-02-23T09:36:46Z</time>
      </trkpt>
      <trkpt lat="38.9944230" lon="1.5519300">
        <ele>6.9</ele>
        <time>2020-02-23T09:36:47Z</time>
      </trkpt>
      <trkpt lat="38.9944530" lon="1.5519850">
        <ele>6.9</ele>
        <time>2020-02-23T09:36:48Z</time>
      </trkpt>
      <trkpt lat="38.9944810" lon="1.5520410">
        <ele>6.9</ele>
        <time>2020-02-23T09:36:49Z</time>
      </trkpt>
      <trkpt lat="38.9945030" lon="1.5520930">
        <ele>6.9</ele>
        <time>2020-02-23T09:36:50Z</time>
      </trkpt>
      <trkpt lat="38.9945310" lon="1.5521390">
        <ele>6.9</ele>
        <time>2020-02-23T09:36:51Z</time>
      </trkpt>
      <trkpt lat="38.9945540" lon="1.5521880">
        <ele>6.9</ele>
        <time>2020-02-23T09:36:52Z</time>
      </trkpt>
      <trkpt lat="38.9945790" lon="1.5522360">
        <ele>6.9</ele>
        <time>2020-02-23T09:36:53Z</time>
      </trkpt>
      <trkpt lat="38.9946080" lon="1.5522840">
        <ele>6.9</ele>
        <time>2020-02-23T09:36:54Z</time>
      </trkpt>
      <trkpt lat="38.9946360" lon="1.5523350">
        <ele>6.9</ele>
        <time>2020-02-23T09:36:55Z</time>
      </trkpt>
      <trkpt lat="38.9946650" lon="1.5523860">
        <ele>7.0</ele>
        <time>2020-02-23T09:36:56Z</time>
      </trkpt>
      <trkpt lat="38.9946960" lon="1.5524310">
        <ele>7.0</ele>
        <time>2020-02-23T09:36:57Z</time>
      </trkpt>
      <trkpt lat="38.9947220" lon="1.5524830">
        <ele>7.1</ele>
        <time>2020-02-23T09:36:58Z</time>
      </trkpt>
      <trkpt lat="38.9947450" lon="1.5525320">
        <ele>7.2</ele>
        <time>2020-02-23T09:36:59Z</time>
      </trkpt>
      <trkpt lat="38.9947670" lon="1.5525870">
        <ele>7.3</ele>
        <time>2020-02-23T09:37:00Z</time>
      </trkpt>
      <trkpt lat="38.9947870" lon="1.5526320">
        <ele>7.4</ele>
        <time>2020-02-23T09:37:01Z</time>
      </trkpt>
      <trkpt lat="38.9948070" lon="1.5526810">
        <ele>7.6</ele>
        <time>2020-02-23T09:37:02Z</time>
      </trkpt>
      <trkpt lat="38.9948290" lon="1.5527230">
        <ele>7.7</ele>
        <time>2020-02-23T09:37:03Z</time>
      </trkpt>
      <trkpt lat="38.9948510" lon="1.5527620">
        <ele>7.8</ele>
        <time>2020-02-23T09:37:04Z</time>
      </trkpt>
      <trkpt lat="38.9948740" lon="1.5528030">
        <ele>7.9</ele>
        <time>2020-02-23T09:37:05Z</time>
      </trkpt>
      <trkpt lat="38.9948970" lon="1.5528490">
        <ele>8.0</ele>
        <time>2020-02-23T09:37:06Z</time>
      </trkpt>
      <trkpt lat="38.9949220" lon="1.5528850">
        <ele>8.2</ele>
        <time>2020-02-23T09:37:07Z</time>
      </trkpt>
      <trkpt lat="38.9949430" lon="1.5529230">
        <ele>8.3</ele>
        <time>2020-02-23T09:37:08Z</time>
      </trkpt>
      <trkpt lat="38.9949590" lon="1.5529690">
        <ele>8.4</ele>
        <time>2020-02-23T09:37:09Z</time>
      </trkpt>
      <trkpt lat="38.9949720" lon="1.5530180">
        <ele>8.5</ele>
        <time>2020-02-23T09:37:10Z</time>
      </trkpt>
      <trkpt lat="38.9949930" lon="1.5530600">
        <ele>8.6</ele>
        <time>2020-02-23T09:37:11Z</time>
      </trkpt>
      <trkpt lat="38.9950180" lon="1.5531090">
        <ele>8.8</ele>
        <time>2020-02-23T09:37:12Z</time>
      </trkpt>
      <trkpt lat="38.9950460" lon="1.5531530">
        <ele>8.8</ele>
        <time>2020-02-23T09:37:13Z</time>
      </trkpt>
      <trkpt lat="38.9950750" lon="1.5531830">
        <ele>8.9</ele>
        <time>2020-02-23T09:37:14Z</time>
      </trkpt>
      <trkpt lat="38.9950950" lon="1.5532280">
        <ele>9.0</ele>
        <time>2020-02-23T09:37:15Z</time>
      </trkpt>
      <trkpt lat="38.9951170" lon="1.5532690">
        <ele>9.0</ele>
        <time>2020-02-23T09:37:16Z</time>
      </trkpt>
      <trkpt lat="38.9951470" lon="1.5533100">
        <ele>9.0</ele>
        <time>2020-02-23T09:37:17Z</time>
      </trkpt>
      <trkpt lat="38.9951770" lon="1.5533570">
        <ele>9.0</ele>
        <time>2020-02-23T09:37:18Z</time>
      </trkpt>
      <trkpt lat="38.9952000" lon="1.5534080">
        <ele>9.0</ele>
        <time>2020-02-23T09:37:19Z</time>
      </trkpt>
      <trkpt lat="38.9952270" lon="1.5534580">
        <ele>9.0</ele>
        <time>2020-02-23T09:37:20Z</time>
      </trkpt>
      <trkpt lat="38.9952570" lon="1.5535070">
        <ele>9.0</ele>
        <time>2020-02-23T09:37:21Z</time>
      </trkpt>
      <trkpt lat="38.9952880" lon="1.5535620">
        <ele>9.0</ele>
        <time>2020-02-23T09:37:22Z</time>
      </trkpt>
      <trkpt lat="38.9953130" lon="1.5536130">
        <ele>8.9</ele>
        <time>2020-02-23T09:37:23Z</time>
      </trkpt>
      <trkpt lat="38.9953410" lon="1.5536630">
        <ele>8.8</ele>
        <time>2020-02-23T09:37:24Z</time>
      </trkpt>
      <trkpt lat="38.9953680" lon="1.5537110">
        <ele>8.7</ele>
        <time>2020-02-23T09:37:25Z</time>
      </trkpt>
      <trkpt lat="38.9953960" lon="1.5537650">
        <ele>8.6</ele>
        <time>2020-02-23T09:37:26Z</time>
      </trkpt>
      <trkpt lat="38.9954220" lon="1.5538230">
        <ele>8.4</ele>
        <time>2020-02-23T09:37:27Z</time>
      </trkpt>
      <trkpt lat="38.9954510" lon="1.5538780">
        <ele>8.3</ele>
        <time>2020-02-23T09:37:28Z</time>
      </trkpt>
      <trkpt lat="38.9954780" lon="1.5539320">
        <ele>8.3</ele>
        <time>2020-02-23T09:37:29Z</time>
      </trkpt>
      <trkpt lat="38.9955050" lon="1.5539840">
        <ele>8.2</ele>
        <time>2020-02-23T09:37:30Z</time>
      </trkpt>
      <trkpt lat="38.9955300" lon="1.5540370">
        <ele>8.2</ele>
        <time>2020-02-23T09:37:31Z</time>
      </trkpt>
      <trkpt lat="38.9955600" lon="1.5540810">
        <ele>8.2</ele>
        <time>2020-02-23T09:37:32Z</time>
      </trkpt>
      <trkpt lat="38.9955890" lon="1.5541210">
        <ele>8.2</ele>
        <time>2020-02-23T09:37:33Z</time>
      </trkpt>
      <trkpt lat="38.9956140" lon="1.5541700">
        <ele>8.2</ele>
        <time>2020-02-23T09:37:34Z</time>
      </trkpt>
      <trkpt lat="38.9956400" lon="1.5542180">
        <ele>8.4</ele>
        <time>2020-02-23T09:37:35Z</time>
      </trkpt>
      <trkpt lat="38.9956690" lon="1.5542620">
        <ele>8.6</ele>
        <time>2020-02-23T09:37:36Z</time>
      </trkpt>
      <trkpt lat="38.9956990" lon="1.5543040">
        <ele>8.7</ele>
        <time>2020-02-23T09:37:37Z</time>
      </trkpt>
      <trkpt lat="38.9957280" lon="1.5543430">
        <ele>8.8</ele>
        <time>2020-02-23T09:37:38Z</time>
      </trkpt>
      <trkpt lat="38.9957490" lon="1.5543850">
        <ele>8.9</ele>
        <time>2020-02-23T09:37:39Z</time>
      </trkpt>
      <trkpt lat="38.9957700" lon="1.5544290">
        <ele>9.0</ele>
        <time>2020-02-23T09:37:40Z</time>
      </trkpt>
      <trkpt lat="38.9957940" lon="1.5544800">
        <ele>9.1</ele>
        <time>2020-02-23T09:37:41Z</time>
      </trkpt>
      <trkpt lat="38.9958180" lon="1.5545340">
        <ele>9.3</ele>
        <time>2020-02-23T09:37:42Z</time>
      </trkpt>
      <trkpt lat="38.9958440" lon="1.5545870">
        <ele>9.4</ele>
        <time>2020-02-23T09:37:43Z</time>
      </trkpt>
      <trkpt lat="38.9958680" lon="1.5546380">
        <ele>9.5</ele>
        <time>2020-02-23T09:37:44Z</time>
      </trkpt>
      <trkpt lat="38.9958880" lon="1.5546940">
        <ele>9.6</ele>
        <time>2020-02-23T09:37:45Z</time>
      </trkpt>
      <trkpt lat="38.9959080" lon="1.5547520">
        <ele>9.7</ele>
        <time>2020-02-23T09:37:46Z</time>
      </trkpt>
      <trkpt lat="38.9959290" lon="1.5547990">
        <ele>9.7</ele>
        <time>2020-02-23T09:37:47Z</time>
      </trkpt>
      <trkpt lat="38.9959560" lon="1.5548490">
        <ele>9.8</ele>
        <time>2020-02-23T09:37:48Z</time>
      </trkpt>
      <trkpt lat="38.9959820" lon="1.5549030">
        <ele>10.1</ele>
        <time>2020-02-23T09:37:49Z</time>
      </trkpt>
      <trkpt lat="38.9960130" lon="1.5549450">
        <ele>10.3</ele>
        <time>2020-02-23T09:37:50Z</time>
      </trkpt>
      <trkpt lat="38.9960450" lon="1.5549890">
        <ele>10.5</ele>
        <time>2020-02-23T09:37:51Z</time>
      </trkpt>
      <trkpt lat="38.9960760" lon="1.5550280">
        <ele>10.7</ele>
        <time>2020-02-23T09:37:52Z</time>
      </trkpt>
      <trkpt lat="38.9961040" lon="1.5550690">
        <ele>10.8</ele>
        <time>2020-02-23T09:37:53Z</time>
      </trkpt>
      <trkpt lat="38.9961300" lon="1.5551160">
        <ele>10.9</ele>
        <time>2020-02-23T09:37:54Z</time>
      </trkpt>
      <trkpt lat="38.9961510" lon="1.5551660">
        <ele>11.0</ele>
        <time>2020-02-23T09:37:55Z</time>
      </trkpt>
      <trkpt lat="38.9961770" lon="1.5552060">
        <ele>11.0</ele>
        <time>2020-02-23T09:37:56Z</time>
      </trkpt>
      <trkpt lat="38.9961990" lon="1.5552460">
        <ele>11.1</ele>
        <time>2020-02-23T09:37:57Z</time>
      </trkpt>
      <trkpt lat="38.9962210" lon="1.5552930">
        <ele>11.2</ele>
        <time>2020-02-23T09:37:58Z</time>
      </trkpt>
      <trkpt lat="38.9962430" lon="1.5553360">
        <ele>11.2</ele>
        <time>2020-02-23T09:37:59Z</time>
      </trkpt>
      <trkpt lat="38.9962600" lon="1.5553840">
        <ele>11.3</ele>
        <time>2020-02-23T09:38:00Z</time>
      </trkpt>
      <trkpt lat="38.9962790" lon="1.5554290">
        <ele>11.3</ele>
        <time>2020-02-23T09:38:01Z</time>
      </trkpt>
      <trkpt lat="38.9963000" lon="1.5554720">
        <ele>11.4</ele>
        <time>2020-02-23T09:38:02Z</time>
      </trkpt>
      <trkpt lat="38.9963230" lon="1.5555190">
        <ele>11.4</ele>
        <time>2020-02-23T09:38:03Z</time>
      </trkpt>
      <trkpt lat="38.9963430" lon="1.5555790">
        <ele>11.5</ele>
        <time>2020-02-23T09:38:04Z</time>
      </trkpt>
      <trkpt lat="38.9963650" lon="1.5556290">
        <ele>11.6</ele>
        <time>2020-02-23T09:38:05Z</time>
      </trkpt>
      <trkpt lat="38.9963840" lon="1.5556760">
        <ele>11.6</ele>
        <time>2020-02-23T09:38:06Z</time>
      </trkpt>
      <trkpt lat="38.9964090" lon="1.5557130">
        <ele>11.7</ele>
        <time>2020-02-23T09:38:07Z</time>
      </trkpt>
      <trkpt lat="38.9964360" lon="1.5557590">
        <ele>11.8</ele>
        <time>2020-02-23T09:38:08Z</time>
      </trkpt>
      <trkpt lat="38.9964600" lon="1.5558020">
        <ele>11.9</ele>
        <time>2020-02-23T09:38:09Z</time>
      </trkpt>
      <trkpt lat="38.9964830" lon="1.5558480">
        <ele>12.0</ele>
        <time>2020-02-23T09:38:10Z</time>
      </trkpt>
      <trkpt lat="38.9965110" lon="1.5558940">
        <ele>12.1</ele>
        <time>2020-02-23T09:38:11Z</time>
      </trkpt>
      <trkpt lat="38.9965370" lon="1.5559370">
        <ele>12.2</ele>
        <time>2020-02-23T09:38:12Z</time>
      </trkpt>
      <trkpt lat="38.9965600" lon="1.5559680">
        <ele>12.2</ele>
        <time>2020-02-23T09:38:13Z</time>
      </trkpt>
      <trkpt lat="38.9965830" lon="1.5560190">
        <ele>12.4</ele>
        <time>2020-02-23T09:38:14Z</time>
      </trkpt>
      <trkpt lat="38.9966040" lon="1.5560640">
        <ele>12.5</ele>
        <time>2020-02-23T09:38:15Z</time>
      </trkpt>
      <trkpt lat="38.9966230" lon="1.5561120">
        <ele>12.6</ele>
        <time>2020-02-23T09:38:16Z</time>
      </trkpt>
      <trkpt lat="38.9966470" lon="1.5561600">
        <ele>12.7</ele>
        <time>2020-02-23T09:38:17Z</time>
      </trkpt>
      <trkpt lat="38.9966720" lon="1.5562140">
        <ele>12.9</ele>
        <time>2020-02-23T09:38:18Z</time>
      </trkpt>
      <trkpt lat="38.9966960" lon="1.5562670">
        <ele>13.0</ele>
        <time>2020-02-23T09:38:19Z</time>
      </trkpt>
      <trkpt lat="38.9967220" lon="1.5563170">
        <ele>13.1</ele>
        <time>2020-02-23T09:38:20Z</time>
      </trkpt>
      <trkpt lat="38.9967520" lon="1.5563670">
        <ele>13.3</ele>
        <time>2020-02-23T09:38:21Z</time>
      </trkpt>
      <trkpt lat="38.9967820" lon="1.5564140">
        <ele>13.4</ele>
        <time>2020-02-23T09:38:22Z</time>
      </trkpt>
      <trkpt lat="38.9968030" lon="1.5564670">
        <ele>13.6</ele>
        <time>2020-02-23T09:38:23Z</time>
      </trkpt>
      <trkpt lat="38.9968230" lon="1.5565170">
        <ele>13.8</ele>
        <time>2020-02-23T09:38:24Z</time>
      </trkpt>
      <trkpt lat="38.9968460" lon="1.5565660">
        <ele>14.0</ele>
        <time>2020-02-23T09:38:25Z</time>
      </trkpt>
      <trkpt lat="38.9968630" lon="1.5566140">
        <ele>14.2</ele>
        <time>2020-02-23T09:38:26Z</time>
      </trkpt>
      <trkpt lat="38.9968840" lon="1.5566550">
        <ele>14.3</ele>
        <time>2020-02-23T09:38:27Z</time>
      </trkpt>
      <trkpt lat="38.9969180" lon="1.5567010">
        <ele>14.6</ele>
        <time>2020-02-23T09:38:28Z</time>
      </trkpt>
      <trkpt lat="38.9969480" lon="1.5567550">
        <ele>14.9</ele>
        <time>2020-02-23T09:38:29Z</time>
      </trkpt>
      <trkpt lat="38.9969640" lon="1.5568060">
        <ele>15.2</ele>
        <time>2020-02-23T09:38:30Z</time>
      </trkpt>
      <trkpt lat="38.9969860" lon="1.5568500">
        <ele>15.6</ele>
        <time>2020-02-23T09:38:31Z</time>
      </trkpt>
      <trkpt lat="38.9970120" lon="1.5568970">
        <ele>16.1</ele>
        <time>2020-02-23T09:38:32Z</time>
      </trkpt>
      <trkpt lat="38.9970490" lon="1.5569450">
        <ele>16.3</ele>
        <time>2020-02-23T09:38:33Z</time>
      </trkpt>
      <trkpt lat="38.9970740" lon="1.5569890">
        <ele>16.3</ele>
        <time>2020-02-23T09:38:34Z</time>
      </trkpt>
      <trkpt lat="38.9970980" lon="1.5570310">
        <ele>16.3</ele>
        <time>2020-02-23T09:38:35Z</time>
      </trkpt>
      <trkpt lat="38.9971150" lon="1.5570820">
        <ele>16.3</ele>
        <time>2020-02-23T09:38:36Z</time>
      </trkpt>
      <trkpt lat="38.9971350" lon="1.5571220">
        <ele>16.3</ele>
        <time>2020-02-23T09:38:37Z</time>
      </trkpt>
      <trkpt lat="38.9971560" lon="1.5571530">
        <ele>16.3</ele>
        <time>2020-02-23T09:38:38Z</time>
      </trkpt>
      <trkpt lat="38.9971700" lon="1.5571850">
        <ele>16.3</ele>
        <time>2020-02-23T09:38:39Z</time>
      </trkpt>
      <trkpt lat="38.9971870" lon="1.5572050">
        <ele>16.3</ele>
        <time>2020-02-23T09:38:40Z</time>
      </trkpt>
      <trkpt lat="38.9971910" lon="1.5572230">
        <ele>16.3</ele>
        <time>2020-02-23T09:38:41Z</time>
      </trkpt>
      <trkpt lat="38.9972150" lon="1.5572580">
        <ele>16.3</ele>
        <time>2020-02-23T09:38:42Z</time>
      </trkpt>
      <trkpt lat="38.9972230" lon="1.5572640">
        <ele>16.3</ele>
        <time>2020-02-23T09:38:43Z</time>
      </trkpt>
      <trkpt lat="38.9972360" lon="1.5572720">
        <ele>16.3</ele>
        <time>2020-02-23T09:38:44Z</time>
      </trkpt>
      <trkpt lat="38.9972470" lon="1.5572770">
        <ele>16.3</ele>
        <time>2020-02-23T09:38:45Z</time>
      </trkpt>
      <trkpt lat="38.9972520" lon="1.5572720">
        <ele>16.3</ele>
        <time>2020-02-23T09:38:46Z</time>
      </trkpt>
      <trkpt lat="38.9972620" lon="1.5572830">
        <ele>16.3</ele>
        <time>2020-02-23T09:38:47Z</time>
      </trkpt>
      <trkpt lat="38.9972670" lon="1.5572950">
        <ele>16.3</ele>
        <time>2020-02-23T09:38:48Z</time>
      </trkpt>
      <trkpt lat="38.9972720" lon="1.5573070">
        <ele>16.3</ele>
        <time>2020-02-23T09:38:49Z</time>
      </trkpt>
      <trkpt lat="38.9972770" lon="1.5573180">
        <ele>16.3</ele>
        <time>2020-02-23T09:38:50Z</time>
      </trkpt>
      <trkpt lat="38.9972810" lon="1.5573300">
        <ele>16.4</ele>
        <time>2020-02-23T09:38:51Z</time>
      </trkpt>
      <trkpt lat="38.9972860" lon="1.5573420">
        <ele>16.4</ele>
        <time>2020-02-23T09:38:52Z</time>
      </trkpt>
      <trkpt lat="38.9972910" lon="1.5573540">
        <ele>16.4</ele>
        <time>2020-02-23T09:38:57Z</time>
      </trkpt>
      <trkpt lat="38.9972960" lon="1.5573660">
        <ele>16.4</ele>
        <time>2020-02-23T09:38:58Z</time>
      </trkpt>
      <trkpt lat="38.9973140" lon="1.5574040">
        <ele>16.4</ele>
        <time>2020-02-23T09:38:59Z</time>
      </trkpt>
      <trkpt lat="38.9973310" lon="1.5574380">
        <ele>16.4</ele>
        <time>2020-02-23T09:39:00Z</time>
      </trkpt>
      <trkpt lat="38.9973430" lon="1.5574700">
        <ele>16.4</ele>
        <time>2020-02-23T09:39:01Z</time>
      </trkpt>
      <trkpt lat="38.9973650" lon="1.5575220">
        <ele>16.4</ele>
        <time>2020-02-23T09:39:02Z</time>
      </trkpt>
      <trkpt lat="38.9973760" lon="1.5575450">
        <ele>16.4</ele>
        <time>2020-02-23T09:39:03Z</time>
      </trkpt>
      <trkpt lat="38.9973980" lon="1.5575820">
        <ele>16.4</ele>
        <time>2020-02-23T09:39:04Z</time>
      </trkpt>
      <trkpt lat="38.9974220" lon="1.5576270">
        <ele>16.4</ele>
        <time>2020-02-23T09:39:05Z</time>
      </trkpt>
      <trkpt lat="38.9974370" lon="1.5576680">
        <ele>16.4</ele>
        <time>2020-02-23T09:39:06Z</time>
      </trkpt>
      <trkpt lat="38.9974560" lon="1.5577080">
        <ele>16.4</ele>
        <time>2020-02-23T09:39:07Z</time>
      </trkpt>
      <trkpt lat="38.9974810" lon="1.5577420">
        <ele>16.5</ele>
        <time>2020-02-23T09:39:08Z</time>
      </trkpt>
      <trkpt lat="38.9975060" lon="1.5577760">
        <ele>16.5</ele>
        <time>2020-02-23T09:39:09Z</time>
      </trkpt>
      <trkpt lat="38.9975280" lon="1.5578100">
        <ele>16.5</ele>
        <time>2020-02-23T09:39:10Z</time>
      </trkpt>
      <trkpt lat="38.9975380" lon="1.5578550">
        <ele>16.6</ele>
        <time>2020-02-23T09:39:11Z</time>
      </trkpt>
      <trkpt lat="38.9975570" lon="1.5578940">
        <ele>16.6</ele>
        <time>2020-02-23T09:39:12Z</time>
      </trkpt>
      <trkpt lat="38.9975770" lon="1.5579330">
        <ele>16.7</ele>
        <time>2020-02-23T09:39:13Z</time>
      </trkpt>
      <trkpt lat="38.9976030" lon="1.5579790">
        <ele>16.9</ele>
        <time>2020-02-23T09:39:14Z</time>
      </trkpt>
      <trkpt lat="38.9976270" lon="1.5580210">
        <ele>17.0</ele>
        <time>2020-02-23T09:39:15Z</time>
      </trkpt>
      <trkpt lat="38.9976410" lon="1.5580600">
        <ele>17.2</ele>
        <time>2020-02-23T09:39:16Z</time>
      </trkpt>
      <trkpt lat="38.9976610" lon="1.5581040">
        <ele>17.4</ele>
        <time>2020-02-23T09:39:17Z</time>
      </trkpt>
      <trkpt lat="38.9976830" lon="1.5581430">
        <ele>17.6</ele>
        <time>2020-02-23T09:39:18Z</time>
      </trkpt>
      <trkpt lat="38.9977000" lon="1.5581810">
        <ele>17.8</ele>
        <time>2020-02-23T09:39:19Z</time>
      </trkpt>
      <trkpt lat="38.9977170" lon="1.5582280">
        <ele>17.9</ele>
        <time>2020-02-23T09:39:20Z</time>
      </trkpt>
      <trkpt lat="38.9977410" lon="1.5582750">
        <ele>18.1</ele>
        <time>2020-02-23T09:39:21Z</time>
      </trkpt>
      <trkpt lat="38.9977660" lon="1.5583250">
        <ele>18.3</ele>
        <time>2020-02-23T09:39:22Z</time>
      </trkpt>
      <trkpt lat="38.9977860" lon="1.5583690">
        <ele>18.4</ele>
        <time>2020-02-23T09:39:23Z</time>
      </trkpt>
      <trkpt lat="38.9978100" lon="1.5584010">
        <ele>18.4</ele>
        <time>2020-02-23T09:39:24Z</time>
      </trkpt>
      <trkpt lat="38.9978320" lon="1.5584260">
        <ele>18.5</ele>
        <time>2020-02-23T09:39:25Z</time>
      </trkpt>
      <trkpt lat="38.9978550" lon="1.5584650">
        <ele>18.5</ele>
        <time>2020-02-23T09:39:26Z</time>
      </trkpt>
      <trkpt lat="38.9978770" lon="1.5585070">
        <ele>18.5</ele>
        <time>2020-02-23T09:39:27Z</time>
      </trkpt>
      <trkpt lat="38.9978990" lon="1.5585530">
        <ele>18.6</ele>
        <time>2020-02-23T09:39:28Z</time>
      </trkpt>
      <trkpt lat="38.9979180" lon="1.5585910">
        <ele>18.6</ele>
        <time>2020-02-23T09:39:29Z</time>
      </trkpt>
      <trkpt lat="38.9979340" lon="1.5586260">
        <ele>18.6</ele>
        <time>2020-02-23T09:39:30Z</time>
      </trkpt>
      <trkpt lat="38.9979500" lon="1.5586610">
        <ele>18.6</ele>
        <time>2020-02-23T09:39:31Z</time>
      </trkpt>
      <trkpt lat="38.9979720" lon="1.5586950">
        <ele>18.6</ele>
        <time>2020-02-23T09:39:32Z</time>
      </trkpt>
      <trkpt lat="38.9979970" lon="1.5587390">
        <ele>18.6</ele>
        <time>2020-02-23T09:39:33Z</time>
      </trkpt>
      <trkpt lat="38.9980170" lon="1.5587720">
        <ele>18.6</ele>
        <time>2020-02-23T09:39:34Z</time>
      </trkpt>
      <trkpt lat="38.9980400" lon="1.5588050">
        <ele>18.6</ele>
        <time>2020-02-23T09:39:35Z</time>
      </trkpt>
      <trkpt lat="38.9980620" lon="1.5588500">
        <ele>18.6</ele>
        <time>2020-02-23T09:39:36Z</time>
      </trkpt>
      <trkpt lat="38.9980690" lon="1.5588700">
        <ele>18.7</ele>
        <time>2020-02-23T09:39:37Z</time>
      </trkpt>
      <trkpt lat="38.9980910" lon="1.5589080">
        <ele>18.7</ele>
        <time>2020-02-23T09:39:38Z</time>
      </trkpt>
      <trkpt lat="38.9981140" lon="1.5589590">
        <ele>18.7</ele>
        <time>2020-02-23T09:39:39Z</time>
      </trkpt>
      <trkpt lat="38.9981330" lon="1.5590040">
        <ele>18.7</ele>
        <time>2020-02-23T09:39:40Z</time>
      </trkpt>
      <trkpt lat="38.9981520" lon="1.5590530">
        <ele>18.7</ele>
        <time>2020-02-23T09:39:41Z</time>
      </trkpt>
      <trkpt lat="38.9981720" lon="1.5590890">
        <ele>18.7</ele>
        <time>2020-02-23T09:39:42Z</time>
      </trkpt>
      <trkpt lat="38.9981880" lon="1.5591450">
        <ele>18.8</ele>
        <time>2020-02-23T09:39:43Z</time>
      </trkpt>
      <trkpt lat="38.9982090" lon="1.5591900">
        <ele>18.8</ele>
        <time>2020-02-23T09:39:44Z</time>
      </trkpt>
      <trkpt lat="38.9982370" lon="1.5592340">
        <ele>18.9</ele>
        <time>2020-02-23T09:39:45Z</time>
      </trkpt>
      <trkpt lat="38.9982600" lon="1.5592690">
        <ele>18.9</ele>
        <time>2020-02-23T09:39:46Z</time>
      </trkpt>
      <trkpt lat="38.9982870" lon="1.5592970">
        <ele>18.9</ele>
        <time>2020-02-23T09:39:47Z</time>
      </trkpt>
      <trkpt lat="38.9983120" lon="1.5593430">
        <ele>19.0</ele>
        <time>2020-02-23T09:39:48Z</time>
      </trkpt>
      <trkpt lat="38.9983250" lon="1.5593990">
        <ele>19.0</ele>
        <time>2020-02-23T09:39:49Z</time>
      </trkpt>
      <trkpt lat="38.9983350" lon="1.5594450">
        <ele>19.3</ele>
        <time>2020-02-23T09:39:50Z</time>
      </trkpt>
      <trkpt lat="38.9983480" lon="1.5594800">
        <ele>19.4</ele>
        <time>2020-02-23T09:39:51Z</time>
      </trkpt>
      <trkpt lat="38.9983300" lon="1.5595150">
        <ele>19.5</ele>
        <time>2020-02-23T09:39:52Z</time>
      </trkpt>
      <trkpt lat="38.9983230" lon="1.5595220">
        <ele>19.5</ele>
        <time>2020-02-23T09:39:53Z</time>
      </trkpt>
      <trkpt lat="38.9982970" lon="1.5595460">
        <ele>19.6</ele>
        <time>2020-02-23T09:39:54Z</time>
      </trkpt>
      <trkpt lat="38.9982640" lon="1.5595720">
        <ele>19.7</ele>
        <time>2020-02-23T09:39:55Z</time>
      </trkpt>
      <trkpt lat="38.9982390" lon="1.5595930">
        <ele>19.8</ele>
        <time>2020-02-23T09:39:56Z</time>
      </trkpt>
      <trkpt lat="38.9982000" lon="1.5596210">
        <ele>19.9</ele>
        <time>2020-02-23T09:39:57Z</time>
      </trkpt>
      <trkpt lat="38.9981600" lon="1.5596500">
        <ele>19.9</ele>
        <time>2020-02-23T09:39:58Z</time>
      </trkpt>
      <trkpt lat="38.9981260" lon="1.5596790">
        <ele>20.0</ele>
        <time>2020-02-23T09:39:59Z</time>
      </trkpt>
      <trkpt lat="38.9980840" lon="1.5597200">
        <ele>20.0</ele>
        <time>2020-02-23T09:40:00Z</time>
      </trkpt>
      <trkpt lat="38.9980430" lon="1.5597630">
        <ele>20.0</ele>
        <time>2020-02-23T09:40:01Z</time>
      </trkpt>
      <trkpt lat="38.9979980" lon="1.5597990">
        <ele>19.9</ele>
        <time>2020-02-23T09:40:02Z</time>
      </trkpt>
      <trkpt lat="38.9979550" lon="1.5598350">
        <ele>19.9</ele>
        <time>2020-02-23T09:40:03Z</time>
      </trkpt>
      <trkpt lat="38.9979130" lon="1.5598720">
        <ele>19.9</ele>
        <time>2020-02-23T09:40:04Z</time>
      </trkpt>
      <trkpt lat="38.9978570" lon="1.5599090">
        <ele>19.8</ele>
        <time>2020-02-23T09:40:05Z</time>
      </trkpt>
      <trkpt lat="38.9978080" lon="1.5599480">
        <ele>19.6</ele>
        <time>2020-02-23T09:40:06Z</time>
      </trkpt>
      <trkpt lat="38.9977630" lon="1.5599780">
        <ele>19.5</ele>
        <time>2020-02-23T09:40:07Z</time>
      </trkpt>
      <trkpt lat="38.9977190" lon="1.5600130">
        <ele>19.3</ele>
        <time>2020-02-23T09:40:08Z</time>
      </trkpt>
      <trkpt lat="38.9976850" lon="1.5600430">
        <ele>19.1</ele>
        <time>2020-02-23T09:40:09Z</time>
      </trkpt>
      <trkpt lat="38.9976360" lon="1.5600830">
        <ele>18.8</ele>
        <time>2020-02-23T09:40:10Z</time>
      </trkpt>
      <trkpt lat="38.9975910" lon="1.5601160">
        <ele>18.6</ele>
        <time>2020-02-23T09:40:11Z</time>
      </trkpt>
      <trkpt lat="38.9975490" lon="1.5601560">
        <ele>18.4</ele>
        <time>2020-02-23T09:40:12Z</time>
      </trkpt>
      <trkpt lat="38.9975040" lon="1.5601950">
        <ele>18.2</ele>
        <time>2020-02-23T09:40:13Z</time>
      </trkpt>
      <trkpt lat="38.9974520" lon="1.5602330">
        <ele>18.0</ele>
        <time>2020-02-23T09:40:14Z</time>
      </trkpt>
      <trkpt lat="38.9973980" lon="1.5602720">
        <ele>17.8</ele>
        <time>2020-02-23T09:40:15Z</time>
      </trkpt>
      <trkpt lat="38.9973510" lon="1.5603150">
        <ele>17.7</ele>
        <time>2020-02-23T09:40:16Z</time>
      </trkpt>
      <trkpt lat="38.9973110" lon="1.5603540">
        <ele>17.5</ele>
        <time>2020-02-23T09:40:17Z</time>
      </trkpt>
      <trkpt lat="38.9972670" lon="1.5603890">
        <ele>17.3</ele>
        <time>2020-02-23T09:40:18Z</time>
      </trkpt>
      <trkpt lat="38.9972250" lon="1.5604180">
        <ele>17.2</ele>
        <time>2020-02-23T09:40:19Z</time>
      </trkpt>
      <trkpt lat="38.9971760" lon="1.5604530">
        <ele>16.9</ele>
        <time>2020-02-23T09:40:20Z</time>
      </trkpt>
      <trkpt lat="38.9971270" lon="1.5604910">
        <ele>16.6</ele>
        <time>2020-02-23T09:40:21Z</time>
      </trkpt>
      <trkpt lat="38.9970720" lon="1.5605240">
        <ele>16.3</ele>
        <time>2020-02-23T09:40:22Z</time>
      </trkpt>
      <trkpt lat="38.9970220" lon="1.5605630">
        <ele>16.0</ele>
        <time>2020-02-23T09:40:23Z</time>
      </trkpt>
      <trkpt lat="38.9969670" lon="1.5605940">
        <ele>15.7</ele>
        <time>2020-02-23T09:40:24Z</time>
      </trkpt>
      <trkpt lat="38.9969220" lon="1.5606300">
        <ele>15.5</ele>
        <time>2020-02-23T09:40:25Z</time>
      </trkpt>
      <trkpt lat="38.9968650" lon="1.5606750">
        <ele>15.2</ele>
        <time>2020-02-23T09:40:26Z</time>
      </trkpt>
      <trkpt lat="38.9968050" lon="1.5607270">
        <ele>15.0</ele>
        <time>2020-02-23T09:40:27Z</time>
      </trkpt>
      <trkpt lat="38.9967440" lon="1.5607770">
        <ele>14.8</ele>
        <time>2020-02-23T09:40:28Z</time>
      </trkpt>
      <trkpt lat="38.9966890" lon="1.5608290">
        <ele>14.6</ele>
        <time>2020-02-23T09:40:29Z</time>
      </trkpt>
      <trkpt lat="38.9966270" lon="1.5608760">
        <ele>14.4</ele>
        <time>2020-02-23T09:40:30Z</time>
      </trkpt>
      <trkpt lat="38.9965710" lon="1.5609270">
        <ele>14.2</ele>
        <time>2020-02-23T09:40:31Z</time>
      </trkpt>
      <trkpt lat="38.9965210" lon="1.5609830">
        <ele>13.9</ele>
        <time>2020-02-23T09:40:32Z</time>
      </trkpt>
      <trkpt lat="38.9964690" lon="1.5610340">
        <ele>13.6</ele>
        <time>2020-02-23T09:40:33Z</time>
      </trkpt>
      <trkpt lat="38.9964210" lon="1.5610860">
        <ele>13.2</ele>
        <time>2020-02-23T09:40:34Z</time>
      </trkpt>
      <trkpt lat="38.9963750" lon="1.5611380">
        <ele>12.8</ele>
        <time>2020-02-23T09:40:35Z</time>
      </trkpt>
      <trkpt lat="38.9963280" lon="1.5611910">
        <ele>12.6</ele>
        <time>2020-02-23T09:40:36Z</time>
      </trkpt>
      <trkpt lat="38.9962820" lon="1.5612420">
        <ele>12.6</ele>
        <time>2020-02-23T09:40:37Z</time>
      </trkpt>
      <trkpt lat="38.9962360" lon="1.5612910">
        <ele>12.6</ele>
        <time>2020-02-23T09:40:38Z</time>
      </trkpt>
      <trkpt lat="38.9961890" lon="1.5613460">
        <ele>12.5</ele>
        <time>2020-02-23T09:40:39Z</time>
      </trkpt>
      <trkpt lat="38.9961400" lon="1.5613910">
        <ele>12.4</ele>
        <time>2020-02-23T09:40:40Z</time>
      </trkpt>
      <trkpt lat="38.9960950" lon="1.5614310">
        <ele>12.2</ele>
        <time>2020-02-23T09:40:41Z</time>
      </trkpt>
      <trkpt lat="38.9960440" lon="1.5614760">
        <ele>12.0</ele>
        <time>2020-02-23T09:40:42Z</time>
      </trkpt>
      <trkpt lat="38.9959980" lon="1.5615190">
        <ele>11.9</ele>
        <time>2020-02-23T09:40:43Z</time>
      </trkpt>
      <trkpt lat="38.9959450" lon="1.5615590">
        <ele>11.7</ele>
        <time>2020-02-23T09:40:44Z</time>
      </trkpt>
      <trkpt lat="38.9958890" lon="1.5616020">
        <ele>11.5</ele>
        <time>2020-02-23T09:40:45Z</time>
      </trkpt>
      <trkpt lat="38.9958300" lon="1.5616540">
        <ele>11.3</ele>
        <time>2020-02-23T09:40:46Z</time>
      </trkpt>
      <trkpt lat="38.9957840" lon="1.5616990">
        <ele>11.2</ele>
        <time>2020-02-23T09:40:47Z</time>
      </trkpt>
      <trkpt lat="38.9957390" lon="1.5617400">
        <ele>11.0</ele>
        <time>2020-02-23T09:40:48Z</time>
      </trkpt>
      <trkpt lat="38.9956880" lon="1.5617780">
        <ele>10.8</ele>
        <time>2020-02-23T09:40:49Z</time>
      </trkpt>
      <trkpt lat="38.9956350" lon="1.5618160">
        <ele>10.6</ele>
        <time>2020-02-23T09:40:50Z</time>
      </trkpt>
      <trkpt lat="38.9956030" lon="1.5618470">
        <ele>10.5</ele>
        <time>2020-02-23T09:40:51Z</time>
      </trkpt>
      <trkpt lat="38.9955480" lon="1.5618880">
        <ele>10.4</ele>
        <time>2020-02-23T09:40:52Z</time>
      </trkpt>
      <trkpt lat="38.9954950" lon="1.5619330">
        <ele>10.1</ele>
        <time>2020-02-23T09:40:53Z</time>
      </trkpt>
      <trkpt lat="38.9954370" lon="1.5619850">
        <ele>9.9</ele>
        <time>2020-02-23T09:40:54Z</time>
      </trkpt>
      <trkpt lat="38.9953790" lon="1.5620350">
        <ele>9.7</ele>
        <time>2020-02-23T09:40:55Z</time>
      </trkpt>
      <trkpt lat="38.9953290" lon="1.5620860">
        <ele>9.6</ele>
        <time>2020-02-23T09:40:56Z</time>
      </trkpt>
      <trkpt lat="38.9952730" lon="1.5621320">
        <ele>9.4</ele>
        <time>2020-02-23T09:40:57Z</time>
      </trkpt>
      <trkpt lat="38.9952270" lon="1.5621750">
        <ele>9.3</ele>
        <time>2020-02-23T09:40:58Z</time>
      </trkpt>
      <trkpt lat="38.9951740" lon="1.5622170">
        <ele>9.1</ele>
        <time>2020-02-23T09:40:59Z</time>
      </trkpt>
      <trkpt lat="38.9951180" lon="1.5622630">
        <ele>8.9</ele>
        <time>2020-02-23T09:41:00Z</time>
      </trkpt>
      <trkpt lat="38.9950590" lon="1.5623160">
        <ele>8.7</ele>
        <time>2020-02-23T09:41:01Z</time>
      </trkpt>
      <trkpt lat="38.9950020" lon="1.5623640">
        <ele>8.6</ele>
        <time>2020-02-23T09:41:02Z</time>
      </trkpt>
      <trkpt lat="38.9949450" lon="1.5624130">
        <ele>8.6</ele>
        <time>2020-02-23T09:41:03Z</time>
      </trkpt>
      <trkpt lat="38.9948930" lon="1.5624660">
        <ele>8.5</ele>
        <time>2020-02-23T09:41:04Z</time>
      </trkpt>
      <trkpt lat="38.9948340" lon="1.5625060">
        <ele>8.5</ele>
        <time>2020-02-23T09:41:05Z</time>
      </trkpt>
      <trkpt lat="38.9947820" lon="1.5625510">
        <ele>8.4</ele>
        <time>2020-02-23T09:41:06Z</time>
      </trkpt>
      <trkpt lat="38.9947340" lon="1.5625930">
        <ele>8.4</ele>
        <time>2020-02-23T09:41:07Z</time>
      </trkpt>
      <trkpt lat="38.9946910" lon="1.5626340">
        <ele>8.3</ele>
        <time>2020-02-23T09:41:08Z</time>
      </trkpt>
      <trkpt lat="38.9946550" lon="1.5626650">
        <ele>8.2</ele>
        <time>2020-02-23T09:41:09Z</time>
      </trkpt>
      <trkpt lat="38.9946140" lon="1.5627010">
        <ele>8.1</ele>
        <time>2020-02-23T09:41:10Z</time>
      </trkpt>
      <trkpt lat="38.9945710" lon="1.5627340">
        <ele>8.0</ele>
        <time>2020-02-23T09:41:11Z</time>
      </trkpt>
      <trkpt lat="38.9945330" lon="1.5627750">
        <ele>8.0</ele>
        <time>2020-02-23T09:41:12Z</time>
      </trkpt>
      <trkpt lat="38.9944930" lon="1.5628150">
        <ele>7.9</ele>
        <time>2020-02-23T09:41:13Z</time>
      </trkpt>
      <trkpt lat="38.9944570" lon="1.5628480">
        <ele>7.9</ele>
        <time>2020-02-23T09:41:14Z</time>
      </trkpt>
      <trkpt lat="38.9944140" lon="1.5628910">
        <ele>7.8</ele>
        <time>2020-02-23T09:41:15Z</time>
      </trkpt>
      <trkpt lat="38.9943610" lon="1.5629370">
        <ele>7.7</ele>
        <time>2020-02-23T09:41:16Z</time>
      </trkpt>
      <trkpt lat="38.9943130" lon="1.5629790">
        <ele>7.5</ele>
        <time>2020-02-23T09:41:17Z</time>
      </trkpt>
      <trkpt lat="38.9942630" lon="1.5630190">
        <ele>7.6</ele>
        <time>2020-02-23T09:41:18Z</time>
      </trkpt>
      <trkpt lat="38.9942380" lon="1.5630750">
        <ele>7.6</ele>
        <time>2020-02-23T09:41:19Z</time>
      </trkpt>
      <trkpt lat="38.9942100" lon="1.5631240">
        <ele>7.7</ele>
        <time>2020-02-23T09:41:20Z</time>
      </trkpt>
      <trkpt lat="38.9941950" lon="1.5631750">
        <ele>7.7</ele>
        <time>2020-02-23T09:41:21Z</time>
      </trkpt>
      <trkpt lat="38.9941900" lon="1.5632320">
        <ele>7.8</ele>
        <time>2020-02-23T09:41:22Z</time>
      </trkpt>
      <trkpt lat="38.9941870" lon="1.5632920">
        <ele>7.9</ele>
        <time>2020-02-23T09:41:23Z</time>
      </trkpt>
      <trkpt lat="38.9941760" lon="1.5633490">
        <ele>8.0</ele>
        <time>2020-02-23T09:41:24Z</time>
      </trkpt>
      <trkpt lat="38.9941670" lon="1.5634250">
        <ele>8.2</ele>
        <time>2020-02-23T09:41:25Z</time>
      </trkpt>
      <trkpt lat="38.9941750" lon="1.5634860">
        <ele>8.3</ele>
        <time>2020-02-23T09:41:26Z</time>
      </trkpt>
      <trkpt lat="38.9941680" lon="1.5635400">
        <ele>8.4</ele>
        <time>2020-02-23T09:41:27Z</time>
      </trkpt>
      <trkpt lat="38.9941770" lon="1.5636090">
        <ele>8.5</ele>
        <time>2020-02-23T09:41:28Z</time>
      </trkpt>
      <trkpt lat="38.9941780" lon="1.5636740">
        <ele>8.5</ele>
        <time>2020-02-23T09:41:29Z</time>
      </trkpt>
      <trkpt lat="38.9941770" lon="1.5637400">
        <ele>8.6</ele>
        <time>2020-02-23T09:41:30Z</time>
      </trkpt>
      <trkpt lat="38.9941720" lon="1.5637750">
        <ele>8.6</ele>
        <time>2020-02-23T09:41:31Z</time>
      </trkpt>
      <trkpt lat="38.9941670" lon="1.5638210">
        <ele>8.7</ele>
        <time>2020-02-23T09:41:32Z</time>
      </trkpt>
      <trkpt lat="38.9941680" lon="1.5638680">
        <ele>8.8</ele>
        <time>2020-02-23T09:41:33Z</time>
      </trkpt>
      <trkpt lat="38.9941620" lon="1.5639440">
        <ele>8.9</ele>
        <time>2020-02-23T09:41:34Z</time>
      </trkpt>
      <trkpt lat="38.9941670" lon="1.5639920">
        <ele>9.0</ele>
        <time>2020-02-23T09:41:35Z</time>
      </trkpt>
      <trkpt lat="38.9941850" lon="1.5640630">
        <ele>9.2</ele>
        <time>2020-02-23T09:41:36Z</time>
      </trkpt>
      <trkpt lat="38.9941980" lon="1.5641470">
        <ele>9.4</ele>
        <time>2020-02-23T09:41:37Z</time>
      </trkpt>
      <trkpt lat="38.9942030" lon="1.5642020">
        <ele>9.5</ele>
        <time>2020-02-23T09:41:38Z</time>
      </trkpt>
      <trkpt lat="38.9942070" lon="1.5642560">
        <ele>9.6</ele>
        <time>2020-02-23T09:41:39Z</time>
      </trkpt>
      <trkpt lat="38.9942100" lon="1.5643070">
        <ele>9.6</ele>
        <time>2020-02-23T09:41:40Z</time>
      </trkpt>
      <trkpt lat="38.9942100" lon="1.5643560">
        <ele>9.6</ele>
        <time>2020-02-23T09:41:41Z</time>
      </trkpt>
      <trkpt lat="38.9942030" lon="1.5644120">
        <ele>9.7</ele>
        <time>2020-02-23T09:41:42Z</time>
      </trkpt>
      <trkpt lat="38.9942020" lon="1.5644620">
        <ele>9.7</ele>
        <time>2020-02-23T09:41:43Z</time>
      </trkpt>
      <trkpt lat="38.9942130" lon="1.5645140">
        <ele>9.7</ele>
        <time>2020-02-23T09:41:44Z</time>
      </trkpt>
      <trkpt lat="38.9942190" lon="1.5645770">
        <ele>9.7</ele>
        <time>2020-02-23T09:41:45Z</time>
      </trkpt>
      <trkpt lat="38.9942220" lon="1.5646480">
        <ele>9.7</ele>
        <time>2020-02-23T09:41:46Z</time>
      </trkpt>
      <trkpt lat="38.9942190" lon="1.5647020">
        <ele>9.7</ele>
        <time>2020-02-23T09:41:47Z</time>
      </trkpt>
      <trkpt lat="38.9942300" lon="1.5647580">
        <ele>9.7</ele>
        <time>2020-02-23T09:41:48Z</time>
      </trkpt>
      <trkpt lat="38.9942270" lon="1.5648140">
        <ele>9.6</ele>
        <time>2020-02-23T09:41:49Z</time>
      </trkpt>
      <trkpt lat="38.9942330" lon="1.5648790">
        <ele>9.6</ele>
        <time>2020-02-23T09:41:50Z</time>
      </trkpt>
      <trkpt lat="38.9942290" lon="1.5649470">
        <ele>9.6</ele>
        <time>2020-02-23T09:41:51Z</time>
      </trkpt>
      <trkpt lat="38.9942270" lon="1.5650070">
        <ele>9.6</ele>
        <time>2020-02-23T09:41:52Z</time>
      </trkpt>
      <trkpt lat="38.9942260" lon="1.5650600">
        <ele>9.5</ele>
        <time>2020-02-23T09:41:53Z</time>
      </trkpt>
      <trkpt lat="38.9942120" lon="1.5651290">
        <ele>9.5</ele>
        <time>2020-02-23T09:41:54Z</time>
      </trkpt>
      <trkpt lat="38.9941960" lon="1.5651880">
        <ele>9.5</ele>
        <time>2020-02-23T09:41:55Z</time>
      </trkpt>
      <trkpt lat="38.9941850" lon="1.5652480">
        <ele>9.5</ele>
        <time>2020-02-23T09:41:56Z</time>
      </trkpt>
      <trkpt lat="38.9941710" lon="1.5652870">
        <ele>9.4</ele>
        <time>2020-02-23T09:41:57Z</time>
      </trkpt>
      <trkpt lat="38.9941670" lon="1.5653500">
        <ele>9.4</ele>
        <time>2020-02-23T09:41:58Z</time>
      </trkpt>
      <trkpt lat="38.9941540" lon="1.5654030">
        <ele>9.4</ele>
        <time>2020-02-23T09:41:59Z</time>
      </trkpt>
      <trkpt lat="38.9941400" lon="1.5654570">
        <ele>9.4</ele>
        <time>2020-02-23T09:42:00Z</time>
      </trkpt>
      <trkpt lat="38.9941310" lon="1.5655000">
        <ele>9.4</ele>
        <time>2020-02-23T09:42:01Z</time>
      </trkpt>
      <trkpt lat="38.9941170" lon="1.5655420">
        <ele>9.3</ele>
        <time>2020-02-23T09:42:02Z</time>
      </trkpt>
      <trkpt lat="38.9941010" lon="1.5655950">
        <ele>9.3</ele>
        <time>2020-02-23T09:42:03Z</time>
      </trkpt>
      <trkpt lat="38.9940820" lon="1.5656560">
        <ele>9.3</ele>
        <time>2020-02-23T09:42:04Z</time>
      </trkpt>
      <trkpt lat="38.9940710" lon="1.5657000">
        <ele>9.3</ele>
        <time>2020-02-23T09:42:05Z</time>
      </trkpt>
      <trkpt lat="38.9940520" lon="1.5657440">
        <ele>9.2</ele>
        <time>2020-02-23T09:42:06Z</time>
      </trkpt>
      <trkpt lat="38.9940270" lon="1.5658160">
        <ele>9.2</ele>
        <time>2020-02-23T09:42:07Z</time>
      </trkpt>
      <trkpt lat="38.9940060" lon="1.5658870">
        <ele>9.2</ele>
        <time>2020-02-23T09:42:08Z</time>
      </trkpt>
      <trkpt lat="38.9939890" lon="1.5659480">
        <ele>9.2</ele>
        <time>2020-02-23T09:42:09Z</time>
      </trkpt>
      <trkpt lat="38.9939780" lon="1.5660040">
        <ele>9.2</ele>
        <time>2020-02-23T09:42:10Z</time>
      </trkpt>
      <trkpt lat="38.9939620" lon="1.5660750">
        <ele>9.2</ele>
        <time>2020-02-23T09:42:11Z</time>
      </trkpt>
      <trkpt lat="38.9939520" lon="1.5661360">
        <ele>9.2</ele>
        <time>2020-02-23T09:42:12Z</time>
      </trkpt>
      <trkpt lat="38.9939250" lon="1.5661770">
        <ele>9.1</ele>
        <time>2020-02-23T09:42:13Z</time>
      </trkpt>
      <trkpt lat="38.9939080" lon="1.5662320">
        <ele>9.1</ele>
        <time>2020-02-23T09:42:14Z</time>
      </trkpt>
      <trkpt lat="38.9939040" lon="1.5662930">
        <ele>9.1</ele>
        <time>2020-02-23T09:42:15Z</time>
      </trkpt>
      <trkpt lat="38.9938890" lon="1.5663470">
        <ele>9.0</ele>
        <time>2020-02-23T09:42:16Z</time>
      </trkpt>
      <trkpt lat="38.9938780" lon="1.5664120">
        <ele>9.0</ele>
        <time>2020-02-23T09:42:17Z</time>
      </trkpt>
      <trkpt lat="38.9938650" lon="1.5664850">
        <ele>9.0</ele>
        <time>2020-02-23T09:42:18Z</time>
      </trkpt>
      <trkpt lat="38.9938550" lon="1.5665510">
        <ele>9.0</ele>
        <time>2020-02-23T09:42:19Z</time>
      </trkpt>
      <trkpt lat="38.9938470" lon="1.5666090">
        <ele>8.9</ele>
        <time>2020-02-23T09:42:20Z</time>
      </trkpt>
      <trkpt lat="38.9938350" lon="1.5666640">
        <ele>8.9</ele>
        <time>2020-02-23T09:42:21Z</time>
      </trkpt>
      <trkpt lat="38.9938280" lon="1.5667350">
        <ele>8.9</ele>
        <time>2020-02-23T09:42:22Z</time>
      </trkpt>
      <trkpt lat="38.9938160" lon="1.5668010">
        <ele>8.9</ele>
        <time>2020-02-23T09:42:23Z</time>
      </trkpt>
      <trkpt lat="38.9938030" lon="1.5668580">
        <ele>8.9</ele>
        <time>2020-02-23T09:42:24Z</time>
      </trkpt>
      <trkpt lat="38.9937860" lon="1.5669250">
        <ele>8.8</ele>
        <time>2020-02-23T09:42:25Z</time>
      </trkpt>
      <trkpt lat="38.9937700" lon="1.5669880">
        <ele>8.7</ele>
        <time>2020-02-23T09:42:26Z</time>
      </trkpt>
      <trkpt lat="38.9937420" lon="1.5670420">
        <ele>8.6</ele>
        <time>2020-02-23T09:42:27Z</time>
      </trkpt>
      <trkpt lat="38.9937130" lon="1.5671020">
        <ele>8.5</ele>
        <time>2020-02-23T09:42:28Z</time>
      </trkpt>
      <trkpt lat="38.9936900" lon="1.5671420">
        <ele>8.4</ele>
        <time>2020-02-23T09:42:29Z</time>
      </trkpt>
      <trkpt lat="38.9936580" lon="1.5671810">
        <ele>8.4</ele>
        <time>2020-02-23T09:42:30Z</time>
      </trkpt>
      <trkpt lat="38.9936060" lon="1.5672180">
        <ele>8.5</ele>
        <time>2020-02-23T09:42:31Z</time>
      </trkpt>
      <trkpt lat="38.9935680" lon="1.5672460">
        <ele>8.5</ele>
        <time>2020-02-23T09:42:32Z</time>
      </trkpt>
      <trkpt lat="38.9935330" lon="1.5672740">
        <ele>8.5</ele>
        <time>2020-02-23T09:42:33Z</time>
      </trkpt>
      <trkpt lat="38.9934950" lon="1.5673180">
        <ele>8.5</ele>
        <time>2020-02-23T09:42:34Z</time>
      </trkpt>
      <trkpt lat="38.9934630" lon="1.5673710">
        <ele>8.5</ele>
        <time>2020-02-23T09:42:35Z</time>
      </trkpt>
      <trkpt lat="38.9934290" lon="1.5674280">
        <ele>8.4</ele>
        <time>2020-02-23T09:42:36Z</time>
      </trkpt>
      <trkpt lat="38.9933930" lon="1.5674840">
        <ele>8.3</ele>
        <time>2020-02-23T09:42:37Z</time>
      </trkpt>
      <trkpt lat="38.9933530" lon="1.5675360">
        <ele>8.2</ele>
        <time>2020-02-23T09:42:38Z</time>
      </trkpt>
      <trkpt lat="38.9933200" lon="1.5676010">
        <ele>8.1</ele>
        <time>2020-02-23T09:42:39Z</time>
      </trkpt>
      <trkpt lat="38.9932840" lon="1.5676800">
        <ele>7.9</ele>
        <time>2020-02-23T09:42:40Z</time>
      </trkpt>
      <trkpt lat="38.9932630" lon="1.5677250">
        <ele>7.9</ele>
        <time>2020-02-23T09:42:41Z</time>
      </trkpt>
      <trkpt lat="38.9932350" lon="1.5677910">
        <ele>7.8</ele>
        <time>2020-02-23T09:42:42Z</time>
      </trkpt>
      <trkpt lat="38.9932140" lon="1.5678720">
        <ele>7.7</ele>
        <time>2020-02-23T09:42:43Z</time>
      </trkpt>
      <trkpt lat="38.9932250" lon="1.5679580">
        <ele>7.7</ele>
        <time>2020-02-23T09:42:44Z</time>
      </trkpt>
      <trkpt lat="38.9932400" lon="1.5680260">
        <ele>7.5</ele>
        <time>2020-02-23T09:42:45Z</time>
      </trkpt>
      <trkpt lat="38.9932860" lon="1.5680800">
        <ele>7.4</ele>
        <time>2020-02-23T09:42:46Z</time>
      </trkpt>
      <trkpt lat="38.9933230" lon="1.5681340">
        <ele>7.3</ele>
        <time>2020-02-23T09:42:47Z</time>
      </trkpt>
      <trkpt lat="38.9933410" lon="1.5682120">
        <ele>7.2</ele>
        <time>2020-02-23T09:42:48Z</time>
      </trkpt>
      <trkpt lat="38.9933550" lon="1.5682760">
        <ele>7.1</ele>
        <time>2020-02-23T09:42:49Z</time>
      </trkpt>
      <trkpt lat="38.9933800" lon="1.5683270">
        <ele>7.0</ele>
        <time>2020-02-23T09:42:50Z</time>
      </trkpt>
      <trkpt lat="38.9934050" lon="1.5683940">
        <ele>6.9</ele>
        <time>2020-02-23T09:42:51Z</time>
      </trkpt>
      <trkpt lat="38.9934300" lon="1.5684570">
        <ele>6.8</ele>
        <time>2020-02-23T09:42:52Z</time>
      </trkpt>
      <trkpt lat="38.9934500" lon="1.5685310">
        <ele>6.7</ele>
        <time>2020-02-23T09:42:53Z</time>
      </trkpt>
      <trkpt lat="38.9934670" lon="1.5685920">
        <ele>6.6</ele>
        <time>2020-02-23T09:42:54Z</time>
      </trkpt>
      <trkpt lat="38.9934900" lon="1.5686550">
        <ele>6.5</ele>
        <time>2020-02-23T09:42:55Z</time>
      </trkpt>
      <trkpt lat="38.9935130" lon="1.5687220">
        <ele>6.3</ele>
        <time>2020-02-23T09:42:56Z</time>
      </trkpt>
      <trkpt lat="38.9935310" lon="1.5687830">
        <ele>6.1</ele>
        <time>2020-02-23T09:42:57Z</time>
      </trkpt>
      <trkpt lat="38.9935420" lon="1.5688360">
        <ele>6.0</ele>
        <time>2020-02-23T09:42:58Z</time>
      </trkpt>
      <trkpt lat="38.9935600" lon="1.5688980">
        <ele>5.8</ele>
        <time>2020-02-23T09:42:59Z</time>
      </trkpt>
      <trkpt lat="38.9935800" lon="1.5689580">
        <ele>5.6</ele>
        <time>2020-02-23T09:43:00Z</time>
      </trkpt>
      <trkpt lat="38.9936000" lon="1.5689980">
        <ele>5.4</ele>
        <time>2020-02-23T09:43:01Z</time>
      </trkpt>
      <trkpt lat="38.9936140" lon="1.5690580">
        <ele>5.2</ele>
        <time>2020-02-23T09:43:02Z</time>
      </trkpt>
      <trkpt lat="38.9936390" lon="1.5691120">
        <ele>4.9</ele>
        <time>2020-02-23T09:43:03Z</time>
      </trkpt>
      <trkpt lat="38.9936790" lon="1.5691610">
        <ele>4.4</ele>
        <time>2020-02-23T09:43:04Z</time>
      </trkpt>
      <trkpt lat="38.9937190" lon="1.5691930">
        <ele>3.9</ele>
        <time>2020-02-23T09:43:05Z</time>
      </trkpt>
      <trkpt lat="38.9937450" lon="1.5692110">
        <ele>3.8</ele>
        <time>2020-02-23T09:43:06Z</time>
      </trkpt>
      <trkpt lat="38.9937810" lon="1.5692300">
        <ele>3.8</ele>
        <time>2020-02-23T09:43:07Z</time>
      </trkpt>
      <trkpt lat="38.9937920" lon="1.5692400">
        <ele>3.8</ele>
        <time>2020-02-23T09:43:08Z</time>
      </trkpt>
      <trkpt lat="38.9938070" lon="1.5692530">
        <ele>3.7</ele>
        <time>2020-02-23T09:43:09Z</time>
      </trkpt>
      <trkpt lat="38.9938040" lon="1.5692800">
        <ele>3.7</ele>
        <time>2020-02-23T09:43:10Z</time>
      </trkpt>
      <trkpt lat="38.9937770" lon="1.5693030">
        <ele>3.7</ele>
        <time>2020-02-23T09:43:11Z</time>
      </trkpt>
      <trkpt lat="38.9937360" lon="1.5693150">
        <ele>3.7</ele>
        <time>2020-02-23T09:43:12Z</time>
      </trkpt>
      <trkpt lat="38.9936980" lon="1.5693390">
        <ele>3.6</ele>
        <time>2020-02-23T09:43:13Z</time>
      </trkpt>
      <trkpt lat="38.9936620" lon="1.5693810">
        <ele>3.6</ele>
        <time>2020-02-23T09:43:14Z</time>
      </trkpt>
      <trkpt lat="38.9936210" lon="1.5694230">
        <ele>3.5</ele>
        <time>2020-02-23T09:43:15Z</time>
      </trkpt>
      <trkpt lat="38.9935820" lon="1.5694470">
        <ele>3.4</ele>
        <time>2020-02-23T09:43:16Z</time>
      </trkpt>
      <trkpt lat="38.9935460" lon="1.5694590">
        <ele>3.4</ele>
        <time>2020-02-23T09:43:17Z</time>
      </trkpt>
      <trkpt lat="38.9935000" lon="1.5694670">
        <ele>3.3</ele>
        <time>2020-02-23T09:43:18Z</time>
      </trkpt>
      <trkpt lat="38.9934620" lon="1.5694800">
        <ele>3.3</ele>
        <time>2020-02-23T09:43:19Z</time>
      </trkpt>
      <trkpt lat="38.9934210" lon="1.5695020">
        <ele>3.2</ele>
        <time>2020-02-23T09:43:20Z</time>
      </trkpt>
      <trkpt lat="38.9933870" lon="1.5695210">
        <ele>3.2</ele>
        <time>2020-02-23T09:43:21Z</time>
      </trkpt>
      <trkpt lat="38.9933480" lon="1.5695430">
        <ele>3.1</ele>
        <time>2020-02-23T09:43:22Z</time>
      </trkpt>
      <trkpt lat="38.9933130" lon="1.5695660">
        <ele>3.1</ele>
        <time>2020-02-23T09:43:23Z</time>
      </trkpt>
      <trkpt lat="38.9932790" lon="1.5695840">
        <ele>3.1</ele>
        <time>2020-02-23T09:43:24Z</time>
      </trkpt>
      <trkpt lat="38.9932450" lon="1.5696030">
        <ele>3.0</ele>
        <time>2020-02-23T09:43:25Z</time>
      </trkpt>
      <trkpt lat="38.9932150" lon="1.5696200">
        <ele>3.0</ele>
        <time>2020-02-23T09:43:26Z</time>
      </trkpt>
      <trkpt lat="38.9931750" lon="1.5696360">
        <ele>3.0</ele>
        <time>2020-02-23T09:43:27Z</time>
      </trkpt>
      <trkpt lat="38.9931330" lon="1.5696430">
        <ele>3.0</ele>
        <time>2020-02-23T09:43:28Z</time>
      </trkpt>
      <trkpt lat="38.9930910" lon="1.5696530">
        <ele>3.0</ele>
        <time>2020-02-23T09:43:29Z</time>
      </trkpt>
      <trkpt lat="38.9930570" lon="1.5696650">
        <ele>3.0</ele>
        <time>2020-02-23T09:43:30Z</time>
      </trkpt>
      <trkpt lat="38.9930170" lon="1.5696930">
        <ele>3.0</ele>
        <time>2020-02-23T09:43:31Z</time>
      </trkpt>
      <trkpt lat="38.9929760" lon="1.5697230">
        <ele>3.1</ele>
        <time>2020-02-23T09:43:32Z</time>
      </trkpt>
      <trkpt lat="38.9929370" lon="1.5697490">
        <ele>3.1</ele>
        <time>2020-02-23T09:43:33Z</time>
      </trkpt>
      <trkpt lat="38.9928870" lon="1.5697640">
        <ele>3.2</ele>
        <time>2020-02-23T09:43:34Z</time>
      </trkpt>
      <trkpt lat="38.9928560" lon="1.5697680">
        <ele>3.2</ele>
        <time>2020-02-23T09:43:35Z</time>
      </trkpt>
      <trkpt lat="38.9928160" lon="1.5697750">
        <ele>3.2</ele>
        <time>2020-02-23T09:43:36Z</time>
      </trkpt>
      <trkpt lat="38.9927730" lon="1.5697870">
        <ele>3.3</ele>
        <time>2020-02-23T09:43:37Z</time>
      </trkpt>
      <trkpt lat="38.9927170" lon="1.5698030">
        <ele>3.4</ele>
        <time>2020-02-23T09:43:38Z</time>
      </trkpt>
      <trkpt lat="38.9926660" lon="1.5698230">
        <ele>3.5</ele>
        <time>2020-02-23T09:43:39Z</time>
      </trkpt>
      <trkpt lat="38.9926320" lon="1.5698400">
        <ele>3.5</ele>
        <time>2020-02-23T09:43:40Z</time>
      </trkpt>
      <trkpt lat="38.9926030" lon="1.5698550">
        <ele>3.6</ele>
        <time>2020-02-23T09:43:41Z</time>
      </trkpt>
      <trkpt lat="38.9925590" lon="1.5698700">
        <ele>3.6</ele>
        <time>2020-02-23T09:43:42Z</time>
      </trkpt>
      <trkpt lat="38.9925210" lon="1.5698880">
        <ele>3.7</ele>
        <time>2020-02-23T09:43:43Z</time>
      </trkpt>
      <trkpt lat="38.9924720" lon="1.5699290">
        <ele>3.7</ele>
        <time>2020-02-23T09:43:44Z</time>
      </trkpt>
      <trkpt lat="38.9924240" lon="1.5699580">
        <ele>3.9</ele>
        <time>2020-02-23T09:43:45Z</time>
      </trkpt>
      <trkpt lat="38.9923910" lon="1.5699780">
        <ele>4.0</ele>
        <time>2020-02-23T09:43:46Z</time>
      </trkpt>
      <trkpt lat="38.9923550" lon="1.5700000">
        <ele>4.0</ele>
        <time>2020-02-23T09:43:47Z</time>
      </trkpt>
      <trkpt lat="38.9923210" lon="1.5700200">
        <ele>4.1</ele>
        <time>2020-02-23T09:43:48Z</time>
      </trkpt>
      <trkpt lat="38.9922860" lon="1.5700520">
        <ele>4.1</ele>
        <time>2020-02-23T09:43:49Z</time>
      </trkpt>
      <trkpt lat="38.9922520" lon="1.5700810">
        <ele>4.2</ele>
        <time>2020-02-23T09:43:50Z</time>
      </trkpt>
      <trkpt lat="38.9922250" lon="1.5700980">
        <ele>4.2</ele>
        <time>2020-02-23T09:43:51Z</time>
      </trkpt>
      <trkpt lat="38.9921990" lon="1.5701130">
        <ele>4.4</ele>
        <time>2020-02-23T09:43:52Z</time>
      </trkpt>
      <trkpt lat="38.9921650" lon="1.5701420">
        <ele>4.4</ele>
        <time>2020-02-23T09:43:53Z</time>
      </trkpt>
      <trkpt lat="38.9921390" lon="1.5701710">
        <ele>4.5</ele>
        <time>2020-02-23T09:43:54Z</time>
      </trkpt>
      <trkpt lat="38.9921050" lon="1.5701980">
        <ele>4.6</ele>
        <time>2020-02-23T09:43:55Z</time>
      </trkpt>
      <trkpt lat="38.9920740" lon="1.5702170">
        <ele>4.6</ele>
        <time>2020-02-23T09:43:56Z</time>
      </trkpt>
      <trkpt lat="38.9920380" lon="1.5702390">
        <ele>4.6</ele>
        <time>2020-02-23T09:43:57Z</time>
      </trkpt>
      <trkpt lat="38.9920060" lon="1.5702570">
        <ele>4.6</ele>
        <time>2020-02-23T09:43:58Z</time>
      </trkpt>
      <trkpt lat="38.9919780" lon="1.5702670">
        <ele>4.6</ele>
        <time>2020-02-23T09:43:59Z</time>
      </trkpt>
      <trkpt lat="38.9919450" lon="1.5702790">
        <ele>4.6</ele>
        <time>2020-02-23T09:44:00Z</time>
      </trkpt>
      <trkpt lat="38.9919310" lon="1.5702860">
        <ele>4.6</ele>
        <time>2020-02-23T09:44:01Z</time>
      </trkpt>
      <trkpt lat="38.9918990" lon="1.5703030">
        <ele>4.5</ele>
        <time>2020-02-23T09:44:02Z</time>
      </trkpt>
      <trkpt lat="38.9918730" lon="1.5703200">
        <ele>4.6</ele>
        <time>2020-02-23T09:44:03Z</time>
      </trkpt>
      <trkpt lat="38.9918440" lon="1.5703260">
        <ele>4.5</ele>
        <time>2020-02-23T09:44:04Z</time>
      </trkpt>
      <trkpt lat="38.9918040" lon="1.5703340">
        <ele>4.4</ele>
        <time>2020-02-23T09:44:05Z</time>
      </trkpt>
      <trkpt lat="38.9917880" lon="1.5703400">
        <ele>4.4</ele>
        <time>2020-02-23T09:44:06Z</time>
      </trkpt>
      <trkpt lat="38.9917520" lon="1.5703510">
        <ele>4.3</ele>
        <time>2020-02-23T09:44:07Z</time>
      </trkpt>
      <trkpt lat="38.9917390" lon="1.5703550">
        <ele>4.3</ele>
        <time>2020-02-23T09:44:08Z</time>
      </trkpt>
      <trkpt lat="38.9917070" lon="1.5703640">
        <ele>4.3</ele>
        <time>2020-02-23T09:44:09Z</time>
      </trkpt>
      <trkpt lat="38.9916970" lon="1.5703710">
        <ele>4.2</ele>
        <time>2020-02-23T09:44:10Z</time>
      </trkpt>
      <trkpt lat="38.9916660" lon="1.5703980">
        <ele>4.1</ele>
        <time>2020-02-23T09:44:11Z</time>
      </trkpt>
      <trkpt lat="38.9916410" lon="1.5704220">
        <ele>4.1</ele>
        <time>2020-02-23T09:44:12Z</time>
      </trkpt>
      <trkpt lat="38.9915940" lon="1.5704370">
        <ele>3.9</ele>
        <time>2020-02-23T09:44:13Z</time>
      </trkpt>
      <trkpt lat="38.9915620" lon="1.5704390">
        <ele>3.8</ele>
        <time>2020-02-23T09:44:14Z</time>
      </trkpt>
      <trkpt lat="38.9915180" lon="1.5704480">
        <ele>3.8</ele>
        <time>2020-02-23T09:44:15Z</time>
      </trkpt>
      <trkpt lat="38.9914980" lon="1.5704520">
        <ele>3.7</ele>
        <time>2020-02-23T09:44:16Z</time>
      </trkpt>
      <trkpt lat="38.9914620" lon="1.5704730">
        <ele>3.5</ele>
        <time>2020-02-23T09:44:17Z</time>
      </trkpt>
      <trkpt lat="38.9914230" lon="1.5704800">
        <ele>3.4</ele>
        <time>2020-02-23T09:44:18Z</time>
      </trkpt>
      <trkpt lat="38.9913890" lon="1.5704930">
        <ele>3.3</ele>
        <time>2020-02-23T09:44:19Z</time>
      </trkpt>
      <trkpt lat="38.9913540" lon="1.5704900">
        <ele>3.1</ele>
        <time>2020-02-23T09:44:20Z</time>
      </trkpt>
      <trkpt lat="38.9913390" lon="1.5704890">
        <ele>3.1</ele>
        <time>2020-02-23T09:44:21Z</time>
      </trkpt>
      <trkpt lat="38.9913010" lon="1.5704930">
        <ele>2.7</ele>
        <time>2020-02-23T09:44:22Z</time>
      </trkpt>
      <trkpt lat="38.9912860" lon="1.5704920">
        <ele>2.7</ele>
        <time>2020-02-23T09:44:23Z</time>
      </trkpt>
      <trkpt lat="38.9912530" lon="1.5704950">
        <ele>2.4</ele>
        <time>2020-02-23T09:44:24Z</time>
      </trkpt>
      <trkpt lat="38.9912230" lon="1.5705060">
        <ele>2.1</ele>
        <time>2020-02-23T09:44:25Z</time>
      </trkpt>
      <trkpt lat="38.9911980" lon="1.5705250">
        <ele>1.7</ele>
        <time>2020-02-23T09:44:26Z</time>
      </trkpt>
      <trkpt lat="38.9911840" lon="1.5705630">
        <ele>1.7</ele>
        <time>2020-02-23T09:44:27Z</time>
      </trkpt>
      <trkpt lat="38.9911840" lon="1.5705800">
        <ele>1.7</ele>
        <time>2020-02-23T09:44:28Z</time>
      </trkpt>
      <trkpt lat="38.9911810" lon="1.5705890">
        <ele>1.7</ele>
        <time>2020-02-23T09:44:29Z</time>
      </trkpt>
      <trkpt lat="38.9911780" lon="1.5705970">
        <ele>1.7</ele>
        <time>2020-02-23T09:44:30Z</time>
      </trkpt>
      <trkpt lat="38.9911740" lon="1.5706060">
        <ele>1.7</ele>
        <time>2020-02-23T09:44:31Z</time>
      </trkpt>
      <trkpt lat="38.9911710" lon="1.5706140">
        <ele>1.7</ele>
        <time>2020-02-23T09:44:32Z</time>
      </trkpt>
      <trkpt lat="38.9911680" lon="1.5706230">
        <ele>1.7</ele>
        <time>2020-02-23T09:44:33Z</time>
      </trkpt>
      <trkpt lat="38.9911570" lon="1.5706350">
        <ele>1.7</ele>
        <time>2020-02-23T09:44:34Z</time>
      </trkpt>
      <trkpt lat="38.9911450" lon="1.5706440">
        <ele>1.7</ele>
        <time>2020-02-23T09:44:35Z</time>
      </trkpt>
      <trkpt lat="38.9911450" lon="1.5706470">
        <ele>1.7</ele>
        <time>2020-02-23T09:44:36Z</time>
      </trkpt>
      <trkpt lat="38.9911520" lon="1.5706510">
        <ele>1.7</ele>
        <time>2020-02-23T09:44:37Z</time>
      </trkpt>
      <trkpt lat="38.9911530" lon="1.5706560">
        <ele>1.7</ele>
        <time>2020-02-23T09:44:38Z</time>
      </trkpt>
      <trkpt lat="38.9911540" lon="1.5706550">
        <ele>1.7</ele>
        <time>2020-02-23T09:44:39Z</time>
      </trkpt>
      <trkpt lat="38.9911440" lon="1.5706680">
        <ele>1.7</ele>
        <time>2020-02-23T09:44:40Z</time>
      </trkpt>
      <trkpt lat="38.9911440" lon="1.5706670">
        <ele>1.7</ele>
        <time>2020-02-23T09:44:41Z</time>
      </trkpt>
      <trkpt lat="38.9911430" lon="1.5706630">
        <ele>1.7</ele>
        <time>2020-02-23T09:44:42Z</time>
      </trkpt>
      <trkpt lat="38.9911350" lon="1.5706670">
        <ele>1.7</ele>
        <time>2020-02-23T09:44:43Z</time>
      </trkpt>
      <trkpt lat="38.9911160" lon="1.5706670">
        <ele>1.7</ele>
        <time>2020-02-23T09:44:44Z</time>
      </trkpt>
      <trkpt lat="38.9910770" lon="1.5706660">
        <ele>1.7</ele>
        <time>2020-02-23T09:44:45Z</time>
      </trkpt>
      <trkpt lat="38.9910580" lon="1.5706670">
        <ele>1.7</ele>
        <time>2020-02-23T09:44:46Z</time>
      </trkpt>
      <trkpt lat="38.9910450" lon="1.5706740">
        <ele>1.7</ele>
        <time>2020-02-23T09:44:47Z</time>
      </trkpt>
      <trkpt lat="38.9910310" lon="1.5706830">
        <ele>1.7</ele>
        <time>2020-02-23T09:44:48Z</time>
      </trkpt>
      <trkpt lat="38.9910180" lon="1.5706930">
        <ele>1.7</ele>
        <time>2020-02-23T09:44:49Z</time>
      </trkpt>
      <trkpt lat="38.9909990" lon="1.5707310">
        <ele>1.7</ele>
        <time>2020-02-23T09:44:50Z</time>
      </trkpt>
      <trkpt lat="38.9909800" lon="1.5707750">
        <ele>1.7</ele>
        <time>2020-02-23T09:44:51Z</time>
      </trkpt>
      <trkpt lat="38.9909760" lon="1.5707900">
        <ele>1.7</ele>
        <time>2020-02-23T09:44:52Z</time>
      </trkpt>
      <trkpt lat="38.9909670" lon="1.5708120">
        <ele>1.7</ele>
        <time>2020-02-23T09:44:53Z</time>
      </trkpt>
      <trkpt lat="38.9909610" lon="1.5708190">
        <ele>1.7</ele>
        <time>2020-02-23T09:44:54Z</time>
      </trkpt>
      <trkpt lat="38.9909590" lon="1.5708190">
        <ele>1.7</ele>
        <time>2020-02-23T09:44:55Z</time>
      </trkpt>
      <trkpt lat="38.9909650" lon="1.5708200">
        <ele>1.7</ele>
        <time>2020-02-23T09:44:56Z</time>
      </trkpt>
      <trkpt lat="38.9909630" lon="1.5708250">
        <ele>1.7</ele>
        <time>2020-02-23T09:44:57Z</time>
      </trkpt>
      <trkpt lat="38.9909620" lon="1.5708290">
        <ele>1.7</ele>
        <time>2020-02-23T09:44:58Z</time>
      </trkpt>
      <trkpt lat="38.9909600" lon="1.5708330">
        <ele>1.7</ele>
        <time>2020-02-23T09:44:59Z</time>
      </trkpt>
      <trkpt lat="38.9909590" lon="1.5708370">
        <ele>1.7</ele>
        <time>2020-02-23T09:45:00Z</time>
      </trkpt>
      <trkpt lat="38.9909570" lon="1.5708420">
        <ele>1.7</ele>
        <time>2020-02-23T09:45:01Z</time>
      </trkpt>
      <trkpt lat="38.9909560" lon="1.5708460">
        <ele>1.7</ele>
        <time>2020-02-23T09:45:02Z</time>
      </trkpt>
      <trkpt lat="38.9909540" lon="1.5708500">
        <ele>1.7</ele>
        <time>2020-02-23T09:45:03Z</time>
      </trkpt>
      <trkpt lat="38.9909530" lon="1.5708540">
        <ele>1.7</ele>
        <time>2020-02-23T09:45:04Z</time>
      </trkpt>
      <trkpt lat="38.9909510" lon="1.5708590">
        <ele>1.7</ele>
        <time>2020-02-23T09:45:32Z</time>
      </trkpt>
      <trkpt lat="38.9909500" lon="1.5708630">
        <ele>1.7</ele>
        <time>2020-02-23T09:45:33Z</time>
      </trkpt>
      <trkpt lat="38.9909450" lon="1.5708760">
        <ele>1.7</ele>
        <time>2020-02-23T09:45:34Z</time>
      </trkpt>
      <trkpt lat="38.9909430" lon="1.5708900">
        <ele>1.7</ele>
        <time>2020-02-23T09:45:35Z</time>
      </trkpt>
      <trkpt lat="38.9909390" lon="1.5709060">
        <ele>1.7</ele>
        <time>2020-02-23T09:45:36Z</time>
      </trkpt>
      <trkpt lat="38.9909350" lon="1.5709050">
        <ele>1.7</ele>
        <time>2020-02-23T09:45:37Z</time>
      </trkpt>
      <trkpt lat="38.9909280" lon="1.5709160">
        <ele>1.7</ele>
        <time>2020-02-23T09:45:38Z</time>
      </trkpt>
      <trkpt lat="38.9909310" lon="1.5709260">
        <ele>1.7</ele>
        <time>2020-02-23T09:45:39Z</time>
      </trkpt>
      <trkpt lat="38.9909280" lon="1.5709430">
        <ele>1.7</ele>
        <time>2020-02-23T09:45:40Z</time>
      </trkpt>
      <trkpt lat="38.9909250" lon="1.5709570">
        <ele>1.7</ele>
        <time>2020-02-23T09:45:41Z</time>
      </trkpt>
      <trkpt lat="38.9909230" lon="1.5709810">
        <ele>1.7</ele>
        <time>2020-02-23T09:45:42Z</time>
      </trkpt>
      <trkpt lat="38.9909110" lon="1.5710220">
        <ele>1.6</ele>
        <time>2020-02-23T09:45:43Z</time>
      </trkpt>
      <trkpt lat="38.9909040" lon="1.5710350">
        <ele>1.6</ele>
        <time>2020-02-23T09:45:44Z</time>
      </trkpt>
      <trkpt lat="38.9908890" lon="1.5710680">
        <ele>1.6</ele>
        <time>2020-02-23T09:45:45Z</time>
      </trkpt>
      <trkpt lat="38.9908830" lon="1.5710790">
        <ele>1.6</ele>
        <time>2020-02-23T09:45:46Z</time>
      </trkpt>
      <trkpt lat="38.9908640" lon="1.5711100">
        <ele>1.6</ele>
        <time>2020-02-23T09:45:47Z</time>
      </trkpt>
      <trkpt lat="38.9908580" lon="1.5711210">
        <ele>1.6</ele>
        <time>2020-02-23T09:45:48Z</time>
      </trkpt>
      <trkpt lat="38.9908480" lon="1.5711480">
        <ele>1.6</ele>
        <time>2020-02-23T09:45:49Z</time>
      </trkpt>
      <trkpt lat="38.9908460" lon="1.5711590">
        <ele>1.6</ele>
        <time>2020-02-23T09:45:50Z</time>
      </trkpt>
      <trkpt lat="38.9908440" lon="1.5711710">
        <ele>1.6</ele>
        <time>2020-02-23T09:45:51Z</time>
      </trkpt>
      <trkpt lat="38.9908420" lon="1.5712110">
        <ele>1.6</ele>
        <time>2020-02-23T09:45:52Z</time>
      </trkpt>
      <trkpt lat="38.9908410" lon="1.5712230">
        <ele>1.6</ele>
        <time>2020-02-23T09:45:53Z</time>
      </trkpt>
      <trkpt lat="38.9908360" lon="1.5712430">
        <ele>1.6</ele>
        <time>2020-02-23T09:45:54Z</time>
      </trkpt>
      <trkpt lat="38.9908310" lon="1.5712470">
        <ele>1.6</ele>
        <time>2020-02-23T09:45:55Z</time>
      </trkpt>
      <trkpt lat="38.9908310" lon="1.5712670">
        <ele>1.6</ele>
        <time>2020-02-23T09:45:56Z</time>
      </trkpt>
      <trkpt lat="38.9908350" lon="1.5712900">
        <ele>1.6</ele>
        <time>2020-02-23T09:45:57Z</time>
      </trkpt>
      <trkpt lat="38.9908410" lon="1.5713050">
        <ele>1.5</ele>
        <time>2020-02-23T09:45:58Z</time>
      </trkpt>
      <trkpt lat="38.9908480" lon="1.5713200">
        <ele>1.5</ele>
        <time>2020-02-23T09:45:59Z</time>
      </trkpt>
      <trkpt lat="38.9908570" lon="1.5713400">
        <ele>1.5</ele>
        <time>2020-02-23T09:46:00Z</time>
      </trkpt>
      <trkpt lat="38.9908640" lon="1.5713540">
        <ele>1.5</ele>
        <time>2020-02-23T09:46:01Z</time>
      </trkpt>
      <trkpt lat="38.9908800" lon="1.5713990">
        <ele>1.4</ele>
        <time>2020-02-23T09:46:02Z</time>
      </trkpt>
      <trkpt lat="38.9908850" lon="1.5714170">
        <ele>1.4</ele>
        <time>2020-02-23T09:46:03Z</time>
      </trkpt>
      <trkpt lat="38.9908840" lon="1.5714600">
        <ele>1.4</ele>
        <time>2020-02-23T09:46:04Z</time>
      </trkpt>
      <trkpt lat="38.9908810" lon="1.5714710">
        <ele>1.3</ele>
        <time>2020-02-23T09:46:05Z</time>
      </trkpt>
      <trkpt lat="38.9908880" lon="1.5715070">
        <ele>1.3</ele>
        <time>2020-02-23T09:46:06Z</time>
      </trkpt>
      <trkpt lat="38.9908920" lon="1.5715200">
        <ele>1.3</ele>
        <time>2020-02-23T09:46:07Z</time>
      </trkpt>
      <trkpt lat="38.9909120" lon="1.5715580">
        <ele>1.2</ele>
        <time>2020-02-23T09:46:08Z</time>
      </trkpt>
      <trkpt lat="38.9909190" lon="1.5715700">
        <ele>1.2</ele>
        <time>2020-02-23T09:46:09Z</time>
      </trkpt>
      <trkpt lat="38.9909390" lon="1.5716070">
        <ele>1.2</ele>
        <time>2020-02-23T09:46:10Z</time>
      </trkpt>
      <trkpt lat="38.9909460" lon="1.5716170">
        <ele>1.1</ele>
        <time>2020-02-23T09:46:11Z</time>
      </trkpt>
      <trkpt lat="38.9909670" lon="1.5716470">
        <ele>1.1</ele>
        <time>2020-02-23T09:46:12Z</time>
      </trkpt>
      <trkpt lat="38.9909710" lon="1.5716550">
        <ele>1.1</ele>
        <time>2020-02-23T09:46:13Z</time>
      </trkpt>
      <trkpt lat="38.9909850" lon="1.5716740">
        <ele>1.0</ele>
        <time>2020-02-23T09:46:14Z</time>
      </trkpt>
      <trkpt lat="38.9909910" lon="1.5716740">
        <ele>1.0</ele>
        <time>2020-02-23T09:46:15Z</time>
      </trkpt>
      <trkpt lat="38.9909980" lon="1.5716710">
        <ele>1.0</ele>
        <time>2020-02-23T09:46:16Z</time>
      </trkpt>
      <trkpt lat="38.9909910" lon="1.5716840">
        <ele>1.0</ele>
        <time>2020-02-23T09:46:17Z</time>
      </trkpt>
      <trkpt lat="38.9909940" lon="1.5716900">
        <ele>1.0</ele>
        <time>2020-02-23T09:46:18Z</time>
      </trkpt>
      <trkpt lat="38.9909970" lon="1.5716950">
        <ele>1.0</ele>
        <time>2020-02-23T09:46:19Z</time>
      </trkpt>
      <trkpt lat="38.9910010" lon="1.5717010">
        <ele>1.0</ele>
        <time>2020-02-23T09:46:20Z</time>
      </trkpt>
      <trkpt lat="38.9910040" lon="1.5717060">
        <ele>1.0</ele>
        <time>2020-02-23T09:46:21Z</time>
      </trkpt>
      <trkpt lat="38.9910070" lon="1.5717120">
        <ele>1.0</ele>
        <time>2020-02-23T09:46:22Z</time>
      </trkpt>
      <trkpt lat="38.9910100" lon="1.5717170">
        <ele>1.0</ele>
        <time>2020-02-23T09:46:23Z</time>
      </trkpt>
      <trkpt lat="38.9910130" lon="1.5717230">
        <ele>0.9</ele>
        <time>2020-02-23T09:46:24Z</time>
      </trkpt>
      <trkpt lat="38.9910160" lon="1.5717280">
        <ele>0.9</ele>
        <time>2020-02-23T09:46:25Z</time>
      </trkpt>
      <trkpt lat="38.9910190" lon="1.5717340">
        <ele>0.9</ele>
        <time>2020-02-23T09:46:26Z</time>
      </trkpt>
      <trkpt lat="38.9910230" lon="1.5717390">
        <ele>0.9</ele>
        <time>2020-02-23T09:46:27Z</time>
      </trkpt>
      <trkpt lat="38.9910260" lon="1.5717450">
        <ele>0.9</ele>
        <time>2020-02-23T09:46:28Z</time>
      </trkpt>
      <trkpt lat="38.9910290" lon="1.5717500">
        <ele>0.9</ele>
        <time>2020-02-23T09:46:59Z</time>
      </trkpt>
      <trkpt lat="38.9910320" lon="1.5717560">
        <ele>0.9</ele>
        <time>2020-02-23T09:47:00Z</time>
      </trkpt>
      <trkpt lat="38.9910540" lon="1.5717770">
        <ele>0.8</ele>
        <time>2020-02-23T09:47:01Z</time>
      </trkpt>
      <trkpt lat="38.9910710" lon="1.5718130">
        <ele>0.8</ele>
        <time>2020-02-23T09:47:02Z</time>
      </trkpt>
      <trkpt lat="38.9910750" lon="1.5718250">
        <ele>0.7</ele>
        <time>2020-02-23T09:47:03Z</time>
      </trkpt>
      <trkpt lat="38.9910770" lon="1.5718720">
        <ele>0.6</ele>
        <time>2020-02-23T09:47:04Z</time>
      </trkpt>
      <trkpt lat="38.9910730" lon="1.5718920">
        <ele>0.6</ele>
        <time>2020-02-23T09:47:05Z</time>
      </trkpt>
      <trkpt lat="38.9910760" lon="1.5719380">
        <ele>0.6</ele>
        <time>2020-02-23T09:47:06Z</time>
      </trkpt>
      <trkpt lat="38.9910790" lon="1.5719600">
        <ele>0.6</ele>
        <time>2020-02-23T09:47:07Z</time>
      </trkpt>
      <trkpt lat="38.9910940" lon="1.5719950">
        <ele>0.5</ele>
        <time>2020-02-23T09:47:08Z</time>
      </trkpt>
      <trkpt lat="38.9911070" lon="1.5720320">
        <ele>0.5</ele>
        <time>2020-02-23T09:47:09Z</time>
      </trkpt>
      <trkpt lat="38.9911160" lon="1.5720670">
        <ele>0.5</ele>
        <time>2020-02-23T09:47:10Z</time>
      </trkpt>
      <trkpt lat="38.9911320" lon="1.5720980">
        <ele>0.5</ele>
        <time>2020-02-23T09:47:11Z</time>
      </trkpt>
      <trkpt lat="38.9911510" lon="1.5721320">
        <ele>0.5</ele>
        <time>2020-02-23T09:47:12Z</time>
      </trkpt>
      <trkpt lat="38.9911770" lon="1.5721740">
        <ele>0.5</ele>
        <time>2020-02-23T09:47:13Z</time>
      </trkpt>
      <trkpt lat="38.9911850" lon="1.5721920">
        <ele>0.5</ele>
        <time>2020-02-23T09:47:14Z</time>
      </trkpt>
      <trkpt lat="38.9911940" lon="1.5722360">
        <ele>0.5</ele>
        <time>2020-02-23T09:47:15Z</time>
      </trkpt>
      <trkpt lat="38.9911890" lon="1.5722510">
        <ele>0.5</ele>
        <time>2020-02-23T09:47:16Z</time>
      </trkpt>
      <trkpt lat="38.9911600" lon="1.5722580">
        <ele>0.4</ele>
        <time>2020-02-23T09:47:17Z</time>
      </trkpt>
      <trkpt lat="38.9911420" lon="1.5722870">
        <ele>0.4</ele>
        <time>2020-02-23T09:47:18Z</time>
      </trkpt>
      <trkpt lat="38.9911560" lon="1.5723270">
        <ele>0.4</ele>
        <time>2020-02-23T09:47:19Z</time>
      </trkpt>
      <trkpt lat="38.9911650" lon="1.5723370">
        <ele>0.4</ele>
        <time>2020-02-23T09:47:20Z</time>
      </trkpt>
      <trkpt lat="38.9911820" lon="1.5723720">
        <ele>0.4</ele>
        <time>2020-02-23T09:47:21Z</time>
      </trkpt>
      <trkpt lat="38.9911840" lon="1.5723810">
        <ele>0.4</ele>
        <time>2020-02-23T09:47:22Z</time>
      </trkpt>
      <trkpt lat="38.9911970" lon="1.5724280">
        <ele>0.4</ele>
        <time>2020-02-23T09:47:23Z</time>
      </trkpt>
      <trkpt lat="38.9912000" lon="1.5724480">
        <ele>0.4</ele>
        <time>2020-02-23T09:47:24Z</time>
      </trkpt>
      <trkpt lat="38.9912190" lon="1.5724820">
        <ele>0.4</ele>
        <time>2020-02-23T09:47:25Z</time>
      </trkpt>
      <trkpt lat="38.9912400" lon="1.5725210">
        <ele>0.3</ele>
        <time>2020-02-23T09:47:26Z</time>
      </trkpt>
      <trkpt lat="38.9912450" lon="1.5725330">
        <ele>0.3</ele>
        <time>2020-02-23T09:47:27Z</time>
      </trkpt>
      <trkpt lat="38.9912680" lon="1.5725720">
        <ele>0.3</ele>
        <time>2020-02-23T09:47:28Z</time>
      </trkpt>
      <trkpt lat="38.9912750" lon="1.5725890">
        <ele>0.3</ele>
        <time>2020-02-23T09:47:29Z</time>
      </trkpt>
      <trkpt lat="38.9912820" lon="1.5726240">
        <ele>0.3</ele>
        <time>2020-02-23T09:47:30Z</time>
      </trkpt>
      <trkpt lat="38.9912920" lon="1.5726480">
        <ele>0.3</ele>
        <time>2020-02-23T09:47:31Z</time>
      </trkpt>
      <trkpt lat="38.9913010" lon="1.5726640">
        <ele>0.3</ele>
        <time>2020-02-23T09:47:32Z</time>
      </trkpt>
      <trkpt lat="38.9913200" lon="1.5726780">
        <ele>0.3</ele>
        <time>2020-02-23T09:47:33Z</time>
      </trkpt>
      <trkpt lat="38.9913270" lon="1.5726850">
        <ele>0.3</ele>
        <time>2020-02-23T09:47:34Z</time>
      </trkpt>
      <trkpt lat="38.9913330" lon="1.5726910">
        <ele>0.3</ele>
        <time>2020-02-23T09:47:35Z</time>
      </trkpt>
      <trkpt lat="38.9913500" lon="1.5726960">
        <ele>0.3</ele>
        <time>2020-02-23T09:47:36Z</time>
      </trkpt>
      <trkpt lat="38.9913580" lon="1.5726950">
        <ele>0.3</ele>
        <time>2020-02-23T09:47:37Z</time>
      </trkpt>
      <trkpt lat="38.9913660" lon="1.5726930">
        <ele>0.2</ele>
        <time>2020-02-23T09:47:38Z</time>
      </trkpt>
      <trkpt lat="38.9913740" lon="1.5726920">
        <ele>0.2</ele>
        <time>2020-02-23T09:47:39Z</time>
      </trkpt>
      <trkpt lat="38.9913900" lon="1.5726950">
        <ele>0.2</ele>
        <time>2020-02-23T09:47:40Z</time>
      </trkpt>
      <trkpt lat="38.9914040" lon="1.5727080">
        <ele>0.2</ele>
        <time>2020-02-23T09:47:41Z</time>
      </trkpt>
      <trkpt lat="38.9914300" lon="1.5727280">
        <ele>0.2</ele>
        <time>2020-02-23T09:47:42Z</time>
      </trkpt>
      <trkpt lat="38.9914370" lon="1.5727330">
        <ele>0.2</ele>
        <time>2020-02-23T09:47:43Z</time>
      </trkpt>
      <trkpt lat="38.9914570" lon="1.5727590">
        <ele>0.2</ele>
        <time>2020-02-23T09:47:44Z</time>
      </trkpt>
      <trkpt lat="38.9914840" lon="1.5727970">
        <ele>0.2</ele>
        <time>2020-02-23T09:47:45Z</time>
      </trkpt>
      <trkpt lat="38.9914920" lon="1.5728100">
        <ele>0.2</ele>
        <time>2020-02-23T09:47:46Z</time>
      </trkpt>
      <trkpt lat="38.9915030" lon="1.5728440">
        <ele>0.2</ele>
        <time>2020-02-23T09:47:47Z</time>
      </trkpt>
      <trkpt lat="38.9915080" lon="1.5728550">
        <ele>0.2</ele>
        <time>2020-02-23T09:47:48Z</time>
      </trkpt>
      <trkpt lat="38.9915130" lon="1.5729000">
        <ele>0.1</ele>
        <time>2020-02-23T09:47:49Z</time>
      </trkpt>
      <trkpt lat="38.9915140" lon="1.5729190">
        <ele>0.1</ele>
        <time>2020-02-23T09:47:50Z</time>
      </trkpt>
      <trkpt lat="38.9915150" lon="1.5729540">
        <ele>0.1</ele>
        <time>2020-02-23T09:47:51Z</time>
      </trkpt>
      <trkpt lat="38.9915260" lon="1.5729930">
        <ele>0.1</ele>
        <time>2020-02-23T09:47:52Z</time>
      </trkpt>
      <trkpt lat="38.9915300" lon="1.5730060">
        <ele>0.1</ele>
        <time>2020-02-23T09:47:53Z</time>
      </trkpt>
      <trkpt lat="38.9915310" lon="1.5730400">
        <ele>0.1</ele>
        <time>2020-02-23T09:47:54Z</time>
      </trkpt>
      <trkpt lat="38.9915290" lon="1.5730550">
        <ele>0.1</ele>
        <time>2020-02-23T09:47:55Z</time>
      </trkpt>
      <trkpt lat="38.9915160" lon="1.5731010">
        <ele>0.1</ele>
        <time>2020-02-23T09:47:56Z</time>
      </trkpt>
      <trkpt lat="38.9915120" lon="1.5731160">
        <ele>0.1</ele>
        <time>2020-02-23T09:47:57Z</time>
      </trkpt>
      <trkpt lat="38.9914970" lon="1.5731630">
        <ele>0.0</ele>
        <time>2020-02-23T09:47:58Z</time>
      </trkpt>
      <trkpt lat="38.9914930" lon="1.5731780">
        <ele>0.0</ele>
        <time>2020-02-23T09:47:59Z</time>
      </trkpt>
      <trkpt lat="38.9914780" lon="1.5732160">
        <ele>0.0</ele>
        <time>2020-02-23T09:48:00Z</time>
      </trkpt>
      <trkpt lat="38.9914750" lon="1.5732280">
        <ele>0.0</ele>
        <time>2020-02-23T09:48:01Z</time>
      </trkpt>
      <trkpt lat="38.9914590" lon="1.5732580">
        <ele>0.0</ele>
        <time>2020-02-23T09:48:02Z</time>
      </trkpt>
      <trkpt lat="38.9914540" lon="1.5732660">
        <ele>0.0</ele>
        <time>2020-02-23T09:48:03Z</time>
      </trkpt>
      <trkpt lat="38.9914330" lon="1.5732970">
        <ele>0.0</ele>
        <time>2020-02-23T09:48:04Z</time>
      </trkpt>
      <trkpt lat="38.9914250" lon="1.5733050">
        <ele>0.0</ele>
        <time>2020-02-23T09:48:05Z</time>
      </trkpt>
      <trkpt lat="38.9914210" lon="1.5733470">
        <ele>0.0</ele>
        <time>2020-02-23T09:48:06Z</time>
      </trkpt>
      <trkpt lat="38.9914230" lon="1.5733620">
        <ele>-0.1</ele>
        <time>2020-02-23T09:48:07Z</time>
      </trkpt>
      <trkpt lat="38.9914250" lon="1.5733830">
        <ele>-0.1</ele>
        <time>2020-02-23T09:48:08Z</time>
      </trkpt>
      <trkpt lat="38.9914380" lon="1.5733960">
        <ele>-0.1</ele>
        <time>2020-02-23T09:48:09Z</time>
      </trkpt>
      <trkpt lat="38.9914490" lon="1.5734290">
        <ele>-0.1</ele>
        <time>2020-02-23T09:48:10Z</time>
      </trkpt>
      <trkpt lat="38.9914540" lon="1.5734410">
        <ele>-0.1</ele>
        <time>2020-02-23T09:48:11Z</time>
      </trkpt>
      <trkpt lat="38.9914640" lon="1.5734810">
        <ele>-0.1</ele>
        <time>2020-02-23T09:48:12Z</time>
      </trkpt>
      <trkpt lat="38.9914710" lon="1.5735220">
        <ele>-0.2</ele>
        <time>2020-02-23T09:48:13Z</time>
      </trkpt>
      <trkpt lat="38.9914690" lon="1.5735380">
        <ele>-0.2</ele>
        <time>2020-02-23T09:48:14Z</time>
      </trkpt>
      <trkpt lat="38.9914720" lon="1.5735790">
        <ele>-0.2</ele>
        <time>2020-02-23T09:48:15Z</time>
      </trkpt>
      <trkpt lat="38.9914730" lon="1.5735940">
        <ele>-0.2</ele>
        <time>2020-02-23T09:48:16Z</time>
      </trkpt>
      <trkpt lat="38.9914900" lon="1.5736330">
        <ele>-0.2</ele>
        <time>2020-02-23T09:48:17Z</time>
      </trkpt>
      <trkpt lat="38.9914960" lon="1.5736470">
        <ele>-0.2</ele>
        <time>2020-02-23T09:48:18Z</time>
      </trkpt>
      <trkpt lat="38.9915120" lon="1.5736830">
        <ele>-0.3</ele>
        <time>2020-02-23T09:48:19Z</time>
      </trkpt>
      <trkpt lat="38.9915140" lon="1.5736960">
        <ele>-0.3</ele>
        <time>2020-02-23T09:48:20Z</time>
      </trkpt>
      <trkpt lat="38.9915170" lon="1.5737340">
        <ele>-0.3</ele>
        <time>2020-02-23T09:48:21Z</time>
      </trkpt>
      <trkpt lat="38.9915160" lon="1.5737480">
        <ele>-0.3</ele>
        <time>2020-02-23T09:48:22Z</time>
      </trkpt>
      <trkpt lat="38.9915200" lon="1.5737830">
        <ele>-0.3</ele>
        <time>2020-02-23T09:48:23Z</time>
      </trkpt>
      <trkpt lat="38.9915110" lon="1.5738220">
        <ele>-0.4</ele>
        <time>2020-02-23T09:48:24Z</time>
      </trkpt>
      <trkpt lat="38.9915060" lon="1.5738350">
        <ele>-0.4</ele>
        <time>2020-02-23T09:48:25Z</time>
      </trkpt>
      <trkpt lat="38.9914890" lon="1.5738770">
        <ele>-0.4</ele>
        <time>2020-02-23T09:48:26Z</time>
      </trkpt>
      <trkpt lat="38.9914840" lon="1.5738910">
        <ele>-0.5</ele>
        <time>2020-02-23T09:48:27Z</time>
      </trkpt>
      <trkpt lat="38.9914810" lon="1.5739350">
        <ele>-0.5</ele>
        <time>2020-02-23T09:48:28Z</time>
      </trkpt>
      <trkpt lat="38.9914790" lon="1.5739510">
        <ele>-0.5</ele>
        <time>2020-02-23T09:48:29Z</time>
      </trkpt>
      <trkpt lat="38.9914810" lon="1.5739970">
        <ele>-0.6</ele>
        <time>2020-02-23T09:48:30Z</time>
      </trkpt>
      <trkpt lat="38.9914830" lon="1.5740090">
        <ele>-0.6</ele>
        <time>2020-02-23T09:48:31Z</time>
      </trkpt>
      <trkpt lat="38.9914820" lon="1.5740500">
        <ele>-0.6</ele>
        <time>2020-02-23T09:48:32Z</time>
      </trkpt>
      <trkpt lat="38.9914800" lon="1.5740640">
        <ele>-0.6</ele>
        <time>2020-02-23T09:48:33Z</time>
      </trkpt>
      <trkpt lat="38.9914530" lon="1.5740830">
        <ele>-0.6</ele>
        <time>2020-02-23T09:48:34Z</time>
      </trkpt>
      <trkpt lat="38.9914320" lon="1.5741050">
        <ele>-0.6</ele>
        <time>2020-02-23T09:48:35Z</time>
      </trkpt>
      <trkpt lat="38.9914210" lon="1.5741440">
        <ele>-0.6</ele>
        <time>2020-02-23T09:48:36Z</time>
      </trkpt>
      <trkpt lat="38.9914130" lon="1.5741570">
        <ele>-0.6</ele>
        <time>2020-02-23T09:48:37Z</time>
      </trkpt>
      <trkpt lat="38.9913880" lon="1.5741880">
        <ele>-0.6</ele>
        <time>2020-02-23T09:48:38Z</time>
      </trkpt>
      <trkpt lat="38.9913800" lon="1.5742000">
        <ele>-0.6</ele>
        <time>2020-02-23T09:48:39Z</time>
      </trkpt>
      <trkpt lat="38.9913590" lon="1.5742300">
        <ele>-0.6</ele>
        <time>2020-02-23T09:48:40Z</time>
      </trkpt>
      <trkpt lat="38.9913450" lon="1.5742780">
        <ele>-0.6</ele>
        <time>2020-02-23T09:48:41Z</time>
      </trkpt>
      <trkpt lat="38.9913410" lon="1.5742940">
        <ele>-0.5</ele>
        <time>2020-02-23T09:48:42Z</time>
      </trkpt>
      <trkpt lat="38.9913250" lon="1.5743360">
        <ele>-0.5</ele>
        <time>2020-02-23T09:48:43Z</time>
      </trkpt>
      <trkpt lat="38.9913010" lon="1.5743690">
        <ele>-0.5</ele>
        <time>2020-02-23T09:48:44Z</time>
      </trkpt>
      <trkpt lat="38.9912960" lon="1.5743810">
        <ele>-0.5</ele>
        <time>2020-02-23T09:48:45Z</time>
      </trkpt>
      <trkpt lat="38.9912710" lon="1.5744250">
        <ele>-0.5</ele>
        <time>2020-02-23T09:48:46Z</time>
      </trkpt>
      <trkpt lat="38.9912570" lon="1.5744380">
        <ele>-0.5</ele>
        <time>2020-02-23T09:48:47Z</time>
      </trkpt>
      <trkpt lat="38.9912370" lon="1.5744630">
        <ele>-0.5</ele>
        <time>2020-02-23T09:48:48Z</time>
      </trkpt>
      <trkpt lat="38.9912140" lon="1.5744870">
        <ele>-0.4</ele>
        <time>2020-02-23T09:48:49Z</time>
      </trkpt>
      <trkpt lat="38.9911920" lon="1.5745340">
        <ele>-0.4</ele>
        <time>2020-02-23T09:48:50Z</time>
      </trkpt>
      <trkpt lat="38.9911840" lon="1.5745510">
        <ele>-0.4</ele>
        <time>2020-02-23T09:48:51Z</time>
      </trkpt>
      <trkpt lat="38.9911670" lon="1.5745800">
        <ele>-0.4</ele>
        <time>2020-02-23T09:48:52Z</time>
      </trkpt>
      <trkpt lat="38.9911490" lon="1.5746070">
        <ele>-0.3</ele>
        <time>2020-02-23T09:48:53Z</time>
      </trkpt>
      <trkpt lat="38.9911340" lon="1.5746370">
        <ele>-0.3</ele>
        <time>2020-02-23T09:48:54Z</time>
      </trkpt>
      <trkpt lat="38.9911330" lon="1.5746770">
        <ele>-0.3</ele>
        <time>2020-02-23T09:48:55Z</time>
      </trkpt>
      <trkpt lat="38.9911480" lon="1.5747130">
        <ele>-0.1</ele>
        <time>2020-02-23T09:48:56Z</time>
      </trkpt>
      <trkpt lat="38.9911620" lon="1.5747200">
        <ele>-0.1</ele>
        <time>2020-02-23T09:48:57Z</time>
      </trkpt>
      <trkpt lat="38.9911870" lon="1.5747450">
        <ele>0.0</ele>
        <time>2020-02-23T09:48:58Z</time>
      </trkpt>
      <trkpt lat="38.9912090" lon="1.5747790">
        <ele>0.1</ele>
        <time>2020-02-23T09:48:59Z</time>
      </trkpt>
      <trkpt lat="38.9912140" lon="1.5747860">
        <ele>0.2</ele>
        <time>2020-02-23T09:49:00Z</time>
      </trkpt>
      <trkpt lat="38.9912310" lon="1.5748170">
        <ele>0.3</ele>
        <time>2020-02-23T09:49:01Z</time>
      </trkpt>
      <trkpt lat="38.9912360" lon="1.5748270">
        <ele>0.3</ele>
        <time>2020-02-23T09:49:02Z</time>
      </trkpt>
      <trkpt lat="38.9912580" lon="1.5748470">
        <ele>0.4</ele>
        <time>2020-02-23T09:49:03Z</time>
      </trkpt>
      <trkpt lat="38.9912700" lon="1.5748600">
        <ele>0.5</ele>
        <time>2020-02-23T09:49:04Z</time>
      </trkpt>
      <trkpt lat="38.9912810" lon="1.5748720">
        <ele>0.5</ele>
        <time>2020-02-23T09:49:05Z</time>
      </trkpt>
      <trkpt lat="38.9913070" lon="1.5748940">
        <ele>0.7</ele>
        <time>2020-02-23T09:49:06Z</time>
      </trkpt>
      <trkpt lat="38.9913310" lon="1.5749190">
        <ele>0.8</ele>
        <time>2020-02-23T09:49:07Z</time>
      </trkpt>
      <trkpt lat="38.9913570" lon="1.5749530">
        <ele>1.0</ele>
        <time>2020-02-23T09:49:08Z</time>
      </trkpt>
      <trkpt lat="38.9913630" lon="1.5749630">
        <ele>1.0</ele>
        <time>2020-02-23T09:49:09Z</time>
      </trkpt>
      <trkpt lat="38.9913870" lon="1.5749960">
        <ele>1.2</ele>
        <time>2020-02-23T09:49:10Z</time>
      </trkpt>
      <trkpt lat="38.9913950" lon="1.5750090">
        <ele>1.2</ele>
        <time>2020-02-23T09:49:11Z</time>
      </trkpt>
      <trkpt lat="38.9914180" lon="1.5750350">
        <ele>1.3</ele>
        <time>2020-02-23T09:49:12Z</time>
      </trkpt>
      <trkpt lat="38.9914400" lon="1.5750580">
        <ele>1.4</ele>
        <time>2020-02-23T09:49:13Z</time>
      </trkpt>
      <trkpt lat="38.9914600" lon="1.5750850">
        <ele>1.5</ele>
        <time>2020-02-23T09:49:14Z</time>
      </trkpt>
      <trkpt lat="38.9914850" lon="1.5751090">
        <ele>1.5</ele>
        <time>2020-02-23T09:49:15Z</time>
      </trkpt>
      <trkpt lat="38.9915140" lon="1.5751420">
        <ele>1.6</ele>
        <time>2020-02-23T09:49:16Z</time>
      </trkpt>
      <trkpt lat="38.9915400" lon="1.5751740">
        <ele>1.6</ele>
        <time>2020-02-23T09:49:17Z</time>
      </trkpt>
      <trkpt lat="38.9915620" lon="1.5751970">
        <ele>1.6</ele>
        <time>2020-02-23T09:49:18Z</time>
      </trkpt>
      <trkpt lat="38.9915870" lon="1.5752190">
        <ele>1.6</ele>
        <time>2020-02-23T09:49:19Z</time>
      </trkpt>
      <trkpt lat="38.9916130" lon="1.5752400">
        <ele>1.6</ele>
        <time>2020-02-23T09:49:20Z</time>
      </trkpt>
      <trkpt lat="38.9916410" lon="1.5752720">
        <ele>1.6</ele>
        <time>2020-02-23T09:49:21Z</time>
      </trkpt>
      <trkpt lat="38.9916500" lon="1.5752840">
        <ele>1.6</ele>
        <time>2020-02-23T09:49:22Z</time>
      </trkpt>
      <trkpt lat="38.9916670" lon="1.5753130">
        <ele>1.6</ele>
        <time>2020-02-23T09:49:23Z</time>
      </trkpt>
      <trkpt lat="38.9916790" lon="1.5753330">
        <ele>1.6</ele>
        <time>2020-02-23T09:49:24Z</time>
      </trkpt>
      <trkpt lat="38.9916850" lon="1.5753480">
        <ele>1.6</ele>
        <time>2020-02-23T09:49:25Z</time>
      </trkpt>
      <trkpt lat="38.9916910" lon="1.5753620">
        <ele>1.6</ele>
        <time>2020-02-23T09:49:26Z</time>
      </trkpt>
      <trkpt lat="38.9916910" lon="1.5753720">
        <ele>1.6</ele>
        <time>2020-02-23T09:49:27Z</time>
      </trkpt>
      <trkpt lat="38.9916910" lon="1.5753630">
        <ele>1.6</ele>
        <time>2020-02-23T09:49:28Z</time>
      </trkpt>
      <trkpt lat="38.9916880" lon="1.5753720">
        <ele>1.6</ele>
        <time>2020-02-23T09:49:29Z</time>
      </trkpt>
      <trkpt lat="38.9916980" lon="1.5753880">
        <ele>1.6</ele>
        <time>2020-02-23T09:49:30Z</time>
      </trkpt>
      <trkpt lat="38.9916960" lon="1.5754120">
        <ele>1.7</ele>
        <time>2020-02-23T09:49:31Z</time>
      </trkpt>
      <trkpt lat="38.9916960" lon="1.5754310">
        <ele>1.8</ele>
        <time>2020-02-23T09:49:32Z</time>
      </trkpt>
      <trkpt lat="38.9916920" lon="1.5754450">
        <ele>1.8</ele>
        <time>2020-02-23T09:49:33Z</time>
      </trkpt>
      <trkpt lat="38.9916930" lon="1.5754720">
        <ele>1.8</ele>
        <time>2020-02-23T09:49:34Z</time>
      </trkpt>
      <trkpt lat="38.9916930" lon="1.5754920">
        <ele>1.8</ele>
        <time>2020-02-23T09:49:35Z</time>
      </trkpt>
      <trkpt lat="38.9916890" lon="1.5755190">
        <ele>1.9</ele>
        <time>2020-02-23T09:49:36Z</time>
      </trkpt>
      <trkpt lat="38.9916850" lon="1.5755660">
        <ele>1.9</ele>
        <time>2020-02-23T09:49:37Z</time>
      </trkpt>
      <trkpt lat="38.9916860" lon="1.5755850">
        <ele>2.0</ele>
        <time>2020-02-23T09:49:38Z</time>
      </trkpt>
      <trkpt lat="38.9916820" lon="1.5756220">
        <ele>2.1</ele>
        <time>2020-02-23T09:49:39Z</time>
      </trkpt>
      <trkpt lat="38.9916820" lon="1.5756630">
        <ele>2.2</ele>
        <time>2020-02-23T09:49:40Z</time>
      </trkpt>
      <trkpt lat="38.9916840" lon="1.5757020">
        <ele>2.3</ele>
        <time>2020-02-23T09:49:41Z</time>
      </trkpt>
      <trkpt lat="38.9916820" lon="1.5757180">
        <ele>2.3</ele>
        <time>2020-02-23T09:49:42Z</time>
      </trkpt>
      <trkpt lat="38.9916870" lon="1.5757600">
        <ele>2.5</ele>
        <time>2020-02-23T09:49:43Z</time>
      </trkpt>
      <trkpt lat="38.9916900" lon="1.5757760">
        <ele>2.5</ele>
        <time>2020-02-23T09:49:44Z</time>
      </trkpt>
      <trkpt lat="38.9916940" lon="1.5758190">
        <ele>2.7</ele>
        <time>2020-02-23T09:49:45Z</time>
      </trkpt>
      <trkpt lat="38.9916960" lon="1.5758310">
        <ele>2.8</ele>
        <time>2020-02-23T09:49:46Z</time>
      </trkpt>
      <trkpt lat="38.9916990" lon="1.5758790">
        <ele>2.9</ele>
        <time>2020-02-23T09:49:47Z</time>
      </trkpt>
      <trkpt lat="38.9917010" lon="1.5758920">
        <ele>3.0</ele>
        <time>2020-02-23T09:49:48Z</time>
      </trkpt>
      <trkpt lat="38.9917030" lon="1.5759290">
        <ele>3.1</ele>
        <time>2020-02-23T09:49:49Z</time>
      </trkpt>
      <trkpt lat="38.9917090" lon="1.5759720">
        <ele>3.2</ele>
        <time>2020-02-23T09:49:50Z</time>
      </trkpt>
      <trkpt lat="38.9917100" lon="1.5760080">
        <ele>3.3</ele>
        <time>2020-02-23T09:49:51Z</time>
      </trkpt>
      <trkpt lat="38.9917180" lon="1.5760590">
        <ele>3.4</ele>
        <time>2020-02-23T09:49:52Z</time>
      </trkpt>
      <trkpt lat="38.9917220" lon="1.5760780">
        <ele>3.5</ele>
        <time>2020-02-23T09:49:53Z</time>
      </trkpt>
      <trkpt lat="38.9917310" lon="1.5761210">
        <ele>3.6</ele>
        <time>2020-02-23T09:49:54Z</time>
      </trkpt>
      <trkpt lat="38.9917530" lon="1.5761510">
        <ele>3.7</ele>
        <time>2020-02-23T09:49:55Z</time>
      </trkpt>
      <trkpt lat="38.9917680" lon="1.5762040">
        <ele>3.9</ele>
        <time>2020-02-23T09:49:56Z</time>
      </trkpt>
      <trkpt lat="38.9917830" lon="1.5762370">
        <ele>4.1</ele>
        <time>2020-02-23T09:49:57Z</time>
      </trkpt>
      <trkpt lat="38.9918040" lon="1.5762670">
        <ele>4.2</ele>
        <time>2020-02-23T09:49:58Z</time>
      </trkpt>
      <trkpt lat="38.9918290" lon="1.5762960">
        <ele>4.3</ele>
        <time>2020-02-23T09:49:59Z</time>
      </trkpt>
      <trkpt lat="38.9918570" lon="1.5763160">
        <ele>4.3</ele>
        <time>2020-02-23T09:50:00Z</time>
      </trkpt>
      <trkpt lat="38.9918850" lon="1.5763420">
        <ele>4.4</ele>
        <time>2020-02-23T09:50:01Z</time>
      </trkpt>
      <trkpt lat="38.9919140" lon="1.5763570">
        <ele>4.4</ele>
        <time>2020-02-23T09:50:02Z</time>
      </trkpt>
      <trkpt lat="38.9919490" lon="1.5763600">
        <ele>4.5</ele>
        <time>2020-02-23T09:50:03Z</time>
      </trkpt>
      <trkpt lat="38.9919790" lon="1.5763710">
        <ele>4.5</ele>
        <time>2020-02-23T09:50:04Z</time>
      </trkpt>
      <trkpt lat="38.9920090" lon="1.5763810">
        <ele>4.6</ele>
        <time>2020-02-23T09:50:05Z</time>
      </trkpt>
      <trkpt lat="38.9920380" lon="1.5764000">
        <ele>4.6</ele>
        <time>2020-02-23T09:50:06Z</time>
      </trkpt>
      <trkpt lat="38.9920750" lon="1.5764130">
        <ele>4.6</ele>
        <time>2020-02-23T09:50:07Z</time>
      </trkpt>
      <trkpt lat="38.9921100" lon="1.5764280">
        <ele>4.7</ele>
        <time>2020-02-23T09:50:08Z</time>
      </trkpt>
      <trkpt lat="38.9921490" lon="1.5764440">
        <ele>4.7</ele>
        <time>2020-02-23T09:50:09Z</time>
      </trkpt>
      <trkpt lat="38.9921800" lon="1.5764500">
        <ele>4.8</ele>
        <time>2020-02-23T09:50:10Z</time>
      </trkpt>
      <trkpt lat="38.9922140" lon="1.5764660">
        <ele>4.8</ele>
        <time>2020-02-23T09:50:11Z</time>
      </trkpt>
      <trkpt lat="38.9922550" lon="1.5764790">
        <ele>4.8</ele>
        <time>2020-02-23T09:50:12Z</time>
      </trkpt>
      <trkpt lat="38.9922970" lon="1.5764860">
        <ele>4.8</ele>
        <time>2020-02-23T09:50:13Z</time>
      </trkpt>
      <trkpt lat="38.9923320" lon="1.5764950">
        <ele>4.8</ele>
        <time>2020-02-23T09:50:14Z</time>
      </trkpt>
      <trkpt lat="38.9923740" lon="1.5765090">
        <ele>4.8</ele>
        <time>2020-02-23T09:50:15Z</time>
      </trkpt>
      <trkpt lat="38.9924160" lon="1.5765120">
        <ele>4.8</ele>
        <time>2020-02-23T09:50:16Z</time>
      </trkpt>
      <trkpt lat="38.9924560" lon="1.5765170">
        <ele>4.8</ele>
        <time>2020-02-23T09:50:17Z</time>
      </trkpt>
      <trkpt lat="38.9924930" lon="1.5765260">
        <ele>4.9</ele>
        <time>2020-02-23T09:50:18Z</time>
      </trkpt>
      <trkpt lat="38.9925300" lon="1.5765330">
        <ele>4.9</ele>
        <time>2020-02-23T09:50:19Z</time>
      </trkpt>
      <trkpt lat="38.9925670" lon="1.5765370">
        <ele>4.9</ele>
        <time>2020-02-23T09:50:20Z</time>
      </trkpt>
      <trkpt lat="38.9926040" lon="1.5765510">
        <ele>4.9</ele>
        <time>2020-02-23T09:50:21Z</time>
      </trkpt>
      <trkpt lat="38.9926380" lon="1.5765630">
        <ele>4.9</ele>
        <time>2020-02-23T09:50:22Z</time>
      </trkpt>
      <trkpt lat="38.9926740" lon="1.5765710">
        <ele>5.0</ele>
        <time>2020-02-23T09:50:23Z</time>
      </trkpt>
      <trkpt lat="38.9927190" lon="1.5765810">
        <ele>5.0</ele>
        <time>2020-02-23T09:50:24Z</time>
      </trkpt>
      <trkpt lat="38.9927600" lon="1.5765850">
        <ele>5.1</ele>
        <time>2020-02-23T09:50:25Z</time>
      </trkpt>
      <trkpt lat="38.9927980" lon="1.5765930">
        <ele>5.1</ele>
        <time>2020-02-23T09:50:26Z</time>
      </trkpt>
      <trkpt lat="38.9928310" lon="1.5766020">
        <ele>5.2</ele>
        <time>2020-02-23T09:50:27Z</time>
      </trkpt>
      <trkpt lat="38.9928750" lon="1.5766060">
        <ele>5.3</ele>
        <time>2020-02-23T09:50:28Z</time>
      </trkpt>
      <trkpt lat="38.9929040" lon="1.5766040">
        <ele>5.3</ele>
        <time>2020-02-23T09:50:29Z</time>
      </trkpt>
      <trkpt lat="38.9929410" lon="1.5766280">
        <ele>5.4</ele>
        <time>2020-02-23T09:50:30Z</time>
      </trkpt>
      <trkpt lat="38.9929720" lon="1.5766310">
        <ele>5.4</ele>
        <time>2020-02-23T09:50:31Z</time>
      </trkpt>
      <trkpt lat="38.9930060" lon="1.5766440">
        <ele>5.5</ele>
        <time>2020-02-23T09:50:32Z</time>
      </trkpt>
      <trkpt lat="38.9930370" lon="1.5766580">
        <ele>5.6</ele>
        <time>2020-02-23T09:50:33Z</time>
      </trkpt>
      <trkpt lat="38.9930680" lon="1.5766700">
        <ele>5.6</ele>
        <time>2020-02-23T09:50:34Z</time>
      </trkpt>
      <trkpt lat="38.9930960" lon="1.5766740">
        <ele>5.7</ele>
        <time>2020-02-23T09:50:35Z</time>
      </trkpt>
      <trkpt lat="38.9931380" lon="1.5766920">
        <ele>5.8</ele>
        <time>2020-02-23T09:50:36Z</time>
      </trkpt>
      <trkpt lat="38.9931550" lon="1.5766990">
        <ele>5.8</ele>
        <time>2020-02-23T09:50:37Z</time>
      </trkpt>
      <trkpt lat="38.9931920" lon="1.5767030">
        <ele>6.0</ele>
        <time>2020-02-23T09:50:38Z</time>
      </trkpt>
      <trkpt lat="38.9932280" lon="1.5767170">
        <ele>6.1</ele>
        <time>2020-02-23T09:50:39Z</time>
      </trkpt>
      <trkpt lat="38.9932560" lon="1.5767310">
        <ele>6.2</ele>
        <time>2020-02-23T09:50:40Z</time>
      </trkpt>
      <trkpt lat="38.9932870" lon="1.5767490">
        <ele>6.4</ele>
        <time>2020-02-23T09:50:41Z</time>
      </trkpt>
      <trkpt lat="38.9933230" lon="1.5767650">
        <ele>6.5</ele>
        <time>2020-02-23T09:50:42Z</time>
      </trkpt>
      <trkpt lat="38.9933350" lon="1.5767710">
        <ele>6.6</ele>
        <time>2020-02-23T09:50:43Z</time>
      </trkpt>
      <trkpt lat="38.9933670" lon="1.5767840">
        <ele>6.7</ele>
        <time>2020-02-23T09:50:44Z</time>
      </trkpt>
      <trkpt lat="38.9933990" lon="1.5767980">
        <ele>6.9</ele>
        <time>2020-02-23T09:50:45Z</time>
      </trkpt>
      <trkpt lat="38.9934290" lon="1.5768230">
        <ele>7.1</ele>
        <time>2020-02-23T09:50:46Z</time>
      </trkpt>
      <trkpt lat="38.9934620" lon="1.5768470">
        <ele>7.3</ele>
        <time>2020-02-23T09:50:47Z</time>
      </trkpt>
      <trkpt lat="38.9934920" lon="1.5768630">
        <ele>7.5</ele>
        <time>2020-02-23T09:50:48Z</time>
      </trkpt>
      <trkpt lat="38.9935200" lon="1.5768730">
        <ele>7.7</ele>
        <time>2020-02-23T09:50:49Z</time>
      </trkpt>
      <trkpt lat="38.9935530" lon="1.5768810">
        <ele>7.9</ele>
        <time>2020-02-23T09:50:50Z</time>
      </trkpt>
      <trkpt lat="38.9935800" lon="1.5768940">
        <ele>8.0</ele>
        <time>2020-02-23T09:50:51Z</time>
      </trkpt>
      <trkpt lat="38.9936060" lon="1.5769130">
        <ele>8.3</ele>
        <time>2020-02-23T09:50:52Z</time>
      </trkpt>
      <trkpt lat="38.9936390" lon="1.5769420">
        <ele>8.6</ele>
        <time>2020-02-23T09:50:53Z</time>
      </trkpt>
      <trkpt lat="38.9936770" lon="1.5769520">
        <ele>8.9</ele>
        <time>2020-02-23T09:50:54Z</time>
      </trkpt>
      <trkpt lat="38.9936990" lon="1.5769920">
        <ele>9.2</ele>
        <time>2020-02-23T09:50:55Z</time>
      </trkpt>
      <trkpt lat="38.9937070" lon="1.5770040">
        <ele>9.3</ele>
        <time>2020-02-23T09:50:56Z</time>
      </trkpt>
      <trkpt lat="38.9937360" lon="1.5770280">
        <ele>9.5</ele>
        <time>2020-02-23T09:50:57Z</time>
      </trkpt>
      <trkpt lat="38.9937690" lon="1.5770570">
        <ele>9.8</ele>
        <time>2020-02-23T09:50:58Z</time>
      </trkpt>
      <trkpt lat="38.9938000" lon="1.5770870">
        <ele>10.0</ele>
        <time>2020-02-23T09:50:59Z</time>
      </trkpt>
      <trkpt lat="38.9938290" lon="1.5771080">
        <ele>10.1</ele>
        <time>2020-02-23T09:51:00Z</time>
      </trkpt>
      <trkpt lat="38.9938580" lon="1.5771310">
        <ele>10.3</ele>
        <time>2020-02-23T09:51:01Z</time>
      </trkpt>
      <trkpt lat="38.9938880" lon="1.5771590">
        <ele>10.4</ele>
        <time>2020-02-23T09:51:02Z</time>
      </trkpt>
      <trkpt lat="38.9939180" lon="1.5771760">
        <ele>10.6</ele>
        <time>2020-02-23T09:51:03Z</time>
      </trkpt>
      <trkpt lat="38.9939460" lon="1.5771920">
        <ele>10.7</ele>
        <time>2020-02-23T09:51:04Z</time>
      </trkpt>
      <trkpt lat="38.9939750" lon="1.5772150">
        <ele>10.9</ele>
        <time>2020-02-23T09:51:05Z</time>
      </trkpt>
      <trkpt lat="38.9940050" lon="1.5772330">
        <ele>11.0</ele>
        <time>2020-02-23T09:51:06Z</time>
      </trkpt>
      <trkpt lat="38.9940390" lon="1.5772570">
        <ele>10.9</ele>
        <time>2020-02-23T09:51:07Z</time>
      </trkpt>
      <trkpt lat="38.9940740" lon="1.5772680">
        <ele>10.8</ele>
        <time>2020-02-23T09:51:08Z</time>
      </trkpt>
      <trkpt lat="38.9941110" lon="1.5772820">
        <ele>10.8</ele>
        <time>2020-02-23T09:51:09Z</time>
      </trkpt>
      <trkpt lat="38.9941540" lon="1.5773090">
        <ele>10.7</ele>
        <time>2020-02-23T09:51:10Z</time>
      </trkpt>
      <trkpt lat="38.9941920" lon="1.5773260">
        <ele>10.7</ele>
        <time>2020-02-23T09:51:11Z</time>
      </trkpt>
      <trkpt lat="38.9942390" lon="1.5773480">
        <ele>10.7</ele>
        <time>2020-02-23T09:51:12Z</time>
      </trkpt>
      <trkpt lat="38.9942880" lon="1.5773810">
        <ele>10.7</ele>
        <time>2020-02-23T09:51:13Z</time>
      </trkpt>
      <trkpt lat="38.9943340" lon="1.5774080">
        <ele>10.7</ele>
        <time>2020-02-23T09:51:14Z</time>
      </trkpt>
      <trkpt lat="38.9943930" lon="1.5774310">
        <ele>10.7</ele>
        <time>2020-02-23T09:51:15Z</time>
      </trkpt>
      <trkpt lat="38.9944470" lon="1.5774470">
        <ele>10.7</ele>
        <time>2020-02-23T09:51:16Z</time>
      </trkpt>
      <trkpt lat="38.9944870" lon="1.5774590">
        <ele>10.7</ele>
        <time>2020-02-23T09:51:17Z</time>
      </trkpt>
      <trkpt lat="38.9945390" lon="1.5774720">
        <ele>10.7</ele>
        <time>2020-02-23T09:51:18Z</time>
      </trkpt>
      <trkpt lat="38.9945820" lon="1.5774860">
        <ele>10.7</ele>
        <time>2020-02-23T09:51:19Z</time>
      </trkpt>
      <trkpt lat="38.9946310" lon="1.5775130">
        <ele>10.6</ele>
        <time>2020-02-23T09:51:20Z</time>
      </trkpt>
      <trkpt lat="38.9946810" lon="1.5775210">
        <ele>10.6</ele>
        <time>2020-02-23T09:51:21Z</time>
      </trkpt>
      <trkpt lat="38.9947210" lon="1.5775330">
        <ele>10.6</ele>
        <time>2020-02-23T09:51:22Z</time>
      </trkpt>
      <trkpt lat="38.9947710" lon="1.5775390">
        <ele>10.5</ele>
        <time>2020-02-23T09:51:23Z</time>
      </trkpt>
      <trkpt lat="38.9948320" lon="1.5775540">
        <ele>10.5</ele>
        <time>2020-02-23T09:51:24Z</time>
      </trkpt>
      <trkpt lat="38.9948830" lon="1.5775690">
        <ele>10.4</ele>
        <time>2020-02-23T09:51:25Z</time>
      </trkpt>
      <trkpt lat="38.9949320" lon="1.5775930">
        <ele>10.4</ele>
        <time>2020-02-23T09:51:26Z</time>
      </trkpt>
      <trkpt lat="38.9949820" lon="1.5776030">
        <ele>10.4</ele>
        <time>2020-02-23T09:51:27Z</time>
      </trkpt>
      <trkpt lat="38.9950200" lon="1.5776050">
        <ele>10.3</ele>
        <time>2020-02-23T09:51:28Z</time>
      </trkpt>
      <trkpt lat="38.9950690" lon="1.5776150">
        <ele>10.2</ele>
        <time>2020-02-23T09:51:29Z</time>
      </trkpt>
      <trkpt lat="38.9951290" lon="1.5776300">
        <ele>10.1</ele>
        <time>2020-02-23T09:51:30Z</time>
      </trkpt>
      <trkpt lat="38.9951800" lon="1.5776510">
        <ele>10.1</ele>
        <time>2020-02-23T09:51:31Z</time>
      </trkpt>
      <trkpt lat="38.9952230" lon="1.5776610">
        <ele>10.0</ele>
        <time>2020-02-23T09:51:32Z</time>
      </trkpt>
      <trkpt lat="38.9952610" lon="1.5776770">
        <ele>9.9</ele>
        <time>2020-02-23T09:51:33Z</time>
      </trkpt>
      <trkpt lat="38.9952910" lon="1.5776870">
        <ele>9.9</ele>
        <time>2020-02-23T09:51:34Z</time>
      </trkpt>
      <trkpt lat="38.9953300" lon="1.5776980">
        <ele>9.8</ele>
        <time>2020-02-23T09:51:35Z</time>
      </trkpt>
      <trkpt lat="38.9953750" lon="1.5777050">
        <ele>9.8</ele>
        <time>2020-02-23T09:51:36Z</time>
      </trkpt>
      <trkpt lat="38.9954190" lon="1.5777150">
        <ele>9.7</ele>
        <time>2020-02-23T09:51:37Z</time>
      </trkpt>
      <trkpt lat="38.9954620" lon="1.5777280">
        <ele>9.7</ele>
        <time>2020-02-23T09:51:38Z</time>
      </trkpt>
      <trkpt lat="38.9955160" lon="1.5777380">
        <ele>9.6</ele>
        <time>2020-02-23T09:51:39Z</time>
      </trkpt>
      <trkpt lat="38.9955650" lon="1.5777530">
        <ele>9.6</ele>
        <time>2020-02-23T09:51:40Z</time>
      </trkpt>
      <trkpt lat="38.9956150" lon="1.5777610">
        <ele>9.6</ele>
        <time>2020-02-23T09:51:41Z</time>
      </trkpt>
      <trkpt lat="38.9956610" lon="1.5777800">
        <ele>9.6</ele>
        <time>2020-02-23T09:51:42Z</time>
      </trkpt>
      <trkpt lat="38.9957070" lon="1.5777990">
        <ele>9.6</ele>
        <time>2020-02-23T09:51:43Z</time>
      </trkpt>
      <trkpt lat="38.9957650" lon="1.5778080">
        <ele>9.6</ele>
        <time>2020-02-23T09:51:44Z</time>
      </trkpt>
      <trkpt lat="38.9958140" lon="1.5778240">
        <ele>9.6</ele>
        <time>2020-02-23T09:51:45Z</time>
      </trkpt>
      <trkpt lat="38.9958640" lon="1.5778400">
        <ele>9.6</ele>
        <time>2020-02-23T09:51:46Z</time>
      </trkpt>
      <trkpt lat="38.9958980" lon="1.5778550">
        <ele>9.5</ele>
        <time>2020-02-23T09:51:47Z</time>
      </trkpt>
      <trkpt lat="38.9959390" lon="1.5778660">
        <ele>9.5</ele>
        <time>2020-02-23T09:51:48Z</time>
      </trkpt>
      <trkpt lat="38.9959780" lon="1.5778770">
        <ele>9.4</ele>
        <time>2020-02-23T09:51:49Z</time>
      </trkpt>
      <trkpt lat="38.9960180" lon="1.5778880">
        <ele>9.4</ele>
        <time>2020-02-23T09:51:50Z</time>
      </trkpt>
      <trkpt lat="38.9960600" lon="1.5778970">
        <ele>9.3</ele>
        <time>2020-02-23T09:51:51Z</time>
      </trkpt>
      <trkpt lat="38.9961050" lon="1.5779240">
        <ele>9.2</ele>
        <time>2020-02-23T09:51:52Z</time>
      </trkpt>
      <trkpt lat="38.9961450" lon="1.5779520">
        <ele>9.2</ele>
        <time>2020-02-23T09:51:53Z</time>
      </trkpt>
      <trkpt lat="38.9961790" lon="1.5779730">
        <ele>9.1</ele>
        <time>2020-02-23T09:51:54Z</time>
      </trkpt>
      <trkpt lat="38.9962200" lon="1.5779950">
        <ele>9.0</ele>
        <time>2020-02-23T09:51:55Z</time>
      </trkpt>
      <trkpt lat="38.9962570" lon="1.5780060">
        <ele>9.0</ele>
        <time>2020-02-23T09:51:56Z</time>
      </trkpt>
      <trkpt lat="38.9962970" lon="1.5780120">
        <ele>8.9</ele>
        <time>2020-02-23T09:51:57Z</time>
      </trkpt>
      <trkpt lat="38.9963410" lon="1.5780240">
        <ele>8.9</ele>
        <time>2020-02-23T09:51:58Z</time>
      </trkpt>
      <trkpt lat="38.9963870" lon="1.5780420">
        <ele>8.8</ele>
        <time>2020-02-23T09:51:59Z</time>
      </trkpt>
      <trkpt lat="38.9964300" lon="1.5780720">
        <ele>8.7</ele>
        <time>2020-02-23T09:52:00Z</time>
      </trkpt>
      <trkpt lat="38.9964700" lon="1.5780900">
        <ele>8.7</ele>
        <time>2020-02-23T09:52:01Z</time>
      </trkpt>
      <trkpt lat="38.9965180" lon="1.5781180">
        <ele>8.7</ele>
        <time>2020-02-23T09:52:02Z</time>
      </trkpt>
      <trkpt lat="38.9965600" lon="1.5781430">
        <ele>8.7</ele>
        <time>2020-02-23T09:52:03Z</time>
      </trkpt>
      <trkpt lat="38.9966070" lon="1.5781530">
        <ele>8.7</ele>
        <time>2020-02-23T09:52:04Z</time>
      </trkpt>
      <trkpt lat="38.9966510" lon="1.5781660">
        <ele>8.7</ele>
        <time>2020-02-23T09:52:05Z</time>
      </trkpt>
      <trkpt lat="38.9966930" lon="1.5781980">
        <ele>8.7</ele>
        <time>2020-02-23T09:52:06Z</time>
      </trkpt>
      <trkpt lat="38.9967390" lon="1.5782260">
        <ele>8.7</ele>
        <time>2020-02-23T09:52:07Z</time>
      </trkpt>
      <trkpt lat="38.9967810" lon="1.5782610">
        <ele>8.7</ele>
        <time>2020-02-23T09:52:08Z</time>
      </trkpt>
      <trkpt lat="38.9968260" lon="1.5783010">
        <ele>8.6</ele>
        <time>2020-02-23T09:52:09Z</time>
      </trkpt>
      <trkpt lat="38.9968630" lon="1.5783220">
        <ele>8.6</ele>
        <time>2020-02-23T09:52:10Z</time>
      </trkpt>
      <trkpt lat="38.9969040" lon="1.5783510">
        <ele>8.5</ele>
        <time>2020-02-23T09:52:11Z</time>
      </trkpt>
      <trkpt lat="38.9969510" lon="1.5783760">
        <ele>8.5</ele>
        <time>2020-02-23T09:52:12Z</time>
      </trkpt>
      <trkpt lat="38.9970020" lon="1.5784060">
        <ele>8.3</ele>
        <time>2020-02-23T09:52:13Z</time>
      </trkpt>
      <trkpt lat="38.9970480" lon="1.5784270">
        <ele>8.2</ele>
        <time>2020-02-23T09:52:14Z</time>
      </trkpt>
      <trkpt lat="38.9970870" lon="1.5784400">
        <ele>8.1</ele>
        <time>2020-02-23T09:52:15Z</time>
      </trkpt>
      <trkpt lat="38.9971350" lon="1.5784680">
        <ele>8.0</ele>
        <time>2020-02-23T09:52:16Z</time>
      </trkpt>
      <trkpt lat="38.9971870" lon="1.5785040">
        <ele>7.8</ele>
        <time>2020-02-23T09:52:17Z</time>
      </trkpt>
      <trkpt lat="38.9972320" lon="1.5785300">
        <ele>7.7</ele>
        <time>2020-02-23T09:52:18Z</time>
      </trkpt>
      <trkpt lat="38.9972790" lon="1.5785550">
        <ele>7.7</ele>
        <time>2020-02-23T09:52:19Z</time>
      </trkpt>
      <trkpt lat="38.9973250" lon="1.5785840">
        <ele>7.8</ele>
        <time>2020-02-23T09:52:20Z</time>
      </trkpt>
      <trkpt lat="38.9973710" lon="1.5786100">
        <ele>7.9</ele>
        <time>2020-02-23T09:52:21Z</time>
      </trkpt>
      <trkpt lat="38.9974050" lon="1.5786400">
        <ele>7.9</ele>
        <time>2020-02-23T09:52:22Z</time>
      </trkpt>
      <trkpt lat="38.9974480" lon="1.5786680">
        <ele>8.0</ele>
        <time>2020-02-23T09:52:23Z</time>
      </trkpt>
      <trkpt lat="38.9974790" lon="1.5787000">
        <ele>8.0</ele>
        <time>2020-02-23T09:52:24Z</time>
      </trkpt>
      <trkpt lat="38.9975090" lon="1.5787300">
        <ele>8.0</ele>
        <time>2020-02-23T09:52:25Z</time>
      </trkpt>
      <trkpt lat="38.9975500" lon="1.5787580">
        <ele>8.0</ele>
        <time>2020-02-23T09:52:26Z</time>
      </trkpt>
      <trkpt lat="38.9975990" lon="1.5787810">
        <ele>8.0</ele>
        <time>2020-02-23T09:52:27Z</time>
      </trkpt>
      <trkpt lat="38.9976470" lon="1.5788080">
        <ele>8.0</ele>
        <time>2020-02-23T09:52:28Z</time>
      </trkpt>
      <trkpt lat="38.9976920" lon="1.5788340">
        <ele>8.0</ele>
        <time>2020-02-23T09:52:29Z</time>
      </trkpt>
      <trkpt lat="38.9977430" lon="1.5788530">
        <ele>7.9</ele>
        <time>2020-02-23T09:52:30Z</time>
      </trkpt>
      <trkpt lat="38.9977970" lon="1.5788760">
        <ele>7.8</ele>
        <time>2020-02-23T09:52:31Z</time>
      </trkpt>
      <trkpt lat="38.9978430" lon="1.5788950">
        <ele>7.7</ele>
        <time>2020-02-23T09:52:32Z</time>
      </trkpt>
      <trkpt lat="38.9978910" lon="1.5789200">
        <ele>7.6</ele>
        <time>2020-02-23T09:52:33Z</time>
      </trkpt>
      <trkpt lat="38.9979380" lon="1.5789510">
        <ele>7.5</ele>
        <time>2020-02-23T09:52:34Z</time>
      </trkpt>
      <trkpt lat="38.9979840" lon="1.5789770">
        <ele>7.5</ele>
        <time>2020-02-23T09:52:35Z</time>
      </trkpt>
      <trkpt lat="38.9980330" lon="1.5790050">
        <ele>7.4</ele>
        <time>2020-02-23T09:52:36Z</time>
      </trkpt>
      <trkpt lat="38.9980890" lon="1.5790270">
        <ele>7.3</ele>
        <time>2020-02-23T09:52:37Z</time>
      </trkpt>
      <trkpt lat="38.9981430" lon="1.5790540">
        <ele>7.2</ele>
        <time>2020-02-23T09:52:38Z</time>
      </trkpt>
      <trkpt lat="38.9981990" lon="1.5790580">
        <ele>7.1</ele>
        <time>2020-02-23T09:52:39Z</time>
      </trkpt>
      <trkpt lat="38.9982590" lon="1.5790620">
        <ele>6.9</ele>
        <time>2020-02-23T09:52:40Z</time>
      </trkpt>
      <trkpt lat="38.9983220" lon="1.5790550">
        <ele>6.7</ele>
        <time>2020-02-23T09:52:41Z</time>
      </trkpt>
      <trkpt lat="38.9983740" lon="1.5790620">
        <ele>6.6</ele>
        <time>2020-02-23T09:52:42Z</time>
      </trkpt>
      <trkpt lat="38.9984420" lon="1.5790580">
        <ele>6.4</ele>
        <time>2020-02-23T09:52:43Z</time>
      </trkpt>
      <trkpt lat="38.9984980" lon="1.5790580">
        <ele>6.3</ele>
        <time>2020-02-23T09:52:44Z</time>
      </trkpt>
      <trkpt lat="38.9985510" lon="1.5790770">
        <ele>6.2</ele>
        <time>2020-02-23T09:52:45Z</time>
      </trkpt>
      <trkpt lat="38.9986040" lon="1.5790740">
        <ele>6.2</ele>
        <time>2020-02-23T09:52:46Z</time>
      </trkpt>
      <trkpt lat="38.9986590" lon="1.5790710">
        <ele>6.2</ele>
        <time>2020-02-23T09:52:47Z</time>
      </trkpt>
      <trkpt lat="38.9987120" lon="1.5790660">
        <ele>6.2</ele>
        <time>2020-02-23T09:52:48Z</time>
      </trkpt>
      <trkpt lat="38.9987570" lon="1.5790620">
        <ele>6.3</ele>
        <time>2020-02-23T09:52:49Z</time>
      </trkpt>
      <trkpt lat="38.9988080" lon="1.5790610">
        <ele>6.4</ele>
        <time>2020-02-23T09:52:50Z</time>
      </trkpt>
      <trkpt lat="38.9988540" lon="1.5790720">
        <ele>6.3</ele>
        <time>2020-02-23T09:52:51Z</time>
      </trkpt>
      <trkpt lat="38.9988960" lon="1.5790600">
        <ele>6.2</ele>
        <time>2020-02-23T09:52:52Z</time>
      </trkpt>
      <trkpt lat="38.9989510" lon="1.5790620">
        <ele>6.1</ele>
        <time>2020-02-23T09:52:53Z</time>
      </trkpt>
      <trkpt lat="38.9990020" lon="1.5790580">
        <ele>6.0</ele>
        <time>2020-02-23T09:52:54Z</time>
      </trkpt>
      <trkpt lat="38.9990490" lon="1.5790550">
        <ele>5.9</ele>
        <time>2020-02-23T09:52:55Z</time>
      </trkpt>
      <trkpt lat="38.9991070" lon="1.5790420">
        <ele>5.8</ele>
        <time>2020-02-23T09:52:56Z</time>
      </trkpt>
      <trkpt lat="38.9991610" lon="1.5790370">
        <ele>5.6</ele>
        <time>2020-02-23T09:52:57Z</time>
      </trkpt>
      <trkpt lat="38.9992090" lon="1.5790230">
        <ele>5.5</ele>
        <time>2020-02-23T09:52:58Z</time>
      </trkpt>
      <trkpt lat="38.9992540" lon="1.5790150">
        <ele>5.3</ele>
        <time>2020-02-23T09:52:59Z</time>
      </trkpt>
      <trkpt lat="38.9992900" lon="1.5790030">
        <ele>5.2</ele>
        <time>2020-02-23T09:53:00Z</time>
      </trkpt>
      <trkpt lat="38.9992990" lon="1.5789940">
        <ele>5.2</ele>
        <time>2020-02-23T09:53:01Z</time>
      </trkpt>
      <trkpt lat="38.9993290" lon="1.5789980">
        <ele>5.0</ele>
        <time>2020-02-23T09:53:02Z</time>
      </trkpt>
      <trkpt lat="38.9993370" lon="1.5789960">
        <ele>5.0</ele>
        <time>2020-02-23T09:53:03Z</time>
      </trkpt>
      <trkpt lat="38.9993650" lon="1.5789870">
        <ele>5.0</ele>
        <time>2020-02-23T09:53:04Z</time>
      </trkpt>
      <trkpt lat="38.9993980" lon="1.5789760">
        <ele>4.9</ele>
        <time>2020-02-23T09:53:05Z</time>
      </trkpt>
      <trkpt lat="38.9994330" lon="1.5789630">
        <ele>4.8</ele>
        <time>2020-02-23T09:53:06Z</time>
      </trkpt>
      <trkpt lat="38.9994640" lon="1.5789490">
        <ele>4.7</ele>
        <time>2020-02-23T09:53:07Z</time>
      </trkpt>
      <trkpt lat="38.9995130" lon="1.5789430">
        <ele>4.6</ele>
        <time>2020-02-23T09:53:08Z</time>
      </trkpt>
      <trkpt lat="38.9995620" lon="1.5789310">
        <ele>4.5</ele>
        <time>2020-02-23T09:53:09Z</time>
      </trkpt>
      <trkpt lat="38.9996010" lon="1.5789210">
        <ele>4.4</ele>
        <time>2020-02-23T09:53:10Z</time>
      </trkpt>
      <trkpt lat="38.9996390" lon="1.5789180">
        <ele>4.3</ele>
        <time>2020-02-23T09:53:11Z</time>
      </trkpt>
      <trkpt lat="38.9996890" lon="1.5789270">
        <ele>4.1</ele>
        <time>2020-02-23T09:53:12Z</time>
      </trkpt>
      <trkpt lat="38.9997210" lon="1.5789350">
        <ele>3.9</ele>
        <time>2020-02-23T09:53:13Z</time>
      </trkpt>
      <trkpt lat="38.9997630" lon="1.5789340">
        <ele>3.7</ele>
        <time>2020-02-23T09:53:14Z</time>
      </trkpt>
      <trkpt lat="38.9998140" lon="1.5789370">
        <ele>3.5</ele>
        <time>2020-02-23T09:53:15Z</time>
      </trkpt>
      <trkpt lat="38.9998620" lon="1.5789390">
        <ele>3.3</ele>
        <time>2020-02-23T09:53:16Z</time>
      </trkpt>
      <trkpt lat="38.9999030" lon="1.5789540">
        <ele>3.1</ele>
        <time>2020-02-23T09:53:17Z</time>
      </trkpt>
      <trkpt lat="38.9999500" lon="1.5789680">
        <ele>2.8</ele>
        <time>2020-02-23T09:53:18Z</time>
      </trkpt>
      <trkpt lat="39.0000000" lon="1.5789830">
        <ele>2.6</ele>
        <time>2020-02-23T09:53:19Z</time>
      </trkpt>
      <trkpt lat="39.0000420" lon="1.5789910">
        <ele>2.4</ele>
        <time>2020-02-23T09:53:20Z</time>
      </trkpt>
      <trkpt lat="39.0000730" lon="1.5789890">
        <ele>2.1</ele>
        <time>2020-02-23T09:53:21Z</time>
      </trkpt>
      <trkpt lat="39.0001020" lon="1.5789590">
        <ele>2.2</ele>
        <time>2020-02-23T09:53:22Z</time>
      </trkpt>
      <trkpt lat="39.0001090" lon="1.5789430">
        <ele>2.2</ele>
        <time>2020-02-23T09:53:23Z</time>
      </trkpt>
      <trkpt lat="39.0001000" lon="1.5788910">
        <ele>2.3</ele>
        <time>2020-02-23T09:53:24Z</time>
      </trkpt>
      <trkpt lat="39.0000940" lon="1.5788400">
        <ele>2.4</ele>
        <time>2020-02-23T09:53:25Z</time>
      </trkpt>
      <trkpt lat="39.0000880" lon="1.5787850">
        <ele>2.4</ele>
        <time>2020-02-23T09:53:26Z</time>
      </trkpt>
      <trkpt lat="39.0000870" lon="1.5787250">
        <ele>2.5</ele>
        <time>2020-02-23T09:53:27Z</time>
      </trkpt>
      <trkpt lat="39.0000890" lon="1.5786690">
        <ele>2.6</ele>
        <time>2020-02-23T09:53:28Z</time>
      </trkpt>
      <trkpt lat="39.0000870" lon="1.5786060">
        <ele>2.6</ele>
        <time>2020-02-23T09:53:29Z</time>
      </trkpt>
      <trkpt lat="39.0000880" lon="1.5785300">
        <ele>2.7</ele>
        <time>2020-02-23T09:53:30Z</time>
      </trkpt>
      <trkpt lat="39.0000980" lon="1.5784790">
        <ele>2.8</ele>
        <time>2020-02-23T09:53:31Z</time>
      </trkpt>
      <trkpt lat="39.0001160" lon="1.5784210">
        <ele>2.9</ele>
        <time>2020-02-23T09:53:32Z</time>
      </trkpt>
      <trkpt lat="39.0001360" lon="1.5783700">
        <ele>2.9</ele>
        <time>2020-02-23T09:53:33Z</time>
      </trkpt>
      <trkpt lat="39.0001630" lon="1.5783220">
        <ele>3.0</ele>
        <time>2020-02-23T09:53:34Z</time>
      </trkpt>
      <trkpt lat="39.0001870" lon="1.5782760">
        <ele>3.0</ele>
        <time>2020-02-23T09:53:35Z</time>
      </trkpt>
      <trkpt lat="39.0002210" lon="1.5782200">
        <ele>3.1</ele>
        <time>2020-02-23T09:53:36Z</time>
      </trkpt>
      <trkpt lat="39.0002520" lon="1.5781690">
        <ele>3.2</ele>
        <time>2020-02-23T09:53:37Z</time>
      </trkpt>
      <trkpt lat="39.0002810" lon="1.5781170">
        <ele>3.3</ele>
        <time>2020-02-23T09:53:38Z</time>
      </trkpt>
      <trkpt lat="39.0003120" lon="1.5780600">
        <ele>3.5</ele>
        <time>2020-02-23T09:53:39Z</time>
      </trkpt>
      <trkpt lat="39.0003350" lon="1.5780180">
        <ele>3.8</ele>
        <time>2020-02-23T09:53:40Z</time>
      </trkpt>
      <trkpt lat="39.0003590" lon="1.5779810">
        <ele>4.0</ele>
        <time>2020-02-23T09:53:41Z</time>
      </trkpt>
      <trkpt lat="39.0003930" lon="1.5779360">
        <ele>4.1</ele>
        <time>2020-02-23T09:53:42Z</time>
      </trkpt>
      <trkpt lat="39.0004220" lon="1.5779050">
        <ele>4.2</ele>
        <time>2020-02-23T09:53:43Z</time>
      </trkpt>
      <trkpt lat="39.0004540" lon="1.5778840">
        <ele>4.3</ele>
        <time>2020-02-23T09:53:44Z</time>
      </trkpt>
      <trkpt lat="39.0004900" lon="1.5778750">
        <ele>4.4</ele>
        <time>2020-02-23T09:53:45Z</time>
      </trkpt>
      <trkpt lat="39.0005270" lon="1.5778480">
        <ele>4.6</ele>
        <time>2020-02-23T09:53:46Z</time>
      </trkpt>
      <trkpt lat="39.0005610" lon="1.5778260">
        <ele>4.7</ele>
        <time>2020-02-23T09:53:47Z</time>
      </trkpt>
      <trkpt lat="39.0005940" lon="1.5778020">
        <ele>4.8</ele>
        <time>2020-02-23T09:53:48Z</time>
      </trkpt>
      <trkpt lat="39.0006250" lon="1.5777830">
        <ele>5.0</ele>
        <time>2020-02-23T09:53:49Z</time>
      </trkpt>
      <trkpt lat="39.0006630" lon="1.5777570">
        <ele>5.1</ele>
        <time>2020-02-23T09:53:50Z</time>
      </trkpt>
      <trkpt lat="39.0006980" lon="1.5777360">
        <ele>5.3</ele>
        <time>2020-02-23T09:53:51Z</time>
      </trkpt>
      <trkpt lat="39.0007330" lon="1.5777040">
        <ele>5.5</ele>
        <time>2020-02-23T09:53:52Z</time>
      </trkpt>
      <trkpt lat="39.0007630" lon="1.5776680">
        <ele>5.7</ele>
        <time>2020-02-23T09:53:53Z</time>
      </trkpt>
      <trkpt lat="39.0007880" lon="1.5776290">
        <ele>6.0</ele>
        <time>2020-02-23T09:53:54Z</time>
      </trkpt>
      <trkpt lat="39.0008120" lon="1.5775900">
        <ele>6.2</ele>
        <time>2020-02-23T09:53:55Z</time>
      </trkpt>
      <trkpt lat="39.0008390" lon="1.5775440">
        <ele>6.5</ele>
        <time>2020-02-23T09:53:56Z</time>
      </trkpt>
      <trkpt lat="39.0008610" lon="1.5775060">
        <ele>6.7</ele>
        <time>2020-02-23T09:53:57Z</time>
      </trkpt>
      <trkpt lat="39.0008780" lon="1.5774640">
        <ele>6.8</ele>
        <time>2020-02-23T09:53:58Z</time>
      </trkpt>
      <trkpt lat="39.0009080" lon="1.5774140">
        <ele>7.0</ele>
        <time>2020-02-23T09:53:59Z</time>
      </trkpt>
      <trkpt lat="39.0009350" lon="1.5773710">
        <ele>7.1</ele>
        <time>2020-02-23T09:54:00Z</time>
      </trkpt>
      <trkpt lat="39.0009610" lon="1.5773240">
        <ele>7.2</ele>
        <time>2020-02-23T09:54:01Z</time>
      </trkpt>
      <trkpt lat="39.0009890" lon="1.5772830">
        <ele>7.3</ele>
        <time>2020-02-23T09:54:02Z</time>
      </trkpt>
      <trkpt lat="39.0010110" lon="1.5772460">
        <ele>7.4</ele>
        <time>2020-02-23T09:54:03Z</time>
      </trkpt>
      <trkpt lat="39.0010340" lon="1.5772040">
        <ele>7.5</ele>
        <time>2020-02-23T09:54:04Z</time>
      </trkpt>
      <trkpt lat="39.0010590" lon="1.5771530">
        <ele>7.6</ele>
        <time>2020-02-23T09:54:05Z</time>
      </trkpt>
      <trkpt lat="39.0010730" lon="1.5771170">
        <ele>7.6</ele>
        <time>2020-02-23T09:54:06Z</time>
      </trkpt>
      <trkpt lat="39.0010890" lon="1.5770850">
        <ele>7.7</ele>
        <time>2020-02-23T09:54:07Z</time>
      </trkpt>
      <trkpt lat="39.0011070" lon="1.5770550">
        <ele>7.8</ele>
        <time>2020-02-23T09:54:08Z</time>
      </trkpt>
      <trkpt lat="39.0011350" lon="1.5770470">
        <ele>7.8</ele>
        <time>2020-02-23T09:54:09Z</time>
      </trkpt>
      <trkpt lat="39.0011680" lon="1.5770560">
        <ele>7.8</ele>
        <time>2020-02-23T09:54:10Z</time>
      </trkpt>
      <trkpt lat="39.0012050" lon="1.5770730">
        <ele>7.9</ele>
        <time>2020-02-23T09:54:11Z</time>
      </trkpt>
      <trkpt lat="39.0012410" lon="1.5770960">
        <ele>7.9</ele>
        <time>2020-02-23T09:54:12Z</time>
      </trkpt>
      <trkpt lat="39.0012750" lon="1.5771210">
        <ele>7.8</ele>
        <time>2020-02-23T09:54:13Z</time>
      </trkpt>
      <trkpt lat="39.0013040" lon="1.5771450">
        <ele>7.8</ele>
        <time>2020-02-23T09:54:14Z</time>
      </trkpt>
      <trkpt lat="39.0013360" lon="1.5771680">
        <ele>7.8</ele>
        <time>2020-02-23T09:54:15Z</time>
      </trkpt>
      <trkpt lat="39.0013650" lon="1.5771940">
        <ele>7.8</ele>
        <time>2020-02-23T09:54:16Z</time>
      </trkpt>
      <trkpt lat="39.0013980" lon="1.5772230">
        <ele>7.7</ele>
        <time>2020-02-23T09:54:17Z</time>
      </trkpt>
      <trkpt lat="39.0014470" lon="1.5772500">
        <ele>7.7</ele>
        <time>2020-02-23T09:54:18Z</time>
      </trkpt>
      <trkpt lat="39.0014820" lon="1.5772610">
        <ele>7.7</ele>
        <time>2020-02-23T09:54:19Z</time>
      </trkpt>
      <trkpt lat="39.0015090" lon="1.5772410">
        <ele>7.6</ele>
        <time>2020-02-23T09:54:20Z</time>
      </trkpt>
      <trkpt lat="39.0015240" lon="1.5772310">
        <ele>7.6</ele>
        <time>2020-02-23T09:54:21Z</time>
      </trkpt>
      <trkpt lat="39.0015560" lon="1.5772240">
        <ele>7.6</ele>
        <time>2020-02-23T09:54:22Z</time>
      </trkpt>
      <trkpt lat="39.0015880" lon="1.5772320">
        <ele>7.6</ele>
        <time>2020-02-23T09:54:23Z</time>
      </trkpt>
      <trkpt lat="39.0016250" lon="1.5772390">
        <ele>7.6</ele>
        <time>2020-02-23T09:54:24Z</time>
      </trkpt>
      <trkpt lat="39.0016380" lon="1.5772410">
        <ele>7.6</ele>
        <time>2020-02-23T09:54:25Z</time>
      </trkpt>
      <trkpt lat="39.0016700" lon="1.5772450">
        <ele>6.2</ele>
        <time>2020-02-23T09:54:26Z</time>
      </trkpt>
      <trkpt lat="39.0016990" lon="1.5772610">
        <ele>6.2</ele>
        <time>2020-02-23T09:54:27Z</time>
      </trkpt>
      <trkpt lat="39.0017330" lon="1.5772820">
        <ele>6.2</ele>
        <time>2020-02-23T09:54:28Z</time>
      </trkpt>
      <trkpt lat="39.0017660" lon="1.5773020">
        <ele>6.1</ele>
        <time>2020-02-23T09:54:29Z</time>
      </trkpt>
      <trkpt lat="39.0017760" lon="1.5773070">
        <ele>6.1</ele>
        <time>2020-02-23T09:54:30Z</time>
      </trkpt>
      <trkpt lat="39.0018100" lon="1.5773260">
        <ele>6.1</ele>
        <time>2020-02-23T09:54:31Z</time>
      </trkpt>
      <trkpt lat="39.0018190" lon="1.5773300">
        <ele>6.1</ele>
        <time>2020-02-23T09:54:32Z</time>
      </trkpt>
      <trkpt lat="39.0018520" lon="1.5773320">
        <ele>6.1</ele>
        <time>2020-02-23T09:54:33Z</time>
      </trkpt>
      <trkpt lat="39.0018870" lon="1.5773350">
        <ele>6.1</ele>
        <time>2020-02-23T09:54:34Z</time>
      </trkpt>
      <trkpt lat="39.0019260" lon="1.5773390">
        <ele>6.1</ele>
        <time>2020-02-23T09:54:35Z</time>
      </trkpt>
      <trkpt lat="39.0019660" lon="1.5773510">
        <ele>6.1</ele>
        <time>2020-02-23T09:54:36Z</time>
      </trkpt>
      <trkpt lat="39.0020030" lon="1.5773580">
        <ele>6.1</ele>
        <time>2020-02-23T09:54:37Z</time>
      </trkpt>
      <trkpt lat="39.0020340" lon="1.5773670">
        <ele>6.0</ele>
        <time>2020-02-23T09:54:38Z</time>
      </trkpt>
      <trkpt lat="39.0020580" lon="1.5773870">
        <ele>6.0</ele>
        <time>2020-02-23T09:54:39Z</time>
      </trkpt>
      <trkpt lat="39.0020800" lon="1.5774140">
        <ele>6.0</ele>
        <time>2020-02-23T09:54:40Z</time>
      </trkpt>
      <trkpt lat="39.0021070" lon="1.5774400">
        <ele>6.0</ele>
        <time>2020-02-23T09:54:41Z</time>
      </trkpt>
      <trkpt lat="39.0021340" lon="1.5774640">
        <ele>6.0</ele>
        <time>2020-02-23T09:54:42Z</time>
      </trkpt>
      <trkpt lat="39.0021600" lon="1.5774960">
        <ele>5.9</ele>
        <time>2020-02-23T09:54:43Z</time>
      </trkpt>
      <trkpt lat="39.0021860" lon="1.5775260">
        <ele>5.9</ele>
        <time>2020-02-23T09:54:44Z</time>
      </trkpt>
      <trkpt lat="39.0022140" lon="1.5775550">
        <ele>5.9</ele>
        <time>2020-02-23T09:54:45Z</time>
      </trkpt>
      <trkpt lat="39.0022470" lon="1.5775950">
        <ele>5.8</ele>
        <time>2020-02-23T09:54:46Z</time>
      </trkpt>
      <trkpt lat="39.0022760" lon="1.5776470">
        <ele>5.8</ele>
        <time>2020-02-23T09:54:47Z</time>
      </trkpt>
      <trkpt lat="39.0022860" lon="1.5777030">
        <ele>5.7</ele>
        <time>2020-02-23T09:54:48Z</time>
      </trkpt>
      <trkpt lat="39.0022810" lon="1.5777520">
        <ele>5.7</ele>
        <time>2020-02-23T09:54:49Z</time>
      </trkpt>
      <trkpt lat="39.0022700" lon="1.5777990">
        <ele>5.6</ele>
        <time>2020-02-23T09:54:50Z</time>
      </trkpt>
      <trkpt lat="39.0022570" lon="1.5778420">
        <ele>5.6</ele>
        <time>2020-02-23T09:54:51Z</time>
      </trkpt>
      <trkpt lat="39.0022420" lon="1.5778970">
        <ele>5.5</ele>
        <time>2020-02-23T09:54:52Z</time>
      </trkpt>
      <trkpt lat="39.0022240" lon="1.5779440">
        <ele>5.5</ele>
        <time>2020-02-23T09:54:53Z</time>
      </trkpt>
      <trkpt lat="39.0022040" lon="1.5779880">
        <ele>5.4</ele>
        <time>2020-02-23T09:54:54Z</time>
      </trkpt>
      <trkpt lat="39.0021850" lon="1.5780280">
        <ele>5.3</ele>
        <time>2020-02-23T09:54:55Z</time>
      </trkpt>
      <trkpt lat="39.0021670" lon="1.5780700">
        <ele>5.3</ele>
        <time>2020-02-23T09:54:56Z</time>
      </trkpt>
      <trkpt lat="39.0021570" lon="1.5781130">
        <ele>5.2</ele>
        <time>2020-02-23T09:54:57Z</time>
      </trkpt>
      <trkpt lat="39.0021660" lon="1.5781600">
        <ele>5.1</ele>
        <time>2020-02-23T09:54:58Z</time>
      </trkpt>
      <trkpt lat="39.0021840" lon="1.5782080">
        <ele>5.0</ele>
        <time>2020-02-23T09:54:59Z</time>
      </trkpt>
      <trkpt lat="39.0022040" lon="1.5782480">
        <ele>5.0</ele>
        <time>2020-02-23T09:55:00Z</time>
      </trkpt>
      <trkpt lat="39.0022260" lon="1.5782760">
        <ele>4.9</ele>
        <time>2020-02-23T09:55:01Z</time>
      </trkpt>
      <trkpt lat="39.0022460" lon="1.5783090">
        <ele>5.0</ele>
        <time>2020-02-23T09:55:02Z</time>
      </trkpt>
      <trkpt lat="39.0022620" lon="1.5783480">
        <ele>5.0</ele>
        <time>2020-02-23T09:55:03Z</time>
      </trkpt>
      <trkpt lat="39.0022840" lon="1.5783860">
        <ele>5.0</ele>
        <time>2020-02-23T09:55:04Z</time>
      </trkpt>
      <trkpt lat="39.0023010" lon="1.5784190">
        <ele>5.1</ele>
        <time>2020-02-23T09:55:05Z</time>
      </trkpt>
      <trkpt lat="39.0023280" lon="1.5784510">
        <ele>5.1</ele>
        <time>2020-02-23T09:55:06Z</time>
      </trkpt>
      <trkpt lat="39.0023530" lon="1.5784780">
        <ele>5.1</ele>
        <time>2020-02-23T09:55:07Z</time>
      </trkpt>
      <trkpt lat="39.0023760" lon="1.5785020">
        <ele>5.1</ele>
        <time>2020-02-23T09:55:08Z</time>
      </trkpt>
      <trkpt lat="39.0024000" lon="1.5785400">
        <ele>5.1</ele>
        <time>2020-02-23T09:55:09Z</time>
      </trkpt>
      <trkpt lat="39.0024070" lon="1.5785510">
        <ele>5.1</ele>
        <time>2020-02-23T09:55:10Z</time>
      </trkpt>
      <trkpt lat="39.0024310" lon="1.5785670">
        <ele>5.0</ele>
        <time>2020-02-23T09:55:11Z</time>
      </trkpt>
      <trkpt lat="39.0024400" lon="1.5785670">
        <ele>5.0</ele>
        <time>2020-02-23T09:55:12Z</time>
      </trkpt>
      <trkpt lat="39.0024490" lon="1.5785680">
        <ele>5.0</ele>
        <time>2020-02-23T09:55:13Z</time>
      </trkpt>
      <trkpt lat="39.0024840" lon="1.5785830">
        <ele>5.0</ele>
        <time>2020-02-23T09:55:14Z</time>
      </trkpt>
      <trkpt lat="39.0024950" lon="1.5785970">
        <ele>5.0</ele>
        <time>2020-02-23T09:55:15Z</time>
      </trkpt>
      <trkpt lat="39.0025320" lon="1.5785930">
        <ele>4.9</ele>
        <time>2020-02-23T09:55:16Z</time>
      </trkpt>
      <trkpt lat="39.0025450" lon="1.5785790">
        <ele>4.9</ele>
        <time>2020-02-23T09:55:17Z</time>
      </trkpt>
      <trkpt lat="39.0025690" lon="1.5785500">
        <ele>4.9</ele>
        <time>2020-02-23T09:55:18Z</time>
      </trkpt>
      <trkpt lat="39.0025920" lon="1.5785250">
        <ele>4.8</ele>
        <time>2020-02-23T09:55:19Z</time>
      </trkpt>
      <trkpt lat="39.0026190" lon="1.5785200">
        <ele>4.8</ele>
        <time>2020-02-23T09:55:20Z</time>
      </trkpt>
      <trkpt lat="39.0026580" lon="1.5785380">
        <ele>4.7</ele>
        <time>2020-02-23T09:55:21Z</time>
      </trkpt>
      <trkpt lat="39.0026730" lon="1.5785520">
        <ele>4.7</ele>
        <time>2020-02-23T09:55:22Z</time>
      </trkpt>
      <trkpt lat="39.0026980" lon="1.5785710">
        <ele>4.6</ele>
        <time>2020-02-23T09:55:23Z</time>
      </trkpt>
      <trkpt lat="39.0027290" lon="1.5785900">
        <ele>4.6</ele>
        <time>2020-02-23T09:55:24Z</time>
      </trkpt>
      <trkpt lat="39.0027610" lon="1.5786060">
        <ele>4.5</ele>
        <time>2020-02-23T09:55:25Z</time>
      </trkpt>
      <trkpt lat="39.0027920" lon="1.5786260">
        <ele>4.5</ele>
        <time>2020-02-23T09:55:26Z</time>
      </trkpt>
      <trkpt lat="39.0028250" lon="1.5786560">
        <ele>4.4</ele>
        <time>2020-02-23T09:55:27Z</time>
      </trkpt>
      <trkpt lat="39.0028500" lon="1.5786870">
        <ele>4.3</ele>
        <time>2020-02-23T09:55:28Z</time>
      </trkpt>
      <trkpt lat="39.0028750" lon="1.5787230">
        <ele>4.2</ele>
        <time>2020-02-23T09:55:29Z</time>
      </trkpt>
      <trkpt lat="39.0028840" lon="1.5787390">
        <ele>4.2</ele>
        <time>2020-02-23T09:55:30Z</time>
      </trkpt>
      <trkpt lat="39.0029050" lon="1.5787700">
        <ele>4.1</ele>
        <time>2020-02-23T09:55:31Z</time>
      </trkpt>
      <trkpt lat="39.0029270" lon="1.5788010">
        <ele>4.0</ele>
        <time>2020-02-23T09:55:32Z</time>
      </trkpt>
      <trkpt lat="39.0029510" lon="1.5788240">
        <ele>4.0</ele>
        <time>2020-02-23T09:55:33Z</time>
      </trkpt>
      <trkpt lat="39.0029750" lon="1.5788460">
        <ele>3.9</ele>
        <time>2020-02-23T09:55:34Z</time>
      </trkpt>
      <trkpt lat="39.0029990" lon="1.5788810">
        <ele>3.8</ele>
        <time>2020-02-23T09:55:35Z</time>
      </trkpt>
      <trkpt lat="39.0030290" lon="1.5789050">
        <ele>3.8</ele>
        <time>2020-02-23T09:55:36Z</time>
      </trkpt>
      <trkpt lat="39.0030640" lon="1.5789170">
        <ele>3.7</ele>
        <time>2020-02-23T09:55:37Z</time>
      </trkpt>
      <trkpt lat="39.0031020" lon="1.5789340">
        <ele>3.7</ele>
        <time>2020-02-23T09:55:38Z</time>
      </trkpt>
      <trkpt lat="39.0031490" lon="1.5789540">
        <ele>3.7</ele>
        <time>2020-02-23T09:55:39Z</time>
      </trkpt>
      <trkpt lat="39.0031870" lon="1.5789750">
        <ele>3.7</ele>
        <time>2020-02-23T09:55:40Z</time>
      </trkpt>
      <trkpt lat="39.0032250" lon="1.5790030">
        <ele>3.7</ele>
        <time>2020-02-23T09:55:41Z</time>
      </trkpt>
      <trkpt lat="39.0032630" lon="1.5790320">
        <ele>3.7</ele>
        <time>2020-02-23T09:55:42Z</time>
      </trkpt>
      <trkpt lat="39.0032880" lon="1.5790600">
        <ele>3.7</ele>
        <time>2020-02-23T09:55:43Z</time>
      </trkpt>
      <trkpt lat="39.0032890" lon="1.5791070">
        <ele>3.7</ele>
        <time>2020-02-23T09:55:44Z</time>
      </trkpt>
      <trkpt lat="39.0032940" lon="1.5791260">
        <ele>3.7</ele>
        <time>2020-02-23T09:55:45Z</time>
      </trkpt>
      <trkpt lat="39.0033110" lon="1.5791670">
        <ele>3.7</ele>
        <time>2020-02-23T09:55:46Z</time>
      </trkpt>
      <trkpt lat="39.0033270" lon="1.5792100">
        <ele>3.8</ele>
        <time>2020-02-23T09:55:47Z</time>
      </trkpt>
      <trkpt lat="39.0033440" lon="1.5792740">
        <ele>3.8</ele>
        <time>2020-02-23T09:55:48Z</time>
      </trkpt>
      <trkpt lat="39.0033670" lon="1.5793210">
        <ele>3.8</ele>
        <time>2020-02-23T09:55:49Z</time>
      </trkpt>
      <trkpt lat="39.0033840" lon="1.5793740">
        <ele>3.9</ele>
        <time>2020-02-23T09:55:50Z</time>
      </trkpt>
      <trkpt lat="39.0033800" lon="1.5794110">
        <ele>3.9</ele>
        <time>2020-02-23T09:55:51Z</time>
      </trkpt>
      <trkpt lat="39.0033670" lon="1.5794540">
        <ele>4.0</ele>
        <time>2020-02-23T09:55:52Z</time>
      </trkpt>
      <trkpt lat="39.0033380" lon="1.5794850">
        <ele>4.2</ele>
        <time>2020-02-23T09:55:53Z</time>
      </trkpt>
      <trkpt lat="39.0033120" lon="1.5795050">
        <ele>4.4</ele>
        <time>2020-02-23T09:55:54Z</time>
      </trkpt>
      <trkpt lat="39.0032810" lon="1.5795260">
        <ele>4.4</ele>
        <time>2020-02-23T09:55:55Z</time>
      </trkpt>
      <trkpt lat="39.0032430" lon="1.5795450">
        <ele>4.4</ele>
        <time>2020-02-23T09:55:56Z</time>
      </trkpt>
      <trkpt lat="39.0032020" lon="1.5795660">
        <ele>4.4</ele>
        <time>2020-02-23T09:55:57Z</time>
      </trkpt>
      <trkpt lat="39.0031600" lon="1.5795900">
        <ele>4.5</ele>
        <time>2020-02-23T09:55:58Z</time>
      </trkpt>
      <trkpt lat="39.0031190" lon="1.5796010">
        <ele>4.4</ele>
        <time>2020-02-23T09:55:59Z</time>
      </trkpt>
      <trkpt lat="39.0030800" lon="1.5796180">
        <ele>4.3</ele>
        <time>2020-02-23T09:56:00Z</time>
      </trkpt>
      <trkpt lat="39.0030470" lon="1.5796340">
        <ele>4.4</ele>
        <time>2020-02-23T09:56:01Z</time>
      </trkpt>
      <trkpt lat="39.0030110" lon="1.5796630">
        <ele>4.3</ele>
        <time>2020-02-23T09:56:02Z</time>
      </trkpt>
      <trkpt lat="39.0029950" lon="1.5796720">
        <ele>4.4</ele>
        <time>2020-02-23T09:56:03Z</time>
      </trkpt>
      <trkpt lat="39.0029680" lon="1.5796850">
        <ele>4.4</ele>
        <time>2020-02-23T09:56:04Z</time>
      </trkpt>
      <trkpt lat="39.0029580" lon="1.5797010">
        <ele>4.4</ele>
        <time>2020-02-23T09:56:05Z</time>
      </trkpt>
      <trkpt lat="39.0029450" lon="1.5797080">
        <ele>4.4</ele>
        <time>2020-02-23T09:56:06Z</time>
      </trkpt>
      <trkpt lat="39.0029350" lon="1.5797070">
        <ele>4.5</ele>
        <time>2020-02-23T09:56:07Z</time>
      </trkpt>
      <trkpt lat="39.0029270" lon="1.5797090">
        <ele>4.5</ele>
        <time>2020-02-23T09:56:08Z</time>
      </trkpt>
      <trkpt lat="39.0029200" lon="1.5797220">
        <ele>4.7</ele>
        <time>2020-02-23T09:56:09Z</time>
      </trkpt>
      <trkpt lat="39.0029190" lon="1.5797210">
        <ele>4.7</ele>
        <time>2020-02-23T09:56:10Z</time>
      </trkpt>
      <trkpt lat="39.0029190" lon="1.5797200">
        <ele>4.7</ele>
        <time>2020-02-23T09:56:11Z</time>
      </trkpt>
      <trkpt lat="39.0029170" lon="1.5797200">
        <ele>4.7</ele>
        <time>2020-02-23T09:56:12Z</time>
      </trkpt>
      <trkpt lat="39.0029170" lon="1.5797200">
        <ele>4.7</ele>
        <time>2020-02-23T09:56:13Z</time>
      </trkpt>
      <trkpt lat="39.0029160" lon="1.5797200">
        <ele>4.7</ele>
        <time>2020-02-23T09:56:14Z</time>
      </trkpt>
      <trkpt lat="39.0029150" lon="1.5797140">
        <ele>4.7</ele>
        <time>2020-02-23T09:56:15Z</time>
      </trkpt>
      <trkpt lat="39.0029030" lon="1.5797160">
        <ele>4.8</ele>
        <time>2020-02-23T09:56:16Z</time>
      </trkpt>
      <trkpt lat="39.0028950" lon="1.5797250">
        <ele>4.8</ele>
        <time>2020-02-23T09:56:17Z</time>
      </trkpt>
      <trkpt lat="39.0028920" lon="1.5797300">
        <ele>4.8</ele>
        <time>2020-02-23T09:56:18Z</time>
      </trkpt>
      <trkpt lat="39.0028820" lon="1.5797380">
        <ele>4.8</ele>
        <time>2020-02-23T09:56:19Z</time>
      </trkpt>
      <trkpt lat="39.0028820" lon="1.5797440">
        <ele>4.9</ele>
        <time>2020-02-23T09:56:20Z</time>
      </trkpt>
      <trkpt lat="39.0028830" lon="1.5797500">
        <ele>4.9</ele>
        <time>2020-02-23T09:56:21Z</time>
      </trkpt>
      <trkpt lat="39.0028840" lon="1.5797560">
        <ele>4.9</ele>
        <time>2020-02-23T09:56:22Z</time>
      </trkpt>
      <trkpt lat="39.0028840" lon="1.5797610">
        <ele>5.0</ele>
        <time>2020-02-23T09:56:23Z</time>
      </trkpt>
      <trkpt lat="39.0028850" lon="1.5797670">
        <ele>5.0</ele>
        <time>2020-02-23T09:56:24Z</time>
      </trkpt>
      <trkpt lat="39.0028860" lon="1.5797730">
        <ele>5.0</ele>
        <time>2020-02-23T09:56:25Z</time>
      </trkpt>
      <trkpt lat="39.0028860" lon="1.5797790">
        <ele>5.0</ele>
        <time>2020-02-23T09:56:26Z</time>
      </trkpt>
      <trkpt lat="39.0028870" lon="1.5797850">
        <ele>5.0</ele>
        <time>2020-02-23T09:56:27Z</time>
      </trkpt>
      <trkpt lat="39.0028870" lon="1.5798040">
        <ele>5.2</ele>
        <time>2020-02-23T09:56:28Z</time>
      </trkpt>
      <trkpt lat="39.0028950" lon="1.5798300">
        <ele>5.2</ele>
        <time>2020-02-23T09:56:29Z</time>
      </trkpt>
      <trkpt lat="39.0029030" lon="1.5798480">
        <ele>5.4</ele>
        <time>2020-02-23T09:56:30Z</time>
      </trkpt>
      <trkpt lat="39.0029020" lon="1.5798580">
        <ele>5.4</ele>
        <time>2020-02-23T09:56:31Z</time>
      </trkpt>
      <trkpt lat="39.0029010" lon="1.5798680">
        <ele>5.4</ele>
        <time>2020-02-23T09:56:32Z</time>
      </trkpt>
      <trkpt lat="39.0029000" lon="1.5798780">
        <ele>5.4</ele>
        <time>2020-02-23T09:56:33Z</time>
      </trkpt>
      <trkpt lat="39.0028970" lon="1.5798910">
        <ele>5.6</ele>
        <time>2020-02-23T09:56:34Z</time>
      </trkpt>
      <trkpt lat="39.0029030" lon="1.5799080">
        <ele>5.6</ele>
        <time>2020-02-23T09:56:35Z</time>
      </trkpt>
      <trkpt lat="39.0029050" lon="1.5799240">
        <ele>5.6</ele>
        <time>2020-02-23T09:56:36Z</time>
      </trkpt>
      <trkpt lat="39.0029110" lon="1.5799350">
        <ele>5.6</ele>
        <time>2020-02-23T09:56:37Z</time>
      </trkpt>
      <trkpt lat="39.0029040" lon="1.5799510">
        <ele>5.8</ele>
        <time>2020-02-23T09:56:38Z</time>
      </trkpt>
      <trkpt lat="39.0028970" lon="1.5799560">
        <ele>5.8</ele>
        <time>2020-02-23T09:56:39Z</time>
      </trkpt>
      <trkpt lat="39.0028920" lon="1.5799650">
        <ele>5.8</ele>
        <time>2020-02-23T09:56:40Z</time>
      </trkpt>
      <trkpt lat="39.0028930" lon="1.5799800">
        <ele>6.0</ele>
        <time>2020-02-23T09:56:41Z</time>
      </trkpt>
      <trkpt lat="39.0028870" lon="1.5799860">
        <ele>6.0</ele>
        <time>2020-02-23T09:56:42Z</time>
      </trkpt>
      <trkpt lat="39.0028810" lon="1.5799920">
        <ele>6.0</ele>
        <time>2020-02-23T09:56:43Z</time>
      </trkpt>
      <trkpt lat="39.0028750" lon="1.5799980">
        <ele>6.2</ele>
        <time>2020-02-23T09:56:44Z</time>
      </trkpt>
      <trkpt lat="39.0028690" lon="1.5800040">
        <ele>6.2</ele>
        <time>2020-02-23T09:56:45Z</time>
      </trkpt>
      <trkpt lat="39.0028670" lon="1.5800120">
        <ele>6.2</ele>
        <time>2020-02-23T09:56:46Z</time>
      </trkpt>
      <trkpt lat="39.0028560" lon="1.5800150">
        <ele>6.4</ele>
        <time>2020-02-23T09:56:47Z</time>
      </trkpt>
      <trkpt lat="39.0028490" lon="1.5800230">
        <ele>6.4</ele>
        <time>2020-02-23T09:56:48Z</time>
      </trkpt>
      <trkpt lat="39.0028400" lon="1.5800220">
        <ele>6.6</ele>
        <time>2020-02-23T09:56:49Z</time>
      </trkpt>
      <trkpt lat="39.0028340" lon="1.5800250">
        <ele>6.6</ele>
        <time>2020-02-23T09:56:50Z</time>
      </trkpt>
      <trkpt lat="39.0028280" lon="1.5800290">
        <ele>6.6</ele>
        <time>2020-02-23T09:56:51Z</time>
      </trkpt>
      <trkpt lat="39.0028230" lon="1.5800520">
        <ele>6.6</ele>
        <time>2020-02-23T09:56:52Z</time>
      </trkpt>
      <trkpt lat="39.0028210" lon="1.5800610">
        <ele>6.7</ele>
        <time>2020-02-23T09:56:53Z</time>
      </trkpt>
      <trkpt lat="39.0028170" lon="1.5800720">
        <ele>6.7</ele>
        <time>2020-02-23T09:56:54Z</time>
      </trkpt>
      <trkpt lat="39.0028070" lon="1.5800860">
        <ele>6.9</ele>
        <time>2020-02-23T09:56:55Z</time>
      </trkpt>
      <trkpt lat="39.0027980" lon="1.5801010">
        <ele>7.0</ele>
        <time>2020-02-23T09:56:56Z</time>
      </trkpt>
      <trkpt lat="39.0027870" lon="1.5801150">
        <ele>7.0</ele>
        <time>2020-02-23T09:56:57Z</time>
      </trkpt>
      <trkpt lat="39.0027650" lon="1.5801430">
        <ele>7.1</ele>
        <time>2020-02-23T09:56:58Z</time>
      </trkpt>
      <trkpt lat="39.0027590" lon="1.5801540">
        <ele>7.1</ele>
        <time>2020-02-23T09:56:59Z</time>
      </trkpt>
      <trkpt lat="39.0027440" lon="1.5801930">
        <ele>7.1</ele>
        <time>2020-02-23T09:57:00Z</time>
      </trkpt>
      <trkpt lat="39.0027390" lon="1.5802050">
        <ele>7.0</ele>
        <time>2020-02-23T09:57:01Z</time>
      </trkpt>
      <trkpt lat="39.0027230" lon="1.5802430">
        <ele>6.7</ele>
        <time>2020-02-23T09:57:02Z</time>
      </trkpt>
      <trkpt lat="39.0027180" lon="1.5802560">
        <ele>6.6</ele>
        <time>2020-02-23T09:57:03Z</time>
      </trkpt>
      <trkpt lat="39.0027140" lon="1.5803000">
        <ele>6.2</ele>
        <time>2020-02-23T09:57:04Z</time>
      </trkpt>
      <trkpt lat="39.0027110" lon="1.5803120">
        <ele>6.1</ele>
        <time>2020-02-23T09:57:05Z</time>
      </trkpt>
      <trkpt lat="39.0027120" lon="1.5803490">
        <ele>5.8</ele>
        <time>2020-02-23T09:57:06Z</time>
      </trkpt>
      <trkpt lat="39.0026960" lon="1.5803910">
        <ele>5.5</ele>
        <time>2020-02-23T09:57:07Z</time>
      </trkpt>
      <trkpt lat="39.0026870" lon="1.5804010">
        <ele>5.4</ele>
        <time>2020-02-23T09:57:08Z</time>
      </trkpt>
      <trkpt lat="39.0026680" lon="1.5804280">
        <ele>5.1</ele>
        <time>2020-02-23T09:57:09Z</time>
      </trkpt>
      <trkpt lat="39.0026490" lon="1.5804570">
        <ele>4.8</ele>
        <time>2020-02-23T09:57:10Z</time>
      </trkpt>
      <trkpt lat="39.0026430" lon="1.5804650">
        <ele>4.8</ele>
        <time>2020-02-23T09:57:11Z</time>
      </trkpt>
      <trkpt lat="39.0026200" lon="1.5804860">
        <ele>4.5</ele>
        <time>2020-02-23T09:57:12Z</time>
      </trkpt>
      <trkpt lat="39.0026100" lon="1.5804920">
        <ele>4.4</ele>
        <time>2020-02-23T09:57:13Z</time>
      </trkpt>
      <trkpt lat="39.0025810" lon="1.5805100">
        <ele>4.2</ele>
        <time>2020-02-23T09:57:14Z</time>
      </trkpt>
      <trkpt lat="39.0025530" lon="1.5805400">
        <ele>3.8</ele>
        <time>2020-02-23T09:57:15Z</time>
      </trkpt>
      <trkpt lat="39.0025410" lon="1.5805510">
        <ele>3.6</ele>
        <time>2020-02-23T09:57:16Z</time>
      </trkpt>
      <trkpt lat="39.0025120" lon="1.5805790">
        <ele>3.3</ele>
        <time>2020-02-23T09:57:17Z</time>
      </trkpt>
      <trkpt lat="39.0024850" lon="1.5806010">
        <ele>3.0</ele>
        <time>2020-02-23T09:57:18Z</time>
      </trkpt>
      <trkpt lat="39.0024610" lon="1.5806220">
        <ele>2.8</ele>
        <time>2020-02-23T09:57:19Z</time>
      </trkpt>
      <trkpt lat="39.0024380" lon="1.5806460">
        <ele>2.5</ele>
        <time>2020-02-23T09:57:20Z</time>
      </trkpt>
      <trkpt lat="39.0024170" lon="1.5806760">
        <ele>2.3</ele>
        <time>2020-02-23T09:57:21Z</time>
      </trkpt>
      <trkpt lat="39.0024120" lon="1.5806850">
        <ele>2.2</ele>
        <time>2020-02-23T09:57:22Z</time>
      </trkpt>
      <trkpt lat="39.0024010" lon="1.5807250">
        <ele>2.0</ele>
        <time>2020-02-23T09:57:23Z</time>
      </trkpt>
      <trkpt lat="39.0023990" lon="1.5807390">
        <ele>2.0</ele>
        <time>2020-02-23T09:57:24Z</time>
      </trkpt>
      <trkpt lat="39.0024060" lon="1.5807800">
        <ele>1.8</ele>
        <time>2020-02-23T09:57:25Z</time>
      </trkpt>
      <trkpt lat="39.0024210" lon="1.5808250">
        <ele>1.6</ele>
        <time>2020-02-23T09:57:26Z</time>
      </trkpt>
      <trkpt lat="39.0024280" lon="1.5808390">
        <ele>1.5</ele>
        <time>2020-02-23T09:57:27Z</time>
      </trkpt>
      <trkpt lat="39.0024430" lon="1.5808860">
        <ele>2.5</ele>
        <time>2020-02-23T09:57:28Z</time>
      </trkpt>
      <trkpt lat="39.0024440" lon="1.5809040">
        <ele>2.4</ele>
        <time>2020-02-23T09:57:29Z</time>
      </trkpt>
      <trkpt lat="39.0024430" lon="1.5809470">
        <ele>2.3</ele>
        <time>2020-02-23T09:57:30Z</time>
      </trkpt>
      <trkpt lat="39.0024430" lon="1.5809620">
        <ele>2.3</ele>
        <time>2020-02-23T09:57:31Z</time>
      </trkpt>
      <trkpt lat="39.0024350" lon="1.5809960">
        <ele>2.2</ele>
        <time>2020-02-23T09:57:32Z</time>
      </trkpt>
      <trkpt lat="39.0024220" lon="1.5810440">
        <ele>2.1</ele>
        <time>2020-02-23T09:57:33Z</time>
      </trkpt>
      <trkpt lat="39.0024170" lon="1.5810590">
        <ele>2.1</ele>
        <time>2020-02-23T09:57:34Z</time>
      </trkpt>
      <trkpt lat="39.0024060" lon="1.5810970">
        <ele>2.0</ele>
        <time>2020-02-23T09:57:35Z</time>
      </trkpt>
      <trkpt lat="39.0023960" lon="1.5811370">
        <ele>1.9</ele>
        <time>2020-02-23T09:57:36Z</time>
      </trkpt>
      <trkpt lat="39.0023850" lon="1.5811790">
        <ele>1.8</ele>
        <time>2020-02-23T09:57:37Z</time>
      </trkpt>
      <trkpt lat="39.0023720" lon="1.5812100">
        <ele>1.7</ele>
        <time>2020-02-23T09:57:38Z</time>
      </trkpt>
      <trkpt lat="39.0023550" lon="1.5812430">
        <ele>1.6</ele>
        <time>2020-02-23T09:57:39Z</time>
      </trkpt>
      <trkpt lat="39.0023340" lon="1.5812750">
        <ele>1.6</ele>
        <time>2020-02-23T09:57:40Z</time>
      </trkpt>
      <trkpt lat="39.0023130" lon="1.5813080">
        <ele>1.5</ele>
        <time>2020-02-23T09:57:41Z</time>
      </trkpt>
      <trkpt lat="39.0022990" lon="1.5813400">
        <ele>1.4</ele>
        <time>2020-02-23T09:57:42Z</time>
      </trkpt>
      <trkpt lat="39.0022840" lon="1.5813700">
        <ele>1.2</ele>
        <time>2020-02-23T09:57:43Z</time>
      </trkpt>
      <trkpt lat="39.0022690" lon="1.5814190">
        <ele>1.1</ele>
        <time>2020-02-23T09:57:44Z</time>
      </trkpt>
      <trkpt lat="39.0022650" lon="1.5814370">
        <ele>1.1</ele>
        <time>2020-02-23T09:57:45Z</time>
      </trkpt>
      <trkpt lat="39.0022660" lon="1.5814760">
        <ele>1.0</ele>
        <time>2020-02-23T09:57:46Z</time>
      </trkpt>
      <trkpt lat="39.0022720" lon="1.5815250">
        <ele>1.0</ele>
        <time>2020-02-23T09:57:47Z</time>
      </trkpt>
      <trkpt lat="39.0022760" lon="1.5815630">
        <ele>0.9</ele>
        <time>2020-02-23T09:57:48Z</time>
      </trkpt>
      <trkpt lat="39.0022780" lon="1.5816050">
        <ele>0.9</ele>
        <time>2020-02-23T09:57:49Z</time>
      </trkpt>
      <trkpt lat="39.0022920" lon="1.5816550">
        <ele>0.8</ele>
        <time>2020-02-23T09:57:50Z</time>
      </trkpt>
      <trkpt lat="39.0023060" lon="1.5816940">
        <ele>0.7</ele>
        <time>2020-02-23T09:57:51Z</time>
      </trkpt>
      <trkpt lat="39.0023230" lon="1.5817360">
        <ele>0.6</ele>
        <time>2020-02-23T09:57:52Z</time>
      </trkpt>
      <trkpt lat="39.0023500" lon="1.5817700">
        <ele>0.5</ele>
        <time>2020-02-23T09:57:53Z</time>
      </trkpt>
      <trkpt lat="39.0023770" lon="1.5817920">
        <ele>0.5</ele>
        <time>2020-02-23T09:57:54Z</time>
      </trkpt>
      <trkpt lat="39.0024060" lon="1.5818140">
        <ele>0.4</ele>
        <time>2020-02-23T09:57:55Z</time>
      </trkpt>
      <trkpt lat="39.0024340" lon="1.5818300">
        <ele>0.3</ele>
        <time>2020-02-23T09:57:56Z</time>
      </trkpt>
      <trkpt lat="39.0024640" lon="1.5818380">
        <ele>0.3</ele>
        <time>2020-02-23T09:57:57Z</time>
      </trkpt>
      <trkpt lat="39.0025010" lon="1.5818450">
        <ele>0.2</ele>
        <time>2020-02-23T09:57:58Z</time>
      </trkpt>
      <trkpt lat="39.0025360" lon="1.5818520">
        <ele>0.2</ele>
        <time>2020-02-23T09:57:59Z</time>
      </trkpt>
      <trkpt lat="39.0025690" lon="1.5818520">
        <ele>0.2</ele>
        <time>2020-02-23T09:58:00Z</time>
      </trkpt>
      <trkpt lat="39.0026030" lon="1.5818460">
        <ele>0.1</ele>
        <time>2020-02-23T09:58:01Z</time>
      </trkpt>
      <trkpt lat="39.0026350" lon="1.5818300">
        <ele>0.1</ele>
        <time>2020-02-23T09:58:02Z</time>
      </trkpt>
      <trkpt lat="39.0026650" lon="1.5818220">
        <ele>0.1</ele>
        <time>2020-02-23T09:58:03Z</time>
      </trkpt>
      <trkpt lat="39.0026990" lon="1.5818080">
        <ele>0.1</ele>
        <time>2020-02-23T09:58:04Z</time>
      </trkpt>
      <trkpt lat="39.0027320" lon="1.5818070">
        <ele>0.1</ele>
        <time>2020-02-23T09:58:05Z</time>
      </trkpt>
      <trkpt lat="39.0027610" lon="1.5818150">
        <ele>0.0</ele>
        <time>2020-02-23T09:58:06Z</time>
      </trkpt>
      <trkpt lat="39.0027710" lon="1.5818220">
        <ele>0.0</ele>
        <time>2020-02-23T09:58:07Z</time>
      </trkpt>
      <trkpt lat="39.0028040" lon="1.5818340">
        <ele>0.0</ele>
        <time>2020-02-23T09:58:08Z</time>
      </trkpt>
      <trkpt lat="39.0028130" lon="1.5818390">
        <ele>0.0</ele>
        <time>2020-02-23T09:58:09Z</time>
      </trkpt>
      <trkpt lat="39.0028480" lon="1.5818410">
        <ele>0.0</ele>
        <time>2020-02-23T09:58:10Z</time>
      </trkpt>
      <trkpt lat="39.0028610" lon="1.5818410">
        <ele>0.0</ele>
        <time>2020-02-23T09:58:11Z</time>
      </trkpt>
      <trkpt lat="39.0028990" lon="1.5818430">
        <ele>0.0</ele>
        <time>2020-02-23T09:58:12Z</time>
      </trkpt>
      <trkpt lat="39.0029140" lon="1.5818430">
        <ele>0.0</ele>
        <time>2020-02-23T09:58:13Z</time>
      </trkpt>
      <trkpt lat="39.0029440" lon="1.5818470">
        <ele>0.0</ele>
        <time>2020-02-23T09:58:14Z</time>
      </trkpt>
      <trkpt lat="39.0029860" lon="1.5818350">
        <ele>-0.1</ele>
        <time>2020-02-23T09:58:15Z</time>
      </trkpt>
      <trkpt lat="39.0030020" lon="1.5818340">
        <ele>-0.1</ele>
        <time>2020-02-23T09:58:16Z</time>
      </trkpt>
      <trkpt lat="39.0030380" lon="1.5818350">
        <ele>-0.1</ele>
        <time>2020-02-23T09:58:17Z</time>
      </trkpt>
      <trkpt lat="39.0030710" lon="1.5818370">
        <ele>-0.1</ele>
        <time>2020-02-23T09:58:18Z</time>
      </trkpt>
      <trkpt lat="39.0031010" lon="1.5818500">
        <ele>-0.1</ele>
        <time>2020-02-23T09:58:19Z</time>
      </trkpt>
      <trkpt lat="39.0031320" lon="1.5818620">
        <ele>-0.1</ele>
        <time>2020-02-23T09:58:20Z</time>
      </trkpt>
      <trkpt lat="39.0031650" lon="1.5818790">
        <ele>-0.1</ele>
        <time>2020-02-23T09:58:21Z</time>
      </trkpt>
      <trkpt lat="39.0032020" lon="1.5818930">
        <ele>-0.1</ele>
        <time>2020-02-23T09:58:22Z</time>
      </trkpt>
      <trkpt lat="39.0032340" lon="1.5819160">
        <ele>-0.1</ele>
        <time>2020-02-23T09:58:23Z</time>
      </trkpt>
      <trkpt lat="39.0032470" lon="1.5819140">
        <ele>-0.2</ele>
        <time>2020-02-23T09:58:24Z</time>
      </trkpt>
      <trkpt lat="39.0032890" lon="1.5819030">
        <ele>-0.1</ele>
        <time>2020-02-23T09:58:25Z</time>
      </trkpt>
      <trkpt lat="39.0033050" lon="1.5819010">
        <ele>0.0</ele>
        <time>2020-02-23T09:58:26Z</time>
      </trkpt>
      <trkpt lat="39.0033380" lon="1.5818970">
        <ele>0.1</ele>
        <time>2020-02-23T09:58:27Z</time>
      </trkpt>
      <trkpt lat="39.0033690" lon="1.5818940">
        <ele>0.2</ele>
        <time>2020-02-23T09:58:28Z</time>
      </trkpt>
      <trkpt lat="39.0034030" lon="1.5819070">
        <ele>0.3</ele>
        <time>2020-02-23T09:58:29Z</time>
      </trkpt>
      <trkpt lat="39.0034350" lon="1.5819130">
        <ele>0.4</ele>
        <time>2020-02-23T09:58:30Z</time>
      </trkpt>
      <trkpt lat="39.0034690" lon="1.5819220">
        <ele>0.5</ele>
        <time>2020-02-23T09:58:31Z</time>
      </trkpt>
      <trkpt lat="39.0035010" lon="1.5819200">
        <ele>0.6</ele>
        <time>2020-02-23T09:58:32Z</time>
      </trkpt>
      <trkpt lat="39.0035350" lon="1.5819160">
        <ele>0.6</ele>
        <time>2020-02-23T09:58:33Z</time>
      </trkpt>
      <trkpt lat="39.0035740" lon="1.5819100">
        <ele>0.8</ele>
        <time>2020-02-23T09:58:34Z</time>
      </trkpt>
      <trkpt lat="39.0036170" lon="1.5818980">
        <ele>0.9</ele>
        <time>2020-02-23T09:58:35Z</time>
      </trkpt>
      <trkpt lat="39.0036500" lon="1.5818720">
        <ele>1.1</ele>
        <time>2020-02-23T09:58:36Z</time>
      </trkpt>
      <trkpt lat="39.0036790" lon="1.5818430">
        <ele>1.2</ele>
        <time>2020-02-23T09:58:37Z</time>
      </trkpt>
      <trkpt lat="39.0037050" lon="1.5818050">
        <ele>1.4</ele>
        <time>2020-02-23T09:58:38Z</time>
      </trkpt>
      <trkpt lat="39.0037200" lon="1.5817530">
        <ele>1.5</ele>
        <time>2020-02-23T09:58:39Z</time>
      </trkpt>
      <trkpt lat="39.0037280" lon="1.5817130">
        <ele>1.5</ele>
        <time>2020-02-23T09:58:40Z</time>
      </trkpt>
      <trkpt lat="39.0037340" lon="1.5816710">
        <ele>1.6</ele>
        <time>2020-02-23T09:58:41Z</time>
      </trkpt>
      <trkpt lat="39.0037390" lon="1.5816210">
        <ele>1.7</ele>
        <time>2020-02-23T09:58:42Z</time>
      </trkpt>
      <trkpt lat="39.0037440" lon="1.5815720">
        <ele>1.8</ele>
        <time>2020-02-23T09:58:43Z</time>
      </trkpt>
      <trkpt lat="39.0037450" lon="1.5815260">
        <ele>1.9</ele>
        <time>2020-02-23T09:58:44Z</time>
      </trkpt>
      <trkpt lat="39.0037500" lon="1.5814860">
        <ele>1.9</ele>
        <time>2020-02-23T09:58:45Z</time>
      </trkpt>
      <trkpt lat="39.0037460" lon="1.5814420">
        <ele>2.0</ele>
        <time>2020-02-23T09:58:46Z</time>
      </trkpt>
      <trkpt lat="39.0037440" lon="1.5813880">
        <ele>2.1</ele>
        <time>2020-02-23T09:58:47Z</time>
      </trkpt>
      <trkpt lat="39.0037330" lon="1.5813390">
        <ele>2.1</ele>
        <time>2020-02-23T09:58:48Z</time>
      </trkpt>
      <trkpt lat="39.0037350" lon="1.5813000">
        <ele>2.2</ele>
        <time>2020-02-23T09:58:49Z</time>
      </trkpt>
      <trkpt lat="39.0037480" lon="1.5812660">
        <ele>2.2</ele>
        <time>2020-02-23T09:58:50Z</time>
      </trkpt>
      <trkpt lat="39.0037730" lon="1.5812490">
        <ele>2.3</ele>
        <time>2020-02-23T09:58:51Z</time>
      </trkpt>
      <trkpt lat="39.0038120" lon="1.5812650">
        <ele>2.3</ele>
        <time>2020-02-23T09:58:52Z</time>
      </trkpt>
      <trkpt lat="39.0038460" lon="1.5812590">
        <ele>2.4</ele>
        <time>2020-02-23T09:58:53Z</time>
      </trkpt>
      <trkpt lat="39.0038790" lon="1.5812520">
        <ele>2.4</ele>
        <time>2020-02-23T09:58:54Z</time>
      </trkpt>
      <trkpt lat="39.0039110" lon="1.5812430">
        <ele>2.4</ele>
        <time>2020-02-23T09:58:55Z</time>
      </trkpt>
      <trkpt lat="39.0039450" lon="1.5812180">
        <ele>2.4</ele>
        <time>2020-02-23T09:58:56Z</time>
      </trkpt>
      <trkpt lat="39.0039820" lon="1.5812070">
        <ele>2.5</ele>
        <time>2020-02-23T09:58:57Z</time>
      </trkpt>
      <trkpt lat="39.0040180" lon="1.5812020">
        <ele>2.5</ele>
        <time>2020-02-23T09:58:58Z</time>
      </trkpt>
      <trkpt lat="39.0040490" lon="1.5811950">
        <ele>2.5</ele>
        <time>2020-02-23T09:58:59Z</time>
      </trkpt>
      <trkpt lat="39.0040770" lon="1.5811710">
        <ele>2.6</ele>
        <time>2020-02-23T09:59:00Z</time>
      </trkpt>
      <trkpt lat="39.0041140" lon="1.5811550">
        <ele>2.4</ele>
        <time>2020-02-23T09:59:01Z</time>
      </trkpt>
      <trkpt lat="39.0041480" lon="1.5811380">
        <ele>2.3</ele>
        <time>2020-02-23T09:59:02Z</time>
      </trkpt>
      <trkpt lat="39.0041820" lon="1.5811310">
        <ele>2.2</ele>
        <time>2020-02-23T09:59:03Z</time>
      </trkpt>
      <trkpt lat="39.0042130" lon="1.5811240">
        <ele>2.1</ele>
        <time>2020-02-23T09:59:04Z</time>
      </trkpt>
      <trkpt lat="39.0042490" lon="1.5811250">
        <ele>2.1</ele>
        <time>2020-02-23T09:59:05Z</time>
      </trkpt>
      <trkpt lat="39.0042880" lon="1.5811200">
        <ele>2.0</ele>
        <time>2020-02-23T09:59:06Z</time>
      </trkpt>
      <trkpt lat="39.0043240" lon="1.5811120">
        <ele>2.1</ele>
        <time>2020-02-23T09:59:07Z</time>
      </trkpt>
      <trkpt lat="39.0043580" lon="1.5810990">
        <ele>2.1</ele>
        <time>2020-02-23T09:59:08Z</time>
      </trkpt>
      <trkpt lat="39.0043990" lon="1.5810890">
        <ele>2.2</ele>
        <time>2020-02-23T09:59:09Z</time>
      </trkpt>
      <trkpt lat="39.0044380" lon="1.5810880">
        <ele>2.3</ele>
        <time>2020-02-23T09:59:10Z</time>
      </trkpt>
      <trkpt lat="39.0044760" lon="1.5810800">
        <ele>2.6</ele>
        <time>2020-02-23T09:59:11Z</time>
      </trkpt>
      <trkpt lat="39.0045110" lon="1.5810700">
        <ele>2.8</ele>
        <time>2020-02-23T09:59:12Z</time>
      </trkpt>
      <trkpt lat="39.0045430" lon="1.5810640">
        <ele>3.1</ele>
        <time>2020-02-23T09:59:13Z</time>
      </trkpt>
      <trkpt lat="39.0045810" lon="1.5810640">
        <ele>3.3</ele>
        <time>2020-02-23T09:59:14Z</time>
      </trkpt>
      <trkpt lat="39.0046110" lon="1.5810630">
        <ele>3.5</ele>
        <time>2020-02-23T09:59:15Z</time>
      </trkpt>
      <trkpt lat="39.0046520" lon="1.5810700">
        <ele>3.7</ele>
        <time>2020-02-23T09:59:16Z</time>
      </trkpt>
      <trkpt lat="39.0046820" lon="1.5810710">
        <ele>3.9</ele>
        <time>2020-02-23T09:59:17Z</time>
      </trkpt>
      <trkpt lat="39.0047170" lon="1.5810740">
        <ele>4.1</ele>
        <time>2020-02-23T09:59:18Z</time>
      </trkpt>
      <trkpt lat="39.0047580" lon="1.5810780">
        <ele>4.4</ele>
        <time>2020-02-23T09:59:19Z</time>
      </trkpt>
      <trkpt lat="39.0047730" lon="1.5810800">
        <ele>4.5</ele>
        <time>2020-02-23T09:59:20Z</time>
      </trkpt>
      <trkpt lat="39.0048070" lon="1.5810830">
        <ele>4.7</ele>
        <time>2020-02-23T09:59:21Z</time>
      </trkpt>
      <trkpt lat="39.0048450" lon="1.5810830">
        <ele>5.1</ele>
        <time>2020-02-23T09:59:22Z</time>
      </trkpt>
      <trkpt lat="39.0048820" lon="1.5810880">
        <ele>5.4</ele>
        <time>2020-02-23T09:59:23Z</time>
      </trkpt>
      <trkpt lat="39.0049110" lon="1.5810920">
        <ele>5.6</ele>
        <time>2020-02-23T09:59:24Z</time>
      </trkpt>
      <trkpt lat="39.0049470" lon="1.5810890">
        <ele>5.8</ele>
        <time>2020-02-23T09:59:25Z</time>
      </trkpt>
      <trkpt lat="39.0049900" lon="1.5810820">
        <ele>6.2</ele>
        <time>2020-02-23T09:59:26Z</time>
      </trkpt>
      <trkpt lat="39.0050230" lon="1.5810930">
        <ele>6.4</ele>
        <time>2020-02-23T09:59:27Z</time>
      </trkpt>
      <trkpt lat="39.0050380" lon="1.5811000">
        <ele>6.4</ele>
        <time>2020-02-23T09:59:28Z</time>
      </trkpt>
      <trkpt lat="39.0050680" lon="1.5811150">
        <ele>6.4</ele>
        <time>2020-02-23T09:59:29Z</time>
      </trkpt>
      <trkpt lat="39.0050970" lon="1.5811290">
        <ele>6.5</ele>
        <time>2020-02-23T09:59:30Z</time>
      </trkpt>
      <trkpt lat="39.0051260" lon="1.5811460">
        <ele>5.4</ele>
        <time>2020-02-23T09:59:31Z</time>
      </trkpt>
      <trkpt lat="39.0051490" lon="1.5811680">
        <ele>5.8</ele>
        <time>2020-02-23T09:59:32Z</time>
      </trkpt>
      <trkpt lat="39.0051730" lon="1.5811870">
        <ele>4.6</ele>
        <time>2020-02-23T09:59:33Z</time>
      </trkpt>
      <trkpt lat="39.0051900" lon="1.5812180">
        <ele>4.3</ele>
        <time>2020-02-23T09:59:34Z</time>
      </trkpt>
      <trkpt lat="39.0052160" lon="1.5812530">
        <ele>5.1</ele>
        <time>2020-02-23T09:59:35Z</time>
      </trkpt>
      <trkpt lat="39.0052400" lon="1.5812920">
        <ele>4.6</ele>
        <time>2020-02-23T09:59:36Z</time>
      </trkpt>
      <trkpt lat="39.0052470" lon="1.5813080">
        <ele>5.4</ele>
        <time>2020-02-23T09:59:37Z</time>
      </trkpt>
      <trkpt lat="39.0052650" lon="1.5813580">
        <ele>5.3</ele>
        <time>2020-02-23T09:59:38Z</time>
      </trkpt>
      <trkpt lat="39.0052730" lon="1.5813770">
        <ele>5.3</ele>
        <time>2020-02-23T09:59:39Z</time>
      </trkpt>
      <trkpt lat="39.0052850" lon="1.5814100">
        <ele>6.4</ele>
        <time>2020-02-23T09:59:40Z</time>
      </trkpt>
      <trkpt lat="39.0052940" lon="1.5814500">
        <ele>6.4</ele>
        <time>2020-02-23T09:59:41Z</time>
      </trkpt>
      <trkpt lat="39.0053020" lon="1.5814840">
        <ele>6.2</ele>
        <time>2020-02-23T09:59:42Z</time>
      </trkpt>
      <trkpt lat="39.0053040" lon="1.5815000">
        <ele>6.2</ele>
        <time>2020-02-23T09:59:43Z</time>
      </trkpt>
      <trkpt lat="39.0053160" lon="1.5815240">
        <ele>6.7</ele>
        <time>2020-02-23T09:59:44Z</time>
      </trkpt>
      <trkpt lat="39.0053300" lon="1.5815680">
        <ele>6.2</ele>
        <time>2020-02-23T09:59:45Z</time>
      </trkpt>
      <trkpt lat="39.0053360" lon="1.5815830">
        <ele>6.1</ele>
        <time>2020-02-23T09:59:46Z</time>
      </trkpt>
      <trkpt lat="39.0053510" lon="1.5816220">
        <ele>6.0</ele>
        <time>2020-02-23T09:59:47Z</time>
      </trkpt>
      <trkpt lat="39.0053700" lon="1.5816520">
        <ele>5.0</ele>
        <time>2020-02-23T09:59:48Z</time>
      </trkpt>
      <trkpt lat="39.0053910" lon="1.5816810">
        <ele>5.5</ele>
        <time>2020-02-23T09:59:49Z</time>
      </trkpt>
      <trkpt lat="39.0054060" lon="1.5817160">
        <ele>4.5</ele>
        <time>2020-02-23T09:59:50Z</time>
      </trkpt>
      <trkpt lat="39.0054300" lon="1.5817500">
        <ele>4.0</ele>
        <time>2020-02-23T09:59:51Z</time>
      </trkpt>
      <trkpt lat="39.0054360" lon="1.5817620">
        <ele>4.0</ele>
        <time>2020-02-23T09:59:52Z</time>
      </trkpt>
      <trkpt lat="39.0054480" lon="1.5817790">
        <ele>3.8</ele>
        <time>2020-02-23T09:59:53Z</time>
      </trkpt>
      <trkpt lat="39.0054540" lon="1.5817660">
        <ele>4.6</ele>
        <time>2020-02-23T09:59:54Z</time>
      </trkpt>
      <trkpt lat="39.0054690" lon="1.5817720">
        <ele>4.6</ele>
        <time>2020-02-23T09:59:55Z</time>
      </trkpt>
      <trkpt lat="39.0054870" lon="1.5818060">
        <ele>4.5</ele>
        <time>2020-02-23T09:59:56Z</time>
      </trkpt>
      <trkpt lat="39.0054920" lon="1.5818210">
        <ele>3.8</ele>
        <time>2020-02-23T09:59:57Z</time>
      </trkpt>
      <trkpt lat="39.0054960" lon="1.5818330">
        <ele>3.8</ele>
        <time>2020-02-23T09:59:58Z</time>
      </trkpt>
      <trkpt lat="39.0054970" lon="1.5818560">
        <ele>3.8</ele>
        <time>2020-02-23T09:59:59Z</time>
      </trkpt>
      <trkpt lat="39.0055060" lon="1.5818940">
        <ele>3.2</ele>
        <time>2020-02-23T10:00:00Z</time>
      </trkpt>
      <trkpt lat="39.0055060" lon="1.5819090">
        <ele>2.8</ele>
        <time>2020-02-23T10:00:01Z</time>
      </trkpt>
      <trkpt lat="39.0055030" lon="1.5819280">
        <ele>2.8</ele>
        <time>2020-02-23T10:00:02Z</time>
      </trkpt>
      <trkpt lat="39.0055090" lon="1.5819540">
        <ele>2.5</ele>
        <time>2020-02-23T10:00:03Z</time>
      </trkpt>
      <trkpt lat="39.0055300" lon="1.5819890">
        <ele>2.4</ele>
        <time>2020-02-23T10:00:04Z</time>
      </trkpt>
      <trkpt lat="39.0055390" lon="1.5820030">
        <ele>2.4</ele>
        <time>2020-02-23T10:00:05Z</time>
      </trkpt>
      <trkpt lat="39.0055670" lon="1.5820340">
        <ele>2.0</ele>
        <time>2020-02-23T10:00:06Z</time>
      </trkpt>
      <trkpt lat="39.0055750" lon="1.5820490">
        <ele>2.0</ele>
        <time>2020-02-23T10:00:07Z</time>
      </trkpt>
      <trkpt lat="39.0056000" lon="1.5820830">
        <ele>1.7</ele>
        <time>2020-02-23T10:00:08Z</time>
      </trkpt>
      <trkpt lat="39.0056070" lon="1.5820950">
        <ele>1.7</ele>
        <time>2020-02-23T10:00:09Z</time>
      </trkpt>
      <trkpt lat="39.0056190" lon="1.5821170">
        <ele>1.8</ele>
        <time>2020-02-23T10:00:10Z</time>
      </trkpt>
      <trkpt lat="39.0056300" lon="1.5821260">
        <ele>1.6</ele>
        <time>2020-02-23T10:00:11Z</time>
      </trkpt>
      <trkpt lat="39.0056360" lon="1.5821210">
        <ele>1.6</ele>
        <time>2020-02-23T10:00:12Z</time>
      </trkpt>
      <trkpt lat="39.0056360" lon="1.5821160">
        <ele>1.7</ele>
        <time>2020-02-23T10:00:13Z</time>
      </trkpt>
      <trkpt lat="39.0056360" lon="1.5821160">
        <ele>1.7</ele>
        <time>2020-02-23T10:00:14Z</time>
      </trkpt>
      <trkpt lat="39.0056390" lon="1.5821150">
        <ele>1.7</ele>
        <time>2020-02-23T10:00:15Z</time>
      </trkpt>
      <trkpt lat="39.0056440" lon="1.5821090">
        <ele>1.7</ele>
        <time>2020-02-23T10:00:16Z</time>
      </trkpt>
      <trkpt lat="39.0056460" lon="1.5821120">
        <ele>1.9</ele>
        <time>2020-02-23T10:00:17Z</time>
      </trkpt>
      <trkpt lat="39.0056470" lon="1.5821120">
        <ele>1.9</ele>
        <time>2020-02-23T10:00:18Z</time>
      </trkpt>
      <trkpt lat="39.0056460" lon="1.5821110">
        <ele>1.9</ele>
        <time>2020-02-23T10:00:19Z</time>
      </trkpt>
      <trkpt lat="39.0056420" lon="1.5821130">
        <ele>1.7</ele>
        <time>2020-02-23T10:00:20Z</time>
      </trkpt>
      <trkpt lat="39.0056470" lon="1.5821310">
        <ele>1.6</ele>
        <time>2020-02-23T10:00:21Z</time>
      </trkpt>
      <trkpt lat="39.0056580" lon="1.5821390">
        <ele>1.6</ele>
        <time>2020-02-23T10:00:22Z</time>
      </trkpt>
      <trkpt lat="39.0056680" lon="1.5821470">
        <ele>1.6</ele>
        <time>2020-02-23T10:00:23Z</time>
      </trkpt>
      <trkpt lat="39.0056800" lon="1.5821480">
        <ele>1.9</ele>
        <time>2020-02-23T10:00:24Z</time>
      </trkpt>
      <trkpt lat="39.0056790" lon="1.5821450">
        <ele>1.9</ele>
        <time>2020-02-23T10:00:25Z</time>
      </trkpt>
      <trkpt lat="39.0056870" lon="1.5821530">
        <ele>1.9</ele>
        <time>2020-02-23T10:00:26Z</time>
      </trkpt>
      <trkpt lat="39.0056940" lon="1.5821500">
        <ele>1.9</ele>
        <time>2020-02-23T10:00:27Z</time>
      </trkpt>
      <trkpt lat="39.0057060" lon="1.5821440">
        <ele>1.9</ele>
        <time>2020-02-23T10:00:28Z</time>
      </trkpt>
      <trkpt lat="39.0057130" lon="1.5821390">
        <ele>2.3</ele>
        <time>2020-02-23T10:00:29Z</time>
      </trkpt>
      <trkpt lat="39.0057230" lon="1.5821380">
        <ele>2.3</ele>
        <time>2020-02-23T10:00:30Z</time>
      </trkpt>
      <trkpt lat="39.0057320" lon="1.5821340">
        <ele>2.3</ele>
        <time>2020-02-23T10:00:31Z</time>
      </trkpt>
      <trkpt lat="39.0057440" lon="1.5821370">
        <ele>2.3</ele>
        <time>2020-02-23T10:00:32Z</time>
      </trkpt>
      <trkpt lat="39.0057490" lon="1.5821420">
        <ele>2.8</ele>
        <time>2020-02-23T10:00:33Z</time>
      </trkpt>
      <trkpt lat="39.0057530" lon="1.5821360">
        <ele>2.8</ele>
        <time>2020-02-23T10:00:34Z</time>
      </trkpt>
      <trkpt lat="39.0057550" lon="1.5821330">
        <ele>2.8</ele>
        <time>2020-02-23T10:00:35Z</time>
      </trkpt>
      <trkpt lat="39.0057570" lon="1.5821450">
        <ele>2.8</ele>
        <time>2020-02-23T10:00:36Z</time>
      </trkpt>
      <trkpt lat="39.0057680" lon="1.5821430">
        <ele>2.8</ele>
        <time>2020-02-23T10:00:37Z</time>
      </trkpt>
      <trkpt lat="39.0057780" lon="1.5821420">
        <ele>2.8</ele>
        <time>2020-02-23T10:00:38Z</time>
      </trkpt>
      <trkpt lat="39.0057870" lon="1.5821380">
        <ele>3.4</ele>
        <time>2020-02-23T10:00:39Z</time>
      </trkpt>
      <trkpt lat="39.0057970" lon="1.5821320">
        <ele>3.4</ele>
        <time>2020-02-23T10:00:40Z</time>
      </trkpt>
      <trkpt lat="39.0058060" lon="1.5821310">
        <ele>3.4</ele>
        <time>2020-02-23T10:00:41Z</time>
      </trkpt>
      <trkpt lat="39.0058250" lon="1.5821440">
        <ele>4.2</ele>
        <time>2020-02-23T10:00:42Z</time>
      </trkpt>
      <trkpt lat="39.0058310" lon="1.5821510">
        <ele>4.1</ele>
        <time>2020-02-23T10:00:43Z</time>
      </trkpt>
      <trkpt lat="39.0058370" lon="1.5821570">
        <ele>4.1</ele>
        <time>2020-02-23T10:00:44Z</time>
      </trkpt>
      <trkpt lat="39.0058500" lon="1.5821630">
        <ele>4.2</ele>
        <time>2020-02-23T10:00:45Z</time>
      </trkpt>
      <trkpt lat="39.0058540" lon="1.5821700">
        <ele>4.2</ele>
        <time>2020-02-23T10:00:46Z</time>
      </trkpt>
      <trkpt lat="39.0058540" lon="1.5821810">
        <ele>4.2</ele>
        <time>2020-02-23T10:00:47Z</time>
      </trkpt>
      <trkpt lat="39.0058600" lon="1.5821880">
        <ele>4.2</ele>
        <time>2020-02-23T10:00:48Z</time>
      </trkpt>
      <trkpt lat="39.0058820" lon="1.5821860">
        <ele>4.8</ele>
        <time>2020-02-23T10:00:49Z</time>
      </trkpt>
      <trkpt lat="39.0058900" lon="1.5821890">
        <ele>4.8</ele>
        <time>2020-02-23T10:00:50Z</time>
      </trkpt>
      <trkpt lat="39.0058970" lon="1.5821920">
        <ele>4.8</ele>
        <time>2020-02-23T10:00:51Z</time>
      </trkpt>
      <trkpt lat="39.0059080" lon="1.5821980">
        <ele>4.8</ele>
        <time>2020-02-23T10:00:52Z</time>
      </trkpt>
      <trkpt lat="39.0059240" lon="1.5822020">
        <ele>5.3</ele>
        <time>2020-02-23T10:00:53Z</time>
      </trkpt>
      <trkpt lat="39.0059340" lon="1.5822190">
        <ele>4.3</ele>
        <time>2020-02-23T10:00:54Z</time>
      </trkpt>
      <trkpt lat="39.0059460" lon="1.5822240">
        <ele>4.6</ele>
        <time>2020-02-23T10:00:55Z</time>
      </trkpt>
      <trkpt lat="39.0059680" lon="1.5822360">
        <ele>4.6</ele>
        <time>2020-02-23T10:00:56Z</time>
      </trkpt>
      <trkpt lat="39.0059760" lon="1.5822390">
        <ele>4.6</ele>
        <time>2020-02-23T10:00:57Z</time>
      </trkpt>
      <trkpt lat="39.0059850" lon="1.5822430">
        <ele>4.9</ele>
        <time>2020-02-23T10:00:58Z</time>
      </trkpt>
      <trkpt lat="39.0060170" lon="1.5822540">
        <ele>3.8</ele>
        <time>2020-02-23T10:00:59Z</time>
      </trkpt>
      <trkpt lat="39.0060270" lon="1.5822610">
        <ele>3.8</ele>
        <time>2020-02-23T10:01:00Z</time>
      </trkpt>
      <trkpt lat="39.0060540" lon="1.5822780">
        <ele>3.9</ele>
        <time>2020-02-23T10:01:01Z</time>
      </trkpt>
      <trkpt lat="39.0060620" lon="1.5822820">
        <ele>3.9</ele>
        <time>2020-02-23T10:01:02Z</time>
      </trkpt>
      <trkpt lat="39.0060940" lon="1.5822990">
        <ele>2.9</ele>
        <time>2020-02-23T10:01:03Z</time>
      </trkpt>
      <trkpt lat="39.0061300" lon="1.5823080">
        <ele>2.9</ele>
        <time>2020-02-23T10:01:04Z</time>
      </trkpt>
      <trkpt lat="39.0061710" lon="1.5823080">
        <ele>2.8</ele>
        <time>2020-02-23T10:01:05Z</time>
      </trkpt>
      <trkpt lat="39.0062070" lon="1.5823100">
        <ele>2.8</ele>
        <time>2020-02-23T10:01:06Z</time>
      </trkpt>
      <trkpt lat="39.0062420" lon="1.5823110">
        <ele>2.8</ele>
        <time>2020-02-23T10:01:07Z</time>
      </trkpt>
      <trkpt lat="39.0062740" lon="1.5823100">
        <ele>2.8</ele>
        <time>2020-02-23T10:01:08Z</time>
      </trkpt>
      <trkpt lat="39.0063050" lon="1.5823120">
        <ele>2.8</ele>
        <time>2020-02-23T10:01:09Z</time>
      </trkpt>
      <trkpt lat="39.0063150" lon="1.5823110">
        <ele>2.8</ele>
        <time>2020-02-23T10:01:10Z</time>
      </trkpt>
      <trkpt lat="39.0063350" lon="1.5823110">
        <ele>2.8</ele>
        <time>2020-02-23T10:01:11Z</time>
      </trkpt>
      <trkpt lat="39.0063520" lon="1.5823080">
        <ele>2.8</ele>
        <time>2020-02-23T10:01:12Z</time>
      </trkpt>
      <trkpt lat="39.0063700" lon="1.5823040">
        <ele>2.8</ele>
        <time>2020-02-23T10:01:13Z</time>
      </trkpt>
      <trkpt lat="39.0063990" lon="1.5823050">
        <ele>2.8</ele>
        <time>2020-02-23T10:01:14Z</time>
      </trkpt>
      <trkpt lat="39.0064320" lon="1.5822940">
        <ele>2.8</ele>
        <time>2020-02-23T10:01:15Z</time>
      </trkpt>
      <trkpt lat="39.0064610" lon="1.5822810">
        <ele>3.8</ele>
        <time>2020-02-23T10:01:16Z</time>
      </trkpt>
      <trkpt lat="39.0064780" lon="1.5822740">
        <ele>3.8</ele>
        <time>2020-02-23T10:01:17Z</time>
      </trkpt>
      <trkpt lat="39.0064940" lon="1.5822700">
        <ele>3.7</ele>
        <time>2020-02-23T10:01:18Z</time>
      </trkpt>
      <trkpt lat="39.0065100" lon="1.5822790">
        <ele>3.7</ele>
        <time>2020-02-23T10:01:19Z</time>
      </trkpt>
      <trkpt lat="39.0065260" lon="1.5822840">
        <ele>3.6</ele>
        <time>2020-02-23T10:01:20Z</time>
      </trkpt>
      <trkpt lat="39.0065610" lon="1.5822820">
        <ele>3.4</ele>
        <time>2020-02-23T10:01:21Z</time>
      </trkpt>
      <trkpt lat="39.0065710" lon="1.5822740">
        <ele>3.4</ele>
        <time>2020-02-23T10:01:22Z</time>
      </trkpt>
      <trkpt lat="39.0065980" lon="1.5822670">
        <ele>3.1</ele>
        <time>2020-02-23T10:01:23Z</time>
      </trkpt>
      <trkpt lat="39.0066290" lon="1.5822580">
        <ele>2.8</ele>
        <time>2020-02-23T10:01:24Z</time>
      </trkpt>
      <trkpt lat="39.0066390" lon="1.5822520">
        <ele>2.8</ele>
        <time>2020-02-23T10:01:25Z</time>
      </trkpt>
      <trkpt lat="39.0066560" lon="1.5822440">
        <ele>3.0</ele>
        <time>2020-02-23T10:01:26Z</time>
      </trkpt>
      <trkpt lat="39.0066630" lon="1.5822320">
        <ele>3.0</ele>
        <time>2020-02-23T10:01:27Z</time>
      </trkpt>
      <trkpt lat="39.0066810" lon="1.5822240">
        <ele>2.5</ele>
        <time>2020-02-23T10:01:28Z</time>
      </trkpt>
      <trkpt lat="39.0066950" lon="1.5822200">
        <ele>2.5</ele>
        <time>2020-02-23T10:01:29Z</time>
      </trkpt>
      <trkpt lat="39.0067050" lon="1.5822180">
        <ele>2.5</ele>
        <time>2020-02-23T10:01:30Z</time>
      </trkpt>
      <trkpt lat="39.0067180" lon="1.5822130">
        <ele>2.0</ele>
        <time>2020-02-23T10:01:31Z</time>
      </trkpt>
      <trkpt lat="39.0067240" lon="1.5822150">
        <ele>2.0</ele>
        <time>2020-02-23T10:01:32Z</time>
      </trkpt>
      <trkpt lat="39.0067240" lon="1.5822130">
        <ele>2.0</ele>
        <time>2020-02-23T10:01:33Z</time>
      </trkpt>
      <trkpt lat="39.0067210" lon="1.5822070">
        <ele>2.0</ele>
        <time>2020-02-23T10:01:34Z</time>
      </trkpt>
      <trkpt lat="39.0067220" lon="1.5821970">
        <ele>2.2</ele>
        <time>2020-02-23T10:01:35Z</time>
      </trkpt>
      <trkpt lat="39.0067270" lon="1.5821780">
        <ele>2.2</ele>
        <time>2020-02-23T10:01:36Z</time>
      </trkpt>
      <trkpt lat="39.0067360" lon="1.5821580">
        <ele>2.5</ele>
        <time>2020-02-23T10:01:37Z</time>
      </trkpt>
      <trkpt lat="39.0067400" lon="1.5821480">
        <ele>2.5</ele>
        <time>2020-02-23T10:01:38Z</time>
      </trkpt>
      <trkpt lat="39.0067380" lon="1.5821490">
        <ele>2.5</ele>
        <time>2020-02-23T10:01:39Z</time>
      </trkpt>
      <trkpt lat="39.0067400" lon="1.5821480">
        <ele>2.5</ele>
        <time>2020-02-23T10:01:40Z</time>
      </trkpt>
      <trkpt lat="39.0067440" lon="1.5821440">
        <ele>2.5</ele>
        <time>2020-02-23T10:01:41Z</time>
      </trkpt>
      <trkpt lat="39.0067470" lon="1.5821320">
        <ele>1.8</ele>
        <time>2020-02-23T10:01:42Z</time>
      </trkpt>
      <trkpt lat="39.0067420" lon="1.5821250">
        <ele>2.5</ele>
        <time>2020-02-23T10:01:43Z</time>
      </trkpt>
      <trkpt lat="39.0067390" lon="1.5821180">
        <ele>2.5</ele>
        <time>2020-02-23T10:01:44Z</time>
      </trkpt>
      <trkpt lat="39.0067400" lon="1.5821160">
        <ele>3.0</ele>
        <time>2020-02-23T10:01:45Z</time>
      </trkpt>
      <trkpt lat="39.0067370" lon="1.5821070">
        <ele>3.0</ele>
        <time>2020-02-23T10:01:46Z</time>
      </trkpt>
      <trkpt lat="39.0067290" lon="1.5820760">
        <ele>3.0</ele>
        <time>2020-02-23T10:01:47Z</time>
      </trkpt>
      <trkpt lat="39.0067230" lon="1.5820620">
        <ele>3.8</ele>
        <time>2020-02-23T10:01:48Z</time>
      </trkpt>
      <trkpt lat="39.0067200" lon="1.5820470">
        <ele>3.8</ele>
        <time>2020-02-23T10:01:49Z</time>
      </trkpt>
      <trkpt lat="39.0067180" lon="1.5820280">
        <ele>5.4</ele>
        <time>2020-02-23T10:01:50Z</time>
      </trkpt>
      <trkpt lat="39.0067050" lon="1.5820230">
        <ele>6.1</ele>
        <time>2020-02-23T10:01:51Z</time>
      </trkpt>
      <trkpt lat="39.0066920" lon="1.5820060">
        <ele>6.1</ele>
        <time>2020-02-23T10:01:52Z</time>
      </trkpt>
      <trkpt lat="39.0066820" lon="1.5819920">
        <ele>6.1</ele>
        <time>2020-02-23T10:01:53Z</time>
      </trkpt>
      <trkpt lat="39.0066730" lon="1.5819790">
        <ele>7.6</ele>
        <time>2020-02-23T10:01:54Z</time>
      </trkpt>
      <trkpt lat="39.0066690" lon="1.5819770">
        <ele>7.6</ele>
        <time>2020-02-23T10:01:55Z</time>
      </trkpt>
      <trkpt lat="39.0066660" lon="1.5819610">
        <ele>7.6</ele>
        <time>2020-02-23T10:01:56Z</time>
      </trkpt>
      <trkpt lat="39.0066670" lon="1.5819470">
        <ele>7.6</ele>
        <time>2020-02-23T10:01:57Z</time>
      </trkpt>
      <trkpt lat="39.0066680" lon="1.5819370">
        <ele>8.4</ele>
        <time>2020-02-23T10:01:58Z</time>
      </trkpt>
      <trkpt lat="39.0066720" lon="1.5819280">
        <ele>8.4</ele>
        <time>2020-02-23T10:01:59Z</time>
      </trkpt>
      <trkpt lat="39.0066730" lon="1.5819240">
        <ele>8.4</ele>
        <time>2020-02-23T10:02:00Z</time>
      </trkpt>
      <trkpt lat="39.0066750" lon="1.5819180">
        <ele>8.4</ele>
        <time>2020-02-23T10:02:01Z</time>
      </trkpt>
      <trkpt lat="39.0066750" lon="1.5818990">
        <ele>9.1</ele>
        <time>2020-02-23T10:02:02Z</time>
      </trkpt>
      <trkpt lat="39.0066860" lon="1.5818740">
        <ele>8.9</ele>
        <time>2020-02-23T10:02:03Z</time>
      </trkpt>
      <trkpt lat="39.0066900" lon="1.5818700">
        <ele>8.9</ele>
        <time>2020-02-23T10:02:04Z</time>
      </trkpt>
      <trkpt lat="39.0066950" lon="1.5818660">
        <ele>8.9</ele>
        <time>2020-02-23T10:02:05Z</time>
      </trkpt>
      <trkpt lat="39.0066990" lon="1.5818620">
        <ele>8.9</ele>
        <time>2020-02-23T10:02:06Z</time>
      </trkpt>
      <trkpt lat="39.0067060" lon="1.5818570">
        <ele>9.7</ele>
        <time>2020-02-23T10:02:07Z</time>
      </trkpt>
      <trkpt lat="39.0067190" lon="1.5818500">
        <ele>9.5</ele>
        <time>2020-02-23T10:02:08Z</time>
      </trkpt>
      <trkpt lat="39.0067160" lon="1.5818520">
        <ele>9.5</ele>
        <time>2020-02-23T10:02:09Z</time>
      </trkpt>
      <trkpt lat="39.0067220" lon="1.5818580">
        <ele>9.5</ele>
        <time>2020-02-23T10:02:10Z</time>
      </trkpt>
      <trkpt lat="39.0067330" lon="1.5818600">
        <ele>8.6</ele>
        <time>2020-02-23T10:02:11Z</time>
      </trkpt>
      <trkpt lat="39.0067450" lon="1.5818610">
        <ele>8.6</ele>
        <time>2020-02-23T10:02:12Z</time>
      </trkpt>
      <trkpt lat="39.0067600" lon="1.5818490">
        <ele>9.2</ele>
        <time>2020-02-23T10:02:13Z</time>
      </trkpt>
      <trkpt lat="39.0067920" lon="1.5818380">
        <ele>8.8</ele>
        <time>2020-02-23T10:02:14Z</time>
      </trkpt>
      <trkpt lat="39.0068020" lon="1.5818350">
        <ele>8.8</ele>
        <time>2020-02-23T10:02:15Z</time>
      </trkpt>
      <trkpt lat="39.0068280" lon="1.5818410">
        <ele>8.2</ele>
        <time>2020-02-23T10:02:16Z</time>
      </trkpt>
      <trkpt lat="39.0068400" lon="1.5818420">
        <ele>8.2</ele>
        <time>2020-02-23T10:02:17Z</time>
      </trkpt>
      <trkpt lat="39.0068800" lon="1.5818360">
        <ele>6.5</ele>
        <time>2020-02-23T10:02:18Z</time>
      </trkpt>
      <trkpt lat="39.0068970" lon="1.5818330">
        <ele>6.5</ele>
        <time>2020-02-23T10:02:19Z</time>
      </trkpt>
      <trkpt lat="39.0069360" lon="1.5818160">
        <ele>6.0</ele>
        <time>2020-02-23T10:02:20Z</time>
      </trkpt>
      <trkpt lat="39.0069500" lon="1.5818090">
        <ele>4.9</ele>
        <time>2020-02-23T10:02:21Z</time>
      </trkpt>
      <trkpt lat="39.0069820" lon="1.5817960">
        <ele>3.8</ele>
        <time>2020-02-23T10:02:22Z</time>
      </trkpt>
      <trkpt lat="39.0070210" lon="1.5817820">
        <ele>2.8</ele>
        <time>2020-02-23T10:02:23Z</time>
      </trkpt>
      <trkpt lat="39.0070540" lon="1.5817540">
        <ele>1.7</ele>
        <time>2020-02-23T10:02:24Z</time>
      </trkpt>
      <trkpt lat="39.0070790" lon="1.5817370">
        <ele>1.7</ele>
        <time>2020-02-23T10:02:25Z</time>
      </trkpt>
      <trkpt lat="39.0070970" lon="1.5817030">
        <ele>0.6</ele>
        <time>2020-02-23T10:02:26Z</time>
      </trkpt>
      <trkpt lat="39.0071020" lon="1.5816890">
        <ele>0.6</ele>
        <time>2020-02-23T10:02:27Z</time>
      </trkpt>
      <trkpt lat="39.0071170" lon="1.5816550">
        <ele>-0.2</ele>
        <time>2020-02-23T10:02:28Z</time>
      </trkpt>
      <trkpt lat="39.0071220" lon="1.5816420">
        <ele>-0.1</ele>
        <time>2020-02-23T10:02:29Z</time>
      </trkpt>
      <trkpt lat="39.0071340" lon="1.5816100">
        <ele>-0.1</ele>
        <time>2020-02-23T10:02:30Z</time>
      </trkpt>
      <trkpt lat="39.0071430" lon="1.5815760">
        <ele>0.3</ele>
        <time>2020-02-23T10:02:31Z</time>
      </trkpt>
      <trkpt lat="39.0071790" lon="1.5815580">
        <ele>0.8</ele>
        <time>2020-02-23T10:02:32Z</time>
      </trkpt>
      <trkpt lat="39.0071960" lon="1.5815250">
        <ele>0.7</ele>
        <time>2020-02-23T10:02:33Z</time>
      </trkpt>
      <trkpt lat="39.0072060" lon="1.5815130">
        <ele>1.8</ele>
        <time>2020-02-23T10:02:34Z</time>
      </trkpt>
      <trkpt lat="39.0072420" lon="1.5814910">
        <ele>1.8</ele>
        <time>2020-02-23T10:02:35Z</time>
      </trkpt>
      <trkpt lat="39.0072530" lon="1.5814830">
        <ele>1.9</ele>
        <time>2020-02-23T10:02:36Z</time>
      </trkpt>
      <trkpt lat="39.0072780" lon="1.5814670">
        <ele>3.2</ele>
        <time>2020-02-23T10:02:37Z</time>
      </trkpt>
      <trkpt lat="39.0073070" lon="1.5814510">
        <ele>3.3</ele>
        <time>2020-02-23T10:02:38Z</time>
      </trkpt>
      <trkpt lat="39.0073160" lon="1.5814460">
        <ele>3.4</ele>
        <time>2020-02-23T10:02:39Z</time>
      </trkpt>
      <trkpt lat="39.0073320" lon="1.5814400">
        <ele>3.4</ele>
        <time>2020-02-23T10:02:40Z</time>
      </trkpt>
      <trkpt lat="39.0073440" lon="1.5814330">
        <ele>3.4</ele>
        <time>2020-02-23T10:02:41Z</time>
      </trkpt>
      <trkpt lat="39.0073650" lon="1.5814310">
        <ele>3.5</ele>
        <time>2020-02-23T10:02:42Z</time>
      </trkpt>
      <trkpt lat="39.0073790" lon="1.5814330">
        <ele>3.5</ele>
        <time>2020-02-23T10:02:43Z</time>
      </trkpt>
      <trkpt lat="39.0073920" lon="1.5814340">
        <ele>3.6</ele>
        <time>2020-02-23T10:02:44Z</time>
      </trkpt>
      <trkpt lat="39.0074080" lon="1.5814360">
        <ele>3.6</ele>
        <time>2020-02-23T10:02:45Z</time>
      </trkpt>
      <trkpt lat="39.0074240" lon="1.5814220">
        <ele>4.7</ele>
        <time>2020-02-23T10:02:46Z</time>
      </trkpt>
      <trkpt lat="39.0074520" lon="1.5814140">
        <ele>4.7</ele>
        <time>2020-02-23T10:02:47Z</time>
      </trkpt>
      <trkpt lat="39.0074630" lon="1.5814130">
        <ele>4.7</ele>
        <time>2020-02-23T10:02:48Z</time>
      </trkpt>
      <trkpt lat="39.0074820" lon="1.5814100">
        <ele>4.6</ele>
        <time>2020-02-23T10:02:49Z</time>
      </trkpt>
      <trkpt lat="39.0074960" lon="1.5814080">
        <ele>4.6</ele>
        <time>2020-02-23T10:02:50Z</time>
      </trkpt>
      <trkpt lat="39.0074990" lon="1.5814080">
        <ele>4.6</ele>
        <time>2020-02-23T10:02:51Z</time>
      </trkpt>
      <trkpt lat="39.0075070" lon="1.5814260">
        <ele>4.6</ele>
        <time>2020-02-23T10:02:52Z</time>
      </trkpt>
      <trkpt lat="39.0075150" lon="1.5814360">
        <ele>3.4</ele>
        <time>2020-02-23T10:02:53Z</time>
      </trkpt>
      <trkpt lat="39.0075560" lon="1.5814440">
        <ele>3.3</ele>
        <time>2020-02-23T10:02:54Z</time>
      </trkpt>
      <trkpt lat="39.0075800" lon="1.5814510">
        <ele>3.2</ele>
        <time>2020-02-23T10:02:55Z</time>
      </trkpt>
      <trkpt lat="39.0076140" lon="1.5814620">
        <ele>3.1</ele>
        <time>2020-02-23T10:02:56Z</time>
      </trkpt>
      <trkpt lat="39.0076450" lon="1.5814630">
        <ele>3.1</ele>
        <time>2020-02-23T10:02:57Z</time>
      </trkpt>
      <trkpt lat="39.0076680" lon="1.5814640">
        <ele>3.0</ele>
        <time>2020-02-23T10:02:58Z</time>
      </trkpt>
      <trkpt lat="39.0076790" lon="1.5814630">
        <ele>3.0</ele>
        <time>2020-02-23T10:02:59Z</time>
      </trkpt>
      <trkpt lat="39.0076850" lon="1.5814580">
        <ele>2.8</ele>
        <time>2020-02-23T10:03:00Z</time>
      </trkpt>
      <trkpt lat="39.0076850" lon="1.5814500">
        <ele>2.8</ele>
        <time>2020-02-23T10:03:01Z</time>
      </trkpt>
      <trkpt lat="39.0076840" lon="1.5814530">
        <ele>2.8</ele>
        <time>2020-02-23T10:03:02Z</time>
      </trkpt>
      <trkpt lat="39.0076830" lon="1.5814620">
        <ele>2.8</ele>
        <time>2020-02-23T10:03:03Z</time>
      </trkpt>
      <trkpt lat="39.0076830" lon="1.5814710">
        <ele>2.8</ele>
        <time>2020-02-23T10:03:04Z</time>
      </trkpt>
      <trkpt lat="39.0076860" lon="1.5814890">
        <ele>1.9</ele>
        <time>2020-02-23T10:03:05Z</time>
      </trkpt>
      <trkpt lat="39.0076900" lon="1.5815000">
        <ele>1.9</ele>
        <time>2020-02-23T10:03:06Z</time>
      </trkpt>
      <trkpt lat="39.0077120" lon="1.5815070">
        <ele>1.9</ele>
        <time>2020-02-23T10:03:07Z</time>
      </trkpt>
      <trkpt lat="39.0077240" lon="1.5815010">
        <ele>1.7</ele>
        <time>2020-02-23T10:03:08Z</time>
      </trkpt>
      <trkpt lat="39.0077300" lon="1.5815010">
        <ele>1.7</ele>
        <time>2020-02-23T10:03:09Z</time>
      </trkpt>
      <trkpt lat="39.0077290" lon="1.5814940">
        <ele>1.7</ele>
        <time>2020-02-23T10:03:10Z</time>
      </trkpt>
      <trkpt lat="39.0077360" lon="1.5815050">
        <ele>1.7</ele>
        <time>2020-02-23T10:03:11Z</time>
      </trkpt>
      <trkpt lat="39.0077510" lon="1.5815100">
        <ele>1.6</ele>
        <time>2020-02-23T10:03:12Z</time>
      </trkpt>
      <trkpt lat="39.0077640" lon="1.5815150">
        <ele>1.6</ele>
        <time>2020-02-23T10:03:13Z</time>
      </trkpt>
      <trkpt lat="39.0077840" lon="1.5815250">
        <ele>0.9</ele>
        <time>2020-02-23T10:03:14Z</time>
      </trkpt>
      <trkpt lat="39.0078010" lon="1.5815240">
        <ele>0.9</ele>
        <time>2020-02-23T10:03:15Z</time>
      </trkpt>
      <trkpt lat="39.0078130" lon="1.5815200">
        <ele>0.8</ele>
        <time>2020-02-23T10:03:16Z</time>
      </trkpt>
      <trkpt lat="39.0078230" lon="1.5815280">
        <ele>0.9</ele>
        <time>2020-02-23T10:03:17Z</time>
      </trkpt>
      <trkpt lat="39.0078400" lon="1.5815320">
        <ele>0.8</ele>
        <time>2020-02-23T10:03:18Z</time>
      </trkpt>
      <trkpt lat="39.0078510" lon="1.5815360">
        <ele>0.9</ele>
        <time>2020-02-23T10:03:19Z</time>
      </trkpt>
      <trkpt lat="39.0078580" lon="1.5815430">
        <ele>0.9</ele>
        <time>2020-02-23T10:03:20Z</time>
      </trkpt>
      <trkpt lat="39.0078630" lon="1.5815470">
        <ele>0.9</ele>
        <time>2020-02-23T10:03:21Z</time>
      </trkpt>
      <trkpt lat="39.0078730" lon="1.5815450">
        <ele>0.9</ele>
        <time>2020-02-23T10:03:22Z</time>
      </trkpt>
      <trkpt lat="39.0079000" lon="1.5815490">
        <ele>1.1</ele>
        <time>2020-02-23T10:03:23Z</time>
      </trkpt>
      <trkpt lat="39.0079090" lon="1.5815480">
        <ele>1.1</ele>
        <time>2020-02-23T10:03:24Z</time>
      </trkpt>
      <trkpt lat="39.0079320" lon="1.5815450">
        <ele>1.4</ele>
        <time>2020-02-23T10:03:25Z</time>
      </trkpt>
      <trkpt lat="39.0079450" lon="1.5815510">
        <ele>1.4</ele>
        <time>2020-02-23T10:03:26Z</time>
      </trkpt>
      <trkpt lat="39.0079460" lon="1.5815570">
        <ele>1.4</ele>
        <time>2020-02-23T10:03:27Z</time>
      </trkpt>
      <trkpt lat="39.0079490" lon="1.5815570">
        <ele>1.8</ele>
        <time>2020-02-23T10:03:28Z</time>
      </trkpt>
      <trkpt lat="39.0079560" lon="1.5815590">
        <ele>1.8</ele>
        <time>2020-02-23T10:03:29Z</time>
      </trkpt>
      <trkpt lat="39.0079730" lon="1.5815650">
        <ele>1.4</ele>
        <time>2020-02-23T10:03:30Z</time>
      </trkpt>
      <trkpt lat="39.0079850" lon="1.5815640">
        <ele>1.9</ele>
        <time>2020-02-23T10:03:31Z</time>
      </trkpt>
      <trkpt lat="39.0079970" lon="1.5815690">
        <ele>1.9</ele>
        <time>2020-02-23T10:03:32Z</time>
      </trkpt>
      <trkpt lat="39.0080000" lon="1.5815720">
        <ele>1.9</ele>
        <time>2020-02-23T10:03:33Z</time>
      </trkpt>
      <trkpt lat="39.0080080" lon="1.5815810">
        <ele>1.9</ele>
        <time>2020-02-23T10:03:34Z</time>
      </trkpt>
      <trkpt lat="39.0080170" lon="1.5815930">
        <ele>2.5</ele>
        <time>2020-02-23T10:03:35Z</time>
      </trkpt>
      <trkpt lat="39.0080230" lon="1.5815950">
        <ele>2.5</ele>
        <time>2020-02-23T10:03:36Z</time>
      </trkpt>
      <trkpt lat="39.0080300" lon="1.5815860">
        <ele>2.5</ele>
        <time>2020-02-23T10:03:37Z</time>
      </trkpt>
      <trkpt lat="39.0080310" lon="1.5815790">
        <ele>2.4</ele>
        <time>2020-02-23T10:03:38Z</time>
      </trkpt>
      <trkpt lat="39.0080330" lon="1.5815800">
        <ele>2.4</ele>
        <time>2020-02-23T10:03:39Z</time>
      </trkpt>
      <trkpt lat="39.0080340" lon="1.5815770">
        <ele>2.4</ele>
        <time>2020-02-23T10:03:40Z</time>
      </trkpt>
      <trkpt lat="39.0080380" lon="1.5815860">
        <ele>2.4</ele>
        <time>2020-02-23T10:03:41Z</time>
      </trkpt>
      <trkpt lat="39.0080330" lon="1.5816040">
        <ele>2.0</ele>
        <time>2020-02-23T10:03:42Z</time>
      </trkpt>
      <trkpt lat="39.0080390" lon="1.5815970">
        <ele>2.4</ele>
        <time>2020-02-23T10:03:43Z</time>
      </trkpt>
      <trkpt lat="39.0080430" lon="1.5815950">
        <ele>2.4</ele>
        <time>2020-02-23T10:03:44Z</time>
      </trkpt>
      <trkpt lat="39.0080420" lon="1.5816020">
        <ele>2.4</ele>
        <time>2020-02-23T10:03:45Z</time>
      </trkpt>
      <trkpt lat="39.0080460" lon="1.5816010">
        <ele>2.4</ele>
        <time>2020-02-23T10:03:46Z</time>
      </trkpt>
      <trkpt lat="39.0080520" lon="1.5816020">
        <ele>3.0</ele>
        <time>2020-02-23T10:03:47Z</time>
      </trkpt>
      <trkpt lat="39.0080800" lon="1.5816180">
        <ele>3.1</ele>
        <time>2020-02-23T10:03:48Z</time>
      </trkpt>
      <trkpt lat="39.0080890" lon="1.5816140">
        <ele>3.1</ele>
        <time>2020-02-23T10:03:49Z</time>
      </trkpt>
      <trkpt lat="39.0081000" lon="1.5816080">
        <ele>3.1</ele>
        <time>2020-02-23T10:03:50Z</time>
      </trkpt>
      <trkpt lat="39.0081100" lon="1.5816110">
        <ele>3.1</ele>
        <time>2020-02-23T10:03:51Z</time>
      </trkpt>
      <trkpt lat="39.0081250" lon="1.5816130">
        <ele>3.6</ele>
        <time>2020-02-23T10:03:52Z</time>
      </trkpt>
      <trkpt lat="39.0081380" lon="1.5816100">
        <ele>3.6</ele>
        <time>2020-02-23T10:03:53Z</time>
      </trkpt>
      <trkpt lat="39.0081510" lon="1.5815980">
        <ele>4.7</ele>
        <time>2020-02-23T10:03:54Z</time>
      </trkpt>
      <trkpt lat="39.0081580" lon="1.5815920">
        <ele>4.7</ele>
        <time>2020-02-23T10:03:55Z</time>
      </trkpt>
      <trkpt lat="39.0081650" lon="1.5815860">
        <ele>4.7</ele>
        <time>2020-02-23T10:03:56Z</time>
      </trkpt>
      <trkpt lat="39.0081730" lon="1.5815850">
        <ele>4.7</ele>
        <time>2020-02-23T10:03:57Z</time>
      </trkpt>
      <trkpt lat="39.0081810" lon="1.5815770">
        <ele>5.1</ele>
        <time>2020-02-23T10:03:58Z</time>
      </trkpt>
      <trkpt lat="39.0081940" lon="1.5815700">
        <ele>5.1</ele>
        <time>2020-02-23T10:03:59Z</time>
      </trkpt>
      <trkpt lat="39.0082110" lon="1.5815620">
        <ele>5.1</ele>
        <time>2020-02-23T10:04:00Z</time>
      </trkpt>
      <trkpt lat="39.0082220" lon="1.5815500">
        <ele>6.0</ele>
        <time>2020-02-23T10:04:01Z</time>
      </trkpt>
      <trkpt lat="39.0082340" lon="1.5815340">
        <ele>6.0</ele>
        <time>2020-02-23T10:04:02Z</time>
      </trkpt>
      <trkpt lat="39.0082430" lon="1.5815250">
        <ele>6.0</ele>
        <time>2020-02-23T10:04:03Z</time>
      </trkpt>
      <trkpt lat="39.0082560" lon="1.5815140">
        <ele>6.5</ele>
        <time>2020-02-23T10:04:04Z</time>
      </trkpt>
      <trkpt lat="39.0082630" lon="1.5815100">
        <ele>6.5</ele>
        <time>2020-02-23T10:04:05Z</time>
      </trkpt>
      <trkpt lat="39.0082690" lon="1.5815070">
        <ele>6.5</ele>
        <time>2020-02-23T10:04:06Z</time>
      </trkpt>
      <trkpt lat="39.0082760" lon="1.5815030">
        <ele>6.5</ele>
        <time>2020-02-23T10:04:07Z</time>
      </trkpt>
      <trkpt lat="39.0082820" lon="1.5815000">
        <ele>6.6</ele>
        <time>2020-02-23T10:04:08Z</time>
      </trkpt>
      <trkpt lat="39.0082920" lon="1.5815010">
        <ele>6.6</ele>
        <time>2020-02-23T10:04:09Z</time>
      </trkpt>
      <trkpt lat="39.0083110" lon="1.5815000">
        <ele>6.6</ele>
        <time>2020-02-23T10:04:10Z</time>
      </trkpt>
      <trkpt lat="39.0083170" lon="1.5814920">
        <ele>6.7</ele>
        <time>2020-02-23T10:04:11Z</time>
      </trkpt>
      <trkpt lat="39.0083270" lon="1.5814920">
        <ele>6.6</ele>
        <time>2020-02-23T10:04:12Z</time>
      </trkpt>
      <trkpt lat="39.0083280" lon="1.5814930">
        <ele>6.6</ele>
        <time>2020-02-23T10:04:13Z</time>
      </trkpt>
      <trkpt lat="39.0083360" lon="1.5815000">
        <ele>6.6</ele>
        <time>2020-02-23T10:04:14Z</time>
      </trkpt>
      <trkpt lat="39.0083350" lon="1.5815100">
        <ele>6.6</ele>
        <time>2020-02-23T10:04:15Z</time>
      </trkpt>
      <trkpt lat="39.0083400" lon="1.5815150">
        <ele>6.6</ele>
        <time>2020-02-23T10:04:16Z</time>
      </trkpt>
      <trkpt lat="39.0083550" lon="1.5815130">
        <ele>6.6</ele>
        <time>2020-02-23T10:04:17Z</time>
      </trkpt>
      <trkpt lat="39.0083600" lon="1.5815170">
        <ele>6.2</ele>
        <time>2020-02-23T10:04:18Z</time>
      </trkpt>
      <trkpt lat="39.0083660" lon="1.5815200">
        <ele>6.2</ele>
        <time>2020-02-23T10:04:19Z</time>
      </trkpt>
      <trkpt lat="39.0083710" lon="1.5815240">
        <ele>6.2</ele>
        <time>2020-02-23T10:04:20Z</time>
      </trkpt>
      <trkpt lat="39.0083770" lon="1.5815270">
        <ele>6.2</ele>
        <time>2020-02-23T10:04:21Z</time>
      </trkpt>
      <trkpt lat="39.0083780" lon="1.5815400">
        <ele>6.2</ele>
        <time>2020-02-23T10:04:22Z</time>
      </trkpt>
      <trkpt lat="39.0083810" lon="1.5815430">
        <ele>6.2</ele>
        <time>2020-02-23T10:04:23Z</time>
      </trkpt>
      <trkpt lat="39.0083840" lon="1.5815450">
        <ele>6.2</ele>
        <time>2020-02-23T10:04:24Z</time>
      </trkpt>
      <trkpt lat="39.0083870" lon="1.5815470">
        <ele>6.2</ele>
        <time>2020-02-23T10:04:25Z</time>
      </trkpt>
      <trkpt lat="39.0083900" lon="1.5815490">
        <ele>6.1</ele>
        <time>2020-02-23T10:04:26Z</time>
      </trkpt>
      <trkpt lat="39.0083920" lon="1.5815520">
        <ele>6.1</ele>
        <time>2020-02-23T10:04:27Z</time>
      </trkpt>
      <trkpt lat="39.0083950" lon="1.5815540">
        <ele>6.1</ele>
        <time>2020-02-23T10:04:28Z</time>
      </trkpt>
      <trkpt lat="39.0083980" lon="1.5815560">
        <ele>6.1</ele>
        <time>2020-02-23T10:04:29Z</time>
      </trkpt>
      <trkpt lat="39.0084010" lon="1.5815590">
        <ele>6.1</ele>
        <time>2020-02-23T10:04:30Z</time>
      </trkpt>
      <trkpt lat="39.0084040" lon="1.5815610">
        <ele>5.5</ele>
        <time>2020-02-23T10:04:31Z</time>
      </trkpt>
      <trkpt lat="39.0084310" lon="1.5815910">
        <ele>5.5</ele>
        <time>2020-02-23T10:04:32Z</time>
      </trkpt>
      <trkpt lat="39.0084380" lon="1.5815990">
        <ele>5.5</ele>
        <time>2020-02-23T10:04:33Z</time>
      </trkpt>
      <trkpt lat="39.0084450" lon="1.5816100">
        <ele>4.7</ele>
        <time>2020-02-23T10:04:34Z</time>
      </trkpt>
      <trkpt lat="39.0084520" lon="1.5816180">
        <ele>4.6</ele>
        <time>2020-02-23T10:04:35Z</time>
      </trkpt>
      <trkpt lat="39.0084610" lon="1.5816180">
        <ele>4.6</ele>
        <time>2020-02-23T10:04:36Z</time>
      </trkpt>
      <trkpt lat="39.0084800" lon="1.5816290">
        <ele>4.6</ele>
        <time>2020-02-23T10:04:37Z</time>
      </trkpt>
      <trkpt lat="39.0084880" lon="1.5816220">
        <ele>4.6</ele>
        <time>2020-02-23T10:04:38Z</time>
      </trkpt>
      <trkpt lat="39.0084940" lon="1.5816200">
        <ele>4.6</ele>
        <time>2020-02-23T10:04:39Z</time>
      </trkpt>
      <trkpt lat="39.0084930" lon="1.5816240">
        <ele>4.6</ele>
        <time>2020-02-23T10:04:40Z</time>
      </trkpt>
      <trkpt lat="39.0085020" lon="1.5816360">
        <ele>4.5</ele>
        <time>2020-02-23T10:04:41Z</time>
      </trkpt>
      <trkpt lat="39.0085110" lon="1.5816490">
        <ele>3.6</ele>
        <time>2020-02-23T10:04:42Z</time>
      </trkpt>
      <trkpt lat="39.0085310" lon="1.5816570">
        <ele>3.5</ele>
        <time>2020-02-23T10:04:43Z</time>
      </trkpt>
      <trkpt lat="39.0085400" lon="1.5816660">
        <ele>3.5</ele>
        <time>2020-02-23T10:04:44Z</time>
      </trkpt>
      <trkpt lat="39.0085480" lon="1.5816750">
        <ele>3.4</ele>
        <time>2020-02-23T10:04:45Z</time>
      </trkpt>
      <trkpt lat="39.0085800" lon="1.5816840">
        <ele>3.4</ele>
        <time>2020-02-23T10:04:46Z</time>
      </trkpt>
      <trkpt lat="39.0085900" lon="1.5816850">
        <ele>3.4</ele>
        <time>2020-02-23T10:04:47Z</time>
      </trkpt>
      <trkpt lat="39.0086220" lon="1.5816920">
        <ele>2.2</ele>
        <time>2020-02-23T10:04:48Z</time>
      </trkpt>
      <trkpt lat="39.0086340" lon="1.5816990">
        <ele>2.2</ele>
        <time>2020-02-23T10:04:49Z</time>
      </trkpt>
      <trkpt lat="39.0086600" lon="1.5817130">
        <ele>2.3</ele>
        <time>2020-02-23T10:04:50Z</time>
      </trkpt>
      <trkpt lat="39.0086930" lon="1.5817220">
        <ele>2.5</ele>
        <time>2020-02-23T10:04:51Z</time>
      </trkpt>
      <trkpt lat="39.0087090" lon="1.5817220">
        <ele>2.5</ele>
        <time>2020-02-23T10:04:52Z</time>
      </trkpt>
      <trkpt lat="39.0087450" lon="1.5817130">
        <ele>2.7</ele>
        <time>2020-02-23T10:04:53Z</time>
      </trkpt>
      <trkpt lat="39.0087550" lon="1.5817100">
        <ele>3.1</ele>
        <time>2020-02-23T10:04:54Z</time>
      </trkpt>
      <trkpt lat="39.0087930" lon="1.5817230">
        <ele>3.6</ele>
        <time>2020-02-23T10:04:55Z</time>
      </trkpt>
      <trkpt lat="39.0088070" lon="1.5817360">
        <ele>2.6</ele>
        <time>2020-02-23T10:04:56Z</time>
      </trkpt>
      <trkpt lat="39.0088330" lon="1.5817630">
        <ele>3.3</ele>
        <time>2020-02-23T10:04:57Z</time>
      </trkpt>
      <trkpt lat="39.0088580" lon="1.5817810">
        <ele>3.3</ele>
        <time>2020-02-23T10:04:58Z</time>
      </trkpt>
      <trkpt lat="39.0088870" lon="1.5818020">
        <ele>4.3</ele>
        <time>2020-02-23T10:04:59Z</time>
      </trkpt>
      <trkpt lat="39.0088950" lon="1.5818060">
        <ele>4.3</ele>
        <time>2020-02-23T10:05:00Z</time>
      </trkpt>
      <trkpt lat="39.0089190" lon="1.5818090">
        <ele>5.2</ele>
        <time>2020-02-23T10:05:01Z</time>
      </trkpt>
      <trkpt lat="39.0089260" lon="1.5818130">
        <ele>5.2</ele>
        <time>2020-02-23T10:05:02Z</time>
      </trkpt>
      <trkpt lat="39.0089340" lon="1.5818160">
        <ele>5.2</ele>
        <time>2020-02-23T10:05:03Z</time>
      </trkpt>
      <trkpt lat="39.0089440" lon="1.5818190">
        <ele>4.5</ele>
        <time>2020-02-23T10:05:04Z</time>
      </trkpt>
      <trkpt lat="39.0089540" lon="1.5818190">
        <ele>5.4</ele>
        <time>2020-02-23T10:05:05Z</time>
      </trkpt>
      <trkpt lat="39.0089680" lon="1.5818230">
        <ele>5.4</ele>
        <time>2020-02-23T10:05:06Z</time>
      </trkpt>
      <trkpt lat="39.0089810" lon="1.5818150">
        <ele>6.9</ele>
        <time>2020-02-23T10:05:07Z</time>
      </trkpt>
      <trkpt lat="39.0089920" lon="1.5818010">
        <ele>6.9</ele>
        <time>2020-02-23T10:05:08Z</time>
      </trkpt>
      <trkpt lat="39.0090060" lon="1.5817980">
        <ele>6.9</ele>
        <time>2020-02-23T10:05:09Z</time>
      </trkpt>
      <trkpt lat="39.0090260" lon="1.5818020">
        <ele>7.5</ele>
        <time>2020-02-23T10:05:10Z</time>
      </trkpt>
      <trkpt lat="39.0090470" lon="1.5817990">
        <ele>8.0</ele>
        <time>2020-02-23T10:05:11Z</time>
      </trkpt>
      <trkpt lat="39.0090550" lon="1.5817970">
        <ele>8.0</ele>
        <time>2020-02-23T10:05:12Z</time>
      </trkpt>
      <trkpt lat="39.0090640" lon="1.5817950">
        <ele>8.0</ele>
        <time>2020-02-23T10:05:13Z</time>
      </trkpt>
      <trkpt lat="39.0090880" lon="1.5818000">
        <ele>8.4</ele>
        <time>2020-02-23T10:05:14Z</time>
      </trkpt>
      <trkpt lat="39.0091000" lon="1.5818070">
        <ele>8.4</ele>
        <time>2020-02-23T10:05:15Z</time>
      </trkpt>
      <trkpt lat="39.0091130" lon="1.5818150">
        <ele>8.4</ele>
        <time>2020-02-23T10:05:16Z</time>
      </trkpt>
      <trkpt lat="39.0091360" lon="1.5818440">
        <ele>7.7</ele>
        <time>2020-02-23T10:05:17Z</time>
      </trkpt>
      <trkpt lat="39.0091430" lon="1.5818560">
        <ele>7.7</ele>
        <time>2020-02-23T10:05:18Z</time>
      </trkpt>
      <trkpt lat="39.0091720" lon="1.5818930">
        <ele>6.5</ele>
        <time>2020-02-23T10:05:19Z</time>
      </trkpt>
      <trkpt lat="39.0091820" lon="1.5819050">
        <ele>5.0</ele>
        <time>2020-02-23T10:05:20Z</time>
      </trkpt>
      <trkpt lat="39.0092070" lon="1.5819280">
        <ele>5.0</ele>
        <time>2020-02-23T10:05:21Z</time>
      </trkpt>
      <trkpt lat="39.0092340" lon="1.5819510">
        <ele>3.5</ele>
        <time>2020-02-23T10:05:22Z</time>
      </trkpt>
      <trkpt lat="39.0092400" lon="1.5819580">
        <ele>3.5</ele>
        <time>2020-02-23T10:05:23Z</time>
      </trkpt>
      <trkpt lat="39.0092660" lon="1.5819690">
        <ele>3.5</ele>
        <time>2020-02-23T10:05:24Z</time>
      </trkpt>
      <trkpt lat="39.0092770" lon="1.5819740">
        <ele>3.5</ele>
        <time>2020-02-23T10:05:25Z</time>
      </trkpt>
      <trkpt lat="39.0092880" lon="1.5819900">
        <ele>2.4</ele>
        <time>2020-02-23T10:05:26Z</time>
      </trkpt>
      <trkpt lat="39.0092980" lon="1.5820100">
        <ele>2.4</ele>
        <time>2020-02-23T10:05:27Z</time>
      </trkpt>
      <trkpt lat="39.0093270" lon="1.5820210">
        <ele>2.9</ele>
        <time>2020-02-23T10:05:28Z</time>
      </trkpt>
      <trkpt lat="39.0093370" lon="1.5820260">
        <ele>2.8</ele>
        <time>2020-02-23T10:05:29Z</time>
      </trkpt>
      <trkpt lat="39.0093550" lon="1.5820350">
        <ele>1.9</ele>
        <time>2020-02-23T10:05:30Z</time>
      </trkpt>
      <trkpt lat="39.0093710" lon="1.5820360">
        <ele>1.9</ele>
        <time>2020-02-23T10:05:31Z</time>
      </trkpt>
      <trkpt lat="39.0093990" lon="1.5820450">
        <ele>2.8</ele>
        <time>2020-02-23T10:05:32Z</time>
      </trkpt>
      <trkpt lat="39.0094070" lon="1.5820460">
        <ele>2.8</ele>
        <time>2020-02-23T10:05:33Z</time>
      </trkpt>
      <trkpt lat="39.0094190" lon="1.5820460">
        <ele>3.8</ele>
        <time>2020-02-23T10:05:34Z</time>
      </trkpt>
      <trkpt lat="39.0094330" lon="1.5820470">
        <ele>3.8</ele>
        <time>2020-02-23T10:05:35Z</time>
      </trkpt>
      <trkpt lat="39.0094390" lon="1.5820410">
        <ele>3.8</ele>
        <time>2020-02-23T10:05:36Z</time>
      </trkpt>
      <trkpt lat="39.0094390" lon="1.5820350">
        <ele>3.8</ele>
        <time>2020-02-23T10:05:37Z</time>
      </trkpt>
      <trkpt lat="39.0094380" lon="1.5820210">
        <ele>5.1</ele>
        <time>2020-02-23T10:05:38Z</time>
      </trkpt>
      <trkpt lat="39.0094480" lon="1.5820050">
        <ele>6.0</ele>
        <time>2020-02-23T10:05:39Z</time>
      </trkpt>
      <trkpt lat="39.0094700" lon="1.5820010">
        <ele>6.0</ele>
        <time>2020-02-23T10:05:40Z</time>
      </trkpt>
      <trkpt lat="39.0094790" lon="1.5820020">
        <ele>6.0</ele>
        <time>2020-02-23T10:05:41Z</time>
      </trkpt>
      <trkpt lat="39.0094870" lon="1.5820040">
        <ele>6.9</ele>
        <time>2020-02-23T10:05:42Z</time>
      </trkpt>
      <trkpt lat="39.0094990" lon="1.5820010">
        <ele>6.9</ele>
        <time>2020-02-23T10:05:43Z</time>
      </trkpt>
      <trkpt lat="39.0095130" lon="1.5819890">
        <ele>6.9</ele>
        <time>2020-02-23T10:05:44Z</time>
      </trkpt>
      <trkpt lat="39.0095430" lon="1.5819710">
        <ele>6.8</ele>
        <time>2020-02-23T10:05:45Z</time>
      </trkpt>
      <trkpt lat="39.0095510" lon="1.5819670">
        <ele>6.7</ele>
        <time>2020-02-23T10:05:46Z</time>
      </trkpt>
      <trkpt lat="39.0095690" lon="1.5819660">
        <ele>6.6</ele>
        <time>2020-02-23T10:05:47Z</time>
      </trkpt>
      <trkpt lat="39.0095850" lon="1.5819800">
        <ele>6.5</ele>
        <time>2020-02-23T10:05:48Z</time>
      </trkpt>
      <trkpt lat="39.0095920" lon="1.5819950">
        <ele>6.5</ele>
        <time>2020-02-23T10:05:49Z</time>
      </trkpt>
      <trkpt lat="39.0096000" lon="1.5820140">
        <ele>6.4</ele>
        <time>2020-02-23T10:05:50Z</time>
      </trkpt>
      <trkpt lat="39.0096160" lon="1.5820470">
        <ele>6.2</ele>
        <time>2020-02-23T10:05:51Z</time>
      </trkpt>
      <trkpt lat="39.0096250" lon="1.5820640">
        <ele>6.1</ele>
        <time>2020-02-23T10:05:52Z</time>
      </trkpt>
      <trkpt lat="39.0096440" lon="1.5820910">
        <ele>6.0</ele>
        <time>2020-02-23T10:05:53Z</time>
      </trkpt>
      <trkpt lat="39.0096710" lon="1.5821150">
        <ele>5.9</ele>
        <time>2020-02-23T10:05:54Z</time>
      </trkpt>
      <trkpt lat="39.0096970" lon="1.5821320">
        <ele>5.7</ele>
        <time>2020-02-23T10:05:55Z</time>
      </trkpt>
      <trkpt lat="39.0097240" lon="1.5821550">
        <ele>5.6</ele>
        <time>2020-02-23T10:05:56Z</time>
      </trkpt>
      <trkpt lat="39.0097390" lon="1.5821640">
        <ele>5.5</ele>
        <time>2020-02-23T10:05:57Z</time>
      </trkpt>
      <trkpt lat="39.0097530" lon="1.5821790">
        <ele>5.5</ele>
        <time>2020-02-23T10:05:58Z</time>
      </trkpt>
      <trkpt lat="39.0097750" lon="1.5822110">
        <ele>5.3</ele>
        <time>2020-02-23T10:05:59Z</time>
      </trkpt>
      <trkpt lat="39.0097820" lon="1.5822240">
        <ele>5.2</ele>
        <time>2020-02-23T10:06:00Z</time>
      </trkpt>
      <trkpt lat="39.0098070" lon="1.5822450">
        <ele>5.0</ele>
        <time>2020-02-23T10:06:01Z</time>
      </trkpt>
      <trkpt lat="39.0098300" lon="1.5822660">
        <ele>4.9</ele>
        <time>2020-02-23T10:06:02Z</time>
      </trkpt>
      <trkpt lat="39.0098600" lon="1.5822880">
        <ele>4.8</ele>
        <time>2020-02-23T10:06:03Z</time>
      </trkpt>
      <trkpt lat="39.0098830" lon="1.5823150">
        <ele>4.7</ele>
        <time>2020-02-23T10:06:04Z</time>
      </trkpt>
      <trkpt lat="39.0099050" lon="1.5823430">
        <ele>4.6</ele>
        <time>2020-02-23T10:06:05Z</time>
      </trkpt>
      <trkpt lat="39.0099170" lon="1.5823520">
        <ele>4.5</ele>
        <time>2020-02-23T10:06:06Z</time>
      </trkpt>
      <trkpt lat="39.0099480" lon="1.5823760">
        <ele>4.4</ele>
        <time>2020-02-23T10:06:07Z</time>
      </trkpt>
      <trkpt lat="39.0099580" lon="1.5823820">
        <ele>4.3</ele>
        <time>2020-02-23T10:06:08Z</time>
      </trkpt>
      <trkpt lat="39.0099830" lon="1.5824020">
        <ele>4.2</ele>
        <time>2020-02-23T10:06:09Z</time>
      </trkpt>
      <trkpt lat="39.0099930" lon="1.5824110">
        <ele>4.1</ele>
        <time>2020-02-23T10:06:10Z</time>
      </trkpt>
      <trkpt lat="39.0100210" lon="1.5824410">
        <ele>4.2</ele>
        <time>2020-02-23T10:06:11Z</time>
      </trkpt>
      <trkpt lat="39.0100310" lon="1.5824560">
        <ele>4.3</ele>
        <time>2020-02-23T10:06:12Z</time>
      </trkpt>
      <trkpt lat="39.0100540" lon="1.5824790">
        <ele>4.5</ele>
        <time>2020-02-23T10:06:13Z</time>
      </trkpt>
      <trkpt lat="39.0100610" lon="1.5824910">
        <ele>4.5</ele>
        <time>2020-02-23T10:06:14Z</time>
      </trkpt>
      <trkpt lat="39.0100920" lon="1.5825180">
        <ele>4.7</ele>
        <time>2020-02-23T10:06:15Z</time>
      </trkpt>
      <trkpt lat="39.0101000" lon="1.5825280">
        <ele>4.8</ele>
        <time>2020-02-23T10:06:16Z</time>
      </trkpt>
      <trkpt lat="39.0101300" lon="1.5825520">
        <ele>4.9</ele>
        <time>2020-02-23T10:06:17Z</time>
      </trkpt>
      <trkpt lat="39.0101390" lon="1.5825610">
        <ele>5.0</ele>
        <time>2020-02-23T10:06:18Z</time>
      </trkpt>
      <trkpt lat="39.0101700" lon="1.5825770">
        <ele>5.2</ele>
        <time>2020-02-23T10:06:19Z</time>
      </trkpt>
      <trkpt lat="39.0101810" lon="1.5825820">
        <ele>5.3</ele>
        <time>2020-02-23T10:06:20Z</time>
      </trkpt>
      <trkpt lat="39.0102060" lon="1.5826010">
        <ele>5.4</ele>
        <time>2020-02-23T10:06:21Z</time>
      </trkpt>
      <trkpt lat="39.0102360" lon="1.5826400">
        <ele>5.5</ele>
        <time>2020-02-23T10:06:22Z</time>
      </trkpt>
      <trkpt lat="39.0102480" lon="1.5826590">
        <ele>5.6</ele>
        <time>2020-02-23T10:06:23Z</time>
      </trkpt>
      <trkpt lat="39.0102810" lon="1.5826760">
        <ele>5.7</ele>
        <time>2020-02-23T10:06:24Z</time>
      </trkpt>
      <trkpt lat="39.0102940" lon="1.5826830">
        <ele>5.7</ele>
        <time>2020-02-23T10:06:25Z</time>
      </trkpt>
      <trkpt lat="39.0103260" lon="1.5827050">
        <ele>5.9</ele>
        <time>2020-02-23T10:06:26Z</time>
      </trkpt>
      <trkpt lat="39.0103550" lon="1.5827180">
        <ele>5.9</ele>
        <time>2020-02-23T10:06:27Z</time>
      </trkpt>
      <trkpt lat="39.0103840" lon="1.5827290">
        <ele>6.0</ele>
        <time>2020-02-23T10:06:28Z</time>
      </trkpt>
      <trkpt lat="39.0104200" lon="1.5827310">
        <ele>6.2</ele>
        <time>2020-02-23T10:06:29Z</time>
      </trkpt>
      <trkpt lat="39.0104310" lon="1.5827290">
        <ele>6.2</ele>
        <time>2020-02-23T10:06:30Z</time>
      </trkpt>
      <trkpt lat="39.0104630" lon="1.5827270">
        <ele>6.4</ele>
        <time>2020-02-23T10:06:31Z</time>
      </trkpt>
      <trkpt lat="39.0105030" lon="1.5827240">
        <ele>6.6</ele>
        <time>2020-02-23T10:06:32Z</time>
      </trkpt>
      <trkpt lat="39.0105400" lon="1.5827180">
        <ele>6.8</ele>
        <time>2020-02-23T10:06:33Z</time>
      </trkpt>
      <trkpt lat="39.0105770" lon="1.5827130">
        <ele>7.0</ele>
        <time>2020-02-23T10:06:34Z</time>
      </trkpt>
      <trkpt lat="39.0106100" lon="1.5827120">
        <ele>7.1</ele>
        <time>2020-02-23T10:06:35Z</time>
      </trkpt>
      <trkpt lat="39.0106440" lon="1.5827060">
        <ele>7.3</ele>
        <time>2020-02-23T10:06:36Z</time>
      </trkpt>
      <trkpt lat="39.0106770" lon="1.5826970">
        <ele>7.5</ele>
        <time>2020-02-23T10:06:37Z</time>
      </trkpt>
      <trkpt lat="39.0107130" lon="1.5826910">
        <ele>7.7</ele>
        <time>2020-02-23T10:06:38Z</time>
      </trkpt>
      <trkpt lat="39.0107560" lon="1.5826940">
        <ele>7.9</ele>
        <time>2020-02-23T10:06:39Z</time>
      </trkpt>
      <trkpt lat="39.0107730" lon="1.5826980">
        <ele>8.0</ele>
        <time>2020-02-23T10:06:40Z</time>
      </trkpt>
      <trkpt lat="39.0108090" lon="1.5827190">
        <ele>8.2</ele>
        <time>2020-02-23T10:06:41Z</time>
      </trkpt>
      <trkpt lat="39.0108420" lon="1.5827390">
        <ele>8.3</ele>
        <time>2020-02-23T10:06:42Z</time>
      </trkpt>
      <trkpt lat="39.0108690" lon="1.5827710">
        <ele>8.5</ele>
        <time>2020-02-23T10:06:43Z</time>
      </trkpt>
      <trkpt lat="39.0108910" lon="1.5827950">
        <ele>8.6</ele>
        <time>2020-02-23T10:06:44Z</time>
      </trkpt>
      <trkpt lat="39.0109110" lon="1.5828210">
        <ele>8.6</ele>
        <time>2020-02-23T10:06:45Z</time>
      </trkpt>
      <trkpt lat="39.0109410" lon="1.5828600">
        <ele>8.7</ele>
        <time>2020-02-23T10:06:46Z</time>
      </trkpt>
      <trkpt lat="39.0109510" lon="1.5828740">
        <ele>8.7</ele>
        <time>2020-02-23T10:06:47Z</time>
      </trkpt>
      <trkpt lat="39.0109800" lon="1.5829090">
        <ele>8.7</ele>
        <time>2020-02-23T10:06:48Z</time>
      </trkpt>
      <trkpt lat="39.0110100" lon="1.5829320">
        <ele>8.8</ele>
        <time>2020-02-23T10:06:49Z</time>
      </trkpt>
      <trkpt lat="39.0110190" lon="1.5829360">
        <ele>8.8</ele>
        <time>2020-02-23T10:06:50Z</time>
      </trkpt>
      <trkpt lat="39.0110480" lon="1.5829650">
        <ele>8.8</ele>
        <time>2020-02-23T10:06:51Z</time>
      </trkpt>
      <trkpt lat="39.0110580" lon="1.5829730">
        <ele>8.8</ele>
        <time>2020-02-23T10:06:52Z</time>
      </trkpt>
      <trkpt lat="39.0110850" lon="1.5829960">
        <ele>8.9</ele>
        <time>2020-02-23T10:06:53Z</time>
      </trkpt>
      <trkpt lat="39.0111100" lon="1.5830120">
        <ele>8.9</ele>
        <time>2020-02-23T10:06:54Z</time>
      </trkpt>
      <trkpt lat="39.0111430" lon="1.5830280">
        <ele>9.0</ele>
        <time>2020-02-23T10:06:55Z</time>
      </trkpt>
      <trkpt lat="39.0111540" lon="1.5830330">
        <ele>9.0</ele>
        <time>2020-02-23T10:06:56Z</time>
      </trkpt>
      <trkpt lat="39.0111840" lon="1.5830530">
        <ele>9.0</ele>
        <time>2020-02-23T10:06:57Z</time>
      </trkpt>
      <trkpt lat="39.0111910" lon="1.5830580">
        <ele>9.0</ele>
        <time>2020-02-23T10:06:58Z</time>
      </trkpt>
      <trkpt lat="39.0112190" lon="1.5830870">
        <ele>9.1</ele>
        <time>2020-02-23T10:06:59Z</time>
      </trkpt>
      <trkpt lat="39.0112280" lon="1.5831060">
        <ele>9.1</ele>
        <time>2020-02-23T10:07:00Z</time>
      </trkpt>
      <trkpt lat="39.0112480" lon="1.5831150">
        <ele>9.1</ele>
        <time>2020-02-23T10:07:01Z</time>
      </trkpt>
      <trkpt lat="39.0112590" lon="1.5831180">
        <ele>9.1</ele>
        <time>2020-02-23T10:07:02Z</time>
      </trkpt>
      <trkpt lat="39.0112690" lon="1.5831200">
        <ele>9.2</ele>
        <time>2020-02-23T10:07:03Z</time>
      </trkpt>
      <trkpt lat="39.0113050" lon="1.5831170">
        <ele>9.2</ele>
        <time>2020-02-23T10:07:04Z</time>
      </trkpt>
      <trkpt lat="39.0113170" lon="1.5831160">
        <ele>9.2</ele>
        <time>2020-02-23T10:07:05Z</time>
      </trkpt>
      <trkpt lat="39.0113460" lon="1.5831130">
        <ele>9.3</ele>
        <time>2020-02-23T10:07:06Z</time>
      </trkpt>
      <trkpt lat="39.0113800" lon="1.5831120">
        <ele>9.3</ele>
        <time>2020-02-23T10:07:07Z</time>
      </trkpt>
      <trkpt lat="39.0113900" lon="1.5831160">
        <ele>9.3</ele>
        <time>2020-02-23T10:07:08Z</time>
      </trkpt>
      <trkpt lat="39.0114150" lon="1.5831330">
        <ele>9.4</ele>
        <time>2020-02-23T10:07:09Z</time>
      </trkpt>
      <trkpt lat="39.0114710" lon="1.5831560">
        <ele>9.4</ele>
        <time>2020-02-23T10:07:10Z</time>
      </trkpt>
      <trkpt lat="39.0115090" lon="1.5831630">
        <ele>9.5</ele>
        <time>2020-02-23T10:07:11Z</time>
      </trkpt>
      <trkpt lat="39.0115210" lon="1.5831650">
        <ele>9.5</ele>
        <time>2020-02-23T10:07:12Z</time>
      </trkpt>
      <trkpt lat="39.0115570" lon="1.5831570">
        <ele>9.6</ele>
        <time>2020-02-23T10:07:13Z</time>
      </trkpt>
      <trkpt lat="39.0115700" lon="1.5831530">
        <ele>9.6</ele>
        <time>2020-02-23T10:07:14Z</time>
      </trkpt>
      <trkpt lat="39.0116220" lon="1.5831400">
        <ele>9.7</ele>
        <time>2020-02-23T10:07:15Z</time>
      </trkpt>
      <trkpt lat="39.0116600" lon="1.5831210">
        <ele>9.7</ele>
        <time>2020-02-23T10:07:16Z</time>
      </trkpt>
      <trkpt lat="39.0116770" lon="1.5831110">
        <ele>9.8</ele>
        <time>2020-02-23T10:07:17Z</time>
      </trkpt>
      <trkpt lat="39.0117070" lon="1.5830750">
        <ele>9.8</ele>
        <time>2020-02-23T10:07:18Z</time>
      </trkpt>
      <trkpt lat="39.0117340" lon="1.5830520">
        <ele>9.9</ele>
        <time>2020-02-23T10:07:19Z</time>
      </trkpt>
      <trkpt lat="39.0117530" lon="1.5830260">
        <ele>9.9</ele>
        <time>2020-02-23T10:07:20Z</time>
      </trkpt>
      <trkpt lat="39.0117810" lon="1.5829910">
        <ele>10.0</ele>
        <time>2020-02-23T10:07:21Z</time>
      </trkpt>
      <trkpt lat="39.0117930" lon="1.5829800">
        <ele>10.1</ele>
        <time>2020-02-23T10:07:22Z</time>
      </trkpt>
      <trkpt lat="39.0118190" lon="1.5829600">
        <ele>10.1</ele>
        <time>2020-02-23T10:07:23Z</time>
      </trkpt>
      <trkpt lat="39.0118530" lon="1.5829370">
        <ele>10.2</ele>
        <time>2020-02-23T10:07:24Z</time>
      </trkpt>
      <trkpt lat="39.0118650" lon="1.5829280">
        <ele>10.2</ele>
        <time>2020-02-23T10:07:25Z</time>
      </trkpt>
      <trkpt lat="39.0118900" lon="1.5828960">
        <ele>10.3</ele>
        <time>2020-02-23T10:07:26Z</time>
      </trkpt>
      <trkpt lat="39.0119160" lon="1.5828640">
        <ele>10.5</ele>
        <time>2020-02-23T10:07:27Z</time>
      </trkpt>
      <trkpt lat="39.0119250" lon="1.5828530">
        <ele>10.5</ele>
        <time>2020-02-23T10:07:28Z</time>
      </trkpt>
      <trkpt lat="39.0119450" lon="1.5828280">
        <ele>10.6</ele>
        <time>2020-02-23T10:07:29Z</time>
      </trkpt>
      <trkpt lat="39.0119750" lon="1.5827920">
        <ele>10.8</ele>
        <time>2020-02-23T10:07:30Z</time>
      </trkpt>
      <trkpt lat="39.0119850" lon="1.5827780">
        <ele>10.8</ele>
        <time>2020-02-23T10:07:31Z</time>
      </trkpt>
      <trkpt lat="39.0120140" lon="1.5827470">
        <ele>10.9</ele>
        <time>2020-02-23T10:07:32Z</time>
      </trkpt>
      <trkpt lat="39.0120230" lon="1.5827390">
        <ele>11.0</ele>
        <time>2020-02-23T10:07:33Z</time>
      </trkpt>
      <trkpt lat="39.0120510" lon="1.5827060">
        <ele>11.1</ele>
        <time>2020-02-23T10:07:34Z</time>
      </trkpt>
      <trkpt lat="39.0120600" lon="1.5826950">
        <ele>11.2</ele>
        <time>2020-02-23T10:07:35Z</time>
      </trkpt>
      <trkpt lat="39.0120830" lon="1.5826750">
        <ele>11.2</ele>
        <time>2020-02-23T10:07:36Z</time>
      </trkpt>
      <trkpt lat="39.0121060" lon="1.5826550">
        <ele>11.3</ele>
        <time>2020-02-23T10:07:37Z</time>
      </trkpt>
      <trkpt lat="39.0121430" lon="1.5826320">
        <ele>11.5</ele>
        <time>2020-02-23T10:07:38Z</time>
      </trkpt>
      <trkpt lat="39.0121570" lon="1.5826240">
        <ele>11.5</ele>
        <time>2020-02-23T10:07:39Z</time>
      </trkpt>
      <trkpt lat="39.0121730" lon="1.5826140">
        <ele>11.6</ele>
        <time>2020-02-23T10:07:40Z</time>
      </trkpt>
      <trkpt lat="39.0121920" lon="1.5826110">
        <ele>11.6</ele>
        <time>2020-02-23T10:07:41Z</time>
      </trkpt>
      <trkpt lat="39.0122260" lon="1.5826030">
        <ele>11.8</ele>
        <time>2020-02-23T10:07:42Z</time>
      </trkpt>
      <trkpt lat="39.0122370" lon="1.5825980">
        <ele>11.9</ele>
        <time>2020-02-23T10:07:43Z</time>
      </trkpt>
      <trkpt lat="39.0122680" lon="1.5825820">
        <ele>12.1</ele>
        <time>2020-02-23T10:07:44Z</time>
      </trkpt>
      <trkpt lat="39.0122770" lon="1.5825770">
        <ele>12.2</ele>
        <time>2020-02-23T10:07:45Z</time>
      </trkpt>
      <trkpt lat="39.0123040" lon="1.5825630">
        <ele>12.3</ele>
        <time>2020-02-23T10:07:46Z</time>
      </trkpt>
      <trkpt lat="39.0123130" lon="1.5825590">
        <ele>12.3</ele>
        <time>2020-02-23T10:07:47Z</time>
      </trkpt>
      <trkpt lat="39.0123280" lon="1.5825510">
        <ele>12.4</ele>
        <time>2020-02-23T10:07:48Z</time>
      </trkpt>
      <trkpt lat="39.0123470" lon="1.5825480">
        <ele>12.5</ele>
        <time>2020-02-23T10:07:49Z</time>
      </trkpt>
      <trkpt lat="39.0123750" lon="1.5825350">
        <ele>12.6</ele>
        <time>2020-02-23T10:07:50Z</time>
      </trkpt>
      <trkpt lat="39.0123860" lon="1.5825290">
        <ele>12.7</ele>
        <time>2020-02-23T10:07:51Z</time>
      </trkpt>
      <trkpt lat="39.0124180" lon="1.5825110">
        <ele>12.9</ele>
        <time>2020-02-23T10:07:52Z</time>
      </trkpt>
      <trkpt lat="39.0124290" lon="1.5825040">
        <ele>12.9</ele>
        <time>2020-02-23T10:07:53Z</time>
      </trkpt>
      <trkpt lat="39.0124550" lon="1.5824900">
        <ele>13.2</ele>
        <time>2020-02-23T10:07:54Z</time>
      </trkpt>
      <trkpt lat="39.0124870" lon="1.5824690">
        <ele>13.4</ele>
        <time>2020-02-23T10:07:55Z</time>
      </trkpt>
      <trkpt lat="39.0125160" lon="1.5824560">
        <ele>13.6</ele>
        <time>2020-02-23T10:07:56Z</time>
      </trkpt>
      <trkpt lat="39.0125460" lon="1.5824440">
        <ele>13.7</ele>
        <time>2020-02-23T10:07:57Z</time>
      </trkpt>
      <trkpt lat="39.0125700" lon="1.5824300">
        <ele>13.8</ele>
        <time>2020-02-23T10:07:58Z</time>
      </trkpt>
      <trkpt lat="39.0125960" lon="1.5824140">
        <ele>14.0</ele>
        <time>2020-02-23T10:07:59Z</time>
      </trkpt>
      <trkpt lat="39.0126200" lon="1.5823910">
        <ele>14.1</ele>
        <time>2020-02-23T10:08:00Z</time>
      </trkpt>
      <trkpt lat="39.0126480" lon="1.5823660">
        <ele>14.3</ele>
        <time>2020-02-23T10:08:01Z</time>
      </trkpt>
      <trkpt lat="39.0127080" lon="1.5823420">
        <ele>14.5</ele>
        <time>2020-02-23T10:08:02Z</time>
      </trkpt>
      <trkpt lat="39.0127500" lon="1.5823160">
        <ele>14.7</ele>
        <time>2020-02-23T10:08:03Z</time>
      </trkpt>
      <trkpt lat="39.0127830" lon="1.5822980">
        <ele>14.8</ele>
        <time>2020-02-23T10:08:04Z</time>
      </trkpt>
      <trkpt lat="39.0128160" lon="1.5822810">
        <ele>15.0</ele>
        <time>2020-02-23T10:08:05Z</time>
      </trkpt>
      <trkpt lat="39.0128520" lon="1.5822540">
        <ele>15.1</ele>
        <time>2020-02-23T10:08:06Z</time>
      </trkpt>
      <trkpt lat="39.0128760" lon="1.5822230">
        <ele>15.1</ele>
        <time>2020-02-23T10:08:07Z</time>
      </trkpt>
      <trkpt lat="39.0129010" lon="1.5821930">
        <ele>15.2</ele>
        <time>2020-02-23T10:08:08Z</time>
      </trkpt>
      <trkpt lat="39.0129310" lon="1.5821640">
        <ele>15.2</ele>
        <time>2020-02-23T10:08:09Z</time>
      </trkpt>
      <trkpt lat="39.0129550" lon="1.5821340">
        <ele>15.2</ele>
        <time>2020-02-23T10:08:10Z</time>
      </trkpt>
      <trkpt lat="39.0129800" lon="1.5821130">
        <ele>15.2</ele>
        <time>2020-02-23T10:08:11Z</time>
      </trkpt>
      <trkpt lat="39.0130220" lon="1.5821090">
        <ele>15.2</ele>
        <time>2020-02-23T10:08:12Z</time>
      </trkpt>
      <trkpt lat="39.0130550" lon="1.5821120">
        <ele>15.5</ele>
        <time>2020-02-23T10:08:13Z</time>
      </trkpt>
      <trkpt lat="39.0130860" lon="1.5821220">
        <ele>15.7</ele>
        <time>2020-02-23T10:08:14Z</time>
      </trkpt>
      <trkpt lat="39.0131170" lon="1.5821510">
        <ele>16.0</ele>
        <time>2020-02-23T10:08:15Z</time>
      </trkpt>
      <trkpt lat="39.0131260" lon="1.5821620">
        <ele>16.1</ele>
        <time>2020-02-23T10:08:16Z</time>
      </trkpt>
      <trkpt lat="39.0131480" lon="1.5821850">
        <ele>16.2</ele>
        <time>2020-02-23T10:08:17Z</time>
      </trkpt>
      <trkpt lat="39.0131680" lon="1.5822080">
        <ele>16.3</ele>
        <time>2020-02-23T10:08:18Z</time>
      </trkpt>
      <trkpt lat="39.0131950" lon="1.5822370">
        <ele>16.5</ele>
        <time>2020-02-23T10:08:19Z</time>
      </trkpt>
      <trkpt lat="39.0132180" lon="1.5822630">
        <ele>16.7</ele>
        <time>2020-02-23T10:08:20Z</time>
      </trkpt>
      <trkpt lat="39.0132450" lon="1.5822900">
        <ele>16.8</ele>
        <time>2020-02-23T10:08:21Z</time>
      </trkpt>
      <trkpt lat="39.0132520" lon="1.5823000">
        <ele>16.9</ele>
        <time>2020-02-23T10:08:22Z</time>
      </trkpt>
      <trkpt lat="39.0132700" lon="1.5823270">
        <ele>17.0</ele>
        <time>2020-02-23T10:08:23Z</time>
      </trkpt>
      <trkpt lat="39.0132800" lon="1.5823380">
        <ele>17.1</ele>
        <time>2020-02-23T10:08:24Z</time>
      </trkpt>
      <trkpt lat="39.0133040" lon="1.5823630">
        <ele>17.3</ele>
        <time>2020-02-23T10:08:25Z</time>
      </trkpt>
      <trkpt lat="39.0133100" lon="1.5823740">
        <ele>17.4</ele>
        <time>2020-02-23T10:08:26Z</time>
      </trkpt>
      <trkpt lat="39.0133370" lon="1.5823990">
        <ele>17.6</ele>
        <time>2020-02-23T10:08:27Z</time>
      </trkpt>
      <trkpt lat="39.0133450" lon="1.5824100">
        <ele>17.7</ele>
        <time>2020-02-23T10:08:28Z</time>
      </trkpt>
      <trkpt lat="39.0133660" lon="1.5824440">
        <ele>17.8</ele>
        <time>2020-02-23T10:08:29Z</time>
      </trkpt>
      <trkpt lat="39.0133710" lon="1.5824550">
        <ele>17.9</ele>
        <time>2020-02-23T10:08:30Z</time>
      </trkpt>
      <trkpt lat="39.0133830" lon="1.5824700">
        <ele>18.0</ele>
        <time>2020-02-23T10:08:31Z</time>
      </trkpt>
      <trkpt lat="39.0133950" lon="1.5824890">
        <ele>18.0</ele>
        <time>2020-02-23T10:08:32Z</time>
      </trkpt>
      <trkpt lat="39.0134160" lon="1.5825100">
        <ele>18.1</ele>
        <time>2020-02-23T10:08:33Z</time>
      </trkpt>
      <trkpt lat="39.0134260" lon="1.5825180">
        <ele>18.1</ele>
        <time>2020-02-23T10:08:34Z</time>
      </trkpt>
      <trkpt lat="39.0134500" lon="1.5825460">
        <ele>18.2</ele>
        <time>2020-02-23T10:08:35Z</time>
      </trkpt>
      <trkpt lat="39.0134630" lon="1.5825770">
        <ele>18.3</ele>
        <time>2020-02-23T10:08:36Z</time>
      </trkpt>
      <trkpt lat="39.0134830" lon="1.5826050">
        <ele>18.4</ele>
        <time>2020-02-23T10:08:37Z</time>
      </trkpt>
      <trkpt lat="39.0134900" lon="1.5826140">
        <ele>18.4</ele>
        <time>2020-02-23T10:08:38Z</time>
      </trkpt>
      <trkpt lat="39.0135050" lon="1.5826190">
        <ele>18.5</ele>
        <time>2020-02-23T10:08:39Z</time>
      </trkpt>
      <trkpt lat="39.0135160" lon="1.5826370">
        <ele>18.5</ele>
        <time>2020-02-23T10:08:40Z</time>
      </trkpt>
      <trkpt lat="39.0135400" lon="1.5826640">
        <ele>18.6</ele>
        <time>2020-02-23T10:08:41Z</time>
      </trkpt>
      <trkpt lat="39.0135660" lon="1.5827070">
        <ele>18.7</ele>
        <time>2020-02-23T10:08:42Z</time>
      </trkpt>
      <trkpt lat="39.0135740" lon="1.5827240">
        <ele>18.8</ele>
        <time>2020-02-23T10:08:43Z</time>
      </trkpt>
      <trkpt lat="39.0135980" lon="1.5827530">
        <ele>18.9</ele>
        <time>2020-02-23T10:08:44Z</time>
      </trkpt>
      <trkpt lat="39.0136020" lon="1.5827610">
        <ele>18.9</ele>
        <time>2020-02-23T10:08:45Z</time>
      </trkpt>
      <trkpt lat="39.0136210" lon="1.5827520">
        <ele>19.0</ele>
        <time>2020-02-23T10:08:46Z</time>
      </trkpt>
      <trkpt lat="39.0136320" lon="1.5827450">
        <ele>19.0</ele>
        <time>2020-02-23T10:08:47Z</time>
      </trkpt>
      <trkpt lat="39.0136420" lon="1.5827380">
        <ele>19.0</ele>
        <time>2020-02-23T10:08:48Z</time>
      </trkpt>
      <trkpt lat="39.0136730" lon="1.5827210">
        <ele>19.3</ele>
        <time>2020-02-23T10:08:49Z</time>
      </trkpt>
      <trkpt lat="39.0137030" lon="1.5827000">
        <ele>19.5</ele>
        <time>2020-02-23T10:08:50Z</time>
      </trkpt>
      <trkpt lat="39.0137270" lon="1.5826790">
        <ele>19.6</ele>
        <time>2020-02-23T10:08:51Z</time>
      </trkpt>
      <trkpt lat="39.0137540" lon="1.5826650">
        <ele>19.7</ele>
        <time>2020-02-23T10:08:52Z</time>
      </trkpt>
      <trkpt lat="39.0137870" lon="1.5826350">
        <ele>19.8</ele>
        <time>2020-02-23T10:08:53Z</time>
      </trkpt>
      <trkpt lat="39.0138010" lon="1.5826230">
        <ele>19.9</ele>
        <time>2020-02-23T10:08:54Z</time>
      </trkpt>
      <trkpt lat="39.0138260" lon="1.5825950">
        <ele>19.9</ele>
        <time>2020-02-23T10:08:55Z</time>
      </trkpt>
      <trkpt lat="39.0138610" lon="1.5825720">
        <ele>20.0</ele>
        <time>2020-02-23T10:08:56Z</time>
      </trkpt>
      <trkpt lat="39.0138870" lon="1.5825640">
        <ele>20.0</ele>
        <time>2020-02-23T10:08:57Z</time>
      </trkpt>
      <trkpt lat="39.0139140" lon="1.5825360">
        <ele>20.1</ele>
        <time>2020-02-23T10:08:58Z</time>
      </trkpt>
      <trkpt lat="39.0139220" lon="1.5825260">
        <ele>20.1</ele>
        <time>2020-02-23T10:08:59Z</time>
      </trkpt>
      <trkpt lat="39.0139510" lon="1.5824970">
        <ele>20.1</ele>
        <time>2020-02-23T10:09:00Z</time>
      </trkpt>
      <trkpt lat="39.0139800" lon="1.5824660">
        <ele>20.1</ele>
        <time>2020-02-23T10:09:01Z</time>
      </trkpt>
      <trkpt lat="39.0139890" lon="1.5824520">
        <ele>20.1</ele>
        <time>2020-02-23T10:09:02Z</time>
      </trkpt>
      <trkpt lat="39.0140100" lon="1.5824220">
        <ele>20.1</ele>
        <time>2020-02-23T10:09:03Z</time>
      </trkpt>
      <trkpt lat="39.0140330" lon="1.5823820">
        <ele>20.1</ele>
        <time>2020-02-23T10:09:04Z</time>
      </trkpt>
      <trkpt lat="39.0140460" lon="1.5823690">
        <ele>20.2</ele>
        <time>2020-02-23T10:09:05Z</time>
      </trkpt>
      <trkpt lat="39.0140640" lon="1.5823360">
        <ele>20.2</ele>
        <time>2020-02-23T10:09:06Z</time>
      </trkpt>
      <trkpt lat="39.0140840" lon="1.5823030">
        <ele>20.2</ele>
        <time>2020-02-23T10:09:07Z</time>
      </trkpt>
      <trkpt lat="39.0141280" lon="1.5822790">
        <ele>20.3</ele>
        <time>2020-02-23T10:09:08Z</time>
      </trkpt>
      <trkpt lat="39.0141560" lon="1.5822490">
        <ele>20.3</ele>
        <time>2020-02-23T10:09:09Z</time>
      </trkpt>
      <trkpt lat="39.0141790" lon="1.5822230">
        <ele>20.4</ele>
        <time>2020-02-23T10:09:10Z</time>
      </trkpt>
      <trkpt lat="39.0142040" lon="1.5821890">
        <ele>20.5</ele>
        <time>2020-02-23T10:09:11Z</time>
      </trkpt>
      <trkpt lat="39.0142240" lon="1.5821500">
        <ele>20.6</ele>
        <time>2020-02-23T10:09:12Z</time>
      </trkpt>
      <trkpt lat="39.0142490" lon="1.5821070">
        <ele>20.7</ele>
        <time>2020-02-23T10:09:13Z</time>
      </trkpt>
      <trkpt lat="39.0142820" lon="1.5820740">
        <ele>20.7</ele>
        <time>2020-02-23T10:09:14Z</time>
      </trkpt>
      <trkpt lat="39.0143040" lon="1.5820420">
        <ele>20.8</ele>
        <time>2020-02-23T10:09:15Z</time>
      </trkpt>
      <trkpt lat="39.0143300" lon="1.5820090">
        <ele>20.8</ele>
        <time>2020-02-23T10:09:16Z</time>
      </trkpt>
      <trkpt lat="39.0143550" lon="1.5819760">
        <ele>20.9</ele>
        <time>2020-02-23T10:09:17Z</time>
      </trkpt>
      <trkpt lat="39.0143900" lon="1.5819470">
        <ele>21.0</ele>
        <time>2020-02-23T10:09:18Z</time>
      </trkpt>
      <trkpt lat="39.0144230" lon="1.5819150">
        <ele>21.1</ele>
        <time>2020-02-23T10:09:19Z</time>
      </trkpt>
      <trkpt lat="39.0144530" lon="1.5818750">
        <ele>21.1</ele>
        <time>2020-02-23T10:09:20Z</time>
      </trkpt>
      <trkpt lat="39.0144820" lon="1.5818360">
        <ele>21.2</ele>
        <time>2020-02-23T10:09:21Z</time>
      </trkpt>
      <trkpt lat="39.0145090" lon="1.5817980">
        <ele>21.3</ele>
        <time>2020-02-23T10:09:22Z</time>
      </trkpt>
      <trkpt lat="39.0145360" lon="1.5817480">
        <ele>21.3</ele>
        <time>2020-02-23T10:09:23Z</time>
      </trkpt>
      <trkpt lat="39.0145640" lon="1.5817080">
        <ele>21.4</ele>
        <time>2020-02-23T10:09:24Z</time>
      </trkpt>
      <trkpt lat="39.0145970" lon="1.5816730">
        <ele>21.4</ele>
        <time>2020-02-23T10:09:25Z</time>
      </trkpt>
      <trkpt lat="39.0146300" lon="1.5816350">
        <ele>21.5</ele>
        <time>2020-02-23T10:09:26Z</time>
      </trkpt>
      <trkpt lat="39.0146590" lon="1.5816000">
        <ele>21.6</ele>
        <time>2020-02-23T10:09:27Z</time>
      </trkpt>
      <trkpt lat="39.0146880" lon="1.5815680">
        <ele>21.6</ele>
        <time>2020-02-23T10:09:28Z</time>
      </trkpt>
      <trkpt lat="39.0147270" lon="1.5815290">
        <ele>21.7</ele>
        <time>2020-02-23T10:09:29Z</time>
      </trkpt>
      <trkpt lat="39.0147620" lon="1.5814850">
        <ele>21.8</ele>
        <time>2020-02-23T10:09:30Z</time>
      </trkpt>
      <trkpt lat="39.0147920" lon="1.5814440">
        <ele>21.9</ele>
        <time>2020-02-23T10:09:31Z</time>
      </trkpt>
      <trkpt lat="39.0148290" lon="1.5814380">
        <ele>22.0</ele>
        <time>2020-02-23T10:09:32Z</time>
      </trkpt>
      <trkpt lat="39.0148740" lon="1.5814310">
        <ele>22.2</ele>
        <time>2020-02-23T10:09:33Z</time>
      </trkpt>
      <trkpt lat="39.0149230" lon="1.5814320">
        <ele>22.6</ele>
        <time>2020-02-23T10:09:34Z</time>
      </trkpt>
      <trkpt lat="39.0149650" lon="1.5814460">
        <ele>22.6</ele>
        <time>2020-02-23T10:09:35Z</time>
      </trkpt>
      <trkpt lat="39.0150020" lon="1.5814600">
        <ele>22.6</ele>
        <time>2020-02-23T10:09:36Z</time>
      </trkpt>
      <trkpt lat="39.0150440" lon="1.5814830">
        <ele>22.7</ele>
        <time>2020-02-23T10:09:37Z</time>
      </trkpt>
      <trkpt lat="39.0150770" lon="1.5815270">
        <ele>22.4</ele>
        <time>2020-02-23T10:09:38Z</time>
      </trkpt>
      <trkpt lat="39.0151160" lon="1.5815760">
        <ele>22.2</ele>
        <time>2020-02-23T10:09:39Z</time>
      </trkpt>
      <trkpt lat="39.0151640" lon="1.5816160">
        <ele>22.1</ele>
        <time>2020-02-23T10:09:40Z</time>
      </trkpt>
      <trkpt lat="39.0152080" lon="1.5816790">
        <ele>21.9</ele>
        <time>2020-02-23T10:09:41Z</time>
      </trkpt>
      <trkpt lat="39.0152500" lon="1.5817520">
        <ele>21.7</ele>
        <time>2020-02-23T10:09:42Z</time>
      </trkpt>
      <trkpt lat="39.0152890" lon="1.5817960">
        <ele>21.5</ele>
        <time>2020-02-23T10:09:43Z</time>
      </trkpt>
      <trkpt lat="39.0153310" lon="1.5818370">
        <ele>21.3</ele>
        <time>2020-02-23T10:09:44Z</time>
      </trkpt>
      <trkpt lat="39.0153770" lon="1.5818850">
        <ele>21.1</ele>
        <time>2020-02-23T10:09:45Z</time>
      </trkpt>
      <trkpt lat="39.0154260" lon="1.5819220">
        <ele>21.0</ele>
        <time>2020-02-23T10:09:46Z</time>
      </trkpt>
      <trkpt lat="39.0154640" lon="1.5819590">
        <ele>20.8</ele>
        <time>2020-02-23T10:09:47Z</time>
      </trkpt>
      <trkpt lat="39.0155030" lon="1.5820060">
        <ele>20.6</ele>
        <time>2020-02-23T10:09:48Z</time>
      </trkpt>
      <trkpt lat="39.0155510" lon="1.5820610">
        <ele>20.4</ele>
        <time>2020-02-23T10:09:49Z</time>
      </trkpt>
      <trkpt lat="39.0155800" lon="1.5821060">
        <ele>20.3</ele>
        <time>2020-02-23T10:09:50Z</time>
      </trkpt>
      <trkpt lat="39.0156120" lon="1.5821500">
        <ele>20.1</ele>
        <time>2020-02-23T10:09:51Z</time>
      </trkpt>
      <trkpt lat="39.0156340" lon="1.5822090">
        <ele>19.9</ele>
        <time>2020-02-23T10:09:52Z</time>
      </trkpt>
      <trkpt lat="39.0156580" lon="1.5822520">
        <ele>19.8</ele>
        <time>2020-02-23T10:09:53Z</time>
      </trkpt>
      <trkpt lat="39.0156840" lon="1.5822990">
        <ele>19.7</ele>
        <time>2020-02-23T10:09:54Z</time>
      </trkpt>
      <trkpt lat="39.0157180" lon="1.5823470">
        <ele>19.6</ele>
        <time>2020-02-23T10:09:55Z</time>
      </trkpt>
      <trkpt lat="39.0157480" lon="1.5823990">
        <ele>19.5</ele>
        <time>2020-02-23T10:09:56Z</time>
      </trkpt>
      <trkpt lat="39.0157720" lon="1.5824550">
        <ele>19.4</ele>
        <time>2020-02-23T10:09:57Z</time>
      </trkpt>
      <trkpt lat="39.0157930" lon="1.5825190">
        <ele>19.4</ele>
        <time>2020-02-23T10:09:58Z</time>
      </trkpt>
      <trkpt lat="39.0158170" lon="1.5825790">
        <ele>19.4</ele>
        <time>2020-02-23T10:09:59Z</time>
      </trkpt>
      <trkpt lat="39.0158390" lon="1.5826340">
        <ele>19.4</ele>
        <time>2020-02-23T10:10:00Z</time>
      </trkpt>
      <trkpt lat="39.0158490" lon="1.5826880">
        <ele>19.4</ele>
        <time>2020-02-23T10:10:01Z</time>
      </trkpt>
      <trkpt lat="39.0158630" lon="1.5827310">
        <ele>19.4</ele>
        <time>2020-02-23T10:10:02Z</time>
      </trkpt>
      <trkpt lat="39.0158940" lon="1.5827840">
        <ele>19.4</ele>
        <time>2020-02-23T10:10:03Z</time>
      </trkpt>
      <trkpt lat="39.0159250" lon="1.5828330">
        <ele>19.5</ele>
        <time>2020-02-23T10:10:04Z</time>
      </trkpt>
      <trkpt lat="39.0159530" lon="1.5828860">
        <ele>19.6</ele>
        <time>2020-02-23T10:10:05Z</time>
      </trkpt>
      <trkpt lat="39.0159760" lon="1.5829400">
        <ele>19.6</ele>
        <time>2020-02-23T10:10:06Z</time>
      </trkpt>
      <trkpt lat="39.0159900" lon="1.5829850">
        <ele>19.7</ele>
        <time>2020-02-23T10:10:07Z</time>
      </trkpt>
      <trkpt lat="39.0160110" lon="1.5830330">
        <ele>19.8</ele>
        <time>2020-02-23T10:10:08Z</time>
      </trkpt>
      <trkpt lat="39.0160350" lon="1.5830780">
        <ele>19.9</ele>
        <time>2020-02-23T10:10:09Z</time>
      </trkpt>
      <trkpt lat="39.0160540" lon="1.5831180">
        <ele>20.0</ele>
        <time>2020-02-23T10:10:10Z</time>
      </trkpt>
      <trkpt lat="39.0160760" lon="1.5831680">
        <ele>20.2</ele>
        <time>2020-02-23T10:10:11Z</time>
      </trkpt>
      <trkpt lat="39.0161050" lon="1.5832020">
        <ele>20.4</ele>
        <time>2020-02-23T10:10:12Z</time>
      </trkpt>
      <trkpt lat="39.0161340" lon="1.5832150">
        <ele>20.6</ele>
        <time>2020-02-23T10:10:13Z</time>
      </trkpt>
      <trkpt lat="39.0161760" lon="1.5832180">
        <ele>20.8</ele>
        <time>2020-02-23T10:10:14Z</time>
      </trkpt>
      <trkpt lat="39.0162210" lon="1.5832180">
        <ele>21.0</ele>
        <time>2020-02-23T10:10:15Z</time>
      </trkpt>
      <trkpt lat="39.0162610" lon="1.5832170">
        <ele>21.1</ele>
        <time>2020-02-23T10:10:16Z</time>
      </trkpt>
      <trkpt lat="39.0162920" lon="1.5832020">
        <ele>21.3</ele>
        <time>2020-02-23T10:10:17Z</time>
      </trkpt>
      <trkpt lat="39.0163180" lon="1.5831850">
        <ele>21.4</ele>
        <time>2020-02-23T10:10:18Z</time>
      </trkpt>
      <trkpt lat="39.0163480" lon="1.5831640">
        <ele>21.5</ele>
        <time>2020-02-23T10:10:19Z</time>
      </trkpt>
      <trkpt lat="39.0163870" lon="1.5831500">
        <ele>21.6</ele>
        <time>2020-02-23T10:10:20Z</time>
      </trkpt>
      <trkpt lat="39.0164000" lon="1.5831460">
        <ele>21.7</ele>
        <time>2020-02-23T10:10:21Z</time>
      </trkpt>
      <trkpt lat="39.0164330" lon="1.5831370">
        <ele>21.8</ele>
        <time>2020-02-23T10:10:22Z</time>
      </trkpt>
      <trkpt lat="39.0164440" lon="1.5831320">
        <ele>21.8</ele>
        <time>2020-02-23T10:10:23Z</time>
      </trkpt>
      <trkpt lat="39.0164830" lon="1.5831200">
        <ele>22.0</ele>
        <time>2020-02-23T10:10:24Z</time>
      </trkpt>
      <trkpt lat="39.0164960" lon="1.5831170">
        <ele>22.0</ele>
        <time>2020-02-23T10:10:25Z</time>
      </trkpt>
      <trkpt lat="39.0165160" lon="1.5831140">
        <ele>22.1</ele>
        <time>2020-02-23T10:10:26Z</time>
      </trkpt>
      <trkpt lat="39.0165240" lon="1.5831130">
        <ele>22.1</ele>
        <time>2020-02-23T10:10:27Z</time>
      </trkpt>
      <trkpt lat="39.0165530" lon="1.5831060">
        <ele>22.2</ele>
        <time>2020-02-23T10:10:28Z</time>
      </trkpt>
      <trkpt lat="39.0165980" lon="1.5831040">
        <ele>22.4</ele>
        <time>2020-02-23T10:10:29Z</time>
      </trkpt>
      <trkpt lat="39.0166160" lon="1.5831020">
        <ele>22.5</ele>
        <time>2020-02-23T10:10:30Z</time>
      </trkpt>
      <trkpt lat="39.0166560" lon="1.5830870">
        <ele>22.7</ele>
        <time>2020-02-23T10:10:31Z</time>
      </trkpt>
      <trkpt lat="39.0166690" lon="1.5830780">
        <ele>22.8</ele>
        <time>2020-02-23T10:10:32Z</time>
      </trkpt>
      <trkpt lat="39.0167020" lon="1.5830690">
        <ele>22.9</ele>
        <time>2020-02-23T10:10:33Z</time>
      </trkpt>
      <trkpt lat="39.0167330" lon="1.5830480">
        <ele>23.1</ele>
        <time>2020-02-23T10:10:34Z</time>
      </trkpt>
      <trkpt lat="39.0167620" lon="1.5830280">
        <ele>23.2</ele>
        <time>2020-02-23T10:10:35Z</time>
      </trkpt>
      <trkpt lat="39.0168020" lon="1.5830010">
        <ele>23.4</ele>
        <time>2020-02-23T10:10:36Z</time>
      </trkpt>
      <trkpt lat="39.0168180" lon="1.5829880">
        <ele>23.4</ele>
        <time>2020-02-23T10:10:37Z</time>
      </trkpt>
      <trkpt lat="39.0168510" lon="1.5829570">
        <ele>23.5</ele>
        <time>2020-02-23T10:10:38Z</time>
      </trkpt>
      <trkpt lat="39.0168790" lon="1.5829220">
        <ele>23.6</ele>
        <time>2020-02-23T10:10:39Z</time>
      </trkpt>
      <trkpt lat="39.0169050" lon="1.5828980">
        <ele>23.7</ele>
        <time>2020-02-23T10:10:40Z</time>
      </trkpt>
      <trkpt lat="39.0169350" lon="1.5828710">
        <ele>23.8</ele>
        <time>2020-02-23T10:10:41Z</time>
      </trkpt>
      <trkpt lat="39.0169630" lon="1.5828420">
        <ele>23.8</ele>
        <time>2020-02-23T10:10:42Z</time>
      </trkpt>
      <trkpt lat="39.0169990" lon="1.5828150">
        <ele>23.9</ele>
        <time>2020-02-23T10:10:43Z</time>
      </trkpt>
      <trkpt lat="39.0170250" lon="1.5827950">
        <ele>24.0</ele>
        <time>2020-02-23T10:10:44Z</time>
      </trkpt>
      <trkpt lat="39.0170500" lon="1.5827810">
        <ele>24.0</ele>
        <time>2020-02-23T10:10:45Z</time>
      </trkpt>
      <trkpt lat="39.0170770" lon="1.5827670">
        <ele>24.0</ele>
        <time>2020-02-23T10:10:46Z</time>
      </trkpt>
      <trkpt lat="39.0171070" lon="1.5827560">
        <ele>24.1</ele>
        <time>2020-02-23T10:10:47Z</time>
      </trkpt>
      <trkpt lat="39.0171340" lon="1.5827360">
        <ele>24.1</ele>
        <time>2020-02-23T10:10:48Z</time>
      </trkpt>
      <trkpt lat="39.0171680" lon="1.5827180">
        <ele>24.2</ele>
        <time>2020-02-23T10:10:49Z</time>
      </trkpt>
      <trkpt lat="39.0171970" lon="1.5826990">
        <ele>24.2</ele>
        <time>2020-02-23T10:10:50Z</time>
      </trkpt>
      <trkpt lat="39.0172260" lon="1.5826770">
        <ele>24.2</ele>
        <time>2020-02-23T10:10:51Z</time>
      </trkpt>
      <trkpt lat="39.0172530" lon="1.5826590">
        <ele>24.2</ele>
        <time>2020-02-23T10:10:52Z</time>
      </trkpt>
      <trkpt lat="39.0172830" lon="1.5826330">
        <ele>24.2</ele>
        <time>2020-02-23T10:10:53Z</time>
      </trkpt>
      <trkpt lat="39.0173090" lon="1.5826100">
        <ele>24.2</ele>
        <time>2020-02-23T10:10:54Z</time>
      </trkpt>
      <trkpt lat="39.0173370" lon="1.5825820">
        <ele>24.2</ele>
        <time>2020-02-23T10:10:55Z</time>
      </trkpt>
      <trkpt lat="39.0173730" lon="1.5825630">
        <ele>24.1</ele>
        <time>2020-02-23T10:10:56Z</time>
      </trkpt>
      <trkpt lat="39.0174030" lon="1.5825340">
        <ele>24.1</ele>
        <time>2020-02-23T10:10:57Z</time>
      </trkpt>
      <trkpt lat="39.0174310" lon="1.5825150">
        <ele>24.0</ele>
        <time>2020-02-23T10:10:58Z</time>
      </trkpt>
      <trkpt lat="39.0174580" lon="1.5824990">
        <ele>23.9</ele>
        <time>2020-02-23T10:10:59Z</time>
      </trkpt>
      <trkpt lat="39.0174860" lon="1.5824800">
        <ele>23.9</ele>
        <time>2020-02-23T10:11:00Z</time>
      </trkpt>
      <trkpt lat="39.0175140" lon="1.5824580">
        <ele>24.1</ele>
        <time>2020-02-23T10:11:01Z</time>
      </trkpt>
      <trkpt lat="39.0175390" lon="1.5824350">
        <ele>24.2</ele>
        <time>2020-02-23T10:11:02Z</time>
      </trkpt>
      <trkpt lat="39.0175640" lon="1.5823960">
        <ele>24.4</ele>
        <time>2020-02-23T10:11:03Z</time>
      </trkpt>
      <trkpt lat="39.0175930" lon="1.5823690">
        <ele>24.6</ele>
        <time>2020-02-23T10:11:04Z</time>
      </trkpt>
      <trkpt lat="39.0176260" lon="1.5823320">
        <ele>24.8</ele>
        <time>2020-02-23T10:11:05Z</time>
      </trkpt>
      <trkpt lat="39.0176420" lon="1.5823200">
        <ele>24.9</ele>
        <time>2020-02-23T10:11:06Z</time>
      </trkpt>
      <trkpt lat="39.0176750" lon="1.5822830">
        <ele>25.0</ele>
        <time>2020-02-23T10:11:07Z</time>
      </trkpt>
      <trkpt lat="39.0177040" lon="1.5822460">
        <ele>25.2</ele>
        <time>2020-02-23T10:11:08Z</time>
      </trkpt>
      <trkpt lat="39.0177280" lon="1.5822210">
        <ele>25.3</ele>
        <time>2020-02-23T10:11:09Z</time>
      </trkpt>
      <trkpt lat="39.0177540" lon="1.5821860">
        <ele>25.4</ele>
        <time>2020-02-23T10:11:10Z</time>
      </trkpt>
      <trkpt lat="39.0177840" lon="1.5821470">
        <ele>25.6</ele>
        <time>2020-02-23T10:11:11Z</time>
      </trkpt>
      <trkpt lat="39.0178110" lon="1.5821270">
        <ele>25.8</ele>
        <time>2020-02-23T10:11:12Z</time>
      </trkpt>
      <trkpt lat="39.0178340" lon="1.5820830">
        <ele>26.0</ele>
        <time>2020-02-23T10:11:13Z</time>
      </trkpt>
      <trkpt lat="39.0178600" lon="1.5820560">
        <ele>26.2</ele>
        <time>2020-02-23T10:11:14Z</time>
      </trkpt>
      <trkpt lat="39.0178960" lon="1.5820300">
        <ele>26.4</ele>
        <time>2020-02-23T10:11:15Z</time>
      </trkpt>
      <trkpt lat="39.0179220" lon="1.5819960">
        <ele>26.6</ele>
        <time>2020-02-23T10:11:16Z</time>
      </trkpt>
      <trkpt lat="39.0179450" lon="1.5819640">
        <ele>26.7</ele>
        <time>2020-02-23T10:11:17Z</time>
      </trkpt>
      <trkpt lat="39.0179720" lon="1.5819380">
        <ele>26.9</ele>
        <time>2020-02-23T10:11:18Z</time>
      </trkpt>
      <trkpt lat="39.0179990" lon="1.5819120">
        <ele>27.0</ele>
        <time>2020-02-23T10:11:19Z</time>
      </trkpt>
      <trkpt lat="39.0180220" lon="1.5818870">
        <ele>27.2</ele>
        <time>2020-02-23T10:11:20Z</time>
      </trkpt>
      <trkpt lat="39.0180620" lon="1.5818640">
        <ele>27.4</ele>
        <time>2020-02-23T10:11:21Z</time>
      </trkpt>
      <trkpt lat="39.0180770" lon="1.5818560">
        <ele>27.5</ele>
        <time>2020-02-23T10:11:22Z</time>
      </trkpt>
      <trkpt lat="39.0181040" lon="1.5818510">
        <ele>27.6</ele>
        <time>2020-02-23T10:11:23Z</time>
      </trkpt>
      <trkpt lat="39.0181390" lon="1.5818290">
        <ele>27.8</ele>
        <time>2020-02-23T10:11:24Z</time>
      </trkpt>
      <trkpt lat="39.0181680" lon="1.5818140">
        <ele>27.9</ele>
        <time>2020-02-23T10:11:25Z</time>
      </trkpt>
      <trkpt lat="39.0181970" lon="1.5818090">
        <ele>28.0</ele>
        <time>2020-02-23T10:11:26Z</time>
      </trkpt>
      <trkpt lat="39.0182350" lon="1.5818130">
        <ele>28.1</ele>
        <time>2020-02-23T10:11:27Z</time>
      </trkpt>
      <trkpt lat="39.0182730" lon="1.5818050">
        <ele>28.3</ele>
        <time>2020-02-23T10:11:28Z</time>
      </trkpt>
      <trkpt lat="39.0183170" lon="1.5818150">
        <ele>28.4</ele>
        <time>2020-02-23T10:11:29Z</time>
      </trkpt>
      <trkpt lat="39.0183590" lon="1.5818220">
        <ele>28.5</ele>
        <time>2020-02-23T10:11:30Z</time>
      </trkpt>
      <trkpt lat="39.0183910" lon="1.5818160">
        <ele>28.6</ele>
        <time>2020-02-23T10:11:31Z</time>
      </trkpt>
      <trkpt lat="39.0184270" lon="1.5818070">
        <ele>28.6</ele>
        <time>2020-02-23T10:11:32Z</time>
      </trkpt>
      <trkpt lat="39.0184650" lon="1.5818090">
        <ele>28.7</ele>
        <time>2020-02-23T10:11:33Z</time>
      </trkpt>
      <trkpt lat="39.0185060" lon="1.5818070">
        <ele>28.7</ele>
        <time>2020-02-23T10:11:34Z</time>
      </trkpt>
      <trkpt lat="39.0185500" lon="1.5818140">
        <ele>28.8</ele>
        <time>2020-02-23T10:11:35Z</time>
      </trkpt>
      <trkpt lat="39.0185940" lon="1.5818210">
        <ele>28.9</ele>
        <time>2020-02-23T10:11:36Z</time>
      </trkpt>
      <trkpt lat="39.0186240" lon="1.5818180">
        <ele>29.0</ele>
        <time>2020-02-23T10:11:37Z</time>
      </trkpt>
      <trkpt lat="39.0186590" lon="1.5818170">
        <ele>29.1</ele>
        <time>2020-02-23T10:11:38Z</time>
      </trkpt>
      <trkpt lat="39.0186970" lon="1.5818300">
        <ele>29.2</ele>
        <time>2020-02-23T10:11:39Z</time>
      </trkpt>
      <trkpt lat="39.0187350" lon="1.5818420">
        <ele>29.3</ele>
        <time>2020-02-23T10:11:40Z</time>
      </trkpt>
      <trkpt lat="39.0187470" lon="1.5818480">
        <ele>29.3</ele>
        <time>2020-02-23T10:11:41Z</time>
      </trkpt>
      <trkpt lat="39.0187790" lon="1.5818610">
        <ele>29.4</ele>
        <time>2020-02-23T10:11:42Z</time>
      </trkpt>
      <trkpt lat="39.0188150" lon="1.5818700">
        <ele>29.5</ele>
        <time>2020-02-23T10:11:43Z</time>
      </trkpt>
      <trkpt lat="39.0188510" lon="1.5818740">
        <ele>29.5</ele>
        <time>2020-02-23T10:11:44Z</time>
      </trkpt>
      <trkpt lat="39.0188870" lon="1.5818960">
        <ele>29.6</ele>
        <time>2020-02-23T10:11:45Z</time>
      </trkpt>
      <trkpt lat="39.0189390" lon="1.5819130">
        <ele>29.8</ele>
        <time>2020-02-23T10:11:46Z</time>
      </trkpt>
      <trkpt lat="39.0189830" lon="1.5819180">
        <ele>29.9</ele>
        <time>2020-02-23T10:11:47Z</time>
      </trkpt>
      <trkpt lat="39.0190240" lon="1.5819190">
        <ele>30.1</ele>
        <time>2020-02-23T10:11:48Z</time>
      </trkpt>
      <trkpt lat="39.0190680" lon="1.5819210">
        <ele>30.2</ele>
        <time>2020-02-23T10:11:49Z</time>
      </trkpt>
      <trkpt lat="39.0191120" lon="1.5819180">
        <ele>30.3</ele>
        <time>2020-02-23T10:11:50Z</time>
      </trkpt>
      <trkpt lat="39.0191590" lon="1.5819160">
        <ele>30.4</ele>
        <time>2020-02-23T10:11:51Z</time>
      </trkpt>
      <trkpt lat="39.0191970" lon="1.5819170">
        <ele>30.5</ele>
        <time>2020-02-23T10:11:52Z</time>
      </trkpt>
      <trkpt lat="39.0192360" lon="1.5819180">
        <ele>31.1</ele>
        <time>2020-02-23T10:11:53Z</time>
      </trkpt>
      <trkpt lat="39.0192710" lon="1.5819250">
        <ele>31.4</ele>
        <time>2020-02-23T10:11:54Z</time>
      </trkpt>
      <trkpt lat="39.0193200" lon="1.5819300">
        <ele>31.8</ele>
        <time>2020-02-23T10:11:55Z</time>
      </trkpt>
      <trkpt lat="39.0193640" lon="1.5819330">
        <ele>32.1</ele>
        <time>2020-02-23T10:11:56Z</time>
      </trkpt>
      <trkpt lat="39.0194030" lon="1.5819340">
        <ele>32.4</ele>
        <time>2020-02-23T10:11:57Z</time>
      </trkpt>
      <trkpt lat="39.0194430" lon="1.5819380">
        <ele>32.7</ele>
        <time>2020-02-23T10:11:58Z</time>
      </trkpt>
      <trkpt lat="39.0194820" lon="1.5819390">
        <ele>33.0</ele>
        <time>2020-02-23T10:11:59Z</time>
      </trkpt>
      <trkpt lat="39.0195240" lon="1.5819500">
        <ele>33.3</ele>
        <time>2020-02-23T10:12:00Z</time>
      </trkpt>
      <trkpt lat="39.0195690" lon="1.5819610">
        <ele>33.6</ele>
        <time>2020-02-23T10:12:01Z</time>
      </trkpt>
      <trkpt lat="39.0196020" lon="1.5819650">
        <ele>33.8</ele>
        <time>2020-02-23T10:12:02Z</time>
      </trkpt>
      <trkpt lat="39.0196330" lon="1.5819670">
        <ele>34.0</ele>
        <time>2020-02-23T10:12:03Z</time>
      </trkpt>
      <trkpt lat="39.0196650" lon="1.5819770">
        <ele>34.2</ele>
        <time>2020-02-23T10:12:04Z</time>
      </trkpt>
      <trkpt lat="39.0197010" lon="1.5819860">
        <ele>34.5</ele>
        <time>2020-02-23T10:12:05Z</time>
      </trkpt>
      <trkpt lat="39.0197320" lon="1.5819960">
        <ele>34.7</ele>
        <time>2020-02-23T10:12:06Z</time>
      </trkpt>
      <trkpt lat="39.0197600" lon="1.5820080">
        <ele>34.9</ele>
        <time>2020-02-23T10:12:07Z</time>
      </trkpt>
      <trkpt lat="39.0197870" lon="1.5820210">
        <ele>35.1</ele>
        <time>2020-02-23T10:12:08Z</time>
      </trkpt>
      <trkpt lat="39.0198170" lon="1.5820280">
        <ele>35.3</ele>
        <time>2020-02-23T10:12:09Z</time>
      </trkpt>
      <trkpt lat="39.0198450" lon="1.5820320">
        <ele>35.4</ele>
        <time>2020-02-23T10:12:10Z</time>
      </trkpt>
      <trkpt lat="39.0198800" lon="1.5820280">
        <ele>35.6</ele>
        <time>2020-02-23T10:12:11Z</time>
      </trkpt>
      <trkpt lat="39.0199170" lon="1.5820400">
        <ele>35.9</ele>
        <time>2020-02-23T10:12:12Z</time>
      </trkpt>
      <trkpt lat="39.0199290" lon="1.5820460">
        <ele>35.9</ele>
        <time>2020-02-23T10:12:13Z</time>
      </trkpt>
      <trkpt lat="39.0199640" lon="1.5820480">
        <ele>36.1</ele>
        <time>2020-02-23T10:12:14Z</time>
      </trkpt>
      <trkpt lat="39.0199910" lon="1.5820630">
        <ele>36.3</ele>
        <time>2020-02-23T10:12:15Z</time>
      </trkpt>
      <trkpt lat="39.0200230" lon="1.5820750">
        <ele>36.5</ele>
        <time>2020-02-23T10:12:16Z</time>
      </trkpt>
      <trkpt lat="39.0200620" lon="1.5821010">
        <ele>36.8</ele>
        <time>2020-02-23T10:12:17Z</time>
      </trkpt>
      <trkpt lat="39.0200920" lon="1.5821170">
        <ele>37.0</ele>
        <time>2020-02-23T10:12:18Z</time>
      </trkpt>
      <trkpt lat="39.0201200" lon="1.5821300">
        <ele>37.2</ele>
        <time>2020-02-23T10:12:19Z</time>
      </trkpt>
      <trkpt lat="39.0201460" lon="1.5821400">
        <ele>37.3</ele>
        <time>2020-02-23T10:12:20Z</time>
      </trkpt>
      <trkpt lat="39.0201780" lon="1.5821560">
        <ele>37.5</ele>
        <time>2020-02-23T10:12:21Z</time>
      </trkpt>
      <trkpt lat="39.0202040" lon="1.5821760">
        <ele>37.7</ele>
        <time>2020-02-23T10:12:22Z</time>
      </trkpt>
      <trkpt lat="39.0202360" lon="1.5821880">
        <ele>37.9</ele>
        <time>2020-02-23T10:12:23Z</time>
      </trkpt>
      <trkpt lat="39.0202450" lon="1.5821920">
        <ele>38.0</ele>
        <time>2020-02-23T10:12:24Z</time>
      </trkpt>
      <trkpt lat="39.0202730" lon="1.5822040">
        <ele>38.2</ele>
        <time>2020-02-23T10:12:25Z</time>
      </trkpt>
      <trkpt lat="39.0202820" lon="1.5822080">
        <ele>38.3</ele>
        <time>2020-02-23T10:12:26Z</time>
      </trkpt>
      <trkpt lat="39.0203100" lon="1.5822300">
        <ele>38.5</ele>
        <time>2020-02-23T10:12:27Z</time>
      </trkpt>
      <trkpt lat="39.0203190" lon="1.5822400">
        <ele>38.6</ele>
        <time>2020-02-23T10:12:28Z</time>
      </trkpt>
      <trkpt lat="39.0203300" lon="1.5822520">
        <ele>38.6</ele>
        <time>2020-02-23T10:12:29Z</time>
      </trkpt>
      <trkpt lat="39.0203480" lon="1.5822560">
        <ele>38.8</ele>
        <time>2020-02-23T10:12:30Z</time>
      </trkpt>
      <trkpt lat="39.0203740" lon="1.5822620">
        <ele>38.9</ele>
        <time>2020-02-23T10:12:31Z</time>
      </trkpt>
      <trkpt lat="39.0203800" lon="1.5822650">
        <ele>39.0</ele>
        <time>2020-02-23T10:12:32Z</time>
      </trkpt>
      <trkpt lat="39.0203870" lon="1.5822670">
        <ele>39.0</ele>
        <time>2020-02-23T10:12:33Z</time>
      </trkpt>
      <trkpt lat="39.0204190" lon="1.5822930">
        <ele>39.3</ele>
        <time>2020-02-23T10:12:34Z</time>
      </trkpt>
      <trkpt lat="39.0204280" lon="1.5823020">
        <ele>39.4</ele>
        <time>2020-02-23T10:12:35Z</time>
      </trkpt>
      <trkpt lat="39.0204550" lon="1.5823080">
        <ele>39.6</ele>
        <time>2020-02-23T10:12:36Z</time>
      </trkpt>
      <trkpt lat="39.0204660" lon="1.5823100">
        <ele>39.7</ele>
        <time>2020-02-23T10:12:37Z</time>
      </trkpt>
      <trkpt lat="39.0204940" lon="1.5823150">
        <ele>39.9</ele>
        <time>2020-02-23T10:12:38Z</time>
      </trkpt>
      <trkpt lat="39.0205050" lon="1.5823090">
        <ele>40.0</ele>
        <time>2020-02-23T10:12:39Z</time>
      </trkpt>
      <trkpt lat="39.0205380" lon="1.5823250">
        <ele>40.2</ele>
        <time>2020-02-23T10:12:40Z</time>
      </trkpt>
      <trkpt lat="39.0205470" lon="1.5823270">
        <ele>40.3</ele>
        <time>2020-02-23T10:12:41Z</time>
      </trkpt>
      <trkpt lat="39.0205750" lon="1.5823440">
        <ele>40.5</ele>
        <time>2020-02-23T10:12:42Z</time>
      </trkpt>
      <trkpt lat="39.0205830" lon="1.5823500">
        <ele>40.6</ele>
        <time>2020-02-23T10:12:43Z</time>
      </trkpt>
      <trkpt lat="39.0205990" lon="1.5823500">
        <ele>40.7</ele>
        <time>2020-02-23T10:12:44Z</time>
      </trkpt>
      <trkpt lat="39.0206150" lon="1.5823610">
        <ele>40.8</ele>
        <time>2020-02-23T10:12:45Z</time>
      </trkpt>
      <trkpt lat="39.0206380" lon="1.5823850">
        <ele>41.0</ele>
        <time>2020-02-23T10:12:46Z</time>
      </trkpt>
      <trkpt lat="39.0206630" lon="1.5824030">
        <ele>41.2</ele>
        <time>2020-02-23T10:12:47Z</time>
      </trkpt>
      <trkpt lat="39.0206710" lon="1.5824080">
        <ele>41.3</ele>
        <time>2020-02-23T10:12:48Z</time>
      </trkpt>
      <trkpt lat="39.0207040" lon="1.5824230">
        <ele>41.5</ele>
        <time>2020-02-23T10:12:49Z</time>
      </trkpt>
      <trkpt lat="39.0207140" lon="1.5824300">
        <ele>41.5</ele>
        <time>2020-02-23T10:12:50Z</time>
      </trkpt>
      <trkpt lat="39.0207430" lon="1.5824400">
        <ele>41.7</ele>
        <time>2020-02-23T10:12:51Z</time>
      </trkpt>
      <trkpt lat="39.0207520" lon="1.5824440">
        <ele>41.8</ele>
        <time>2020-02-23T10:12:52Z</time>
      </trkpt>
      <trkpt lat="39.0207820" lon="1.5824470">
        <ele>41.9</ele>
        <time>2020-02-23T10:12:53Z</time>
      </trkpt>
      <trkpt lat="39.0207920" lon="1.5824500">
        <ele>41.9</ele>
        <time>2020-02-23T10:12:54Z</time>
      </trkpt>
      <trkpt lat="39.0208220" lon="1.5824460">
        <ele>42.1</ele>
        <time>2020-02-23T10:12:55Z</time>
      </trkpt>
      <trkpt lat="39.0208320" lon="1.5824470">
        <ele>42.1</ele>
        <time>2020-02-23T10:12:56Z</time>
      </trkpt>
      <trkpt lat="39.0208500" lon="1.5824510">
        <ele>42.2</ele>
        <time>2020-02-23T10:12:57Z</time>
      </trkpt>
      <trkpt lat="39.0208670" lon="1.5824570">
        <ele>42.2</ele>
        <time>2020-02-23T10:12:58Z</time>
      </trkpt>
      <trkpt lat="39.0208950" lon="1.5824620">
        <ele>42.3</ele>
        <time>2020-02-23T10:12:59Z</time>
      </trkpt>
      <trkpt lat="39.0209050" lon="1.5824640">
        <ele>42.3</ele>
        <time>2020-02-23T10:13:00Z</time>
      </trkpt>
      <trkpt lat="39.0209400" lon="1.5824830">
        <ele>42.4</ele>
        <time>2020-02-23T10:13:01Z</time>
      </trkpt>
      <trkpt lat="39.0209500" lon="1.5824890">
        <ele>42.4</ele>
        <time>2020-02-23T10:13:02Z</time>
      </trkpt>
      <trkpt lat="39.0209670" lon="1.5825050">
        <ele>42.5</ele>
        <time>2020-02-23T10:13:03Z</time>
      </trkpt>
      <trkpt lat="39.0209810" lon="1.5825130">
        <ele>42.5</ele>
        <time>2020-02-23T10:13:04Z</time>
      </trkpt>
      <trkpt lat="39.0210130" lon="1.5825200">
        <ele>42.6</ele>
        <time>2020-02-23T10:13:05Z</time>
      </trkpt>
      <trkpt lat="39.0210230" lon="1.5825220">
        <ele>42.6</ele>
        <time>2020-02-23T10:13:06Z</time>
      </trkpt>
      <trkpt lat="39.0210520" lon="1.5825380">
        <ele>42.6</ele>
        <time>2020-02-23T10:13:07Z</time>
      </trkpt>
      <trkpt lat="39.0210600" lon="1.5825430">
        <ele>42.6</ele>
        <time>2020-02-23T10:13:08Z</time>
      </trkpt>
      <trkpt lat="39.0210900" lon="1.5825540">
        <ele>42.6</ele>
        <time>2020-02-23T10:13:09Z</time>
      </trkpt>
      <trkpt lat="39.0210970" lon="1.5825570">
        <ele>42.6</ele>
        <time>2020-02-23T10:13:10Z</time>
      </trkpt>
      <trkpt lat="39.0211310" lon="1.5825750">
        <ele>42.7</ele>
        <time>2020-02-23T10:13:11Z</time>
      </trkpt>
      <trkpt lat="39.0211430" lon="1.5825800">
        <ele>42.7</ele>
        <time>2020-02-23T10:13:12Z</time>
      </trkpt>
      <trkpt lat="39.0211750" lon="1.5825860">
        <ele>42.7</ele>
        <time>2020-02-23T10:13:13Z</time>
      </trkpt>
      <trkpt lat="39.0211850" lon="1.5825890">
        <ele>42.7</ele>
        <time>2020-02-23T10:13:14Z</time>
      </trkpt>
      <trkpt lat="39.0212100" lon="1.5826030">
        <ele>42.7</ele>
        <time>2020-02-23T10:13:15Z</time>
      </trkpt>
      <trkpt lat="39.0212200" lon="1.5826080">
        <ele>42.7</ele>
        <time>2020-02-23T10:13:16Z</time>
      </trkpt>
      <trkpt lat="39.0212520" lon="1.5826130">
        <ele>42.7</ele>
        <time>2020-02-23T10:13:17Z</time>
      </trkpt>
      <trkpt lat="39.0212610" lon="1.5826190">
        <ele>42.7</ele>
        <time>2020-02-23T10:13:18Z</time>
      </trkpt>
      <trkpt lat="39.0212840" lon="1.5826360">
        <ele>42.7</ele>
        <time>2020-02-23T10:13:19Z</time>
      </trkpt>
      <trkpt lat="39.0212960" lon="1.5826340">
        <ele>42.7</ele>
        <time>2020-02-23T10:13:20Z</time>
      </trkpt>
      <trkpt lat="39.0213080" lon="1.5826330">
        <ele>42.7</ele>
        <time>2020-02-23T10:13:21Z</time>
      </trkpt>
      <trkpt lat="39.0213410" lon="1.5826440">
        <ele>43.0</ele>
        <time>2020-02-23T10:13:22Z</time>
      </trkpt>
      <trkpt lat="39.0213520" lon="1.5826430">
        <ele>43.1</ele>
        <time>2020-02-23T10:13:23Z</time>
      </trkpt>
      <trkpt lat="39.0213620" lon="1.5826290">
        <ele>43.3</ele>
        <time>2020-02-23T10:13:24Z</time>
      </trkpt>
      <trkpt lat="39.0213760" lon="1.5826320">
        <ele>43.4</ele>
        <time>2020-02-23T10:13:25Z</time>
      </trkpt>
      <trkpt lat="39.0213870" lon="1.5826530">
        <ele>43.6</ele>
        <time>2020-02-23T10:13:26Z</time>
      </trkpt>
      <trkpt lat="39.0214040" lon="1.5826820">
        <ele>43.8</ele>
        <time>2020-02-23T10:13:27Z</time>
      </trkpt>
      <trkpt lat="39.0214240" lon="1.5826950">
        <ele>44.1</ele>
        <time>2020-02-23T10:13:28Z</time>
      </trkpt>
      <trkpt lat="39.0214360" lon="1.5827000">
        <ele>44.2</ele>
        <time>2020-02-23T10:13:29Z</time>
      </trkpt>
      <trkpt lat="39.0214470" lon="1.5827060">
        <ele>44.3</ele>
        <time>2020-02-23T10:13:30Z</time>
      </trkpt>
      <trkpt lat="39.0214740" lon="1.5827310">
        <ele>44.8</ele>
        <time>2020-02-23T10:13:31Z</time>
      </trkpt>
      <trkpt lat="39.0215010" lon="1.5827580">
        <ele>45.1</ele>
        <time>2020-02-23T10:13:32Z</time>
      </trkpt>
      <trkpt lat="39.0215080" lon="1.5827670">
        <ele>45.2</ele>
        <time>2020-02-23T10:13:33Z</time>
      </trkpt>
      <trkpt lat="39.0215270" lon="1.5827990">
        <ele>45.5</ele>
        <time>2020-02-23T10:13:34Z</time>
      </trkpt>
      <trkpt lat="39.0215330" lon="1.5828110">
        <ele>45.6</ele>
        <time>2020-02-23T10:13:35Z</time>
      </trkpt>
      <trkpt lat="39.0215480" lon="1.5828440">
        <ele>45.8</ele>
        <time>2020-02-23T10:13:36Z</time>
      </trkpt>
      <trkpt lat="39.0215550" lon="1.5828570">
        <ele>45.9</ele>
        <time>2020-02-23T10:13:37Z</time>
      </trkpt>
      <trkpt lat="39.0215790" lon="1.5828980">
        <ele>46.3</ele>
        <time>2020-02-23T10:13:38Z</time>
      </trkpt>
      <trkpt lat="39.0215890" lon="1.5829130">
        <ele>46.4</ele>
        <time>2020-02-23T10:13:39Z</time>
      </trkpt>
      <trkpt lat="39.0216010" lon="1.5829350">
        <ele>46.6</ele>
        <time>2020-02-23T10:13:40Z</time>
      </trkpt>
      <trkpt lat="39.0216100" lon="1.5829450">
        <ele>46.7</ele>
        <time>2020-02-23T10:13:41Z</time>
      </trkpt>
      <trkpt lat="39.0216250" lon="1.5829750">
        <ele>46.9</ele>
        <time>2020-02-23T10:13:42Z</time>
      </trkpt>
      <trkpt lat="39.0216420" lon="1.5830040">
        <ele>47.1</ele>
        <time>2020-02-23T10:13:43Z</time>
      </trkpt>
      <trkpt lat="39.0216570" lon="1.5830440">
        <ele>47.3</ele>
        <time>2020-02-23T10:13:44Z</time>
      </trkpt>
      <trkpt lat="39.0216620" lon="1.5830560">
        <ele>47.4</ele>
        <time>2020-02-23T10:13:45Z</time>
      </trkpt>
      <trkpt lat="39.0216810" lon="1.5830930">
        <ele>47.6</ele>
        <time>2020-02-23T10:13:46Z</time>
      </trkpt>
      <trkpt lat="39.0216860" lon="1.5831040">
        <ele>47.7</ele>
        <time>2020-02-23T10:13:47Z</time>
      </trkpt>
      <trkpt lat="39.0217000" lon="1.5831430">
        <ele>48.0</ele>
        <time>2020-02-23T10:13:48Z</time>
      </trkpt>
      <trkpt lat="39.0217000" lon="1.5831550">
        <ele>48.0</ele>
        <time>2020-02-23T10:13:49Z</time>
      </trkpt>
      <trkpt lat="39.0217110" lon="1.5831950">
        <ele>48.3</ele>
        <time>2020-02-23T10:13:50Z</time>
      </trkpt>
      <trkpt lat="39.0217170" lon="1.5832100">
        <ele>48.4</ele>
        <time>2020-02-23T10:13:51Z</time>
      </trkpt>
      <trkpt lat="39.0217310" lon="1.5832430">
        <ele>48.7</ele>
        <time>2020-02-23T10:13:52Z</time>
      </trkpt>
      <trkpt lat="39.0217360" lon="1.5832560">
        <ele>48.8</ele>
        <time>2020-02-23T10:13:53Z</time>
      </trkpt>
      <trkpt lat="39.0217430" lon="1.5832940">
        <ele>48.9</ele>
        <time>2020-02-23T10:13:54Z</time>
      </trkpt>
      <trkpt lat="39.0217580" lon="1.5833400">
        <ele>49.2</ele>
        <time>2020-02-23T10:13:55Z</time>
      </trkpt>
      <trkpt lat="39.0217650" lon="1.5833550">
        <ele>49.3</ele>
        <time>2020-02-23T10:13:56Z</time>
      </trkpt>
      <trkpt lat="39.0217810" lon="1.5833850">
        <ele>49.4</ele>
        <time>2020-02-23T10:13:57Z</time>
      </trkpt>
      <trkpt lat="39.0217980" lon="1.5834310">
        <ele>49.7</ele>
        <time>2020-02-23T10:13:58Z</time>
      </trkpt>
      <trkpt lat="39.0218020" lon="1.5834470">
        <ele>49.7</ele>
        <time>2020-02-23T10:13:59Z</time>
      </trkpt>
      <trkpt lat="39.0218050" lon="1.5834940">
        <ele>50.0</ele>
        <time>2020-02-23T10:14:00Z</time>
      </trkpt>
      <trkpt lat="39.0218070" lon="1.5835080">
        <ele>50.1</ele>
        <time>2020-02-23T10:14:01Z</time>
      </trkpt>
      <trkpt lat="39.0218110" lon="1.5835440">
        <ele>50.3</ele>
        <time>2020-02-23T10:14:02Z</time>
      </trkpt>
      <trkpt lat="39.0218180" lon="1.5835770">
        <ele>50.6</ele>
        <time>2020-02-23T10:14:03Z</time>
      </trkpt>
      <trkpt lat="39.0218220" lon="1.5836250">
        <ele>50.9</ele>
        <time>2020-02-23T10:14:04Z</time>
      </trkpt>
      <trkpt lat="39.0218220" lon="1.5836410">
        <ele>51.0</ele>
        <time>2020-02-23T10:14:05Z</time>
      </trkpt>
      <trkpt lat="39.0218230" lon="1.5836890">
        <ele>51.3</ele>
        <time>2020-02-23T10:14:06Z</time>
      </trkpt>
      <trkpt lat="39.0218230" lon="1.5837060">
        <ele>51.4</ele>
        <time>2020-02-23T10:14:07Z</time>
      </trkpt>
      <trkpt lat="39.0218250" lon="1.5837420">
        <ele>51.5</ele>
        <time>2020-02-23T10:14:08Z</time>
      </trkpt>
      <trkpt lat="39.0218350" lon="1.5837900">
        <ele>51.7</ele>
        <time>2020-02-23T10:14:09Z</time>
      </trkpt>
      <trkpt lat="39.0218390" lon="1.5838070">
        <ele>51.7</ele>
        <time>2020-02-23T10:14:10Z</time>
      </trkpt>
      <trkpt lat="39.0218470" lon="1.5838450">
        <ele>51.9</ele>
        <time>2020-02-23T10:14:11Z</time>
      </trkpt>
      <trkpt lat="39.0218520" lon="1.5838810">
        <ele>52.0</ele>
        <time>2020-02-23T10:14:12Z</time>
      </trkpt>
      <trkpt lat="39.0218570" lon="1.5839170">
        <ele>52.1</ele>
        <time>2020-02-23T10:14:13Z</time>
      </trkpt>
      <trkpt lat="39.0218590" lon="1.5839550">
        <ele>52.2</ele>
        <time>2020-02-23T10:14:14Z</time>
      </trkpt>
      <trkpt lat="39.0218640" lon="1.5839920">
        <ele>52.4</ele>
        <time>2020-02-23T10:14:15Z</time>
      </trkpt>
      <trkpt lat="39.0218660" lon="1.5840410">
        <ele>52.6</ele>
        <time>2020-02-23T10:14:16Z</time>
      </trkpt>
      <trkpt lat="39.0218670" lon="1.5840580">
        <ele>52.6</ele>
        <time>2020-02-23T10:14:17Z</time>
      </trkpt>
      <trkpt lat="39.0218730" lon="1.5841020">
        <ele>52.8</ele>
        <time>2020-02-23T10:14:18Z</time>
      </trkpt>
      <trkpt lat="39.0218750" lon="1.5841190">
        <ele>52.9</ele>
        <time>2020-02-23T10:14:19Z</time>
      </trkpt>
      <trkpt lat="39.0218800" lon="1.5841660">
        <ele>53.1</ele>
        <time>2020-02-23T10:14:20Z</time>
      </trkpt>
      <trkpt lat="39.0218820" lon="1.5841830">
        <ele>53.2</ele>
        <time>2020-02-23T10:14:21Z</time>
      </trkpt>
      <trkpt lat="39.0218870" lon="1.5842200">
        <ele>53.3</ele>
        <time>2020-02-23T10:14:22Z</time>
      </trkpt>
      <trkpt lat="39.0218930" lon="1.5842590">
        <ele>53.5</ele>
        <time>2020-02-23T10:14:23Z</time>
      </trkpt>
      <trkpt lat="39.0218970" lon="1.5842950">
        <ele>53.6</ele>
        <time>2020-02-23T10:14:24Z</time>
      </trkpt>
      <trkpt lat="39.0219000" lon="1.5843330">
        <ele>53.7</ele>
        <time>2020-02-23T10:14:25Z</time>
      </trkpt>
      <trkpt lat="39.0219040" lon="1.5843730">
        <ele>53.9</ele>
        <time>2020-02-23T10:14:26Z</time>
      </trkpt>
      <trkpt lat="39.0219070" lon="1.5844080">
        <ele>54.0</ele>
        <time>2020-02-23T10:14:27Z</time>
      </trkpt>
      <trkpt lat="39.0219110" lon="1.5844530">
        <ele>54.1</ele>
        <time>2020-02-23T10:14:28Z</time>
      </trkpt>
      <trkpt lat="39.0219100" lon="1.5844660">
        <ele>54.1</ele>
        <time>2020-02-23T10:14:29Z</time>
      </trkpt>
      <trkpt lat="39.0219110" lon="1.5845030">
        <ele>54.2</ele>
        <time>2020-02-23T10:14:30Z</time>
      </trkpt>
      <trkpt lat="39.0219130" lon="1.5845490">
        <ele>54.3</ele>
        <time>2020-02-23T10:14:31Z</time>
      </trkpt>
      <trkpt lat="39.0219040" lon="1.5845890">
        <ele>54.4</ele>
        <time>2020-02-23T10:14:32Z</time>
      </trkpt>
      <trkpt lat="39.0219010" lon="1.5846340">
        <ele>54.5</ele>
        <time>2020-02-23T10:14:33Z</time>
      </trkpt>
      <trkpt lat="39.0219010" lon="1.5846860">
        <ele>54.6</ele>
        <time>2020-02-23T10:14:34Z</time>
      </trkpt>
      <trkpt lat="39.0219060" lon="1.5847400">
        <ele>54.7</ele>
        <time>2020-02-23T10:14:35Z</time>
      </trkpt>
      <trkpt lat="39.0219130" lon="1.5847880">
        <ele>54.8</ele>
        <time>2020-02-23T10:14:36Z</time>
      </trkpt>
      <trkpt lat="39.0219180" lon="1.5848240">
        <ele>54.9</ele>
        <time>2020-02-23T10:14:37Z</time>
      </trkpt>
      <trkpt lat="39.0219220" lon="1.5848650">
        <ele>55.0</ele>
        <time>2020-02-23T10:14:38Z</time>
      </trkpt>
      <trkpt lat="39.0219250" lon="1.5848780">
        <ele>55.0</ele>
        <time>2020-02-23T10:14:39Z</time>
      </trkpt>
      <trkpt lat="39.0219280" lon="1.5849160">
        <ele>55.2</ele>
        <time>2020-02-23T10:14:40Z</time>
      </trkpt>
      <trkpt lat="39.0219350" lon="1.5849670">
        <ele>55.4</ele>
        <time>2020-02-23T10:14:41Z</time>
      </trkpt>
      <trkpt lat="39.0219390" lon="1.5849850">
        <ele>55.5</ele>
        <time>2020-02-23T10:14:42Z</time>
      </trkpt>
      <trkpt lat="39.0219530" lon="1.5850240">
        <ele>55.6</ele>
        <time>2020-02-23T10:14:43Z</time>
      </trkpt>
      <trkpt lat="39.0219580" lon="1.5850350">
        <ele>55.7</ele>
        <time>2020-02-23T10:14:44Z</time>
      </trkpt>
      <trkpt lat="39.0219770" lon="1.5850780">
        <ele>55.9</ele>
        <time>2020-02-23T10:14:45Z</time>
      </trkpt>
      <trkpt lat="39.0219830" lon="1.5850940">
        <ele>55.9</ele>
        <time>2020-02-23T10:14:46Z</time>
      </trkpt>
      <trkpt lat="39.0219940" lon="1.5851260">
        <ele>56.1</ele>
        <time>2020-02-23T10:14:47Z</time>
      </trkpt>
      <trkpt lat="39.0220090" lon="1.5851630">
        <ele>55.2</ele>
        <time>2020-02-23T10:14:48Z</time>
      </trkpt>
      <trkpt lat="39.0220280" lon="1.5852140">
        <ele>54.7</ele>
        <time>2020-02-23T10:14:49Z</time>
      </trkpt>
      <trkpt lat="39.0220510" lon="1.5852680">
        <ele>53.9</ele>
        <time>2020-02-23T10:14:50Z</time>
      </trkpt>
      <trkpt lat="39.0220760" lon="1.5853320">
        <ele>53.3</ele>
        <time>2020-02-23T10:14:51Z</time>
      </trkpt>
      <trkpt lat="39.0221030" lon="1.5854030">
        <ele>52.7</ele>
        <time>2020-02-23T10:14:52Z</time>
      </trkpt>
      <trkpt lat="39.0221340" lon="1.5854740">
        <ele>52.2</ele>
        <time>2020-02-23T10:14:53Z</time>
      </trkpt>
      <trkpt lat="39.0221600" lon="1.5855460">
        <ele>51.7</ele>
        <time>2020-02-23T10:14:54Z</time>
      </trkpt>
      <trkpt lat="39.0221930" lon="1.5856230">
        <ele>51.2</ele>
        <time>2020-02-23T10:14:55Z</time>
      </trkpt>
      <trkpt lat="39.0222210" lon="1.5857070">
        <ele>50.9</ele>
        <time>2020-02-23T10:14:56Z</time>
      </trkpt>
      <trkpt lat="39.0222580" lon="1.5858020">
        <ele>50.4</ele>
        <time>2020-02-23T10:14:57Z</time>
      </trkpt>
      <trkpt lat="39.0222940" lon="1.5858920">
        <ele>50.1</ele>
        <time>2020-02-23T10:14:58Z</time>
      </trkpt>
      <trkpt lat="39.0223300" lon="1.5859740">
        <ele>49.7</ele>
        <time>2020-02-23T10:14:59Z</time>
      </trkpt>
      <trkpt lat="39.0223660" lon="1.5860570">
        <ele>49.4</ele>
        <time>2020-02-23T10:15:00Z</time>
      </trkpt>
      <trkpt lat="39.0223970" lon="1.5861370">
        <ele>49.1</ele>
        <time>2020-02-23T10:15:01Z</time>
      </trkpt>
      <trkpt lat="39.0224380" lon="1.5862320">
        <ele>48.8</ele>
        <time>2020-02-23T10:15:02Z</time>
      </trkpt>
      <trkpt lat="39.0224820" lon="1.5863280">
        <ele>48.3</ele>
        <time>2020-02-23T10:15:03Z</time>
      </trkpt>
      <trkpt lat="39.0225350" lon="1.5864180">
        <ele>48.0</ele>
        <time>2020-02-23T10:15:04Z</time>
      </trkpt>
      <trkpt lat="39.0225740" lon="1.5865010">
        <ele>47.4</ele>
        <time>2020-02-23T10:15:05Z</time>
      </trkpt>
      <trkpt lat="39.0226100" lon="1.5865820">
        <ele>46.9</ele>
        <time>2020-02-23T10:15:06Z</time>
      </trkpt>
      <trkpt lat="39.0226430" lon="1.5866640">
        <ele>46.5</ele>
        <time>2020-02-23T10:15:07Z</time>
      </trkpt>
      <trkpt lat="39.0226770" lon="1.5867350">
        <ele>46.1</ele>
        <time>2020-02-23T10:15:08Z</time>
      </trkpt>
      <trkpt lat="39.0226920" lon="1.5868020">
        <ele>45.6</ele>
        <time>2020-02-23T10:15:09Z</time>
      </trkpt>
      <trkpt lat="39.0226840" lon="1.5868800">
        <ele>45.1</ele>
        <time>2020-02-23T10:15:10Z</time>
      </trkpt>
      <trkpt lat="39.0226500" lon="1.5869540">
        <ele>44.4</ele>
        <time>2020-02-23T10:15:11Z</time>
      </trkpt>
      <trkpt lat="39.0226130" lon="1.5870270">
        <ele>43.6</ele>
        <time>2020-02-23T10:15:12Z</time>
      </trkpt>
      <trkpt lat="39.0225830" lon="1.5870950">
        <ele>43.0</ele>
        <time>2020-02-23T10:15:13Z</time>
      </trkpt>
      <trkpt lat="39.0225560" lon="1.5871590">
        <ele>42.5</ele>
        <time>2020-02-23T10:15:14Z</time>
      </trkpt>
      <trkpt lat="39.0225350" lon="1.5872180">
        <ele>42.0</ele>
        <time>2020-02-23T10:15:15Z</time>
      </trkpt>
      <trkpt lat="39.0225060" lon="1.5872740">
        <ele>41.4</ele>
        <time>2020-02-23T10:15:16Z</time>
      </trkpt>
      <trkpt lat="39.0224800" lon="1.5873370">
        <ele>40.7</ele>
        <time>2020-02-23T10:15:17Z</time>
      </trkpt>
      <trkpt lat="39.0224530" lon="1.5874080">
        <ele>40.1</ele>
        <time>2020-02-23T10:15:18Z</time>
      </trkpt>
      <trkpt lat="39.0224270" lon="1.5874850">
        <ele>39.5</ele>
        <time>2020-02-23T10:15:19Z</time>
      </trkpt>
      <trkpt lat="39.0224010" lon="1.5875670">
        <ele>38.8</ele>
        <time>2020-02-23T10:15:20Z</time>
      </trkpt>
      <trkpt lat="39.0223750" lon="1.5876480">
        <ele>38.2</ele>
        <time>2020-02-23T10:15:21Z</time>
      </trkpt>
      <trkpt lat="39.0223450" lon="1.5877130">
        <ele>37.6</ele>
        <time>2020-02-23T10:15:22Z</time>
      </trkpt>
      <trkpt lat="39.0223410" lon="1.5877730">
        <ele>37.2</ele>
        <time>2020-02-23T10:15:23Z</time>
      </trkpt>
      <trkpt lat="39.0223660" lon="1.5878330">
        <ele>36.7</ele>
        <time>2020-02-23T10:15:24Z</time>
      </trkpt>
      <trkpt lat="39.0224040" lon="1.5878760">
        <ele>36.4</ele>
        <time>2020-02-23T10:15:25Z</time>
      </trkpt>
      <trkpt lat="39.0224430" lon="1.5879130">
        <ele>36.2</ele>
        <time>2020-02-23T10:15:26Z</time>
      </trkpt>
      <trkpt lat="39.0224850" lon="1.5879510">
        <ele>36.0</ele>
        <time>2020-02-23T10:15:27Z</time>
      </trkpt>
      <trkpt lat="39.0225240" lon="1.5879900">
        <ele>35.9</ele>
        <time>2020-02-23T10:15:28Z</time>
      </trkpt>
      <trkpt lat="39.0225600" lon="1.5880260">
        <ele>35.7</ele>
        <time>2020-02-23T10:15:29Z</time>
      </trkpt>
      <trkpt lat="39.0225960" lon="1.5880520">
        <ele>35.6</ele>
        <time>2020-02-23T10:15:30Z</time>
      </trkpt>
      <trkpt lat="39.0226330" lon="1.5880770">
        <ele>35.5</ele>
        <time>2020-02-23T10:15:31Z</time>
      </trkpt>
      <trkpt lat="39.0226670" lon="1.5881150">
        <ele>35.3</ele>
        <time>2020-02-23T10:15:32Z</time>
      </trkpt>
      <trkpt lat="39.0227020" lon="1.5881470">
        <ele>35.2</ele>
        <time>2020-02-23T10:15:33Z</time>
      </trkpt>
      <trkpt lat="39.0227420" lon="1.5881790">
        <ele>35.1</ele>
        <time>2020-02-23T10:15:34Z</time>
      </trkpt>
      <trkpt lat="39.0227860" lon="1.5882130">
        <ele>35.1</ele>
        <time>2020-02-23T10:15:35Z</time>
      </trkpt>
      <trkpt lat="39.0228260" lon="1.5882360">
        <ele>35.0</ele>
        <time>2020-02-23T10:15:36Z</time>
      </trkpt>
      <trkpt lat="39.0228630" lon="1.5882660">
        <ele>35.0</ele>
        <time>2020-02-23T10:15:37Z</time>
      </trkpt>
      <trkpt lat="39.0229000" lon="1.5883050">
        <ele>35.0</ele>
        <time>2020-02-23T10:15:38Z</time>
      </trkpt>
      <trkpt lat="39.0229410" lon="1.5883330">
        <ele>35.0</ele>
        <time>2020-02-23T10:15:39Z</time>
      </trkpt>
      <trkpt lat="39.0229820" lon="1.5883600">
        <ele>35.0</ele>
        <time>2020-02-23T10:15:40Z</time>
      </trkpt>
      <trkpt lat="39.0230220" lon="1.5883860">
        <ele>35.0</ele>
        <time>2020-02-23T10:15:41Z</time>
      </trkpt>
      <trkpt lat="39.0230630" lon="1.5884110">
        <ele>35.0</ele>
        <time>2020-02-23T10:15:42Z</time>
      </trkpt>
      <trkpt lat="39.0231000" lon="1.5884360">
        <ele>35.0</ele>
        <time>2020-02-23T10:15:43Z</time>
      </trkpt>
      <trkpt lat="39.0231400" lon="1.5884570">
        <ele>35.1</ele>
        <time>2020-02-23T10:15:44Z</time>
      </trkpt>
      <trkpt lat="39.0231720" lon="1.5884800">
        <ele>35.1</ele>
        <time>2020-02-23T10:15:45Z</time>
      </trkpt>
      <trkpt lat="39.0232010" lon="1.5885160">
        <ele>35.2</ele>
        <time>2020-02-23T10:15:46Z</time>
      </trkpt>
      <trkpt lat="39.0232390" lon="1.5885170">
        <ele>35.3</ele>
        <time>2020-02-23T10:15:47Z</time>
      </trkpt>
      <trkpt lat="39.0232640" lon="1.5885450">
        <ele>35.4</ele>
        <time>2020-02-23T10:15:48Z</time>
      </trkpt>
      <trkpt lat="39.0232870" lon="1.5885780">
        <ele>35.5</ele>
        <time>2020-02-23T10:15:49Z</time>
      </trkpt>
      <trkpt lat="39.0233170" lon="1.5885920">
        <ele>35.6</ele>
        <time>2020-02-23T10:15:50Z</time>
      </trkpt>
      <trkpt lat="39.0233420" lon="1.5886090">
        <ele>35.7</ele>
        <time>2020-02-23T10:15:51Z</time>
      </trkpt>
      <trkpt lat="39.0233720" lon="1.5886090">
        <ele>35.9</ele>
        <time>2020-02-23T10:15:52Z</time>
      </trkpt>
      <trkpt lat="39.0234060" lon="1.5886290">
        <ele>36.1</ele>
        <time>2020-02-23T10:15:53Z</time>
      </trkpt>
      <trkpt lat="39.0234170" lon="1.5886390">
        <ele>36.2</ele>
        <time>2020-02-23T10:15:54Z</time>
      </trkpt>
      <trkpt lat="39.0234360" lon="1.5886680">
        <ele>36.4</ele>
        <time>2020-02-23T10:15:55Z</time>
      </trkpt>
      <trkpt lat="39.0234670" lon="1.5886870">
        <ele>36.7</ele>
        <time>2020-02-23T10:15:56Z</time>
      </trkpt>
      <trkpt lat="39.0234980" lon="1.5887040">
        <ele>36.9</ele>
        <time>2020-02-23T10:15:57Z</time>
      </trkpt>
      <trkpt lat="39.0235090" lon="1.5887070">
        <ele>37.0</ele>
        <time>2020-02-23T10:15:58Z</time>
      </trkpt>
      <trkpt lat="39.0235390" lon="1.5887140">
        <ele>37.3</ele>
        <time>2020-02-23T10:15:59Z</time>
      </trkpt>
      <trkpt lat="39.0235480" lon="1.5887180">
        <ele>37.4</ele>
        <time>2020-02-23T10:16:00Z</time>
      </trkpt>
      <trkpt lat="39.0235620" lon="1.5887300">
        <ele>37.6</ele>
        <time>2020-02-23T10:16:01Z</time>
      </trkpt>
      <trkpt lat="39.0235710" lon="1.5887480">
        <ele>37.8</ele>
        <time>2020-02-23T10:16:02Z</time>
      </trkpt>
      <trkpt lat="39.0235840" lon="1.5887570">
        <ele>38.0</ele>
        <time>2020-02-23T10:16:03Z</time>
      </trkpt>
      <trkpt lat="39.0236040" lon="1.5887620">
        <ele>38.2</ele>
        <time>2020-02-23T10:16:04Z</time>
      </trkpt>
      <trkpt lat="39.0236290" lon="1.5887820">
        <ele>38.5</ele>
        <time>2020-02-23T10:16:05Z</time>
      </trkpt>
      <trkpt lat="39.0236570" lon="1.5887970">
        <ele>38.8</ele>
        <time>2020-02-23T10:16:06Z</time>
      </trkpt>
      <trkpt lat="39.0236660" lon="1.5888020">
        <ele>38.9</ele>
        <time>2020-02-23T10:16:07Z</time>
      </trkpt>
      <trkpt lat="39.0236970" lon="1.5888200">
        <ele>39.3</ele>
        <time>2020-02-23T10:16:08Z</time>
      </trkpt>
      <trkpt lat="39.0237310" lon="1.5888330">
        <ele>39.8</ele>
        <time>2020-02-23T10:16:09Z</time>
      </trkpt>
      <trkpt lat="39.0237420" lon="1.5888420">
        <ele>39.9</ele>
        <time>2020-02-23T10:16:10Z</time>
      </trkpt>
      <trkpt lat="39.0237720" lon="1.5888600">
        <ele>40.4</ele>
        <time>2020-02-23T10:16:11Z</time>
      </trkpt>
      <trkpt lat="39.0238060" lon="1.5888730">
        <ele>40.8</ele>
        <time>2020-02-23T10:16:12Z</time>
      </trkpt>
      <trkpt lat="39.0238420" lon="1.5888910">
        <ele>41.4</ele>
        <time>2020-02-23T10:16:13Z</time>
      </trkpt>
      <trkpt lat="39.0238550" lon="1.5888970">
        <ele>41.5</ele>
        <time>2020-02-23T10:16:14Z</time>
      </trkpt>
      <trkpt lat="39.0238830" lon="1.5889050">
        <ele>41.9</ele>
        <time>2020-02-23T10:16:15Z</time>
      </trkpt>
      <trkpt lat="39.0238900" lon="1.5889100">
        <ele>42.0</ele>
        <time>2020-02-23T10:16:16Z</time>
      </trkpt>
      <trkpt lat="39.0239150" lon="1.5889120">
        <ele>42.4</ele>
        <time>2020-02-23T10:16:17Z</time>
      </trkpt>
      <trkpt lat="39.0239330" lon="1.5889160">
        <ele>42.7</ele>
        <time>2020-02-23T10:16:18Z</time>
      </trkpt>
      <trkpt lat="39.0239500" lon="1.5889200">
        <ele>42.9</ele>
        <time>2020-02-23T10:16:19Z</time>
      </trkpt>
      <trkpt lat="39.0239820" lon="1.5889250">
        <ele>43.4</ele>
        <time>2020-02-23T10:16:20Z</time>
      </trkpt>
      <trkpt lat="39.0239910" lon="1.5889270">
        <ele>43.6</ele>
        <time>2020-02-23T10:16:21Z</time>
      </trkpt>
      <trkpt lat="39.0240140" lon="1.5889380">
        <ele>43.9</ele>
        <time>2020-02-23T10:16:22Z</time>
      </trkpt>
      <trkpt lat="39.0240230" lon="1.5889430">
        <ele>44.0</ele>
        <time>2020-02-23T10:16:23Z</time>
      </trkpt>
      <trkpt lat="39.0240480" lon="1.5889480">
        <ele>44.3</ele>
        <time>2020-02-23T10:16:24Z</time>
      </trkpt>
      <trkpt lat="39.0240610" lon="1.5889480">
        <ele>44.5</ele>
        <time>2020-02-23T10:16:25Z</time>
      </trkpt>
      <trkpt lat="39.0240740" lon="1.5889470">
        <ele>44.6</ele>
        <time>2020-02-23T10:16:26Z</time>
      </trkpt>
      <trkpt lat="39.0241040" lon="1.5889570">
        <ele>45.0</ele>
        <time>2020-02-23T10:16:27Z</time>
      </trkpt>
      <trkpt lat="39.0241240" lon="1.5889590">
        <ele>45.2</ele>
        <time>2020-02-23T10:16:28Z</time>
      </trkpt>
      <trkpt lat="39.0241360" lon="1.5889580">
        <ele>45.4</ele>
        <time>2020-02-23T10:16:29Z</time>
      </trkpt>
      <trkpt lat="39.0241720" lon="1.5889700">
        <ele>45.7</ele>
        <time>2020-02-23T10:16:30Z</time>
      </trkpt>
      <trkpt lat="39.0241890" lon="1.5889730">
        <ele>45.8</ele>
        <time>2020-02-23T10:16:31Z</time>
      </trkpt>
      <trkpt lat="39.0242140" lon="1.5889730">
        <ele>46.0</ele>
        <time>2020-02-23T10:16:32Z</time>
      </trkpt>
      <trkpt lat="39.0242290" lon="1.5889740">
        <ele>46.1</ele>
        <time>2020-02-23T10:16:33Z</time>
      </trkpt>
      <trkpt lat="39.0242430" lon="1.5889740">
        <ele>46.2</ele>
        <time>2020-02-23T10:16:34Z</time>
      </trkpt>
      <trkpt lat="39.0242560" lon="1.5889790">
        <ele>46.3</ele>
        <time>2020-02-23T10:16:35Z</time>
      </trkpt>
      <trkpt lat="39.0242610" lon="1.5889710">
        <ele>46.3</ele>
        <time>2020-02-23T10:16:36Z</time>
      </trkpt>
      <trkpt lat="39.0242760" lon="1.5889720">
        <ele>46.4</ele>
        <time>2020-02-23T10:16:37Z</time>
      </trkpt>
      <trkpt lat="39.0243140" lon="1.5889720">
        <ele>46.5</ele>
        <time>2020-02-23T10:16:38Z</time>
      </trkpt>
      <trkpt lat="39.0243290" lon="1.5889720">
        <ele>46.5</ele>
        <time>2020-02-23T10:16:39Z</time>
      </trkpt>
      <trkpt lat="39.0243570" lon="1.5889830">
        <ele>46.6</ele>
        <time>2020-02-23T10:16:40Z</time>
      </trkpt>
      <trkpt lat="39.0243940" lon="1.5890000">
        <ele>46.7</ele>
        <time>2020-02-23T10:16:41Z</time>
      </trkpt>
      <trkpt lat="39.0244080" lon="1.5890080">
        <ele>46.7</ele>
        <time>2020-02-23T10:16:42Z</time>
      </trkpt>
      <trkpt lat="39.0244410" lon="1.5890110">
        <ele>46.8</ele>
        <time>2020-02-23T10:16:43Z</time>
      </trkpt>
      <trkpt lat="39.0244750" lon="1.5890230">
        <ele>46.8</ele>
        <time>2020-02-23T10:16:44Z</time>
      </trkpt>
      <trkpt lat="39.0245110" lon="1.5890440">
        <ele>46.7</ele>
        <time>2020-02-23T10:16:45Z</time>
      </trkpt>
      <trkpt lat="39.0245520" lon="1.5890740">
        <ele>46.6</ele>
        <time>2020-02-23T10:16:46Z</time>
      </trkpt>
      <trkpt lat="39.0245840" lon="1.5890950">
        <ele>46.5</ele>
        <time>2020-02-23T10:16:47Z</time>
      </trkpt>
      <trkpt lat="39.0246290" lon="1.5891320">
        <ele>46.2</ele>
        <time>2020-02-23T10:16:48Z</time>
      </trkpt>
      <trkpt lat="39.0246740" lon="1.5891760">
        <ele>45.9</ele>
        <time>2020-02-23T10:16:49Z</time>
      </trkpt>
      <trkpt lat="39.0247240" lon="1.5892380">
        <ele>45.4</ele>
        <time>2020-02-23T10:16:50Z</time>
      </trkpt>
      <trkpt lat="39.0247750" lon="1.5892980">
        <ele>44.9</ele>
        <time>2020-02-23T10:16:51Z</time>
      </trkpt>
      <trkpt lat="39.0248330" lon="1.5893540">
        <ele>44.3</ele>
        <time>2020-02-23T10:16:52Z</time>
      </trkpt>
      <trkpt lat="39.0248960" lon="1.5893960">
        <ele>43.6</ele>
        <time>2020-02-23T10:16:53Z</time>
      </trkpt>
      <trkpt lat="39.0249650" lon="1.5893960">
        <ele>43.0</ele>
        <time>2020-02-23T10:16:54Z</time>
      </trkpt>
      <trkpt lat="39.0250320" lon="1.5893960">
        <ele>42.4</ele>
        <time>2020-02-23T10:16:55Z</time>
      </trkpt>
      <trkpt lat="39.0250970" lon="1.5893830">
        <ele>41.8</ele>
        <time>2020-02-23T10:16:56Z</time>
      </trkpt>
      <trkpt lat="39.0251550" lon="1.5893800">
        <ele>41.2</ele>
        <time>2020-02-23T10:16:57Z</time>
      </trkpt>
      <trkpt lat="39.0252120" lon="1.5893790">
        <ele>40.5</ele>
        <time>2020-02-23T10:16:58Z</time>
      </trkpt>
      <trkpt lat="39.0252740" lon="1.5893800">
        <ele>39.7</ele>
        <time>2020-02-23T10:16:59Z</time>
      </trkpt>
      <trkpt lat="39.0253320" lon="1.5893790">
        <ele>39.0</ele>
        <time>2020-02-23T10:17:00Z</time>
      </trkpt>
      <trkpt lat="39.0254030" lon="1.5893830">
        <ele>38.0</ele>
        <time>2020-02-23T10:17:01Z</time>
      </trkpt>
      <trkpt lat="39.0254620" lon="1.5894010">
        <ele>37.1</ele>
        <time>2020-02-23T10:17:02Z</time>
      </trkpt>
      <trkpt lat="39.0255120" lon="1.5894430">
        <ele>36.3</ele>
        <time>2020-02-23T10:17:03Z</time>
      </trkpt>
      <trkpt lat="39.0255540" lon="1.5895220">
        <ele>35.3</ele>
        <time>2020-02-23T10:17:04Z</time>
      </trkpt>
      <trkpt lat="39.0255870" lon="1.5895870">
        <ele>34.5</ele>
        <time>2020-02-23T10:17:05Z</time>
      </trkpt>
      <trkpt lat="39.0256210" lon="1.5896570">
        <ele>33.7</ele>
        <time>2020-02-23T10:17:06Z</time>
      </trkpt>
      <trkpt lat="39.0256510" lon="1.5897310">
        <ele>32.8</ele>
        <time>2020-02-23T10:17:07Z</time>
      </trkpt>
      <trkpt lat="39.0256790" lon="1.5898170">
        <ele>31.9</ele>
        <time>2020-02-23T10:17:08Z</time>
      </trkpt>
      <trkpt lat="39.0256970" lon="1.5899030">
        <ele>31.1</ele>
        <time>2020-02-23T10:17:09Z</time>
      </trkpt>
      <trkpt lat="39.0257210" lon="1.5899900">
        <ele>30.2</ele>
        <time>2020-02-23T10:17:10Z</time>
      </trkpt>
      <trkpt lat="39.0257360" lon="1.5900730">
        <ele>29.3</ele>
        <time>2020-02-23T10:17:11Z</time>
      </trkpt>
      <trkpt lat="39.0257480" lon="1.5901650">
        <ele>28.3</ele>
        <time>2020-02-23T10:17:12Z</time>
      </trkpt>
      <trkpt lat="39.0257550" lon="1.5902520">
        <ele>27.3</ele>
        <time>2020-02-23T10:17:13Z</time>
      </trkpt>
      <trkpt lat="39.0257630" lon="1.5903350">
        <ele>26.3</ele>
        <time>2020-02-23T10:17:14Z</time>
      </trkpt>
      <trkpt lat="39.0257750" lon="1.5904340">
        <ele>25.1</ele>
        <time>2020-02-23T10:17:15Z</time>
      </trkpt>
      <trkpt lat="39.0257630" lon="1.5905290">
        <ele>24.0</ele>
        <time>2020-02-23T10:17:16Z</time>
      </trkpt>
      <trkpt lat="39.0257440" lon="1.5906300">
        <ele>22.8</ele>
        <time>2020-02-23T10:17:17Z</time>
      </trkpt>
      <trkpt lat="39.0257240" lon="1.5907400">
        <ele>21.4</ele>
        <time>2020-02-23T10:17:18Z</time>
      </trkpt>
      <trkpt lat="39.0257010" lon="1.5908570">
        <ele>20.0</ele>
        <time>2020-02-23T10:17:19Z</time>
      </trkpt>
      <trkpt lat="39.0256820" lon="1.5909900">
        <ele>18.5</ele>
        <time>2020-02-23T10:17:20Z</time>
      </trkpt>
      <trkpt lat="39.0256800" lon="1.5911330">
        <ele>17.7</ele>
        <time>2020-02-23T10:17:21Z</time>
      </trkpt>
      <trkpt lat="39.0256800" lon="1.5912600">
        <ele>17.5</ele>
        <time>2020-02-23T10:17:22Z</time>
      </trkpt>
      <trkpt lat="39.0256970" lon="1.5913830">
        <ele>17.3</ele>
        <time>2020-02-23T10:17:23Z</time>
      </trkpt>
      <trkpt lat="39.0257170" lon="1.5914940">
        <ele>17.1</ele>
        <time>2020-02-23T10:17:24Z</time>
      </trkpt>
      <trkpt lat="39.0257120" lon="1.5915990">
        <ele>17.0</ele>
        <time>2020-02-23T10:17:25Z</time>
      </trkpt>
      <trkpt lat="39.0257020" lon="1.5917130">
        <ele>16.9</ele>
        <time>2020-02-23T10:17:26Z</time>
      </trkpt>
      <trkpt lat="39.0256910" lon="1.5918240">
        <ele>16.7</ele>
        <time>2020-02-23T10:17:27Z</time>
      </trkpt>
      <trkpt lat="39.0256900" lon="1.5919370">
        <ele>16.6</ele>
        <time>2020-02-23T10:17:28Z</time>
      </trkpt>
      <trkpt lat="39.0256910" lon="1.5920500">
        <ele>16.4</ele>
        <time>2020-02-23T10:17:29Z</time>
      </trkpt>
      <trkpt lat="39.0257010" lon="1.5921540">
        <ele>16.2</ele>
        <time>2020-02-23T10:17:30Z</time>
      </trkpt>
      <trkpt lat="39.0257060" lon="1.5922450">
        <ele>16.0</ele>
        <time>2020-02-23T10:17:31Z</time>
      </trkpt>
      <trkpt lat="39.0256900" lon="1.5923080">
        <ele>15.9</ele>
        <time>2020-02-23T10:17:32Z</time>
      </trkpt>
      <trkpt lat="39.0256810" lon="1.5923730">
        <ele>15.8</ele>
        <time>2020-02-23T10:17:33Z</time>
      </trkpt>
      <trkpt lat="39.0256810" lon="1.5924460">
        <ele>15.6</ele>
        <time>2020-02-23T10:17:34Z</time>
      </trkpt>
      <trkpt lat="39.0256760" lon="1.5925090">
        <ele>15.5</ele>
        <time>2020-02-23T10:17:35Z</time>
      </trkpt>
      <trkpt lat="39.0256690" lon="1.5925730">
        <ele>15.4</ele>
        <time>2020-02-23T10:17:36Z</time>
      </trkpt>
      <trkpt lat="39.0256670" lon="1.5926440">
        <ele>15.3</ele>
        <time>2020-02-23T10:17:37Z</time>
      </trkpt>
      <trkpt lat="39.0256500" lon="1.5927110">
        <ele>15.2</ele>
        <time>2020-02-23T10:17:38Z</time>
      </trkpt>
      <trkpt lat="39.0256410" lon="1.5927810">
        <ele>15.1</ele>
        <time>2020-02-23T10:17:39Z</time>
      </trkpt>
      <trkpt lat="39.0256350" lon="1.5928540">
        <ele>14.9</ele>
        <time>2020-02-23T10:17:40Z</time>
      </trkpt>
      <trkpt lat="39.0256260" lon="1.5929170">
        <ele>14.8</ele>
        <time>2020-02-23T10:17:41Z</time>
      </trkpt>
      <trkpt lat="39.0256120" lon="1.5929720">
        <ele>14.7</ele>
        <time>2020-02-23T10:17:42Z</time>
      </trkpt>
      <trkpt lat="39.0256140" lon="1.5930330">
        <ele>14.6</ele>
        <time>2020-02-23T10:17:43Z</time>
      </trkpt>
      <trkpt lat="39.0256240" lon="1.5930800">
        <ele>14.5</ele>
        <time>2020-02-23T10:17:44Z</time>
      </trkpt>
      <trkpt lat="39.0256280" lon="1.5931220">
        <ele>14.5</ele>
        <time>2020-02-23T10:17:45Z</time>
      </trkpt>
      <trkpt lat="39.0256260" lon="1.5931750">
        <ele>14.4</ele>
        <time>2020-02-23T10:17:46Z</time>
      </trkpt>
      <trkpt lat="39.0256190" lon="1.5932250">
        <ele>14.3</ele>
        <time>2020-02-23T10:17:47Z</time>
      </trkpt>
      <trkpt lat="39.0256150" lon="1.5932720">
        <ele>14.4</ele>
        <time>2020-02-23T10:17:48Z</time>
      </trkpt>
      <trkpt lat="39.0256030" lon="1.5933150">
        <ele>14.4</ele>
        <time>2020-02-23T10:17:49Z</time>
      </trkpt>
      <trkpt lat="39.0255840" lon="1.5933600">
        <ele>14.4</ele>
        <time>2020-02-23T10:17:50Z</time>
      </trkpt>
      <trkpt lat="39.0255600" lon="1.5934050">
        <ele>14.3</ele>
        <time>2020-02-23T10:17:51Z</time>
      </trkpt>
      <trkpt lat="39.0255450" lon="1.5934530">
        <ele>14.3</ele>
        <time>2020-02-23T10:17:52Z</time>
      </trkpt>
      <trkpt lat="39.0255380" lon="1.5935060">
        <ele>14.3</ele>
        <time>2020-02-23T10:17:53Z</time>
      </trkpt>
      <trkpt lat="39.0255280" lon="1.5935510">
        <ele>14.2</ele>
        <time>2020-02-23T10:17:54Z</time>
      </trkpt>
      <trkpt lat="39.0255230" lon="1.5935910">
        <ele>14.1</ele>
        <time>2020-02-23T10:17:55Z</time>
      </trkpt>
      <trkpt lat="39.0254810" lon="1.5936050">
        <ele>14.5</ele>
        <time>2020-02-23T10:17:56Z</time>
      </trkpt>
      <trkpt lat="39.0254410" lon="1.5936300">
        <ele>14.6</ele>
        <time>2020-02-23T10:17:57Z</time>
      </trkpt>
      <trkpt lat="39.0254050" lon="1.5936480">
        <ele>14.8</ele>
        <time>2020-02-23T10:17:58Z</time>
      </trkpt>
      <trkpt lat="39.0253700" lon="1.5936510">
        <ele>15.0</ele>
        <time>2020-02-23T10:17:59Z</time>
      </trkpt>
      <trkpt lat="39.0253370" lon="1.5936580">
        <ele>15.2</ele>
        <time>2020-02-23T10:18:00Z</time>
      </trkpt>
      <trkpt lat="39.0253090" lon="1.5936790">
        <ele>15.4</ele>
        <time>2020-02-23T10:18:01Z</time>
      </trkpt>
      <trkpt lat="39.0252840" lon="1.5937000">
        <ele>15.6</ele>
        <time>2020-02-23T10:18:02Z</time>
      </trkpt>
      <trkpt lat="39.0252670" lon="1.5937390">
        <ele>15.6</ele>
        <time>2020-02-23T10:18:03Z</time>
      </trkpt>
      <trkpt lat="39.0252490" lon="1.5937780">
        <ele>15.8</ele>
        <time>2020-02-23T10:18:04Z</time>
      </trkpt>
      <trkpt lat="39.0252320" lon="1.5938060">
        <ele>15.8</ele>
        <time>2020-02-23T10:18:05Z</time>
      </trkpt>
      <trkpt lat="39.0252270" lon="1.5938220">
        <ele>15.8</ele>
        <time>2020-02-23T10:18:06Z</time>
      </trkpt>
      <trkpt lat="39.0252240" lon="1.5938270">
        <ele>15.8</ele>
        <time>2020-02-23T10:18:07Z</time>
      </trkpt>
      <trkpt lat="39.0252240" lon="1.5938300">
        <ele>15.8</ele>
        <time>2020-02-23T10:18:08Z</time>
      </trkpt>
      <trkpt lat="39.0252200" lon="1.5938340">
        <ele>15.8</ele>
        <time>2020-02-23T10:18:09Z</time>
      </trkpt>
      <trkpt lat="39.0252160" lon="1.5938450">
        <ele>16.0</ele>
        <time>2020-02-23T10:18:10Z</time>
      </trkpt>
      <trkpt lat="39.0252210" lon="1.5938650">
        <ele>15.8</ele>
        <time>2020-02-23T10:18:11Z</time>
      </trkpt>
      <trkpt lat="39.0252230" lon="1.5938740">
        <ele>15.8</ele>
        <time>2020-02-23T10:18:12Z</time>
      </trkpt>
      <trkpt lat="39.0252250" lon="1.5938840">
        <ele>15.8</ele>
        <time>2020-02-23T10:18:13Z</time>
      </trkpt>
      <trkpt lat="39.0252270" lon="1.5938930">
        <ele>15.8</ele>
        <time>2020-02-23T10:18:14Z</time>
      </trkpt>
      <trkpt lat="39.0252290" lon="1.5939070">
        <ele>15.8</ele>
        <time>2020-02-23T10:18:15Z</time>
      </trkpt>
      <trkpt lat="39.0252400" lon="1.5939250">
        <ele>15.8</ele>
        <time>2020-02-23T10:18:16Z</time>
      </trkpt>
      <trkpt lat="39.0252510" lon="1.5939470">
        <ele>15.8</ele>
        <time>2020-02-23T10:18:17Z</time>
      </trkpt>
      <trkpt lat="39.0252540" lon="1.5939570">
        <ele>15.6</ele>
        <time>2020-02-23T10:18:18Z</time>
      </trkpt>
      <trkpt lat="39.0252580" lon="1.5939680">
        <ele>15.6</ele>
        <time>2020-02-23T10:18:19Z</time>
      </trkpt>
      <trkpt lat="39.0252620" lon="1.5939800">
        <ele>15.6</ele>
        <time>2020-02-23T10:18:20Z</time>
      </trkpt>
      <trkpt lat="39.0252670" lon="1.5939950">
        <ele>15.6</ele>
        <time>2020-02-23T10:18:21Z</time>
      </trkpt>
      <trkpt lat="39.0252680" lon="1.5940110">
        <ele>15.6</ele>
        <time>2020-02-23T10:18:22Z</time>
      </trkpt>
      <trkpt lat="39.0252700" lon="1.5940340">
        <ele>15.6</ele>
        <time>2020-02-23T10:18:23Z</time>
      </trkpt>
      <trkpt lat="39.0252670" lon="1.5940570">
        <ele>15.5</ele>
        <time>2020-02-23T10:18:24Z</time>
      </trkpt>
      <trkpt lat="39.0252460" lon="1.5940900">
        <ele>15.7</ele>
        <time>2020-02-23T10:18:25Z</time>
      </trkpt>
      <trkpt lat="39.0252370" lon="1.5940980">
        <ele>15.7</ele>
        <time>2020-02-23T10:18:26Z</time>
      </trkpt>
      <trkpt lat="39.0252220" lon="1.5941120">
        <ele>15.7</ele>
        <time>2020-02-23T10:18:27Z</time>
      </trkpt>
      <trkpt lat="39.0252190" lon="1.5941320">
        <ele>15.7</ele>
        <time>2020-02-23T10:18:28Z</time>
      </trkpt>
      <trkpt lat="39.0252070" lon="1.5941700">
        <ele>15.8</ele>
        <time>2020-02-23T10:18:29Z</time>
      </trkpt>
      <trkpt lat="39.0252050" lon="1.5941880">
        <ele>15.8</ele>
        <time>2020-02-23T10:18:30Z</time>
      </trkpt>
      <trkpt lat="39.0252020" lon="1.5942250">
        <ele>15.7</ele>
        <time>2020-02-23T10:18:31Z</time>
      </trkpt>
      <trkpt lat="39.0251910" lon="1.5942720">
        <ele>15.7</ele>
        <time>2020-02-23T10:18:32Z</time>
      </trkpt>
      <trkpt lat="39.0251850" lon="1.5942860">
        <ele>15.9</ele>
        <time>2020-02-23T10:18:33Z</time>
      </trkpt>
      <trkpt lat="39.0251700" lon="1.5943140">
        <ele>15.9</ele>
        <time>2020-02-23T10:18:34Z</time>
      </trkpt>
      <trkpt lat="39.0251730" lon="1.5943550">
        <ele>15.9</ele>
        <time>2020-02-23T10:18:35Z</time>
      </trkpt>
      <trkpt lat="39.0251700" lon="1.5944010">
        <ele>15.8</ele>
        <time>2020-02-23T10:18:36Z</time>
      </trkpt>
      <trkpt lat="39.0251660" lon="1.5944140">
        <ele>15.8</ele>
        <time>2020-02-23T10:18:37Z</time>
      </trkpt>
      <trkpt lat="39.0251560" lon="1.5944490">
        <ele>15.7</ele>
        <time>2020-02-23T10:18:38Z</time>
      </trkpt>
      <trkpt lat="39.0251490" lon="1.5945000">
        <ele>15.9</ele>
        <time>2020-02-23T10:18:39Z</time>
      </trkpt>
      <trkpt lat="39.0251410" lon="1.5945560">
        <ele>15.7</ele>
        <time>2020-02-23T10:18:40Z</time>
      </trkpt>
      <trkpt lat="39.0251280" lon="1.5945980">
        <ele>15.5</ele>
        <time>2020-02-23T10:18:41Z</time>
      </trkpt>
      <trkpt lat="39.0251160" lon="1.5946420">
        <ele>15.6</ele>
        <time>2020-02-23T10:18:42Z</time>
      </trkpt>
      <trkpt lat="39.0251080" lon="1.5946840">
        <ele>15.3</ele>
        <time>2020-02-23T10:18:43Z</time>
      </trkpt>
      <trkpt lat="39.0250890" lon="1.5947150">
        <ele>14.9</ele>
        <time>2020-02-23T10:18:44Z</time>
      </trkpt>
      <trkpt lat="39.0250570" lon="1.5947460">
        <ele>14.9</ele>
        <time>2020-02-23T10:18:45Z</time>
      </trkpt>
      <trkpt lat="39.0250490" lon="1.5947600">
        <ele>15.2</ele>
        <time>2020-02-23T10:18:46Z</time>
      </trkpt>
      <trkpt lat="39.0250240" lon="1.5947780">
        <ele>14.8</ele>
        <time>2020-02-23T10:18:47Z</time>
      </trkpt>
      <trkpt lat="39.0249910" lon="1.5947960">
        <ele>15.2</ele>
        <time>2020-02-23T10:18:48Z</time>
      </trkpt>
      <trkpt lat="39.0249580" lon="1.5948190">
        <ele>15.5</ele>
        <time>2020-02-23T10:18:49Z</time>
      </trkpt>
      <trkpt lat="39.0249300" lon="1.5948440">
        <ele>15.5</ele>
        <time>2020-02-23T10:18:50Z</time>
      </trkpt>
      <trkpt lat="39.0249020" lon="1.5948660">
        <ele>15.4</ele>
        <time>2020-02-23T10:18:51Z</time>
      </trkpt>
      <trkpt lat="39.0248690" lon="1.5948780">
        <ele>15.8</ele>
        <time>2020-02-23T10:18:52Z</time>
      </trkpt>
      <trkpt lat="39.0248440" lon="1.5948980">
        <ele>16.1</ele>
        <time>2020-02-23T10:18:53Z</time>
      </trkpt>
      <trkpt lat="39.0248190" lon="1.5949220">
        <ele>15.6</ele>
        <time>2020-02-23T10:18:54Z</time>
      </trkpt>
      <trkpt lat="39.0247940" lon="1.5949530">
        <ele>15.4</ele>
        <time>2020-02-23T10:18:55Z</time>
      </trkpt>
      <trkpt lat="39.0247880" lon="1.5949620">
        <ele>15.4</ele>
        <time>2020-02-23T10:18:56Z</time>
      </trkpt>
      <trkpt lat="39.0247790" lon="1.5949800">
        <ele>15.8</ele>
        <time>2020-02-23T10:18:57Z</time>
      </trkpt>
      <trkpt lat="39.0247740" lon="1.5950010">
        <ele>15.2</ele>
        <time>2020-02-23T10:18:58Z</time>
      </trkpt>
      <trkpt lat="39.0247760" lon="1.5950380">
        <ele>14.7</ele>
        <time>2020-02-23T10:18:59Z</time>
      </trkpt>
      <trkpt lat="39.0247670" lon="1.5950770">
        <ele>14.7</ele>
        <time>2020-02-23T10:19:00Z</time>
      </trkpt>
      <trkpt lat="39.0247620" lon="1.5951220">
        <ele>14.1</ele>
        <time>2020-02-23T10:19:01Z</time>
      </trkpt>
      <trkpt lat="39.0247720" lon="1.5951630">
        <ele>14.1</ele>
        <time>2020-02-23T10:19:02Z</time>
      </trkpt>
      <trkpt lat="39.0247750" lon="1.5951770">
        <ele>14.0</ele>
        <time>2020-02-23T10:19:03Z</time>
      </trkpt>
      <trkpt lat="39.0247830" lon="1.5952220">
        <ele>14.1</ele>
        <time>2020-02-23T10:19:04Z</time>
      </trkpt>
      <trkpt lat="39.0247840" lon="1.5952390">
        <ele>14.1</ele>
        <time>2020-02-23T10:19:05Z</time>
      </trkpt>
      <trkpt lat="39.0247900" lon="1.5952790">
        <ele>13.4</ele>
        <time>2020-02-23T10:19:06Z</time>
      </trkpt>
      <trkpt lat="39.0247960" lon="1.5953190">
        <ele>13.5</ele>
        <time>2020-02-23T10:19:07Z</time>
      </trkpt>
      <trkpt lat="39.0248100" lon="1.5953560">
        <ele>13.4</ele>
        <time>2020-02-23T10:19:08Z</time>
      </trkpt>
      <trkpt lat="39.0248180" lon="1.5953690">
        <ele>13.4</ele>
        <time>2020-02-23T10:19:09Z</time>
      </trkpt>
      <trkpt lat="39.0248370" lon="1.5954040">
        <ele>12.6</ele>
        <time>2020-02-23T10:19:10Z</time>
      </trkpt>
      <trkpt lat="39.0248410" lon="1.5954180">
        <ele>12.6</ele>
        <time>2020-02-23T10:19:11Z</time>
      </trkpt>
      <trkpt lat="39.0248660" lon="1.5954360">
        <ele>12.2</ele>
        <time>2020-02-23T10:19:12Z</time>
      </trkpt>
      <trkpt lat="39.0248720" lon="1.5954460">
        <ele>12.2</ele>
        <time>2020-02-23T10:19:13Z</time>
      </trkpt>
      <trkpt lat="39.0248870" lon="1.5954900">
        <ele>12.4</ele>
        <time>2020-02-23T10:19:14Z</time>
      </trkpt>
      <trkpt lat="39.0248910" lon="1.5955070">
        <ele>12.7</ele>
        <time>2020-02-23T10:19:15Z</time>
      </trkpt>
      <trkpt lat="39.0249040" lon="1.5955190">
        <ele>12.7</ele>
        <time>2020-02-23T10:19:16Z</time>
      </trkpt>
      <trkpt lat="39.0249160" lon="1.5955320">
        <ele>12.7</ele>
        <time>2020-02-23T10:19:17Z</time>
      </trkpt>
      <trkpt lat="39.0249240" lon="1.5955260">
        <ele>13.0</ele>
        <time>2020-02-23T10:19:18Z</time>
      </trkpt>
      <trkpt lat="39.0249360" lon="1.5955250">
        <ele>13.0</ele>
        <time>2020-02-23T10:19:19Z</time>
      </trkpt>
      <trkpt lat="39.0249500" lon="1.5955360">
        <ele>13.0</ele>
        <time>2020-02-23T10:19:20Z</time>
      </trkpt>
      <trkpt lat="39.0249550" lon="1.5955490">
        <ele>13.3</ele>
        <time>2020-02-23T10:19:21Z</time>
      </trkpt>
      <trkpt lat="39.0249550" lon="1.5955480">
        <ele>13.3</ele>
        <time>2020-02-23T10:19:22Z</time>
      </trkpt>
      <trkpt lat="39.0249540" lon="1.5955520">
        <ele>13.8</ele>
        <time>2020-02-23T10:19:23Z</time>
      </trkpt>
      <trkpt lat="39.0249500" lon="1.5955560">
        <ele>13.4</ele>
        <time>2020-02-23T10:19:24Z</time>
      </trkpt>
      <trkpt lat="39.0249480" lon="1.5955620">
        <ele>13.4</ele>
        <time>2020-02-23T10:19:25Z</time>
      </trkpt>
      <trkpt lat="39.0249540" lon="1.5955670">
        <ele>13.8</ele>
        <time>2020-02-23T10:19:26Z</time>
      </trkpt>
      <trkpt lat="39.0249460" lon="1.5955710">
        <ele>13.4</ele>
        <time>2020-02-23T10:19:27Z</time>
      </trkpt>
      <trkpt lat="39.0249460" lon="1.5955720">
        <ele>13.4</ele>
        <time>2020-02-23T10:19:28Z</time>
      </trkpt>
      <trkpt lat="39.0249520" lon="1.5955710">
        <ele>13.8</ele>
        <time>2020-02-23T10:19:29Z</time>
      </trkpt>
      <trkpt lat="39.0249540" lon="1.5955700">
        <ele>13.8</ele>
        <time>2020-02-23T10:19:30Z</time>
      </trkpt>
      <trkpt lat="39.0249550" lon="1.5955710">
        <ele>13.8</ele>
        <time>2020-02-23T10:19:31Z</time>
      </trkpt>
      <trkpt lat="39.0250390" lon="1.5954790">
        <ele>13.6</ele>
        <time>2020-02-23T10:21:29Z</time>
      </trkpt>
      <trkpt lat="39.0250570" lon="1.5954390">
        <ele>13.8</ele>
        <time>2020-02-23T10:21:30Z</time>
      </trkpt>
      <trkpt lat="39.0250770" lon="1.5953970">
        <ele>14.1</ele>
        <time>2020-02-23T10:21:31Z</time>
      </trkpt>
      <trkpt lat="39.0250900" lon="1.5953560">
        <ele>14.4</ele>
        <time>2020-02-23T10:21:32Z</time>
      </trkpt>
      <trkpt lat="39.0251040" lon="1.5953160">
        <ele>14.6</ele>
        <time>2020-02-23T10:21:33Z</time>
      </trkpt>
      <trkpt lat="39.0251080" lon="1.5953070">
        <ele>14.7</ele>
        <time>2020-02-23T10:21:34Z</time>
      </trkpt>
      <trkpt lat="39.0251230" lon="1.5952700">
        <ele>15.0</ele>
        <time>2020-02-23T10:21:35Z</time>
      </trkpt>
      <trkpt lat="39.0251280" lon="1.5952570">
        <ele>15.1</ele>
        <time>2020-02-23T10:21:36Z</time>
      </trkpt>
      <trkpt lat="39.0251330" lon="1.5952370">
        <ele>15.3</ele>
        <time>2020-02-23T10:21:37Z</time>
      </trkpt>
      <trkpt lat="39.0251490" lon="1.5952270">
        <ele>15.4</ele>
        <time>2020-02-23T10:21:38Z</time>
      </trkpt>
      <trkpt lat="39.0251780" lon="1.5952380">
        <ele>15.7</ele>
        <time>2020-02-23T10:21:39Z</time>
      </trkpt>
      <trkpt lat="39.0252070" lon="1.5952680">
        <ele>16.1</ele>
        <time>2020-02-23T10:21:40Z</time>
      </trkpt>
      <trkpt lat="39.0252130" lon="1.5952820">
        <ele>16.2</ele>
        <time>2020-02-23T10:21:41Z</time>
      </trkpt>
      <trkpt lat="39.0252100" lon="1.5953180">
        <ele>16.5</ele>
        <time>2020-02-23T10:21:42Z</time>
      </trkpt>
      <trkpt lat="39.0252100" lon="1.5953370">
        <ele>16.6</ele>
        <time>2020-02-23T10:21:43Z</time>
      </trkpt>
      <trkpt lat="39.0252030" lon="1.5953490">
        <ele>16.7</ele>
        <time>2020-02-23T10:21:44Z</time>
      </trkpt>
      <trkpt lat="39.0252000" lon="1.5953610">
        <ele>16.8</ele>
        <time>2020-02-23T10:21:45Z</time>
      </trkpt>
      <trkpt lat="39.0252130" lon="1.5953740">
        <ele>17.0</ele>
        <time>2020-02-23T10:21:46Z</time>
      </trkpt>
      <trkpt lat="39.0252390" lon="1.5953870">
        <ele>17.2</ele>
        <time>2020-02-23T10:21:47Z</time>
      </trkpt>
      <trkpt lat="39.0252490" lon="1.5953870">
        <ele>17.3</ele>
        <time>2020-02-23T10:21:48Z</time>
      </trkpt>
      <trkpt lat="39.0252580" lon="1.5953870">
        <ele>17.4</ele>
        <time>2020-02-23T10:21:49Z</time>
      </trkpt>
      <trkpt lat="39.0252910" lon="1.5953790">
        <ele>17.7</ele>
        <time>2020-02-23T10:21:50Z</time>
      </trkpt>
      <trkpt lat="39.0253030" lon="1.5953760">
        <ele>17.8</ele>
        <time>2020-02-23T10:21:51Z</time>
      </trkpt>
      <trkpt lat="39.0253350" lon="1.5953810">
        <ele>18.0</ele>
        <time>2020-02-23T10:21:52Z</time>
      </trkpt>
      <trkpt lat="39.0253470" lon="1.5953850">
        <ele>18.1</ele>
        <time>2020-02-23T10:21:53Z</time>
      </trkpt>
      <trkpt lat="39.0253560" lon="1.5953860">
        <ele>18.2</ele>
        <time>2020-02-23T10:21:54Z</time>
      </trkpt>
      <trkpt lat="39.0253780" lon="1.5953870">
        <ele>18.3</ele>
        <time>2020-02-23T10:21:55Z</time>
      </trkpt>
      <trkpt lat="39.0253930" lon="1.5953880">
        <ele>18.4</ele>
        <time>2020-02-23T10:21:56Z</time>
      </trkpt>
      <trkpt lat="39.0253960" lon="1.5953920">
        <ele>18.4</ele>
        <time>2020-02-23T10:21:57Z</time>
      </trkpt>
      <trkpt lat="39.0254110" lon="1.5953970">
        <ele>18.4</ele>
        <time>2020-02-23T10:21:58Z</time>
      </trkpt>
      <trkpt lat="39.0254260" lon="1.5953930">
        <ele>18.5</ele>
        <time>2020-02-23T10:21:59Z</time>
      </trkpt>
      <trkpt lat="39.0254380" lon="1.5953900">
        <ele>18.6</ele>
        <time>2020-02-23T10:22:00Z</time>
      </trkpt>
      <trkpt lat="39.0254560" lon="1.5953850">
        <ele>18.6</ele>
        <time>2020-02-23T10:22:01Z</time>
      </trkpt>
      <trkpt lat="39.0254680" lon="1.5953840">
        <ele>18.6</ele>
        <time>2020-02-23T10:22:02Z</time>
      </trkpt>
      <trkpt lat="39.0254790" lon="1.5953840">
        <ele>18.7</ele>
        <time>2020-02-23T10:22:03Z</time>
      </trkpt>
      <trkpt lat="39.0254940" lon="1.5953860">
        <ele>18.7</ele>
        <time>2020-02-23T10:22:04Z</time>
      </trkpt>
      <trkpt lat="39.0255120" lon="1.5953920">
        <ele>18.7</ele>
        <time>2020-02-23T10:22:05Z</time>
      </trkpt>
      <trkpt lat="39.0255300" lon="1.5953970">
        <ele>18.8</ele>
        <time>2020-02-23T10:22:06Z</time>
      </trkpt>
      <trkpt lat="39.0255420" lon="1.5954070">
        <ele>18.8</ele>
        <time>2020-02-23T10:22:07Z</time>
      </trkpt>
      <trkpt lat="39.0255630" lon="1.5954130">
        <ele>18.8</ele>
        <time>2020-02-23T10:22:08Z</time>
      </trkpt>
      <trkpt lat="39.0255750" lon="1.5954150">
        <ele>18.7</ele>
        <time>2020-02-23T10:22:09Z</time>
      </trkpt>
      <trkpt lat="39.0255860" lon="1.5954140">
        <ele>18.7</ele>
        <time>2020-02-23T10:22:10Z</time>
      </trkpt>
      <trkpt lat="39.0256060" lon="1.5954180">
        <ele>18.7</ele>
        <time>2020-02-23T10:22:11Z</time>
      </trkpt>
      <trkpt lat="39.0256330" lon="1.5954300">
        <ele>18.7</ele>
        <time>2020-02-23T10:22:12Z</time>
      </trkpt>
      <trkpt lat="39.0256420" lon="1.5954370">
        <ele>18.7</ele>
        <time>2020-02-23T10:22:13Z</time>
      </trkpt>
      <trkpt lat="39.0256510" lon="1.5954530">
        <ele>18.6</ele>
        <time>2020-02-23T10:22:14Z</time>
      </trkpt>
      <trkpt lat="39.0256690" lon="1.5954610">
        <ele>18.6</ele>
        <time>2020-02-23T10:22:15Z</time>
      </trkpt>
      <trkpt lat="39.0256850" lon="1.5954770">
        <ele>18.6</ele>
        <time>2020-02-23T10:22:16Z</time>
      </trkpt>
      <trkpt lat="39.0256960" lon="1.5954840">
        <ele>18.8</ele>
        <time>2020-02-23T10:22:17Z</time>
      </trkpt>
      <trkpt lat="39.0257120" lon="1.5955010">
        <ele>18.9</ele>
        <time>2020-02-23T10:22:18Z</time>
      </trkpt>
      <trkpt lat="39.0257180" lon="1.5955140">
        <ele>18.9</ele>
        <time>2020-02-23T10:22:19Z</time>
      </trkpt>
      <trkpt lat="39.0257250" lon="1.5955270">
        <ele>19.0</ele>
        <time>2020-02-23T10:22:20Z</time>
      </trkpt>
      <trkpt lat="39.0257370" lon="1.5955550">
        <ele>19.0</ele>
        <time>2020-02-23T10:22:21Z</time>
      </trkpt>
      <trkpt lat="39.0257440" lon="1.5955660">
        <ele>19.1</ele>
        <time>2020-02-23T10:22:22Z</time>
      </trkpt>
      <trkpt lat="39.0257500" lon="1.5955770">
        <ele>19.1</ele>
        <time>2020-02-23T10:22:23Z</time>
      </trkpt>
      <trkpt lat="39.0257740" lon="1.5956030">
        <ele>19.2</ele>
        <time>2020-02-23T10:22:24Z</time>
      </trkpt>
      <trkpt lat="39.0257780" lon="1.5956090">
        <ele>19.2</ele>
        <time>2020-02-23T10:22:25Z</time>
      </trkpt>
      <trkpt lat="39.0257980" lon="1.5956280">
        <ele>19.3</ele>
        <time>2020-02-23T10:22:26Z</time>
      </trkpt>
      <trkpt lat="39.0258070" lon="1.5956340">
        <ele>19.3</ele>
        <time>2020-02-23T10:22:27Z</time>
      </trkpt>
      <trkpt lat="39.0258160" lon="1.5956400">
        <ele>19.3</ele>
        <time>2020-02-23T10:22:28Z</time>
      </trkpt>
      <trkpt lat="39.0258370" lon="1.5956440">
        <ele>19.3</ele>
        <time>2020-02-23T10:22:29Z</time>
      </trkpt>
      <trkpt lat="39.0258460" lon="1.5956410">
        <ele>19.4</ele>
        <time>2020-02-23T10:22:30Z</time>
      </trkpt>
      <trkpt lat="39.0258670" lon="1.5956460">
        <ele>19.4</ele>
        <time>2020-02-23T10:22:31Z</time>
      </trkpt>
      <trkpt lat="39.0258760" lon="1.5956510">
        <ele>19.4</ele>
        <time>2020-02-23T10:22:32Z</time>
      </trkpt>
      <trkpt lat="39.0258850" lon="1.5956560">
        <ele>19.5</ele>
        <time>2020-02-23T10:22:33Z</time>
      </trkpt>
      <trkpt lat="39.0258990" lon="1.5956740">
        <ele>19.5</ele>
        <time>2020-02-23T10:22:34Z</time>
      </trkpt>
      <trkpt lat="39.0259070" lon="1.5956810">
        <ele>19.5</ele>
        <time>2020-02-23T10:22:35Z</time>
      </trkpt>
      <trkpt lat="39.0259140" lon="1.5956890">
        <ele>19.5</ele>
        <time>2020-02-23T10:22:36Z</time>
      </trkpt>
      <trkpt lat="39.0259210" lon="1.5957000">
        <ele>19.6</ele>
        <time>2020-02-23T10:22:37Z</time>
      </trkpt>
      <trkpt lat="39.0259270" lon="1.5957100">
        <ele>19.6</ele>
        <time>2020-02-23T10:22:38Z</time>
      </trkpt>
      <trkpt lat="39.0259300" lon="1.5957250">
        <ele>19.6</ele>
        <time>2020-02-23T10:22:39Z</time>
      </trkpt>
      <trkpt lat="39.0259290" lon="1.5957390">
        <ele>19.7</ele>
        <time>2020-02-23T10:22:40Z</time>
      </trkpt>
      <trkpt lat="39.0259240" lon="1.5957460">
        <ele>19.7</ele>
        <time>2020-02-23T10:22:41Z</time>
      </trkpt>
      <trkpt lat="39.0259210" lon="1.5957570">
        <ele>19.7</ele>
        <time>2020-02-23T10:22:42Z</time>
      </trkpt>
      <trkpt lat="39.0258940" lon="1.5957760">
        <ele>19.8</ele>
        <time>2020-02-23T10:22:43Z</time>
      </trkpt>
      <trkpt lat="39.0258840" lon="1.5957810">
        <ele>19.8</ele>
        <time>2020-02-23T10:22:44Z</time>
      </trkpt>
      <trkpt lat="39.0258640" lon="1.5957920">
        <ele>19.9</ele>
        <time>2020-02-23T10:22:45Z</time>
      </trkpt>
      <trkpt lat="39.0258520" lon="1.5957930">
        <ele>19.9</ele>
        <time>2020-02-23T10:22:46Z</time>
      </trkpt>
      <trkpt lat="39.0258410" lon="1.5957940">
        <ele>19.9</ele>
        <time>2020-02-23T10:22:47Z</time>
      </trkpt>
      <trkpt lat="39.0258090" lon="1.5957920">
        <ele>20.0</ele>
        <time>2020-02-23T10:22:48Z</time>
      </trkpt>
      <trkpt lat="39.0258010" lon="1.5957910">
        <ele>20.0</ele>
        <time>2020-02-23T10:22:49Z</time>
      </trkpt>
      <trkpt lat="39.0257900" lon="1.5958010">
        <ele>20.1</ele>
        <time>2020-02-23T10:22:50Z</time>
      </trkpt>
      <trkpt lat="39.0257710" lon="1.5958060">
        <ele>20.1</ele>
        <time>2020-02-23T10:22:51Z</time>
      </trkpt>
      <trkpt lat="39.0257520" lon="1.5958070">
        <ele>20.2</ele>
        <time>2020-02-23T10:22:52Z</time>
      </trkpt>
      <trkpt lat="39.0257360" lon="1.5958130">
        <ele>20.2</ele>
        <time>2020-02-23T10:22:53Z</time>
      </trkpt>
      <trkpt lat="39.0257160" lon="1.5958220">
        <ele>20.3</ele>
        <time>2020-02-23T10:22:54Z</time>
      </trkpt>
      <trkpt lat="39.0257080" lon="1.5958240">
        <ele>20.3</ele>
        <time>2020-02-23T10:22:55Z</time>
      </trkpt>
      <trkpt lat="39.0257010" lon="1.5958260">
        <ele>20.3</ele>
        <time>2020-02-23T10:22:56Z</time>
      </trkpt>
      <trkpt lat="39.0256770" lon="1.5958300">
        <ele>20.4</ele>
        <time>2020-02-23T10:22:57Z</time>
      </trkpt>
      <trkpt lat="39.0256640" lon="1.5958310">
        <ele>20.4</ele>
        <time>2020-02-23T10:22:58Z</time>
      </trkpt>
      <trkpt lat="39.0256510" lon="1.5958310">
        <ele>20.5</ele>
        <time>2020-02-23T10:22:59Z</time>
      </trkpt>
      <trkpt lat="39.0256320" lon="1.5958290">
        <ele>20.5</ele>
        <time>2020-02-23T10:23:00Z</time>
      </trkpt>
      <trkpt lat="39.0256240" lon="1.5958290">
        <ele>20.6</ele>
        <time>2020-02-23T10:23:01Z</time>
      </trkpt>
      <trkpt lat="39.0256140" lon="1.5958310">
        <ele>20.6</ele>
        <time>2020-02-23T10:23:02Z</time>
      </trkpt>
      <trkpt lat="39.0256110" lon="1.5958430">
        <ele>20.6</ele>
        <time>2020-02-23T10:23:03Z</time>
      </trkpt>
      <trkpt lat="39.0256010" lon="1.5958640">
        <ele>20.7</ele>
        <time>2020-02-23T10:23:04Z</time>
      </trkpt>
      <trkpt lat="39.0255930" lon="1.5958840">
        <ele>20.7</ele>
        <time>2020-02-23T10:23:05Z</time>
      </trkpt>
      <trkpt lat="39.0255920" lon="1.5959010">
        <ele>20.8</ele>
        <time>2020-02-23T10:23:06Z</time>
      </trkpt>
      <trkpt lat="39.0255790" lon="1.5959370">
        <ele>20.9</ele>
        <time>2020-02-23T10:23:07Z</time>
      </trkpt>
      <trkpt lat="39.0255700" lon="1.5959500">
        <ele>20.9</ele>
        <time>2020-02-23T10:23:08Z</time>
      </trkpt>
      <trkpt lat="39.0255590" lon="1.5959820">
        <ele>21.1</ele>
        <time>2020-02-23T10:23:09Z</time>
      </trkpt>
      <trkpt lat="39.0255550" lon="1.5959930">
        <ele>21.1</ele>
        <time>2020-02-23T10:23:10Z</time>
      </trkpt>
      <trkpt lat="39.0255440" lon="1.5960080">
        <ele>21.2</ele>
        <time>2020-02-23T10:23:11Z</time>
      </trkpt>
      <trkpt lat="39.0255400" lon="1.5960250">
        <ele>21.3</ele>
        <time>2020-02-23T10:23:12Z</time>
      </trkpt>
      <trkpt lat="39.0255310" lon="1.5960470">
        <ele>21.3</ele>
        <time>2020-02-23T10:23:13Z</time>
      </trkpt>
      <trkpt lat="39.0255220" lon="1.5960600">
        <ele>21.4</ele>
        <time>2020-02-23T10:23:14Z</time>
      </trkpt>
      <trkpt lat="39.0255120" lon="1.5960800">
        <ele>21.5</ele>
        <time>2020-02-23T10:23:15Z</time>
      </trkpt>
      <trkpt lat="39.0255030" lon="1.5960990">
        <ele>21.6</ele>
        <time>2020-02-23T10:23:16Z</time>
      </trkpt>
      <trkpt lat="39.0254890" lon="1.5961360">
        <ele>21.7</ele>
        <time>2020-02-23T10:23:17Z</time>
      </trkpt>
      <trkpt lat="39.0254840" lon="1.5961460">
        <ele>21.7</ele>
        <time>2020-02-23T10:23:18Z</time>
      </trkpt>
      <trkpt lat="39.0254760" lon="1.5961650">
        <ele>21.8</ele>
        <time>2020-02-23T10:23:19Z</time>
      </trkpt>
      <trkpt lat="39.0254670" lon="1.5961850">
        <ele>21.8</ele>
        <time>2020-02-23T10:23:20Z</time>
      </trkpt>
      <trkpt lat="39.0254560" lon="1.5962060">
        <ele>21.9</ele>
        <time>2020-02-23T10:23:21Z</time>
      </trkpt>
      <trkpt lat="39.0254480" lon="1.5962230">
        <ele>21.9</ele>
        <time>2020-02-23T10:23:22Z</time>
      </trkpt>
      <trkpt lat="39.0254410" lon="1.5962400">
        <ele>22.0</ele>
        <time>2020-02-23T10:23:23Z</time>
      </trkpt>
      <trkpt lat="39.0254340" lon="1.5962570">
        <ele>22.0</ele>
        <time>2020-02-23T10:23:24Z</time>
      </trkpt>
      <trkpt lat="39.0254160" lon="1.5962920">
        <ele>22.0</ele>
        <time>2020-02-23T10:23:25Z</time>
      </trkpt>
      <trkpt lat="39.0254100" lon="1.5963060">
        <ele>22.1</ele>
        <time>2020-02-23T10:23:26Z</time>
      </trkpt>
      <trkpt lat="39.0253960" lon="1.5963570">
        <ele>22.1</ele>
        <time>2020-02-23T10:23:27Z</time>
      </trkpt>
      <trkpt lat="39.0253920" lon="1.5963770">
        <ele>22.1</ele>
        <time>2020-02-23T10:23:28Z</time>
      </trkpt>
      <trkpt lat="39.0253880" lon="1.5964150">
        <ele>22.2</ele>
        <time>2020-02-23T10:23:29Z</time>
      </trkpt>
      <trkpt lat="39.0253880" lon="1.5964520">
        <ele>22.2</ele>
        <time>2020-02-23T10:23:30Z</time>
      </trkpt>
      <trkpt lat="39.0253930" lon="1.5965060">
        <ele>22.3</ele>
        <time>2020-02-23T10:23:31Z</time>
      </trkpt>
      <trkpt lat="39.0253940" lon="1.5965250">
        <ele>22.4</ele>
        <time>2020-02-23T10:23:32Z</time>
      </trkpt>
      <trkpt lat="39.0254010" lon="1.5965650">
        <ele>22.5</ele>
        <time>2020-02-23T10:23:33Z</time>
      </trkpt>
      <trkpt lat="39.0254090" lon="1.5966070">
        <ele>22.5</ele>
        <time>2020-02-23T10:23:34Z</time>
      </trkpt>
      <trkpt lat="39.0254180" lon="1.5966480">
        <ele>22.6</ele>
        <time>2020-02-23T10:23:35Z</time>
      </trkpt>
      <trkpt lat="39.0254310" lon="1.5966910">
        <ele>22.7</ele>
        <time>2020-02-23T10:23:36Z</time>
      </trkpt>
      <trkpt lat="39.0254430" lon="1.5967390">
        <ele>22.8</ele>
        <time>2020-02-23T10:23:37Z</time>
      </trkpt>
      <trkpt lat="39.0254510" lon="1.5967890">
        <ele>22.8</ele>
        <time>2020-02-23T10:23:38Z</time>
      </trkpt>
      <trkpt lat="39.0254600" lon="1.5968320">
        <ele>22.8</ele>
        <time>2020-02-23T10:23:39Z</time>
      </trkpt>
      <trkpt lat="39.0254680" lon="1.5968650">
        <ele>22.8</ele>
        <time>2020-02-23T10:23:40Z</time>
      </trkpt>
      <trkpt lat="39.0254760" lon="1.5969000">
        <ele>22.7</ele>
        <time>2020-02-23T10:23:41Z</time>
      </trkpt>
      <trkpt lat="39.0254810" lon="1.5969410">
        <ele>22.7</ele>
        <time>2020-02-23T10:23:42Z</time>
      </trkpt>
      <trkpt lat="39.0254850" lon="1.5969870">
        <ele>22.7</ele>
        <time>2020-02-23T10:23:43Z</time>
      </trkpt>
      <trkpt lat="39.0254880" lon="1.5970280">
        <ele>22.6</ele>
        <time>2020-02-23T10:23:44Z</time>
      </trkpt>
      <trkpt lat="39.0254900" lon="1.5970700">
        <ele>22.6</ele>
        <time>2020-02-23T10:23:45Z</time>
      </trkpt>
      <trkpt lat="39.0254950" lon="1.5971150">
        <ele>22.5</ele>
        <time>2020-02-23T10:23:46Z</time>
      </trkpt>
      <trkpt lat="39.0255040" lon="1.5971510">
        <ele>22.5</ele>
        <time>2020-02-23T10:23:47Z</time>
      </trkpt>
      <trkpt lat="39.0255090" lon="1.5971950">
        <ele>22.4</ele>
        <time>2020-02-23T10:23:48Z</time>
      </trkpt>
      <trkpt lat="39.0255140" lon="1.5972460">
        <ele>22.4</ele>
        <time>2020-02-23T10:23:49Z</time>
      </trkpt>
      <trkpt lat="39.0255140" lon="1.5972930">
        <ele>22.3</ele>
        <time>2020-02-23T10:23:50Z</time>
      </trkpt>
      <trkpt lat="39.0255170" lon="1.5973510">
        <ele>22.3</ele>
        <time>2020-02-23T10:23:51Z</time>
      </trkpt>
      <trkpt lat="39.0255240" lon="1.5974250">
        <ele>22.2</ele>
        <time>2020-02-23T10:23:52Z</time>
      </trkpt>
      <trkpt lat="39.0255290" lon="1.5974980">
        <ele>22.2</ele>
        <time>2020-02-23T10:23:53Z</time>
      </trkpt>
      <trkpt lat="39.0255300" lon="1.5975760">
        <ele>22.1</ele>
        <time>2020-02-23T10:23:54Z</time>
      </trkpt>
      <trkpt lat="39.0255250" lon="1.5976400">
        <ele>22.0</ele>
        <time>2020-02-23T10:23:55Z</time>
      </trkpt>
      <trkpt lat="39.0255190" lon="1.5977110">
        <ele>22.0</ele>
        <time>2020-02-23T10:23:56Z</time>
      </trkpt>
      <trkpt lat="39.0255070" lon="1.5977680">
        <ele>22.0</ele>
        <time>2020-02-23T10:23:57Z</time>
      </trkpt>
      <trkpt lat="39.0254910" lon="1.5978200">
        <ele>22.0</ele>
        <time>2020-02-23T10:23:58Z</time>
      </trkpt>
      <trkpt lat="39.0254680" lon="1.5978770">
        <ele>22.0</ele>
        <time>2020-02-23T10:23:59Z</time>
      </trkpt>
      <trkpt lat="39.0254390" lon="1.5979340">
        <ele>22.1</ele>
        <time>2020-02-23T10:24:00Z</time>
      </trkpt>
      <trkpt lat="39.0254210" lon="1.5979800">
        <ele>22.1</ele>
        <time>2020-02-23T10:24:01Z</time>
      </trkpt>
      <trkpt lat="39.0254030" lon="1.5980240">
        <ele>22.1</ele>
        <time>2020-02-23T10:24:02Z</time>
      </trkpt>
      <trkpt lat="39.0253740" lon="1.5980640">
        <ele>22.1</ele>
        <time>2020-02-23T10:24:03Z</time>
      </trkpt>
      <trkpt lat="39.0253340" lon="1.5981040">
        <ele>22.1</ele>
        <time>2020-02-23T10:24:04Z</time>
      </trkpt>
      <trkpt lat="39.0253040" lon="1.5981550">
        <ele>22.1</ele>
        <time>2020-02-23T10:24:05Z</time>
      </trkpt>
      <trkpt lat="39.0252660" lon="1.5982000">
        <ele>22.1</ele>
        <time>2020-02-23T10:24:06Z</time>
      </trkpt>
      <trkpt lat="39.0252380" lon="1.5982390">
        <ele>22.1</ele>
        <time>2020-02-23T10:24:07Z</time>
      </trkpt>
      <trkpt lat="39.0252040" lon="1.5982710">
        <ele>22.2</ele>
        <time>2020-02-23T10:24:08Z</time>
      </trkpt>
      <trkpt lat="39.0251710" lon="1.5983010">
        <ele>22.2</ele>
        <time>2020-02-23T10:24:09Z</time>
      </trkpt>
      <trkpt lat="39.0251280" lon="1.5983410">
        <ele>22.2</ele>
        <time>2020-02-23T10:24:10Z</time>
      </trkpt>
      <trkpt lat="39.0250870" lon="1.5983790">
        <ele>22.2</ele>
        <time>2020-02-23T10:24:11Z</time>
      </trkpt>
      <trkpt lat="39.0250580" lon="1.5984200">
        <ele>22.2</ele>
        <time>2020-02-23T10:24:12Z</time>
      </trkpt>
      <trkpt lat="39.0250220" lon="1.5984630">
        <ele>22.2</ele>
        <time>2020-02-23T10:24:13Z</time>
      </trkpt>
      <trkpt lat="39.0249830" lon="1.5985010">
        <ele>22.2</ele>
        <time>2020-02-23T10:24:14Z</time>
      </trkpt>
      <trkpt lat="39.0249500" lon="1.5985280">
        <ele>22.2</ele>
        <time>2020-02-23T10:24:15Z</time>
      </trkpt>
      <trkpt lat="39.0249160" lon="1.5985480">
        <ele>22.2</ele>
        <time>2020-02-23T10:24:16Z</time>
      </trkpt>
      <trkpt lat="39.0248830" lon="1.5985750">
        <ele>22.2</ele>
        <time>2020-02-23T10:24:17Z</time>
      </trkpt>
      <trkpt lat="39.0248480" lon="1.5986060">
        <ele>22.2</ele>
        <time>2020-02-23T10:24:18Z</time>
      </trkpt>
      <trkpt lat="39.0248140" lon="1.5986330">
        <ele>22.2</ele>
        <time>2020-02-23T10:24:19Z</time>
      </trkpt>
      <trkpt lat="39.0247750" lon="1.5986660">
        <ele>22.2</ele>
        <time>2020-02-23T10:24:20Z</time>
      </trkpt>
      <trkpt lat="39.0247380" lon="1.5986910">
        <ele>21.7</ele>
        <time>2020-02-23T10:24:21Z</time>
      </trkpt>
      <trkpt lat="39.0247060" lon="1.5987280">
        <ele>21.2</ele>
        <time>2020-02-23T10:24:22Z</time>
      </trkpt>
      <trkpt lat="39.0246760" lon="1.5987740">
        <ele>20.8</ele>
        <time>2020-02-23T10:24:23Z</time>
      </trkpt>
      <trkpt lat="39.0246440" lon="1.5988330">
        <ele>20.2</ele>
        <time>2020-02-23T10:24:24Z</time>
      </trkpt>
      <trkpt lat="39.0246140" lon="1.5988910">
        <ele>19.7</ele>
        <time>2020-02-23T10:24:25Z</time>
      </trkpt>
      <trkpt lat="39.0245880" lon="1.5989500">
        <ele>19.2</ele>
        <time>2020-02-23T10:24:26Z</time>
      </trkpt>
      <trkpt lat="39.0245740" lon="1.5990140">
        <ele>19.2</ele>
        <time>2020-02-23T10:24:27Z</time>
      </trkpt>
      <trkpt lat="39.0245670" lon="1.5990830">
        <ele>19.2</ele>
        <time>2020-02-23T10:24:28Z</time>
      </trkpt>
      <trkpt lat="39.0245660" lon="1.5991440">
        <ele>19.2</ele>
        <time>2020-02-23T10:24:29Z</time>
      </trkpt>
      <trkpt lat="39.0245800" lon="1.5991990">
        <ele>19.2</ele>
        <time>2020-02-23T10:24:30Z</time>
      </trkpt>
      <trkpt lat="39.0245830" lon="1.5992500">
        <ele>19.2</ele>
        <time>2020-02-23T10:24:31Z</time>
      </trkpt>
      <trkpt lat="39.0245990" lon="1.5992900">
        <ele>19.3</ele>
        <time>2020-02-23T10:24:32Z</time>
      </trkpt>
      <trkpt lat="39.0246230" lon="1.5993230">
        <ele>19.3</ele>
        <time>2020-02-23T10:24:33Z</time>
      </trkpt>
      <trkpt lat="39.0246390" lon="1.5993520">
        <ele>19.3</ele>
        <time>2020-02-23T10:24:34Z</time>
      </trkpt>
      <trkpt lat="39.0246530" lon="1.5993870">
        <ele>19.3</ele>
        <time>2020-02-23T10:24:35Z</time>
      </trkpt>
      <trkpt lat="39.0246650" lon="1.5994220">
        <ele>19.3</ele>
        <time>2020-02-23T10:24:36Z</time>
      </trkpt>
      <trkpt lat="39.0246730" lon="1.5994630">
        <ele>19.3</ele>
        <time>2020-02-23T10:24:37Z</time>
      </trkpt>
      <trkpt lat="39.0246720" lon="1.5994740">
        <ele>19.3</ele>
        <time>2020-02-23T10:24:38Z</time>
      </trkpt>
      <trkpt lat="39.0246730" lon="1.5995160">
        <ele>19.3</ele>
        <time>2020-02-23T10:24:39Z</time>
      </trkpt>
      <trkpt lat="39.0246690" lon="1.5995300">
        <ele>19.3</ele>
        <time>2020-02-23T10:24:40Z</time>
      </trkpt>
      <trkpt lat="39.0246480" lon="1.5995620">
        <ele>19.3</ele>
        <time>2020-02-23T10:24:41Z</time>
      </trkpt>
      <trkpt lat="39.0246410" lon="1.5995730">
        <ele>19.3</ele>
        <time>2020-02-23T10:24:42Z</time>
      </trkpt>
      <trkpt lat="39.0246110" lon="1.5995870">
        <ele>19.3</ele>
        <time>2020-02-23T10:24:43Z</time>
      </trkpt>
      <trkpt lat="39.0246030" lon="1.5995890">
        <ele>19.3</ele>
        <time>2020-02-23T10:24:44Z</time>
      </trkpt>
      <trkpt lat="39.0245790" lon="1.5996070">
        <ele>19.3</ele>
        <time>2020-02-23T10:24:45Z</time>
      </trkpt>
      <trkpt lat="39.0245710" lon="1.5996160">
        <ele>19.3</ele>
        <time>2020-02-23T10:24:46Z</time>
      </trkpt>
      <trkpt lat="39.0245610" lon="1.5996250">
        <ele>19.2</ele>
        <time>2020-02-23T10:24:47Z</time>
      </trkpt>
      <trkpt lat="39.0245460" lon="1.5996380">
        <ele>19.2</ele>
        <time>2020-02-23T10:24:48Z</time>
      </trkpt>
      <trkpt lat="39.0245110" lon="1.5996500">
        <ele>19.2</ele>
        <time>2020-02-23T10:24:49Z</time>
      </trkpt>
      <trkpt lat="39.0245010" lon="1.5996560">
        <ele>19.1</ele>
        <time>2020-02-23T10:24:50Z</time>
      </trkpt>
      <trkpt lat="39.0244720" lon="1.5996810">
        <ele>19.1</ele>
        <time>2020-02-23T10:24:51Z</time>
      </trkpt>
      <trkpt lat="39.0244590" lon="1.5996850">
        <ele>19.1</ele>
        <time>2020-02-23T10:24:52Z</time>
      </trkpt>
      <trkpt lat="39.0244260" lon="1.5996980">
        <ele>19.0</ele>
        <time>2020-02-23T10:24:53Z</time>
      </trkpt>
      <trkpt lat="39.0244110" lon="1.5996990">
        <ele>19.0</ele>
        <time>2020-02-23T10:24:54Z</time>
      </trkpt>
      <trkpt lat="39.0243810" lon="1.5997160">
        <ele>18.9</ele>
        <time>2020-02-23T10:24:55Z</time>
      </trkpt>
      <trkpt lat="39.0243590" lon="1.5997410">
        <ele>18.8</ele>
        <time>2020-02-23T10:24:56Z</time>
      </trkpt>
      <trkpt lat="39.0243400" lon="1.5997670">
        <ele>18.7</ele>
        <time>2020-02-23T10:24:57Z</time>
      </trkpt>
      <trkpt lat="39.0243210" lon="1.5998020">
        <ele>18.6</ele>
        <time>2020-02-23T10:24:58Z</time>
      </trkpt>
      <trkpt lat="39.0243150" lon="1.5998160">
        <ele>18.6</ele>
        <time>2020-02-23T10:24:59Z</time>
      </trkpt>
      <trkpt lat="39.0243030" lon="1.5998610">
        <ele>18.5</ele>
        <time>2020-02-23T10:25:00Z</time>
      </trkpt>
      <trkpt lat="39.0243000" lon="1.5998760">
        <ele>18.5</ele>
        <time>2020-02-23T10:25:01Z</time>
      </trkpt>
      <trkpt lat="39.0242860" lon="1.5999150">
        <ele>18.4</ele>
        <time>2020-02-23T10:25:02Z</time>
      </trkpt>
      <trkpt lat="39.0242790" lon="1.5999260">
        <ele>18.4</ele>
        <time>2020-02-23T10:25:03Z</time>
      </trkpt>
      <trkpt lat="39.0242650" lon="1.5999610">
        <ele>18.2</ele>
        <time>2020-02-23T10:25:04Z</time>
      </trkpt>
      <trkpt lat="39.0242460" lon="1.5999930">
        <ele>18.1</ele>
        <time>2020-02-23T10:25:05Z</time>
      </trkpt>
      <trkpt lat="39.0242420" lon="1.6000030">
        <ele>18.1</ele>
        <time>2020-02-23T10:25:06Z</time>
      </trkpt>
      <trkpt lat="39.0242330" lon="1.6000350">
        <ele>18.0</ele>
        <time>2020-02-23T10:25:07Z</time>
      </trkpt>
      <trkpt lat="39.0242270" lon="1.6000460">
        <ele>17.9</ele>
        <time>2020-02-23T10:25:08Z</time>
      </trkpt>
      <trkpt lat="39.0242100" lon="1.6000890">
        <ele>17.7</ele>
        <time>2020-02-23T10:25:09Z</time>
      </trkpt>
      <trkpt lat="39.0242020" lon="1.6001330">
        <ele>17.6</ele>
        <time>2020-02-23T10:25:10Z</time>
      </trkpt>
      <trkpt lat="39.0241940" lon="1.6001770">
        <ele>17.4</ele>
        <time>2020-02-23T10:25:11Z</time>
      </trkpt>
      <trkpt lat="39.0241900" lon="1.6001910">
        <ele>17.3</ele>
        <time>2020-02-23T10:25:12Z</time>
      </trkpt>
      <trkpt lat="39.0241820" lon="1.6002260">
        <ele>17.1</ele>
        <time>2020-02-23T10:25:13Z</time>
      </trkpt>
      <trkpt lat="39.0241750" lon="1.6002760">
        <ele>16.8</ele>
        <time>2020-02-23T10:25:14Z</time>
      </trkpt>
      <trkpt lat="39.0241760" lon="1.6002980">
        <ele>16.7</ele>
        <time>2020-02-23T10:25:15Z</time>
      </trkpt>
      <trkpt lat="39.0241720" lon="1.6003270">
        <ele>16.5</ele>
        <time>2020-02-23T10:25:16Z</time>
      </trkpt>
      <trkpt lat="39.0241720" lon="1.6003430">
        <ele>16.0</ele>
        <time>2020-02-23T10:25:17Z</time>
      </trkpt>
      <trkpt lat="39.0241810" lon="1.6003830">
        <ele>16.1</ele>
        <time>2020-02-23T10:25:18Z</time>
      </trkpt>
      <trkpt lat="39.0241850" lon="1.6004000">
        <ele>16.2</ele>
        <time>2020-02-23T10:25:19Z</time>
      </trkpt>
      <trkpt lat="39.0241990" lon="1.6004340">
        <ele>16.3</ele>
        <time>2020-02-23T10:25:20Z</time>
      </trkpt>
      <trkpt lat="39.0242100" lon="1.6004750">
        <ele>16.4</ele>
        <time>2020-02-23T10:25:21Z</time>
      </trkpt>
      <trkpt lat="39.0242180" lon="1.6005130">
        <ele>16.5</ele>
        <time>2020-02-23T10:25:22Z</time>
      </trkpt>
      <trkpt lat="39.0242350" lon="1.6005600">
        <ele>16.6</ele>
        <time>2020-02-23T10:25:23Z</time>
      </trkpt>
      <trkpt lat="39.0242470" lon="1.6006090">
        <ele>16.7</ele>
        <time>2020-02-23T10:25:24Z</time>
      </trkpt>
      <trkpt lat="39.0242610" lon="1.6006590">
        <ele>16.8</ele>
        <time>2020-02-23T10:25:25Z</time>
      </trkpt>
      <trkpt lat="39.0242760" lon="1.6007030">
        <ele>16.9</ele>
        <time>2020-02-23T10:25:26Z</time>
      </trkpt>
      <trkpt lat="39.0242940" lon="1.6007530">
        <ele>16.9</ele>
        <time>2020-02-23T10:25:27Z</time>
      </trkpt>
      <trkpt lat="39.0243170" lon="1.6008170">
        <ele>17.0</ele>
        <time>2020-02-23T10:25:28Z</time>
      </trkpt>
      <trkpt lat="39.0243390" lon="1.6009110">
        <ele>17.0</ele>
        <time>2020-02-23T10:25:29Z</time>
      </trkpt>
      <trkpt lat="39.0243700" lon="1.6009970">
        <ele>17.0</ele>
        <time>2020-02-23T10:25:30Z</time>
      </trkpt>
      <trkpt lat="39.0244030" lon="1.6010840">
        <ele>17.0</ele>
        <time>2020-02-23T10:25:31Z</time>
      </trkpt>
      <trkpt lat="39.0244400" lon="1.6011610">
        <ele>17.0</ele>
        <time>2020-02-23T10:25:32Z</time>
      </trkpt>
      <trkpt lat="39.0244700" lon="1.6012290">
        <ele>17.0</ele>
        <time>2020-02-23T10:25:33Z</time>
      </trkpt>
      <trkpt lat="39.0245200" lon="1.6012880">
        <ele>17.0</ele>
        <time>2020-02-23T10:25:34Z</time>
      </trkpt>
      <trkpt lat="39.0245810" lon="1.6013380">
        <ele>17.1</ele>
        <time>2020-02-23T10:25:35Z</time>
      </trkpt>
      <trkpt lat="39.0246500" lon="1.6013710">
        <ele>17.1</ele>
        <time>2020-02-23T10:25:36Z</time>
      </trkpt>
      <trkpt lat="39.0247180" lon="1.6013970">
        <ele>17.1</ele>
        <time>2020-02-23T10:25:37Z</time>
      </trkpt>
      <trkpt lat="39.0247910" lon="1.6014070">
        <ele>17.1</ele>
        <time>2020-02-23T10:25:38Z</time>
      </trkpt>
      <trkpt lat="39.0248620" lon="1.6013940">
        <ele>17.2</ele>
        <time>2020-02-23T10:25:39Z</time>
      </trkpt>
      <trkpt lat="39.0249200" lon="1.6013790">
        <ele>17.2</ele>
        <time>2020-02-23T10:25:40Z</time>
      </trkpt>
      <trkpt lat="39.0249920" lon="1.6013580">
        <ele>17.2</ele>
        <time>2020-02-23T10:25:41Z</time>
      </trkpt>
      <trkpt lat="39.0250670" lon="1.6013480">
        <ele>17.2</ele>
        <time>2020-02-23T10:25:42Z</time>
      </trkpt>
      <trkpt lat="39.0251240" lon="1.6013550">
        <ele>17.3</ele>
        <time>2020-02-23T10:25:43Z</time>
      </trkpt>
      <trkpt lat="39.0251920" lon="1.6013870">
        <ele>17.3</ele>
        <time>2020-02-23T10:25:44Z</time>
      </trkpt>
      <trkpt lat="39.0252630" lon="1.6014340">
        <ele>17.3</ele>
        <time>2020-02-23T10:25:45Z</time>
      </trkpt>
      <trkpt lat="39.0253300" lon="1.6014900">
        <ele>17.3</ele>
        <time>2020-02-23T10:25:46Z</time>
      </trkpt>
      <trkpt lat="39.0253960" lon="1.6015420">
        <ele>17.4</ele>
        <time>2020-02-23T10:25:47Z</time>
      </trkpt>
      <trkpt lat="39.0254620" lon="1.6015930">
        <ele>17.4</ele>
        <time>2020-02-23T10:25:48Z</time>
      </trkpt>
      <trkpt lat="39.0255250" lon="1.6016570">
        <ele>17.4</ele>
        <time>2020-02-23T10:25:49Z</time>
      </trkpt>
      <trkpt lat="39.0255870" lon="1.6017180">
        <ele>17.5</ele>
        <time>2020-02-23T10:25:50Z</time>
      </trkpt>
      <trkpt lat="39.0256550" lon="1.6017710">
        <ele>17.5</ele>
        <time>2020-02-23T10:25:51Z</time>
      </trkpt>
      <trkpt lat="39.0257180" lon="1.6018270">
        <ele>17.5</ele>
        <time>2020-02-23T10:25:52Z</time>
      </trkpt>
      <trkpt lat="39.0257780" lon="1.6018840">
        <ele>17.5</ele>
        <time>2020-02-23T10:25:53Z</time>
      </trkpt>
      <trkpt lat="39.0258360" lon="1.6019350">
        <ele>17.6</ele>
        <time>2020-02-23T10:25:54Z</time>
      </trkpt>
      <trkpt lat="39.0258930" lon="1.6019920">
        <ele>17.6</ele>
        <time>2020-02-23T10:25:55Z</time>
      </trkpt>
      <trkpt lat="39.0259490" lon="1.6020510">
        <ele>17.6</ele>
        <time>2020-02-23T10:25:56Z</time>
      </trkpt>
      <trkpt lat="39.0260090" lon="1.6021040">
        <ele>17.7</ele>
        <time>2020-02-23T10:25:57Z</time>
      </trkpt>
      <trkpt lat="39.0260680" lon="1.6021470">
        <ele>17.7</ele>
        <time>2020-02-23T10:25:58Z</time>
      </trkpt>
      <trkpt lat="39.0261280" lon="1.6021790">
        <ele>17.9</ele>
        <time>2020-02-23T10:25:59Z</time>
      </trkpt>
      <trkpt lat="39.0261840" lon="1.6022210">
        <ele>18.0</ele>
        <time>2020-02-23T10:26:00Z</time>
      </trkpt>
      <trkpt lat="39.0262440" lon="1.6022530">
        <ele>18.2</ele>
        <time>2020-02-23T10:26:01Z</time>
      </trkpt>
      <trkpt lat="39.0263070" lon="1.6022690">
        <ele>18.4</ele>
        <time>2020-02-23T10:26:02Z</time>
      </trkpt>
      <trkpt lat="39.0263710" lon="1.6022480">
        <ele>18.6</ele>
        <time>2020-02-23T10:26:03Z</time>
      </trkpt>
      <trkpt lat="39.0264320" lon="1.6022200">
        <ele>18.8</ele>
        <time>2020-02-23T10:26:04Z</time>
      </trkpt>
      <trkpt lat="39.0264950" lon="1.6021980">
        <ele>18.9</ele>
        <time>2020-02-23T10:26:05Z</time>
      </trkpt>
      <trkpt lat="39.0265560" lon="1.6021700">
        <ele>19.1</ele>
        <time>2020-02-23T10:26:06Z</time>
      </trkpt>
      <trkpt lat="39.0266090" lon="1.6021330">
        <ele>19.3</ele>
        <time>2020-02-23T10:26:07Z</time>
      </trkpt>
      <trkpt lat="39.0266560" lon="1.6020950">
        <ele>19.5</ele>
        <time>2020-02-23T10:26:08Z</time>
      </trkpt>
      <trkpt lat="39.0267050" lon="1.6020620">
        <ele>19.7</ele>
        <time>2020-02-23T10:26:09Z</time>
      </trkpt>
      <trkpt lat="39.0267470" lon="1.6020220">
        <ele>19.9</ele>
        <time>2020-02-23T10:26:10Z</time>
      </trkpt>
      <trkpt lat="39.0267810" lon="1.6019730">
        <ele>20.0</ele>
        <time>2020-02-23T10:26:11Z</time>
      </trkpt>
      <trkpt lat="39.0268160" lon="1.6019210">
        <ele>20.2</ele>
        <time>2020-02-23T10:26:12Z</time>
      </trkpt>
      <trkpt lat="39.0268520" lon="1.6018710">
        <ele>20.4</ele>
        <time>2020-02-23T10:26:13Z</time>
      </trkpt>
      <trkpt lat="39.0268830" lon="1.6018210">
        <ele>20.6</ele>
        <time>2020-02-23T10:26:14Z</time>
      </trkpt>
      <trkpt lat="39.0269110" lon="1.6017730">
        <ele>20.8</ele>
        <time>2020-02-23T10:26:15Z</time>
      </trkpt>
      <trkpt lat="39.0269340" lon="1.6017320">
        <ele>21.0</ele>
        <time>2020-02-23T10:26:16Z</time>
      </trkpt>
      <trkpt lat="39.0269540" lon="1.6016870">
        <ele>21.2</ele>
        <time>2020-02-23T10:26:17Z</time>
      </trkpt>
      <trkpt lat="39.0269870" lon="1.6016490">
        <ele>21.4</ele>
        <time>2020-02-23T10:26:18Z</time>
      </trkpt>
      <trkpt lat="39.0270300" lon="1.6016410">
        <ele>21.7</ele>
        <time>2020-02-23T10:26:19Z</time>
      </trkpt>
      <trkpt lat="39.0270770" lon="1.6016510">
        <ele>21.9</ele>
        <time>2020-02-23T10:26:20Z</time>
      </trkpt>
      <trkpt lat="39.0271200" lon="1.6016790">
        <ele>22.2</ele>
        <time>2020-02-23T10:26:21Z</time>
      </trkpt>
      <trkpt lat="39.0271520" lon="1.6017240">
        <ele>22.5</ele>
        <time>2020-02-23T10:26:22Z</time>
      </trkpt>
      <trkpt lat="39.0271900" lon="1.6017530">
        <ele>22.7</ele>
        <time>2020-02-23T10:26:23Z</time>
      </trkpt>
      <trkpt lat="39.0272190" lon="1.6017920">
        <ele>23.0</ele>
        <time>2020-02-23T10:26:24Z</time>
      </trkpt>
      <trkpt lat="39.0272450" lon="1.6018320">
        <ele>23.2</ele>
        <time>2020-02-23T10:26:25Z</time>
      </trkpt>
      <trkpt lat="39.0272660" lon="1.6018710">
        <ele>23.5</ele>
        <time>2020-02-23T10:26:26Z</time>
      </trkpt>
      <trkpt lat="39.0272860" lon="1.6019160">
        <ele>23.8</ele>
        <time>2020-02-23T10:26:27Z</time>
      </trkpt>
      <trkpt lat="39.0273110" lon="1.6019610">
        <ele>24.1</ele>
        <time>2020-02-23T10:26:28Z</time>
      </trkpt>
      <trkpt lat="39.0273320" lon="1.6020070">
        <ele>24.3</ele>
        <time>2020-02-23T10:26:29Z</time>
      </trkpt>
      <trkpt lat="39.0273590" lon="1.6020490">
        <ele>24.7</ele>
        <time>2020-02-23T10:26:30Z</time>
      </trkpt>
      <trkpt lat="39.0273870" lon="1.6020910">
        <ele>25.0</ele>
        <time>2020-02-23T10:26:31Z</time>
      </trkpt>
      <trkpt lat="39.0274040" lon="1.6021350">
        <ele>25.3</ele>
        <time>2020-02-23T10:26:32Z</time>
      </trkpt>
      <trkpt lat="39.0274160" lon="1.6021800">
        <ele>25.6</ele>
        <time>2020-02-23T10:26:33Z</time>
      </trkpt>
      <trkpt lat="39.0274270" lon="1.6022310">
        <ele>25.9</ele>
        <time>2020-02-23T10:26:34Z</time>
      </trkpt>
      <trkpt lat="39.0274400" lon="1.6022800">
        <ele>26.2</ele>
        <time>2020-02-23T10:26:35Z</time>
      </trkpt>
      <trkpt lat="39.0274410" lon="1.6023270">
        <ele>26.4</ele>
        <time>2020-02-23T10:26:36Z</time>
      </trkpt>
      <trkpt lat="39.0274520" lon="1.6023710">
        <ele>26.6</ele>
        <time>2020-02-23T10:26:37Z</time>
      </trkpt>
      <trkpt lat="39.0274600" lon="1.6024180">
        <ele>26.9</ele>
        <time>2020-02-23T10:26:38Z</time>
      </trkpt>
      <trkpt lat="39.0274710" lon="1.6024700">
        <ele>27.1</ele>
        <time>2020-02-23T10:26:39Z</time>
      </trkpt>
      <trkpt lat="39.0274770" lon="1.6025170">
        <ele>27.3</ele>
        <time>2020-02-23T10:26:40Z</time>
      </trkpt>
      <trkpt lat="39.0274880" lon="1.6025620">
        <ele>27.5</ele>
        <time>2020-02-23T10:26:41Z</time>
      </trkpt>
      <trkpt lat="39.0274990" lon="1.6026080">
        <ele>27.7</ele>
        <time>2020-02-23T10:26:42Z</time>
      </trkpt>
      <trkpt lat="39.0275080" lon="1.6026620">
        <ele>27.9</ele>
        <time>2020-02-23T10:26:43Z</time>
      </trkpt>
      <trkpt lat="39.0275230" lon="1.6027180">
        <ele>28.2</ele>
        <time>2020-02-23T10:26:44Z</time>
      </trkpt>
      <trkpt lat="39.0275380" lon="1.6027730">
        <ele>28.6</ele>
        <time>2020-02-23T10:26:45Z</time>
      </trkpt>
      <trkpt lat="39.0275420" lon="1.6028290">
        <ele>28.9</ele>
        <time>2020-02-23T10:26:46Z</time>
      </trkpt>
      <trkpt lat="39.0275240" lon="1.6028910">
        <ele>29.4</ele>
        <time>2020-02-23T10:26:47Z</time>
      </trkpt>
      <trkpt lat="39.0275250" lon="1.6029450">
        <ele>29.7</ele>
        <time>2020-02-23T10:26:48Z</time>
      </trkpt>
      <trkpt lat="39.0275440" lon="1.6029940">
        <ele>30.1</ele>
        <time>2020-02-23T10:26:49Z</time>
      </trkpt>
      <trkpt lat="39.0275700" lon="1.6030440">
        <ele>30.6</ele>
        <time>2020-02-23T10:26:50Z</time>
      </trkpt>
      <trkpt lat="39.0275850" lon="1.6031010">
        <ele>30.2</ele>
        <time>2020-02-23T10:26:51Z</time>
      </trkpt>
      <trkpt lat="39.0276080" lon="1.6031520">
        <ele>30.0</ele>
        <time>2020-02-23T10:26:52Z</time>
      </trkpt>
      <trkpt lat="39.0276280" lon="1.6032040">
        <ele>29.8</ele>
        <time>2020-02-23T10:26:53Z</time>
      </trkpt>
      <trkpt lat="39.0276500" lon="1.6032570">
        <ele>29.5</ele>
        <time>2020-02-23T10:26:54Z</time>
      </trkpt>
      <trkpt lat="39.0276740" lon="1.6033150">
        <ele>29.3</ele>
        <time>2020-02-23T10:26:55Z</time>
      </trkpt>
      <trkpt lat="39.0277020" lon="1.6033670">
        <ele>29.1</ele>
        <time>2020-02-23T10:26:56Z</time>
      </trkpt>
      <trkpt lat="39.0277270" lon="1.6034250">
        <ele>28.5</ele>
        <time>2020-02-23T10:26:57Z</time>
      </trkpt>
      <trkpt lat="39.0277430" lon="1.6034850">
        <ele>28.1</ele>
        <time>2020-02-23T10:26:58Z</time>
      </trkpt>
      <trkpt lat="39.0277640" lon="1.6035430">
        <ele>27.8</ele>
        <time>2020-02-23T10:26:59Z</time>
      </trkpt>
      <trkpt lat="39.0277890" lon="1.6035910">
        <ele>27.5</ele>
        <time>2020-02-23T10:27:00Z</time>
      </trkpt>
      <trkpt lat="39.0278050" lon="1.6036450">
        <ele>27.2</ele>
        <time>2020-02-23T10:27:01Z</time>
      </trkpt>
      <trkpt lat="39.0278340" lon="1.6036990">
        <ele>26.8</ele>
        <time>2020-02-23T10:27:02Z</time>
      </trkpt>
      <trkpt lat="39.0278510" lon="1.6037660">
        <ele>26.4</ele>
        <time>2020-02-23T10:27:03Z</time>
      </trkpt>
      <trkpt lat="39.0278670" lon="1.6038360">
        <ele>26.0</ele>
        <time>2020-02-23T10:27:04Z</time>
      </trkpt>
      <trkpt lat="39.0278800" lon="1.6039050">
        <ele>25.6</ele>
        <time>2020-02-23T10:27:05Z</time>
      </trkpt>
      <trkpt lat="39.0279040" lon="1.6039670">
        <ele>25.2</ele>
        <time>2020-02-23T10:27:06Z</time>
      </trkpt>
      <trkpt lat="39.0279310" lon="1.6040210">
        <ele>24.8</ele>
        <time>2020-02-23T10:27:07Z</time>
      </trkpt>
      <trkpt lat="39.0279580" lon="1.6040750">
        <ele>24.7</ele>
        <time>2020-02-23T10:27:08Z</time>
      </trkpt>
      <trkpt lat="39.0279950" lon="1.6041150">
        <ele>24.6</ele>
        <time>2020-02-23T10:27:09Z</time>
      </trkpt>
      <trkpt lat="39.0280380" lon="1.6041410">
        <ele>24.6</ele>
        <time>2020-02-23T10:27:10Z</time>
      </trkpt>
      <trkpt lat="39.0280800" lon="1.6041790">
        <ele>24.5</ele>
        <time>2020-02-23T10:27:11Z</time>
      </trkpt>
      <trkpt lat="39.0281270" lon="1.6042050">
        <ele>24.4</ele>
        <time>2020-02-23T10:27:12Z</time>
      </trkpt>
      <trkpt lat="39.0281750" lon="1.6042160">
        <ele>24.4</ele>
        <time>2020-02-23T10:27:13Z</time>
      </trkpt>
      <trkpt lat="39.0282270" lon="1.6042270">
        <ele>24.3</ele>
        <time>2020-02-23T10:27:14Z</time>
      </trkpt>
      <trkpt lat="39.0282760" lon="1.6042560">
        <ele>24.2</ele>
        <time>2020-02-23T10:27:15Z</time>
      </trkpt>
      <trkpt lat="39.0283290" lon="1.6042850">
        <ele>24.2</ele>
        <time>2020-02-23T10:27:16Z</time>
      </trkpt>
      <trkpt lat="39.0283810" lon="1.6043060">
        <ele>24.1</ele>
        <time>2020-02-23T10:27:17Z</time>
      </trkpt>
      <trkpt lat="39.0284290" lon="1.6043310">
        <ele>24.1</ele>
        <time>2020-02-23T10:27:18Z</time>
      </trkpt>
      <trkpt lat="39.0284740" lon="1.6043570">
        <ele>24.0</ele>
        <time>2020-02-23T10:27:19Z</time>
      </trkpt>
      <trkpt lat="39.0285160" lon="1.6043770">
        <ele>23.9</ele>
        <time>2020-02-23T10:27:20Z</time>
      </trkpt>
      <trkpt lat="39.0285600" lon="1.6043970">
        <ele>23.9</ele>
        <time>2020-02-23T10:27:21Z</time>
      </trkpt>
      <trkpt lat="39.0286050" lon="1.6044280">
        <ele>23.8</ele>
        <time>2020-02-23T10:27:22Z</time>
      </trkpt>
      <trkpt lat="39.0286550" lon="1.6044550">
        <ele>23.7</ele>
        <time>2020-02-23T10:27:23Z</time>
      </trkpt>
      <trkpt lat="39.0287060" lon="1.6044810">
        <ele>23.6</ele>
        <time>2020-02-23T10:27:24Z</time>
      </trkpt>
      <trkpt lat="39.0287550" lon="1.6045030">
        <ele>23.6</ele>
        <time>2020-02-23T10:27:25Z</time>
      </trkpt>
      <trkpt lat="39.0288040" lon="1.6045190">
        <ele>23.5</ele>
        <time>2020-02-23T10:27:26Z</time>
      </trkpt>
      <trkpt lat="39.0288530" lon="1.6045380">
        <ele>23.4</ele>
        <time>2020-02-23T10:27:27Z</time>
      </trkpt>
      <trkpt lat="39.0288990" lon="1.6045660">
        <ele>23.3</ele>
        <time>2020-02-23T10:27:28Z</time>
      </trkpt>
      <trkpt lat="39.0289420" lon="1.6045830">
        <ele>23.2</ele>
        <time>2020-02-23T10:27:29Z</time>
      </trkpt>
      <trkpt lat="39.0289840" lon="1.6046060">
        <ele>23.2</ele>
        <time>2020-02-23T10:27:30Z</time>
      </trkpt>
      <trkpt lat="39.0290300" lon="1.6046330">
        <ele>23.1</ele>
        <time>2020-02-23T10:27:31Z</time>
      </trkpt>
      <trkpt lat="39.0290770" lon="1.6046690">
        <ele>23.0</ele>
        <time>2020-02-23T10:27:32Z</time>
      </trkpt>
      <trkpt lat="39.0291300" lon="1.6046930">
        <ele>22.9</ele>
        <time>2020-02-23T10:27:33Z</time>
      </trkpt>
      <trkpt lat="39.0291830" lon="1.6047250">
        <ele>22.8</ele>
        <time>2020-02-23T10:27:34Z</time>
      </trkpt>
      <trkpt lat="39.0292360" lon="1.6047560">
        <ele>22.7</ele>
        <time>2020-02-23T10:27:35Z</time>
      </trkpt>
      <trkpt lat="39.0292900" lon="1.6047780">
        <ele>22.7</ele>
        <time>2020-02-23T10:27:36Z</time>
      </trkpt>
      <trkpt lat="39.0293420" lon="1.6047990">
        <ele>22.6</ele>
        <time>2020-02-23T10:27:37Z</time>
      </trkpt>
      <trkpt lat="39.0293920" lon="1.6048200">
        <ele>22.5</ele>
        <time>2020-02-23T10:27:38Z</time>
      </trkpt>
      <trkpt lat="39.0294380" lon="1.6048490">
        <ele>22.5</ele>
        <time>2020-02-23T10:27:39Z</time>
      </trkpt>
      <trkpt lat="39.0294830" lon="1.6048780">
        <ele>22.5</ele>
        <time>2020-02-23T10:27:40Z</time>
      </trkpt>
      <trkpt lat="39.0295300" lon="1.6049060">
        <ele>22.4</ele>
        <time>2020-02-23T10:27:41Z</time>
      </trkpt>
      <trkpt lat="39.0295780" lon="1.6049300">
        <ele>22.4</ele>
        <time>2020-02-23T10:27:42Z</time>
      </trkpt>
      <trkpt lat="39.0296240" lon="1.6049530">
        <ele>22.4</ele>
        <time>2020-02-23T10:27:43Z</time>
      </trkpt>
      <trkpt lat="39.0296680" lon="1.6049690">
        <ele>22.4</ele>
        <time>2020-02-23T10:27:44Z</time>
      </trkpt>
      <trkpt lat="39.0297110" lon="1.6049860">
        <ele>22.4</ele>
        <time>2020-02-23T10:27:45Z</time>
      </trkpt>
      <trkpt lat="39.0297530" lon="1.6050120">
        <ele>22.4</ele>
        <time>2020-02-23T10:27:46Z</time>
      </trkpt>
      <trkpt lat="39.0297960" lon="1.6050430">
        <ele>22.5</ele>
        <time>2020-02-23T10:27:47Z</time>
      </trkpt>
      <trkpt lat="39.0298430" lon="1.6050690">
        <ele>22.5</ele>
        <time>2020-02-23T10:27:48Z</time>
      </trkpt>
      <trkpt lat="39.0298810" lon="1.6051070">
        <ele>22.5</ele>
        <time>2020-02-23T10:27:49Z</time>
      </trkpt>
      <trkpt lat="39.0299150" lon="1.6051260">
        <ele>22.6</ele>
        <time>2020-02-23T10:27:50Z</time>
      </trkpt>
      <trkpt lat="39.0299520" lon="1.6051380">
        <ele>22.7</ele>
        <time>2020-02-23T10:27:51Z</time>
      </trkpt>
      <trkpt lat="39.0299860" lon="1.6051640">
        <ele>22.8</ele>
        <time>2020-02-23T10:27:52Z</time>
      </trkpt>
      <trkpt lat="39.0300210" lon="1.6051860">
        <ele>22.8</ele>
        <time>2020-02-23T10:27:53Z</time>
      </trkpt>
      <trkpt lat="39.0300560" lon="1.6051990">
        <ele>22.9</ele>
        <time>2020-02-23T10:27:54Z</time>
      </trkpt>
      <trkpt lat="39.0301020" lon="1.6052290">
        <ele>23.0</ele>
        <time>2020-02-23T10:27:55Z</time>
      </trkpt>
      <trkpt lat="39.0301340" lon="1.6052670">
        <ele>23.4</ele>
        <time>2020-02-23T10:27:56Z</time>
      </trkpt>
      <trkpt lat="39.0301560" lon="1.6053160">
        <ele>23.5</ele>
        <time>2020-02-23T10:27:57Z</time>
      </trkpt>
      <trkpt lat="39.0301790" lon="1.6053670">
        <ele>23.5</ele>
        <time>2020-02-23T10:27:58Z</time>
      </trkpt>
      <trkpt lat="39.0302000" lon="1.6054220">
        <ele>23.5</ele>
        <time>2020-02-23T10:27:59Z</time>
      </trkpt>
      <trkpt lat="39.0302150" lon="1.6054770">
        <ele>23.4</ele>
        <time>2020-02-23T10:28:00Z</time>
      </trkpt>
      <trkpt lat="39.0302330" lon="1.6055310">
        <ele>23.4</ele>
        <time>2020-02-23T10:28:01Z</time>
      </trkpt>
      <trkpt lat="39.0302590" lon="1.6055860">
        <ele>23.3</ele>
        <time>2020-02-23T10:28:02Z</time>
      </trkpt>
      <trkpt lat="39.0302960" lon="1.6056460">
        <ele>23.2</ele>
        <time>2020-02-23T10:28:03Z</time>
      </trkpt>
      <trkpt lat="39.0303200" lon="1.6057060">
        <ele>23.2</ele>
        <time>2020-02-23T10:28:04Z</time>
      </trkpt>
      <trkpt lat="39.0303360" lon="1.6057650">
        <ele>23.1</ele>
        <time>2020-02-23T10:28:05Z</time>
      </trkpt>
      <trkpt lat="39.0303630" lon="1.6058260">
        <ele>22.9</ele>
        <time>2020-02-23T10:28:06Z</time>
      </trkpt>
      <trkpt lat="39.0303880" lon="1.6058850">
        <ele>22.7</ele>
        <time>2020-02-23T10:28:07Z</time>
      </trkpt>
      <trkpt lat="39.0304060" lon="1.6059450">
        <ele>22.6</ele>
        <time>2020-02-23T10:28:08Z</time>
      </trkpt>
      <trkpt lat="39.0304170" lon="1.6060020">
        <ele>22.4</ele>
        <time>2020-02-23T10:28:09Z</time>
      </trkpt>
      <trkpt lat="39.0304410" lon="1.6060550">
        <ele>22.2</ele>
        <time>2020-02-23T10:28:10Z</time>
      </trkpt>
      <trkpt lat="39.0304640" lon="1.6061090">
        <ele>22.0</ele>
        <time>2020-02-23T10:28:11Z</time>
      </trkpt>
      <trkpt lat="39.0304840" lon="1.6061710">
        <ele>21.8</ele>
        <time>2020-02-23T10:28:12Z</time>
      </trkpt>
      <trkpt lat="39.0304990" lon="1.6062360">
        <ele>21.5</ele>
        <time>2020-02-23T10:28:13Z</time>
      </trkpt>
      <trkpt lat="39.0305090" lon="1.6063040">
        <ele>21.3</ele>
        <time>2020-02-23T10:28:14Z</time>
      </trkpt>
      <trkpt lat="39.0305240" lon="1.6063700">
        <ele>21.0</ele>
        <time>2020-02-23T10:28:15Z</time>
      </trkpt>
      <trkpt lat="39.0305380" lon="1.6064320">
        <ele>20.7</ele>
        <time>2020-02-23T10:28:16Z</time>
      </trkpt>
      <trkpt lat="39.0305560" lon="1.6064960">
        <ele>20.4</ele>
        <time>2020-02-23T10:28:17Z</time>
      </trkpt>
      <trkpt lat="39.0305680" lon="1.6065570">
        <ele>20.1</ele>
        <time>2020-02-23T10:28:18Z</time>
      </trkpt>
      <trkpt lat="39.0305750" lon="1.6066140">
        <ele>19.8</ele>
        <time>2020-02-23T10:28:19Z</time>
      </trkpt>
      <trkpt lat="39.0305910" lon="1.6066580">
        <ele>19.6</ele>
        <time>2020-02-23T10:28:20Z</time>
      </trkpt>
      <trkpt lat="39.0306280" lon="1.6066690">
        <ele>19.9</ele>
        <time>2020-02-23T10:28:21Z</time>
      </trkpt>
      <trkpt lat="39.0306440" lon="1.6066620">
        <ele>20.0</ele>
        <time>2020-02-23T10:28:22Z</time>
      </trkpt>
      <trkpt lat="39.0306750" lon="1.6066530">
        <ele>20.1</ele>
        <time>2020-02-23T10:28:23Z</time>
      </trkpt>
      <trkpt lat="39.0307040" lon="1.6066560">
        <ele>20.3</ele>
        <time>2020-02-23T10:28:24Z</time>
      </trkpt>
      <trkpt lat="39.0307350" lon="1.6066720">
        <ele>20.5</ele>
        <time>2020-02-23T10:28:25Z</time>
      </trkpt>
      <trkpt lat="39.0307690" lon="1.6066860">
        <ele>20.7</ele>
        <time>2020-02-23T10:28:26Z</time>
      </trkpt>
      <trkpt lat="39.0308000" lon="1.6066900">
        <ele>20.8</ele>
        <time>2020-02-23T10:28:27Z</time>
      </trkpt>
      <trkpt lat="39.0308370" lon="1.6066990">
        <ele>21.0</ele>
        <time>2020-02-23T10:28:28Z</time>
      </trkpt>
      <trkpt lat="39.0308470" lon="1.6066980">
        <ele>21.1</ele>
        <time>2020-02-23T10:28:29Z</time>
      </trkpt>
      <trkpt lat="39.0308600" lon="1.6067080">
        <ele>21.2</ele>
        <time>2020-02-23T10:28:30Z</time>
      </trkpt>
      <trkpt lat="39.0308770" lon="1.6067200">
        <ele>21.3</ele>
        <time>2020-02-23T10:28:31Z</time>
      </trkpt>
      <trkpt lat="39.0309050" lon="1.6067230">
        <ele>21.3</ele>
        <time>2020-02-23T10:28:32Z</time>
      </trkpt>
      <trkpt lat="39.0309400" lon="1.6067220">
        <ele>21.3</ele>
        <time>2020-02-23T10:28:33Z</time>
      </trkpt>
      <trkpt lat="39.0309720" lon="1.6067000">
        <ele>21.3</ele>
        <time>2020-02-23T10:28:34Z</time>
      </trkpt>
      <trkpt lat="39.0309970" lon="1.6066750">
        <ele>21.2</ele>
        <time>2020-02-23T10:28:35Z</time>
      </trkpt>
      <trkpt lat="39.0310260" lon="1.6066530">
        <ele>21.1</ele>
        <time>2020-02-23T10:28:36Z</time>
      </trkpt>
      <trkpt lat="39.0310520" lon="1.6066310">
        <ele>21.1</ele>
        <time>2020-02-23T10:28:37Z</time>
      </trkpt>
      <trkpt lat="39.0310700" lon="1.6066000">
        <ele>21.0</ele>
        <time>2020-02-23T10:28:38Z</time>
      </trkpt>
      <trkpt lat="39.0310900" lon="1.6065710">
        <ele>20.8</ele>
        <time>2020-02-23T10:28:39Z</time>
      </trkpt>
      <trkpt lat="39.0311080" lon="1.6065380">
        <ele>20.8</ele>
        <time>2020-02-23T10:28:40Z</time>
      </trkpt>
      <trkpt lat="39.0311270" lon="1.6065030">
        <ele>20.6</ele>
        <time>2020-02-23T10:28:41Z</time>
      </trkpt>
      <trkpt lat="39.0311520" lon="1.6064800">
        <ele>20.6</ele>
        <time>2020-02-23T10:28:42Z</time>
      </trkpt>
      <trkpt lat="39.0311820" lon="1.6064620">
        <ele>20.4</ele>
        <time>2020-02-23T10:28:43Z</time>
      </trkpt>
      <trkpt lat="39.0312170" lon="1.6064690">
        <ele>20.3</ele>
        <time>2020-02-23T10:28:44Z</time>
      </trkpt>
      <trkpt lat="39.0312500" lon="1.6064900">
        <ele>20.1</ele>
        <time>2020-02-23T10:28:45Z</time>
      </trkpt>
      <trkpt lat="39.0312820" lon="1.6065110">
        <ele>20.0</ele>
        <time>2020-02-23T10:28:46Z</time>
      </trkpt>
      <trkpt lat="39.0313120" lon="1.6065350">
        <ele>19.9</ele>
        <time>2020-02-23T10:28:47Z</time>
      </trkpt>
      <trkpt lat="39.0313500" lon="1.6065300">
        <ele>19.8</ele>
        <time>2020-02-23T10:28:48Z</time>
      </trkpt>
      <trkpt lat="39.0313900" lon="1.6065140">
        <ele>19.6</ele>
        <time>2020-02-23T10:28:49Z</time>
      </trkpt>
      <trkpt lat="39.0314310" lon="1.6065000">
        <ele>19.6</ele>
        <time>2020-02-23T10:28:50Z</time>
      </trkpt>
      <trkpt lat="39.0314740" lon="1.6064950">
        <ele>19.5</ele>
        <time>2020-02-23T10:28:51Z</time>
      </trkpt>
      <trkpt lat="39.0315160" lon="1.6064850">
        <ele>19.4</ele>
        <time>2020-02-23T10:28:52Z</time>
      </trkpt>
      <trkpt lat="39.0315600" lon="1.6064710">
        <ele>19.1</ele>
        <time>2020-02-23T10:28:53Z</time>
      </trkpt>
      <trkpt lat="39.0315990" lon="1.6064620">
        <ele>19.0</ele>
        <time>2020-02-23T10:28:54Z</time>
      </trkpt>
      <trkpt lat="39.0316340" lon="1.6064820">
        <ele>18.8</ele>
        <time>2020-02-23T10:28:55Z</time>
      </trkpt>
      <trkpt lat="39.0316660" lon="1.6065150">
        <ele>18.7</ele>
        <time>2020-02-23T10:28:56Z</time>
      </trkpt>
      <trkpt lat="39.0316970" lon="1.6065670">
        <ele>18.6</ele>
        <time>2020-02-23T10:28:57Z</time>
      </trkpt>
      <trkpt lat="39.0317380" lon="1.6065730">
        <ele>18.4</ele>
        <time>2020-02-23T10:28:58Z</time>
      </trkpt>
      <trkpt lat="39.0317780" lon="1.6065640">
        <ele>18.2</ele>
        <time>2020-02-23T10:28:59Z</time>
      </trkpt>
      <trkpt lat="39.0318220" lon="1.6065580">
        <ele>18.0</ele>
        <time>2020-02-23T10:29:00Z</time>
      </trkpt>
      <trkpt lat="39.0318660" lon="1.6065620">
        <ele>17.8</ele>
        <time>2020-02-23T10:29:01Z</time>
      </trkpt>
      <trkpt lat="39.0319150" lon="1.6065700">
        <ele>17.7</ele>
        <time>2020-02-23T10:29:02Z</time>
      </trkpt>
      <trkpt lat="39.0319610" lon="1.6065820">
        <ele>17.4</ele>
        <time>2020-02-23T10:29:03Z</time>
      </trkpt>
      <trkpt lat="39.0320020" lon="1.6065910">
        <ele>17.3</ele>
        <time>2020-02-23T10:29:04Z</time>
      </trkpt>
      <trkpt lat="39.0320370" lon="1.6065870">
        <ele>17.1</ele>
        <time>2020-02-23T10:29:05Z</time>
      </trkpt>
      <trkpt lat="39.0320680" lon="1.6066040">
        <ele>17.0</ele>
        <time>2020-02-23T10:29:06Z</time>
      </trkpt>
      <trkpt lat="39.0320980" lon="1.6066160">
        <ele>16.8</ele>
        <time>2020-02-23T10:29:07Z</time>
      </trkpt>
      <trkpt lat="39.0321240" lon="1.6066270">
        <ele>16.6</ele>
        <time>2020-02-23T10:29:08Z</time>
      </trkpt>
      <trkpt lat="39.0321560" lon="1.6066580">
        <ele>16.4</ele>
        <time>2020-02-23T10:29:09Z</time>
      </trkpt>
      <trkpt lat="39.0321670" lon="1.6067030">
        <ele>16.4</ele>
        <time>2020-02-23T10:29:10Z</time>
      </trkpt>
      <trkpt lat="39.0321840" lon="1.6067440">
        <ele>16.3</ele>
        <time>2020-02-23T10:29:11Z</time>
      </trkpt>
      <trkpt lat="39.0322120" lon="1.6067800">
        <ele>16.1</ele>
        <time>2020-02-23T10:29:12Z</time>
      </trkpt>
      <trkpt lat="39.0322340" lon="1.6068200">
        <ele>15.8</ele>
        <time>2020-02-23T10:29:13Z</time>
      </trkpt>
      <trkpt lat="39.0322430" lon="1.6068660">
        <ele>15.8</ele>
        <time>2020-02-23T10:29:14Z</time>
      </trkpt>
      <trkpt lat="39.0322480" lon="1.6069160">
        <ele>15.7</ele>
        <time>2020-02-23T10:29:15Z</time>
      </trkpt>
      <trkpt lat="39.0322440" lon="1.6069640">
        <ele>15.7</ele>
        <time>2020-02-23T10:29:16Z</time>
      </trkpt>
      <trkpt lat="39.0322440" lon="1.6070100">
        <ele>15.6</ele>
        <time>2020-02-23T10:29:17Z</time>
      </trkpt>
      <trkpt lat="39.0322360" lon="1.6070610">
        <ele>15.7</ele>
        <time>2020-02-23T10:29:18Z</time>
      </trkpt>
      <trkpt lat="39.0322300" lon="1.6071080">
        <ele>15.7</ele>
        <time>2020-02-23T10:29:19Z</time>
      </trkpt>
      <trkpt lat="39.0322250" lon="1.6071510">
        <ele>15.7</ele>
        <time>2020-02-23T10:29:20Z</time>
      </trkpt>
      <trkpt lat="39.0322180" lon="1.6071940">
        <ele>16.0</ele>
        <time>2020-02-23T10:29:21Z</time>
      </trkpt>
      <trkpt lat="39.0322170" lon="1.6072400">
        <ele>16.0</ele>
        <time>2020-02-23T10:29:22Z</time>
      </trkpt>
      <trkpt lat="39.0322230" lon="1.6072890">
        <ele>15.9</ele>
        <time>2020-02-23T10:29:23Z</time>
      </trkpt>
      <trkpt lat="39.0322320" lon="1.6073360">
        <ele>16.0</ele>
        <time>2020-02-23T10:29:24Z</time>
      </trkpt>
      <trkpt lat="39.0322330" lon="1.6073880">
        <ele>16.0</ele>
        <time>2020-02-23T10:29:25Z</time>
      </trkpt>
      <trkpt lat="39.0322410" lon="1.6074370">
        <ele>16.1</ele>
        <time>2020-02-23T10:29:26Z</time>
      </trkpt>
      <trkpt lat="39.0322510" lon="1.6074810">
        <ele>16.3</ele>
        <time>2020-02-23T10:29:27Z</time>
      </trkpt>
      <trkpt lat="39.0322520" lon="1.6075260">
        <ele>16.3</ele>
        <time>2020-02-23T10:29:28Z</time>
      </trkpt>
      <trkpt lat="39.0322640" lon="1.6075670">
        <ele>16.2</ele>
        <time>2020-02-23T10:29:29Z</time>
      </trkpt>
      <trkpt lat="39.0322670" lon="1.6076100">
        <ele>16.3</ele>
        <time>2020-02-23T10:29:30Z</time>
      </trkpt>
      <trkpt lat="39.0322750" lon="1.6076540">
        <ele>16.4</ele>
        <time>2020-02-23T10:29:31Z</time>
      </trkpt>
      <trkpt lat="39.0322720" lon="1.6077010">
        <ele>16.6</ele>
        <time>2020-02-23T10:29:32Z</time>
      </trkpt>
      <trkpt lat="39.0322720" lon="1.6077470">
        <ele>16.8</ele>
        <time>2020-02-23T10:29:33Z</time>
      </trkpt>
      <trkpt lat="39.0322730" lon="1.6077950">
        <ele>16.9</ele>
        <time>2020-02-23T10:29:34Z</time>
      </trkpt>
      <trkpt lat="39.0322750" lon="1.6078380">
        <ele>17.1</ele>
        <time>2020-02-23T10:29:35Z</time>
      </trkpt>
      <trkpt lat="39.0322800" lon="1.6078780">
        <ele>17.3</ele>
        <time>2020-02-23T10:29:36Z</time>
      </trkpt>
      <trkpt lat="39.0322750" lon="1.6079140">
        <ele>17.5</ele>
        <time>2020-02-23T10:29:37Z</time>
      </trkpt>
      <trkpt lat="39.0322800" lon="1.6079530">
        <ele>17.7</ele>
        <time>2020-02-23T10:29:38Z</time>
      </trkpt>
      <trkpt lat="39.0322820" lon="1.6079950">
        <ele>17.7</ele>
        <time>2020-02-23T10:29:39Z</time>
      </trkpt>
      <trkpt lat="39.0322900" lon="1.6080350">
        <ele>17.6</ele>
        <time>2020-02-23T10:29:40Z</time>
      </trkpt>
      <trkpt lat="39.0322950" lon="1.6080750">
        <ele>17.9</ele>
        <time>2020-02-23T10:29:41Z</time>
      </trkpt>
      <trkpt lat="39.0322930" lon="1.6081160">
        <ele>18.1</ele>
        <time>2020-02-23T10:29:42Z</time>
      </trkpt>
      <trkpt lat="39.0322880" lon="1.6081540">
        <ele>18.4</ele>
        <time>2020-02-23T10:29:43Z</time>
      </trkpt>
      <trkpt lat="39.0322880" lon="1.6081940">
        <ele>18.7</ele>
        <time>2020-02-23T10:29:44Z</time>
      </trkpt>
      <trkpt lat="39.0322920" lon="1.6082360">
        <ele>18.9</ele>
        <time>2020-02-23T10:29:45Z</time>
      </trkpt>
      <trkpt lat="39.0322920" lon="1.6082780">
        <ele>19.2</ele>
        <time>2020-02-23T10:29:46Z</time>
      </trkpt>
      <trkpt lat="39.0322980" lon="1.6083170">
        <ele>19.5</ele>
        <time>2020-02-23T10:29:47Z</time>
      </trkpt>
      <trkpt lat="39.0323050" lon="1.6083550">
        <ele>19.8</ele>
        <time>2020-02-23T10:29:48Z</time>
      </trkpt>
      <trkpt lat="39.0323150" lon="1.6083910">
        <ele>20.1</ele>
        <time>2020-02-23T10:29:49Z</time>
      </trkpt>
      <trkpt lat="39.0323210" lon="1.6084270">
        <ele>20.1</ele>
        <time>2020-02-23T10:29:50Z</time>
      </trkpt>
      <trkpt lat="39.0323250" lon="1.6084650">
        <ele>20.1</ele>
        <time>2020-02-23T10:29:51Z</time>
      </trkpt>
      <trkpt lat="39.0323140" lon="1.6084970">
        <ele>20.6</ele>
        <time>2020-02-23T10:29:52Z</time>
      </trkpt>
      <trkpt lat="39.0323030" lon="1.6085400">
        <ele>20.8</ele>
        <time>2020-02-23T10:29:53Z</time>
      </trkpt>
      <trkpt lat="39.0322980" lon="1.6085540">
        <ele>21.1</ele>
        <time>2020-02-23T10:29:54Z</time>
      </trkpt>
      <trkpt lat="39.0322940" lon="1.6086020">
        <ele>21.3</ele>
        <time>2020-02-23T10:29:55Z</time>
      </trkpt>
      <trkpt lat="39.0322910" lon="1.6086190">
        <ele>21.3</ele>
        <time>2020-02-23T10:29:56Z</time>
      </trkpt>
      <trkpt lat="39.0322960" lon="1.6086550">
        <ele>21.6</ele>
        <time>2020-02-23T10:29:57Z</time>
      </trkpt>
      <trkpt lat="39.0323010" lon="1.6086980">
        <ele>21.8</ele>
        <time>2020-02-23T10:29:58Z</time>
      </trkpt>
      <trkpt lat="39.0323000" lon="1.6087100">
        <ele>21.8</ele>
        <time>2020-02-23T10:29:59Z</time>
      </trkpt>
      <trkpt lat="39.0323080" lon="1.6087460">
        <ele>22.0</ele>
        <time>2020-02-23T10:30:00Z</time>
      </trkpt>
      <trkpt lat="39.0323080" lon="1.6087590">
        <ele>22.0</ele>
        <time>2020-02-23T10:30:01Z</time>
      </trkpt>
      <trkpt lat="39.0323030" lon="1.6087990">
        <ele>22.3</ele>
        <time>2020-02-23T10:30:02Z</time>
      </trkpt>
      <trkpt lat="39.0323030" lon="1.6088130">
        <ele>22.5</ele>
        <time>2020-02-23T10:30:03Z</time>
      </trkpt>
      <trkpt lat="39.0322960" lon="1.6088540">
        <ele>22.8</ele>
        <time>2020-02-23T10:30:04Z</time>
      </trkpt>
      <trkpt lat="39.0322910" lon="1.6088690">
        <ele>22.8</ele>
        <time>2020-02-23T10:30:05Z</time>
      </trkpt>
      <trkpt lat="39.0323080" lon="1.6089100">
        <ele>23.0</ele>
        <time>2020-02-23T10:30:06Z</time>
      </trkpt>
      <trkpt lat="39.0323130" lon="1.6089240">
        <ele>23.0</ele>
        <time>2020-02-23T10:30:07Z</time>
      </trkpt>
      <trkpt lat="39.0323110" lon="1.6089680">
        <ele>23.2</ele>
        <time>2020-02-23T10:30:08Z</time>
      </trkpt>
      <trkpt lat="39.0323090" lon="1.6089830">
        <ele>23.4</ele>
        <time>2020-02-23T10:30:09Z</time>
      </trkpt>
      <trkpt lat="39.0322910" lon="1.6090170">
        <ele>23.4</ele>
        <time>2020-02-23T10:30:10Z</time>
      </trkpt>
      <trkpt lat="39.0322840" lon="1.6090260">
        <ele>23.9</ele>
        <time>2020-02-23T10:30:11Z</time>
      </trkpt>
      <trkpt lat="39.0322800" lon="1.6090450">
        <ele>23.9</ele>
        <time>2020-02-23T10:30:12Z</time>
      </trkpt>
      <trkpt lat="39.0322730" lon="1.6090630">
        <ele>23.9</ele>
        <time>2020-02-23T10:30:13Z</time>
      </trkpt>
      <trkpt lat="39.0322770" lon="1.6090990">
        <ele>24.1</ele>
        <time>2020-02-23T10:30:14Z</time>
      </trkpt>
      <trkpt lat="39.0322770" lon="1.6091120">
        <ele>24.4</ele>
        <time>2020-02-23T10:30:15Z</time>
      </trkpt>
      <trkpt lat="39.0322860" lon="1.6091550">
        <ele>24.6</ele>
        <time>2020-02-23T10:30:16Z</time>
      </trkpt>
      <trkpt lat="39.0322880" lon="1.6091700">
        <ele>24.2</ele>
        <time>2020-02-23T10:30:17Z</time>
      </trkpt>
      <trkpt lat="39.0323030" lon="1.6092110">
        <ele>24.4</ele>
        <time>2020-02-23T10:30:18Z</time>
      </trkpt>
      <trkpt lat="39.0323070" lon="1.6092260">
        <ele>24.4</ele>
        <time>2020-02-23T10:30:19Z</time>
      </trkpt>
      <trkpt lat="39.0323130" lon="1.6092630">
        <ele>24.6</ele>
        <time>2020-02-23T10:30:20Z</time>
      </trkpt>
      <trkpt lat="39.0323150" lon="1.6092740">
        <ele>24.6</ele>
        <time>2020-02-23T10:30:21Z</time>
      </trkpt>
      <trkpt lat="39.0323220" lon="1.6093110">
        <ele>24.4</ele>
        <time>2020-02-23T10:30:22Z</time>
      </trkpt>
      <trkpt lat="39.0323240" lon="1.6093250">
        <ele>24.4</ele>
        <time>2020-02-23T10:30:23Z</time>
      </trkpt>
      <trkpt lat="39.0323170" lon="1.6093600">
        <ele>25.1</ele>
        <time>2020-02-23T10:30:24Z</time>
      </trkpt>
      <trkpt lat="39.0323130" lon="1.6093700">
        <ele>25.3</ele>
        <time>2020-02-23T10:30:25Z</time>
      </trkpt>
      <trkpt lat="39.0323100" lon="1.6093910">
        <ele>25.3</ele>
        <time>2020-02-23T10:30:26Z</time>
      </trkpt>
      <trkpt lat="39.0323100" lon="1.6094130">
        <ele>25.6</ele>
        <time>2020-02-23T10:30:27Z</time>
      </trkpt>
      <trkpt lat="39.0323150" lon="1.6094490">
        <ele>25.6</ele>
        <time>2020-02-23T10:30:28Z</time>
      </trkpt>
      <trkpt lat="39.0323170" lon="1.6094620">
        <ele>26.0</ele>
        <time>2020-02-23T10:30:29Z</time>
      </trkpt>
      <trkpt lat="39.0323310" lon="1.6095030">
        <ele>25.8</ele>
        <time>2020-02-23T10:30:30Z</time>
      </trkpt>
      <trkpt lat="39.0323380" lon="1.6095160">
        <ele>25.8</ele>
        <time>2020-02-23T10:30:31Z</time>
      </trkpt>
      <trkpt lat="39.0323360" lon="1.6095390">
        <ele>25.8</ele>
        <time>2020-02-23T10:30:32Z</time>
      </trkpt>
      <trkpt lat="39.0323240" lon="1.6095590">
        <ele>26.2</ele>
        <time>2020-02-23T10:30:33Z</time>
      </trkpt>
      <trkpt lat="39.0323150" lon="1.6095790">
        <ele>26.7</ele>
        <time>2020-02-23T10:30:34Z</time>
      </trkpt>
      <trkpt lat="39.0323090" lon="1.6096010">
        <ele>27.1</ele>
        <time>2020-02-23T10:30:35Z</time>
      </trkpt>
      <trkpt lat="39.0323190" lon="1.6096390">
        <ele>27.5</ele>
        <time>2020-02-23T10:30:36Z</time>
      </trkpt>
      <trkpt lat="39.0323240" lon="1.6096540">
        <ele>27.0</ele>
        <time>2020-02-23T10:30:37Z</time>
      </trkpt>
      <trkpt lat="39.0323360" lon="1.6096930">
        <ele>27.4</ele>
        <time>2020-02-23T10:30:38Z</time>
      </trkpt>
      <trkpt lat="39.0323340" lon="1.6097050">
        <ele>27.4</ele>
        <time>2020-02-23T10:30:39Z</time>
      </trkpt>
      <trkpt lat="39.0323230" lon="1.6097400">
        <ele>27.7</ele>
        <time>2020-02-23T10:30:40Z</time>
      </trkpt>
      <trkpt lat="39.0323200" lon="1.6097510">
        <ele>27.7</ele>
        <time>2020-02-23T10:30:41Z</time>
      </trkpt>
      <trkpt lat="39.0323050" lon="1.6097840">
        <ele>28.7</ele>
        <time>2020-02-23T10:30:42Z</time>
      </trkpt>
      <trkpt lat="39.0322980" lon="1.6097950">
        <ele>28.7</ele>
        <time>2020-02-23T10:30:43Z</time>
      </trkpt>
      <trkpt lat="39.0323040" lon="1.6098300">
        <ele>29.0</ele>
        <time>2020-02-23T10:30:44Z</time>
      </trkpt>
      <trkpt lat="39.0323080" lon="1.6098430">
        <ele>29.3</ele>
        <time>2020-02-23T10:30:45Z</time>
      </trkpt>
      <trkpt lat="39.0323200" lon="1.6098800">
        <ele>28.7</ele>
        <time>2020-02-23T10:30:46Z</time>
      </trkpt>
      <trkpt lat="39.0323240" lon="1.6098930">
        <ele>29.0</ele>
        <time>2020-02-23T10:30:47Z</time>
      </trkpt>
      <trkpt lat="39.0323290" lon="1.6099310">
        <ele>29.3</ele>
        <time>2020-02-23T10:30:48Z</time>
      </trkpt>
      <trkpt lat="39.0323260" lon="1.6099440">
        <ele>29.3</ele>
        <time>2020-02-23T10:30:49Z</time>
      </trkpt>
      <trkpt lat="39.0323330" lon="1.6099830">
        <ele>29.7</ele>
        <time>2020-02-23T10:30:50Z</time>
      </trkpt>
      <trkpt lat="39.0323370" lon="1.6099970">
        <ele>29.7</ele>
        <time>2020-02-23T10:30:51Z</time>
      </trkpt>
      <trkpt lat="39.0323360" lon="1.6100350">
        <ele>30.0</ele>
        <time>2020-02-23T10:30:52Z</time>
      </trkpt>
      <trkpt lat="39.0323360" lon="1.6100490">
        <ele>30.0</ele>
        <time>2020-02-23T10:30:53Z</time>
      </trkpt>
      <trkpt lat="39.0323470" lon="1.6100860">
        <ele>30.3</ele>
        <time>2020-02-23T10:30:54Z</time>
      </trkpt>
      <trkpt lat="39.0323520" lon="1.6100990">
        <ele>30.6</ele>
        <time>2020-02-23T10:30:55Z</time>
      </trkpt>
      <trkpt lat="39.0323570" lon="1.6101360">
        <ele>30.0</ele>
        <time>2020-02-23T10:30:56Z</time>
      </trkpt>
      <trkpt lat="39.0323530" lon="1.6101480">
        <ele>30.4</ele>
        <time>2020-02-23T10:30:57Z</time>
      </trkpt>
      <trkpt lat="39.0323580" lon="1.6101820">
        <ele>30.4</ele>
        <time>2020-02-23T10:30:58Z</time>
      </trkpt>
      <trkpt lat="39.0323590" lon="1.6101950">
        <ele>30.7</ele>
        <time>2020-02-23T10:30:59Z</time>
      </trkpt>
      <trkpt lat="39.0323700" lon="1.6102300">
        <ele>31.1</ele>
        <time>2020-02-23T10:31:00Z</time>
      </trkpt>
      <trkpt lat="39.0323720" lon="1.6102420">
        <ele>31.1</ele>
        <time>2020-02-23T10:31:01Z</time>
      </trkpt>
      <trkpt lat="39.0323750" lon="1.6102800">
        <ele>31.4</ele>
        <time>2020-02-23T10:31:02Z</time>
      </trkpt>
      <trkpt lat="39.0323750" lon="1.6102920">
        <ele>31.4</ele>
        <time>2020-02-23T10:31:03Z</time>
      </trkpt>
      <trkpt lat="39.0323700" lon="1.6103120">
        <ele>31.4</ele>
        <time>2020-02-23T10:31:04Z</time>
      </trkpt>
      <trkpt lat="39.0323660" lon="1.6103330">
        <ele>31.8</ele>
        <time>2020-02-23T10:31:05Z</time>
      </trkpt>
      <trkpt lat="39.0323740" lon="1.6103660">
        <ele>32.2</ele>
        <time>2020-02-23T10:31:06Z</time>
      </trkpt>
      <trkpt lat="39.0323780" lon="1.6103800">
        <ele>32.2</ele>
        <time>2020-02-23T10:31:07Z</time>
      </trkpt>
      <trkpt lat="39.0323850" lon="1.6104190">
        <ele>32.7</ele>
        <time>2020-02-23T10:31:08Z</time>
      </trkpt>
      <trkpt lat="39.0323870" lon="1.6104300">
        <ele>32.0</ele>
        <time>2020-02-23T10:31:09Z</time>
      </trkpt>
      <trkpt lat="39.0323860" lon="1.6104520">
        <ele>33.1</ele>
        <time>2020-02-23T10:31:10Z</time>
      </trkpt>
      <trkpt lat="39.0323830" lon="1.6104660">
        <ele>33.1</ele>
        <time>2020-02-23T10:31:11Z</time>
      </trkpt>
      <trkpt lat="39.0323790" lon="1.6104920">
        <ele>33.5</ele>
        <time>2020-02-23T10:31:12Z</time>
      </trkpt>
      <trkpt lat="39.0323780" lon="1.6105040">
        <ele>33.5</ele>
        <time>2020-02-23T10:31:13Z</time>
      </trkpt>
      <trkpt lat="39.0323780" lon="1.6105160">
        <ele>33.5</ele>
        <time>2020-02-23T10:31:14Z</time>
      </trkpt>
      <trkpt lat="39.0323790" lon="1.6105380">
        <ele>33.9</ele>
        <time>2020-02-23T10:31:15Z</time>
      </trkpt>
      <trkpt lat="39.0323730" lon="1.6105590">
        <ele>33.9</ele>
        <time>2020-02-23T10:31:16Z</time>
      </trkpt>
      <trkpt lat="39.0323590" lon="1.6105920">
        <ele>34.3</ele>
        <time>2020-02-23T10:31:17Z</time>
      </trkpt>
      <trkpt lat="39.0323530" lon="1.6106010">
        <ele>34.3</ele>
        <time>2020-02-23T10:31:18Z</time>
      </trkpt>
      <trkpt lat="39.0323520" lon="1.6106270">
        <ele>35.4</ele>
        <time>2020-02-23T10:31:19Z</time>
      </trkpt>
      <trkpt lat="39.0323430" lon="1.6106420">
        <ele>35.4</ele>
        <time>2020-02-23T10:31:20Z</time>
      </trkpt>
      <trkpt lat="39.0323540" lon="1.6106770">
        <ele>35.0</ele>
        <time>2020-02-23T10:31:21Z</time>
      </trkpt>
      <trkpt lat="39.0323570" lon="1.6106880">
        <ele>35.0</ele>
        <time>2020-02-23T10:31:22Z</time>
      </trkpt>
      <trkpt lat="39.0323490" lon="1.6107270">
        <ele>36.2</ele>
        <time>2020-02-23T10:31:23Z</time>
      </trkpt>
      <trkpt lat="39.0323490" lon="1.6107410">
        <ele>36.2</ele>
        <time>2020-02-23T10:31:24Z</time>
      </trkpt>
      <trkpt lat="39.0323630" lon="1.6107810">
        <ele>35.7</ele>
        <time>2020-02-23T10:31:25Z</time>
      </trkpt>
      <trkpt lat="39.0323650" lon="1.6108000">
        <ele>36.0</ele>
        <time>2020-02-23T10:31:26Z</time>
      </trkpt>
      <trkpt lat="39.0323760" lon="1.6108470">
        <ele>36.3</ele>
        <time>2020-02-23T10:31:27Z</time>
      </trkpt>
      <trkpt lat="39.0323800" lon="1.6108620">
        <ele>36.3</ele>
        <time>2020-02-23T10:31:28Z</time>
      </trkpt>
      <trkpt lat="39.0323860" lon="1.6108890">
        <ele>36.7</ele>
        <time>2020-02-23T10:31:29Z</time>
      </trkpt>
      <trkpt lat="39.0323890" lon="1.6109070">
        <ele>35.8</ele>
        <time>2020-02-23T10:31:30Z</time>
      </trkpt>
      <trkpt lat="39.0323940" lon="1.6109210">
        <ele>36.1</ele>
        <time>2020-02-23T10:31:31Z</time>
      </trkpt>
      <trkpt lat="39.0323970" lon="1.6109410">
        <ele>36.1</ele>
        <time>2020-02-23T10:31:32Z</time>
      </trkpt>
      <trkpt lat="39.0324050" lon="1.6109680">
        <ele>36.3</ele>
        <time>2020-02-23T10:31:33Z</time>
      </trkpt>
      <trkpt lat="39.0324060" lon="1.6109780">
        <ele>36.3</ele>
        <time>2020-02-23T10:31:34Z</time>
      </trkpt>
      <trkpt lat="39.0324070" lon="1.6109870">
        <ele>36.3</ele>
        <time>2020-02-23T10:31:35Z</time>
      </trkpt>
      <trkpt lat="39.0324120" lon="1.6109950">
        <ele>36.3</ele>
        <time>2020-02-23T10:31:36Z</time>
      </trkpt>
      <trkpt lat="39.0324180" lon="1.6110130">
        <ele>36.6</ele>
        <time>2020-02-23T10:31:37Z</time>
      </trkpt>
      <trkpt lat="39.0324210" lon="1.6110280">
        <ele>35.7</ele>
        <time>2020-02-23T10:31:38Z</time>
      </trkpt>
      <trkpt lat="39.0324280" lon="1.6110530">
        <ele>35.9</ele>
        <time>2020-02-23T10:31:39Z</time>
      </trkpt>
      <trkpt lat="39.0324330" lon="1.6110660">
        <ele>35.9</ele>
        <time>2020-02-23T10:31:40Z</time>
      </trkpt>
      <trkpt lat="39.0324370" lon="1.6110790">
        <ele>35.9</ele>
        <time>2020-02-23T10:31:41Z</time>
      </trkpt>
      <trkpt lat="39.0324460" lon="1.6111050">
        <ele>36.1</ele>
        <time>2020-02-23T10:31:42Z</time>
      </trkpt>
      <trkpt lat="39.0324480" lon="1.6111140">
        <ele>36.1</ele>
        <time>2020-02-23T10:31:43Z</time>
      </trkpt>
      <trkpt lat="39.0324510" lon="1.6111230">
        <ele>36.1</ele>
        <time>2020-02-23T10:31:44Z</time>
      </trkpt>
      <trkpt lat="39.0324550" lon="1.6111500">
        <ele>35.4</ele>
        <time>2020-02-23T10:31:45Z</time>
      </trkpt>
      <trkpt lat="39.0324550" lon="1.6111600">
        <ele>35.4</ele>
        <time>2020-02-23T10:31:46Z</time>
      </trkpt>
      <trkpt lat="39.0324560" lon="1.6111700">
        <ele>35.4</ele>
        <time>2020-02-23T10:31:47Z</time>
      </trkpt>
      <trkpt lat="39.0324590" lon="1.6111870">
        <ele>35.6</ele>
        <time>2020-02-23T10:31:48Z</time>
      </trkpt>
      <trkpt lat="39.0324650" lon="1.6112070">
        <ele>35.6</ele>
        <time>2020-02-23T10:31:49Z</time>
      </trkpt>
      <trkpt lat="39.0324670" lon="1.6112570">
        <ele>35.9</ele>
        <time>2020-02-23T10:31:50Z</time>
      </trkpt>
      <trkpt lat="39.0324680" lon="1.6112740">
        <ele>35.9</ele>
        <time>2020-02-23T10:31:51Z</time>
      </trkpt>
      <trkpt lat="39.0324770" lon="1.6112960">
        <ele>35.9</ele>
        <time>2020-02-23T10:31:52Z</time>
      </trkpt>
      <trkpt lat="39.0324820" lon="1.6112990">
        <ele>35.9</ele>
        <time>2020-02-23T10:31:53Z</time>
      </trkpt>
      <trkpt lat="39.0324830" lon="1.6113020">
        <ele>36.1</ele>
        <time>2020-02-23T10:31:54Z</time>
      </trkpt>
      <trkpt lat="39.0324840" lon="1.6113140">
        <ele>36.1</ele>
        <time>2020-02-23T10:31:55Z</time>
      </trkpt>
      <trkpt lat="39.0324910" lon="1.6113370">
        <ele>35.2</ele>
        <time>2020-02-23T10:31:56Z</time>
      </trkpt>
      <trkpt lat="39.0324910" lon="1.6113560">
        <ele>35.3</ele>
        <time>2020-02-23T10:31:57Z</time>
      </trkpt>
      <trkpt lat="39.0324900" lon="1.6113710">
        <ele>35.3</ele>
        <time>2020-02-23T10:31:58Z</time>
      </trkpt>
      <trkpt lat="39.0324910" lon="1.6113840">
        <ele>35.3</ele>
        <time>2020-02-23T10:31:59Z</time>
      </trkpt>
      <trkpt lat="39.0324940" lon="1.6113990">
        <ele>35.5</ele>
        <time>2020-02-23T10:32:00Z</time>
      </trkpt>
      <trkpt lat="39.0325090" lon="1.6114250">
        <ele>35.5</ele>
        <time>2020-02-23T10:32:01Z</time>
      </trkpt>
      <trkpt lat="39.0325140" lon="1.6114340">
        <ele>35.6</ele>
        <time>2020-02-23T10:32:02Z</time>
      </trkpt>
      <trkpt lat="39.0325180" lon="1.6114420">
        <ele>35.6</ele>
        <time>2020-02-23T10:32:03Z</time>
      </trkpt>
      <trkpt lat="39.0325210" lon="1.6114610">
        <ele>34.7</ele>
        <time>2020-02-23T10:32:04Z</time>
      </trkpt>
      <trkpt lat="39.0325230" lon="1.6114810">
        <ele>34.8</ele>
        <time>2020-02-23T10:32:05Z</time>
      </trkpt>
      <trkpt lat="39.0325470" lon="1.6115060">
        <ele>34.8</ele>
        <time>2020-02-23T10:32:06Z</time>
      </trkpt>
      <trkpt lat="39.0325590" lon="1.6115120">
        <ele>33.9</ele>
        <time>2020-02-23T10:32:07Z</time>
      </trkpt>
      <trkpt lat="39.0325710" lon="1.6115580">
        <ele>34.0</ele>
        <time>2020-02-23T10:32:08Z</time>
      </trkpt>
      <trkpt lat="39.0325730" lon="1.6115740">
        <ele>34.0</ele>
        <time>2020-02-23T10:32:09Z</time>
      </trkpt>
      <trkpt lat="39.0325870" lon="1.6116100">
        <ele>33.2</ele>
        <time>2020-02-23T10:32:10Z</time>
      </trkpt>
      <trkpt lat="39.0325910" lon="1.6116240">
        <ele>33.2</ele>
        <time>2020-02-23T10:32:11Z</time>
      </trkpt>
      <trkpt lat="39.0326020" lon="1.6116720">
        <ele>33.2</ele>
        <time>2020-02-23T10:32:12Z</time>
      </trkpt>
      <trkpt lat="39.0326020" lon="1.6116890">
        <ele>33.2</ele>
        <time>2020-02-23T10:32:13Z</time>
      </trkpt>
      <trkpt lat="39.0326020" lon="1.6117300">
        <ele>33.2</ele>
        <time>2020-02-23T10:32:14Z</time>
      </trkpt>
      <trkpt lat="39.0326020" lon="1.6117430">
        <ele>33.2</ele>
        <time>2020-02-23T10:32:15Z</time>
      </trkpt>
      <trkpt lat="39.0325970" lon="1.6117630">
        <ele>33.2</ele>
        <time>2020-02-23T10:32:16Z</time>
      </trkpt>
      <trkpt lat="39.0325970" lon="1.6117840">
        <ele>33.3</ele>
        <time>2020-02-23T10:32:17Z</time>
      </trkpt>
      <trkpt lat="39.0326020" lon="1.6118010">
        <ele>33.3</ele>
        <time>2020-02-23T10:32:18Z</time>
      </trkpt>
      <trkpt lat="39.0326030" lon="1.6118230">
        <ele>33.3</ele>
        <time>2020-02-23T10:32:19Z</time>
      </trkpt>
      <trkpt lat="39.0326160" lon="1.6118680">
        <ele>33.3</ele>
        <time>2020-02-23T10:32:20Z</time>
      </trkpt>
      <trkpt lat="39.0326210" lon="1.6118840">
        <ele>32.6</ele>
        <time>2020-02-23T10:32:21Z</time>
      </trkpt>
      <trkpt lat="39.0326290" lon="1.6119070">
        <ele>32.7</ele>
        <time>2020-02-23T10:32:22Z</time>
      </trkpt>
      <trkpt lat="39.0326320" lon="1.6119280">
        <ele>32.7</ele>
        <time>2020-02-23T10:32:23Z</time>
      </trkpt>
      <trkpt lat="39.0326610" lon="1.6119560">
        <ele>32.2</ele>
        <time>2020-02-23T10:32:24Z</time>
      </trkpt>
      <trkpt lat="39.0326700" lon="1.6119690">
        <ele>32.2</ele>
        <time>2020-02-23T10:32:25Z</time>
      </trkpt>
      <trkpt lat="39.0326920" lon="1.6119990">
        <ele>31.7</ele>
        <time>2020-02-23T10:32:26Z</time>
      </trkpt>
      <trkpt lat="39.0326950" lon="1.6120380">
        <ele>31.8</ele>
        <time>2020-02-23T10:32:27Z</time>
      </trkpt>
      <trkpt lat="39.0326940" lon="1.6120480">
        <ele>31.8</ele>
        <time>2020-02-23T10:32:28Z</time>
      </trkpt>
      <trkpt lat="39.0326980" lon="1.6120870">
        <ele>32.0</ele>
        <time>2020-02-23T10:32:29Z</time>
      </trkpt>
      <trkpt lat="39.0327020" lon="1.6120970">
        <ele>32.0</ele>
        <time>2020-02-23T10:32:30Z</time>
      </trkpt>
      <trkpt lat="39.0327240" lon="1.6121330">
        <ele>31.6</ele>
        <time>2020-02-23T10:32:31Z</time>
      </trkpt>
      <trkpt lat="39.0327300" lon="1.6121460">
        <ele>31.6</ele>
        <time>2020-02-23T10:32:32Z</time>
      </trkpt>
      <trkpt lat="39.0327390" lon="1.6121870">
        <ele>31.8</ele>
        <time>2020-02-23T10:32:33Z</time>
      </trkpt>
      <trkpt lat="39.0327350" lon="1.6122030">
        <ele>32.0</ele>
        <time>2020-02-23T10:32:34Z</time>
      </trkpt>
      <trkpt lat="39.0327330" lon="1.6122450">
        <ele>32.2</ele>
        <time>2020-02-23T10:32:35Z</time>
      </trkpt>
      <trkpt lat="39.0327330" lon="1.6122590">
        <ele>32.2</ele>
        <time>2020-02-23T10:32:36Z</time>
      </trkpt>
      <trkpt lat="39.0327390" lon="1.6122980">
        <ele>32.4</ele>
        <time>2020-02-23T10:32:37Z</time>
      </trkpt>
      <trkpt lat="39.0327420" lon="1.6123090">
        <ele>32.4</ele>
        <time>2020-02-23T10:32:38Z</time>
      </trkpt>
      <trkpt lat="39.0327430" lon="1.6123280">
        <ele>32.4</ele>
        <time>2020-02-23T10:32:39Z</time>
      </trkpt>
      <trkpt lat="39.0327460" lon="1.6123490">
        <ele>32.7</ele>
        <time>2020-02-23T10:32:40Z</time>
      </trkpt>
      <trkpt lat="39.0327620" lon="1.6123890">
        <ele>32.3</ele>
        <time>2020-02-23T10:32:41Z</time>
      </trkpt>
      <trkpt lat="39.0327660" lon="1.6124050">
        <ele>32.3</ele>
        <time>2020-02-23T10:32:42Z</time>
      </trkpt>
      <trkpt lat="39.0327670" lon="1.6124530">
        <ele>32.6</ele>
        <time>2020-02-23T10:32:43Z</time>
      </trkpt>
      <trkpt lat="39.0327670" lon="1.6124690">
        <ele>32.8</ele>
        <time>2020-02-23T10:32:44Z</time>
      </trkpt>
      <trkpt lat="39.0327720" lon="1.6125110">
        <ele>33.0</ele>
        <time>2020-02-23T10:32:45Z</time>
      </trkpt>
      <trkpt lat="39.0327730" lon="1.6125270">
        <ele>33.0</ele>
        <time>2020-02-23T10:32:46Z</time>
      </trkpt>
      <trkpt lat="39.0327730" lon="1.6125580">
        <ele>33.2</ele>
        <time>2020-02-23T10:32:47Z</time>
      </trkpt>
      <trkpt lat="39.0327800" lon="1.6125630">
        <ele>33.2</ele>
        <time>2020-02-23T10:32:48Z</time>
      </trkpt>
      <trkpt lat="39.0327820" lon="1.6125630">
        <ele>33.2</ele>
        <time>2020-02-23T10:32:49Z</time>
      </trkpt>
      <trkpt lat="39.0327850" lon="1.6125660">
        <ele>33.2</ele>
        <time>2020-02-23T10:32:50Z</time>
      </trkpt>
      <trkpt lat="39.0327870" lon="1.6125800">
        <ele>32.7</ele>
        <time>2020-02-23T10:32:51Z</time>
      </trkpt>
      <trkpt lat="39.0327930" lon="1.6125950">
        <ele>32.9</ele>
        <time>2020-02-23T10:32:52Z</time>
      </trkpt>
      <trkpt lat="39.0327980" lon="1.6126140">
        <ele>32.9</ele>
        <time>2020-02-23T10:32:53Z</time>
      </trkpt>
      <trkpt lat="39.0327960" lon="1.6126270">
        <ele>32.9</ele>
        <time>2020-02-23T10:32:54Z</time>
      </trkpt>
      <trkpt lat="39.0327990" lon="1.6126300">
        <ele>33.1</ele>
        <time>2020-02-23T10:32:55Z</time>
      </trkpt>
      <trkpt lat="39.0328060" lon="1.6126380">
        <ele>33.1</ele>
        <time>2020-02-23T10:32:56Z</time>
      </trkpt>
      <trkpt lat="39.0328020" lon="1.6126430">
        <ele>33.1</ele>
        <time>2020-02-23T10:32:57Z</time>
      </trkpt>
      <trkpt lat="39.0327940" lon="1.6126400">
        <ele>33.1</ele>
        <time>2020-02-23T10:32:58Z</time>
      </trkpt>
      <trkpt lat="39.0327920" lon="1.6126460">
        <ele>33.1</ele>
        <time>2020-02-23T10:32:59Z</time>
      </trkpt>
      <trkpt lat="39.0327920" lon="1.6126470">
        <ele>33.1</ele>
        <time>2020-02-23T10:33:00Z</time>
      </trkpt>
      <trkpt lat="39.0327930" lon="1.6126460">
        <ele>33.1</ele>
        <time>2020-02-23T10:33:01Z</time>
      </trkpt>
      <trkpt lat="39.0327930" lon="1.6126460">
        <ele>33.1</ele>
        <time>2020-02-23T10:33:02Z</time>
      </trkpt>
      <trkpt lat="39.0327930" lon="1.6126460">
        <ele>33.1</ele>
        <time>2020-02-23T10:33:03Z</time>
      </trkpt>
      <trkpt lat="39.0327930" lon="1.6126460">
        <ele>33.1</ele>
        <time>2020-02-23T10:33:04Z</time>
      </trkpt>
      <trkpt lat="39.0327930" lon="1.6126460">
        <ele>33.1</ele>
        <time>2020-02-23T10:33:05Z</time>
      </trkpt>
      <trkpt lat="39.0327930" lon="1.6126460">
        <ele>33.1</ele>
        <time>2020-02-23T10:33:06Z</time>
      </trkpt>
      <trkpt lat="39.0327930" lon="1.6126460">
        <ele>33.1</ele>
        <time>2020-02-23T10:33:07Z</time>
      </trkpt>
      <trkpt lat="39.0328310" lon="1.6126250">
        <ele>32.4</ele>
        <time>2020-02-23T10:35:29Z</time>
      </trkpt>
      <trkpt lat="39.0328440" lon="1.6126280">
        <ele>32.4</ele>
        <time>2020-02-23T10:35:30Z</time>
      </trkpt>
      <trkpt lat="39.0328590" lon="1.6126320">
        <ele>32.1</ele>
        <time>2020-02-23T10:35:31Z</time>
      </trkpt>
      <trkpt lat="39.0328780" lon="1.6126430">
        <ele>32.1</ele>
        <time>2020-02-23T10:35:32Z</time>
      </trkpt>
      <trkpt lat="39.0329040" lon="1.6126460">
        <ele>31.8</ele>
        <time>2020-02-23T10:35:33Z</time>
      </trkpt>
      <trkpt lat="39.0329150" lon="1.6126470">
        <ele>31.8</ele>
        <time>2020-02-23T10:35:34Z</time>
      </trkpt>
      <trkpt lat="39.0329390" lon="1.6126410">
        <ele>31.4</ele>
        <time>2020-02-23T10:35:35Z</time>
      </trkpt>
      <trkpt lat="39.0329450" lon="1.6126390">
        <ele>31.4</ele>
        <time>2020-02-23T10:35:36Z</time>
      </trkpt>
      <trkpt lat="39.0329520" lon="1.6126380">
        <ele>31.4</ele>
        <time>2020-02-23T10:35:37Z</time>
      </trkpt>
      <trkpt lat="39.0329610" lon="1.6126300">
        <ele>31.1</ele>
        <time>2020-02-23T10:35:38Z</time>
      </trkpt>
      <trkpt lat="39.0329610" lon="1.6126280">
        <ele>30.9</ele>
        <time>2020-02-23T10:35:39Z</time>
      </trkpt>
      <trkpt lat="39.0329680" lon="1.6126260">
        <ele>30.9</ele>
        <time>2020-02-23T10:35:40Z</time>
      </trkpt>
      <trkpt lat="39.0329770" lon="1.6126220">
        <ele>30.9</ele>
        <time>2020-02-23T10:35:41Z</time>
      </trkpt>
      <trkpt lat="39.0329870" lon="1.6126150">
        <ele>30.5</ele>
        <time>2020-02-23T10:35:42Z</time>
      </trkpt>
      <trkpt lat="39.0330000" lon="1.6126030">
        <ele>30.5</ele>
        <time>2020-02-23T10:35:43Z</time>
      </trkpt>
      <trkpt lat="39.0330110" lon="1.6126000">
        <ele>30.5</ele>
        <time>2020-02-23T10:35:44Z</time>
      </trkpt>
      <trkpt lat="39.0330350" lon="1.6126000">
        <ele>30.1</ele>
        <time>2020-02-23T10:35:45Z</time>
      </trkpt>
      <trkpt lat="39.0330620" lon="1.6126000">
        <ele>29.7</ele>
        <time>2020-02-23T10:35:46Z</time>
      </trkpt>
      <trkpt lat="39.0330860" lon="1.6125900">
        <ele>29.7</ele>
        <time>2020-02-23T10:35:47Z</time>
      </trkpt>
      <trkpt lat="39.0330980" lon="1.6125870">
        <ele>29.3</ele>
        <time>2020-02-23T10:35:48Z</time>
      </trkpt>
      <trkpt lat="39.0331090" lon="1.6125850">
        <ele>29.2</ele>
        <time>2020-02-23T10:35:49Z</time>
      </trkpt>
      <trkpt lat="39.0331360" lon="1.6125640">
        <ele>28.9</ele>
        <time>2020-02-23T10:35:50Z</time>
      </trkpt>
      <trkpt lat="39.0331430" lon="1.6125580">
        <ele>28.9</ele>
        <time>2020-02-23T10:35:51Z</time>
      </trkpt>
      <trkpt lat="39.0331640" lon="1.6125530">
        <ele>28.6</ele>
        <time>2020-02-23T10:35:52Z</time>
      </trkpt>
      <trkpt lat="39.0331730" lon="1.6125470">
        <ele>28.6</ele>
        <time>2020-02-23T10:35:53Z</time>
      </trkpt>
      <trkpt lat="39.0331820" lon="1.6125420">
        <ele>28.5</ele>
        <time>2020-02-23T10:35:54Z</time>
      </trkpt>
      <trkpt lat="39.0331940" lon="1.6125360">
        <ele>28.3</ele>
        <time>2020-02-23T10:35:55Z</time>
      </trkpt>
      <trkpt lat="39.0332070" lon="1.6125250">
        <ele>28.3</ele>
        <time>2020-02-23T10:35:56Z</time>
      </trkpt>
      <trkpt lat="39.0332430" lon="1.6125140">
        <ele>28.2</ele>
        <time>2020-02-23T10:35:57Z</time>
      </trkpt>
      <trkpt lat="39.0332580" lon="1.6125070">
        <ele>28.0</ele>
        <time>2020-02-23T10:35:58Z</time>
      </trkpt>
      <trkpt lat="39.0332880" lon="1.6124870">
        <ele>27.7</ele>
        <time>2020-02-23T10:35:59Z</time>
      </trkpt>
      <trkpt lat="39.0333170" lon="1.6124840">
        <ele>27.7</ele>
        <time>2020-02-23T10:36:00Z</time>
      </trkpt>
      <trkpt lat="39.0333550" lon="1.6124870">
        <ele>27.3</ele>
        <time>2020-02-23T10:36:01Z</time>
      </trkpt>
      <trkpt lat="39.0333680" lon="1.6124900">
        <ele>27.3</ele>
        <time>2020-02-23T10:36:02Z</time>
      </trkpt>
      <trkpt lat="39.0333950" lon="1.6124860">
        <ele>27.2</ele>
        <time>2020-02-23T10:36:03Z</time>
      </trkpt>
      <trkpt lat="39.0334310" lon="1.6124810">
        <ele>27.1</ele>
        <time>2020-02-23T10:36:04Z</time>
      </trkpt>
      <trkpt lat="39.0334400" lon="1.6124790">
        <ele>27.1</ele>
        <time>2020-02-23T10:36:05Z</time>
      </trkpt>
      <trkpt lat="39.0334740" lon="1.6124740">
        <ele>26.9</ele>
        <time>2020-02-23T10:36:06Z</time>
      </trkpt>
      <trkpt lat="39.0335060" lon="1.6124930">
        <ele>26.8</ele>
        <time>2020-02-23T10:36:07Z</time>
      </trkpt>
      <trkpt lat="39.0335150" lon="1.6125020">
        <ele>27.0</ele>
        <time>2020-02-23T10:36:08Z</time>
      </trkpt>
      <trkpt lat="39.0335290" lon="1.6124990">
        <ele>26.6</ele>
        <time>2020-02-23T10:36:09Z</time>
      </trkpt>
      <trkpt lat="39.0335430" lon="1.6124900">
        <ele>26.6</ele>
        <time>2020-02-23T10:36:10Z</time>
      </trkpt>
      <trkpt lat="39.0335790" lon="1.6124730">
        <ele>26.4</ele>
        <time>2020-02-23T10:36:11Z</time>
      </trkpt>
      <trkpt lat="39.0335910" lon="1.6124660">
        <ele>26.1</ele>
        <time>2020-02-23T10:36:12Z</time>
      </trkpt>
      <trkpt lat="39.0336160" lon="1.6124420">
        <ele>25.9</ele>
        <time>2020-02-23T10:36:13Z</time>
      </trkpt>
      <trkpt lat="39.0336370" lon="1.6124160">
        <ele>25.7</ele>
        <time>2020-02-23T10:36:14Z</time>
      </trkpt>
      <trkpt lat="39.0336690" lon="1.6124250">
        <ele>25.4</ele>
        <time>2020-02-23T10:36:15Z</time>
      </trkpt>
      <trkpt lat="39.0336770" lon="1.6124370">
        <ele>25.4</ele>
        <time>2020-02-23T10:36:16Z</time>
      </trkpt>
      <trkpt lat="39.0336930" lon="1.6124560">
        <ele>25.2</ele>
        <time>2020-02-23T10:36:17Z</time>
      </trkpt>
      <trkpt lat="39.0337000" lon="1.6124600">
        <ele>25.4</ele>
        <time>2020-02-23T10:36:18Z</time>
      </trkpt>
      <trkpt lat="39.0337130" lon="1.6124640">
        <ele>25.4</ele>
        <time>2020-02-23T10:36:19Z</time>
      </trkpt>
      <trkpt lat="39.0337350" lon="1.6124450">
        <ele>24.9</ele>
        <time>2020-02-23T10:36:20Z</time>
      </trkpt>
      <trkpt lat="39.0337510" lon="1.6124220">
        <ele>24.9</ele>
        <time>2020-02-23T10:36:21Z</time>
      </trkpt>
      <trkpt lat="39.0337580" lon="1.6124100">
        <ele>24.5</ele>
        <time>2020-02-23T10:36:22Z</time>
      </trkpt>
      <trkpt lat="39.0337640" lon="1.6123980">
        <ele>24.5</ele>
        <time>2020-02-23T10:36:23Z</time>
      </trkpt>
      <trkpt lat="39.0337730" lon="1.6123600">
        <ele>24.3</ele>
        <time>2020-02-23T10:36:24Z</time>
      </trkpt>
      <trkpt lat="39.0337750" lon="1.6123460">
        <ele>24.3</ele>
        <time>2020-02-23T10:36:25Z</time>
      </trkpt>
      <trkpt lat="39.0337700" lon="1.6123050">
        <ele>24.1</ele>
        <time>2020-02-23T10:36:26Z</time>
      </trkpt>
      <trkpt lat="39.0337700" lon="1.6122930">
        <ele>24.1</ele>
        <time>2020-02-23T10:36:27Z</time>
      </trkpt>
      <trkpt lat="39.0337850" lon="1.6122610">
        <ele>24.0</ele>
        <time>2020-02-23T10:36:28Z</time>
      </trkpt>
      <trkpt lat="39.0337860" lon="1.6122360">
        <ele>23.8</ele>
        <time>2020-02-23T10:36:29Z</time>
      </trkpt>
      <trkpt lat="39.0337840" lon="1.6122230">
        <ele>23.8</ele>
        <time>2020-02-23T10:36:30Z</time>
      </trkpt>
      <trkpt lat="39.0338010" lon="1.6121920">
        <ele>23.4</ele>
        <time>2020-02-23T10:36:31Z</time>
      </trkpt>
      <trkpt lat="39.0338080" lon="1.6121800">
        <ele>23.4</ele>
        <time>2020-02-23T10:36:32Z</time>
      </trkpt>
      <trkpt lat="39.0338290" lon="1.6121360">
        <ele>22.9</ele>
        <time>2020-02-23T10:36:33Z</time>
      </trkpt>
      <trkpt lat="39.0338370" lon="1.6121210">
        <ele>22.9</ele>
        <time>2020-02-23T10:36:34Z</time>
      </trkpt>
      <trkpt lat="39.0338640" lon="1.6121000">
        <ele>22.4</ele>
        <time>2020-02-23T10:36:35Z</time>
      </trkpt>
      <trkpt lat="39.0338990" lon="1.6120780">
        <ele>22.1</ele>
        <time>2020-02-23T10:36:36Z</time>
      </trkpt>
      <trkpt lat="39.0339110" lon="1.6120720">
        <ele>22.0</ele>
        <time>2020-02-23T10:36:37Z</time>
      </trkpt>
      <trkpt lat="39.0339400" lon="1.6120610">
        <ele>22.0</ele>
        <time>2020-02-23T10:36:38Z</time>
      </trkpt>
      <trkpt lat="39.0339730" lon="1.6120500">
        <ele>22.0</ele>
        <time>2020-02-23T10:36:39Z</time>
      </trkpt>
      <trkpt lat="39.0340020" lon="1.6120320">
        <ele>21.9</ele>
        <time>2020-02-23T10:36:40Z</time>
      </trkpt>
      <trkpt lat="39.0340310" lon="1.6120110">
        <ele>21.9</ele>
        <time>2020-02-23T10:36:41Z</time>
      </trkpt>
      <trkpt lat="39.0340410" lon="1.6120040">
        <ele>21.9</ele>
        <time>2020-02-23T10:36:42Z</time>
      </trkpt>
      <trkpt lat="39.0340770" lon="1.6119860">
        <ele>21.8</ele>
        <time>2020-02-23T10:36:43Z</time>
      </trkpt>
      <trkpt lat="39.0341080" lon="1.6119670">
        <ele>21.7</ele>
        <time>2020-02-23T10:36:44Z</time>
      </trkpt>
      <trkpt lat="39.0341330" lon="1.6119440">
        <ele>21.7</ele>
        <time>2020-02-23T10:36:45Z</time>
      </trkpt>
      <trkpt lat="39.0341580" lon="1.6119240">
        <ele>21.6</ele>
        <time>2020-02-23T10:36:46Z</time>
      </trkpt>
      <trkpt lat="39.0341960" lon="1.6119070">
        <ele>21.4</ele>
        <time>2020-02-23T10:36:47Z</time>
      </trkpt>
      <trkpt lat="39.0342090" lon="1.6119030">
        <ele>21.4</ele>
        <time>2020-02-23T10:36:48Z</time>
      </trkpt>
      <trkpt lat="39.0342280" lon="1.6118720">
        <ele>21.2</ele>
        <time>2020-02-23T10:36:49Z</time>
      </trkpt>
      <trkpt lat="39.0342550" lon="1.6118340">
        <ele>21.0</ele>
        <time>2020-02-23T10:36:50Z</time>
      </trkpt>
      <trkpt lat="39.0342860" lon="1.6118060">
        <ele>20.8</ele>
        <time>2020-02-23T10:36:51Z</time>
      </trkpt>
      <trkpt lat="39.0342980" lon="1.6117980">
        <ele>20.8</ele>
        <time>2020-02-23T10:36:52Z</time>
      </trkpt>
      <trkpt lat="39.0343190" lon="1.6117750">
        <ele>20.6</ele>
        <time>2020-02-23T10:36:53Z</time>
      </trkpt>
      <trkpt lat="39.0343560" lon="1.6117440">
        <ele>20.4</ele>
        <time>2020-02-23T10:36:54Z</time>
      </trkpt>
      <trkpt lat="39.0343710" lon="1.6117340">
        <ele>20.4</ele>
        <time>2020-02-23T10:36:55Z</time>
      </trkpt>
      <trkpt lat="39.0344090" lon="1.6117230">
        <ele>20.1</ele>
        <time>2020-02-23T10:36:56Z</time>
      </trkpt>
      <trkpt lat="39.0344220" lon="1.6117230">
        <ele>20.0</ele>
        <time>2020-02-23T10:36:57Z</time>
      </trkpt>
      <trkpt lat="39.0344570" lon="1.6117140">
        <ele>19.8</ele>
        <time>2020-02-23T10:36:58Z</time>
      </trkpt>
      <trkpt lat="39.0344860" lon="1.6117020">
        <ele>19.6</ele>
        <time>2020-02-23T10:36:59Z</time>
      </trkpt>
      <trkpt lat="39.0345180" lon="1.6116830">
        <ele>19.3</ele>
        <time>2020-02-23T10:37:00Z</time>
      </trkpt>
      <trkpt lat="39.0345490" lon="1.6116570">
        <ele>19.0</ele>
        <time>2020-02-23T10:37:01Z</time>
      </trkpt>
      <trkpt lat="39.0345800" lon="1.6116370">
        <ele>18.6</ele>
        <time>2020-02-23T10:37:02Z</time>
      </trkpt>
      <trkpt lat="39.0346070" lon="1.6116180">
        <ele>18.4</ele>
        <time>2020-02-23T10:37:03Z</time>
      </trkpt>
      <trkpt lat="39.0346370" lon="1.6115900">
        <ele>18.1</ele>
        <time>2020-02-23T10:37:04Z</time>
      </trkpt>
      <trkpt lat="39.0346730" lon="1.6115570">
        <ele>17.7</ele>
        <time>2020-02-23T10:37:05Z</time>
      </trkpt>
      <trkpt lat="39.0347070" lon="1.6115230">
        <ele>17.3</ele>
        <time>2020-02-23T10:37:06Z</time>
      </trkpt>
      <trkpt lat="39.0347470" lon="1.6114900">
        <ele>16.9</ele>
        <time>2020-02-23T10:37:07Z</time>
      </trkpt>
      <trkpt lat="39.0347930" lon="1.6114650">
        <ele>16.4</ele>
        <time>2020-02-23T10:37:08Z</time>
      </trkpt>
      <trkpt lat="39.0348340" lon="1.6114340">
        <ele>15.6</ele>
        <time>2020-02-23T10:37:09Z</time>
      </trkpt>
      <trkpt lat="39.0348690" lon="1.6114050">
        <ele>15.0</ele>
        <time>2020-02-23T10:37:10Z</time>
      </trkpt>
      <trkpt lat="39.0349090" lon="1.6113780">
        <ele>14.3</ele>
        <time>2020-02-23T10:37:11Z</time>
      </trkpt>
      <trkpt lat="39.0349480" lon="1.6113560">
        <ele>13.7</ele>
        <time>2020-02-23T10:37:12Z</time>
      </trkpt>
      <trkpt lat="39.0349810" lon="1.6113310">
        <ele>12.9</ele>
        <time>2020-02-23T10:37:13Z</time>
      </trkpt>
      <trkpt lat="39.0350080" lon="1.6113040">
        <ele>10.4</ele>
        <time>2020-02-23T10:37:14Z</time>
      </trkpt>
      <trkpt lat="39.0350200" lon="1.6112870">
        <ele>10.4</ele>
        <time>2020-02-23T10:37:15Z</time>
      </trkpt>
      <trkpt lat="39.0350310" lon="1.6112760">
        <ele>10.4</ele>
        <time>2020-02-23T10:37:16Z</time>
      </trkpt>
      <trkpt lat="39.0350480" lon="1.6112700">
        <ele>10.3</ele>
        <time>2020-02-23T10:37:17Z</time>
      </trkpt>
      <trkpt lat="39.0350570" lon="1.6112640">
        <ele>10.3</ele>
        <time>2020-02-23T10:37:18Z</time>
      </trkpt>
      <trkpt lat="39.0350530" lon="1.6112580">
        <ele>10.3</ele>
        <time>2020-02-23T10:37:19Z</time>
      </trkpt>
      <trkpt lat="39.0350520" lon="1.6112480">
        <ele>10.3</ele>
        <time>2020-02-23T10:37:20Z</time>
      </trkpt>
      <trkpt lat="39.0350620" lon="1.6112320">
        <ele>10.3</ele>
        <time>2020-02-23T10:37:21Z</time>
      </trkpt>
      <trkpt lat="39.0350600" lon="1.6112320">
        <ele>10.3</ele>
        <time>2020-02-23T10:37:22Z</time>
      </trkpt>
      <trkpt lat="39.0350540" lon="1.6112260">
        <ele>10.2</ele>
        <time>2020-02-23T10:37:23Z</time>
      </trkpt>
      <trkpt lat="39.0350640" lon="1.6112150">
        <ele>10.2</ele>
        <time>2020-02-23T10:37:24Z</time>
      </trkpt>
      <trkpt lat="39.0350600" lon="1.6112080">
        <ele>10.2</ele>
        <time>2020-02-23T10:37:25Z</time>
      </trkpt>
      <trkpt lat="39.0350500" lon="1.6112070">
        <ele>10.2</ele>
        <time>2020-02-23T10:37:26Z</time>
      </trkpt>
      <trkpt lat="39.0350410" lon="1.6112040">
        <ele>10.2</ele>
        <time>2020-02-23T10:37:27Z</time>
      </trkpt>
      <trkpt lat="39.0350320" lon="1.6112080">
        <ele>10.1</ele>
        <time>2020-02-23T10:37:28Z</time>
      </trkpt>
      <trkpt lat="39.0350320" lon="1.6112090">
        <ele>10.1</ele>
        <time>2020-02-23T10:37:29Z</time>
      </trkpt>
      <trkpt lat="39.0350320" lon="1.6112030">
        <ele>10.1</ele>
        <time>2020-02-23T10:37:30Z</time>
      </trkpt>
      <trkpt lat="39.0350210" lon="1.6112050">
        <ele>10.1</ele>
        <time>2020-02-23T10:37:31Z</time>
      </trkpt>
      <trkpt lat="39.0350190" lon="1.6112080">
        <ele>10.1</ele>
        <time>2020-02-23T10:37:32Z</time>
      </trkpt>
      <trkpt lat="39.0350170" lon="1.6112100">
        <ele>10.1</ele>
        <time>2020-02-23T10:37:33Z</time>
      </trkpt>
      <trkpt lat="39.0350160" lon="1.6112110">
        <ele>10.1</ele>
        <time>2020-02-23T10:37:34Z</time>
      </trkpt>
      <trkpt lat="39.0350070" lon="1.6112130">
        <ele>10.1</ele>
        <time>2020-02-23T10:37:35Z</time>
      </trkpt>
      <trkpt lat="39.0350010" lon="1.6112140">
        <ele>10.1</ele>
        <time>2020-02-23T10:37:36Z</time>
      </trkpt>
      <trkpt lat="39.0350060" lon="1.6111900">
        <ele>10.0</ele>
        <time>2020-02-23T10:37:37Z</time>
      </trkpt>
      <trkpt lat="39.0350150" lon="1.6111620">
        <ele>10.0</ele>
        <time>2020-02-23T10:37:38Z</time>
      </trkpt>
      <trkpt lat="39.0350250" lon="1.6111350">
        <ele>9.9</ele>
        <time>2020-02-23T10:39:11Z</time>
      </trkpt>
      <trkpt lat="39.0350340" lon="1.6111070">
        <ele>9.8</ele>
        <time>2020-02-23T10:39:12Z</time>
      </trkpt>
      <trkpt lat="39.0350270" lon="1.6110620">
        <ele>9.7</ele>
        <time>2020-02-23T10:39:13Z</time>
      </trkpt>
      <trkpt lat="39.0350240" lon="1.6110500">
        <ele>9.7</ele>
        <time>2020-02-23T10:39:14Z</time>
      </trkpt>
      <trkpt lat="39.0350150" lon="1.6110030">
        <ele>9.6</ele>
        <time>2020-02-23T10:39:15Z</time>
      </trkpt>
      <trkpt lat="39.0350100" lon="1.6109840">
        <ele>9.6</ele>
        <time>2020-02-23T10:39:16Z</time>
      </trkpt>
      <trkpt lat="39.0349980" lon="1.6109360">
        <ele>9.5</ele>
        <time>2020-02-23T10:39:17Z</time>
      </trkpt>
      <trkpt lat="39.0349930" lon="1.6109180">
        <ele>9.4</ele>
        <time>2020-02-23T10:39:18Z</time>
      </trkpt>
      <trkpt lat="39.0349790" lon="1.6108670">
        <ele>9.3</ele>
        <time>2020-02-23T10:39:19Z</time>
      </trkpt>
      <trkpt lat="39.0349740" lon="1.6108480">
        <ele>9.3</ele>
        <time>2020-02-23T10:39:20Z</time>
      </trkpt>
      <trkpt lat="39.0349610" lon="1.6108100">
        <ele>9.2</ele>
        <time>2020-02-23T10:39:21Z</time>
      </trkpt>
      <trkpt lat="39.0349490" lon="1.6107720">
        <ele>9.1</ele>
        <time>2020-02-23T10:39:22Z</time>
      </trkpt>
      <trkpt lat="39.0349410" lon="1.6107390">
        <ele>9.1</ele>
        <time>2020-02-23T10:39:23Z</time>
      </trkpt>
      <trkpt lat="39.0349320" lon="1.6106950">
        <ele>9.0</ele>
        <time>2020-02-23T10:39:24Z</time>
      </trkpt>
      <trkpt lat="39.0349220" lon="1.6106540">
        <ele>8.9</ele>
        <time>2020-02-23T10:39:25Z</time>
      </trkpt>
      <trkpt lat="39.0349120" lon="1.6106120">
        <ele>8.8</ele>
        <time>2020-02-23T10:39:26Z</time>
      </trkpt>
      <trkpt lat="39.0349030" lon="1.6105750">
        <ele>8.8</ele>
        <time>2020-02-23T10:39:27Z</time>
      </trkpt>
      <trkpt lat="39.0348910" lon="1.6105400">
        <ele>8.8</ele>
        <time>2020-02-23T10:39:28Z</time>
      </trkpt>
      <trkpt lat="39.0348740" lon="1.6104960">
        <ele>8.8</ele>
        <time>2020-02-23T10:39:29Z</time>
      </trkpt>
      <trkpt lat="39.0348550" lon="1.6104430">
        <ele>8.7</ele>
        <time>2020-02-23T10:39:30Z</time>
      </trkpt>
      <trkpt lat="39.0348380" lon="1.6103970">
        <ele>8.6</ele>
        <time>2020-02-23T10:39:31Z</time>
      </trkpt>
      <trkpt lat="39.0348240" lon="1.6103530">
        <ele>8.5</ele>
        <time>2020-02-23T10:39:32Z</time>
      </trkpt>
      <trkpt lat="39.0348070" lon="1.6103050">
        <ele>8.6</ele>
        <time>2020-02-23T10:39:33Z</time>
      </trkpt>
      <trkpt lat="39.0347790" lon="1.6102680">
        <ele>8.6</ele>
        <time>2020-02-23T10:39:34Z</time>
      </trkpt>
      <trkpt lat="39.0347530" lon="1.6102280">
        <ele>8.6</ele>
        <time>2020-02-23T10:39:35Z</time>
      </trkpt>
      <trkpt lat="39.0347340" lon="1.6101750">
        <ele>8.5</ele>
        <time>2020-02-23T10:39:36Z</time>
      </trkpt>
      <trkpt lat="39.0347080" lon="1.6101340">
        <ele>8.5</ele>
        <time>2020-02-23T10:39:37Z</time>
      </trkpt>
      <trkpt lat="39.0346850" lon="1.6100880">
        <ele>8.5</ele>
        <time>2020-02-23T10:39:38Z</time>
      </trkpt>
      <trkpt lat="39.0346610" lon="1.6100510">
        <ele>8.6</ele>
        <time>2020-02-23T10:39:39Z</time>
      </trkpt>
      <trkpt lat="39.0346400" lon="1.6100150">
        <ele>8.6</ele>
        <time>2020-02-23T10:39:40Z</time>
      </trkpt>
      <trkpt lat="39.0346170" lon="1.6099780">
        <ele>8.6</ele>
        <time>2020-02-23T10:39:41Z</time>
      </trkpt>
      <trkpt lat="39.0345930" lon="1.6099330">
        <ele>8.7</ele>
        <time>2020-02-23T10:39:42Z</time>
      </trkpt>
      <trkpt lat="39.0345750" lon="1.6098830">
        <ele>8.7</ele>
        <time>2020-02-23T10:39:43Z</time>
      </trkpt>
      <trkpt lat="39.0345630" lon="1.6098340">
        <ele>8.8</ele>
        <time>2020-02-23T10:39:44Z</time>
      </trkpt>
      <trkpt lat="39.0345530" lon="1.6097900">
        <ele>8.8</ele>
        <time>2020-02-23T10:39:45Z</time>
      </trkpt>
      <trkpt lat="39.0345480" lon="1.6097490">
        <ele>8.8</ele>
        <time>2020-02-23T10:39:46Z</time>
      </trkpt>
      <trkpt lat="39.0345380" lon="1.6096980">
        <ele>8.9</ele>
        <time>2020-02-23T10:39:47Z</time>
      </trkpt>
      <trkpt lat="39.0345260" lon="1.6096460">
        <ele>8.9</ele>
        <time>2020-02-23T10:39:48Z</time>
      </trkpt>
      <trkpt lat="39.0345170" lon="1.6095910">
        <ele>8.8</ele>
        <time>2020-02-23T10:39:49Z</time>
      </trkpt>
      <trkpt lat="39.0345050" lon="1.6095460">
        <ele>8.8</ele>
        <time>2020-02-23T10:39:50Z</time>
      </trkpt>
      <trkpt lat="39.0345060" lon="1.6095290">
        <ele>8.7</ele>
        <time>2020-02-23T10:39:51Z</time>
      </trkpt>
      <trkpt lat="39.0345100" lon="1.6095240">
        <ele>8.7</ele>
        <time>2020-02-23T10:39:52Z</time>
      </trkpt>
      <trkpt lat="39.0345290" lon="1.6095220">
        <ele>8.7</ele>
        <time>2020-02-23T10:39:53Z</time>
      </trkpt>
      <trkpt lat="39.0345600" lon="1.6095000">
        <ele>8.5</ele>
        <time>2020-02-23T10:39:54Z</time>
      </trkpt>
      <trkpt lat="39.0345680" lon="1.6094890">
        <ele>8.5</ele>
        <time>2020-02-23T10:39:55Z</time>
      </trkpt>
      <trkpt lat="39.0345870" lon="1.6094550">
        <ele>8.5</ele>
        <time>2020-02-23T10:39:56Z</time>
      </trkpt>
      <trkpt lat="39.0345930" lon="1.6094420">
        <ele>8.5</ele>
        <time>2020-02-23T10:39:57Z</time>
      </trkpt>
      <trkpt lat="39.0346040" lon="1.6094360">
        <ele>8.5</ele>
        <time>2020-02-23T10:39:58Z</time>
      </trkpt>
      <trkpt lat="39.0346080" lon="1.6094410">
        <ele>8.5</ele>
        <time>2020-02-23T10:39:59Z</time>
      </trkpt>
      <trkpt lat="39.0346130" lon="1.6094620">
        <ele>8.4</ele>
        <time>2020-02-23T10:40:00Z</time>
      </trkpt>
      <trkpt lat="39.0346110" lon="1.6094640">
        <ele>8.4</ele>
        <time>2020-02-23T10:40:01Z</time>
      </trkpt>
      <trkpt lat="39.0346120" lon="1.6094780">
        <ele>8.4</ele>
        <time>2020-02-23T10:40:02Z</time>
      </trkpt>
      <trkpt lat="39.0346080" lon="1.6094810">
        <ele>8.4</ele>
        <time>2020-02-23T10:40:03Z</time>
      </trkpt>
      <trkpt lat="39.0346020" lon="1.6094810">
        <ele>8.4</ele>
        <time>2020-02-23T10:40:04Z</time>
      </trkpt>
      <trkpt lat="39.0345970" lon="1.6094820">
        <ele>8.4</ele>
        <time>2020-02-23T10:40:05Z</time>
      </trkpt>
      <trkpt lat="39.0345920" lon="1.6094820">
        <ele>8.4</ele>
        <time>2020-02-23T10:40:06Z</time>
      </trkpt>
      <trkpt lat="39.0345870" lon="1.6094830">
        <ele>8.4</ele>
        <time>2020-02-23T10:40:07Z</time>
      </trkpt>
      <trkpt lat="39.0345810" lon="1.6094830">
        <ele>8.4</ele>
        <time>2020-02-23T10:40:08Z</time>
      </trkpt>
      <trkpt lat="39.0345760" lon="1.6094840">
        <ele>8.3</ele>
        <time>2020-02-23T10:40:09Z</time>
      </trkpt>
      <trkpt lat="39.0345710" lon="1.6094840">
        <ele>8.3</ele>
        <time>2020-02-23T10:42:31Z</time>
      </trkpt>
      <trkpt lat="39.0345660" lon="1.6094850">
        <ele>8.3</ele>
        <time>2020-02-23T10:42:32Z</time>
      </trkpt>
      <trkpt lat="39.0345600" lon="1.6094850">
        <ele>8.3</ele>
        <time>2020-02-23T10:42:33Z</time>
      </trkpt>
      <trkpt lat="39.0345550" lon="1.6094860">
        <ele>8.3</ele>
        <time>2020-02-23T10:42:34Z</time>
      </trkpt>
      <trkpt lat="39.0345390" lon="1.6095010">
        <ele>8.3</ele>
        <time>2020-02-23T10:42:35Z</time>
      </trkpt>
      <trkpt lat="39.0345320" lon="1.6095090">
        <ele>8.3</ele>
        <time>2020-02-23T10:42:36Z</time>
      </trkpt>
      <trkpt lat="39.0345240" lon="1.6095170">
        <ele>8.3</ele>
        <time>2020-02-23T10:42:37Z</time>
      </trkpt>
      <trkpt lat="39.0344950" lon="1.6095120">
        <ele>8.3</ele>
        <time>2020-02-23T10:42:38Z</time>
      </trkpt>
      <trkpt lat="39.0344850" lon="1.6095060">
        <ele>8.3</ele>
        <time>2020-02-23T10:42:39Z</time>
      </trkpt>
      <trkpt lat="39.0344780" lon="1.6094870">
        <ele>8.3</ele>
        <time>2020-02-23T10:42:40Z</time>
      </trkpt>
      <trkpt lat="39.0344730" lon="1.6094720">
        <ele>8.3</ele>
        <time>2020-02-23T10:42:41Z</time>
      </trkpt>
      <trkpt lat="39.0344690" lon="1.6094580">
        <ele>8.4</ele>
        <time>2020-02-23T10:42:42Z</time>
      </trkpt>
      <trkpt lat="39.0344580" lon="1.6094240">
        <ele>8.4</ele>
        <time>2020-02-23T10:42:43Z</time>
      </trkpt>
      <trkpt lat="39.0344550" lon="1.6094140">
        <ele>8.4</ele>
        <time>2020-02-23T10:42:44Z</time>
      </trkpt>
      <trkpt lat="39.0344470" lon="1.6093670">
        <ele>8.4</ele>
        <time>2020-02-23T10:42:45Z</time>
      </trkpt>
      <trkpt lat="39.0344460" lon="1.6093480">
        <ele>8.4</ele>
        <time>2020-02-23T10:42:46Z</time>
      </trkpt>
      <trkpt lat="39.0344550" lon="1.6093100">
        <ele>8.4</ele>
        <time>2020-02-23T10:42:47Z</time>
      </trkpt>
      <trkpt lat="39.0344580" lon="1.6092930">
        <ele>8.4</ele>
        <time>2020-02-23T10:42:48Z</time>
      </trkpt>
      <trkpt lat="39.0344630" lon="1.6092560">
        <ele>8.3</ele>
        <time>2020-02-23T10:42:49Z</time>
      </trkpt>
      <trkpt lat="39.0344580" lon="1.6092170">
        <ele>8.3</ele>
        <time>2020-02-23T10:42:50Z</time>
      </trkpt>
      <trkpt lat="39.0344610" lon="1.6091770">
        <ele>8.3</ele>
        <time>2020-02-23T10:42:51Z</time>
      </trkpt>
      <trkpt lat="39.0344600" lon="1.6091370">
        <ele>8.3</ele>
        <time>2020-02-23T10:42:52Z</time>
      </trkpt>
      <trkpt lat="39.0344630" lon="1.6090890">
        <ele>8.3</ele>
        <time>2020-02-23T10:42:53Z</time>
      </trkpt>
      <trkpt lat="39.0344700" lon="1.6090440">
        <ele>8.3</ele>
        <time>2020-02-23T10:42:54Z</time>
      </trkpt>
      <trkpt lat="39.0344740" lon="1.6090100">
        <ele>8.3</ele>
        <time>2020-02-23T10:42:55Z</time>
      </trkpt>
      <trkpt lat="39.0344700" lon="1.6089750">
        <ele>8.3</ele>
        <time>2020-02-23T10:42:56Z</time>
      </trkpt>
      <trkpt lat="39.0344790" lon="1.6089220">
        <ele>8.3</ele>
        <time>2020-02-23T10:42:57Z</time>
      </trkpt>
      <trkpt lat="39.0344810" lon="1.6089020">
        <ele>8.3</ele>
        <time>2020-02-23T10:42:58Z</time>
      </trkpt>
      <trkpt lat="39.0344820" lon="1.6088570">
        <ele>8.3</ele>
        <time>2020-02-23T10:42:59Z</time>
      </trkpt>
      <trkpt lat="39.0344780" lon="1.6088230">
        <ele>8.2</ele>
        <time>2020-02-23T10:43:00Z</time>
      </trkpt>
      <trkpt lat="39.0344870" lon="1.6087710">
        <ele>8.2</ele>
        <time>2020-02-23T10:43:01Z</time>
      </trkpt>
      <trkpt lat="39.0344810" lon="1.6087270">
        <ele>8.2</ele>
        <time>2020-02-23T10:43:02Z</time>
      </trkpt>
      <trkpt lat="39.0344770" lon="1.6086810">
        <ele>8.2</ele>
        <time>2020-02-23T10:43:03Z</time>
      </trkpt>
      <trkpt lat="39.0344590" lon="1.6086320">
        <ele>8.2</ele>
        <time>2020-02-23T10:43:04Z</time>
      </trkpt>
      <trkpt lat="39.0344550" lon="1.6086130">
        <ele>8.2</ele>
        <time>2020-02-23T10:43:05Z</time>
      </trkpt>
      <trkpt lat="39.0344520" lon="1.6085680">
        <ele>8.2</ele>
        <time>2020-02-23T10:43:06Z</time>
      </trkpt>
      <trkpt lat="39.0344510" lon="1.6085280">
        <ele>8.2</ele>
        <time>2020-02-23T10:43:07Z</time>
      </trkpt>
      <trkpt lat="39.0344630" lon="1.6084760">
        <ele>8.1</ele>
        <time>2020-02-23T10:43:08Z</time>
      </trkpt>
      <trkpt lat="39.0344860" lon="1.6084140">
        <ele>8.1</ele>
        <time>2020-02-23T10:43:09Z</time>
      </trkpt>
      <trkpt lat="39.0345260" lon="1.6083390">
        <ele>8.1</ele>
        <time>2020-02-23T10:43:10Z</time>
      </trkpt>
      <trkpt lat="39.0345760" lon="1.6082620">
        <ele>8.1</ele>
        <time>2020-02-23T10:43:11Z</time>
      </trkpt>
      <trkpt lat="39.0346390" lon="1.6081680">
        <ele>8.4</ele>
        <time>2020-02-23T10:43:12Z</time>
      </trkpt>
      <trkpt lat="39.0347100" lon="1.6080800">
        <ele>8.7</ele>
        <time>2020-02-23T10:43:13Z</time>
      </trkpt>
      <trkpt lat="39.0347710" lon="1.6079950">
        <ele>9.1</ele>
        <time>2020-02-23T10:43:14Z</time>
      </trkpt>
      <trkpt lat="39.0348180" lon="1.6079430">
        <ele>9.3</ele>
        <time>2020-02-23T10:43:15Z</time>
      </trkpt>
      <trkpt lat="39.0348570" lon="1.6078830">
        <ele>9.5</ele>
        <time>2020-02-23T10:43:16Z</time>
      </trkpt>
      <trkpt lat="39.0348870" lon="1.6078500">
        <ele>9.7</ele>
        <time>2020-02-23T10:43:17Z</time>
      </trkpt>
      <trkpt lat="39.0349080" lon="1.6078290">
        <ele>9.8</ele>
        <time>2020-02-23T10:43:18Z</time>
      </trkpt>
      <trkpt lat="39.0349330" lon="1.6078010">
        <ele>9.9</ele>
        <time>2020-02-23T10:43:19Z</time>
      </trkpt>
      <trkpt lat="39.0349590" lon="1.6077650">
        <ele>10.0</ele>
        <time>2020-02-23T10:43:20Z</time>
      </trkpt>
      <trkpt lat="39.0349670" lon="1.6077550">
        <ele>10.1</ele>
        <time>2020-02-23T10:43:21Z</time>
      </trkpt>
      <trkpt lat="39.0349970" lon="1.6077320">
        <ele>10.2</ele>
        <time>2020-02-23T10:43:22Z</time>
      </trkpt>
      <trkpt lat="39.0350240" lon="1.6077200">
        <ele>10.3</ele>
        <time>2020-02-23T10:43:23Z</time>
      </trkpt>
      <trkpt lat="39.0350330" lon="1.6077130">
        <ele>10.3</ele>
        <time>2020-02-23T10:43:24Z</time>
      </trkpt>
      <trkpt lat="39.0350670" lon="1.6076830">
        <ele>10.5</ele>
        <time>2020-02-23T10:43:25Z</time>
      </trkpt>
      <trkpt lat="39.0350800" lon="1.6076760">
        <ele>10.5</ele>
        <time>2020-02-23T10:43:26Z</time>
      </trkpt>
      <trkpt lat="39.0351080" lon="1.6076510">
        <ele>10.6</ele>
        <time>2020-02-23T10:43:27Z</time>
      </trkpt>
      <trkpt lat="39.0351180" lon="1.6076410">
        <ele>10.7</ele>
        <time>2020-02-23T10:43:28Z</time>
      </trkpt>
      <trkpt lat="39.0351520" lon="1.6076060">
        <ele>10.8</ele>
        <time>2020-02-23T10:43:29Z</time>
      </trkpt>
      <trkpt lat="39.0351820" lon="1.6075790">
        <ele>10.9</ele>
        <time>2020-02-23T10:43:30Z</time>
      </trkpt>
      <trkpt lat="39.0352110" lon="1.6075540">
        <ele>11.0</ele>
        <time>2020-02-23T10:43:31Z</time>
      </trkpt>
      <trkpt lat="39.0352190" lon="1.6075480">
        <ele>11.0</ele>
        <time>2020-02-23T10:43:32Z</time>
      </trkpt>
      <trkpt lat="39.0352490" lon="1.6075350">
        <ele>11.1</ele>
        <time>2020-02-23T10:43:33Z</time>
      </trkpt>
      <trkpt lat="39.0352630" lon="1.6075330">
        <ele>11.1</ele>
        <time>2020-02-23T10:43:34Z</time>
      </trkpt>
      <trkpt lat="39.0352920" lon="1.6075390">
        <ele>11.1</ele>
        <time>2020-02-23T10:43:35Z</time>
      </trkpt>
      <trkpt lat="39.0353180" lon="1.6075530">
        <ele>11.2</ele>
        <time>2020-02-23T10:43:36Z</time>
      </trkpt>
      <trkpt lat="39.0353420" lon="1.6075780">
        <ele>11.2</ele>
        <time>2020-02-23T10:43:37Z</time>
      </trkpt>
      <trkpt lat="39.0353780" lon="1.6075930">
        <ele>11.3</ele>
        <time>2020-02-23T10:43:38Z</time>
      </trkpt>
      <trkpt lat="39.0353890" lon="1.6075960">
        <ele>11.4</ele>
        <time>2020-02-23T10:43:39Z</time>
      </trkpt>
      <trkpt lat="39.0354120" lon="1.6075730">
        <ele>11.4</ele>
        <time>2020-02-23T10:43:40Z</time>
      </trkpt>
      <trkpt lat="39.0354170" lon="1.6075600">
        <ele>11.5</ele>
        <time>2020-02-23T10:43:41Z</time>
      </trkpt>
      <trkpt lat="39.0354100" lon="1.6075170">
        <ele>11.6</ele>
        <time>2020-02-23T10:43:42Z</time>
      </trkpt>
      <trkpt lat="39.0353980" lon="1.6074810">
        <ele>11.6</ele>
        <time>2020-02-23T10:43:43Z</time>
      </trkpt>
      <trkpt lat="39.0353900" lon="1.6074440">
        <ele>11.7</ele>
        <time>2020-02-23T10:43:44Z</time>
      </trkpt>
      <trkpt lat="39.0353810" lon="1.6074290">
        <ele>11.7</ele>
        <time>2020-02-23T10:43:45Z</time>
      </trkpt>
      <trkpt lat="39.0353750" lon="1.6074130">
        <ele>11.8</ele>
        <time>2020-02-23T10:43:46Z</time>
      </trkpt>
      <trkpt lat="39.0353680" lon="1.6073710">
        <ele>11.8</ele>
        <time>2020-02-23T10:43:47Z</time>
      </trkpt>
      <trkpt lat="39.0353680" lon="1.6073600">
        <ele>11.9</ele>
        <time>2020-02-23T10:43:48Z</time>
      </trkpt>
      <trkpt lat="39.0353690" lon="1.6073080">
        <ele>11.9</ele>
        <time>2020-02-23T10:43:49Z</time>
      </trkpt>
      <trkpt lat="39.0353740" lon="1.6072550">
        <ele>12.0</ele>
        <time>2020-02-23T10:43:50Z</time>
      </trkpt>
      <trkpt lat="39.0353760" lon="1.6072300">
        <ele>12.0</ele>
        <time>2020-02-23T10:43:51Z</time>
      </trkpt>
      <trkpt lat="39.0353810" lon="1.6071790">
        <ele>12.1</ele>
        <time>2020-02-23T10:43:52Z</time>
      </trkpt>
      <trkpt lat="39.0353870" lon="1.6071270">
        <ele>12.1</ele>
        <time>2020-02-23T10:43:53Z</time>
      </trkpt>
      <trkpt lat="39.0353880" lon="1.6070720">
        <ele>12.1</ele>
        <time>2020-02-23T10:43:54Z</time>
      </trkpt>
      <trkpt lat="39.0353900" lon="1.6070510">
        <ele>12.1</ele>
        <time>2020-02-23T10:43:55Z</time>
      </trkpt>
      <trkpt lat="39.0353870" lon="1.6070150">
        <ele>12.1</ele>
        <time>2020-02-23T10:43:56Z</time>
      </trkpt>
      <trkpt lat="39.0353870" lon="1.6069750">
        <ele>12.2</ele>
        <time>2020-02-23T10:43:57Z</time>
      </trkpt>
      <trkpt lat="39.0353870" lon="1.6069250">
        <ele>12.2</ele>
        <time>2020-02-23T10:43:58Z</time>
      </trkpt>
      <trkpt lat="39.0353890" lon="1.6068780">
        <ele>12.2</ele>
        <time>2020-02-23T10:43:59Z</time>
      </trkpt>
      <trkpt lat="39.0353890" lon="1.6068650">
        <ele>12.2</ele>
        <time>2020-02-23T10:44:00Z</time>
      </trkpt>
      <trkpt lat="39.0353870" lon="1.6068510">
        <ele>12.2</ele>
        <time>2020-02-23T10:44:01Z</time>
      </trkpt>
      <trkpt lat="39.0353880" lon="1.6068410">
        <ele>12.2</ele>
        <time>2020-02-23T10:44:02Z</time>
      </trkpt>
      <trkpt lat="39.0353880" lon="1.6068360">
        <ele>12.2</ele>
        <time>2020-02-23T10:44:03Z</time>
      </trkpt>
      <trkpt lat="39.0354030" lon="1.6068380">
        <ele>12.2</ele>
        <time>2020-02-23T10:44:04Z</time>
      </trkpt>
      <trkpt lat="39.0354250" lon="1.6068560">
        <ele>11.6</ele>
        <time>2020-02-23T10:44:05Z</time>
      </trkpt>
      <trkpt lat="39.0354590" lon="1.6068720">
        <ele>11.4</ele>
        <time>2020-02-23T10:44:06Z</time>
      </trkpt>
      <trkpt lat="39.0354930" lon="1.6068930">
        <ele>11.2</ele>
        <time>2020-02-23T10:44:07Z</time>
      </trkpt>
      <trkpt lat="39.0355240" lon="1.6069090">
        <ele>11.0</ele>
        <time>2020-02-23T10:44:08Z</time>
      </trkpt>
      <trkpt lat="39.0355580" lon="1.6069200">
        <ele>10.8</ele>
        <time>2020-02-23T10:44:09Z</time>
      </trkpt>
      <trkpt lat="39.0355930" lon="1.6069200">
        <ele>10.6</ele>
        <time>2020-02-23T10:44:10Z</time>
      </trkpt>
      <trkpt lat="39.0356240" lon="1.6069210">
        <ele>10.4</ele>
        <time>2020-02-23T10:44:11Z</time>
      </trkpt>
      <trkpt lat="39.0356690" lon="1.6069230">
        <ele>10.0</ele>
        <time>2020-02-23T10:44:12Z</time>
      </trkpt>
      <trkpt lat="39.0357170" lon="1.6069330">
        <ele>9.7</ele>
        <time>2020-02-23T10:44:13Z</time>
      </trkpt>
      <trkpt lat="39.0357680" lon="1.6069390">
        <ele>9.4</ele>
        <time>2020-02-23T10:44:14Z</time>
      </trkpt>
      <trkpt lat="39.0358110" lon="1.6069350">
        <ele>9.1</ele>
        <time>2020-02-23T10:44:15Z</time>
      </trkpt>
      <trkpt lat="39.0358490" lon="1.6069190">
        <ele>8.8</ele>
        <time>2020-02-23T10:44:16Z</time>
      </trkpt>
      <trkpt lat="39.0358860" lon="1.6069140">
        <ele>8.6</ele>
        <time>2020-02-23T10:44:17Z</time>
      </trkpt>
      <trkpt lat="39.0359240" lon="1.6069100">
        <ele>8.3</ele>
        <time>2020-02-23T10:44:18Z</time>
      </trkpt>
      <trkpt lat="39.0359790" lon="1.6069100">
        <ele>7.8</ele>
        <time>2020-02-23T10:44:19Z</time>
      </trkpt>
      <trkpt lat="39.0360290" lon="1.6069090">
        <ele>7.3</ele>
        <time>2020-02-23T10:44:20Z</time>
      </trkpt>
      <trkpt lat="39.0360730" lon="1.6069090">
        <ele>6.9</ele>
        <time>2020-02-23T10:44:21Z</time>
      </trkpt>
      <trkpt lat="39.0361100" lon="1.6069130">
        <ele>6.5</ele>
        <time>2020-02-23T10:44:22Z</time>
      </trkpt>
      <trkpt lat="39.0361470" lon="1.6069250">
        <ele>6.1</ele>
        <time>2020-02-23T10:44:23Z</time>
      </trkpt>
      <trkpt lat="39.0361910" lon="1.6069390">
        <ele>5.7</ele>
        <time>2020-02-23T10:44:24Z</time>
      </trkpt>
      <trkpt lat="39.0362230" lon="1.6069490">
        <ele>5.3</ele>
        <time>2020-02-23T10:44:25Z</time>
      </trkpt>
      <trkpt lat="39.0362530" lon="1.6069590">
        <ele>5.0</ele>
        <time>2020-02-23T10:44:26Z</time>
      </trkpt>
      <trkpt lat="39.0362860" lon="1.6069730">
        <ele>4.7</ele>
        <time>2020-02-23T10:44:27Z</time>
      </trkpt>
      <trkpt lat="39.0363160" lon="1.6070180">
        <ele>4.1</ele>
        <time>2020-02-23T10:44:28Z</time>
      </trkpt>
      <trkpt lat="39.0363270" lon="1.6070530">
        <ele>3.7</ele>
        <time>2020-02-23T10:44:29Z</time>
      </trkpt>
      <trkpt lat="39.0363300" lon="1.6070780">
        <ele>3.4</ele>
        <time>2020-02-23T10:44:30Z</time>
      </trkpt>
      <trkpt lat="39.0363400" lon="1.6070940">
        <ele>3.2</ele>
        <time>2020-02-23T10:44:31Z</time>
      </trkpt>
      <trkpt lat="39.0363750" lon="1.6070960">
        <ele>2.4</ele>
        <time>2020-02-23T10:44:32Z</time>
      </trkpt>
      <trkpt lat="39.0364000" lon="1.6070980">
        <ele>2.1</ele>
        <time>2020-02-23T10:44:33Z</time>
      </trkpt>
      <trkpt lat="39.0364120" lon="1.6071030">
        <ele>2.0</ele>
        <time>2020-02-23T10:44:34Z</time>
      </trkpt>
      <trkpt lat="39.0364370" lon="1.6070830">
        <ele>1.6</ele>
        <time>2020-02-23T10:44:35Z</time>
      </trkpt>
      <trkpt lat="39.0364480" lon="1.6070710">
        <ele>1.4</ele>
        <time>2020-02-23T10:44:36Z</time>
      </trkpt>
      <trkpt lat="39.0364720" lon="1.6070440">
        <ele>1.1</ele>
        <time>2020-02-23T10:44:37Z</time>
      </trkpt>
      <trkpt lat="39.0365020" lon="1.6070240">
        <ele>0.6</ele>
        <time>2020-02-23T10:44:38Z</time>
      </trkpt>
      <trkpt lat="39.0365370" lon="1.6070000">
        <ele>0.1</ele>
        <time>2020-02-23T10:44:39Z</time>
      </trkpt>
      <trkpt lat="39.0365500" lon="1.6069940">
        <ele>-0.1</ele>
        <time>2020-02-23T10:44:40Z</time>
      </trkpt>
      <trkpt lat="39.0365860" lon="1.6069980">
        <ele>-0.5</ele>
        <time>2020-02-23T10:44:41Z</time>
      </trkpt>
      <trkpt lat="39.0366270" lon="1.6070140">
        <ele>-0.9</ele>
        <time>2020-02-23T10:44:42Z</time>
      </trkpt>
      <trkpt lat="39.0366420" lon="1.6070220">
        <ele>-1.1</ele>
        <time>2020-02-23T10:44:43Z</time>
      </trkpt>
      <trkpt lat="39.0366780" lon="1.6070400">
        <ele>-1.2</ele>
        <time>2020-02-23T10:44:44Z</time>
      </trkpt>
      <trkpt lat="39.0366930" lon="1.6070470">
        <ele>-1.3</ele>
        <time>2020-02-23T10:44:45Z</time>
      </trkpt>
      <trkpt lat="39.0367370" lon="1.6070750">
        <ele>-1.5</ele>
        <time>2020-02-23T10:44:46Z</time>
      </trkpt>
      <trkpt lat="39.0367570" lon="1.6070860">
        <ele>-1.5</ele>
        <time>2020-02-23T10:44:47Z</time>
      </trkpt>
      <trkpt lat="39.0367950" lon="1.6071060">
        <ele>-1.5</ele>
        <time>2020-02-23T10:44:48Z</time>
      </trkpt>
      <trkpt lat="39.0368310" lon="1.6071290">
        <ele>-1.5</ele>
        <time>2020-02-23T10:44:49Z</time>
      </trkpt>
      <trkpt lat="39.0368620" lon="1.6071480">
        <ele>-1.5</ele>
        <time>2020-02-23T10:44:50Z</time>
      </trkpt>
      <trkpt lat="39.0368910" lon="1.6071590">
        <ele>-1.5</ele>
        <time>2020-02-23T10:44:51Z</time>
      </trkpt>
      <trkpt lat="39.0369230" lon="1.6071670">
        <ele>-1.5</ele>
        <time>2020-02-23T10:44:52Z</time>
      </trkpt>
      <trkpt lat="39.0369570" lon="1.6071800">
        <ele>-1.5</ele>
        <time>2020-02-23T10:44:53Z</time>
      </trkpt>
      <trkpt lat="39.0369690" lon="1.6071870">
        <ele>-1.5</ele>
        <time>2020-02-23T10:44:54Z</time>
      </trkpt>
      <trkpt lat="39.0370040" lon="1.6072100">
        <ele>-1.5</ele>
        <time>2020-02-23T10:44:55Z</time>
      </trkpt>
      <trkpt lat="39.0370350" lon="1.6072200">
        <ele>-1.4</ele>
        <time>2020-02-23T10:44:56Z</time>
      </trkpt>
      <trkpt lat="39.0370570" lon="1.6072440">
        <ele>-1.3</ele>
        <time>2020-02-23T10:44:57Z</time>
      </trkpt>
      <trkpt lat="39.0370670" lon="1.6072540">
        <ele>-1.3</ele>
        <time>2020-02-23T10:44:58Z</time>
      </trkpt>
      <trkpt lat="39.0370730" lon="1.6072590">
        <ele>-1.3</ele>
        <time>2020-02-23T10:44:59Z</time>
      </trkpt>
      <trkpt lat="39.0370780" lon="1.6072690">
        <ele>-1.3</ele>
        <time>2020-02-23T10:45:00Z</time>
      </trkpt>
      <trkpt lat="39.0371100" lon="1.6072830">
        <ele>-1.2</ele>
        <time>2020-02-23T10:45:01Z</time>
      </trkpt>
      <trkpt lat="39.0371200" lon="1.6072860">
        <ele>-1.1</ele>
        <time>2020-02-23T10:45:02Z</time>
      </trkpt>
      <trkpt lat="39.0371360" lon="1.6072880">
        <ele>-1.1</ele>
        <time>2020-02-23T10:45:03Z</time>
      </trkpt>
      <trkpt lat="39.0371430" lon="1.6073050">
        <ele>-1.1</ele>
        <time>2020-02-23T10:45:04Z</time>
      </trkpt>
      <trkpt lat="39.0371470" lon="1.6073190">
        <ele>-1.0</ele>
        <time>2020-02-23T10:45:05Z</time>
      </trkpt>
      <trkpt lat="39.0371500" lon="1.6073310">
        <ele>-1.0</ele>
        <time>2020-02-23T10:45:06Z</time>
      </trkpt>
      <trkpt lat="39.0371540" lon="1.6073420">
        <ele>-1.0</ele>
        <time>2020-02-23T10:45:07Z</time>
      </trkpt>
      <trkpt lat="39.0371570" lon="1.6073540">
        <ele>-1.0</ele>
        <time>2020-02-23T10:45:08Z</time>
      </trkpt>
      <trkpt lat="39.0371650" lon="1.6073730">
        <ele>-0.9</ele>
        <time>2020-02-23T10:45:09Z</time>
      </trkpt>
      <trkpt lat="39.0371650" lon="1.6073720">
        <ele>-0.9</ele>
        <time>2020-02-23T10:45:10Z</time>
      </trkpt>
      <trkpt lat="39.0371640" lon="1.6073920">
        <ele>-0.8</ele>
        <time>2020-02-23T10:45:11Z</time>
      </trkpt>
      <trkpt lat="39.0371480" lon="1.6073790">
        <ele>-0.6</ele>
        <time>2020-02-23T10:45:12Z</time>
      </trkpt>
      <trkpt lat="39.0371530" lon="1.6073830">
        <ele>-0.6</ele>
        <time>2020-02-23T10:45:13Z</time>
      </trkpt>
      <trkpt lat="39.0371590" lon="1.6073820">
        <ele>-0.5</ele>
        <time>2020-02-23T10:45:14Z</time>
      </trkpt>
      <trkpt lat="39.0371610" lon="1.6073750">
        <ele>-0.5</ele>
        <time>2020-02-23T10:45:15Z</time>
      </trkpt>
      <trkpt lat="39.0371670" lon="1.6073780">
        <ele>-0.4</ele>
        <time>2020-02-23T10:45:16Z</time>
      </trkpt>
      <trkpt lat="39.0371730" lon="1.6073760">
        <ele>-0.4</ele>
        <time>2020-02-23T10:45:17Z</time>
      </trkpt>
      <trkpt lat="39.0371790" lon="1.6073650">
        <ele>-0.3</ele>
        <time>2020-02-23T10:45:18Z</time>
      </trkpt>
      <trkpt lat="39.0371830" lon="1.6073600">
        <ele>-0.2</ele>
        <time>2020-02-23T10:45:19Z</time>
      </trkpt>
      <trkpt lat="39.0371880" lon="1.6073550">
        <ele>-0.2</ele>
        <time>2020-02-23T10:45:20Z</time>
      </trkpt>
      <trkpt lat="39.0371910" lon="1.6073520">
        <ele>-0.2</ele>
        <time>2020-02-23T10:45:21Z</time>
      </trkpt>
      <trkpt lat="39.0372010" lon="1.6073520">
        <ele>-0.1</ele>
        <time>2020-02-23T10:45:22Z</time>
      </trkpt>
      <trkpt lat="39.0372140" lon="1.6073560">
        <ele>0.0</ele>
        <time>2020-02-23T10:45:23Z</time>
      </trkpt>
      <trkpt lat="39.0372230" lon="1.6073640">
        <ele>0.1</ele>
        <time>2020-02-23T10:45:24Z</time>
      </trkpt>
      <trkpt lat="39.0372300" lon="1.6073700">
        <ele>0.1</ele>
        <time>2020-02-23T10:45:25Z</time>
      </trkpt>
      <trkpt lat="39.0372330" lon="1.6073780">
        <ele>0.2</ele>
        <time>2020-02-23T10:45:26Z</time>
      </trkpt>
      <trkpt lat="39.0372340" lon="1.6073820">
        <ele>0.2</ele>
        <time>2020-02-23T10:45:27Z</time>
      </trkpt>
      <trkpt lat="39.0372350" lon="1.6073800">
        <ele>0.2</ele>
        <time>2020-02-23T10:45:28Z</time>
      </trkpt>
      <trkpt lat="39.0372350" lon="1.6073880">
        <ele>0.2</ele>
        <time>2020-02-23T10:45:29Z</time>
      </trkpt>
      <trkpt lat="39.0372400" lon="1.6074000">
        <ele>0.3</ele>
        <time>2020-02-23T10:45:30Z</time>
      </trkpt>
      <trkpt lat="39.0372410" lon="1.6074070">
        <ele>0.3</ele>
        <time>2020-02-23T10:45:31Z</time>
      </trkpt>
      <trkpt lat="39.0372390" lon="1.6074190">
        <ele>0.4</ele>
        <time>2020-02-23T10:45:32Z</time>
      </trkpt>
      <trkpt lat="39.0372400" lon="1.6074230">
        <ele>0.4</ele>
        <time>2020-02-23T10:45:33Z</time>
      </trkpt>
      <trkpt lat="39.0372440" lon="1.6074310">
        <ele>0.5</ele>
        <time>2020-02-23T10:45:34Z</time>
      </trkpt>
      <trkpt lat="39.0372460" lon="1.6074390">
        <ele>0.5</ele>
        <time>2020-02-23T10:45:35Z</time>
      </trkpt>
      <trkpt lat="39.0372470" lon="1.6074500">
        <ele>0.6</ele>
        <time>2020-02-23T10:45:36Z</time>
      </trkpt>
      <trkpt lat="39.0372510" lon="1.6074570">
        <ele>0.6</ele>
        <time>2020-02-23T10:45:37Z</time>
      </trkpt>
      <trkpt lat="39.0372510" lon="1.6074550">
        <ele>0.6</ele>
        <time>2020-02-23T10:45:38Z</time>
      </trkpt>
      <trkpt lat="39.0372500" lon="1.6074520">
        <ele>0.6</ele>
        <time>2020-02-23T10:45:39Z</time>
      </trkpt>
      <trkpt lat="39.0372500" lon="1.6074520">
        <ele>0.6</ele>
        <time>2020-02-23T10:45:40Z</time>
      </trkpt>
      <trkpt lat="39.0372490" lon="1.6074520">
        <ele>0.7</ele>
        <time>2020-02-23T10:45:41Z</time>
      </trkpt>
      <trkpt lat="39.0372490" lon="1.6074520">
        <ele>0.7</ele>
        <time>2020-02-23T10:45:42Z</time>
      </trkpt>
      <trkpt lat="39.0372490" lon="1.6074520">
        <ele>0.7</ele>
        <time>2020-02-23T10:45:43Z</time>
      </trkpt>
      <trkpt lat="39.0372490" lon="1.6074520">
        <ele>0.7</ele>
        <time>2020-02-23T10:45:44Z</time>
      </trkpt>
      <trkpt lat="39.0372490" lon="1.6074520">
        <ele>0.7</ele>
        <time>2020-02-23T10:45:45Z</time>
      </trkpt>
      <trkpt lat="39.0372490" lon="1.6074520">
        <ele>0.7</ele>
        <time>2020-02-23T10:45:46Z</time>
      </trkpt>
      <trkpt lat="39.0372490" lon="1.6074520">
        <ele>0.7</ele>
        <time>2020-02-23T10:45:47Z</time>
      </trkpt>
      <trkpt lat="39.0372390" lon="1.6075040">
        <ele>0.9</ele>
        <time>2020-02-23T10:46:03Z</time>
      </trkpt>
      <trkpt lat="39.0372420" lon="1.6075070">
        <ele>0.9</ele>
        <time>2020-02-23T10:46:04Z</time>
      </trkpt>
      <trkpt lat="39.0372490" lon="1.6075140">
        <ele>1.0</ele>
        <time>2020-02-23T10:46:05Z</time>
      </trkpt>
      <trkpt lat="39.0372470" lon="1.6075260">
        <ele>1.1</ele>
        <time>2020-02-23T10:46:06Z</time>
      </trkpt>
      <trkpt lat="39.0372450" lon="1.6075390">
        <ele>1.1</ele>
        <time>2020-02-23T10:46:07Z</time>
      </trkpt>
      <trkpt lat="39.0372440" lon="1.6075460">
        <ele>1.2</ele>
        <time>2020-02-23T10:46:08Z</time>
      </trkpt>
      <trkpt lat="39.0372440" lon="1.6075570">
        <ele>1.2</ele>
        <time>2020-02-23T10:46:09Z</time>
      </trkpt>
      <trkpt lat="39.0372490" lon="1.6075790">
        <ele>1.4</ele>
        <time>2020-02-23T10:46:10Z</time>
      </trkpt>
      <trkpt lat="39.0372640" lon="1.6076090">
        <ele>1.6</ele>
        <time>2020-02-23T10:46:11Z</time>
      </trkpt>
      <trkpt lat="39.0372690" lon="1.6076200">
        <ele>1.6</ele>
        <time>2020-02-23T10:46:12Z</time>
      </trkpt>
      <trkpt lat="39.0372760" lon="1.6076380">
        <ele>1.8</ele>
        <time>2020-02-23T10:46:13Z</time>
      </trkpt>
      <trkpt lat="39.0372820" lon="1.6076530">
        <ele>1.9</ele>
        <time>2020-02-23T10:46:14Z</time>
      </trkpt>
      <trkpt lat="39.0372870" lon="1.6076860">
        <ele>2.0</ele>
        <time>2020-02-23T10:46:15Z</time>
      </trkpt>
      <trkpt lat="39.0372890" lon="1.6077020">
        <ele>2.1</ele>
        <time>2020-02-23T10:46:16Z</time>
      </trkpt>
      <trkpt lat="39.0372980" lon="1.6077130">
        <ele>2.2</ele>
        <time>2020-02-23T10:46:17Z</time>
      </trkpt>
      <trkpt lat="39.0373010" lon="1.6077260">
        <ele>2.3</ele>
        <time>2020-02-23T10:46:18Z</time>
      </trkpt>
      <trkpt lat="39.0373110" lon="1.6077310">
        <ele>2.4</ele>
        <time>2020-02-23T10:46:19Z</time>
      </trkpt>
      <trkpt lat="39.0373070" lon="1.6077310">
        <ele>2.4</ele>
        <time>2020-02-23T10:46:20Z</time>
      </trkpt>
      <trkpt lat="39.0373070" lon="1.6077300">
        <ele>2.4</ele>
        <time>2020-02-23T10:46:21Z</time>
      </trkpt>
      <trkpt lat="39.0373080" lon="1.6077270">
        <ele>2.5</ele>
        <time>2020-02-23T10:46:22Z</time>
      </trkpt>
      <trkpt lat="39.0373090" lon="1.6077260">
        <ele>2.5</ele>
        <time>2020-02-23T10:46:23Z</time>
      </trkpt>
      <trkpt lat="39.0373080" lon="1.6077270">
        <ele>2.5</ele>
        <time>2020-02-23T10:46:24Z</time>
      </trkpt>
      <trkpt lat="39.0373150" lon="1.6077300">
        <ele>2.5</ele>
        <time>2020-02-23T10:46:25Z</time>
      </trkpt>
      <trkpt lat="39.0373270" lon="1.6077420">
        <ele>2.6</ele>
        <time>2020-02-23T10:46:26Z</time>
      </trkpt>
      <trkpt lat="39.0373390" lon="1.6077570">
        <ele>2.8</ele>
        <time>2020-02-23T10:46:27Z</time>
      </trkpt>
      <trkpt lat="39.0373470" lon="1.6077730">
        <ele>2.8</ele>
        <time>2020-02-23T10:46:28Z</time>
      </trkpt>
      <trkpt lat="39.0373540" lon="1.6077900">
        <ele>2.9</ele>
        <time>2020-02-23T10:46:29Z</time>
      </trkpt>
      <trkpt lat="39.0373580" lon="1.6078050">
        <ele>2.9</ele>
        <time>2020-02-23T10:46:30Z</time>
      </trkpt>
      <trkpt lat="39.0373650" lon="1.6078240">
        <ele>3.0</ele>
        <time>2020-02-23T10:46:31Z</time>
      </trkpt>
      <trkpt lat="39.0373750" lon="1.6078320">
        <ele>3.0</ele>
        <time>2020-02-23T10:46:32Z</time>
      </trkpt>
      <trkpt lat="39.0373810" lon="1.6078390">
        <ele>3.0</ele>
        <time>2020-02-23T10:46:33Z</time>
      </trkpt>
      <trkpt lat="39.0373840" lon="1.6078420">
        <ele>3.0</ele>
        <time>2020-02-23T10:46:34Z</time>
      </trkpt>
      <trkpt lat="39.0373860" lon="1.6078420">
        <ele>3.0</ele>
        <time>2020-02-23T10:46:35Z</time>
      </trkpt>
      <trkpt lat="39.0373860" lon="1.6078460">
        <ele>3.1</ele>
        <time>2020-02-23T10:46:36Z</time>
      </trkpt>
      <trkpt lat="39.0373860" lon="1.6078440">
        <ele>3.1</ele>
        <time>2020-02-23T10:46:37Z</time>
      </trkpt>
      <trkpt lat="39.0373870" lon="1.6078440">
        <ele>3.1</ele>
        <time>2020-02-23T10:46:38Z</time>
      </trkpt>
      <trkpt lat="39.0373870" lon="1.6078440">
        <ele>3.1</ele>
        <time>2020-02-23T10:46:39Z</time>
      </trkpt>
      <trkpt lat="39.0373880" lon="1.6078440">
        <ele>3.1</ele>
        <time>2020-02-23T10:46:40Z</time>
      </trkpt>
      <trkpt lat="39.0373880" lon="1.6078440">
        <ele>3.1</ele>
        <time>2020-02-23T10:46:41Z</time>
      </trkpt>
      <trkpt lat="39.0373880" lon="1.6078440">
        <ele>3.1</ele>
        <time>2020-02-23T10:46:42Z</time>
      </trkpt>
      <trkpt lat="39.0373880" lon="1.6078440">
        <ele>3.1</ele>
        <time>2020-02-23T10:46:43Z</time>
      </trkpt>
      <trkpt lat="39.0373870" lon="1.6078450">
        <ele>3.1</ele>
        <time>2020-02-23T10:46:44Z</time>
      </trkpt>
      <trkpt lat="39.0373850" lon="1.6078040">
        <ele>3.2</ele>
        <time>2020-02-23T10:48:30Z</time>
      </trkpt>
      <trkpt lat="39.0373930" lon="1.6078050">
        <ele>3.2</ele>
        <time>2020-02-23T10:48:31Z</time>
      </trkpt>
      <trkpt lat="39.0374070" lon="1.6078060">
        <ele>3.2</ele>
        <time>2020-02-23T10:48:32Z</time>
      </trkpt>
      <trkpt lat="39.0374360" lon="1.6077800">
        <ele>3.3</ele>
        <time>2020-02-23T10:48:33Z</time>
      </trkpt>
      <trkpt lat="39.0374440" lon="1.6077680">
        <ele>3.3</ele>
        <time>2020-02-23T10:48:34Z</time>
      </trkpt>
      <trkpt lat="39.0374600" lon="1.6077350">
        <ele>3.4</ele>
        <time>2020-02-23T10:48:35Z</time>
      </trkpt>
      <trkpt lat="39.0374660" lon="1.6077250">
        <ele>3.4</ele>
        <time>2020-02-23T10:48:36Z</time>
      </trkpt>
      <trkpt lat="39.0374920" lon="1.6077100">
        <ele>3.5</ele>
        <time>2020-02-23T10:48:37Z</time>
      </trkpt>
      <trkpt lat="39.0375020" lon="1.6077060">
        <ele>3.5</ele>
        <time>2020-02-23T10:48:38Z</time>
      </trkpt>
      <trkpt lat="39.0375330" lon="1.6076890">
        <ele>3.6</ele>
        <time>2020-02-23T10:48:39Z</time>
      </trkpt>
      <trkpt lat="39.0375430" lon="1.6076820">
        <ele>3.6</ele>
        <time>2020-02-23T10:48:40Z</time>
      </trkpt>
      <trkpt lat="39.0375780" lon="1.6076660">
        <ele>3.6</ele>
        <time>2020-02-23T10:48:41Z</time>
      </trkpt>
      <trkpt lat="39.0375880" lon="1.6076600">
        <ele>3.6</ele>
        <time>2020-02-23T10:48:42Z</time>
      </trkpt>
      <trkpt lat="39.0376150" lon="1.6076540">
        <ele>3.6</ele>
        <time>2020-02-23T10:48:43Z</time>
      </trkpt>
      <trkpt lat="39.0376520" lon="1.6076440">
        <ele>3.6</ele>
        <time>2020-02-23T10:48:44Z</time>
      </trkpt>
      <trkpt lat="39.0376640" lon="1.6076380">
        <ele>3.6</ele>
        <time>2020-02-23T10:48:45Z</time>
      </trkpt>
      <trkpt lat="39.0376940" lon="1.6076270">
        <ele>3.7</ele>
        <time>2020-02-23T10:48:46Z</time>
      </trkpt>
      <trkpt lat="39.0377240" lon="1.6076110">
        <ele>3.7</ele>
        <time>2020-02-23T10:48:47Z</time>
      </trkpt>
      <trkpt lat="39.0377330" lon="1.6076040">
        <ele>3.7</ele>
        <time>2020-02-23T10:48:48Z</time>
      </trkpt>
      <trkpt lat="39.0377590" lon="1.6075790">
        <ele>3.7</ele>
        <time>2020-02-23T10:48:49Z</time>
      </trkpt>
      <trkpt lat="39.0377630" lon="1.6075690">
        <ele>3.7</ele>
        <time>2020-02-23T10:48:50Z</time>
      </trkpt>
      <trkpt lat="39.0377920" lon="1.6075440">
        <ele>3.7</ele>
        <time>2020-02-23T10:48:51Z</time>
      </trkpt>
      <trkpt lat="39.0378020" lon="1.6075360">
        <ele>3.7</ele>
        <time>2020-02-23T10:48:52Z</time>
      </trkpt>
      <trkpt lat="39.0378340" lon="1.6075140">
        <ele>3.7</ele>
        <time>2020-02-23T10:48:53Z</time>
      </trkpt>
      <trkpt lat="39.0378440" lon="1.6075060">
        <ele>3.7</ele>
        <time>2020-02-23T10:48:54Z</time>
      </trkpt>
      <trkpt lat="39.0378730" lon="1.6074770">
        <ele>3.7</ele>
        <time>2020-02-23T10:48:55Z</time>
      </trkpt>
      <trkpt lat="39.0378800" lon="1.6074670">
        <ele>3.7</ele>
        <time>2020-02-23T10:48:56Z</time>
      </trkpt>
      <trkpt lat="39.0379030" lon="1.6074290">
        <ele>3.7</ele>
        <time>2020-02-23T10:48:57Z</time>
      </trkpt>
      <trkpt lat="39.0379100" lon="1.6074180">
        <ele>3.7</ele>
        <time>2020-02-23T10:48:58Z</time>
      </trkpt>
      <trkpt lat="39.0379350" lon="1.6074010">
        <ele>3.7</ele>
        <time>2020-02-23T10:48:59Z</time>
      </trkpt>
      <trkpt lat="39.0379440" lon="1.6073930">
        <ele>3.7</ele>
        <time>2020-02-23T10:49:00Z</time>
      </trkpt>
      <trkpt lat="39.0379790" lon="1.6073760">
        <ele>3.7</ele>
        <time>2020-02-23T10:49:01Z</time>
      </trkpt>
      <trkpt lat="39.0379900" lon="1.6073670">
        <ele>3.7</ele>
        <time>2020-02-23T10:49:02Z</time>
      </trkpt>
      <trkpt lat="39.0380230" lon="1.6073890">
        <ele>3.8</ele>
        <time>2020-02-23T10:49:03Z</time>
      </trkpt>
      <trkpt lat="39.0380340" lon="1.6073970">
        <ele>3.8</ele>
        <time>2020-02-23T10:49:04Z</time>
      </trkpt>
      <trkpt lat="39.0380650" lon="1.6074110">
        <ele>3.8</ele>
        <time>2020-02-23T10:49:05Z</time>
      </trkpt>
      <trkpt lat="39.0380740" lon="1.6074160">
        <ele>3.9</ele>
        <time>2020-02-23T10:49:06Z</time>
      </trkpt>
      <trkpt lat="39.0381110" lon="1.6074220">
        <ele>3.9</ele>
        <time>2020-02-23T10:49:07Z</time>
      </trkpt>
      <trkpt lat="39.0381230" lon="1.6074200">
        <ele>3.9</ele>
        <time>2020-02-23T10:49:08Z</time>
      </trkpt>
      <trkpt lat="39.0381600" lon="1.6074240">
        <ele>4.0</ele>
        <time>2020-02-23T10:49:09Z</time>
      </trkpt>
      <trkpt lat="39.0381730" lon="1.6074320">
        <ele>4.0</ele>
        <time>2020-02-23T10:49:10Z</time>
      </trkpt>
      <trkpt lat="39.0382020" lon="1.6074550">
        <ele>4.1</ele>
        <time>2020-02-23T10:49:11Z</time>
      </trkpt>
      <trkpt lat="39.0382070" lon="1.6074620">
        <ele>4.1</ele>
        <time>2020-02-23T10:49:12Z</time>
      </trkpt>
      <trkpt lat="39.0382250" lon="1.6074730">
        <ele>4.1</ele>
        <time>2020-02-23T10:49:13Z</time>
      </trkpt>
      <trkpt lat="39.0382350" lon="1.6074800">
        <ele>4.1</ele>
        <time>2020-02-23T10:49:14Z</time>
      </trkpt>
      <trkpt lat="39.0382460" lon="1.6074880">
        <ele>4.2</ele>
        <time>2020-02-23T10:49:15Z</time>
      </trkpt>
      <trkpt lat="39.0382650" lon="1.6074980">
        <ele>4.2</ele>
        <time>2020-02-23T10:49:16Z</time>
      </trkpt>
      <trkpt lat="39.0382780" lon="1.6075110">
        <ele>4.2</ele>
        <time>2020-02-23T10:49:17Z</time>
      </trkpt>
      <trkpt lat="39.0383120" lon="1.6075170">
        <ele>4.2</ele>
        <time>2020-02-23T10:49:18Z</time>
      </trkpt>
      <trkpt lat="39.0383230" lon="1.6075190">
        <ele>4.3</ele>
        <time>2020-02-23T10:49:19Z</time>
      </trkpt>
      <trkpt lat="39.0383590" lon="1.6075230">
        <ele>4.3</ele>
        <time>2020-02-23T10:49:20Z</time>
      </trkpt>
      <trkpt lat="39.0383700" lon="1.6075260">
        <ele>4.3</ele>
        <time>2020-02-23T10:49:21Z</time>
      </trkpt>
      <trkpt lat="39.0383860" lon="1.6075290">
        <ele>4.3</ele>
        <time>2020-02-23T10:49:22Z</time>
      </trkpt>
      <trkpt lat="39.0384020" lon="1.6075380">
        <ele>4.3</ele>
        <time>2020-02-23T10:49:23Z</time>
      </trkpt>
      <trkpt lat="39.0384340" lon="1.6075620">
        <ele>4.4</ele>
        <time>2020-02-23T10:49:24Z</time>
      </trkpt>
      <trkpt lat="39.0384460" lon="1.6075750">
        <ele>4.4</ele>
        <time>2020-02-23T10:49:25Z</time>
      </trkpt>
      <trkpt lat="39.0384660" lon="1.6075990">
        <ele>4.4</ele>
        <time>2020-02-23T10:49:26Z</time>
      </trkpt>
      <trkpt lat="39.0384840" lon="1.6076260">
        <ele>4.4</ele>
        <time>2020-02-23T10:49:27Z</time>
      </trkpt>
      <trkpt lat="39.0385030" lon="1.6076520">
        <ele>4.5</ele>
        <time>2020-02-23T10:49:28Z</time>
      </trkpt>
      <trkpt lat="39.0385360" lon="1.6076670">
        <ele>4.5</ele>
        <time>2020-02-23T10:49:29Z</time>
      </trkpt>
      <trkpt lat="39.0385630" lon="1.6076980">
        <ele>4.5</ele>
        <time>2020-02-23T10:49:30Z</time>
      </trkpt>
      <trkpt lat="39.0385840" lon="1.6077270">
        <ele>4.3</ele>
        <time>2020-02-23T10:49:31Z</time>
      </trkpt>
      <trkpt lat="39.0386030" lon="1.6077550">
        <ele>4.2</ele>
        <time>2020-02-23T10:49:32Z</time>
      </trkpt>
      <trkpt lat="39.0386230" lon="1.6077930">
        <ele>4.1</ele>
        <time>2020-02-23T10:49:33Z</time>
      </trkpt>
      <trkpt lat="39.0386310" lon="1.6078060">
        <ele>4.1</ele>
        <time>2020-02-23T10:49:34Z</time>
      </trkpt>
      <trkpt lat="39.0386530" lon="1.6078460">
        <ele>4.0</ele>
        <time>2020-02-23T10:49:35Z</time>
      </trkpt>
      <trkpt lat="39.0386620" lon="1.6078570">
        <ele>4.0</ele>
        <time>2020-02-23T10:49:36Z</time>
      </trkpt>
      <trkpt lat="39.0386920" lon="1.6078950">
        <ele>3.8</ele>
        <time>2020-02-23T10:49:37Z</time>
      </trkpt>
      <trkpt lat="39.0387020" lon="1.6079090">
        <ele>3.8</ele>
        <time>2020-02-23T10:49:38Z</time>
      </trkpt>
      <trkpt lat="39.0387250" lon="1.6079440">
        <ele>3.7</ele>
        <time>2020-02-23T10:49:39Z</time>
      </trkpt>
      <trkpt lat="39.0387510" lon="1.6079740">
        <ele>3.5</ele>
        <time>2020-02-23T10:49:40Z</time>
      </trkpt>
      <trkpt lat="39.0387750" lon="1.6080030">
        <ele>3.4</ele>
        <time>2020-02-23T10:49:41Z</time>
      </trkpt>
      <trkpt lat="39.0387990" lon="1.6080450">
        <ele>3.2</ele>
        <time>2020-02-23T10:49:42Z</time>
      </trkpt>
      <trkpt lat="39.0388170" lon="1.6080760">
        <ele>3.1</ele>
        <time>2020-02-23T10:49:43Z</time>
      </trkpt>
      <trkpt lat="39.0388310" lon="1.6081280">
        <ele>2.9</ele>
        <time>2020-02-23T10:49:44Z</time>
      </trkpt>
      <trkpt lat="39.0388330" lon="1.6081500">
        <ele>2.8</ele>
        <time>2020-02-23T10:49:45Z</time>
      </trkpt>
      <trkpt lat="39.0388170" lon="1.6081870">
        <ele>2.6</ele>
        <time>2020-02-23T10:49:46Z</time>
      </trkpt>
      <trkpt lat="39.0388080" lon="1.6082230">
        <ele>2.4</ele>
        <time>2020-02-23T10:49:47Z</time>
      </trkpt>
      <trkpt lat="39.0388030" lon="1.6082660">
        <ele>2.2</ele>
        <time>2020-02-23T10:49:48Z</time>
      </trkpt>
      <trkpt lat="39.0388020" lon="1.6082800">
        <ele>2.1</ele>
        <time>2020-02-23T10:49:49Z</time>
      </trkpt>
      <trkpt lat="39.0387970" lon="1.6083120">
        <ele>1.9</ele>
        <time>2020-02-23T10:49:50Z</time>
      </trkpt>
      <trkpt lat="39.0387930" lon="1.6083490">
        <ele>1.8</ele>
        <time>2020-02-23T10:49:51Z</time>
      </trkpt>
      <trkpt lat="39.0387890" lon="1.6083900">
        <ele>1.6</ele>
        <time>2020-02-23T10:49:52Z</time>
      </trkpt>
      <trkpt lat="39.0388010" lon="1.6084320">
        <ele>1.4</ele>
        <time>2020-02-23T10:49:53Z</time>
      </trkpt>
      <trkpt lat="39.0388090" lon="1.6084460">
        <ele>1.3</ele>
        <time>2020-02-23T10:49:54Z</time>
      </trkpt>
      <trkpt lat="39.0388360" lon="1.6084750">
        <ele>1.1</ele>
        <time>2020-02-23T10:49:55Z</time>
      </trkpt>
      <trkpt lat="39.0388570" lon="1.6085000">
        <ele>0.9</ele>
        <time>2020-02-23T10:49:56Z</time>
      </trkpt>
      <trkpt lat="39.0388790" lon="1.6085340">
        <ele>0.8</ele>
        <time>2020-02-23T10:49:57Z</time>
      </trkpt>
      <trkpt lat="39.0388870" lon="1.6085450">
        <ele>0.7</ele>
        <time>2020-02-23T10:49:58Z</time>
      </trkpt>
      <trkpt lat="39.0389220" lon="1.6085550">
        <ele>0.6</ele>
        <time>2020-02-23T10:49:59Z</time>
      </trkpt>
      <trkpt lat="39.0389350" lon="1.6085580">
        <ele>0.5</ele>
        <time>2020-02-23T10:50:00Z</time>
      </trkpt>
      <trkpt lat="39.0389640" lon="1.6085670">
        <ele>0.4</ele>
        <time>2020-02-23T10:50:01Z</time>
      </trkpt>
      <trkpt lat="39.0389950" lon="1.6085780">
        <ele>0.3</ele>
        <time>2020-02-23T10:50:02Z</time>
      </trkpt>
      <trkpt lat="39.0390230" lon="1.6085870">
        <ele>0.2</ele>
        <time>2020-02-23T10:50:03Z</time>
      </trkpt>
      <trkpt lat="39.0390560" lon="1.6085720">
        <ele>0.0</ele>
        <time>2020-02-23T10:50:04Z</time>
      </trkpt>
      <trkpt lat="39.0390650" lon="1.6085630">
        <ele>0.0</ele>
        <time>2020-02-23T10:50:05Z</time>
      </trkpt>
      <trkpt lat="39.0390900" lon="1.6085290">
        <ele>0.0</ele>
        <time>2020-02-23T10:50:06Z</time>
      </trkpt>
      <trkpt lat="39.0391120" lon="1.6084980">
        <ele>0.2</ele>
        <time>2020-02-23T10:50:07Z</time>
      </trkpt>
      <trkpt lat="39.0391290" lon="1.6084650">
        <ele>0.3</ele>
        <time>2020-02-23T10:50:08Z</time>
      </trkpt>
      <trkpt lat="39.0391360" lon="1.6084310">
        <ele>0.4</ele>
        <time>2020-02-23T10:50:09Z</time>
      </trkpt>
      <trkpt lat="39.0391370" lon="1.6083960">
        <ele>0.5</ele>
        <time>2020-02-23T10:50:10Z</time>
      </trkpt>
      <trkpt lat="39.0391360" lon="1.6083510">
        <ele>0.6</ele>
        <time>2020-02-23T10:50:11Z</time>
      </trkpt>
      <trkpt lat="39.0391350" lon="1.6083350">
        <ele>0.7</ele>
        <time>2020-02-23T10:50:12Z</time>
      </trkpt>
      <trkpt lat="39.0391350" lon="1.6082920">
        <ele>0.8</ele>
        <time>2020-02-23T10:50:13Z</time>
      </trkpt>
      <trkpt lat="39.0391350" lon="1.6082780">
        <ele>0.9</ele>
        <time>2020-02-23T10:50:14Z</time>
      </trkpt>
      <trkpt lat="39.0391300" lon="1.6082340">
        <ele>1.1</ele>
        <time>2020-02-23T10:50:15Z</time>
      </trkpt>
      <trkpt lat="39.0391270" lon="1.6082220">
        <ele>1.1</ele>
        <time>2020-02-23T10:50:16Z</time>
      </trkpt>
      <trkpt lat="39.0391080" lon="1.6081860">
        <ele>1.3</ele>
        <time>2020-02-23T10:50:17Z</time>
      </trkpt>
      <trkpt lat="39.0391000" lon="1.6081750">
        <ele>1.4</ele>
        <time>2020-02-23T10:50:18Z</time>
      </trkpt>
      <trkpt lat="39.0390830" lon="1.6081320">
        <ele>1.6</ele>
        <time>2020-02-23T10:50:19Z</time>
      </trkpt>
      <trkpt lat="39.0390760" lon="1.6081170">
        <ele>1.7</ele>
        <time>2020-02-23T10:50:20Z</time>
      </trkpt>
      <trkpt lat="39.0390670" lon="1.6080830">
        <ele>1.9</ele>
        <time>2020-02-23T10:50:21Z</time>
      </trkpt>
      <trkpt lat="39.0390620" lon="1.6080370">
        <ele>2.1</ele>
        <time>2020-02-23T10:50:22Z</time>
      </trkpt>
      <trkpt lat="39.0390610" lon="1.6080170">
        <ele>2.2</ele>
        <time>2020-02-23T10:50:23Z</time>
      </trkpt>
      <trkpt lat="39.0390520" lon="1.6079760">
        <ele>2.7</ele>
        <time>2020-02-23T10:50:24Z</time>
      </trkpt>
      <trkpt lat="39.0390480" lon="1.6079600">
        <ele>2.8</ele>
        <time>2020-02-23T10:50:25Z</time>
      </trkpt>
      <trkpt lat="39.0390450" lon="1.6079160">
        <ele>2.9</ele>
        <time>2020-02-23T10:50:26Z</time>
      </trkpt>
      <trkpt lat="39.0390450" lon="1.6078970">
        <ele>3.1</ele>
        <time>2020-02-23T10:50:27Z</time>
      </trkpt>
      <trkpt lat="39.0390400" lon="1.6078490">
        <ele>3.3</ele>
        <time>2020-02-23T10:50:28Z</time>
      </trkpt>
      <trkpt lat="39.0390370" lon="1.6078350">
        <ele>3.4</ele>
        <time>2020-02-23T10:50:29Z</time>
      </trkpt>
      <trkpt lat="39.0390260" lon="1.6078080">
        <ele>3.7</ele>
        <time>2020-02-23T10:50:30Z</time>
      </trkpt>
      <trkpt lat="39.0390290" lon="1.6077920">
        <ele>3.8</ele>
        <time>2020-02-23T10:50:31Z</time>
      </trkpt>
      <trkpt lat="39.0390290" lon="1.6077800">
        <ele>4.1</ele>
        <time>2020-02-23T10:50:32Z</time>
      </trkpt>
      <trkpt lat="39.0390270" lon="1.6077730">
        <ele>4.2</ele>
        <time>2020-02-23T10:50:33Z</time>
      </trkpt>
      <trkpt lat="39.0390240" lon="1.6077660">
        <ele>4.2</ele>
        <time>2020-02-23T10:50:34Z</time>
      </trkpt>
      <trkpt lat="39.0390210" lon="1.6077580">
        <ele>4.3</ele>
        <time>2020-02-23T10:50:35Z</time>
      </trkpt>
      <trkpt lat="39.0390180" lon="1.6077510">
        <ele>4.8</ele>
        <time>2020-02-23T10:50:36Z</time>
      </trkpt>
      <trkpt lat="39.0390160" lon="1.6077440">
        <ele>4.8</ele>
        <time>2020-02-23T10:50:37Z</time>
      </trkpt>
      <trkpt lat="39.0390130" lon="1.6077370">
        <ele>5.1</ele>
        <time>2020-02-23T10:50:38Z</time>
      </trkpt>
      <trkpt lat="39.0390110" lon="1.6076850">
        <ele>5.4</ele>
        <time>2020-02-23T10:50:39Z</time>
      </trkpt>
      <trkpt lat="39.0390120" lon="1.6076650">
        <ele>5.5</ele>
        <time>2020-02-23T10:50:40Z</time>
      </trkpt>
      <trkpt lat="39.0390220" lon="1.6076350">
        <ele>5.4</ele>
        <time>2020-02-23T10:50:41Z</time>
      </trkpt>
      <trkpt lat="39.0390370" lon="1.6076290">
        <ele>5.5</ele>
        <time>2020-02-23T10:50:42Z</time>
      </trkpt>
      <trkpt lat="39.0390650" lon="1.6075980">
        <ele>5.2</ele>
        <time>2020-02-23T10:50:43Z</time>
      </trkpt>
      <trkpt lat="39.0390720" lon="1.6075850">
        <ele>5.3</ele>
        <time>2020-02-23T10:50:44Z</time>
      </trkpt>
      <trkpt lat="39.0390890" lon="1.6075370">
        <ele>5.4</ele>
        <time>2020-02-23T10:50:45Z</time>
      </trkpt>
      <trkpt lat="39.0390930" lon="1.6075200">
        <ele>5.5</ele>
        <time>2020-02-23T10:50:46Z</time>
      </trkpt>
      <trkpt lat="39.0391030" lon="1.6074830">
        <ele>5.5</ele>
        <time>2020-02-23T10:50:47Z</time>
      </trkpt>
      <trkpt lat="39.0391050" lon="1.6074730">
        <ele>5.6</ele>
        <time>2020-02-23T10:50:48Z</time>
      </trkpt>
      <trkpt lat="39.0391120" lon="1.6074510">
        <ele>5.6</ele>
        <time>2020-02-23T10:50:49Z</time>
      </trkpt>
      <trkpt lat="39.0391190" lon="1.6074330">
        <ele>5.7</ele>
        <time>2020-02-23T10:50:50Z</time>
      </trkpt>
      <trkpt lat="39.0391340" lon="1.6074260">
        <ele>5.7</ele>
        <time>2020-02-23T10:50:51Z</time>
      </trkpt>
      <trkpt lat="39.0391520" lon="1.6074270">
        <ele>5.7</ele>
        <time>2020-02-23T10:50:52Z</time>
      </trkpt>
      <trkpt lat="39.0391540" lon="1.6074290">
        <ele>5.8</ele>
        <time>2020-02-23T10:50:53Z</time>
      </trkpt>
      <trkpt lat="39.0391510" lon="1.6074280">
        <ele>5.8</ele>
        <time>2020-02-23T10:50:54Z</time>
      </trkpt>
      <trkpt lat="39.0391530" lon="1.6074290">
        <ele>5.8</ele>
        <time>2020-02-23T10:50:55Z</time>
      </trkpt>
      <trkpt lat="39.0391540" lon="1.6074270">
        <ele>5.8</ele>
        <time>2020-02-23T10:50:56Z</time>
      </trkpt>
      <trkpt lat="39.0391540" lon="1.6074280">
        <ele>5.8</ele>
        <time>2020-02-23T10:50:57Z</time>
      </trkpt>
      <trkpt lat="39.0391540" lon="1.6074310">
        <ele>5.8</ele>
        <time>2020-02-23T10:50:58Z</time>
      </trkpt>
      <trkpt lat="39.0391540" lon="1.6074340">
        <ele>5.8</ele>
        <time>2020-02-23T10:50:59Z</time>
      </trkpt>
      <trkpt lat="39.0391560" lon="1.6074310">
        <ele>5.8</ele>
        <time>2020-02-23T10:51:00Z</time>
      </trkpt>
      <trkpt lat="39.0391570" lon="1.6074310">
        <ele>5.8</ele>
        <time>2020-02-23T10:51:01Z</time>
      </trkpt>
      <trkpt lat="39.0391570" lon="1.6074300">
        <ele>5.8</ele>
        <time>2020-02-23T10:51:02Z</time>
      </trkpt>
      <trkpt lat="39.0391570" lon="1.6074290">
        <ele>5.8</ele>
        <time>2020-02-23T10:51:03Z</time>
      </trkpt>
      <trkpt lat="39.0391340" lon="1.6074000">
        <ele>5.9</ele>
        <time>2020-02-23T10:53:45Z</time>
      </trkpt>
      <trkpt lat="39.0391310" lon="1.6073980">
        <ele>5.9</ele>
        <time>2020-02-23T10:53:46Z</time>
      </trkpt>
      <trkpt lat="39.0391320" lon="1.6074180">
        <ele>5.9</ele>
        <time>2020-02-23T10:53:47Z</time>
      </trkpt>
      <trkpt lat="39.0391350" lon="1.6074120">
        <ele>5.9</ele>
        <time>2020-02-23T10:53:48Z</time>
      </trkpt>
      <trkpt lat="39.0391350" lon="1.6074140">
        <ele>5.9</ele>
        <time>2020-02-23T10:53:49Z</time>
      </trkpt>
      <trkpt lat="39.0391380" lon="1.6074180">
        <ele>5.9</ele>
        <time>2020-02-23T10:53:50Z</time>
      </trkpt>
      <trkpt lat="39.0391370" lon="1.6074180">
        <ele>5.9</ele>
        <time>2020-02-23T10:53:51Z</time>
      </trkpt>
      <trkpt lat="39.0391370" lon="1.6074170">
        <ele>5.9</ele>
        <time>2020-02-23T10:53:52Z</time>
      </trkpt>
      <trkpt lat="39.0391370" lon="1.6074170">
        <ele>5.9</ele>
        <time>2020-02-23T10:53:53Z</time>
      </trkpt>
      <trkpt lat="39.0391360" lon="1.6074170">
        <ele>5.9</ele>
        <time>2020-02-23T10:53:54Z</time>
      </trkpt>
      <trkpt lat="39.0391360" lon="1.6074170">
        <ele>5.9</ele>
        <time>2020-02-23T10:53:55Z</time>
      </trkpt>
      <trkpt lat="39.0391330" lon="1.6073590">
        <ele>6.0</ele>
        <time>2020-02-23T11:08:33Z</time>
      </trkpt>
      <trkpt lat="39.0391310" lon="1.6073470">
        <ele>6.0</ele>
        <time>2020-02-23T11:08:34Z</time>
      </trkpt>
      <trkpt lat="39.0391310" lon="1.6073600">
        <ele>6.0</ele>
        <time>2020-02-23T11:08:35Z</time>
      </trkpt>
      <trkpt lat="39.0391410" lon="1.6073940">
        <ele>6.1</ele>
        <time>2020-02-23T11:08:36Z</time>
      </trkpt>
      <trkpt lat="39.0391380" lon="1.6074090">
        <ele>6.1</ele>
        <time>2020-02-23T11:08:37Z</time>
      </trkpt>
      <trkpt lat="39.0391320" lon="1.6074080">
        <ele>6.1</ele>
        <time>2020-02-23T11:08:38Z</time>
      </trkpt>
      <trkpt lat="39.0391280" lon="1.6074130">
        <ele>6.1</ele>
        <time>2020-02-23T11:08:39Z</time>
      </trkpt>
      <trkpt lat="39.0391280" lon="1.6074150">
        <ele>6.1</ele>
        <time>2020-02-23T11:08:40Z</time>
      </trkpt>
      <trkpt lat="39.0391280" lon="1.6074150">
        <ele>6.1</ele>
        <time>2020-02-23T11:08:41Z</time>
      </trkpt>
      <trkpt lat="39.0391280" lon="1.6074150">
        <ele>6.1</ele>
        <time>2020-02-23T11:08:42Z</time>
      </trkpt>
      <trkpt lat="39.0391280" lon="1.6074160">
        <ele>6.1</ele>
        <time>2020-02-23T11:08:43Z</time>
      </trkpt>
      <trkpt lat="39.0391270" lon="1.6074170">
        <ele>6.1</ele>
        <time>2020-02-23T11:08:44Z</time>
      </trkpt>
      <trkpt lat="39.0391270" lon="1.6074160">
        <ele>6.1</ele>
        <time>2020-02-23T11:08:45Z</time>
      </trkpt>
      <trkpt lat="39.0391270" lon="1.6074160">
        <ele>6.1</ele>
        <time>2020-02-23T11:08:46Z</time>
      </trkpt>
      <trkpt lat="39.0391270" lon="1.6074160">
        <ele>6.1</ele>
        <time>2020-02-23T11:08:47Z</time>
      </trkpt>
      <trkpt lat="39.0392070" lon="1.6073630">
        <ele>6.3</ele>
        <time>2020-02-23T11:11:16Z</time>
      </trkpt>
      <trkpt lat="39.0392270" lon="1.6073490">
        <ele>6.3</ele>
        <time>2020-02-23T11:11:17Z</time>
      </trkpt>
      <trkpt lat="39.0392500" lon="1.6073300">
        <ele>6.4</ele>
        <time>2020-02-23T11:11:18Z</time>
      </trkpt>
      <trkpt lat="39.0392770" lon="1.6073000">
        <ele>6.5</ele>
        <time>2020-02-23T11:11:19Z</time>
      </trkpt>
      <trkpt lat="39.0393080" lon="1.6072660">
        <ele>6.5</ele>
        <time>2020-02-23T11:11:20Z</time>
      </trkpt>
      <trkpt lat="39.0393180" lon="1.6072510">
        <ele>6.5</ele>
        <time>2020-02-23T11:11:21Z</time>
      </trkpt>
      <trkpt lat="39.0393390" lon="1.6072230">
        <ele>6.5</ele>
        <time>2020-02-23T11:11:22Z</time>
      </trkpt>
      <trkpt lat="39.0393660" lon="1.6071950">
        <ele>6.5</ele>
        <time>2020-02-23T11:11:23Z</time>
      </trkpt>
      <trkpt lat="39.0393880" lon="1.6071690">
        <ele>6.5</ele>
        <time>2020-02-23T11:11:24Z</time>
      </trkpt>
      <trkpt lat="39.0394130" lon="1.6071440">
        <ele>6.5</ele>
        <time>2020-02-23T11:11:25Z</time>
      </trkpt>
      <trkpt lat="39.0394250" lon="1.6071360">
        <ele>6.5</ele>
        <time>2020-02-23T11:11:26Z</time>
      </trkpt>
      <trkpt lat="39.0394470" lon="1.6071150">
        <ele>6.5</ele>
        <time>2020-02-23T11:11:27Z</time>
      </trkpt>
      <trkpt lat="39.0394680" lon="1.6070840">
        <ele>6.5</ele>
        <time>2020-02-23T11:11:28Z</time>
      </trkpt>
      <trkpt lat="39.0394890" lon="1.6070610">
        <ele>6.5</ele>
        <time>2020-02-23T11:11:29Z</time>
      </trkpt>
      <trkpt lat="39.0395190" lon="1.6070330">
        <ele>6.5</ele>
        <time>2020-02-23T11:11:30Z</time>
      </trkpt>
      <trkpt lat="39.0395310" lon="1.6070250">
        <ele>6.5</ele>
        <time>2020-02-23T11:11:31Z</time>
      </trkpt>
      <trkpt lat="39.0395540" lon="1.6070050">
        <ele>6.5</ele>
        <time>2020-02-23T11:11:32Z</time>
      </trkpt>
      <trkpt lat="39.0395820" lon="1.6069760">
        <ele>6.4</ele>
        <time>2020-02-23T11:11:33Z</time>
      </trkpt>
      <trkpt lat="39.0395890" lon="1.6069660">
        <ele>6.4</ele>
        <time>2020-02-23T11:11:34Z</time>
      </trkpt>
      <trkpt lat="39.0396180" lon="1.6069520">
        <ele>6.4</ele>
        <time>2020-02-23T11:11:35Z</time>
      </trkpt>
      <trkpt lat="39.0396310" lon="1.6069430">
        <ele>6.4</ele>
        <time>2020-02-23T11:11:36Z</time>
      </trkpt>
      <trkpt lat="39.0396600" lon="1.6069330">
        <ele>6.3</ele>
        <time>2020-02-23T11:11:37Z</time>
      </trkpt>
      <trkpt lat="39.0396920" lon="1.6069280">
        <ele>6.2</ele>
        <time>2020-02-23T11:11:38Z</time>
      </trkpt>
      <trkpt lat="39.0397220" lon="1.6069280">
        <ele>6.2</ele>
        <time>2020-02-23T11:11:39Z</time>
      </trkpt>
      <trkpt lat="39.0397610" lon="1.6069300">
        <ele>6.1</ele>
        <time>2020-02-23T11:11:40Z</time>
      </trkpt>
      <trkpt lat="39.0397730" lon="1.6069340">
        <ele>6.1</ele>
        <time>2020-02-23T11:11:41Z</time>
      </trkpt>
      <trkpt lat="39.0398050" lon="1.6069430">
        <ele>6.0</ele>
        <time>2020-02-23T11:11:42Z</time>
      </trkpt>
      <trkpt lat="39.0398360" lon="1.6069430">
        <ele>5.9</ele>
        <time>2020-02-23T11:11:43Z</time>
      </trkpt>
      <trkpt lat="39.0398680" lon="1.6069400">
        <ele>5.9</ele>
        <time>2020-02-23T11:11:44Z</time>
      </trkpt>
      <trkpt lat="39.0398760" lon="1.6069390">
        <ele>5.9</ele>
        <time>2020-02-23T11:11:45Z</time>
      </trkpt>
      <trkpt lat="39.0399040" lon="1.6069410">
        <ele>5.8</ele>
        <time>2020-02-23T11:11:46Z</time>
      </trkpt>
      <trkpt lat="39.0399390" lon="1.6069290">
        <ele>5.8</ele>
        <time>2020-02-23T11:11:47Z</time>
      </trkpt>
      <trkpt lat="39.0399500" lon="1.6069240">
        <ele>5.7</ele>
        <time>2020-02-23T11:11:48Z</time>
      </trkpt>
      <trkpt lat="39.0399660" lon="1.6069110">
        <ele>5.7</ele>
        <time>2020-02-23T11:11:49Z</time>
      </trkpt>
      <trkpt lat="39.0399680" lon="1.6069010">
        <ele>5.7</ele>
        <time>2020-02-23T11:11:50Z</time>
      </trkpt>
      <trkpt lat="39.0399710" lon="1.6068990">
        <ele>5.7</ele>
        <time>2020-02-23T11:11:51Z</time>
      </trkpt>
      <trkpt lat="39.0399790" lon="1.6069050">
        <ele>5.7</ele>
        <time>2020-02-23T11:11:52Z</time>
      </trkpt>
      <trkpt lat="39.0399830" lon="1.6069020">
        <ele>5.7</ele>
        <time>2020-02-23T11:11:53Z</time>
      </trkpt>
      <trkpt lat="39.0399870" lon="1.6069000">
        <ele>5.7</ele>
        <time>2020-02-23T11:11:54Z</time>
      </trkpt>
      <trkpt lat="39.0399910" lon="1.6068970">
        <ele>5.7</ele>
        <time>2020-02-23T11:11:55Z</time>
      </trkpt>
      <trkpt lat="39.0399950" lon="1.6068950">
        <ele>5.7</ele>
        <time>2020-02-23T11:11:56Z</time>
      </trkpt>
      <trkpt lat="39.0399990" lon="1.6068930">
        <ele>5.7</ele>
        <time>2020-02-23T11:11:57Z</time>
      </trkpt>
      <trkpt lat="39.0400030" lon="1.6068900">
        <ele>5.7</ele>
        <time>2020-02-23T11:11:58Z</time>
      </trkpt>
      <trkpt lat="39.0400070" lon="1.6068880">
        <ele>5.6</ele>
        <time>2020-02-23T11:11:59Z</time>
      </trkpt>
      <trkpt lat="39.0400110" lon="1.6068860">
        <ele>5.6</ele>
        <time>2020-02-23T11:12:00Z</time>
      </trkpt>
      <trkpt lat="39.0400140" lon="1.6068830">
        <ele>5.6</ele>
        <time>2020-02-23T11:12:01Z</time>
      </trkpt>
      <trkpt lat="39.0400180" lon="1.6068810">
        <ele>5.6</ele>
        <time>2020-02-23T11:12:02Z</time>
      </trkpt>
      <trkpt lat="39.0400220" lon="1.6068780">
        <ele>5.6</ele>
        <time>2020-02-23T11:12:03Z</time>
      </trkpt>
      <trkpt lat="39.0400260" lon="1.6068760">
        <ele>5.6</ele>
        <time>2020-02-23T11:12:04Z</time>
      </trkpt>
      <trkpt lat="39.0400300" lon="1.6068740">
        <ele>5.6</ele>
        <time>2020-02-23T11:12:05Z</time>
      </trkpt>
      <trkpt lat="39.0400340" lon="1.6068710">
        <ele>5.6</ele>
        <time>2020-02-23T11:12:06Z</time>
      </trkpt>
      <trkpt lat="39.0400380" lon="1.6068690">
        <ele>5.6</ele>
        <time>2020-02-23T11:12:07Z</time>
      </trkpt>
      <trkpt lat="39.0400420" lon="1.6068660">
        <ele>5.6</ele>
        <time>2020-02-23T11:12:21Z</time>
      </trkpt>
      <trkpt lat="39.0400460" lon="1.6068640">
        <ele>5.6</ele>
        <time>2020-02-23T11:12:22Z</time>
      </trkpt>
      <trkpt lat="39.0400880" lon="1.6068470">
        <ele>5.5</ele>
        <time>2020-02-23T11:12:23Z</time>
      </trkpt>
      <trkpt lat="39.0401260" lon="1.6068390">
        <ele>5.5</ele>
        <time>2020-02-23T11:12:24Z</time>
      </trkpt>
      <trkpt lat="39.0401640" lon="1.6068580">
        <ele>5.4</ele>
        <time>2020-02-23T11:12:25Z</time>
      </trkpt>
      <trkpt lat="39.0402110" lon="1.6068860">
        <ele>5.3</ele>
        <time>2020-02-23T11:12:26Z</time>
      </trkpt>
      <trkpt lat="39.0402510" lon="1.6068780">
        <ele>5.3</ele>
        <time>2020-02-23T11:12:27Z</time>
      </trkpt>
      <trkpt lat="39.0402940" lon="1.6068730">
        <ele>5.2</ele>
        <time>2020-02-23T11:12:28Z</time>
      </trkpt>
      <trkpt lat="39.0403420" lon="1.6068890">
        <ele>5.1</ele>
        <time>2020-02-23T11:12:29Z</time>
      </trkpt>
      <trkpt lat="39.0403860" lon="1.6069310">
        <ele>5.0</ele>
        <time>2020-02-23T11:12:30Z</time>
      </trkpt>
      <trkpt lat="39.0404310" lon="1.6069690">
        <ele>4.9</ele>
        <time>2020-02-23T11:12:31Z</time>
      </trkpt>
      <trkpt lat="39.0404740" lon="1.6070020">
        <ele>4.9</ele>
        <time>2020-02-23T11:12:32Z</time>
      </trkpt>
      <trkpt lat="39.0405120" lon="1.6070340">
        <ele>4.8</ele>
        <time>2020-02-23T11:12:33Z</time>
      </trkpt>
      <trkpt lat="39.0405490" lon="1.6070880">
        <ele>4.8</ele>
        <time>2020-02-23T11:12:34Z</time>
      </trkpt>
      <trkpt lat="39.0405740" lon="1.6071540">
        <ele>4.8</ele>
        <time>2020-02-23T11:12:35Z</time>
      </trkpt>
      <trkpt lat="39.0405830" lon="1.6072160">
        <ele>4.7</ele>
        <time>2020-02-23T11:12:36Z</time>
      </trkpt>
      <trkpt lat="39.0405790" lon="1.6072800">
        <ele>4.7</ele>
        <time>2020-02-23T11:12:37Z</time>
      </trkpt>
      <trkpt lat="39.0405930" lon="1.6073370">
        <ele>4.7</ele>
        <time>2020-02-23T11:12:38Z</time>
      </trkpt>
      <trkpt lat="39.0406270" lon="1.6073750">
        <ele>4.7</ele>
        <time>2020-02-23T11:12:39Z</time>
      </trkpt>
      <trkpt lat="39.0406720" lon="1.6073770">
        <ele>4.7</ele>
        <time>2020-02-23T11:12:40Z</time>
      </trkpt>
      <trkpt lat="39.0407210" lon="1.6073800">
        <ele>4.6</ele>
        <time>2020-02-23T11:12:41Z</time>
      </trkpt>
      <trkpt lat="39.0407710" lon="1.6073870">
        <ele>4.6</ele>
        <time>2020-02-23T11:12:42Z</time>
      </trkpt>
      <trkpt lat="39.0408140" lon="1.6074110">
        <ele>4.5</ele>
        <time>2020-02-23T11:12:43Z</time>
      </trkpt>
      <trkpt lat="39.0408620" lon="1.6074360">
        <ele>4.5</ele>
        <time>2020-02-23T11:12:44Z</time>
      </trkpt>
      <trkpt lat="39.0409050" lon="1.6074710">
        <ele>4.4</ele>
        <time>2020-02-23T11:12:45Z</time>
      </trkpt>
      <trkpt lat="39.0409440" lon="1.6075270">
        <ele>4.3</ele>
        <time>2020-02-23T11:12:46Z</time>
      </trkpt>
      <trkpt lat="39.0409780" lon="1.6075700">
        <ele>4.2</ele>
        <time>2020-02-23T11:12:47Z</time>
      </trkpt>
      <trkpt lat="39.0410160" lon="1.6075840">
        <ele>4.1</ele>
        <time>2020-02-23T11:12:48Z</time>
      </trkpt>
      <trkpt lat="39.0410570" lon="1.6075850">
        <ele>4.0</ele>
        <time>2020-02-23T11:12:49Z</time>
      </trkpt>
      <trkpt lat="39.0411040" lon="1.6075760">
        <ele>3.8</ele>
        <time>2020-02-23T11:12:50Z</time>
      </trkpt>
      <trkpt lat="39.0411550" lon="1.6075850">
        <ele>3.6</ele>
        <time>2020-02-23T11:12:51Z</time>
      </trkpt>
      <trkpt lat="39.0412010" lon="1.6076130">
        <ele>3.4</ele>
        <time>2020-02-23T11:12:52Z</time>
      </trkpt>
      <trkpt lat="39.0412470" lon="1.6076430">
        <ele>3.3</ele>
        <time>2020-02-23T11:12:53Z</time>
      </trkpt>
      <trkpt lat="39.0412990" lon="1.6076620">
        <ele>3.2</ele>
        <time>2020-02-23T11:12:54Z</time>
      </trkpt>
      <trkpt lat="39.0413520" lon="1.6076770">
        <ele>3.0</ele>
        <time>2020-02-23T11:12:55Z</time>
      </trkpt>
      <trkpt lat="39.0414020" lon="1.6076850">
        <ele>2.9</ele>
        <time>2020-02-23T11:12:56Z</time>
      </trkpt>
      <trkpt lat="39.0414540" lon="1.6077030">
        <ele>2.9</ele>
        <time>2020-02-23T11:12:57Z</time>
      </trkpt>
      <trkpt lat="39.0415070" lon="1.6077310">
        <ele>2.8</ele>
        <time>2020-02-23T11:12:58Z</time>
      </trkpt>
      <trkpt lat="39.0415620" lon="1.6077540">
        <ele>2.7</ele>
        <time>2020-02-23T11:12:59Z</time>
      </trkpt>
      <trkpt lat="39.0416180" lon="1.6077650">
        <ele>2.7</ele>
        <time>2020-02-23T11:13:00Z</time>
      </trkpt>
      <trkpt lat="39.0416750" lon="1.6077870">
        <ele>2.6</ele>
        <time>2020-02-23T11:13:01Z</time>
      </trkpt>
      <trkpt lat="39.0417300" lon="1.6078250">
        <ele>2.5</ele>
        <time>2020-02-23T11:13:02Z</time>
      </trkpt>
      <trkpt lat="39.0417860" lon="1.6078640">
        <ele>2.4</ele>
        <time>2020-02-23T11:13:03Z</time>
      </trkpt>
      <trkpt lat="39.0418400" lon="1.6079010">
        <ele>2.3</ele>
        <time>2020-02-23T11:13:04Z</time>
      </trkpt>
      <trkpt lat="39.0418810" lon="1.6079390">
        <ele>2.2</ele>
        <time>2020-02-23T11:13:05Z</time>
      </trkpt>
      <trkpt lat="39.0419290" lon="1.6079650">
        <ele>2.1</ele>
        <time>2020-02-23T11:13:06Z</time>
      </trkpt>
      <trkpt lat="39.0419710" lon="1.6079910">
        <ele>2.1</ele>
        <time>2020-02-23T11:13:07Z</time>
      </trkpt>
      <trkpt lat="39.0420130" lon="1.6080100">
        <ele>2.0</ele>
        <time>2020-02-23T11:13:08Z</time>
      </trkpt>
      <trkpt lat="39.0420580" lon="1.6080300">
        <ele>1.9</ele>
        <time>2020-02-23T11:13:09Z</time>
      </trkpt>
      <trkpt lat="39.0420980" lon="1.6080460">
        <ele>1.9</ele>
        <time>2020-02-23T11:13:10Z</time>
      </trkpt>
      <trkpt lat="39.0421400" lon="1.6080600">
        <ele>1.8</ele>
        <time>2020-02-23T11:13:11Z</time>
      </trkpt>
      <trkpt lat="39.0421820" lon="1.6080670">
        <ele>1.8</ele>
        <time>2020-02-23T11:13:12Z</time>
      </trkpt>
      <trkpt lat="39.0422070" lon="1.6080930">
        <ele>1.8</ele>
        <time>2020-02-23T11:13:13Z</time>
      </trkpt>
      <trkpt lat="39.0422240" lon="1.6081230">
        <ele>1.8</ele>
        <time>2020-02-23T11:13:14Z</time>
      </trkpt>
      <trkpt lat="39.0422470" lon="1.6081610">
        <ele>1.8</ele>
        <time>2020-02-23T11:13:15Z</time>
      </trkpt>
      <trkpt lat="39.0422550" lon="1.6081710">
        <ele>1.8</ele>
        <time>2020-02-23T11:13:16Z</time>
      </trkpt>
      <trkpt lat="39.0422910" lon="1.6081950">
        <ele>1.8</ele>
        <time>2020-02-23T11:13:17Z</time>
      </trkpt>
      <trkpt lat="39.0423010" lon="1.6082050">
        <ele>1.9</ele>
        <time>2020-02-23T11:13:18Z</time>
      </trkpt>
      <trkpt lat="39.0423350" lon="1.6082110">
        <ele>2.0</ele>
        <time>2020-02-23T11:13:19Z</time>
      </trkpt>
      <trkpt lat="39.0423450" lon="1.6082140">
        <ele>2.0</ele>
        <time>2020-02-23T11:13:20Z</time>
      </trkpt>
      <trkpt lat="39.0423450" lon="1.6081960">
        <ele>2.1</ele>
        <time>2020-02-23T11:13:21Z</time>
      </trkpt>
      <trkpt lat="39.0423500" lon="1.6081760">
        <ele>2.2</ele>
        <time>2020-02-23T11:13:22Z</time>
      </trkpt>
      <trkpt lat="39.0423650" lon="1.6081630">
        <ele>2.3</ele>
        <time>2020-02-23T11:13:23Z</time>
      </trkpt>
      <trkpt lat="39.0423740" lon="1.6081540">
        <ele>2.3</ele>
        <time>2020-02-23T11:13:24Z</time>
      </trkpt>
      <trkpt lat="39.0423830" lon="1.6081440">
        <ele>2.3</ele>
        <time>2020-02-23T11:13:25Z</time>
      </trkpt>
      <trkpt lat="39.0424070" lon="1.6081060">
        <ele>2.5</ele>
        <time>2020-02-23T11:13:26Z</time>
      </trkpt>
      <trkpt lat="39.0424180" lon="1.6080940">
        <ele>2.6</ele>
        <time>2020-02-23T11:13:27Z</time>
      </trkpt>
      <trkpt lat="39.0424540" lon="1.6080830">
        <ele>2.7</ele>
        <time>2020-02-23T11:13:28Z</time>
      </trkpt>
      <trkpt lat="39.0424920" lon="1.6080740">
        <ele>3.3</ele>
        <time>2020-02-23T11:13:29Z</time>
      </trkpt>
      <trkpt lat="39.0425340" lon="1.6080670">
        <ele>3.5</ele>
        <time>2020-02-23T11:13:30Z</time>
      </trkpt>
      <trkpt lat="39.0425690" lon="1.6080620">
        <ele>3.7</ele>
        <time>2020-02-23T11:13:31Z</time>
      </trkpt>
      <trkpt lat="39.0426080" lon="1.6080420">
        <ele>3.9</ele>
        <time>2020-02-23T11:13:32Z</time>
      </trkpt>
      <trkpt lat="39.0426420" lon="1.6080310">
        <ele>4.1</ele>
        <time>2020-02-23T11:13:33Z</time>
      </trkpt>
      <trkpt lat="39.0426860" lon="1.6080220">
        <ele>4.3</ele>
        <time>2020-02-23T11:13:34Z</time>
      </trkpt>
      <trkpt lat="39.0427240" lon="1.6080330">
        <ele>4.5</ele>
        <time>2020-02-23T11:13:35Z</time>
      </trkpt>
      <trkpt lat="39.0427660" lon="1.6080390">
        <ele>4.7</ele>
        <time>2020-02-23T11:13:36Z</time>
      </trkpt>
      <trkpt lat="39.0428090" lon="1.6080440">
        <ele>4.9</ele>
        <time>2020-02-23T11:13:37Z</time>
      </trkpt>
      <trkpt lat="39.0428420" lon="1.6080630">
        <ele>4.8</ele>
        <time>2020-02-23T11:13:38Z</time>
      </trkpt>
      <trkpt lat="39.0428740" lon="1.6080840">
        <ele>4.7</ele>
        <time>2020-02-23T11:13:39Z</time>
      </trkpt>
      <trkpt lat="39.0429070" lon="1.6081080">
        <ele>4.6</ele>
        <time>2020-02-23T11:13:40Z</time>
      </trkpt>
      <trkpt lat="39.0429380" lon="1.6081330">
        <ele>4.5</ele>
        <time>2020-02-23T11:13:41Z</time>
      </trkpt>
      <trkpt lat="39.0429660" lon="1.6081530">
        <ele>4.4</ele>
        <time>2020-02-23T11:13:42Z</time>
      </trkpt>
      <trkpt lat="39.0429850" lon="1.6081950">
        <ele>4.3</ele>
        <time>2020-02-23T11:13:43Z</time>
      </trkpt>
      <trkpt lat="39.0430150" lon="1.6082220">
        <ele>4.1</ele>
        <time>2020-02-23T11:13:44Z</time>
      </trkpt>
      <trkpt lat="39.0430350" lon="1.6082570">
        <ele>4.0</ele>
        <time>2020-02-23T11:13:45Z</time>
      </trkpt>
      <trkpt lat="39.0430620" lon="1.6082970">
        <ele>3.9</ele>
        <time>2020-02-23T11:13:46Z</time>
      </trkpt>
      <trkpt lat="39.0430960" lon="1.6083290">
        <ele>3.7</ele>
        <time>2020-02-23T11:13:47Z</time>
      </trkpt>
      <trkpt lat="39.0431290" lon="1.6083640">
        <ele>3.5</ele>
        <time>2020-02-23T11:13:48Z</time>
      </trkpt>
      <trkpt lat="39.0431570" lon="1.6084070">
        <ele>3.4</ele>
        <time>2020-02-23T11:13:49Z</time>
      </trkpt>
      <trkpt lat="39.0431810" lon="1.6084400">
        <ele>3.2</ele>
        <time>2020-02-23T11:13:50Z</time>
      </trkpt>
      <trkpt lat="39.0432100" lon="1.6084890">
        <ele>3.0</ele>
        <time>2020-02-23T11:13:51Z</time>
      </trkpt>
      <trkpt lat="39.0432300" lon="1.6085160">
        <ele>2.9</ele>
        <time>2020-02-23T11:13:52Z</time>
      </trkpt>
      <trkpt lat="39.0432560" lon="1.6085400">
        <ele>2.8</ele>
        <time>2020-02-23T11:13:53Z</time>
      </trkpt>
      <trkpt lat="39.0432590" lon="1.6085480">
        <ele>2.7</ele>
        <time>2020-02-23T11:13:54Z</time>
      </trkpt>
      <trkpt lat="39.0432690" lon="1.6085870">
        <ele>2.6</ele>
        <time>2020-02-23T11:13:55Z</time>
      </trkpt>
      <trkpt lat="39.0432740" lon="1.6086020">
        <ele>2.6</ele>
        <time>2020-02-23T11:13:56Z</time>
      </trkpt>
      <trkpt lat="39.0432980" lon="1.6086310">
        <ele>2.5</ele>
        <time>2020-02-23T11:13:57Z</time>
      </trkpt>
      <trkpt lat="39.0433090" lon="1.6086390">
        <ele>2.4</ele>
        <time>2020-02-23T11:13:58Z</time>
      </trkpt>
      <trkpt lat="39.0433320" lon="1.6086680">
        <ele>2.1</ele>
        <time>2020-02-23T11:13:59Z</time>
      </trkpt>
      <trkpt lat="39.0433510" lon="1.6086980">
        <ele>1.9</ele>
        <time>2020-02-23T11:14:00Z</time>
      </trkpt>
      <trkpt lat="39.0433710" lon="1.6087270">
        <ele>1.7</ele>
        <time>2020-02-23T11:14:01Z</time>
      </trkpt>
      <trkpt lat="39.0434000" lon="1.6087580">
        <ele>1.5</ele>
        <time>2020-02-23T11:14:02Z</time>
      </trkpt>
      <trkpt lat="39.0434280" lon="1.6087700">
        <ele>1.4</ele>
        <time>2020-02-23T11:14:03Z</time>
      </trkpt>
      <trkpt lat="39.0434580" lon="1.6087790">
        <ele>1.3</ele>
        <time>2020-02-23T11:14:04Z</time>
      </trkpt>
      <trkpt lat="39.0434830" lon="1.6087970">
        <ele>1.2</ele>
        <time>2020-02-23T11:14:05Z</time>
      </trkpt>
      <trkpt lat="39.0435090" lon="1.6088170">
        <ele>1.0</ele>
        <time>2020-02-23T11:14:06Z</time>
      </trkpt>
      <trkpt lat="39.0435440" lon="1.6088310">
        <ele>0.9</ele>
        <time>2020-02-23T11:14:07Z</time>
      </trkpt>
      <trkpt lat="39.0435540" lon="1.6088350">
        <ele>0.8</ele>
        <time>2020-02-23T11:14:08Z</time>
      </trkpt>
      <trkpt lat="39.0435800" lon="1.6088460">
        <ele>0.7</ele>
        <time>2020-02-23T11:14:09Z</time>
      </trkpt>
      <trkpt lat="39.0436060" lon="1.6088580">
        <ele>0.6</ele>
        <time>2020-02-23T11:14:10Z</time>
      </trkpt>
      <trkpt lat="39.0436440" lon="1.6088650">
        <ele>0.5</ele>
        <time>2020-02-23T11:14:11Z</time>
      </trkpt>
      <trkpt lat="39.0436550" lon="1.6088700">
        <ele>0.5</ele>
        <time>2020-02-23T11:14:12Z</time>
      </trkpt>
      <trkpt lat="39.0436920" lon="1.6088660">
        <ele>0.4</ele>
        <time>2020-02-23T11:14:13Z</time>
      </trkpt>
      <trkpt lat="39.0437050" lon="1.6088580">
        <ele>0.3</ele>
        <time>2020-02-23T11:14:14Z</time>
      </trkpt>
      <trkpt lat="39.0437260" lon="1.6088340">
        <ele>0.3</ele>
        <time>2020-02-23T11:14:15Z</time>
      </trkpt>
      <trkpt lat="39.0437470" lon="1.6088010">
        <ele>0.2</ele>
        <time>2020-02-23T11:14:16Z</time>
      </trkpt>
      <trkpt lat="39.0437850" lon="1.6087900">
        <ele>0.2</ele>
        <time>2020-02-23T11:14:17Z</time>
      </trkpt>
      <trkpt lat="39.0437960" lon="1.6087870">
        <ele>0.2</ele>
        <time>2020-02-23T11:14:18Z</time>
      </trkpt>
      <trkpt lat="39.0438300" lon="1.6087760">
        <ele>0.2</ele>
        <time>2020-02-23T11:14:19Z</time>
      </trkpt>
      <trkpt lat="39.0438400" lon="1.6087720">
        <ele>0.1</ele>
        <time>2020-02-23T11:14:20Z</time>
      </trkpt>
      <trkpt lat="39.0438690" lon="1.6087540">
        <ele>0.1</ele>
        <time>2020-02-23T11:14:21Z</time>
      </trkpt>
      <trkpt lat="39.0438760" lon="1.6087470">
        <ele>0.1</ele>
        <time>2020-02-23T11:14:22Z</time>
      </trkpt>
      <trkpt lat="39.0438890" lon="1.6087390">
        <ele>0.1</ele>
        <time>2020-02-23T11:14:23Z</time>
      </trkpt>
      <trkpt lat="39.0439100" lon="1.6087340">
        <ele>0.1</ele>
        <time>2020-02-23T11:14:24Z</time>
      </trkpt>
      <trkpt lat="39.0439430" lon="1.6087290">
        <ele>0.1</ele>
        <time>2020-02-23T11:14:25Z</time>
      </trkpt>
      <trkpt lat="39.0439560" lon="1.6087260">
        <ele>0.1</ele>
        <time>2020-02-23T11:14:26Z</time>
      </trkpt>
      <trkpt lat="39.0439720" lon="1.6087210">
        <ele>0.1</ele>
        <time>2020-02-23T11:14:27Z</time>
      </trkpt>
      <trkpt lat="39.0439800" lon="1.6087120">
        <ele>0.1</ele>
        <time>2020-02-23T11:14:28Z</time>
      </trkpt>
      <trkpt lat="39.0439810" lon="1.6087080">
        <ele>0.1</ele>
        <time>2020-02-23T11:14:29Z</time>
      </trkpt>
      <trkpt lat="39.0439860" lon="1.6087050">
        <ele>0.1</ele>
        <time>2020-02-23T11:14:30Z</time>
      </trkpt>
      <trkpt lat="39.0439900" lon="1.6087000">
        <ele>0.1</ele>
        <time>2020-02-23T11:14:31Z</time>
      </trkpt>
      <trkpt lat="39.0439950" lon="1.6086960">
        <ele>0.1</ele>
        <time>2020-02-23T11:14:32Z</time>
      </trkpt>
      <trkpt lat="39.0440000" lon="1.6086910">
        <ele>0.1</ele>
        <time>2020-02-23T11:14:33Z</time>
      </trkpt>
      <trkpt lat="39.0440050" lon="1.6086870">
        <ele>0.1</ele>
        <time>2020-02-23T11:14:34Z</time>
      </trkpt>
      <trkpt lat="39.0440090" lon="1.6086820">
        <ele>0.1</ele>
        <time>2020-02-23T11:14:35Z</time>
      </trkpt>
      <trkpt lat="39.0440140" lon="1.6086780">
        <ele>0.1</ele>
        <time>2020-02-23T11:14:36Z</time>
      </trkpt>
      <trkpt lat="39.0440480" lon="1.6086670">
        <ele>0.1</ele>
        <time>2020-02-23T11:14:37Z</time>
      </trkpt>
      <trkpt lat="39.0440790" lon="1.6086640">
        <ele>0.1</ele>
        <time>2020-02-23T11:14:38Z</time>
      </trkpt>
      <trkpt lat="39.0441120" lon="1.6086470">
        <ele>0.1</ele>
        <time>2020-02-23T11:14:39Z</time>
      </trkpt>
      <trkpt lat="39.0441400" lon="1.6086210">
        <ele>0.2</ele>
        <time>2020-02-23T11:14:40Z</time>
      </trkpt>
      <trkpt lat="39.0441630" lon="1.6085890">
        <ele>0.3</ele>
        <time>2020-02-23T11:14:41Z</time>
      </trkpt>
      <trkpt lat="39.0441730" lon="1.6085400">
        <ele>0.4</ele>
        <time>2020-02-23T11:14:42Z</time>
      </trkpt>
      <trkpt lat="39.0441760" lon="1.6085230">
        <ele>0.4</ele>
        <time>2020-02-23T11:14:43Z</time>
      </trkpt>
      <trkpt lat="39.0441920" lon="1.6084870">
        <ele>0.5</ele>
        <time>2020-02-23T11:14:44Z</time>
      </trkpt>
      <trkpt lat="39.0442060" lon="1.6084570">
        <ele>0.5</ele>
        <time>2020-02-23T11:14:45Z</time>
      </trkpt>
      <trkpt lat="39.0442230" lon="1.6084200">
        <ele>0.6</ele>
        <time>2020-02-23T11:14:46Z</time>
      </trkpt>
      <trkpt lat="39.0442270" lon="1.6084100">
        <ele>0.6</ele>
        <time>2020-02-23T11:14:47Z</time>
      </trkpt>
      <trkpt lat="39.0442440" lon="1.6083690">
        <ele>0.7</ele>
        <time>2020-02-23T11:14:48Z</time>
      </trkpt>
      <trkpt lat="39.0442500" lon="1.6083540">
        <ele>0.7</ele>
        <time>2020-02-23T11:14:49Z</time>
      </trkpt>
      <trkpt lat="39.0442720" lon="1.6083270">
        <ele>0.8</ele>
        <time>2020-02-23T11:14:50Z</time>
      </trkpt>
      <trkpt lat="39.0442800" lon="1.6083190">
        <ele>0.8</ele>
        <time>2020-02-23T11:14:51Z</time>
      </trkpt>
      <trkpt lat="39.0443130" lon="1.6083070">
        <ele>0.8</ele>
        <time>2020-02-23T11:14:52Z</time>
      </trkpt>
      <trkpt lat="39.0443230" lon="1.6083020">
        <ele>0.8</ele>
        <time>2020-02-23T11:14:53Z</time>
      </trkpt>
      <trkpt lat="39.0443400" lon="1.6082990">
        <ele>0.8</ele>
        <time>2020-02-23T11:14:54Z</time>
      </trkpt>
      <trkpt lat="39.0443480" lon="1.6083000">
        <ele>0.8</ele>
        <time>2020-02-23T11:14:55Z</time>
      </trkpt>
      <trkpt lat="39.0443580" lon="1.6082990">
        <ele>0.9</ele>
        <time>2020-02-23T11:14:56Z</time>
      </trkpt>
      <trkpt lat="39.0443610" lon="1.6082900">
        <ele>0.9</ele>
        <time>2020-02-23T11:14:57Z</time>
      </trkpt>
      <trkpt lat="39.0443630" lon="1.6082920">
        <ele>0.9</ele>
        <time>2020-02-23T11:14:58Z</time>
      </trkpt>
      <trkpt lat="39.0443660" lon="1.6082820">
        <ele>0.9</ele>
        <time>2020-02-23T11:14:59Z</time>
      </trkpt>
      <trkpt lat="39.0443670" lon="1.6082810">
        <ele>0.9</ele>
        <time>2020-02-23T11:15:00Z</time>
      </trkpt>
      <trkpt lat="39.0443680" lon="1.6082810">
        <ele>0.9</ele>
        <time>2020-02-23T11:15:01Z</time>
      </trkpt>
      <trkpt lat="39.0443680" lon="1.6082800">
        <ele>0.9</ele>
        <time>2020-02-23T11:15:02Z</time>
      </trkpt>
      <trkpt lat="39.0443680" lon="1.6082790">
        <ele>0.9</ele>
        <time>2020-02-23T11:15:03Z</time>
      </trkpt>
      <trkpt lat="39.0443690" lon="1.6082780">
        <ele>0.9</ele>
        <time>2020-02-23T11:15:04Z</time>
      </trkpt>
      <trkpt lat="39.0443690" lon="1.6082780">
        <ele>0.9</ele>
        <time>2020-02-23T11:15:05Z</time>
      </trkpt>
      <trkpt lat="39.0443690" lon="1.6082770">
        <ele>0.9</ele>
        <time>2020-02-23T11:15:06Z</time>
      </trkpt>
      <trkpt lat="39.0443690" lon="1.6082760">
        <ele>0.9</ele>
        <time>2020-02-23T11:15:07Z</time>
      </trkpt>
      <trkpt lat="39.0443460" lon="1.6083500">
        <ele>1.0</ele>
        <time>2020-02-23T11:15:30Z</time>
      </trkpt>
      <trkpt lat="39.0443370" lon="1.6083580">
        <ele>1.0</ele>
        <time>2020-02-23T11:15:31Z</time>
      </trkpt>
      <trkpt lat="39.0443120" lon="1.6083740">
        <ele>1.0</ele>
        <time>2020-02-23T11:15:32Z</time>
      </trkpt>
      <trkpt lat="39.0443000" lon="1.6083780">
        <ele>1.0</ele>
        <time>2020-02-23T11:15:33Z</time>
      </trkpt>
      <trkpt lat="39.0442680" lon="1.6084050">
        <ele>0.9</ele>
        <time>2020-02-23T11:15:34Z</time>
      </trkpt>
      <trkpt lat="39.0442560" lon="1.6084180">
        <ele>0.9</ele>
        <time>2020-02-23T11:15:35Z</time>
      </trkpt>
      <trkpt lat="39.0442360" lon="1.6084590">
        <ele>0.8</ele>
        <time>2020-02-23T11:15:36Z</time>
      </trkpt>
      <trkpt lat="39.0442320" lon="1.6084720">
        <ele>0.8</ele>
        <time>2020-02-23T11:15:37Z</time>
      </trkpt>
      <trkpt lat="39.0442210" lon="1.6085070">
        <ele>0.8</ele>
        <time>2020-02-23T11:15:38Z</time>
      </trkpt>
      <trkpt lat="39.0441970" lon="1.6085450">
        <ele>0.7</ele>
        <time>2020-02-23T11:15:39Z</time>
      </trkpt>
      <trkpt lat="39.0441750" lon="1.6085840">
        <ele>0.7</ele>
        <time>2020-02-23T11:15:40Z</time>
      </trkpt>
      <trkpt lat="39.0441450" lon="1.6086230">
        <ele>0.5</ele>
        <time>2020-02-23T11:15:41Z</time>
      </trkpt>
      <trkpt lat="39.0441160" lon="1.6086490">
        <ele>0.5</ele>
        <time>2020-02-23T11:15:42Z</time>
      </trkpt>
      <trkpt lat="39.0440880" lon="1.6086740">
        <ele>0.3</ele>
        <time>2020-02-23T11:15:43Z</time>
      </trkpt>
      <trkpt lat="39.0440610" lon="1.6087000">
        <ele>0.2</ele>
        <time>2020-02-23T11:15:44Z</time>
      </trkpt>
      <trkpt lat="39.0440280" lon="1.6087270">
        <ele>0.2</ele>
        <time>2020-02-23T11:15:45Z</time>
      </trkpt>
      <trkpt lat="39.0439940" lon="1.6087460">
        <ele>0.1</ele>
        <time>2020-02-23T11:15:46Z</time>
      </trkpt>
      <trkpt lat="39.0439600" lon="1.6087590">
        <ele>0.1</ele>
        <time>2020-02-23T11:15:47Z</time>
      </trkpt>
      <trkpt lat="39.0439220" lon="1.6087590">
        <ele>0.1</ele>
        <time>2020-02-23T11:15:48Z</time>
      </trkpt>
      <trkpt lat="39.0438890" lon="1.6087720">
        <ele>0.1</ele>
        <time>2020-02-23T11:15:49Z</time>
      </trkpt>
      <trkpt lat="39.0438500" lon="1.6087830">
        <ele>0.1</ele>
        <time>2020-02-23T11:15:50Z</time>
      </trkpt>
      <trkpt lat="39.0438230" lon="1.6088010">
        <ele>0.1</ele>
        <time>2020-02-23T11:15:51Z</time>
      </trkpt>
      <trkpt lat="39.0437930" lon="1.6088120">
        <ele>0.1</ele>
        <time>2020-02-23T11:15:52Z</time>
      </trkpt>
      <trkpt lat="39.0437590" lon="1.6088290">
        <ele>0.2</ele>
        <time>2020-02-23T11:15:53Z</time>
      </trkpt>
      <trkpt lat="39.0437260" lon="1.6088300">
        <ele>0.2</ele>
        <time>2020-02-23T11:15:54Z</time>
      </trkpt>
      <trkpt lat="39.0436840" lon="1.6088270">
        <ele>0.2</ele>
        <time>2020-02-23T11:15:55Z</time>
      </trkpt>
      <trkpt lat="39.0436480" lon="1.6088400">
        <ele>0.3</ele>
        <time>2020-02-23T11:15:56Z</time>
      </trkpt>
      <trkpt lat="39.0436110" lon="1.6088590">
        <ele>0.4</ele>
        <time>2020-02-23T11:15:57Z</time>
      </trkpt>
      <trkpt lat="39.0435750" lon="1.6088660">
        <ele>0.5</ele>
        <time>2020-02-23T11:15:58Z</time>
      </trkpt>
      <trkpt lat="39.0435390" lon="1.6088510">
        <ele>0.6</ele>
        <time>2020-02-23T11:15:59Z</time>
      </trkpt>
      <trkpt lat="39.0435110" lon="1.6088120">
        <ele>0.8</ele>
        <time>2020-02-23T11:16:00Z</time>
      </trkpt>
      <trkpt lat="39.0434850" lon="1.6087820">
        <ele>1.0</ele>
        <time>2020-02-23T11:16:01Z</time>
      </trkpt>
      <trkpt lat="39.0434550" lon="1.6087670">
        <ele>1.2</ele>
        <time>2020-02-23T11:16:02Z</time>
      </trkpt>
      <trkpt lat="39.0434190" lon="1.6087590">
        <ele>1.3</ele>
        <time>2020-02-23T11:16:03Z</time>
      </trkpt>
      <trkpt lat="39.0433770" lon="1.6087460">
        <ele>1.6</ele>
        <time>2020-02-23T11:16:04Z</time>
      </trkpt>
      <trkpt lat="39.0433380" lon="1.6087280">
        <ele>1.8</ele>
        <time>2020-02-23T11:16:05Z</time>
      </trkpt>
      <trkpt lat="39.0433100" lon="1.6086960">
        <ele>2.1</ele>
        <time>2020-02-23T11:16:06Z</time>
      </trkpt>
      <trkpt lat="39.0432780" lon="1.6086580">
        <ele>2.4</ele>
        <time>2020-02-23T11:16:07Z</time>
      </trkpt>
      <trkpt lat="39.0432650" lon="1.6086420">
        <ele>2.5</ele>
        <time>2020-02-23T11:16:08Z</time>
      </trkpt>
      <trkpt lat="39.0432440" lon="1.6086070">
        <ele>2.6</ele>
        <time>2020-02-23T11:16:09Z</time>
      </trkpt>
      <trkpt lat="39.0432220" lon="1.6085640">
        <ele>2.7</ele>
        <time>2020-02-23T11:16:10Z</time>
      </trkpt>
      <trkpt lat="39.0432060" lon="1.6085280">
        <ele>2.9</ele>
        <time>2020-02-23T11:16:11Z</time>
      </trkpt>
      <trkpt lat="39.0431980" lon="1.6084810">
        <ele>3.0</ele>
        <time>2020-02-23T11:16:12Z</time>
      </trkpt>
      <trkpt lat="39.0431750" lon="1.6084410">
        <ele>3.2</ele>
        <time>2020-02-23T11:16:13Z</time>
      </trkpt>
      <trkpt lat="39.0431520" lon="1.6084120">
        <ele>3.3</ele>
        <time>2020-02-23T11:16:14Z</time>
      </trkpt>
      <trkpt lat="39.0431320" lon="1.6083850">
        <ele>3.4</ele>
        <time>2020-02-23T11:16:15Z</time>
      </trkpt>
      <trkpt lat="39.0431070" lon="1.6083630">
        <ele>3.6</ele>
        <time>2020-02-23T11:16:16Z</time>
      </trkpt>
      <trkpt lat="39.0430890" lon="1.6083360">
        <ele>3.7</ele>
        <time>2020-02-23T11:16:17Z</time>
      </trkpt>
      <trkpt lat="39.0430620" lon="1.6083060">
        <ele>3.8</ele>
        <time>2020-02-23T11:16:18Z</time>
      </trkpt>
      <trkpt lat="39.0430320" lon="1.6082810">
        <ele>3.9</ele>
        <time>2020-02-23T11:16:19Z</time>
      </trkpt>
      <trkpt lat="39.0430040" lon="1.6082560">
        <ele>4.1</ele>
        <time>2020-02-23T11:16:20Z</time>
      </trkpt>
      <trkpt lat="39.0429730" lon="1.6082310">
        <ele>4.2</ele>
        <time>2020-02-23T11:16:21Z</time>
      </trkpt>
      <trkpt lat="39.0429510" lon="1.6081990">
        <ele>4.3</ele>
        <time>2020-02-23T11:16:22Z</time>
      </trkpt>
      <trkpt lat="39.0429310" lon="1.6081710">
        <ele>4.4</ele>
        <time>2020-02-23T11:16:23Z</time>
      </trkpt>
      <trkpt lat="39.0428870" lon="1.6081370">
        <ele>4.6</ele>
        <time>2020-02-23T11:16:24Z</time>
      </trkpt>
      <trkpt lat="39.0428620" lon="1.6081090">
        <ele>4.7</ele>
        <time>2020-02-23T11:16:25Z</time>
      </trkpt>
      <trkpt lat="39.0428320" lon="1.6080860">
        <ele>4.8</ele>
        <time>2020-02-23T11:16:26Z</time>
      </trkpt>
      <trkpt lat="39.0428040" lon="1.6080590">
        <ele>4.9</ele>
        <time>2020-02-23T11:16:27Z</time>
      </trkpt>
      <trkpt lat="39.0427800" lon="1.6080270">
        <ele>4.9</ele>
        <time>2020-02-23T11:16:28Z</time>
      </trkpt>
      <trkpt lat="39.0427700" lon="1.6080180">
        <ele>5.0</ele>
        <time>2020-02-23T11:16:29Z</time>
      </trkpt>
      <trkpt lat="39.0427410" lon="1.6080100">
        <ele>4.7</ele>
        <time>2020-02-23T11:16:30Z</time>
      </trkpt>
      <trkpt lat="39.0427070" lon="1.6080080">
        <ele>4.6</ele>
        <time>2020-02-23T11:16:31Z</time>
      </trkpt>
      <trkpt lat="39.0426770" lon="1.6079970">
        <ele>4.4</ele>
        <time>2020-02-23T11:16:32Z</time>
      </trkpt>
      <trkpt lat="39.0426370" lon="1.6080060">
        <ele>4.2</ele>
        <time>2020-02-23T11:16:33Z</time>
      </trkpt>
      <trkpt lat="39.0426220" lon="1.6080090">
        <ele>4.1</ele>
        <time>2020-02-23T11:16:34Z</time>
      </trkpt>
      <trkpt lat="39.0425880" lon="1.6080150">
        <ele>4.0</ele>
        <time>2020-02-23T11:16:35Z</time>
      </trkpt>
      <trkpt lat="39.0425540" lon="1.6080240">
        <ele>3.8</ele>
        <time>2020-02-23T11:16:36Z</time>
      </trkpt>
      <trkpt lat="39.0425200" lon="1.6080320">
        <ele>3.6</ele>
        <time>2020-02-23T11:16:37Z</time>
      </trkpt>
      <trkpt lat="39.0424870" lon="1.6080540">
        <ele>3.4</ele>
        <time>2020-02-23T11:16:38Z</time>
      </trkpt>
      <trkpt lat="39.0424520" lon="1.6080640">
        <ele>3.3</ele>
        <time>2020-02-23T11:16:39Z</time>
      </trkpt>
      <trkpt lat="39.0424180" lon="1.6080670">
        <ele>3.1</ele>
        <time>2020-02-23T11:16:40Z</time>
      </trkpt>
      <trkpt lat="39.0423830" lon="1.6080460">
        <ele>2.9</ele>
        <time>2020-02-23T11:16:41Z</time>
      </trkpt>
      <trkpt lat="39.0423680" lon="1.6080110">
        <ele>2.8</ele>
        <time>2020-02-23T11:16:42Z</time>
      </trkpt>
      <trkpt lat="39.0423690" lon="1.6079670">
        <ele>3.4</ele>
        <time>2020-02-23T11:16:43Z</time>
      </trkpt>
      <trkpt lat="39.0423740" lon="1.6079160">
        <ele>3.8</ele>
        <time>2020-02-23T11:16:44Z</time>
      </trkpt>
      <trkpt lat="39.0423800" lon="1.6078710">
        <ele>4.1</ele>
        <time>2020-02-23T11:16:45Z</time>
      </trkpt>
      <trkpt lat="39.0423880" lon="1.6078290">
        <ele>4.6</ele>
        <time>2020-02-23T11:16:46Z</time>
      </trkpt>
      <trkpt lat="39.0423920" lon="1.6077910">
        <ele>5.0</ele>
        <time>2020-02-23T11:16:47Z</time>
      </trkpt>
      <trkpt lat="39.0423940" lon="1.6077510">
        <ele>5.5</ele>
        <time>2020-02-23T11:16:48Z</time>
      </trkpt>
      <trkpt lat="39.0423960" lon="1.6077170">
        <ele>5.9</ele>
        <time>2020-02-23T11:16:49Z</time>
      </trkpt>
      <trkpt lat="39.0423960" lon="1.6076690">
        <ele>6.4</ele>
        <time>2020-02-23T11:16:50Z</time>
      </trkpt>
      <trkpt lat="39.0423930" lon="1.6076330">
        <ele>6.7</ele>
        <time>2020-02-23T11:16:51Z</time>
      </trkpt>
      <trkpt lat="39.0423930" lon="1.6075950">
        <ele>7.1</ele>
        <time>2020-02-23T11:16:52Z</time>
      </trkpt>
      <trkpt lat="39.0423950" lon="1.6075540">
        <ele>7.5</ele>
        <time>2020-02-23T11:16:53Z</time>
      </trkpt>
      <trkpt lat="39.0423970" lon="1.6075150">
        <ele>7.9</ele>
        <time>2020-02-23T11:16:54Z</time>
      </trkpt>
      <trkpt lat="39.0424000" lon="1.6074800">
        <ele>8.2</ele>
        <time>2020-02-23T11:16:55Z</time>
      </trkpt>
      <trkpt lat="39.0424050" lon="1.6074440">
        <ele>8.8</ele>
        <time>2020-02-23T11:16:56Z</time>
      </trkpt>
      <trkpt lat="39.0424060" lon="1.6074250">
        <ele>8.9</ele>
        <time>2020-02-23T11:16:57Z</time>
      </trkpt>
      <trkpt lat="39.0424120" lon="1.6073980">
        <ele>9.0</ele>
        <time>2020-02-23T11:16:58Z</time>
      </trkpt>
      <trkpt lat="39.0424140" lon="1.6073470">
        <ele>9.2</ele>
        <time>2020-02-23T11:16:59Z</time>
      </trkpt>
      <trkpt lat="39.0424140" lon="1.6073260">
        <ele>9.3</ele>
        <time>2020-02-23T11:17:00Z</time>
      </trkpt>
      <trkpt lat="39.0424170" lon="1.6072830">
        <ele>9.5</ele>
        <time>2020-02-23T11:17:01Z</time>
      </trkpt>
      <trkpt lat="39.0424130" lon="1.6072470">
        <ele>9.6</ele>
        <time>2020-02-23T11:17:02Z</time>
      </trkpt>
      <trkpt lat="39.0424050" lon="1.6071960">
        <ele>9.8</ele>
        <time>2020-02-23T11:17:03Z</time>
      </trkpt>
      <trkpt lat="39.0424030" lon="1.6071780">
        <ele>9.9</ele>
        <time>2020-02-23T11:17:04Z</time>
      </trkpt>
      <trkpt lat="39.0423970" lon="1.6071440">
        <ele>10.1</ele>
        <time>2020-02-23T11:17:05Z</time>
      </trkpt>
      <trkpt lat="39.0423940" lon="1.6071200">
        <ele>10.2</ele>
        <time>2020-02-23T11:17:06Z</time>
      </trkpt>
      <trkpt lat="39.0423950" lon="1.6071030">
        <ele>10.3</ele>
        <time>2020-02-23T11:17:07Z</time>
      </trkpt>
      <trkpt lat="39.0424000" lon="1.6070630">
        <ele>10.5</ele>
        <time>2020-02-23T11:17:08Z</time>
      </trkpt>
      <trkpt lat="39.0424020" lon="1.6070480">
        <ele>10.5</ele>
        <time>2020-02-23T11:17:09Z</time>
      </trkpt>
      <trkpt lat="39.0424060" lon="1.6070000">
        <ele>10.8</ele>
        <time>2020-02-23T11:17:10Z</time>
      </trkpt>
      <trkpt lat="39.0424060" lon="1.6069850">
        <ele>10.8</ele>
        <time>2020-02-23T11:17:11Z</time>
      </trkpt>
      <trkpt lat="39.0424090" lon="1.6069470">
        <ele>11.0</ele>
        <time>2020-02-23T11:17:12Z</time>
      </trkpt>
      <trkpt lat="39.0424090" lon="1.6069000">
        <ele>11.3</ele>
        <time>2020-02-23T11:17:13Z</time>
      </trkpt>
      <trkpt lat="39.0424070" lon="1.6068860">
        <ele>11.3</ele>
        <time>2020-02-23T11:17:14Z</time>
      </trkpt>
      <trkpt lat="39.0424090" lon="1.6068600">
        <ele>11.5</ele>
        <time>2020-02-23T11:17:15Z</time>
      </trkpt>
      <trkpt lat="39.0424100" lon="1.6068430">
        <ele>11.6</ele>
        <time>2020-02-23T11:17:16Z</time>
      </trkpt>
      <trkpt lat="39.0424210" lon="1.6067930">
        <ele>11.8</ele>
        <time>2020-02-23T11:17:17Z</time>
      </trkpt>
      <trkpt lat="39.0424260" lon="1.6067730">
        <ele>11.9</ele>
        <time>2020-02-23T11:17:18Z</time>
      </trkpt>
      <trkpt lat="39.0424290" lon="1.6067320">
        <ele>12.2</ele>
        <time>2020-02-23T11:17:19Z</time>
      </trkpt>
      <trkpt lat="39.0424290" lon="1.6067200">
        <ele>12.2</ele>
        <time>2020-02-23T11:17:20Z</time>
      </trkpt>
      <trkpt lat="39.0424330" lon="1.6066680">
        <ele>12.5</ele>
        <time>2020-02-23T11:17:21Z</time>
      </trkpt>
      <trkpt lat="39.0424350" lon="1.6066460">
        <ele>12.7</ele>
        <time>2020-02-23T11:17:22Z</time>
      </trkpt>
      <trkpt lat="39.0424240" lon="1.6066050">
        <ele>12.9</ele>
        <time>2020-02-23T11:17:23Z</time>
      </trkpt>
      <trkpt lat="39.0424210" lon="1.6065920">
        <ele>13.0</ele>
        <time>2020-02-23T11:17:24Z</time>
      </trkpt>
      <trkpt lat="39.0424140" lon="1.6065430">
        <ele>13.3</ele>
        <time>2020-02-23T11:17:25Z</time>
      </trkpt>
      <trkpt lat="39.0424110" lon="1.6065280">
        <ele>13.4</ele>
        <time>2020-02-23T11:17:26Z</time>
      </trkpt>
      <trkpt lat="39.0424060" lon="1.6064830">
        <ele>13.7</ele>
        <time>2020-02-23T11:17:27Z</time>
      </trkpt>
      <trkpt lat="39.0424040" lon="1.6064660">
        <ele>13.8</ele>
        <time>2020-02-23T11:17:28Z</time>
      </trkpt>
      <trkpt lat="39.0424080" lon="1.6064290">
        <ele>14.0</ele>
        <time>2020-02-23T11:17:29Z</time>
      </trkpt>
      <trkpt lat="39.0424090" lon="1.6064160">
        <ele>14.1</ele>
        <time>2020-02-23T11:17:30Z</time>
      </trkpt>
      <trkpt lat="39.0424130" lon="1.6063740">
        <ele>14.4</ele>
        <time>2020-02-23T11:17:31Z</time>
      </trkpt>
      <trkpt lat="39.0424090" lon="1.6063310">
        <ele>14.6</ele>
        <time>2020-02-23T11:17:32Z</time>
      </trkpt>
      <trkpt lat="39.0424080" lon="1.6063180">
        <ele>14.7</ele>
        <time>2020-02-23T11:17:33Z</time>
      </trkpt>
      <trkpt lat="39.0424040" lon="1.6062770">
        <ele>15.0</ele>
        <time>2020-02-23T11:17:34Z</time>
      </trkpt>
      <trkpt lat="39.0424020" lon="1.6062630">
        <ele>15.1</ele>
        <time>2020-02-23T11:17:35Z</time>
      </trkpt>
      <trkpt lat="39.0424010" lon="1.6062150">
        <ele>15.4</ele>
        <time>2020-02-23T11:17:36Z</time>
      </trkpt>
      <trkpt lat="39.0423980" lon="1.6061990">
        <ele>15.5</ele>
        <time>2020-02-23T11:17:37Z</time>
      </trkpt>
      <trkpt lat="39.0424030" lon="1.6061510">
        <ele>15.8</ele>
        <time>2020-02-23T11:17:38Z</time>
      </trkpt>
      <trkpt lat="39.0424040" lon="1.6061340">
        <ele>15.9</ele>
        <time>2020-02-23T11:17:39Z</time>
      </trkpt>
      <trkpt lat="39.0424030" lon="1.6060890">
        <ele>16.2</ele>
        <time>2020-02-23T11:17:40Z</time>
      </trkpt>
      <trkpt lat="39.0424020" lon="1.6060760">
        <ele>16.3</ele>
        <time>2020-02-23T11:17:41Z</time>
      </trkpt>
      <trkpt lat="39.0423990" lon="1.6060540">
        <ele>16.4</ele>
        <time>2020-02-23T11:17:42Z</time>
      </trkpt>
      <trkpt lat="39.0423950" lon="1.6060320">
        <ele>16.5</ele>
        <time>2020-02-23T11:17:43Z</time>
      </trkpt>
      <trkpt lat="39.0423910" lon="1.6060090">
        <ele>16.7</ele>
        <time>2020-02-23T11:17:44Z</time>
      </trkpt>
      <trkpt lat="39.0423940" lon="1.6059850">
        <ele>16.9</ele>
        <time>2020-02-23T11:17:45Z</time>
      </trkpt>
      <trkpt lat="39.0423950" lon="1.6059430">
        <ele>17.1</ele>
        <time>2020-02-23T11:17:46Z</time>
      </trkpt>
      <trkpt lat="39.0423930" lon="1.6059260">
        <ele>17.2</ele>
        <time>2020-02-23T11:17:47Z</time>
      </trkpt>
      <trkpt lat="39.0423940" lon="1.6058780">
        <ele>17.5</ele>
        <time>2020-02-23T11:17:48Z</time>
      </trkpt>
      <trkpt lat="39.0423930" lon="1.6058630">
        <ele>17.6</ele>
        <time>2020-02-23T11:17:49Z</time>
      </trkpt>
      <trkpt lat="39.0424020" lon="1.6058160">
        <ele>17.9</ele>
        <time>2020-02-23T11:17:50Z</time>
      </trkpt>
      <trkpt lat="39.0424060" lon="1.6057970">
        <ele>18.0</ele>
        <time>2020-02-23T11:17:51Z</time>
      </trkpt>
      <trkpt lat="39.0424140" lon="1.6057520">
        <ele>18.3</ele>
        <time>2020-02-23T11:17:52Z</time>
      </trkpt>
      <trkpt lat="39.0424180" lon="1.6057020">
        <ele>18.5</ele>
        <time>2020-02-23T11:17:53Z</time>
      </trkpt>
      <trkpt lat="39.0424200" lon="1.6056860">
        <ele>18.6</ele>
        <time>2020-02-23T11:17:54Z</time>
      </trkpt>
      <trkpt lat="39.0424250" lon="1.6056440">
        <ele>18.8</ele>
        <time>2020-02-23T11:17:55Z</time>
      </trkpt>
      <trkpt lat="39.0424270" lon="1.6056310">
        <ele>18.9</ele>
        <time>2020-02-23T11:17:56Z</time>
      </trkpt>
      <trkpt lat="39.0424220" lon="1.6056110">
        <ele>19.1</ele>
        <time>2020-02-23T11:17:57Z</time>
      </trkpt>
      <trkpt lat="39.0424190" lon="1.6055900">
        <ele>19.3</ele>
        <time>2020-02-23T11:17:58Z</time>
      </trkpt>
      <trkpt lat="39.0424110" lon="1.6055480">
        <ele>19.7</ele>
        <time>2020-02-23T11:17:59Z</time>
      </trkpt>
      <trkpt lat="39.0424100" lon="1.6055340">
        <ele>19.8</ele>
        <time>2020-02-23T11:18:00Z</time>
      </trkpt>
      <trkpt lat="39.0424140" lon="1.6054960">
        <ele>20.1</ele>
        <time>2020-02-23T11:18:01Z</time>
      </trkpt>
      <trkpt lat="39.0424160" lon="1.6054470">
        <ele>20.5</ele>
        <time>2020-02-23T11:18:02Z</time>
      </trkpt>
      <trkpt lat="39.0424150" lon="1.6054300">
        <ele>20.6</ele>
        <time>2020-02-23T11:18:03Z</time>
      </trkpt>
      <trkpt lat="39.0424120" lon="1.6053930">
        <ele>20.9</ele>
        <time>2020-02-23T11:18:04Z</time>
      </trkpt>
      <trkpt lat="39.0424110" lon="1.6053500">
        <ele>21.1</ele>
        <time>2020-02-23T11:18:05Z</time>
      </trkpt>
      <trkpt lat="39.0424100" lon="1.6053350">
        <ele>21.2</ele>
        <time>2020-02-23T11:18:06Z</time>
      </trkpt>
      <trkpt lat="39.0424120" lon="1.6052930">
        <ele>21.5</ele>
        <time>2020-02-23T11:18:07Z</time>
      </trkpt>
      <trkpt lat="39.0424110" lon="1.6052780">
        <ele>21.6</ele>
        <time>2020-02-23T11:18:08Z</time>
      </trkpt>
      <trkpt lat="39.0424090" lon="1.6052270">
        <ele>21.9</ele>
        <time>2020-02-23T11:18:09Z</time>
      </trkpt>
      <trkpt lat="39.0424100" lon="1.6052070">
        <ele>22.0</ele>
        <time>2020-02-23T11:18:10Z</time>
      </trkpt>
      <trkpt lat="39.0424030" lon="1.6051690">
        <ele>22.2</ele>
        <time>2020-02-23T11:18:11Z</time>
      </trkpt>
      <trkpt lat="39.0424020" lon="1.6051270">
        <ele>22.5</ele>
        <time>2020-02-23T11:18:12Z</time>
      </trkpt>
      <trkpt lat="39.0424070" lon="1.6050820">
        <ele>22.7</ele>
        <time>2020-02-23T11:18:13Z</time>
      </trkpt>
      <trkpt lat="39.0424110" lon="1.6050670">
        <ele>22.8</ele>
        <time>2020-02-23T11:18:14Z</time>
      </trkpt>
      <trkpt lat="39.0424080" lon="1.6050230">
        <ele>23.0</ele>
        <time>2020-02-23T11:18:15Z</time>
      </trkpt>
      <trkpt lat="39.0424060" lon="1.6050100">
        <ele>23.1</ele>
        <time>2020-02-23T11:18:16Z</time>
      </trkpt>
      <trkpt lat="39.0424080" lon="1.6049600">
        <ele>23.4</ele>
        <time>2020-02-23T11:18:17Z</time>
      </trkpt>
      <trkpt lat="39.0424090" lon="1.6049410">
        <ele>23.5</ele>
        <time>2020-02-23T11:18:18Z</time>
      </trkpt>
      <trkpt lat="39.0424080" lon="1.6049010">
        <ele>23.7</ele>
        <time>2020-02-23T11:18:19Z</time>
      </trkpt>
      <trkpt lat="39.0424080" lon="1.6048860">
        <ele>23.8</ele>
        <time>2020-02-23T11:18:20Z</time>
      </trkpt>
      <trkpt lat="39.0424080" lon="1.6048660">
        <ele>24.0</ele>
        <time>2020-02-23T11:18:21Z</time>
      </trkpt>
      <trkpt lat="39.0424080" lon="1.6048410">
        <ele>24.1</ele>
        <time>2020-02-23T11:18:22Z</time>
      </trkpt>
      <trkpt lat="39.0423980" lon="1.6048080">
        <ele>24.4</ele>
        <time>2020-02-23T11:18:23Z</time>
      </trkpt>
      <trkpt lat="39.0423980" lon="1.6047910">
        <ele>24.5</ele>
        <time>2020-02-23T11:18:24Z</time>
      </trkpt>
      <trkpt lat="39.0423970" lon="1.6047370">
        <ele>24.7</ele>
        <time>2020-02-23T11:18:25Z</time>
      </trkpt>
      <trkpt lat="39.0423990" lon="1.6047170">
        <ele>24.8</ele>
        <time>2020-02-23T11:18:26Z</time>
      </trkpt>
      <trkpt lat="39.0424050" lon="1.6046750">
        <ele>25.0</ele>
        <time>2020-02-23T11:18:27Z</time>
      </trkpt>
      <trkpt lat="39.0424080" lon="1.6046340">
        <ele>25.2</ele>
        <time>2020-02-23T11:18:28Z</time>
      </trkpt>
      <trkpt lat="39.0424160" lon="1.6045880">
        <ele>25.5</ele>
        <time>2020-02-23T11:18:29Z</time>
      </trkpt>
      <trkpt lat="39.0424170" lon="1.6045720">
        <ele>25.5</ele>
        <time>2020-02-23T11:18:30Z</time>
      </trkpt>
      <trkpt lat="39.0424250" lon="1.6045220">
        <ele>25.8</ele>
        <time>2020-02-23T11:18:31Z</time>
      </trkpt>
      <trkpt lat="39.0424260" lon="1.6045050">
        <ele>25.9</ele>
        <time>2020-02-23T11:18:32Z</time>
      </trkpt>
      <trkpt lat="39.0424270" lon="1.6044690">
        <ele>26.1</ele>
        <time>2020-02-23T11:18:33Z</time>
      </trkpt>
      <trkpt lat="39.0424340" lon="1.6044300">
        <ele>26.3</ele>
        <time>2020-02-23T11:18:34Z</time>
      </trkpt>
      <trkpt lat="39.0424350" lon="1.6044180">
        <ele>26.3</ele>
        <time>2020-02-23T11:18:35Z</time>
      </trkpt>
      <trkpt lat="39.0424390" lon="1.6043740">
        <ele>26.5</ele>
        <time>2020-02-23T11:18:36Z</time>
      </trkpt>
      <trkpt lat="39.0424430" lon="1.6043540">
        <ele>26.6</ele>
        <time>2020-02-23T11:18:37Z</time>
      </trkpt>
      <trkpt lat="39.0424440" lon="1.6043110">
        <ele>26.9</ele>
        <time>2020-02-23T11:18:38Z</time>
      </trkpt>
      <trkpt lat="39.0424430" lon="1.6042990">
        <ele>26.9</ele>
        <time>2020-02-23T11:18:39Z</time>
      </trkpt>
      <trkpt lat="39.0424330" lon="1.6042480">
        <ele>27.2</ele>
        <time>2020-02-23T11:18:40Z</time>
      </trkpt>
      <trkpt lat="39.0424310" lon="1.6042300">
        <ele>27.3</ele>
        <time>2020-02-23T11:18:41Z</time>
      </trkpt>
      <trkpt lat="39.0424320" lon="1.6041950">
        <ele>27.5</ele>
        <time>2020-02-23T11:18:42Z</time>
      </trkpt>
      <trkpt lat="39.0424390" lon="1.6041610">
        <ele>27.7</ele>
        <time>2020-02-23T11:18:43Z</time>
      </trkpt>
      <trkpt lat="39.0424430" lon="1.6041200">
        <ele>28.0</ele>
        <time>2020-02-23T11:18:44Z</time>
      </trkpt>
      <trkpt lat="39.0424410" lon="1.6041070">
        <ele>28.0</ele>
        <time>2020-02-23T11:18:45Z</time>
      </trkpt>
      <trkpt lat="39.0424390" lon="1.6040660">
        <ele>28.3</ele>
        <time>2020-02-23T11:18:46Z</time>
      </trkpt>
      <trkpt lat="39.0424360" lon="1.6040550">
        <ele>28.3</ele>
        <time>2020-02-23T11:18:47Z</time>
      </trkpt>
      <trkpt lat="39.0424260" lon="1.6040230">
        <ele>28.5</ele>
        <time>2020-02-23T11:18:48Z</time>
      </trkpt>
      <trkpt lat="39.0424230" lon="1.6040090">
        <ele>28.6</ele>
        <time>2020-02-23T11:18:49Z</time>
      </trkpt>
      <trkpt lat="39.0424170" lon="1.6039740">
        <ele>28.8</ele>
        <time>2020-02-23T11:18:50Z</time>
      </trkpt>
      <trkpt lat="39.0424140" lon="1.6039610">
        <ele>28.9</ele>
        <time>2020-02-23T11:18:51Z</time>
      </trkpt>
      <trkpt lat="39.0424170" lon="1.6039170">
        <ele>29.1</ele>
        <time>2020-02-23T11:18:52Z</time>
      </trkpt>
      <trkpt lat="39.0424160" lon="1.6039040">
        <ele>29.2</ele>
        <time>2020-02-23T11:18:53Z</time>
      </trkpt>
      <trkpt lat="39.0424170" lon="1.6038640">
        <ele>29.4</ele>
        <time>2020-02-23T11:18:54Z</time>
      </trkpt>
      <trkpt lat="39.0424170" lon="1.6038490">
        <ele>29.5</ele>
        <time>2020-02-23T11:18:55Z</time>
      </trkpt>
      <trkpt lat="39.0424100" lon="1.6038120">
        <ele>29.7</ele>
        <time>2020-02-23T11:18:56Z</time>
      </trkpt>
      <trkpt lat="39.0424090" lon="1.6037770">
        <ele>29.9</ele>
        <time>2020-02-23T11:18:57Z</time>
      </trkpt>
      <trkpt lat="39.0424140" lon="1.6037380">
        <ele>30.1</ele>
        <time>2020-02-23T11:18:58Z</time>
      </trkpt>
      <trkpt lat="39.0424200" lon="1.6037030">
        <ele>30.3</ele>
        <time>2020-02-23T11:18:59Z</time>
      </trkpt>
      <trkpt lat="39.0424190" lon="1.6036600">
        <ele>30.5</ele>
        <time>2020-02-23T11:19:00Z</time>
      </trkpt>
      <trkpt lat="39.0424200" lon="1.6036230">
        <ele>30.7</ele>
        <time>2020-02-23T11:19:01Z</time>
      </trkpt>
      <trkpt lat="39.0424220" lon="1.6035750">
        <ele>30.9</ele>
        <time>2020-02-23T11:19:02Z</time>
      </trkpt>
      <trkpt lat="39.0424240" lon="1.6035600">
        <ele>31.0</ele>
        <time>2020-02-23T11:19:03Z</time>
      </trkpt>
      <trkpt lat="39.0424260" lon="1.6035240">
        <ele>31.1</ele>
        <time>2020-02-23T11:19:04Z</time>
      </trkpt>
      <trkpt lat="39.0424370" lon="1.6034830">
        <ele>31.3</ele>
        <time>2020-02-23T11:19:05Z</time>
      </trkpt>
      <trkpt lat="39.0424450" lon="1.6034500">
        <ele>31.5</ele>
        <time>2020-02-23T11:19:06Z</time>
      </trkpt>
      <trkpt lat="39.0424470" lon="1.6034140">
        <ele>31.6</ele>
        <time>2020-02-23T11:19:07Z</time>
      </trkpt>
      <trkpt lat="39.0424460" lon="1.6033710">
        <ele>31.8</ele>
        <time>2020-02-23T11:19:08Z</time>
      </trkpt>
      <trkpt lat="39.0424450" lon="1.6033580">
        <ele>31.9</ele>
        <time>2020-02-23T11:19:09Z</time>
      </trkpt>
      <trkpt lat="39.0424530" lon="1.6033110">
        <ele>32.1</ele>
        <time>2020-02-23T11:19:10Z</time>
      </trkpt>
      <trkpt lat="39.0424530" lon="1.6032930">
        <ele>32.1</ele>
        <time>2020-02-23T11:19:11Z</time>
      </trkpt>
      <trkpt lat="39.0424490" lon="1.6032540">
        <ele>32.3</ele>
        <time>2020-02-23T11:19:12Z</time>
      </trkpt>
      <trkpt lat="39.0424470" lon="1.6032050">
        <ele>32.5</ele>
        <time>2020-02-23T11:19:13Z</time>
      </trkpt>
      <trkpt lat="39.0424450" lon="1.6031880">
        <ele>32.6</ele>
        <time>2020-02-23T11:19:14Z</time>
      </trkpt>
      <trkpt lat="39.0424480" lon="1.6031460">
        <ele>32.8</ele>
        <time>2020-02-23T11:19:15Z</time>
      </trkpt>
      <trkpt lat="39.0424510" lon="1.6031310">
        <ele>32.8</ele>
        <time>2020-02-23T11:19:16Z</time>
      </trkpt>
      <trkpt lat="39.0424620" lon="1.6030810">
        <ele>33.1</ele>
        <time>2020-02-23T11:19:17Z</time>
      </trkpt>
      <trkpt lat="39.0424650" lon="1.6030600">
        <ele>33.2</ele>
        <time>2020-02-23T11:19:18Z</time>
      </trkpt>
      <trkpt lat="39.0424760" lon="1.6030120">
        <ele>33.4</ele>
        <time>2020-02-23T11:19:19Z</time>
      </trkpt>
      <trkpt lat="39.0424770" lon="1.6029770">
        <ele>33.6</ele>
        <time>2020-02-23T11:19:20Z</time>
      </trkpt>
      <trkpt lat="39.0424780" lon="1.6029420">
        <ele>33.7</ele>
        <time>2020-02-23T11:19:21Z</time>
      </trkpt>
      <trkpt lat="39.0424830" lon="1.6028960">
        <ele>33.9</ele>
        <time>2020-02-23T11:19:22Z</time>
      </trkpt>
      <trkpt lat="39.0424840" lon="1.6028820">
        <ele>34.0</ele>
        <time>2020-02-23T11:19:23Z</time>
      </trkpt>
      <trkpt lat="39.0424870" lon="1.6028320">
        <ele>34.3</ele>
        <time>2020-02-23T11:19:24Z</time>
      </trkpt>
      <trkpt lat="39.0424870" lon="1.6028130">
        <ele>34.5</ele>
        <time>2020-02-23T11:19:25Z</time>
      </trkpt>
      <trkpt lat="39.0424850" lon="1.6027770">
        <ele>34.8</ele>
        <time>2020-02-23T11:19:26Z</time>
      </trkpt>
      <trkpt lat="39.0424840" lon="1.6027410">
        <ele>35.0</ele>
        <time>2020-02-23T11:19:27Z</time>
      </trkpt>
      <trkpt lat="39.0424890" lon="1.6026970">
        <ele>35.2</ele>
        <time>2020-02-23T11:19:28Z</time>
      </trkpt>
      <trkpt lat="39.0424920" lon="1.6026830">
        <ele>35.3</ele>
        <time>2020-02-23T11:19:29Z</time>
      </trkpt>
      <trkpt lat="39.0424990" lon="1.6026480">
        <ele>35.5</ele>
        <time>2020-02-23T11:19:30Z</time>
      </trkpt>
      <trkpt lat="39.0425090" lon="1.6026080">
        <ele>35.7</ele>
        <time>2020-02-23T11:19:31Z</time>
      </trkpt>
      <trkpt lat="39.0425100" lon="1.6025940">
        <ele>35.8</ele>
        <time>2020-02-23T11:19:32Z</time>
      </trkpt>
      <trkpt lat="39.0425190" lon="1.6025430">
        <ele>36.0</ele>
        <time>2020-02-23T11:19:33Z</time>
      </trkpt>
      <trkpt lat="39.0425220" lon="1.6025230">
        <ele>36.1</ele>
        <time>2020-02-23T11:19:34Z</time>
      </trkpt>
      <trkpt lat="39.0425270" lon="1.6024730">
        <ele>36.4</ele>
        <time>2020-02-23T11:19:35Z</time>
      </trkpt>
      <trkpt lat="39.0425290" lon="1.6024560">
        <ele>36.5</ele>
        <time>2020-02-23T11:19:36Z</time>
      </trkpt>
      <trkpt lat="39.0425290" lon="1.6024150">
        <ele>36.7</ele>
        <time>2020-02-23T11:19:37Z</time>
      </trkpt>
      <trkpt lat="39.0425290" lon="1.6024010">
        <ele>36.8</ele>
        <time>2020-02-23T11:19:38Z</time>
      </trkpt>
      <trkpt lat="39.0425310" lon="1.6023610">
        <ele>37.0</ele>
        <time>2020-02-23T11:19:39Z</time>
      </trkpt>
      <trkpt lat="39.0425300" lon="1.6023490">
        <ele>37.0</ele>
        <time>2020-02-23T11:19:40Z</time>
      </trkpt>
      <trkpt lat="39.0425360" lon="1.6023110">
        <ele>37.2</ele>
        <time>2020-02-23T11:19:41Z</time>
      </trkpt>
      <trkpt lat="39.0425460" lon="1.6022630">
        <ele>37.5</ele>
        <time>2020-02-23T11:19:42Z</time>
      </trkpt>
      <trkpt lat="39.0425490" lon="1.6022470">
        <ele>37.6</ele>
        <time>2020-02-23T11:19:43Z</time>
      </trkpt>
      <trkpt lat="39.0425530" lon="1.6022120">
        <ele>37.8</ele>
        <time>2020-02-23T11:19:44Z</time>
      </trkpt>
      <trkpt lat="39.0425540" lon="1.6021970">
        <ele>37.9</ele>
        <time>2020-02-23T11:19:45Z</time>
      </trkpt>
      <trkpt lat="39.0425560" lon="1.6021580">
        <ele>38.1</ele>
        <time>2020-02-23T11:19:46Z</time>
      </trkpt>
      <trkpt lat="39.0425560" lon="1.6021440">
        <ele>38.1</ele>
        <time>2020-02-23T11:19:47Z</time>
      </trkpt>
      <trkpt lat="39.0425630" lon="1.6020980">
        <ele>38.4</ele>
        <time>2020-02-23T11:19:48Z</time>
      </trkpt>
      <trkpt lat="39.0425620" lon="1.6020830">
        <ele>38.5</ele>
        <time>2020-02-23T11:19:49Z</time>
      </trkpt>
      <trkpt lat="39.0425670" lon="1.6020350">
        <ele>38.7</ele>
        <time>2020-02-23T11:19:50Z</time>
      </trkpt>
      <trkpt lat="39.0425700" lon="1.6020190">
        <ele>38.8</ele>
        <time>2020-02-23T11:19:51Z</time>
      </trkpt>
      <trkpt lat="39.0425800" lon="1.6019840">
        <ele>39.0</ele>
        <time>2020-02-23T11:19:52Z</time>
      </trkpt>
      <trkpt lat="39.0425810" lon="1.6019730">
        <ele>39.1</ele>
        <time>2020-02-23T11:19:53Z</time>
      </trkpt>
      <trkpt lat="39.0425900" lon="1.6019340">
        <ele>39.4</ele>
        <time>2020-02-23T11:19:54Z</time>
      </trkpt>
      <trkpt lat="39.0425980" lon="1.6018970">
        <ele>39.6</ele>
        <time>2020-02-23T11:19:55Z</time>
      </trkpt>
      <trkpt lat="39.0426110" lon="1.6018550">
        <ele>39.9</ele>
        <time>2020-02-23T11:19:56Z</time>
      </trkpt>
      <trkpt lat="39.0426150" lon="1.6018180">
        <ele>40.1</ele>
        <time>2020-02-23T11:19:57Z</time>
      </trkpt>
      <trkpt lat="39.0426270" lon="1.6017810">
        <ele>40.4</ele>
        <time>2020-02-23T11:19:58Z</time>
      </trkpt>
      <trkpt lat="39.0426310" lon="1.6017290">
        <ele>40.7</ele>
        <time>2020-02-23T11:19:59Z</time>
      </trkpt>
      <trkpt lat="39.0426300" lon="1.6017090">
        <ele>40.8</ele>
        <time>2020-02-23T11:20:00Z</time>
      </trkpt>
      <trkpt lat="39.0426340" lon="1.6016640">
        <ele>41.1</ele>
        <time>2020-02-23T11:20:01Z</time>
      </trkpt>
      <trkpt lat="39.0426350" lon="1.6016500">
        <ele>41.2</ele>
        <time>2020-02-23T11:20:02Z</time>
      </trkpt>
      <trkpt lat="39.0426410" lon="1.6015950">
        <ele>41.5</ele>
        <time>2020-02-23T11:20:03Z</time>
      </trkpt>
      <trkpt lat="39.0426410" lon="1.6015720">
        <ele>41.6</ele>
        <time>2020-02-23T11:20:04Z</time>
      </trkpt>
      <trkpt lat="39.0426390" lon="1.6015350">
        <ele>41.8</ele>
        <time>2020-02-23T11:20:05Z</time>
      </trkpt>
      <trkpt lat="39.0426390" lon="1.6014830">
        <ele>42.2</ele>
        <time>2020-02-23T11:20:06Z</time>
      </trkpt>
      <trkpt lat="39.0426410" lon="1.6014630">
        <ele>42.3</ele>
        <time>2020-02-23T11:20:07Z</time>
      </trkpt>
      <trkpt lat="39.0426440" lon="1.6014230">
        <ele>42.5</ele>
        <time>2020-02-23T11:20:08Z</time>
      </trkpt>
      <trkpt lat="39.0426470" lon="1.6013840">
        <ele>42.8</ele>
        <time>2020-02-23T11:20:09Z</time>
      </trkpt>
      <trkpt lat="39.0426480" lon="1.6013370">
        <ele>43.1</ele>
        <time>2020-02-23T11:20:10Z</time>
      </trkpt>
      <trkpt lat="39.0426490" lon="1.6013200">
        <ele>43.2</ele>
        <time>2020-02-23T11:20:11Z</time>
      </trkpt>
      <trkpt lat="39.0426470" lon="1.6012840">
        <ele>43.4</ele>
        <time>2020-02-23T11:20:12Z</time>
      </trkpt>
      <trkpt lat="39.0426520" lon="1.6012420">
        <ele>43.7</ele>
        <time>2020-02-23T11:20:13Z</time>
      </trkpt>
      <trkpt lat="39.0426580" lon="1.6012030">
        <ele>43.9</ele>
        <time>2020-02-23T11:20:14Z</time>
      </trkpt>
      <trkpt lat="39.0426630" lon="1.6011590">
        <ele>44.2</ele>
        <time>2020-02-23T11:20:15Z</time>
      </trkpt>
      <trkpt lat="39.0426630" lon="1.6011430">
        <ele>44.4</ele>
        <time>2020-02-23T11:20:16Z</time>
      </trkpt>
      <trkpt lat="39.0426720" lon="1.6011100">
        <ele>44.6</ele>
        <time>2020-02-23T11:20:17Z</time>
      </trkpt>
      <trkpt lat="39.0426720" lon="1.6010690">
        <ele>44.9</ele>
        <time>2020-02-23T11:20:18Z</time>
      </trkpt>
      <trkpt lat="39.0426710" lon="1.6010530">
        <ele>45.0</ele>
        <time>2020-02-23T11:20:19Z</time>
      </trkpt>
      <trkpt lat="39.0426680" lon="1.6010170">
        <ele>45.3</ele>
        <time>2020-02-23T11:20:20Z</time>
      </trkpt>
      <trkpt lat="39.0426760" lon="1.6009730">
        <ele>45.6</ele>
        <time>2020-02-23T11:20:21Z</time>
      </trkpt>
      <trkpt lat="39.0426790" lon="1.6009570">
        <ele>45.7</ele>
        <time>2020-02-23T11:20:22Z</time>
      </trkpt>
      <trkpt lat="39.0426710" lon="1.6009220">
        <ele>46.0</ele>
        <time>2020-02-23T11:20:23Z</time>
      </trkpt>
      <trkpt lat="39.0426700" lon="1.6008880">
        <ele>46.2</ele>
        <time>2020-02-23T11:20:24Z</time>
      </trkpt>
      <trkpt lat="39.0426700" lon="1.6008750">
        <ele>46.3</ele>
        <time>2020-02-23T11:20:25Z</time>
      </trkpt>
      <trkpt lat="39.0426750" lon="1.6008300">
        <ele>46.7</ele>
        <time>2020-02-23T11:20:26Z</time>
      </trkpt>
      <trkpt lat="39.0426770" lon="1.6008100">
        <ele>46.8</ele>
        <time>2020-02-23T11:20:27Z</time>
      </trkpt>
      <trkpt lat="39.0426800" lon="1.6007740">
        <ele>47.0</ele>
        <time>2020-02-23T11:20:28Z</time>
      </trkpt>
      <trkpt lat="39.0426900" lon="1.6007320">
        <ele>47.2</ele>
        <time>2020-02-23T11:20:29Z</time>
      </trkpt>
      <trkpt lat="39.0426930" lon="1.6007160">
        <ele>47.3</ele>
        <time>2020-02-23T11:20:30Z</time>
      </trkpt>
      <trkpt lat="39.0426810" lon="1.6006700">
        <ele>47.6</ele>
        <time>2020-02-23T11:20:31Z</time>
      </trkpt>
      <trkpt lat="39.0426760" lon="1.6006520">
        <ele>47.7</ele>
        <time>2020-02-23T11:20:32Z</time>
      </trkpt>
      <trkpt lat="39.0426830" lon="1.6006130">
        <ele>48.0</ele>
        <time>2020-02-23T11:20:33Z</time>
      </trkpt>
      <trkpt lat="39.0426860" lon="1.6005790">
        <ele>48.2</ele>
        <time>2020-02-23T11:20:34Z</time>
      </trkpt>
      <trkpt lat="39.0426850" lon="1.6005640">
        <ele>48.3</ele>
        <time>2020-02-23T11:20:35Z</time>
      </trkpt>
      <trkpt lat="39.0426660" lon="1.6005310">
        <ele>48.6</ele>
        <time>2020-02-23T11:20:36Z</time>
      </trkpt>
      <trkpt lat="39.0426570" lon="1.6005200">
        <ele>48.7</ele>
        <time>2020-02-23T11:20:37Z</time>
      </trkpt>
      <trkpt lat="39.0426270" lon="1.6005020">
        <ele>48.8</ele>
        <time>2020-02-23T11:20:38Z</time>
      </trkpt>
      <trkpt lat="39.0426190" lon="1.6004940">
        <ele>48.7</ele>
        <time>2020-02-23T11:20:39Z</time>
      </trkpt>
      <trkpt lat="39.0425900" lon="1.6004690">
        <ele>48.4</ele>
        <time>2020-02-23T11:20:40Z</time>
      </trkpt>
      <trkpt lat="39.0425820" lon="1.6004610">
        <ele>48.3</ele>
        <time>2020-02-23T11:20:41Z</time>
      </trkpt>
      <trkpt lat="39.0425540" lon="1.6004500">
        <ele>48.1</ele>
        <time>2020-02-23T11:20:42Z</time>
      </trkpt>
      <trkpt lat="39.0425230" lon="1.6004340">
        <ele>47.8</ele>
        <time>2020-02-23T11:20:43Z</time>
      </trkpt>
      <trkpt lat="39.0424890" lon="1.6004210">
        <ele>47.6</ele>
        <time>2020-02-23T11:20:44Z</time>
      </trkpt>
      <trkpt lat="39.0424520" lon="1.6004090">
        <ele>47.3</ele>
        <time>2020-02-23T11:20:45Z</time>
      </trkpt>
      <trkpt lat="39.0424170" lon="1.6003840">
        <ele>47.0</ele>
        <time>2020-02-23T11:20:46Z</time>
      </trkpt>
      <trkpt lat="39.0423770" lon="1.6003620">
        <ele>46.7</ele>
        <time>2020-02-23T11:20:47Z</time>
      </trkpt>
      <trkpt lat="39.0423310" lon="1.6003410">
        <ele>46.5</ele>
        <time>2020-02-23T11:20:48Z</time>
      </trkpt>
      <trkpt lat="39.0422960" lon="1.6003190">
        <ele>46.2</ele>
        <time>2020-02-23T11:20:49Z</time>
      </trkpt>
      <trkpt lat="39.0422520" lon="1.6003010">
        <ele>46.0</ele>
        <time>2020-02-23T11:20:50Z</time>
      </trkpt>
      <trkpt lat="39.0422130" lon="1.6002740">
        <ele>45.7</ele>
        <time>2020-02-23T11:20:51Z</time>
      </trkpt>
      <trkpt lat="39.0421800" lon="1.6002480">
        <ele>45.5</ele>
        <time>2020-02-23T11:20:52Z</time>
      </trkpt>
      <trkpt lat="39.0421460" lon="1.6002190">
        <ele>45.6</ele>
        <time>2020-02-23T11:20:53Z</time>
      </trkpt>
      <trkpt lat="39.0421080" lon="1.6001850">
        <ele>45.8</ele>
        <time>2020-02-23T11:20:54Z</time>
      </trkpt>
      <trkpt lat="39.0420570" lon="1.6001510">
        <ele>45.9</ele>
        <time>2020-02-23T11:20:55Z</time>
      </trkpt>
      <trkpt lat="39.0420120" lon="1.6001230">
        <ele>46.1</ele>
        <time>2020-02-23T11:20:56Z</time>
      </trkpt>
      <trkpt lat="39.0419710" lon="1.6000930">
        <ele>46.2</ele>
        <time>2020-02-23T11:20:57Z</time>
      </trkpt>
      <trkpt lat="39.0419260" lon="1.6000540">
        <ele>46.3</ele>
        <time>2020-02-23T11:20:58Z</time>
      </trkpt>
      <trkpt lat="39.0418750" lon="1.6000170">
        <ele>46.4</ele>
        <time>2020-02-23T11:20:59Z</time>
      </trkpt>
      <trkpt lat="39.0418280" lon="1.5999790">
        <ele>46.5</ele>
        <time>2020-02-23T11:21:00Z</time>
      </trkpt>
      <trkpt lat="39.0417950" lon="1.5999170">
        <ele>46.6</ele>
        <time>2020-02-23T11:21:01Z</time>
      </trkpt>
      <trkpt lat="39.0417740" lon="1.5998610">
        <ele>46.7</ele>
        <time>2020-02-23T11:21:02Z</time>
      </trkpt>
      <trkpt lat="39.0417600" lon="1.5998070">
        <ele>46.8</ele>
        <time>2020-02-23T11:21:03Z</time>
      </trkpt>
      <trkpt lat="39.0417470" lon="1.5997550">
        <ele>46.9</ele>
        <time>2020-02-23T11:21:04Z</time>
      </trkpt>
      <trkpt lat="39.0417410" lon="1.5997020">
        <ele>47.0</ele>
        <time>2020-02-23T11:21:05Z</time>
      </trkpt>
      <trkpt lat="39.0417390" lon="1.5996450">
        <ele>47.2</ele>
        <time>2020-02-23T11:21:06Z</time>
      </trkpt>
      <trkpt lat="39.0417420" lon="1.5995890">
        <ele>47.4</ele>
        <time>2020-02-23T11:21:07Z</time>
      </trkpt>
      <trkpt lat="39.0417450" lon="1.5995400">
        <ele>47.6</ele>
        <time>2020-02-23T11:21:08Z</time>
      </trkpt>
      <trkpt lat="39.0417490" lon="1.5994970">
        <ele>47.7</ele>
        <time>2020-02-23T11:21:09Z</time>
      </trkpt>
      <trkpt lat="39.0417470" lon="1.5994420">
        <ele>47.9</ele>
        <time>2020-02-23T11:21:10Z</time>
      </trkpt>
      <trkpt lat="39.0417460" lon="1.5993910">
        <ele>48.1</ele>
        <time>2020-02-23T11:21:11Z</time>
      </trkpt>
      <trkpt lat="39.0417370" lon="1.5993390">
        <ele>48.3</ele>
        <time>2020-02-23T11:21:12Z</time>
      </trkpt>
      <trkpt lat="39.0417320" lon="1.5992810">
        <ele>48.4</ele>
        <time>2020-02-23T11:21:13Z</time>
      </trkpt>
      <trkpt lat="39.0417250" lon="1.5992350">
        <ele>48.6</ele>
        <time>2020-02-23T11:21:14Z</time>
      </trkpt>
      <trkpt lat="39.0417160" lon="1.5991880">
        <ele>48.7</ele>
        <time>2020-02-23T11:21:15Z</time>
      </trkpt>
      <trkpt lat="39.0417160" lon="1.5991700">
        <ele>48.7</ele>
        <time>2020-02-23T11:21:16Z</time>
      </trkpt>
      <trkpt lat="39.0417150" lon="1.5991320">
        <ele>48.8</ele>
        <time>2020-02-23T11:21:17Z</time>
      </trkpt>
      <trkpt lat="39.0416930" lon="1.5990820">
        <ele>48.9</ele>
        <time>2020-02-23T11:21:18Z</time>
      </trkpt>
      <trkpt lat="39.0416660" lon="1.5990530">
        <ele>48.9</ele>
        <time>2020-02-23T11:21:19Z</time>
      </trkpt>
      <trkpt lat="39.0416290" lon="1.5990470">
        <ele>49.0</ele>
        <time>2020-02-23T11:21:20Z</time>
      </trkpt>
      <trkpt lat="39.0415940" lon="1.5990500">
        <ele>49.0</ele>
        <time>2020-02-23T11:21:21Z</time>
      </trkpt>
      <trkpt lat="39.0415620" lon="1.5990580">
        <ele>49.0</ele>
        <time>2020-02-23T11:21:22Z</time>
      </trkpt>
      <trkpt lat="39.0415200" lon="1.5990570">
        <ele>49.1</ele>
        <time>2020-02-23T11:21:23Z</time>
      </trkpt>
      <trkpt lat="39.0414740" lon="1.5990540">
        <ele>49.1</ele>
        <time>2020-02-23T11:21:24Z</time>
      </trkpt>
      <trkpt lat="39.0414250" lon="1.5990550">
        <ele>49.1</ele>
        <time>2020-02-23T11:21:25Z</time>
      </trkpt>
      <trkpt lat="39.0413740" lon="1.5990580">
        <ele>49.1</ele>
        <time>2020-02-23T11:21:26Z</time>
      </trkpt>
      <trkpt lat="39.0413250" lon="1.5990670">
        <ele>49.1</ele>
        <time>2020-02-23T11:21:27Z</time>
      </trkpt>
      <trkpt lat="39.0412720" lon="1.5990540">
        <ele>49.2</ele>
        <time>2020-02-23T11:21:28Z</time>
      </trkpt>
      <trkpt lat="39.0412230" lon="1.5990780">
        <ele>49.2</ele>
        <time>2020-02-23T11:21:29Z</time>
      </trkpt>
      <trkpt lat="39.0411760" lon="1.5990820">
        <ele>49.3</ele>
        <time>2020-02-23T11:21:30Z</time>
      </trkpt>
      <trkpt lat="39.0411260" lon="1.5990700">
        <ele>49.4</ele>
        <time>2020-02-23T11:21:31Z</time>
      </trkpt>
      <trkpt lat="39.0410920" lon="1.5990620">
        <ele>49.5</ele>
        <time>2020-02-23T11:21:32Z</time>
      </trkpt>
      <trkpt lat="39.0410560" lon="1.5990530">
        <ele>49.7</ele>
        <time>2020-02-23T11:21:33Z</time>
      </trkpt>
      <trkpt lat="39.0410130" lon="1.5990410">
        <ele>49.9</ele>
        <time>2020-02-23T11:21:34Z</time>
      </trkpt>
      <trkpt lat="39.0409850" lon="1.5990440">
        <ele>50.1</ele>
        <time>2020-02-23T11:21:35Z</time>
      </trkpt>
      <trkpt lat="39.0409540" lon="1.5990480">
        <ele>50.3</ele>
        <time>2020-02-23T11:21:36Z</time>
      </trkpt>
      <trkpt lat="39.0409110" lon="1.5990470">
        <ele>50.7</ele>
        <time>2020-02-23T11:21:37Z</time>
      </trkpt>
      <trkpt lat="39.0408690" lon="1.5990480">
        <ele>51.2</ele>
        <time>2020-02-23T11:21:38Z</time>
      </trkpt>
      <trkpt lat="39.0408300" lon="1.5990470">
        <ele>51.6</ele>
        <time>2020-02-23T11:21:39Z</time>
      </trkpt>
      <trkpt lat="39.0407860" lon="1.5990390">
        <ele>52.0</ele>
        <time>2020-02-23T11:21:40Z</time>
      </trkpt>
      <trkpt lat="39.0407400" lon="1.5990200">
        <ele>52.8</ele>
        <time>2020-02-23T11:21:41Z</time>
      </trkpt>
      <trkpt lat="39.0407140" lon="1.5989800">
        <ele>53.4</ele>
        <time>2020-02-23T11:21:42Z</time>
      </trkpt>
      <trkpt lat="39.0407180" lon="1.5989280">
        <ele>54.0</ele>
        <time>2020-02-23T11:21:43Z</time>
      </trkpt>
      <trkpt lat="39.0407120" lon="1.5988680">
        <ele>54.7</ele>
        <time>2020-02-23T11:21:44Z</time>
      </trkpt>
      <trkpt lat="39.0407130" lon="1.5988200">
        <ele>55.2</ele>
        <time>2020-02-23T11:21:45Z</time>
      </trkpt>
      <trkpt lat="39.0407190" lon="1.5987660">
        <ele>55.9</ele>
        <time>2020-02-23T11:21:46Z</time>
      </trkpt>
      <trkpt lat="39.0407230" lon="1.5987240">
        <ele>56.3</ele>
        <time>2020-02-23T11:21:47Z</time>
      </trkpt>
      <trkpt lat="39.0407220" lon="1.5986840">
        <ele>56.8</ele>
        <time>2020-02-23T11:21:48Z</time>
      </trkpt>
      <trkpt lat="39.0407260" lon="1.5986480">
        <ele>57.2</ele>
        <time>2020-02-23T11:21:49Z</time>
      </trkpt>
      <trkpt lat="39.0407330" lon="1.5986010">
        <ele>57.7</ele>
        <time>2020-02-23T11:21:50Z</time>
      </trkpt>
      <trkpt lat="39.0407340" lon="1.5985850">
        <ele>57.9</ele>
        <time>2020-02-23T11:21:51Z</time>
      </trkpt>
      <trkpt lat="39.0407300" lon="1.5985310">
        <ele>58.4</ele>
        <time>2020-02-23T11:21:52Z</time>
      </trkpt>
      <trkpt lat="39.0407290" lon="1.5985110">
        <ele>58.6</ele>
        <time>2020-02-23T11:21:53Z</time>
      </trkpt>
      <trkpt lat="39.0407250" lon="1.5984610">
        <ele>59.0</ele>
        <time>2020-02-23T11:21:54Z</time>
      </trkpt>
      <trkpt lat="39.0407230" lon="1.5984440">
        <ele>59.2</ele>
        <time>2020-02-23T11:21:55Z</time>
      </trkpt>
      <trkpt lat="39.0407210" lon="1.5984020">
        <ele>59.5</ele>
        <time>2020-02-23T11:21:56Z</time>
      </trkpt>
      <trkpt lat="39.0407200" lon="1.5983890">
        <ele>59.6</ele>
        <time>2020-02-23T11:21:57Z</time>
      </trkpt>
      <trkpt lat="39.0407250" lon="1.5983420">
        <ele>59.9</ele>
        <time>2020-02-23T11:21:58Z</time>
      </trkpt>
      <trkpt lat="39.0407280" lon="1.5983240">
        <ele>60.0</ele>
        <time>2020-02-23T11:21:59Z</time>
      </trkpt>
      <trkpt lat="39.0407320" lon="1.5982890">
        <ele>60.1</ele>
        <time>2020-02-23T11:22:00Z</time>
      </trkpt>
      <trkpt lat="39.0407360" lon="1.5982460">
        <ele>60.3</ele>
        <time>2020-02-23T11:22:01Z</time>
      </trkpt>
      <trkpt lat="39.0407330" lon="1.5981960">
        <ele>60.5</ele>
        <time>2020-02-23T11:22:02Z</time>
      </trkpt>
      <trkpt lat="39.0407320" lon="1.5981760">
        <ele>60.5</ele>
        <time>2020-02-23T11:22:03Z</time>
      </trkpt>
      <trkpt lat="39.0407450" lon="1.5981280">
        <ele>60.7</ele>
        <time>2020-02-23T11:22:04Z</time>
      </trkpt>
      <trkpt lat="39.0407480" lon="1.5981100">
        <ele>60.7</ele>
        <time>2020-02-23T11:22:05Z</time>
      </trkpt>
      <trkpt lat="39.0407510" lon="1.5980670">
        <ele>60.8</ele>
        <time>2020-02-23T11:22:06Z</time>
      </trkpt>
      <trkpt lat="39.0407530" lon="1.5980520">
        <ele>60.9</ele>
        <time>2020-02-23T11:22:07Z</time>
      </trkpt>
      <trkpt lat="39.0407590" lon="1.5980060">
        <ele>61.0</ele>
        <time>2020-02-23T11:22:08Z</time>
      </trkpt>
      <trkpt lat="39.0407610" lon="1.5979910">
        <ele>61.0</ele>
        <time>2020-02-23T11:22:09Z</time>
      </trkpt>
      <trkpt lat="39.0407700" lon="1.5979510">
        <ele>61.1</ele>
        <time>2020-02-23T11:22:10Z</time>
      </trkpt>
      <trkpt lat="39.0407720" lon="1.5979350">
        <ele>61.2</ele>
        <time>2020-02-23T11:22:11Z</time>
      </trkpt>
      <trkpt lat="39.0407780" lon="1.5978960">
        <ele>61.3</ele>
        <time>2020-02-23T11:22:12Z</time>
      </trkpt>
      <trkpt lat="39.0407800" lon="1.5978610">
        <ele>61.4</ele>
        <time>2020-02-23T11:22:13Z</time>
      </trkpt>
      <trkpt lat="39.0407850" lon="1.5978170">
        <ele>61.6</ele>
        <time>2020-02-23T11:22:14Z</time>
      </trkpt>
      <trkpt lat="39.0407870" lon="1.5978040">
        <ele>61.7</ele>
        <time>2020-02-23T11:22:15Z</time>
      </trkpt>
      <trkpt lat="39.0407890" lon="1.5977630">
        <ele>61.9</ele>
        <time>2020-02-23T11:22:16Z</time>
      </trkpt>
      <trkpt lat="39.0407880" lon="1.5977480">
        <ele>61.9</ele>
        <time>2020-02-23T11:22:17Z</time>
      </trkpt>
      <trkpt lat="39.0407850" lon="1.5976970">
        <ele>62.3</ele>
        <time>2020-02-23T11:22:18Z</time>
      </trkpt>
      <trkpt lat="39.0407850" lon="1.5976790">
        <ele>62.4</ele>
        <time>2020-02-23T11:22:19Z</time>
      </trkpt>
      <trkpt lat="39.0407920" lon="1.5976390">
        <ele>62.6</ele>
        <time>2020-02-23T11:22:20Z</time>
      </trkpt>
      <trkpt lat="39.0407990" lon="1.5976020">
        <ele>62.9</ele>
        <time>2020-02-23T11:22:21Z</time>
      </trkpt>
      <trkpt lat="39.0407960" lon="1.5975540">
        <ele>63.2</ele>
        <time>2020-02-23T11:22:22Z</time>
      </trkpt>
      <trkpt lat="39.0407930" lon="1.5975380">
        <ele>63.3</ele>
        <time>2020-02-23T11:22:23Z</time>
      </trkpt>
      <trkpt lat="39.0407980" lon="1.5975020">
        <ele>63.5</ele>
        <time>2020-02-23T11:22:24Z</time>
      </trkpt>
      <trkpt lat="39.0408000" lon="1.5974600">
        <ele>63.8</ele>
        <time>2020-02-23T11:22:25Z</time>
      </trkpt>
      <trkpt lat="39.0408000" lon="1.5974140">
        <ele>64.1</ele>
        <time>2020-02-23T11:22:26Z</time>
      </trkpt>
      <trkpt lat="39.0408010" lon="1.5973960">
        <ele>64.2</ele>
        <time>2020-02-23T11:22:27Z</time>
      </trkpt>
      <trkpt lat="39.0407980" lon="1.5973580">
        <ele>64.4</ele>
        <time>2020-02-23T11:22:28Z</time>
      </trkpt>
      <trkpt lat="39.0407980" lon="1.5973210">
        <ele>64.5</ele>
        <time>2020-02-23T11:22:29Z</time>
      </trkpt>
      <trkpt lat="39.0408010" lon="1.5972860">
        <ele>64.7</ele>
        <time>2020-02-23T11:22:30Z</time>
      </trkpt>
      <trkpt lat="39.0408040" lon="1.5972450">
        <ele>64.8</ele>
        <time>2020-02-23T11:22:31Z</time>
      </trkpt>
      <trkpt lat="39.0408050" lon="1.5972300">
        <ele>64.9</ele>
        <time>2020-02-23T11:22:32Z</time>
      </trkpt>
      <trkpt lat="39.0408040" lon="1.5971890">
        <ele>65.0</ele>
        <time>2020-02-23T11:22:33Z</time>
      </trkpt>
      <trkpt lat="39.0408030" lon="1.5971780">
        <ele>65.0</ele>
        <time>2020-02-23T11:22:34Z</time>
      </trkpt>
      <trkpt lat="39.0408020" lon="1.5971430">
        <ele>65.1</ele>
        <time>2020-02-23T11:22:35Z</time>
      </trkpt>
      <trkpt lat="39.0408070" lon="1.5971020">
        <ele>65.2</ele>
        <time>2020-02-23T11:22:36Z</time>
      </trkpt>
      <trkpt lat="39.0408110" lon="1.5970600">
        <ele>65.3</ele>
        <time>2020-02-23T11:22:37Z</time>
      </trkpt>
      <trkpt lat="39.0408160" lon="1.5970150">
        <ele>65.4</ele>
        <time>2020-02-23T11:22:38Z</time>
      </trkpt>
      <trkpt lat="39.0408180" lon="1.5970020">
        <ele>65.4</ele>
        <time>2020-02-23T11:22:39Z</time>
      </trkpt>
      <trkpt lat="39.0408150" lon="1.5969670">
        <ele>65.5</ele>
        <time>2020-02-23T11:22:40Z</time>
      </trkpt>
      <trkpt lat="39.0408110" lon="1.5969190">
        <ele>65.6</ele>
        <time>2020-02-23T11:22:41Z</time>
      </trkpt>
      <trkpt lat="39.0408090" lon="1.5969040">
        <ele>65.6</ele>
        <time>2020-02-23T11:22:42Z</time>
      </trkpt>
      <trkpt lat="39.0408110" lon="1.5968580">
        <ele>65.7</ele>
        <time>2020-02-23T11:22:43Z</time>
      </trkpt>
      <trkpt lat="39.0408090" lon="1.5968440">
        <ele>65.7</ele>
        <time>2020-02-23T11:22:44Z</time>
      </trkpt>
      <trkpt lat="39.0408030" lon="1.5967960">
        <ele>65.8</ele>
        <time>2020-02-23T11:22:45Z</time>
      </trkpt>
      <trkpt lat="39.0408010" lon="1.5967830">
        <ele>65.9</ele>
        <time>2020-02-23T11:22:46Z</time>
      </trkpt>
      <trkpt lat="39.0408010" lon="1.5967320">
        <ele>66.0</ele>
        <time>2020-02-23T11:22:47Z</time>
      </trkpt>
      <trkpt lat="39.0408030" lon="1.5967120">
        <ele>66.0</ele>
        <time>2020-02-23T11:22:48Z</time>
      </trkpt>
      <trkpt lat="39.0408100" lon="1.5966610">
        <ele>66.2</ele>
        <time>2020-02-23T11:22:49Z</time>
      </trkpt>
      <trkpt lat="39.0408130" lon="1.5966410">
        <ele>66.2</ele>
        <time>2020-02-23T11:22:50Z</time>
      </trkpt>
      <trkpt lat="39.0408150" lon="1.5966000">
        <ele>66.3</ele>
        <time>2020-02-23T11:22:51Z</time>
      </trkpt>
      <trkpt lat="39.0408130" lon="1.5965550">
        <ele>66.5</ele>
        <time>2020-02-23T11:22:52Z</time>
      </trkpt>
      <trkpt lat="39.0408130" lon="1.5965390">
        <ele>66.5</ele>
        <time>2020-02-23T11:22:53Z</time>
      </trkpt>
      <trkpt lat="39.0408200" lon="1.5964900">
        <ele>66.7</ele>
        <time>2020-02-23T11:22:54Z</time>
      </trkpt>
      <trkpt lat="39.0408230" lon="1.5964730">
        <ele>66.7</ele>
        <time>2020-02-23T11:22:55Z</time>
      </trkpt>
      <trkpt lat="39.0408220" lon="1.5964320">
        <ele>66.8</ele>
        <time>2020-02-23T11:22:56Z</time>
      </trkpt>
      <trkpt lat="39.0408220" lon="1.5964200">
        <ele>66.9</ele>
        <time>2020-02-23T11:22:57Z</time>
      </trkpt>
      <trkpt lat="39.0408170" lon="1.5963660">
        <ele>67.0</ele>
        <time>2020-02-23T11:22:58Z</time>
      </trkpt>
      <trkpt lat="39.0408130" lon="1.5963480">
        <ele>67.1</ele>
        <time>2020-02-23T11:22:59Z</time>
      </trkpt>
      <trkpt lat="39.0408070" lon="1.5963030">
        <ele>67.2</ele>
        <time>2020-02-23T11:23:00Z</time>
      </trkpt>
      <trkpt lat="39.0408030" lon="1.5962630">
        <ele>67.3</ele>
        <time>2020-02-23T11:23:01Z</time>
      </trkpt>
      <trkpt lat="39.0408020" lon="1.5962150">
        <ele>67.4</ele>
        <time>2020-02-23T11:23:02Z</time>
      </trkpt>
      <trkpt lat="39.0408010" lon="1.5961710">
        <ele>67.5</ele>
        <time>2020-02-23T11:23:03Z</time>
      </trkpt>
      <trkpt lat="39.0408010" lon="1.5961200">
        <ele>67.6</ele>
        <time>2020-02-23T11:23:04Z</time>
      </trkpt>
      <trkpt lat="39.0408010" lon="1.5961010">
        <ele>67.6</ele>
        <time>2020-02-23T11:23:05Z</time>
      </trkpt>
      <trkpt lat="39.0407990" lon="1.5960540">
        <ele>67.6</ele>
        <time>2020-02-23T11:23:06Z</time>
      </trkpt>
      <trkpt lat="39.0407970" lon="1.5960410">
        <ele>67.6</ele>
        <time>2020-02-23T11:23:07Z</time>
      </trkpt>
      <trkpt lat="39.0408040" lon="1.5959900">
        <ele>67.7</ele>
        <time>2020-02-23T11:23:08Z</time>
      </trkpt>
      <trkpt lat="39.0408060" lon="1.5959710">
        <ele>67.7</ele>
        <time>2020-02-23T11:23:09Z</time>
      </trkpt>
      <trkpt lat="39.0408090" lon="1.5959330">
        <ele>67.7</ele>
        <time>2020-02-23T11:23:10Z</time>
      </trkpt>
      <trkpt lat="39.0408200" lon="1.5958910">
        <ele>67.7</ele>
        <time>2020-02-23T11:23:11Z</time>
      </trkpt>
      <trkpt lat="39.0408260" lon="1.5958490">
        <ele>67.7</ele>
        <time>2020-02-23T11:23:12Z</time>
      </trkpt>
      <trkpt lat="39.0408290" lon="1.5958090">
        <ele>67.7</ele>
        <time>2020-02-23T11:23:13Z</time>
      </trkpt>
      <trkpt lat="39.0408330" lon="1.5957590">
        <ele>67.7</ele>
        <time>2020-02-23T11:23:14Z</time>
      </trkpt>
      <trkpt lat="39.0408360" lon="1.5957420">
        <ele>67.7</ele>
        <time>2020-02-23T11:23:15Z</time>
      </trkpt>
      <trkpt lat="39.0408440" lon="1.5957050">
        <ele>68.1</ele>
        <time>2020-02-23T11:23:16Z</time>
      </trkpt>
      <trkpt lat="39.0408560" lon="1.5956700">
        <ele>68.4</ele>
        <time>2020-02-23T11:23:17Z</time>
      </trkpt>
      <trkpt lat="39.0408720" lon="1.5956340">
        <ele>68.6</ele>
        <time>2020-02-23T11:23:18Z</time>
      </trkpt>
      <trkpt lat="39.0408760" lon="1.5956200">
        <ele>68.7</ele>
        <time>2020-02-23T11:23:19Z</time>
      </trkpt>
      <trkpt lat="39.0409020" lon="1.5955840">
        <ele>69.0</ele>
        <time>2020-02-23T11:23:20Z</time>
      </trkpt>
      <trkpt lat="39.0409130" lon="1.5955720">
        <ele>69.1</ele>
        <time>2020-02-23T11:23:21Z</time>
      </trkpt>
      <trkpt lat="39.0409390" lon="1.5955420">
        <ele>69.4</ele>
        <time>2020-02-23T11:23:22Z</time>
      </trkpt>
      <trkpt lat="39.0409480" lon="1.5955320">
        <ele>69.5</ele>
        <time>2020-02-23T11:23:23Z</time>
      </trkpt>
      <trkpt lat="39.0409800" lon="1.5955060">
        <ele>69.7</ele>
        <time>2020-02-23T11:23:24Z</time>
      </trkpt>
      <trkpt lat="39.0409900" lon="1.5954940">
        <ele>69.8</ele>
        <time>2020-02-23T11:23:25Z</time>
      </trkpt>
      <trkpt lat="39.0410170" lon="1.5954630">
        <ele>70.1</ele>
        <time>2020-02-23T11:23:26Z</time>
      </trkpt>
      <trkpt lat="39.0410240" lon="1.5954510">
        <ele>70.2</ele>
        <time>2020-02-23T11:23:27Z</time>
      </trkpt>
      <trkpt lat="39.0410500" lon="1.5954150">
        <ele>70.6</ele>
        <time>2020-02-23T11:23:28Z</time>
      </trkpt>
      <trkpt lat="39.0410590" lon="1.5954050">
        <ele>70.7</ele>
        <time>2020-02-23T11:23:29Z</time>
      </trkpt>
      <trkpt lat="39.0410840" lon="1.5953740">
        <ele>71.0</ele>
        <time>2020-02-23T11:23:30Z</time>
      </trkpt>
      <trkpt lat="39.0410920" lon="1.5953640">
        <ele>71.1</ele>
        <time>2020-02-23T11:23:31Z</time>
      </trkpt>
      <trkpt lat="39.0411150" lon="1.5953300">
        <ele>71.5</ele>
        <time>2020-02-23T11:23:32Z</time>
      </trkpt>
      <trkpt lat="39.0411250" lon="1.5953150">
        <ele>71.6</ele>
        <time>2020-02-23T11:23:33Z</time>
      </trkpt>
      <trkpt lat="39.0411450" lon="1.5952900">
        <ele>71.8</ele>
        <time>2020-02-23T11:23:34Z</time>
      </trkpt>
      <trkpt lat="39.0411650" lon="1.5952610">
        <ele>72.0</ele>
        <time>2020-02-23T11:23:35Z</time>
      </trkpt>
      <trkpt lat="39.0411880" lon="1.5952230">
        <ele>72.3</ele>
        <time>2020-02-23T11:23:36Z</time>
      </trkpt>
      <trkpt lat="39.0412000" lon="1.5951900">
        <ele>72.5</ele>
        <time>2020-02-23T11:23:37Z</time>
      </trkpt>
      <trkpt lat="39.0412170" lon="1.5951500">
        <ele>72.9</ele>
        <time>2020-02-23T11:23:38Z</time>
      </trkpt>
      <trkpt lat="39.0412380" lon="1.5951160">
        <ele>72.8</ele>
        <time>2020-02-23T11:23:39Z</time>
      </trkpt>
      <trkpt lat="39.0412610" lon="1.5950780">
        <ele>72.7</ele>
        <time>2020-02-23T11:23:40Z</time>
      </trkpt>
      <trkpt lat="39.0412740" lon="1.5950360">
        <ele>72.6</ele>
        <time>2020-02-23T11:23:41Z</time>
      </trkpt>
      <trkpt lat="39.0412850" lon="1.5949950">
        <ele>72.5</ele>
        <time>2020-02-23T11:23:42Z</time>
      </trkpt>
      <trkpt lat="39.0412940" lon="1.5949550">
        <ele>72.5</ele>
        <time>2020-02-23T11:23:43Z</time>
      </trkpt>
      <trkpt lat="39.0413070" lon="1.5949240">
        <ele>72.4</ele>
        <time>2020-02-23T11:23:44Z</time>
      </trkpt>
      <trkpt lat="39.0413260" lon="1.5948850">
        <ele>72.3</ele>
        <time>2020-02-23T11:23:45Z</time>
      </trkpt>
      <trkpt lat="39.0413330" lon="1.5948700">
        <ele>72.3</ele>
        <time>2020-02-23T11:23:46Z</time>
      </trkpt>
      <trkpt lat="39.0413460" lon="1.5948360">
        <ele>72.2</ele>
        <time>2020-02-23T11:23:47Z</time>
      </trkpt>
      <trkpt lat="39.0413630" lon="1.5947980">
        <ele>72.1</ele>
        <time>2020-02-23T11:23:48Z</time>
      </trkpt>
      <trkpt lat="39.0413790" lon="1.5947600">
        <ele>72.0</ele>
        <time>2020-02-23T11:23:49Z</time>
      </trkpt>
      <trkpt lat="39.0413950" lon="1.5947270">
        <ele>71.9</ele>
        <time>2020-02-23T11:23:50Z</time>
      </trkpt>
      <trkpt lat="39.0414090" lon="1.5946920">
        <ele>71.8</ele>
        <time>2020-02-23T11:23:51Z</time>
      </trkpt>
      <trkpt lat="39.0414240" lon="1.5946600">
        <ele>71.7</ele>
        <time>2020-02-23T11:23:52Z</time>
      </trkpt>
      <trkpt lat="39.0414460" lon="1.5946200">
        <ele>71.6</ele>
        <time>2020-02-23T11:23:53Z</time>
      </trkpt>
      <trkpt lat="39.0414510" lon="1.5946010">
        <ele>71.5</ele>
        <time>2020-02-23T11:23:54Z</time>
      </trkpt>
      <trkpt lat="39.0414660" lon="1.5945680">
        <ele>71.4</ele>
        <time>2020-02-23T11:23:55Z</time>
      </trkpt>
      <trkpt lat="39.0414800" lon="1.5945360">
        <ele>71.3</ele>
        <time>2020-02-23T11:23:56Z</time>
      </trkpt>
      <trkpt lat="39.0415060" lon="1.5944860">
        <ele>71.2</ele>
        <time>2020-02-23T11:23:57Z</time>
      </trkpt>
      <trkpt lat="39.0415160" lon="1.5944620">
        <ele>71.1</ele>
        <time>2020-02-23T11:23:58Z</time>
      </trkpt>
      <trkpt lat="39.0415470" lon="1.5944220">
        <ele>71.0</ele>
        <time>2020-02-23T11:23:59Z</time>
      </trkpt>
      <trkpt lat="39.0415670" lon="1.5943780">
        <ele>70.9</ele>
        <time>2020-02-23T11:24:00Z</time>
      </trkpt>
      <trkpt lat="39.0415870" lon="1.5943520">
        <ele>70.8</ele>
        <time>2020-02-23T11:24:01Z</time>
      </trkpt>
      <trkpt lat="39.0416010" lon="1.5943110">
        <ele>70.7</ele>
        <time>2020-02-23T11:24:02Z</time>
      </trkpt>
      <trkpt lat="39.0416220" lon="1.5942630">
        <ele>70.5</ele>
        <time>2020-02-23T11:24:03Z</time>
      </trkpt>
      <trkpt lat="39.0416450" lon="1.5942290">
        <ele>70.4</ele>
        <time>2020-02-23T11:24:04Z</time>
      </trkpt>
      <trkpt lat="39.0416560" lon="1.5941870">
        <ele>70.3</ele>
        <time>2020-02-23T11:24:05Z</time>
      </trkpt>
      <trkpt lat="39.0416800" lon="1.5941590">
        <ele>70.2</ele>
        <time>2020-02-23T11:24:06Z</time>
      </trkpt>
      <trkpt lat="39.0417010" lon="1.5941300">
        <ele>70.0</ele>
        <time>2020-02-23T11:24:07Z</time>
      </trkpt>
      <trkpt lat="39.0417300" lon="1.5941090">
        <ele>69.9</ele>
        <time>2020-02-23T11:24:08Z</time>
      </trkpt>
      <trkpt lat="39.0417550" lon="1.5940810">
        <ele>69.8</ele>
        <time>2020-02-23T11:24:09Z</time>
      </trkpt>
      <trkpt lat="39.0417790" lon="1.5940420">
        <ele>69.7</ele>
        <time>2020-02-23T11:24:10Z</time>
      </trkpt>
      <trkpt lat="39.0418020" lon="1.5939940">
        <ele>69.6</ele>
        <time>2020-02-23T11:24:11Z</time>
      </trkpt>
      <trkpt lat="39.0418240" lon="1.5939610">
        <ele>69.5</ele>
        <time>2020-02-23T11:24:12Z</time>
      </trkpt>
      <trkpt lat="39.0418500" lon="1.5939300">
        <ele>69.3</ele>
        <time>2020-02-23T11:24:13Z</time>
      </trkpt>
      <trkpt lat="39.0418780" lon="1.5938920">
        <ele>69.1</ele>
        <time>2020-02-23T11:24:14Z</time>
      </trkpt>
      <trkpt lat="39.0419100" lon="1.5938420">
        <ele>69.0</ele>
        <time>2020-02-23T11:24:15Z</time>
      </trkpt>
      <trkpt lat="39.0419380" lon="1.5937910">
        <ele>68.8</ele>
        <time>2020-02-23T11:24:16Z</time>
      </trkpt>
      <trkpt lat="39.0419650" lon="1.5937460">
        <ele>68.7</ele>
        <time>2020-02-23T11:24:17Z</time>
      </trkpt>
      <trkpt lat="39.0419920" lon="1.5937030">
        <ele>68.6</ele>
        <time>2020-02-23T11:24:18Z</time>
      </trkpt>
      <trkpt lat="39.0420080" lon="1.5936480">
        <ele>68.4</ele>
        <time>2020-02-23T11:24:19Z</time>
      </trkpt>
      <trkpt lat="39.0420290" lon="1.5935950">
        <ele>68.2</ele>
        <time>2020-02-23T11:24:20Z</time>
      </trkpt>
      <trkpt lat="39.0420520" lon="1.5935370">
        <ele>68.1</ele>
        <time>2020-02-23T11:24:21Z</time>
      </trkpt>
      <trkpt lat="39.0420750" lon="1.5934830">
        <ele>67.9</ele>
        <time>2020-02-23T11:24:22Z</time>
      </trkpt>
      <trkpt lat="39.0421070" lon="1.5934240">
        <ele>67.7</ele>
        <time>2020-02-23T11:24:23Z</time>
      </trkpt>
      <trkpt lat="39.0421390" lon="1.5933690">
        <ele>67.6</ele>
        <time>2020-02-23T11:24:24Z</time>
      </trkpt>
      <trkpt lat="39.0421700" lon="1.5933160">
        <ele>67.4</ele>
        <time>2020-02-23T11:24:25Z</time>
      </trkpt>
      <trkpt lat="39.0421990" lon="1.5932610">
        <ele>67.3</ele>
        <time>2020-02-23T11:24:26Z</time>
      </trkpt>
      <trkpt lat="39.0422300" lon="1.5932030">
        <ele>67.2</ele>
        <time>2020-02-23T11:24:27Z</time>
      </trkpt>
      <trkpt lat="39.0422630" lon="1.5931430">
        <ele>66.9</ele>
        <time>2020-02-23T11:24:28Z</time>
      </trkpt>
      <trkpt lat="39.0423040" lon="1.5930900">
        <ele>66.7</ele>
        <time>2020-02-23T11:24:29Z</time>
      </trkpt>
      <trkpt lat="39.0423420" lon="1.5930240">
        <ele>66.5</ele>
        <time>2020-02-23T11:24:30Z</time>
      </trkpt>
      <trkpt lat="39.0423700" lon="1.5929770">
        <ele>66.4</ele>
        <time>2020-02-23T11:24:31Z</time>
      </trkpt>
      <trkpt lat="39.0423990" lon="1.5929210">
        <ele>66.2</ele>
        <time>2020-02-23T11:24:32Z</time>
      </trkpt>
      <trkpt lat="39.0424300" lon="1.5928640">
        <ele>66.0</ele>
        <time>2020-02-23T11:24:33Z</time>
      </trkpt>
      <trkpt lat="39.0424600" lon="1.5928090">
        <ele>65.8</ele>
        <time>2020-02-23T11:24:34Z</time>
      </trkpt>
      <trkpt lat="39.0424870" lon="1.5927570">
        <ele>65.6</ele>
        <time>2020-02-23T11:24:35Z</time>
      </trkpt>
      <trkpt lat="39.0425180" lon="1.5926950">
        <ele>65.4</ele>
        <time>2020-02-23T11:24:36Z</time>
      </trkpt>
      <trkpt lat="39.0425470" lon="1.5926330">
        <ele>65.2</ele>
        <time>2020-02-23T11:24:37Z</time>
      </trkpt>
      <trkpt lat="39.0425700" lon="1.5925840">
        <ele>65.0</ele>
        <time>2020-02-23T11:24:38Z</time>
      </trkpt>
      <trkpt lat="39.0426140" lon="1.5925130">
        <ele>64.7</ele>
        <time>2020-02-23T11:24:39Z</time>
      </trkpt>
      <trkpt lat="39.0426530" lon="1.5924460">
        <ele>64.5</ele>
        <time>2020-02-23T11:24:40Z</time>
      </trkpt>
      <trkpt lat="39.0426930" lon="1.5923700">
        <ele>64.2</ele>
        <time>2020-02-23T11:24:41Z</time>
      </trkpt>
      <trkpt lat="39.0427300" lon="1.5923000">
        <ele>64.1</ele>
        <time>2020-02-23T11:24:42Z</time>
      </trkpt>
      <trkpt lat="39.0427650" lon="1.5922330">
        <ele>63.9</ele>
        <time>2020-02-23T11:24:43Z</time>
      </trkpt>
      <trkpt lat="39.0427870" lon="1.5921650">
        <ele>63.8</ele>
        <time>2020-02-23T11:24:44Z</time>
      </trkpt>
      <trkpt lat="39.0427940" lon="1.5921020">
        <ele>63.7</ele>
        <time>2020-02-23T11:24:45Z</time>
      </trkpt>
      <trkpt lat="39.0428090" lon="1.5920300">
        <ele>63.5</ele>
        <time>2020-02-23T11:24:46Z</time>
      </trkpt>
      <trkpt lat="39.0428290" lon="1.5919410">
        <ele>63.4</ele>
        <time>2020-02-23T11:24:47Z</time>
      </trkpt>
      <trkpt lat="39.0428590" lon="1.5918660">
        <ele>63.5</ele>
        <time>2020-02-23T11:24:48Z</time>
      </trkpt>
      <trkpt lat="39.0429100" lon="1.5918120">
        <ele>63.6</ele>
        <time>2020-02-23T11:24:49Z</time>
      </trkpt>
      <trkpt lat="39.0429750" lon="1.5917680">
        <ele>63.7</ele>
        <time>2020-02-23T11:24:50Z</time>
      </trkpt>
      <trkpt lat="39.0430380" lon="1.5917230">
        <ele>63.8</ele>
        <time>2020-02-23T11:24:51Z</time>
      </trkpt>
      <trkpt lat="39.0431070" lon="1.5916720">
        <ele>63.9</ele>
        <time>2020-02-23T11:24:52Z</time>
      </trkpt>
      <trkpt lat="39.0431580" lon="1.5916130">
        <ele>64.1</ele>
        <time>2020-02-23T11:24:53Z</time>
      </trkpt>
      <trkpt lat="39.0432060" lon="1.5915600">
        <ele>64.4</ele>
        <time>2020-02-23T11:24:54Z</time>
      </trkpt>
      <trkpt lat="39.0432660" lon="1.5915050">
        <ele>64.8</ele>
        <time>2020-02-23T11:24:55Z</time>
      </trkpt>
      <trkpt lat="39.0433160" lon="1.5914540">
        <ele>65.1</ele>
        <time>2020-02-23T11:24:56Z</time>
      </trkpt>
      <trkpt lat="39.0433630" lon="1.5914130">
        <ele>65.5</ele>
        <time>2020-02-23T11:24:57Z</time>
      </trkpt>
      <trkpt lat="39.0434100" lon="1.5913830">
        <ele>65.8</ele>
        <time>2020-02-23T11:24:58Z</time>
      </trkpt>
      <trkpt lat="39.0434630" lon="1.5913550">
        <ele>66.2</ele>
        <time>2020-02-23T11:24:59Z</time>
      </trkpt>
      <trkpt lat="39.0435130" lon="1.5913400">
        <ele>66.4</ele>
        <time>2020-02-23T11:25:00Z</time>
      </trkpt>
      <trkpt lat="39.0435560" lon="1.5913820">
        <ele>66.2</ele>
        <time>2020-02-23T11:25:01Z</time>
      </trkpt>
      <trkpt lat="39.0435950" lon="1.5914020">
        <ele>66.1</ele>
        <time>2020-02-23T11:25:02Z</time>
      </trkpt>
      <trkpt lat="39.0436340" lon="1.5913870">
        <ele>66.0</ele>
        <time>2020-02-23T11:25:03Z</time>
      </trkpt>
      <trkpt lat="39.0436690" lon="1.5913500">
        <ele>65.9</ele>
        <time>2020-02-23T11:25:04Z</time>
      </trkpt>
      <trkpt lat="39.0437030" lon="1.5913030">
        <ele>65.8</ele>
        <time>2020-02-23T11:25:05Z</time>
      </trkpt>
      <trkpt lat="39.0437320" lon="1.5912620">
        <ele>65.7</ele>
        <time>2020-02-23T11:25:06Z</time>
      </trkpt>
      <trkpt lat="39.0437700" lon="1.5912270">
        <ele>65.7</ele>
        <time>2020-02-23T11:25:07Z</time>
      </trkpt>
      <trkpt lat="39.0438090" lon="1.5911870">
        <ele>65.7</ele>
        <time>2020-02-23T11:25:08Z</time>
      </trkpt>
      <trkpt lat="39.0438500" lon="1.5911430">
        <ele>65.6</ele>
        <time>2020-02-23T11:25:09Z</time>
      </trkpt>
      <trkpt lat="39.0438870" lon="1.5911000">
        <ele>65.6</ele>
        <time>2020-02-23T11:25:10Z</time>
      </trkpt>
      <trkpt lat="39.0439200" lon="1.5910580">
        <ele>65.7</ele>
        <time>2020-02-23T11:25:11Z</time>
      </trkpt>
      <trkpt lat="39.0439530" lon="1.5910180">
        <ele>65.7</ele>
        <time>2020-02-23T11:25:12Z</time>
      </trkpt>
      <trkpt lat="39.0439850" lon="1.5909770">
        <ele>65.7</ele>
        <time>2020-02-23T11:25:13Z</time>
      </trkpt>
      <trkpt lat="39.0440190" lon="1.5909310">
        <ele>65.7</ele>
        <time>2020-02-23T11:25:14Z</time>
      </trkpt>
      <trkpt lat="39.0440540" lon="1.5908870">
        <ele>65.7</ele>
        <time>2020-02-23T11:25:15Z</time>
      </trkpt>
      <trkpt lat="39.0440920" lon="1.5908510">
        <ele>65.7</ele>
        <time>2020-02-23T11:25:16Z</time>
      </trkpt>
      <trkpt lat="39.0441310" lon="1.5908210">
        <ele>65.8</ele>
        <time>2020-02-23T11:25:17Z</time>
      </trkpt>
      <trkpt lat="39.0441670" lon="1.5907860">
        <ele>65.8</ele>
        <time>2020-02-23T11:25:18Z</time>
      </trkpt>
      <trkpt lat="39.0441990" lon="1.5907430">
        <ele>65.9</ele>
        <time>2020-02-23T11:25:19Z</time>
      </trkpt>
      <trkpt lat="39.0442320" lon="1.5907010">
        <ele>66.0</ele>
        <time>2020-02-23T11:25:20Z</time>
      </trkpt>
      <trkpt lat="39.0442670" lon="1.5906630">
        <ele>66.0</ele>
        <time>2020-02-23T11:25:21Z</time>
      </trkpt>
      <trkpt lat="39.0443060" lon="1.5906280">
        <ele>66.1</ele>
        <time>2020-02-23T11:25:22Z</time>
      </trkpt>
      <trkpt lat="39.0443460" lon="1.5905910">
        <ele>66.2</ele>
        <time>2020-02-23T11:25:23Z</time>
      </trkpt>
      <trkpt lat="39.0443900" lon="1.5905640">
        <ele>66.3</ele>
        <time>2020-02-23T11:25:24Z</time>
      </trkpt>
      <trkpt lat="39.0444320" lon="1.5905440">
        <ele>66.4</ele>
        <time>2020-02-23T11:25:25Z</time>
      </trkpt>
      <trkpt lat="39.0444740" lon="1.5905240">
        <ele>66.5</ele>
        <time>2020-02-23T11:25:26Z</time>
      </trkpt>
      <trkpt lat="39.0445170" lon="1.5905040">
        <ele>66.6</ele>
        <time>2020-02-23T11:25:27Z</time>
      </trkpt>
      <trkpt lat="39.0445550" lon="1.5904850">
        <ele>66.7</ele>
        <time>2020-02-23T11:25:28Z</time>
      </trkpt>
      <trkpt lat="39.0445910" lon="1.5904620">
        <ele>66.8</ele>
        <time>2020-02-23T11:25:29Z</time>
      </trkpt>
      <trkpt lat="39.0446250" lon="1.5904390">
        <ele>66.9</ele>
        <time>2020-02-23T11:25:30Z</time>
      </trkpt>
      <trkpt lat="39.0446590" lon="1.5904250">
        <ele>66.9</ele>
        <time>2020-02-23T11:25:31Z</time>
      </trkpt>
      <trkpt lat="39.0446880" lon="1.5904050">
        <ele>67.0</ele>
        <time>2020-02-23T11:25:32Z</time>
      </trkpt>
      <trkpt lat="39.0447190" lon="1.5904000">
        <ele>67.1</ele>
        <time>2020-02-23T11:25:33Z</time>
      </trkpt>
      <trkpt lat="39.0447480" lon="1.5903940">
        <ele>67.3</ele>
        <time>2020-02-23T11:25:34Z</time>
      </trkpt>
      <trkpt lat="39.0447830" lon="1.5903850">
        <ele>67.4</ele>
        <time>2020-02-23T11:25:35Z</time>
      </trkpt>
      <trkpt lat="39.0447940" lon="1.5903810">
        <ele>67.5</ele>
        <time>2020-02-23T11:25:36Z</time>
      </trkpt>
      <trkpt lat="39.0448230" lon="1.5903790">
        <ele>67.6</ele>
        <time>2020-02-23T11:25:37Z</time>
      </trkpt>
      <trkpt lat="39.0448550" lon="1.5903740">
        <ele>67.8</ele>
        <time>2020-02-23T11:25:38Z</time>
      </trkpt>
      <trkpt lat="39.0448830" lon="1.5903660">
        <ele>67.9</ele>
        <time>2020-02-23T11:25:39Z</time>
      </trkpt>
      <trkpt lat="39.0449140" lon="1.5903780">
        <ele>68.1</ele>
        <time>2020-02-23T11:25:40Z</time>
      </trkpt>
      <trkpt lat="39.0449540" lon="1.5903860">
        <ele>68.2</ele>
        <time>2020-02-23T11:25:41Z</time>
      </trkpt>
      <trkpt lat="39.0449680" lon="1.5903900">
        <ele>68.3</ele>
        <time>2020-02-23T11:25:42Z</time>
      </trkpt>
      <trkpt lat="39.0450000" lon="1.5903820">
        <ele>68.4</ele>
        <time>2020-02-23T11:25:43Z</time>
      </trkpt>
      <trkpt lat="39.0450360" lon="1.5903890">
        <ele>68.5</ele>
        <time>2020-02-23T11:25:44Z</time>
      </trkpt>
      <trkpt lat="39.0450690" lon="1.5903950">
        <ele>68.6</ele>
        <time>2020-02-23T11:25:45Z</time>
      </trkpt>
      <trkpt lat="39.0451000" lon="1.5903920">
        <ele>68.8</ele>
        <time>2020-02-23T11:25:46Z</time>
      </trkpt>
      <trkpt lat="39.0451310" lon="1.5903880">
        <ele>68.9</ele>
        <time>2020-02-23T11:25:47Z</time>
      </trkpt>
      <trkpt lat="39.0451590" lon="1.5903990">
        <ele>69.0</ele>
        <time>2020-02-23T11:25:48Z</time>
      </trkpt>
      <trkpt lat="39.0451980" lon="1.5904000">
        <ele>69.2</ele>
        <time>2020-02-23T11:25:49Z</time>
      </trkpt>
      <trkpt lat="39.0452100" lon="1.5904030">
        <ele>69.2</ele>
        <time>2020-02-23T11:25:50Z</time>
      </trkpt>
      <trkpt lat="39.0452470" lon="1.5904010">
        <ele>69.4</ele>
        <time>2020-02-23T11:25:51Z</time>
      </trkpt>
      <trkpt lat="39.0452590" lon="1.5904000">
        <ele>69.4</ele>
        <time>2020-02-23T11:25:52Z</time>
      </trkpt>
      <trkpt lat="39.0452910" lon="1.5904090">
        <ele>69.5</ele>
        <time>2020-02-23T11:25:53Z</time>
      </trkpt>
      <trkpt lat="39.0453010" lon="1.5904150">
        <ele>69.5</ele>
        <time>2020-02-23T11:25:54Z</time>
      </trkpt>
      <trkpt lat="39.0453300" lon="1.5904390">
        <ele>69.6</ele>
        <time>2020-02-23T11:25:55Z</time>
      </trkpt>
      <trkpt lat="39.0453390" lon="1.5904520">
        <ele>69.7</ele>
        <time>2020-02-23T11:25:56Z</time>
      </trkpt>
      <trkpt lat="39.0453740" lon="1.5904680">
        <ele>69.8</ele>
        <time>2020-02-23T11:25:57Z</time>
      </trkpt>
      <trkpt lat="39.0453860" lon="1.5904760">
        <ele>69.8</ele>
        <time>2020-02-23T11:25:58Z</time>
      </trkpt>
      <trkpt lat="39.0454080" lon="1.5904960">
        <ele>69.9</ele>
        <time>2020-02-23T11:25:59Z</time>
      </trkpt>
      <trkpt lat="39.0454440" lon="1.5905160">
        <ele>70.0</ele>
        <time>2020-02-23T11:26:00Z</time>
      </trkpt>
      <trkpt lat="39.0454570" lon="1.5905190">
        <ele>70.0</ele>
        <time>2020-02-23T11:26:01Z</time>
      </trkpt>
      <trkpt lat="39.0454920" lon="1.5905420">
        <ele>70.1</ele>
        <time>2020-02-23T11:26:02Z</time>
      </trkpt>
      <trkpt lat="39.0455020" lon="1.5905490">
        <ele>70.1</ele>
        <time>2020-02-23T11:26:03Z</time>
      </trkpt>
      <trkpt lat="39.0455330" lon="1.5905730">
        <ele>70.2</ele>
        <time>2020-02-23T11:26:04Z</time>
      </trkpt>
      <trkpt lat="39.0455440" lon="1.5905840">
        <ele>70.3</ele>
        <time>2020-02-23T11:26:05Z</time>
      </trkpt>
      <trkpt lat="39.0455770" lon="1.5906020">
        <ele>70.3</ele>
        <time>2020-02-23T11:26:06Z</time>
      </trkpt>
      <trkpt lat="39.0455870" lon="1.5906090">
        <ele>70.4</ele>
        <time>2020-02-23T11:26:07Z</time>
      </trkpt>
      <trkpt lat="39.0456050" lon="1.5906390">
        <ele>70.4</ele>
        <time>2020-02-23T11:26:08Z</time>
      </trkpt>
      <trkpt lat="39.0456290" lon="1.5906560">
        <ele>70.5</ele>
        <time>2020-02-23T11:26:09Z</time>
      </trkpt>
      <trkpt lat="39.0456610" lon="1.5906850">
        <ele>70.6</ele>
        <time>2020-02-23T11:26:10Z</time>
      </trkpt>
      <trkpt lat="39.0456690" lon="1.5906960">
        <ele>70.6</ele>
        <time>2020-02-23T11:26:11Z</time>
      </trkpt>
      <trkpt lat="39.0456970" lon="1.5907160">
        <ele>70.7</ele>
        <time>2020-02-23T11:26:12Z</time>
      </trkpt>
      <trkpt lat="39.0457050" lon="1.5907270">
        <ele>70.7</ele>
        <time>2020-02-23T11:26:13Z</time>
      </trkpt>
      <trkpt lat="39.0457300" lon="1.5907450">
        <ele>70.8</ele>
        <time>2020-02-23T11:26:14Z</time>
      </trkpt>
      <trkpt lat="39.0457410" lon="1.5907470">
        <ele>70.8</ele>
        <time>2020-02-23T11:26:15Z</time>
      </trkpt>
      <trkpt lat="39.0457710" lon="1.5907830">
        <ele>70.7</ele>
        <time>2020-02-23T11:26:16Z</time>
      </trkpt>
      <trkpt lat="39.0457840" lon="1.5907950">
        <ele>70.6</ele>
        <time>2020-02-23T11:26:17Z</time>
      </trkpt>
      <trkpt lat="39.0458180" lon="1.5908190">
        <ele>70.4</ele>
        <time>2020-02-23T11:26:18Z</time>
      </trkpt>
      <trkpt lat="39.0458560" lon="1.5908370">
        <ele>70.2</ele>
        <time>2020-02-23T11:26:19Z</time>
      </trkpt>
      <trkpt lat="39.0458960" lon="1.5908590">
        <ele>69.9</ele>
        <time>2020-02-23T11:26:20Z</time>
      </trkpt>
      <trkpt lat="39.0459430" lon="1.5908820">
        <ele>69.7</ele>
        <time>2020-02-23T11:26:21Z</time>
      </trkpt>
      <trkpt lat="39.0459920" lon="1.5909120">
        <ele>69.4</ele>
        <time>2020-02-23T11:26:22Z</time>
      </trkpt>
      <trkpt lat="39.0460510" lon="1.5909320">
        <ele>69.1</ele>
        <time>2020-02-23T11:26:23Z</time>
      </trkpt>
      <trkpt lat="39.0461130" lon="1.5909590">
        <ele>68.1</ele>
        <time>2020-02-23T11:26:24Z</time>
      </trkpt>
      <trkpt lat="39.0461810" lon="1.5909860">
        <ele>67.3</ele>
        <time>2020-02-23T11:26:25Z</time>
      </trkpt>
      <trkpt lat="39.0462500" lon="1.5910180">
        <ele>66.4</ele>
        <time>2020-02-23T11:26:26Z</time>
      </trkpt>
      <trkpt lat="39.0463230" lon="1.5910300">
        <ele>65.4</ele>
        <time>2020-02-23T11:26:27Z</time>
      </trkpt>
      <trkpt lat="39.0464030" lon="1.5910430">
        <ele>64.5</ele>
        <time>2020-02-23T11:26:28Z</time>
      </trkpt>
      <trkpt lat="39.0464900" lon="1.5910760">
        <ele>63.4</ele>
        <time>2020-02-23T11:26:29Z</time>
      </trkpt>
      <trkpt lat="39.0465850" lon="1.5910980">
        <ele>62.6</ele>
        <time>2020-02-23T11:26:30Z</time>
      </trkpt>
      <trkpt lat="39.0466740" lon="1.5911230">
        <ele>61.8</ele>
        <time>2020-02-23T11:26:31Z</time>
      </trkpt>
      <trkpt lat="39.0467620" lon="1.5911490">
        <ele>61.1</ele>
        <time>2020-02-23T11:26:32Z</time>
      </trkpt>
      <trkpt lat="39.0468500" lon="1.5911590">
        <ele>60.4</ele>
        <time>2020-02-23T11:26:33Z</time>
      </trkpt>
      <trkpt lat="39.0469290" lon="1.5911940">
        <ele>59.3</ele>
        <time>2020-02-23T11:26:34Z</time>
      </trkpt>
      <trkpt lat="39.0470110" lon="1.5912360">
        <ele>58.2</ele>
        <time>2020-02-23T11:26:35Z</time>
      </trkpt>
      <trkpt lat="39.0470890" lon="1.5912680">
        <ele>57.4</ele>
        <time>2020-02-23T11:26:36Z</time>
      </trkpt>
      <trkpt lat="39.0471630" lon="1.5912980">
        <ele>56.8</ele>
        <time>2020-02-23T11:26:37Z</time>
      </trkpt>
      <trkpt lat="39.0472310" lon="1.5913370">
        <ele>56.2</ele>
        <time>2020-02-23T11:26:38Z</time>
      </trkpt>
      <trkpt lat="39.0472940" lon="1.5913700">
        <ele>55.2</ele>
        <time>2020-02-23T11:26:39Z</time>
      </trkpt>
      <trkpt lat="39.0473470" lon="1.5914190">
        <ele>55.2</ele>
        <time>2020-02-23T11:26:40Z</time>
      </trkpt>
      <trkpt lat="39.0474130" lon="1.5914620">
        <ele>54.3</ele>
        <time>2020-02-23T11:26:41Z</time>
      </trkpt>
      <trkpt lat="39.0474790" lon="1.5915030">
        <ele>53.5</ele>
        <time>2020-02-23T11:26:42Z</time>
      </trkpt>
      <trkpt lat="39.0475490" lon="1.5915390">
        <ele>52.5</ele>
        <time>2020-02-23T11:26:43Z</time>
      </trkpt>
      <trkpt lat="39.0476320" lon="1.5915740">
        <ele>51.2</ele>
        <time>2020-02-23T11:26:44Z</time>
      </trkpt>
      <trkpt lat="39.0477220" lon="1.5916100">
        <ele>49.8</ele>
        <time>2020-02-23T11:26:45Z</time>
      </trkpt>
      <trkpt lat="39.0478160" lon="1.5916410">
        <ele>48.4</ele>
        <time>2020-02-23T11:26:46Z</time>
      </trkpt>
      <trkpt lat="39.0479050" lon="1.5916790">
        <ele>47.1</ele>
        <time>2020-02-23T11:26:47Z</time>
      </trkpt>
      <trkpt lat="39.0479980" lon="1.5917080">
        <ele>46.0</ele>
        <time>2020-02-23T11:26:48Z</time>
      </trkpt>
      <trkpt lat="39.0480940" lon="1.5917360">
        <ele>45.0</ele>
        <time>2020-02-23T11:26:49Z</time>
      </trkpt>
      <trkpt lat="39.0481930" lon="1.5917760">
        <ele>44.0</ele>
        <time>2020-02-23T11:26:50Z</time>
      </trkpt>
      <trkpt lat="39.0482960" lon="1.5918140">
        <ele>43.2</ele>
        <time>2020-02-23T11:26:51Z</time>
      </trkpt>
      <trkpt lat="39.0483960" lon="1.5918480">
        <ele>42.4</ele>
        <time>2020-02-23T11:26:52Z</time>
      </trkpt>
      <trkpt lat="39.0484990" lon="1.5918540">
        <ele>41.7</ele>
        <time>2020-02-23T11:26:53Z</time>
      </trkpt>
      <trkpt lat="39.0486020" lon="1.5918410">
        <ele>40.4</ele>
        <time>2020-02-23T11:26:54Z</time>
      </trkpt>
      <trkpt lat="39.0487010" lon="1.5918190">
        <ele>39.2</ele>
        <time>2020-02-23T11:26:55Z</time>
      </trkpt>
      <trkpt lat="39.0487960" lon="1.5918000">
        <ele>37.9</ele>
        <time>2020-02-23T11:26:56Z</time>
      </trkpt>
      <trkpt lat="39.0488820" lon="1.5917790">
        <ele>36.5</ele>
        <time>2020-02-23T11:26:57Z</time>
      </trkpt>
      <trkpt lat="39.0489520" lon="1.5917620">
        <ele>36.1</ele>
        <time>2020-02-23T11:26:58Z</time>
      </trkpt>
      <trkpt lat="39.0490070" lon="1.5917550">
        <ele>35.3</ele>
        <time>2020-02-23T11:26:59Z</time>
      </trkpt>
      <trkpt lat="39.0490480" lon="1.5917480">
        <ele>35.1</ele>
        <time>2020-02-23T11:27:00Z</time>
      </trkpt>
      <trkpt lat="39.0490770" lon="1.5917460">
        <ele>34.9</ele>
        <time>2020-02-23T11:27:01Z</time>
      </trkpt>
      <trkpt lat="39.0491100" lon="1.5917480">
        <ele>34.8</ele>
        <time>2020-02-23T11:27:02Z</time>
      </trkpt>
      <trkpt lat="39.0491210" lon="1.5917520">
        <ele>34.7</ele>
        <time>2020-02-23T11:27:03Z</time>
      </trkpt>
      <trkpt lat="39.0491540" lon="1.5917560">
        <ele>34.6</ele>
        <time>2020-02-23T11:27:04Z</time>
      </trkpt>
      <trkpt lat="39.0491640" lon="1.5917570">
        <ele>34.5</ele>
        <time>2020-02-23T11:27:05Z</time>
      </trkpt>
      <trkpt lat="39.0491780" lon="1.5917610">
        <ele>34.5</ele>
        <time>2020-02-23T11:27:06Z</time>
      </trkpt>
      <trkpt lat="39.0491930" lon="1.5917650">
        <ele>34.4</ele>
        <time>2020-02-23T11:27:07Z</time>
      </trkpt>
      <trkpt lat="39.0492310" lon="1.5917630">
        <ele>34.3</ele>
        <time>2020-02-23T11:27:08Z</time>
      </trkpt>
      <trkpt lat="39.0492450" lon="1.5917600">
        <ele>34.3</ele>
        <time>2020-02-23T11:27:09Z</time>
      </trkpt>
      <trkpt lat="39.0492740" lon="1.5917530">
        <ele>34.3</ele>
        <time>2020-02-23T11:27:10Z</time>
      </trkpt>
      <trkpt lat="39.0493130" lon="1.5917550">
        <ele>34.3</ele>
        <time>2020-02-23T11:27:11Z</time>
      </trkpt>
      <trkpt lat="39.0493270" lon="1.5917540">
        <ele>34.3</ele>
        <time>2020-02-23T11:27:12Z</time>
      </trkpt>
      <trkpt lat="39.0493510" lon="1.5917680">
        <ele>34.3</ele>
        <time>2020-02-23T11:27:13Z</time>
      </trkpt>
      <trkpt lat="39.0493790" lon="1.5917680">
        <ele>34.3</ele>
        <time>2020-02-23T11:27:14Z</time>
      </trkpt>
      <trkpt lat="39.0494130" lon="1.5917550">
        <ele>34.2</ele>
        <time>2020-02-23T11:27:15Z</time>
      </trkpt>
      <trkpt lat="39.0494250" lon="1.5917450">
        <ele>34.2</ele>
        <time>2020-02-23T11:27:16Z</time>
      </trkpt>
      <trkpt lat="39.0494500" lon="1.5917340">
        <ele>34.2</ele>
        <time>2020-02-23T11:27:17Z</time>
      </trkpt>
      <trkpt lat="39.0494850" lon="1.5917130">
        <ele>34.2</ele>
        <time>2020-02-23T11:27:18Z</time>
      </trkpt>
      <trkpt lat="39.0494950" lon="1.5917030">
        <ele>34.1</ele>
        <time>2020-02-23T11:27:19Z</time>
      </trkpt>
      <trkpt lat="39.0495250" lon="1.5916810">
        <ele>34.1</ele>
        <time>2020-02-23T11:27:20Z</time>
      </trkpt>
      <trkpt lat="39.0495550" lon="1.5916950">
        <ele>34.1</ele>
        <time>2020-02-23T11:27:21Z</time>
      </trkpt>
      <trkpt lat="39.0495790" lon="1.5917190">
        <ele>34.0</ele>
        <time>2020-02-23T11:27:22Z</time>
      </trkpt>
      <trkpt lat="39.0495970" lon="1.5917540">
        <ele>34.0</ele>
        <time>2020-02-23T11:27:23Z</time>
      </trkpt>
      <trkpt lat="39.0496260" lon="1.5917770">
        <ele>33.9</ele>
        <time>2020-02-23T11:27:24Z</time>
      </trkpt>
      <trkpt lat="39.0496560" lon="1.5917980">
        <ele>33.8</ele>
        <time>2020-02-23T11:27:25Z</time>
      </trkpt>
      <trkpt lat="39.0496890" lon="1.5918320">
        <ele>33.6</ele>
        <time>2020-02-23T11:27:26Z</time>
      </trkpt>
      <trkpt lat="39.0497290" lon="1.5918640">
        <ele>33.5</ele>
        <time>2020-02-23T11:27:27Z</time>
      </trkpt>
      <trkpt lat="39.0497750" lon="1.5918810">
        <ele>33.3</ele>
        <time>2020-02-23T11:27:28Z</time>
      </trkpt>
      <trkpt lat="39.0498230" lon="1.5918930">
        <ele>33.1</ele>
        <time>2020-02-23T11:27:29Z</time>
      </trkpt>
      <trkpt lat="39.0498730" lon="1.5918870">
        <ele>32.9</ele>
        <time>2020-02-23T11:27:30Z</time>
      </trkpt>
      <trkpt lat="39.0499130" lon="1.5918830">
        <ele>32.8</ele>
        <time>2020-02-23T11:27:31Z</time>
      </trkpt>
      <trkpt lat="39.0499460" lon="1.5918810">
        <ele>32.6</ele>
        <time>2020-02-23T11:27:32Z</time>
      </trkpt>
      <trkpt lat="39.0499750" lon="1.5918940">
        <ele>32.4</ele>
        <time>2020-02-23T11:27:33Z</time>
      </trkpt>
      <trkpt lat="39.0500000" lon="1.5919110">
        <ele>32.2</ele>
        <time>2020-02-23T11:27:34Z</time>
      </trkpt>
      <trkpt lat="39.0500210" lon="1.5919360">
        <ele>32.0</ele>
        <time>2020-02-23T11:27:35Z</time>
      </trkpt>
      <trkpt lat="39.0500390" lon="1.5919620">
        <ele>31.9</ele>
        <time>2020-02-23T11:27:36Z</time>
      </trkpt>
      <trkpt lat="39.0500530" lon="1.5919940">
        <ele>31.7</ele>
        <time>2020-02-23T11:27:37Z</time>
      </trkpt>
      <trkpt lat="39.0500800" lon="1.5920290">
        <ele>31.4</ele>
        <time>2020-02-23T11:27:38Z</time>
      </trkpt>
      <trkpt lat="39.0500930" lon="1.5920390">
        <ele>31.2</ele>
        <time>2020-02-23T11:27:39Z</time>
      </trkpt>
      <trkpt lat="39.0501190" lon="1.5920590">
        <ele>30.5</ele>
        <time>2020-02-23T11:27:40Z</time>
      </trkpt>
      <trkpt lat="39.0501410" lon="1.5920830">
        <ele>30.4</ele>
        <time>2020-02-23T11:27:41Z</time>
      </trkpt>
      <trkpt lat="39.0501660" lon="1.5921030">
        <ele>30.3</ele>
        <time>2020-02-23T11:27:42Z</time>
      </trkpt>
      <trkpt lat="39.0501900" lon="1.5921160">
        <ele>30.2</ele>
        <time>2020-02-23T11:27:43Z</time>
      </trkpt>
      <trkpt lat="39.0502220" lon="1.5921440">
        <ele>30.1</ele>
        <time>2020-02-23T11:27:44Z</time>
      </trkpt>
      <trkpt lat="39.0502320" lon="1.5921540">
        <ele>30.0</ele>
        <time>2020-02-23T11:27:45Z</time>
      </trkpt>
      <trkpt lat="39.0502570" lon="1.5921730">
        <ele>29.9</ele>
        <time>2020-02-23T11:27:46Z</time>
      </trkpt>
      <trkpt lat="39.0502730" lon="1.5922010">
        <ele>29.8</ele>
        <time>2020-02-23T11:27:47Z</time>
      </trkpt>
      <trkpt lat="39.0502990" lon="1.5922180">
        <ele>29.7</ele>
        <time>2020-02-23T11:27:48Z</time>
      </trkpt>
      <trkpt lat="39.0503240" lon="1.5922370">
        <ele>29.6</ele>
        <time>2020-02-23T11:27:49Z</time>
      </trkpt>
      <trkpt lat="39.0503550" lon="1.5922430">
        <ele>29.5</ele>
        <time>2020-02-23T11:27:50Z</time>
      </trkpt>
      <trkpt lat="39.0503960" lon="1.5922540">
        <ele>29.3</ele>
        <time>2020-02-23T11:27:51Z</time>
      </trkpt>
      <trkpt lat="39.0504300" lon="1.5922280">
        <ele>29.2</ele>
        <time>2020-02-23T11:27:52Z</time>
      </trkpt>
      <trkpt lat="39.0504660" lon="1.5922030">
        <ele>29.1</ele>
        <time>2020-02-23T11:27:53Z</time>
      </trkpt>
      <trkpt lat="39.0504980" lon="1.5921840">
        <ele>28.9</ele>
        <time>2020-02-23T11:27:54Z</time>
      </trkpt>
      <trkpt lat="39.0505310" lon="1.5921620">
        <ele>28.8</ele>
        <time>2020-02-23T11:27:55Z</time>
      </trkpt>
      <trkpt lat="39.0505640" lon="1.5921350">
        <ele>28.7</ele>
        <time>2020-02-23T11:27:56Z</time>
      </trkpt>
      <trkpt lat="39.0505920" lon="1.5920970">
        <ele>28.5</ele>
        <time>2020-02-23T11:27:57Z</time>
      </trkpt>
      <trkpt lat="39.0506160" lon="1.5920530">
        <ele>28.4</ele>
        <time>2020-02-23T11:27:58Z</time>
      </trkpt>
      <trkpt lat="39.0506410" lon="1.5920070">
        <ele>28.2</ele>
        <time>2020-02-23T11:27:59Z</time>
      </trkpt>
      <trkpt lat="39.0506830" lon="1.5919630">
        <ele>28.1</ele>
        <time>2020-02-23T11:28:00Z</time>
      </trkpt>
      <trkpt lat="39.0507060" lon="1.5918970">
        <ele>27.0</ele>
        <time>2020-02-23T11:28:01Z</time>
      </trkpt>
      <trkpt lat="39.0507430" lon="1.5918230">
        <ele>26.8</ele>
        <time>2020-02-23T11:28:02Z</time>
      </trkpt>
      <trkpt lat="39.0507800" lon="1.5917460">
        <ele>26.6</ele>
        <time>2020-02-23T11:28:03Z</time>
      </trkpt>
      <trkpt lat="39.0508160" lon="1.5916630">
        <ele>26.3</ele>
        <time>2020-02-23T11:28:04Z</time>
      </trkpt>
      <trkpt lat="39.0508510" lon="1.5915750">
        <ele>26.1</ele>
        <time>2020-02-23T11:28:05Z</time>
      </trkpt>
      <trkpt lat="39.0508850" lon="1.5914840">
        <ele>25.9</ele>
        <time>2020-02-23T11:28:06Z</time>
      </trkpt>
      <trkpt lat="39.0509170" lon="1.5913950">
        <ele>25.8</ele>
        <time>2020-02-23T11:28:07Z</time>
      </trkpt>
      <trkpt lat="39.0509570" lon="1.5913120">
        <ele>25.4</ele>
        <time>2020-02-23T11:28:08Z</time>
      </trkpt>
      <trkpt lat="39.0509950" lon="1.5912310">
        <ele>25.2</ele>
        <time>2020-02-23T11:28:09Z</time>
      </trkpt>
      <trkpt lat="39.0510360" lon="1.5911520">
        <ele>25.0</ele>
        <time>2020-02-23T11:28:10Z</time>
      </trkpt>
      <trkpt lat="39.0510690" lon="1.5910700">
        <ele>24.8</ele>
        <time>2020-02-23T11:28:11Z</time>
      </trkpt>
      <trkpt lat="39.0511170" lon="1.5910040">
        <ele>24.6</ele>
        <time>2020-02-23T11:28:12Z</time>
      </trkpt>
      <trkpt lat="39.0511650" lon="1.5909380">
        <ele>24.4</ele>
        <time>2020-02-23T11:28:13Z</time>
      </trkpt>
      <trkpt lat="39.0512140" lon="1.5908640">
        <ele>24.2</ele>
        <time>2020-02-23T11:28:14Z</time>
      </trkpt>
      <trkpt lat="39.0512350" lon="1.5907760">
        <ele>24.0</ele>
        <time>2020-02-23T11:28:15Z</time>
      </trkpt>
      <trkpt lat="39.0512240" lon="1.5906920">
        <ele>23.8</ele>
        <time>2020-02-23T11:28:16Z</time>
      </trkpt>
      <trkpt lat="39.0512060" lon="1.5906130">
        <ele>23.6</ele>
        <time>2020-02-23T11:28:17Z</time>
      </trkpt>
      <trkpt lat="39.0511870" lon="1.5905430">
        <ele>23.3</ele>
        <time>2020-02-23T11:28:18Z</time>
      </trkpt>
      <trkpt lat="39.0512030" lon="1.5904750">
        <ele>23.0</ele>
        <time>2020-02-23T11:28:19Z</time>
      </trkpt>
      <trkpt lat="39.0512500" lon="1.5904330">
        <ele>22.5</ele>
        <time>2020-02-23T11:28:20Z</time>
      </trkpt>
      <trkpt lat="39.0513120" lon="1.5904190">
        <ele>22.2</ele>
        <time>2020-02-23T11:28:21Z</time>
      </trkpt>
      <trkpt lat="39.0513690" lon="1.5904270">
        <ele>22.0</ele>
        <time>2020-02-23T11:28:22Z</time>
      </trkpt>
      <trkpt lat="39.0514240" lon="1.5904550">
        <ele>21.7</ele>
        <time>2020-02-23T11:28:23Z</time>
      </trkpt>
      <trkpt lat="39.0514740" lon="1.5905040">
        <ele>21.4</ele>
        <time>2020-02-23T11:28:24Z</time>
      </trkpt>
      <trkpt lat="39.0515230" lon="1.5905680">
        <ele>21.1</ele>
        <time>2020-02-23T11:28:25Z</time>
      </trkpt>
      <trkpt lat="39.0515490" lon="1.5906500">
        <ele>20.8</ele>
        <time>2020-02-23T11:28:26Z</time>
      </trkpt>
      <trkpt lat="39.0515700" lon="1.5907360">
        <ele>20.4</ele>
        <time>2020-02-23T11:28:27Z</time>
      </trkpt>
      <trkpt lat="39.0515920" lon="1.5908240">
        <ele>20.1</ele>
        <time>2020-02-23T11:28:28Z</time>
      </trkpt>
      <trkpt lat="39.0516180" lon="1.5909120">
        <ele>19.7</ele>
        <time>2020-02-23T11:28:29Z</time>
      </trkpt>
      <trkpt lat="39.0516460" lon="1.5909900">
        <ele>19.5</ele>
        <time>2020-02-23T11:28:30Z</time>
      </trkpt>
      <trkpt lat="39.0516680" lon="1.5910660">
        <ele>19.2</ele>
        <time>2020-02-23T11:28:31Z</time>
      </trkpt>
      <trkpt lat="39.0517100" lon="1.5911220">
        <ele>18.8</ele>
        <time>2020-02-23T11:28:32Z</time>
      </trkpt>
      <trkpt lat="39.0517630" lon="1.5911310">
        <ele>18.4</ele>
        <time>2020-02-23T11:28:33Z</time>
      </trkpt>
      <trkpt lat="39.0518140" lon="1.5911150">
        <ele>17.8</ele>
        <time>2020-02-23T11:28:34Z</time>
      </trkpt>
      <trkpt lat="39.0518650" lon="1.5910940">
        <ele>17.2</ele>
        <time>2020-02-23T11:28:35Z</time>
      </trkpt>
      <trkpt lat="39.0519130" lon="1.5910710">
        <ele>16.6</ele>
        <time>2020-02-23T11:28:36Z</time>
      </trkpt>
      <trkpt lat="39.0519590" lon="1.5910510">
        <ele>15.7</ele>
        <time>2020-02-23T11:28:37Z</time>
      </trkpt>
      <trkpt lat="39.0520060" lon="1.5910320">
        <ele>14.9</ele>
        <time>2020-02-23T11:28:38Z</time>
      </trkpt>
      <trkpt lat="39.0520550" lon="1.5910120">
        <ele>14.0</ele>
        <time>2020-02-23T11:28:39Z</time>
      </trkpt>
      <trkpt lat="39.0521080" lon="1.5909990">
        <ele>13.0</ele>
        <time>2020-02-23T11:28:40Z</time>
      </trkpt>
      <trkpt lat="39.0521540" lon="1.5909910">
        <ele>10.6</ele>
        <time>2020-02-23T11:28:41Z</time>
      </trkpt>
      <trkpt lat="39.0521900" lon="1.5910110">
        <ele>10.4</ele>
        <time>2020-02-23T11:28:42Z</time>
      </trkpt>
      <trkpt lat="39.0522200" lon="1.5910610">
        <ele>10.1</ele>
        <time>2020-02-23T11:28:43Z</time>
      </trkpt>
      <trkpt lat="39.0522400" lon="1.5911210">
        <ele>9.9</ele>
        <time>2020-02-23T11:28:44Z</time>
      </trkpt>
      <trkpt lat="39.0522540" lon="1.5911820">
        <ele>9.7</ele>
        <time>2020-02-23T11:28:45Z</time>
      </trkpt>
      <trkpt lat="39.0522710" lon="1.5912460">
        <ele>9.5</ele>
        <time>2020-02-23T11:28:46Z</time>
      </trkpt>
      <trkpt lat="39.0522860" lon="1.5913170">
        <ele>9.2</ele>
        <time>2020-02-23T11:28:47Z</time>
      </trkpt>
      <trkpt lat="39.0523020" lon="1.5913890">
        <ele>8.9</ele>
        <time>2020-02-23T11:28:48Z</time>
      </trkpt>
      <trkpt lat="39.0523200" lon="1.5914640">
        <ele>8.6</ele>
        <time>2020-02-23T11:28:49Z</time>
      </trkpt>
      <trkpt lat="39.0523410" lon="1.5915430">
        <ele>8.2</ele>
        <time>2020-02-23T11:28:50Z</time>
      </trkpt>
      <trkpt lat="39.0523610" lon="1.5916190">
        <ele>7.8</ele>
        <time>2020-02-23T11:28:51Z</time>
      </trkpt>
      <trkpt lat="39.0523780" lon="1.5916920">
        <ele>7.5</ele>
        <time>2020-02-23T11:28:52Z</time>
      </trkpt>
      <trkpt lat="39.0524000" lon="1.5917650">
        <ele>7.1</ele>
        <time>2020-02-23T11:28:53Z</time>
      </trkpt>
      <trkpt lat="39.0524190" lon="1.5918380">
        <ele>6.8</ele>
        <time>2020-02-23T11:28:54Z</time>
      </trkpt>
      <trkpt lat="39.0524370" lon="1.5919150">
        <ele>6.6</ele>
        <time>2020-02-23T11:28:55Z</time>
      </trkpt>
      <trkpt lat="39.0524590" lon="1.5919940">
        <ele>6.5</ele>
        <time>2020-02-23T11:28:56Z</time>
      </trkpt>
      <trkpt lat="39.0524760" lon="1.5920810">
        <ele>6.6</ele>
        <time>2020-02-23T11:28:57Z</time>
      </trkpt>
      <trkpt lat="39.0525010" lon="1.5921610">
        <ele>6.9</ele>
        <time>2020-02-23T11:28:58Z</time>
      </trkpt>
      <trkpt lat="39.0525240" lon="1.5922370">
        <ele>7.5</ele>
        <time>2020-02-23T11:28:59Z</time>
      </trkpt>
      <trkpt lat="39.0525470" lon="1.5923090">
        <ele>8.3</ele>
        <time>2020-02-23T11:29:00Z</time>
      </trkpt>
      <trkpt lat="39.0525650" lon="1.5923860">
        <ele>9.3</ele>
        <time>2020-02-23T11:29:01Z</time>
      </trkpt>
      <trkpt lat="39.0525830" lon="1.5924610">
        <ele>10.2</ele>
        <time>2020-02-23T11:29:02Z</time>
      </trkpt>
      <trkpt lat="39.0526030" lon="1.5925260">
        <ele>12.0</ele>
        <time>2020-02-23T11:29:03Z</time>
      </trkpt>
      <trkpt lat="39.0526210" lon="1.5925840">
        <ele>11.8</ele>
        <time>2020-02-23T11:29:04Z</time>
      </trkpt>
      <trkpt lat="39.0526430" lon="1.5926300">
        <ele>11.5</ele>
        <time>2020-02-23T11:29:05Z</time>
      </trkpt>
      <trkpt lat="39.0526590" lon="1.5926590">
        <ele>11.4</ele>
        <time>2020-02-23T11:29:06Z</time>
      </trkpt>
      <trkpt lat="39.0526830" lon="1.5926950">
        <ele>11.2</ele>
        <time>2020-02-23T11:29:07Z</time>
      </trkpt>
      <trkpt lat="39.0526910" lon="1.5927090">
        <ele>11.2</ele>
        <time>2020-02-23T11:29:08Z</time>
      </trkpt>
      <trkpt lat="39.0527080" lon="1.5927410">
        <ele>11.0</ele>
        <time>2020-02-23T11:29:09Z</time>
      </trkpt>
      <trkpt lat="39.0527180" lon="1.5927840">
        <ele>10.8</ele>
        <time>2020-02-23T11:29:10Z</time>
      </trkpt>
      <trkpt lat="39.0527210" lon="1.5927950">
        <ele>10.7</ele>
        <time>2020-02-23T11:29:11Z</time>
      </trkpt>
      <trkpt lat="39.0527260" lon="1.5928140">
        <ele>10.6</ele>
        <time>2020-02-23T11:29:12Z</time>
      </trkpt>
      <trkpt lat="39.0527340" lon="1.5928230">
        <ele>10.5</ele>
        <time>2020-02-23T11:29:13Z</time>
      </trkpt>
      <trkpt lat="39.0527400" lon="1.5928340">
        <ele>10.4</ele>
        <time>2020-02-23T11:29:14Z</time>
      </trkpt>
      <trkpt lat="39.0527450" lon="1.5928680">
        <ele>10.2</ele>
        <time>2020-02-23T11:29:15Z</time>
      </trkpt>
      <trkpt lat="39.0527480" lon="1.5928820">
        <ele>10.1</ele>
        <time>2020-02-23T11:29:16Z</time>
      </trkpt>
      <trkpt lat="39.0527510" lon="1.5929180">
        <ele>9.9</ele>
        <time>2020-02-23T11:29:17Z</time>
      </trkpt>
      <trkpt lat="39.0527490" lon="1.5929590">
        <ele>9.7</ele>
        <time>2020-02-23T11:29:18Z</time>
      </trkpt>
      <trkpt lat="39.0527470" lon="1.5929990">
        <ele>9.4</ele>
        <time>2020-02-23T11:29:19Z</time>
      </trkpt>
      <trkpt lat="39.0527520" lon="1.5930380">
        <ele>9.2</ele>
        <time>2020-02-23T11:29:20Z</time>
      </trkpt>
      <trkpt lat="39.0527600" lon="1.5930790">
        <ele>9.0</ele>
        <time>2020-02-23T11:29:21Z</time>
      </trkpt>
      <trkpt lat="39.0527700" lon="1.5931170">
        <ele>8.8</ele>
        <time>2020-02-23T11:29:22Z</time>
      </trkpt>
      <trkpt lat="39.0527770" lon="1.5931580">
        <ele>8.6</ele>
        <time>2020-02-23T11:29:23Z</time>
      </trkpt>
      <trkpt lat="39.0527910" lon="1.5931940">
        <ele>8.4</ele>
        <time>2020-02-23T11:29:24Z</time>
      </trkpt>
      <trkpt lat="39.0528100" lon="1.5932320">
        <ele>8.1</ele>
        <time>2020-02-23T11:29:25Z</time>
      </trkpt>
      <trkpt lat="39.0528310" lon="1.5932660">
        <ele>7.8</ele>
        <time>2020-02-23T11:29:26Z</time>
      </trkpt>
      <trkpt lat="39.0528520" lon="1.5932990">
        <ele>7.5</ele>
        <time>2020-02-23T11:29:27Z</time>
      </trkpt>
      <trkpt lat="39.0528640" lon="1.5933380">
        <ele>7.3</ele>
        <time>2020-02-23T11:29:28Z</time>
      </trkpt>
      <trkpt lat="39.0528810" lon="1.5933590">
        <ele>7.1</ele>
        <time>2020-02-23T11:29:29Z</time>
      </trkpt>
      <trkpt lat="39.0528880" lon="1.5933710">
        <ele>7.0</ele>
        <time>2020-02-23T11:29:30Z</time>
      </trkpt>
      <trkpt lat="39.0528950" lon="1.5933780">
        <ele>6.9</ele>
        <time>2020-02-23T11:29:31Z</time>
      </trkpt>
      <trkpt lat="39.0529120" lon="1.5933940">
        <ele>6.7</ele>
        <time>2020-02-23T11:29:32Z</time>
      </trkpt>
      <trkpt lat="39.0529530" lon="1.5934100">
        <ele>6.4</ele>
        <time>2020-02-23T11:29:33Z</time>
      </trkpt>
      <trkpt lat="39.0529680" lon="1.5934190">
        <ele>6.3</ele>
        <time>2020-02-23T11:29:34Z</time>
      </trkpt>
      <trkpt lat="39.0529950" lon="1.5934480">
        <ele>6.1</ele>
        <time>2020-02-23T11:29:35Z</time>
      </trkpt>
      <trkpt lat="39.0530180" lon="1.5934700">
        <ele>5.9</ele>
        <time>2020-02-23T11:29:36Z</time>
      </trkpt>
      <trkpt lat="39.0530350" lon="1.5934810">
        <ele>5.8</ele>
        <time>2020-02-23T11:29:37Z</time>
      </trkpt>
      <trkpt lat="39.0530500" lon="1.5934880">
        <ele>5.7</ele>
        <time>2020-02-23T11:29:38Z</time>
      </trkpt>
      <trkpt lat="39.0530530" lon="1.5934970">
        <ele>5.6</ele>
        <time>2020-02-23T11:29:39Z</time>
      </trkpt>
      <trkpt lat="39.0530560" lon="1.5934950">
        <ele>5.6</ele>
        <time>2020-02-23T11:29:40Z</time>
      </trkpt>
      <trkpt lat="39.0530620" lon="1.5934870">
        <ele>5.5</ele>
        <time>2020-02-23T11:29:41Z</time>
      </trkpt>
      <trkpt lat="39.0530700" lon="1.5934860">
        <ele>5.4</ele>
        <time>2020-02-23T11:29:42Z</time>
      </trkpt>
      <trkpt lat="39.0530800" lon="1.5934760">
        <ele>5.3</ele>
        <time>2020-02-23T11:29:43Z</time>
      </trkpt>
      <trkpt lat="39.0530990" lon="1.5934680">
        <ele>5.2</ele>
        <time>2020-02-23T11:29:44Z</time>
      </trkpt>
      <trkpt lat="39.0531070" lon="1.5934660">
        <ele>5.1</ele>
        <time>2020-02-23T11:29:45Z</time>
      </trkpt>
      <trkpt lat="39.0531150" lon="1.5934630">
        <ele>5.0</ele>
        <time>2020-02-23T11:29:46Z</time>
      </trkpt>
      <trkpt lat="39.0531260" lon="1.5934600">
        <ele>4.9</ele>
        <time>2020-02-23T11:29:47Z</time>
      </trkpt>
      <trkpt lat="39.0531360" lon="1.5934520">
        <ele>4.9</ele>
        <time>2020-02-23T11:29:48Z</time>
      </trkpt>
      <trkpt lat="39.0531460" lon="1.5934490">
        <ele>4.8</ele>
        <time>2020-02-23T11:29:49Z</time>
      </trkpt>
      <trkpt lat="39.0531610" lon="1.5934320">
        <ele>4.6</ele>
        <time>2020-02-23T11:29:50Z</time>
      </trkpt>
      <trkpt lat="39.0531670" lon="1.5934240">
        <ele>4.6</ele>
        <time>2020-02-23T11:29:51Z</time>
      </trkpt>
      <trkpt lat="39.0531720" lon="1.5934160">
        <ele>4.5</ele>
        <time>2020-02-23T11:29:52Z</time>
      </trkpt>
      <trkpt lat="39.0531810" lon="1.5934110">
        <ele>4.4</ele>
        <time>2020-02-23T11:29:53Z</time>
      </trkpt>
      <trkpt lat="39.0531880" lon="1.5934010">
        <ele>4.3</ele>
        <time>2020-02-23T11:29:54Z</time>
      </trkpt>
      <trkpt lat="39.0531950" lon="1.5933880">
        <ele>4.3</ele>
        <time>2020-02-23T11:29:55Z</time>
      </trkpt>
      <trkpt lat="39.0532030" lon="1.5933830">
        <ele>4.2</ele>
        <time>2020-02-23T11:29:56Z</time>
      </trkpt>
      <trkpt lat="39.0532120" lon="1.5933770">
        <ele>4.1</ele>
        <time>2020-02-23T11:29:57Z</time>
      </trkpt>
      <trkpt lat="39.0532220" lon="1.5933670">
        <ele>4.0</ele>
        <time>2020-02-23T11:29:58Z</time>
      </trkpt>
      <trkpt lat="39.0532280" lon="1.5933610">
        <ele>4.0</ele>
        <time>2020-02-23T11:29:59Z</time>
      </trkpt>
      <trkpt lat="39.0532340" lon="1.5933630">
        <ele>3.9</ele>
        <time>2020-02-23T11:30:00Z</time>
      </trkpt>
      <trkpt lat="39.0532360" lon="1.5933630">
        <ele>3.9</ele>
        <time>2020-02-23T11:30:01Z</time>
      </trkpt>
      <trkpt lat="39.0532430" lon="1.5933680">
        <ele>3.9</ele>
        <time>2020-02-23T11:30:02Z</time>
      </trkpt>
      <trkpt lat="39.0532540" lon="1.5933700">
        <ele>3.8</ele>
        <time>2020-02-23T11:30:03Z</time>
      </trkpt>
      <trkpt lat="39.0532660" lon="1.5933610">
        <ele>3.7</ele>
        <time>2020-02-23T11:30:04Z</time>
      </trkpt>
      <trkpt lat="39.0532730" lon="1.5933440">
        <ele>3.6</ele>
        <time>2020-02-23T11:30:05Z</time>
      </trkpt>
      <trkpt lat="39.0532820" lon="1.5933400">
        <ele>3.5</ele>
        <time>2020-02-23T11:30:06Z</time>
      </trkpt>
      <trkpt lat="39.0532910" lon="1.5933380">
        <ele>3.4</ele>
        <time>2020-02-23T11:30:07Z</time>
      </trkpt>
      <trkpt lat="39.0533050" lon="1.5933390">
        <ele>3.3</ele>
        <time>2020-02-23T11:30:08Z</time>
      </trkpt>
      <trkpt lat="39.0533140" lon="1.5933360">
        <ele>3.3</ele>
        <time>2020-02-23T11:30:09Z</time>
      </trkpt>
      <trkpt lat="39.0533240" lon="1.5933310">
        <ele>3.2</ele>
        <time>2020-02-23T11:30:10Z</time>
      </trkpt>
      <trkpt lat="39.0533340" lon="1.5933230">
        <ele>3.0</ele>
        <time>2020-02-23T11:30:11Z</time>
      </trkpt>
      <trkpt lat="39.0533440" lon="1.5933190">
        <ele>2.9</ele>
        <time>2020-02-23T11:30:12Z</time>
      </trkpt>
      <trkpt lat="39.0533490" lon="1.5933230">
        <ele>2.9</ele>
        <time>2020-02-23T11:30:13Z</time>
      </trkpt>
      <trkpt lat="39.0533510" lon="1.5933300">
        <ele>2.8</ele>
        <time>2020-02-23T11:30:14Z</time>
      </trkpt>
      <trkpt lat="39.0533520" lon="1.5933240">
        <ele>2.8</ele>
        <time>2020-02-23T11:30:15Z</time>
      </trkpt>
      <trkpt lat="39.0533540" lon="1.5933120">
        <ele>2.7</ele>
        <time>2020-02-23T11:30:16Z</time>
      </trkpt>
      <trkpt lat="39.0533560" lon="1.5933100">
        <ele>2.7</ele>
        <time>2020-02-23T11:30:17Z</time>
      </trkpt>
      <trkpt lat="39.0533570" lon="1.5933070">
        <ele>2.7</ele>
        <time>2020-02-23T11:30:18Z</time>
      </trkpt>
      <trkpt lat="39.0533620" lon="1.5933010">
        <ele>2.6</ele>
        <time>2020-02-23T11:30:19Z</time>
      </trkpt>
      <trkpt lat="39.0533670" lon="1.5932850">
        <ele>2.6</ele>
        <time>2020-02-23T11:30:20Z</time>
      </trkpt>
      <trkpt lat="39.0533750" lon="1.5932720">
        <ele>2.5</ele>
        <time>2020-02-23T11:30:21Z</time>
      </trkpt>
      <trkpt lat="39.0533750" lon="1.5932580">
        <ele>2.4</ele>
        <time>2020-02-23T11:30:22Z</time>
      </trkpt>
      <trkpt lat="39.0533750" lon="1.5932330">
        <ele>2.3</ele>
        <time>2020-02-23T11:30:23Z</time>
      </trkpt>
      <trkpt lat="39.0533750" lon="1.5932220">
        <ele>2.2</ele>
        <time>2020-02-23T11:30:24Z</time>
      </trkpt>
      <trkpt lat="39.0533760" lon="1.5932100">
        <ele>2.2</ele>
        <time>2020-02-23T11:30:25Z</time>
      </trkpt>
      <trkpt lat="39.0533790" lon="1.5931950">
        <ele>2.1</ele>
        <time>2020-02-23T11:30:26Z</time>
      </trkpt>
      <trkpt lat="39.0533770" lon="1.5931830">
        <ele>2.0</ele>
        <time>2020-02-23T11:30:27Z</time>
      </trkpt>
      <trkpt lat="39.0533730" lon="1.5931730">
        <ele>2.0</ele>
        <time>2020-02-23T11:30:28Z</time>
      </trkpt>
      <trkpt lat="39.0533760" lon="1.5931570">
        <ele>2.0</ele>
        <time>2020-02-23T11:30:29Z</time>
      </trkpt>
      <trkpt lat="39.0533790" lon="1.5931450">
        <ele>1.9</ele>
        <time>2020-02-23T11:30:30Z</time>
      </trkpt>
      <trkpt lat="39.0533790" lon="1.5931350">
        <ele>1.9</ele>
        <time>2020-02-23T11:30:31Z</time>
      </trkpt>
      <trkpt lat="39.0533760" lon="1.5931230">
        <ele>1.9</ele>
        <time>2020-02-23T11:30:32Z</time>
      </trkpt>
      <trkpt lat="39.0533830" lon="1.5931110">
        <ele>1.8</ele>
        <time>2020-02-23T11:30:33Z</time>
      </trkpt>
      <trkpt lat="39.0533650" lon="1.5931090">
        <ele>1.8</ele>
        <time>2020-02-23T11:30:34Z</time>
      </trkpt>
      <trkpt lat="39.0533510" lon="1.5931060">
        <ele>1.7</ele>
        <time>2020-02-23T11:30:35Z</time>
      </trkpt>
      <trkpt lat="39.0533400" lon="1.5930970">
        <ele>1.7</ele>
        <time>2020-02-23T11:30:36Z</time>
      </trkpt>
      <trkpt lat="39.0533420" lon="1.5930810">
        <ele>1.6</ele>
        <time>2020-02-23T11:30:37Z</time>
      </trkpt>
      <trkpt lat="39.0533450" lon="1.5930670">
        <ele>1.6</ele>
        <time>2020-02-23T11:30:38Z</time>
      </trkpt>
      <trkpt lat="39.0533420" lon="1.5930520">
        <ele>1.6</ele>
        <time>2020-02-23T11:30:39Z</time>
      </trkpt>
      <trkpt lat="39.0533440" lon="1.5930370">
        <ele>1.5</ele>
        <time>2020-02-23T11:30:40Z</time>
      </trkpt>
      <trkpt lat="39.0533380" lon="1.5930220">
        <ele>1.5</ele>
        <time>2020-02-23T11:30:41Z</time>
      </trkpt>
      <trkpt lat="39.0533330" lon="1.5929970">
        <ele>1.4</ele>
        <time>2020-02-23T11:30:42Z</time>
      </trkpt>
      <trkpt lat="39.0533280" lon="1.5929850">
        <ele>1.4</ele>
        <time>2020-02-23T11:30:43Z</time>
      </trkpt>
      <trkpt lat="39.0533230" lon="1.5929740">
        <ele>1.4</ele>
        <time>2020-02-23T11:30:44Z</time>
      </trkpt>
      <trkpt lat="39.0533250" lon="1.5929550">
        <ele>1.4</ele>
        <time>2020-02-23T11:30:45Z</time>
      </trkpt>
      <trkpt lat="39.0533200" lon="1.5929450">
        <ele>1.3</ele>
        <time>2020-02-23T11:30:46Z</time>
      </trkpt>
      <trkpt lat="39.0533080" lon="1.5929350">
        <ele>1.3</ele>
        <time>2020-02-23T11:30:47Z</time>
      </trkpt>
      <trkpt lat="39.0533060" lon="1.5929180">
        <ele>1.3</ele>
        <time>2020-02-23T11:30:48Z</time>
      </trkpt>
      <trkpt lat="39.0533030" lon="1.5929060">
        <ele>1.3</ele>
        <time>2020-02-23T11:30:49Z</time>
      </trkpt>
      <trkpt lat="39.0533000" lon="1.5928950">
        <ele>1.3</ele>
        <time>2020-02-23T11:30:50Z</time>
      </trkpt>
      <trkpt lat="39.0532960" lon="1.5928840">
        <ele>1.3</ele>
        <time>2020-02-23T11:30:51Z</time>
      </trkpt>
      <trkpt lat="39.0533020" lon="1.5928710">
        <ele>1.2</ele>
        <time>2020-02-23T11:30:52Z</time>
      </trkpt>
      <trkpt lat="39.0533080" lon="1.5928600">
        <ele>1.2</ele>
        <time>2020-02-23T11:30:53Z</time>
      </trkpt>
      <trkpt lat="39.0533100" lon="1.5928460">
        <ele>1.3</ele>
        <time>2020-02-23T11:30:54Z</time>
      </trkpt>
      <trkpt lat="39.0533200" lon="1.5928480">
        <ele>1.3</ele>
        <time>2020-02-23T11:30:55Z</time>
      </trkpt>
      <trkpt lat="39.0533320" lon="1.5928420">
        <ele>1.3</ele>
        <time>2020-02-23T11:30:56Z</time>
      </trkpt>
      <trkpt lat="39.0533410" lon="1.5928460">
        <ele>1.3</ele>
        <time>2020-02-23T11:30:57Z</time>
      </trkpt>
      <trkpt lat="39.0533480" lon="1.5928500">
        <ele>1.4</ele>
        <time>2020-02-23T11:30:58Z</time>
      </trkpt>
      <trkpt lat="39.0533600" lon="1.5928490">
        <ele>1.4</ele>
        <time>2020-02-23T11:30:59Z</time>
      </trkpt>
      <trkpt lat="39.0533650" lon="1.5928560">
        <ele>1.4</ele>
        <time>2020-02-23T11:31:00Z</time>
      </trkpt>
      <trkpt lat="39.0533670" lon="1.5928640">
        <ele>1.5</ele>
        <time>2020-02-23T11:31:01Z</time>
      </trkpt>
      <trkpt lat="39.0533670" lon="1.5928710">
        <ele>1.5</ele>
        <time>2020-02-23T11:31:02Z</time>
      </trkpt>
      <trkpt lat="39.0533630" lon="1.5928860">
        <ele>1.6</ele>
        <time>2020-02-23T11:31:03Z</time>
      </trkpt>
      <trkpt lat="39.0533730" lon="1.5928900">
        <ele>1.6</ele>
        <time>2020-02-23T11:31:04Z</time>
      </trkpt>
      <trkpt lat="39.0533840" lon="1.5928960">
        <ele>1.7</ele>
        <time>2020-02-23T11:31:05Z</time>
      </trkpt>
      <trkpt lat="39.0533910" lon="1.5929070">
        <ele>1.7</ele>
        <time>2020-02-23T11:31:06Z</time>
      </trkpt>
      <trkpt lat="39.0533970" lon="1.5929160">
        <ele>1.8</ele>
        <time>2020-02-23T11:31:07Z</time>
      </trkpt>
      <trkpt lat="39.0534120" lon="1.5929130">
        <ele>1.8</ele>
        <time>2020-02-23T11:31:08Z</time>
      </trkpt>
      <trkpt lat="39.0534250" lon="1.5929150">
        <ele>1.9</ele>
        <time>2020-02-23T11:31:09Z</time>
      </trkpt>
      <trkpt lat="39.0534300" lon="1.5929290">
        <ele>2.0</ele>
        <time>2020-02-23T11:31:10Z</time>
      </trkpt>
      <trkpt lat="39.0534360" lon="1.5929380">
        <ele>2.1</ele>
        <time>2020-02-23T11:31:11Z</time>
      </trkpt>
      <trkpt lat="39.0534430" lon="1.5929490">
        <ele>2.1</ele>
        <time>2020-02-23T11:31:12Z</time>
      </trkpt>
      <trkpt lat="39.0534580" lon="1.5929580">
        <ele>2.3</ele>
        <time>2020-02-23T11:31:13Z</time>
      </trkpt>
      <trkpt lat="39.0534750" lon="1.5929720">
        <ele>2.4</ele>
        <time>2020-02-23T11:31:14Z</time>
      </trkpt>
      <trkpt lat="39.0534900" lon="1.5929830">
        <ele>2.6</ele>
        <time>2020-02-23T11:31:15Z</time>
      </trkpt>
      <trkpt lat="39.0535070" lon="1.5929880">
        <ele>2.7</ele>
        <time>2020-02-23T11:31:16Z</time>
      </trkpt>
      <trkpt lat="39.0535380" lon="1.5929960">
        <ele>3.0</ele>
        <time>2020-02-23T11:31:17Z</time>
      </trkpt>
      <trkpt lat="39.0535480" lon="1.5929990">
        <ele>3.0</ele>
        <time>2020-02-23T11:31:18Z</time>
      </trkpt>
      <trkpt lat="39.0535760" lon="1.5930010">
        <ele>3.2</ele>
        <time>2020-02-23T11:31:19Z</time>
      </trkpt>
      <trkpt lat="39.0535860" lon="1.5930040">
        <ele>3.3</ele>
        <time>2020-02-23T11:31:20Z</time>
      </trkpt>
      <trkpt lat="39.0536180" lon="1.5930130">
        <ele>3.5</ele>
        <time>2020-02-23T11:31:21Z</time>
      </trkpt>
      <trkpt lat="39.0536290" lon="1.5930150">
        <ele>3.6</ele>
        <time>2020-02-23T11:31:22Z</time>
      </trkpt>
      <trkpt lat="39.0536610" lon="1.5930210">
        <ele>3.8</ele>
        <time>2020-02-23T11:31:23Z</time>
      </trkpt>
      <trkpt lat="39.0536700" lon="1.5930220">
        <ele>3.8</ele>
        <time>2020-02-23T11:31:24Z</time>
      </trkpt>
      <trkpt lat="39.0537070" lon="1.5930110">
        <ele>4.1</ele>
        <time>2020-02-23T11:31:25Z</time>
      </trkpt>
      <trkpt lat="39.0537180" lon="1.5930070">
        <ele>4.1</ele>
        <time>2020-02-23T11:31:26Z</time>
      </trkpt>
      <trkpt lat="39.0537480" lon="1.5929970">
        <ele>4.2</ele>
        <time>2020-02-23T11:31:27Z</time>
      </trkpt>
      <trkpt lat="39.0537560" lon="1.5929930">
        <ele>4.3</ele>
        <time>2020-02-23T11:31:28Z</time>
      </trkpt>
      <trkpt lat="39.0537870" lon="1.5929760">
        <ele>4.4</ele>
        <time>2020-02-23T11:31:29Z</time>
      </trkpt>
      <trkpt lat="39.0537980" lon="1.5929690">
        <ele>4.5</ele>
        <time>2020-02-23T11:31:30Z</time>
      </trkpt>
      <trkpt lat="39.0538320" lon="1.5929520">
        <ele>4.6</ele>
        <time>2020-02-23T11:31:31Z</time>
      </trkpt>
      <trkpt lat="39.0538420" lon="1.5929470">
        <ele>4.7</ele>
        <time>2020-02-23T11:31:32Z</time>
      </trkpt>
      <trkpt lat="39.0538710" lon="1.5929360">
        <ele>4.8</ele>
        <time>2020-02-23T11:31:33Z</time>
      </trkpt>
      <trkpt lat="39.0538790" lon="1.5929340">
        <ele>4.8</ele>
        <time>2020-02-23T11:31:34Z</time>
      </trkpt>
      <trkpt lat="39.0539060" lon="1.5929180">
        <ele>4.8</ele>
        <time>2020-02-23T11:31:35Z</time>
      </trkpt>
      <trkpt lat="39.0539170" lon="1.5929150">
        <ele>4.9</ele>
        <time>2020-02-23T11:31:36Z</time>
      </trkpt>
      <trkpt lat="39.0539480" lon="1.5929000">
        <ele>5.0</ele>
        <time>2020-02-23T11:31:37Z</time>
      </trkpt>
      <trkpt lat="39.0539560" lon="1.5928950">
        <ele>5.0</ele>
        <time>2020-02-23T11:31:38Z</time>
      </trkpt>
      <trkpt lat="39.0539790" lon="1.5928720">
        <ele>5.1</ele>
        <time>2020-02-23T11:31:39Z</time>
      </trkpt>
      <trkpt lat="39.0539850" lon="1.5928600">
        <ele>5.1</ele>
        <time>2020-02-23T11:31:40Z</time>
      </trkpt>
      <trkpt lat="39.0540110" lon="1.5928290">
        <ele>5.2</ele>
        <time>2020-02-23T11:31:41Z</time>
      </trkpt>
      <trkpt lat="39.0540220" lon="1.5928250">
        <ele>5.2</ele>
        <time>2020-02-23T11:31:42Z</time>
      </trkpt>
      <trkpt lat="39.0540480" lon="1.5928050">
        <ele>5.3</ele>
        <time>2020-02-23T11:31:43Z</time>
      </trkpt>
      <trkpt lat="39.0540560" lon="1.5927980">
        <ele>5.3</ele>
        <time>2020-02-23T11:31:44Z</time>
      </trkpt>
      <trkpt lat="39.0540720" lon="1.5927830">
        <ele>5.4</ele>
        <time>2020-02-23T11:31:45Z</time>
      </trkpt>
      <trkpt lat="39.0540840" lon="1.5927760">
        <ele>5.4</ele>
        <time>2020-02-23T11:31:46Z</time>
      </trkpt>
      <trkpt lat="39.0541190" lon="1.5927740">
        <ele>5.5</ele>
        <time>2020-02-23T11:31:47Z</time>
      </trkpt>
      <trkpt lat="39.0541290" lon="1.5927710">
        <ele>5.5</ele>
        <time>2020-02-23T11:31:48Z</time>
      </trkpt>
      <trkpt lat="39.0541410" lon="1.5927520">
        <ele>5.5</ele>
        <time>2020-02-23T11:31:49Z</time>
      </trkpt>
      <trkpt lat="39.0541520" lon="1.5927370">
        <ele>5.6</ele>
        <time>2020-02-23T11:31:50Z</time>
      </trkpt>
      <trkpt lat="39.0541740" lon="1.5926990">
        <ele>5.6</ele>
        <time>2020-02-23T11:31:51Z</time>
      </trkpt>
      <trkpt lat="39.0541800" lon="1.5926870">
        <ele>5.7</ele>
        <time>2020-02-23T11:31:52Z</time>
      </trkpt>
      <trkpt lat="39.0541890" lon="1.5926770">
        <ele>5.7</ele>
        <time>2020-02-23T11:31:53Z</time>
      </trkpt>
      <trkpt lat="39.0542000" lon="1.5926560">
        <ele>5.7</ele>
        <time>2020-02-23T11:31:54Z</time>
      </trkpt>
      <trkpt lat="39.0542180" lon="1.5926210">
        <ele>5.8</ele>
        <time>2020-02-23T11:31:55Z</time>
      </trkpt>
      <trkpt lat="39.0542250" lon="1.5926110">
        <ele>5.8</ele>
        <time>2020-02-23T11:31:56Z</time>
      </trkpt>
      <trkpt lat="39.0542480" lon="1.5925800">
        <ele>5.8</ele>
        <time>2020-02-23T11:31:57Z</time>
      </trkpt>
      <trkpt lat="39.0542540" lon="1.5925690">
        <ele>5.8</ele>
        <time>2020-02-23T11:31:58Z</time>
      </trkpt>
      <trkpt lat="39.0542650" lon="1.5925560">
        <ele>5.8</ele>
        <time>2020-02-23T11:31:59Z</time>
      </trkpt>
      <trkpt lat="39.0542770" lon="1.5925380">
        <ele>5.8</ele>
        <time>2020-02-23T11:32:00Z</time>
      </trkpt>
      <trkpt lat="39.0542890" lon="1.5925220">
        <ele>5.8</ele>
        <time>2020-02-23T11:32:01Z</time>
      </trkpt>
      <trkpt lat="39.0542980" lon="1.5925020">
        <ele>5.8</ele>
        <time>2020-02-23T11:32:02Z</time>
      </trkpt>
      <trkpt lat="39.0543160" lon="1.5924680">
        <ele>5.7</ele>
        <time>2020-02-23T11:32:03Z</time>
      </trkpt>
      <trkpt lat="39.0543220" lon="1.5924560">
        <ele>5.7</ele>
        <time>2020-02-23T11:32:04Z</time>
      </trkpt>
      <trkpt lat="39.0543460" lon="1.5924190">
        <ele>5.6</ele>
        <time>2020-02-23T11:32:05Z</time>
      </trkpt>
      <trkpt lat="39.0543530" lon="1.5924030">
        <ele>5.6</ele>
        <time>2020-02-23T11:32:06Z</time>
      </trkpt>
      <trkpt lat="39.0543670" lon="1.5923640">
        <ele>5.5</ele>
        <time>2020-02-23T11:32:07Z</time>
      </trkpt>
      <trkpt lat="39.0543690" lon="1.5923490">
        <ele>5.4</ele>
        <time>2020-02-23T11:32:08Z</time>
      </trkpt>
      <trkpt lat="39.0543760" lon="1.5923090">
        <ele>5.3</ele>
        <time>2020-02-23T11:32:09Z</time>
      </trkpt>
      <trkpt lat="39.0543790" lon="1.5922950">
        <ele>5.2</ele>
        <time>2020-02-23T11:32:10Z</time>
      </trkpt>
      <trkpt lat="39.0543900" lon="1.5922540">
        <ele>5.1</ele>
        <time>2020-02-23T11:32:11Z</time>
      </trkpt>
      <trkpt lat="39.0543940" lon="1.5922400">
        <ele>5.1</ele>
        <time>2020-02-23T11:32:12Z</time>
      </trkpt>
      <trkpt lat="39.0544040" lon="1.5922040">
        <ele>5.0</ele>
        <time>2020-02-23T11:32:13Z</time>
      </trkpt>
      <trkpt lat="39.0544070" lon="1.5921920">
        <ele>4.9</ele>
        <time>2020-02-23T11:32:14Z</time>
      </trkpt>
      <trkpt lat="39.0544180" lon="1.5921510">
        <ele>4.8</ele>
        <time>2020-02-23T11:32:15Z</time>
      </trkpt>
      <trkpt lat="39.0544210" lon="1.5921350">
        <ele>4.8</ele>
        <time>2020-02-23T11:32:16Z</time>
      </trkpt>
      <trkpt lat="39.0544370" lon="1.5920980">
        <ele>4.7</ele>
        <time>2020-02-23T11:32:17Z</time>
      </trkpt>
      <trkpt lat="39.0544410" lon="1.5920830">
        <ele>4.6</ele>
        <time>2020-02-23T11:32:18Z</time>
      </trkpt>
      <trkpt lat="39.0544530" lon="1.5920610">
        <ele>4.5</ele>
        <time>2020-02-23T11:32:19Z</time>
      </trkpt>
      <trkpt lat="39.0544540" lon="1.5920430">
        <ele>4.5</ele>
        <time>2020-02-23T11:32:20Z</time>
      </trkpt>
      <trkpt lat="39.0544480" lon="1.5920460">
        <ele>4.5</ele>
        <time>2020-02-23T11:32:21Z</time>
      </trkpt>
      <trkpt lat="39.0544450" lon="1.5920590">
        <ele>4.5</ele>
        <time>2020-02-23T11:32:22Z</time>
      </trkpt>
      <trkpt lat="39.0544460" lon="1.5920610">
        <ele>4.5</ele>
        <time>2020-02-23T11:32:23Z</time>
      </trkpt>
      <trkpt lat="39.0544410" lon="1.5920780">
        <ele>4.4</ele>
        <time>2020-02-23T11:32:24Z</time>
      </trkpt>
      <trkpt lat="39.0544450" lon="1.5920830">
        <ele>4.4</ele>
        <time>2020-02-23T11:32:25Z</time>
      </trkpt>
      <trkpt lat="39.0544520" lon="1.5920770">
        <ele>4.4</ele>
        <time>2020-02-23T11:32:26Z</time>
      </trkpt>
      <trkpt lat="39.0544590" lon="1.5920720">
        <ele>4.4</ele>
        <time>2020-02-23T11:32:27Z</time>
      </trkpt>
      <trkpt lat="39.0544660" lon="1.5920660">
        <ele>4.3</ele>
        <time>2020-02-23T11:32:28Z</time>
      </trkpt>
      <trkpt lat="39.0544730" lon="1.5920610">
        <ele>4.3</ele>
        <time>2020-02-23T11:32:29Z</time>
      </trkpt>
      <trkpt lat="39.0544790" lon="1.5920560">
        <ele>4.3</ele>
        <time>2020-02-23T11:32:30Z</time>
      </trkpt>
      <trkpt lat="39.0544860" lon="1.5920500">
        <ele>4.3</ele>
        <time>2020-02-23T11:32:31Z</time>
      </trkpt>
      <trkpt lat="39.0544930" lon="1.5920450">
        <ele>4.3</ele>
        <time>2020-02-23T11:32:32Z</time>
      </trkpt>
      <trkpt lat="39.0545000" lon="1.5920390">
        <ele>4.2</ele>
        <time>2020-02-23T11:35:15Z</time>
      </trkpt>
      <trkpt lat="39.0545070" lon="1.5920340">
        <ele>4.2</ele>
        <time>2020-02-23T11:35:16Z</time>
      </trkpt>
      <trkpt lat="39.0545430" lon="1.5920150">
        <ele>4.2</ele>
        <time>2020-02-23T11:35:17Z</time>
      </trkpt>
      <trkpt lat="39.0545550" lon="1.5920070">
        <ele>4.1</ele>
        <time>2020-02-23T11:35:18Z</time>
      </trkpt>
      <trkpt lat="39.0545840" lon="1.5919840">
        <ele>4.1</ele>
        <time>2020-02-23T11:35:19Z</time>
      </trkpt>
      <trkpt lat="39.0545930" lon="1.5919770">
        <ele>4.0</ele>
        <time>2020-02-23T11:35:20Z</time>
      </trkpt>
      <trkpt lat="39.0546310" lon="1.5919540">
        <ele>4.0</ele>
        <time>2020-02-23T11:35:21Z</time>
      </trkpt>
      <trkpt lat="39.0546490" lon="1.5919480">
        <ele>4.0</ele>
        <time>2020-02-23T11:35:22Z</time>
      </trkpt>
      <trkpt lat="39.0546750" lon="1.5919290">
        <ele>3.9</ele>
        <time>2020-02-23T11:35:23Z</time>
      </trkpt>
      <trkpt lat="39.0546990" lon="1.5919120">
        <ele>3.9</ele>
        <time>2020-02-23T11:35:24Z</time>
      </trkpt>
      <trkpt lat="39.0547330" lon="1.5918880">
        <ele>3.8</ele>
        <time>2020-02-23T11:35:25Z</time>
      </trkpt>
      <trkpt lat="39.0547440" lon="1.5918790">
        <ele>3.8</ele>
        <time>2020-02-23T11:35:26Z</time>
      </trkpt>
      <trkpt lat="39.0547790" lon="1.5918540">
        <ele>3.7</ele>
        <time>2020-02-23T11:35:27Z</time>
      </trkpt>
      <trkpt lat="39.0547900" lon="1.5918450">
        <ele>3.7</ele>
        <time>2020-02-23T11:35:28Z</time>
      </trkpt>
      <trkpt lat="39.0548140" lon="1.5918270">
        <ele>3.7</ele>
        <time>2020-02-23T11:35:29Z</time>
      </trkpt>
      <trkpt lat="39.0548490" lon="1.5918000">
        <ele>3.6</ele>
        <time>2020-02-23T11:35:30Z</time>
      </trkpt>
      <trkpt lat="39.0548640" lon="1.5917900">
        <ele>3.6</ele>
        <time>2020-02-23T11:35:31Z</time>
      </trkpt>
      <trkpt lat="39.0548920" lon="1.5917760">
        <ele>3.6</ele>
        <time>2020-02-23T11:35:32Z</time>
      </trkpt>
      <trkpt lat="39.0549210" lon="1.5917850">
        <ele>3.5</ele>
        <time>2020-02-23T11:35:33Z</time>
      </trkpt>
      <trkpt lat="39.0549550" lon="1.5917820">
        <ele>3.5</ele>
        <time>2020-02-23T11:35:34Z</time>
      </trkpt>
      <trkpt lat="39.0549620" lon="1.5917790">
        <ele>3.4</ele>
        <time>2020-02-23T11:35:35Z</time>
      </trkpt>
      <trkpt lat="39.0549930" lon="1.5917560">
        <ele>3.4</ele>
        <time>2020-02-23T11:35:36Z</time>
      </trkpt>
      <trkpt lat="39.0550050" lon="1.5917520">
        <ele>3.4</ele>
        <time>2020-02-23T11:35:37Z</time>
      </trkpt>
      <trkpt lat="39.0550370" lon="1.5917360">
        <ele>3.3</ele>
        <time>2020-02-23T11:35:38Z</time>
      </trkpt>
      <trkpt lat="39.0550490" lon="1.5917320">
        <ele>3.3</ele>
        <time>2020-02-23T11:35:39Z</time>
      </trkpt>
      <trkpt lat="39.0550840" lon="1.5917170">
        <ele>3.2</ele>
        <time>2020-02-23T11:35:40Z</time>
      </trkpt>
      <trkpt lat="39.0550970" lon="1.5917130">
        <ele>3.2</ele>
        <time>2020-02-23T11:35:41Z</time>
      </trkpt>
      <trkpt lat="39.0551310" lon="1.5917000">
        <ele>3.1</ele>
        <time>2020-02-23T11:35:42Z</time>
      </trkpt>
      <trkpt lat="39.0551420" lon="1.5916900">
        <ele>3.1</ele>
        <time>2020-02-23T11:35:43Z</time>
      </trkpt>
      <trkpt lat="39.0551770" lon="1.5916740">
        <ele>3.1</ele>
        <time>2020-02-23T11:35:44Z</time>
      </trkpt>
      <trkpt lat="39.0551880" lon="1.5916660">
        <ele>3.0</ele>
        <time>2020-02-23T11:35:45Z</time>
      </trkpt>
      <trkpt lat="39.0552220" lon="1.5916450">
        <ele>3.0</ele>
        <time>2020-02-23T11:35:46Z</time>
      </trkpt>
      <trkpt lat="39.0552330" lon="1.5916380">
        <ele>3.0</ele>
        <time>2020-02-23T11:35:47Z</time>
      </trkpt>
      <trkpt lat="39.0552650" lon="1.5916100">
        <ele>2.9</ele>
        <time>2020-02-23T11:35:48Z</time>
      </trkpt>
      <trkpt lat="39.0552740" lon="1.5915990">
        <ele>2.8</ele>
        <time>2020-02-23T11:35:49Z</time>
      </trkpt>
      <trkpt lat="39.0552880" lon="1.5915670">
        <ele>3.6</ele>
        <time>2020-02-23T11:35:50Z</time>
      </trkpt>
      <trkpt lat="39.0552920" lon="1.5915560">
        <ele>3.8</ele>
        <time>2020-02-23T11:35:51Z</time>
      </trkpt>
      <trkpt lat="39.0553150" lon="1.5915270">
        <ele>4.6</ele>
        <time>2020-02-23T11:35:52Z</time>
      </trkpt>
      <trkpt lat="39.0553230" lon="1.5915190">
        <ele>4.8</ele>
        <time>2020-02-23T11:35:53Z</time>
      </trkpt>
      <trkpt lat="39.0553490" lon="1.5914900">
        <ele>5.6</ele>
        <time>2020-02-23T11:35:54Z</time>
      </trkpt>
      <trkpt lat="39.0553560" lon="1.5914820">
        <ele>5.8</ele>
        <time>2020-02-23T11:35:55Z</time>
      </trkpt>
      <trkpt lat="39.0553820" lon="1.5914580">
        <ele>6.6</ele>
        <time>2020-02-23T11:35:56Z</time>
      </trkpt>
      <trkpt lat="39.0553900" lon="1.5914480">
        <ele>6.8</ele>
        <time>2020-02-23T11:35:57Z</time>
      </trkpt>
      <trkpt lat="39.0554120" lon="1.5914200">
        <ele>7.6</ele>
        <time>2020-02-23T11:35:58Z</time>
      </trkpt>
      <trkpt lat="39.0554180" lon="1.5914080">
        <ele>7.9</ele>
        <time>2020-02-23T11:35:59Z</time>
      </trkpt>
      <trkpt lat="39.0554490" lon="1.5913850">
        <ele>8.8</ele>
        <time>2020-02-23T11:36:00Z</time>
      </trkpt>
      <trkpt lat="39.0554590" lon="1.5913750">
        <ele>9.1</ele>
        <time>2020-02-23T11:36:01Z</time>
      </trkpt>
      <trkpt lat="39.0554950" lon="1.5913450">
        <ele>10.4</ele>
        <time>2020-02-23T11:36:02Z</time>
      </trkpt>
      <trkpt lat="39.0555070" lon="1.5913310">
        <ele>10.9</ele>
        <time>2020-02-23T11:36:03Z</time>
      </trkpt>
      <trkpt lat="39.0555320" lon="1.5913130">
        <ele>11.7</ele>
        <time>2020-02-23T11:36:04Z</time>
      </trkpt>
      <trkpt lat="39.0555610" lon="1.5912850">
        <ele>12.7</ele>
        <time>2020-02-23T11:36:05Z</time>
      </trkpt>
      <trkpt lat="39.0555710" lon="1.5912750">
        <ele>13.1</ele>
        <time>2020-02-23T11:36:06Z</time>
      </trkpt>
      <trkpt lat="39.0555950" lon="1.5912560">
        <ele>13.9</ele>
        <time>2020-02-23T11:36:07Z</time>
      </trkpt>
      <trkpt lat="39.0556020" lon="1.5912480">
        <ele>14.1</ele>
        <time>2020-02-23T11:36:08Z</time>
      </trkpt>
      <trkpt lat="39.0556210" lon="1.5912220">
        <ele>15.0</ele>
        <time>2020-02-23T11:36:09Z</time>
      </trkpt>
      <trkpt lat="39.0556280" lon="1.5912140">
        <ele>15.2</ele>
        <time>2020-02-23T11:36:10Z</time>
      </trkpt>
      <trkpt lat="39.0556490" lon="1.5911810">
        <ele>16.1</ele>
        <time>2020-02-23T11:36:11Z</time>
      </trkpt>
      <trkpt lat="39.0556560" lon="1.5911710">
        <ele>16.3</ele>
        <time>2020-02-23T11:36:12Z</time>
      </trkpt>
      <trkpt lat="39.0556790" lon="1.5911410">
        <ele>16.9</ele>
        <time>2020-02-23T11:36:13Z</time>
      </trkpt>
      <trkpt lat="39.0556870" lon="1.5911310">
        <ele>17.1</ele>
        <time>2020-02-23T11:36:14Z</time>
      </trkpt>
      <trkpt lat="39.0557150" lon="1.5910990">
        <ele>17.9</ele>
        <time>2020-02-23T11:36:15Z</time>
      </trkpt>
      <trkpt lat="39.0557240" lon="1.5910860">
        <ele>18.2</ele>
        <time>2020-02-23T11:36:16Z</time>
      </trkpt>
      <trkpt lat="39.0557400" lon="1.5910450">
        <ele>18.9</ele>
        <time>2020-02-23T11:36:17Z</time>
      </trkpt>
      <trkpt lat="39.0557460" lon="1.5910300">
        <ele>19.1</ele>
        <time>2020-02-23T11:36:18Z</time>
      </trkpt>
      <trkpt lat="39.0557730" lon="1.5910090">
        <ele>19.6</ele>
        <time>2020-02-23T11:36:19Z</time>
      </trkpt>
      <trkpt lat="39.0557920" lon="1.5909810">
        <ele>20.1</ele>
        <time>2020-02-23T11:36:20Z</time>
      </trkpt>
      <trkpt lat="39.0558160" lon="1.5909450">
        <ele>20.8</ele>
        <time>2020-02-23T11:36:21Z</time>
      </trkpt>
      <trkpt lat="39.0558250" lon="1.5909320">
        <ele>21.0</ele>
        <time>2020-02-23T11:36:22Z</time>
      </trkpt>
      <trkpt lat="39.0558490" lon="1.5909050">
        <ele>21.5</ele>
        <time>2020-02-23T11:36:23Z</time>
      </trkpt>
      <trkpt lat="39.0558540" lon="1.5909000">
        <ele>21.7</ele>
        <time>2020-02-23T11:36:24Z</time>
      </trkpt>
      <trkpt lat="39.0558770" lon="1.5908620">
        <ele>22.3</ele>
        <time>2020-02-23T11:36:25Z</time>
      </trkpt>
      <trkpt lat="39.0558850" lon="1.5908500">
        <ele>22.5</ele>
        <time>2020-02-23T11:36:26Z</time>
      </trkpt>
      <trkpt lat="39.0559140" lon="1.5908090">
        <ele>22.7</ele>
        <time>2020-02-23T11:36:27Z</time>
      </trkpt>
      <trkpt lat="39.0559250" lon="1.5907930">
        <ele>22.8</ele>
        <time>2020-02-23T11:36:28Z</time>
      </trkpt>
      <trkpt lat="39.0559410" lon="1.5907640">
        <ele>22.9</ele>
        <time>2020-02-23T11:36:29Z</time>
      </trkpt>
      <trkpt lat="39.0559580" lon="1.5907360">
        <ele>23.0</ele>
        <time>2020-02-23T11:36:30Z</time>
      </trkpt>
      <trkpt lat="39.0559740" lon="1.5907050">
        <ele>23.2</ele>
        <time>2020-02-23T11:36:31Z</time>
      </trkpt>
      <trkpt lat="39.0559890" lon="1.5906700">
        <ele>23.3</ele>
        <time>2020-02-23T11:36:32Z</time>
      </trkpt>
      <trkpt lat="39.0559950" lon="1.5906560">
        <ele>23.4</ele>
        <time>2020-02-23T11:36:33Z</time>
      </trkpt>
      <trkpt lat="39.0560090" lon="1.5906230">
        <ele>23.6</ele>
        <time>2020-02-23T11:36:34Z</time>
      </trkpt>
      <trkpt lat="39.0560260" lon="1.5905790">
        <ele>23.8</ele>
        <time>2020-02-23T11:36:35Z</time>
      </trkpt>
      <trkpt lat="39.0560330" lon="1.5905620">
        <ele>24.0</ele>
        <time>2020-02-23T11:36:36Z</time>
      </trkpt>
      <trkpt lat="39.0560520" lon="1.5905260">
        <ele>24.2</ele>
        <time>2020-02-23T11:36:37Z</time>
      </trkpt>
      <trkpt lat="39.0560720" lon="1.5904980">
        <ele>24.4</ele>
        <time>2020-02-23T11:36:38Z</time>
      </trkpt>
      <trkpt lat="39.0560950" lon="1.5904700">
        <ele>24.6</ele>
        <time>2020-02-23T11:36:39Z</time>
      </trkpt>
      <trkpt lat="39.0561200" lon="1.5904330">
        <ele>24.9</ele>
        <time>2020-02-23T11:36:40Z</time>
      </trkpt>
      <trkpt lat="39.0561410" lon="1.5903970">
        <ele>25.2</ele>
        <time>2020-02-23T11:36:41Z</time>
      </trkpt>
      <trkpt lat="39.0561600" lon="1.5903700">
        <ele>25.4</ele>
        <time>2020-02-23T11:36:42Z</time>
      </trkpt>
      <trkpt lat="39.0561830" lon="1.5903420">
        <ele>25.6</ele>
        <time>2020-02-23T11:36:43Z</time>
      </trkpt>
      <trkpt lat="39.0562060" lon="1.5903160">
        <ele>25.9</ele>
        <time>2020-02-23T11:36:44Z</time>
      </trkpt>
      <trkpt lat="39.0562340" lon="1.5902880">
        <ele>26.1</ele>
        <time>2020-02-23T11:36:45Z</time>
      </trkpt>
      <trkpt lat="39.0562440" lon="1.5902780">
        <ele>26.2</ele>
        <time>2020-02-23T11:36:46Z</time>
      </trkpt>
      <trkpt lat="39.0562700" lon="1.5902500">
        <ele>26.4</ele>
        <time>2020-02-23T11:36:47Z</time>
      </trkpt>
      <trkpt lat="39.0562780" lon="1.5902400">
        <ele>26.5</ele>
        <time>2020-02-23T11:36:48Z</time>
      </trkpt>
      <trkpt lat="39.0563030" lon="1.5902160">
        <ele>26.7</ele>
        <time>2020-02-23T11:36:49Z</time>
      </trkpt>
      <trkpt lat="39.0563360" lon="1.5901790">
        <ele>26.9</ele>
        <time>2020-02-23T11:36:50Z</time>
      </trkpt>
      <trkpt lat="39.0563480" lon="1.5901630">
        <ele>27.0</ele>
        <time>2020-02-23T11:36:51Z</time>
      </trkpt>
      <trkpt lat="39.0563710" lon="1.5901320">
        <ele>27.2</ele>
        <time>2020-02-23T11:36:52Z</time>
      </trkpt>
      <trkpt lat="39.0563960" lon="1.5901020">
        <ele>27.4</ele>
        <time>2020-02-23T11:36:53Z</time>
      </trkpt>
      <trkpt lat="39.0564140" lon="1.5900760">
        <ele>27.6</ele>
        <time>2020-02-23T11:36:54Z</time>
      </trkpt>
      <trkpt lat="39.0564360" lon="1.5900440">
        <ele>27.7</ele>
        <time>2020-02-23T11:36:55Z</time>
      </trkpt>
      <trkpt lat="39.0564640" lon="1.5900240">
        <ele>27.9</ele>
        <time>2020-02-23T11:36:56Z</time>
      </trkpt>
      <trkpt lat="39.0564950" lon="1.5900050">
        <ele>28.1</ele>
        <time>2020-02-23T11:36:57Z</time>
      </trkpt>
      <trkpt lat="39.0565050" lon="1.5899970">
        <ele>28.1</ele>
        <time>2020-02-23T11:36:58Z</time>
      </trkpt>
      <trkpt lat="39.0565250" lon="1.5899720">
        <ele>28.3</ele>
        <time>2020-02-23T11:36:59Z</time>
      </trkpt>
      <trkpt lat="39.0565510" lon="1.5899350">
        <ele>28.5</ele>
        <time>2020-02-23T11:37:00Z</time>
      </trkpt>
      <trkpt lat="39.0565710" lon="1.5898920">
        <ele>28.7</ele>
        <time>2020-02-23T11:37:01Z</time>
      </trkpt>
      <trkpt lat="39.0565980" lon="1.5898590">
        <ele>28.9</ele>
        <time>2020-02-23T11:37:02Z</time>
      </trkpt>
      <trkpt lat="39.0566240" lon="1.5898220">
        <ele>29.1</ele>
        <time>2020-02-23T11:37:03Z</time>
      </trkpt>
      <trkpt lat="39.0566470" lon="1.5897940">
        <ele>29.3</ele>
        <time>2020-02-23T11:37:04Z</time>
      </trkpt>
      <trkpt lat="39.0566820" lon="1.5897610">
        <ele>29.6</ele>
        <time>2020-02-23T11:37:05Z</time>
      </trkpt>
      <trkpt lat="39.0567100" lon="1.5897290">
        <ele>29.8</ele>
        <time>2020-02-23T11:37:06Z</time>
      </trkpt>
      <trkpt lat="39.0567370" lon="1.5896950">
        <ele>30.1</ele>
        <time>2020-02-23T11:37:07Z</time>
      </trkpt>
      <trkpt lat="39.0567630" lon="1.5896660">
        <ele>30.3</ele>
        <time>2020-02-23T11:37:08Z</time>
      </trkpt>
      <trkpt lat="39.0567820" lon="1.5896370">
        <ele>30.5</ele>
        <time>2020-02-23T11:37:09Z</time>
      </trkpt>
      <trkpt lat="39.0568040" lon="1.5895940">
        <ele>30.7</ele>
        <time>2020-02-23T11:37:10Z</time>
      </trkpt>
      <trkpt lat="39.0568140" lon="1.5895810">
        <ele>30.7</ele>
        <time>2020-02-23T11:37:11Z</time>
      </trkpt>
      <trkpt lat="39.0568440" lon="1.5895560">
        <ele>30.9</ele>
        <time>2020-02-23T11:37:12Z</time>
      </trkpt>
      <trkpt lat="39.0568540" lon="1.5895490">
        <ele>30.9</ele>
        <time>2020-02-23T11:37:13Z</time>
      </trkpt>
      <trkpt lat="39.0568870" lon="1.5895290">
        <ele>31.1</ele>
        <time>2020-02-23T11:37:14Z</time>
      </trkpt>
      <trkpt lat="39.0569010" lon="1.5895230">
        <ele>31.1</ele>
        <time>2020-02-23T11:37:15Z</time>
      </trkpt>
      <trkpt lat="39.0569380" lon="1.5895000">
        <ele>31.3</ele>
        <time>2020-02-23T11:37:16Z</time>
      </trkpt>
      <trkpt lat="39.0569510" lon="1.5894930">
        <ele>31.4</ele>
        <time>2020-02-23T11:37:17Z</time>
      </trkpt>
      <trkpt lat="39.0569780" lon="1.5894640">
        <ele>31.6</ele>
        <time>2020-02-23T11:37:18Z</time>
      </trkpt>
      <trkpt lat="39.0569890" lon="1.5894490">
        <ele>31.7</ele>
        <time>2020-02-23T11:37:19Z</time>
      </trkpt>
      <trkpt lat="39.0570120" lon="1.5894230">
        <ele>31.8</ele>
        <time>2020-02-23T11:37:20Z</time>
      </trkpt>
      <trkpt lat="39.0570330" lon="1.5894000">
        <ele>31.9</ele>
        <time>2020-02-23T11:37:21Z</time>
      </trkpt>
      <trkpt lat="39.0570550" lon="1.5893690">
        <ele>32.0</ele>
        <time>2020-02-23T11:37:22Z</time>
      </trkpt>
      <trkpt lat="39.0570820" lon="1.5893430">
        <ele>32.1</ele>
        <time>2020-02-23T11:37:23Z</time>
      </trkpt>
      <trkpt lat="39.0571130" lon="1.5893060">
        <ele>32.2</ele>
        <time>2020-02-23T11:37:24Z</time>
      </trkpt>
      <trkpt lat="39.0571320" lon="1.5892660">
        <ele>32.3</ele>
        <time>2020-02-23T11:37:25Z</time>
      </trkpt>
      <trkpt lat="39.0571500" lon="1.5892340">
        <ele>32.4</ele>
        <time>2020-02-23T11:37:26Z</time>
      </trkpt>
      <trkpt lat="39.0571540" lon="1.5891940">
        <ele>32.5</ele>
        <time>2020-02-23T11:37:27Z</time>
      </trkpt>
      <trkpt lat="39.0571580" lon="1.5891460">
        <ele>32.6</ele>
        <time>2020-02-23T11:37:28Z</time>
      </trkpt>
      <trkpt lat="39.0571590" lon="1.5891010">
        <ele>32.7</ele>
        <time>2020-02-23T11:37:29Z</time>
      </trkpt>
      <trkpt lat="39.0571660" lon="1.5890540">
        <ele>32.7</ele>
        <time>2020-02-23T11:37:30Z</time>
      </trkpt>
      <trkpt lat="39.0571700" lon="1.5890120">
        <ele>32.7</ele>
        <time>2020-02-23T11:37:31Z</time>
      </trkpt>
      <trkpt lat="39.0571720" lon="1.5889720">
        <ele>32.8</ele>
        <time>2020-02-23T11:37:32Z</time>
      </trkpt>
      <trkpt lat="39.0571770" lon="1.5889190">
        <ele>32.8</ele>
        <time>2020-02-23T11:37:33Z</time>
      </trkpt>
      <trkpt lat="39.0571900" lon="1.5888740">
        <ele>32.8</ele>
        <time>2020-02-23T11:37:34Z</time>
      </trkpt>
      <trkpt lat="39.0571990" lon="1.5888350">
        <ele>32.9</ele>
        <time>2020-02-23T11:37:35Z</time>
      </trkpt>
      <trkpt lat="39.0572070" lon="1.5887900">
        <ele>32.9</ele>
        <time>2020-02-23T11:37:36Z</time>
      </trkpt>
      <trkpt lat="39.0572100" lon="1.5887410">
        <ele>33.0</ele>
        <time>2020-02-23T11:37:37Z</time>
      </trkpt>
      <trkpt lat="39.0572190" lon="1.5886940">
        <ele>33.0</ele>
        <time>2020-02-23T11:37:38Z</time>
      </trkpt>
      <trkpt lat="39.0572160" lon="1.5886520">
        <ele>33.7</ele>
        <time>2020-02-23T11:37:39Z</time>
      </trkpt>
      <trkpt lat="39.0572220" lon="1.5886050">
        <ele>34.1</ele>
        <time>2020-02-23T11:37:40Z</time>
      </trkpt>
      <trkpt lat="39.0572300" lon="1.5885510">
        <ele>34.5</ele>
        <time>2020-02-23T11:37:41Z</time>
      </trkpt>
      <trkpt lat="39.0572340" lon="1.5885010">
        <ele>34.8</ele>
        <time>2020-02-23T11:37:42Z</time>
      </trkpt>
      <trkpt lat="39.0572380" lon="1.5884490">
        <ele>35.1</ele>
        <time>2020-02-23T11:37:43Z</time>
      </trkpt>
      <trkpt lat="39.0572400" lon="1.5884040">
        <ele>35.4</ele>
        <time>2020-02-23T11:37:44Z</time>
      </trkpt>
      <trkpt lat="39.0572460" lon="1.5883560">
        <ele>35.6</ele>
        <time>2020-02-23T11:37:45Z</time>
      </trkpt>
      <trkpt lat="39.0572470" lon="1.5883140">
        <ele>35.8</ele>
        <time>2020-02-23T11:37:46Z</time>
      </trkpt>
      <trkpt lat="39.0572570" lon="1.5882680">
        <ele>36.0</ele>
        <time>2020-02-23T11:37:47Z</time>
      </trkpt>
      <trkpt lat="39.0572580" lon="1.5882540">
        <ele>36.1</ele>
        <time>2020-02-23T11:37:48Z</time>
      </trkpt>
      <trkpt lat="39.0572660" lon="1.5882060">
        <ele>36.4</ele>
        <time>2020-02-23T11:37:49Z</time>
      </trkpt>
      <trkpt lat="39.0572670" lon="1.5881870">
        <ele>36.5</ele>
        <time>2020-02-23T11:37:50Z</time>
      </trkpt>
      <trkpt lat="39.0572730" lon="1.5881430">
        <ele>36.8</ele>
        <time>2020-02-23T11:37:51Z</time>
      </trkpt>
      <trkpt lat="39.0572760" lon="1.5880980">
        <ele>37.0</ele>
        <time>2020-02-23T11:37:52Z</time>
      </trkpt>
      <trkpt lat="39.0572810" lon="1.5880560">
        <ele>37.2</ele>
        <time>2020-02-23T11:37:53Z</time>
      </trkpt>
      <trkpt lat="39.0572810" lon="1.5880210">
        <ele>37.3</ele>
        <time>2020-02-23T11:37:54Z</time>
      </trkpt>
      <trkpt lat="39.0572860" lon="1.5879830">
        <ele>37.4</ele>
        <time>2020-02-23T11:37:55Z</time>
      </trkpt>
      <trkpt lat="39.0572850" lon="1.5879320">
        <ele>37.5</ele>
        <time>2020-02-23T11:37:56Z</time>
      </trkpt>
      <trkpt lat="39.0572820" lon="1.5879160">
        <ele>37.6</ele>
        <time>2020-02-23T11:37:57Z</time>
      </trkpt>
      <trkpt lat="39.0572760" lon="1.5878800">
        <ele>37.7</ele>
        <time>2020-02-23T11:37:58Z</time>
      </trkpt>
      <trkpt lat="39.0572750" lon="1.5878420">
        <ele>37.8</ele>
        <time>2020-02-23T11:37:59Z</time>
      </trkpt>
      <trkpt lat="39.0572700" lon="1.5878070">
        <ele>37.9</ele>
        <time>2020-02-23T11:38:00Z</time>
      </trkpt>
      <trkpt lat="39.0572550" lon="1.5877780">
        <ele>38.1</ele>
        <time>2020-02-23T11:38:01Z</time>
      </trkpt>
      <trkpt lat="39.0572370" lon="1.5877290">
        <ele>38.3</ele>
        <time>2020-02-23T11:38:02Z</time>
      </trkpt>
      <trkpt lat="39.0572290" lon="1.5876850">
        <ele>38.4</ele>
        <time>2020-02-23T11:38:03Z</time>
      </trkpt>
      <trkpt lat="39.0572180" lon="1.5876410">
        <ele>38.5</ele>
        <time>2020-02-23T11:38:04Z</time>
      </trkpt>
      <trkpt lat="39.0572130" lon="1.5876060">
        <ele>38.6</ele>
        <time>2020-02-23T11:38:05Z</time>
      </trkpt>
      <trkpt lat="39.0571990" lon="1.5875630">
        <ele>38.7</ele>
        <time>2020-02-23T11:38:06Z</time>
      </trkpt>
      <trkpt lat="39.0571970" lon="1.5875220">
        <ele>38.8</ele>
        <time>2020-02-23T11:38:07Z</time>
      </trkpt>
      <trkpt lat="39.0572040" lon="1.5874690">
        <ele>39.0</ele>
        <time>2020-02-23T11:38:08Z</time>
      </trkpt>
      <trkpt lat="39.0572070" lon="1.5874260">
        <ele>39.1</ele>
        <time>2020-02-23T11:38:09Z</time>
      </trkpt>
      <trkpt lat="39.0572060" lon="1.5873780">
        <ele>39.3</ele>
        <time>2020-02-23T11:38:10Z</time>
      </trkpt>
      <trkpt lat="39.0572020" lon="1.5873400">
        <ele>39.4</ele>
        <time>2020-02-23T11:38:11Z</time>
      </trkpt>
      <trkpt lat="39.0572020" lon="1.5873030">
        <ele>39.5</ele>
        <time>2020-02-23T11:38:12Z</time>
      </trkpt>
      <trkpt lat="39.0571980" lon="1.5872520">
        <ele>39.8</ele>
        <time>2020-02-23T11:38:13Z</time>
      </trkpt>
      <trkpt lat="39.0571970" lon="1.5872340">
        <ele>39.8</ele>
        <time>2020-02-23T11:38:14Z</time>
      </trkpt>
      <trkpt lat="39.0572010" lon="1.5871820">
        <ele>40.1</ele>
        <time>2020-02-23T11:38:15Z</time>
      </trkpt>
      <trkpt lat="39.0572020" lon="1.5871640">
        <ele>40.1</ele>
        <time>2020-02-23T11:38:16Z</time>
      </trkpt>
      <trkpt lat="39.0572020" lon="1.5871060">
        <ele>40.4</ele>
        <time>2020-02-23T11:38:17Z</time>
      </trkpt>
      <trkpt lat="39.0572030" lon="1.5870810">
        <ele>40.5</ele>
        <time>2020-02-23T11:38:18Z</time>
      </trkpt>
      <trkpt lat="39.0572030" lon="1.5870390">
        <ele>40.6</ele>
        <time>2020-02-23T11:38:19Z</time>
      </trkpt>
      <trkpt lat="39.0572010" lon="1.5869930">
        <ele>40.8</ele>
        <time>2020-02-23T11:38:20Z</time>
      </trkpt>
      <trkpt lat="39.0571850" lon="1.5869440">
        <ele>40.9</ele>
        <time>2020-02-23T11:38:21Z</time>
      </trkpt>
      <trkpt lat="39.0571790" lon="1.5869260">
        <ele>41.0</ele>
        <time>2020-02-23T11:38:22Z</time>
      </trkpt>
      <trkpt lat="39.0571660" lon="1.5868760">
        <ele>41.1</ele>
        <time>2020-02-23T11:38:23Z</time>
      </trkpt>
      <trkpt lat="39.0571620" lon="1.5868560">
        <ele>41.2</ele>
        <time>2020-02-23T11:38:24Z</time>
      </trkpt>
      <trkpt lat="39.0571490" lon="1.5868020">
        <ele>41.3</ele>
        <time>2020-02-23T11:38:25Z</time>
      </trkpt>
      <trkpt lat="39.0571450" lon="1.5867800">
        <ele>41.3</ele>
        <time>2020-02-23T11:38:26Z</time>
      </trkpt>
      <trkpt lat="39.0571310" lon="1.5867400">
        <ele>41.4</ele>
        <time>2020-02-23T11:38:27Z</time>
      </trkpt>
      <trkpt lat="39.0571130" lon="1.5867080">
        <ele>41.5</ele>
        <time>2020-02-23T11:38:28Z</time>
      </trkpt>
      <trkpt lat="39.0570960" lon="1.5866580">
        <ele>41.6</ele>
        <time>2020-02-23T11:38:29Z</time>
      </trkpt>
      <trkpt lat="39.0570800" lon="1.5866140">
        <ele>41.7</ele>
        <time>2020-02-23T11:38:30Z</time>
      </trkpt>
      <trkpt lat="39.0570610" lon="1.5865790">
        <ele>41.8</ele>
        <time>2020-02-23T11:38:31Z</time>
      </trkpt>
      <trkpt lat="39.0570420" lon="1.5865380">
        <ele>41.9</ele>
        <time>2020-02-23T11:38:32Z</time>
      </trkpt>
      <trkpt lat="39.0570120" lon="1.5865090">
        <ele>42.0</ele>
        <time>2020-02-23T11:38:33Z</time>
      </trkpt>
      <trkpt lat="39.0569990" lon="1.5864590">
        <ele>42.1</ele>
        <time>2020-02-23T11:38:34Z</time>
      </trkpt>
      <trkpt lat="39.0569850" lon="1.5864030">
        <ele>42.1</ele>
        <time>2020-02-23T11:38:35Z</time>
      </trkpt>
      <trkpt lat="39.0569720" lon="1.5863470">
        <ele>42.2</ele>
        <time>2020-02-23T11:38:36Z</time>
      </trkpt>
      <trkpt lat="39.0569550" lon="1.5862980">
        <ele>42.2</ele>
        <time>2020-02-23T11:38:37Z</time>
      </trkpt>
      <trkpt lat="39.0569350" lon="1.5862560">
        <ele>42.3</ele>
        <time>2020-02-23T11:38:38Z</time>
      </trkpt>
      <trkpt lat="39.0569120" lon="1.5862010">
        <ele>42.4</ele>
        <time>2020-02-23T11:38:39Z</time>
      </trkpt>
      <trkpt lat="39.0568870" lon="1.5861660">
        <ele>42.5</ele>
        <time>2020-02-23T11:38:40Z</time>
      </trkpt>
      <trkpt lat="39.0568690" lon="1.5861310">
        <ele>42.6</ele>
        <time>2020-02-23T11:38:41Z</time>
      </trkpt>
      <trkpt lat="39.0568590" lon="1.5860810">
        <ele>42.7</ele>
        <time>2020-02-23T11:38:42Z</time>
      </trkpt>
      <trkpt lat="39.0568440" lon="1.5860410">
        <ele>42.8</ele>
        <time>2020-02-23T11:38:43Z</time>
      </trkpt>
      <trkpt lat="39.0568280" lon="1.5860000">
        <ele>42.9</ele>
        <time>2020-02-23T11:38:44Z</time>
      </trkpt>
      <trkpt lat="39.0568140" lon="1.5859560">
        <ele>43.0</ele>
        <time>2020-02-23T11:38:45Z</time>
      </trkpt>
      <trkpt lat="39.0568020" lon="1.5859160">
        <ele>43.1</ele>
        <time>2020-02-23T11:38:46Z</time>
      </trkpt>
      <trkpt lat="39.0567960" lon="1.5858740">
        <ele>43.2</ele>
        <time>2020-02-23T11:38:47Z</time>
      </trkpt>
      <trkpt lat="39.0567940" lon="1.5858370">
        <ele>43.4</ele>
        <time>2020-02-23T11:38:48Z</time>
      </trkpt>
      <trkpt lat="39.0568000" lon="1.5858240">
        <ele>43.4</ele>
        <time>2020-02-23T11:38:49Z</time>
      </trkpt>
      <trkpt lat="39.0568100" lon="1.5857860">
        <ele>43.6</ele>
        <time>2020-02-23T11:38:50Z</time>
      </trkpt>
      <trkpt lat="39.0568190" lon="1.5857480">
        <ele>43.7</ele>
        <time>2020-02-23T11:38:51Z</time>
      </trkpt>
      <trkpt lat="39.0568280" lon="1.5857130">
        <ele>43.8</ele>
        <time>2020-02-23T11:38:52Z</time>
      </trkpt>
      <trkpt lat="39.0568340" lon="1.5856780">
        <ele>44.0</ele>
        <time>2020-02-23T11:38:53Z</time>
      </trkpt>
      <trkpt lat="39.0568400" lon="1.5856220">
        <ele>44.2</ele>
        <time>2020-02-23T11:38:54Z</time>
      </trkpt>
      <trkpt lat="39.0568430" lon="1.5855990">
        <ele>44.3</ele>
        <time>2020-02-23T11:38:55Z</time>
      </trkpt>
      <trkpt lat="39.0568590" lon="1.5855510">
        <ele>44.5</ele>
        <time>2020-02-23T11:38:56Z</time>
      </trkpt>
      <trkpt lat="39.0568780" lon="1.5855190">
        <ele>44.6</ele>
        <time>2020-02-23T11:38:57Z</time>
      </trkpt>
      <trkpt lat="39.0568940" lon="1.5854740">
        <ele>44.7</ele>
        <time>2020-02-23T11:38:58Z</time>
      </trkpt>
      <trkpt lat="39.0569050" lon="1.5854370">
        <ele>44.8</ele>
        <time>2020-02-23T11:38:59Z</time>
      </trkpt>
      <trkpt lat="39.0569160" lon="1.5853930">
        <ele>44.9</ele>
        <time>2020-02-23T11:39:00Z</time>
      </trkpt>
      <trkpt lat="39.0569280" lon="1.5853510">
        <ele>45.1</ele>
        <time>2020-02-23T11:39:01Z</time>
      </trkpt>
      <trkpt lat="39.0569500" lon="1.5853140">
        <ele>45.3</ele>
        <time>2020-02-23T11:39:02Z</time>
      </trkpt>
      <trkpt lat="39.0569620" lon="1.5852750">
        <ele>45.4</ele>
        <time>2020-02-23T11:39:03Z</time>
      </trkpt>
      <trkpt lat="39.0569750" lon="1.5852160">
        <ele>45.6</ele>
        <time>2020-02-23T11:39:04Z</time>
      </trkpt>
      <trkpt lat="39.0569970" lon="1.5851690">
        <ele>45.8</ele>
        <time>2020-02-23T11:39:05Z</time>
      </trkpt>
      <trkpt lat="39.0570190" lon="1.5851250">
        <ele>45.9</ele>
        <time>2020-02-23T11:39:06Z</time>
      </trkpt>
      <trkpt lat="39.0570320" lon="1.5850840">
        <ele>46.1</ele>
        <time>2020-02-23T11:39:07Z</time>
      </trkpt>
      <trkpt lat="39.0570200" lon="1.5850410">
        <ele>46.2</ele>
        <time>2020-02-23T11:39:08Z</time>
      </trkpt>
      <trkpt lat="39.0570090" lon="1.5849880">
        <ele>46.3</ele>
        <time>2020-02-23T11:39:09Z</time>
      </trkpt>
      <trkpt lat="39.0569900" lon="1.5849300">
        <ele>46.5</ele>
        <time>2020-02-23T11:39:10Z</time>
      </trkpt>
      <trkpt lat="39.0569840" lon="1.5848770">
        <ele>46.7</ele>
        <time>2020-02-23T11:39:11Z</time>
      </trkpt>
      <trkpt lat="39.0569900" lon="1.5848380">
        <ele>46.8</ele>
        <time>2020-02-23T11:39:12Z</time>
      </trkpt>
      <trkpt lat="39.0569940" lon="1.5847800">
        <ele>46.9</ele>
        <time>2020-02-23T11:39:13Z</time>
      </trkpt>
      <trkpt lat="39.0569920" lon="1.5847250">
        <ele>47.1</ele>
        <time>2020-02-23T11:39:14Z</time>
      </trkpt>
      <trkpt lat="39.0569810" lon="1.5846900">
        <ele>47.3</ele>
        <time>2020-02-23T11:39:15Z</time>
      </trkpt>
      <trkpt lat="39.0569700" lon="1.5846460">
        <ele>47.4</ele>
        <time>2020-02-23T11:39:16Z</time>
      </trkpt>
      <trkpt lat="39.0569550" lon="1.5845970">
        <ele>47.5</ele>
        <time>2020-02-23T11:39:17Z</time>
      </trkpt>
      <trkpt lat="39.0569340" lon="1.5845590">
        <ele>47.5</ele>
        <time>2020-02-23T11:39:18Z</time>
      </trkpt>
      <trkpt lat="39.0569190" lon="1.5845170">
        <ele>47.5</ele>
        <time>2020-02-23T11:39:19Z</time>
      </trkpt>
      <trkpt lat="39.0569070" lon="1.5844770">
        <ele>47.6</ele>
        <time>2020-02-23T11:39:20Z</time>
      </trkpt>
      <trkpt lat="39.0568970" lon="1.5844370">
        <ele>47.6</ele>
        <time>2020-02-23T11:39:21Z</time>
      </trkpt>
      <trkpt lat="39.0568840" lon="1.5843930">
        <ele>47.6</ele>
        <time>2020-02-23T11:39:22Z</time>
      </trkpt>
      <trkpt lat="39.0568700" lon="1.5843440">
        <ele>47.7</ele>
        <time>2020-02-23T11:39:23Z</time>
      </trkpt>
      <trkpt lat="39.0568580" lon="1.5842910">
        <ele>47.7</ele>
        <time>2020-02-23T11:39:24Z</time>
      </trkpt>
      <trkpt lat="39.0568370" lon="1.5842430">
        <ele>47.7</ele>
        <time>2020-02-23T11:39:25Z</time>
      </trkpt>
      <trkpt lat="39.0568230" lon="1.5841970">
        <ele>47.7</ele>
        <time>2020-02-23T11:39:26Z</time>
      </trkpt>
      <trkpt lat="39.0568070" lon="1.5841620">
        <ele>47.8</ele>
        <time>2020-02-23T11:39:27Z</time>
      </trkpt>
      <trkpt lat="39.0567920" lon="1.5841200">
        <ele>47.8</ele>
        <time>2020-02-23T11:39:28Z</time>
      </trkpt>
      <trkpt lat="39.0567960" lon="1.5840750">
        <ele>47.8</ele>
        <time>2020-02-23T11:39:29Z</time>
      </trkpt>
      <trkpt lat="39.0567940" lon="1.5840220">
        <ele>47.9</ele>
        <time>2020-02-23T11:39:30Z</time>
      </trkpt>
      <trkpt lat="39.0567830" lon="1.5839750">
        <ele>47.9</ele>
        <time>2020-02-23T11:39:31Z</time>
      </trkpt>
      <trkpt lat="39.0567650" lon="1.5839320">
        <ele>47.9</ele>
        <time>2020-02-23T11:39:32Z</time>
      </trkpt>
      <trkpt lat="39.0567430" lon="1.5838920">
        <ele>47.9</ele>
        <time>2020-02-23T11:39:33Z</time>
      </trkpt>
      <trkpt lat="39.0567250" lon="1.5838460">
        <ele>47.9</ele>
        <time>2020-02-23T11:39:34Z</time>
      </trkpt>
      <trkpt lat="39.0567090" lon="1.5837950">
        <ele>48.0</ele>
        <time>2020-02-23T11:39:35Z</time>
      </trkpt>
      <trkpt lat="39.0566900" lon="1.5837480">
        <ele>48.0</ele>
        <time>2020-02-23T11:39:36Z</time>
      </trkpt>
      <trkpt lat="39.0566760" lon="1.5837080">
        <ele>48.0</ele>
        <time>2020-02-23T11:39:37Z</time>
      </trkpt>
      <trkpt lat="39.0566690" lon="1.5836700">
        <ele>48.0</ele>
        <time>2020-02-23T11:39:38Z</time>
      </trkpt>
      <trkpt lat="39.0566610" lon="1.5836170">
        <ele>48.0</ele>
        <time>2020-02-23T11:39:39Z</time>
      </trkpt>
      <trkpt lat="39.0566590" lon="1.5835700">
        <ele>48.0</ele>
        <time>2020-02-23T11:39:40Z</time>
      </trkpt>
      <trkpt lat="39.0566560" lon="1.5835280">
        <ele>48.1</ele>
        <time>2020-02-23T11:39:41Z</time>
      </trkpt>
      <trkpt lat="39.0566350" lon="1.5834740">
        <ele>48.1</ele>
        <time>2020-02-23T11:39:42Z</time>
      </trkpt>
      <trkpt lat="39.0566300" lon="1.5834480">
        <ele>48.1</ele>
        <time>2020-02-23T11:39:43Z</time>
      </trkpt>
      <trkpt lat="39.0566260" lon="1.5833900">
        <ele>48.1</ele>
        <time>2020-02-23T11:39:44Z</time>
      </trkpt>
      <trkpt lat="39.0566100" lon="1.5833480">
        <ele>48.1</ele>
        <time>2020-02-23T11:39:45Z</time>
      </trkpt>
      <trkpt lat="39.0565860" lon="1.5833080">
        <ele>48.1</ele>
        <time>2020-02-23T11:39:46Z</time>
      </trkpt>
      <trkpt lat="39.0565690" lon="1.5832530">
        <ele>48.2</ele>
        <time>2020-02-23T11:39:47Z</time>
      </trkpt>
      <trkpt lat="39.0565510" lon="1.5832030">
        <ele>48.2</ele>
        <time>2020-02-23T11:39:48Z</time>
      </trkpt>
      <trkpt lat="39.0565440" lon="1.5831480">
        <ele>48.2</ele>
        <time>2020-02-23T11:39:49Z</time>
      </trkpt>
      <trkpt lat="39.0565290" lon="1.5831140">
        <ele>48.2</ele>
        <time>2020-02-23T11:39:50Z</time>
      </trkpt>
      <trkpt lat="39.0565110" lon="1.5830780">
        <ele>48.2</ele>
        <time>2020-02-23T11:39:51Z</time>
      </trkpt>
      <trkpt lat="39.0564980" lon="1.5830350">
        <ele>48.2</ele>
        <time>2020-02-23T11:39:52Z</time>
      </trkpt>
      <trkpt lat="39.0564830" lon="1.5829930">
        <ele>48.3</ele>
        <time>2020-02-23T11:39:53Z</time>
      </trkpt>
      <trkpt lat="39.0564700" lon="1.5829390">
        <ele>48.3</ele>
        <time>2020-02-23T11:39:54Z</time>
      </trkpt>
      <trkpt lat="39.0564630" lon="1.5828850">
        <ele>48.4</ele>
        <time>2020-02-23T11:39:55Z</time>
      </trkpt>
      <trkpt lat="39.0564560" lon="1.5828310">
        <ele>48.4</ele>
        <time>2020-02-23T11:39:56Z</time>
      </trkpt>
      <trkpt lat="39.0564490" lon="1.5827760">
        <ele>48.5</ele>
        <time>2020-02-23T11:39:57Z</time>
      </trkpt>
      <trkpt lat="39.0564440" lon="1.5827320">
        <ele>48.5</ele>
        <time>2020-02-23T11:39:58Z</time>
      </trkpt>
      <trkpt lat="39.0564420" lon="1.5826800">
        <ele>48.6</ele>
        <time>2020-02-23T11:39:59Z</time>
      </trkpt>
      <trkpt lat="39.0564360" lon="1.5826300">
        <ele>48.7</ele>
        <time>2020-02-23T11:40:00Z</time>
      </trkpt>
      <trkpt lat="39.0564330" lon="1.5825730">
        <ele>48.8</ele>
        <time>2020-02-23T11:40:01Z</time>
      </trkpt>
      <trkpt lat="39.0564190" lon="1.5825300">
        <ele>48.9</ele>
        <time>2020-02-23T11:40:02Z</time>
      </trkpt>
      <trkpt lat="39.0564090" lon="1.5824830">
        <ele>49.0</ele>
        <time>2020-02-23T11:40:03Z</time>
      </trkpt>
      <trkpt lat="39.0564020" lon="1.5824410">
        <ele>49.0</ele>
        <time>2020-02-23T11:40:04Z</time>
      </trkpt>
      <trkpt lat="39.0563910" lon="1.5824000">
        <ele>49.1</ele>
        <time>2020-02-23T11:40:05Z</time>
      </trkpt>
      <trkpt lat="39.0563800" lon="1.5823510">
        <ele>49.2</ele>
        <time>2020-02-23T11:40:06Z</time>
      </trkpt>
      <trkpt lat="39.0563660" lon="1.5822960">
        <ele>49.3</ele>
        <time>2020-02-23T11:40:07Z</time>
      </trkpt>
      <trkpt lat="39.0563530" lon="1.5822520">
        <ele>49.4</ele>
        <time>2020-02-23T11:40:08Z</time>
      </trkpt>
      <trkpt lat="39.0563430" lon="1.5822090">
        <ele>49.5</ele>
        <time>2020-02-23T11:40:09Z</time>
      </trkpt>
      <trkpt lat="39.0563320" lon="1.5821610">
        <ele>49.6</ele>
        <time>2020-02-23T11:40:10Z</time>
      </trkpt>
      <trkpt lat="39.0563150" lon="1.5821230">
        <ele>49.7</ele>
        <time>2020-02-23T11:40:11Z</time>
      </trkpt>
      <trkpt lat="39.0563150" lon="1.5820870">
        <ele>49.8</ele>
        <time>2020-02-23T11:40:12Z</time>
      </trkpt>
      <trkpt lat="39.0563370" lon="1.5820610">
        <ele>49.9</ele>
        <time>2020-02-23T11:40:13Z</time>
      </trkpt>
      <trkpt lat="39.0563500" lon="1.5820570">
        <ele>49.9</ele>
        <time>2020-02-23T11:40:14Z</time>
      </trkpt>
      <trkpt lat="39.0563760" lon="1.5820770">
        <ele>50.1</ele>
        <time>2020-02-23T11:40:15Z</time>
      </trkpt>
      <trkpt lat="39.0563980" lon="1.5821030">
        <ele>50.4</ele>
        <time>2020-02-23T11:40:16Z</time>
      </trkpt>
      <trkpt lat="39.0564050" lon="1.5821400">
        <ele>50.2</ele>
        <time>2020-02-23T11:40:17Z</time>
      </trkpt>
      <trkpt lat="39.0564300" lon="1.5821770">
        <ele>50.3</ele>
        <time>2020-02-23T11:40:18Z</time>
      </trkpt>
      <trkpt lat="39.0564380" lon="1.5821900">
        <ele>50.4</ele>
        <time>2020-02-23T11:40:19Z</time>
      </trkpt>
      <trkpt lat="39.0564560" lon="1.5821930">
        <ele>50.6</ele>
        <time>2020-02-23T11:40:20Z</time>
      </trkpt>
      <trkpt lat="39.0564680" lon="1.5821680">
        <ele>50.6</ele>
        <time>2020-02-23T11:40:21Z</time>
      </trkpt>
      <trkpt lat="39.0564570" lon="1.5821330">
        <ele>50.8</ele>
        <time>2020-02-23T11:40:22Z</time>
      </trkpt>
      <trkpt lat="39.0564510" lon="1.5821220">
        <ele>50.9</ele>
        <time>2020-02-23T11:40:23Z</time>
      </trkpt>
      <trkpt lat="39.0564270" lon="1.5820790">
        <ele>50.9</ele>
        <time>2020-02-23T11:40:24Z</time>
      </trkpt>
      <trkpt lat="39.0564140" lon="1.5820610">
        <ele>50.8</ele>
        <time>2020-02-23T11:40:25Z</time>
      </trkpt>
      <trkpt lat="39.0564000" lon="1.5820220">
        <ele>51.1</ele>
        <time>2020-02-23T11:40:26Z</time>
      </trkpt>
      <trkpt lat="39.0563980" lon="1.5820060">
        <ele>51.1</ele>
        <time>2020-02-23T11:40:27Z</time>
      </trkpt>
      <trkpt lat="39.0564190" lon="1.5819640">
        <ele>51.5</ele>
        <time>2020-02-23T11:40:28Z</time>
      </trkpt>
      <trkpt lat="39.0564310" lon="1.5819530">
        <ele>51.5</ele>
        <time>2020-02-23T11:40:29Z</time>
      </trkpt>
      <trkpt lat="39.0564520" lon="1.5819520">
        <ele>51.6</ele>
        <time>2020-02-23T11:40:30Z</time>
      </trkpt>
      <trkpt lat="39.0564610" lon="1.5819480">
        <ele>51.7</ele>
        <time>2020-02-23T11:40:31Z</time>
      </trkpt>
      <trkpt lat="39.0564850" lon="1.5819660">
        <ele>51.8</ele>
        <time>2020-02-23T11:40:32Z</time>
      </trkpt>
      <trkpt lat="39.0564930" lon="1.5819720">
        <ele>51.8</ele>
        <time>2020-02-23T11:40:33Z</time>
      </trkpt>
      <trkpt lat="39.0565080" lon="1.5819800">
        <ele>51.9</ele>
        <time>2020-02-23T11:40:34Z</time>
      </trkpt>
      <trkpt lat="39.0565240" lon="1.5819860">
        <ele>51.9</ele>
        <time>2020-02-23T11:40:35Z</time>
      </trkpt>
      <trkpt lat="39.0565520" lon="1.5820040">
        <ele>52.0</ele>
        <time>2020-02-23T11:40:36Z</time>
      </trkpt>
      <trkpt lat="39.0565600" lon="1.5820090">
        <ele>52.1</ele>
        <time>2020-02-23T11:40:37Z</time>
      </trkpt>
      <trkpt lat="39.0565930" lon="1.5820190">
        <ele>52.2</ele>
        <time>2020-02-23T11:40:38Z</time>
      </trkpt>
      <trkpt lat="39.0566040" lon="1.5820230">
        <ele>52.2</ele>
        <time>2020-02-23T11:40:39Z</time>
      </trkpt>
      <trkpt lat="39.0566350" lon="1.5820390">
        <ele>52.4</ele>
        <time>2020-02-23T11:40:40Z</time>
      </trkpt>
      <trkpt lat="39.0566440" lon="1.5820450">
        <ele>52.4</ele>
        <time>2020-02-23T11:40:41Z</time>
      </trkpt>
      <trkpt lat="39.0566750" lon="1.5820510">
        <ele>52.5</ele>
        <time>2020-02-23T11:40:42Z</time>
      </trkpt>
      <trkpt lat="39.0566850" lon="1.5820540">
        <ele>52.5</ele>
        <time>2020-02-23T11:40:43Z</time>
      </trkpt>
      <trkpt lat="39.0567120" lon="1.5820660">
        <ele>52.6</ele>
        <time>2020-02-23T11:40:44Z</time>
      </trkpt>
      <trkpt lat="39.0567450" lon="1.5820720">
        <ele>52.8</ele>
        <time>2020-02-23T11:40:45Z</time>
      </trkpt>
      <trkpt lat="39.0567580" lon="1.5820750">
        <ele>52.8</ele>
        <time>2020-02-23T11:40:46Z</time>
      </trkpt>
      <trkpt lat="39.0567930" lon="1.5820800">
        <ele>52.9</ele>
        <time>2020-02-23T11:40:47Z</time>
      </trkpt>
      <trkpt lat="39.0568030" lon="1.5820840">
        <ele>53.0</ele>
        <time>2020-02-23T11:40:48Z</time>
      </trkpt>
      <trkpt lat="39.0568350" lon="1.5820990">
        <ele>53.1</ele>
        <time>2020-02-23T11:40:49Z</time>
      </trkpt>
      <trkpt lat="39.0568450" lon="1.5821060">
        <ele>53.1</ele>
        <time>2020-02-23T11:40:50Z</time>
      </trkpt>
      <trkpt lat="39.0568760" lon="1.5821230">
        <ele>53.3</ele>
        <time>2020-02-23T11:40:51Z</time>
      </trkpt>
      <trkpt lat="39.0568840" lon="1.5821260">
        <ele>53.3</ele>
        <time>2020-02-23T11:40:52Z</time>
      </trkpt>
      <trkpt lat="39.0569110" lon="1.5821320">
        <ele>53.4</ele>
        <time>2020-02-23T11:40:53Z</time>
      </trkpt>
      <trkpt lat="39.0569420" lon="1.5821420">
        <ele>53.5</ele>
        <time>2020-02-23T11:40:54Z</time>
      </trkpt>
      <trkpt lat="39.0569690" lon="1.5821530">
        <ele>53.6</ele>
        <time>2020-02-23T11:40:55Z</time>
      </trkpt>
      <trkpt lat="39.0569800" lon="1.5821590">
        <ele>53.6</ele>
        <time>2020-02-23T11:40:56Z</time>
      </trkpt>
      <trkpt lat="39.0570070" lon="1.5821770">
        <ele>53.7</ele>
        <time>2020-02-23T11:40:57Z</time>
      </trkpt>
      <trkpt lat="39.0570160" lon="1.5821810">
        <ele>53.8</ele>
        <time>2020-02-23T11:40:58Z</time>
      </trkpt>
      <trkpt lat="39.0570500" lon="1.5821950">
        <ele>53.9</ele>
        <time>2020-02-23T11:40:59Z</time>
      </trkpt>
      <trkpt lat="39.0570600" lon="1.5821990">
        <ele>53.9</ele>
        <time>2020-02-23T11:41:00Z</time>
      </trkpt>
      <trkpt lat="39.0570920" lon="1.5822020">
        <ele>54.0</ele>
        <time>2020-02-23T11:41:01Z</time>
      </trkpt>
      <trkpt lat="39.0571030" lon="1.5822040">
        <ele>54.1</ele>
        <time>2020-02-23T11:41:02Z</time>
      </trkpt>
      <trkpt lat="39.0571340" lon="1.5822120">
        <ele>54.2</ele>
        <time>2020-02-23T11:41:03Z</time>
      </trkpt>
      <trkpt lat="39.0571690" lon="1.5822230">
        <ele>54.3</ele>
        <time>2020-02-23T11:41:04Z</time>
      </trkpt>
      <trkpt lat="39.0571810" lon="1.5822270">
        <ele>54.3</ele>
        <time>2020-02-23T11:41:05Z</time>
      </trkpt>
      <trkpt lat="39.0572170" lon="1.5822370">
        <ele>54.5</ele>
        <time>2020-02-23T11:41:06Z</time>
      </trkpt>
      <trkpt lat="39.0572300" lon="1.5822410">
        <ele>54.5</ele>
        <time>2020-02-23T11:41:07Z</time>
      </trkpt>
      <trkpt lat="39.0572560" lon="1.5822530">
        <ele>54.6</ele>
        <time>2020-02-23T11:41:08Z</time>
      </trkpt>
      <trkpt lat="39.0572850" lon="1.5822720">
        <ele>54.7</ele>
        <time>2020-02-23T11:41:09Z</time>
      </trkpt>
      <trkpt lat="39.0572990" lon="1.5822790">
        <ele>54.8</ele>
        <time>2020-02-23T11:41:10Z</time>
      </trkpt>
      <trkpt lat="39.0573230" lon="1.5822960">
        <ele>54.9</ele>
        <time>2020-02-23T11:41:11Z</time>
      </trkpt>
      <trkpt lat="39.0573580" lon="1.5823050">
        <ele>55.0</ele>
        <time>2020-02-23T11:41:12Z</time>
      </trkpt>
      <trkpt lat="39.0573680" lon="1.5823110">
        <ele>55.0</ele>
        <time>2020-02-23T11:41:13Z</time>
      </trkpt>
      <trkpt lat="39.0573960" lon="1.5823270">
        <ele>55.1</ele>
        <time>2020-02-23T11:41:14Z</time>
      </trkpt>
      <trkpt lat="39.0574280" lon="1.5823370">
        <ele>55.3</ele>
        <time>2020-02-23T11:41:15Z</time>
      </trkpt>
      <trkpt lat="39.0574600" lon="1.5823380">
        <ele>55.4</ele>
        <time>2020-02-23T11:41:16Z</time>
      </trkpt>
      <trkpt lat="39.0574890" lon="1.5823300">
        <ele>55.5</ele>
        <time>2020-02-23T11:41:17Z</time>
      </trkpt>
      <trkpt lat="39.0575300" lon="1.5823320">
        <ele>55.6</ele>
        <time>2020-02-23T11:41:18Z</time>
      </trkpt>
      <trkpt lat="39.0575450" lon="1.5823350">
        <ele>55.7</ele>
        <time>2020-02-23T11:41:19Z</time>
      </trkpt>
      <trkpt lat="39.0575740" lon="1.5823450">
        <ele>55.8</ele>
        <time>2020-02-23T11:41:20Z</time>
      </trkpt>
      <trkpt lat="39.0576060" lon="1.5823500">
        <ele>55.9</ele>
        <time>2020-02-23T11:41:21Z</time>
      </trkpt>
      <trkpt lat="39.0576370" lon="1.5823580">
        <ele>56.0</ele>
        <time>2020-02-23T11:41:22Z</time>
      </trkpt>
      <trkpt lat="39.0576680" lon="1.5823680">
        <ele>56.1</ele>
        <time>2020-02-23T11:41:23Z</time>
      </trkpt>
      <trkpt lat="39.0577010" lon="1.5823780">
        <ele>56.3</ele>
        <time>2020-02-23T11:41:24Z</time>
      </trkpt>
      <trkpt lat="39.0577350" lon="1.5823750">
        <ele>56.4</ele>
        <time>2020-02-23T11:41:25Z</time>
      </trkpt>
      <trkpt lat="39.0577610" lon="1.5823630">
        <ele>56.6</ele>
        <time>2020-02-23T11:41:26Z</time>
      </trkpt>
      <trkpt lat="39.0577750" lon="1.5823200">
        <ele>56.8</ele>
        <time>2020-02-23T11:41:27Z</time>
      </trkpt>
      <trkpt lat="39.0577750" lon="1.5823050">
        <ele>56.8</ele>
        <time>2020-02-23T11:41:28Z</time>
      </trkpt>
      <trkpt lat="39.0577800" lon="1.5822700">
        <ele>56.9</ele>
        <time>2020-02-23T11:41:29Z</time>
      </trkpt>
      <trkpt lat="39.0577880" lon="1.5822450">
        <ele>57.0</ele>
        <time>2020-02-23T11:41:30Z</time>
      </trkpt>
      <trkpt lat="39.0577900" lon="1.5822340">
        <ele>57.0</ele>
        <time>2020-02-23T11:41:31Z</time>
      </trkpt>
      <trkpt lat="39.0577760" lon="1.5822460">
        <ele>57.1</ele>
        <time>2020-02-23T11:41:32Z</time>
      </trkpt>
      <trkpt lat="39.0577700" lon="1.5822590">
        <ele>57.1</ele>
        <time>2020-02-23T11:41:33Z</time>
      </trkpt>
      <trkpt lat="39.0577630" lon="1.5822720">
        <ele>57.1</ele>
        <time>2020-02-23T11:41:34Z</time>
      </trkpt>
      <trkpt lat="39.0577720" lon="1.5823130">
        <ele>57.3</ele>
        <time>2020-02-23T11:41:35Z</time>
      </trkpt>
      <trkpt lat="39.0577790" lon="1.5823240">
        <ele>57.3</ele>
        <time>2020-02-23T11:41:36Z</time>
      </trkpt>
      <trkpt lat="39.0578080" lon="1.5823260">
        <ele>57.4</ele>
        <time>2020-02-23T11:41:37Z</time>
      </trkpt>
      <trkpt lat="39.0578380" lon="1.5823340">
        <ele>57.5</ele>
        <time>2020-02-23T11:41:38Z</time>
      </trkpt>
      <trkpt lat="39.0578740" lon="1.5823550">
        <ele>57.7</ele>
        <time>2020-02-23T11:41:39Z</time>
      </trkpt>
      <trkpt lat="39.0578860" lon="1.5823610">
        <ele>57.8</ele>
        <time>2020-02-23T11:41:40Z</time>
      </trkpt>
      <trkpt lat="39.0579140" lon="1.5823720">
        <ele>57.9</ele>
        <time>2020-02-23T11:41:41Z</time>
      </trkpt>
      <trkpt lat="39.0579450" lon="1.5823870">
        <ele>58.0</ele>
        <time>2020-02-23T11:41:42Z</time>
      </trkpt>
      <trkpt lat="39.0579760" lon="1.5823940">
        <ele>58.1</ele>
        <time>2020-02-23T11:41:43Z</time>
      </trkpt>
      <trkpt lat="39.0579830" lon="1.5823950">
        <ele>58.2</ele>
        <time>2020-02-23T11:41:44Z</time>
      </trkpt>
      <trkpt lat="39.0579940" lon="1.5823880">
        <ele>58.2</ele>
        <time>2020-02-23T11:41:45Z</time>
      </trkpt>
      <trkpt lat="39.0580160" lon="1.5823950">
        <ele>58.3</ele>
        <time>2020-02-23T11:41:46Z</time>
      </trkpt>
      <trkpt lat="39.0580460" lon="1.5824180">
        <ele>58.4</ele>
        <time>2020-02-23T11:41:47Z</time>
      </trkpt>
      <trkpt lat="39.0580560" lon="1.5824250">
        <ele>58.4</ele>
        <time>2020-02-23T11:41:48Z</time>
      </trkpt>
      <trkpt lat="39.0580910" lon="1.5824230">
        <ele>58.5</ele>
        <time>2020-02-23T11:41:49Z</time>
      </trkpt>
      <trkpt lat="39.0581030" lon="1.5824210">
        <ele>58.5</ele>
        <time>2020-02-23T11:41:50Z</time>
      </trkpt>
      <trkpt lat="39.0581330" lon="1.5824230">
        <ele>58.6</ele>
        <time>2020-02-23T11:41:51Z</time>
      </trkpt>
      <trkpt lat="39.0581660" lon="1.5824340">
        <ele>58.7</ele>
        <time>2020-02-23T11:41:52Z</time>
      </trkpt>
      <trkpt lat="39.0581800" lon="1.5824390">
        <ele>58.8</ele>
        <time>2020-02-23T11:41:53Z</time>
      </trkpt>
      <trkpt lat="39.0582150" lon="1.5824540">
        <ele>58.9</ele>
        <time>2020-02-23T11:41:54Z</time>
      </trkpt>
      <trkpt lat="39.0582250" lon="1.5824610">
        <ele>59.0</ele>
        <time>2020-02-23T11:41:55Z</time>
      </trkpt>
      <trkpt lat="39.0582600" lon="1.5824730">
        <ele>59.1</ele>
        <time>2020-02-23T11:41:56Z</time>
      </trkpt>
      <trkpt lat="39.0582710" lon="1.5824710">
        <ele>59.1</ele>
        <time>2020-02-23T11:41:57Z</time>
      </trkpt>
      <trkpt lat="39.0583080" lon="1.5824720">
        <ele>59.3</ele>
        <time>2020-02-23T11:41:58Z</time>
      </trkpt>
      <trkpt lat="39.0583210" lon="1.5824760">
        <ele>59.3</ele>
        <time>2020-02-23T11:41:59Z</time>
      </trkpt>
      <trkpt lat="39.0583480" lon="1.5824830">
        <ele>59.4</ele>
        <time>2020-02-23T11:42:00Z</time>
      </trkpt>
      <trkpt lat="39.0583800" lon="1.5825010">
        <ele>59.6</ele>
        <time>2020-02-23T11:42:01Z</time>
      </trkpt>
      <trkpt lat="39.0583920" lon="1.5825060">
        <ele>59.7</ele>
        <time>2020-02-23T11:42:02Z</time>
      </trkpt>
      <trkpt lat="39.0584190" lon="1.5825100">
        <ele>59.8</ele>
        <time>2020-02-23T11:42:03Z</time>
      </trkpt>
      <trkpt lat="39.0584500" lon="1.5825130">
        <ele>60.0</ele>
        <time>2020-02-23T11:42:04Z</time>
      </trkpt>
      <trkpt lat="39.0584580" lon="1.5825120">
        <ele>60.0</ele>
        <time>2020-02-23T11:42:05Z</time>
      </trkpt>
      <trkpt lat="39.0584870" lon="1.5825180">
        <ele>60.1</ele>
        <time>2020-02-23T11:42:06Z</time>
      </trkpt>
      <trkpt lat="39.0584970" lon="1.5825210">
        <ele>60.2</ele>
        <time>2020-02-23T11:42:07Z</time>
      </trkpt>
      <trkpt lat="39.0585330" lon="1.5825130">
        <ele>60.3</ele>
        <time>2020-02-23T11:42:08Z</time>
      </trkpt>
      <trkpt lat="39.0585430" lon="1.5825090">
        <ele>60.4</ele>
        <time>2020-02-23T11:42:09Z</time>
      </trkpt>
      <trkpt lat="39.0585740" lon="1.5824870">
        <ele>60.7</ele>
        <time>2020-02-23T11:42:10Z</time>
      </trkpt>
      <trkpt lat="39.0585830" lon="1.5824760">
        <ele>60.9</ele>
        <time>2020-02-23T11:42:11Z</time>
      </trkpt>
      <trkpt lat="39.0586050" lon="1.5824540">
        <ele>61.3</ele>
        <time>2020-02-23T11:42:12Z</time>
      </trkpt>
      <trkpt lat="39.0586280" lon="1.5824230">
        <ele>61.8</ele>
        <time>2020-02-23T11:42:13Z</time>
      </trkpt>
      <trkpt lat="39.0586410" lon="1.5823830">
        <ele>62.3</ele>
        <time>2020-02-23T11:42:14Z</time>
      </trkpt>
      <trkpt lat="39.0586570" lon="1.5823460">
        <ele>62.8</ele>
        <time>2020-02-23T11:42:15Z</time>
      </trkpt>
      <trkpt lat="39.0586790" lon="1.5823090">
        <ele>63.6</ele>
        <time>2020-02-23T11:42:16Z</time>
      </trkpt>
      <trkpt lat="39.0586830" lon="1.5822970">
        <ele>63.8</ele>
        <time>2020-02-23T11:42:17Z</time>
      </trkpt>
      <trkpt lat="39.0587050" lon="1.5822660">
        <ele>64.4</ele>
        <time>2020-02-23T11:42:18Z</time>
      </trkpt>
      <trkpt lat="39.0587130" lon="1.5822540">
        <ele>64.7</ele>
        <time>2020-02-23T11:42:19Z</time>
      </trkpt>
      <trkpt lat="39.0587310" lon="1.5822290">
        <ele>65.1</ele>
        <time>2020-02-23T11:42:20Z</time>
      </trkpt>
      <trkpt lat="39.0587360" lon="1.5822170">
        <ele>65.3</ele>
        <time>2020-02-23T11:42:21Z</time>
      </trkpt>
      <trkpt lat="39.0587590" lon="1.5821880">
        <ele>65.7</ele>
        <time>2020-02-23T11:42:22Z</time>
      </trkpt>
      <trkpt lat="39.0587660" lon="1.5821790">
        <ele>65.8</ele>
        <time>2020-02-23T11:42:23Z</time>
      </trkpt>
      <trkpt lat="39.0587740" lon="1.5821610">
        <ele>66.0</ele>
        <time>2020-02-23T11:42:24Z</time>
      </trkpt>
      <trkpt lat="39.0587840" lon="1.5821420">
        <ele>66.2</ele>
        <time>2020-02-23T11:42:25Z</time>
      </trkpt>
      <trkpt lat="39.0587950" lon="1.5821350">
        <ele>66.4</ele>
        <time>2020-02-23T11:42:26Z</time>
      </trkpt>
      <trkpt lat="39.0588050" lon="1.5821090">
        <ele>66.6</ele>
        <time>2020-02-23T11:42:27Z</time>
      </trkpt>
      <trkpt lat="39.0588180" lon="1.5820810">
        <ele>66.9</ele>
        <time>2020-02-23T11:42:28Z</time>
      </trkpt>
      <trkpt lat="39.0588260" lon="1.5820670">
        <ele>67.1</ele>
        <time>2020-02-23T11:42:29Z</time>
      </trkpt>
      <trkpt lat="39.0588470" lon="1.5820310">
        <ele>67.5</ele>
        <time>2020-02-23T11:42:30Z</time>
      </trkpt>
      <trkpt lat="39.0588530" lon="1.5820200">
        <ele>67.7</ele>
        <time>2020-02-23T11:42:31Z</time>
      </trkpt>
      <trkpt lat="39.0588620" lon="1.5820000">
        <ele>67.9</ele>
        <time>2020-02-23T11:42:32Z</time>
      </trkpt>
      <trkpt lat="39.0588720" lon="1.5819870">
        <ele>68.1</ele>
        <time>2020-02-23T11:42:33Z</time>
      </trkpt>
      <trkpt lat="39.0588880" lon="1.5819520">
        <ele>68.6</ele>
        <time>2020-02-23T11:42:34Z</time>
      </trkpt>
      <trkpt lat="39.0588910" lon="1.5819380">
        <ele>68.7</ele>
        <time>2020-02-23T11:42:35Z</time>
      </trkpt>
      <trkpt lat="39.0589100" lon="1.5819070">
        <ele>69.1</ele>
        <time>2020-02-23T11:42:36Z</time>
      </trkpt>
      <trkpt lat="39.0589230" lon="1.5818680">
        <ele>69.5</ele>
        <time>2020-02-23T11:42:37Z</time>
      </trkpt>
      <trkpt lat="39.0589260" lon="1.5818550">
        <ele>69.6</ele>
        <time>2020-02-23T11:42:38Z</time>
      </trkpt>
      <trkpt lat="39.0589340" lon="1.5818210">
        <ele>69.8</ele>
        <time>2020-02-23T11:42:39Z</time>
      </trkpt>
      <trkpt lat="39.0589380" lon="1.5818060">
        <ele>69.9</ele>
        <time>2020-02-23T11:42:40Z</time>
      </trkpt>
      <trkpt lat="39.0589420" lon="1.5817840">
        <ele>70.1</ele>
        <time>2020-02-23T11:42:41Z</time>
      </trkpt>
      <trkpt lat="39.0589470" lon="1.5817630">
        <ele>70.2</ele>
        <time>2020-02-23T11:42:42Z</time>
      </trkpt>
      <trkpt lat="39.0589560" lon="1.5817450">
        <ele>70.3</ele>
        <time>2020-02-23T11:42:43Z</time>
      </trkpt>
      <trkpt lat="39.0589650" lon="1.5817250">
        <ele>70.5</ele>
        <time>2020-02-23T11:42:44Z</time>
      </trkpt>
      <trkpt lat="39.0589890" lon="1.5816900">
        <ele>70.8</ele>
        <time>2020-02-23T11:42:45Z</time>
      </trkpt>
      <trkpt lat="39.0589960" lon="1.5816800">
        <ele>70.8</ele>
        <time>2020-02-23T11:42:46Z</time>
      </trkpt>
      <trkpt lat="39.0590160" lon="1.5816430">
        <ele>71.1</ele>
        <time>2020-02-23T11:42:47Z</time>
      </trkpt>
      <trkpt lat="39.0590220" lon="1.5816310">
        <ele>71.2</ele>
        <time>2020-02-23T11:42:48Z</time>
      </trkpt>
      <trkpt lat="39.0590430" lon="1.5815860">
        <ele>71.5</ele>
        <time>2020-02-23T11:42:49Z</time>
      </trkpt>
      <trkpt lat="39.0590500" lon="1.5815690">
        <ele>71.6</ele>
        <time>2020-02-23T11:42:50Z</time>
      </trkpt>
      <trkpt lat="39.0590640" lon="1.5815300">
        <ele>71.8</ele>
        <time>2020-02-23T11:42:51Z</time>
      </trkpt>
      <trkpt lat="39.0590690" lon="1.5815160">
        <ele>71.9</ele>
        <time>2020-02-23T11:42:52Z</time>
      </trkpt>
      <trkpt lat="39.0590760" lon="1.5814750">
        <ele>72.2</ele>
        <time>2020-02-23T11:42:53Z</time>
      </trkpt>
      <trkpt lat="39.0590790" lon="1.5814660">
        <ele>72.2</ele>
        <time>2020-02-23T11:42:54Z</time>
      </trkpt>
      <trkpt lat="39.0590830" lon="1.5814490">
        <ele>72.3</ele>
        <time>2020-02-23T11:42:55Z</time>
      </trkpt>
      <trkpt lat="39.0590930" lon="1.5814290">
        <ele>72.5</ele>
        <time>2020-02-23T11:42:56Z</time>
      </trkpt>
      <trkpt lat="39.0591060" lon="1.5813940">
        <ele>72.7</ele>
        <time>2020-02-23T11:42:57Z</time>
      </trkpt>
      <trkpt lat="39.0591060" lon="1.5813810">
        <ele>72.8</ele>
        <time>2020-02-23T11:42:58Z</time>
      </trkpt>
      <trkpt lat="39.0590960" lon="1.5813390">
        <ele>73.1</ele>
        <time>2020-02-23T11:42:59Z</time>
      </trkpt>
      <trkpt lat="39.0590980" lon="1.5813240">
        <ele>73.2</ele>
        <time>2020-02-23T11:43:00Z</time>
      </trkpt>
      <trkpt lat="39.0591060" lon="1.5812890">
        <ele>73.4</ele>
        <time>2020-02-23T11:43:01Z</time>
      </trkpt>
      <trkpt lat="39.0591080" lon="1.5812760">
        <ele>73.5</ele>
        <time>2020-02-23T11:43:02Z</time>
      </trkpt>
      <trkpt lat="39.0591200" lon="1.5812380">
        <ele>73.7</ele>
        <time>2020-02-23T11:43:03Z</time>
      </trkpt>
      <trkpt lat="39.0591340" lon="1.5812030">
        <ele>73.9</ele>
        <time>2020-02-23T11:43:04Z</time>
      </trkpt>
      <trkpt lat="39.0591400" lon="1.5811920">
        <ele>73.9</ele>
        <time>2020-02-23T11:43:05Z</time>
      </trkpt>
      <trkpt lat="39.0591540" lon="1.5811560">
        <ele>74.1</ele>
        <time>2020-02-23T11:43:06Z</time>
      </trkpt>
      <trkpt lat="39.0591580" lon="1.5811450">
        <ele>74.2</ele>
        <time>2020-02-23T11:43:07Z</time>
      </trkpt>
      <trkpt lat="39.0591740" lon="1.5811110">
        <ele>74.4</ele>
        <time>2020-02-23T11:43:08Z</time>
      </trkpt>
      <trkpt lat="39.0591800" lon="1.5811050">
        <ele>74.4</ele>
        <time>2020-02-23T11:43:09Z</time>
      </trkpt>
      <trkpt lat="39.0591900" lon="1.5810910">
        <ele>74.5</ele>
        <time>2020-02-23T11:43:10Z</time>
      </trkpt>
      <trkpt lat="39.0591930" lon="1.5810700">
        <ele>74.6</ele>
        <time>2020-02-23T11:43:11Z</time>
      </trkpt>
      <trkpt lat="39.0591940" lon="1.5810430">
        <ele>74.8</ele>
        <time>2020-02-23T11:43:12Z</time>
      </trkpt>
      <trkpt lat="39.0591980" lon="1.5810280">
        <ele>74.9</ele>
        <time>2020-02-23T11:43:13Z</time>
      </trkpt>
      <trkpt lat="39.0592040" lon="1.5810020">
        <ele>75.1</ele>
        <time>2020-02-23T11:43:14Z</time>
      </trkpt>
      <trkpt lat="39.0592070" lon="1.5809840">
        <ele>75.3</ele>
        <time>2020-02-23T11:43:15Z</time>
      </trkpt>
      <trkpt lat="39.0592100" lon="1.5809480">
        <ele>75.5</ele>
        <time>2020-02-23T11:43:16Z</time>
      </trkpt>
      <trkpt lat="39.0592110" lon="1.5809350">
        <ele>75.6</ele>
        <time>2020-02-23T11:43:17Z</time>
      </trkpt>
      <trkpt lat="39.0592220" lon="1.5809010">
        <ele>75.9</ele>
        <time>2020-02-23T11:43:18Z</time>
      </trkpt>
      <trkpt lat="39.0592280" lon="1.5808930">
        <ele>75.9</ele>
        <time>2020-02-23T11:43:19Z</time>
      </trkpt>
      <trkpt lat="39.0592400" lon="1.5808810">
        <ele>76.1</ele>
        <time>2020-02-23T11:43:20Z</time>
      </trkpt>
      <trkpt lat="39.0592470" lon="1.5808610">
        <ele>76.2</ele>
        <time>2020-02-23T11:43:21Z</time>
      </trkpt>
      <trkpt lat="39.0592540" lon="1.5808250">
        <ele>76.4</ele>
        <time>2020-02-23T11:43:22Z</time>
      </trkpt>
      <trkpt lat="39.0592560" lon="1.5808100">
        <ele>76.5</ele>
        <time>2020-02-23T11:43:23Z</time>
      </trkpt>
      <trkpt lat="39.0592720" lon="1.5807770">
        <ele>76.8</ele>
        <time>2020-02-23T11:43:24Z</time>
      </trkpt>
      <trkpt lat="39.0592790" lon="1.5807680">
        <ele>76.9</ele>
        <time>2020-02-23T11:43:25Z</time>
      </trkpt>
      <trkpt lat="39.0592920" lon="1.5807230">
        <ele>77.2</ele>
        <time>2020-02-23T11:43:26Z</time>
      </trkpt>
      <trkpt lat="39.0592960" lon="1.5807100">
        <ele>77.3</ele>
        <time>2020-02-23T11:43:27Z</time>
      </trkpt>
      <trkpt lat="39.0593100" lon="1.5806660">
        <ele>77.7</ele>
        <time>2020-02-23T11:43:28Z</time>
      </trkpt>
      <trkpt lat="39.0593130" lon="1.5806520">
        <ele>77.8</ele>
        <time>2020-02-23T11:43:29Z</time>
      </trkpt>
      <trkpt lat="39.0593340" lon="1.5806240">
        <ele>78.1</ele>
        <time>2020-02-23T11:43:30Z</time>
      </trkpt>
      <trkpt lat="39.0593380" lon="1.5806130">
        <ele>78.1</ele>
        <time>2020-02-23T11:43:31Z</time>
      </trkpt>
      <trkpt lat="39.0593420" lon="1.5805750">
        <ele>78.4</ele>
        <time>2020-02-23T11:43:32Z</time>
      </trkpt>
      <trkpt lat="39.0593400" lon="1.5805620">
        <ele>78.5</ele>
        <time>2020-02-23T11:43:33Z</time>
      </trkpt>
      <trkpt lat="39.0593560" lon="1.5805210">
        <ele>78.9</ele>
        <time>2020-02-23T11:43:34Z</time>
      </trkpt>
      <trkpt lat="39.0593610" lon="1.5805060">
        <ele>79.1</ele>
        <time>2020-02-23T11:43:35Z</time>
      </trkpt>
      <trkpt lat="39.0593730" lon="1.5804960">
        <ele>79.3</ele>
        <time>2020-02-23T11:43:36Z</time>
      </trkpt>
      <trkpt lat="39.0593840" lon="1.5804790">
        <ele>79.6</ele>
        <time>2020-02-23T11:43:37Z</time>
      </trkpt>
      <trkpt lat="39.0594010" lon="1.5804480">
        <ele>80.0</ele>
        <time>2020-02-23T11:43:38Z</time>
      </trkpt>
      <trkpt lat="39.0594140" lon="1.5804290">
        <ele>80.3</ele>
        <time>2020-02-23T11:43:39Z</time>
      </trkpt>
      <trkpt lat="39.0594260" lon="1.5804170">
        <ele>80.5</ele>
        <time>2020-02-23T11:43:40Z</time>
      </trkpt>
      <trkpt lat="39.0594430" lon="1.5804050">
        <ele>80.8</ele>
        <time>2020-02-23T11:43:41Z</time>
      </trkpt>
      <trkpt lat="39.0594550" lon="1.5803960">
        <ele>81.0</ele>
        <time>2020-02-23T11:43:42Z</time>
      </trkpt>
      <trkpt lat="39.0594740" lon="1.5803730">
        <ele>81.4</ele>
        <time>2020-02-23T11:43:43Z</time>
      </trkpt>
      <trkpt lat="39.0594810" lon="1.5803570">
        <ele>81.6</ele>
        <time>2020-02-23T11:43:44Z</time>
      </trkpt>
      <trkpt lat="39.0594890" lon="1.5803410">
        <ele>81.9</ele>
        <time>2020-02-23T11:43:45Z</time>
      </trkpt>
      <trkpt lat="39.0594960" lon="1.5803150">
        <ele>82.2</ele>
        <time>2020-02-23T11:43:46Z</time>
      </trkpt>
      <trkpt lat="39.0595060" lon="1.5803010">
        <ele>82.5</ele>
        <time>2020-02-23T11:43:47Z</time>
      </trkpt>
      <trkpt lat="39.0595080" lon="1.5802840">
        <ele>82.7</ele>
        <time>2020-02-23T11:43:48Z</time>
      </trkpt>
      <trkpt lat="39.0595070" lon="1.5802640">
        <ele>82.9</ele>
        <time>2020-02-23T11:43:49Z</time>
      </trkpt>
      <trkpt lat="39.0595080" lon="1.5802470">
        <ele>83.2</ele>
        <time>2020-02-23T11:43:50Z</time>
      </trkpt>
      <trkpt lat="39.0595020" lon="1.5802280">
        <ele>83.4</ele>
        <time>2020-02-23T11:43:51Z</time>
      </trkpt>
      <trkpt lat="39.0595030" lon="1.5802010">
        <ele>83.8</ele>
        <time>2020-02-23T11:43:52Z</time>
      </trkpt>
      <trkpt lat="39.0594950" lon="1.5801830">
        <ele>84.0</ele>
        <time>2020-02-23T11:43:53Z</time>
      </trkpt>
      <trkpt lat="39.0594890" lon="1.5801620">
        <ele>84.3</ele>
        <time>2020-02-23T11:43:54Z</time>
      </trkpt>
      <trkpt lat="39.0594890" lon="1.5801390">
        <ele>84.6</ele>
        <time>2020-02-23T11:43:55Z</time>
      </trkpt>
      <trkpt lat="39.0594830" lon="1.5801140">
        <ele>85.0</ele>
        <time>2020-02-23T11:43:56Z</time>
      </trkpt>
      <trkpt lat="39.0594800" lon="1.5800970">
        <ele>85.2</ele>
        <time>2020-02-23T11:43:57Z</time>
      </trkpt>
      <trkpt lat="39.0594820" lon="1.5800700">
        <ele>85.6</ele>
        <time>2020-02-23T11:43:58Z</time>
      </trkpt>
      <trkpt lat="39.0594840" lon="1.5800550">
        <ele>85.8</ele>
        <time>2020-02-23T11:43:59Z</time>
      </trkpt>
      <trkpt lat="39.0594860" lon="1.5800390">
        <ele>86.0</ele>
        <time>2020-02-23T11:44:00Z</time>
      </trkpt>
      <trkpt lat="39.0594930" lon="1.5800010">
        <ele>86.5</ele>
        <time>2020-02-23T11:44:01Z</time>
      </trkpt>
      <trkpt lat="39.0594940" lon="1.5799920">
        <ele>86.6</ele>
        <time>2020-02-23T11:44:02Z</time>
      </trkpt>
      <trkpt lat="39.0594970" lon="1.5799820">
        <ele>86.8</ele>
        <time>2020-02-23T11:44:03Z</time>
      </trkpt>
      <trkpt lat="39.0594930" lon="1.5799730">
        <ele>86.9</ele>
        <time>2020-02-23T11:44:04Z</time>
      </trkpt>
      <trkpt lat="39.0594890" lon="1.5799560">
        <ele>87.1</ele>
        <time>2020-02-23T11:44:05Z</time>
      </trkpt>
      <trkpt lat="39.0594760" lon="1.5799330">
        <ele>87.5</ele>
        <time>2020-02-23T11:44:06Z</time>
      </trkpt>
      <trkpt lat="39.0594700" lon="1.5799250">
        <ele>87.6</ele>
        <time>2020-02-23T11:44:07Z</time>
      </trkpt>
      <trkpt lat="39.0594650" lon="1.5799180">
        <ele>87.8</ele>
        <time>2020-02-23T11:44:08Z</time>
      </trkpt>
      <trkpt lat="39.0594550" lon="1.5799080">
        <ele>88.0</ele>
        <time>2020-02-23T11:44:09Z</time>
      </trkpt>
      <trkpt lat="39.0594430" lon="1.5798970">
        <ele>88.3</ele>
        <time>2020-02-23T11:44:10Z</time>
      </trkpt>
      <trkpt lat="39.0594250" lon="1.5798920">
        <ele>88.6</ele>
        <time>2020-02-23T11:44:11Z</time>
      </trkpt>
      <trkpt lat="39.0594150" lon="1.5798740">
        <ele>88.9</ele>
        <time>2020-02-23T11:44:12Z</time>
      </trkpt>
      <trkpt lat="39.0594090" lon="1.5798650">
        <ele>89.1</ele>
        <time>2020-02-23T11:44:13Z</time>
      </trkpt>
      <trkpt lat="39.0593930" lon="1.5798480">
        <ele>89.5</ele>
        <time>2020-02-23T11:44:14Z</time>
      </trkpt>
      <trkpt lat="39.0593680" lon="1.5798220">
        <ele>90.1</ele>
        <time>2020-02-23T11:44:15Z</time>
      </trkpt>
      <trkpt lat="39.0593610" lon="1.5798180">
        <ele>90.2</ele>
        <time>2020-02-23T11:44:16Z</time>
      </trkpt>
      <trkpt lat="39.0593310" lon="1.5798110">
        <ele>90.7</ele>
        <time>2020-02-23T11:44:17Z</time>
      </trkpt>
      <trkpt lat="39.0593050" lon="1.5797940">
        <ele>91.2</ele>
        <time>2020-02-23T11:44:18Z</time>
      </trkpt>
      <trkpt lat="39.0592870" lon="1.5797790">
        <ele>91.5</ele>
        <time>2020-02-23T11:44:19Z</time>
      </trkpt>
      <trkpt lat="39.0592800" lon="1.5797620">
        <ele>91.8</ele>
        <time>2020-02-23T11:44:20Z</time>
      </trkpt>
      <trkpt lat="39.0592650" lon="1.5797570">
        <ele>92.0</ele>
        <time>2020-02-23T11:44:21Z</time>
      </trkpt>
      <trkpt lat="39.0592580" lon="1.5797320">
        <ele>92.4</ele>
        <time>2020-02-23T11:44:22Z</time>
      </trkpt>
      <trkpt lat="39.0592430" lon="1.5797270">
        <ele>92.7</ele>
        <time>2020-02-23T11:44:23Z</time>
      </trkpt>
      <trkpt lat="39.0592350" lon="1.5797030">
        <ele>93.5</ele>
        <time>2020-02-23T11:44:24Z</time>
      </trkpt>
      <trkpt lat="39.0592360" lon="1.5796840">
        <ele>93.7</ele>
        <time>2020-02-23T11:44:25Z</time>
      </trkpt>
      <trkpt lat="39.0592480" lon="1.5796660">
        <ele>93.9</ele>
        <time>2020-02-23T11:44:26Z</time>
      </trkpt>
      <trkpt lat="39.0592560" lon="1.5796500">
        <ele>94.2</ele>
        <time>2020-02-23T11:44:27Z</time>
      </trkpt>
      <trkpt lat="39.0592690" lon="1.5796500">
        <ele>94.3</ele>
        <time>2020-02-23T11:44:28Z</time>
      </trkpt>
      <trkpt lat="39.0592770" lon="1.5796470">
        <ele>94.5</ele>
        <time>2020-02-23T11:44:29Z</time>
      </trkpt>
      <trkpt lat="39.0592920" lon="1.5796600">
        <ele>94.7</ele>
        <time>2020-02-23T11:44:30Z</time>
      </trkpt>
      <trkpt lat="39.0593010" lon="1.5796640">
        <ele>94.8</ele>
        <time>2020-02-23T11:44:31Z</time>
      </trkpt>
      <trkpt lat="39.0593130" lon="1.5796700">
        <ele>95.0</ele>
        <time>2020-02-23T11:44:32Z</time>
      </trkpt>
      <trkpt lat="39.0593290" lon="1.5796600">
        <ele>95.2</ele>
        <time>2020-02-23T11:44:33Z</time>
      </trkpt>
      <trkpt lat="39.0593580" lon="1.5796530">
        <ele>95.4</ele>
        <time>2020-02-23T11:44:34Z</time>
      </trkpt>
      <trkpt lat="39.0593680" lon="1.5796540">
        <ele>95.5</ele>
        <time>2020-02-23T11:44:35Z</time>
      </trkpt>
      <trkpt lat="39.0593840" lon="1.5796560">
        <ele>95.6</ele>
        <time>2020-02-23T11:44:36Z</time>
      </trkpt>
      <trkpt lat="39.0593980" lon="1.5796400">
        <ele>95.7</ele>
        <time>2020-02-23T11:44:37Z</time>
      </trkpt>
      <trkpt lat="39.0594150" lon="1.5796320">
        <ele>95.8</ele>
        <time>2020-02-23T11:44:38Z</time>
      </trkpt>
      <trkpt lat="39.0594270" lon="1.5796130">
        <ele>96.0</ele>
        <time>2020-02-23T11:44:39Z</time>
      </trkpt>
      <trkpt lat="39.0594520" lon="1.5795990">
        <ele>96.2</ele>
        <time>2020-02-23T11:44:40Z</time>
      </trkpt>
      <trkpt lat="39.0594610" lon="1.5795900">
        <ele>96.2</ele>
        <time>2020-02-23T11:44:41Z</time>
      </trkpt>
      <trkpt lat="39.0594850" lon="1.5795680">
        <ele>96.5</ele>
        <time>2020-02-23T11:44:42Z</time>
      </trkpt>
      <trkpt lat="39.0594940" lon="1.5795610">
        <ele>96.5</ele>
        <time>2020-02-23T11:44:43Z</time>
      </trkpt>
      <trkpt lat="39.0595170" lon="1.5795400">
        <ele>96.8</ele>
        <time>2020-02-23T11:44:44Z</time>
      </trkpt>
      <trkpt lat="39.0595220" lon="1.5795300">
        <ele>96.9</ele>
        <time>2020-02-23T11:44:45Z</time>
      </trkpt>
      <trkpt lat="39.0595450" lon="1.5795030">
        <ele>97.3</ele>
        <time>2020-02-23T11:44:46Z</time>
      </trkpt>
      <trkpt lat="39.0595540" lon="1.5794940">
        <ele>97.4</ele>
        <time>2020-02-23T11:44:47Z</time>
      </trkpt>
      <trkpt lat="39.0595780" lon="1.5794710">
        <ele>97.7</ele>
        <time>2020-02-23T11:44:48Z</time>
      </trkpt>
      <trkpt lat="39.0595850" lon="1.5794680">
        <ele>97.8</ele>
        <time>2020-02-23T11:44:49Z</time>
      </trkpt>
      <trkpt lat="39.0595970" lon="1.5794560">
        <ele>97.9</ele>
        <time>2020-02-23T11:44:50Z</time>
      </trkpt>
      <trkpt lat="39.0596070" lon="1.5794450">
        <ele>98.1</ele>
        <time>2020-02-23T11:44:51Z</time>
      </trkpt>
      <trkpt lat="39.0596210" lon="1.5794270">
        <ele>98.3</ele>
        <time>2020-02-23T11:44:52Z</time>
      </trkpt>
      <trkpt lat="39.0596340" lon="1.5794140">
        <ele>98.4</ele>
        <time>2020-02-23T11:44:53Z</time>
      </trkpt>
      <trkpt lat="39.0596570" lon="1.5793910">
        <ele>98.7</ele>
        <time>2020-02-23T11:44:54Z</time>
      </trkpt>
      <trkpt lat="39.0596660" lon="1.5793790">
        <ele>98.8</ele>
        <time>2020-02-23T11:44:55Z</time>
      </trkpt>
      <trkpt lat="39.0596900" lon="1.5793430">
        <ele>99.1</ele>
        <time>2020-02-23T11:44:56Z</time>
      </trkpt>
      <trkpt lat="39.0596980" lon="1.5793340">
        <ele>99.2</ele>
        <time>2020-02-23T11:44:57Z</time>
      </trkpt>
      <trkpt lat="39.0597100" lon="1.5792950">
        <ele>99.4</ele>
        <time>2020-02-23T11:44:58Z</time>
      </trkpt>
      <trkpt lat="39.0597170" lon="1.5792830">
        <ele>99.5</ele>
        <time>2020-02-23T11:44:59Z</time>
      </trkpt>
      <trkpt lat="39.0597380" lon="1.5792590">
        <ele>99.6</ele>
        <time>2020-02-23T11:45:00Z</time>
      </trkpt>
      <trkpt lat="39.0597440" lon="1.5792460">
        <ele>99.7</ele>
        <time>2020-02-23T11:45:01Z</time>
      </trkpt>
      <trkpt lat="39.0597500" lon="1.5792310">
        <ele>99.8</ele>
        <time>2020-02-23T11:45:02Z</time>
      </trkpt>
      <trkpt lat="39.0597570" lon="1.5792070">
        <ele>99.9</ele>
        <time>2020-02-23T11:45:03Z</time>
      </trkpt>
      <trkpt lat="39.0597650" lon="1.5791700">
        <ele>100.0</ele>
        <time>2020-02-23T11:45:04Z</time>
      </trkpt>
      <trkpt lat="39.0597670" lon="1.5791530">
        <ele>100.1</ele>
        <time>2020-02-23T11:45:05Z</time>
      </trkpt>
      <trkpt lat="39.0597810" lon="1.5791190">
        <ele>100.2</ele>
        <time>2020-02-23T11:45:06Z</time>
      </trkpt>
      <trkpt lat="39.0597860" lon="1.5791050">
        <ele>100.3</ele>
        <time>2020-02-23T11:45:07Z</time>
      </trkpt>
      <trkpt lat="39.0597980" lon="1.5790690">
        <ele>100.4</ele>
        <time>2020-02-23T11:45:08Z</time>
      </trkpt>
      <trkpt lat="39.0598010" lon="1.5790580">
        <ele>100.5</ele>
        <time>2020-02-23T11:45:09Z</time>
      </trkpt>
      <trkpt lat="39.0598050" lon="1.5790360">
        <ele>100.5</ele>
        <time>2020-02-23T11:45:10Z</time>
      </trkpt>
      <trkpt lat="39.0598080" lon="1.5790160">
        <ele>100.6</ele>
        <time>2020-02-23T11:45:11Z</time>
      </trkpt>
      <trkpt lat="39.0598130" lon="1.5789830">
        <ele>100.7</ele>
        <time>2020-02-23T11:45:12Z</time>
      </trkpt>
      <trkpt lat="39.0598170" lon="1.5789690">
        <ele>100.7</ele>
        <time>2020-02-23T11:45:13Z</time>
      </trkpt>
      <trkpt lat="39.0598290" lon="1.5789540">
        <ele>100.8</ele>
        <time>2020-02-23T11:45:14Z</time>
      </trkpt>
      <trkpt lat="39.0598390" lon="1.5789380">
        <ele>100.9</ele>
        <time>2020-02-23T11:45:15Z</time>
      </trkpt>
      <trkpt lat="39.0598570" lon="1.5789250">
        <ele>100.9</ele>
        <time>2020-02-23T11:45:16Z</time>
      </trkpt>
      <trkpt lat="39.0598700" lon="1.5789190">
        <ele>101.0</ele>
        <time>2020-02-23T11:45:17Z</time>
      </trkpt>
      <trkpt lat="39.0598900" lon="1.5788940">
        <ele>101.1</ele>
        <time>2020-02-23T11:45:18Z</time>
      </trkpt>
      <trkpt lat="39.0599000" lon="1.5788830">
        <ele>101.1</ele>
        <time>2020-02-23T11:45:19Z</time>
      </trkpt>
      <trkpt lat="39.0599240" lon="1.5788460">
        <ele>101.2</ele>
        <time>2020-02-23T11:45:20Z</time>
      </trkpt>
      <trkpt lat="39.0599320" lon="1.5788360">
        <ele>101.2</ele>
        <time>2020-02-23T11:45:21Z</time>
      </trkpt>
      <trkpt lat="39.0599470" lon="1.5788130">
        <ele>101.3</ele>
        <time>2020-02-23T11:45:22Z</time>
      </trkpt>
      <trkpt lat="39.0599520" lon="1.5788030">
        <ele>101.3</ele>
        <time>2020-02-23T11:45:23Z</time>
      </trkpt>
      <trkpt lat="39.0599580" lon="1.5787930">
        <ele>101.3</ele>
        <time>2020-02-23T11:45:24Z</time>
      </trkpt>
      <trkpt lat="39.0599670" lon="1.5787770">
        <ele>101.3</ele>
        <time>2020-02-23T11:45:25Z</time>
      </trkpt>
      <trkpt lat="39.0599760" lon="1.5787520">
        <ele>101.2</ele>
        <time>2020-02-23T11:45:26Z</time>
      </trkpt>
      <trkpt lat="39.0599890" lon="1.5787150">
        <ele>101.2</ele>
        <time>2020-02-23T11:45:27Z</time>
      </trkpt>
      <trkpt lat="39.0599930" lon="1.5787010">
        <ele>101.2</ele>
        <time>2020-02-23T11:45:28Z</time>
      </trkpt>
      <trkpt lat="39.0600040" lon="1.5786670">
        <ele>101.2</ele>
        <time>2020-02-23T11:45:29Z</time>
      </trkpt>
      <trkpt lat="39.0600340" lon="1.5786340">
        <ele>101.1</ele>
        <time>2020-02-23T11:45:30Z</time>
      </trkpt>
      <trkpt lat="39.0600440" lon="1.5786210">
        <ele>101.0</ele>
        <time>2020-02-23T11:45:31Z</time>
      </trkpt>
      <trkpt lat="39.0600830" lon="1.5786040">
        <ele>100.9</ele>
        <time>2020-02-23T11:45:32Z</time>
      </trkpt>
      <trkpt lat="39.0600980" lon="1.5786020">
        <ele>100.9</ele>
        <time>2020-02-23T11:45:33Z</time>
      </trkpt>
      <trkpt lat="39.0601390" lon="1.5786130">
        <ele>100.8</ele>
        <time>2020-02-23T11:45:34Z</time>
      </trkpt>
      <trkpt lat="39.0601740" lon="1.5786010">
        <ele>100.6</ele>
        <time>2020-02-23T11:45:35Z</time>
      </trkpt>
      <trkpt lat="39.0601900" lon="1.5785970">
        <ele>100.5</ele>
        <time>2020-02-23T11:45:36Z</time>
      </trkpt>
      <trkpt lat="39.0602190" lon="1.5785980">
        <ele>100.4</ele>
        <time>2020-02-23T11:45:37Z</time>
      </trkpt>
      <trkpt lat="39.0602480" lon="1.5786020">
        <ele>100.2</ele>
        <time>2020-02-23T11:45:38Z</time>
      </trkpt>
      <trkpt lat="39.0602890" lon="1.5785960">
        <ele>100.0</ele>
        <time>2020-02-23T11:45:39Z</time>
      </trkpt>
      <trkpt lat="39.0603190" lon="1.5786050">
        <ele>99.8</ele>
        <time>2020-02-23T11:45:40Z</time>
      </trkpt>
      <trkpt lat="39.0603560" lon="1.5785970">
        <ele>99.6</ele>
        <time>2020-02-23T11:45:41Z</time>
      </trkpt>
      <trkpt lat="39.0603990" lon="1.5785950">
        <ele>99.3</ele>
        <time>2020-02-23T11:45:42Z</time>
      </trkpt>
      <trkpt lat="39.0604430" lon="1.5785840">
        <ele>99.1</ele>
        <time>2020-02-23T11:45:43Z</time>
      </trkpt>
      <trkpt lat="39.0604840" lon="1.5785730">
        <ele>99.0</ele>
        <time>2020-02-23T11:45:44Z</time>
      </trkpt>
      <trkpt lat="39.0605270" lon="1.5785530">
        <ele>98.9</ele>
        <time>2020-02-23T11:45:45Z</time>
      </trkpt>
      <trkpt lat="39.0605770" lon="1.5785200">
        <ele>98.7</ele>
        <time>2020-02-23T11:45:46Z</time>
      </trkpt>
      <trkpt lat="39.0606260" lon="1.5784740">
        <ele>98.5</ele>
        <time>2020-02-23T11:45:47Z</time>
      </trkpt>
      <trkpt lat="39.0606750" lon="1.5784140">
        <ele>98.4</ele>
        <time>2020-02-23T11:45:48Z</time>
      </trkpt>
      <trkpt lat="39.0607230" lon="1.5783470">
        <ele>98.3</ele>
        <time>2020-02-23T11:45:49Z</time>
      </trkpt>
      <trkpt lat="39.0607540" lon="1.5782800">
        <ele>98.1</ele>
        <time>2020-02-23T11:45:50Z</time>
      </trkpt>
      <trkpt lat="39.0607760" lon="1.5782040">
        <ele>98.1</ele>
        <time>2020-02-23T11:45:51Z</time>
      </trkpt>
      <trkpt lat="39.0608040" lon="1.5781270">
        <ele>98.1</ele>
        <time>2020-02-23T11:45:52Z</time>
      </trkpt>
      <trkpt lat="39.0608600" lon="1.5780840">
        <ele>98.1</ele>
        <time>2020-02-23T11:45:53Z</time>
      </trkpt>
      <trkpt lat="39.0609080" lon="1.5780400">
        <ele>98.3</ele>
        <time>2020-02-23T11:45:54Z</time>
      </trkpt>
      <trkpt lat="39.0609590" lon="1.5780040">
        <ele>98.5</ele>
        <time>2020-02-23T11:45:55Z</time>
      </trkpt>
      <trkpt lat="39.0610110" lon="1.5779680">
        <ele>98.7</ele>
        <time>2020-02-23T11:45:56Z</time>
      </trkpt>
      <trkpt lat="39.0610500" lon="1.5779490">
        <ele>98.9</ele>
        <time>2020-02-23T11:45:57Z</time>
      </trkpt>
      <trkpt lat="39.0610920" lon="1.5779370">
        <ele>99.1</ele>
        <time>2020-02-23T11:45:58Z</time>
      </trkpt>
      <trkpt lat="39.0611370" lon="1.5779210">
        <ele>99.3</ele>
        <time>2020-02-23T11:45:59Z</time>
      </trkpt>
      <trkpt lat="39.0611860" lon="1.5778980">
        <ele>99.7</ele>
        <time>2020-02-23T11:46:00Z</time>
      </trkpt>
      <trkpt lat="39.0612450" lon="1.5778760">
        <ele>100.1</ele>
        <time>2020-02-23T11:46:01Z</time>
      </trkpt>
      <trkpt lat="39.0613050" lon="1.5778590">
        <ele>100.4</ele>
        <time>2020-02-23T11:46:02Z</time>
      </trkpt>
      <trkpt lat="39.0613630" lon="1.5778510">
        <ele>100.7</ele>
        <time>2020-02-23T11:46:03Z</time>
      </trkpt>
      <trkpt lat="39.0614110" lon="1.5778400">
        <ele>101.0</ele>
        <time>2020-02-23T11:46:04Z</time>
      </trkpt>
      <trkpt lat="39.0614510" lon="1.5778260">
        <ele>101.3</ele>
        <time>2020-02-23T11:46:05Z</time>
      </trkpt>
      <trkpt lat="39.0614890" lon="1.5778140">
        <ele>101.7</ele>
        <time>2020-02-23T11:46:06Z</time>
      </trkpt>
      <trkpt lat="39.0615140" lon="1.5777980">
        <ele>101.9</ele>
        <time>2020-02-23T11:46:07Z</time>
      </trkpt>
      <trkpt lat="39.0615500" lon="1.5777960">
        <ele>102.2</ele>
        <time>2020-02-23T11:46:08Z</time>
      </trkpt>
      <trkpt lat="39.0615780" lon="1.5777890">
        <ele>102.4</ele>
        <time>2020-02-23T11:46:09Z</time>
      </trkpt>
      <trkpt lat="39.0616080" lon="1.5777870">
        <ele>102.6</ele>
        <time>2020-02-23T11:46:10Z</time>
      </trkpt>
      <trkpt lat="39.0616350" lon="1.5777770">
        <ele>102.8</ele>
        <time>2020-02-23T11:46:11Z</time>
      </trkpt>
      <trkpt lat="39.0616750" lon="1.5777660">
        <ele>103.1</ele>
        <time>2020-02-23T11:46:12Z</time>
      </trkpt>
      <trkpt lat="39.0616910" lon="1.5777590">
        <ele>103.2</ele>
        <time>2020-02-23T11:46:13Z</time>
      </trkpt>
      <trkpt lat="39.0617300" lon="1.5777630">
        <ele>103.4</ele>
        <time>2020-02-23T11:46:14Z</time>
      </trkpt>
      <trkpt lat="39.0617610" lon="1.5777560">
        <ele>103.6</ele>
        <time>2020-02-23T11:46:15Z</time>
      </trkpt>
      <trkpt lat="39.0617940" lon="1.5777500">
        <ele>103.8</ele>
        <time>2020-02-23T11:46:16Z</time>
      </trkpt>
      <trkpt lat="39.0618040" lon="1.5777450">
        <ele>103.9</ele>
        <time>2020-02-23T11:46:17Z</time>
      </trkpt>
      <trkpt lat="39.0618180" lon="1.5777380">
        <ele>104.0</ele>
        <time>2020-02-23T11:46:18Z</time>
      </trkpt>
      <trkpt lat="39.0618390" lon="1.5777340">
        <ele>104.1</ele>
        <time>2020-02-23T11:46:19Z</time>
      </trkpt>
      <trkpt lat="39.0618710" lon="1.5777260">
        <ele>104.3</ele>
        <time>2020-02-23T11:46:20Z</time>
      </trkpt>
      <trkpt lat="39.0618810" lon="1.5777240">
        <ele>104.4</ele>
        <time>2020-02-23T11:46:21Z</time>
      </trkpt>
      <trkpt lat="39.0619070" lon="1.5777100">
        <ele>104.5</ele>
        <time>2020-02-23T11:46:22Z</time>
      </trkpt>
      <trkpt lat="39.0619350" lon="1.5776930">
        <ele>104.7</ele>
        <time>2020-02-23T11:46:23Z</time>
      </trkpt>
      <trkpt lat="39.0619450" lon="1.5776830">
        <ele>104.8</ele>
        <time>2020-02-23T11:46:24Z</time>
      </trkpt>
      <trkpt lat="39.0619640" lon="1.5776720">
        <ele>105.0</ele>
        <time>2020-02-23T11:46:25Z</time>
      </trkpt>
      <trkpt lat="39.0619730" lon="1.5776640">
        <ele>105.1</ele>
        <time>2020-02-23T11:46:26Z</time>
      </trkpt>
      <trkpt lat="39.0619820" lon="1.5776550">
        <ele>105.2</ele>
        <time>2020-02-23T11:46:27Z</time>
      </trkpt>
      <trkpt lat="39.0620150" lon="1.5776340">
        <ele>105.5</ele>
        <time>2020-02-23T11:46:28Z</time>
      </trkpt>
      <trkpt lat="39.0620270" lon="1.5776260">
        <ele>105.6</ele>
        <time>2020-02-23T11:46:29Z</time>
      </trkpt>
      <trkpt lat="39.0620580" lon="1.5776090">
        <ele>105.9</ele>
        <time>2020-02-23T11:46:30Z</time>
      </trkpt>
      <trkpt lat="39.0620690" lon="1.5776010">
        <ele>106.0</ele>
        <time>2020-02-23T11:46:31Z</time>
      </trkpt>
      <trkpt lat="39.0620980" lon="1.5775860">
        <ele>106.3</ele>
        <time>2020-02-23T11:46:32Z</time>
      </trkpt>
      <trkpt lat="39.0621070" lon="1.5775810">
        <ele>106.4</ele>
        <time>2020-02-23T11:46:33Z</time>
      </trkpt>
      <trkpt lat="39.0621370" lon="1.5775630">
        <ele>106.7</ele>
        <time>2020-02-23T11:46:34Z</time>
      </trkpt>
      <trkpt lat="39.0621510" lon="1.5775510">
        <ele>106.8</ele>
        <time>2020-02-23T11:46:35Z</time>
      </trkpt>
      <trkpt lat="39.0621730" lon="1.5775270">
        <ele>107.1</ele>
        <time>2020-02-23T11:46:36Z</time>
      </trkpt>
      <trkpt lat="39.0621940" lon="1.5774900">
        <ele>107.4</ele>
        <time>2020-02-23T11:46:37Z</time>
      </trkpt>
      <trkpt lat="39.0622010" lon="1.5774800">
        <ele>107.5</ele>
        <time>2020-02-23T11:46:38Z</time>
      </trkpt>
      <trkpt lat="39.0622070" lon="1.5774680">
        <ele>107.6</ele>
        <time>2020-02-23T11:46:39Z</time>
      </trkpt>
      <trkpt lat="39.0622230" lon="1.5774460">
        <ele>107.8</ele>
        <time>2020-02-23T11:46:40Z</time>
      </trkpt>
      <trkpt lat="39.0622370" lon="1.5774300">
        <ele>107.9</ele>
        <time>2020-02-23T11:46:41Z</time>
      </trkpt>
      <trkpt lat="39.0622460" lon="1.5774140">
        <ele>108.1</ele>
        <time>2020-02-23T11:46:42Z</time>
      </trkpt>
      <trkpt lat="39.0622690" lon="1.5773920">
        <ele>108.3</ele>
        <time>2020-02-23T11:46:43Z</time>
      </trkpt>
      <trkpt lat="39.0622780" lon="1.5773810">
        <ele>108.4</ele>
        <time>2020-02-23T11:46:44Z</time>
      </trkpt>
      <trkpt lat="39.0623050" lon="1.5773550">
        <ele>108.6</ele>
        <time>2020-02-23T11:46:45Z</time>
      </trkpt>
      <trkpt lat="39.0623130" lon="1.5773460">
        <ele>108.7</ele>
        <time>2020-02-23T11:46:46Z</time>
      </trkpt>
      <trkpt lat="39.0623270" lon="1.5773330">
        <ele>108.8</ele>
        <time>2020-02-23T11:46:47Z</time>
      </trkpt>
      <trkpt lat="39.0623390" lon="1.5773200">
        <ele>109.0</ele>
        <time>2020-02-23T11:46:48Z</time>
      </trkpt>
      <trkpt lat="39.0623550" lon="1.5773110">
        <ele>109.2</ele>
        <time>2020-02-23T11:46:49Z</time>
      </trkpt>
      <trkpt lat="39.0623710" lon="1.5773080">
        <ele>109.5</ele>
        <time>2020-02-23T11:46:50Z</time>
      </trkpt>
      <trkpt lat="39.0623900" lon="1.5773070">
        <ele>109.7</ele>
        <time>2020-02-23T11:46:51Z</time>
      </trkpt>
      <trkpt lat="39.0624050" lon="1.5772980">
        <ele>109.9</ele>
        <time>2020-02-23T11:46:52Z</time>
      </trkpt>
      <trkpt lat="39.0624150" lon="1.5772870">
        <ele>110.1</ele>
        <time>2020-02-23T11:46:53Z</time>
      </trkpt>
      <trkpt lat="39.0624280" lon="1.5772770">
        <ele>110.3</ele>
        <time>2020-02-23T11:46:54Z</time>
      </trkpt>
      <trkpt lat="39.0624480" lon="1.5772740">
        <ele>110.5</ele>
        <time>2020-02-23T11:46:55Z</time>
      </trkpt>
      <trkpt lat="39.0624580" lon="1.5772730">
        <ele>110.7</ele>
        <time>2020-02-23T11:46:56Z</time>
      </trkpt>
      <trkpt lat="39.0624680" lon="1.5772720">
        <ele>110.8</ele>
        <time>2020-02-23T11:46:57Z</time>
      </trkpt>
      <trkpt lat="39.0624830" lon="1.5772660">
        <ele>111.0</ele>
        <time>2020-02-23T11:46:58Z</time>
      </trkpt>
      <trkpt lat="39.0625030" lon="1.5772640">
        <ele>111.3</ele>
        <time>2020-02-23T11:46:59Z</time>
      </trkpt>
      <trkpt lat="39.0625340" lon="1.5772590">
        <ele>111.7</ele>
        <time>2020-02-23T11:47:00Z</time>
      </trkpt>
      <trkpt lat="39.0625450" lon="1.5772600">
        <ele>111.9</ele>
        <time>2020-02-23T11:47:01Z</time>
      </trkpt>
      <trkpt lat="39.0625610" lon="1.5772590">
        <ele>112.1</ele>
        <time>2020-02-23T11:47:02Z</time>
      </trkpt>
      <trkpt lat="39.0625750" lon="1.5772600">
        <ele>112.2</ele>
        <time>2020-02-23T11:47:03Z</time>
      </trkpt>
      <trkpt lat="39.0625950" lon="1.5772560">
        <ele>112.5</ele>
        <time>2020-02-23T11:47:04Z</time>
      </trkpt>
      <trkpt lat="39.0626090" lon="1.5772510">
        <ele>112.7</ele>
        <time>2020-02-23T11:47:05Z</time>
      </trkpt>
      <trkpt lat="39.0626220" lon="1.5772500">
        <ele>112.9</ele>
        <time>2020-02-23T11:47:06Z</time>
      </trkpt>
      <trkpt lat="39.0626430" lon="1.5772460">
        <ele>113.1</ele>
        <time>2020-02-23T11:47:07Z</time>
      </trkpt>
      <trkpt lat="39.0626620" lon="1.5772480">
        <ele>113.4</ele>
        <time>2020-02-23T11:47:08Z</time>
      </trkpt>
      <trkpt lat="39.0626760" lon="1.5772410">
        <ele>113.5</ele>
        <time>2020-02-23T11:47:09Z</time>
      </trkpt>
      <trkpt lat="39.0627080" lon="1.5772340">
        <ele>113.9</ele>
        <time>2020-02-23T11:47:10Z</time>
      </trkpt>
      <trkpt lat="39.0627210" lon="1.5772330">
        <ele>114.1</ele>
        <time>2020-02-23T11:47:11Z</time>
      </trkpt>
      <trkpt lat="39.0627420" lon="1.5772230">
        <ele>114.3</ele>
        <time>2020-02-23T11:47:12Z</time>
      </trkpt>
      <trkpt lat="39.0627480" lon="1.5772200">
        <ele>114.4</ele>
        <time>2020-02-23T11:47:13Z</time>
      </trkpt>
      <trkpt lat="39.0627550" lon="1.5772160">
        <ele>114.5</ele>
        <time>2020-02-23T11:47:14Z</time>
      </trkpt>
      <trkpt lat="39.0627850" lon="1.5772100">
        <ele>114.8</ele>
        <time>2020-02-23T11:47:15Z</time>
      </trkpt>
      <trkpt lat="39.0627970" lon="1.5772070">
        <ele>115.0</ele>
        <time>2020-02-23T11:47:16Z</time>
      </trkpt>
      <trkpt lat="39.0628290" lon="1.5771920">
        <ele>115.3</ele>
        <time>2020-02-23T11:47:17Z</time>
      </trkpt>
      <trkpt lat="39.0628360" lon="1.5771850">
        <ele>115.4</ele>
        <time>2020-02-23T11:47:18Z</time>
      </trkpt>
      <trkpt lat="39.0628490" lon="1.5771840">
        <ele>115.6</ele>
        <time>2020-02-23T11:47:19Z</time>
      </trkpt>
      <trkpt lat="39.0628640" lon="1.5771830">
        <ele>115.7</ele>
        <time>2020-02-23T11:47:20Z</time>
      </trkpt>
      <trkpt lat="39.0628930" lon="1.5771750">
        <ele>116.1</ele>
        <time>2020-02-23T11:47:21Z</time>
      </trkpt>
      <trkpt lat="39.0629000" lon="1.5771710">
        <ele>116.1</ele>
        <time>2020-02-23T11:47:22Z</time>
      </trkpt>
      <trkpt lat="39.0629100" lon="1.5771710">
        <ele>116.2</ele>
        <time>2020-02-23T11:47:23Z</time>
      </trkpt>
      <trkpt lat="39.0629230" lon="1.5771670">
        <ele>116.4</ele>
        <time>2020-02-23T11:47:24Z</time>
      </trkpt>
      <trkpt lat="39.0629300" lon="1.5771700">
        <ele>116.4</ele>
        <time>2020-02-23T11:47:25Z</time>
      </trkpt>
      <trkpt lat="39.0629390" lon="1.5771740">
        <ele>116.5</ele>
        <time>2020-02-23T11:47:26Z</time>
      </trkpt>
      <trkpt lat="39.0629530" lon="1.5771840">
        <ele>116.7</ele>
        <time>2020-02-23T11:47:27Z</time>
      </trkpt>
      <trkpt lat="39.0629630" lon="1.5771890">
        <ele>116.8</ele>
        <time>2020-02-23T11:47:28Z</time>
      </trkpt>
      <trkpt lat="39.0629770" lon="1.5771860">
        <ele>117.0</ele>
        <time>2020-02-23T11:47:29Z</time>
      </trkpt>
      <trkpt lat="39.0629950" lon="1.5771820">
        <ele>117.1</ele>
        <time>2020-02-23T11:47:30Z</time>
      </trkpt>
      <trkpt lat="39.0630170" lon="1.5771850">
        <ele>117.3</ele>
        <time>2020-02-23T11:47:31Z</time>
      </trkpt>
      <trkpt lat="39.0630280" lon="1.5771860">
        <ele>117.4</ele>
        <time>2020-02-23T11:47:32Z</time>
      </trkpt>
      <trkpt lat="39.0630400" lon="1.5771880">
        <ele>117.6</ele>
        <time>2020-02-23T11:47:33Z</time>
      </trkpt>
      <trkpt lat="39.0630560" lon="1.5771910">
        <ele>117.7</ele>
        <time>2020-02-23T11:47:34Z</time>
      </trkpt>
      <trkpt lat="39.0630710" lon="1.5772020">
        <ele>117.9</ele>
        <time>2020-02-23T11:47:35Z</time>
      </trkpt>
      <trkpt lat="39.0630780" lon="1.5772150">
        <ele>118.0</ele>
        <time>2020-02-23T11:47:36Z</time>
      </trkpt>
      <trkpt lat="39.0630940" lon="1.5772240">
        <ele>118.2</ele>
        <time>2020-02-23T11:47:37Z</time>
      </trkpt>
      <trkpt lat="39.0631210" lon="1.5772390">
        <ele>118.4</ele>
        <time>2020-02-23T11:47:38Z</time>
      </trkpt>
      <trkpt lat="39.0631310" lon="1.5772450">
        <ele>118.4</ele>
        <time>2020-02-23T11:47:39Z</time>
      </trkpt>
      <trkpt lat="39.0631470" lon="1.5772460">
        <ele>118.5</ele>
        <time>2020-02-23T11:47:40Z</time>
      </trkpt>
      <trkpt lat="39.0631510" lon="1.5772410">
        <ele>118.6</ele>
        <time>2020-02-23T11:47:41Z</time>
      </trkpt>
      <trkpt lat="39.0631550" lon="1.5772510">
        <ele>118.6</ele>
        <time>2020-02-23T11:47:42Z</time>
      </trkpt>
      <trkpt lat="39.0631540" lon="1.5772590">
        <ele>118.7</ele>
        <time>2020-02-23T11:47:43Z</time>
      </trkpt>
      <trkpt lat="39.0631580" lon="1.5772660">
        <ele>118.7</ele>
        <time>2020-02-23T11:47:44Z</time>
      </trkpt>
      <trkpt lat="39.0631590" lon="1.5772740">
        <ele>118.8</ele>
        <time>2020-02-23T11:47:45Z</time>
      </trkpt>
      <trkpt lat="39.0631600" lon="1.5772750">
        <ele>118.8</ele>
        <time>2020-02-23T11:47:46Z</time>
      </trkpt>
      <trkpt lat="39.0631610" lon="1.5772760">
        <ele>118.8</ele>
        <time>2020-02-23T11:47:47Z</time>
      </trkpt>
      <trkpt lat="39.0631610" lon="1.5772760">
        <ele>118.8</ele>
        <time>2020-02-23T11:47:48Z</time>
      </trkpt>
      <trkpt lat="39.0631610" lon="1.5772760">
        <ele>118.8</ele>
        <time>2020-02-23T11:47:49Z</time>
      </trkpt>
      <trkpt lat="39.0631610" lon="1.5772760">
        <ele>118.8</ele>
        <time>2020-02-23T11:47:50Z</time>
      </trkpt>
      <trkpt lat="39.0631610" lon="1.5772760">
        <ele>118.8</ele>
        <time>2020-02-23T11:47:51Z</time>
      </trkpt>
      <trkpt lat="39.0632030" lon="1.5772590">
        <ele>119.1</ele>
        <time>2020-02-23T11:48:35Z</time>
      </trkpt>
      <trkpt lat="39.0632100" lon="1.5772450">
        <ele>119.2</ele>
        <time>2020-02-23T11:48:36Z</time>
      </trkpt>
      <trkpt lat="39.0632460" lon="1.5772470">
        <ele>119.5</ele>
        <time>2020-02-23T11:48:37Z</time>
      </trkpt>
      <trkpt lat="39.0632620" lon="1.5772510">
        <ele>119.6</ele>
        <time>2020-02-23T11:48:38Z</time>
      </trkpt>
      <trkpt lat="39.0632950" lon="1.5772450">
        <ele>120.0</ele>
        <time>2020-02-23T11:48:39Z</time>
      </trkpt>
      <trkpt lat="39.0633090" lon="1.5772410">
        <ele>120.2</ele>
        <time>2020-02-23T11:48:40Z</time>
      </trkpt>
      <trkpt lat="39.0633380" lon="1.5772340">
        <ele>120.4</ele>
        <time>2020-02-23T11:48:41Z</time>
      </trkpt>
      <trkpt lat="39.0633790" lon="1.5772250">
        <ele>120.8</ele>
        <time>2020-02-23T11:48:42Z</time>
      </trkpt>
      <trkpt lat="39.0633960" lon="1.5772250">
        <ele>120.9</ele>
        <time>2020-02-23T11:48:43Z</time>
      </trkpt>
      <trkpt lat="39.0634280" lon="1.5772240">
        <ele>121.2</ele>
        <time>2020-02-23T11:48:44Z</time>
      </trkpt>
      <trkpt lat="39.0634570" lon="1.5772060">
        <ele>121.5</ele>
        <time>2020-02-23T11:48:45Z</time>
      </trkpt>
      <trkpt lat="39.0634900" lon="1.5771930">
        <ele>121.7</ele>
        <time>2020-02-23T11:48:46Z</time>
      </trkpt>
      <trkpt lat="39.0635170" lon="1.5771760">
        <ele>122.0</ele>
        <time>2020-02-23T11:48:47Z</time>
      </trkpt>
      <trkpt lat="39.0635520" lon="1.5771710">
        <ele>122.3</ele>
        <time>2020-02-23T11:48:48Z</time>
      </trkpt>
      <trkpt lat="39.0635610" lon="1.5771690">
        <ele>122.4</ele>
        <time>2020-02-23T11:48:49Z</time>
      </trkpt>
      <trkpt lat="39.0635940" lon="1.5771540">
        <ele>122.7</ele>
        <time>2020-02-23T11:48:50Z</time>
      </trkpt>
      <trkpt lat="39.0636080" lon="1.5771460">
        <ele>122.8</ele>
        <time>2020-02-23T11:48:51Z</time>
      </trkpt>
      <trkpt lat="39.0636350" lon="1.5771220">
        <ele>123.1</ele>
        <time>2020-02-23T11:48:52Z</time>
      </trkpt>
      <trkpt lat="39.0636450" lon="1.5771190">
        <ele>123.2</ele>
        <time>2020-02-23T11:48:53Z</time>
      </trkpt>
      <trkpt lat="39.0636750" lon="1.5771190">
        <ele>123.4</ele>
        <time>2020-02-23T11:48:54Z</time>
      </trkpt>
      <trkpt lat="39.0636830" lon="1.5771210">
        <ele>123.5</ele>
        <time>2020-02-23T11:48:55Z</time>
      </trkpt>
      <trkpt lat="39.0636990" lon="1.5771190">
        <ele>123.7</ele>
        <time>2020-02-23T11:48:56Z</time>
      </trkpt>
      <trkpt lat="39.0637130" lon="1.5771100">
        <ele>123.8</ele>
        <time>2020-02-23T11:48:57Z</time>
      </trkpt>
      <trkpt lat="39.0637380" lon="1.5771020">
        <ele>124.1</ele>
        <time>2020-02-23T11:48:58Z</time>
      </trkpt>
      <trkpt lat="39.0637490" lon="1.5770980">
        <ele>124.2</ele>
        <time>2020-02-23T11:48:59Z</time>
      </trkpt>
      <trkpt lat="39.0637750" lon="1.5770840">
        <ele>124.4</ele>
        <time>2020-02-23T11:49:00Z</time>
      </trkpt>
      <trkpt lat="39.0637850" lon="1.5770790">
        <ele>124.5</ele>
        <time>2020-02-23T11:49:01Z</time>
      </trkpt>
      <trkpt lat="39.0638140" lon="1.5770580">
        <ele>124.9</ele>
        <time>2020-02-23T11:49:02Z</time>
      </trkpt>
      <trkpt lat="39.0638210" lon="1.5770550">
        <ele>124.9</ele>
        <time>2020-02-23T11:49:03Z</time>
      </trkpt>
      <trkpt lat="39.0638500" lon="1.5770480">
        <ele>125.2</ele>
        <time>2020-02-23T11:49:04Z</time>
      </trkpt>
      <trkpt lat="39.0638600" lon="1.5770440">
        <ele>125.4</ele>
        <time>2020-02-23T11:49:05Z</time>
      </trkpt>
      <trkpt lat="39.0638820" lon="1.5770320">
        <ele>125.8</ele>
        <time>2020-02-23T11:49:06Z</time>
      </trkpt>
      <trkpt lat="39.0638940" lon="1.5770270">
        <ele>126.0</ele>
        <time>2020-02-23T11:49:07Z</time>
      </trkpt>
      <trkpt lat="39.0639050" lon="1.5770230">
        <ele>126.2</ele>
        <time>2020-02-23T11:49:08Z</time>
      </trkpt>
      <trkpt lat="39.0639200" lon="1.5770170">
        <ele>126.5</ele>
        <time>2020-02-23T11:49:09Z</time>
      </trkpt>
      <trkpt lat="39.0639370" lon="1.5770090">
        <ele>126.7</ele>
        <time>2020-02-23T11:49:10Z</time>
      </trkpt>
      <trkpt lat="39.0639650" lon="1.5770000">
        <ele>127.0</ele>
        <time>2020-02-23T11:49:11Z</time>
      </trkpt>
      <trkpt lat="39.0639740" lon="1.5769950">
        <ele>127.2</ele>
        <time>2020-02-23T11:49:12Z</time>
      </trkpt>
      <trkpt lat="39.0639860" lon="1.5769950">
        <ele>127.3</ele>
        <time>2020-02-23T11:49:13Z</time>
      </trkpt>
      <trkpt lat="39.0640080" lon="1.5769860">
        <ele>127.6</ele>
        <time>2020-02-23T11:49:14Z</time>
      </trkpt>
      <trkpt lat="39.0640290" lon="1.5769800">
        <ele>127.9</ele>
        <time>2020-02-23T11:49:15Z</time>
      </trkpt>
      <trkpt lat="39.0640430" lon="1.5769740">
        <ele>128.0</ele>
        <time>2020-02-23T11:49:16Z</time>
      </trkpt>
      <trkpt lat="39.0640740" lon="1.5769730">
        <ele>128.5</ele>
        <time>2020-02-23T11:49:17Z</time>
      </trkpt>
      <trkpt lat="39.0640840" lon="1.5769740">
        <ele>128.7</ele>
        <time>2020-02-23T11:49:18Z</time>
      </trkpt>
      <trkpt lat="39.0640980" lon="1.5769750">
        <ele>129.0</ele>
        <time>2020-02-23T11:49:19Z</time>
      </trkpt>
      <trkpt lat="39.0641130" lon="1.5769750">
        <ele>129.2</ele>
        <time>2020-02-23T11:49:20Z</time>
      </trkpt>
      <trkpt lat="39.0641440" lon="1.5769640">
        <ele>129.8</ele>
        <time>2020-02-23T11:49:21Z</time>
      </trkpt>
      <trkpt lat="39.0641530" lon="1.5769600">
        <ele>129.9</ele>
        <time>2020-02-23T11:49:22Z</time>
      </trkpt>
      <trkpt lat="39.0641750" lon="1.5769580">
        <ele>130.3</ele>
        <time>2020-02-23T11:49:23Z</time>
      </trkpt>
      <trkpt lat="39.0641880" lon="1.5769580">
        <ele>130.5</ele>
        <time>2020-02-23T11:49:24Z</time>
      </trkpt>
      <trkpt lat="39.0642050" lon="1.5769520">
        <ele>130.8</ele>
        <time>2020-02-23T11:49:25Z</time>
      </trkpt>
      <trkpt lat="39.0642250" lon="1.5769520">
        <ele>131.1</ele>
        <time>2020-02-23T11:49:26Z</time>
      </trkpt>
      <trkpt lat="39.0642430" lon="1.5769550">
        <ele>131.3</ele>
        <time>2020-02-23T11:49:27Z</time>
      </trkpt>
      <trkpt lat="39.0642590" lon="1.5769520">
        <ele>131.6</ele>
        <time>2020-02-23T11:49:28Z</time>
      </trkpt>
      <trkpt lat="39.0642760" lon="1.5769500">
        <ele>131.8</ele>
        <time>2020-02-23T11:49:29Z</time>
      </trkpt>
      <trkpt lat="39.0642860" lon="1.5769470">
        <ele>132.0</ele>
        <time>2020-02-23T11:49:30Z</time>
      </trkpt>
      <trkpt lat="39.0643130" lon="1.5769480">
        <ele>132.4</ele>
        <time>2020-02-23T11:49:31Z</time>
      </trkpt>
      <trkpt lat="39.0643230" lon="1.5769490">
        <ele>132.5</ele>
        <time>2020-02-23T11:49:32Z</time>
      </trkpt>
      <trkpt lat="39.0643390" lon="1.5769510">
        <ele>132.8</ele>
        <time>2020-02-23T11:49:33Z</time>
      </trkpt>
      <trkpt lat="39.0643550" lon="1.5769530">
        <ele>133.0</ele>
        <time>2020-02-23T11:49:34Z</time>
      </trkpt>
      <trkpt lat="39.0643620" lon="1.5769480">
        <ele>133.1</ele>
        <time>2020-02-23T11:49:35Z</time>
      </trkpt>
      <trkpt lat="39.0643770" lon="1.5769530">
        <ele>133.4</ele>
        <time>2020-02-23T11:49:36Z</time>
      </trkpt>
      <trkpt lat="39.0643890" lon="1.5769580">
        <ele>133.5</ele>
        <time>2020-02-23T11:49:37Z</time>
      </trkpt>
      <trkpt lat="39.0644170" lon="1.5769570">
        <ele>133.9</ele>
        <time>2020-02-23T11:49:38Z</time>
      </trkpt>
      <trkpt lat="39.0644290" lon="1.5769510">
        <ele>134.1</ele>
        <time>2020-02-23T11:49:39Z</time>
      </trkpt>
      <trkpt lat="39.0644650" lon="1.5769530">
        <ele>134.7</ele>
        <time>2020-02-23T11:49:40Z</time>
      </trkpt>
      <trkpt lat="39.0644760" lon="1.5769580">
        <ele>134.9</ele>
        <time>2020-02-23T11:49:41Z</time>
      </trkpt>
      <trkpt lat="39.0644960" lon="1.5769560">
        <ele>135.2</ele>
        <time>2020-02-23T11:49:42Z</time>
      </trkpt>
      <trkpt lat="39.0645050" lon="1.5769560">
        <ele>135.3</ele>
        <time>2020-02-23T11:49:43Z</time>
      </trkpt>
      <trkpt lat="39.0645150" lon="1.5769560">
        <ele>135.5</ele>
        <time>2020-02-23T11:49:44Z</time>
      </trkpt>
      <trkpt lat="39.0645340" lon="1.5769590">
        <ele>135.8</ele>
        <time>2020-02-23T11:49:45Z</time>
      </trkpt>
      <trkpt lat="39.0645480" lon="1.5769600">
        <ele>136.0</ele>
        <time>2020-02-23T11:49:46Z</time>
      </trkpt>
      <trkpt lat="39.0645650" lon="1.5769630">
        <ele>136.3</ele>
        <time>2020-02-23T11:49:47Z</time>
      </trkpt>
      <trkpt lat="39.0645770" lon="1.5769640">
        <ele>136.5</ele>
        <time>2020-02-23T11:49:48Z</time>
      </trkpt>
      <trkpt lat="39.0646020" lon="1.5769650">
        <ele>136.8</ele>
        <time>2020-02-23T11:49:49Z</time>
      </trkpt>
      <trkpt lat="39.0646140" lon="1.5769640">
        <ele>137.0</ele>
        <time>2020-02-23T11:49:50Z</time>
      </trkpt>
      <trkpt lat="39.0646330" lon="1.5769630">
        <ele>137.3</ele>
        <time>2020-02-23T11:49:51Z</time>
      </trkpt>
      <trkpt lat="39.0646440" lon="1.5769620">
        <ele>137.4</ele>
        <time>2020-02-23T11:49:52Z</time>
      </trkpt>
      <trkpt lat="39.0646790" lon="1.5769700">
        <ele>137.9</ele>
        <time>2020-02-23T11:49:53Z</time>
      </trkpt>
      <trkpt lat="39.0646880" lon="1.5769700">
        <ele>138.1</ele>
        <time>2020-02-23T11:49:54Z</time>
      </trkpt>
      <trkpt lat="39.0647070" lon="1.5769710">
        <ele>138.3</ele>
        <time>2020-02-23T11:49:55Z</time>
      </trkpt>
      <trkpt lat="39.0647170" lon="1.5769680">
        <ele>138.5</ele>
        <time>2020-02-23T11:49:56Z</time>
      </trkpt>
      <trkpt lat="39.0647280" lon="1.5769660">
        <ele>138.6</ele>
        <time>2020-02-23T11:49:57Z</time>
      </trkpt>
      <trkpt lat="39.0647640" lon="1.5769540">
        <ele>139.1</ele>
        <time>2020-02-23T11:49:58Z</time>
      </trkpt>
      <trkpt lat="39.0647770" lon="1.5769510">
        <ele>139.2</ele>
        <time>2020-02-23T11:49:59Z</time>
      </trkpt>
      <trkpt lat="39.0647950" lon="1.5769430">
        <ele>139.4</ele>
        <time>2020-02-23T11:50:00Z</time>
      </trkpt>
      <trkpt lat="39.0648060" lon="1.5769420">
        <ele>139.5</ele>
        <time>2020-02-23T11:50:01Z</time>
      </trkpt>
      <trkpt lat="39.0648160" lon="1.5769400">
        <ele>139.6</ele>
        <time>2020-02-23T11:50:02Z</time>
      </trkpt>
      <trkpt lat="39.0648320" lon="1.5769380">
        <ele>139.7</ele>
        <time>2020-02-23T11:50:03Z</time>
      </trkpt>
      <trkpt lat="39.0648500" lon="1.5769360">
        <ele>139.9</ele>
        <time>2020-02-23T11:50:04Z</time>
      </trkpt>
      <trkpt lat="39.0648620" lon="1.5769270">
        <ele>140.0</ele>
        <time>2020-02-23T11:50:05Z</time>
      </trkpt>
      <trkpt lat="39.0648790" lon="1.5769200">
        <ele>140.2</ele>
        <time>2020-02-23T11:50:06Z</time>
      </trkpt>
      <trkpt lat="39.0648910" lon="1.5769140">
        <ele>140.3</ele>
        <time>2020-02-23T11:50:07Z</time>
      </trkpt>
      <trkpt lat="39.0649010" lon="1.5769170">
        <ele>140.4</ele>
        <time>2020-02-23T11:50:08Z</time>
      </trkpt>
      <trkpt lat="39.0649130" lon="1.5769130">
        <ele>140.6</ele>
        <time>2020-02-23T11:50:09Z</time>
      </trkpt>
      <trkpt lat="39.0649280" lon="1.5769160">
        <ele>140.8</ele>
        <time>2020-02-23T11:50:10Z</time>
      </trkpt>
      <trkpt lat="39.0649410" lon="1.5769200">
        <ele>141.0</ele>
        <time>2020-02-23T11:50:11Z</time>
      </trkpt>
      <trkpt lat="39.0649560" lon="1.5769180">
        <ele>141.2</ele>
        <time>2020-02-23T11:50:12Z</time>
      </trkpt>
      <trkpt lat="39.0649750" lon="1.5769160">
        <ele>141.4</ele>
        <time>2020-02-23T11:50:13Z</time>
      </trkpt>
      <trkpt lat="39.0650070" lon="1.5769110">
        <ele>141.9</ele>
        <time>2020-02-23T11:50:14Z</time>
      </trkpt>
      <trkpt lat="39.0650180" lon="1.5769080">
        <ele>142.1</ele>
        <time>2020-02-23T11:50:15Z</time>
      </trkpt>
      <trkpt lat="39.0650340" lon="1.5769040">
        <ele>142.3</ele>
        <time>2020-02-23T11:50:16Z</time>
      </trkpt>
      <trkpt lat="39.0650510" lon="1.5769010">
        <ele>142.5</ele>
        <time>2020-02-23T11:50:17Z</time>
      </trkpt>
      <trkpt lat="39.0650610" lon="1.5769000">
        <ele>142.7</ele>
        <time>2020-02-23T11:50:18Z</time>
      </trkpt>
      <trkpt lat="39.0650760" lon="1.5768890">
        <ele>142.9</ele>
        <time>2020-02-23T11:50:19Z</time>
      </trkpt>
      <trkpt lat="39.0651020" lon="1.5768750">
        <ele>143.3</ele>
        <time>2020-02-23T11:50:20Z</time>
      </trkpt>
      <trkpt lat="39.0651130" lon="1.5768720">
        <ele>143.4</ele>
        <time>2020-02-23T11:50:21Z</time>
      </trkpt>
      <trkpt lat="39.0651290" lon="1.5768680">
        <ele>143.7</ele>
        <time>2020-02-23T11:50:22Z</time>
      </trkpt>
      <trkpt lat="39.0651450" lon="1.5768520">
        <ele>144.0</ele>
        <time>2020-02-23T11:50:23Z</time>
      </trkpt>
      <trkpt lat="39.0651650" lon="1.5768230">
        <ele>144.4</ele>
        <time>2020-02-23T11:50:24Z</time>
      </trkpt>
      <trkpt lat="39.0651930" lon="1.5767870">
        <ele>145.0</ele>
        <time>2020-02-23T11:50:25Z</time>
      </trkpt>
      <trkpt lat="39.0652020" lon="1.5767730">
        <ele>145.2</ele>
        <time>2020-02-23T11:50:26Z</time>
      </trkpt>
      <trkpt lat="39.0652170" lon="1.5767560">
        <ele>145.5</ele>
        <time>2020-02-23T11:50:27Z</time>
      </trkpt>
      <trkpt lat="39.0652270" lon="1.5767460">
        <ele>145.7</ele>
        <time>2020-02-23T11:50:28Z</time>
      </trkpt>
      <trkpt lat="39.0652410" lon="1.5767300">
        <ele>145.9</ele>
        <time>2020-02-23T11:50:29Z</time>
      </trkpt>
      <trkpt lat="39.0652520" lon="1.5767200">
        <ele>146.0</ele>
        <time>2020-02-23T11:50:30Z</time>
      </trkpt>
      <trkpt lat="39.0652740" lon="1.5766990">
        <ele>146.3</ele>
        <time>2020-02-23T11:50:31Z</time>
      </trkpt>
      <trkpt lat="39.0652830" lon="1.5766900">
        <ele>146.4</ele>
        <time>2020-02-23T11:50:32Z</time>
      </trkpt>
      <trkpt lat="39.0653000" lon="1.5766760">
        <ele>146.6</ele>
        <time>2020-02-23T11:50:33Z</time>
      </trkpt>
      <trkpt lat="39.0653140" lon="1.5766700">
        <ele>146.7</ele>
        <time>2020-02-23T11:50:34Z</time>
      </trkpt>
      <trkpt lat="39.0653370" lon="1.5766710">
        <ele>147.0</ele>
        <time>2020-02-23T11:50:35Z</time>
      </trkpt>
      <trkpt lat="39.0653460" lon="1.5766720">
        <ele>147.1</ele>
        <time>2020-02-23T11:50:36Z</time>
      </trkpt>
      <trkpt lat="39.0653560" lon="1.5766740">
        <ele>147.2</ele>
        <time>2020-02-23T11:50:37Z</time>
      </trkpt>
      <trkpt lat="39.0653820" lon="1.5766940">
        <ele>147.5</ele>
        <time>2020-02-23T11:50:38Z</time>
      </trkpt>
      <trkpt lat="39.0653880" lon="1.5767010">
        <ele>147.6</ele>
        <time>2020-02-23T11:50:39Z</time>
      </trkpt>
      <trkpt lat="39.0653970" lon="1.5767080">
        <ele>147.7</ele>
        <time>2020-02-23T11:50:40Z</time>
      </trkpt>
      <trkpt lat="39.0654040" lon="1.5767330">
        <ele>148.0</ele>
        <time>2020-02-23T11:50:41Z</time>
      </trkpt>
      <trkpt lat="39.0653980" lon="1.5767690">
        <ele>148.3</ele>
        <time>2020-02-23T11:50:42Z</time>
      </trkpt>
      <trkpt lat="39.0653950" lon="1.5767830">
        <ele>148.5</ele>
        <time>2020-02-23T11:50:43Z</time>
      </trkpt>
      <trkpt lat="39.0653840" lon="1.5768230">
        <ele>149.0</ele>
        <time>2020-02-23T11:50:44Z</time>
      </trkpt>
      <trkpt lat="39.0653780" lon="1.5768350">
        <ele>149.2</ele>
        <time>2020-02-23T11:50:45Z</time>
      </trkpt>
      <trkpt lat="39.0653670" lon="1.5768530">
        <ele>149.5</ele>
        <time>2020-02-23T11:50:46Z</time>
      </trkpt>
      <trkpt lat="39.0653580" lon="1.5768720">
        <ele>149.7</ele>
        <time>2020-02-23T11:50:47Z</time>
      </trkpt>
      <trkpt lat="39.0653500" lon="1.5768920">
        <ele>150.0</ele>
        <time>2020-02-23T11:50:48Z</time>
      </trkpt>
      <trkpt lat="39.0653400" lon="1.5769050">
        <ele>150.2</ele>
        <time>2020-02-23T11:50:49Z</time>
      </trkpt>
      <trkpt lat="39.0653170" lon="1.5769380">
        <ele>150.7</ele>
        <time>2020-02-23T11:50:50Z</time>
      </trkpt>
      <trkpt lat="39.0653100" lon="1.5769470">
        <ele>150.8</ele>
        <time>2020-02-23T11:50:51Z</time>
      </trkpt>
      <trkpt lat="39.0653040" lon="1.5769520">
        <ele>150.9</ele>
        <time>2020-02-23T11:50:52Z</time>
      </trkpt>
      <trkpt lat="39.0652970" lon="1.5769580">
        <ele>151.1</ele>
        <time>2020-02-23T11:50:53Z</time>
      </trkpt>
      <trkpt lat="39.0652860" lon="1.5769670">
        <ele>151.2</ele>
        <time>2020-02-23T11:50:54Z</time>
      </trkpt>
      <trkpt lat="39.0652710" lon="1.5769800">
        <ele>151.5</ele>
        <time>2020-02-23T11:50:55Z</time>
      </trkpt>
      <trkpt lat="39.0652660" lon="1.5769910">
        <ele>151.6</ele>
        <time>2020-02-23T11:50:56Z</time>
      </trkpt>
      <trkpt lat="39.0652630" lon="1.5770030">
        <ele>151.8</ele>
        <time>2020-02-23T11:50:57Z</time>
      </trkpt>
      <trkpt lat="39.0652600" lon="1.5770260">
        <ele>152.0</ele>
        <time>2020-02-23T11:50:58Z</time>
      </trkpt>
      <trkpt lat="39.0652640" lon="1.5770370">
        <ele>152.2</ele>
        <time>2020-02-23T11:50:59Z</time>
      </trkpt>
      <trkpt lat="39.0652870" lon="1.5770410">
        <ele>152.6</ele>
        <time>2020-02-23T11:51:00Z</time>
      </trkpt>
      <trkpt lat="39.0653210" lon="1.5770400">
        <ele>153.4</ele>
        <time>2020-02-23T11:51:01Z</time>
      </trkpt>
      <trkpt lat="39.0653290" lon="1.5770380">
        <ele>153.6</ele>
        <time>2020-02-23T11:51:02Z</time>
      </trkpt>
      <trkpt lat="39.0653580" lon="1.5770180">
        <ele>154.3</ele>
        <time>2020-02-23T11:51:03Z</time>
      </trkpt>
      <trkpt lat="39.0653650" lon="1.5770080">
        <ele>154.5</ele>
        <time>2020-02-23T11:51:04Z</time>
      </trkpt>
      <trkpt lat="39.0653880" lon="1.5769850">
        <ele>155.1</ele>
        <time>2020-02-23T11:51:05Z</time>
      </trkpt>
      <trkpt lat="39.0653940" lon="1.5769760">
        <ele>155.3</ele>
        <time>2020-02-23T11:51:06Z</time>
      </trkpt>
      <trkpt lat="39.0654060" lon="1.5769600">
        <ele>155.7</ele>
        <time>2020-02-23T11:51:07Z</time>
      </trkpt>
      <trkpt lat="39.0654150" lon="1.5769450">
        <ele>156.1</ele>
        <time>2020-02-23T11:51:08Z</time>
      </trkpt>
      <trkpt lat="39.0654350" lon="1.5769170">
        <ele>156.8</ele>
        <time>2020-02-23T11:51:09Z</time>
      </trkpt>
      <trkpt lat="39.0654420" lon="1.5769070">
        <ele>157.1</ele>
        <time>2020-02-23T11:51:10Z</time>
      </trkpt>
      <trkpt lat="39.0654660" lon="1.5768720">
        <ele>157.9</ele>
        <time>2020-02-23T11:51:11Z</time>
      </trkpt>
      <trkpt lat="39.0654750" lon="1.5768590">
        <ele>158.2</ele>
        <time>2020-02-23T11:51:12Z</time>
      </trkpt>
      <trkpt lat="39.0654990" lon="1.5768280">
        <ele>158.9</ele>
        <time>2020-02-23T11:51:13Z</time>
      </trkpt>
      <trkpt lat="39.0655090" lon="1.5768160">
        <ele>159.1</ele>
        <time>2020-02-23T11:51:14Z</time>
      </trkpt>
      <trkpt lat="39.0655320" lon="1.5767910">
        <ele>159.7</ele>
        <time>2020-02-23T11:51:15Z</time>
      </trkpt>
      <trkpt lat="39.0655360" lon="1.5767800">
        <ele>159.8</ele>
        <time>2020-02-23T11:51:16Z</time>
      </trkpt>
      <trkpt lat="39.0655570" lon="1.5767550">
        <ele>160.1</ele>
        <time>2020-02-23T11:51:17Z</time>
      </trkpt>
      <trkpt lat="39.0655640" lon="1.5767460">
        <ele>160.2</ele>
        <time>2020-02-23T11:51:18Z</time>
      </trkpt>
      <trkpt lat="39.0655870" lon="1.5767300">
        <ele>160.5</ele>
        <time>2020-02-23T11:51:19Z</time>
      </trkpt>
      <trkpt lat="39.0655980" lon="1.5767220">
        <ele>160.6</ele>
        <time>2020-02-23T11:51:20Z</time>
      </trkpt>
      <trkpt lat="39.0656200" lon="1.5766940">
        <ele>160.9</ele>
        <time>2020-02-23T11:51:21Z</time>
      </trkpt>
      <trkpt lat="39.0656270" lon="1.5766840">
        <ele>161.0</ele>
        <time>2020-02-23T11:51:22Z</time>
      </trkpt>
      <trkpt lat="39.0656410" lon="1.5766640">
        <ele>161.2</ele>
        <time>2020-02-23T11:51:23Z</time>
      </trkpt>
      <trkpt lat="39.0656490" lon="1.5766550">
        <ele>161.3</ele>
        <time>2020-02-23T11:51:24Z</time>
      </trkpt>
      <trkpt lat="39.0656560" lon="1.5766460">
        <ele>161.4</ele>
        <time>2020-02-23T11:51:25Z</time>
      </trkpt>
      <trkpt lat="39.0656660" lon="1.5766330">
        <ele>161.6</ele>
        <time>2020-02-23T11:51:26Z</time>
      </trkpt>
      <trkpt lat="39.0656820" lon="1.5766130">
        <ele>161.8</ele>
        <time>2020-02-23T11:51:27Z</time>
      </trkpt>
      <trkpt lat="39.0657090" lon="1.5765870">
        <ele>162.0</ele>
        <time>2020-02-23T11:51:28Z</time>
      </trkpt>
      <trkpt lat="39.0657160" lon="1.5765780">
        <ele>162.0</ele>
        <time>2020-02-23T11:51:29Z</time>
      </trkpt>
      <trkpt lat="39.0657380" lon="1.5765500">
        <ele>162.3</ele>
        <time>2020-02-23T11:51:30Z</time>
      </trkpt>
      <trkpt lat="39.0657450" lon="1.5765400">
        <ele>162.3</ele>
        <time>2020-02-23T11:51:31Z</time>
      </trkpt>
      <trkpt lat="39.0657700" lon="1.5765110">
        <ele>162.5</ele>
        <time>2020-02-23T11:51:32Z</time>
      </trkpt>
      <trkpt lat="39.0657770" lon="1.5765030">
        <ele>162.6</ele>
        <time>2020-02-23T11:51:33Z</time>
      </trkpt>
      <trkpt lat="39.0657860" lon="1.5764960">
        <ele>162.7</ele>
        <time>2020-02-23T11:51:34Z</time>
      </trkpt>
      <trkpt lat="39.0657980" lon="1.5764790">
        <ele>162.8</ele>
        <time>2020-02-23T11:51:35Z</time>
      </trkpt>
      <trkpt lat="39.0658050" lon="1.5764670">
        <ele>162.9</ele>
        <time>2020-02-23T11:51:36Z</time>
      </trkpt>
      <trkpt lat="39.0658080" lon="1.5764620">
        <ele>162.9</ele>
        <time>2020-02-23T11:51:37Z</time>
      </trkpt>
      <trkpt lat="39.0658170" lon="1.5764530">
        <ele>163.0</ele>
        <time>2020-02-23T11:51:38Z</time>
      </trkpt>
      <trkpt lat="39.0658420" lon="1.5764310">
        <ele>163.2</ele>
        <time>2020-02-23T11:51:39Z</time>
      </trkpt>
      <trkpt lat="39.0658480" lon="1.5764250">
        <ele>163.2</ele>
        <time>2020-02-23T11:51:40Z</time>
      </trkpt>
      <trkpt lat="39.0658650" lon="1.5764110">
        <ele>163.4</ele>
        <time>2020-02-23T11:51:41Z</time>
      </trkpt>
      <trkpt lat="39.0658790" lon="1.5764020">
        <ele>163.5</ele>
        <time>2020-02-23T11:51:42Z</time>
      </trkpt>
      <trkpt lat="39.0659010" lon="1.5763980">
        <ele>163.7</ele>
        <time>2020-02-23T11:51:43Z</time>
      </trkpt>
      <trkpt lat="39.0659100" lon="1.5763900">
        <ele>163.8</ele>
        <time>2020-02-23T11:51:44Z</time>
      </trkpt>
      <trkpt lat="39.0659180" lon="1.5763830">
        <ele>163.9</ele>
        <time>2020-02-23T11:51:45Z</time>
      </trkpt>
      <trkpt lat="39.0659360" lon="1.5763630">
        <ele>164.2</ele>
        <time>2020-02-23T11:51:46Z</time>
      </trkpt>
      <trkpt lat="39.0659430" lon="1.5763560">
        <ele>164.3</ele>
        <time>2020-02-23T11:51:47Z</time>
      </trkpt>
      <trkpt lat="39.0659500" lon="1.5763500">
        <ele>164.4</ele>
        <time>2020-02-23T11:51:48Z</time>
      </trkpt>
      <trkpt lat="39.0659620" lon="1.5763340">
        <ele>164.6</ele>
        <time>2020-02-23T11:51:49Z</time>
      </trkpt>
      <trkpt lat="39.0659740" lon="1.5763240">
        <ele>164.7</ele>
        <time>2020-02-23T11:51:50Z</time>
      </trkpt>
      <trkpt lat="39.0659710" lon="1.5762960">
        <ele>164.9</ele>
        <time>2020-02-23T11:51:51Z</time>
      </trkpt>
      <trkpt lat="39.0659850" lon="1.5762830">
        <ele>165.1</ele>
        <time>2020-02-23T11:51:52Z</time>
      </trkpt>
      <trkpt lat="39.0660050" lon="1.5762590">
        <ele>165.4</ele>
        <time>2020-02-23T11:51:53Z</time>
      </trkpt>
      <trkpt lat="39.0660250" lon="1.5762300">
        <ele>165.6</ele>
        <time>2020-02-23T11:51:54Z</time>
      </trkpt>
      <trkpt lat="39.0660300" lon="1.5762210">
        <ele>165.6</ele>
        <time>2020-02-23T11:51:55Z</time>
      </trkpt>
      <trkpt lat="39.0660460" lon="1.5761870">
        <ele>165.8</ele>
        <time>2020-02-23T11:51:56Z</time>
      </trkpt>
      <trkpt lat="39.0660520" lon="1.5761790">
        <ele>165.9</ele>
        <time>2020-02-23T11:51:57Z</time>
      </trkpt>
      <trkpt lat="39.0660660" lon="1.5761610">
        <ele>166.0</ele>
        <time>2020-02-23T11:51:58Z</time>
      </trkpt>
      <trkpt lat="39.0660680" lon="1.5761500">
        <ele>166.1</ele>
        <time>2020-02-23T11:51:59Z</time>
      </trkpt>
      <trkpt lat="39.0660880" lon="1.5761240">
        <ele>166.3</ele>
        <time>2020-02-23T11:52:00Z</time>
      </trkpt>
      <trkpt lat="39.0660940" lon="1.5761140">
        <ele>166.4</ele>
        <time>2020-02-23T11:52:01Z</time>
      </trkpt>
      <trkpt lat="39.0660970" lon="1.5760810">
        <ele>166.5</ele>
        <time>2020-02-23T11:52:02Z</time>
      </trkpt>
      <trkpt lat="39.0661020" lon="1.5760730">
        <ele>166.6</ele>
        <time>2020-02-23T11:52:03Z</time>
      </trkpt>
      <trkpt lat="39.0661060" lon="1.5760650">
        <ele>166.7</ele>
        <time>2020-02-23T11:52:04Z</time>
      </trkpt>
      <trkpt lat="39.0661090" lon="1.5760410">
        <ele>166.9</ele>
        <time>2020-02-23T11:52:05Z</time>
      </trkpt>
      <trkpt lat="39.0661120" lon="1.5760220">
        <ele>167.0</ele>
        <time>2020-02-23T11:52:06Z</time>
      </trkpt>
      <trkpt lat="39.0661110" lon="1.5759890">
        <ele>167.3</ele>
        <time>2020-02-23T11:52:07Z</time>
      </trkpt>
      <trkpt lat="39.0661080" lon="1.5759800">
        <ele>167.3</ele>
        <time>2020-02-23T11:52:08Z</time>
      </trkpt>
      <trkpt lat="39.0661040" lon="1.5759700">
        <ele>167.4</ele>
        <time>2020-02-23T11:52:09Z</time>
      </trkpt>
      <trkpt lat="39.0660850" lon="1.5759200">
        <ele>167.9</ele>
        <time>2020-02-23T11:52:10Z</time>
      </trkpt>
      <trkpt lat="39.0660740" lon="1.5759010">
        <ele>168.2</ele>
        <time>2020-02-23T11:52:11Z</time>
      </trkpt>
      <trkpt lat="39.0660510" lon="1.5758560">
        <ele>168.8</ele>
        <time>2020-02-23T11:52:12Z</time>
      </trkpt>
      <trkpt lat="39.0660550" lon="1.5758010">
        <ele>169.4</ele>
        <time>2020-02-23T11:52:13Z</time>
      </trkpt>
      <trkpt lat="39.0660520" lon="1.5757760">
        <ele>169.6</ele>
        <time>2020-02-23T11:52:14Z</time>
      </trkpt>
      <trkpt lat="39.0660360" lon="1.5757410">
        <ele>169.9</ele>
        <time>2020-02-23T11:52:15Z</time>
      </trkpt>
      <trkpt lat="39.0660140" lon="1.5757240">
        <ele>170.1</ele>
        <time>2020-02-23T11:52:16Z</time>
      </trkpt>
      <trkpt lat="39.0660080" lon="1.5757120">
        <ele>170.2</ele>
        <time>2020-02-23T11:52:17Z</time>
      </trkpt>
      <trkpt lat="39.0660040" lon="1.5756850">
        <ele>170.4</ele>
        <time>2020-02-23T11:52:18Z</time>
      </trkpt>
      <trkpt lat="39.0660020" lon="1.5756730">
        <ele>170.5</ele>
        <time>2020-02-23T11:52:19Z</time>
      </trkpt>
      <trkpt lat="39.0660000" lon="1.5756620">
        <ele>170.6</ele>
        <time>2020-02-23T11:52:20Z</time>
      </trkpt>
      <trkpt lat="39.0660040" lon="1.5756260">
        <ele>170.8</ele>
        <time>2020-02-23T11:52:21Z</time>
      </trkpt>
      <trkpt lat="39.0660020" lon="1.5756110">
        <ele>171.0</ele>
        <time>2020-02-23T11:52:22Z</time>
      </trkpt>
      <trkpt lat="39.0660120" lon="1.5755840">
        <ele>171.3</ele>
        <time>2020-02-23T11:52:23Z</time>
      </trkpt>
      <trkpt lat="39.0660190" lon="1.5755670">
        <ele>171.5</ele>
        <time>2020-02-23T11:52:24Z</time>
      </trkpt>
      <trkpt lat="39.0660290" lon="1.5755550">
        <ele>171.6</ele>
        <time>2020-02-23T11:52:25Z</time>
      </trkpt>
      <trkpt lat="39.0660330" lon="1.5755590">
        <ele>171.7</ele>
        <time>2020-02-23T11:52:26Z</time>
      </trkpt>
      <trkpt lat="39.0660460" lon="1.5755420">
        <ele>171.8</ele>
        <time>2020-02-23T11:52:27Z</time>
      </trkpt>
      <trkpt lat="39.0660650" lon="1.5755110">
        <ele>172.1</ele>
        <time>2020-02-23T11:52:28Z</time>
      </trkpt>
      <trkpt lat="39.0660710" lon="1.5754990">
        <ele>172.1</ele>
        <time>2020-02-23T11:52:29Z</time>
      </trkpt>
      <trkpt lat="39.0660770" lon="1.5754790">
        <ele>172.3</ele>
        <time>2020-02-23T11:52:30Z</time>
      </trkpt>
      <trkpt lat="39.0660880" lon="1.5754700">
        <ele>172.4</ele>
        <time>2020-02-23T11:52:31Z</time>
      </trkpt>
      <trkpt lat="39.0661020" lon="1.5754370">
        <ele>172.6</ele>
        <time>2020-02-23T11:52:32Z</time>
      </trkpt>
      <trkpt lat="39.0661100" lon="1.5754260">
        <ele>172.6</ele>
        <time>2020-02-23T11:52:33Z</time>
      </trkpt>
      <trkpt lat="39.0661400" lon="1.5753930">
        <ele>172.8</ele>
        <time>2020-02-23T11:52:34Z</time>
      </trkpt>
      <trkpt lat="39.0661480" lon="1.5753820">
        <ele>172.8</ele>
        <time>2020-02-23T11:52:35Z</time>
      </trkpt>
      <trkpt lat="39.0661720" lon="1.5753490">
        <ele>172.9</ele>
        <time>2020-02-23T11:52:36Z</time>
      </trkpt>
      <trkpt lat="39.0661760" lon="1.5753390">
        <ele>173.0</ele>
        <time>2020-02-23T11:52:37Z</time>
      </trkpt>
      <trkpt lat="39.0661900" lon="1.5753060">
        <ele>173.1</ele>
        <time>2020-02-23T11:52:38Z</time>
      </trkpt>
      <trkpt lat="39.0661950" lon="1.5752970">
        <ele>173.1</ele>
        <time>2020-02-23T11:52:39Z</time>
      </trkpt>
      <trkpt lat="39.0662030" lon="1.5752870">
        <ele>173.1</ele>
        <time>2020-02-23T11:52:40Z</time>
      </trkpt>
      <trkpt lat="39.0662130" lon="1.5752640">
        <ele>173.2</ele>
        <time>2020-02-23T11:52:41Z</time>
      </trkpt>
      <trkpt lat="39.0662210" lon="1.5752420">
        <ele>173.3</ele>
        <time>2020-02-23T11:52:42Z</time>
      </trkpt>
      <trkpt lat="39.0662270" lon="1.5752300">
        <ele>173.3</ele>
        <time>2020-02-23T11:52:43Z</time>
      </trkpt>
      <trkpt lat="39.0662380" lon="1.5752210">
        <ele>173.4</ele>
        <time>2020-02-23T11:52:44Z</time>
      </trkpt>
      <trkpt lat="39.0662470" lon="1.5752030">
        <ele>173.4</ele>
        <time>2020-02-23T11:52:45Z</time>
      </trkpt>
      <trkpt lat="39.0662640" lon="1.5751850">
        <ele>173.5</ele>
        <time>2020-02-23T11:52:46Z</time>
      </trkpt>
      <trkpt lat="39.0662680" lon="1.5751660">
        <ele>173.6</ele>
        <time>2020-02-23T11:52:47Z</time>
      </trkpt>
      <trkpt lat="39.0662760" lon="1.5751480">
        <ele>173.6</ele>
        <time>2020-02-23T11:52:48Z</time>
      </trkpt>
      <trkpt lat="39.0662850" lon="1.5751280">
        <ele>173.7</ele>
        <time>2020-02-23T11:52:49Z</time>
      </trkpt>
      <trkpt lat="39.0663050" lon="1.5750860">
        <ele>173.8</ele>
        <time>2020-02-23T11:52:50Z</time>
      </trkpt>
      <trkpt lat="39.0663110" lon="1.5750660">
        <ele>173.9</ele>
        <time>2020-02-23T11:52:51Z</time>
      </trkpt>
      <trkpt lat="39.0663380" lon="1.5750310">
        <ele>174.0</ele>
        <time>2020-02-23T11:52:52Z</time>
      </trkpt>
      <trkpt lat="39.0663480" lon="1.5750000">
        <ele>174.2</ele>
        <time>2020-02-23T11:52:53Z</time>
      </trkpt>
      <trkpt lat="39.0663500" lon="1.5749830">
        <ele>174.0</ele>
        <time>2020-02-23T11:52:54Z</time>
      </trkpt>
      <trkpt lat="39.0663600" lon="1.5749460">
        <ele>173.7</ele>
        <time>2020-02-23T11:52:55Z</time>
      </trkpt>
      <trkpt lat="39.0663650" lon="1.5749320">
        <ele>173.5</ele>
        <time>2020-02-23T11:52:56Z</time>
      </trkpt>
      <trkpt lat="39.0663760" lon="1.5748890">
        <ele>173.1</ele>
        <time>2020-02-23T11:52:57Z</time>
      </trkpt>
      <trkpt lat="39.0663820" lon="1.5748740">
        <ele>172.9</ele>
        <time>2020-02-23T11:52:58Z</time>
      </trkpt>
      <trkpt lat="39.0663770" lon="1.5748580">
        <ele>172.7</ele>
        <time>2020-02-23T11:52:59Z</time>
      </trkpt>
      <trkpt lat="39.0663850" lon="1.5748390">
        <ele>172.5</ele>
        <time>2020-02-23T11:53:00Z</time>
      </trkpt>
      <trkpt lat="39.0663910" lon="1.5748290">
        <ele>172.4</ele>
        <time>2020-02-23T11:53:01Z</time>
      </trkpt>
      <trkpt lat="39.0663920" lon="1.5748220">
        <ele>172.3</ele>
        <time>2020-02-23T11:53:02Z</time>
      </trkpt>
      <trkpt lat="39.0663910" lon="1.5748180">
        <ele>172.2</ele>
        <time>2020-02-23T11:53:03Z</time>
      </trkpt>
      <trkpt lat="39.0663860" lon="1.5748180">
        <ele>172.1</ele>
        <time>2020-02-23T11:53:04Z</time>
      </trkpt>
      <trkpt lat="39.0663840" lon="1.5748000">
        <ele>171.9</ele>
        <time>2020-02-23T11:53:05Z</time>
      </trkpt>
      <trkpt lat="39.0663800" lon="1.5747590">
        <ele>171.4</ele>
        <time>2020-02-23T11:53:06Z</time>
      </trkpt>
      <trkpt lat="39.0663770" lon="1.5747480">
        <ele>171.2</ele>
        <time>2020-02-23T11:53:07Z</time>
      </trkpt>
      <trkpt lat="39.0663770" lon="1.5747280">
        <ele>171.0</ele>
        <time>2020-02-23T11:53:08Z</time>
      </trkpt>
      <trkpt lat="39.0663790" lon="1.5747260">
        <ele>170.9</ele>
        <time>2020-02-23T11:53:09Z</time>
      </trkpt>
      <trkpt lat="39.0663800" lon="1.5747250">
        <ele>170.9</ele>
        <time>2020-02-23T11:53:10Z</time>
      </trkpt>
      <trkpt lat="39.0663810" lon="1.5747240">
        <ele>170.9</ele>
        <time>2020-02-23T11:53:11Z</time>
      </trkpt>
      <trkpt lat="39.0663830" lon="1.5747220">
        <ele>170.8</ele>
        <time>2020-02-23T11:53:12Z</time>
      </trkpt>
      <trkpt lat="39.0663840" lon="1.5747210">
        <ele>170.8</ele>
        <time>2020-02-23T11:53:13Z</time>
      </trkpt>
      <trkpt lat="39.0663850" lon="1.5747200">
        <ele>170.8</ele>
        <time>2020-02-23T11:53:14Z</time>
      </trkpt>
      <trkpt lat="39.0663860" lon="1.5747180">
        <ele>170.8</ele>
        <time>2020-02-23T11:53:15Z</time>
      </trkpt>
      <trkpt lat="39.0663880" lon="1.5747170">
        <ele>170.7</ele>
        <time>2020-02-23T11:53:16Z</time>
      </trkpt>
      <trkpt lat="39.0663890" lon="1.5747160">
        <ele>170.7</ele>
        <time>2020-02-23T11:53:17Z</time>
      </trkpt>
      <trkpt lat="39.0663900" lon="1.5747140">
        <ele>170.7</ele>
        <time>2020-02-23T11:53:18Z</time>
      </trkpt>
      <trkpt lat="39.0663920" lon="1.5747130">
        <ele>170.7</ele>
        <time>2020-02-23T11:53:19Z</time>
      </trkpt>
      <trkpt lat="39.0663930" lon="1.5747110">
        <ele>170.6</ele>
        <time>2020-02-23T11:53:20Z</time>
      </trkpt>
      <trkpt lat="39.0663940" lon="1.5747100">
        <ele>170.6</ele>
        <time>2020-02-23T11:53:21Z</time>
      </trkpt>
      <trkpt lat="39.0663960" lon="1.5747090">
        <ele>170.5</ele>
        <time>2020-02-23T11:53:22Z</time>
      </trkpt>
      <trkpt lat="39.0663970" lon="1.5747070">
        <ele>170.5</ele>
        <time>2020-02-23T11:53:23Z</time>
      </trkpt>
      <trkpt lat="39.0663980" lon="1.5747060">
        <ele>170.5</ele>
        <time>2020-02-23T11:53:24Z</time>
      </trkpt>
      <trkpt lat="39.0663990" lon="1.5747050">
        <ele>170.5</ele>
        <time>2020-02-23T11:53:25Z</time>
      </trkpt>
      <trkpt lat="39.0664010" lon="1.5747030">
        <ele>170.4</ele>
        <time>2020-02-23T11:53:26Z</time>
      </trkpt>
      <trkpt lat="39.0664020" lon="1.5747020">
        <ele>170.4</ele>
        <time>2020-02-23T11:53:27Z</time>
      </trkpt>
      <trkpt lat="39.0664120" lon="1.5746890">
        <ele>170.1</ele>
        <time>2020-02-23T11:53:28Z</time>
      </trkpt>
      <trkpt lat="39.0664320" lon="1.5746920">
        <ele>169.6</ele>
        <time>2020-02-23T11:53:29Z</time>
      </trkpt>
      <trkpt lat="39.0664610" lon="1.5747100">
        <ele>168.9</ele>
        <time>2020-02-23T11:53:30Z</time>
      </trkpt>
      <trkpt lat="39.0664870" lon="1.5747240">
        <ele>168.3</ele>
        <time>2020-02-23T11:53:31Z</time>
      </trkpt>
      <trkpt lat="39.0665150" lon="1.5747410">
        <ele>167.5</ele>
        <time>2020-02-23T11:53:32Z</time>
      </trkpt>
      <trkpt lat="39.0665540" lon="1.5747690">
        <ele>166.4</ele>
        <time>2020-02-23T11:53:33Z</time>
      </trkpt>
      <trkpt lat="39.0666010" lon="1.5748070">
        <ele>164.9</ele>
        <time>2020-02-23T11:53:34Z</time>
      </trkpt>
      <trkpt lat="39.0666450" lon="1.5748310">
        <ele>163.9</ele>
        <time>2020-02-23T11:53:35Z</time>
      </trkpt>
      <trkpt lat="39.0666760" lon="1.5748310">
        <ele>163.3</ele>
        <time>2020-02-23T11:53:36Z</time>
      </trkpt>
      <trkpt lat="39.0666870" lon="1.5748300">
        <ele>163.0</ele>
        <time>2020-02-23T11:53:37Z</time>
      </trkpt>
      <trkpt lat="39.0667070" lon="1.5748290">
        <ele>162.6</ele>
        <time>2020-02-23T11:53:38Z</time>
      </trkpt>
      <trkpt lat="39.0667220" lon="1.5748280">
        <ele>162.3</ele>
        <time>2020-02-23T11:53:39Z</time>
      </trkpt>
      <trkpt lat="39.0667550" lon="1.5748150">
        <ele>161.6</ele>
        <time>2020-02-23T11:53:40Z</time>
      </trkpt>
      <trkpt lat="39.0667910" lon="1.5748180">
        <ele>160.8</ele>
        <time>2020-02-23T11:53:41Z</time>
      </trkpt>
      <trkpt lat="39.0668310" lon="1.5748300">
        <ele>160.0</ele>
        <time>2020-02-23T11:53:42Z</time>
      </trkpt>
      <trkpt lat="39.0668880" lon="1.5748620">
        <ele>159.2</ele>
        <time>2020-02-23T11:53:43Z</time>
      </trkpt>
      <trkpt lat="39.0669420" lon="1.5748900">
        <ele>158.4</ele>
        <time>2020-02-23T11:53:44Z</time>
      </trkpt>
      <trkpt lat="39.0669960" lon="1.5749170">
        <ele>157.7</ele>
        <time>2020-02-23T11:53:45Z</time>
      </trkpt>
      <trkpt lat="39.0670470" lon="1.5749600">
        <ele>157.0</ele>
        <time>2020-02-23T11:53:46Z</time>
      </trkpt>
      <trkpt lat="39.0670900" lon="1.5750060">
        <ele>156.5</ele>
        <time>2020-02-23T11:53:47Z</time>
      </trkpt>
      <trkpt lat="39.0671250" lon="1.5750650">
        <ele>156.0</ele>
        <time>2020-02-23T11:53:48Z</time>
      </trkpt>
      <trkpt lat="39.0671570" lon="1.5751160">
        <ele>155.6</ele>
        <time>2020-02-23T11:53:49Z</time>
      </trkpt>
      <trkpt lat="39.0671830" lon="1.5751580">
        <ele>155.3</ele>
        <time>2020-02-23T11:53:50Z</time>
      </trkpt>
      <trkpt lat="39.0672130" lon="1.5751910">
        <ele>155.1</ele>
        <time>2020-02-23T11:53:51Z</time>
      </trkpt>
      <trkpt lat="39.0672530" lon="1.5752360">
        <ele>154.9</ele>
        <time>2020-02-23T11:53:52Z</time>
      </trkpt>
      <trkpt lat="39.0673000" lon="1.5752610">
        <ele>154.8</ele>
        <time>2020-02-23T11:53:53Z</time>
      </trkpt>
      <trkpt lat="39.0673540" lon="1.5752530">
        <ele>154.6</ele>
        <time>2020-02-23T11:53:54Z</time>
      </trkpt>
      <trkpt lat="39.0673970" lon="1.5752370">
        <ele>154.5</ele>
        <time>2020-02-23T11:53:55Z</time>
      </trkpt>
      <trkpt lat="39.0674280" lon="1.5752310">
        <ele>154.5</ele>
        <time>2020-02-23T11:53:56Z</time>
      </trkpt>
      <trkpt lat="39.0674590" lon="1.5752130">
        <ele>154.4</ele>
        <time>2020-02-23T11:53:57Z</time>
      </trkpt>
      <trkpt lat="39.0674870" lon="1.5752070">
        <ele>154.4</ele>
        <time>2020-02-23T11:53:58Z</time>
      </trkpt>
      <trkpt lat="39.0675240" lon="1.5751970">
        <ele>154.3</ele>
        <time>2020-02-23T11:53:59Z</time>
      </trkpt>
      <trkpt lat="39.0675370" lon="1.5751920">
        <ele>154.3</ele>
        <time>2020-02-23T11:54:00Z</time>
      </trkpt>
      <trkpt lat="39.0675670" lon="1.5751800">
        <ele>154.3</ele>
        <time>2020-02-23T11:54:01Z</time>
      </trkpt>
      <trkpt lat="39.0675960" lon="1.5751680">
        <ele>154.2</ele>
        <time>2020-02-23T11:54:02Z</time>
      </trkpt>
      <trkpt lat="39.0676360" lon="1.5751650">
        <ele>154.1</ele>
        <time>2020-02-23T11:54:03Z</time>
      </trkpt>
      <trkpt lat="39.0676700" lon="1.5751530">
        <ele>154.1</ele>
        <time>2020-02-23T11:54:04Z</time>
      </trkpt>
      <trkpt lat="39.0677050" lon="1.5751480">
        <ele>154.0</ele>
        <time>2020-02-23T11:54:05Z</time>
      </trkpt>
      <trkpt lat="39.0677380" lon="1.5751410">
        <ele>153.9</ele>
        <time>2020-02-23T11:54:06Z</time>
      </trkpt>
      <trkpt lat="39.0677720" lon="1.5751400">
        <ele>153.8</ele>
        <time>2020-02-23T11:54:07Z</time>
      </trkpt>
      <trkpt lat="39.0677820" lon="1.5751430">
        <ele>153.8</ele>
        <time>2020-02-23T11:54:08Z</time>
      </trkpt>
      <trkpt lat="39.0678130" lon="1.5751470">
        <ele>153.7</ele>
        <time>2020-02-23T11:54:09Z</time>
      </trkpt>
      <trkpt lat="39.0678490" lon="1.5751360">
        <ele>153.7</ele>
        <time>2020-02-23T11:54:10Z</time>
      </trkpt>
      <trkpt lat="39.0678880" lon="1.5751340">
        <ele>153.6</ele>
        <time>2020-02-23T11:54:11Z</time>
      </trkpt>
      <trkpt lat="39.0679320" lon="1.5751350">
        <ele>153.5</ele>
        <time>2020-02-23T11:54:12Z</time>
      </trkpt>
      <trkpt lat="39.0679710" lon="1.5751360">
        <ele>153.4</ele>
        <time>2020-02-23T11:54:13Z</time>
      </trkpt>
      <trkpt lat="39.0680160" lon="1.5751360">
        <ele>153.2</ele>
        <time>2020-02-23T11:54:14Z</time>
      </trkpt>
      <trkpt lat="39.0680560" lon="1.5751350">
        <ele>153.1</ele>
        <time>2020-02-23T11:54:15Z</time>
      </trkpt>
      <trkpt lat="39.0681010" lon="1.5751470">
        <ele>153.0</ele>
        <time>2020-02-23T11:54:16Z</time>
      </trkpt>
      <trkpt lat="39.0681190" lon="1.5751570">
        <ele>153.0</ele>
        <time>2020-02-23T11:54:17Z</time>
      </trkpt>
      <trkpt lat="39.0681460" lon="1.5751680">
        <ele>152.9</ele>
        <time>2020-02-23T11:54:18Z</time>
      </trkpt>
      <trkpt lat="39.0681750" lon="1.5751690">
        <ele>152.8</ele>
        <time>2020-02-23T11:54:19Z</time>
      </trkpt>
      <trkpt lat="39.0682130" lon="1.5751620">
        <ele>152.7</ele>
        <time>2020-02-23T11:54:20Z</time>
      </trkpt>
      <trkpt lat="39.0682460" lon="1.5751420">
        <ele>152.5</ele>
        <time>2020-02-23T11:54:21Z</time>
      </trkpt>
      <trkpt lat="39.0682800" lon="1.5751290">
        <ele>152.4</ele>
        <time>2020-02-23T11:54:22Z</time>
      </trkpt>
      <trkpt lat="39.0683160" lon="1.5751160">
        <ele>152.2</ele>
        <time>2020-02-23T11:54:23Z</time>
      </trkpt>
      <trkpt lat="39.0683540" lon="1.5751090">
        <ele>152.1</ele>
        <time>2020-02-23T11:54:24Z</time>
      </trkpt>
      <trkpt lat="39.0683680" lon="1.5751060">
        <ele>152.0</ele>
        <time>2020-02-23T11:54:25Z</time>
      </trkpt>
      <trkpt lat="39.0684070" lon="1.5750840">
        <ele>151.8</ele>
        <time>2020-02-23T11:54:26Z</time>
      </trkpt>
      <trkpt lat="39.0684240" lon="1.5750780">
        <ele>151.7</ele>
        <time>2020-02-23T11:54:27Z</time>
      </trkpt>
      <trkpt lat="39.0684610" lon="1.5750550">
        <ele>151.5</ele>
        <time>2020-02-23T11:54:28Z</time>
      </trkpt>
      <trkpt lat="39.0684740" lon="1.5750450">
        <ele>151.4</ele>
        <time>2020-02-23T11:54:29Z</time>
      </trkpt>
      <trkpt lat="39.0684970" lon="1.5750260">
        <ele>151.3</ele>
        <time>2020-02-23T11:54:30Z</time>
      </trkpt>
      <trkpt lat="39.0685240" lon="1.5750120">
        <ele>151.1</ele>
        <time>2020-02-23T11:54:31Z</time>
      </trkpt>
      <trkpt lat="39.0685640" lon="1.5749990">
        <ele>150.9</ele>
        <time>2020-02-23T11:54:32Z</time>
      </trkpt>
      <trkpt lat="39.0685960" lon="1.5749850">
        <ele>150.6</ele>
        <time>2020-02-23T11:54:33Z</time>
      </trkpt>
      <trkpt lat="39.0686310" lon="1.5749800">
        <ele>150.3</ele>
        <time>2020-02-23T11:54:34Z</time>
      </trkpt>
      <trkpt lat="39.0686590" lon="1.5749730">
        <ele>150.0</ele>
        <time>2020-02-23T11:54:35Z</time>
      </trkpt>
      <trkpt lat="39.0686870" lon="1.5749790">
        <ele>149.8</ele>
        <time>2020-02-23T11:54:36Z</time>
      </trkpt>
      <trkpt lat="39.0686990" lon="1.5749820">
        <ele>149.6</ele>
        <time>2020-02-23T11:54:37Z</time>
      </trkpt>
      <trkpt lat="39.0687340" lon="1.5749990">
        <ele>149.2</ele>
        <time>2020-02-23T11:54:38Z</time>
      </trkpt>
      <trkpt lat="39.0687760" lon="1.5750360">
        <ele>148.5</ele>
        <time>2020-02-23T11:54:39Z</time>
      </trkpt>
      <trkpt lat="39.0688000" lon="1.5750680">
        <ele>148.0</ele>
        <time>2020-02-23T11:54:40Z</time>
      </trkpt>
      <trkpt lat="39.0688330" lon="1.5750980">
        <ele>147.3</ele>
        <time>2020-02-23T11:54:41Z</time>
      </trkpt>
      <trkpt lat="39.0688700" lon="1.5751420">
        <ele>146.5</ele>
        <time>2020-02-23T11:54:42Z</time>
      </trkpt>
      <trkpt lat="39.0689050" lon="1.5751770">
        <ele>145.7</ele>
        <time>2020-02-23T11:54:43Z</time>
      </trkpt>
      <trkpt lat="39.0689320" lon="1.5752110">
        <ele>145.1</ele>
        <time>2020-02-23T11:54:44Z</time>
      </trkpt>
      <trkpt lat="39.0689620" lon="1.5752350">
        <ele>144.5</ele>
        <time>2020-02-23T11:54:45Z</time>
      </trkpt>
      <trkpt lat="39.0689970" lon="1.5752630">
        <ele>143.8</ele>
        <time>2020-02-23T11:54:46Z</time>
      </trkpt>
      <trkpt lat="39.0690220" lon="1.5752880">
        <ele>143.1</ele>
        <time>2020-02-23T11:54:47Z</time>
      </trkpt>
      <trkpt lat="39.0690360" lon="1.5753190">
        <ele>142.6</ele>
        <time>2020-02-23T11:54:48Z</time>
      </trkpt>
      <trkpt lat="39.0690640" lon="1.5753610">
        <ele>141.9</ele>
        <time>2020-02-23T11:54:49Z</time>
      </trkpt>
      <trkpt lat="39.0690720" lon="1.5753800">
        <ele>141.5</ele>
        <time>2020-02-23T11:54:50Z</time>
      </trkpt>
      <trkpt lat="39.0690880" lon="1.5754110">
        <ele>141.0</ele>
        <time>2020-02-23T11:54:51Z</time>
      </trkpt>
      <trkpt lat="39.0691100" lon="1.5754360">
        <ele>140.4</ele>
        <time>2020-02-23T11:54:52Z</time>
      </trkpt>
      <trkpt lat="39.0691310" lon="1.5754760">
        <ele>139.8</ele>
        <time>2020-02-23T11:54:53Z</time>
      </trkpt>
      <trkpt lat="39.0691390" lon="1.5754990">
        <ele>139.4</ele>
        <time>2020-02-23T11:54:54Z</time>
      </trkpt>
      <trkpt lat="39.0691500" lon="1.5755440">
        <ele>138.8</ele>
        <time>2020-02-23T11:54:55Z</time>
      </trkpt>
      <trkpt lat="39.0691690" lon="1.5755940">
        <ele>137.9</ele>
        <time>2020-02-23T11:54:56Z</time>
      </trkpt>
      <trkpt lat="39.0691790" lon="1.5756400">
        <ele>137.1</ele>
        <time>2020-02-23T11:54:57Z</time>
      </trkpt>
      <trkpt lat="39.0691840" lon="1.5756900">
        <ele>136.4</ele>
        <time>2020-02-23T11:54:58Z</time>
      </trkpt>
      <trkpt lat="39.0691900" lon="1.5757550">
        <ele>135.5</ele>
        <time>2020-02-23T11:54:59Z</time>
      </trkpt>
      <trkpt lat="39.0691940" lon="1.5758210">
        <ele>134.6</ele>
        <time>2020-02-23T11:55:00Z</time>
      </trkpt>
      <trkpt lat="39.0692200" lon="1.5758840">
        <ele>134.0</ele>
        <time>2020-02-23T11:55:01Z</time>
      </trkpt>
      <trkpt lat="39.0692590" lon="1.5759360">
        <ele>133.4</ele>
        <time>2020-02-23T11:55:02Z</time>
      </trkpt>
      <trkpt lat="39.0692980" lon="1.5759740">
        <ele>132.8</ele>
        <time>2020-02-23T11:55:03Z</time>
      </trkpt>
      <trkpt lat="39.0693320" lon="1.5759680">
        <ele>132.5</ele>
        <time>2020-02-23T11:55:04Z</time>
      </trkpt>
      <trkpt lat="39.0693580" lon="1.5759330">
        <ele>132.1</ele>
        <time>2020-02-23T11:55:05Z</time>
      </trkpt>
      <trkpt lat="39.0693950" lon="1.5758740">
        <ele>131.5</ele>
        <time>2020-02-23T11:55:06Z</time>
      </trkpt>
      <trkpt lat="39.0694340" lon="1.5758340">
        <ele>131.0</ele>
        <time>2020-02-23T11:55:07Z</time>
      </trkpt>
      <trkpt lat="39.0694660" lon="1.5757870">
        <ele>130.5</ele>
        <time>2020-02-23T11:55:08Z</time>
      </trkpt>
      <trkpt lat="39.0694930" lon="1.5757380">
        <ele>130.2</ele>
        <time>2020-02-23T11:55:09Z</time>
      </trkpt>
      <trkpt lat="39.0695340" lon="1.5756780">
        <ele>129.8</ele>
        <time>2020-02-23T11:55:10Z</time>
      </trkpt>
      <trkpt lat="39.0695680" lon="1.5756390">
        <ele>129.5</ele>
        <time>2020-02-23T11:55:11Z</time>
      </trkpt>
      <trkpt lat="39.0695870" lon="1.5756080">
        <ele>129.3</ele>
        <time>2020-02-23T11:55:12Z</time>
      </trkpt>
      <trkpt lat="39.0696080" lon="1.5755710">
        <ele>129.0</ele>
        <time>2020-02-23T11:55:13Z</time>
      </trkpt>
      <trkpt lat="39.0696340" lon="1.5755530">
        <ele>128.8</ele>
        <time>2020-02-23T11:55:14Z</time>
      </trkpt>
      <trkpt lat="39.0696430" lon="1.5755470">
        <ele>128.8</ele>
        <time>2020-02-23T11:55:15Z</time>
      </trkpt>
      <trkpt lat="39.0696390" lon="1.5755310">
        <ele>128.7</ele>
        <time>2020-02-23T11:55:16Z</time>
      </trkpt>
      <trkpt lat="39.0696400" lon="1.5755240">
        <ele>128.6</ele>
        <time>2020-02-23T11:55:17Z</time>
      </trkpt>
      <trkpt lat="39.0696440" lon="1.5755200">
        <ele>128.6</ele>
        <time>2020-02-23T11:55:18Z</time>
      </trkpt>
      <trkpt lat="39.0696440" lon="1.5755160">
        <ele>128.6</ele>
        <time>2020-02-23T11:55:19Z</time>
      </trkpt>
      <trkpt lat="39.0696480" lon="1.5755070">
        <ele>128.6</ele>
        <time>2020-02-23T11:55:20Z</time>
      </trkpt>
      <trkpt lat="39.0696630" lon="1.5755060">
        <ele>128.5</ele>
        <time>2020-02-23T11:55:21Z</time>
      </trkpt>
      <trkpt lat="39.0696690" lon="1.5755060">
        <ele>128.5</ele>
        <time>2020-02-23T11:55:22Z</time>
      </trkpt>
      <trkpt lat="39.0696750" lon="1.5755050">
        <ele>128.5</ele>
        <time>2020-02-23T11:55:23Z</time>
      </trkpt>
      <trkpt lat="39.0696810" lon="1.5755040">
        <ele>128.5</ele>
        <time>2020-02-23T11:55:24Z</time>
      </trkpt>
      <trkpt lat="39.0696870" lon="1.5755040">
        <ele>128.5</ele>
        <time>2020-02-23T11:55:25Z</time>
      </trkpt>
      <trkpt lat="39.0696930" lon="1.5755030">
        <ele>128.4</ele>
        <time>2020-02-23T11:55:26Z</time>
      </trkpt>
      <trkpt lat="39.0696990" lon="1.5755020">
        <ele>128.4</ele>
        <time>2020-02-23T11:55:27Z</time>
      </trkpt>
      <trkpt lat="39.0697050" lon="1.5755020">
        <ele>128.4</ele>
        <time>2020-02-23T11:56:11Z</time>
      </trkpt>
      <trkpt lat="39.0697110" lon="1.5755010">
        <ele>128.4</ele>
        <time>2020-02-23T11:56:12Z</time>
      </trkpt>
      <trkpt lat="39.0697450" lon="1.5754960">
        <ele>128.3</ele>
        <time>2020-02-23T11:56:13Z</time>
      </trkpt>
      <trkpt lat="39.0697560" lon="1.5754980">
        <ele>128.3</ele>
        <time>2020-02-23T11:56:14Z</time>
      </trkpt>
      <trkpt lat="39.0697930" lon="1.5755050">
        <ele>128.2</ele>
        <time>2020-02-23T11:56:15Z</time>
      </trkpt>
      <trkpt lat="39.0698050" lon="1.5755140">
        <ele>128.1</ele>
        <time>2020-02-23T11:56:16Z</time>
      </trkpt>
      <trkpt lat="39.0698340" lon="1.5755230">
        <ele>128.0</ele>
        <time>2020-02-23T11:56:17Z</time>
      </trkpt>
      <trkpt lat="39.0698430" lon="1.5755240">
        <ele>128.0</ele>
        <time>2020-02-23T11:56:18Z</time>
      </trkpt>
      <trkpt lat="39.0698780" lon="1.5755440">
        <ele>127.9</ele>
        <time>2020-02-23T11:56:19Z</time>
      </trkpt>
      <trkpt lat="39.0698910" lon="1.5755540">
        <ele>127.8</ele>
        <time>2020-02-23T11:56:20Z</time>
      </trkpt>
      <trkpt lat="39.0699210" lon="1.5755690">
        <ele>127.7</ele>
        <time>2020-02-23T11:56:21Z</time>
      </trkpt>
      <trkpt lat="39.0699480" lon="1.5755750">
        <ele>127.6</ele>
        <time>2020-02-23T11:56:22Z</time>
      </trkpt>
      <trkpt lat="39.0699850" lon="1.5755850">
        <ele>127.5</ele>
        <time>2020-02-23T11:56:23Z</time>
      </trkpt>
      <trkpt lat="39.0699990" lon="1.5755910">
        <ele>127.4</ele>
        <time>2020-02-23T11:56:24Z</time>
      </trkpt>
      <trkpt lat="39.0700300" lon="1.5756110">
        <ele>127.2</ele>
        <time>2020-02-23T11:56:25Z</time>
      </trkpt>
      <trkpt lat="39.0700560" lon="1.5756250">
        <ele>126.9</ele>
        <time>2020-02-23T11:56:26Z</time>
      </trkpt>
      <trkpt lat="39.0700860" lon="1.5756460">
        <ele>126.5</ele>
        <time>2020-02-23T11:56:27Z</time>
      </trkpt>
      <trkpt lat="39.0700960" lon="1.5756530">
        <ele>126.4</ele>
        <time>2020-02-23T11:56:28Z</time>
      </trkpt>
      <trkpt lat="39.0701080" lon="1.5756610">
        <ele>126.3</ele>
        <time>2020-02-23T11:56:29Z</time>
      </trkpt>
      <trkpt lat="39.0701160" lon="1.5756660">
        <ele>126.2</ele>
        <time>2020-02-23T11:56:30Z</time>
      </trkpt>
      <trkpt lat="39.0701270" lon="1.5756730">
        <ele>126.0</ele>
        <time>2020-02-23T11:56:31Z</time>
      </trkpt>
      <trkpt lat="39.0701620" lon="1.5756790">
        <ele>125.7</ele>
        <time>2020-02-23T11:56:32Z</time>
      </trkpt>
      <trkpt lat="39.0701770" lon="1.5756840">
        <ele>125.5</ele>
        <time>2020-02-23T11:56:33Z</time>
      </trkpt>
      <trkpt lat="39.0702060" lon="1.5756890">
        <ele>125.2</ele>
        <time>2020-02-23T11:56:34Z</time>
      </trkpt>
      <trkpt lat="39.0702450" lon="1.5757040">
        <ele>124.5</ele>
        <time>2020-02-23T11:56:35Z</time>
      </trkpt>
      <trkpt lat="39.0702570" lon="1.5757150">
        <ele>124.2</ele>
        <time>2020-02-23T11:56:36Z</time>
      </trkpt>
      <trkpt lat="39.0703050" lon="1.5757300">
        <ele>123.5</ele>
        <time>2020-02-23T11:56:37Z</time>
      </trkpt>
      <trkpt lat="39.0703490" lon="1.5757400">
        <ele>122.8</ele>
        <time>2020-02-23T11:56:38Z</time>
      </trkpt>
      <trkpt lat="39.0703840" lon="1.5757460">
        <ele>122.2</ele>
        <time>2020-02-23T11:56:39Z</time>
      </trkpt>
      <trkpt lat="39.0704110" lon="1.5757790">
        <ele>121.5</ele>
        <time>2020-02-23T11:56:40Z</time>
      </trkpt>
      <trkpt lat="39.0704420" lon="1.5758060">
        <ele>120.9</ele>
        <time>2020-02-23T11:56:41Z</time>
      </trkpt>
      <trkpt lat="39.0704700" lon="1.5758270">
        <ele>120.3</ele>
        <time>2020-02-23T11:56:42Z</time>
      </trkpt>
      <trkpt lat="39.0704930" lon="1.5758520">
        <ele>119.9</ele>
        <time>2020-02-23T11:56:43Z</time>
      </trkpt>
      <trkpt lat="39.0705060" lon="1.5758840">
        <ele>119.6</ele>
        <time>2020-02-23T11:56:44Z</time>
      </trkpt>
      <trkpt lat="39.0705240" lon="1.5758930">
        <ele>119.4</ele>
        <time>2020-02-23T11:56:45Z</time>
      </trkpt>
      <trkpt lat="39.0705340" lon="1.5758940">
        <ele>119.3</ele>
        <time>2020-02-23T11:56:46Z</time>
      </trkpt>
      <trkpt lat="39.0705520" lon="1.5758960">
        <ele>119.1</ele>
        <time>2020-02-23T11:56:47Z</time>
      </trkpt>
      <trkpt lat="39.0705690" lon="1.5758970">
        <ele>119.0</ele>
        <time>2020-02-23T11:56:48Z</time>
      </trkpt>
      <trkpt lat="39.0705860" lon="1.5758980">
        <ele>118.8</ele>
        <time>2020-02-23T11:56:49Z</time>
      </trkpt>
      <trkpt lat="39.0706170" lon="1.5758790">
        <ele>118.4</ele>
        <time>2020-02-23T11:56:50Z</time>
      </trkpt>
      <trkpt lat="39.0706390" lon="1.5758410">
        <ele>118.1</ele>
        <time>2020-02-23T11:56:51Z</time>
      </trkpt>
      <trkpt lat="39.0706630" lon="1.5757990">
        <ele>117.7</ele>
        <time>2020-02-23T11:56:52Z</time>
      </trkpt>
      <trkpt lat="39.0706920" lon="1.5757680">
        <ele>117.5</ele>
        <time>2020-02-23T11:56:53Z</time>
      </trkpt>
      <trkpt lat="39.0707180" lon="1.5757430">
        <ele>117.3</ele>
        <time>2020-02-23T11:56:54Z</time>
      </trkpt>
      <trkpt lat="39.0707440" lon="1.5757210">
        <ele>117.3</ele>
        <time>2020-02-23T11:56:55Z</time>
      </trkpt>
      <trkpt lat="39.0707650" lon="1.5757000">
        <ele>117.2</ele>
        <time>2020-02-23T11:56:56Z</time>
      </trkpt>
      <trkpt lat="39.0707730" lon="1.5756880">
        <ele>117.2</ele>
        <time>2020-02-23T11:56:57Z</time>
      </trkpt>
      <trkpt lat="39.0707870" lon="1.5756650">
        <ele>117.2</ele>
        <time>2020-02-23T11:56:58Z</time>
      </trkpt>
      <trkpt lat="39.0707960" lon="1.5756550">
        <ele>117.2</ele>
        <time>2020-02-23T11:56:59Z</time>
      </trkpt>
      <trkpt lat="39.0708040" lon="1.5756440">
        <ele>117.2</ele>
        <time>2020-02-23T11:57:00Z</time>
      </trkpt>
      <trkpt lat="39.0708130" lon="1.5756270">
        <ele>117.2</ele>
        <time>2020-02-23T11:57:01Z</time>
      </trkpt>
      <trkpt lat="39.0708250" lon="1.5756180">
        <ele>117.2</ele>
        <time>2020-02-23T11:57:02Z</time>
      </trkpt>
      <trkpt lat="39.0708460" lon="1.5755950">
        <ele>117.1</ele>
        <time>2020-02-23T11:57:03Z</time>
      </trkpt>
      <trkpt lat="39.0708510" lon="1.5755840">
        <ele>117.1</ele>
        <time>2020-02-23T11:57:04Z</time>
      </trkpt>
      <trkpt lat="39.0708480" lon="1.5755650">
        <ele>117.1</ele>
        <time>2020-02-23T11:57:05Z</time>
      </trkpt>
      <trkpt lat="39.0708480" lon="1.5755440">
        <ele>117.1</ele>
        <time>2020-02-23T11:57:06Z</time>
      </trkpt>
      <trkpt lat="39.0708560" lon="1.5755070">
        <ele>117.1</ele>
        <time>2020-02-23T11:57:07Z</time>
      </trkpt>
      <trkpt lat="39.0708590" lon="1.5754930">
        <ele>117.1</ele>
        <time>2020-02-23T11:57:08Z</time>
      </trkpt>
      <trkpt lat="39.0708580" lon="1.5754680">
        <ele>117.1</ele>
        <time>2020-02-23T11:57:09Z</time>
      </trkpt>
      <trkpt lat="39.0708600" lon="1.5754500">
        <ele>117.1</ele>
        <time>2020-02-23T11:57:10Z</time>
      </trkpt>
      <trkpt lat="39.0708510" lon="1.5754320">
        <ele>117.0</ele>
        <time>2020-02-23T11:57:11Z</time>
      </trkpt>
      <trkpt lat="39.0708460" lon="1.5754130">
        <ele>117.0</ele>
        <time>2020-02-23T11:57:12Z</time>
      </trkpt>
      <trkpt lat="39.0708450" lon="1.5753960">
        <ele>116.9</ele>
        <time>2020-02-23T11:57:13Z</time>
      </trkpt>
      <trkpt lat="39.0708470" lon="1.5753770">
        <ele>116.8</ele>
        <time>2020-02-23T11:57:14Z</time>
      </trkpt>
      <trkpt lat="39.0708620" lon="1.5753590">
        <ele>116.6</ele>
        <time>2020-02-23T11:57:15Z</time>
      </trkpt>
      <trkpt lat="39.0708720" lon="1.5753520">
        <ele>116.5</ele>
        <time>2020-02-23T11:57:16Z</time>
      </trkpt>
      <trkpt lat="39.0708830" lon="1.5753460">
        <ele>116.4</ele>
        <time>2020-02-23T11:57:17Z</time>
      </trkpt>
      <trkpt lat="39.0709080" lon="1.5753280">
        <ele>116.0</ele>
        <time>2020-02-23T11:57:18Z</time>
      </trkpt>
      <trkpt lat="39.0709170" lon="1.5753150">
        <ele>115.8</ele>
        <time>2020-02-23T11:57:19Z</time>
      </trkpt>
      <trkpt lat="39.0709480" lon="1.5753030">
        <ele>115.2</ele>
        <time>2020-02-23T11:57:20Z</time>
      </trkpt>
      <trkpt lat="39.0709570" lon="1.5753000">
        <ele>115.1</ele>
        <time>2020-02-23T11:57:21Z</time>
      </trkpt>
      <trkpt lat="39.0709890" lon="1.5752790">
        <ele>114.3</ele>
        <time>2020-02-23T11:57:22Z</time>
      </trkpt>
      <trkpt lat="39.0709980" lon="1.5752660">
        <ele>114.1</ele>
        <time>2020-02-23T11:57:23Z</time>
      </trkpt>
      <trkpt lat="39.0710120" lon="1.5752260">
        <ele>113.4</ele>
        <time>2020-02-23T11:57:24Z</time>
      </trkpt>
      <trkpt lat="39.0710160" lon="1.5752150">
        <ele>113.1</ele>
        <time>2020-02-23T11:57:25Z</time>
      </trkpt>
      <trkpt lat="39.0710410" lon="1.5751900">
        <ele>112.1</ele>
        <time>2020-02-23T11:57:26Z</time>
      </trkpt>
      <trkpt lat="39.0710510" lon="1.5751850">
        <ele>111.7</ele>
        <time>2020-02-23T11:57:27Z</time>
      </trkpt>
      <trkpt lat="39.0710820" lon="1.5751730">
        <ele>110.8</ele>
        <time>2020-02-23T11:57:28Z</time>
      </trkpt>
      <trkpt lat="39.0711150" lon="1.5751510">
        <ele>109.7</ele>
        <time>2020-02-23T11:57:29Z</time>
      </trkpt>
      <trkpt lat="39.0711250" lon="1.5751420">
        <ele>109.3</ele>
        <time>2020-02-23T11:57:30Z</time>
      </trkpt>
      <trkpt lat="39.0711620" lon="1.5751200">
        <ele>108.0</ele>
        <time>2020-02-23T11:57:31Z</time>
      </trkpt>
      <trkpt lat="39.0711740" lon="1.5751110">
        <ele>107.5</ele>
        <time>2020-02-23T11:57:32Z</time>
      </trkpt>
      <trkpt lat="39.0711980" lon="1.5750900">
        <ele>106.4</ele>
        <time>2020-02-23T11:57:33Z</time>
      </trkpt>
      <trkpt lat="39.0712250" lon="1.5750620">
        <ele>105.2</ele>
        <time>2020-02-23T11:57:34Z</time>
      </trkpt>
      <trkpt lat="39.0712580" lon="1.5750500">
        <ele>104.0</ele>
        <time>2020-02-23T11:57:35Z</time>
      </trkpt>
      <trkpt lat="39.0712720" lon="1.5750510">
        <ele>103.6</ele>
        <time>2020-02-23T11:57:36Z</time>
      </trkpt>
      <trkpt lat="39.0713060" lon="1.5750480">
        <ele>102.4</ele>
        <time>2020-02-23T11:57:37Z</time>
      </trkpt>
      <trkpt lat="39.0713180" lon="1.5750450">
        <ele>102.0</ele>
        <time>2020-02-23T11:57:38Z</time>
      </trkpt>
      <trkpt lat="39.0713610" lon="1.5750600">
        <ele>100.6</ele>
        <time>2020-02-23T11:57:39Z</time>
      </trkpt>
      <trkpt lat="39.0713770" lon="1.5750660">
        <ele>100.1</ele>
        <time>2020-02-23T11:57:40Z</time>
      </trkpt>
      <trkpt lat="39.0714100" lon="1.5750700">
        <ele>99.2</ele>
        <time>2020-02-23T11:57:41Z</time>
      </trkpt>
      <trkpt lat="39.0714310" lon="1.5750690">
        <ele>98.7</ele>
        <time>2020-02-23T11:57:42Z</time>
      </trkpt>
      <trkpt lat="39.0714430" lon="1.5750540">
        <ele>98.3</ele>
        <time>2020-02-23T11:57:43Z</time>
      </trkpt>
      <trkpt lat="39.0714720" lon="1.5750300">
        <ele>97.4</ele>
        <time>2020-02-23T11:57:44Z</time>
      </trkpt>
      <trkpt lat="39.0714830" lon="1.5750220">
        <ele>97.1</ele>
        <time>2020-02-23T11:57:45Z</time>
      </trkpt>
      <trkpt lat="39.0715130" lon="1.5749980">
        <ele>96.3</ele>
        <time>2020-02-23T11:57:46Z</time>
      </trkpt>
      <trkpt lat="39.0715230" lon="1.5749890">
        <ele>96.0</ele>
        <time>2020-02-23T11:57:47Z</time>
      </trkpt>
      <trkpt lat="39.0715310" lon="1.5749570">
        <ele>95.4</ele>
        <time>2020-02-23T11:57:48Z</time>
      </trkpt>
      <trkpt lat="39.0715330" lon="1.5749430">
        <ele>95.2</ele>
        <time>2020-02-23T11:57:49Z</time>
      </trkpt>
      <trkpt lat="39.0715490" lon="1.5749390">
        <ele>94.8</ele>
        <time>2020-02-23T11:57:50Z</time>
      </trkpt>
      <trkpt lat="39.0715590" lon="1.5749410">
        <ele>94.6</ele>
        <time>2020-02-23T11:57:51Z</time>
      </trkpt>
      <trkpt lat="39.0715680" lon="1.5749440">
        <ele>94.4</ele>
        <time>2020-02-23T11:57:52Z</time>
      </trkpt>
      <trkpt lat="39.0715770" lon="1.5749460">
        <ele>94.2</ele>
        <time>2020-02-23T11:57:53Z</time>
      </trkpt>
      <trkpt lat="39.0715870" lon="1.5749480">
        <ele>94.0</ele>
        <time>2020-02-23T11:57:54Z</time>
      </trkpt>
      <trkpt lat="39.0715960" lon="1.5749500">
        <ele>93.9</ele>
        <time>2020-02-23T11:57:55Z</time>
      </trkpt>
      <trkpt lat="39.0716050" lon="1.5749530">
        <ele>93.7</ele>
        <time>2020-02-23T11:57:56Z</time>
      </trkpt>
      <trkpt lat="39.0716150" lon="1.5749550">
        <ele>93.5</ele>
        <time>2020-02-23T11:57:57Z</time>
      </trkpt>
      <trkpt lat="39.0716240" lon="1.5749570">
        <ele>93.3</ele>
        <time>2020-02-23T11:57:58Z</time>
      </trkpt>
      <trkpt lat="39.0716330" lon="1.5749590">
        <ele>93.1</ele>
        <time>2020-02-23T11:57:59Z</time>
      </trkpt>
      <trkpt lat="39.0716430" lon="1.5749620">
        <ele>92.9</ele>
        <time>2020-02-23T11:59:08Z</time>
      </trkpt>
      <trkpt lat="39.0716520" lon="1.5749640">
        <ele>92.7</ele>
        <time>2020-02-23T11:59:09Z</time>
      </trkpt>
      <trkpt lat="39.0716900" lon="1.5750170">
        <ele>91.8</ele>
        <time>2020-02-23T11:59:10Z</time>
      </trkpt>
      <trkpt lat="39.0717420" lon="1.5750790">
        <ele>91.1</ele>
        <time>2020-02-23T11:59:11Z</time>
      </trkpt>
      <trkpt lat="39.0717970" lon="1.5751310">
        <ele>90.6</ele>
        <time>2020-02-23T11:59:12Z</time>
      </trkpt>
      <trkpt lat="39.0718430" lon="1.5751910">
        <ele>90.2</ele>
        <time>2020-02-23T11:59:13Z</time>
      </trkpt>
      <trkpt lat="39.0718960" lon="1.5752660">
        <ele>89.8</ele>
        <time>2020-02-23T11:59:14Z</time>
      </trkpt>
      <trkpt lat="39.0719460" lon="1.5753390">
        <ele>89.5</ele>
        <time>2020-02-23T11:59:15Z</time>
      </trkpt>
      <trkpt lat="39.0720030" lon="1.5754190">
        <ele>89.0</ele>
        <time>2020-02-23T11:59:16Z</time>
      </trkpt>
      <trkpt lat="39.0720430" lon="1.5754690">
        <ele>88.7</ele>
        <time>2020-02-23T11:59:17Z</time>
      </trkpt>
      <trkpt lat="39.0720790" lon="1.5754990">
        <ele>88.2</ele>
        <time>2020-02-23T11:59:18Z</time>
      </trkpt>
      <trkpt lat="39.0721160" lon="1.5755260">
        <ele>87.8</ele>
        <time>2020-02-23T11:59:19Z</time>
      </trkpt>
      <trkpt lat="39.0721410" lon="1.5755520">
        <ele>87.3</ele>
        <time>2020-02-23T11:59:20Z</time>
      </trkpt>
      <trkpt lat="39.0721480" lon="1.5755620">
        <ele>87.1</ele>
        <time>2020-02-23T11:59:21Z</time>
      </trkpt>
      <trkpt lat="39.0721710" lon="1.5755890">
        <ele>86.6</ele>
        <time>2020-02-23T11:59:22Z</time>
      </trkpt>
      <trkpt lat="39.0721750" lon="1.5756000">
        <ele>86.4</ele>
        <time>2020-02-23T11:59:23Z</time>
      </trkpt>
      <trkpt lat="39.0722000" lon="1.5756440">
        <ele>85.5</ele>
        <time>2020-02-23T11:59:24Z</time>
      </trkpt>
      <trkpt lat="39.0722110" lon="1.5756590">
        <ele>85.2</ele>
        <time>2020-02-23T11:59:25Z</time>
      </trkpt>
      <trkpt lat="39.0722370" lon="1.5756930">
        <ele>84.4</ele>
        <time>2020-02-23T11:59:26Z</time>
      </trkpt>
      <trkpt lat="39.0722750" lon="1.5757370">
        <ele>83.2</ele>
        <time>2020-02-23T11:59:27Z</time>
      </trkpt>
      <trkpt lat="39.0723180" lon="1.5757770">
        <ele>82.0</ele>
        <time>2020-02-23T11:59:28Z</time>
      </trkpt>
      <trkpt lat="39.0723730" lon="1.5758260">
        <ele>80.7</ele>
        <time>2020-02-23T11:59:29Z</time>
      </trkpt>
      <trkpt lat="39.0724240" lon="1.5758700">
        <ele>79.7</ele>
        <time>2020-02-23T11:59:30Z</time>
      </trkpt>
      <trkpt lat="39.0724790" lon="1.5759330">
        <ele>79.1</ele>
        <time>2020-02-23T11:59:31Z</time>
      </trkpt>
      <trkpt lat="39.0725290" lon="1.5759960">
        <ele>78.8</ele>
        <time>2020-02-23T11:59:32Z</time>
      </trkpt>
      <trkpt lat="39.0725670" lon="1.5760540">
        <ele>78.5</ele>
        <time>2020-02-23T11:59:33Z</time>
      </trkpt>
      <trkpt lat="39.0725910" lon="1.5761260">
        <ele>78.3</ele>
        <time>2020-02-23T11:59:34Z</time>
      </trkpt>
      <trkpt lat="39.0726300" lon="1.5761950">
        <ele>78.2</ele>
        <time>2020-02-23T11:59:35Z</time>
      </trkpt>
      <trkpt lat="39.0726820" lon="1.5762600">
        <ele>78.1</ele>
        <time>2020-02-23T11:59:36Z</time>
      </trkpt>
      <trkpt lat="39.0727490" lon="1.5763420">
        <ele>77.9</ele>
        <time>2020-02-23T11:59:37Z</time>
      </trkpt>
      <trkpt lat="39.0728090" lon="1.5764150">
        <ele>77.8</ele>
        <time>2020-02-23T11:59:38Z</time>
      </trkpt>
      <trkpt lat="39.0728470" lon="1.5764720">
        <ele>77.7</ele>
        <time>2020-02-23T11:59:39Z</time>
      </trkpt>
      <trkpt lat="39.0729060" lon="1.5765110">
        <ele>77.6</ele>
        <time>2020-02-23T11:59:40Z</time>
      </trkpt>
      <trkpt lat="39.0729740" lon="1.5765200">
        <ele>77.6</ele>
        <time>2020-02-23T11:59:41Z</time>
      </trkpt>
      <trkpt lat="39.0730470" lon="1.5765310">
        <ele>77.5</ele>
        <time>2020-02-23T11:59:42Z</time>
      </trkpt>
      <trkpt lat="39.0731080" lon="1.5765360">
        <ele>77.4</ele>
        <time>2020-02-23T11:59:43Z</time>
      </trkpt>
      <trkpt lat="39.0731590" lon="1.5765220">
        <ele>77.3</ele>
        <time>2020-02-23T11:59:44Z</time>
      </trkpt>
      <trkpt lat="39.0732070" lon="1.5765110">
        <ele>77.2</ele>
        <time>2020-02-23T11:59:45Z</time>
      </trkpt>
      <trkpt lat="39.0732520" lon="1.5764930">
        <ele>77.1</ele>
        <time>2020-02-23T11:59:46Z</time>
      </trkpt>
      <trkpt lat="39.0732940" lon="1.5764920">
        <ele>77.1</ele>
        <time>2020-02-23T11:59:47Z</time>
      </trkpt>
      <trkpt lat="39.0733460" lon="1.5765040">
        <ele>77.0</ele>
        <time>2020-02-23T11:59:48Z</time>
      </trkpt>
      <trkpt lat="39.0733960" lon="1.5765110">
        <ele>76.8</ele>
        <time>2020-02-23T11:59:49Z</time>
      </trkpt>
      <trkpt lat="39.0734450" lon="1.5765370">
        <ele>76.7</ele>
        <time>2020-02-23T11:59:50Z</time>
      </trkpt>
      <trkpt lat="39.0734950" lon="1.5765680">
        <ele>76.5</ele>
        <time>2020-02-23T11:59:51Z</time>
      </trkpt>
      <trkpt lat="39.0735360" lon="1.5766290">
        <ele>76.2</ele>
        <time>2020-02-23T11:59:52Z</time>
      </trkpt>
      <trkpt lat="39.0735760" lon="1.5766810">
        <ele>75.9</ele>
        <time>2020-02-23T11:59:53Z</time>
      </trkpt>
      <trkpt lat="39.0736210" lon="1.5767240">
        <ele>75.6</ele>
        <time>2020-02-23T11:59:54Z</time>
      </trkpt>
      <trkpt lat="39.0736700" lon="1.5767620">
        <ele>75.3</ele>
        <time>2020-02-23T11:59:55Z</time>
      </trkpt>
      <trkpt lat="39.0737120" lon="1.5768070">
        <ele>74.8</ele>
        <time>2020-02-23T11:59:56Z</time>
      </trkpt>
      <trkpt lat="39.0737590" lon="1.5768450">
        <ele>74.3</ele>
        <time>2020-02-23T11:59:57Z</time>
      </trkpt>
      <trkpt lat="39.0738010" lon="1.5768830">
        <ele>73.7</ele>
        <time>2020-02-23T11:59:58Z</time>
      </trkpt>
      <trkpt lat="39.0738260" lon="1.5769310">
        <ele>73.2</ele>
        <time>2020-02-23T11:59:59Z</time>
      </trkpt>
      <trkpt lat="39.0738560" lon="1.5769850">
        <ele>72.4</ele>
        <time>2020-02-23T12:00:00Z</time>
      </trkpt>
      <trkpt lat="39.0738890" lon="1.5770480">
        <ele>71.5</ele>
        <time>2020-02-23T12:00:01Z</time>
      </trkpt>
      <trkpt lat="39.0739310" lon="1.5771170">
        <ele>70.4</ele>
        <time>2020-02-23T12:00:02Z</time>
      </trkpt>
      <trkpt lat="39.0739710" lon="1.5771960">
        <ele>69.5</ele>
        <time>2020-02-23T12:00:03Z</time>
      </trkpt>
      <trkpt lat="39.0740190" lon="1.5772630">
        <ele>68.6</ele>
        <time>2020-02-23T12:00:04Z</time>
      </trkpt>
      <trkpt lat="39.0740740" lon="1.5773140">
        <ele>67.9</ele>
        <time>2020-02-23T12:00:05Z</time>
      </trkpt>
      <trkpt lat="39.0741140" lon="1.5773840">
        <ele>67.5</ele>
        <time>2020-02-23T12:00:06Z</time>
      </trkpt>
      <trkpt lat="39.0741700" lon="1.5774340">
        <ele>67.4</ele>
        <time>2020-02-23T12:00:07Z</time>
      </trkpt>
      <trkpt lat="39.0742260" lon="1.5774730">
        <ele>67.3</ele>
        <time>2020-02-23T12:00:08Z</time>
      </trkpt>
      <trkpt lat="39.0742810" lon="1.5775070">
        <ele>67.2</ele>
        <time>2020-02-23T12:00:09Z</time>
      </trkpt>
      <trkpt lat="39.0743250" lon="1.5775380">
        <ele>67.2</ele>
        <time>2020-02-23T12:00:10Z</time>
      </trkpt>
      <trkpt lat="39.0743660" lon="1.5775600">
        <ele>67.2</ele>
        <time>2020-02-23T12:00:11Z</time>
      </trkpt>
      <trkpt lat="39.0744080" lon="1.5775900">
        <ele>66.6</ele>
        <time>2020-02-23T12:00:12Z</time>
      </trkpt>
      <trkpt lat="39.0744560" lon="1.5776130">
        <ele>66.0</ele>
        <time>2020-02-23T12:00:13Z</time>
      </trkpt>
      <trkpt lat="39.0745060" lon="1.5776370">
        <ele>65.4</ele>
        <time>2020-02-23T12:00:14Z</time>
      </trkpt>
      <trkpt lat="39.0745610" lon="1.5776670">
        <ele>64.6</ele>
        <time>2020-02-23T12:00:15Z</time>
      </trkpt>
      <trkpt lat="39.0746150" lon="1.5777050">
        <ele>63.7</ele>
        <time>2020-02-23T12:00:16Z</time>
      </trkpt>
      <trkpt lat="39.0746750" lon="1.5777270">
        <ele>62.8</ele>
        <time>2020-02-23T12:00:17Z</time>
      </trkpt>
      <trkpt lat="39.0747370" lon="1.5777470">
        <ele>61.9</ele>
        <time>2020-02-23T12:00:18Z</time>
      </trkpt>
      <trkpt lat="39.0748030" lon="1.5777620">
        <ele>61.2</ele>
        <time>2020-02-23T12:00:19Z</time>
      </trkpt>
      <trkpt lat="39.0748720" lon="1.5777830">
        <ele>60.5</ele>
        <time>2020-02-23T12:00:20Z</time>
      </trkpt>
      <trkpt lat="39.0749420" lon="1.5778130">
        <ele>59.6</ele>
        <time>2020-02-23T12:00:21Z</time>
      </trkpt>
      <trkpt lat="39.0750120" lon="1.5778390">
        <ele>58.6</ele>
        <time>2020-02-23T12:00:22Z</time>
      </trkpt>
      <trkpt lat="39.0750770" lon="1.5778800">
        <ele>57.5</ele>
        <time>2020-02-23T12:00:23Z</time>
      </trkpt>
      <trkpt lat="39.0751370" lon="1.5779370">
        <ele>56.4</ele>
        <time>2020-02-23T12:00:24Z</time>
      </trkpt>
      <trkpt lat="39.0751840" lon="1.5780160">
        <ele>55.5</ele>
        <time>2020-02-23T12:00:25Z</time>
      </trkpt>
      <trkpt lat="39.0752280" lon="1.5781010">
        <ele>54.3</ele>
        <time>2020-02-23T12:00:26Z</time>
      </trkpt>
      <trkpt lat="39.0752770" lon="1.5781890">
        <ele>52.9</ele>
        <time>2020-02-23T12:00:27Z</time>
      </trkpt>
      <trkpt lat="39.0753340" lon="1.5782660">
        <ele>51.7</ele>
        <time>2020-02-23T12:00:28Z</time>
      </trkpt>
      <trkpt lat="39.0753950" lon="1.5783430">
        <ele>50.6</ele>
        <time>2020-02-23T12:00:29Z</time>
      </trkpt>
      <trkpt lat="39.0754510" lon="1.5784260">
        <ele>49.7</ele>
        <time>2020-02-23T12:00:30Z</time>
      </trkpt>
      <trkpt lat="39.0755080" lon="1.5785200">
        <ele>48.5</ele>
        <time>2020-02-23T12:00:31Z</time>
      </trkpt>
      <trkpt lat="39.0755650" lon="1.5786250">
        <ele>47.4</ele>
        <time>2020-02-23T12:00:32Z</time>
      </trkpt>
      <trkpt lat="39.0756200" lon="1.5787350">
        <ele>46.5</ele>
        <time>2020-02-23T12:00:33Z</time>
      </trkpt>
      <trkpt lat="39.0756800" lon="1.5788390">
        <ele>45.6</ele>
        <time>2020-02-23T12:00:34Z</time>
      </trkpt>
      <trkpt lat="39.0757320" lon="1.5789440">
        <ele>44.6</ele>
        <time>2020-02-23T12:00:35Z</time>
      </trkpt>
      <trkpt lat="39.0757810" lon="1.5790420">
        <ele>43.6</ele>
        <time>2020-02-23T12:00:36Z</time>
      </trkpt>
      <trkpt lat="39.0758310" lon="1.5791260">
        <ele>42.7</ele>
        <time>2020-02-23T12:00:37Z</time>
      </trkpt>
      <trkpt lat="39.0758730" lon="1.5791920">
        <ele>41.9</ele>
        <time>2020-02-23T12:00:38Z</time>
      </trkpt>
      <trkpt lat="39.0759230" lon="1.5792470">
        <ele>41.0</ele>
        <time>2020-02-23T12:00:39Z</time>
      </trkpt>
      <trkpt lat="39.0759760" lon="1.5792930">
        <ele>40.0</ele>
        <time>2020-02-23T12:00:40Z</time>
      </trkpt>
      <trkpt lat="39.0760200" lon="1.5793410">
        <ele>39.4</ele>
        <time>2020-02-23T12:00:41Z</time>
      </trkpt>
      <trkpt lat="39.0760660" lon="1.5793830">
        <ele>38.7</ele>
        <time>2020-02-23T12:00:42Z</time>
      </trkpt>
      <trkpt lat="39.0761070" lon="1.5794260">
        <ele>38.0</ele>
        <time>2020-02-23T12:00:43Z</time>
      </trkpt>
      <trkpt lat="39.0761440" lon="1.5794540">
        <ele>37.4</ele>
        <time>2020-02-23T12:00:44Z</time>
      </trkpt>
      <trkpt lat="39.0761690" lon="1.5794890">
        <ele>36.8</ele>
        <time>2020-02-23T12:00:45Z</time>
      </trkpt>
      <trkpt lat="39.0761560" lon="1.5795290">
        <ele>36.4</ele>
        <time>2020-02-23T12:00:46Z</time>
      </trkpt>
      <trkpt lat="39.0761550" lon="1.5795420">
        <ele>36.3</ele>
        <time>2020-02-23T12:00:47Z</time>
      </trkpt>
      <trkpt lat="39.0761200" lon="1.5795330">
        <ele>35.9</ele>
        <time>2020-02-23T12:00:48Z</time>
      </trkpt>
      <trkpt lat="39.0760740" lon="1.5794860">
        <ele>35.3</ele>
        <time>2020-02-23T12:00:49Z</time>
      </trkpt>
      <trkpt lat="39.0760160" lon="1.5794570">
        <ele>34.5</ele>
        <time>2020-02-23T12:00:50Z</time>
      </trkpt>
      <trkpt lat="39.0759570" lon="1.5794220">
        <ele>33.9</ele>
        <time>2020-02-23T12:00:51Z</time>
      </trkpt>
      <trkpt lat="39.0759030" lon="1.5793730">
        <ele>33.3</ele>
        <time>2020-02-23T12:00:52Z</time>
      </trkpt>
      <trkpt lat="39.0758600" lon="1.5793230">
        <ele>32.8</ele>
        <time>2020-02-23T12:00:53Z</time>
      </trkpt>
      <trkpt lat="39.0758190" lon="1.5792870">
        <ele>32.2</ele>
        <time>2020-02-23T12:00:54Z</time>
      </trkpt>
      <trkpt lat="39.0757850" lon="1.5792960">
        <ele>31.8</ele>
        <time>2020-02-23T12:00:55Z</time>
      </trkpt>
      <trkpt lat="39.0757600" lon="1.5793500">
        <ele>31.3</ele>
        <time>2020-02-23T12:00:56Z</time>
      </trkpt>
      <trkpt lat="39.0757830" lon="1.5794040">
        <ele>30.8</ele>
        <time>2020-02-23T12:00:57Z</time>
      </trkpt>
      <trkpt lat="39.0758360" lon="1.5794530">
        <ele>30.1</ele>
        <time>2020-02-23T12:00:58Z</time>
      </trkpt>
      <trkpt lat="39.0758720" lon="1.5795210">
        <ele>29.7</ele>
        <time>2020-02-23T12:00:59Z</time>
      </trkpt>
      <trkpt lat="39.0759030" lon="1.5796130">
        <ele>29.1</ele>
        <time>2020-02-23T12:01:00Z</time>
      </trkpt>
      <trkpt lat="39.0759390" lon="1.5797070">
        <ele>28.5</ele>
        <time>2020-02-23T12:01:01Z</time>
      </trkpt>
      <trkpt lat="39.0759870" lon="1.5797920">
        <ele>27.8</ele>
        <time>2020-02-23T12:01:02Z</time>
      </trkpt>
      <trkpt lat="39.0760260" lon="1.5798690">
        <ele>27.2</ele>
        <time>2020-02-23T12:01:03Z</time>
      </trkpt>
      <trkpt lat="39.0760520" lon="1.5799520">
        <ele>26.7</ele>
        <time>2020-02-23T12:01:04Z</time>
      </trkpt>
      <trkpt lat="39.0760720" lon="1.5800440">
        <ele>26.2</ele>
        <time>2020-02-23T12:01:05Z</time>
      </trkpt>
      <trkpt lat="39.0760750" lon="1.5801390">
        <ele>25.7</ele>
        <time>2020-02-23T12:01:06Z</time>
      </trkpt>
      <trkpt lat="39.0760860" lon="1.5802380">
        <ele>25.1</ele>
        <time>2020-02-23T12:01:07Z</time>
      </trkpt>
      <trkpt lat="39.0761120" lon="1.5803340">
        <ele>24.5</ele>
        <time>2020-02-23T12:01:08Z</time>
      </trkpt>
      <trkpt lat="39.0761360" lon="1.5804180">
        <ele>24.0</ele>
        <time>2020-02-23T12:01:09Z</time>
      </trkpt>
      <trkpt lat="39.0761560" lon="1.5805060">
        <ele>23.3</ele>
        <time>2020-02-23T12:01:10Z</time>
      </trkpt>
      <trkpt lat="39.0761920" lon="1.5805820">
        <ele>22.5</ele>
        <time>2020-02-23T12:01:11Z</time>
      </trkpt>
      <trkpt lat="39.0762430" lon="1.5806450">
        <ele>21.9</ele>
        <time>2020-02-23T12:01:12Z</time>
      </trkpt>
      <trkpt lat="39.0763070" lon="1.5806830">
        <ele>21.0</ele>
        <time>2020-02-23T12:01:13Z</time>
      </trkpt>
      <trkpt lat="39.0763660" lon="1.5807270">
        <ele>20.0</ele>
        <time>2020-02-23T12:01:14Z</time>
      </trkpt>
      <trkpt lat="39.0764210" lon="1.5807770">
        <ele>19.1</ele>
        <time>2020-02-23T12:01:15Z</time>
      </trkpt>
      <trkpt lat="39.0764760" lon="1.5808410">
        <ele>18.3</ele>
        <time>2020-02-23T12:01:16Z</time>
      </trkpt>
      <trkpt lat="39.0765380" lon="1.5809040">
        <ele>17.4</ele>
        <time>2020-02-23T12:01:17Z</time>
      </trkpt>
      <trkpt lat="39.0765950" lon="1.5809670">
        <ele>16.6</ele>
        <time>2020-02-23T12:01:18Z</time>
      </trkpt>
      <trkpt lat="39.0766410" lon="1.5810360">
        <ele>15.8</ele>
        <time>2020-02-23T12:01:19Z</time>
      </trkpt>
      <trkpt lat="39.0766850" lon="1.5811230">
        <ele>14.8</ele>
        <time>2020-02-23T12:01:20Z</time>
      </trkpt>
      <trkpt lat="39.0767360" lon="1.5812070">
        <ele>13.9</ele>
        <time>2020-02-23T12:01:21Z</time>
      </trkpt>
      <trkpt lat="39.0767860" lon="1.5812960">
        <ele>12.9</ele>
        <time>2020-02-23T12:01:22Z</time>
      </trkpt>
      <trkpt lat="39.0768430" lon="1.5813690">
        <ele>12.4</ele>
        <time>2020-02-23T12:01:23Z</time>
      </trkpt>
      <trkpt lat="39.0769090" lon="1.5814200">
        <ele>11.9</ele>
        <time>2020-02-23T12:01:24Z</time>
      </trkpt>
      <trkpt lat="39.0769820" lon="1.5814620">
        <ele>11.4</ele>
        <time>2020-02-23T12:01:25Z</time>
      </trkpt>
      <trkpt lat="39.0770350" lon="1.5815340">
        <ele>11.0</ele>
        <time>2020-02-23T12:01:26Z</time>
      </trkpt>
      <trkpt lat="39.0770810" lon="1.5816170">
        <ele>10.7</ele>
        <time>2020-02-23T12:01:27Z</time>
      </trkpt>
      <trkpt lat="39.0771240" lon="1.5816910">
        <ele>10.5</ele>
        <time>2020-02-23T12:01:28Z</time>
      </trkpt>
      <trkpt lat="39.0771710" lon="1.5817510">
        <ele>10.3</ele>
        <time>2020-02-23T12:01:29Z</time>
      </trkpt>
      <trkpt lat="39.0772210" lon="1.5818000">
        <ele>10.1</ele>
        <time>2020-02-23T12:01:30Z</time>
      </trkpt>
      <trkpt lat="39.0772750" lon="1.5818250">
        <ele>9.9</ele>
        <time>2020-02-23T12:01:31Z</time>
      </trkpt>
      <trkpt lat="39.0773150" lon="1.5818450">
        <ele>9.8</ele>
        <time>2020-02-23T12:01:32Z</time>
      </trkpt>
      <trkpt lat="39.0773470" lon="1.5818430">
        <ele>9.7</ele>
        <time>2020-02-23T12:01:33Z</time>
      </trkpt>
      <trkpt lat="39.0773530" lon="1.5818360">
        <ele>9.7</ele>
        <time>2020-02-23T12:01:34Z</time>
      </trkpt>
      <trkpt lat="39.0773900" lon="1.5818160">
        <ele>9.5</ele>
        <time>2020-02-23T12:01:35Z</time>
      </trkpt>
      <trkpt lat="39.0774020" lon="1.5818050">
        <ele>9.5</ele>
        <time>2020-02-23T12:01:36Z</time>
      </trkpt>
      <trkpt lat="39.0774200" lon="1.5817620">
        <ele>9.4</ele>
        <time>2020-02-23T12:01:37Z</time>
      </trkpt>
      <trkpt lat="39.0774290" lon="1.5817480">
        <ele>9.4</ele>
        <time>2020-02-23T12:01:38Z</time>
      </trkpt>
      <trkpt lat="39.0774390" lon="1.5817030">
        <ele>9.4</ele>
        <time>2020-02-23T12:01:39Z</time>
      </trkpt>
      <trkpt lat="39.0774440" lon="1.5816890">
        <ele>9.4</ele>
        <time>2020-02-23T12:01:40Z</time>
      </trkpt>
      <trkpt lat="39.0774550" lon="1.5816510">
        <ele>9.4</ele>
        <time>2020-02-23T12:01:41Z</time>
      </trkpt>
      <trkpt lat="39.0774730" lon="1.5816160">
        <ele>9.4</ele>
        <time>2020-02-23T12:01:42Z</time>
      </trkpt>
      <trkpt lat="39.0774880" lon="1.5815800">
        <ele>9.5</ele>
        <time>2020-02-23T12:01:43Z</time>
      </trkpt>
      <trkpt lat="39.0775120" lon="1.5815460">
        <ele>9.5</ele>
        <time>2020-02-23T12:01:44Z</time>
      </trkpt>
      <trkpt lat="39.0775200" lon="1.5815360">
        <ele>9.5</ele>
        <time>2020-02-23T12:01:45Z</time>
      </trkpt>
      <trkpt lat="39.0775450" lon="1.5815050">
        <ele>9.6</ele>
        <time>2020-02-23T12:01:46Z</time>
      </trkpt>
      <trkpt lat="39.0775510" lon="1.5814940">
        <ele>9.6</ele>
        <time>2020-02-23T12:01:47Z</time>
      </trkpt>
      <trkpt lat="39.0775740" lon="1.5814700">
        <ele>9.7</ele>
        <time>2020-02-23T12:01:48Z</time>
      </trkpt>
      <trkpt lat="39.0775840" lon="1.5814660">
        <ele>9.7</ele>
        <time>2020-02-23T12:01:49Z</time>
      </trkpt>
      <trkpt lat="39.0776180" lon="1.5814410">
        <ele>9.8</ele>
        <time>2020-02-23T12:01:50Z</time>
      </trkpt>
      <trkpt lat="39.0776320" lon="1.5814370">
        <ele>9.8</ele>
        <time>2020-02-23T12:01:51Z</time>
      </trkpt>
      <trkpt lat="39.0776580" lon="1.5814230">
        <ele>9.8</ele>
        <time>2020-02-23T12:01:52Z</time>
      </trkpt>
      <trkpt lat="39.0776530" lon="1.5813770">
        <ele>9.9</ele>
        <time>2020-02-23T12:01:53Z</time>
      </trkpt>
      <trkpt lat="39.0776750" lon="1.5813430">
        <ele>10.0</ele>
        <time>2020-02-23T12:01:54Z</time>
      </trkpt>
      <trkpt lat="39.0776790" lon="1.5813060">
        <ele>10.0</ele>
        <time>2020-02-23T12:01:55Z</time>
      </trkpt>
      <trkpt lat="39.0776870" lon="1.5812700">
        <ele>10.1</ele>
        <time>2020-02-23T12:01:56Z</time>
      </trkpt>
      <trkpt lat="39.0776980" lon="1.5812360">
        <ele>10.2</ele>
        <time>2020-02-23T12:01:57Z</time>
      </trkpt>
      <trkpt lat="39.0777110" lon="1.5812050">
        <ele>10.2</ele>
        <time>2020-02-23T12:01:58Z</time>
      </trkpt>
      <trkpt lat="39.0777200" lon="1.5811720">
        <ele>10.3</ele>
        <time>2020-02-23T12:01:59Z</time>
      </trkpt>
      <trkpt lat="39.0777370" lon="1.5811440">
        <ele>10.3</ele>
        <time>2020-02-23T12:02:00Z</time>
      </trkpt>
      <trkpt lat="39.0777500" lon="1.5811080">
        <ele>10.4</ele>
        <time>2020-02-23T12:02:01Z</time>
      </trkpt>
      <trkpt lat="39.0777760" lon="1.5810810">
        <ele>10.4</ele>
        <time>2020-02-23T12:02:02Z</time>
      </trkpt>
      <trkpt lat="39.0778020" lon="1.5810500">
        <ele>10.5</ele>
        <time>2020-02-23T12:02:03Z</time>
      </trkpt>
      <trkpt lat="39.0778320" lon="1.5810240">
        <ele>10.6</ele>
        <time>2020-02-23T12:02:04Z</time>
      </trkpt>
      <trkpt lat="39.0778580" lon="1.5810020">
        <ele>10.6</ele>
        <time>2020-02-23T12:02:05Z</time>
      </trkpt>
      <trkpt lat="39.0778890" lon="1.5809860">
        <ele>10.7</ele>
        <time>2020-02-23T12:02:06Z</time>
      </trkpt>
      <trkpt lat="39.0779150" lon="1.5809530">
        <ele>10.8</ele>
        <time>2020-02-23T12:02:07Z</time>
      </trkpt>
      <trkpt lat="39.0779490" lon="1.5809330">
        <ele>10.8</ele>
        <time>2020-02-23T12:02:08Z</time>
      </trkpt>
      <trkpt lat="39.0779890" lon="1.5809140">
        <ele>10.9</ele>
        <time>2020-02-23T12:02:09Z</time>
      </trkpt>
      <trkpt lat="39.0780250" lon="1.5808830">
        <ele>10.9</ele>
        <time>2020-02-23T12:02:10Z</time>
      </trkpt>
      <trkpt lat="39.0780600" lon="1.5808560">
        <ele>10.9</ele>
        <time>2020-02-23T12:02:11Z</time>
      </trkpt>
      <trkpt lat="39.0780910" lon="1.5808360">
        <ele>11.0</ele>
        <time>2020-02-23T12:02:12Z</time>
      </trkpt>
      <trkpt lat="39.0781240" lon="1.5808050">
        <ele>11.0</ele>
        <time>2020-02-23T12:02:13Z</time>
      </trkpt>
      <trkpt lat="39.0781540" lon="1.5807780">
        <ele>11.1</ele>
        <time>2020-02-23T12:02:14Z</time>
      </trkpt>
      <trkpt lat="39.0781860" lon="1.5807580">
        <ele>11.1</ele>
        <time>2020-02-23T12:02:15Z</time>
      </trkpt>
      <trkpt lat="39.0782190" lon="1.5807410">
        <ele>11.2</ele>
        <time>2020-02-23T12:02:16Z</time>
      </trkpt>
      <trkpt lat="39.0782440" lon="1.5807230">
        <ele>11.2</ele>
        <time>2020-02-23T12:02:17Z</time>
      </trkpt>
      <trkpt lat="39.0782690" lon="1.5806990">
        <ele>11.3</ele>
        <time>2020-02-23T12:02:18Z</time>
      </trkpt>
      <trkpt lat="39.0783040" lon="1.5806830">
        <ele>11.3</ele>
        <time>2020-02-23T12:02:19Z</time>
      </trkpt>
      <trkpt lat="39.0783360" lon="1.5806540">
        <ele>11.4</ele>
        <time>2020-02-23T12:02:20Z</time>
      </trkpt>
      <trkpt lat="39.0783700" lon="1.5806220">
        <ele>11.5</ele>
        <time>2020-02-23T12:02:21Z</time>
      </trkpt>
      <trkpt lat="39.0784030" lon="1.5805890">
        <ele>11.6</ele>
        <time>2020-02-23T12:02:22Z</time>
      </trkpt>
      <trkpt lat="39.0784260" lon="1.5805500">
        <ele>11.6</ele>
        <time>2020-02-23T12:02:23Z</time>
      </trkpt>
      <trkpt lat="39.0784550" lon="1.5804970">
        <ele>11.7</ele>
        <time>2020-02-23T12:02:24Z</time>
      </trkpt>
      <trkpt lat="39.0784630" lon="1.5804300">
        <ele>11.8</ele>
        <time>2020-02-23T12:02:25Z</time>
      </trkpt>
      <trkpt lat="39.0784600" lon="1.5803760">
        <ele>11.8</ele>
        <time>2020-02-23T12:02:26Z</time>
      </trkpt>
      <trkpt lat="39.0784640" lon="1.5803240">
        <ele>11.9</ele>
        <time>2020-02-23T12:02:27Z</time>
      </trkpt>
      <trkpt lat="39.0784710" lon="1.5802700">
        <ele>12.0</ele>
        <time>2020-02-23T12:02:28Z</time>
      </trkpt>
      <trkpt lat="39.0784750" lon="1.5802490">
        <ele>12.1</ele>
        <time>2020-02-23T12:02:29Z</time>
      </trkpt>
      <trkpt lat="39.0784870" lon="1.5802010">
        <ele>12.1</ele>
        <time>2020-02-23T12:02:30Z</time>
      </trkpt>
      <trkpt lat="39.0785150" lon="1.5801710">
        <ele>12.2</ele>
        <time>2020-02-23T12:02:31Z</time>
      </trkpt>
      <trkpt lat="39.0785290" lon="1.5801580">
        <ele>12.3</ele>
        <time>2020-02-23T12:02:32Z</time>
      </trkpt>
      <trkpt lat="39.0785490" lon="1.5801240">
        <ele>12.4</ele>
        <time>2020-02-23T12:02:33Z</time>
      </trkpt>
      <trkpt lat="39.0785700" lon="1.5800950">
        <ele>12.5</ele>
        <time>2020-02-23T12:02:34Z</time>
      </trkpt>
      <trkpt lat="39.0785940" lon="1.5800660">
        <ele>12.5</ele>
        <time>2020-02-23T12:02:35Z</time>
      </trkpt>
      <trkpt lat="39.0786180" lon="1.5800450">
        <ele>12.6</ele>
        <time>2020-02-23T12:02:36Z</time>
      </trkpt>
      <trkpt lat="39.0786450" lon="1.5800210">
        <ele>12.7</ele>
        <time>2020-02-23T12:02:37Z</time>
      </trkpt>
      <trkpt lat="39.0786680" lon="1.5800010">
        <ele>12.8</ele>
        <time>2020-02-23T12:02:38Z</time>
      </trkpt>
      <trkpt lat="39.0786980" lon="1.5799810">
        <ele>12.9</ele>
        <time>2020-02-23T12:02:39Z</time>
      </trkpt>
      <trkpt lat="39.0787260" lon="1.5799510">
        <ele>13.0</ele>
        <time>2020-02-23T12:02:40Z</time>
      </trkpt>
      <trkpt lat="39.0787580" lon="1.5799090">
        <ele>13.2</ele>
        <time>2020-02-23T12:02:41Z</time>
      </trkpt>
      <trkpt lat="39.0787800" lon="1.5798740">
        <ele>13.4</ele>
        <time>2020-02-23T12:02:42Z</time>
      </trkpt>
      <trkpt lat="39.0788050" lon="1.5798450">
        <ele>13.5</ele>
        <time>2020-02-23T12:02:43Z</time>
      </trkpt>
      <trkpt lat="39.0788380" lon="1.5798040">
        <ele>13.8</ele>
        <time>2020-02-23T12:02:44Z</time>
      </trkpt>
      <trkpt lat="39.0788650" lon="1.5797730">
        <ele>13.9</ele>
        <time>2020-02-23T12:02:45Z</time>
      </trkpt>
      <trkpt lat="39.0788820" lon="1.5797460">
        <ele>14.0</ele>
        <time>2020-02-23T12:02:46Z</time>
      </trkpt>
      <trkpt lat="39.0789020" lon="1.5797120">
        <ele>14.1</ele>
        <time>2020-02-23T12:02:47Z</time>
      </trkpt>
      <trkpt lat="39.0789190" lon="1.5796800">
        <ele>14.2</ele>
        <time>2020-02-23T12:02:48Z</time>
      </trkpt>
      <trkpt lat="39.0789370" lon="1.5796460">
        <ele>14.2</ele>
        <time>2020-02-23T12:02:49Z</time>
      </trkpt>
      <trkpt lat="39.0789700" lon="1.5795950">
        <ele>14.4</ele>
        <time>2020-02-23T12:02:50Z</time>
      </trkpt>
      <trkpt lat="39.0789910" lon="1.5795510">
        <ele>14.5</ele>
        <time>2020-02-23T12:02:51Z</time>
      </trkpt>
      <trkpt lat="39.0790080" lon="1.5795120">
        <ele>14.6</ele>
        <time>2020-02-23T12:02:52Z</time>
      </trkpt>
      <trkpt lat="39.0790220" lon="1.5794780">
        <ele>14.7</ele>
        <time>2020-02-23T12:02:53Z</time>
      </trkpt>
      <trkpt lat="39.0790370" lon="1.5794320">
        <ele>14.8</ele>
        <time>2020-02-23T12:02:54Z</time>
      </trkpt>
      <trkpt lat="39.0790500" lon="1.5793920">
        <ele>14.9</ele>
        <time>2020-02-23T12:02:55Z</time>
      </trkpt>
      <trkpt lat="39.0790620" lon="1.5793600">
        <ele>15.0</ele>
        <time>2020-02-23T12:02:56Z</time>
      </trkpt>
      <trkpt lat="39.0790710" lon="1.5793070">
        <ele>15.1</ele>
        <time>2020-02-23T12:02:57Z</time>
      </trkpt>
      <trkpt lat="39.0790700" lon="1.5792530">
        <ele>15.3</ele>
        <time>2020-02-23T12:02:58Z</time>
      </trkpt>
      <trkpt lat="39.0790720" lon="1.5792020">
        <ele>15.4</ele>
        <time>2020-02-23T12:02:59Z</time>
      </trkpt>
      <trkpt lat="39.0790820" lon="1.5791480">
        <ele>15.4</ele>
        <time>2020-02-23T12:03:00Z</time>
      </trkpt>
      <trkpt lat="39.0790980" lon="1.5790790">
        <ele>15.5</ele>
        <time>2020-02-23T12:03:01Z</time>
      </trkpt>
      <trkpt lat="39.0791000" lon="1.5790070">
        <ele>15.6</ele>
        <time>2020-02-23T12:03:02Z</time>
      </trkpt>
      <trkpt lat="39.0790950" lon="1.5789440">
        <ele>15.7</ele>
        <time>2020-02-23T12:03:03Z</time>
      </trkpt>
      <trkpt lat="39.0790730" lon="1.5788840">
        <ele>15.7</ele>
        <time>2020-02-23T12:03:04Z</time>
      </trkpt>
      <trkpt lat="39.0790540" lon="1.5788320">
        <ele>15.8</ele>
        <time>2020-02-23T12:03:05Z</time>
      </trkpt>
      <trkpt lat="39.0790290" lon="1.5787630">
        <ele>15.9</ele>
        <time>2020-02-23T12:03:06Z</time>
      </trkpt>
      <trkpt lat="39.0790100" lon="1.5787250">
        <ele>16.0</ele>
        <time>2020-02-23T12:03:07Z</time>
      </trkpt>
      <trkpt lat="39.0789980" lon="1.5786850">
        <ele>16.1</ele>
        <time>2020-02-23T12:03:08Z</time>
      </trkpt>
      <trkpt lat="39.0789830" lon="1.5786440">
        <ele>16.3</ele>
        <time>2020-02-23T12:03:09Z</time>
      </trkpt>
      <trkpt lat="39.0789590" lon="1.5786060">
        <ele>16.4</ele>
        <time>2020-02-23T12:03:10Z</time>
      </trkpt>
      <trkpt lat="39.0789380" lon="1.5785700">
        <ele>16.6</ele>
        <time>2020-02-23T12:03:11Z</time>
      </trkpt>
      <trkpt lat="39.0789170" lon="1.5785390">
        <ele>16.7</ele>
        <time>2020-02-23T12:03:12Z</time>
      </trkpt>
      <trkpt lat="39.0788980" lon="1.5784930">
        <ele>17.0</ele>
        <time>2020-02-23T12:03:13Z</time>
      </trkpt>
      <trkpt lat="39.0788770" lon="1.5784510">
        <ele>17.2</ele>
        <time>2020-02-23T12:03:14Z</time>
      </trkpt>
      <trkpt lat="39.0788570" lon="1.5784120">
        <ele>17.4</ele>
        <time>2020-02-23T12:03:15Z</time>
      </trkpt>
      <trkpt lat="39.0788430" lon="1.5783800">
        <ele>17.5</ele>
        <time>2020-02-23T12:03:16Z</time>
      </trkpt>
      <trkpt lat="39.0788210" lon="1.5783440">
        <ele>17.7</ele>
        <time>2020-02-23T12:03:17Z</time>
      </trkpt>
      <trkpt lat="39.0787990" lon="1.5783150">
        <ele>17.9</ele>
        <time>2020-02-23T12:03:18Z</time>
      </trkpt>
      <trkpt lat="39.0787790" lon="1.5782740">
        <ele>18.1</ele>
        <time>2020-02-23T12:03:19Z</time>
      </trkpt>
      <trkpt lat="39.0787660" lon="1.5782560">
        <ele>18.2</ele>
        <time>2020-02-23T12:03:20Z</time>
      </trkpt>
      <trkpt lat="39.0787510" lon="1.5782140">
        <ele>18.3</ele>
        <time>2020-02-23T12:03:21Z</time>
      </trkpt>
      <trkpt lat="39.0787360" lon="1.5781770">
        <ele>18.4</ele>
        <time>2020-02-23T12:03:22Z</time>
      </trkpt>
      <trkpt lat="39.0787130" lon="1.5781360">
        <ele>18.6</ele>
        <time>2020-02-23T12:03:23Z</time>
      </trkpt>
      <trkpt lat="39.0786960" lon="1.5780920">
        <ele>18.7</ele>
        <time>2020-02-23T12:03:24Z</time>
      </trkpt>
      <trkpt lat="39.0786870" lon="1.5780370">
        <ele>18.8</ele>
        <time>2020-02-23T12:03:25Z</time>
      </trkpt>
      <trkpt lat="39.0786810" lon="1.5779820">
        <ele>18.9</ele>
        <time>2020-02-23T12:03:26Z</time>
      </trkpt>
      <trkpt lat="39.0786690" lon="1.5779300">
        <ele>19.0</ele>
        <time>2020-02-23T12:03:27Z</time>
      </trkpt>
      <trkpt lat="39.0786520" lon="1.5778670">
        <ele>19.2</ele>
        <time>2020-02-23T12:03:28Z</time>
      </trkpt>
      <trkpt lat="39.0786370" lon="1.5778210">
        <ele>19.3</ele>
        <time>2020-02-23T12:03:29Z</time>
      </trkpt>
      <trkpt lat="39.0786290" lon="1.5777740">
        <ele>19.4</ele>
        <time>2020-02-23T12:03:30Z</time>
      </trkpt>
      <trkpt lat="39.0786240" lon="1.5777270">
        <ele>19.6</ele>
        <time>2020-02-23T12:03:31Z</time>
      </trkpt>
      <trkpt lat="39.0786220" lon="1.5776760">
        <ele>19.7</ele>
        <time>2020-02-23T12:03:32Z</time>
      </trkpt>
      <trkpt lat="39.0786280" lon="1.5776280">
        <ele>19.7</ele>
        <time>2020-02-23T12:03:33Z</time>
      </trkpt>
      <trkpt lat="39.0786340" lon="1.5775890">
        <ele>19.8</ele>
        <time>2020-02-23T12:03:34Z</time>
      </trkpt>
      <trkpt lat="39.0786460" lon="1.5775450">
        <ele>19.9</ele>
        <time>2020-02-23T12:03:35Z</time>
      </trkpt>
      <trkpt lat="39.0786610" lon="1.5775080">
        <ele>19.9</ele>
        <time>2020-02-23T12:03:36Z</time>
      </trkpt>
      <trkpt lat="39.0786720" lon="1.5774570">
        <ele>20.0</ele>
        <time>2020-02-23T12:03:37Z</time>
      </trkpt>
      <trkpt lat="39.0786780" lon="1.5774190">
        <ele>20.1</ele>
        <time>2020-02-23T12:03:38Z</time>
      </trkpt>
      <trkpt lat="39.0786800" lon="1.5773760">
        <ele>20.1</ele>
        <time>2020-02-23T12:03:39Z</time>
      </trkpt>
      <trkpt lat="39.0786930" lon="1.5773260">
        <ele>20.2</ele>
        <time>2020-02-23T12:03:40Z</time>
      </trkpt>
      <trkpt lat="39.0787030" lon="1.5772740">
        <ele>20.3</ele>
        <time>2020-02-23T12:03:41Z</time>
      </trkpt>
      <trkpt lat="39.0787140" lon="1.5772230">
        <ele>20.3</ele>
        <time>2020-02-23T12:03:42Z</time>
      </trkpt>
      <trkpt lat="39.0787240" lon="1.5771760">
        <ele>20.4</ele>
        <time>2020-02-23T12:03:43Z</time>
      </trkpt>
      <trkpt lat="39.0787300" lon="1.5771290">
        <ele>20.4</ele>
        <time>2020-02-23T12:03:44Z</time>
      </trkpt>
      <trkpt lat="39.0787450" lon="1.5770770">
        <ele>20.5</ele>
        <time>2020-02-23T12:03:45Z</time>
      </trkpt>
      <trkpt lat="39.0787610" lon="1.5770220">
        <ele>20.5</ele>
        <time>2020-02-23T12:03:46Z</time>
      </trkpt>
      <trkpt lat="39.0787730" lon="1.5769670">
        <ele>20.5</ele>
        <time>2020-02-23T12:03:47Z</time>
      </trkpt>
      <trkpt lat="39.0787820" lon="1.5769140">
        <ele>20.5</ele>
        <time>2020-02-23T12:03:48Z</time>
      </trkpt>
      <trkpt lat="39.0788000" lon="1.5768710">
        <ele>20.5</ele>
        <time>2020-02-23T12:03:49Z</time>
      </trkpt>
      <trkpt lat="39.0788220" lon="1.5768200">
        <ele>20.5</ele>
        <time>2020-02-23T12:03:50Z</time>
      </trkpt>
      <trkpt lat="39.0788440" lon="1.5767660">
        <ele>20.5</ele>
        <time>2020-02-23T12:03:51Z</time>
      </trkpt>
      <trkpt lat="39.0788680" lon="1.5767070">
        <ele>20.6</ele>
        <time>2020-02-23T12:03:52Z</time>
      </trkpt>
      <trkpt lat="39.0788810" lon="1.5766570">
        <ele>20.6</ele>
        <time>2020-02-23T12:03:53Z</time>
      </trkpt>
      <trkpt lat="39.0789100" lon="1.5765920">
        <ele>20.8</ele>
        <time>2020-02-23T12:03:54Z</time>
      </trkpt>
      <trkpt lat="39.0789240" lon="1.5765310">
        <ele>20.9</ele>
        <time>2020-02-23T12:03:55Z</time>
      </trkpt>
      <trkpt lat="39.0789400" lon="1.5764750">
        <ele>21.0</ele>
        <time>2020-02-23T12:03:56Z</time>
      </trkpt>
      <trkpt lat="39.0789600" lon="1.5764220">
        <ele>21.1</ele>
        <time>2020-02-23T12:03:57Z</time>
      </trkpt>
      <trkpt lat="39.0789830" lon="1.5763910">
        <ele>21.1</ele>
        <time>2020-02-23T12:03:58Z</time>
      </trkpt>
      <trkpt lat="39.0789980" lon="1.5763520">
        <ele>21.2</ele>
        <time>2020-02-23T12:03:59Z</time>
      </trkpt>
      <trkpt lat="39.0790150" lon="1.5763150">
        <ele>21.3</ele>
        <time>2020-02-23T12:04:00Z</time>
      </trkpt>
      <trkpt lat="39.0790320" lon="1.5762820">
        <ele>21.3</ele>
        <time>2020-02-23T12:04:01Z</time>
      </trkpt>
      <trkpt lat="39.0790530" lon="1.5762510">
        <ele>21.4</ele>
        <time>2020-02-23T12:04:02Z</time>
      </trkpt>
      <trkpt lat="39.0790780" lon="1.5762180">
        <ele>21.4</ele>
        <time>2020-02-23T12:04:03Z</time>
      </trkpt>
      <trkpt lat="39.0791010" lon="1.5761880">
        <ele>21.4</ele>
        <time>2020-02-23T12:04:04Z</time>
      </trkpt>
      <trkpt lat="39.0791240" lon="1.5761580">
        <ele>21.5</ele>
        <time>2020-02-23T12:04:05Z</time>
      </trkpt>
      <trkpt lat="39.0791450" lon="1.5761180">
        <ele>21.5</ele>
        <time>2020-02-23T12:04:06Z</time>
      </trkpt>
      <trkpt lat="39.0791700" lon="1.5760810">
        <ele>21.6</ele>
        <time>2020-02-23T12:04:07Z</time>
      </trkpt>
      <trkpt lat="39.0791880" lon="1.5760390">
        <ele>21.6</ele>
        <time>2020-02-23T12:04:08Z</time>
      </trkpt>
      <trkpt lat="39.0792100" lon="1.5760030">
        <ele>21.7</ele>
        <time>2020-02-23T12:04:09Z</time>
      </trkpt>
      <trkpt lat="39.0792310" lon="1.5759690">
        <ele>21.7</ele>
        <time>2020-02-23T12:04:10Z</time>
      </trkpt>
      <trkpt lat="39.0792560" lon="1.5759360">
        <ele>21.8</ele>
        <time>2020-02-23T12:04:11Z</time>
      </trkpt>
      <trkpt lat="39.0792840" lon="1.5758990">
        <ele>21.9</ele>
        <time>2020-02-23T12:04:12Z</time>
      </trkpt>
      <trkpt lat="39.0793060" lon="1.5758690">
        <ele>22.0</ele>
        <time>2020-02-23T12:04:13Z</time>
      </trkpt>
      <trkpt lat="39.0793300" lon="1.5758460">
        <ele>22.0</ele>
        <time>2020-02-23T12:04:14Z</time>
      </trkpt>
      <trkpt lat="39.0793470" lon="1.5758160">
        <ele>22.1</ele>
        <time>2020-02-23T12:04:15Z</time>
      </trkpt>
      <trkpt lat="39.0793670" lon="1.5757810">
        <ele>22.2</ele>
        <time>2020-02-23T12:04:16Z</time>
      </trkpt>
      <trkpt lat="39.0793820" lon="1.5757480">
        <ele>22.2</ele>
        <time>2020-02-23T12:04:17Z</time>
      </trkpt>
      <trkpt lat="39.0793970" lon="1.5757140">
        <ele>22.3</ele>
        <time>2020-02-23T12:04:18Z</time>
      </trkpt>
      <trkpt lat="39.0794200" lon="1.5756780">
        <ele>22.4</ele>
        <time>2020-02-23T12:04:19Z</time>
      </trkpt>
      <trkpt lat="39.0794390" lon="1.5756360">
        <ele>22.4</ele>
        <time>2020-02-23T12:04:20Z</time>
      </trkpt>
      <trkpt lat="39.0794700" lon="1.5755980">
        <ele>22.5</ele>
        <time>2020-02-23T12:04:21Z</time>
      </trkpt>
      <trkpt lat="39.0794820" lon="1.5755800">
        <ele>22.5</ele>
        <time>2020-02-23T12:04:22Z</time>
      </trkpt>
      <trkpt lat="39.0795010" lon="1.5755500">
        <ele>22.5</ele>
        <time>2020-02-23T12:04:23Z</time>
      </trkpt>
      <trkpt lat="39.0795250" lon="1.5755180">
        <ele>22.5</ele>
        <time>2020-02-23T12:04:24Z</time>
      </trkpt>
      <trkpt lat="39.0795530" lon="1.5755020">
        <ele>22.5</ele>
        <time>2020-02-23T12:04:25Z</time>
      </trkpt>
      <trkpt lat="39.0795870" lon="1.5754730">
        <ele>22.6</ele>
        <time>2020-02-23T12:04:26Z</time>
      </trkpt>
      <trkpt lat="39.0796170" lon="1.5754390">
        <ele>22.6</ele>
        <time>2020-02-23T12:04:27Z</time>
      </trkpt>
      <trkpt lat="39.0796420" lon="1.5753960">
        <ele>22.6</ele>
        <time>2020-02-23T12:04:28Z</time>
      </trkpt>
      <trkpt lat="39.0796700" lon="1.5753600">
        <ele>22.6</ele>
        <time>2020-02-23T12:04:29Z</time>
      </trkpt>
      <trkpt lat="39.0797000" lon="1.5753330">
        <ele>22.6</ele>
        <time>2020-02-23T12:04:30Z</time>
      </trkpt>
      <trkpt lat="39.0797280" lon="1.5753080">
        <ele>22.6</ele>
        <time>2020-02-23T12:04:31Z</time>
      </trkpt>
      <trkpt lat="39.0797490" lon="1.5752770">
        <ele>22.6</ele>
        <time>2020-02-23T12:04:32Z</time>
      </trkpt>
      <trkpt lat="39.0797660" lon="1.5752490">
        <ele>22.6</ele>
        <time>2020-02-23T12:04:33Z</time>
      </trkpt>
      <trkpt lat="39.0797730" lon="1.5752020">
        <ele>22.6</ele>
        <time>2020-02-23T12:04:34Z</time>
      </trkpt>
      <trkpt lat="39.0797730" lon="1.5751830">
        <ele>22.6</ele>
        <time>2020-02-23T12:04:35Z</time>
      </trkpt>
      <trkpt lat="39.0797800" lon="1.5751370">
        <ele>22.7</ele>
        <time>2020-02-23T12:04:36Z</time>
      </trkpt>
      <trkpt lat="39.0798100" lon="1.5750940">
        <ele>22.7</ele>
        <time>2020-02-23T12:04:37Z</time>
      </trkpt>
      <trkpt lat="39.0798240" lon="1.5750740">
        <ele>22.8</ele>
        <time>2020-02-23T12:04:38Z</time>
      </trkpt>
      <trkpt lat="39.0798490" lon="1.5750310">
        <ele>22.9</ele>
        <time>2020-02-23T12:04:39Z</time>
      </trkpt>
      <trkpt lat="39.0798690" lon="1.5749900">
        <ele>22.9</ele>
        <time>2020-02-23T12:04:40Z</time>
      </trkpt>
      <trkpt lat="39.0798940" lon="1.5749550">
        <ele>23.0</ele>
        <time>2020-02-23T12:04:41Z</time>
      </trkpt>
      <trkpt lat="39.0799170" lon="1.5749260">
        <ele>23.1</ele>
        <time>2020-02-23T12:04:42Z</time>
      </trkpt>
      <trkpt lat="39.0799410" lon="1.5748960">
        <ele>23.2</ele>
        <time>2020-02-23T12:04:43Z</time>
      </trkpt>
      <trkpt lat="39.0799590" lon="1.5748470">
        <ele>23.3</ele>
        <time>2020-02-23T12:04:44Z</time>
      </trkpt>
      <trkpt lat="39.0799940" lon="1.5747830">
        <ele>23.4</ele>
        <time>2020-02-23T12:04:45Z</time>
      </trkpt>
      <trkpt lat="39.0800190" lon="1.5747290">
        <ele>23.5</ele>
        <time>2020-02-23T12:04:46Z</time>
      </trkpt>
      <trkpt lat="39.0800370" lon="1.5746890">
        <ele>23.6</ele>
        <time>2020-02-23T12:04:47Z</time>
      </trkpt>
      <trkpt lat="39.0800530" lon="1.5746450">
        <ele>23.6</ele>
        <time>2020-02-23T12:04:48Z</time>
      </trkpt>
      <trkpt lat="39.0800600" lon="1.5746110">
        <ele>23.6</ele>
        <time>2020-02-23T12:04:49Z</time>
      </trkpt>
      <trkpt lat="39.0800840" lon="1.5745760">
        <ele>23.7</ele>
        <time>2020-02-23T12:04:50Z</time>
      </trkpt>
      <trkpt lat="39.0801070" lon="1.5745330">
        <ele>23.8</ele>
        <time>2020-02-23T12:04:51Z</time>
      </trkpt>
      <trkpt lat="39.0801360" lon="1.5744900">
        <ele>23.8</ele>
        <time>2020-02-23T12:04:52Z</time>
      </trkpt>
      <trkpt lat="39.0801610" lon="1.5744420">
        <ele>23.9</ele>
        <time>2020-02-23T12:04:53Z</time>
      </trkpt>
      <trkpt lat="39.0801790" lon="1.5744030">
        <ele>24.0</ele>
        <time>2020-02-23T12:04:54Z</time>
      </trkpt>
      <trkpt lat="39.0801910" lon="1.5743660">
        <ele>24.1</ele>
        <time>2020-02-23T12:04:55Z</time>
      </trkpt>
      <trkpt lat="39.0802140" lon="1.5743300">
        <ele>24.1</ele>
        <time>2020-02-23T12:04:56Z</time>
      </trkpt>
      <trkpt lat="39.0802330" lon="1.5742750">
        <ele>24.2</ele>
        <time>2020-02-23T12:04:57Z</time>
      </trkpt>
      <trkpt lat="39.0802550" lon="1.5742290">
        <ele>24.3</ele>
        <time>2020-02-23T12:04:58Z</time>
      </trkpt>
      <trkpt lat="39.0802810" lon="1.5741780">
        <ele>24.4</ele>
        <time>2020-02-23T12:04:59Z</time>
      </trkpt>
      <trkpt lat="39.0803230" lon="1.5741340">
        <ele>24.5</ele>
        <time>2020-02-23T12:05:00Z</time>
      </trkpt>
      <trkpt lat="39.0803450" lon="1.5740960">
        <ele>24.5</ele>
        <time>2020-02-23T12:05:01Z</time>
      </trkpt>
      <trkpt lat="39.0803590" lon="1.5740610">
        <ele>24.6</ele>
        <time>2020-02-23T12:05:02Z</time>
      </trkpt>
      <trkpt lat="39.0803720" lon="1.5740040">
        <ele>24.6</ele>
        <time>2020-02-23T12:05:03Z</time>
      </trkpt>
      <trkpt lat="39.0803980" lon="1.5739520">
        <ele>24.7</ele>
        <time>2020-02-23T12:05:04Z</time>
      </trkpt>
      <trkpt lat="39.0804180" lon="1.5739100">
        <ele>24.7</ele>
        <time>2020-02-23T12:05:05Z</time>
      </trkpt>
      <trkpt lat="39.0804270" lon="1.5738600">
        <ele>24.7</ele>
        <time>2020-02-23T12:05:06Z</time>
      </trkpt>
      <trkpt lat="39.0804470" lon="1.5738240">
        <ele>24.7</ele>
        <time>2020-02-23T12:05:07Z</time>
      </trkpt>
      <trkpt lat="39.0804730" lon="1.5737910">
        <ele>24.7</ele>
        <time>2020-02-23T12:05:08Z</time>
      </trkpt>
      <trkpt lat="39.0804930" lon="1.5737570">
        <ele>24.7</ele>
        <time>2020-02-23T12:05:09Z</time>
      </trkpt>
      <trkpt lat="39.0805130" lon="1.5737250">
        <ele>24.7</ele>
        <time>2020-02-23T12:05:10Z</time>
      </trkpt>
      <trkpt lat="39.0805270" lon="1.5736730">
        <ele>24.9</ele>
        <time>2020-02-23T12:05:11Z</time>
      </trkpt>
      <trkpt lat="39.0805380" lon="1.5736370">
        <ele>25.0</ele>
        <time>2020-02-23T12:05:12Z</time>
      </trkpt>
      <trkpt lat="39.0805480" lon="1.5736030">
        <ele>25.1</ele>
        <time>2020-02-23T12:05:13Z</time>
      </trkpt>
      <trkpt lat="39.0805600" lon="1.5735590">
        <ele>25.2</ele>
        <time>2020-02-23T12:05:14Z</time>
      </trkpt>
      <trkpt lat="39.0805680" lon="1.5735410">
        <ele>25.2</ele>
        <time>2020-02-23T12:05:15Z</time>
      </trkpt>
      <trkpt lat="39.0805820" lon="1.5735060">
        <ele>25.3</ele>
        <time>2020-02-23T12:05:16Z</time>
      </trkpt>
      <trkpt lat="39.0805970" lon="1.5734590">
        <ele>25.4</ele>
        <time>2020-02-23T12:05:17Z</time>
      </trkpt>
      <trkpt lat="39.0806020" lon="1.5734410">
        <ele>25.4</ele>
        <time>2020-02-23T12:05:18Z</time>
      </trkpt>
      <trkpt lat="39.0806250" lon="1.5733960">
        <ele>25.5</ele>
        <time>2020-02-23T12:05:19Z</time>
      </trkpt>
      <trkpt lat="39.0806440" lon="1.5733460">
        <ele>25.6</ele>
        <time>2020-02-23T12:05:20Z</time>
      </trkpt>
      <trkpt lat="39.0806620" lon="1.5733050">
        <ele>25.7</ele>
        <time>2020-02-23T12:05:21Z</time>
      </trkpt>
      <trkpt lat="39.0806790" lon="1.5732690">
        <ele>25.7</ele>
        <time>2020-02-23T12:05:22Z</time>
      </trkpt>
      <trkpt lat="39.0806900" lon="1.5732270">
        <ele>25.8</ele>
        <time>2020-02-23T12:05:23Z</time>
      </trkpt>
      <trkpt lat="39.0806960" lon="1.5732150">
        <ele>25.8</ele>
        <time>2020-02-23T12:05:24Z</time>
      </trkpt>
      <trkpt lat="39.0807270" lon="1.5731680">
        <ele>25.8</ele>
        <time>2020-02-23T12:05:25Z</time>
      </trkpt>
      <trkpt lat="39.0807440" lon="1.5731370">
        <ele>25.8</ele>
        <time>2020-02-23T12:05:26Z</time>
      </trkpt>
      <trkpt lat="39.0807670" lon="1.5730960">
        <ele>25.9</ele>
        <time>2020-02-23T12:05:27Z</time>
      </trkpt>
      <trkpt lat="39.0807920" lon="1.5730530">
        <ele>25.9</ele>
        <time>2020-02-23T12:05:28Z</time>
      </trkpt>
      <trkpt lat="39.0808120" lon="1.5730130">
        <ele>25.9</ele>
        <time>2020-02-23T12:05:29Z</time>
      </trkpt>
      <trkpt lat="39.0808310" lon="1.5729760">
        <ele>25.9</ele>
        <time>2020-02-23T12:05:30Z</time>
      </trkpt>
      <trkpt lat="39.0808530" lon="1.5729310">
        <ele>25.9</ele>
        <time>2020-02-23T12:05:31Z</time>
      </trkpt>
      <trkpt lat="39.0808770" lon="1.5729060">
        <ele>25.9</ele>
        <time>2020-02-23T12:05:32Z</time>
      </trkpt>
      <trkpt lat="39.0808980" lon="1.5728680">
        <ele>26.0</ele>
        <time>2020-02-23T12:05:33Z</time>
      </trkpt>
      <trkpt lat="39.0809190" lon="1.5728320">
        <ele>26.0</ele>
        <time>2020-02-23T12:05:34Z</time>
      </trkpt>
      <trkpt lat="39.0809380" lon="1.5727830">
        <ele>26.0</ele>
        <time>2020-02-23T12:05:35Z</time>
      </trkpt>
      <trkpt lat="39.0809600" lon="1.5727430">
        <ele>26.1</ele>
        <time>2020-02-23T12:05:36Z</time>
      </trkpt>
      <trkpt lat="39.0809790" lon="1.5726970">
        <ele>26.2</ele>
        <time>2020-02-23T12:05:37Z</time>
      </trkpt>
      <trkpt lat="39.0809960" lon="1.5726550">
        <ele>26.3</ele>
        <time>2020-02-23T12:05:38Z</time>
      </trkpt>
      <trkpt lat="39.0810110" lon="1.5726130">
        <ele>26.4</ele>
        <time>2020-02-23T12:05:39Z</time>
      </trkpt>
      <trkpt lat="39.0810250" lon="1.5725690">
        <ele>26.5</ele>
        <time>2020-02-23T12:05:40Z</time>
      </trkpt>
      <trkpt lat="39.0810380" lon="1.5725240">
        <ele>26.6</ele>
        <time>2020-02-23T12:05:41Z</time>
      </trkpt>
      <trkpt lat="39.0810570" lon="1.5724740">
        <ele>26.7</ele>
        <time>2020-02-23T12:05:42Z</time>
      </trkpt>
      <trkpt lat="39.0810780" lon="1.5724310">
        <ele>26.8</ele>
        <time>2020-02-23T12:05:43Z</time>
      </trkpt>
      <trkpt lat="39.0810960" lon="1.5723970">
        <ele>26.9</ele>
        <time>2020-02-23T12:05:44Z</time>
      </trkpt>
      <trkpt lat="39.0811100" lon="1.5723530">
        <ele>27.0</ele>
        <time>2020-02-23T12:05:45Z</time>
      </trkpt>
      <trkpt lat="39.0811270" lon="1.5723050">
        <ele>27.0</ele>
        <time>2020-02-23T12:05:46Z</time>
      </trkpt>
      <trkpt lat="39.0811440" lon="1.5722520">
        <ele>27.1</ele>
        <time>2020-02-23T12:05:47Z</time>
      </trkpt>
      <trkpt lat="39.0811550" lon="1.5722010">
        <ele>27.2</ele>
        <time>2020-02-23T12:05:48Z</time>
      </trkpt>
      <trkpt lat="39.0811670" lon="1.5721540">
        <ele>27.3</ele>
        <time>2020-02-23T12:05:49Z</time>
      </trkpt>
      <trkpt lat="39.0811760" lon="1.5721090">
        <ele>27.5</ele>
        <time>2020-02-23T12:05:50Z</time>
      </trkpt>
      <trkpt lat="39.0811900" lon="1.5720690">
        <ele>27.7</ele>
        <time>2020-02-23T12:05:51Z</time>
      </trkpt>
      <trkpt lat="39.0811960" lon="1.5720330">
        <ele>27.8</ele>
        <time>2020-02-23T12:05:52Z</time>
      </trkpt>
      <trkpt lat="39.0812080" lon="1.5719850">
        <ele>28.0</ele>
        <time>2020-02-23T12:05:53Z</time>
      </trkpt>
      <trkpt lat="39.0812110" lon="1.5719650">
        <ele>28.1</ele>
        <time>2020-02-23T12:05:54Z</time>
      </trkpt>
      <trkpt lat="39.0812180" lon="1.5719230">
        <ele>28.8</ele>
        <time>2020-02-23T12:05:55Z</time>
      </trkpt>
      <trkpt lat="39.0812320" lon="1.5718760">
        <ele>29.1</ele>
        <time>2020-02-23T12:05:56Z</time>
      </trkpt>
      <trkpt lat="39.0812380" lon="1.5718330">
        <ele>29.3</ele>
        <time>2020-02-23T12:05:57Z</time>
      </trkpt>
      <trkpt lat="39.0812540" lon="1.5717830">
        <ele>29.6</ele>
        <time>2020-02-23T12:05:58Z</time>
      </trkpt>
      <trkpt lat="39.0812650" lon="1.5717490">
        <ele>29.8</ele>
        <time>2020-02-23T12:05:59Z</time>
      </trkpt>
      <trkpt lat="39.0812800" lon="1.5717090">
        <ele>30.0</ele>
        <time>2020-02-23T12:06:00Z</time>
      </trkpt>
      <trkpt lat="39.0812930" lon="1.5716630">
        <ele>30.3</ele>
        <time>2020-02-23T12:06:01Z</time>
      </trkpt>
      <trkpt lat="39.0813010" lon="1.5716160">
        <ele>30.6</ele>
        <time>2020-02-23T12:06:02Z</time>
      </trkpt>
      <trkpt lat="39.0813090" lon="1.5715660">
        <ele>30.8</ele>
        <time>2020-02-23T12:06:03Z</time>
      </trkpt>
      <trkpt lat="39.0813090" lon="1.5715100">
        <ele>31.0</ele>
        <time>2020-02-23T12:06:04Z</time>
      </trkpt>
      <trkpt lat="39.0813170" lon="1.5714620">
        <ele>31.2</ele>
        <time>2020-02-23T12:06:05Z</time>
      </trkpt>
      <trkpt lat="39.0813290" lon="1.5714250">
        <ele>31.4</ele>
        <time>2020-02-23T12:06:06Z</time>
      </trkpt>
      <trkpt lat="39.0813390" lon="1.5713910">
        <ele>31.5</ele>
        <time>2020-02-23T12:06:07Z</time>
      </trkpt>
      <trkpt lat="39.0813550" lon="1.5713450">
        <ele>31.7</ele>
        <time>2020-02-23T12:06:08Z</time>
      </trkpt>
      <trkpt lat="39.0813700" lon="1.5712940">
        <ele>31.9</ele>
        <time>2020-02-23T12:06:09Z</time>
      </trkpt>
      <trkpt lat="39.0813790" lon="1.5712530">
        <ele>32.1</ele>
        <time>2020-02-23T12:06:10Z</time>
      </trkpt>
      <trkpt lat="39.0813840" lon="1.5712060">
        <ele>32.2</ele>
        <time>2020-02-23T12:06:11Z</time>
      </trkpt>
      <trkpt lat="39.0813980" lon="1.5711590">
        <ele>32.3</ele>
        <time>2020-02-23T12:06:12Z</time>
      </trkpt>
      <trkpt lat="39.0813980" lon="1.5711120">
        <ele>32.5</ele>
        <time>2020-02-23T12:06:13Z</time>
      </trkpt>
      <trkpt lat="39.0814050" lon="1.5710530">
        <ele>32.6</ele>
        <time>2020-02-23T12:06:14Z</time>
      </trkpt>
      <trkpt lat="39.0814150" lon="1.5709990">
        <ele>32.7</ele>
        <time>2020-02-23T12:06:15Z</time>
      </trkpt>
      <trkpt lat="39.0814260" lon="1.5709530">
        <ele>32.8</ele>
        <time>2020-02-23T12:06:16Z</time>
      </trkpt>
      <trkpt lat="39.0814330" lon="1.5709120">
        <ele>32.8</ele>
        <time>2020-02-23T12:06:17Z</time>
      </trkpt>
      <trkpt lat="39.0814430" lon="1.5708620">
        <ele>32.9</ele>
        <time>2020-02-23T12:06:18Z</time>
      </trkpt>
      <trkpt lat="39.0814500" lon="1.5708110">
        <ele>32.9</ele>
        <time>2020-02-23T12:06:19Z</time>
      </trkpt>
      <trkpt lat="39.0814570" lon="1.5707610">
        <ele>33.0</ele>
        <time>2020-02-23T12:06:20Z</time>
      </trkpt>
      <trkpt lat="39.0814590" lon="1.5707190">
        <ele>33.0</ele>
        <time>2020-02-23T12:06:21Z</time>
      </trkpt>
      <trkpt lat="39.0814710" lon="1.5706730">
        <ele>33.0</ele>
        <time>2020-02-23T12:06:22Z</time>
      </trkpt>
      <trkpt lat="39.0814830" lon="1.5706210">
        <ele>33.0</ele>
        <time>2020-02-23T12:06:23Z</time>
      </trkpt>
      <trkpt lat="39.0814930" lon="1.5705730">
        <ele>33.1</ele>
        <time>2020-02-23T12:06:24Z</time>
      </trkpt>
      <trkpt lat="39.0814990" lon="1.5705270">
        <ele>33.1</ele>
        <time>2020-02-23T12:06:25Z</time>
      </trkpt>
      <trkpt lat="39.0815060" lon="1.5704840">
        <ele>33.1</ele>
        <time>2020-02-23T12:06:26Z</time>
      </trkpt>
      <trkpt lat="39.0815190" lon="1.5704310">
        <ele>33.1</ele>
        <time>2020-02-23T12:06:27Z</time>
      </trkpt>
      <trkpt lat="39.0815280" lon="1.5703760">
        <ele>33.1</ele>
        <time>2020-02-23T12:06:28Z</time>
      </trkpt>
      <trkpt lat="39.0815280" lon="1.5703210">
        <ele>33.1</ele>
        <time>2020-02-23T12:06:29Z</time>
      </trkpt>
      <trkpt lat="39.0815280" lon="1.5702680">
        <ele>33.2</ele>
        <time>2020-02-23T12:06:30Z</time>
      </trkpt>
      <trkpt lat="39.0815260" lon="1.5702130">
        <ele>33.2</ele>
        <time>2020-02-23T12:06:31Z</time>
      </trkpt>
      <trkpt lat="39.0815240" lon="1.5701570">
        <ele>33.2</ele>
        <time>2020-02-23T12:06:32Z</time>
      </trkpt>
      <trkpt lat="39.0815190" lon="1.5701080">
        <ele>33.2</ele>
        <time>2020-02-23T12:06:33Z</time>
      </trkpt>
      <trkpt lat="39.0815040" lon="1.5700620">
        <ele>33.2</ele>
        <time>2020-02-23T12:06:34Z</time>
      </trkpt>
      <trkpt lat="39.0814920" lon="1.5700130">
        <ele>33.3</ele>
        <time>2020-02-23T12:06:35Z</time>
      </trkpt>
      <trkpt lat="39.0814770" lon="1.5699750">
        <ele>33.3</ele>
        <time>2020-02-23T12:06:36Z</time>
      </trkpt>
      <trkpt lat="39.0814750" lon="1.5699340">
        <ele>33.4</ele>
        <time>2020-02-23T12:06:37Z</time>
      </trkpt>
      <trkpt lat="39.0814650" lon="1.5698860">
        <ele>33.5</ele>
        <time>2020-02-23T12:06:38Z</time>
      </trkpt>
      <trkpt lat="39.0814650" lon="1.5698450">
        <ele>33.6</ele>
        <time>2020-02-23T12:06:39Z</time>
      </trkpt>
      <trkpt lat="39.0814530" lon="1.5697990">
        <ele>33.7</ele>
        <time>2020-02-23T12:06:40Z</time>
      </trkpt>
      <trkpt lat="39.0814400" lon="1.5697520">
        <ele>33.9</ele>
        <time>2020-02-23T12:06:41Z</time>
      </trkpt>
      <trkpt lat="39.0814260" lon="1.5696960">
        <ele>34.1</ele>
        <time>2020-02-23T12:06:42Z</time>
      </trkpt>
      <trkpt lat="39.0814110" lon="1.5696460">
        <ele>34.2</ele>
        <time>2020-02-23T12:06:43Z</time>
      </trkpt>
      <trkpt lat="39.0813960" lon="1.5696030">
        <ele>34.3</ele>
        <time>2020-02-23T12:06:44Z</time>
      </trkpt>
      <trkpt lat="39.0813760" lon="1.5695540">
        <ele>34.4</ele>
        <time>2020-02-23T12:06:45Z</time>
      </trkpt>
      <trkpt lat="39.0813550" lon="1.5695040">
        <ele>34.6</ele>
        <time>2020-02-23T12:06:46Z</time>
      </trkpt>
      <trkpt lat="39.0813440" lon="1.5694610">
        <ele>34.6</ele>
        <time>2020-02-23T12:06:47Z</time>
      </trkpt>
      <trkpt lat="39.0813340" lon="1.5694150">
        <ele>34.7</ele>
        <time>2020-02-23T12:06:48Z</time>
      </trkpt>
      <trkpt lat="39.0813190" lon="1.5693680">
        <ele>34.7</ele>
        <time>2020-02-23T12:06:49Z</time>
      </trkpt>
      <trkpt lat="39.0813080" lon="1.5693220">
        <ele>34.8</ele>
        <time>2020-02-23T12:06:50Z</time>
      </trkpt>
      <trkpt lat="39.0812920" lon="1.5692860">
        <ele>34.8</ele>
        <time>2020-02-23T12:06:51Z</time>
      </trkpt>
      <trkpt lat="39.0812860" lon="1.5692390">
        <ele>34.8</ele>
        <time>2020-02-23T12:06:52Z</time>
      </trkpt>
      <trkpt lat="39.0812750" lon="1.5691740">
        <ele>34.9</ele>
        <time>2020-02-23T12:06:53Z</time>
      </trkpt>
      <trkpt lat="39.0812550" lon="1.5691070">
        <ele>34.9</ele>
        <time>2020-02-23T12:06:54Z</time>
      </trkpt>
      <trkpt lat="39.0812380" lon="1.5690520">
        <ele>34.9</ele>
        <time>2020-02-23T12:06:55Z</time>
      </trkpt>
      <trkpt lat="39.0812210" lon="1.5690040">
        <ele>34.9</ele>
        <time>2020-02-23T12:06:56Z</time>
      </trkpt>
      <trkpt lat="39.0812200" lon="1.5689520">
        <ele>34.9</ele>
        <time>2020-02-23T12:06:57Z</time>
      </trkpt>
      <trkpt lat="39.0812130" lon="1.5689010">
        <ele>35.0</ele>
        <time>2020-02-23T12:06:58Z</time>
      </trkpt>
      <trkpt lat="39.0812080" lon="1.5688520">
        <ele>35.0</ele>
        <time>2020-02-23T12:06:59Z</time>
      </trkpt>
      <trkpt lat="39.0812030" lon="1.5687950">
        <ele>35.1</ele>
        <time>2020-02-23T12:07:00Z</time>
      </trkpt>
      <trkpt lat="39.0811990" lon="1.5687330">
        <ele>35.2</ele>
        <time>2020-02-23T12:07:01Z</time>
      </trkpt>
      <trkpt lat="39.0811910" lon="1.5686740">
        <ele>35.2</ele>
        <time>2020-02-23T12:07:02Z</time>
      </trkpt>
      <trkpt lat="39.0811820" lon="1.5686220">
        <ele>35.3</ele>
        <time>2020-02-23T12:07:03Z</time>
      </trkpt>
      <trkpt lat="39.0811830" lon="1.5685720">
        <ele>35.4</ele>
        <time>2020-02-23T12:07:04Z</time>
      </trkpt>
      <trkpt lat="39.0811830" lon="1.5685170">
        <ele>35.4</ele>
        <time>2020-02-23T12:07:05Z</time>
      </trkpt>
      <trkpt lat="39.0811760" lon="1.5684490">
        <ele>35.5</ele>
        <time>2020-02-23T12:07:06Z</time>
      </trkpt>
      <trkpt lat="39.0811730" lon="1.5684060">
        <ele>35.5</ele>
        <time>2020-02-23T12:07:07Z</time>
      </trkpt>
      <trkpt lat="39.0811720" lon="1.5683600">
        <ele>35.5</ele>
        <time>2020-02-23T12:07:08Z</time>
      </trkpt>
      <trkpt lat="39.0811720" lon="1.5683190">
        <ele>35.5</ele>
        <time>2020-02-23T12:07:09Z</time>
      </trkpt>
      <trkpt lat="39.0811770" lon="1.5682680">
        <ele>35.5</ele>
        <time>2020-02-23T12:07:10Z</time>
      </trkpt>
      <trkpt lat="39.0811840" lon="1.5682200">
        <ele>35.5</ele>
        <time>2020-02-23T12:07:11Z</time>
      </trkpt>
      <trkpt lat="39.0811830" lon="1.5681700">
        <ele>35.5</ele>
        <time>2020-02-23T12:07:12Z</time>
      </trkpt>
      <trkpt lat="39.0811760" lon="1.5681090">
        <ele>35.4</ele>
        <time>2020-02-23T12:07:13Z</time>
      </trkpt>
      <trkpt lat="39.0811730" lon="1.5680550">
        <ele>35.4</ele>
        <time>2020-02-23T12:07:14Z</time>
      </trkpt>
      <trkpt lat="39.0811670" lon="1.5680000">
        <ele>35.3</ele>
        <time>2020-02-23T12:07:15Z</time>
      </trkpt>
      <trkpt lat="39.0811620" lon="1.5679450">
        <ele>35.3</ele>
        <time>2020-02-23T12:07:16Z</time>
      </trkpt>
      <trkpt lat="39.0811560" lon="1.5678850">
        <ele>35.2</ele>
        <time>2020-02-23T12:07:17Z</time>
      </trkpt>
      <trkpt lat="39.0811440" lon="1.5678310">
        <ele>35.2</ele>
        <time>2020-02-23T12:07:18Z</time>
      </trkpt>
      <trkpt lat="39.0811350" lon="1.5677800">
        <ele>35.2</ele>
        <time>2020-02-23T12:07:19Z</time>
      </trkpt>
      <trkpt lat="39.0811390" lon="1.5677270">
        <ele>35.2</ele>
        <time>2020-02-23T12:07:20Z</time>
      </trkpt>
      <trkpt lat="39.0811340" lon="1.5676670">
        <ele>35.2</ele>
        <time>2020-02-23T12:07:21Z</time>
      </trkpt>
      <trkpt lat="39.0811300" lon="1.5676110">
        <ele>35.2</ele>
        <time>2020-02-23T12:07:22Z</time>
      </trkpt>
      <trkpt lat="39.0811220" lon="1.5675460">
        <ele>35.2</ele>
        <time>2020-02-23T12:07:23Z</time>
      </trkpt>
      <trkpt lat="39.0811060" lon="1.5674830">
        <ele>35.2</ele>
        <time>2020-02-23T12:07:24Z</time>
      </trkpt>
      <trkpt lat="39.0811020" lon="1.5674260">
        <ele>35.3</ele>
        <time>2020-02-23T12:07:25Z</time>
      </trkpt>
      <trkpt lat="39.0810940" lon="1.5673860">
        <ele>35.3</ele>
        <time>2020-02-23T12:07:26Z</time>
      </trkpt>
      <trkpt lat="39.0810840" lon="1.5673270">
        <ele>35.4</ele>
        <time>2020-02-23T12:07:27Z</time>
      </trkpt>
      <trkpt lat="39.0810700" lon="1.5672730">
        <ele>35.5</ele>
        <time>2020-02-23T12:07:28Z</time>
      </trkpt>
      <trkpt lat="39.0810500" lon="1.5672060">
        <ele>35.6</ele>
        <time>2020-02-23T12:07:29Z</time>
      </trkpt>
      <trkpt lat="39.0810250" lon="1.5671370">
        <ele>35.8</ele>
        <time>2020-02-23T12:07:30Z</time>
      </trkpt>
      <trkpt lat="39.0810140" lon="1.5670630">
        <ele>35.9</ele>
        <time>2020-02-23T12:07:31Z</time>
      </trkpt>
      <trkpt lat="39.0809980" lon="1.5669880">
        <ele>36.1</ele>
        <time>2020-02-23T12:07:32Z</time>
      </trkpt>
      <trkpt lat="39.0809880" lon="1.5669140">
        <ele>36.4</ele>
        <time>2020-02-23T12:07:33Z</time>
      </trkpt>
      <trkpt lat="39.0809690" lon="1.5668460">
        <ele>36.6</ele>
        <time>2020-02-23T12:07:34Z</time>
      </trkpt>
      <trkpt lat="39.0809570" lon="1.5667800">
        <ele>36.7</ele>
        <time>2020-02-23T12:07:35Z</time>
      </trkpt>
      <trkpt lat="39.0809490" lon="1.5667360">
        <ele>36.8</ele>
        <time>2020-02-23T12:07:36Z</time>
      </trkpt>
      <trkpt lat="39.0809380" lon="1.5666810">
        <ele>37.0</ele>
        <time>2020-02-23T12:07:37Z</time>
      </trkpt>
      <trkpt lat="39.0809390" lon="1.5666360">
        <ele>37.1</ele>
        <time>2020-02-23T12:07:38Z</time>
      </trkpt>
      <trkpt lat="39.0809240" lon="1.5665850">
        <ele>37.2</ele>
        <time>2020-02-23T12:07:39Z</time>
      </trkpt>
      <trkpt lat="39.0809160" lon="1.5665210">
        <ele>37.3</ele>
        <time>2020-02-23T12:07:40Z</time>
      </trkpt>
      <trkpt lat="39.0809010" lon="1.5664680">
        <ele>37.4</ele>
        <time>2020-02-23T12:07:41Z</time>
      </trkpt>
      <trkpt lat="39.0808900" lon="1.5664130">
        <ele>37.5</ele>
        <time>2020-02-23T12:07:42Z</time>
      </trkpt>
      <trkpt lat="39.0808810" lon="1.5663600">
        <ele>37.6</ele>
        <time>2020-02-23T12:07:43Z</time>
      </trkpt>
      <trkpt lat="39.0808700" lon="1.5663050">
        <ele>37.6</ele>
        <time>2020-02-23T12:07:44Z</time>
      </trkpt>
      <trkpt lat="39.0808500" lon="1.5662610">
        <ele>37.7</ele>
        <time>2020-02-23T12:07:45Z</time>
      </trkpt>
      <trkpt lat="39.0808370" lon="1.5662160">
        <ele>37.7</ele>
        <time>2020-02-23T12:07:46Z</time>
      </trkpt>
      <trkpt lat="39.0808220" lon="1.5661690">
        <ele>37.7</ele>
        <time>2020-02-23T12:07:47Z</time>
      </trkpt>
      <trkpt lat="39.0808080" lon="1.5661310">
        <ele>37.7</ele>
        <time>2020-02-23T12:07:48Z</time>
      </trkpt>
      <trkpt lat="39.0807920" lon="1.5660790">
        <ele>37.8</ele>
        <time>2020-02-23T12:07:49Z</time>
      </trkpt>
      <trkpt lat="39.0807740" lon="1.5660210">
        <ele>37.8</ele>
        <time>2020-02-23T12:07:50Z</time>
      </trkpt>
      <trkpt lat="39.0807640" lon="1.5659670">
        <ele>37.8</ele>
        <time>2020-02-23T12:07:51Z</time>
      </trkpt>
      <trkpt lat="39.0807560" lon="1.5659160">
        <ele>37.8</ele>
        <time>2020-02-23T12:07:52Z</time>
      </trkpt>
      <trkpt lat="39.0807400" lon="1.5658650">
        <ele>37.9</ele>
        <time>2020-02-23T12:07:53Z</time>
      </trkpt>
      <trkpt lat="39.0807190" lon="1.5658130">
        <ele>37.9</ele>
        <time>2020-02-23T12:07:54Z</time>
      </trkpt>
      <trkpt lat="39.0806890" lon="1.5657590">
        <ele>38.0</ele>
        <time>2020-02-23T12:07:55Z</time>
      </trkpt>
      <trkpt lat="39.0806570" lon="1.5656970">
        <ele>38.1</ele>
        <time>2020-02-23T12:07:56Z</time>
      </trkpt>
      <trkpt lat="39.0806190" lon="1.5656520">
        <ele>38.2</ele>
        <time>2020-02-23T12:07:57Z</time>
      </trkpt>
      <trkpt lat="39.0805770" lon="1.5656150">
        <ele>38.4</ele>
        <time>2020-02-23T12:07:58Z</time>
      </trkpt>
      <trkpt lat="39.0805340" lon="1.5655670">
        <ele>38.6</ele>
        <time>2020-02-23T12:07:59Z</time>
      </trkpt>
      <trkpt lat="39.0804940" lon="1.5655220">
        <ele>38.8</ele>
        <time>2020-02-23T12:08:00Z</time>
      </trkpt>
      <trkpt lat="39.0804650" lon="1.5654860">
        <ele>38.9</ele>
        <time>2020-02-23T12:08:01Z</time>
      </trkpt>
      <trkpt lat="39.0804380" lon="1.5654480">
        <ele>39.2</ele>
        <time>2020-02-23T12:08:02Z</time>
      </trkpt>
      <trkpt lat="39.0804140" lon="1.5654060">
        <ele>39.3</ele>
        <time>2020-02-23T12:08:03Z</time>
      </trkpt>
      <trkpt lat="39.0803790" lon="1.5653620">
        <ele>39.3</ele>
        <time>2020-02-23T12:08:04Z</time>
      </trkpt>
      <trkpt lat="39.0803500" lon="1.5653230">
        <ele>39.4</ele>
        <time>2020-02-23T12:08:05Z</time>
      </trkpt>
      <trkpt lat="39.0803310" lon="1.5652870">
        <ele>39.5</ele>
        <time>2020-02-23T12:08:06Z</time>
      </trkpt>
      <trkpt lat="39.0803130" lon="1.5652540">
        <ele>39.5</ele>
        <time>2020-02-23T12:08:07Z</time>
      </trkpt>
      <trkpt lat="39.0802980" lon="1.5652180">
        <ele>39.6</ele>
        <time>2020-02-23T12:08:08Z</time>
      </trkpt>
      <trkpt lat="39.0802760" lon="1.5651890">
        <ele>39.7</ele>
        <time>2020-02-23T12:08:09Z</time>
      </trkpt>
      <trkpt lat="39.0802590" lon="1.5651580">
        <ele>39.7</ele>
        <time>2020-02-23T12:08:10Z</time>
      </trkpt>
      <trkpt lat="39.0802390" lon="1.5651240">
        <ele>39.8</ele>
        <time>2020-02-23T12:08:11Z</time>
      </trkpt>
      <trkpt lat="39.0802170" lon="1.5650980">
        <ele>39.9</ele>
        <time>2020-02-23T12:08:12Z</time>
      </trkpt>
      <trkpt lat="39.0802080" lon="1.5650600">
        <ele>39.9</ele>
        <time>2020-02-23T12:08:13Z</time>
      </trkpt>
      <trkpt lat="39.0801980" lon="1.5650280">
        <ele>40.0</ele>
        <time>2020-02-23T12:08:14Z</time>
      </trkpt>
      <trkpt lat="39.0801900" lon="1.5649860">
        <ele>40.1</ele>
        <time>2020-02-23T12:08:15Z</time>
      </trkpt>
      <trkpt lat="39.0801830" lon="1.5649480">
        <ele>40.1</ele>
        <time>2020-02-23T12:08:16Z</time>
      </trkpt>
      <trkpt lat="39.0801760" lon="1.5649090">
        <ele>40.2</ele>
        <time>2020-02-23T12:08:17Z</time>
      </trkpt>
      <trkpt lat="39.0801760" lon="1.5648580">
        <ele>40.3</ele>
        <time>2020-02-23T12:08:18Z</time>
      </trkpt>
      <trkpt lat="39.0801620" lon="1.5648130">
        <ele>40.4</ele>
        <time>2020-02-23T12:08:19Z</time>
      </trkpt>
      <trkpt lat="39.0801420" lon="1.5647740">
        <ele>40.5</ele>
        <time>2020-02-23T12:08:20Z</time>
      </trkpt>
      <trkpt lat="39.0801250" lon="1.5647330">
        <ele>40.6</ele>
        <time>2020-02-23T12:08:21Z</time>
      </trkpt>
      <trkpt lat="39.0801160" lon="1.5646930">
        <ele>40.7</ele>
        <time>2020-02-23T12:08:22Z</time>
      </trkpt>
      <trkpt lat="39.0801090" lon="1.5646530">
        <ele>40.8</ele>
        <time>2020-02-23T12:08:23Z</time>
      </trkpt>
      <trkpt lat="39.0801000" lon="1.5646130">
        <ele>40.9</ele>
        <time>2020-02-23T12:08:24Z</time>
      </trkpt>
      <trkpt lat="39.0800930" lon="1.5645690">
        <ele>41.0</ele>
        <time>2020-02-23T12:08:25Z</time>
      </trkpt>
      <trkpt lat="39.0800770" lon="1.5645220">
        <ele>41.2</ele>
        <time>2020-02-23T12:08:26Z</time>
      </trkpt>
      <trkpt lat="39.0800650" lon="1.5644560">
        <ele>41.3</ele>
        <time>2020-02-23T12:08:27Z</time>
      </trkpt>
      <trkpt lat="39.0800560" lon="1.5644040">
        <ele>41.4</ele>
        <time>2020-02-23T12:08:28Z</time>
      </trkpt>
      <trkpt lat="39.0800340" lon="1.5643690">
        <ele>41.5</ele>
        <time>2020-02-23T12:08:29Z</time>
      </trkpt>
      <trkpt lat="39.0800150" lon="1.5643270">
        <ele>41.6</ele>
        <time>2020-02-23T12:08:30Z</time>
      </trkpt>
      <trkpt lat="39.0800060" lon="1.5642850">
        <ele>41.7</ele>
        <time>2020-02-23T12:08:31Z</time>
      </trkpt>
      <trkpt lat="39.0799930" lon="1.5642490">
        <ele>41.7</ele>
        <time>2020-02-23T12:08:32Z</time>
      </trkpt>
      <trkpt lat="39.0799790" lon="1.5642010">
        <ele>41.8</ele>
        <time>2020-02-23T12:08:33Z</time>
      </trkpt>
      <trkpt lat="39.0799650" lon="1.5641530">
        <ele>41.8</ele>
        <time>2020-02-23T12:08:34Z</time>
      </trkpt>
      <trkpt lat="39.0799540" lon="1.5641050">
        <ele>41.8</ele>
        <time>2020-02-23T12:08:35Z</time>
      </trkpt>
      <trkpt lat="39.0799420" lon="1.5640500">
        <ele>41.8</ele>
        <time>2020-02-23T12:08:36Z</time>
      </trkpt>
      <trkpt lat="39.0799410" lon="1.5640220">
        <ele>41.8</ele>
        <time>2020-02-23T12:08:37Z</time>
      </trkpt>
      <trkpt lat="39.0799340" lon="1.5639660">
        <ele>41.8</ele>
        <time>2020-02-23T12:08:38Z</time>
      </trkpt>
      <trkpt lat="39.0799240" lon="1.5639110">
        <ele>41.8</ele>
        <time>2020-02-23T12:08:39Z</time>
      </trkpt>
      <trkpt lat="39.0799080" lon="1.5638520">
        <ele>41.8</ele>
        <time>2020-02-23T12:08:40Z</time>
      </trkpt>
      <trkpt lat="39.0798890" lon="1.5638060">
        <ele>41.8</ele>
        <time>2020-02-23T12:08:41Z</time>
      </trkpt>
      <trkpt lat="39.0798780" lon="1.5637600">
        <ele>41.8</ele>
        <time>2020-02-23T12:08:42Z</time>
      </trkpt>
      <trkpt lat="39.0798660" lon="1.5637120">
        <ele>41.8</ele>
        <time>2020-02-23T12:08:43Z</time>
      </trkpt>
      <trkpt lat="39.0798590" lon="1.5636760">
        <ele>41.8</ele>
        <time>2020-02-23T12:08:44Z</time>
      </trkpt>
      <trkpt lat="39.0798480" lon="1.5636230">
        <ele>41.8</ele>
        <time>2020-02-23T12:08:45Z</time>
      </trkpt>
      <trkpt lat="39.0798460" lon="1.5635750">
        <ele>41.8</ele>
        <time>2020-02-23T12:08:46Z</time>
      </trkpt>
      <trkpt lat="39.0798440" lon="1.5635560">
        <ele>41.8</ele>
        <time>2020-02-23T12:08:47Z</time>
      </trkpt>
      <trkpt lat="39.0798460" lon="1.5635130">
        <ele>41.8</ele>
        <time>2020-02-23T12:08:48Z</time>
      </trkpt>
      <trkpt lat="39.0798530" lon="1.5634650">
        <ele>41.8</ele>
        <time>2020-02-23T12:08:49Z</time>
      </trkpt>
      <trkpt lat="39.0798630" lon="1.5634190">
        <ele>41.8</ele>
        <time>2020-02-23T12:08:50Z</time>
      </trkpt>
      <trkpt lat="39.0798880" lon="1.5633850">
        <ele>41.8</ele>
        <time>2020-02-23T12:08:51Z</time>
      </trkpt>
      <trkpt lat="39.0798970" lon="1.5633710">
        <ele>41.8</ele>
        <time>2020-02-23T12:08:52Z</time>
      </trkpt>
      <trkpt lat="39.0799020" lon="1.5633500">
        <ele>41.8</ele>
        <time>2020-02-23T12:08:53Z</time>
      </trkpt>
      <trkpt lat="39.0799170" lon="1.5633340">
        <ele>41.8</ele>
        <time>2020-02-23T12:08:54Z</time>
      </trkpt>
      <trkpt lat="39.0799400" lon="1.5633140">
        <ele>41.8</ele>
        <time>2020-02-23T12:08:55Z</time>
      </trkpt>
      <trkpt lat="39.0799650" lon="1.5632870">
        <ele>41.8</ele>
        <time>2020-02-23T12:08:56Z</time>
      </trkpt>
      <trkpt lat="39.0799710" lon="1.5632760">
        <ele>41.7</ele>
        <time>2020-02-23T12:08:57Z</time>
      </trkpt>
      <trkpt lat="39.0800060" lon="1.5632500">
        <ele>41.7</ele>
        <time>2020-02-23T12:08:58Z</time>
      </trkpt>
      <trkpt lat="39.0800220" lon="1.5632390">
        <ele>41.7</ele>
        <time>2020-02-23T12:08:59Z</time>
      </trkpt>
      <trkpt lat="39.0800500" lon="1.5632190">
        <ele>41.7</ele>
        <time>2020-02-23T12:09:00Z</time>
      </trkpt>
      <trkpt lat="39.0800690" lon="1.5631920">
        <ele>41.7</ele>
        <time>2020-02-23T12:09:01Z</time>
      </trkpt>
      <trkpt lat="39.0800890" lon="1.5631600">
        <ele>41.7</ele>
        <time>2020-02-23T12:09:02Z</time>
      </trkpt>
      <trkpt lat="39.0801070" lon="1.5631460">
        <ele>41.7</ele>
        <time>2020-02-23T12:09:03Z</time>
      </trkpt>
      <trkpt lat="39.0801180" lon="1.5631430">
        <ele>41.7</ele>
        <time>2020-02-23T12:09:04Z</time>
      </trkpt>
      <trkpt lat="39.0801290" lon="1.5631200">
        <ele>41.7</ele>
        <time>2020-02-23T12:09:05Z</time>
      </trkpt>
      <trkpt lat="39.0801350" lon="1.5631070">
        <ele>41.7</ele>
        <time>2020-02-23T12:09:06Z</time>
      </trkpt>
      <trkpt lat="39.0801410" lon="1.5630940">
        <ele>41.7</ele>
        <time>2020-02-23T12:09:07Z</time>
      </trkpt>
      <trkpt lat="39.0801690" lon="1.5630590">
        <ele>41.7</ele>
        <time>2020-02-23T12:09:08Z</time>
      </trkpt>
      <trkpt lat="39.0801800" lon="1.5630480">
        <ele>41.7</ele>
        <time>2020-02-23T12:09:09Z</time>
      </trkpt>
      <trkpt lat="39.0801930" lon="1.5630160">
        <ele>41.8</ele>
        <time>2020-02-23T12:09:10Z</time>
      </trkpt>
      <trkpt lat="39.0802060" lon="1.5629820">
        <ele>41.8</ele>
        <time>2020-02-23T12:09:11Z</time>
      </trkpt>
      <trkpt lat="39.0802170" lon="1.5629480">
        <ele>41.9</ele>
        <time>2020-02-23T12:09:12Z</time>
      </trkpt>
      <trkpt lat="39.0802280" lon="1.5629140">
        <ele>41.9</ele>
        <time>2020-02-23T12:09:13Z</time>
      </trkpt>
      <trkpt lat="39.0802440" lon="1.5628770">
        <ele>42.0</ele>
        <time>2020-02-23T12:09:14Z</time>
      </trkpt>
      <trkpt lat="39.0802470" lon="1.5628650">
        <ele>42.1</ele>
        <time>2020-02-23T12:09:15Z</time>
      </trkpt>
      <trkpt lat="39.0802510" lon="1.5628540">
        <ele>42.1</ele>
        <time>2020-02-23T12:09:16Z</time>
      </trkpt>
      <trkpt lat="39.0802650" lon="1.5628390">
        <ele>42.2</ele>
        <time>2020-02-23T12:09:17Z</time>
      </trkpt>
      <trkpt lat="39.0802790" lon="1.5628230">
        <ele>42.3</ele>
        <time>2020-02-23T12:09:18Z</time>
      </trkpt>
      <trkpt lat="39.0802840" lon="1.5628040">
        <ele>42.3</ele>
        <time>2020-02-23T12:09:19Z</time>
      </trkpt>
      <trkpt lat="39.0802880" lon="1.5627860">
        <ele>42.4</ele>
        <time>2020-02-23T12:09:20Z</time>
      </trkpt>
      <trkpt lat="39.0802880" lon="1.5627610">
        <ele>42.5</ele>
        <time>2020-02-23T12:09:21Z</time>
      </trkpt>
      <trkpt lat="39.0802930" lon="1.5627190">
        <ele>42.7</ele>
        <time>2020-02-23T12:09:22Z</time>
      </trkpt>
      <trkpt lat="39.0802920" lon="1.5627000">
        <ele>42.7</ele>
        <time>2020-02-23T12:09:23Z</time>
      </trkpt>
      <trkpt lat="39.0802960" lon="1.5626510">
        <ele>43.0</ele>
        <time>2020-02-23T12:09:24Z</time>
      </trkpt>
      <trkpt lat="39.0802940" lon="1.5626010">
        <ele>43.2</ele>
        <time>2020-02-23T12:09:25Z</time>
      </trkpt>
      <trkpt lat="39.0802870" lon="1.5625440">
        <ele>43.5</ele>
        <time>2020-02-23T12:09:26Z</time>
      </trkpt>
      <trkpt lat="39.0802720" lon="1.5624940">
        <ele>43.8</ele>
        <time>2020-02-23T12:09:27Z</time>
      </trkpt>
      <trkpt lat="39.0802640" lon="1.5624510">
        <ele>44.0</ele>
        <time>2020-02-23T12:09:28Z</time>
      </trkpt>
      <trkpt lat="39.0802590" lon="1.5624050">
        <ele>44.3</ele>
        <time>2020-02-23T12:09:29Z</time>
      </trkpt>
      <trkpt lat="39.0802650" lon="1.5623640">
        <ele>44.5</ele>
        <time>2020-02-23T12:09:30Z</time>
      </trkpt>
      <trkpt lat="39.0802680" lon="1.5623500">
        <ele>44.6</ele>
        <time>2020-02-23T12:09:31Z</time>
      </trkpt>
      <trkpt lat="39.0802760" lon="1.5623010">
        <ele>44.8</ele>
        <time>2020-02-23T12:09:32Z</time>
      </trkpt>
      <trkpt lat="39.0802760" lon="1.5622830">
        <ele>44.9</ele>
        <time>2020-02-23T12:09:33Z</time>
      </trkpt>
      <trkpt lat="39.0802790" lon="1.5622440">
        <ele>45.2</ele>
        <time>2020-02-23T12:09:34Z</time>
      </trkpt>
      <trkpt lat="39.0802790" lon="1.5621960">
        <ele>45.4</ele>
        <time>2020-02-23T12:09:35Z</time>
      </trkpt>
      <trkpt lat="39.0802800" lon="1.5621790">
        <ele>45.5</ele>
        <time>2020-02-23T12:09:36Z</time>
      </trkpt>
      <trkpt lat="39.0802800" lon="1.5621630">
        <ele>45.6</ele>
        <time>2020-02-23T12:09:37Z</time>
      </trkpt>
      <trkpt lat="39.0802830" lon="1.5621350">
        <ele>45.7</ele>
        <time>2020-02-23T12:09:38Z</time>
      </trkpt>
      <trkpt lat="39.0802820" lon="1.5621040">
        <ele>45.9</ele>
        <time>2020-02-23T12:09:39Z</time>
      </trkpt>
      <trkpt lat="39.0802820" lon="1.5621020">
        <ele>45.9</ele>
        <time>2020-02-23T12:09:40Z</time>
      </trkpt>
      <trkpt lat="39.0802860" lon="1.5621020">
        <ele>45.9</ele>
        <time>2020-02-23T12:09:41Z</time>
      </trkpt>
      <trkpt lat="39.0802920" lon="1.5620970">
        <ele>46.0</ele>
        <time>2020-02-23T12:09:42Z</time>
      </trkpt>
      <trkpt lat="39.0802830" lon="1.5620930">
        <ele>46.0</ele>
        <time>2020-02-23T12:09:43Z</time>
      </trkpt>
      <trkpt lat="39.0802760" lon="1.5620880">
        <ele>45.3</ele>
        <time>2020-02-23T12:09:44Z</time>
      </trkpt>
      <trkpt lat="39.0802680" lon="1.5620840">
        <ele>45.3</ele>
        <time>2020-02-23T12:09:45Z</time>
      </trkpt>
      <trkpt lat="39.0802610" lon="1.5620800">
        <ele>45.2</ele>
        <time>2020-02-23T12:09:46Z</time>
      </trkpt>
      <trkpt lat="39.0802530" lon="1.5620760">
        <ele>45.2</ele>
        <time>2020-02-23T12:09:47Z</time>
      </trkpt>
      <trkpt lat="39.0802460" lon="1.5620710">
        <ele>45.1</ele>
        <time>2020-02-23T12:09:48Z</time>
      </trkpt>
      <trkpt lat="39.0802380" lon="1.5620670">
        <ele>45.1</ele>
        <time>2020-02-23T12:09:49Z</time>
      </trkpt>
      <trkpt lat="39.0802300" lon="1.5620630">
        <ele>45.0</ele>
        <time>2020-02-23T12:09:50Z</time>
      </trkpt>
      <trkpt lat="39.0802230" lon="1.5620590">
        <ele>45.0</ele>
        <time>2020-02-23T12:09:51Z</time>
      </trkpt>
      <trkpt lat="39.0802150" lon="1.5620540">
        <ele>45.0</ele>
        <time>2020-02-23T12:09:52Z</time>
      </trkpt>
      <trkpt lat="39.0802080" lon="1.5620500">
        <ele>44.9</ele>
        <time>2020-02-23T12:10:18Z</time>
      </trkpt>
      <trkpt lat="39.0802000" lon="1.5620460">
        <ele>44.9</ele>
        <time>2020-02-23T12:10:19Z</time>
      </trkpt>
      <trkpt lat="39.0801900" lon="1.5620100">
        <ele>44.8</ele>
        <time>2020-02-23T12:10:20Z</time>
      </trkpt>
      <trkpt lat="39.0801800" lon="1.5619720">
        <ele>44.6</ele>
        <time>2020-02-23T12:10:21Z</time>
      </trkpt>
      <trkpt lat="39.0801770" lon="1.5619620">
        <ele>44.6</ele>
        <time>2020-02-23T12:10:22Z</time>
      </trkpt>
      <trkpt lat="39.0801620" lon="1.5619250">
        <ele>44.5</ele>
        <time>2020-02-23T12:10:23Z</time>
      </trkpt>
      <trkpt lat="39.0801570" lon="1.5619120">
        <ele>44.4</ele>
        <time>2020-02-23T12:10:24Z</time>
      </trkpt>
      <trkpt lat="39.0801420" lon="1.5618680">
        <ele>44.3</ele>
        <time>2020-02-23T12:10:25Z</time>
      </trkpt>
      <trkpt lat="39.0801360" lon="1.5618550">
        <ele>44.2</ele>
        <time>2020-02-23T12:10:26Z</time>
      </trkpt>
      <trkpt lat="39.0801170" lon="1.5618120">
        <ele>44.1</ele>
        <time>2020-02-23T12:10:27Z</time>
      </trkpt>
      <trkpt lat="39.0801110" lon="1.5617990">
        <ele>44.0</ele>
        <time>2020-02-23T12:10:28Z</time>
      </trkpt>
      <trkpt lat="39.0800980" lon="1.5617550">
        <ele>43.9</ele>
        <time>2020-02-23T12:10:29Z</time>
      </trkpt>
      <trkpt lat="39.0800940" lon="1.5617430">
        <ele>43.8</ele>
        <time>2020-02-23T12:10:30Z</time>
      </trkpt>
      <trkpt lat="39.0800830" lon="1.5617070">
        <ele>43.7</ele>
        <time>2020-02-23T12:10:31Z</time>
      </trkpt>
      <trkpt lat="39.0800750" lon="1.5616930">
        <ele>43.7</ele>
        <time>2020-02-23T12:10:32Z</time>
      </trkpt>
      <trkpt lat="39.0800580" lon="1.5616510">
        <ele>43.5</ele>
        <time>2020-02-23T12:10:33Z</time>
      </trkpt>
      <trkpt lat="39.0800520" lon="1.5616360">
        <ele>43.5</ele>
        <time>2020-02-23T12:10:34Z</time>
      </trkpt>
      <trkpt lat="39.0800390" lon="1.5615900">
        <ele>43.4</ele>
        <time>2020-02-23T12:10:35Z</time>
      </trkpt>
      <trkpt lat="39.0800340" lon="1.5615770">
        <ele>43.3</ele>
        <time>2020-02-23T12:10:36Z</time>
      </trkpt>
      <trkpt lat="39.0800220" lon="1.5615360">
        <ele>43.2</ele>
        <time>2020-02-23T12:10:37Z</time>
      </trkpt>
      <trkpt lat="39.0800170" lon="1.5615230">
        <ele>43.1</ele>
        <time>2020-02-23T12:10:38Z</time>
      </trkpt>
      <trkpt lat="39.0800050" lon="1.5614800">
        <ele>43.0</ele>
        <time>2020-02-23T12:10:39Z</time>
      </trkpt>
      <trkpt lat="39.0800020" lon="1.5614640">
        <ele>43.0</ele>
        <time>2020-02-23T12:10:40Z</time>
      </trkpt>
      <trkpt lat="39.0799900" lon="1.5614190">
        <ele>42.9</ele>
        <time>2020-02-23T12:10:41Z</time>
      </trkpt>
      <trkpt lat="39.0799870" lon="1.5614070">
        <ele>42.9</ele>
        <time>2020-02-23T12:10:42Z</time>
      </trkpt>
      <trkpt lat="39.0799820" lon="1.5613840">
        <ele>42.8</ele>
        <time>2020-02-23T12:10:43Z</time>
      </trkpt>
      <trkpt lat="39.0799770" lon="1.5613630">
        <ele>42.8</ele>
        <time>2020-02-23T12:10:44Z</time>
      </trkpt>
      <trkpt lat="39.0799590" lon="1.5613310">
        <ele>42.7</ele>
        <time>2020-02-23T12:10:45Z</time>
      </trkpt>
      <trkpt lat="39.0799520" lon="1.5613190">
        <ele>42.7</ele>
        <time>2020-02-23T12:10:46Z</time>
      </trkpt>
      <trkpt lat="39.0799390" lon="1.5612850">
        <ele>42.6</ele>
        <time>2020-02-23T12:10:47Z</time>
      </trkpt>
      <trkpt lat="39.0799330" lon="1.5612760">
        <ele>42.6</ele>
        <time>2020-02-23T12:10:48Z</time>
      </trkpt>
      <trkpt lat="39.0799260" lon="1.5612370">
        <ele>42.5</ele>
        <time>2020-02-23T12:10:49Z</time>
      </trkpt>
      <trkpt lat="39.0799250" lon="1.5612250">
        <ele>42.5</ele>
        <time>2020-02-23T12:10:50Z</time>
      </trkpt>
      <trkpt lat="39.0799220" lon="1.5611860">
        <ele>42.5</ele>
        <time>2020-02-23T12:10:51Z</time>
      </trkpt>
      <trkpt lat="39.0799230" lon="1.5611720">
        <ele>42.4</ele>
        <time>2020-02-23T12:10:52Z</time>
      </trkpt>
      <trkpt lat="39.0799220" lon="1.5611510">
        <ele>42.4</ele>
        <time>2020-02-23T12:10:53Z</time>
      </trkpt>
      <trkpt lat="39.0799180" lon="1.5611430">
        <ele>42.4</ele>
        <time>2020-02-23T12:10:54Z</time>
      </trkpt>
      <trkpt lat="39.0799170" lon="1.5611310">
        <ele>42.4</ele>
        <time>2020-02-23T12:10:55Z</time>
      </trkpt>
      <trkpt lat="39.0799170" lon="1.5611190">
        <ele>42.4</ele>
        <time>2020-02-23T12:10:56Z</time>
      </trkpt>
      <trkpt lat="39.0799190" lon="1.5611080">
        <ele>42.4</ele>
        <time>2020-02-23T12:10:57Z</time>
      </trkpt>
      <trkpt lat="39.0799120" lon="1.5611040">
        <ele>42.4</ele>
        <time>2020-02-23T12:10:58Z</time>
      </trkpt>
      <trkpt lat="39.0799150" lon="1.5610950">
        <ele>42.4</ele>
        <time>2020-02-23T12:10:59Z</time>
      </trkpt>
      <trkpt lat="39.0799220" lon="1.5610950">
        <ele>42.3</ele>
        <time>2020-02-23T12:11:00Z</time>
      </trkpt>
      <trkpt lat="39.0799320" lon="1.5610970">
        <ele>42.3</ele>
        <time>2020-02-23T12:11:01Z</time>
      </trkpt>
      <trkpt lat="39.0799330" lon="1.5610910">
        <ele>42.3</ele>
        <time>2020-02-23T12:11:02Z</time>
      </trkpt>
      <trkpt lat="39.0799330" lon="1.5610910">
        <ele>42.3</ele>
        <time>2020-02-23T12:11:03Z</time>
      </trkpt>
      <trkpt lat="39.0799330" lon="1.5610910">
        <ele>42.3</ele>
        <time>2020-02-23T12:11:04Z</time>
      </trkpt>
      <trkpt lat="39.0799340" lon="1.5610900">
        <ele>42.3</ele>
        <time>2020-02-23T12:11:05Z</time>
      </trkpt>
      <trkpt lat="39.0799340" lon="1.5610900">
        <ele>42.3</ele>
        <time>2020-02-23T12:11:06Z</time>
      </trkpt>
      <trkpt lat="39.0799340" lon="1.5610890">
        <ele>42.3</ele>
        <time>2020-02-23T12:11:07Z</time>
      </trkpt>
      <trkpt lat="39.0799360" lon="1.5610900">
        <ele>42.3</ele>
        <time>2020-02-23T12:11:08Z</time>
      </trkpt>
      <trkpt lat="39.0799370" lon="1.5610900">
        <ele>42.3</ele>
        <time>2020-02-23T12:11:09Z</time>
      </trkpt>
      <trkpt lat="39.0799390" lon="1.5610910">
        <ele>42.3</ele>
        <time>2020-02-23T12:11:10Z</time>
      </trkpt>
      <trkpt lat="39.0799890" lon="1.5610980">
        <ele>42.3</ele>
        <time>2020-02-23T12:11:17Z</time>
      </trkpt>
      <trkpt lat="39.0799980" lon="1.5611030">
        <ele>42.3</ele>
        <time>2020-02-23T12:11:18Z</time>
      </trkpt>
      <trkpt lat="39.0800070" lon="1.5611250">
        <ele>42.3</ele>
        <time>2020-02-23T12:11:19Z</time>
      </trkpt>
      <trkpt lat="39.0800050" lon="1.5611390">
        <ele>42.3</ele>
        <time>2020-02-23T12:11:20Z</time>
      </trkpt>
      <trkpt lat="39.0799970" lon="1.5611460">
        <ele>42.3</ele>
        <time>2020-02-23T12:11:21Z</time>
      </trkpt>
      <trkpt lat="39.0800030" lon="1.5611530">
        <ele>42.3</ele>
        <time>2020-02-23T12:11:22Z</time>
      </trkpt>
      <trkpt lat="39.0800050" lon="1.5611400">
        <ele>42.2</ele>
        <time>2020-02-23T12:11:23Z</time>
      </trkpt>
      <trkpt lat="39.0800040" lon="1.5611380">
        <ele>42.2</ele>
        <time>2020-02-23T12:11:24Z</time>
      </trkpt>
      <trkpt lat="39.0800010" lon="1.5611330">
        <ele>42.2</ele>
        <time>2020-02-23T12:11:25Z</time>
      </trkpt>
      <trkpt lat="39.0800010" lon="1.5611320">
        <ele>42.2</ele>
        <time>2020-02-23T12:11:26Z</time>
      </trkpt>
      <trkpt lat="39.0800010" lon="1.5611330">
        <ele>42.3</ele>
        <time>2020-02-23T12:11:27Z</time>
      </trkpt>
      <trkpt lat="39.0799990" lon="1.5611340">
        <ele>42.3</ele>
        <time>2020-02-23T12:11:28Z</time>
      </trkpt>
      <trkpt lat="39.0799990" lon="1.5611340">
        <ele>42.3</ele>
        <time>2020-02-23T12:11:29Z</time>
      </trkpt>
      <trkpt lat="39.0799990" lon="1.5611410">
        <ele>42.3</ele>
        <time>2020-02-23T12:11:30Z</time>
      </trkpt>
      <trkpt lat="39.0800030" lon="1.5611400">
        <ele>42.3</ele>
        <time>2020-02-23T12:11:31Z</time>
      </trkpt>
      <trkpt lat="39.0800110" lon="1.5611480">
        <ele>42.3</ele>
        <time>2020-02-23T12:11:32Z</time>
      </trkpt>
      <trkpt lat="39.0800150" lon="1.5611640">
        <ele>42.3</ele>
        <time>2020-02-23T12:11:33Z</time>
      </trkpt>
      <trkpt lat="39.0800170" lon="1.5611770">
        <ele>42.3</ele>
        <time>2020-02-23T12:11:34Z</time>
      </trkpt>
      <trkpt lat="39.0800210" lon="1.5612160">
        <ele>42.4</ele>
        <time>2020-02-23T12:11:35Z</time>
      </trkpt>
      <trkpt lat="39.0800210" lon="1.5612350">
        <ele>42.4</ele>
        <time>2020-02-23T12:11:36Z</time>
      </trkpt>
      <trkpt lat="39.0800260" lon="1.5612620">
        <ele>42.4</ele>
        <time>2020-02-23T12:11:37Z</time>
      </trkpt>
      <trkpt lat="39.0800270" lon="1.5612760">
        <ele>42.5</ele>
        <time>2020-02-23T12:11:38Z</time>
      </trkpt>
      <trkpt lat="39.0800280" lon="1.5612770">
        <ele>42.5</ele>
        <time>2020-02-23T12:11:39Z</time>
      </trkpt>
      <trkpt lat="39.0800260" lon="1.5612760">
        <ele>42.5</ele>
        <time>2020-02-23T12:11:40Z</time>
      </trkpt>
      <trkpt lat="39.0800250" lon="1.5612770">
        <ele>42.5</ele>
        <time>2020-02-23T12:11:41Z</time>
      </trkpt>
      <trkpt lat="39.0800240" lon="1.5612750">
        <ele>42.5</ele>
        <time>2020-02-23T12:11:42Z</time>
      </trkpt>
      <trkpt lat="39.0800290" lon="1.5612610">
        <ele>42.5</ele>
        <time>2020-02-23T12:11:43Z</time>
      </trkpt>
      <trkpt lat="39.0800320" lon="1.5612470">
        <ele>42.6</ele>
        <time>2020-02-23T12:11:44Z</time>
      </trkpt>
      <trkpt lat="39.0800330" lon="1.5612400">
        <ele>42.6</ele>
        <time>2020-02-23T12:11:45Z</time>
      </trkpt>
      <trkpt lat="39.0800350" lon="1.5612340">
        <ele>42.6</ele>
        <time>2020-02-23T12:11:46Z</time>
      </trkpt>
      <trkpt lat="39.0800350" lon="1.5612320">
        <ele>42.6</ele>
        <time>2020-02-23T12:11:47Z</time>
      </trkpt>
      <trkpt lat="39.0800370" lon="1.5612310">
        <ele>42.6</ele>
        <time>2020-02-23T12:11:48Z</time>
      </trkpt>
      <trkpt lat="39.0800500" lon="1.5611810">
        <ele>42.7</ele>
        <time>2020-02-23T12:11:53Z</time>
      </trkpt>
      <trkpt lat="39.0800570" lon="1.5611750">
        <ele>42.8</ele>
        <time>2020-02-23T12:11:54Z</time>
      </trkpt>
      <trkpt lat="39.0800560" lon="1.5611590">
        <ele>42.8</ele>
        <time>2020-02-23T12:11:55Z</time>
      </trkpt>
      <trkpt lat="39.0800260" lon="1.5611340">
        <ele>42.9</ele>
        <time>2020-02-23T12:11:56Z</time>
      </trkpt>
      <trkpt lat="39.0800160" lon="1.5611260">
        <ele>43.0</ele>
        <time>2020-02-23T12:11:57Z</time>
      </trkpt>
      <trkpt lat="39.0800150" lon="1.5611250">
        <ele>43.0</ele>
        <time>2020-02-23T12:11:58Z</time>
      </trkpt>
      <trkpt lat="39.0800140" lon="1.5611100">
        <ele>43.0</ele>
        <time>2020-02-23T12:11:59Z</time>
      </trkpt>
      <trkpt lat="39.0800060" lon="1.5610830">
        <ele>43.1</ele>
        <time>2020-02-23T12:12:00Z</time>
      </trkpt>
      <trkpt lat="39.0800040" lon="1.5610690">
        <ele>43.2</ele>
        <time>2020-02-23T12:12:01Z</time>
      </trkpt>
      <trkpt lat="39.0800040" lon="1.5610620">
        <ele>43.2</ele>
        <time>2020-02-23T12:12:02Z</time>
      </trkpt>
      <trkpt lat="39.0800060" lon="1.5610510">
        <ele>43.3</ele>
        <time>2020-02-23T12:12:03Z</time>
      </trkpt>
      <trkpt lat="39.0800100" lon="1.5610470">
        <ele>43.3</ele>
        <time>2020-02-23T12:12:04Z</time>
      </trkpt>
      <trkpt lat="39.0800070" lon="1.5610400">
        <ele>43.4</ele>
        <time>2020-02-23T12:12:05Z</time>
      </trkpt>
      <trkpt lat="39.0800060" lon="1.5610360">
        <ele>43.4</ele>
        <time>2020-02-23T12:12:06Z</time>
      </trkpt>
      <trkpt lat="39.0800040" lon="1.5610360">
        <ele>43.5</ele>
        <time>2020-02-23T12:12:07Z</time>
      </trkpt>
      <trkpt lat="39.0799990" lon="1.5610290">
        <ele>43.5</ele>
        <time>2020-02-23T12:12:08Z</time>
      </trkpt>
      <trkpt lat="39.0799960" lon="1.5610200">
        <ele>43.5</ele>
        <time>2020-02-23T12:12:09Z</time>
      </trkpt>
      <trkpt lat="39.0799980" lon="1.5610180">
        <ele>43.5</ele>
        <time>2020-02-23T12:12:10Z</time>
      </trkpt>
      <trkpt lat="39.0799970" lon="1.5610150">
        <ele>43.6</ele>
        <time>2020-02-23T12:12:11Z</time>
      </trkpt>
      <trkpt lat="39.0800010" lon="1.5610130">
        <ele>43.6</ele>
        <time>2020-02-23T12:12:12Z</time>
      </trkpt>
      <trkpt lat="39.0800010" lon="1.5610100">
        <ele>43.7</ele>
        <time>2020-02-23T12:12:13Z</time>
      </trkpt>
      <trkpt lat="39.0800030" lon="1.5610290">
        <ele>43.8</ele>
        <time>2020-02-23T12:12:14Z</time>
      </trkpt>
      <trkpt lat="39.0800020" lon="1.5610410">
        <ele>43.8</ele>
        <time>2020-02-23T12:12:15Z</time>
      </trkpt>
      <trkpt lat="39.0800060" lon="1.5610480">
        <ele>43.9</ele>
        <time>2020-02-23T12:12:16Z</time>
      </trkpt>
      <trkpt lat="39.0800080" lon="1.5610450">
        <ele>43.9</ele>
        <time>2020-02-23T12:12:17Z</time>
      </trkpt>
      <trkpt lat="39.0800120" lon="1.5610430">
        <ele>43.9</ele>
        <time>2020-02-23T12:12:18Z</time>
      </trkpt>
      <trkpt lat="39.0800170" lon="1.5610440">
        <ele>44.0</ele>
        <time>2020-02-23T12:12:19Z</time>
      </trkpt>
      <trkpt lat="39.0800210" lon="1.5610420">
        <ele>44.1</ele>
        <time>2020-02-23T12:12:20Z</time>
      </trkpt>
      <trkpt lat="39.0800230" lon="1.5610390">
        <ele>44.1</ele>
        <time>2020-02-23T12:12:21Z</time>
      </trkpt>
      <trkpt lat="39.0800240" lon="1.5610400">
        <ele>44.1</ele>
        <time>2020-02-23T12:12:22Z</time>
      </trkpt>
      <trkpt lat="39.0799350" lon="1.5609220">
        <ele>44.8</ele>
        <time>2020-02-23T12:28:50Z</time>
      </trkpt>
      <trkpt lat="39.0799310" lon="1.5609210">
        <ele>44.8</ele>
        <time>2020-02-23T12:28:51Z</time>
      </trkpt>
      <trkpt lat="39.0799240" lon="1.5609200">
        <ele>44.8</ele>
        <time>2020-02-23T12:28:52Z</time>
      </trkpt>
      <trkpt lat="39.0799240" lon="1.5609200">
        <ele>44.8</ele>
        <time>2020-02-23T12:28:53Z</time>
      </trkpt>
      <trkpt lat="39.0799240" lon="1.5609200">
        <ele>44.8</ele>
        <time>2020-02-23T12:28:54Z</time>
      </trkpt>
      <trkpt lat="39.0799240" lon="1.5609200">
        <ele>44.8</ele>
        <time>2020-02-23T12:28:55Z</time>
      </trkpt>
      <trkpt lat="39.0799240" lon="1.5609200">
        <ele>44.8</ele>
        <time>2020-02-23T12:28:56Z</time>
      </trkpt>
      <trkpt lat="39.0799240" lon="1.5609200">
        <ele>44.8</ele>
        <time>2020-02-23T12:28:57Z</time>
      </trkpt>
      <trkpt lat="39.0799240" lon="1.5609200">
        <ele>44.8</ele>
        <time>2020-02-23T12:28:58Z</time>
      </trkpt>
      <trkpt lat="39.0799240" lon="1.5609200">
        <ele>44.8</ele>
        <time>2020-02-23T12:28:59Z</time>
      </trkpt>
      <trkpt lat="39.0799240" lon="1.5609200">
        <ele>44.8</ele>
        <time>2020-02-23T12:29:00Z</time>
      </trkpt>
      <trkpt lat="39.0799240" lon="1.5609200">
        <ele>44.8</ele>
        <time>2020-02-23T12:29:01Z</time>
      </trkpt>
      <trkpt lat="39.0799240" lon="1.5609200">
        <ele>44.8</ele>
        <time>2020-02-23T12:29:02Z</time>
      </trkpt>
      <trkpt lat="39.0799240" lon="1.5609200">
        <ele>44.8</ele>
        <time>2020-02-23T12:29:03Z</time>
      </trkpt>
      <trkpt lat="39.0799260" lon="1.5609720">
        <ele>44.5</ele>
        <time>2020-02-23T12:34:23Z</time>
      </trkpt>
      <trkpt lat="39.0799240" lon="1.5609740">
        <ele>44.5</ele>
        <time>2020-02-23T12:34:24Z</time>
      </trkpt>
      <trkpt lat="39.0799230" lon="1.5609720">
        <ele>44.5</ele>
        <time>2020-02-23T12:34:25Z</time>
      </trkpt>
      <trkpt lat="39.0799190" lon="1.5609720">
        <ele>44.5</ele>
        <time>2020-02-23T12:34:26Z</time>
      </trkpt>
      <trkpt lat="39.0799180" lon="1.5609720">
        <ele>44.5</ele>
        <time>2020-02-23T12:34:27Z</time>
      </trkpt>
      <trkpt lat="39.0799150" lon="1.5609780">
        <ele>44.5</ele>
        <time>2020-02-23T12:34:28Z</time>
      </trkpt>
      <trkpt lat="39.0799140" lon="1.5609820">
        <ele>44.5</ele>
        <time>2020-02-23T12:34:29Z</time>
      </trkpt>
      <trkpt lat="39.0799150" lon="1.5609790">
        <ele>44.5</ele>
        <time>2020-02-23T12:34:30Z</time>
      </trkpt>
      <trkpt lat="39.0799180" lon="1.5609730">
        <ele>44.5</ele>
        <time>2020-02-23T12:34:31Z</time>
      </trkpt>
      <trkpt lat="39.0799190" lon="1.5609660">
        <ele>44.5</ele>
        <time>2020-02-23T12:34:32Z</time>
      </trkpt>
      <trkpt lat="39.0799210" lon="1.5609600">
        <ele>44.5</ele>
        <time>2020-02-23T12:34:33Z</time>
      </trkpt>
      <trkpt lat="39.0799240" lon="1.5609540">
        <ele>44.8</ele>
        <time>2020-02-23T12:34:34Z</time>
      </trkpt>
      <trkpt lat="39.0799230" lon="1.5609550">
        <ele>44.8</ele>
        <time>2020-02-23T12:34:35Z</time>
      </trkpt>
      <trkpt lat="39.0799280" lon="1.5609430">
        <ele>44.8</ele>
        <time>2020-02-23T12:34:36Z</time>
      </trkpt>
      <trkpt lat="39.0799300" lon="1.5609400">
        <ele>44.8</ele>
        <time>2020-02-23T12:34:37Z</time>
      </trkpt>
      <trkpt lat="39.0799290" lon="1.5609460">
        <ele>44.8</ele>
        <time>2020-02-23T12:34:38Z</time>
      </trkpt>
      <trkpt lat="39.0799280" lon="1.5609510">
        <ele>44.8</ele>
        <time>2020-02-23T12:34:39Z</time>
      </trkpt>
      <trkpt lat="39.0798790" lon="1.5610400">
        <ele>44.3</ele>
        <time>2020-02-23T12:37:02Z</time>
      </trkpt>
      <trkpt lat="39.0798680" lon="1.5610470">
        <ele>44.1</ele>
        <time>2020-02-23T12:37:03Z</time>
      </trkpt>
      <trkpt lat="39.0798620" lon="1.5610480">
        <ele>44.1</ele>
        <time>2020-02-23T12:37:04Z</time>
      </trkpt>
      <trkpt lat="39.0798670" lon="1.5610500">
        <ele>44.1</ele>
        <time>2020-02-23T12:37:05Z</time>
      </trkpt>
      <trkpt lat="39.0798720" lon="1.5610530">
        <ele>44.1</ele>
        <time>2020-02-23T12:37:06Z</time>
      </trkpt>
      <trkpt lat="39.0798750" lon="1.5610490">
        <ele>44.0</ele>
        <time>2020-02-23T12:37:07Z</time>
      </trkpt>
      <trkpt lat="39.0798750" lon="1.5610450">
        <ele>44.3</ele>
        <time>2020-02-23T12:37:08Z</time>
      </trkpt>
      <trkpt lat="39.0798830" lon="1.5610520">
        <ele>44.0</ele>
        <time>2020-02-23T12:37:09Z</time>
      </trkpt>
      <trkpt lat="39.0798860" lon="1.5610530">
        <ele>44.0</ele>
        <time>2020-02-23T12:37:10Z</time>
      </trkpt>
      <trkpt lat="39.0799010" lon="1.5610540">
        <ele>44.0</ele>
        <time>2020-02-23T12:37:11Z</time>
      </trkpt>
      <trkpt lat="39.0799130" lon="1.5610490">
        <ele>43.9</ele>
        <time>2020-02-23T12:37:12Z</time>
      </trkpt>
      <trkpt lat="39.0799130" lon="1.5610460">
        <ele>43.9</ele>
        <time>2020-02-23T12:37:13Z</time>
      </trkpt>
      <trkpt lat="39.0799130" lon="1.5610420">
        <ele>44.2</ele>
        <time>2020-02-23T12:37:14Z</time>
      </trkpt>
      <trkpt lat="39.0799130" lon="1.5610390">
        <ele>44.2</ele>
        <time>2020-02-23T12:37:15Z</time>
      </trkpt>
      <trkpt lat="39.0799130" lon="1.5610360">
        <ele>44.2</ele>
        <time>2020-02-23T12:37:16Z</time>
      </trkpt>
      <trkpt lat="39.0799140" lon="1.5610330">
        <ele>44.2</ele>
        <time>2020-02-23T12:37:17Z</time>
      </trkpt>
      <trkpt lat="39.0799140" lon="1.5610290">
        <ele>44.2</ele>
        <time>2020-02-23T12:37:18Z</time>
      </trkpt>
      <trkpt lat="39.0799140" lon="1.5610260">
        <ele>44.2</ele>
        <time>2020-02-23T12:37:19Z</time>
      </trkpt>
      <trkpt lat="39.0799140" lon="1.5610230">
        <ele>44.2</ele>
        <time>2020-02-23T12:37:20Z</time>
      </trkpt>
      <trkpt lat="39.0799140" lon="1.5610200">
        <ele>44.2</ele>
        <time>2020-02-23T12:37:21Z</time>
      </trkpt>
      <trkpt lat="39.0799140" lon="1.5610170">
        <ele>44.2</ele>
        <time>2020-02-23T12:37:22Z</time>
      </trkpt>
      <trkpt lat="39.0799140" lon="1.5610130">
        <ele>44.2</ele>
        <time>2020-02-23T12:37:23Z</time>
      </trkpt>
      <trkpt lat="39.0799140" lon="1.5610100">
        <ele>44.2</ele>
        <time>2020-02-23T12:37:24Z</time>
      </trkpt>
      <trkpt lat="39.0799140" lon="1.5610070">
        <ele>44.2</ele>
        <time>2020-02-23T12:37:25Z</time>
      </trkpt>
      <trkpt lat="39.0799140" lon="1.5610040">
        <ele>44.2</ele>
        <time>2020-02-23T12:37:26Z</time>
      </trkpt>
      <trkpt lat="39.0799140" lon="1.5610010">
        <ele>44.5</ele>
        <time>2020-02-23T12:37:27Z</time>
      </trkpt>
      <trkpt lat="39.0799140" lon="1.5609970">
        <ele>44.5</ele>
        <time>2020-02-23T12:37:28Z</time>
      </trkpt>
      <trkpt lat="39.0799150" lon="1.5609940">
        <ele>44.5</ele>
        <time>2020-02-23T12:37:29Z</time>
      </trkpt>
      <trkpt lat="39.0799150" lon="1.5609910">
        <ele>44.5</ele>
        <time>2020-02-23T12:37:30Z</time>
      </trkpt>
      <trkpt lat="39.0799150" lon="1.5609880">
        <ele>44.5</ele>
        <time>2020-02-23T12:37:31Z</time>
      </trkpt>
      <trkpt lat="39.0799150" lon="1.5609840">
        <ele>44.5</ele>
        <time>2020-02-23T12:37:32Z</time>
      </trkpt>
      <trkpt lat="39.0799150" lon="1.5609810">
        <ele>44.5</ele>
        <time>2020-02-23T12:37:33Z</time>
      </trkpt>
      <trkpt lat="39.0799150" lon="1.5609780">
        <ele>44.5</ele>
        <time>2020-02-23T12:37:34Z</time>
      </trkpt>
      <trkpt lat="39.0799140" lon="1.5609650">
        <ele>44.5</ele>
        <time>2020-02-23T12:37:35Z</time>
      </trkpt>
      <trkpt lat="39.0799200" lon="1.5609580">
        <ele>44.9</ele>
        <time>2020-02-23T12:37:36Z</time>
      </trkpt>
      <trkpt lat="39.0799250" lon="1.5609520">
        <ele>44.9</ele>
        <time>2020-02-23T12:37:37Z</time>
      </trkpt>
      <trkpt lat="39.0799310" lon="1.5609450">
        <ele>44.9</ele>
        <time>2020-02-23T12:37:38Z</time>
      </trkpt>
      <trkpt lat="39.0799360" lon="1.5609380">
        <ele>44.9</ele>
        <time>2020-02-23T12:37:39Z</time>
      </trkpt>
      <trkpt lat="39.0799420" lon="1.5609310">
        <ele>44.7</ele>
        <time>2020-02-23T12:37:40Z</time>
      </trkpt>
      <trkpt lat="39.0799470" lon="1.5609250">
        <ele>44.7</ele>
        <time>2020-02-23T12:37:41Z</time>
      </trkpt>
      <trkpt lat="39.0799530" lon="1.5609180">
        <ele>44.7</ele>
        <time>2020-02-23T12:37:42Z</time>
      </trkpt>
      <trkpt lat="39.0799580" lon="1.5609110">
        <ele>45.0</ele>
        <time>2020-02-23T12:37:43Z</time>
      </trkpt>
      <trkpt lat="39.0799900" lon="1.5608900">
        <ele>44.9</ele>
        <time>2020-02-23T12:37:44Z</time>
      </trkpt>
      <trkpt lat="39.0800220" lon="1.5608670">
        <ele>45.1</ele>
        <time>2020-02-23T12:37:45Z</time>
      </trkpt>
      <trkpt lat="39.0800320" lon="1.5608570">
        <ele>45.1</ele>
        <time>2020-02-23T12:37:46Z</time>
      </trkpt>
      <trkpt lat="39.0800430" lon="1.5608470">
        <ele>45.0</ele>
        <time>2020-02-23T12:37:47Z</time>
      </trkpt>
      <trkpt lat="39.0801060" lon="1.5608150">
        <ele>45.1</ele>
        <time>2020-02-23T12:37:48Z</time>
      </trkpt>
      <trkpt lat="39.0801450" lon="1.5607890">
        <ele>44.9</ele>
        <time>2020-02-23T12:37:49Z</time>
      </trkpt>
      <trkpt lat="39.0801830" lon="1.5607640">
        <ele>45.1</ele>
        <time>2020-02-23T12:37:50Z</time>
      </trkpt>
      <trkpt lat="39.0802210" lon="1.5607380">
        <ele>45.2</ele>
        <time>2020-02-23T12:37:51Z</time>
      </trkpt>
      <trkpt lat="39.0802590" lon="1.5607130">
        <ele>45.2</ele>
        <time>2020-02-23T12:37:52Z</time>
      </trkpt>
      <trkpt lat="39.0802980" lon="1.5606870">
        <ele>45.3</ele>
        <time>2020-02-23T12:37:53Z</time>
      </trkpt>
      <trkpt lat="39.0803360" lon="1.5606620">
        <ele>45.3</ele>
        <time>2020-02-23T12:37:54Z</time>
      </trkpt>
      <trkpt lat="39.0803930" lon="1.5606360">
        <ele>45.5</ele>
        <time>2020-02-23T12:37:55Z</time>
      </trkpt>
      <trkpt lat="39.0804550" lon="1.5605940">
        <ele>45.9</ele>
        <time>2020-02-23T12:37:56Z</time>
      </trkpt>
      <trkpt lat="39.0804720" lon="1.5605840">
        <ele>45.9</ele>
        <time>2020-02-23T12:37:57Z</time>
      </trkpt>
      <trkpt lat="39.0804900" lon="1.5605710">
        <ele>46.3</ele>
        <time>2020-02-23T12:37:58Z</time>
      </trkpt>
      <trkpt lat="39.0804780" lon="1.5605840">
        <ele>46.0</ele>
        <time>2020-02-23T12:37:59Z</time>
      </trkpt>
      <trkpt lat="39.0804670" lon="1.5605980">
        <ele>45.9</ele>
        <time>2020-02-23T12:38:00Z</time>
      </trkpt>
      <trkpt lat="39.0804550" lon="1.5606110">
        <ele>45.9</ele>
        <time>2020-02-23T12:38:01Z</time>
      </trkpt>
      <trkpt lat="39.0804430" lon="1.5606250">
        <ele>45.6</ele>
        <time>2020-02-23T12:38:02Z</time>
      </trkpt>
      <trkpt lat="39.0804310" lon="1.5606380">
        <ele>45.6</ele>
        <time>2020-02-23T12:38:03Z</time>
      </trkpt>
      <trkpt lat="39.0804190" lon="1.5606520">
        <ele>45.6</ele>
        <time>2020-02-23T12:38:04Z</time>
      </trkpt>
      <trkpt lat="39.0804080" lon="1.5606660">
        <ele>45.3</ele>
        <time>2020-02-23T12:38:05Z</time>
      </trkpt>
      <trkpt lat="39.0803960" lon="1.5606790">
        <ele>45.3</ele>
        <time>2020-02-23T12:38:06Z</time>
      </trkpt>
      <trkpt lat="39.0803840" lon="1.5606930">
        <ele>45.3</ele>
        <time>2020-02-23T12:38:07Z</time>
      </trkpt>
      <trkpt lat="39.0803720" lon="1.5607060">
        <ele>45.1</ele>
        <time>2020-02-23T12:38:08Z</time>
      </trkpt>
      <trkpt lat="39.0803600" lon="1.5607200">
        <ele>45.1</ele>
        <time>2020-02-23T12:38:46Z</time>
      </trkpt>
      <trkpt lat="39.0803480" lon="1.5607330">
        <ele>45.1</ele>
        <time>2020-02-23T12:38:47Z</time>
      </trkpt>
      <trkpt lat="39.0803370" lon="1.5607470">
        <ele>44.9</ele>
        <time>2020-02-23T12:38:48Z</time>
      </trkpt>
      <trkpt lat="39.0803250" lon="1.5607600">
        <ele>44.9</ele>
        <time>2020-02-23T12:38:49Z</time>
      </trkpt>
      <trkpt lat="39.0803130" lon="1.5607740">
        <ele>44.9</ele>
        <time>2020-02-23T12:38:50Z</time>
      </trkpt>
      <trkpt lat="39.0803040" lon="1.5607740">
        <ele>45.0</ele>
        <time>2020-02-23T12:38:51Z</time>
      </trkpt>
      <trkpt lat="39.0803060" lon="1.5607830">
        <ele>45.0</ele>
        <time>2020-02-23T12:38:52Z</time>
      </trkpt>
      <trkpt lat="39.0803080" lon="1.5607910">
        <ele>44.8</ele>
        <time>2020-02-23T12:38:53Z</time>
      </trkpt>
      <trkpt lat="39.0803110" lon="1.5607990">
        <ele>44.8</ele>
        <time>2020-02-23T12:38:54Z</time>
      </trkpt>
      <trkpt lat="39.0803130" lon="1.5608080">
        <ele>44.8</ele>
        <time>2020-02-23T12:38:55Z</time>
      </trkpt>
      <trkpt lat="39.0803150" lon="1.5608160">
        <ele>44.8</ele>
        <time>2020-02-23T12:38:56Z</time>
      </trkpt>
      <trkpt lat="39.0803170" lon="1.5608250">
        <ele>44.8</ele>
        <time>2020-02-23T12:38:57Z</time>
      </trkpt>
      <trkpt lat="39.0803190" lon="1.5608330">
        <ele>44.6</ele>
        <time>2020-02-23T12:38:58Z</time>
      </trkpt>
      <trkpt lat="39.0803120" lon="1.5608470">
        <ele>44.6</ele>
        <time>2020-02-23T12:38:59Z</time>
      </trkpt>
      <trkpt lat="39.0803040" lon="1.5608670">
        <ele>44.6</ele>
        <time>2020-02-23T12:39:00Z</time>
      </trkpt>
      <trkpt lat="39.0802940" lon="1.5608990">
        <ele>44.5</ele>
        <time>2020-02-23T12:39:01Z</time>
      </trkpt>
      <trkpt lat="39.0802910" lon="1.5609140">
        <ele>44.5</ele>
        <time>2020-02-23T12:39:02Z</time>
      </trkpt>
      <trkpt lat="39.0802950" lon="1.5609350">
        <ele>44.3</ele>
        <time>2020-02-23T12:39:03Z</time>
      </trkpt>
      <trkpt lat="39.0802920" lon="1.5609390">
        <ele>44.3</ele>
        <time>2020-02-23T12:39:04Z</time>
      </trkpt>
      <trkpt lat="39.0802890" lon="1.5609540">
        <ele>44.3</ele>
        <time>2020-02-23T12:39:05Z</time>
      </trkpt>
      <trkpt lat="39.0802690" lon="1.5609250">
        <ele>44.4</ele>
        <time>2020-02-23T12:39:06Z</time>
      </trkpt>
      <trkpt lat="39.0802570" lon="1.5609080">
        <ele>44.5</ele>
        <time>2020-02-23T12:39:07Z</time>
      </trkpt>
      <trkpt lat="39.0802400" lon="1.5608810">
        <ele>44.5</ele>
        <time>2020-02-23T12:39:08Z</time>
      </trkpt>
      <trkpt lat="39.0802250" lon="1.5608490">
        <ele>44.7</ele>
        <time>2020-02-23T12:39:09Z</time>
      </trkpt>
      <trkpt lat="39.0802220" lon="1.5608420">
        <ele>44.7</ele>
        <time>2020-02-23T12:39:10Z</time>
      </trkpt>
      <trkpt lat="39.0802190" lon="1.5608340">
        <ele>44.7</ele>
        <time>2020-02-23T12:39:11Z</time>
      </trkpt>
      <trkpt lat="39.0802120" lon="1.5608250">
        <ele>44.9</ele>
        <time>2020-02-23T12:39:12Z</time>
      </trkpt>
      <trkpt lat="39.0802100" lon="1.5608170">
        <ele>44.9</ele>
        <time>2020-02-23T12:39:13Z</time>
      </trkpt>
      <trkpt lat="39.0802080" lon="1.5608100">
        <ele>44.9</ele>
        <time>2020-02-23T12:39:14Z</time>
      </trkpt>
      <trkpt lat="39.0802110" lon="1.5608080">
        <ele>44.9</ele>
        <time>2020-02-23T12:39:15Z</time>
      </trkpt>
      <trkpt lat="39.0802080" lon="1.5608150">
        <ele>44.9</ele>
        <time>2020-02-23T12:39:16Z</time>
      </trkpt>
      <trkpt lat="39.0802070" lon="1.5608230">
        <ele>44.9</ele>
        <time>2020-02-23T12:39:17Z</time>
      </trkpt>
      <trkpt lat="39.0802070" lon="1.5608250">
        <ele>44.9</ele>
        <time>2020-02-23T12:39:18Z</time>
      </trkpt>
      <trkpt lat="39.0802070" lon="1.5608320">
        <ele>44.7</ele>
        <time>2020-02-23T12:39:19Z</time>
      </trkpt>
      <trkpt lat="39.0802050" lon="1.5608400">
        <ele>44.7</ele>
        <time>2020-02-23T12:39:20Z</time>
      </trkpt>
      <trkpt lat="39.0802090" lon="1.5608380">
        <ele>44.7</ele>
        <time>2020-02-23T12:39:21Z</time>
      </trkpt>
      <trkpt lat="39.0802120" lon="1.5608320">
        <ele>44.7</ele>
        <time>2020-02-23T12:39:22Z</time>
      </trkpt>
      <trkpt lat="39.0802130" lon="1.5608370">
        <ele>44.7</ele>
        <time>2020-02-23T12:39:23Z</time>
      </trkpt>
      <trkpt lat="39.0802130" lon="1.5608330">
        <ele>44.7</ele>
        <time>2020-02-23T12:39:24Z</time>
      </trkpt>
      <trkpt lat="39.0802140" lon="1.5608370">
        <ele>44.7</ele>
        <time>2020-02-23T12:39:25Z</time>
      </trkpt>
      <trkpt lat="39.0802160" lon="1.5608390">
        <ele>44.7</ele>
        <time>2020-02-23T12:39:26Z</time>
      </trkpt>
      <trkpt lat="39.0802200" lon="1.5608400">
        <ele>44.7</ele>
        <time>2020-02-23T12:39:27Z</time>
      </trkpt>
      <trkpt lat="39.0802130" lon="1.5608570">
        <ele>44.7</ele>
        <time>2020-02-23T12:39:28Z</time>
      </trkpt>
      <trkpt lat="39.0802000" lon="1.5608700">
        <ele>44.7</ele>
        <time>2020-02-23T12:39:29Z</time>
      </trkpt>
      <trkpt lat="39.0801820" lon="1.5609000">
        <ele>44.6</ele>
        <time>2020-02-23T12:39:30Z</time>
      </trkpt>
      <trkpt lat="39.0801780" lon="1.5609100">
        <ele>44.6</ele>
        <time>2020-02-23T12:39:31Z</time>
      </trkpt>
      <trkpt lat="39.0801660" lon="1.5609210">
        <ele>44.4</ele>
        <time>2020-02-23T12:39:32Z</time>
      </trkpt>
      <trkpt lat="39.0801580" lon="1.5609270">
        <ele>44.4</ele>
        <time>2020-02-23T12:39:33Z</time>
      </trkpt>
      <trkpt lat="39.0801500" lon="1.5609320">
        <ele>44.4</ele>
        <time>2020-02-23T12:39:34Z</time>
      </trkpt>
      <trkpt lat="39.0801420" lon="1.5609370">
        <ele>44.4</ele>
        <time>2020-02-23T12:39:35Z</time>
      </trkpt>
      <trkpt lat="39.0801350" lon="1.5609430">
        <ele>44.5</ele>
        <time>2020-02-23T12:39:36Z</time>
      </trkpt>
      <trkpt lat="39.0801270" lon="1.5609480">
        <ele>44.5</ele>
        <time>2020-02-23T12:39:37Z</time>
      </trkpt>
      <trkpt lat="39.0801190" lon="1.5609530">
        <ele>44.5</ele>
        <time>2020-02-23T12:39:38Z</time>
      </trkpt>
      <trkpt lat="39.0801110" lon="1.5609580">
        <ele>44.5</ele>
        <time>2020-02-23T12:39:39Z</time>
      </trkpt>
      <trkpt lat="39.0801030" lon="1.5609640">
        <ele>44.3</ele>
        <time>2020-02-23T12:39:40Z</time>
      </trkpt>
      <trkpt lat="39.0800950" lon="1.5609690">
        <ele>44.3</ele>
        <time>2020-02-23T12:39:41Z</time>
      </trkpt>
      <trkpt lat="39.0800820" lon="1.5609560">
        <ele>44.5</ele>
        <time>2020-02-23T12:39:42Z</time>
      </trkpt>
      <trkpt lat="39.0800760" lon="1.5609420">
        <ele>44.5</ele>
        <time>2020-02-23T12:39:43Z</time>
      </trkpt>
      <trkpt lat="39.0800700" lon="1.5609280">
        <ele>44.5</ele>
        <time>2020-02-23T12:39:59Z</time>
      </trkpt>
      <trkpt lat="39.0800640" lon="1.5609150">
        <ele>44.8</ele>
        <time>2020-02-23T12:40:00Z</time>
      </trkpt>
      <trkpt lat="39.0800580" lon="1.5609010">
        <ele>44.8</ele>
        <time>2020-02-23T12:40:01Z</time>
      </trkpt>
      <trkpt lat="39.0800520" lon="1.5608870">
        <ele>44.8</ele>
        <time>2020-02-23T12:40:02Z</time>
      </trkpt>
      <trkpt lat="39.0800450" lon="1.5608730">
        <ele>45.0</ele>
        <time>2020-02-23T12:40:03Z</time>
      </trkpt>
      <trkpt lat="39.0800390" lon="1.5608590">
        <ele>45.1</ele>
        <time>2020-02-23T12:40:04Z</time>
      </trkpt>
      <trkpt lat="39.0800330" lon="1.5608450">
        <ele>45.1</ele>
        <time>2020-02-23T12:40:05Z</time>
      </trkpt>
      <trkpt lat="39.0800270" lon="1.5608320">
        <ele>45.1</ele>
        <time>2020-02-23T12:40:06Z</time>
      </trkpt>
      <trkpt lat="39.0800210" lon="1.5608180">
        <ele>45.3</ele>
        <time>2020-02-23T12:40:07Z</time>
      </trkpt>
      <trkpt lat="39.0800150" lon="1.5608040">
        <ele>45.3</ele>
        <time>2020-02-23T12:40:08Z</time>
      </trkpt>
      <trkpt lat="39.0800090" lon="1.5607900">
        <ele>45.3</ele>
        <time>2020-02-23T12:40:09Z</time>
      </trkpt>
      <trkpt lat="39.0800040" lon="1.5607990">
        <ele>45.5</ele>
        <time>2020-02-23T12:40:10Z</time>
      </trkpt>
      <trkpt lat="39.0799940" lon="1.5608050">
        <ele>45.5</ele>
        <time>2020-02-23T12:40:11Z</time>
      </trkpt>
      <trkpt lat="39.0799920" lon="1.5608090">
        <ele>45.5</ele>
        <time>2020-02-23T12:40:12Z</time>
      </trkpt>
      <trkpt lat="39.0799900" lon="1.5608060">
        <ele>45.5</ele>
        <time>2020-02-23T12:40:13Z</time>
      </trkpt>
      <trkpt lat="39.0799870" lon="1.5608070">
        <ele>45.5</ele>
        <time>2020-02-23T12:40:14Z</time>
      </trkpt>
      <trkpt lat="39.0799850" lon="1.5608090">
        <ele>45.5</ele>
        <time>2020-02-23T12:40:15Z</time>
      </trkpt>
      <trkpt lat="39.0799850" lon="1.5608080">
        <ele>45.5</ele>
        <time>2020-02-23T12:40:16Z</time>
      </trkpt>
      <trkpt lat="39.0800770" lon="1.5607740">
        <ele>45.3</ele>
        <time>2020-02-23T12:41:21Z</time>
      </trkpt>
      <trkpt lat="39.0800860" lon="1.5607720">
        <ele>45.3</ele>
        <time>2020-02-23T12:41:22Z</time>
      </trkpt>
      <trkpt lat="39.0800890" lon="1.5607710">
        <ele>45.3</ele>
        <time>2020-02-23T12:41:23Z</time>
      </trkpt>
      <trkpt lat="39.0800910" lon="1.5607700">
        <ele>45.3</ele>
        <time>2020-02-23T12:41:24Z</time>
      </trkpt>
      <trkpt lat="39.0800910" lon="1.5607700">
        <ele>45.3</ele>
        <time>2020-02-23T12:41:25Z</time>
      </trkpt>
      <trkpt lat="39.0800910" lon="1.5607710">
        <ele>45.3</ele>
        <time>2020-02-23T12:41:26Z</time>
      </trkpt>
      <trkpt lat="39.0800910" lon="1.5607710">
        <ele>45.3</ele>
        <time>2020-02-23T12:41:27Z</time>
      </trkpt>
      <trkpt lat="39.0800850" lon="1.5607740">
        <ele>45.3</ele>
        <time>2020-02-23T12:41:28Z</time>
      </trkpt>
      <trkpt lat="39.0800810" lon="1.5607760">
        <ele>45.3</ele>
        <time>2020-02-23T12:41:29Z</time>
      </trkpt>
      <trkpt lat="39.0800820" lon="1.5607760">
        <ele>45.3</ele>
        <time>2020-02-23T12:41:30Z</time>
      </trkpt>
      <trkpt lat="39.0800770" lon="1.5607780">
        <ele>45.3</ele>
        <time>2020-02-23T12:41:31Z</time>
      </trkpt>
      <trkpt lat="39.0800710" lon="1.5607790">
        <ele>45.4</ele>
        <time>2020-02-23T12:41:32Z</time>
      </trkpt>
      <trkpt lat="39.0800670" lon="1.5607800">
        <ele>45.4</ele>
        <time>2020-02-23T12:41:33Z</time>
      </trkpt>
      <trkpt lat="39.0799820" lon="1.5608530">
        <ele>45.2</ele>
        <time>2020-02-23T12:44:08Z</time>
      </trkpt>
      <trkpt lat="39.0799840" lon="1.5608670">
        <ele>45.2</ele>
        <time>2020-02-23T12:44:09Z</time>
      </trkpt>
      <trkpt lat="39.0799840" lon="1.5608780">
        <ele>44.9</ele>
        <time>2020-02-23T12:44:10Z</time>
      </trkpt>
      <trkpt lat="39.0799870" lon="1.5608800">
        <ele>44.9</ele>
        <time>2020-02-23T12:44:11Z</time>
      </trkpt>
      <trkpt lat="39.0799910" lon="1.5608850">
        <ele>44.9</ele>
        <time>2020-02-23T12:44:12Z</time>
      </trkpt>
      <trkpt lat="39.0799960" lon="1.5608810">
        <ele>44.9</ele>
        <time>2020-02-23T12:44:13Z</time>
      </trkpt>
      <trkpt lat="39.0799980" lon="1.5608840">
        <ele>44.9</ele>
        <time>2020-02-23T12:44:14Z</time>
      </trkpt>
      <trkpt lat="39.0800030" lon="1.5608880">
        <ele>44.9</ele>
        <time>2020-02-23T12:44:15Z</time>
      </trkpt>
      <trkpt lat="39.0800030" lon="1.5608770">
        <ele>44.9</ele>
        <time>2020-02-23T12:44:16Z</time>
      </trkpt>
      <trkpt lat="39.0800050" lon="1.5608750">
        <ele>44.9</ele>
        <time>2020-02-23T12:44:17Z</time>
      </trkpt>
      <trkpt lat="39.0800050" lon="1.5608730">
        <ele>45.2</ele>
        <time>2020-02-23T12:44:18Z</time>
      </trkpt>
      <trkpt lat="39.0800070" lon="1.5608670">
        <ele>45.2</ele>
        <time>2020-02-23T12:44:19Z</time>
      </trkpt>
      <trkpt lat="39.0800060" lon="1.5608620">
        <ele>45.2</ele>
        <time>2020-02-23T12:44:20Z</time>
      </trkpt>
      <trkpt lat="39.0800040" lon="1.5608600">
        <ele>45.2</ele>
        <time>2020-02-23T12:44:21Z</time>
      </trkpt>
      <trkpt lat="39.0800050" lon="1.5608530">
        <ele>45.2</ele>
        <time>2020-02-23T12:44:22Z</time>
      </trkpt>
      <trkpt lat="39.0800020" lon="1.5608520">
        <ele>45.2</ele>
        <time>2020-02-23T12:44:23Z</time>
      </trkpt>
      <trkpt lat="39.0799960" lon="1.5608480">
        <ele>45.2</ele>
        <time>2020-02-23T12:44:24Z</time>
      </trkpt>
      <trkpt lat="39.0799910" lon="1.5608460">
        <ele>45.2</ele>
        <time>2020-02-23T12:44:25Z</time>
      </trkpt>
      <trkpt lat="39.0799870" lon="1.5608460">
        <ele>45.2</ele>
        <time>2020-02-23T12:44:26Z</time>
      </trkpt>
      <trkpt lat="39.0799870" lon="1.5608390">
        <ele>45.2</ele>
        <time>2020-02-23T12:44:27Z</time>
      </trkpt>
      <trkpt lat="39.0799830" lon="1.5608370">
        <ele>45.2</ele>
        <time>2020-02-23T12:44:28Z</time>
      </trkpt>
      <trkpt lat="39.0799840" lon="1.5608360">
        <ele>45.2</ele>
        <time>2020-02-23T12:44:29Z</time>
      </trkpt>
      <trkpt lat="39.0799840" lon="1.5608380">
        <ele>45.2</ele>
        <time>2020-02-23T12:44:30Z</time>
      </trkpt>
      <trkpt lat="39.0799840" lon="1.5608380">
        <ele>45.2</ele>
        <time>2020-02-23T12:44:31Z</time>
      </trkpt>
      <trkpt lat="39.0799840" lon="1.5608350">
        <ele>45.2</ele>
        <time>2020-02-23T12:44:32Z</time>
      </trkpt>
      <trkpt lat="39.0799840" lon="1.5608350">
        <ele>45.2</ele>
        <time>2020-02-23T12:44:33Z</time>
      </trkpt>
      <trkpt lat="39.0800320" lon="1.5606790">
        <ele>46.0</ele>
        <time>2020-02-23T12:45:06Z</time>
      </trkpt>
      <trkpt lat="39.0800430" lon="1.5606690">
        <ele>45.9</ele>
        <time>2020-02-23T12:45:07Z</time>
      </trkpt>
      <trkpt lat="39.0800470" lon="1.5606610">
        <ele>45.9</ele>
        <time>2020-02-23T12:45:08Z</time>
      </trkpt>
      <trkpt lat="39.0800500" lon="1.5606540">
        <ele>46.1</ele>
        <time>2020-02-23T12:45:09Z</time>
      </trkpt>
      <trkpt lat="39.0800540" lon="1.5606460">
        <ele>46.1</ele>
        <time>2020-02-23T12:45:10Z</time>
      </trkpt>
      <trkpt lat="39.0800570" lon="1.5606480">
        <ele>46.1</ele>
        <time>2020-02-23T12:45:11Z</time>
      </trkpt>
      <trkpt lat="39.0800580" lon="1.5606510">
        <ele>46.1</ele>
        <time>2020-02-23T12:45:12Z</time>
      </trkpt>
      <trkpt lat="39.0800570" lon="1.5606610">
        <ele>45.9</ele>
        <time>2020-02-23T12:45:13Z</time>
      </trkpt>
      <trkpt lat="39.0800560" lon="1.5606780">
        <ele>45.9</ele>
        <time>2020-02-23T12:45:14Z</time>
      </trkpt>
      <trkpt lat="39.0800530" lon="1.5606860">
        <ele>45.9</ele>
        <time>2020-02-23T12:45:15Z</time>
      </trkpt>
      <trkpt lat="39.0800510" lon="1.5606950">
        <ele>45.9</ele>
        <time>2020-02-23T12:45:16Z</time>
      </trkpt>
      <trkpt lat="39.0800510" lon="1.5606990">
        <ele>45.9</ele>
        <time>2020-02-23T12:45:17Z</time>
      </trkpt>
      <trkpt lat="39.0800520" lon="1.5606990">
        <ele>45.9</ele>
        <time>2020-02-23T12:45:18Z</time>
      </trkpt>
      <trkpt lat="39.0800510" lon="1.5606980">
        <ele>45.9</ele>
        <time>2020-02-23T12:45:19Z</time>
      </trkpt>
      <trkpt lat="39.0800510" lon="1.5606910">
        <ele>45.9</ele>
        <time>2020-02-23T12:45:20Z</time>
      </trkpt>
      <trkpt lat="39.0800500" lon="1.5606890">
        <ele>45.9</ele>
        <time>2020-02-23T12:45:21Z</time>
      </trkpt>
      <trkpt lat="39.0800450" lon="1.5606980">
        <ele>45.9</ele>
        <time>2020-02-23T12:45:22Z</time>
      </trkpt>
      <trkpt lat="39.0800470" lon="1.5607010">
        <ele>45.9</ele>
        <time>2020-02-23T12:45:23Z</time>
      </trkpt>
      <trkpt lat="39.0800480" lon="1.5606950">
        <ele>45.9</ele>
        <time>2020-02-23T12:45:24Z</time>
      </trkpt>
      <trkpt lat="39.0800490" lon="1.5606990">
        <ele>45.9</ele>
        <time>2020-02-23T12:45:25Z</time>
      </trkpt>
      <trkpt lat="39.0800490" lon="1.5606970">
        <ele>45.9</ele>
        <time>2020-02-23T12:45:26Z</time>
      </trkpt>
      <trkpt lat="39.0800490" lon="1.5606960">
        <ele>45.9</ele>
        <time>2020-02-23T12:45:27Z</time>
      </trkpt>
      <trkpt lat="39.0800430" lon="1.5606940">
        <ele>45.9</ele>
        <time>2020-02-23T12:45:28Z</time>
      </trkpt>
      <trkpt lat="39.0800400" lon="1.5607050">
        <ele>45.8</ele>
        <time>2020-02-23T12:45:29Z</time>
      </trkpt>
      <trkpt lat="39.0800440" lon="1.5607160">
        <ele>45.7</ele>
        <time>2020-02-23T12:45:30Z</time>
      </trkpt>
      <trkpt lat="39.0800470" lon="1.5607110">
        <ele>45.7</ele>
        <time>2020-02-23T12:45:31Z</time>
      </trkpt>
      <trkpt lat="39.0800510" lon="1.5607110">
        <ele>45.7</ele>
        <time>2020-02-23T12:45:32Z</time>
      </trkpt>
      <trkpt lat="39.0800540" lon="1.5607190">
        <ele>45.7</ele>
        <time>2020-02-23T12:45:33Z</time>
      </trkpt>
      <trkpt lat="39.0800540" lon="1.5607270">
        <ele>45.7</ele>
        <time>2020-02-23T12:45:34Z</time>
      </trkpt>
      <trkpt lat="39.0800490" lon="1.5607430">
        <ele>45.7</ele>
        <time>2020-02-23T12:45:35Z</time>
      </trkpt>
      <trkpt lat="39.0800380" lon="1.5607410">
        <ele>45.8</ele>
        <time>2020-02-23T12:45:36Z</time>
      </trkpt>
      <trkpt lat="39.0800280" lon="1.5607380">
        <ele>45.8</ele>
        <time>2020-02-23T12:45:37Z</time>
      </trkpt>
      <trkpt lat="39.0800190" lon="1.5607390">
        <ele>45.8</ele>
        <time>2020-02-23T12:45:38Z</time>
      </trkpt>
      <trkpt lat="39.0800110" lon="1.5607440">
        <ele>45.8</ele>
        <time>2020-02-23T12:45:39Z</time>
      </trkpt>
      <trkpt lat="39.0800050" lon="1.5607420">
        <ele>46.0</ele>
        <time>2020-02-23T12:45:40Z</time>
      </trkpt>
      <trkpt lat="39.0800000" lon="1.5607420">
        <ele>46.0</ele>
        <time>2020-02-23T12:45:41Z</time>
      </trkpt>
      <trkpt lat="39.0799940" lon="1.5607430">
        <ele>46.0</ele>
        <time>2020-02-23T12:45:42Z</time>
      </trkpt>
      <trkpt lat="39.0799890" lon="1.5607460">
        <ele>45.7</ele>
        <time>2020-02-23T12:45:43Z</time>
      </trkpt>
      <trkpt lat="39.0799850" lon="1.5607400">
        <ele>46.0</ele>
        <time>2020-02-23T12:45:44Z</time>
      </trkpt>
      <trkpt lat="39.0799800" lon="1.5607410">
        <ele>46.0</ele>
        <time>2020-02-23T12:45:45Z</time>
      </trkpt>
      <trkpt lat="39.0799760" lon="1.5607410">
        <ele>46.0</ele>
        <time>2020-02-23T12:45:46Z</time>
      </trkpt>
      <trkpt lat="39.0799740" lon="1.5607480">
        <ele>45.9</ele>
        <time>2020-02-23T12:45:47Z</time>
      </trkpt>
      <trkpt lat="39.0799720" lon="1.5607500">
        <ele>45.9</ele>
        <time>2020-02-23T12:45:48Z</time>
      </trkpt>
      <trkpt lat="39.0799690" lon="1.5607490">
        <ele>45.9</ele>
        <time>2020-02-23T12:45:49Z</time>
      </trkpt>
      <trkpt lat="39.0799680" lon="1.5607470">
        <ele>45.9</ele>
        <time>2020-02-23T12:45:50Z</time>
      </trkpt>
      <trkpt lat="39.0799650" lon="1.5607440">
        <ele>46.2</ele>
        <time>2020-02-23T12:45:51Z</time>
      </trkpt>
      <trkpt lat="39.0799620" lon="1.5607400">
        <ele>46.2</ele>
        <time>2020-02-23T12:45:52Z</time>
      </trkpt>
      <trkpt lat="39.0799580" lon="1.5607420">
        <ele>46.2</ele>
        <time>2020-02-23T12:45:53Z</time>
      </trkpt>
      <trkpt lat="39.0799560" lon="1.5607460">
        <ele>45.9</ele>
        <time>2020-02-23T12:45:54Z</time>
      </trkpt>
      <trkpt lat="39.0799530" lon="1.5607500">
        <ele>45.9</ele>
        <time>2020-02-23T12:45:55Z</time>
      </trkpt>
      <trkpt lat="39.0799480" lon="1.5607740">
        <ele>45.9</ele>
        <time>2020-02-23T12:45:56Z</time>
      </trkpt>
      <trkpt lat="39.0799430" lon="1.5607840">
        <ele>45.9</ele>
        <time>2020-02-23T12:45:57Z</time>
      </trkpt>
      <trkpt lat="39.0799350" lon="1.5607990">
        <ele>45.8</ele>
        <time>2020-02-23T12:45:58Z</time>
      </trkpt>
      <trkpt lat="39.0799260" lon="1.5608100">
        <ele>45.8</ele>
        <time>2020-02-23T12:45:59Z</time>
      </trkpt>
      <trkpt lat="39.0799090" lon="1.5608330">
        <ele>45.5</ele>
        <time>2020-02-23T12:46:00Z</time>
      </trkpt>
      <trkpt lat="39.0799040" lon="1.5608380">
        <ele>45.7</ele>
        <time>2020-02-23T12:46:01Z</time>
      </trkpt>
      <trkpt lat="39.0799000" lon="1.5608440">
        <ele>45.7</ele>
        <time>2020-02-23T12:46:02Z</time>
      </trkpt>
      <trkpt lat="39.0799010" lon="1.5608500">
        <ele>45.7</ele>
        <time>2020-02-23T12:46:03Z</time>
      </trkpt>
      <trkpt lat="39.0799020" lon="1.5608480">
        <ele>45.7</ele>
        <time>2020-02-23T12:46:04Z</time>
      </trkpt>
      <trkpt lat="39.0798970" lon="1.5608530">
        <ele>45.7</ele>
        <time>2020-02-23T12:46:05Z</time>
      </trkpt>
      <trkpt lat="39.0798940" lon="1.5608590">
        <ele>45.7</ele>
        <time>2020-02-23T12:46:06Z</time>
      </trkpt>
      <trkpt lat="39.0798890" lon="1.5608660">
        <ele>45.7</ele>
        <time>2020-02-23T12:46:07Z</time>
      </trkpt>
      <trkpt lat="39.0798890" lon="1.5608690">
        <ele>45.7</ele>
        <time>2020-02-23T12:46:08Z</time>
      </trkpt>
      <trkpt lat="39.0798870" lon="1.5608740">
        <ele>45.4</ele>
        <time>2020-02-23T12:46:09Z</time>
      </trkpt>
      <trkpt lat="39.0798820" lon="1.5608760">
        <ele>45.4</ele>
        <time>2020-02-23T12:46:10Z</time>
      </trkpt>
      <trkpt lat="39.0798780" lon="1.5608810">
        <ele>45.4</ele>
        <time>2020-02-23T12:46:11Z</time>
      </trkpt>
      <trkpt lat="39.0798700" lon="1.5608900">
        <ele>45.5</ele>
        <time>2020-02-23T12:46:12Z</time>
      </trkpt>
      <trkpt lat="39.0798610" lon="1.5609000">
        <ele>45.5</ele>
        <time>2020-02-23T12:46:13Z</time>
      </trkpt>
      <trkpt lat="39.0798470" lon="1.5609210">
        <ele>45.2</ele>
        <time>2020-02-23T12:46:14Z</time>
      </trkpt>
      <trkpt lat="39.0798390" lon="1.5609310">
        <ele>45.4</ele>
        <time>2020-02-23T12:46:15Z</time>
      </trkpt>
      <trkpt lat="39.0798300" lon="1.5609420">
        <ele>45.4</ele>
        <time>2020-02-23T12:46:16Z</time>
      </trkpt>
      <trkpt lat="39.0798090" lon="1.5609690">
        <ele>45.0</ele>
        <time>2020-02-23T12:46:17Z</time>
      </trkpt>
      <trkpt lat="39.0798020" lon="1.5609770">
        <ele>45.2</ele>
        <time>2020-02-23T12:46:18Z</time>
      </trkpt>
      <trkpt lat="39.0797920" lon="1.5609910">
        <ele>45.2</ele>
        <time>2020-02-23T12:46:19Z</time>
      </trkpt>
      <trkpt lat="39.0797850" lon="1.5609990">
        <ele>45.2</ele>
        <time>2020-02-23T12:46:20Z</time>
      </trkpt>
      <trkpt lat="39.0797830" lon="1.5610010">
        <ele>45.2</ele>
        <time>2020-02-23T12:46:21Z</time>
      </trkpt>
      <trkpt lat="39.0797830" lon="1.5610030">
        <ele>44.9</ele>
        <time>2020-02-23T12:46:22Z</time>
      </trkpt>
      <trkpt lat="39.0797830" lon="1.5610090">
        <ele>44.9</ele>
        <time>2020-02-23T12:46:23Z</time>
      </trkpt>
      <trkpt lat="39.0797880" lon="1.5610130">
        <ele>44.9</ele>
        <time>2020-02-23T12:46:24Z</time>
      </trkpt>
      <trkpt lat="39.0797900" lon="1.5610100">
        <ele>44.9</ele>
        <time>2020-02-23T12:46:25Z</time>
      </trkpt>
      <trkpt lat="39.0797950" lon="1.5610060">
        <ele>44.9</ele>
        <time>2020-02-23T12:46:26Z</time>
      </trkpt>
      <trkpt lat="39.0797990" lon="1.5610020">
        <ele>45.2</ele>
        <time>2020-02-23T12:46:27Z</time>
      </trkpt>
      <trkpt lat="39.0798030" lon="1.5610030">
        <ele>44.9</ele>
        <time>2020-02-23T12:46:28Z</time>
      </trkpt>
      <trkpt lat="39.0798080" lon="1.5609960">
        <ele>45.0</ele>
        <time>2020-02-23T12:46:29Z</time>
      </trkpt>
      <trkpt lat="39.0798110" lon="1.5609910">
        <ele>45.0</ele>
        <time>2020-02-23T12:46:30Z</time>
      </trkpt>
      <trkpt lat="39.0798390" lon="1.5610010">
        <ele>45.0</ele>
        <time>2020-02-23T12:46:31Z</time>
      </trkpt>
      <trkpt lat="39.0798660" lon="1.5610190">
        <ele>44.5</ele>
        <time>2020-02-23T12:46:32Z</time>
      </trkpt>
      <trkpt lat="39.0798930" lon="1.5610370">
        <ele>44.4</ele>
        <time>2020-02-23T12:46:33Z</time>
      </trkpt>
      <trkpt lat="39.0799210" lon="1.5610540">
        <ele>44.0</ele>
        <time>2020-02-23T12:46:34Z</time>
      </trkpt>
      <trkpt lat="39.0799480" lon="1.5610720">
        <ele>43.9</ele>
        <time>2020-02-23T12:49:43Z</time>
      </trkpt>
      <trkpt lat="39.0799750" lon="1.5610900">
        <ele>43.6</ele>
        <time>2020-02-23T12:49:44Z</time>
      </trkpt>
      <trkpt lat="39.0800020" lon="1.5611080">
        <ele>43.6</ele>
        <time>2020-02-23T12:49:45Z</time>
      </trkpt>
      <trkpt lat="39.0800290" lon="1.5611260">
        <ele>43.6</ele>
        <time>2020-02-23T12:49:46Z</time>
      </trkpt>
      <trkpt lat="39.0800260" lon="1.5611430">
        <ele>43.3</ele>
        <time>2020-02-23T12:49:47Z</time>
      </trkpt>
      <trkpt lat="39.0800270" lon="1.5611620">
        <ele>43.3</ele>
        <time>2020-02-23T12:49:48Z</time>
      </trkpt>
      <trkpt lat="39.0800290" lon="1.5611770">
        <ele>43.1</ele>
        <time>2020-02-23T12:49:49Z</time>
      </trkpt>
      <trkpt lat="39.0800280" lon="1.5611830">
        <ele>43.1</ele>
        <time>2020-02-23T12:49:50Z</time>
      </trkpt>
      <trkpt lat="39.0800280" lon="1.5611970">
        <ele>43.1</ele>
        <time>2020-02-23T12:49:51Z</time>
      </trkpt>
      <trkpt lat="39.0800380" lon="1.5612250">
        <ele>42.9</ele>
        <time>2020-02-23T12:49:52Z</time>
      </trkpt>
      <trkpt lat="39.0800400" lon="1.5612360">
        <ele>42.9</ele>
        <time>2020-02-23T12:49:53Z</time>
      </trkpt>
      <trkpt lat="39.0800350" lon="1.5612390">
        <ele>42.9</ele>
        <time>2020-02-23T12:49:54Z</time>
      </trkpt>
      <trkpt lat="39.0800320" lon="1.5612330">
        <ele>42.9</ele>
        <time>2020-02-23T12:49:55Z</time>
      </trkpt>
      <trkpt lat="39.0800300" lon="1.5612280">
        <ele>42.9</ele>
        <time>2020-02-23T12:49:56Z</time>
      </trkpt>
      <trkpt lat="39.0800270" lon="1.5612220">
        <ele>42.9</ele>
        <time>2020-02-23T12:49:57Z</time>
      </trkpt>
      <trkpt lat="39.0800250" lon="1.5612170">
        <ele>43.1</ele>
        <time>2020-02-23T12:49:58Z</time>
      </trkpt>
      <trkpt lat="39.0800220" lon="1.5612120">
        <ele>43.1</ele>
        <time>2020-02-23T12:49:59Z</time>
      </trkpt>
      <trkpt lat="39.0800200" lon="1.5612060">
        <ele>43.1</ele>
        <time>2020-02-23T12:50:00Z</time>
      </trkpt>
      <trkpt lat="39.0800170" lon="1.5612010">
        <ele>43.1</ele>
        <time>2020-02-23T12:50:01Z</time>
      </trkpt>
      <trkpt lat="39.0800150" lon="1.5611950">
        <ele>43.1</ele>
        <time>2020-02-23T12:50:02Z</time>
      </trkpt>
      <trkpt lat="39.0800120" lon="1.5611900">
        <ele>43.1</ele>
        <time>2020-02-23T12:50:03Z</time>
      </trkpt>
      <trkpt lat="39.0800100" lon="1.5611840">
        <ele>43.1</ele>
        <time>2020-02-23T12:50:04Z</time>
      </trkpt>
      <trkpt lat="39.0800070" lon="1.5611790">
        <ele>43.1</ele>
        <time>2020-02-23T12:50:05Z</time>
      </trkpt>
      <trkpt lat="39.0800050" lon="1.5611740">
        <ele>43.3</ele>
        <time>2020-02-23T12:50:07Z</time>
      </trkpt>
      <trkpt lat="39.0800020" lon="1.5611680">
        <ele>43.3</ele>
        <time>2020-02-23T12:50:24Z</time>
      </trkpt>
      <trkpt lat="39.0800000" lon="1.5611630">
        <ele>43.3</ele>
        <time>2020-02-23T12:50:25Z</time>
      </trkpt>
      <trkpt lat="39.0799970" lon="1.5611570">
        <ele>43.3</ele>
        <time>2020-02-23T12:50:26Z</time>
      </trkpt>
      <trkpt lat="39.0799950" lon="1.5611520">
        <ele>43.3</ele>
        <time>2020-02-23T12:50:27Z</time>
      </trkpt>
      <trkpt lat="39.0799900" lon="1.5611310">
        <ele>43.6</ele>
        <time>2020-02-23T12:50:28Z</time>
      </trkpt>
      <trkpt lat="39.0799900" lon="1.5611190">
        <ele>43.6</ele>
        <time>2020-02-23T12:50:29Z</time>
      </trkpt>
      <trkpt lat="39.0799880" lon="1.5611090">
        <ele>43.6</ele>
        <time>2020-02-23T12:50:30Z</time>
      </trkpt>
      <trkpt lat="39.0799880" lon="1.5610970">
        <ele>43.6</ele>
        <time>2020-02-23T12:50:31Z</time>
      </trkpt>
      <trkpt lat="39.0799890" lon="1.5610810">
        <ele>43.9</ele>
        <time>2020-02-23T12:50:32Z</time>
      </trkpt>
      <trkpt lat="39.0799850" lon="1.5610680">
        <ele>43.9</ele>
        <time>2020-02-23T12:50:33Z</time>
      </trkpt>
      <trkpt lat="39.0799890" lon="1.5610440">
        <ele>44.1</ele>
        <time>2020-02-23T12:50:34Z</time>
      </trkpt>
      <trkpt lat="39.0799900" lon="1.5610320">
        <ele>44.1</ele>
        <time>2020-02-23T12:50:35Z</time>
      </trkpt>
      <trkpt lat="39.0799920" lon="1.5610210">
        <ele>44.1</ele>
        <time>2020-02-23T12:50:36Z</time>
      </trkpt>
      <trkpt lat="39.0799930" lon="1.5610010">
        <ele>44.4</ele>
        <time>2020-02-23T12:50:37Z</time>
      </trkpt>
      <trkpt lat="39.0799940" lon="1.5609760">
        <ele>44.4</ele>
        <time>2020-02-23T12:50:38Z</time>
      </trkpt>
      <trkpt lat="39.0799920" lon="1.5609610">
        <ele>44.4</ele>
        <time>2020-02-23T12:50:39Z</time>
      </trkpt>
      <trkpt lat="39.0799900" lon="1.5609560">
        <ele>44.7</ele>
        <time>2020-02-23T12:50:40Z</time>
      </trkpt>
      <trkpt lat="39.0799960" lon="1.5609380">
        <ele>44.7</ele>
        <time>2020-02-23T12:50:41Z</time>
      </trkpt>
      <trkpt lat="39.0800080" lon="1.5609250">
        <ele>44.6</ele>
        <time>2020-02-23T12:50:42Z</time>
      </trkpt>
      <trkpt lat="39.0800180" lon="1.5609120">
        <ele>44.9</ele>
        <time>2020-02-23T12:50:43Z</time>
      </trkpt>
      <trkpt lat="39.0800260" lon="1.5608990">
        <ele>44.9</ele>
        <time>2020-02-23T12:50:44Z</time>
      </trkpt>
      <trkpt lat="39.0800350" lon="1.5608780">
        <ele>44.9</ele>
        <time>2020-02-23T12:50:45Z</time>
      </trkpt>
      <trkpt lat="39.0800430" lon="1.5608620">
        <ele>45.0</ele>
        <time>2020-02-23T12:50:46Z</time>
      </trkpt>
      <trkpt lat="39.0800500" lon="1.5608470">
        <ele>45.0</ele>
        <time>2020-02-23T12:50:47Z</time>
      </trkpt>
      <trkpt lat="39.0800590" lon="1.5608300">
        <ele>45.2</ele>
        <time>2020-02-23T12:50:48Z</time>
      </trkpt>
      <trkpt lat="39.0800670" lon="1.5608180">
        <ele>45.2</ele>
        <time>2020-02-23T12:50:49Z</time>
      </trkpt>
      <trkpt lat="39.0800750" lon="1.5608020">
        <ele>45.1</ele>
        <time>2020-02-23T12:50:50Z</time>
      </trkpt>
      <trkpt lat="39.0800840" lon="1.5607840">
        <ele>45.4</ele>
        <time>2020-02-23T12:50:51Z</time>
      </trkpt>
      <trkpt lat="39.0800920" lon="1.5607660">
        <ele>45.4</ele>
        <time>2020-02-23T12:50:52Z</time>
      </trkpt>
      <trkpt lat="39.0801080" lon="1.5607340">
        <ele>45.5</ele>
        <time>2020-02-23T12:50:53Z</time>
      </trkpt>
      <trkpt lat="39.0801230" lon="1.5607110">
        <ele>45.5</ele>
        <time>2020-02-23T12:50:54Z</time>
      </trkpt>
      <trkpt lat="39.0801380" lon="1.5606910">
        <ele>45.7</ele>
        <time>2020-02-23T12:50:55Z</time>
      </trkpt>
      <trkpt lat="39.0801510" lon="1.5606660">
        <ele>45.6</ele>
        <time>2020-02-23T12:50:56Z</time>
      </trkpt>
      <trkpt lat="39.0801640" lon="1.5606410">
        <ele>45.8</ele>
        <time>2020-02-23T12:50:57Z</time>
      </trkpt>
      <trkpt lat="39.0801770" lon="1.5606160">
        <ele>46.0</ele>
        <time>2020-02-23T12:50:58Z</time>
      </trkpt>
      <trkpt lat="39.0801910" lon="1.5605910">
        <ele>46.0</ele>
        <time>2020-02-23T12:50:59Z</time>
      </trkpt>
      <trkpt lat="39.0796250" lon="1.5608000">
        <ele>48.0</ele>
        <time>2020-02-23T12:51:43Z</time>
      </trkpt>
      <trkpt lat="39.0796280" lon="1.5608440">
        <ele>47.7</ele>
        <time>2020-02-23T12:51:44Z</time>
      </trkpt>
      <trkpt lat="39.0796130" lon="1.5608850">
        <ele>47.3</ele>
        <time>2020-02-23T12:51:45Z</time>
      </trkpt>
      <trkpt lat="39.0796040" lon="1.5609050">
        <ele>47.6</ele>
        <time>2020-02-23T12:51:46Z</time>
      </trkpt>
      <trkpt lat="39.0796050" lon="1.5609240">
        <ele>47.3</ele>
        <time>2020-02-23T12:51:47Z</time>
      </trkpt>
      <trkpt lat="39.0796670" lon="1.5609470">
        <ele>46.7</ele>
        <time>2020-02-23T12:51:48Z</time>
      </trkpt>
      <trkpt lat="39.0797250" lon="1.5609380">
        <ele>46.1</ele>
        <time>2020-02-23T12:51:49Z</time>
      </trkpt>
      <trkpt lat="39.0799000" lon="1.5609260">
        <ele>45.1</ele>
        <time>2020-02-23T12:51:50Z</time>
      </trkpt>
      <trkpt lat="39.0799580" lon="1.5609360">
        <ele>44.7</ele>
        <time>2020-02-23T12:51:51Z</time>
      </trkpt>
      <trkpt lat="39.0799550" lon="1.5609770">
        <ele>44.5</ele>
        <time>2020-02-23T12:51:52Z</time>
      </trkpt>
      <trkpt lat="39.0799550" lon="1.5610000">
        <ele>44.4</ele>
        <time>2020-02-23T12:51:53Z</time>
      </trkpt>
      <trkpt lat="39.0799630" lon="1.5610150">
        <ele>44.3</ele>
        <time>2020-02-23T12:51:54Z</time>
      </trkpt>
      <trkpt lat="39.0799700" lon="1.5610420">
        <ele>44.2</ele>
        <time>2020-02-23T12:51:55Z</time>
      </trkpt>
      <trkpt lat="39.0799740" lon="1.5610600">
        <ele>44.1</ele>
        <time>2020-02-23T12:51:56Z</time>
      </trkpt>
      <trkpt lat="39.0799830" lon="1.5610840">
        <ele>44.0</ele>
        <time>2020-02-23T12:51:57Z</time>
      </trkpt>
      <trkpt lat="39.0799990" lon="1.5611170">
        <ele>43.8</ele>
        <time>2020-02-23T12:51:58Z</time>
      </trkpt>
      <trkpt lat="39.0800050" lon="1.5611400">
        <ele>43.8</ele>
        <time>2020-02-23T12:51:59Z</time>
      </trkpt>
      <trkpt lat="39.0800080" lon="1.5611500">
        <ele>43.7</ele>
        <time>2020-02-23T12:52:00Z</time>
      </trkpt>
      <trkpt lat="39.0800100" lon="1.5611570">
        <ele>43.7</ele>
        <time>2020-02-23T12:52:01Z</time>
      </trkpt>
      <trkpt lat="39.0800110" lon="1.5611630">
        <ele>43.7</ele>
        <time>2020-02-23T12:52:02Z</time>
      </trkpt>
      <trkpt lat="39.0800120" lon="1.5611660">
        <ele>43.6</ele>
        <time>2020-02-23T12:52:03Z</time>
      </trkpt>
      <trkpt lat="39.0800150" lon="1.5611750">
        <ele>43.6</ele>
        <time>2020-02-23T12:52:04Z</time>
      </trkpt>
      <trkpt lat="39.0800170" lon="1.5611750">
        <ele>43.6</ele>
        <time>2020-02-23T12:52:05Z</time>
      </trkpt>
      <trkpt lat="39.0800140" lon="1.5611840">
        <ele>43.6</ele>
        <time>2020-02-23T12:52:06Z</time>
      </trkpt>
      <trkpt lat="39.0800140" lon="1.5611850">
        <ele>43.6</ele>
        <time>2020-02-23T12:52:07Z</time>
      </trkpt>
      <trkpt lat="39.0800140" lon="1.5611850">
        <ele>43.6</ele>
        <time>2020-02-23T12:52:08Z</time>
      </trkpt>
      <trkpt lat="39.0800140" lon="1.5611850">
        <ele>43.6</ele>
        <time>2020-02-23T12:52:09Z</time>
      </trkpt>
      <trkpt lat="39.0800270" lon="1.5612370">
        <ele>43.4</ele>
        <time>2020-02-23T12:52:42Z</time>
      </trkpt>
      <trkpt lat="39.0800340" lon="1.5612480">
        <ele>43.3</ele>
        <time>2020-02-23T12:52:43Z</time>
      </trkpt>
      <trkpt lat="39.0800360" lon="1.5612520">
        <ele>43.3</ele>
        <time>2020-02-23T12:52:44Z</time>
      </trkpt>
      <trkpt lat="39.0800370" lon="1.5612520">
        <ele>43.3</ele>
        <time>2020-02-23T12:52:45Z</time>
      </trkpt>
      <trkpt lat="39.0800350" lon="1.5612490">
        <ele>43.3</ele>
        <time>2020-02-23T12:52:46Z</time>
      </trkpt>
      <trkpt lat="39.0800390" lon="1.5612490">
        <ele>43.2</ele>
        <time>2020-02-23T12:52:47Z</time>
      </trkpt>
      <trkpt lat="39.0800370" lon="1.5612460">
        <ele>43.2</ele>
        <time>2020-02-23T12:52:48Z</time>
      </trkpt>
      <trkpt lat="39.0800450" lon="1.5612450">
        <ele>43.2</ele>
        <time>2020-02-23T12:52:49Z</time>
      </trkpt>
      <trkpt lat="39.0800530" lon="1.5612590">
        <ele>43.2</ele>
        <time>2020-02-23T12:52:50Z</time>
      </trkpt>
      <trkpt lat="39.0800560" lon="1.5612660">
        <ele>43.1</ele>
        <time>2020-02-23T12:52:51Z</time>
      </trkpt>
      <trkpt lat="39.0800560" lon="1.5612600">
        <ele>43.1</ele>
        <time>2020-02-23T12:52:52Z</time>
      </trkpt>
      <trkpt lat="39.0800520" lon="1.5612520">
        <ele>43.1</ele>
        <time>2020-02-23T12:52:53Z</time>
      </trkpt>
      <trkpt lat="39.0800480" lon="1.5612480">
        <ele>43.1</ele>
        <time>2020-02-23T12:52:54Z</time>
      </trkpt>
      <trkpt lat="39.0800480" lon="1.5612490">
        <ele>43.1</ele>
        <time>2020-02-23T12:52:55Z</time>
      </trkpt>
      <trkpt lat="39.0800490" lon="1.5612430">
        <ele>43.0</ele>
        <time>2020-02-23T12:52:56Z</time>
      </trkpt>
      <trkpt lat="39.0800480" lon="1.5612410">
        <ele>43.0</ele>
        <time>2020-02-23T12:52:57Z</time>
      </trkpt>
      <trkpt lat="39.0800420" lon="1.5612400">
        <ele>43.0</ele>
        <time>2020-02-23T12:52:58Z</time>
      </trkpt>
      <trkpt lat="39.0800410" lon="1.5612400">
        <ele>43.0</ele>
        <time>2020-02-23T12:52:59Z</time>
      </trkpt>
      <trkpt lat="39.0800410" lon="1.5612400">
        <ele>43.0</ele>
        <time>2020-02-23T12:53:00Z</time>
      </trkpt>
      <trkpt lat="39.0800650" lon="1.5612070">
        <ele>42.9</ele>
        <time>2020-02-23T12:53:13Z</time>
      </trkpt>
      <trkpt lat="39.0800700" lon="1.5612080">
        <ele>42.8</ele>
        <time>2020-02-23T12:53:14Z</time>
      </trkpt>
      <trkpt lat="39.0800710" lon="1.5612070">
        <ele>42.8</ele>
        <time>2020-02-23T12:53:15Z</time>
      </trkpt>
      <trkpt lat="39.0800740" lon="1.5612210">
        <ele>42.8</ele>
        <time>2020-02-23T12:53:16Z</time>
      </trkpt>
      <trkpt lat="39.0800670" lon="1.5612270">
        <ele>42.8</ele>
        <time>2020-02-23T12:53:17Z</time>
      </trkpt>
      <trkpt lat="39.0800740" lon="1.5612310">
        <ele>42.7</ele>
        <time>2020-02-23T12:53:18Z</time>
      </trkpt>
      <trkpt lat="39.0800720" lon="1.5612240">
        <ele>42.7</ele>
        <time>2020-02-23T12:53:19Z</time>
      </trkpt>
      <trkpt lat="39.0800720" lon="1.5612290">
        <ele>42.7</ele>
        <time>2020-02-23T12:53:20Z</time>
      </trkpt>
      <trkpt lat="39.0800720" lon="1.5612280">
        <ele>42.7</ele>
        <time>2020-02-23T12:53:21Z</time>
      </trkpt>
      <trkpt lat="39.0800720" lon="1.5612280">
        <ele>42.7</ele>
        <time>2020-02-23T12:53:22Z</time>
      </trkpt>
      <trkpt lat="39.0800710" lon="1.5612260">
        <ele>42.7</ele>
        <time>2020-02-23T12:53:23Z</time>
      </trkpt>
      <trkpt lat="39.0800640" lon="1.5612280">
        <ele>42.7</ele>
        <time>2020-02-23T12:53:24Z</time>
      </trkpt>
      <trkpt lat="39.0800160" lon="1.5611920">
        <ele>42.5</ele>
        <time>2020-02-23T12:54:06Z</time>
      </trkpt>
      <trkpt lat="39.0800130" lon="1.5611800">
        <ele>42.5</ele>
        <time>2020-02-23T12:54:07Z</time>
      </trkpt>
      <trkpt lat="39.0800070" lon="1.5611750">
        <ele>42.5</ele>
        <time>2020-02-23T12:54:08Z</time>
      </trkpt>
      <trkpt lat="39.0800020" lon="1.5611640">
        <ele>42.4</ele>
        <time>2020-02-23T12:54:09Z</time>
      </trkpt>
      <trkpt lat="39.0799990" lon="1.5611550">
        <ele>42.4</ele>
        <time>2020-02-23T12:54:10Z</time>
      </trkpt>
      <trkpt lat="39.0799960" lon="1.5611450">
        <ele>42.4</ele>
        <time>2020-02-23T12:54:11Z</time>
      </trkpt>
      <trkpt lat="39.0799920" lon="1.5611400">
        <ele>42.4</ele>
        <time>2020-02-23T12:54:12Z</time>
      </trkpt>
      <trkpt lat="39.0799940" lon="1.5611340">
        <ele>42.4</ele>
        <time>2020-02-23T12:54:13Z</time>
      </trkpt>
      <trkpt lat="39.0799950" lon="1.5611240">
        <ele>42.4</ele>
        <time>2020-02-23T12:54:14Z</time>
      </trkpt>
      <trkpt lat="39.0799910" lon="1.5611120">
        <ele>42.3</ele>
        <time>2020-02-23T12:54:15Z</time>
      </trkpt>
      <trkpt lat="39.0799940" lon="1.5611050">
        <ele>42.3</ele>
        <time>2020-02-23T12:54:16Z</time>
      </trkpt>
      <trkpt lat="39.0799890" lon="1.5610980">
        <ele>42.3</ele>
        <time>2020-02-23T12:54:17Z</time>
      </trkpt>
      <trkpt lat="39.0799890" lon="1.5610870">
        <ele>42.3</ele>
        <time>2020-02-23T12:54:18Z</time>
      </trkpt>
      <trkpt lat="39.0799810" lon="1.5610860">
        <ele>42.3</ele>
        <time>2020-02-23T12:54:19Z</time>
      </trkpt>
      <trkpt lat="39.0799730" lon="1.5610890">
        <ele>42.3</ele>
        <time>2020-02-23T12:54:20Z</time>
      </trkpt>
      <trkpt lat="39.0799680" lon="1.5610950">
        <ele>42.3</ele>
        <time>2020-02-23T12:54:21Z</time>
      </trkpt>
      <trkpt lat="39.0799610" lon="1.5610970">
        <ele>42.2</ele>
        <time>2020-02-23T12:54:22Z</time>
      </trkpt>
      <trkpt lat="39.0799510" lon="1.5610990">
        <ele>42.2</ele>
        <time>2020-02-23T12:54:23Z</time>
      </trkpt>
      <trkpt lat="39.0799460" lon="1.5611000">
        <ele>42.2</ele>
        <time>2020-02-23T12:54:24Z</time>
      </trkpt>
      <trkpt lat="39.0799410" lon="1.5611020">
        <ele>42.2</ele>
        <time>2020-02-23T12:54:25Z</time>
      </trkpt>
      <trkpt lat="39.0799360" lon="1.5611040">
        <ele>42.2</ele>
        <time>2020-02-23T12:54:26Z</time>
      </trkpt>
      <trkpt lat="39.0799310" lon="1.5611060">
        <ele>42.2</ele>
        <time>2020-02-23T12:54:27Z</time>
      </trkpt>
      <trkpt lat="39.0799260" lon="1.5611070">
        <ele>42.2</ele>
        <time>2020-02-23T12:54:28Z</time>
      </trkpt>
      <trkpt lat="39.0799210" lon="1.5611090">
        <ele>42.2</ele>
        <time>2020-02-23T12:54:29Z</time>
      </trkpt>
      <trkpt lat="39.0799060" lon="1.5611140">
        <ele>42.2</ele>
        <time>2020-02-23T12:54:30Z</time>
      </trkpt>
      <trkpt lat="39.0798920" lon="1.5611220">
        <ele>42.1</ele>
        <time>2020-02-23T12:54:31Z</time>
      </trkpt>
      <trkpt lat="39.0798940" lon="1.5611410">
        <ele>42.1</ele>
        <time>2020-02-23T12:54:32Z</time>
      </trkpt>
      <trkpt lat="39.0799000" lon="1.5611620">
        <ele>42.1</ele>
        <time>2020-02-23T12:54:33Z</time>
      </trkpt>
      <trkpt lat="39.0799060" lon="1.5611830">
        <ele>42.1</ele>
        <time>2020-02-23T12:54:34Z</time>
      </trkpt>
      <trkpt lat="39.0799010" lon="1.5612000">
        <ele>42.1</ele>
        <time>2020-02-23T12:54:35Z</time>
      </trkpt>
      <trkpt lat="39.0799020" lon="1.5612050">
        <ele>42.1</ele>
        <time>2020-02-23T12:54:36Z</time>
      </trkpt>
      <trkpt lat="39.0799030" lon="1.5612100">
        <ele>42.1</ele>
        <time>2020-02-23T12:54:37Z</time>
      </trkpt>
      <trkpt lat="39.0799030" lon="1.5612160">
        <ele>42.1</ele>
        <time>2020-02-23T12:54:38Z</time>
      </trkpt>
      <trkpt lat="39.0799040" lon="1.5612210">
        <ele>42.1</ele>
        <time>2020-02-23T12:54:39Z</time>
      </trkpt>
      <trkpt lat="39.0799050" lon="1.5612260">
        <ele>42.1</ele>
        <time>2020-02-23T12:54:40Z</time>
      </trkpt>
      <trkpt lat="39.0799060" lon="1.5612310">
        <ele>42.1</ele>
        <time>2020-02-23T12:54:41Z</time>
      </trkpt>
      <trkpt lat="39.0799170" lon="1.5612750">
        <ele>42.1</ele>
        <time>2020-02-23T12:54:42Z</time>
      </trkpt>
      <trkpt lat="39.0799200" lon="1.5612890">
        <ele>42.1</ele>
        <time>2020-02-23T12:54:43Z</time>
      </trkpt>
      <trkpt lat="39.0799200" lon="1.5613010">
        <ele>42.1</ele>
        <time>2020-02-23T12:54:44Z</time>
      </trkpt>
      <trkpt lat="39.0799210" lon="1.5613010">
        <ele>42.1</ele>
        <time>2020-02-23T12:54:45Z</time>
      </trkpt>
      <trkpt lat="39.0799200" lon="1.5612960">
        <ele>42.1</ele>
        <time>2020-02-23T12:54:46Z</time>
      </trkpt>
      <trkpt lat="39.0799200" lon="1.5612960">
        <ele>42.1</ele>
        <time>2020-02-23T12:54:47Z</time>
      </trkpt>
      <trkpt lat="39.0799200" lon="1.5612950">
        <ele>42.1</ele>
        <time>2020-02-23T12:54:48Z</time>
      </trkpt>
      <trkpt lat="39.0799200" lon="1.5612960">
        <ele>42.1</ele>
        <time>2020-02-23T12:54:49Z</time>
      </trkpt>
      <trkpt lat="39.0799180" lon="1.5613020">
        <ele>42.1</ele>
        <time>2020-02-23T12:54:50Z</time>
      </trkpt>
      <trkpt lat="39.0799280" lon="1.5613230">
        <ele>42.1</ele>
        <time>2020-02-23T12:54:51Z</time>
      </trkpt>
      <trkpt lat="39.0799540" lon="1.5613560">
        <ele>42.1</ele>
        <time>2020-02-23T12:54:52Z</time>
      </trkpt>
      <trkpt lat="39.0799620" lon="1.5613700">
        <ele>42.1</ele>
        <time>2020-02-23T12:54:53Z</time>
      </trkpt>
      <trkpt lat="39.0799900" lon="1.5614190">
        <ele>42.1</ele>
        <time>2020-02-23T12:54:54Z</time>
      </trkpt>
      <trkpt lat="39.0800210" lon="1.5614710">
        <ele>42.2</ele>
        <time>2020-02-23T12:54:55Z</time>
      </trkpt>
      <trkpt lat="39.0800380" lon="1.5615340">
        <ele>42.2</ele>
        <time>2020-02-23T12:54:56Z</time>
      </trkpt>
      <trkpt lat="39.0800620" lon="1.5616040">
        <ele>42.4</ele>
        <time>2020-02-23T12:54:57Z</time>
      </trkpt>
      <trkpt lat="39.0800850" lon="1.5616780">
        <ele>42.5</ele>
        <time>2020-02-23T12:54:58Z</time>
      </trkpt>
      <trkpt lat="39.0801040" lon="1.5617480">
        <ele>42.7</ele>
        <time>2020-02-23T12:54:59Z</time>
      </trkpt>
      <trkpt lat="39.0801260" lon="1.5618210">
        <ele>43.0</ele>
        <time>2020-02-23T12:55:00Z</time>
      </trkpt>
      <trkpt lat="39.0801470" lon="1.5618970">
        <ele>43.3</ele>
        <time>2020-02-23T12:55:01Z</time>
      </trkpt>
      <trkpt lat="39.0801730" lon="1.5619790">
        <ele>43.7</ele>
        <time>2020-02-23T12:55:02Z</time>
      </trkpt>
      <trkpt lat="39.0801990" lon="1.5620710">
        <ele>44.2</ele>
        <time>2020-02-23T12:55:03Z</time>
      </trkpt>
      <trkpt lat="39.0802220" lon="1.5621460">
        <ele>44.7</ele>
        <time>2020-02-23T12:55:04Z</time>
      </trkpt>
      <trkpt lat="39.0802390" lon="1.5621900">
        <ele>45.0</ele>
        <time>2020-02-23T12:55:05Z</time>
      </trkpt>
      <trkpt lat="39.0802630" lon="1.5622220">
        <ele>45.3</ele>
        <time>2020-02-23T12:55:06Z</time>
      </trkpt>
      <trkpt lat="39.0802870" lon="1.5621950">
        <ele>45.6</ele>
        <time>2020-02-23T12:55:07Z</time>
      </trkpt>
      <trkpt lat="39.0803030" lon="1.5621430">
        <ele>46.1</ele>
        <time>2020-02-23T12:55:08Z</time>
      </trkpt>
      <trkpt lat="39.0803160" lon="1.5620850">
        <ele>47.0</ele>
        <time>2020-02-23T12:55:09Z</time>
      </trkpt>
      <trkpt lat="39.0803240" lon="1.5620200">
        <ele>47.6</ele>
        <time>2020-02-23T12:55:10Z</time>
      </trkpt>
      <trkpt lat="39.0803340" lon="1.5619660">
        <ele>48.1</ele>
        <time>2020-02-23T12:55:11Z</time>
      </trkpt>
      <trkpt lat="39.0803420" lon="1.5619030">
        <ele>48.7</ele>
        <time>2020-02-23T12:55:12Z</time>
      </trkpt>
      <trkpt lat="39.0803530" lon="1.5618230">
        <ele>49.3</ele>
        <time>2020-02-23T12:55:13Z</time>
      </trkpt>
      <trkpt lat="39.0803840" lon="1.5617400">
        <ele>49.9</ele>
        <time>2020-02-23T12:55:14Z</time>
      </trkpt>
      <trkpt lat="39.0804040" lon="1.5617010">
        <ele>50.2</ele>
        <time>2020-02-23T12:55:15Z</time>
      </trkpt>
      <trkpt lat="39.0804170" lon="1.5616380">
        <ele>50.4</ele>
        <time>2020-02-23T12:55:16Z</time>
      </trkpt>
      <trkpt lat="39.0804230" lon="1.5616030">
        <ele>50.6</ele>
        <time>2020-02-23T12:55:17Z</time>
      </trkpt>
      <trkpt lat="39.0804320" lon="1.5615660">
        <ele>50.8</ele>
        <time>2020-02-23T12:55:18Z</time>
      </trkpt>
      <trkpt lat="39.0804350" lon="1.5615550">
        <ele>50.8</ele>
        <time>2020-02-23T12:55:19Z</time>
      </trkpt>
      <trkpt lat="39.0804340" lon="1.5615430">
        <ele>50.9</ele>
        <time>2020-02-23T12:55:20Z</time>
      </trkpt>
      <trkpt lat="39.0804380" lon="1.5615180">
        <ele>51.0</ele>
        <time>2020-02-23T12:55:21Z</time>
      </trkpt>
      <trkpt lat="39.0804450" lon="1.5614700">
        <ele>51.2</ele>
        <time>2020-02-23T12:55:22Z</time>
      </trkpt>
      <trkpt lat="39.0804490" lon="1.5614270">
        <ele>51.4</ele>
        <time>2020-02-23T12:55:23Z</time>
      </trkpt>
      <trkpt lat="39.0804460" lon="1.5613910">
        <ele>51.6</ele>
        <time>2020-02-23T12:55:24Z</time>
      </trkpt>
      <trkpt lat="39.0804440" lon="1.5613530">
        <ele>51.8</ele>
        <time>2020-02-23T12:55:25Z</time>
      </trkpt>
      <trkpt lat="39.0804410" lon="1.5613090">
        <ele>52.0</ele>
        <time>2020-02-23T12:55:26Z</time>
      </trkpt>
      <trkpt lat="39.0804330" lon="1.5612750">
        <ele>52.2</ele>
        <time>2020-02-23T12:55:27Z</time>
      </trkpt>
      <trkpt lat="39.0804320" lon="1.5612300">
        <ele>52.4</ele>
        <time>2020-02-23T12:55:28Z</time>
      </trkpt>
      <trkpt lat="39.0804340" lon="1.5612160">
        <ele>52.5</ele>
        <time>2020-02-23T12:55:29Z</time>
      </trkpt>
      <trkpt lat="39.0804360" lon="1.5611770">
        <ele>52.7</ele>
        <time>2020-02-23T12:55:30Z</time>
      </trkpt>
      <trkpt lat="39.0804430" lon="1.5611300">
        <ele>52.9</ele>
        <time>2020-02-23T12:55:31Z</time>
      </trkpt>
      <trkpt lat="39.0804450" lon="1.5611150">
        <ele>52.9</ele>
        <time>2020-02-23T12:55:32Z</time>
      </trkpt>
      <trkpt lat="39.0804440" lon="1.5610710">
        <ele>53.1</ele>
        <time>2020-02-23T12:55:33Z</time>
      </trkpt>
      <trkpt lat="39.0804410" lon="1.5610520">
        <ele>53.2</ele>
        <time>2020-02-23T12:55:34Z</time>
      </trkpt>
      <trkpt lat="39.0804360" lon="1.5610120">
        <ele>53.3</ele>
        <time>2020-02-23T12:55:35Z</time>
      </trkpt>
      <trkpt lat="39.0804380" lon="1.5609660">
        <ele>53.5</ele>
        <time>2020-02-23T12:55:36Z</time>
      </trkpt>
      <trkpt lat="39.0804330" lon="1.5609140">
        <ele>53.6</ele>
        <time>2020-02-23T12:55:37Z</time>
      </trkpt>
      <trkpt lat="39.0804340" lon="1.5608740">
        <ele>53.7</ele>
        <time>2020-02-23T12:55:38Z</time>
      </trkpt>
      <trkpt lat="39.0804320" lon="1.5608270">
        <ele>53.8</ele>
        <time>2020-02-23T12:55:39Z</time>
      </trkpt>
      <trkpt lat="39.0804360" lon="1.5607850">
        <ele>53.9</ele>
        <time>2020-02-23T12:55:40Z</time>
      </trkpt>
      <trkpt lat="39.0804310" lon="1.5607440">
        <ele>54.0</ele>
        <time>2020-02-23T12:55:41Z</time>
      </trkpt>
      <trkpt lat="39.0804260" lon="1.5607010">
        <ele>54.1</ele>
        <time>2020-02-23T12:55:42Z</time>
      </trkpt>
      <trkpt lat="39.0804170" lon="1.5606610">
        <ele>54.2</ele>
        <time>2020-02-23T12:55:43Z</time>
      </trkpt>
      <trkpt lat="39.0804150" lon="1.5606040">
        <ele>54.3</ele>
        <time>2020-02-23T12:55:44Z</time>
      </trkpt>
      <trkpt lat="39.0804110" lon="1.5605800">
        <ele>54.3</ele>
        <time>2020-02-23T12:55:45Z</time>
      </trkpt>
      <trkpt lat="39.0804000" lon="1.5605330">
        <ele>54.4</ele>
        <time>2020-02-23T12:55:46Z</time>
      </trkpt>
      <trkpt lat="39.0803900" lon="1.5604850">
        <ele>54.5</ele>
        <time>2020-02-23T12:55:47Z</time>
      </trkpt>
      <trkpt lat="39.0803880" lon="1.5604420">
        <ele>54.6</ele>
        <time>2020-02-23T12:55:48Z</time>
      </trkpt>
      <trkpt lat="39.0803770" lon="1.5603980">
        <ele>54.7</ele>
        <time>2020-02-23T12:55:49Z</time>
      </trkpt>
      <trkpt lat="39.0803610" lon="1.5603640">
        <ele>54.8</ele>
        <time>2020-02-23T12:55:50Z</time>
      </trkpt>
      <trkpt lat="39.0803500" lon="1.5603310">
        <ele>54.8</ele>
        <time>2020-02-23T12:55:51Z</time>
      </trkpt>
      <trkpt lat="39.0803380" lon="1.5603000">
        <ele>54.9</ele>
        <time>2020-02-23T12:55:52Z</time>
      </trkpt>
      <trkpt lat="39.0803270" lon="1.5602600">
        <ele>55.0</ele>
        <time>2020-02-23T12:55:53Z</time>
      </trkpt>
      <trkpt lat="39.0803240" lon="1.5602220">
        <ele>55.1</ele>
        <time>2020-02-23T12:55:54Z</time>
      </trkpt>
      <trkpt lat="39.0803160" lon="1.5601830">
        <ele>55.2</ele>
        <time>2020-02-23T12:55:55Z</time>
      </trkpt>
      <trkpt lat="39.0803060" lon="1.5601310">
        <ele>55.3</ele>
        <time>2020-02-23T12:55:56Z</time>
      </trkpt>
      <trkpt lat="39.0803020" lon="1.5601130">
        <ele>55.4</ele>
        <time>2020-02-23T12:55:57Z</time>
      </trkpt>
      <trkpt lat="39.0802890" lon="1.5600740">
        <ele>55.5</ele>
        <time>2020-02-23T12:55:58Z</time>
      </trkpt>
      <trkpt lat="39.0802780" lon="1.5600240">
        <ele>55.6</ele>
        <time>2020-02-23T12:55:59Z</time>
      </trkpt>
      <trkpt lat="39.0802740" lon="1.5600070">
        <ele>55.7</ele>
        <time>2020-02-23T12:56:00Z</time>
      </trkpt>
      <trkpt lat="39.0802680" lon="1.5599640">
        <ele>55.8</ele>
        <time>2020-02-23T12:56:01Z</time>
      </trkpt>
      <trkpt lat="39.0802650" lon="1.5599530">
        <ele>55.9</ele>
        <time>2020-02-23T12:56:02Z</time>
      </trkpt>
      <trkpt lat="39.0802660" lon="1.5599160">
        <ele>56.0</ele>
        <time>2020-02-23T12:56:03Z</time>
      </trkpt>
      <trkpt lat="39.0802670" lon="1.5599030">
        <ele>56.0</ele>
        <time>2020-02-23T12:56:04Z</time>
      </trkpt>
      <trkpt lat="39.0802520" lon="1.5598590">
        <ele>56.2</ele>
        <time>2020-02-23T12:56:05Z</time>
      </trkpt>
      <trkpt lat="39.0802450" lon="1.5598440">
        <ele>56.2</ele>
        <time>2020-02-23T12:56:06Z</time>
      </trkpt>
      <trkpt lat="39.0802290" lon="1.5598110">
        <ele>56.4</ele>
        <time>2020-02-23T12:56:07Z</time>
      </trkpt>
      <trkpt lat="39.0802080" lon="1.5597700">
        <ele>56.5</ele>
        <time>2020-02-23T12:56:08Z</time>
      </trkpt>
      <trkpt lat="39.0801910" lon="1.5597340">
        <ele>56.7</ele>
        <time>2020-02-23T12:56:09Z</time>
      </trkpt>
      <trkpt lat="39.0801850" lon="1.5597230">
        <ele>56.8</ele>
        <time>2020-02-23T12:56:10Z</time>
      </trkpt>
      <trkpt lat="39.0801720" lon="1.5596860">
        <ele>56.9</ele>
        <time>2020-02-23T12:56:11Z</time>
      </trkpt>
      <trkpt lat="39.0801680" lon="1.5596750">
        <ele>57.0</ele>
        <time>2020-02-23T12:56:12Z</time>
      </trkpt>
      <trkpt lat="39.0801570" lon="1.5596370">
        <ele>57.2</ele>
        <time>2020-02-23T12:56:13Z</time>
      </trkpt>
      <trkpt lat="39.0801540" lon="1.5596230">
        <ele>57.2</ele>
        <time>2020-02-23T12:56:14Z</time>
      </trkpt>
      <trkpt lat="39.0801330" lon="1.5595860">
        <ele>57.5</ele>
        <time>2020-02-23T12:56:15Z</time>
      </trkpt>
      <trkpt lat="39.0801230" lon="1.5595760">
        <ele>57.6</ele>
        <time>2020-02-23T12:56:16Z</time>
      </trkpt>
      <trkpt lat="39.0800970" lon="1.5595430">
        <ele>57.8</ele>
        <time>2020-02-23T12:56:17Z</time>
      </trkpt>
      <trkpt lat="39.0800910" lon="1.5595320">
        <ele>57.8</ele>
        <time>2020-02-23T12:56:18Z</time>
      </trkpt>
      <trkpt lat="39.0800800" lon="1.5594960">
        <ele>58.0</ele>
        <time>2020-02-23T12:56:19Z</time>
      </trkpt>
      <trkpt lat="39.0800480" lon="1.5594300">
        <ele>58.4</ele>
        <time>2020-02-23T12:56:20Z</time>
      </trkpt>
      <trkpt lat="39.0800180" lon="1.5593560">
        <ele>58.7</ele>
        <time>2020-02-23T12:56:21Z</time>
      </trkpt>
      <trkpt lat="39.0799870" lon="1.5593020">
        <ele>58.9</ele>
        <time>2020-02-23T12:56:22Z</time>
      </trkpt>
      <trkpt lat="39.0799500" lon="1.5592540">
        <ele>59.3</ele>
        <time>2020-02-23T12:56:23Z</time>
      </trkpt>
      <trkpt lat="39.0799060" lon="1.5592160">
        <ele>59.6</ele>
        <time>2020-02-23T12:56:24Z</time>
      </trkpt>
      <trkpt lat="39.0798730" lon="1.5591830">
        <ele>59.9</ele>
        <time>2020-02-23T12:56:25Z</time>
      </trkpt>
      <trkpt lat="39.0798240" lon="1.5591580">
        <ele>60.1</ele>
        <time>2020-02-23T12:56:26Z</time>
      </trkpt>
      <trkpt lat="39.0797930" lon="1.5591400">
        <ele>60.2</ele>
        <time>2020-02-23T12:56:27Z</time>
      </trkpt>
      <trkpt lat="39.0797670" lon="1.5591240">
        <ele>60.4</ele>
        <time>2020-02-23T12:56:28Z</time>
      </trkpt>
      <trkpt lat="39.0797270" lon="1.5591030">
        <ele>60.6</ele>
        <time>2020-02-23T12:56:29Z</time>
      </trkpt>
      <trkpt lat="39.0797120" lon="1.5590960">
        <ele>60.7</ele>
        <time>2020-02-23T12:56:30Z</time>
      </trkpt>
      <trkpt lat="39.0796820" lon="1.5591020">
        <ele>60.8</ele>
        <time>2020-02-23T12:56:31Z</time>
      </trkpt>
      <trkpt lat="39.0796480" lon="1.5591150">
        <ele>61.0</ele>
        <time>2020-02-23T12:56:32Z</time>
      </trkpt>
      <trkpt lat="39.0796140" lon="1.5591150">
        <ele>61.1</ele>
        <time>2020-02-23T12:56:33Z</time>
      </trkpt>
      <trkpt lat="39.0795760" lon="1.5591190">
        <ele>61.3</ele>
        <time>2020-02-23T12:56:34Z</time>
      </trkpt>
      <trkpt lat="39.0795440" lon="1.5591290">
        <ele>61.4</ele>
        <time>2020-02-23T12:56:35Z</time>
      </trkpt>
      <trkpt lat="39.0795140" lon="1.5591260">
        <ele>61.5</ele>
        <time>2020-02-23T12:56:36Z</time>
      </trkpt>
      <trkpt lat="39.0794820" lon="1.5591290">
        <ele>61.6</ele>
        <time>2020-02-23T12:56:37Z</time>
      </trkpt>
      <trkpt lat="39.0794490" lon="1.5591320">
        <ele>61.7</ele>
        <time>2020-02-23T12:56:38Z</time>
      </trkpt>
      <trkpt lat="39.0794110" lon="1.5591350">
        <ele>61.8</ele>
        <time>2020-02-23T12:56:39Z</time>
      </trkpt>
      <trkpt lat="39.0793970" lon="1.5591340">
        <ele>61.9</ele>
        <time>2020-02-23T12:56:40Z</time>
      </trkpt>
      <trkpt lat="39.0793700" lon="1.5591380">
        <ele>62.0</ele>
        <time>2020-02-23T12:56:41Z</time>
      </trkpt>
      <trkpt lat="39.0793420" lon="1.5591380">
        <ele>62.1</ele>
        <time>2020-02-23T12:56:42Z</time>
      </trkpt>
      <trkpt lat="39.0793100" lon="1.5591420">
        <ele>62.2</ele>
        <time>2020-02-23T12:56:43Z</time>
      </trkpt>
      <trkpt lat="39.0792800" lon="1.5591340">
        <ele>62.3</ele>
        <time>2020-02-23T12:56:44Z</time>
      </trkpt>
      <trkpt lat="39.0792670" lon="1.5591320">
        <ele>62.3</ele>
        <time>2020-02-23T12:56:45Z</time>
      </trkpt>
      <trkpt lat="39.0792370" lon="1.5591200">
        <ele>62.4</ele>
        <time>2020-02-23T12:56:46Z</time>
      </trkpt>
      <trkpt lat="39.0791990" lon="1.5591080">
        <ele>62.6</ele>
        <time>2020-02-23T12:56:47Z</time>
      </trkpt>
      <trkpt lat="39.0791850" lon="1.5591050">
        <ele>62.6</ele>
        <time>2020-02-23T12:56:48Z</time>
      </trkpt>
      <trkpt lat="39.0791570" lon="1.5591010">
        <ele>62.7</ele>
        <time>2020-02-23T12:56:49Z</time>
      </trkpt>
      <trkpt lat="39.0791300" lon="1.5590880">
        <ele>62.7</ele>
        <time>2020-02-23T12:56:50Z</time>
      </trkpt>
      <trkpt lat="39.0791210" lon="1.5590830">
        <ele>62.7</ele>
        <time>2020-02-23T12:56:51Z</time>
      </trkpt>
      <trkpt lat="39.0790900" lon="1.5590560">
        <ele>62.8</ele>
        <time>2020-02-23T12:56:52Z</time>
      </trkpt>
      <trkpt lat="39.0790790" lon="1.5590500">
        <ele>62.9</ele>
        <time>2020-02-23T12:56:53Z</time>
      </trkpt>
      <trkpt lat="39.0790480" lon="1.5590370">
        <ele>62.9</ele>
        <time>2020-02-23T12:56:54Z</time>
      </trkpt>
      <trkpt lat="39.0790370" lon="1.5590310">
        <ele>63.0</ele>
        <time>2020-02-23T12:56:55Z</time>
      </trkpt>
      <trkpt lat="39.0790020" lon="1.5590390">
        <ele>63.1</ele>
        <time>2020-02-23T12:56:56Z</time>
      </trkpt>
      <trkpt lat="39.0789740" lon="1.5590330">
        <ele>63.2</ele>
        <time>2020-02-23T12:56:57Z</time>
      </trkpt>
      <trkpt lat="39.0789480" lon="1.5590180">
        <ele>63.3</ele>
        <time>2020-02-23T12:56:58Z</time>
      </trkpt>
      <trkpt lat="39.0789370" lon="1.5590080">
        <ele>63.3</ele>
        <time>2020-02-23T12:56:59Z</time>
      </trkpt>
      <trkpt lat="39.0789080" lon="1.5589840">
        <ele>63.4</ele>
        <time>2020-02-23T12:57:00Z</time>
      </trkpt>
      <trkpt lat="39.0788990" lon="1.5589750">
        <ele>63.5</ele>
        <time>2020-02-23T12:57:01Z</time>
      </trkpt>
      <trkpt lat="39.0788760" lon="1.5589560">
        <ele>63.5</ele>
        <time>2020-02-23T12:57:02Z</time>
      </trkpt>
      <trkpt lat="39.0788480" lon="1.5589420">
        <ele>63.6</ele>
        <time>2020-02-23T12:57:03Z</time>
      </trkpt>
      <trkpt lat="39.0788230" lon="1.5589240">
        <ele>63.7</ele>
        <time>2020-02-23T12:57:04Z</time>
      </trkpt>
      <trkpt lat="39.0788150" lon="1.5589200">
        <ele>63.7</ele>
        <time>2020-02-23T12:57:05Z</time>
      </trkpt>
      <trkpt lat="39.0787860" lon="1.5588900">
        <ele>63.8</ele>
        <time>2020-02-23T12:57:06Z</time>
      </trkpt>
      <trkpt lat="39.0787740" lon="1.5588770">
        <ele>63.9</ele>
        <time>2020-02-23T12:57:07Z</time>
      </trkpt>
      <trkpt lat="39.0787530" lon="1.5588480">
        <ele>63.9</ele>
        <time>2020-02-23T12:57:08Z</time>
      </trkpt>
      <trkpt lat="39.0787440" lon="1.5588390">
        <ele>64.0</ele>
        <time>2020-02-23T12:57:09Z</time>
      </trkpt>
      <trkpt lat="39.0787220" lon="1.5588200">
        <ele>64.1</ele>
        <time>2020-02-23T12:57:10Z</time>
      </trkpt>
      <trkpt lat="39.0786980" lon="1.5587910">
        <ele>64.2</ele>
        <time>2020-02-23T12:57:11Z</time>
      </trkpt>
      <trkpt lat="39.0786930" lon="1.5587850">
        <ele>64.2</ele>
        <time>2020-02-23T12:57:12Z</time>
      </trkpt>
      <trkpt lat="39.0786750" lon="1.5587580">
        <ele>64.3</ele>
        <time>2020-02-23T12:57:13Z</time>
      </trkpt>
      <trkpt lat="39.0786680" lon="1.5587510">
        <ele>64.3</ele>
        <time>2020-02-23T12:57:14Z</time>
      </trkpt>
      <trkpt lat="39.0786450" lon="1.5587280">
        <ele>64.4</ele>
        <time>2020-02-23T12:57:15Z</time>
      </trkpt>
      <trkpt lat="39.0786350" lon="1.5587150">
        <ele>64.5</ele>
        <time>2020-02-23T12:57:16Z</time>
      </trkpt>
      <trkpt lat="39.0786220" lon="1.5586970">
        <ele>64.5</ele>
        <time>2020-02-23T12:57:17Z</time>
      </trkpt>
      <trkpt lat="39.0786020" lon="1.5586510">
        <ele>64.7</ele>
        <time>2020-02-23T12:57:18Z</time>
      </trkpt>
      <trkpt lat="39.0785970" lon="1.5586320">
        <ele>64.7</ele>
        <time>2020-02-23T12:57:19Z</time>
      </trkpt>
      <trkpt lat="39.0785930" lon="1.5585950">
        <ele>64.9</ele>
        <time>2020-02-23T12:57:20Z</time>
      </trkpt>
      <trkpt lat="39.0785740" lon="1.5585510">
        <ele>65.0</ele>
        <time>2020-02-23T12:57:21Z</time>
      </trkpt>
      <trkpt lat="39.0785700" lon="1.5585340">
        <ele>65.1</ele>
        <time>2020-02-23T12:57:22Z</time>
      </trkpt>
      <trkpt lat="39.0785610" lon="1.5584860">
        <ele>65.2</ele>
        <time>2020-02-23T12:57:23Z</time>
      </trkpt>
      <trkpt lat="39.0785560" lon="1.5584700">
        <ele>65.2</ele>
        <time>2020-02-23T12:57:24Z</time>
      </trkpt>
      <trkpt lat="39.0785460" lon="1.5584200">
        <ele>65.4</ele>
        <time>2020-02-23T12:57:25Z</time>
      </trkpt>
      <trkpt lat="39.0785410" lon="1.5584050">
        <ele>65.4</ele>
        <time>2020-02-23T12:57:26Z</time>
      </trkpt>
      <trkpt lat="39.0785230" lon="1.5583650">
        <ele>65.5</ele>
        <time>2020-02-23T12:57:27Z</time>
      </trkpt>
      <trkpt lat="39.0785180" lon="1.5583530">
        <ele>65.5</ele>
        <time>2020-02-23T12:57:28Z</time>
      </trkpt>
      <trkpt lat="39.0784980" lon="1.5583180">
        <ele>65.6</ele>
        <time>2020-02-23T12:57:29Z</time>
      </trkpt>
      <trkpt lat="39.0784920" lon="1.5583090">
        <ele>65.7</ele>
        <time>2020-02-23T12:57:30Z</time>
      </trkpt>
      <trkpt lat="39.0784810" lon="1.5582650">
        <ele>65.8</ele>
        <time>2020-02-23T12:57:31Z</time>
      </trkpt>
      <trkpt lat="39.0784790" lon="1.5582500">
        <ele>65.8</ele>
        <time>2020-02-23T12:57:32Z</time>
      </trkpt>
      <trkpt lat="39.0784720" lon="1.5582160">
        <ele>65.9</ele>
        <time>2020-02-23T12:57:33Z</time>
      </trkpt>
      <trkpt lat="39.0784620" lon="1.5581710">
        <ele>66.0</ele>
        <time>2020-02-23T12:57:34Z</time>
      </trkpt>
      <trkpt lat="39.0784550" lon="1.5581590">
        <ele>66.1</ele>
        <time>2020-02-23T12:57:35Z</time>
      </trkpt>
      <trkpt lat="39.0784520" lon="1.5581180">
        <ele>66.2</ele>
        <time>2020-02-23T12:57:36Z</time>
      </trkpt>
      <trkpt lat="39.0784530" lon="1.5581020">
        <ele>66.3</ele>
        <time>2020-02-23T12:57:37Z</time>
      </trkpt>
      <trkpt lat="39.0784650" lon="1.5580590">
        <ele>66.5</ele>
        <time>2020-02-23T12:57:38Z</time>
      </trkpt>
      <trkpt lat="39.0784680" lon="1.5580460">
        <ele>66.5</ele>
        <time>2020-02-23T12:57:39Z</time>
      </trkpt>
      <trkpt lat="39.0784740" lon="1.5580260">
        <ele>66.6</ele>
        <time>2020-02-23T12:57:40Z</time>
      </trkpt>
      <trkpt lat="39.0784870" lon="1.5580130">
        <ele>66.7</ele>
        <time>2020-02-23T12:57:41Z</time>
      </trkpt>
      <trkpt lat="39.0785010" lon="1.5580030">
        <ele>66.8</ele>
        <time>2020-02-23T12:57:42Z</time>
      </trkpt>
      <trkpt lat="39.0785140" lon="1.5579930">
        <ele>66.9</ele>
        <time>2020-02-23T12:57:43Z</time>
      </trkpt>
      <trkpt lat="39.0785300" lon="1.5579820">
        <ele>66.9</ele>
        <time>2020-02-23T12:57:44Z</time>
      </trkpt>
      <trkpt lat="39.0785470" lon="1.5579780">
        <ele>67.0</ele>
        <time>2020-02-23T12:57:45Z</time>
      </trkpt>
      <trkpt lat="39.0785640" lon="1.5579780">
        <ele>67.2</ele>
        <time>2020-02-23T12:57:46Z</time>
      </trkpt>
      <trkpt lat="39.0785800" lon="1.5579960">
        <ele>67.3</ele>
        <time>2020-02-23T12:57:47Z</time>
      </trkpt>
      <trkpt lat="39.0786040" lon="1.5580330">
        <ele>67.6</ele>
        <time>2020-02-23T12:57:48Z</time>
      </trkpt>
      <trkpt lat="39.0786100" lon="1.5580440">
        <ele>67.7</ele>
        <time>2020-02-23T12:57:49Z</time>
      </trkpt>
      <trkpt lat="39.0786340" lon="1.5580770">
        <ele>68.0</ele>
        <time>2020-02-23T12:57:50Z</time>
      </trkpt>
      <trkpt lat="39.0786430" lon="1.5580860">
        <ele>68.1</ele>
        <time>2020-02-23T12:57:51Z</time>
      </trkpt>
      <trkpt lat="39.0786620" lon="1.5581110">
        <ele>68.3</ele>
        <time>2020-02-23T12:57:52Z</time>
      </trkpt>
      <trkpt lat="39.0786970" lon="1.5581310">
        <ele>68.6</ele>
        <time>2020-02-23T12:57:53Z</time>
      </trkpt>
      <trkpt lat="39.0787080" lon="1.5581370">
        <ele>68.7</ele>
        <time>2020-02-23T12:57:54Z</time>
      </trkpt>
      <trkpt lat="39.0787350" lon="1.5581500">
        <ele>68.9</ele>
        <time>2020-02-23T12:57:55Z</time>
      </trkpt>
      <trkpt lat="39.0787420" lon="1.5581560">
        <ele>69.0</ele>
        <time>2020-02-23T12:57:56Z</time>
      </trkpt>
      <trkpt lat="39.0787680" lon="1.5581790">
        <ele>69.2</ele>
        <time>2020-02-23T12:57:57Z</time>
      </trkpt>
      <trkpt lat="39.0787760" lon="1.5581880">
        <ele>69.3</ele>
        <time>2020-02-23T12:57:58Z</time>
      </trkpt>
      <trkpt lat="39.0788070" lon="1.5582100">
        <ele>69.6</ele>
        <time>2020-02-23T12:57:59Z</time>
      </trkpt>
      <trkpt lat="39.0788150" lon="1.5582170">
        <ele>69.7</ele>
        <time>2020-02-23T12:58:00Z</time>
      </trkpt>
      <trkpt lat="39.0788400" lon="1.5582340">
        <ele>69.9</ele>
        <time>2020-02-23T12:58:01Z</time>
      </trkpt>
      <trkpt lat="39.0788490" lon="1.5582410">
        <ele>70.0</ele>
        <time>2020-02-23T12:58:02Z</time>
      </trkpt>
      <trkpt lat="39.0788780" lon="1.5582710">
        <ele>70.3</ele>
        <time>2020-02-23T12:58:03Z</time>
      </trkpt>
      <trkpt lat="39.0788890" lon="1.5582790">
        <ele>70.5</ele>
        <time>2020-02-23T12:58:04Z</time>
      </trkpt>
      <trkpt lat="39.0789210" lon="1.5582920">
        <ele>70.8</ele>
        <time>2020-02-23T12:58:05Z</time>
      </trkpt>
      <trkpt lat="39.0789290" lon="1.5582990">
        <ele>70.9</ele>
        <time>2020-02-23T12:58:06Z</time>
      </trkpt>
      <trkpt lat="39.0789550" lon="1.5583160">
        <ele>71.2</ele>
        <time>2020-02-23T12:58:07Z</time>
      </trkpt>
      <trkpt lat="39.0789640" lon="1.5583250">
        <ele>71.3</ele>
        <time>2020-02-23T12:58:08Z</time>
      </trkpt>
      <trkpt lat="39.0789890" lon="1.5583520">
        <ele>71.7</ele>
        <time>2020-02-23T12:58:09Z</time>
      </trkpt>
      <trkpt lat="39.0789960" lon="1.5583610">
        <ele>71.8</ele>
        <time>2020-02-23T12:58:10Z</time>
      </trkpt>
      <trkpt lat="39.0790190" lon="1.5583840">
        <ele>72.0</ele>
        <time>2020-02-23T12:58:11Z</time>
      </trkpt>
      <trkpt lat="39.0790290" lon="1.5583910">
        <ele>72.1</ele>
        <time>2020-02-23T12:58:12Z</time>
      </trkpt>
      <trkpt lat="39.0790540" lon="1.5584140">
        <ele>72.4</ele>
        <time>2020-02-23T12:58:13Z</time>
      </trkpt>
      <trkpt lat="39.0790600" lon="1.5584230">
        <ele>72.5</ele>
        <time>2020-02-23T12:58:14Z</time>
      </trkpt>
      <trkpt lat="39.0790900" lon="1.5584460">
        <ele>72.7</ele>
        <time>2020-02-23T12:58:15Z</time>
      </trkpt>
      <trkpt lat="39.0791060" lon="1.5584540">
        <ele>72.8</ele>
        <time>2020-02-23T12:58:16Z</time>
      </trkpt>
      <trkpt lat="39.0791240" lon="1.5584580">
        <ele>72.9</ele>
        <time>2020-02-23T12:58:17Z</time>
      </trkpt>
      <trkpt lat="39.0791420" lon="1.5584510">
        <ele>73.0</ele>
        <time>2020-02-23T12:58:18Z</time>
      </trkpt>
      <trkpt lat="39.0791680" lon="1.5584240">
        <ele>73.2</ele>
        <time>2020-02-23T12:58:19Z</time>
      </trkpt>
      <trkpt lat="39.0791770" lon="1.5584140">
        <ele>73.3</ele>
        <time>2020-02-23T12:58:20Z</time>
      </trkpt>
      <trkpt lat="39.0792010" lon="1.5583840">
        <ele>73.4</ele>
        <time>2020-02-23T12:58:21Z</time>
      </trkpt>
      <trkpt lat="39.0792050" lon="1.5583710">
        <ele>73.5</ele>
        <time>2020-02-23T12:58:22Z</time>
      </trkpt>
      <trkpt lat="39.0792140" lon="1.5583540">
        <ele>73.5</ele>
        <time>2020-02-23T12:58:23Z</time>
      </trkpt>
      <trkpt lat="39.0792240" lon="1.5583340">
        <ele>73.6</ele>
        <time>2020-02-23T12:58:24Z</time>
      </trkpt>
      <trkpt lat="39.0792130" lon="1.5582960">
        <ele>73.8</ele>
        <time>2020-02-23T12:58:25Z</time>
      </trkpt>
      <trkpt lat="39.0792080" lon="1.5582850">
        <ele>73.8</ele>
        <time>2020-02-23T12:58:26Z</time>
      </trkpt>
      <trkpt lat="39.0791950" lon="1.5582420">
        <ele>73.9</ele>
        <time>2020-02-23T12:58:27Z</time>
      </trkpt>
      <trkpt lat="39.0791870" lon="1.5582270">
        <ele>74.0</ele>
        <time>2020-02-23T12:58:28Z</time>
      </trkpt>
      <trkpt lat="39.0791720" lon="1.5581860">
        <ele>74.0</ele>
        <time>2020-02-23T12:58:29Z</time>
      </trkpt>
      <trkpt lat="39.0791660" lon="1.5581720">
        <ele>74.1</ele>
        <time>2020-02-23T12:58:30Z</time>
      </trkpt>
      <trkpt lat="39.0791530" lon="1.5581240">
        <ele>74.2</ele>
        <time>2020-02-23T12:58:31Z</time>
      </trkpt>
      <trkpt lat="39.0791480" lon="1.5581060">
        <ele>74.2</ele>
        <time>2020-02-23T12:58:32Z</time>
      </trkpt>
      <trkpt lat="39.0791400" lon="1.5580720">
        <ele>74.3</ele>
        <time>2020-02-23T12:58:33Z</time>
      </trkpt>
      <trkpt lat="39.0791340" lon="1.5580220">
        <ele>74.4</ele>
        <time>2020-02-23T12:58:34Z</time>
      </trkpt>
      <trkpt lat="39.0791320" lon="1.5580060">
        <ele>74.5</ele>
        <time>2020-02-23T12:58:35Z</time>
      </trkpt>
      <trkpt lat="39.0791230" lon="1.5579680">
        <ele>74.6</ele>
        <time>2020-02-23T12:58:36Z</time>
      </trkpt>
      <trkpt lat="39.0791060" lon="1.5579290">
        <ele>74.7</ele>
        <time>2020-02-23T12:58:37Z</time>
      </trkpt>
      <trkpt lat="39.0791000" lon="1.5579180">
        <ele>74.8</ele>
        <time>2020-02-23T12:58:38Z</time>
      </trkpt>
      <trkpt lat="39.0790920" lon="1.5578970">
        <ele>74.8</ele>
        <time>2020-02-23T12:58:39Z</time>
      </trkpt>
      <trkpt lat="39.0790810" lon="1.5578790">
        <ele>74.9</ele>
        <time>2020-02-23T12:58:40Z</time>
      </trkpt>
      <trkpt lat="39.0790610" lon="1.5578470">
        <ele>74.9</ele>
        <time>2020-02-23T12:58:41Z</time>
      </trkpt>
      <trkpt lat="39.0790550" lon="1.5578390">
        <ele>75.0</ele>
        <time>2020-02-23T12:58:42Z</time>
      </trkpt>
      <trkpt lat="39.0790330" lon="1.5577980">
        <ele>75.1</ele>
        <time>2020-02-23T12:58:43Z</time>
      </trkpt>
      <trkpt lat="39.0790250" lon="1.5577850">
        <ele>75.1</ele>
        <time>2020-02-23T12:58:44Z</time>
      </trkpt>
      <trkpt lat="39.0790100" lon="1.5577490">
        <ele>75.2</ele>
        <time>2020-02-23T12:58:45Z</time>
      </trkpt>
      <trkpt lat="39.0790040" lon="1.5577400">
        <ele>75.2</ele>
        <time>2020-02-23T12:58:46Z</time>
      </trkpt>
      <trkpt lat="39.0789920" lon="1.5577070">
        <ele>75.3</ele>
        <time>2020-02-23T12:58:47Z</time>
      </trkpt>
      <trkpt lat="39.0789900" lon="1.5576950">
        <ele>75.4</ele>
        <time>2020-02-23T12:58:48Z</time>
      </trkpt>
      <trkpt lat="39.0789930" lon="1.5576550">
        <ele>75.5</ele>
        <time>2020-02-23T12:58:49Z</time>
      </trkpt>
      <trkpt lat="39.0789960" lon="1.5576420">
        <ele>75.5</ele>
        <time>2020-02-23T12:58:50Z</time>
      </trkpt>
      <trkpt lat="39.0790180" lon="1.5576400">
        <ele>75.6</ele>
        <time>2020-02-23T12:58:51Z</time>
      </trkpt>
      <trkpt lat="39.0790270" lon="1.5576390">
        <ele>75.6</ele>
        <time>2020-02-23T12:58:52Z</time>
      </trkpt>
      <trkpt lat="39.0790350" lon="1.5576390">
        <ele>75.6</ele>
        <time>2020-02-23T12:58:53Z</time>
      </trkpt>
      <trkpt lat="39.0790480" lon="1.5576470">
        <ele>75.7</ele>
        <time>2020-02-23T12:58:54Z</time>
      </trkpt>
      <trkpt lat="39.0790650" lon="1.5576530">
        <ele>75.7</ele>
        <time>2020-02-23T12:58:55Z</time>
      </trkpt>
      <trkpt lat="39.0790950" lon="1.5576730">
        <ele>75.9</ele>
        <time>2020-02-23T12:58:56Z</time>
      </trkpt>
      <trkpt lat="39.0791050" lon="1.5576830">
        <ele>75.9</ele>
        <time>2020-02-23T12:58:57Z</time>
      </trkpt>
      <trkpt lat="39.0791320" lon="1.5577030">
        <ele>76.0</ele>
        <time>2020-02-23T12:58:58Z</time>
      </trkpt>
      <trkpt lat="39.0791650" lon="1.5577250">
        <ele>76.2</ele>
        <time>2020-02-23T12:58:59Z</time>
      </trkpt>
      <trkpt lat="39.0791940" lon="1.5577450">
        <ele>76.3</ele>
        <time>2020-02-23T12:59:00Z</time>
      </trkpt>
      <trkpt lat="39.0792250" lon="1.5577690">
        <ele>76.4</ele>
        <time>2020-02-23T12:59:01Z</time>
      </trkpt>
      <trkpt lat="39.0792380" lon="1.5577720">
        <ele>76.5</ele>
        <time>2020-02-23T12:59:02Z</time>
      </trkpt>
      <trkpt lat="39.0792710" lon="1.5577810">
        <ele>76.6</ele>
        <time>2020-02-23T12:59:03Z</time>
      </trkpt>
      <trkpt lat="39.0792830" lon="1.5577870">
        <ele>76.6</ele>
        <time>2020-02-23T12:59:04Z</time>
      </trkpt>
      <trkpt lat="39.0793120" lon="1.5578070">
        <ele>76.8</ele>
        <time>2020-02-23T12:59:05Z</time>
      </trkpt>
      <trkpt lat="39.0793420" lon="1.5578320">
        <ele>76.9</ele>
        <time>2020-02-23T12:59:06Z</time>
      </trkpt>
      <trkpt lat="39.0793510" lon="1.5578410">
        <ele>77.0</ele>
        <time>2020-02-23T12:59:07Z</time>
      </trkpt>
      <trkpt lat="39.0793760" lon="1.5578560">
        <ele>77.1</ele>
        <time>2020-02-23T12:59:08Z</time>
      </trkpt>
      <trkpt lat="39.0794050" lon="1.5578680">
        <ele>77.2</ele>
        <time>2020-02-23T12:59:09Z</time>
      </trkpt>
      <trkpt lat="39.0794160" lon="1.5578730">
        <ele>77.3</ele>
        <time>2020-02-23T12:59:10Z</time>
      </trkpt>
      <trkpt lat="39.0794410" lon="1.5578860">
        <ele>77.5</ele>
        <time>2020-02-23T12:59:11Z</time>
      </trkpt>
      <trkpt lat="39.0794730" lon="1.5579040">
        <ele>77.7</ele>
        <time>2020-02-23T12:59:12Z</time>
      </trkpt>
      <trkpt lat="39.0794820" lon="1.5579090">
        <ele>77.7</ele>
        <time>2020-02-23T12:59:13Z</time>
      </trkpt>
      <trkpt lat="39.0795110" lon="1.5579270">
        <ele>77.9</ele>
        <time>2020-02-23T12:59:14Z</time>
      </trkpt>
      <trkpt lat="39.0795210" lon="1.5579330">
        <ele>78.0</ele>
        <time>2020-02-23T12:59:15Z</time>
      </trkpt>
      <trkpt lat="39.0795600" lon="1.5579440">
        <ele>78.3</ele>
        <time>2020-02-23T12:59:16Z</time>
      </trkpt>
      <trkpt lat="39.0795730" lon="1.5579480">
        <ele>78.4</ele>
        <time>2020-02-23T12:59:17Z</time>
      </trkpt>
      <trkpt lat="39.0796010" lon="1.5579540">
        <ele>78.6</ele>
        <time>2020-02-23T12:59:18Z</time>
      </trkpt>
      <trkpt lat="39.0796290" lon="1.5579600">
        <ele>78.9</ele>
        <time>2020-02-23T12:59:19Z</time>
      </trkpt>
      <trkpt lat="39.0796550" lon="1.5579690">
        <ele>79.1</ele>
        <time>2020-02-23T12:59:20Z</time>
      </trkpt>
      <trkpt lat="39.0796920" lon="1.5579710">
        <ele>79.4</ele>
        <time>2020-02-23T12:59:21Z</time>
      </trkpt>
      <trkpt lat="39.0797040" lon="1.5579740">
        <ele>79.5</ele>
        <time>2020-02-23T12:59:22Z</time>
      </trkpt>
      <trkpt lat="39.0797170" lon="1.5579780">
        <ele>79.6</ele>
        <time>2020-02-23T12:59:23Z</time>
      </trkpt>
      <trkpt lat="39.0797350" lon="1.5579790">
        <ele>79.7</ele>
        <time>2020-02-23T12:59:24Z</time>
      </trkpt>
      <trkpt lat="39.0797670" lon="1.5579870">
        <ele>80.0</ele>
        <time>2020-02-23T12:59:25Z</time>
      </trkpt>
      <trkpt lat="39.0797810" lon="1.5579920">
        <ele>80.1</ele>
        <time>2020-02-23T12:59:26Z</time>
      </trkpt>
      <trkpt lat="39.0798080" lon="1.5579940">
        <ele>80.3</ele>
        <time>2020-02-23T12:59:27Z</time>
      </trkpt>
      <trkpt lat="39.0798390" lon="1.5579900">
        <ele>80.5</ele>
        <time>2020-02-23T12:59:28Z</time>
      </trkpt>
      <trkpt lat="39.0798690" lon="1.5579800">
        <ele>80.8</ele>
        <time>2020-02-23T12:59:29Z</time>
      </trkpt>
      <trkpt lat="39.0798960" lon="1.5579740">
        <ele>81.0</ele>
        <time>2020-02-23T12:59:30Z</time>
      </trkpt>
      <trkpt lat="39.0799310" lon="1.5579670">
        <ele>81.2</ele>
        <time>2020-02-23T12:59:31Z</time>
      </trkpt>
      <trkpt lat="39.0799440" lon="1.5579660">
        <ele>81.3</ele>
        <time>2020-02-23T12:59:32Z</time>
      </trkpt>
      <trkpt lat="39.0799710" lon="1.5579620">
        <ele>81.5</ele>
        <time>2020-02-23T12:59:33Z</time>
      </trkpt>
      <trkpt lat="39.0800120" lon="1.5579620">
        <ele>81.8</ele>
        <time>2020-02-23T12:59:34Z</time>
      </trkpt>
      <trkpt lat="39.0800290" lon="1.5579630">
        <ele>81.9</ele>
        <time>2020-02-23T12:59:35Z</time>
      </trkpt>
      <trkpt lat="39.0800570" lon="1.5579680">
        <ele>82.1</ele>
        <time>2020-02-23T12:59:36Z</time>
      </trkpt>
      <trkpt lat="39.0800860" lon="1.5579750">
        <ele>82.2</ele>
        <time>2020-02-23T12:59:37Z</time>
      </trkpt>
      <trkpt lat="39.0801200" lon="1.5579630">
        <ele>82.4</ele>
        <time>2020-02-23T12:59:38Z</time>
      </trkpt>
      <trkpt lat="39.0801280" lon="1.5579580">
        <ele>82.5</ele>
        <time>2020-02-23T12:59:39Z</time>
      </trkpt>
      <trkpt lat="39.0801660" lon="1.5579500">
        <ele>82.7</ele>
        <time>2020-02-23T12:59:40Z</time>
      </trkpt>
      <trkpt lat="39.0801810" lon="1.5579480">
        <ele>82.8</ele>
        <time>2020-02-23T12:59:41Z</time>
      </trkpt>
      <trkpt lat="39.0802150" lon="1.5579400">
        <ele>83.0</ele>
        <time>2020-02-23T12:59:42Z</time>
      </trkpt>
      <trkpt lat="39.0802270" lon="1.5579360">
        <ele>83.0</ele>
        <time>2020-02-23T12:59:43Z</time>
      </trkpt>
      <trkpt lat="39.0802620" lon="1.5579280">
        <ele>83.3</ele>
        <time>2020-02-23T12:59:44Z</time>
      </trkpt>
      <trkpt lat="39.0803030" lon="1.5579120">
        <ele>83.5</ele>
        <time>2020-02-23T12:59:45Z</time>
      </trkpt>
      <trkpt lat="39.0803380" lon="1.5578880">
        <ele>83.8</ele>
        <time>2020-02-23T12:59:46Z</time>
      </trkpt>
      <trkpt lat="39.0803660" lon="1.5578620">
        <ele>84.0</ele>
        <time>2020-02-23T12:59:47Z</time>
      </trkpt>
      <trkpt lat="39.0803850" lon="1.5578370">
        <ele>84.2</ele>
        <time>2020-02-23T12:59:48Z</time>
      </trkpt>
      <trkpt lat="39.0804140" lon="1.5578200">
        <ele>84.4</ele>
        <time>2020-02-23T12:59:49Z</time>
      </trkpt>
      <trkpt lat="39.0804240" lon="1.5578150">
        <ele>84.4</ele>
        <time>2020-02-23T12:59:50Z</time>
      </trkpt>
      <trkpt lat="39.0804850" lon="1.5578120">
        <ele>84.8</ele>
        <time>2020-02-23T12:59:51Z</time>
      </trkpt>
      <trkpt lat="39.0805400" lon="1.5578110">
        <ele>85.3</ele>
        <time>2020-02-23T12:59:52Z</time>
      </trkpt>
      <trkpt lat="39.0805830" lon="1.5578210">
        <ele>85.7</ele>
        <time>2020-02-23T12:59:53Z</time>
      </trkpt>
      <trkpt lat="39.0806150" lon="1.5578400">
        <ele>86.1</ele>
        <time>2020-02-23T12:59:54Z</time>
      </trkpt>
      <trkpt lat="39.0806410" lon="1.5578690">
        <ele>86.6</ele>
        <time>2020-02-23T12:59:55Z</time>
      </trkpt>
      <trkpt lat="39.0806630" lon="1.5578980">
        <ele>87.0</ele>
        <time>2020-02-23T12:59:56Z</time>
      </trkpt>
      <trkpt lat="39.0806860" lon="1.5579300">
        <ele>87.5</ele>
        <time>2020-02-23T12:59:57Z</time>
      </trkpt>
      <trkpt lat="39.0807160" lon="1.5579600">
        <ele>88.0</ele>
        <time>2020-02-23T12:59:58Z</time>
      </trkpt>
      <trkpt lat="39.0807410" lon="1.5579880">
        <ele>88.4</ele>
        <time>2020-02-23T12:59:59Z</time>
      </trkpt>
      <trkpt lat="39.0807540" lon="1.5580210">
        <ele>88.8</ele>
        <time>2020-02-23T13:00:00Z</time>
      </trkpt>
      <trkpt lat="39.0807720" lon="1.5580500">
        <ele>89.1</ele>
        <time>2020-02-23T13:00:01Z</time>
      </trkpt>
      <trkpt lat="39.0808090" lon="1.5580700">
        <ele>89.5</ele>
        <time>2020-02-23T13:00:02Z</time>
      </trkpt>
      <trkpt lat="39.0808230" lon="1.5580780">
        <ele>89.7</ele>
        <time>2020-02-23T13:00:03Z</time>
      </trkpt>
      <trkpt lat="39.0808590" lon="1.5580580">
        <ele>90.1</ele>
        <time>2020-02-23T13:00:04Z</time>
      </trkpt>
      <trkpt lat="39.0808700" lon="1.5580420">
        <ele>90.3</ele>
        <time>2020-02-23T13:00:05Z</time>
      </trkpt>
      <trkpt lat="39.0808820" lon="1.5580030">
        <ele>90.7</ele>
        <time>2020-02-23T13:00:06Z</time>
      </trkpt>
      <trkpt lat="39.0808990" lon="1.5579650">
        <ele>91.1</ele>
        <time>2020-02-23T13:00:07Z</time>
      </trkpt>
      <trkpt lat="39.0809090" lon="1.5579300">
        <ele>91.4</ele>
        <time>2020-02-23T13:00:08Z</time>
      </trkpt>
      <trkpt lat="39.0809190" lon="1.5578940">
        <ele>91.8</ele>
        <time>2020-02-23T13:00:09Z</time>
      </trkpt>
      <trkpt lat="39.0809290" lon="1.5578440">
        <ele>92.4</ele>
        <time>2020-02-23T13:00:10Z</time>
      </trkpt>
      <trkpt lat="39.0809300" lon="1.5578260">
        <ele>92.5</ele>
        <time>2020-02-23T13:00:11Z</time>
      </trkpt>
      <trkpt lat="39.0809330" lon="1.5577850">
        <ele>92.8</ele>
        <time>2020-02-23T13:00:12Z</time>
      </trkpt>
      <trkpt lat="39.0809350" lon="1.5577340">
        <ele>93.2</ele>
        <time>2020-02-23T13:00:13Z</time>
      </trkpt>
      <trkpt lat="39.0809370" lon="1.5577170">
        <ele>93.3</ele>
        <time>2020-02-23T13:00:14Z</time>
      </trkpt>
      <trkpt lat="39.0809370" lon="1.5576810">
        <ele>93.6</ele>
        <time>2020-02-23T13:00:15Z</time>
      </trkpt>
      <trkpt lat="39.0809330" lon="1.5576320">
        <ele>93.9</ele>
        <time>2020-02-23T13:00:16Z</time>
      </trkpt>
      <trkpt lat="39.0809340" lon="1.5576160">
        <ele>94.0</ele>
        <time>2020-02-23T13:00:17Z</time>
      </trkpt>
      <trkpt lat="39.0809240" lon="1.5575710">
        <ele>94.3</ele>
        <time>2020-02-23T13:00:18Z</time>
      </trkpt>
      <trkpt lat="39.0809200" lon="1.5575550">
        <ele>94.4</ele>
        <time>2020-02-23T13:00:19Z</time>
      </trkpt>
      <trkpt lat="39.0809030" lon="1.5575200">
        <ele>94.6</ele>
        <time>2020-02-23T13:00:20Z</time>
      </trkpt>
      <trkpt lat="39.0808830" lon="1.5574810">
        <ele>94.9</ele>
        <time>2020-02-23T13:00:21Z</time>
      </trkpt>
      <trkpt lat="39.0808750" lon="1.5574640">
        <ele>95.0</ele>
        <time>2020-02-23T13:00:22Z</time>
      </trkpt>
      <trkpt lat="39.0808430" lon="1.5574250">
        <ele>95.3</ele>
        <time>2020-02-23T13:00:23Z</time>
      </trkpt>
      <trkpt lat="39.0808290" lon="1.5574110">
        <ele>95.4</ele>
        <time>2020-02-23T13:00:24Z</time>
      </trkpt>
      <trkpt lat="39.0808050" lon="1.5573880">
        <ele>95.5</ele>
        <time>2020-02-23T13:00:25Z</time>
      </trkpt>
      <trkpt lat="39.0807750" lon="1.5573740">
        <ele>95.7</ele>
        <time>2020-02-23T13:00:26Z</time>
      </trkpt>
      <trkpt lat="39.0807430" lon="1.5573690">
        <ele>95.9</ele>
        <time>2020-02-23T13:00:27Z</time>
      </trkpt>
      <trkpt lat="39.0807140" lon="1.5573690">
        <ele>96.0</ele>
        <time>2020-02-23T13:00:28Z</time>
      </trkpt>
      <trkpt lat="39.0806840" lon="1.5573880">
        <ele>96.1</ele>
        <time>2020-02-23T13:00:29Z</time>
      </trkpt>
      <trkpt lat="39.0806600" lon="1.5574030">
        <ele>96.3</ele>
        <time>2020-02-23T13:00:30Z</time>
      </trkpt>
      <trkpt lat="39.0806380" lon="1.5574240">
        <ele>96.4</ele>
        <time>2020-02-23T13:00:31Z</time>
      </trkpt>
      <trkpt lat="39.0806120" lon="1.5574500">
        <ele>96.5</ele>
        <time>2020-02-23T13:00:32Z</time>
      </trkpt>
      <trkpt lat="39.0805990" lon="1.5574550">
        <ele>96.6</ele>
        <time>2020-02-23T13:00:33Z</time>
      </trkpt>
      <trkpt lat="39.0805710" lon="1.5574540">
        <ele>96.8</ele>
        <time>2020-02-23T13:00:34Z</time>
      </trkpt>
      <trkpt lat="39.0805600" lon="1.5574520">
        <ele>96.9</ele>
        <time>2020-02-23T13:00:35Z</time>
      </trkpt>
      <trkpt lat="39.0805460" lon="1.5574500">
        <ele>97.0</ele>
        <time>2020-02-23T13:00:36Z</time>
      </trkpt>
      <trkpt lat="39.0805310" lon="1.5574400">
        <ele>97.1</ele>
        <time>2020-02-23T13:00:37Z</time>
      </trkpt>
      <trkpt lat="39.0804930" lon="1.5574330">
        <ele>97.3</ele>
        <time>2020-02-23T13:00:38Z</time>
      </trkpt>
      <trkpt lat="39.0804780" lon="1.5574330">
        <ele>97.4</ele>
        <time>2020-02-23T13:00:39Z</time>
      </trkpt>
      <trkpt lat="39.0804480" lon="1.5574400">
        <ele>97.5</ele>
        <time>2020-02-23T13:00:40Z</time>
      </trkpt>
      <trkpt lat="39.0804380" lon="1.5574430">
        <ele>97.6</ele>
        <time>2020-02-23T13:00:41Z</time>
      </trkpt>
      <trkpt lat="39.0804350" lon="1.5574340">
        <ele>97.6</ele>
        <time>2020-02-23T13:00:42Z</time>
      </trkpt>
      <trkpt lat="39.0804350" lon="1.5574210">
        <ele>97.6</ele>
        <time>2020-02-23T13:00:43Z</time>
      </trkpt>
      <trkpt lat="39.0804290" lon="1.5574090">
        <ele>97.7</ele>
        <time>2020-02-23T13:00:44Z</time>
      </trkpt>
      <trkpt lat="39.0804020" lon="1.5574150">
        <ele>97.8</ele>
        <time>2020-02-23T13:00:45Z</time>
      </trkpt>
      <trkpt lat="39.0803840" lon="1.5574160">
        <ele>97.8</ele>
        <time>2020-02-23T13:00:46Z</time>
      </trkpt>
      <trkpt lat="39.0803740" lon="1.5574300">
        <ele>97.9</ele>
        <time>2020-02-23T13:00:47Z</time>
      </trkpt>
      <trkpt lat="39.0803440" lon="1.5574490">
        <ele>98.1</ele>
        <time>2020-02-23T13:00:48Z</time>
      </trkpt>
      <trkpt lat="39.0803310" lon="1.5574510">
        <ele>98.1</ele>
        <time>2020-02-23T13:00:49Z</time>
      </trkpt>
      <trkpt lat="39.0802990" lon="1.5574410">
        <ele>98.3</ele>
        <time>2020-02-23T13:00:50Z</time>
      </trkpt>
      <trkpt lat="39.0802700" lon="1.5574320">
        <ele>98.5</ele>
        <time>2020-02-23T13:00:51Z</time>
      </trkpt>
      <trkpt lat="39.0802550" lon="1.5574260">
        <ele>98.6</ele>
        <time>2020-02-23T13:00:52Z</time>
      </trkpt>
      <trkpt lat="39.0802400" lon="1.5574380">
        <ele>98.7</ele>
        <time>2020-02-23T13:00:53Z</time>
      </trkpt>
      <trkpt lat="39.0802050" lon="1.5574320">
        <ele>98.9</ele>
        <time>2020-02-23T13:00:54Z</time>
      </trkpt>
      <trkpt lat="39.0801910" lon="1.5574290">
        <ele>99.0</ele>
        <time>2020-02-23T13:00:55Z</time>
      </trkpt>
      <trkpt lat="39.0801570" lon="1.5574250">
        <ele>99.2</ele>
        <time>2020-02-23T13:00:56Z</time>
      </trkpt>
      <trkpt lat="39.0801260" lon="1.5574210">
        <ele>99.4</ele>
        <time>2020-02-23T13:00:57Z</time>
      </trkpt>
      <trkpt lat="39.0800720" lon="1.5574350">
        <ele>99.7</ele>
        <time>2020-02-23T13:00:58Z</time>
      </trkpt>
      <trkpt lat="39.0800400" lon="1.5574410">
        <ele>99.9</ele>
        <time>2020-02-23T13:00:59Z</time>
      </trkpt>
      <trkpt lat="39.0800140" lon="1.5574400">
        <ele>100.0</ele>
        <time>2020-02-23T13:01:00Z</time>
      </trkpt>
      <trkpt lat="39.0799850" lon="1.5574280">
        <ele>100.2</ele>
        <time>2020-02-23T13:01:01Z</time>
      </trkpt>
      <trkpt lat="39.0799780" lon="1.5574220">
        <ele>100.2</ele>
        <time>2020-02-23T13:01:02Z</time>
      </trkpt>
      <trkpt lat="39.0799510" lon="1.5574110">
        <ele>100.3</ele>
        <time>2020-02-23T13:01:03Z</time>
      </trkpt>
      <trkpt lat="39.0799210" lon="1.5573980">
        <ele>100.5</ele>
        <time>2020-02-23T13:01:04Z</time>
      </trkpt>
      <trkpt lat="39.0798850" lon="1.5573950">
        <ele>100.7</ele>
        <time>2020-02-23T13:01:05Z</time>
      </trkpt>
      <trkpt lat="39.0798740" lon="1.5573900">
        <ele>100.7</ele>
        <time>2020-02-23T13:01:06Z</time>
      </trkpt>
      <trkpt lat="39.0798380" lon="1.5573650">
        <ele>100.9</ele>
        <time>2020-02-23T13:01:07Z</time>
      </trkpt>
      <trkpt lat="39.0798230" lon="1.5573530">
        <ele>101.0</ele>
        <time>2020-02-23T13:01:08Z</time>
      </trkpt>
      <trkpt lat="39.0797910" lon="1.5573250">
        <ele>101.2</ele>
        <time>2020-02-23T13:01:09Z</time>
      </trkpt>
      <trkpt lat="39.0797800" lon="1.5573150">
        <ele>101.3</ele>
        <time>2020-02-23T13:01:10Z</time>
      </trkpt>
      <trkpt lat="39.0797550" lon="1.5573000">
        <ele>101.5</ele>
        <time>2020-02-23T13:01:11Z</time>
      </trkpt>
      <trkpt lat="39.0797340" lon="1.5572630">
        <ele>101.7</ele>
        <time>2020-02-23T13:01:12Z</time>
      </trkpt>
      <trkpt lat="39.0797300" lon="1.5572430">
        <ele>101.8</ele>
        <time>2020-02-23T13:01:13Z</time>
      </trkpt>
      <trkpt lat="39.0797160" lon="1.5571990">
        <ele>102.0</ele>
        <time>2020-02-23T13:01:14Z</time>
      </trkpt>
      <trkpt lat="39.0797080" lon="1.5571890">
        <ele>102.1</ele>
        <time>2020-02-23T13:01:15Z</time>
      </trkpt>
      <trkpt lat="39.0797230" lon="1.5571740">
        <ele>102.2</ele>
        <time>2020-02-23T13:01:16Z</time>
      </trkpt>
      <trkpt lat="39.0797360" lon="1.5571760">
        <ele>102.3</ele>
        <time>2020-02-23T13:01:17Z</time>
      </trkpt>
      <trkpt lat="39.0797490" lon="1.5571780">
        <ele>102.4</ele>
        <time>2020-02-23T13:01:18Z</time>
      </trkpt>
      <trkpt lat="39.0797860" lon="1.5571780">
        <ele>102.6</ele>
        <time>2020-02-23T13:01:19Z</time>
      </trkpt>
      <trkpt lat="39.0797990" lon="1.5571800">
        <ele>102.7</ele>
        <time>2020-02-23T13:01:20Z</time>
      </trkpt>
      <trkpt lat="39.0798330" lon="1.5571790">
        <ele>102.9</ele>
        <time>2020-02-23T13:01:21Z</time>
      </trkpt>
      <trkpt lat="39.0798630" lon="1.5571900">
        <ele>103.0</ele>
        <time>2020-02-23T13:01:22Z</time>
      </trkpt>
      <trkpt lat="39.0798890" lon="1.5572010">
        <ele>103.2</ele>
        <time>2020-02-23T13:01:23Z</time>
      </trkpt>
      <trkpt lat="39.0799240" lon="1.5572090">
        <ele>103.3</ele>
        <time>2020-02-23T13:01:24Z</time>
      </trkpt>
      <trkpt lat="39.0799340" lon="1.5572080">
        <ele>103.4</ele>
        <time>2020-02-23T13:01:25Z</time>
      </trkpt>
      <trkpt lat="39.0799690" lon="1.5572040">
        <ele>103.5</ele>
        <time>2020-02-23T13:01:26Z</time>
      </trkpt>
      <trkpt lat="39.0799810" lon="1.5572110">
        <ele>103.6</ele>
        <time>2020-02-23T13:01:27Z</time>
      </trkpt>
      <trkpt lat="39.0800110" lon="1.5572210">
        <ele>103.7</ele>
        <time>2020-02-23T13:01:28Z</time>
      </trkpt>
      <trkpt lat="39.0800440" lon="1.5572230">
        <ele>103.8</ele>
        <time>2020-02-23T13:01:29Z</time>
      </trkpt>
      <trkpt lat="39.0800570" lon="1.5572290">
        <ele>103.8</ele>
        <time>2020-02-23T13:01:30Z</time>
      </trkpt>
      <trkpt lat="39.0800920" lon="1.5572230">
        <ele>103.9</ele>
        <time>2020-02-23T13:01:31Z</time>
      </trkpt>
      <trkpt lat="39.0801040" lon="1.5572180">
        <ele>103.9</ele>
        <time>2020-02-23T13:01:32Z</time>
      </trkpt>
      <trkpt lat="39.0801350" lon="1.5571970">
        <ele>104.0</ele>
        <time>2020-02-23T13:01:33Z</time>
      </trkpt>
      <trkpt lat="39.0801480" lon="1.5571910">
        <ele>104.1</ele>
        <time>2020-02-23T13:01:34Z</time>
      </trkpt>
      <trkpt lat="39.0801740" lon="1.5571830">
        <ele>104.1</ele>
        <time>2020-02-23T13:01:35Z</time>
      </trkpt>
      <trkpt lat="39.0801840" lon="1.5571790">
        <ele>104.1</ele>
        <time>2020-02-23T13:01:36Z</time>
      </trkpt>
      <trkpt lat="39.0802150" lon="1.5571750">
        <ele>104.2</ele>
        <time>2020-02-23T13:01:37Z</time>
      </trkpt>
      <trkpt lat="39.0802270" lon="1.5571740">
        <ele>104.2</ele>
        <time>2020-02-23T13:01:38Z</time>
      </trkpt>
      <trkpt lat="39.0802620" lon="1.5571660">
        <ele>104.3</ele>
        <time>2020-02-23T13:01:39Z</time>
      </trkpt>
      <trkpt lat="39.0802710" lon="1.5571600">
        <ele>104.3</ele>
        <time>2020-02-23T13:01:40Z</time>
      </trkpt>
      <trkpt lat="39.0802990" lon="1.5571480">
        <ele>104.4</ele>
        <time>2020-02-23T13:01:41Z</time>
      </trkpt>
      <trkpt lat="39.0803230" lon="1.5571330">
        <ele>104.4</ele>
        <time>2020-02-23T13:01:42Z</time>
      </trkpt>
      <trkpt lat="39.0803520" lon="1.5571100">
        <ele>104.5</ele>
        <time>2020-02-23T13:01:43Z</time>
      </trkpt>
      <trkpt lat="39.0803600" lon="1.5571050">
        <ele>104.5</ele>
        <time>2020-02-23T13:01:44Z</time>
      </trkpt>
      <trkpt lat="39.0803900" lon="1.5570940">
        <ele>104.5</ele>
        <time>2020-02-23T13:01:45Z</time>
      </trkpt>
      <trkpt lat="39.0803990" lon="1.5570880">
        <ele>104.5</ele>
        <time>2020-02-23T13:01:46Z</time>
      </trkpt>
      <trkpt lat="39.0804270" lon="1.5570660">
        <ele>104.6</ele>
        <time>2020-02-23T13:01:47Z</time>
      </trkpt>
      <trkpt lat="39.0804370" lon="1.5570580">
        <ele>104.6</ele>
        <time>2020-02-23T13:01:48Z</time>
      </trkpt>
      <trkpt lat="39.0804770" lon="1.5570390">
        <ele>104.6</ele>
        <time>2020-02-23T13:01:49Z</time>
      </trkpt>
      <trkpt lat="39.0804920" lon="1.5570320">
        <ele>104.6</ele>
        <time>2020-02-23T13:01:50Z</time>
      </trkpt>
      <trkpt lat="39.0805280" lon="1.5570110">
        <ele>104.6</ele>
        <time>2020-02-23T13:01:51Z</time>
      </trkpt>
      <trkpt lat="39.0805410" lon="1.5570040">
        <ele>104.6</ele>
        <time>2020-02-23T13:01:52Z</time>
      </trkpt>
      <trkpt lat="39.0805720" lon="1.5569880">
        <ele>104.6</ele>
        <time>2020-02-23T13:01:53Z</time>
      </trkpt>
      <trkpt lat="39.0805940" lon="1.5569670">
        <ele>104.6</ele>
        <time>2020-02-23T13:01:54Z</time>
      </trkpt>
      <trkpt lat="39.0806270" lon="1.5569360">
        <ele>104.6</ele>
        <time>2020-02-23T13:01:55Z</time>
      </trkpt>
      <trkpt lat="39.0806370" lon="1.5569210">
        <ele>104.7</ele>
        <time>2020-02-23T13:01:56Z</time>
      </trkpt>
      <trkpt lat="39.0806710" lon="1.5569180">
        <ele>104.7</ele>
        <time>2020-02-23T13:01:57Z</time>
      </trkpt>
      <trkpt lat="39.0806810" lon="1.5569170">
        <ele>104.7</ele>
        <time>2020-02-23T13:01:58Z</time>
      </trkpt>
      <trkpt lat="39.0807130" lon="1.5569050">
        <ele>104.7</ele>
        <time>2020-02-23T13:01:59Z</time>
      </trkpt>
      <trkpt lat="39.0807220" lon="1.5568990">
        <ele>104.7</ele>
        <time>2020-02-23T13:02:00Z</time>
      </trkpt>
      <trkpt lat="39.0807560" lon="1.5568750">
        <ele>104.8</ele>
        <time>2020-02-23T13:02:01Z</time>
      </trkpt>
      <trkpt lat="39.0807700" lon="1.5568670">
        <ele>104.8</ele>
        <time>2020-02-23T13:02:02Z</time>
      </trkpt>
      <trkpt lat="39.0807910" lon="1.5568540">
        <ele>104.8</ele>
        <time>2020-02-23T13:02:03Z</time>
      </trkpt>
      <trkpt lat="39.0808030" lon="1.5568440">
        <ele>104.9</ele>
        <time>2020-02-23T13:02:04Z</time>
      </trkpt>
      <trkpt lat="39.0808370" lon="1.5568500">
        <ele>104.9</ele>
        <time>2020-02-23T13:02:05Z</time>
      </trkpt>
      <trkpt lat="39.0808630" lon="1.5568200">
        <ele>105.0</ele>
        <time>2020-02-23T13:02:06Z</time>
      </trkpt>
      <trkpt lat="39.0808730" lon="1.5568070">
        <ele>105.0</ele>
        <time>2020-02-23T13:02:07Z</time>
      </trkpt>
      <trkpt lat="39.0809060" lon="1.5567940">
        <ele>105.1</ele>
        <time>2020-02-23T13:02:08Z</time>
      </trkpt>
      <trkpt lat="39.0809150" lon="1.5567870">
        <ele>105.1</ele>
        <time>2020-02-23T13:02:09Z</time>
      </trkpt>
      <trkpt lat="39.0809480" lon="1.5567630">
        <ele>105.2</ele>
        <time>2020-02-23T13:02:10Z</time>
      </trkpt>
      <trkpt lat="39.0809850" lon="1.5567460">
        <ele>105.3</ele>
        <time>2020-02-23T13:02:11Z</time>
      </trkpt>
      <trkpt lat="39.0810290" lon="1.5567300">
        <ele>105.5</ele>
        <time>2020-02-23T13:02:12Z</time>
      </trkpt>
      <trkpt lat="39.0810490" lon="1.5567260">
        <ele>105.5</ele>
        <time>2020-02-23T13:02:13Z</time>
      </trkpt>
      <trkpt lat="39.0811010" lon="1.5567240">
        <ele>105.7</ele>
        <time>2020-02-23T13:02:14Z</time>
      </trkpt>
      <trkpt lat="39.0811420" lon="1.5567280">
        <ele>105.8</ele>
        <time>2020-02-23T13:02:15Z</time>
      </trkpt>
      <trkpt lat="39.0811840" lon="1.5567320">
        <ele>106.0</ele>
        <time>2020-02-23T13:02:16Z</time>
      </trkpt>
      <trkpt lat="39.0812310" lon="1.5567390">
        <ele>106.2</ele>
        <time>2020-02-23T13:02:17Z</time>
      </trkpt>
      <trkpt lat="39.0812660" lon="1.5567480">
        <ele>106.4</ele>
        <time>2020-02-23T13:02:18Z</time>
      </trkpt>
      <trkpt lat="39.0812990" lon="1.5567620">
        <ele>106.5</ele>
        <time>2020-02-23T13:02:19Z</time>
      </trkpt>
      <trkpt lat="39.0813290" lon="1.5567800">
        <ele>106.6</ele>
        <time>2020-02-23T13:02:20Z</time>
      </trkpt>
      <trkpt lat="39.0813560" lon="1.5567950">
        <ele>106.8</ele>
        <time>2020-02-23T13:02:21Z</time>
      </trkpt>
      <trkpt lat="39.0813910" lon="1.5568190">
        <ele>106.9</ele>
        <time>2020-02-23T13:02:22Z</time>
      </trkpt>
      <trkpt lat="39.0814040" lon="1.5568280">
        <ele>107.0</ele>
        <time>2020-02-23T13:02:23Z</time>
      </trkpt>
      <trkpt lat="39.0814350" lon="1.5568540">
        <ele>107.1</ele>
        <time>2020-02-23T13:02:24Z</time>
      </trkpt>
      <trkpt lat="39.0814460" lon="1.5568610">
        <ele>107.2</ele>
        <time>2020-02-23T13:02:25Z</time>
      </trkpt>
      <trkpt lat="39.0814810" lon="1.5568760">
        <ele>107.3</ele>
        <time>2020-02-23T13:02:26Z</time>
      </trkpt>
      <trkpt lat="39.0814920" lon="1.5568780">
        <ele>107.3</ele>
        <time>2020-02-23T13:02:27Z</time>
      </trkpt>
      <trkpt lat="39.0815230" lon="1.5568900">
        <ele>107.4</ele>
        <time>2020-02-23T13:02:28Z</time>
      </trkpt>
      <trkpt lat="39.0815620" lon="1.5569080">
        <ele>107.5</ele>
        <time>2020-02-23T13:02:29Z</time>
      </trkpt>
      <trkpt lat="39.0815740" lon="1.5569180">
        <ele>107.6</ele>
        <time>2020-02-23T13:02:30Z</time>
      </trkpt>
      <trkpt lat="39.0815990" lon="1.5569460">
        <ele>107.6</ele>
        <time>2020-02-23T13:02:31Z</time>
      </trkpt>
      <trkpt lat="39.0816330" lon="1.5569720">
        <ele>107.7</ele>
        <time>2020-02-23T13:02:32Z</time>
      </trkpt>
      <trkpt lat="39.0816530" lon="1.5569770">
        <ele>107.8</ele>
        <time>2020-02-23T13:02:33Z</time>
      </trkpt>
      <trkpt lat="39.0816920" lon="1.5569950">
        <ele>107.9</ele>
        <time>2020-02-23T13:02:34Z</time>
      </trkpt>
      <trkpt lat="39.0817080" lon="1.5570040">
        <ele>107.9</ele>
        <time>2020-02-23T13:02:35Z</time>
      </trkpt>
      <trkpt lat="39.0817410" lon="1.5570110">
        <ele>108.0</ele>
        <time>2020-02-23T13:02:36Z</time>
      </trkpt>
      <trkpt lat="39.0817700" lon="1.5570100">
        <ele>108.1</ele>
        <time>2020-02-23T13:02:37Z</time>
      </trkpt>
      <trkpt lat="39.0817980" lon="1.5570050">
        <ele>108.2</ele>
        <time>2020-02-23T13:02:38Z</time>
      </trkpt>
      <trkpt lat="39.0818380" lon="1.5569870">
        <ele>108.3</ele>
        <time>2020-02-23T13:02:39Z</time>
      </trkpt>
      <trkpt lat="39.0818520" lon="1.5569790">
        <ele>108.3</ele>
        <time>2020-02-23T13:02:40Z</time>
      </trkpt>
      <trkpt lat="39.0818780" lon="1.5569620">
        <ele>108.4</ele>
        <time>2020-02-23T13:02:41Z</time>
      </trkpt>
      <trkpt lat="39.0819070" lon="1.5569450">
        <ele>108.4</ele>
        <time>2020-02-23T13:02:42Z</time>
      </trkpt>
      <trkpt lat="39.0819360" lon="1.5569150">
        <ele>108.5</ele>
        <time>2020-02-23T13:02:43Z</time>
      </trkpt>
      <trkpt lat="39.0819460" lon="1.5569030">
        <ele>108.6</ele>
        <time>2020-02-23T13:02:44Z</time>
      </trkpt>
      <trkpt lat="39.0819840" lon="1.5568890">
        <ele>108.7</ele>
        <time>2020-02-23T13:02:45Z</time>
      </trkpt>
      <trkpt lat="39.0819960" lon="1.5568830">
        <ele>108.7</ele>
        <time>2020-02-23T13:02:46Z</time>
      </trkpt>
      <trkpt lat="39.0820050" lon="1.5568880">
        <ele>108.7</ele>
        <time>2020-02-23T13:02:47Z</time>
      </trkpt>
      <trkpt lat="39.0820280" lon="1.5568710">
        <ele>108.8</ele>
        <time>2020-02-23T13:02:48Z</time>
      </trkpt>
      <trkpt lat="39.0820420" lon="1.5568450">
        <ele>108.9</ele>
        <time>2020-02-23T13:02:49Z</time>
      </trkpt>
      <trkpt lat="39.0820490" lon="1.5568310">
        <ele>108.9</ele>
        <time>2020-02-23T13:02:50Z</time>
      </trkpt>
      <trkpt lat="39.0820660" lon="1.5567910">
        <ele>109.0</ele>
        <time>2020-02-23T13:02:51Z</time>
      </trkpt>
      <trkpt lat="39.0820740" lon="1.5567780">
        <ele>109.0</ele>
        <time>2020-02-23T13:02:52Z</time>
      </trkpt>
      <trkpt lat="39.0821080" lon="1.5567530">
        <ele>109.1</ele>
        <time>2020-02-23T13:02:53Z</time>
      </trkpt>
      <trkpt lat="39.0821320" lon="1.5567230">
        <ele>109.2</ele>
        <time>2020-02-23T13:02:54Z</time>
      </trkpt>
      <trkpt lat="39.0821730" lon="1.5566810">
        <ele>109.3</ele>
        <time>2020-02-23T13:02:55Z</time>
      </trkpt>
      <trkpt lat="39.0822030" lon="1.5566330">
        <ele>109.4</ele>
        <time>2020-02-23T13:02:56Z</time>
      </trkpt>
      <trkpt lat="39.0822350" lon="1.5565910">
        <ele>109.4</ele>
        <time>2020-02-23T13:02:57Z</time>
      </trkpt>
      <trkpt lat="39.0822570" lon="1.5565570">
        <ele>109.5</ele>
        <time>2020-02-23T13:02:59Z</time>
      </trkpt>
      <trkpt lat="39.0822770" lon="1.5565110">
        <ele>109.5</ele>
        <time>2020-02-23T13:03:00Z</time>
      </trkpt>
      <trkpt lat="39.0823120" lon="1.5564590">
        <ele>109.5</ele>
        <time>2020-02-23T13:03:01Z</time>
      </trkpt>
      <trkpt lat="39.0823430" lon="1.5564100">
        <ele>109.5</ele>
        <time>2020-02-23T13:03:02Z</time>
      </trkpt>
      <trkpt lat="39.0823720" lon="1.5563610">
        <ele>109.5</ele>
        <time>2020-02-23T13:03:03Z</time>
      </trkpt>
      <trkpt lat="39.0823990" lon="1.5563130">
        <ele>109.5</ele>
        <time>2020-02-23T13:03:04Z</time>
      </trkpt>
      <trkpt lat="39.0824400" lon="1.5562570">
        <ele>109.5</ele>
        <time>2020-02-23T13:03:05Z</time>
      </trkpt>
      <trkpt lat="39.0824810" lon="1.5562010">
        <ele>109.5</ele>
        <time>2020-02-23T13:03:06Z</time>
      </trkpt>
      <trkpt lat="39.0825230" lon="1.5561470">
        <ele>109.5</ele>
        <time>2020-02-23T13:03:07Z</time>
      </trkpt>
      <trkpt lat="39.0825730" lon="1.5560920">
        <ele>109.5</ele>
        <time>2020-02-23T13:03:08Z</time>
      </trkpt>
      <trkpt lat="39.0826280" lon="1.5560290">
        <ele>109.5</ele>
        <time>2020-02-23T13:03:09Z</time>
      </trkpt>
      <trkpt lat="39.0826820" lon="1.5559700">
        <ele>109.5</ele>
        <time>2020-02-23T13:03:10Z</time>
      </trkpt>
      <trkpt lat="39.0827470" lon="1.5559050">
        <ele>109.5</ele>
        <time>2020-02-23T13:03:11Z</time>
      </trkpt>
      <trkpt lat="39.0828050" lon="1.5558590">
        <ele>109.6</ele>
        <time>2020-02-23T13:03:12Z</time>
      </trkpt>
      <trkpt lat="39.0828650" lon="1.5558170">
        <ele>109.6</ele>
        <time>2020-02-23T13:03:13Z</time>
      </trkpt>
      <trkpt lat="39.0829230" lon="1.5557760">
        <ele>109.8</ele>
        <time>2020-02-23T13:03:14Z</time>
      </trkpt>
      <trkpt lat="39.0829860" lon="1.5557340">
        <ele>109.9</ele>
        <time>2020-02-23T13:03:15Z</time>
      </trkpt>
      <trkpt lat="39.0830290" lon="1.5556890">
        <ele>110.0</ele>
        <time>2020-02-23T13:03:16Z</time>
      </trkpt>
      <trkpt lat="39.0830720" lon="1.5556380">
        <ele>110.1</ele>
        <time>2020-02-23T13:03:17Z</time>
      </trkpt>
      <trkpt lat="39.0831230" lon="1.5556010">
        <ele>110.3</ele>
        <time>2020-02-23T13:03:18Z</time>
      </trkpt>
      <trkpt lat="39.0831750" lon="1.5555690">
        <ele>110.4</ele>
        <time>2020-02-23T13:03:19Z</time>
      </trkpt>
      <trkpt lat="39.0832370" lon="1.5555540">
        <ele>110.5</ele>
        <time>2020-02-23T13:03:20Z</time>
      </trkpt>
      <trkpt lat="39.0832960" lon="1.5555440">
        <ele>110.6</ele>
        <time>2020-02-23T13:03:21Z</time>
      </trkpt>
      <trkpt lat="39.0833560" lon="1.5555600">
        <ele>110.7</ele>
        <time>2020-02-23T13:03:22Z</time>
      </trkpt>
      <trkpt lat="39.0834070" lon="1.5555820">
        <ele>110.9</ele>
        <time>2020-02-23T13:03:23Z</time>
      </trkpt>
      <trkpt lat="39.0834530" lon="1.5556030">
        <ele>111.0</ele>
        <time>2020-02-23T13:03:24Z</time>
      </trkpt>
      <trkpt lat="39.0834840" lon="1.5556210">
        <ele>111.1</ele>
        <time>2020-02-23T13:03:25Z</time>
      </trkpt>
      <trkpt lat="39.0835220" lon="1.5556460">
        <ele>111.3</ele>
        <time>2020-02-23T13:03:26Z</time>
      </trkpt>
      <trkpt lat="39.0835540" lon="1.5556700">
        <ele>111.4</ele>
        <time>2020-02-23T13:03:27Z</time>
      </trkpt>
      <trkpt lat="39.0835870" lon="1.5556820">
        <ele>111.5</ele>
        <time>2020-02-23T13:03:28Z</time>
      </trkpt>
      <trkpt lat="39.0836210" lon="1.5556910">
        <ele>111.7</ele>
        <time>2020-02-23T13:03:29Z</time>
      </trkpt>
      <trkpt lat="39.0836510" lon="1.5556920">
        <ele>111.8</ele>
        <time>2020-02-23T13:03:30Z</time>
      </trkpt>
      <trkpt lat="39.0836820" lon="1.5557050">
        <ele>111.9</ele>
        <time>2020-02-23T13:03:31Z</time>
      </trkpt>
      <trkpt lat="39.0837230" lon="1.5557140">
        <ele>112.0</ele>
        <time>2020-02-23T13:03:32Z</time>
      </trkpt>
      <trkpt lat="39.0837590" lon="1.5557200">
        <ele>112.2</ele>
        <time>2020-02-23T13:03:33Z</time>
      </trkpt>
      <trkpt lat="39.0837980" lon="1.5557320">
        <ele>112.2</ele>
        <time>2020-02-23T13:03:34Z</time>
      </trkpt>
      <trkpt lat="39.0838520" lon="1.5557370">
        <ele>112.3</ele>
        <time>2020-02-23T13:03:35Z</time>
      </trkpt>
      <trkpt lat="39.0838910" lon="1.5557260">
        <ele>112.4</ele>
        <time>2020-02-23T13:03:36Z</time>
      </trkpt>
      <trkpt lat="39.0839120" lon="1.5556930">
        <ele>112.5</ele>
        <time>2020-02-23T13:03:37Z</time>
      </trkpt>
      <trkpt lat="39.0839430" lon="1.5556610">
        <ele>112.5</ele>
        <time>2020-02-23T13:03:38Z</time>
      </trkpt>
      <trkpt lat="39.0839770" lon="1.5556180">
        <ele>112.6</ele>
        <time>2020-02-23T13:03:39Z</time>
      </trkpt>
      <trkpt lat="39.0840100" lon="1.5555820">
        <ele>112.7</ele>
        <time>2020-02-23T13:03:40Z</time>
      </trkpt>
      <trkpt lat="39.0840410" lon="1.5555480">
        <ele>112.8</ele>
        <time>2020-02-23T13:03:41Z</time>
      </trkpt>
      <trkpt lat="39.0840810" lon="1.5555150">
        <ele>112.9</ele>
        <time>2020-02-23T13:03:42Z</time>
      </trkpt>
      <trkpt lat="39.0841190" lon="1.5554840">
        <ele>113.0</ele>
        <time>2020-02-23T13:03:43Z</time>
      </trkpt>
      <trkpt lat="39.0841470" lon="1.5554740">
        <ele>113.1</ele>
        <time>2020-02-23T13:03:44Z</time>
      </trkpt>
      <trkpt lat="39.0841780" lon="1.5554620">
        <ele>113.2</ele>
        <time>2020-02-23T13:03:45Z</time>
      </trkpt>
      <trkpt lat="39.0841920" lon="1.5554510">
        <ele>113.2</ele>
        <time>2020-02-23T13:03:46Z</time>
      </trkpt>
      <trkpt lat="39.0842350" lon="1.5554180">
        <ele>113.3</ele>
        <time>2020-02-23T13:03:47Z</time>
      </trkpt>
      <trkpt lat="39.0842730" lon="1.5553820">
        <ele>113.4</ele>
        <time>2020-02-23T13:03:48Z</time>
      </trkpt>
      <trkpt lat="39.0843110" lon="1.5553210">
        <ele>113.6</ele>
        <time>2020-02-23T13:03:49Z</time>
      </trkpt>
      <trkpt lat="39.0843480" lon="1.5552820">
        <ele>113.7</ele>
        <time>2020-02-23T13:03:50Z</time>
      </trkpt>
      <trkpt lat="39.0843780" lon="1.5552320">
        <ele>113.8</ele>
        <time>2020-02-23T13:03:51Z</time>
      </trkpt>
      <trkpt lat="39.0843960" lon="1.5551780">
        <ele>113.9</ele>
        <time>2020-02-23T13:03:52Z</time>
      </trkpt>
      <trkpt lat="39.0844110" lon="1.5551330">
        <ele>114.0</ele>
        <time>2020-02-23T13:03:53Z</time>
      </trkpt>
      <trkpt lat="39.0844310" lon="1.5551040">
        <ele>114.1</ele>
        <time>2020-02-23T13:03:54Z</time>
      </trkpt>
      <trkpt lat="39.0844630" lon="1.5550870">
        <ele>114.2</ele>
        <time>2020-02-23T13:03:55Z</time>
      </trkpt>
      <trkpt lat="39.0844920" lon="1.5550900">
        <ele>114.2</ele>
        <time>2020-02-23T13:03:56Z</time>
      </trkpt>
      <trkpt lat="39.0845160" lon="1.5551090">
        <ele>114.2</ele>
        <time>2020-02-23T13:03:57Z</time>
      </trkpt>
      <trkpt lat="39.0845540" lon="1.5551160">
        <ele>114.3</ele>
        <time>2020-02-23T13:03:58Z</time>
      </trkpt>
      <trkpt lat="39.0845660" lon="1.5551140">
        <ele>114.3</ele>
        <time>2020-02-23T13:03:59Z</time>
      </trkpt>
      <trkpt lat="39.0846010" lon="1.5551130">
        <ele>114.3</ele>
        <time>2020-02-23T13:04:00Z</time>
      </trkpt>
      <trkpt lat="39.0846150" lon="1.5551120">
        <ele>114.3</ele>
        <time>2020-02-23T13:04:01Z</time>
      </trkpt>
      <trkpt lat="39.0846320" lon="1.5551230">
        <ele>114.4</ele>
        <time>2020-02-23T13:04:02Z</time>
      </trkpt>
      <trkpt lat="39.0846490" lon="1.5551240">
        <ele>114.4</ele>
        <time>2020-02-23T13:04:03Z</time>
      </trkpt>
      <trkpt lat="39.0846910" lon="1.5551330">
        <ele>114.4</ele>
        <time>2020-02-23T13:04:04Z</time>
      </trkpt>
      <trkpt lat="39.0847080" lon="1.5551350">
        <ele>114.4</ele>
        <time>2020-02-23T13:04:05Z</time>
      </trkpt>
      <trkpt lat="39.0847410" lon="1.5551470">
        <ele>114.4</ele>
        <time>2020-02-23T13:04:06Z</time>
      </trkpt>
      <trkpt lat="39.0848150" lon="1.5551790">
        <ele>114.4</ele>
        <time>2020-02-23T13:04:07Z</time>
      </trkpt>
      <trkpt lat="39.0848490" lon="1.5551930">
        <ele>114.5</ele>
        <time>2020-02-23T13:04:08Z</time>
      </trkpt>
      <trkpt lat="39.0848900" lon="1.5552180">
        <ele>114.5</ele>
        <time>2020-02-23T13:04:09Z</time>
      </trkpt>
      <trkpt lat="39.0849190" lon="1.5552320">
        <ele>114.5</ele>
        <time>2020-02-23T13:04:10Z</time>
      </trkpt>
      <trkpt lat="39.0849520" lon="1.5552630">
        <ele>114.5</ele>
        <time>2020-02-23T13:04:11Z</time>
      </trkpt>
      <trkpt lat="39.0849630" lon="1.5552810">
        <ele>114.6</ele>
        <time>2020-02-23T13:04:12Z</time>
      </trkpt>
      <trkpt lat="39.0849850" lon="1.5553250">
        <ele>114.6</ele>
        <time>2020-02-23T13:04:13Z</time>
      </trkpt>
      <trkpt lat="39.0850060" lon="1.5553660">
        <ele>114.6</ele>
        <time>2020-02-23T13:04:14Z</time>
      </trkpt>
      <trkpt lat="39.0850230" lon="1.5554020">
        <ele>114.6</ele>
        <time>2020-02-23T13:04:15Z</time>
      </trkpt>
      <trkpt lat="39.0850410" lon="1.5554450">
        <ele>114.5</ele>
        <time>2020-02-23T13:04:16Z</time>
      </trkpt>
      <trkpt lat="39.0850580" lon="1.5554900">
        <ele>114.5</ele>
        <time>2020-02-23T13:04:17Z</time>
      </trkpt>
      <trkpt lat="39.0850750" lon="1.5555350">
        <ele>114.5</ele>
        <time>2020-02-23T13:04:18Z</time>
      </trkpt>
      <trkpt lat="39.0850940" lon="1.5555780">
        <ele>114.4</ele>
        <time>2020-02-23T13:04:19Z</time>
      </trkpt>
      <trkpt lat="39.0851060" lon="1.5556280">
        <ele>114.4</ele>
        <time>2020-02-23T13:04:20Z</time>
      </trkpt>
      <trkpt lat="39.0851350" lon="1.5556720">
        <ele>114.3</ele>
        <time>2020-02-23T13:04:21Z</time>
      </trkpt>
      <trkpt lat="39.0851680" lon="1.5557140">
        <ele>114.3</ele>
        <time>2020-02-23T13:04:22Z</time>
      </trkpt>
      <trkpt lat="39.0852080" lon="1.5557470">
        <ele>114.2</ele>
        <time>2020-02-23T13:04:23Z</time>
      </trkpt>
      <trkpt lat="39.0852510" lon="1.5557770">
        <ele>114.2</ele>
        <time>2020-02-23T13:04:24Z</time>
      </trkpt>
      <trkpt lat="39.0852930" lon="1.5557980">
        <ele>114.0</ele>
        <time>2020-02-23T13:04:25Z</time>
      </trkpt>
      <trkpt lat="39.0853380" lon="1.5558160">
        <ele>113.9</ele>
        <time>2020-02-23T13:04:26Z</time>
      </trkpt>
      <trkpt lat="39.0853850" lon="1.5558310">
        <ele>113.8</ele>
        <time>2020-02-23T13:04:27Z</time>
      </trkpt>
      <trkpt lat="39.0854360" lon="1.5558500">
        <ele>113.6</ele>
        <time>2020-02-23T13:04:28Z</time>
      </trkpt>
      <trkpt lat="39.0854910" lon="1.5558540">
        <ele>113.5</ele>
        <time>2020-02-23T13:04:29Z</time>
      </trkpt>
      <trkpt lat="39.0855500" lon="1.5558570">
        <ele>113.4</ele>
        <time>2020-02-23T13:04:30Z</time>
      </trkpt>
      <trkpt lat="39.0856210" lon="1.5558600">
        <ele>113.4</ele>
        <time>2020-02-23T13:04:31Z</time>
      </trkpt>
      <trkpt lat="39.0856930" lon="1.5558560">
        <ele>113.4</ele>
        <time>2020-02-23T13:04:32Z</time>
      </trkpt>
      <trkpt lat="39.0857560" lon="1.5558530">
        <ele>113.3</ele>
        <time>2020-02-23T13:04:33Z</time>
      </trkpt>
      <trkpt lat="39.0858250" lon="1.5558390">
        <ele>113.3</ele>
        <time>2020-02-23T13:04:34Z</time>
      </trkpt>
      <trkpt lat="39.0859000" lon="1.5558210">
        <ele>113.3</ele>
        <time>2020-02-23T13:04:35Z</time>
      </trkpt>
      <trkpt lat="39.0859710" lon="1.5558140">
        <ele>113.3</ele>
        <time>2020-02-23T13:04:36Z</time>
      </trkpt>
      <trkpt lat="39.0860540" lon="1.5558110">
        <ele>113.3</ele>
        <time>2020-02-23T13:04:37Z</time>
      </trkpt>
      <trkpt lat="39.0861320" lon="1.5558230">
        <ele>113.3</ele>
        <time>2020-02-23T13:04:38Z</time>
      </trkpt>
      <trkpt lat="39.0862000" lon="1.5558320">
        <ele>113.3</ele>
        <time>2020-02-23T13:04:39Z</time>
      </trkpt>
      <trkpt lat="39.0862620" lon="1.5558440">
        <ele>113.3</ele>
        <time>2020-02-23T13:04:40Z</time>
      </trkpt>
      <trkpt lat="39.0863210" lon="1.5558540">
        <ele>113.3</ele>
        <time>2020-02-23T13:04:41Z</time>
      </trkpt>
      <trkpt lat="39.0863810" lon="1.5558700">
        <ele>113.3</ele>
        <time>2020-02-23T13:04:42Z</time>
      </trkpt>
      <trkpt lat="39.0864390" lon="1.5558840">
        <ele>113.3</ele>
        <time>2020-02-23T13:04:43Z</time>
      </trkpt>
      <trkpt lat="39.0864840" lon="1.5558910">
        <ele>113.3</ele>
        <time>2020-02-23T13:04:44Z</time>
      </trkpt>
      <trkpt lat="39.0865500" lon="1.5559060">
        <ele>113.4</ele>
        <time>2020-02-23T13:04:45Z</time>
      </trkpt>
      <trkpt lat="39.0866130" lon="1.5559350">
        <ele>113.4</ele>
        <time>2020-02-23T13:04:46Z</time>
      </trkpt>
      <trkpt lat="39.0866810" lon="1.5559570">
        <ele>113.5</ele>
        <time>2020-02-23T13:04:47Z</time>
      </trkpt>
      <trkpt lat="39.0867370" lon="1.5559890">
        <ele>113.6</ele>
        <time>2020-02-23T13:04:48Z</time>
      </trkpt>
      <trkpt lat="39.0867980" lon="1.5560170">
        <ele>113.7</ele>
        <time>2020-02-23T13:04:49Z</time>
      </trkpt>
      <trkpt lat="39.0868570" lon="1.5560440">
        <ele>113.8</ele>
        <time>2020-02-23T13:04:50Z</time>
      </trkpt>
      <trkpt lat="39.0869170" lon="1.5560730">
        <ele>114.2</ele>
        <time>2020-02-23T13:04:51Z</time>
      </trkpt>
      <trkpt lat="39.0869680" lon="1.5561010">
        <ele>114.4</ele>
        <time>2020-02-23T13:04:52Z</time>
      </trkpt>
      <trkpt lat="39.0870270" lon="1.5561310">
        <ele>114.6</ele>
        <time>2020-02-23T13:04:53Z</time>
      </trkpt>
      <trkpt lat="39.0870790" lon="1.5561620">
        <ele>114.9</ele>
        <time>2020-02-23T13:04:54Z</time>
      </trkpt>
      <trkpt lat="39.0871360" lon="1.5562070">
        <ele>115.3</ele>
        <time>2020-02-23T13:04:55Z</time>
      </trkpt>
      <trkpt lat="39.0871920" lon="1.5562590">
        <ele>115.8</ele>
        <time>2020-02-23T13:04:56Z</time>
      </trkpt>
      <trkpt lat="39.0872310" lon="1.5562920">
        <ele>116.1</ele>
        <time>2020-02-23T13:04:57Z</time>
      </trkpt>
      <trkpt lat="39.0872830" lon="1.5563250">
        <ele>116.5</ele>
        <time>2020-02-23T13:04:58Z</time>
      </trkpt>
      <trkpt lat="39.0873130" lon="1.5563610">
        <ele>116.8</ele>
        <time>2020-02-23T13:04:59Z</time>
      </trkpt>
      <trkpt lat="39.0873510" lon="1.5563930">
        <ele>117.1</ele>
        <time>2020-02-23T13:05:00Z</time>
      </trkpt>
      <trkpt lat="39.0873840" lon="1.5564200">
        <ele>117.4</ele>
        <time>2020-02-23T13:05:01Z</time>
      </trkpt>
      <trkpt lat="39.0873950" lon="1.5564300">
        <ele>117.5</ele>
        <time>2020-02-23T13:05:02Z</time>
      </trkpt>
      <trkpt lat="39.0874280" lon="1.5564510">
        <ele>117.8</ele>
        <time>2020-02-23T13:05:03Z</time>
      </trkpt>
      <trkpt lat="39.0874390" lon="1.5564590">
        <ele>117.9</ele>
        <time>2020-02-23T13:05:04Z</time>
      </trkpt>
      <trkpt lat="39.0874690" lon="1.5564900">
        <ele>118.1</ele>
        <time>2020-02-23T13:05:05Z</time>
      </trkpt>
      <trkpt lat="39.0874800" lon="1.5565020">
        <ele>118.2</ele>
        <time>2020-02-23T13:05:06Z</time>
      </trkpt>
      <trkpt lat="39.0875090" lon="1.5565310">
        <ele>118.5</ele>
        <time>2020-02-23T13:05:07Z</time>
      </trkpt>
      <trkpt lat="39.0875360" lon="1.5565490">
        <ele>118.7</ele>
        <time>2020-02-23T13:05:08Z</time>
      </trkpt>
      <trkpt lat="39.0875630" lon="1.5565690">
        <ele>118.9</ele>
        <time>2020-02-23T13:05:09Z</time>
      </trkpt>
      <trkpt lat="39.0875900" lon="1.5565810">
        <ele>119.1</ele>
        <time>2020-02-23T13:05:10Z</time>
      </trkpt>
      <trkpt lat="39.0876250" lon="1.5565890">
        <ele>119.3</ele>
        <time>2020-02-23T13:05:11Z</time>
      </trkpt>
      <trkpt lat="39.0876370" lon="1.5565930">
        <ele>119.4</ele>
        <time>2020-02-23T13:05:12Z</time>
      </trkpt>
      <trkpt lat="39.0876790" lon="1.5566160">
        <ele>119.6</ele>
        <time>2020-02-23T13:05:13Z</time>
      </trkpt>
      <trkpt lat="39.0876970" lon="1.5566260">
        <ele>119.7</ele>
        <time>2020-02-23T13:05:14Z</time>
      </trkpt>
      <trkpt lat="39.0877160" lon="1.5566430">
        <ele>119.8</ele>
        <time>2020-02-23T13:05:15Z</time>
      </trkpt>
      <trkpt lat="39.0877260" lon="1.5566560">
        <ele>119.9</ele>
        <time>2020-02-23T13:05:16Z</time>
      </trkpt>
      <trkpt lat="39.0877540" lon="1.5566760">
        <ele>120.0</ele>
        <time>2020-02-23T13:05:17Z</time>
      </trkpt>
      <trkpt lat="39.0877860" lon="1.5567050">
        <ele>120.1</ele>
        <time>2020-02-23T13:05:18Z</time>
      </trkpt>
      <trkpt lat="39.0877960" lon="1.5567150">
        <ele>120.1</ele>
        <time>2020-02-23T13:05:19Z</time>
      </trkpt>
      <trkpt lat="39.0878270" lon="1.5567340">
        <ele>120.2</ele>
        <time>2020-02-23T13:05:20Z</time>
      </trkpt>
      <trkpt lat="39.0878380" lon="1.5567360">
        <ele>120.2</ele>
        <time>2020-02-23T13:05:21Z</time>
      </trkpt>
      <trkpt lat="39.0878650" lon="1.5567250">
        <ele>120.2</ele>
        <time>2020-02-23T13:05:22Z</time>
      </trkpt>
      <trkpt lat="39.0878750" lon="1.5567210">
        <ele>120.2</ele>
        <time>2020-02-23T13:05:23Z</time>
      </trkpt>
      <trkpt lat="39.0878840" lon="1.5567170">
        <ele>120.2</ele>
        <time>2020-02-23T13:05:24Z</time>
      </trkpt>
      <trkpt lat="39.0878930" lon="1.5567120">
        <ele>120.2</ele>
        <time>2020-02-23T13:05:25Z</time>
      </trkpt>
      <trkpt lat="39.0879090" lon="1.5567010">
        <ele>120.2</ele>
        <time>2020-02-23T13:05:26Z</time>
      </trkpt>
      <trkpt lat="39.0879240" lon="1.5566710">
        <ele>120.2</ele>
        <time>2020-02-23T13:05:27Z</time>
      </trkpt>
      <trkpt lat="39.0879300" lon="1.5566600">
        <ele>120.2</ele>
        <time>2020-02-23T13:05:28Z</time>
      </trkpt>
      <trkpt lat="39.0879550" lon="1.5566410">
        <ele>120.2</ele>
        <time>2020-02-23T13:05:29Z</time>
      </trkpt>
      <trkpt lat="39.0879740" lon="1.5566040">
        <ele>120.2</ele>
        <time>2020-02-23T13:05:30Z</time>
      </trkpt>
      <trkpt lat="39.0879880" lon="1.5565920">
        <ele>120.2</ele>
        <time>2020-02-23T13:05:31Z</time>
      </trkpt>
      <trkpt lat="39.0880080" lon="1.5565540">
        <ele>120.2</ele>
        <time>2020-02-23T13:05:32Z</time>
      </trkpt>
      <trkpt lat="39.0880150" lon="1.5565400">
        <ele>120.2</ele>
        <time>2020-02-23T13:05:33Z</time>
      </trkpt>
      <trkpt lat="39.0880500" lon="1.5565110">
        <ele>120.2</ele>
        <time>2020-02-23T13:05:34Z</time>
      </trkpt>
      <trkpt lat="39.0880620" lon="1.5565020">
        <ele>120.2</ele>
        <time>2020-02-23T13:05:35Z</time>
      </trkpt>
      <trkpt lat="39.0880910" lon="1.5564960">
        <ele>120.1</ele>
        <time>2020-02-23T13:05:36Z</time>
      </trkpt>
      <trkpt lat="39.0881260" lon="1.5564980">
        <ele>120.1</ele>
        <time>2020-02-23T13:05:37Z</time>
      </trkpt>
      <trkpt lat="39.0881560" lon="1.5565130">
        <ele>120.0</ele>
        <time>2020-02-23T13:05:38Z</time>
      </trkpt>
      <trkpt lat="39.0881860" lon="1.5565360">
        <ele>120.0</ele>
        <time>2020-02-23T13:05:39Z</time>
      </trkpt>
      <trkpt lat="39.0882150" lon="1.5565520">
        <ele>119.9</ele>
        <time>2020-02-23T13:05:40Z</time>
      </trkpt>
      <trkpt lat="39.0882570" lon="1.5565680">
        <ele>119.8</ele>
        <time>2020-02-23T13:05:41Z</time>
      </trkpt>
      <trkpt lat="39.0882980" lon="1.5565770">
        <ele>119.7</ele>
        <time>2020-02-23T13:05:42Z</time>
      </trkpt>
      <trkpt lat="39.0883370" lon="1.5565880">
        <ele>119.6</ele>
        <time>2020-02-23T13:05:43Z</time>
      </trkpt>
      <trkpt lat="39.0883780" lon="1.5566010">
        <ele>119.5</ele>
        <time>2020-02-23T13:05:44Z</time>
      </trkpt>
      <trkpt lat="39.0884060" lon="1.5566070">
        <ele>119.5</ele>
        <time>2020-02-23T13:05:45Z</time>
      </trkpt>
      <trkpt lat="39.0884590" lon="1.5566330">
        <ele>119.4</ele>
        <time>2020-02-23T13:05:46Z</time>
      </trkpt>
      <trkpt lat="39.0885050" lon="1.5566480">
        <ele>119.3</ele>
        <time>2020-02-23T13:05:47Z</time>
      </trkpt>
      <trkpt lat="39.0885490" lon="1.5566560">
        <ele>119.3</ele>
        <time>2020-02-23T13:05:48Z</time>
      </trkpt>
      <trkpt lat="39.0885920" lon="1.5566710">
        <ele>119.3</ele>
        <time>2020-02-23T13:05:49Z</time>
      </trkpt>
      <trkpt lat="39.0886400" lon="1.5566850">
        <ele>119.2</ele>
        <time>2020-02-23T13:05:50Z</time>
      </trkpt>
      <trkpt lat="39.0886930" lon="1.5567010">
        <ele>119.2</ele>
        <time>2020-02-23T13:05:51Z</time>
      </trkpt>
      <trkpt lat="39.0887570" lon="1.5567260">
        <ele>119.2</ele>
        <time>2020-02-23T13:05:52Z</time>
      </trkpt>
      <trkpt lat="39.0887990" lon="1.5567430">
        <ele>119.2</ele>
        <time>2020-02-23T13:05:53Z</time>
      </trkpt>
      <trkpt lat="39.0888350" lon="1.5567490">
        <ele>119.2</ele>
        <time>2020-02-23T13:05:54Z</time>
      </trkpt>
      <trkpt lat="39.0888700" lon="1.5567580">
        <ele>119.2</ele>
        <time>2020-02-23T13:05:55Z</time>
      </trkpt>
      <trkpt lat="39.0889120" lon="1.5567680">
        <ele>119.2</ele>
        <time>2020-02-23T13:05:56Z</time>
      </trkpt>
      <trkpt lat="39.0889530" lon="1.5567880">
        <ele>119.2</ele>
        <time>2020-02-23T13:05:57Z</time>
      </trkpt>
      <trkpt lat="39.0889830" lon="1.5567940">
        <ele>119.2</ele>
        <time>2020-02-23T13:05:58Z</time>
      </trkpt>
      <trkpt lat="39.0890170" lon="1.5568130">
        <ele>119.2</ele>
        <time>2020-02-23T13:05:59Z</time>
      </trkpt>
      <trkpt lat="39.0890470" lon="1.5568280">
        <ele>119.2</ele>
        <time>2020-02-23T13:06:00Z</time>
      </trkpt>
      <trkpt lat="39.0890830" lon="1.5568400">
        <ele>119.2</ele>
        <time>2020-02-23T13:06:01Z</time>
      </trkpt>
      <trkpt lat="39.0891180" lon="1.5568540">
        <ele>119.2</ele>
        <time>2020-02-23T13:06:02Z</time>
      </trkpt>
      <trkpt lat="39.0891520" lon="1.5568720">
        <ele>119.2</ele>
        <time>2020-02-23T13:06:03Z</time>
      </trkpt>
      <trkpt lat="39.0891930" lon="1.5569000">
        <ele>119.2</ele>
        <time>2020-02-23T13:06:04Z</time>
      </trkpt>
      <trkpt lat="39.0892260" lon="1.5569330">
        <ele>119.1</ele>
        <time>2020-02-23T13:06:05Z</time>
      </trkpt>
      <trkpt lat="39.0892610" lon="1.5569760">
        <ele>119.1</ele>
        <time>2020-02-23T13:06:06Z</time>
      </trkpt>
      <trkpt lat="39.0892740" lon="1.5570350">
        <ele>119.1</ele>
        <time>2020-02-23T13:06:07Z</time>
      </trkpt>
      <trkpt lat="39.0892840" lon="1.5570920">
        <ele>119.0</ele>
        <time>2020-02-23T13:06:08Z</time>
      </trkpt>
      <trkpt lat="39.0892910" lon="1.5571440">
        <ele>119.0</ele>
        <time>2020-02-23T13:06:09Z</time>
      </trkpt>
      <trkpt lat="39.0893020" lon="1.5572060">
        <ele>119.0</ele>
        <time>2020-02-23T13:06:10Z</time>
      </trkpt>
      <trkpt lat="39.0893070" lon="1.5572530">
        <ele>119.0</ele>
        <time>2020-02-23T13:06:11Z</time>
      </trkpt>
      <trkpt lat="39.0893070" lon="1.5573080">
        <ele>118.9</ele>
        <time>2020-02-23T13:06:12Z</time>
      </trkpt>
      <trkpt lat="39.0893070" lon="1.5573310">
        <ele>118.9</ele>
        <time>2020-02-23T13:06:13Z</time>
      </trkpt>
      <trkpt lat="39.0893070" lon="1.5573940">
        <ele>118.9</ele>
        <time>2020-02-23T13:06:14Z</time>
      </trkpt>
      <trkpt lat="39.0893000" lon="1.5574500">
        <ele>118.9</ele>
        <time>2020-02-23T13:06:15Z</time>
      </trkpt>
      <trkpt lat="39.0892960" lon="1.5575080">
        <ele>118.8</ele>
        <time>2020-02-23T13:06:16Z</time>
      </trkpt>
      <trkpt lat="39.0892940" lon="1.5575610">
        <ele>118.7</ele>
        <time>2020-02-23T13:06:17Z</time>
      </trkpt>
      <trkpt lat="39.0893020" lon="1.5576050">
        <ele>118.6</ele>
        <time>2020-02-23T13:06:18Z</time>
      </trkpt>
      <trkpt lat="39.0893100" lon="1.5576590">
        <ele>118.5</ele>
        <time>2020-02-23T13:06:19Z</time>
      </trkpt>
      <trkpt lat="39.0893210" lon="1.5576940">
        <ele>118.5</ele>
        <time>2020-02-23T13:06:20Z</time>
      </trkpt>
      <trkpt lat="39.0893430" lon="1.5577430">
        <ele>118.4</ele>
        <time>2020-02-23T13:06:21Z</time>
      </trkpt>
      <trkpt lat="39.0893690" lon="1.5578030">
        <ele>118.3</ele>
        <time>2020-02-23T13:06:22Z</time>
      </trkpt>
      <trkpt lat="39.0894140" lon="1.5578400">
        <ele>118.3</ele>
        <time>2020-02-23T13:06:23Z</time>
      </trkpt>
      <trkpt lat="39.0894670" lon="1.5578610">
        <ele>118.2</ele>
        <time>2020-02-23T13:06:24Z</time>
      </trkpt>
      <trkpt lat="39.0895370" lon="1.5578570">
        <ele>118.2</ele>
        <time>2020-02-23T13:06:25Z</time>
      </trkpt>
      <trkpt lat="39.0895870" lon="1.5578570">
        <ele>118.2</ele>
        <time>2020-02-23T13:06:26Z</time>
      </trkpt>
      <trkpt lat="39.0896240" lon="1.5578380">
        <ele>118.2</ele>
        <time>2020-02-23T13:06:27Z</time>
      </trkpt>
      <trkpt lat="39.0896580" lon="1.5578190">
        <ele>118.2</ele>
        <time>2020-02-23T13:06:28Z</time>
      </trkpt>
      <trkpt lat="39.0896910" lon="1.5578180">
        <ele>118.1</ele>
        <time>2020-02-23T13:06:29Z</time>
      </trkpt>
      <trkpt lat="39.0897330" lon="1.5578160">
        <ele>118.1</ele>
        <time>2020-02-23T13:06:30Z</time>
      </trkpt>
      <trkpt lat="39.0897780" lon="1.5578120">
        <ele>118.1</ele>
        <time>2020-02-23T13:06:31Z</time>
      </trkpt>
      <trkpt lat="39.0898170" lon="1.5578040">
        <ele>118.1</ele>
        <time>2020-02-23T13:06:32Z</time>
      </trkpt>
      <trkpt lat="39.0898480" lon="1.5578060">
        <ele>118.1</ele>
        <time>2020-02-23T13:06:33Z</time>
      </trkpt>
      <trkpt lat="39.0898860" lon="1.5578150">
        <ele>118.1</ele>
        <time>2020-02-23T13:06:34Z</time>
      </trkpt>
      <trkpt lat="39.0899170" lon="1.5578130">
        <ele>118.1</ele>
        <time>2020-02-23T13:06:35Z</time>
      </trkpt>
      <trkpt lat="39.0899490" lon="1.5578090">
        <ele>118.1</ele>
        <time>2020-02-23T13:06:36Z</time>
      </trkpt>
      <trkpt lat="39.0900050" lon="1.5577390">
        <ele>118.0</ele>
        <time>2020-02-23T13:06:37Z</time>
      </trkpt>
      <trkpt lat="39.0900270" lon="1.5577010">
        <ele>118.0</ele>
        <time>2020-02-23T13:06:38Z</time>
      </trkpt>
      <trkpt lat="39.0900420" lon="1.5576420">
        <ele>117.9</ele>
        <time>2020-02-23T13:06:39Z</time>
      </trkpt>
      <trkpt lat="39.0900460" lon="1.5576120">
        <ele>117.9</ele>
        <time>2020-02-23T13:06:40Z</time>
      </trkpt>
      <trkpt lat="39.0900560" lon="1.5575680">
        <ele>117.8</ele>
        <time>2020-02-23T13:06:41Z</time>
      </trkpt>
      <trkpt lat="39.0900610" lon="1.5575520">
        <ele>117.8</ele>
        <time>2020-02-23T13:06:42Z</time>
      </trkpt>
      <trkpt lat="39.0900700" lon="1.5575140">
        <ele>117.7</ele>
        <time>2020-02-23T13:06:43Z</time>
      </trkpt>
      <trkpt lat="39.0900780" lon="1.5574730">
        <ele>117.6</ele>
        <time>2020-02-23T13:06:44Z</time>
      </trkpt>
      <trkpt lat="39.0900850" lon="1.5574240">
        <ele>117.4</ele>
        <time>2020-02-23T13:06:45Z</time>
      </trkpt>
      <trkpt lat="39.0900920" lon="1.5573710">
        <ele>117.3</ele>
        <time>2020-02-23T13:06:46Z</time>
      </trkpt>
      <trkpt lat="39.0901010" lon="1.5573140">
        <ele>117.1</ele>
        <time>2020-02-23T13:06:47Z</time>
      </trkpt>
      <trkpt lat="39.0901120" lon="1.5572560">
        <ele>116.9</ele>
        <time>2020-02-23T13:06:48Z</time>
      </trkpt>
      <trkpt lat="39.0901210" lon="1.5572140">
        <ele>116.8</ele>
        <time>2020-02-23T13:06:49Z</time>
      </trkpt>
      <trkpt lat="39.0901260" lon="1.5571620">
        <ele>116.6</ele>
        <time>2020-02-23T13:06:50Z</time>
      </trkpt>
      <trkpt lat="39.0901390" lon="1.5571100">
        <ele>116.4</ele>
        <time>2020-02-23T13:06:51Z</time>
      </trkpt>
      <trkpt lat="39.0901450" lon="1.5570570">
        <ele>116.2</ele>
        <time>2020-02-23T13:06:52Z</time>
      </trkpt>
      <trkpt lat="39.0901570" lon="1.5570260">
        <ele>116.0</ele>
        <time>2020-02-23T13:06:53Z</time>
      </trkpt>
      <trkpt lat="39.0901700" lon="1.5569780">
        <ele>115.8</ele>
        <time>2020-02-23T13:06:54Z</time>
      </trkpt>
      <trkpt lat="39.0901950" lon="1.5569270">
        <ele>115.5</ele>
        <time>2020-02-23T13:06:55Z</time>
      </trkpt>
      <trkpt lat="39.0902090" lon="1.5568850">
        <ele>115.3</ele>
        <time>2020-02-23T13:06:56Z</time>
      </trkpt>
      <trkpt lat="39.0902340" lon="1.5568540">
        <ele>115.0</ele>
        <time>2020-02-23T13:06:57Z</time>
      </trkpt>
      <trkpt lat="39.0902830" lon="1.5568080">
        <ele>114.5</ele>
        <time>2020-02-23T13:06:58Z</time>
      </trkpt>
      <trkpt lat="39.0903250" lon="1.5567660">
        <ele>114.0</ele>
        <time>2020-02-23T13:06:59Z</time>
      </trkpt>
      <trkpt lat="39.0903690" lon="1.5567170">
        <ele>113.4</ele>
        <time>2020-02-23T13:07:00Z</time>
      </trkpt>
      <trkpt lat="39.0904090" lon="1.5566810">
        <ele>112.9</ele>
        <time>2020-02-23T13:07:01Z</time>
      </trkpt>
      <trkpt lat="39.0904460" lon="1.5566450">
        <ele>112.4</ele>
        <time>2020-02-23T13:07:02Z</time>
      </trkpt>
      <trkpt lat="39.0904910" lon="1.5566080">
        <ele>111.7</ele>
        <time>2020-02-23T13:07:03Z</time>
      </trkpt>
      <trkpt lat="39.0905520" lon="1.5565800">
        <ele>110.8</ele>
        <time>2020-02-23T13:07:04Z</time>
      </trkpt>
      <trkpt lat="39.0906290" lon="1.5565850">
        <ele>109.7</ele>
        <time>2020-02-23T13:07:05Z</time>
      </trkpt>
      <trkpt lat="39.0906910" lon="1.5566280">
        <ele>108.7</ele>
        <time>2020-02-23T13:07:06Z</time>
      </trkpt>
      <trkpt lat="39.0907480" lon="1.5566690">
        <ele>108.0</ele>
        <time>2020-02-23T13:07:07Z</time>
      </trkpt>
      <trkpt lat="39.0908060" lon="1.5567270">
        <ele>107.3</ele>
        <time>2020-02-23T13:07:08Z</time>
      </trkpt>
      <trkpt lat="39.0908560" lon="1.5568020">
        <ele>106.7</ele>
        <time>2020-02-23T13:07:09Z</time>
      </trkpt>
      <trkpt lat="39.0909020" lon="1.5568700">
        <ele>106.4</ele>
        <time>2020-02-23T13:07:10Z</time>
      </trkpt>
      <trkpt lat="39.0909430" lon="1.5569400">
        <ele>106.2</ele>
        <time>2020-02-23T13:07:11Z</time>
      </trkpt>
      <trkpt lat="39.0909810" lon="1.5570040">
        <ele>106.1</ele>
        <time>2020-02-23T13:07:12Z</time>
      </trkpt>
      <trkpt lat="39.0910240" lon="1.5570440">
        <ele>106.0</ele>
        <time>2020-02-23T13:07:13Z</time>
      </trkpt>
      <trkpt lat="39.0911010" lon="1.5570280">
        <ele>105.8</ele>
        <time>2020-02-23T13:07:14Z</time>
      </trkpt>
      <trkpt lat="39.0911770" lon="1.5569850">
        <ele>105.5</ele>
        <time>2020-02-23T13:07:15Z</time>
      </trkpt>
      <trkpt lat="39.0912210" lon="1.5569180">
        <ele>105.2</ele>
        <time>2020-02-23T13:07:16Z</time>
      </trkpt>
      <trkpt lat="39.0912270" lon="1.5568450">
        <ele>104.9</ele>
        <time>2020-02-23T13:07:17Z</time>
      </trkpt>
      <trkpt lat="39.0912440" lon="1.5567580">
        <ele>104.4</ele>
        <time>2020-02-23T13:07:18Z</time>
      </trkpt>
      <trkpt lat="39.0912780" lon="1.5566750">
        <ele>103.9</ele>
        <time>2020-02-23T13:07:19Z</time>
      </trkpt>
      <trkpt lat="39.0913140" lon="1.5565890">
        <ele>103.4</ele>
        <time>2020-02-23T13:07:20Z</time>
      </trkpt>
      <trkpt lat="39.0913490" lon="1.5564930">
        <ele>102.7</ele>
        <time>2020-02-23T13:07:21Z</time>
      </trkpt>
      <trkpt lat="39.0913940" lon="1.5563950">
        <ele>102.2</ele>
        <time>2020-02-23T13:07:22Z</time>
      </trkpt>
      <trkpt lat="39.0914400" lon="1.5563100">
        <ele>101.6</ele>
        <time>2020-02-23T13:07:23Z</time>
      </trkpt>
      <trkpt lat="39.0914860" lon="1.5562360">
        <ele>101.2</ele>
        <time>2020-02-23T13:07:24Z</time>
      </trkpt>
      <trkpt lat="39.0915380" lon="1.5561700">
        <ele>100.8</ele>
        <time>2020-02-23T13:07:25Z</time>
      </trkpt>
      <trkpt lat="39.0915840" lon="1.5561040">
        <ele>100.4</ele>
        <time>2020-02-23T13:07:26Z</time>
      </trkpt>
      <trkpt lat="39.0916240" lon="1.5560270">
        <ele>99.9</ele>
        <time>2020-02-23T13:07:27Z</time>
      </trkpt>
      <trkpt lat="39.0916450" lon="1.5559480">
        <ele>99.4</ele>
        <time>2020-02-23T13:07:28Z</time>
      </trkpt>
      <trkpt lat="39.0916630" lon="1.5558710">
        <ele>98.9</ele>
        <time>2020-02-23T13:07:29Z</time>
      </trkpt>
      <trkpt lat="39.0916880" lon="1.5557970">
        <ele>98.2</ele>
        <time>2020-02-23T13:07:30Z</time>
      </trkpt>
      <trkpt lat="39.0917000" lon="1.5557230">
        <ele>97.6</ele>
        <time>2020-02-23T13:07:31Z</time>
      </trkpt>
      <trkpt lat="39.0917110" lon="1.5556560">
        <ele>97.0</ele>
        <time>2020-02-23T13:07:32Z</time>
      </trkpt>
      <trkpt lat="39.0917300" lon="1.5555970">
        <ele>96.4</ele>
        <time>2020-02-23T13:07:33Z</time>
      </trkpt>
      <trkpt lat="39.0917560" lon="1.5555390">
        <ele>95.7</ele>
        <time>2020-02-23T13:07:34Z</time>
      </trkpt>
      <trkpt lat="39.0917730" lon="1.5554760">
        <ele>94.8</ele>
        <time>2020-02-23T13:07:35Z</time>
      </trkpt>
      <trkpt lat="39.0917970" lon="1.5554180">
        <ele>94.0</ele>
        <time>2020-02-23T13:07:36Z</time>
      </trkpt>
      <trkpt lat="39.0918200" lon="1.5553660">
        <ele>93.2</ele>
        <time>2020-02-23T13:07:37Z</time>
      </trkpt>
      <trkpt lat="39.0918350" lon="1.5553200">
        <ele>92.6</ele>
        <time>2020-02-23T13:07:38Z</time>
      </trkpt>
      <trkpt lat="39.0918460" lon="1.5552940">
        <ele>92.3</ele>
        <time>2020-02-23T13:07:39Z</time>
      </trkpt>
      <trkpt lat="39.0918490" lon="1.5552830">
        <ele>92.1</ele>
        <time>2020-02-23T13:07:40Z</time>
      </trkpt>
      <trkpt lat="39.0918530" lon="1.5552830">
        <ele>92.0</ele>
        <time>2020-02-23T13:07:41Z</time>
      </trkpt>
      <trkpt lat="39.0918530" lon="1.5552840">
        <ele>92.0</ele>
        <time>2020-02-23T13:07:42Z</time>
      </trkpt>
      <trkpt lat="39.0918470" lon="1.5552840">
        <ele>91.9</ele>
        <time>2020-02-23T13:07:43Z</time>
      </trkpt>
      <trkpt lat="39.0918400" lon="1.5552790">
        <ele>91.8</ele>
        <time>2020-02-23T13:07:44Z</time>
      </trkpt>
      <trkpt lat="39.0918330" lon="1.5552770">
        <ele>91.7</ele>
        <time>2020-02-23T13:07:45Z</time>
      </trkpt>
      <trkpt lat="39.0918370" lon="1.5552790">
        <ele>91.6</ele>
        <time>2020-02-23T13:07:46Z</time>
      </trkpt>
      <trkpt lat="39.0918260" lon="1.5552680">
        <ele>91.4</ele>
        <time>2020-02-23T13:07:47Z</time>
      </trkpt>
      <trkpt lat="39.0918280" lon="1.5552650">
        <ele>91.3</ele>
        <time>2020-02-23T13:07:48Z</time>
      </trkpt>
      <trkpt lat="39.0918430" lon="1.5552740">
        <ele>91.1</ele>
        <time>2020-02-23T13:07:49Z</time>
      </trkpt>
      <trkpt lat="39.0918750" lon="1.5552990">
        <ele>90.5</ele>
        <time>2020-02-23T13:07:50Z</time>
      </trkpt>
      <trkpt lat="39.0919180" lon="1.5552900">
        <ele>89.9</ele>
        <time>2020-02-23T13:07:51Z</time>
      </trkpt>
      <trkpt lat="39.0919690" lon="1.5552680">
        <ele>89.0</ele>
        <time>2020-02-23T13:07:52Z</time>
      </trkpt>
      <trkpt lat="39.0920250" lon="1.5552450">
        <ele>88.0</ele>
        <time>2020-02-23T13:07:53Z</time>
      </trkpt>
      <trkpt lat="39.0920810" lon="1.5552220">
        <ele>87.0</ele>
        <time>2020-02-23T13:07:54Z</time>
      </trkpt>
      <trkpt lat="39.0921360" lon="1.5551870">
        <ele>85.9</ele>
        <time>2020-02-23T13:07:55Z</time>
      </trkpt>
      <trkpt lat="39.0921910" lon="1.5551500">
        <ele>84.9</ele>
        <time>2020-02-23T13:07:56Z</time>
      </trkpt>
      <trkpt lat="39.0922440" lon="1.5551070">
        <ele>83.9</ele>
        <time>2020-02-23T13:07:57Z</time>
      </trkpt>
      <trkpt lat="39.0923000" lon="1.5550530">
        <ele>82.7</ele>
        <time>2020-02-23T13:07:58Z</time>
      </trkpt>
      <trkpt lat="39.0923570" lon="1.5549890">
        <ele>81.6</ele>
        <time>2020-02-23T13:07:59Z</time>
      </trkpt>
      <trkpt lat="39.0924130" lon="1.5549200">
        <ele>80.7</ele>
        <time>2020-02-23T13:08:00Z</time>
      </trkpt>
      <trkpt lat="39.0924700" lon="1.5548520">
        <ele>79.8</ele>
        <time>2020-02-23T13:08:01Z</time>
      </trkpt>
      <trkpt lat="39.0925290" lon="1.5547890">
        <ele>79.0</ele>
        <time>2020-02-23T13:08:02Z</time>
      </trkpt>
      <trkpt lat="39.0925860" lon="1.5547250">
        <ele>78.3</ele>
        <time>2020-02-23T13:08:03Z</time>
      </trkpt>
      <trkpt lat="39.0926310" lon="1.5546500">
        <ele>77.5</ele>
        <time>2020-02-23T13:08:04Z</time>
      </trkpt>
      <trkpt lat="39.0926730" lon="1.5545820">
        <ele>76.6</ele>
        <time>2020-02-23T13:08:05Z</time>
      </trkpt>
      <trkpt lat="39.0927100" lon="1.5545180">
        <ele>75.7</ele>
        <time>2020-02-23T13:08:06Z</time>
      </trkpt>
      <trkpt lat="39.0927460" lon="1.5544580">
        <ele>74.9</ele>
        <time>2020-02-23T13:08:07Z</time>
      </trkpt>
      <trkpt lat="39.0927730" lon="1.5543940">
        <ele>74.2</ele>
        <time>2020-02-23T13:08:08Z</time>
      </trkpt>
      <trkpt lat="39.0928050" lon="1.5543320">
        <ele>73.5</ele>
        <time>2020-02-23T13:08:09Z</time>
      </trkpt>
      <trkpt lat="39.0928420" lon="1.5542730">
        <ele>72.9</ele>
        <time>2020-02-23T13:08:10Z</time>
      </trkpt>
      <trkpt lat="39.0928850" lon="1.5542130">
        <ele>72.2</ele>
        <time>2020-02-23T13:08:11Z</time>
      </trkpt>
      <trkpt lat="39.0929330" lon="1.5541580">
        <ele>71.5</ele>
        <time>2020-02-23T13:08:12Z</time>
      </trkpt>
      <trkpt lat="39.0929930" lon="1.5541330">
        <ele>70.6</ele>
        <time>2020-02-23T13:08:13Z</time>
      </trkpt>
      <trkpt lat="39.0930510" lon="1.5541150">
        <ele>69.8</ele>
        <time>2020-02-23T13:08:14Z</time>
      </trkpt>
      <trkpt lat="39.0931090" lon="1.5541150">
        <ele>68.9</ele>
        <time>2020-02-23T13:08:15Z</time>
      </trkpt>
      <trkpt lat="39.0931660" lon="1.5541450">
        <ele>68.3</ele>
        <time>2020-02-23T13:08:16Z</time>
      </trkpt>
      <trkpt lat="39.0932120" lon="1.5542060">
        <ele>67.5</ele>
        <time>2020-02-23T13:08:17Z</time>
      </trkpt>
      <trkpt lat="39.0932540" lon="1.5542550">
        <ele>66.9</ele>
        <time>2020-02-23T13:08:18Z</time>
      </trkpt>
      <trkpt lat="39.0932900" lon="1.5542990">
        <ele>66.3</ele>
        <time>2020-02-23T13:08:19Z</time>
      </trkpt>
      <trkpt lat="39.0933280" lon="1.5543350">
        <ele>65.7</ele>
        <time>2020-02-23T13:08:20Z</time>
      </trkpt>
      <trkpt lat="39.0933630" lon="1.5543670">
        <ele>65.2</ele>
        <time>2020-02-23T13:08:21Z</time>
      </trkpt>
      <trkpt lat="39.0933920" lon="1.5543970">
        <ele>64.7</ele>
        <time>2020-02-23T13:08:22Z</time>
      </trkpt>
      <trkpt lat="39.0934190" lon="1.5544300">
        <ele>64.3</ele>
        <time>2020-02-23T13:08:23Z</time>
      </trkpt>
      <trkpt lat="39.0934250" lon="1.5544410">
        <ele>64.2</ele>
        <time>2020-02-23T13:08:24Z</time>
      </trkpt>
      <trkpt lat="39.0934330" lon="1.5545010">
        <ele>63.7</ele>
        <time>2020-02-23T13:08:25Z</time>
      </trkpt>
      <trkpt lat="39.0934370" lon="1.5545290">
        <ele>63.4</ele>
        <time>2020-02-23T13:08:26Z</time>
      </trkpt>
      <trkpt lat="39.0934430" lon="1.5546040">
        <ele>62.8</ele>
        <time>2020-02-23T13:08:27Z</time>
      </trkpt>
      <trkpt lat="39.0934310" lon="1.5546830">
        <ele>62.2</ele>
        <time>2020-02-23T13:08:28Z</time>
      </trkpt>
      <trkpt lat="39.0934320" lon="1.5547810">
        <ele>61.3</ele>
        <time>2020-02-23T13:08:29Z</time>
      </trkpt>
      <trkpt lat="39.0933990" lon="1.5548490">
        <ele>60.5</ele>
        <time>2020-02-23T13:08:30Z</time>
      </trkpt>
      <trkpt lat="39.0933840" lon="1.5549150">
        <ele>59.8</ele>
        <time>2020-02-23T13:08:31Z</time>
      </trkpt>
      <trkpt lat="39.0933880" lon="1.5549820">
        <ele>59.1</ele>
        <time>2020-02-23T13:08:32Z</time>
      </trkpt>
      <trkpt lat="39.0934210" lon="1.5550350">
        <ele>58.5</ele>
        <time>2020-02-23T13:08:33Z</time>
      </trkpt>
      <trkpt lat="39.0934600" lon="1.5550850">
        <ele>57.8</ele>
        <time>2020-02-23T13:08:34Z</time>
      </trkpt>
      <trkpt lat="39.0935040" lon="1.5551300">
        <ele>57.1</ele>
        <time>2020-02-23T13:08:35Z</time>
      </trkpt>
      <trkpt lat="39.0935470" lon="1.5551670">
        <ele>56.5</ele>
        <time>2020-02-23T13:08:36Z</time>
      </trkpt>
      <trkpt lat="39.0935980" lon="1.5551880">
        <ele>55.8</ele>
        <time>2020-02-23T13:08:37Z</time>
      </trkpt>
      <trkpt lat="39.0936450" lon="1.5551710">
        <ele>55.2</ele>
        <time>2020-02-23T13:08:38Z</time>
      </trkpt>
      <trkpt lat="39.0936760" lon="1.5551250">
        <ele>54.7</ele>
        <time>2020-02-23T13:08:39Z</time>
      </trkpt>
      <trkpt lat="39.0936850" lon="1.5550600">
        <ele>54.0</ele>
        <time>2020-02-23T13:08:40Z</time>
      </trkpt>
      <trkpt lat="39.0936870" lon="1.5549840">
        <ele>53.3</ele>
        <time>2020-02-23T13:08:41Z</time>
      </trkpt>
      <trkpt lat="39.0936840" lon="1.5549000">
        <ele>52.5</ele>
        <time>2020-02-23T13:08:42Z</time>
      </trkpt>
      <trkpt lat="39.0936790" lon="1.5548210">
        <ele>51.7</ele>
        <time>2020-02-23T13:08:43Z</time>
      </trkpt>
      <trkpt lat="39.0936770" lon="1.5547450">
        <ele>50.9</ele>
        <time>2020-02-23T13:08:44Z</time>
      </trkpt>
      <trkpt lat="39.0936900" lon="1.5546690">
        <ele>50.0</ele>
        <time>2020-02-23T13:08:45Z</time>
      </trkpt>
      <trkpt lat="39.0937220" lon="1.5546110">
        <ele>49.3</ele>
        <time>2020-02-23T13:08:46Z</time>
      </trkpt>
      <trkpt lat="39.0937370" lon="1.5545510">
        <ele>48.5</ele>
        <time>2020-02-23T13:08:47Z</time>
      </trkpt>
      <trkpt lat="39.0937410" lon="1.5544960">
        <ele>47.8</ele>
        <time>2020-02-23T13:08:48Z</time>
      </trkpt>
      <trkpt lat="39.0937460" lon="1.5544480">
        <ele>47.4</ele>
        <time>2020-02-23T13:08:49Z</time>
      </trkpt>
      <trkpt lat="39.0937620" lon="1.5543990">
        <ele>46.9</ele>
        <time>2020-02-23T13:08:50Z</time>
      </trkpt>
      <trkpt lat="39.0937860" lon="1.5543450">
        <ele>46.3</ele>
        <time>2020-02-23T13:08:51Z</time>
      </trkpt>
      <trkpt lat="39.0938390" lon="1.5543160">
        <ele>45.6</ele>
        <time>2020-02-23T13:08:52Z</time>
      </trkpt>
      <trkpt lat="39.0938950" lon="1.5542810">
        <ele>44.9</ele>
        <time>2020-02-23T13:08:53Z</time>
      </trkpt>
      <trkpt lat="39.0939510" lon="1.5542460">
        <ele>44.1</ele>
        <time>2020-02-23T13:08:54Z</time>
      </trkpt>
      <trkpt lat="39.0940020" lon="1.5542110">
        <ele>43.4</ele>
        <time>2020-02-23T13:08:55Z</time>
      </trkpt>
      <trkpt lat="39.0940500" lon="1.5541760">
        <ele>42.7</ele>
        <time>2020-02-23T13:08:56Z</time>
      </trkpt>
      <trkpt lat="39.0940850" lon="1.5541340">
        <ele>42.0</ele>
        <time>2020-02-23T13:08:57Z</time>
      </trkpt>
      <trkpt lat="39.0940980" lon="1.5540890">
        <ele>41.5</ele>
        <time>2020-02-23T13:08:58Z</time>
      </trkpt>
      <trkpt lat="39.0941140" lon="1.5540490">
        <ele>41.0</ele>
        <time>2020-02-23T13:08:59Z</time>
      </trkpt>
      <trkpt lat="39.0941200" lon="1.5540380">
        <ele>40.8</ele>
        <time>2020-02-23T13:09:00Z</time>
      </trkpt>
      <trkpt lat="39.0941240" lon="1.5540000">
        <ele>40.4</ele>
        <time>2020-02-23T13:09:01Z</time>
      </trkpt>
      <trkpt lat="39.0941270" lon="1.5539890">
        <ele>40.2</ele>
        <time>2020-02-23T13:09:02Z</time>
      </trkpt>
      <trkpt lat="39.0941310" lon="1.5539750">
        <ele>40.1</ele>
        <time>2020-02-23T13:09:03Z</time>
      </trkpt>
      <trkpt lat="39.0941320" lon="1.5539750">
        <ele>40.1</ele>
        <time>2020-02-23T13:09:04Z</time>
      </trkpt>
      <trkpt lat="39.0941260" lon="1.5539790">
        <ele>40.0</ele>
        <time>2020-02-23T13:09:05Z</time>
      </trkpt>
      <trkpt lat="39.0941260" lon="1.5539860">
        <ele>39.9</ele>
        <time>2020-02-23T13:09:06Z</time>
      </trkpt>
      <trkpt lat="39.0941380" lon="1.5539920">
        <ele>39.7</ele>
        <time>2020-02-23T13:09:07Z</time>
      </trkpt>
      <trkpt lat="39.0941370" lon="1.5539920">
        <ele>39.7</ele>
        <time>2020-02-23T13:09:08Z</time>
      </trkpt>
      <trkpt lat="39.0941240" lon="1.5539840">
        <ele>39.5</ele>
        <time>2020-02-23T13:09:09Z</time>
      </trkpt>
      <trkpt lat="39.0941290" lon="1.5539790">
        <ele>39.4</ele>
        <time>2020-02-23T13:09:10Z</time>
      </trkpt>
      <trkpt lat="39.0941310" lon="1.5539760">
        <ele>39.4</ele>
        <time>2020-02-23T13:09:11Z</time>
      </trkpt>
      <trkpt lat="39.0941350" lon="1.5539740">
        <ele>39.4</ele>
        <time>2020-02-23T13:09:12Z</time>
      </trkpt>
      <trkpt lat="39.0941380" lon="1.5539730">
        <ele>39.3</ele>
        <time>2020-02-23T13:09:13Z</time>
      </trkpt>
      <trkpt lat="39.0941420" lon="1.5539730">
        <ele>39.3</ele>
        <time>2020-02-23T13:09:14Z</time>
      </trkpt>
      <trkpt lat="39.0941390" lon="1.5539680">
        <ele>39.2</ele>
        <time>2020-02-23T13:09:15Z</time>
      </trkpt>
      <trkpt lat="39.0941400" lon="1.5539690">
        <ele>39.2</ele>
        <time>2020-02-23T13:09:16Z</time>
      </trkpt>
      <trkpt lat="39.0941440" lon="1.5539720">
        <ele>39.1</ele>
        <time>2020-02-23T13:09:17Z</time>
      </trkpt>
      <trkpt lat="39.0941380" lon="1.5539670">
        <ele>39.1</ele>
        <time>2020-02-23T13:09:18Z</time>
      </trkpt>
      <trkpt lat="39.0941440" lon="1.5539690">
        <ele>39.0</ele>
        <time>2020-02-23T13:09:19Z</time>
      </trkpt>
      <trkpt lat="39.0941520" lon="1.5539740">
        <ele>38.9</ele>
        <time>2020-02-23T13:09:20Z</time>
      </trkpt>
      <trkpt lat="39.0941430" lon="1.5539510">
        <ele>38.7</ele>
        <time>2020-02-23T13:09:21Z</time>
      </trkpt>
      <trkpt lat="39.0941490" lon="1.5539330">
        <ele>38.5</ele>
        <time>2020-02-23T13:09:22Z</time>
      </trkpt>
      <trkpt lat="39.0941560" lon="1.5539160">
        <ele>38.3</ele>
        <time>2020-02-23T13:09:23Z</time>
      </trkpt>
      <trkpt lat="39.0941620" lon="1.5538980">
        <ele>38.2</ele>
        <time>2020-02-23T13:10:52Z</time>
      </trkpt>
      <trkpt lat="39.0941690" lon="1.5538810">
        <ele>38.1</ele>
        <time>2020-02-23T13:10:53Z</time>
      </trkpt>
      <trkpt lat="39.0941850" lon="1.5538290">
        <ele>37.7</ele>
        <time>2020-02-23T13:10:54Z</time>
      </trkpt>
      <trkpt lat="39.0942190" lon="1.5537680">
        <ele>37.1</ele>
        <time>2020-02-23T13:10:55Z</time>
      </trkpt>
      <trkpt lat="39.0942490" lon="1.5536910">
        <ele>36.4</ele>
        <time>2020-02-23T13:10:56Z</time>
      </trkpt>
      <trkpt lat="39.0942910" lon="1.5536200">
        <ele>35.8</ele>
        <time>2020-02-23T13:10:57Z</time>
      </trkpt>
      <trkpt lat="39.0943360" lon="1.5535550">
        <ele>35.0</ele>
        <time>2020-02-23T13:10:58Z</time>
      </trkpt>
      <trkpt lat="39.0943830" lon="1.5534990">
        <ele>34.1</ele>
        <time>2020-02-23T13:10:59Z</time>
      </trkpt>
      <trkpt lat="39.0944350" lon="1.5534460">
        <ele>33.1</ele>
        <time>2020-02-23T13:11:00Z</time>
      </trkpt>
      <trkpt lat="39.0944900" lon="1.5533820">
        <ele>31.9</ele>
        <time>2020-02-23T13:11:01Z</time>
      </trkpt>
      <trkpt lat="39.0945390" lon="1.5533050">
        <ele>30.9</ele>
        <time>2020-02-23T13:11:02Z</time>
      </trkpt>
      <trkpt lat="39.0945900" lon="1.5532240">
        <ele>29.9</ele>
        <time>2020-02-23T13:11:03Z</time>
      </trkpt>
      <trkpt lat="39.0946410" lon="1.5531490">
        <ele>29.0</ele>
        <time>2020-02-23T13:11:04Z</time>
      </trkpt>
      <trkpt lat="39.0946890" lon="1.5530970">
        <ele>28.3</ele>
        <time>2020-02-23T13:11:05Z</time>
      </trkpt>
      <trkpt lat="39.0947320" lon="1.5530840">
        <ele>27.8</ele>
        <time>2020-02-23T13:11:06Z</time>
      </trkpt>
      <trkpt lat="39.0947780" lon="1.5530960">
        <ele>27.2</ele>
        <time>2020-02-23T13:11:07Z</time>
      </trkpt>
      <trkpt lat="39.0948330" lon="1.5531350">
        <ele>26.5</ele>
        <time>2020-02-23T13:11:08Z</time>
      </trkpt>
      <trkpt lat="39.0948470" lon="1.5532100">
        <ele>25.8</ele>
        <time>2020-02-23T13:11:09Z</time>
      </trkpt>
      <trkpt lat="39.0948270" lon="1.5532910">
        <ele>25.1</ele>
        <time>2020-02-23T13:11:10Z</time>
      </trkpt>
      <trkpt lat="39.0947910" lon="1.5533680">
        <ele>24.3</ele>
        <time>2020-02-23T13:11:11Z</time>
      </trkpt>
      <trkpt lat="39.0947420" lon="1.5534270">
        <ele>23.5</ele>
        <time>2020-02-23T13:11:12Z</time>
      </trkpt>
      <trkpt lat="39.0946940" lon="1.5534890">
        <ele>22.7</ele>
        <time>2020-02-23T13:11:13Z</time>
      </trkpt>
      <trkpt lat="39.0946470" lon="1.5535470">
        <ele>21.9</ele>
        <time>2020-02-23T13:11:14Z</time>
      </trkpt>
      <trkpt lat="39.0945990" lon="1.5536070">
        <ele>21.1</ele>
        <time>2020-02-23T13:11:15Z</time>
      </trkpt>
      <trkpt lat="39.0945510" lon="1.5536640">
        <ele>20.3</ele>
        <time>2020-02-23T13:11:16Z</time>
      </trkpt>
      <trkpt lat="39.0944970" lon="1.5537160">
        <ele>19.4</ele>
        <time>2020-02-23T13:11:17Z</time>
      </trkpt>
      <trkpt lat="39.0944680" lon="1.5537910">
        <ele>18.7</ele>
        <time>2020-02-23T13:11:18Z</time>
      </trkpt>
      <trkpt lat="39.0944440" lon="1.5538710">
        <ele>17.9</ele>
        <time>2020-02-23T13:11:19Z</time>
      </trkpt>
      <trkpt lat="39.0944500" lon="1.5539470">
        <ele>17.3</ele>
        <time>2020-02-23T13:11:20Z</time>
      </trkpt>
      <trkpt lat="39.0944610" lon="1.5540140">
        <ele>16.7</ele>
        <time>2020-02-23T13:11:21Z</time>
      </trkpt>
      <trkpt lat="39.0945020" lon="1.5540540">
        <ele>16.0</ele>
        <time>2020-02-23T13:11:22Z</time>
      </trkpt>
      <trkpt lat="39.0945520" lon="1.5540660">
        <ele>15.4</ele>
        <time>2020-02-23T13:11:23Z</time>
      </trkpt>
      <trkpt lat="39.0945990" lon="1.5540310">
        <ele>14.8</ele>
        <time>2020-02-23T13:11:24Z</time>
      </trkpt>
      <trkpt lat="39.0946500" lon="1.5539730">
        <ele>14.1</ele>
        <time>2020-02-23T13:11:25Z</time>
      </trkpt>
      <trkpt lat="39.0947140" lon="1.5539200">
        <ele>13.4</ele>
        <time>2020-02-23T13:11:26Z</time>
      </trkpt>
      <trkpt lat="39.0947900" lon="1.5538740">
        <ele>12.8</ele>
        <time>2020-02-23T13:11:27Z</time>
      </trkpt>
      <trkpt lat="39.0948690" lon="1.5538200">
        <ele>12.2</ele>
        <time>2020-02-23T13:11:28Z</time>
      </trkpt>
      <trkpt lat="39.0949520" lon="1.5537550">
        <ele>11.7</ele>
        <time>2020-02-23T13:11:29Z</time>
      </trkpt>
      <trkpt lat="39.0950330" lon="1.5537070">
        <ele>11.2</ele>
        <time>2020-02-23T13:11:30Z</time>
      </trkpt>
      <trkpt lat="39.0951050" lon="1.5536700">
        <ele>10.7</ele>
        <time>2020-02-23T13:11:31Z</time>
      </trkpt>
      <trkpt lat="39.0951700" lon="1.5536410">
        <ele>10.3</ele>
        <time>2020-02-23T13:11:32Z</time>
      </trkpt>
      <trkpt lat="39.0952340" lon="1.5536670">
        <ele>9.9</ele>
        <time>2020-02-23T13:11:33Z</time>
      </trkpt>
      <trkpt lat="39.0953060" lon="1.5536970">
        <ele>9.5</ele>
        <time>2020-02-23T13:11:34Z</time>
      </trkpt>
      <trkpt lat="39.0953840" lon="1.5537260">
        <ele>9.1</ele>
        <time>2020-02-23T13:11:35Z</time>
      </trkpt>
      <trkpt lat="39.0954650" lon="1.5537560">
        <ele>8.7</ele>
        <time>2020-02-23T13:11:36Z</time>
      </trkpt>
      <trkpt lat="39.0955500" lon="1.5537800">
        <ele>8.4</ele>
        <time>2020-02-23T13:11:37Z</time>
      </trkpt>
      <trkpt lat="39.0956350" lon="1.5537800">
        <ele>8.3</ele>
        <time>2020-02-23T13:11:38Z</time>
      </trkpt>
      <trkpt lat="39.0957120" lon="1.5537600">
        <ele>8.2</ele>
        <time>2020-02-23T13:11:39Z</time>
      </trkpt>
      <trkpt lat="39.0957830" lon="1.5537440">
        <ele>8.2</ele>
        <time>2020-02-23T13:11:40Z</time>
      </trkpt>
      <trkpt lat="39.0958560" lon="1.5537770">
        <ele>8.2</ele>
        <time>2020-02-23T13:11:41Z</time>
      </trkpt>
      <trkpt lat="39.0959370" lon="1.5538220">
        <ele>8.4</ele>
        <time>2020-02-23T13:11:42Z</time>
      </trkpt>
      <trkpt lat="39.0960320" lon="1.5538670">
        <ele>8.8</ele>
        <time>2020-02-23T13:11:43Z</time>
      </trkpt>
      <trkpt lat="39.0961360" lon="1.5539140">
        <ele>9.9</ele>
        <time>2020-02-23T13:11:44Z</time>
      </trkpt>
      <trkpt lat="39.0962330" lon="1.5539550">
        <ele>11.7</ele>
        <time>2020-02-23T13:11:45Z</time>
      </trkpt>
      <trkpt lat="39.0962990" lon="1.5539810">
        <ele>13.1</ele>
        <time>2020-02-23T13:11:46Z</time>
      </trkpt>
      <trkpt lat="39.0963440" lon="1.5539820">
        <ele>14.1</ele>
        <time>2020-02-23T13:11:47Z</time>
      </trkpt>
      <trkpt lat="39.0963790" lon="1.5539950">
        <ele>14.9</ele>
        <time>2020-02-23T13:11:48Z</time>
      </trkpt>
      <trkpt lat="39.0964110" lon="1.5539830">
        <ele>15.2</ele>
        <time>2020-02-23T13:11:49Z</time>
      </trkpt>
      <trkpt lat="39.0964170" lon="1.5539770">
        <ele>15.1</ele>
        <time>2020-02-23T13:11:50Z</time>
      </trkpt>
      <trkpt lat="39.0964360" lon="1.5539730">
        <ele>14.8</ele>
        <time>2020-02-23T13:11:51Z</time>
      </trkpt>
      <trkpt lat="39.0964520" lon="1.5539730">
        <ele>14.5</ele>
        <time>2020-02-23T13:11:52Z</time>
      </trkpt>
      <trkpt lat="39.0964560" lon="1.5539590">
        <ele>14.4</ele>
        <time>2020-02-23T13:11:53Z</time>
      </trkpt>
      <trkpt lat="39.0964510" lon="1.5539460">
        <ele>14.2</ele>
        <time>2020-02-23T13:11:54Z</time>
      </trkpt>
      <trkpt lat="39.0964550" lon="1.5539440">
        <ele>14.1</ele>
        <time>2020-02-23T13:11:55Z</time>
      </trkpt>
      <trkpt lat="39.0964610" lon="1.5539530">
        <ele>14.0</ele>
        <time>2020-02-23T13:11:56Z</time>
      </trkpt>
      <trkpt lat="39.0964650" lon="1.5539450">
        <ele>13.8</ele>
        <time>2020-02-23T13:11:57Z</time>
      </trkpt>
      <trkpt lat="39.0964670" lon="1.5539540">
        <ele>13.7</ele>
        <time>2020-02-23T13:11:58Z</time>
      </trkpt>
      <trkpt lat="39.0964690" lon="1.5539550">
        <ele>13.7</ele>
        <time>2020-02-23T13:11:59Z</time>
      </trkpt>
      <trkpt lat="39.0964710" lon="1.5539470">
        <ele>13.6</ele>
        <time>2020-02-23T13:12:00Z</time>
      </trkpt>
      <trkpt lat="39.0964680" lon="1.5539610">
        <ele>13.4</ele>
        <time>2020-02-23T13:12:01Z</time>
      </trkpt>
      <trkpt lat="39.0964660" lon="1.5539600">
        <ele>13.4</ele>
        <time>2020-02-23T13:12:02Z</time>
      </trkpt>
      <trkpt lat="39.0964580" lon="1.5539760">
        <ele>13.1</ele>
        <time>2020-02-23T13:12:03Z</time>
      </trkpt>
      <trkpt lat="39.0964680" lon="1.5539930">
        <ele>12.9</ele>
        <time>2020-02-23T13:12:04Z</time>
      </trkpt>
      <trkpt lat="39.0964530" lon="1.5540080">
        <ele>12.6</ele>
        <time>2020-02-23T13:12:05Z</time>
      </trkpt>
      <trkpt lat="39.0964440" lon="1.5540080">
        <ele>12.4</ele>
        <time>2020-02-23T13:12:06Z</time>
      </trkpt>
      <trkpt lat="39.0964330" lon="1.5540080">
        <ele>12.2</ele>
        <time>2020-02-23T13:12:07Z</time>
      </trkpt>
      <trkpt lat="39.0964240" lon="1.5540130">
        <ele>12.1</ele>
        <time>2020-02-23T13:12:08Z</time>
      </trkpt>
      <trkpt lat="39.0964120" lon="1.5540120">
        <ele>11.9</ele>
        <time>2020-02-23T13:12:09Z</time>
      </trkpt>
      <trkpt lat="39.0964020" lon="1.5540100">
        <ele>11.8</ele>
        <time>2020-02-23T13:12:10Z</time>
      </trkpt>
      <trkpt lat="39.0963920" lon="1.5540020">
        <ele>11.7</ele>
        <time>2020-02-23T13:12:11Z</time>
      </trkpt>
      <trkpt lat="39.0963770" lon="1.5539970">
        <ele>11.5</ele>
        <time>2020-02-23T13:12:12Z</time>
      </trkpt>
      <trkpt lat="39.0963550" lon="1.5539990">
        <ele>11.2</ele>
        <time>2020-02-23T13:12:13Z</time>
      </trkpt>
      <trkpt lat="39.0963450" lon="1.5539960">
        <ele>11.1</ele>
        <time>2020-02-23T13:12:14Z</time>
      </trkpt>
      <trkpt lat="39.0963350" lon="1.5539940">
        <ele>10.9</ele>
        <time>2020-02-23T13:12:15Z</time>
      </trkpt>
      <trkpt lat="39.0963100" lon="1.5539800">
        <ele>10.6</ele>
        <time>2020-02-23T13:12:16Z</time>
      </trkpt>
      <trkpt lat="39.0963010" lon="1.5539780">
        <ele>10.5</ele>
        <time>2020-02-23T13:12:17Z</time>
      </trkpt>
      <trkpt lat="39.0962780" lon="1.5539770">
        <ele>10.2</ele>
        <time>2020-02-23T13:12:18Z</time>
      </trkpt>
      <trkpt lat="39.0962490" lon="1.5539740">
        <ele>9.9</ele>
        <time>2020-02-23T13:12:19Z</time>
      </trkpt>
      <trkpt lat="39.0962360" lon="1.5539690">
        <ele>9.7</ele>
        <time>2020-02-23T13:12:20Z</time>
      </trkpt>
      <trkpt lat="39.0962070" lon="1.5539580">
        <ele>9.4</ele>
        <time>2020-02-23T13:12:21Z</time>
      </trkpt>
      <trkpt lat="39.0961740" lon="1.5539540">
        <ele>9.2</ele>
        <time>2020-02-23T13:12:22Z</time>
      </trkpt>
      <trkpt lat="39.0961450" lon="1.5539400">
        <ele>9.0</ele>
        <time>2020-02-23T13:12:23Z</time>
      </trkpt>
      <trkpt lat="39.0961090" lon="1.5539280">
        <ele>8.8</ele>
        <time>2020-02-23T13:12:24Z</time>
      </trkpt>
      <trkpt lat="39.0960790" lon="1.5538940">
        <ele>8.6</ele>
        <time>2020-02-23T13:12:25Z</time>
      </trkpt>
      <trkpt lat="39.0960690" lon="1.5538830">
        <ele>8.6</ele>
        <time>2020-02-23T13:12:26Z</time>
      </trkpt>
      <trkpt lat="39.0960520" lon="1.5538530">
        <ele>8.5</ele>
        <time>2020-02-23T13:12:27Z</time>
      </trkpt>
      <trkpt lat="39.0960550" lon="1.5538540">
        <ele>8.5</ele>
        <time>2020-02-23T13:12:28Z</time>
      </trkpt>
      <trkpt lat="39.0960560" lon="1.5538430">
        <ele>8.5</ele>
        <time>2020-02-23T13:12:29Z</time>
      </trkpt>
      <trkpt lat="39.0960550" lon="1.5538180">
        <ele>8.5</ele>
        <time>2020-02-23T13:12:30Z</time>
      </trkpt>
      <trkpt lat="39.0960480" lon="1.5537820">
        <ele>8.4</ele>
        <time>2020-02-23T13:12:31Z</time>
      </trkpt>
      <trkpt lat="39.0960240" lon="1.5537460">
        <ele>8.3</ele>
        <time>2020-02-23T13:12:32Z</time>
      </trkpt>
      <trkpt lat="39.0960140" lon="1.5537370">
        <ele>8.3</ele>
        <time>2020-02-23T13:12:33Z</time>
      </trkpt>
      <trkpt lat="39.0959950" lon="1.5537190">
        <ele>8.3</ele>
        <time>2020-02-23T13:12:34Z</time>
      </trkpt>
      <trkpt lat="39.0959840" lon="1.5537130">
        <ele>8.3</ele>
        <time>2020-02-23T13:12:35Z</time>
      </trkpt>
      <trkpt lat="39.0959720" lon="1.5537030">
        <ele>8.3</ele>
        <time>2020-02-23T13:12:36Z</time>
      </trkpt>
      <trkpt lat="39.0959620" lon="1.5536890">
        <ele>8.2</ele>
        <time>2020-02-23T13:12:37Z</time>
      </trkpt>
      <trkpt lat="39.0959530" lon="1.5536810">
        <ele>8.2</ele>
        <time>2020-02-23T13:12:38Z</time>
      </trkpt>
      <trkpt lat="39.0959350" lon="1.5536640">
        <ele>8.2</ele>
        <time>2020-02-23T13:12:39Z</time>
      </trkpt>
      <trkpt lat="39.0959010" lon="1.5536410">
        <ele>8.2</ele>
        <time>2020-02-23T13:12:40Z</time>
      </trkpt>
      <trkpt lat="39.0958900" lon="1.5536340">
        <ele>8.2</ele>
        <time>2020-02-23T13:12:41Z</time>
      </trkpt>
      <trkpt lat="39.0958700" lon="1.5535950">
        <ele>8.2</ele>
        <time>2020-02-23T13:12:42Z</time>
      </trkpt>
      <trkpt lat="39.0958600" lon="1.5535810">
        <ele>8.2</ele>
        <time>2020-02-23T13:12:43Z</time>
      </trkpt>
      <trkpt lat="39.0958410" lon="1.5535480">
        <ele>8.2</ele>
        <time>2020-02-23T13:12:44Z</time>
      </trkpt>
      <trkpt lat="39.0958320" lon="1.5535360">
        <ele>8.2</ele>
        <time>2020-02-23T13:12:45Z</time>
      </trkpt>
      <trkpt lat="39.0958090" lon="1.5535060">
        <ele>8.2</ele>
        <time>2020-02-23T13:12:46Z</time>
      </trkpt>
      <trkpt lat="39.0958000" lon="1.5534960">
        <ele>8.2</ele>
        <time>2020-02-23T13:12:47Z</time>
      </trkpt>
      <trkpt lat="39.0957770" lon="1.5534600">
        <ele>8.2</ele>
        <time>2020-02-23T13:12:48Z</time>
      </trkpt>
      <trkpt lat="39.0957690" lon="1.5534470">
        <ele>8.4</ele>
        <time>2020-02-23T13:12:49Z</time>
      </trkpt>
      <trkpt lat="39.0957520" lon="1.5534100">
        <ele>8.6</ele>
        <time>2020-02-23T13:12:50Z</time>
      </trkpt>
      <trkpt lat="39.0957470" lon="1.5533970">
        <ele>8.7</ele>
        <time>2020-02-23T13:12:51Z</time>
      </trkpt>
      <trkpt lat="39.0957500" lon="1.5533820">
        <ele>8.7</ele>
        <time>2020-02-23T13:12:52Z</time>
      </trkpt>
      <trkpt lat="39.0957480" lon="1.5533620">
        <ele>8.9</ele>
        <time>2020-02-23T13:12:53Z</time>
      </trkpt>
      <trkpt lat="39.0957370" lon="1.5533410">
        <ele>8.9</ele>
        <time>2020-02-23T13:12:54Z</time>
      </trkpt>
      <trkpt lat="39.0957300" lon="1.5533290">
        <ele>8.9</ele>
        <time>2020-02-23T13:12:55Z</time>
      </trkpt>
      <trkpt lat="39.0957230" lon="1.5533170">
        <ele>9.3</ele>
        <time>2020-02-23T13:12:56Z</time>
      </trkpt>
      <trkpt lat="39.0957110" lon="1.5533050">
        <ele>9.3</ele>
        <time>2020-02-23T13:12:57Z</time>
      </trkpt>
      <trkpt lat="39.0956990" lon="1.5532880">
        <ele>9.3</ele>
        <time>2020-02-23T13:12:58Z</time>
      </trkpt>
      <trkpt lat="39.0956820" lon="1.5532590">
        <ele>9.7</ele>
        <time>2020-02-23T13:12:59Z</time>
      </trkpt>
      <trkpt lat="39.0956750" lon="1.5532500">
        <ele>9.7</ele>
        <time>2020-02-23T13:13:00Z</time>
      </trkpt>
      <trkpt lat="39.0956510" lon="1.5532270">
        <ele>10.2</ele>
        <time>2020-02-23T13:13:01Z</time>
      </trkpt>
      <trkpt lat="39.0956430" lon="1.5532190">
        <ele>10.2</ele>
        <time>2020-02-23T13:13:02Z</time>
      </trkpt>
      <trkpt lat="39.0956200" lon="1.5531830">
        <ele>10.7</ele>
        <time>2020-02-23T13:13:03Z</time>
      </trkpt>
      <trkpt lat="39.0956140" lon="1.5531710">
        <ele>10.7</ele>
        <time>2020-02-23T13:13:04Z</time>
      </trkpt>
      <trkpt lat="39.0956030" lon="1.5531580">
        <ele>10.7</ele>
        <time>2020-02-23T13:13:05Z</time>
      </trkpt>
      <trkpt lat="39.0955880" lon="1.5531390">
        <ele>11.2</ele>
        <time>2020-02-23T13:13:06Z</time>
      </trkpt>
      <trkpt lat="39.0955620" lon="1.5531200">
        <ele>11.5</ele>
        <time>2020-02-23T13:13:07Z</time>
      </trkpt>
      <trkpt lat="39.0955380" lon="1.5530970">
        <ele>11.8</ele>
        <time>2020-02-23T13:13:08Z</time>
      </trkpt>
      <trkpt lat="39.0955290" lon="1.5530860">
        <ele>12.0</ele>
        <time>2020-02-23T13:13:09Z</time>
      </trkpt>
      <trkpt lat="39.0955230" lon="1.5530710">
        <ele>12.0</ele>
        <time>2020-02-23T13:13:10Z</time>
      </trkpt>
      <trkpt lat="39.0955130" lon="1.5530550">
        <ele>12.3</ele>
        <time>2020-02-23T13:13:11Z</time>
      </trkpt>
      <trkpt lat="39.0955040" lon="1.5530210">
        <ele>12.3</ele>
        <time>2020-02-23T13:13:12Z</time>
      </trkpt>
      <trkpt lat="39.0955000" lon="1.5530090">
        <ele>12.6</ele>
        <time>2020-02-23T13:13:13Z</time>
      </trkpt>
      <trkpt lat="39.0954990" lon="1.5529810">
        <ele>12.6</ele>
        <time>2020-02-23T13:13:14Z</time>
      </trkpt>
      <trkpt lat="39.0954990" lon="1.5529690">
        <ele>13.0</ele>
        <time>2020-02-23T13:13:15Z</time>
      </trkpt>
      <trkpt lat="39.0955000" lon="1.5529560">
        <ele>13.0</ele>
        <time>2020-02-23T13:13:16Z</time>
      </trkpt>
      <trkpt lat="39.0954990" lon="1.5529130">
        <ele>13.4</ele>
        <time>2020-02-23T13:13:17Z</time>
      </trkpt>
      <trkpt lat="39.0954990" lon="1.5529010">
        <ele>13.4</ele>
        <time>2020-02-23T13:13:18Z</time>
      </trkpt>
      <trkpt lat="39.0954970" lon="1.5528820">
        <ele>13.7</ele>
        <time>2020-02-23T13:13:19Z</time>
      </trkpt>
      <trkpt lat="39.0954990" lon="1.5528590">
        <ele>13.7</ele>
        <time>2020-02-23T13:13:20Z</time>
      </trkpt>
      <trkpt lat="39.0955090" lon="1.5528240">
        <ele>14.2</ele>
        <time>2020-02-23T13:13:21Z</time>
      </trkpt>
      <trkpt lat="39.0955110" lon="1.5528120">
        <ele>14.2</ele>
        <time>2020-02-23T13:13:22Z</time>
      </trkpt>
      <trkpt lat="39.0955140" lon="1.5527900">
        <ele>14.6</ele>
        <time>2020-02-23T13:13:23Z</time>
      </trkpt>
      <trkpt lat="39.0955240" lon="1.5527690">
        <ele>14.6</ele>
        <time>2020-02-23T13:13:24Z</time>
      </trkpt>
      <trkpt lat="39.0955390" lon="1.5527570">
        <ele>14.7</ele>
        <time>2020-02-23T13:13:25Z</time>
      </trkpt>
      <trkpt lat="39.0955440" lon="1.5527490">
        <ele>14.7</ele>
        <time>2020-02-23T13:13:26Z</time>
      </trkpt>
      <trkpt lat="39.0955480" lon="1.5527400">
        <ele>14.7</ele>
        <time>2020-02-23T13:13:27Z</time>
      </trkpt>
      <trkpt lat="39.0955530" lon="1.5527320">
        <ele>14.7</ele>
        <time>2020-02-23T13:13:28Z</time>
      </trkpt>
      <trkpt lat="39.0955640" lon="1.5527110">
        <ele>14.9</ele>
        <time>2020-02-23T13:13:29Z</time>
      </trkpt>
      <trkpt lat="39.0955710" lon="1.5527000">
        <ele>14.9</ele>
        <time>2020-02-23T13:13:30Z</time>
      </trkpt>
      <trkpt lat="39.0955750" lon="1.5526810">
        <ele>14.9</ele>
        <time>2020-02-23T13:13:31Z</time>
      </trkpt>
      <trkpt lat="39.0955820" lon="1.5526640">
        <ele>15.3</ele>
        <time>2020-02-23T13:13:32Z</time>
      </trkpt>
      <trkpt lat="39.0955870" lon="1.5526460">
        <ele>15.3</ele>
        <time>2020-02-23T13:13:33Z</time>
      </trkpt>
      <trkpt lat="39.0955930" lon="1.5526260">
        <ele>15.8</ele>
        <time>2020-02-23T13:13:34Z</time>
      </trkpt>
      <trkpt lat="39.0956030" lon="1.5525970">
        <ele>15.5</ele>
        <time>2020-02-23T13:13:35Z</time>
      </trkpt>
      <trkpt lat="39.0956070" lon="1.5525860">
        <ele>16.0</ele>
        <time>2020-02-23T13:13:36Z</time>
      </trkpt>
      <trkpt lat="39.0956120" lon="1.5525740">
        <ele>16.0</ele>
        <time>2020-02-23T13:13:37Z</time>
      </trkpt>
      <trkpt lat="39.0956110" lon="1.5525400">
        <ele>16.6</ele>
        <time>2020-02-23T13:13:38Z</time>
      </trkpt>
      <trkpt lat="39.0956080" lon="1.5525240">
        <ele>16.6</ele>
        <time>2020-02-23T13:13:39Z</time>
      </trkpt>
      <trkpt lat="39.0956100" lon="1.5525060">
        <ele>16.6</ele>
        <time>2020-02-23T13:13:40Z</time>
      </trkpt>
      <trkpt lat="39.0956090" lon="1.5524820">
        <ele>17.2</ele>
        <time>2020-02-23T13:13:41Z</time>
      </trkpt>
      <trkpt lat="39.0956090" lon="1.5524390">
        <ele>17.9</ele>
        <time>2020-02-23T13:13:42Z</time>
      </trkpt>
      <trkpt lat="39.0956070" lon="1.5524290">
        <ele>17.9</ele>
        <time>2020-02-23T13:13:43Z</time>
      </trkpt>
      <trkpt lat="39.0956050" lon="1.5524070">
        <ele>18.5</ele>
        <time>2020-02-23T13:13:44Z</time>
      </trkpt>
      <trkpt lat="39.0956070" lon="1.5523880">
        <ele>18.5</ele>
        <time>2020-02-23T13:13:45Z</time>
      </trkpt>
      <trkpt lat="39.0956070" lon="1.5523620">
        <ele>19.2</ele>
        <time>2020-02-23T13:13:46Z</time>
      </trkpt>
      <trkpt lat="39.0956030" lon="1.5523510">
        <ele>19.2</ele>
        <time>2020-02-23T13:13:47Z</time>
      </trkpt>
      <trkpt lat="39.0955990" lon="1.5523400">
        <ele>19.2</ele>
        <time>2020-02-23T13:13:48Z</time>
      </trkpt>
      <trkpt lat="39.0955950" lon="1.5523210">
        <ele>20.2</ele>
        <time>2020-02-23T13:13:49Z</time>
      </trkpt>
      <trkpt lat="39.0955870" lon="1.5523030">
        <ele>20.2</ele>
        <time>2020-02-23T13:13:50Z</time>
      </trkpt>
      <trkpt lat="39.0955810" lon="1.5522800">
        <ele>20.8</ele>
        <time>2020-02-23T13:13:51Z</time>
      </trkpt>
      <trkpt lat="39.0955810" lon="1.5522610">
        <ele>20.8</ele>
        <time>2020-02-23T13:13:52Z</time>
      </trkpt>
      <trkpt lat="39.0955940" lon="1.5522600">
        <ele>20.8</ele>
        <time>2020-02-23T13:13:53Z</time>
      </trkpt>
      <trkpt lat="39.0956130" lon="1.5522680">
        <ele>20.5</ele>
        <time>2020-02-23T13:13:54Z</time>
      </trkpt>
      <trkpt lat="39.0956160" lon="1.5522730">
        <ele>20.5</ele>
        <time>2020-02-23T13:13:55Z</time>
      </trkpt>
      <trkpt lat="39.0956260" lon="1.5522670">
        <ele>20.5</ele>
        <time>2020-02-23T13:13:56Z</time>
      </trkpt>
      <trkpt lat="39.0956360" lon="1.5522630">
        <ele>20.2</ele>
        <time>2020-02-23T13:13:57Z</time>
      </trkpt>
      <trkpt lat="39.0956460" lon="1.5522570">
        <ele>20.2</ele>
        <time>2020-02-23T13:13:58Z</time>
      </trkpt>
      <trkpt lat="39.0956560" lon="1.5522590">
        <ele>20.2</ele>
        <time>2020-02-23T13:13:59Z</time>
      </trkpt>
      <trkpt lat="39.0956640" lon="1.5522570">
        <ele>20.0</ele>
        <time>2020-02-23T13:14:00Z</time>
      </trkpt>
      <trkpt lat="39.0956800" lon="1.5522590">
        <ele>20.0</ele>
        <time>2020-02-23T13:14:01Z</time>
      </trkpt>
      <trkpt lat="39.0957020" lon="1.5522680">
        <ele>19.8</ele>
        <time>2020-02-23T13:14:02Z</time>
      </trkpt>
      <trkpt lat="39.0957110" lon="1.5522680">
        <ele>19.8</ele>
        <time>2020-02-23T13:14:03Z</time>
      </trkpt>
      <trkpt lat="39.0957200" lon="1.5522690">
        <ele>19.8</ele>
        <time>2020-02-23T13:14:04Z</time>
      </trkpt>
      <trkpt lat="39.0957320" lon="1.5522740">
        <ele>19.6</ele>
        <time>2020-02-23T13:14:05Z</time>
      </trkpt>
      <trkpt lat="39.0957400" lon="1.5522790">
        <ele>19.6</ele>
        <time>2020-02-23T13:14:06Z</time>
      </trkpt>
      <trkpt lat="39.0957530" lon="1.5522880">
        <ele>19.6</ele>
        <time>2020-02-23T13:14:07Z</time>
      </trkpt>
      <trkpt lat="39.0957690" lon="1.5523020">
        <ele>18.8</ele>
        <time>2020-02-23T13:14:08Z</time>
      </trkpt>
      <trkpt lat="39.0957870" lon="1.5522920">
        <ele>18.8</ele>
        <time>2020-02-23T13:14:09Z</time>
      </trkpt>
      <trkpt lat="39.0957950" lon="1.5522820">
        <ele>19.4</ele>
        <time>2020-02-23T13:14:10Z</time>
      </trkpt>
      <trkpt lat="39.0957960" lon="1.5522760">
        <ele>19.4</ele>
        <time>2020-02-23T13:14:11Z</time>
      </trkpt>
      <trkpt lat="39.0957930" lon="1.5522760">
        <ele>19.4</ele>
        <time>2020-02-23T13:14:12Z</time>
      </trkpt>
      <trkpt lat="39.0957900" lon="1.5522870">
        <ele>19.4</ele>
        <time>2020-02-23T13:14:13Z</time>
      </trkpt>
      <trkpt lat="39.0957920" lon="1.5522890">
        <ele>19.4</ele>
        <time>2020-02-23T13:14:14Z</time>
      </trkpt>
      <trkpt lat="39.0957950" lon="1.5523030">
        <ele>18.8</ele>
        <time>2020-02-23T13:14:15Z</time>
      </trkpt>
      <trkpt lat="39.0957960" lon="1.5523140">
        <ele>18.8</ele>
        <time>2020-02-23T13:14:16Z</time>
      </trkpt>
      <trkpt lat="39.0958030" lon="1.5523310">
        <ele>18.6</ele>
        <time>2020-02-23T13:14:17Z</time>
      </trkpt>
      <trkpt lat="39.0958070" lon="1.5523400">
        <ele>17.9</ele>
        <time>2020-02-23T13:14:18Z</time>
      </trkpt>
      <trkpt lat="39.0958150" lon="1.5523600">
        <ele>17.9</ele>
        <time>2020-02-23T13:14:19Z</time>
      </trkpt>
      <trkpt lat="39.0958160" lon="1.5523660">
        <ele>17.9</ele>
        <time>2020-02-23T13:14:20Z</time>
      </trkpt>
      <trkpt lat="39.0958150" lon="1.5523700">
        <ele>17.9</ele>
        <time>2020-02-23T13:14:21Z</time>
      </trkpt>
      <trkpt lat="39.0958230" lon="1.5523710">
        <ele>17.9</ele>
        <time>2020-02-23T13:14:22Z</time>
      </trkpt>
      <trkpt lat="39.0958320" lon="1.5523750">
        <ele>17.8</ele>
        <time>2020-02-23T13:14:23Z</time>
      </trkpt>
      <trkpt lat="39.0958350" lon="1.5523810">
        <ele>17.1</ele>
        <time>2020-02-23T13:14:24Z</time>
      </trkpt>
      <trkpt lat="39.0958370" lon="1.5523900">
        <ele>17.1</ele>
        <time>2020-02-23T13:14:25Z</time>
      </trkpt>
      <trkpt lat="39.0958360" lon="1.5523940">
        <ele>17.1</ele>
        <time>2020-02-23T13:14:26Z</time>
      </trkpt>
      <trkpt lat="39.0958390" lon="1.5524070">
        <ele>17.1</ele>
        <time>2020-02-23T13:14:27Z</time>
      </trkpt>
      <trkpt lat="39.0958470" lon="1.5524220">
        <ele>16.5</ele>
        <time>2020-02-23T13:14:28Z</time>
      </trkpt>
      <trkpt lat="39.0958520" lon="1.5524360">
        <ele>16.5</ele>
        <time>2020-02-23T13:14:29Z</time>
      </trkpt>
      <trkpt lat="39.0958600" lon="1.5524490">
        <ele>16.5</ele>
        <time>2020-02-23T13:14:30Z</time>
      </trkpt>
      <trkpt lat="39.0958690" lon="1.5524600">
        <ele>16.3</ele>
        <time>2020-02-23T13:14:31Z</time>
      </trkpt>
      <trkpt lat="39.0958730" lon="1.5524660">
        <ele>15.7</ele>
        <time>2020-02-23T13:14:32Z</time>
      </trkpt>
      <trkpt lat="39.0958740" lon="1.5524740">
        <ele>15.7</ele>
        <time>2020-02-23T13:14:33Z</time>
      </trkpt>
      <trkpt lat="39.0958720" lon="1.5524830">
        <ele>15.7</ele>
        <time>2020-02-23T13:14:34Z</time>
      </trkpt>
      <trkpt lat="39.0958720" lon="1.5525010">
        <ele>15.7</ele>
        <time>2020-02-23T13:14:35Z</time>
      </trkpt>
      <trkpt lat="39.0958750" lon="1.5525240">
        <ele>15.0</ele>
        <time>2020-02-23T13:14:36Z</time>
      </trkpt>
      <trkpt lat="39.0958670" lon="1.5525400">
        <ele>15.0</ele>
        <time>2020-02-23T13:14:37Z</time>
      </trkpt>
      <trkpt lat="39.0958640" lon="1.5525490">
        <ele>14.4</ele>
        <time>2020-02-23T13:14:38Z</time>
      </trkpt>
      <trkpt lat="39.0958630" lon="1.5525530">
        <ele>14.6</ele>
        <time>2020-02-23T13:14:39Z</time>
      </trkpt>
      <trkpt lat="39.0958610" lon="1.5525560">
        <ele>14.6</ele>
        <time>2020-02-23T13:14:40Z</time>
      </trkpt>
      <trkpt lat="39.0958600" lon="1.5525600">
        <ele>14.6</ele>
        <time>2020-02-23T13:14:41Z</time>
      </trkpt>
      <trkpt lat="39.0958580" lon="1.5525640">
        <ele>14.6</ele>
        <time>2020-02-23T13:14:42Z</time>
      </trkpt>
      <trkpt lat="39.0958560" lon="1.5525680">
        <ele>14.6</ele>
        <time>2020-02-23T13:14:43Z</time>
      </trkpt>
      <trkpt lat="39.0958550" lon="1.5525720">
        <ele>14.6</ele>
        <time>2020-02-23T13:14:44Z</time>
      </trkpt>
      <trkpt lat="39.0958530" lon="1.5525750">
        <ele>14.6</ele>
        <time>2020-02-23T13:14:45Z</time>
      </trkpt>
      <trkpt lat="39.0958520" lon="1.5525790">
        <ele>14.6</ele>
        <time>2020-02-23T13:14:46Z</time>
      </trkpt>
      <trkpt lat="39.0958500" lon="1.5525830">
        <ele>14.6</ele>
        <time>2020-02-23T13:14:47Z</time>
      </trkpt>
      <trkpt lat="39.0958560" lon="1.5525910">
        <ele>14.6</ele>
        <time>2020-02-23T13:14:48Z</time>
      </trkpt>
      <trkpt lat="39.0958580" lon="1.5525990">
        <ele>14.1</ele>
        <time>2020-02-23T13:14:49Z</time>
      </trkpt>
      <trkpt lat="39.0958590" lon="1.5526020">
        <ele>14.1</ele>
        <time>2020-02-23T13:14:50Z</time>
      </trkpt>
      <trkpt lat="39.0958630" lon="1.5526080">
        <ele>14.1</ele>
        <time>2020-02-23T13:14:51Z</time>
      </trkpt>
      <trkpt lat="39.0958660" lon="1.5526120">
        <ele>13.9</ele>
        <time>2020-02-23T13:14:52Z</time>
      </trkpt>
      <trkpt lat="39.0958750" lon="1.5526220">
        <ele>13.9</ele>
        <time>2020-02-23T13:14:53Z</time>
      </trkpt>
      <trkpt lat="39.0958850" lon="1.5526390">
        <ele>13.4</ele>
        <time>2020-02-23T13:14:54Z</time>
      </trkpt>
      <trkpt lat="39.0958950" lon="1.5526480">
        <ele>13.4</ele>
        <time>2020-02-23T13:14:55Z</time>
      </trkpt>
      <trkpt lat="39.0959040" lon="1.5526570">
        <ele>13.2</ele>
        <time>2020-02-23T13:14:56Z</time>
      </trkpt>
      <trkpt lat="39.0959170" lon="1.5526620">
        <ele>13.2</ele>
        <time>2020-02-23T13:14:57Z</time>
      </trkpt>
      <trkpt lat="39.0959220" lon="1.5526640">
        <ele>13.2</ele>
        <time>2020-02-23T13:14:58Z</time>
      </trkpt>
      <trkpt lat="39.0959200" lon="1.5526670">
        <ele>13.2</ele>
        <time>2020-02-23T13:14:59Z</time>
      </trkpt>
      <trkpt lat="39.0959220" lon="1.5526720">
        <ele>13.2</ele>
        <time>2020-02-23T13:15:00Z</time>
      </trkpt>
      <trkpt lat="39.0959230" lon="1.5526720">
        <ele>13.2</ele>
        <time>2020-02-23T13:15:01Z</time>
      </trkpt>
      <trkpt lat="39.0959250" lon="1.5526720">
        <ele>13.2</ele>
        <time>2020-02-23T13:15:02Z</time>
      </trkpt>
      <trkpt lat="39.0959420" lon="1.5526810">
        <ele>12.6</ele>
        <time>2020-02-23T13:15:03Z</time>
      </trkpt>
      <trkpt lat="39.0959490" lon="1.5526860">
        <ele>12.6</ele>
        <time>2020-02-23T13:15:04Z</time>
      </trkpt>
      <trkpt lat="39.0959650" lon="1.5526870">
        <ele>12.3</ele>
        <time>2020-02-23T13:15:05Z</time>
      </trkpt>
      <trkpt lat="39.0959670" lon="1.5526850">
        <ele>12.3</ele>
        <time>2020-02-23T13:15:06Z</time>
      </trkpt>
      <trkpt lat="39.0959710" lon="1.5526860">
        <ele>12.3</ele>
        <time>2020-02-23T13:15:07Z</time>
      </trkpt>
      <trkpt lat="39.0959770" lon="1.5526960">
        <ele>12.3</ele>
        <time>2020-02-23T13:15:08Z</time>
      </trkpt>
      <trkpt lat="39.0959850" lon="1.5527050">
        <ele>12.3</ele>
        <time>2020-02-23T13:15:09Z</time>
      </trkpt>
      <trkpt lat="39.0959900" lon="1.5527110">
        <ele>12.3</ele>
        <time>2020-02-23T13:15:10Z</time>
      </trkpt>
      <trkpt lat="39.0959960" lon="1.5527070">
        <ele>12.3</ele>
        <time>2020-02-23T13:15:11Z</time>
      </trkpt>
      <trkpt lat="39.0960030" lon="1.5527090">
        <ele>12.1</ele>
        <time>2020-02-23T13:15:12Z</time>
      </trkpt>
      <trkpt lat="39.0960170" lon="1.5527070">
        <ele>12.1</ele>
        <time>2020-02-23T13:15:13Z</time>
      </trkpt>
      <trkpt lat="39.0960260" lon="1.5527000">
        <ele>12.1</ele>
        <time>2020-02-23T13:15:14Z</time>
      </trkpt>
      <trkpt lat="39.0960380" lon="1.5526960">
        <ele>11.9</ele>
        <time>2020-02-23T13:15:15Z</time>
      </trkpt>
      <trkpt lat="39.0960460" lon="1.5526950">
        <ele>11.9</ele>
        <time>2020-02-23T13:15:16Z</time>
      </trkpt>
      <trkpt lat="39.0960530" lon="1.5526930">
        <ele>11.9</ele>
        <time>2020-02-23T13:15:17Z</time>
      </trkpt>
      <trkpt lat="39.0960610" lon="1.5526920">
        <ele>11.9</ele>
        <time>2020-02-23T13:15:18Z</time>
      </trkpt>
      <trkpt lat="39.0960680" lon="1.5526900">
        <ele>11.7</ele>
        <time>2020-02-23T13:15:19Z</time>
      </trkpt>
      <trkpt lat="39.0960750" lon="1.5526890">
        <ele>11.7</ele>
        <time>2020-02-23T13:15:20Z</time>
      </trkpt>
      <trkpt lat="39.0960840" lon="1.5526850">
        <ele>11.7</ele>
        <time>2020-02-23T13:15:21Z</time>
      </trkpt>
      <trkpt lat="39.0960920" lon="1.5526790">
        <ele>11.7</ele>
        <time>2020-02-23T13:15:22Z</time>
      </trkpt>
      <trkpt lat="39.0961020" lon="1.5526790">
        <ele>11.5</ele>
        <time>2020-02-23T13:15:23Z</time>
      </trkpt>
      <trkpt lat="39.0961090" lon="1.5526770">
        <ele>11.9</ele>
        <time>2020-02-23T13:15:24Z</time>
      </trkpt>
      <trkpt lat="39.0961140" lon="1.5526700">
        <ele>11.9</ele>
        <time>2020-02-23T13:15:25Z</time>
      </trkpt>
      <trkpt lat="39.0961170" lon="1.5526690">
        <ele>11.9</ele>
        <time>2020-02-23T13:15:26Z</time>
      </trkpt>
      <trkpt lat="39.0961290" lon="1.5526600">
        <ele>11.9</ele>
        <time>2020-02-23T13:15:27Z</time>
      </trkpt>
      <trkpt lat="39.0961370" lon="1.5526570">
        <ele>11.7</ele>
        <time>2020-02-23T13:15:28Z</time>
      </trkpt>
      <trkpt lat="39.0961380" lon="1.5526540">
        <ele>11.7</ele>
        <time>2020-02-23T13:15:29Z</time>
      </trkpt>
      <trkpt lat="39.0961400" lon="1.5526530">
        <ele>11.7</ele>
        <time>2020-02-23T13:15:30Z</time>
      </trkpt>
      <trkpt lat="39.0961430" lon="1.5526550">
        <ele>11.7</ele>
        <time>2020-02-23T13:15:31Z</time>
      </trkpt>
      <trkpt lat="39.0961470" lon="1.5526560">
        <ele>11.7</ele>
        <time>2020-02-23T13:15:32Z</time>
      </trkpt>
      <trkpt lat="39.0961490" lon="1.5526560">
        <ele>11.7</ele>
        <time>2020-02-23T13:15:33Z</time>
      </trkpt>
      <trkpt lat="39.0961510" lon="1.5526560">
        <ele>11.7</ele>
        <time>2020-02-23T13:15:34Z</time>
      </trkpt>
      <trkpt lat="39.0961530" lon="1.5526540">
        <ele>11.7</ele>
        <time>2020-02-23T13:15:35Z</time>
      </trkpt>
      <trkpt lat="39.0961560" lon="1.5526510">
        <ele>11.7</ele>
        <time>2020-02-23T13:15:36Z</time>
      </trkpt>
      <trkpt lat="39.0961570" lon="1.5526500">
        <ele>11.7</ele>
        <time>2020-02-23T13:15:37Z</time>
      </trkpt>
      <trkpt lat="39.0961580" lon="1.5526490">
        <ele>11.7</ele>
        <time>2020-02-23T13:15:38Z</time>
      </trkpt>
      <trkpt lat="39.0961580" lon="1.5526480">
        <ele>11.7</ele>
        <time>2020-02-23T13:15:39Z</time>
      </trkpt>
      <trkpt lat="39.0961590" lon="1.5526450">
        <ele>11.7</ele>
        <time>2020-02-23T13:15:40Z</time>
      </trkpt>
      <trkpt lat="39.0961600" lon="1.5526440">
        <ele>11.7</ele>
        <time>2020-02-23T13:15:41Z</time>
      </trkpt>
      <trkpt lat="39.0961610" lon="1.5526430">
        <ele>11.7</ele>
        <time>2020-02-23T13:15:42Z</time>
      </trkpt>
      <trkpt lat="39.0961610" lon="1.5526390">
        <ele>11.7</ele>
        <time>2020-02-23T13:15:43Z</time>
      </trkpt>
      <trkpt lat="39.0961580" lon="1.5526300">
        <ele>12.1</ele>
        <time>2020-02-23T13:15:44Z</time>
      </trkpt>
      <trkpt lat="39.0961500" lon="1.5526460">
        <ele>11.7</ele>
        <time>2020-02-23T13:15:45Z</time>
      </trkpt>
      <trkpt lat="39.0961370" lon="1.5526510">
        <ele>11.7</ele>
        <time>2020-02-23T13:15:46Z</time>
      </trkpt>
      <trkpt lat="39.0961340" lon="1.5526490">
        <ele>11.7</ele>
        <time>2020-02-23T13:15:47Z</time>
      </trkpt>
      <trkpt lat="39.0961310" lon="1.5526380">
        <ele>11.7</ele>
        <time>2020-02-23T13:15:48Z</time>
      </trkpt>
      <trkpt lat="39.0961320" lon="1.5526300">
        <ele>12.1</ele>
        <time>2020-02-23T13:15:49Z</time>
      </trkpt>
      <trkpt lat="39.0961340" lon="1.5526260">
        <ele>12.1</ele>
        <time>2020-02-23T13:15:50Z</time>
      </trkpt>
      <trkpt lat="39.0961360" lon="1.5526170">
        <ele>12.1</ele>
        <time>2020-02-23T13:15:51Z</time>
      </trkpt>
      <trkpt lat="39.0961380" lon="1.5526090">
        <ele>12.1</ele>
        <time>2020-02-23T13:15:52Z</time>
      </trkpt>
      <trkpt lat="39.0961370" lon="1.5525950">
        <ele>12.1</ele>
        <time>2020-02-23T13:15:53Z</time>
      </trkpt>
      <trkpt lat="39.0961360" lon="1.5525830">
        <ele>12.7</ele>
        <time>2020-02-23T13:15:54Z</time>
      </trkpt>
      <trkpt lat="39.0961400" lon="1.5525820">
        <ele>12.7</ele>
        <time>2020-02-23T13:15:55Z</time>
      </trkpt>
      <trkpt lat="39.0961440" lon="1.5525740">
        <ele>12.7</ele>
        <time>2020-02-23T13:15:56Z</time>
      </trkpt>
      <trkpt lat="39.0961510" lon="1.5525620">
        <ele>12.7</ele>
        <time>2020-02-23T13:15:57Z</time>
      </trkpt>
      <trkpt lat="39.0961570" lon="1.5525570">
        <ele>12.7</ele>
        <time>2020-02-23T13:15:58Z</time>
      </trkpt>
      <trkpt lat="39.0961580" lon="1.5525480">
        <ele>13.3</ele>
        <time>2020-02-23T13:15:59Z</time>
      </trkpt>
      <trkpt lat="39.0961660" lon="1.5525340">
        <ele>13.2</ele>
        <time>2020-02-23T13:16:00Z</time>
      </trkpt>
      <trkpt lat="39.0961710" lon="1.5525270">
        <ele>13.2</ele>
        <time>2020-02-23T13:16:01Z</time>
      </trkpt>
      <trkpt lat="39.0961730" lon="1.5525150">
        <ele>13.2</ele>
        <time>2020-02-23T13:16:02Z</time>
      </trkpt>
      <trkpt lat="39.0961750" lon="1.5525030">
        <ele>13.8</ele>
        <time>2020-02-23T13:16:03Z</time>
      </trkpt>
      <trkpt lat="39.0961810" lon="1.5524890">
        <ele>13.8</ele>
        <time>2020-02-23T13:16:04Z</time>
      </trkpt>
      <trkpt lat="39.0961850" lon="1.5524720">
        <ele>13.8</ele>
        <time>2020-02-23T13:16:05Z</time>
      </trkpt>
      <trkpt lat="39.0961890" lon="1.5524600">
        <ele>14.5</ele>
        <time>2020-02-23T13:16:06Z</time>
      </trkpt>
      <trkpt lat="39.0961920" lon="1.5524490">
        <ele>14.5</ele>
        <time>2020-02-23T13:16:07Z</time>
      </trkpt>
      <trkpt lat="39.0961950" lon="1.5524370">
        <ele>14.5</ele>
        <time>2020-02-23T13:16:08Z</time>
      </trkpt>
      <trkpt lat="39.0962050" lon="1.5524080">
        <ele>15.1</ele>
        <time>2020-02-23T13:16:09Z</time>
      </trkpt>
      <trkpt lat="39.0962090" lon="1.5523980">
        <ele>15.1</ele>
        <time>2020-02-23T13:16:10Z</time>
      </trkpt>
      <trkpt lat="39.0962140" lon="1.5523880">
        <ele>15.1</ele>
        <time>2020-02-23T13:16:11Z</time>
      </trkpt>
      <trkpt lat="39.0962150" lon="1.5523660">
        <ele>15.8</ele>
        <time>2020-02-23T13:16:12Z</time>
      </trkpt>
      <trkpt lat="39.0962160" lon="1.5523510">
        <ele>15.8</ele>
        <time>2020-02-23T13:16:13Z</time>
      </trkpt>
      <trkpt lat="39.0962180" lon="1.5523370">
        <ele>15.8</ele>
        <time>2020-02-23T13:16:14Z</time>
      </trkpt>
      <trkpt lat="39.0962230" lon="1.5523160">
        <ele>16.5</ele>
        <time>2020-02-23T13:16:15Z</time>
      </trkpt>
      <trkpt lat="39.0962180" lon="1.5522970">
        <ele>16.5</ele>
        <time>2020-02-23T13:16:16Z</time>
      </trkpt>
      <trkpt lat="39.0962270" lon="1.5522840">
        <ele>17.2</ele>
        <time>2020-02-23T13:16:17Z</time>
      </trkpt>
      <trkpt lat="39.0962340" lon="1.5522760">
        <ele>17.1</ele>
        <time>2020-02-23T13:16:18Z</time>
      </trkpt>
      <trkpt lat="39.0962450" lon="1.5522540">
        <ele>17.1</ele>
        <time>2020-02-23T13:16:19Z</time>
      </trkpt>
      <trkpt lat="39.0962490" lon="1.5522440">
        <ele>17.8</ele>
        <time>2020-02-23T13:16:20Z</time>
      </trkpt>
      <trkpt lat="39.0962530" lon="1.5522330">
        <ele>17.8</ele>
        <time>2020-02-23T13:16:21Z</time>
      </trkpt>
      <trkpt lat="39.0962560" lon="1.5522020">
        <ele>18.6</ele>
        <time>2020-02-23T13:16:22Z</time>
      </trkpt>
      <trkpt lat="39.0962570" lon="1.5521920">
        <ele>18.6</ele>
        <time>2020-02-23T13:16:23Z</time>
      </trkpt>
      <trkpt lat="39.0962580" lon="1.5521820">
        <ele>18.6</ele>
        <time>2020-02-23T13:16:24Z</time>
      </trkpt>
      <trkpt lat="39.0962550" lon="1.5521550">
        <ele>19.5</ele>
        <time>2020-02-23T13:16:25Z</time>
      </trkpt>
      <trkpt lat="39.0962540" lon="1.5521440">
        <ele>19.5</ele>
        <time>2020-02-23T13:16:26Z</time>
      </trkpt>
      <trkpt lat="39.0962540" lon="1.5521330">
        <ele>19.5</ele>
        <time>2020-02-23T13:16:27Z</time>
      </trkpt>
      <trkpt lat="39.0962440" lon="1.5521000">
        <ele>20.3</ele>
        <time>2020-02-23T13:16:28Z</time>
      </trkpt>
      <trkpt lat="39.0962410" lon="1.5520870">
        <ele>20.3</ele>
        <time>2020-02-23T13:16:29Z</time>
      </trkpt>
      <trkpt lat="39.0962390" lon="1.5520740">
        <ele>21.2</ele>
        <time>2020-02-23T13:16:30Z</time>
      </trkpt>
      <trkpt lat="39.0962390" lon="1.5520680">
        <ele>21.2</ele>
        <time>2020-02-23T13:16:31Z</time>
      </trkpt>
      <trkpt lat="39.0962320" lon="1.5520810">
        <ele>20.3</ele>
        <time>2020-02-23T13:16:32Z</time>
      </trkpt>
      <trkpt lat="39.0962310" lon="1.5520750">
        <ele>21.2</ele>
        <time>2020-02-23T13:16:33Z</time>
      </trkpt>
      <trkpt lat="39.0962320" lon="1.5520720">
        <ele>21.2</ele>
        <time>2020-02-23T13:16:34Z</time>
      </trkpt>
      <trkpt lat="39.0962350" lon="1.5520650">
        <ele>21.2</ele>
        <time>2020-02-23T13:16:35Z</time>
      </trkpt>
      <trkpt lat="39.0962380" lon="1.5520490">
        <ele>21.2</ele>
        <time>2020-02-23T13:16:36Z</time>
      </trkpt>
      <trkpt lat="39.0962440" lon="1.5520350">
        <ele>21.2</ele>
        <time>2020-02-23T13:16:37Z</time>
      </trkpt>
      <trkpt lat="39.0962510" lon="1.5520210">
        <ele>22.1</ele>
        <time>2020-02-23T13:16:38Z</time>
      </trkpt>
      <trkpt lat="39.0962520" lon="1.5520090">
        <ele>22.1</ele>
        <time>2020-02-23T13:16:39Z</time>
      </trkpt>
      <trkpt lat="39.0962590" lon="1.5519960">
        <ele>22.1</ele>
        <time>2020-02-23T13:16:40Z</time>
      </trkpt>
      <trkpt lat="39.0962620" lon="1.5519880">
        <ele>23.1</ele>
        <time>2020-02-23T13:16:41Z</time>
      </trkpt>
      <trkpt lat="39.0962650" lon="1.5519810">
        <ele>23.0</ele>
        <time>2020-02-23T13:16:42Z</time>
      </trkpt>
      <trkpt lat="39.0962680" lon="1.5519730">
        <ele>23.0</ele>
        <time>2020-02-23T13:16:43Z</time>
      </trkpt>
      <trkpt lat="39.0962710" lon="1.5519650">
        <ele>23.0</ele>
        <time>2020-02-23T13:16:44Z</time>
      </trkpt>
      <trkpt lat="39.0962730" lon="1.5519600">
        <ele>23.0</ele>
        <time>2020-02-23T13:16:45Z</time>
      </trkpt>
      <trkpt lat="39.0962820" lon="1.5519640">
        <ele>23.0</ele>
        <time>2020-02-23T13:16:46Z</time>
      </trkpt>
      <trkpt lat="39.0962880" lon="1.5519630">
        <ele>23.0</ele>
        <time>2020-02-23T13:16:47Z</time>
      </trkpt>
      <trkpt lat="39.0962910" lon="1.5519590">
        <ele>23.0</ele>
        <time>2020-02-23T13:16:48Z</time>
      </trkpt>
      <trkpt lat="39.0962940" lon="1.5519560">
        <ele>23.0</ele>
        <time>2020-02-23T13:16:49Z</time>
      </trkpt>
      <trkpt lat="39.0962970" lon="1.5519520">
        <ele>23.0</ele>
        <time>2020-02-23T13:16:50Z</time>
      </trkpt>
      <trkpt lat="39.0963060" lon="1.5519460">
        <ele>23.9</ele>
        <time>2020-02-23T13:16:51Z</time>
      </trkpt>
      <trkpt lat="39.0963060" lon="1.5519420">
        <ele>23.9</ele>
        <time>2020-02-23T13:16:52Z</time>
      </trkpt>
      <trkpt lat="39.0963100" lon="1.5519370">
        <ele>23.9</ele>
        <time>2020-02-23T13:16:53Z</time>
      </trkpt>
      <trkpt lat="39.0963110" lon="1.5519340">
        <ele>23.9</ele>
        <time>2020-02-23T13:16:54Z</time>
      </trkpt>
      <trkpt lat="39.0963130" lon="1.5519290">
        <ele>23.9</ele>
        <time>2020-02-23T13:16:55Z</time>
      </trkpt>
      <trkpt lat="39.0963150" lon="1.5519230">
        <ele>23.9</ele>
        <time>2020-02-23T13:16:56Z</time>
      </trkpt>
      <trkpt lat="39.0963180" lon="1.5519090">
        <ele>23.9</ele>
        <time>2020-02-23T13:16:57Z</time>
      </trkpt>
      <trkpt lat="39.0963140" lon="1.5518990">
        <ele>24.9</ele>
        <time>2020-02-23T13:16:58Z</time>
      </trkpt>
      <trkpt lat="39.0963090" lon="1.5518960">
        <ele>24.9</ele>
        <time>2020-02-23T13:16:59Z</time>
      </trkpt>
      <trkpt lat="39.0963200" lon="1.5518830">
        <ele>24.9</ele>
        <time>2020-02-23T13:17:00Z</time>
      </trkpt>
      <trkpt lat="39.0963230" lon="1.5518770">
        <ele>24.9</ele>
        <time>2020-02-23T13:17:01Z</time>
      </trkpt>
      <trkpt lat="39.0963270" lon="1.5518710">
        <ele>24.9</ele>
        <time>2020-02-23T13:17:02Z</time>
      </trkpt>
      <trkpt lat="39.0963310" lon="1.5518720">
        <ele>24.8</ele>
        <time>2020-02-23T13:17:03Z</time>
      </trkpt>
      <trkpt lat="39.0963340" lon="1.5518630">
        <ele>24.8</ele>
        <time>2020-02-23T13:17:04Z</time>
      </trkpt>
      <trkpt lat="39.0963270" lon="1.5518520">
        <ele>25.9</ele>
        <time>2020-02-23T13:17:05Z</time>
      </trkpt>
      <trkpt lat="39.0963260" lon="1.5518510">
        <ele>25.9</ele>
        <time>2020-02-23T13:17:06Z</time>
      </trkpt>
      <trkpt lat="39.0963260" lon="1.5518500">
        <ele>25.9</ele>
        <time>2020-02-23T13:17:07Z</time>
      </trkpt>
      <trkpt lat="39.0963260" lon="1.5518510">
        <ele>25.9</ele>
        <time>2020-02-23T13:17:08Z</time>
      </trkpt>
      <trkpt lat="39.0963260" lon="1.5518510">
        <ele>25.9</ele>
        <time>2020-02-23T13:17:09Z</time>
      </trkpt>
      <trkpt lat="39.0963260" lon="1.5518510">
        <ele>25.9</ele>
        <time>2020-02-23T13:17:10Z</time>
      </trkpt>
      <trkpt lat="39.0963250" lon="1.5518510">
        <ele>25.9</ele>
        <time>2020-02-23T13:17:11Z</time>
      </trkpt>
      <trkpt lat="39.0963250" lon="1.5518510">
        <ele>25.9</ele>
        <time>2020-02-23T13:17:12Z</time>
      </trkpt>
      <trkpt lat="39.0963250" lon="1.5518510">
        <ele>25.9</ele>
        <time>2020-02-23T13:17:13Z</time>
      </trkpt>
      <trkpt lat="39.0963240" lon="1.5518520">
        <ele>25.9</ele>
        <time>2020-02-23T13:17:14Z</time>
      </trkpt>
      <trkpt lat="39.0963690" lon="1.5518560">
        <ele>25.7</ele>
        <time>2020-02-23T13:18:20Z</time>
      </trkpt>
      <trkpt lat="39.0963730" lon="1.5518460">
        <ele>25.7</ele>
        <time>2020-02-23T13:18:21Z</time>
      </trkpt>
      <trkpt lat="39.0963770" lon="1.5518340">
        <ele>25.7</ele>
        <time>2020-02-23T13:18:22Z</time>
      </trkpt>
      <trkpt lat="39.0963820" lon="1.5518310">
        <ele>25.7</ele>
        <time>2020-02-23T13:18:23Z</time>
      </trkpt>
      <trkpt lat="39.0963950" lon="1.5518290">
        <ele>25.7</ele>
        <time>2020-02-23T13:18:24Z</time>
      </trkpt>
      <trkpt lat="39.0964100" lon="1.5518290">
        <ele>25.7</ele>
        <time>2020-02-23T13:18:25Z</time>
      </trkpt>
      <trkpt lat="39.0964090" lon="1.5518330">
        <ele>25.7</ele>
        <time>2020-02-23T13:18:26Z</time>
      </trkpt>
      <trkpt lat="39.0964090" lon="1.5518330">
        <ele>25.7</ele>
        <time>2020-02-23T13:18:27Z</time>
      </trkpt>
      <trkpt lat="39.0964100" lon="1.5518330">
        <ele>25.7</ele>
        <time>2020-02-23T13:18:28Z</time>
      </trkpt>
      <trkpt lat="39.0964130" lon="1.5518310">
        <ele>25.7</ele>
        <time>2020-02-23T13:18:29Z</time>
      </trkpt>
      <trkpt lat="39.0964160" lon="1.5518250">
        <ele>25.7</ele>
        <time>2020-02-23T13:18:30Z</time>
      </trkpt>
      <trkpt lat="39.0964220" lon="1.5518180">
        <ele>26.7</ele>
        <time>2020-02-23T13:18:31Z</time>
      </trkpt>
      <trkpt lat="39.0964250" lon="1.5518120">
        <ele>26.7</ele>
        <time>2020-02-23T13:18:32Z</time>
      </trkpt>
      <trkpt lat="39.0964290" lon="1.5518050">
        <ele>26.7</ele>
        <time>2020-02-23T13:18:33Z</time>
      </trkpt>
      <trkpt lat="39.0964290" lon="1.5517940">
        <ele>26.7</ele>
        <time>2020-02-23T13:18:34Z</time>
      </trkpt>
      <trkpt lat="39.0964170" lon="1.5517680">
        <ele>27.8</ele>
        <time>2020-02-23T13:18:35Z</time>
      </trkpt>
      <trkpt lat="39.0963970" lon="1.5517250">
        <ele>29.1</ele>
        <time>2020-02-23T13:18:36Z</time>
      </trkpt>
      <trkpt lat="39.0963910" lon="1.5517090">
        <ele>29.1</ele>
        <time>2020-02-23T13:18:37Z</time>
      </trkpt>
      <trkpt lat="39.0963910" lon="1.5517070">
        <ele>29.1</ele>
        <time>2020-02-23T13:18:38Z</time>
      </trkpt>
      <trkpt lat="39.0963760" lon="1.5516900">
        <ele>30.5</ele>
        <time>2020-02-23T13:18:39Z</time>
      </trkpt>
      <trkpt lat="39.0963710" lon="1.5516710">
        <ele>30.5</ele>
        <time>2020-02-23T13:18:40Z</time>
      </trkpt>
      <trkpt lat="39.0963710" lon="1.5516560">
        <ele>30.5</ele>
        <time>2020-02-23T13:18:41Z</time>
      </trkpt>
      <trkpt lat="39.0963700" lon="1.5516460">
        <ele>32.0</ele>
        <time>2020-02-23T13:18:42Z</time>
      </trkpt>
      <trkpt lat="39.0963700" lon="1.5516310">
        <ele>32.0</ele>
        <time>2020-02-23T13:18:43Z</time>
      </trkpt>
      <trkpt lat="39.0963720" lon="1.5516250">
        <ele>32.0</ele>
        <time>2020-02-23T13:18:44Z</time>
      </trkpt>
      <trkpt lat="39.0963710" lon="1.5516150">
        <ele>32.0</ele>
        <time>2020-02-23T13:18:45Z</time>
      </trkpt>
      <trkpt lat="39.0963750" lon="1.5516050">
        <ele>32.0</ele>
        <time>2020-02-23T13:18:46Z</time>
      </trkpt>
      <trkpt lat="39.0963720" lon="1.5516070">
        <ele>32.0</ele>
        <time>2020-02-23T13:18:47Z</time>
      </trkpt>
      <trkpt lat="39.0963750" lon="1.5516110">
        <ele>32.0</ele>
        <time>2020-02-23T13:18:48Z</time>
      </trkpt>
      <trkpt lat="39.0963780" lon="1.5516140">
        <ele>32.0</ele>
        <time>2020-02-23T13:18:49Z</time>
      </trkpt>
      <trkpt lat="39.0963790" lon="1.5516080">
        <ele>32.0</ele>
        <time>2020-02-23T13:18:50Z</time>
      </trkpt>
      <trkpt lat="39.0963790" lon="1.5516020">
        <ele>33.5</ele>
        <time>2020-02-23T13:18:51Z</time>
      </trkpt>
      <trkpt lat="39.0963730" lon="1.5515970">
        <ele>33.5</ele>
        <time>2020-02-23T13:18:52Z</time>
      </trkpt>
      <trkpt lat="39.0963820" lon="1.5516030">
        <ele>33.5</ele>
        <time>2020-02-23T13:18:53Z</time>
      </trkpt>
      <trkpt lat="39.0963760" lon="1.5516060">
        <ele>32.0</ele>
        <time>2020-02-23T13:18:54Z</time>
      </trkpt>
      <trkpt lat="39.0963820" lon="1.5516060">
        <ele>32.0</ele>
        <time>2020-02-23T13:18:55Z</time>
      </trkpt>
      <trkpt lat="39.0963770" lon="1.5516140">
        <ele>32.0</ele>
        <time>2020-02-23T13:18:56Z</time>
      </trkpt>
      <trkpt lat="39.0963840" lon="1.5516260">
        <ele>32.0</ele>
        <time>2020-02-23T13:18:57Z</time>
      </trkpt>
      <trkpt lat="39.0963960" lon="1.5516260">
        <ele>31.9</ele>
        <time>2020-02-23T13:18:58Z</time>
      </trkpt>
      <trkpt lat="39.0963960" lon="1.5516250">
        <ele>31.9</ele>
        <time>2020-02-23T13:18:59Z</time>
      </trkpt>
      <trkpt lat="39.0963960" lon="1.5516260">
        <ele>31.9</ele>
        <time>2020-02-23T13:19:00Z</time>
      </trkpt>
      <trkpt lat="39.0963960" lon="1.5516260">
        <ele>31.9</ele>
        <time>2020-02-23T13:19:01Z</time>
      </trkpt>
      <trkpt lat="39.0963960" lon="1.5516260">
        <ele>31.9</ele>
        <time>2020-02-23T13:19:02Z</time>
      </trkpt>
      <trkpt lat="39.0963960" lon="1.5516260">
        <ele>31.9</ele>
        <time>2020-02-23T13:19:03Z</time>
      </trkpt>
      <trkpt lat="39.0963960" lon="1.5516260">
        <ele>31.9</ele>
        <time>2020-02-23T13:19:04Z</time>
      </trkpt>
      <trkpt lat="39.0963960" lon="1.5516260">
        <ele>31.9</ele>
        <time>2020-02-23T13:19:05Z</time>
      </trkpt>
      <trkpt lat="39.0963960" lon="1.5516260">
        <ele>31.9</ele>
        <time>2020-02-23T13:19:06Z</time>
      </trkpt>
      <trkpt lat="39.0963720" lon="1.5514900">
        <ele>36.5</ele>
        <time>2020-02-23T13:20:22Z</time>
      </trkpt>
      <trkpt lat="39.0963700" lon="1.5514850">
        <ele>36.5</ele>
        <time>2020-02-23T13:20:23Z</time>
      </trkpt>
      <trkpt lat="39.0963670" lon="1.5514750">
        <ele>38.0</ele>
        <time>2020-02-23T13:20:24Z</time>
      </trkpt>
      <trkpt lat="39.0963620" lon="1.5514750">
        <ele>38.0</ele>
        <time>2020-02-23T13:20:25Z</time>
      </trkpt>
      <trkpt lat="39.0963490" lon="1.5514780">
        <ele>36.5</ele>
        <time>2020-02-23T13:20:26Z</time>
      </trkpt>
      <trkpt lat="39.0963400" lon="1.5514710">
        <ele>38.0</ele>
        <time>2020-02-23T13:20:27Z</time>
      </trkpt>
      <trkpt lat="39.0963270" lon="1.5514640">
        <ele>38.0</ele>
        <time>2020-02-23T13:20:28Z</time>
      </trkpt>
      <trkpt lat="39.0963160" lon="1.5514590">
        <ele>38.0</ele>
        <time>2020-02-23T13:20:29Z</time>
      </trkpt>
      <trkpt lat="39.0962870" lon="1.5514710">
        <ele>38.1</ele>
        <time>2020-02-23T13:20:30Z</time>
      </trkpt>
      <trkpt lat="39.0962780" lon="1.5514770">
        <ele>36.6</ele>
        <time>2020-02-23T13:20:31Z</time>
      </trkpt>
      <trkpt lat="39.0962640" lon="1.5514900">
        <ele>36.6</ele>
        <time>2020-02-23T13:20:32Z</time>
      </trkpt>
      <trkpt lat="39.0962530" lon="1.5514960">
        <ele>36.7</ele>
        <time>2020-02-23T13:20:33Z</time>
      </trkpt>
      <trkpt lat="39.0962450" lon="1.5515030">
        <ele>36.7</ele>
        <time>2020-02-23T13:20:34Z</time>
      </trkpt>
      <trkpt lat="39.0962330" lon="1.5515100">
        <ele>36.7</ele>
        <time>2020-02-23T13:20:35Z</time>
      </trkpt>
      <trkpt lat="39.0962220" lon="1.5515120">
        <ele>36.8</ele>
        <time>2020-02-23T13:20:36Z</time>
      </trkpt>
      <trkpt lat="39.0962190" lon="1.5515260">
        <ele>35.3</ele>
        <time>2020-02-23T13:20:37Z</time>
      </trkpt>
      <trkpt lat="39.0962090" lon="1.5515240">
        <ele>35.3</ele>
        <time>2020-02-23T13:20:38Z</time>
      </trkpt>
      <trkpt lat="39.0962000" lon="1.5515190">
        <ele>35.3</ele>
        <time>2020-02-23T13:20:39Z</time>
      </trkpt>
      <trkpt lat="39.0961890" lon="1.5515080">
        <ele>36.9</ele>
        <time>2020-02-23T13:20:40Z</time>
      </trkpt>
      <trkpt lat="39.0961770" lon="1.5514910">
        <ele>36.9</ele>
        <time>2020-02-23T13:20:41Z</time>
      </trkpt>
      <trkpt lat="39.0961690" lon="1.5514730">
        <ele>38.3</ele>
        <time>2020-02-23T13:20:42Z</time>
      </trkpt>
      <trkpt lat="39.0961560" lon="1.5514590">
        <ele>38.4</ele>
        <time>2020-02-23T13:20:43Z</time>
      </trkpt>
      <trkpt lat="39.0961500" lon="1.5514470">
        <ele>38.4</ele>
        <time>2020-02-23T13:20:44Z</time>
      </trkpt>
      <trkpt lat="39.0961530" lon="1.5514320">
        <ele>39.8</ele>
        <time>2020-02-23T13:20:45Z</time>
      </trkpt>
      <trkpt lat="39.0961510" lon="1.5514200">
        <ele>39.8</ele>
        <time>2020-02-23T13:20:46Z</time>
      </trkpt>
      <trkpt lat="39.0961450" lon="1.5514140">
        <ele>39.8</ele>
        <time>2020-02-23T13:20:47Z</time>
      </trkpt>
      <trkpt lat="39.0961360" lon="1.5514100">
        <ele>39.8</ele>
        <time>2020-02-23T13:20:48Z</time>
      </trkpt>
      <trkpt lat="39.0961260" lon="1.5514000">
        <ele>40.0</ele>
        <time>2020-02-23T13:20:49Z</time>
      </trkpt>
      <trkpt lat="39.0961130" lon="1.5513890">
        <ele>41.3</ele>
        <time>2020-02-23T13:20:50Z</time>
      </trkpt>
      <trkpt lat="39.0961030" lon="1.5513830">
        <ele>41.3</ele>
        <time>2020-02-23T13:20:51Z</time>
      </trkpt>
      <trkpt lat="39.0960890" lon="1.5513760">
        <ele>41.5</ele>
        <time>2020-02-23T13:20:52Z</time>
      </trkpt>
      <trkpt lat="39.0960810" lon="1.5513700">
        <ele>41.5</ele>
        <time>2020-02-23T13:20:53Z</time>
      </trkpt>
      <trkpt lat="39.0960740" lon="1.5513680">
        <ele>41.5</ele>
        <time>2020-02-23T13:20:54Z</time>
      </trkpt>
      <trkpt lat="39.0960680" lon="1.5513670">
        <ele>41.5</ele>
        <time>2020-02-23T13:20:55Z</time>
      </trkpt>
      <trkpt lat="39.0960660" lon="1.5513590">
        <ele>41.5</ele>
        <time>2020-02-23T13:20:56Z</time>
      </trkpt>
      <trkpt lat="39.0960620" lon="1.5513560">
        <ele>41.6</ele>
        <time>2020-02-23T13:20:57Z</time>
      </trkpt>
      <trkpt lat="39.0960570" lon="1.5513500">
        <ele>41.6</ele>
        <time>2020-02-23T13:20:58Z</time>
      </trkpt>
      <trkpt lat="39.0960500" lon="1.5513430">
        <ele>42.9</ele>
        <time>2020-02-23T13:20:59Z</time>
      </trkpt>
      <trkpt lat="39.0960500" lon="1.5513360">
        <ele>42.9</ele>
        <time>2020-02-23T13:21:00Z</time>
      </trkpt>
      <trkpt lat="39.0960490" lon="1.5513290">
        <ele>42.9</ele>
        <time>2020-02-23T13:21:01Z</time>
      </trkpt>
      <trkpt lat="39.0960480" lon="1.5513190">
        <ele>42.9</ele>
        <time>2020-02-23T13:21:02Z</time>
      </trkpt>
      <trkpt lat="39.0960450" lon="1.5513050">
        <ele>42.9</ele>
        <time>2020-02-23T13:21:03Z</time>
      </trkpt>
      <trkpt lat="39.0960400" lon="1.5512910">
        <ele>44.3</ele>
        <time>2020-02-23T13:21:04Z</time>
      </trkpt>
      <trkpt lat="39.0960450" lon="1.5512770">
        <ele>44.3</ele>
        <time>2020-02-23T13:21:05Z</time>
      </trkpt>
      <trkpt lat="39.0960470" lon="1.5512650">
        <ele>44.3</ele>
        <time>2020-02-23T13:21:06Z</time>
      </trkpt>
      <trkpt lat="39.0960420" lon="1.5512470">
        <ele>45.7</ele>
        <time>2020-02-23T13:21:07Z</time>
      </trkpt>
      <trkpt lat="39.0960420" lon="1.5512370">
        <ele>45.7</ele>
        <time>2020-02-23T13:21:08Z</time>
      </trkpt>
      <trkpt lat="39.0960370" lon="1.5512220">
        <ele>45.7</ele>
        <time>2020-02-23T13:21:09Z</time>
      </trkpt>
      <trkpt lat="39.0960370" lon="1.5512040">
        <ele>47.1</ele>
        <time>2020-02-23T13:21:10Z</time>
      </trkpt>
      <trkpt lat="39.0960390" lon="1.5511860">
        <ele>47.1</ele>
        <time>2020-02-23T13:21:11Z</time>
      </trkpt>
      <trkpt lat="39.0960390" lon="1.5511700">
        <ele>48.6</ele>
        <time>2020-02-23T13:21:12Z</time>
      </trkpt>
      <trkpt lat="39.0960390" lon="1.5511620">
        <ele>48.6</ele>
        <time>2020-02-23T13:21:13Z</time>
      </trkpt>
      <trkpt lat="39.0960360" lon="1.5511510">
        <ele>48.6</ele>
        <time>2020-02-23T13:21:14Z</time>
      </trkpt>
      <trkpt lat="39.0960330" lon="1.5511380">
        <ele>48.6</ele>
        <time>2020-02-23T13:21:15Z</time>
      </trkpt>
      <trkpt lat="39.0960260" lon="1.5511230">
        <ele>50.1</ele>
        <time>2020-02-23T13:21:16Z</time>
      </trkpt>
      <trkpt lat="39.0960210" lon="1.5511120">
        <ele>50.1</ele>
        <time>2020-02-23T13:21:17Z</time>
      </trkpt>
      <trkpt lat="39.0960210" lon="1.5511060">
        <ele>50.1</ele>
        <time>2020-02-23T13:21:18Z</time>
      </trkpt>
      <trkpt lat="39.0960220" lon="1.5510940">
        <ele>50.1</ele>
        <time>2020-02-23T13:21:19Z</time>
      </trkpt>
      <trkpt lat="39.0960260" lon="1.5510760">
        <ele>51.6</ele>
        <time>2020-02-23T13:21:20Z</time>
      </trkpt>
      <trkpt lat="39.0960270" lon="1.5510510">
        <ele>51.6</ele>
        <time>2020-02-23T13:21:21Z</time>
      </trkpt>
      <trkpt lat="39.0960270" lon="1.5510390">
        <ele>53.0</ele>
        <time>2020-02-23T13:21:22Z</time>
      </trkpt>
      <trkpt lat="39.0960260" lon="1.5510270">
        <ele>53.0</ele>
        <time>2020-02-23T13:21:23Z</time>
      </trkpt>
      <trkpt lat="39.0960230" lon="1.5510080">
        <ele>53.0</ele>
        <time>2020-02-23T13:21:24Z</time>
      </trkpt>
      <trkpt lat="39.0960150" lon="1.5509940">
        <ele>54.3</ele>
        <time>2020-02-23T13:21:25Z</time>
      </trkpt>
      <trkpt lat="39.0960190" lon="1.5509810">
        <ele>54.3</ele>
        <time>2020-02-23T13:21:26Z</time>
      </trkpt>
      <trkpt lat="39.0960220" lon="1.5509690">
        <ele>54.3</ele>
        <time>2020-02-23T13:21:27Z</time>
      </trkpt>
      <trkpt lat="39.0960200" lon="1.5509490">
        <ele>55.5</ele>
        <time>2020-02-23T13:21:28Z</time>
      </trkpt>
      <trkpt lat="39.0960190" lon="1.5509300">
        <ele>55.5</ele>
        <time>2020-02-23T13:21:29Z</time>
      </trkpt>
      <trkpt lat="39.0960130" lon="1.5509140">
        <ele>56.8</ele>
        <time>2020-02-23T13:21:30Z</time>
      </trkpt>
      <trkpt lat="39.0960240" lon="1.5508920">
        <ele>56.8</ele>
        <time>2020-02-23T13:21:31Z</time>
      </trkpt>
      <trkpt lat="39.0960290" lon="1.5508720">
        <ele>58.0</ele>
        <time>2020-02-23T13:21:32Z</time>
      </trkpt>
      <trkpt lat="39.0960320" lon="1.5508520">
        <ele>58.1</ele>
        <time>2020-02-23T13:21:33Z</time>
      </trkpt>
      <trkpt lat="39.0960310" lon="1.5508330">
        <ele>58.1</ele>
        <time>2020-02-23T13:21:34Z</time>
      </trkpt>
      <trkpt lat="39.0960280" lon="1.5508150">
        <ele>59.3</ele>
        <time>2020-02-23T13:21:35Z</time>
      </trkpt>
      <trkpt lat="39.0960220" lon="1.5507990">
        <ele>59.3</ele>
        <time>2020-02-23T13:21:36Z</time>
      </trkpt>
      <trkpt lat="39.0960170" lon="1.5507830">
        <ele>60.6</ele>
        <time>2020-02-23T13:21:37Z</time>
      </trkpt>
      <trkpt lat="39.0960150" lon="1.5507700">
        <ele>60.6</ele>
        <time>2020-02-23T13:21:38Z</time>
      </trkpt>
      <trkpt lat="39.0960100" lon="1.5507630">
        <ele>60.6</ele>
        <time>2020-02-23T13:21:39Z</time>
      </trkpt>
      <trkpt lat="39.0960060" lon="1.5507440">
        <ele>61.9</ele>
        <time>2020-02-23T13:21:40Z</time>
      </trkpt>
      <trkpt lat="39.0960100" lon="1.5507270">
        <ele>61.9</ele>
        <time>2020-02-23T13:21:41Z</time>
      </trkpt>
      <trkpt lat="39.0960150" lon="1.5507060">
        <ele>61.9</ele>
        <time>2020-02-23T13:21:42Z</time>
      </trkpt>
      <trkpt lat="39.0960090" lon="1.5506880">
        <ele>63.2</ele>
        <time>2020-02-23T13:21:43Z</time>
      </trkpt>
      <trkpt lat="39.0960080" lon="1.5506770">
        <ele>63.2</ele>
        <time>2020-02-23T13:21:44Z</time>
      </trkpt>
      <trkpt lat="39.0960020" lon="1.5506600">
        <ele>64.4</ele>
        <time>2020-02-23T13:21:45Z</time>
      </trkpt>
      <trkpt lat="39.0960020" lon="1.5506480">
        <ele>64.4</ele>
        <time>2020-02-23T13:21:46Z</time>
      </trkpt>
      <trkpt lat="39.0960050" lon="1.5506440">
        <ele>64.4</ele>
        <time>2020-02-23T13:21:47Z</time>
      </trkpt>
      <trkpt lat="39.0959980" lon="1.5506490">
        <ele>64.4</ele>
        <time>2020-02-23T13:21:48Z</time>
      </trkpt>
      <trkpt lat="39.0960000" lon="1.5506450">
        <ele>64.4</ele>
        <time>2020-02-23T13:21:49Z</time>
      </trkpt>
      <trkpt lat="39.0959920" lon="1.5506370">
        <ele>64.2</ele>
        <time>2020-02-23T13:21:50Z</time>
      </trkpt>
      <trkpt lat="39.0959870" lon="1.5506240">
        <ele>64.2</ele>
        <time>2020-02-23T13:21:51Z</time>
      </trkpt>
      <trkpt lat="39.0959880" lon="1.5506140">
        <ele>65.3</ele>
        <time>2020-02-23T13:21:52Z</time>
      </trkpt>
      <trkpt lat="39.0959890" lon="1.5505980">
        <ele>65.3</ele>
        <time>2020-02-23T13:21:53Z</time>
      </trkpt>
      <trkpt lat="39.0959910" lon="1.5505880">
        <ele>65.3</ele>
        <time>2020-02-23T13:21:54Z</time>
      </trkpt>
      <trkpt lat="39.0959920" lon="1.5505780">
        <ele>65.3</ele>
        <time>2020-02-23T13:21:55Z</time>
      </trkpt>
      <trkpt lat="39.0959940" lon="1.5505680">
        <ele>66.4</ele>
        <time>2020-02-23T13:21:56Z</time>
      </trkpt>
      <trkpt lat="39.0959940" lon="1.5505750">
        <ele>65.3</ele>
        <time>2020-02-23T13:21:57Z</time>
      </trkpt>
      <trkpt lat="39.0959940" lon="1.5505740">
        <ele>66.4</ele>
        <time>2020-02-23T13:21:58Z</time>
      </trkpt>
      <trkpt lat="39.0960020" lon="1.5505720">
        <ele>66.6</ele>
        <time>2020-02-23T13:21:59Z</time>
      </trkpt>
      <trkpt lat="39.0959980" lon="1.5505750">
        <ele>65.5</ele>
        <time>2020-02-23T13:22:00Z</time>
      </trkpt>
      <trkpt lat="39.0959990" lon="1.5505670">
        <ele>66.6</ele>
        <time>2020-02-23T13:22:01Z</time>
      </trkpt>
      <trkpt lat="39.0959940" lon="1.5505550">
        <ele>66.4</ele>
        <time>2020-02-23T13:22:02Z</time>
      </trkpt>
      <trkpt lat="39.0959880" lon="1.5505440">
        <ele>66.4</ele>
        <time>2020-02-23T13:22:03Z</time>
      </trkpt>
      <trkpt lat="39.0959810" lon="1.5505390">
        <ele>66.4</ele>
        <time>2020-02-23T13:22:04Z</time>
      </trkpt>
      <trkpt lat="39.0959790" lon="1.5505310">
        <ele>67.5</ele>
        <time>2020-02-23T13:22:05Z</time>
      </trkpt>
      <trkpt lat="39.0959790" lon="1.5505230">
        <ele>67.5</ele>
        <time>2020-02-23T13:22:06Z</time>
      </trkpt>
      <trkpt lat="39.0959730" lon="1.5505160">
        <ele>67.5</ele>
        <time>2020-02-23T13:22:07Z</time>
      </trkpt>
      <trkpt lat="39.0959570" lon="1.5505130">
        <ele>67.2</ele>
        <time>2020-02-23T13:22:08Z</time>
      </trkpt>
      <trkpt lat="39.0959520" lon="1.5505090">
        <ele>67.2</ele>
        <time>2020-02-23T13:22:09Z</time>
      </trkpt>
      <trkpt lat="39.0959470" lon="1.5504960">
        <ele>67.2</ele>
        <time>2020-02-23T13:22:10Z</time>
      </trkpt>
      <trkpt lat="39.0959450" lon="1.5504900">
        <ele>67.2</ele>
        <time>2020-02-23T13:22:11Z</time>
      </trkpt>
      <trkpt lat="39.0959430" lon="1.5504830">
        <ele>68.2</ele>
        <time>2020-02-23T13:22:12Z</time>
      </trkpt>
      <trkpt lat="39.0959410" lon="1.5504770">
        <ele>68.2</ele>
        <time>2020-02-23T13:22:13Z</time>
      </trkpt>
      <trkpt lat="39.0959390" lon="1.5504700">
        <ele>68.2</ele>
        <time>2020-02-23T13:22:14Z</time>
      </trkpt>
      <trkpt lat="39.0959370" lon="1.5504640">
        <ele>68.2</ele>
        <time>2020-02-23T13:22:15Z</time>
      </trkpt>
      <trkpt lat="39.0959250" lon="1.5504550">
        <ele>68.0</ele>
        <time>2020-02-23T13:22:16Z</time>
      </trkpt>
      <trkpt lat="39.0959170" lon="1.5504530">
        <ele>68.0</ele>
        <time>2020-02-23T13:22:17Z</time>
      </trkpt>
      <trkpt lat="39.0959060" lon="1.5504420">
        <ele>69.0</ele>
        <time>2020-02-23T13:22:18Z</time>
      </trkpt>
      <trkpt lat="39.0958970" lon="1.5504200">
        <ele>69.0</ele>
        <time>2020-02-23T13:22:19Z</time>
      </trkpt>
      <trkpt lat="39.0958900" lon="1.5504110">
        <ele>68.7</ele>
        <time>2020-02-23T13:22:20Z</time>
      </trkpt>
      <trkpt lat="39.0958840" lon="1.5504010">
        <ele>69.7</ele>
        <time>2020-02-23T13:22:21Z</time>
      </trkpt>
      <trkpt lat="39.0958780" lon="1.5503810">
        <ele>69.7</ele>
        <time>2020-02-23T13:22:22Z</time>
      </trkpt>
      <trkpt lat="39.0958730" lon="1.5503670">
        <ele>69.7</ele>
        <time>2020-02-23T13:22:23Z</time>
      </trkpt>
      <trkpt lat="39.0958680" lon="1.5503540">
        <ele>70.8</ele>
        <time>2020-02-23T13:22:24Z</time>
      </trkpt>
      <trkpt lat="39.0958670" lon="1.5503410">
        <ele>70.8</ele>
        <time>2020-02-23T13:22:25Z</time>
      </trkpt>
      <trkpt lat="39.0958650" lon="1.5503370">
        <ele>70.8</ele>
        <time>2020-02-23T13:22:26Z</time>
      </trkpt>
      <trkpt lat="39.0958660" lon="1.5503320">
        <ele>70.8</ele>
        <time>2020-02-23T13:22:27Z</time>
      </trkpt>
      <trkpt lat="39.0958690" lon="1.5503220">
        <ele>70.8</ele>
        <time>2020-02-23T13:22:28Z</time>
      </trkpt>
      <trkpt lat="39.0958670" lon="1.5503100">
        <ele>71.9</ele>
        <time>2020-02-23T13:22:29Z</time>
      </trkpt>
      <trkpt lat="39.0958660" lon="1.5503000">
        <ele>71.9</ele>
        <time>2020-02-23T13:22:30Z</time>
      </trkpt>
      <trkpt lat="39.0958580" lon="1.5502910">
        <ele>71.7</ele>
        <time>2020-02-23T13:22:31Z</time>
      </trkpt>
      <trkpt lat="39.0958570" lon="1.5502750">
        <ele>71.7</ele>
        <time>2020-02-23T13:22:32Z</time>
      </trkpt>
      <trkpt lat="39.0958560" lon="1.5502700">
        <ele>72.8</ele>
        <time>2020-02-23T13:22:33Z</time>
      </trkpt>
      <trkpt lat="39.0958580" lon="1.5502720">
        <ele>72.8</ele>
        <time>2020-02-23T13:22:34Z</time>
      </trkpt>
      <trkpt lat="39.0958580" lon="1.5502710">
        <ele>72.8</ele>
        <time>2020-02-23T13:22:35Z</time>
      </trkpt>
      <trkpt lat="39.0958590" lon="1.5502680">
        <ele>72.8</ele>
        <time>2020-02-23T13:22:36Z</time>
      </trkpt>
      <trkpt lat="39.0958570" lon="1.5502620">
        <ele>72.8</ele>
        <time>2020-02-23T13:22:37Z</time>
      </trkpt>
      <trkpt lat="39.0958520" lon="1.5502450">
        <ele>72.8</ele>
        <time>2020-02-23T13:22:38Z</time>
      </trkpt>
      <trkpt lat="39.0958510" lon="1.5502300">
        <ele>74.0</ele>
        <time>2020-02-23T13:22:39Z</time>
      </trkpt>
      <trkpt lat="39.0958470" lon="1.5502160">
        <ele>74.0</ele>
        <time>2020-02-23T13:22:40Z</time>
      </trkpt>
      <trkpt lat="39.0958390" lon="1.5501980">
        <ele>74.0</ele>
        <time>2020-02-23T13:22:41Z</time>
      </trkpt>
      <trkpt lat="39.0958320" lon="1.5501890">
        <ele>74.0</ele>
        <time>2020-02-23T13:22:42Z</time>
      </trkpt>
      <trkpt lat="39.0958300" lon="1.5501790">
        <ele>75.0</ele>
        <time>2020-02-23T13:22:43Z</time>
      </trkpt>
      <trkpt lat="39.0958270" lon="1.5501720">
        <ele>74.8</ele>
        <time>2020-02-23T13:22:44Z</time>
      </trkpt>
      <trkpt lat="39.0958330" lon="1.5501540">
        <ele>75.0</ele>
        <time>2020-02-23T13:22:45Z</time>
      </trkpt>
      <trkpt lat="39.0958350" lon="1.5501430">
        <ele>76.0</ele>
        <time>2020-02-23T13:22:46Z</time>
      </trkpt>
      <trkpt lat="39.0958340" lon="1.5501300">
        <ele>76.0</ele>
        <time>2020-02-23T13:22:47Z</time>
      </trkpt>
      <trkpt lat="39.0958360" lon="1.5501090">
        <ele>76.0</ele>
        <time>2020-02-23T13:22:48Z</time>
      </trkpt>
      <trkpt lat="39.0958370" lon="1.5500910">
        <ele>76.9</ele>
        <time>2020-02-23T13:22:49Z</time>
      </trkpt>
      <trkpt lat="39.0958340" lon="1.5500650">
        <ele>76.9</ele>
        <time>2020-02-23T13:22:50Z</time>
      </trkpt>
      <trkpt lat="39.0958360" lon="1.5500250">
        <ele>77.9</ele>
        <time>2020-02-23T13:22:51Z</time>
      </trkpt>
      <trkpt lat="39.0958330" lon="1.5500110">
        <ele>78.8</ele>
        <time>2020-02-23T13:22:52Z</time>
      </trkpt>
      <trkpt lat="39.0958300" lon="1.5499800">
        <ele>78.8</ele>
        <time>2020-02-23T13:22:53Z</time>
      </trkpt>
      <trkpt lat="39.0958290" lon="1.5499710">
        <ele>79.5</ele>
        <time>2020-02-23T13:22:54Z</time>
      </trkpt>
      <trkpt lat="39.0958270" lon="1.5499610">
        <ele>79.5</ele>
        <time>2020-02-23T13:22:55Z</time>
      </trkpt>
      <trkpt lat="39.0958260" lon="1.5499500">
        <ele>79.5</ele>
        <time>2020-02-23T13:22:56Z</time>
      </trkpt>
      <trkpt lat="39.0958250" lon="1.5499260">
        <ele>80.4</ele>
        <time>2020-02-23T13:22:57Z</time>
      </trkpt>
      <trkpt lat="39.0958200" lon="1.5498920">
        <ele>80.4</ele>
        <time>2020-02-23T13:22:58Z</time>
      </trkpt>
      <trkpt lat="39.0958120" lon="1.5498440">
        <ele>82.4</ele>
        <time>2020-02-23T13:22:59Z</time>
      </trkpt>
      <trkpt lat="39.0958110" lon="1.5498280">
        <ele>82.4</ele>
        <time>2020-02-23T13:23:00Z</time>
      </trkpt>
      <trkpt lat="39.0958050" lon="1.5497850">
        <ele>83.4</ele>
        <time>2020-02-23T13:23:01Z</time>
      </trkpt>
      <trkpt lat="39.0958030" lon="1.5497700">
        <ele>83.4</ele>
        <time>2020-02-23T13:23:02Z</time>
      </trkpt>
      <trkpt lat="39.0958000" lon="1.5497350">
        <ele>84.5</ele>
        <time>2020-02-23T13:23:03Z</time>
      </trkpt>
      <trkpt lat="39.0957930" lon="1.5496950">
        <ele>85.2</ele>
        <time>2020-02-23T13:23:04Z</time>
      </trkpt>
      <trkpt lat="39.0957740" lon="1.5496540">
        <ele>86.2</ele>
        <time>2020-02-23T13:23:05Z</time>
      </trkpt>
      <trkpt lat="39.0957650" lon="1.5496420">
        <ele>86.2</ele>
        <time>2020-02-23T13:23:06Z</time>
      </trkpt>
      <trkpt lat="39.0957340" lon="1.5496300">
        <ele>87.0</ele>
        <time>2020-02-23T13:23:07Z</time>
      </trkpt>
      <trkpt lat="39.0957220" lon="1.5496310">
        <ele>85.9</ele>
        <time>2020-02-23T13:23:08Z</time>
      </trkpt>
      <trkpt lat="39.0956930" lon="1.5496360">
        <ele>85.7</ele>
        <time>2020-02-23T13:23:09Z</time>
      </trkpt>
      <trkpt lat="39.0956740" lon="1.5496390">
        <ele>85.7</ele>
        <time>2020-02-23T13:23:10Z</time>
      </trkpt>
      <trkpt lat="39.0956590" lon="1.5496430">
        <ele>85.7</ele>
        <time>2020-02-23T13:23:11Z</time>
      </trkpt>
      <trkpt lat="39.0956380" lon="1.5496480">
        <ele>85.7</ele>
        <time>2020-02-23T13:23:12Z</time>
      </trkpt>
      <trkpt lat="39.0956250" lon="1.5496500">
        <ele>85.6</ele>
        <time>2020-02-23T13:23:13Z</time>
      </trkpt>
      <trkpt lat="39.0956140" lon="1.5496630">
        <ele>85.6</ele>
        <time>2020-02-23T13:23:14Z</time>
      </trkpt>
      <trkpt lat="39.0956020" lon="1.5496740">
        <ele>84.6</ele>
        <time>2020-02-23T13:23:15Z</time>
      </trkpt>
      <trkpt lat="39.0955860" lon="1.5496870">
        <ele>84.5</ele>
        <time>2020-02-23T13:23:16Z</time>
      </trkpt>
      <trkpt lat="39.0955780" lon="1.5496930">
        <ele>84.5</ele>
        <time>2020-02-23T13:23:17Z</time>
      </trkpt>
      <trkpt lat="39.0955730" lon="1.5496990">
        <ele>84.5</ele>
        <time>2020-02-23T13:23:18Z</time>
      </trkpt>
      <trkpt lat="39.0955690" lon="1.5497020">
        <ele>84.5</ele>
        <time>2020-02-23T13:23:19Z</time>
      </trkpt>
      <trkpt lat="39.0955660" lon="1.5497050">
        <ele>84.5</ele>
        <time>2020-02-23T13:23:20Z</time>
      </trkpt>
      <trkpt lat="39.0955630" lon="1.5497080">
        <ele>84.5</ele>
        <time>2020-02-23T13:23:21Z</time>
      </trkpt>
      <trkpt lat="39.0955600" lon="1.5497120">
        <ele>84.5</ele>
        <time>2020-02-23T13:23:22Z</time>
      </trkpt>
      <trkpt lat="39.0955560" lon="1.5497150">
        <ele>84.5</ele>
        <time>2020-02-23T13:23:23Z</time>
      </trkpt>
      <trkpt lat="39.0955530" lon="1.5497180">
        <ele>83.4</ele>
        <time>2020-02-23T13:23:24Z</time>
      </trkpt>
      <trkpt lat="39.0955500" lon="1.5497210">
        <ele>83.4</ele>
        <time>2020-02-23T13:23:25Z</time>
      </trkpt>
      <trkpt lat="39.0955460" lon="1.5497240">
        <ele>83.4</ele>
        <time>2020-02-23T13:23:26Z</time>
      </trkpt>
      <trkpt lat="39.0955430" lon="1.5497270">
        <ele>83.4</ele>
        <time>2020-02-23T13:23:27Z</time>
      </trkpt>
      <trkpt lat="39.0955280" lon="1.5497390">
        <ele>83.4</ele>
        <time>2020-02-23T13:23:28Z</time>
      </trkpt>
      <trkpt lat="39.0955180" lon="1.5497570">
        <ele>83.4</ele>
        <time>2020-02-23T13:23:29Z</time>
      </trkpt>
      <trkpt lat="39.0955050" lon="1.5497720">
        <ele>82.4</ele>
        <time>2020-02-23T13:23:30Z</time>
      </trkpt>
      <trkpt lat="39.0954960" lon="1.5497900">
        <ele>82.3</ele>
        <time>2020-02-23T13:23:31Z</time>
      </trkpt>
      <trkpt lat="39.0954910" lon="1.5498130">
        <ele>81.3</ele>
        <time>2020-02-23T13:23:32Z</time>
      </trkpt>
      <trkpt lat="39.0954810" lon="1.5498280">
        <ele>81.3</ele>
        <time>2020-02-23T13:23:33Z</time>
      </trkpt>
      <trkpt lat="39.0954640" lon="1.5498540">
        <ele>80.2</ele>
        <time>2020-02-23T13:23:34Z</time>
      </trkpt>
      <trkpt lat="39.0954570" lon="1.5498640">
        <ele>80.2</ele>
        <time>2020-02-23T13:23:35Z</time>
      </trkpt>
      <trkpt lat="39.0954490" lon="1.5498840">
        <ele>80.2</ele>
        <time>2020-02-23T13:23:36Z</time>
      </trkpt>
      <trkpt lat="39.0954340" lon="1.5498910">
        <ele>79.2</ele>
        <time>2020-02-23T13:23:37Z</time>
      </trkpt>
      <trkpt lat="39.0954250" lon="1.5499030">
        <ele>79.1</ele>
        <time>2020-02-23T13:23:38Z</time>
      </trkpt>
      <trkpt lat="39.0954110" lon="1.5499140">
        <ele>79.1</ele>
        <time>2020-02-23T13:23:39Z</time>
      </trkpt>
      <trkpt lat="39.0953990" lon="1.5499280">
        <ele>79.1</ele>
        <time>2020-02-23T13:23:40Z</time>
      </trkpt>
      <trkpt lat="39.0953880" lon="1.5499420">
        <ele>78.1</ele>
        <time>2020-02-23T13:23:41Z</time>
      </trkpt>
      <trkpt lat="39.0953790" lon="1.5499550">
        <ele>78.1</ele>
        <time>2020-02-23T13:23:42Z</time>
      </trkpt>
      <trkpt lat="39.0953660" lon="1.5499700">
        <ele>78.1</ele>
        <time>2020-02-23T13:23:43Z</time>
      </trkpt>
      <trkpt lat="39.0953400" lon="1.5499880">
        <ele>77.0</ele>
        <time>2020-02-23T13:23:44Z</time>
      </trkpt>
      <trkpt lat="39.0953320" lon="1.5499900">
        <ele>77.0</ele>
        <time>2020-02-23T13:23:45Z</time>
      </trkpt>
      <trkpt lat="39.0953010" lon="1.5499780">
        <ele>77.0</ele>
        <time>2020-02-23T13:23:46Z</time>
      </trkpt>
      <trkpt lat="39.0952920" lon="1.5499710">
        <ele>78.1</ele>
        <time>2020-02-23T13:23:47Z</time>
      </trkpt>
      <trkpt lat="39.0952730" lon="1.5499350">
        <ele>78.1</ele>
        <time>2020-02-23T13:23:48Z</time>
      </trkpt>
      <trkpt lat="39.0952660" lon="1.5499240">
        <ele>79.2</ele>
        <time>2020-02-23T13:23:49Z</time>
      </trkpt>
      <trkpt lat="39.0952390" lon="1.5499000">
        <ele>79.2</ele>
        <time>2020-02-23T13:23:50Z</time>
      </trkpt>
      <trkpt lat="39.0952260" lon="1.5498930">
        <ele>79.3</ele>
        <time>2020-02-23T13:23:51Z</time>
      </trkpt>
      <trkpt lat="39.0951620" lon="1.5498450">
        <ele>80.6</ele>
        <time>2020-02-23T13:23:52Z</time>
      </trkpt>
      <trkpt lat="39.0951100" lon="1.5498030">
        <ele>81.9</ele>
        <time>2020-02-23T13:23:53Z</time>
      </trkpt>
      <trkpt lat="39.0950660" lon="1.5497720">
        <ele>83.3</ele>
        <time>2020-02-23T13:23:54Z</time>
      </trkpt>
      <trkpt lat="39.0950250" lon="1.5497420">
        <ele>85.0</ele>
        <time>2020-02-23T13:23:55Z</time>
      </trkpt>
      <trkpt lat="39.0949890" lon="1.5497310">
        <ele>85.3</ele>
        <time>2020-02-23T13:23:56Z</time>
      </trkpt>
      <trkpt lat="39.0949570" lon="1.5497300">
        <ele>85.6</ele>
        <time>2020-02-23T13:23:57Z</time>
      </trkpt>
      <trkpt lat="39.0949200" lon="1.5497220">
        <ele>85.9</ele>
        <time>2020-02-23T13:23:58Z</time>
      </trkpt>
      <trkpt lat="39.0948850" lon="1.5497200">
        <ele>86.3</ele>
        <time>2020-02-23T13:23:59Z</time>
      </trkpt>
      <trkpt lat="39.0948630" lon="1.5497460">
        <ele>86.7</ele>
        <time>2020-02-23T13:24:00Z</time>
      </trkpt>
      <trkpt lat="39.0948610" lon="1.5497610">
        <ele>85.4</ele>
        <time>2020-02-23T13:24:01Z</time>
      </trkpt>
      <trkpt lat="39.0948530" lon="1.5498010">
        <ele>85.4</ele>
        <time>2020-02-23T13:24:02Z</time>
      </trkpt>
      <trkpt lat="39.0948530" lon="1.5498120">
        <ele>84.1</ele>
        <time>2020-02-23T13:24:03Z</time>
      </trkpt>
      <trkpt lat="39.0948530" lon="1.5498530">
        <ele>82.8</ele>
        <time>2020-02-23T13:24:04Z</time>
      </trkpt>
      <trkpt lat="39.0948550" lon="1.5498670">
        <ele>82.8</ele>
        <time>2020-02-23T13:24:05Z</time>
      </trkpt>
      <trkpt lat="39.0948620" lon="1.5499100">
        <ele>81.5</ele>
        <time>2020-02-23T13:24:06Z</time>
      </trkpt>
      <trkpt lat="39.0948610" lon="1.5499200">
        <ele>81.5</ele>
        <time>2020-02-23T13:24:07Z</time>
      </trkpt>
      <trkpt lat="39.0948520" lon="1.5499420">
        <ele>80.2</ele>
        <time>2020-02-23T13:24:08Z</time>
      </trkpt>
      <trkpt lat="39.0948490" lon="1.5499530">
        <ele>80.2</ele>
        <time>2020-02-23T13:24:09Z</time>
      </trkpt>
      <trkpt lat="39.0948470" lon="1.5499650">
        <ele>80.2</ele>
        <time>2020-02-23T13:24:10Z</time>
      </trkpt>
      <trkpt lat="39.0948400" lon="1.5499750">
        <ele>79.1</ele>
        <time>2020-02-23T13:24:11Z</time>
      </trkpt>
      <trkpt lat="39.0948290" lon="1.5500020">
        <ele>79.5</ele>
        <time>2020-02-23T13:24:12Z</time>
      </trkpt>
      <trkpt lat="39.0948230" lon="1.5500180">
        <ele>78.3</ele>
        <time>2020-02-23T13:24:13Z</time>
      </trkpt>
      <trkpt lat="39.0948170" lon="1.5500370">
        <ele>78.3</ele>
        <time>2020-02-23T13:24:14Z</time>
      </trkpt>
      <trkpt lat="39.0948120" lon="1.5500730">
        <ele>77.2</ele>
        <time>2020-02-23T13:24:15Z</time>
      </trkpt>
      <trkpt lat="39.0948130" lon="1.5500870">
        <ele>77.2</ele>
        <time>2020-02-23T13:24:16Z</time>
      </trkpt>
      <trkpt lat="39.0948110" lon="1.5501360">
        <ele>76.0</ele>
        <time>2020-02-23T13:24:17Z</time>
      </trkpt>
      <trkpt lat="39.0948100" lon="1.5501530">
        <ele>74.9</ele>
        <time>2020-02-23T13:24:18Z</time>
      </trkpt>
      <trkpt lat="39.0948030" lon="1.5501930">
        <ele>73.8</ele>
        <time>2020-02-23T13:24:19Z</time>
      </trkpt>
      <trkpt lat="39.0947940" lon="1.5502210">
        <ele>74.2</ele>
        <time>2020-02-23T13:24:20Z</time>
      </trkpt>
      <trkpt lat="39.0947950" lon="1.5502330">
        <ele>73.0</ele>
        <time>2020-02-23T13:24:21Z</time>
      </trkpt>
      <trkpt lat="39.0947950" lon="1.5502450">
        <ele>73.0</ele>
        <time>2020-02-23T13:24:22Z</time>
      </trkpt>
      <trkpt lat="39.0947760" lon="1.5502860">
        <ele>71.9</ele>
        <time>2020-02-23T13:24:23Z</time>
      </trkpt>
      <trkpt lat="39.0947760" lon="1.5503000">
        <ele>71.9</ele>
        <time>2020-02-23T13:24:24Z</time>
      </trkpt>
      <trkpt lat="39.0947610" lon="1.5502790">
        <ele>72.4</ele>
        <time>2020-02-23T13:24:25Z</time>
      </trkpt>
      <trkpt lat="39.0947590" lon="1.5502890">
        <ele>72.4</ele>
        <time>2020-02-23T13:24:26Z</time>
      </trkpt>
      <trkpt lat="39.0947660" lon="1.5502920">
        <ele>71.9</ele>
        <time>2020-02-23T13:24:27Z</time>
      </trkpt>
      <trkpt lat="39.0947660" lon="1.5502970">
        <ele>71.9</ele>
        <time>2020-02-23T13:24:28Z</time>
      </trkpt>
      <trkpt lat="39.0947640" lon="1.5502990">
        <ele>71.9</ele>
        <time>2020-02-23T13:24:29Z</time>
      </trkpt>
      <trkpt lat="39.0947560" lon="1.5503000">
        <ele>72.4</ele>
        <time>2020-02-23T13:24:30Z</time>
      </trkpt>
      <trkpt lat="39.0947590" lon="1.5503110">
        <ele>72.4</ele>
        <time>2020-02-23T13:24:31Z</time>
      </trkpt>
      <trkpt lat="39.0947660" lon="1.5503120">
        <ele>71.9</ele>
        <time>2020-02-23T13:24:32Z</time>
      </trkpt>
      <trkpt lat="39.0947700" lon="1.5503160">
        <ele>71.9</ele>
        <time>2020-02-23T13:24:33Z</time>
      </trkpt>
      <trkpt lat="39.0947720" lon="1.5503200">
        <ele>70.9</ele>
        <time>2020-02-23T13:24:34Z</time>
      </trkpt>
      <trkpt lat="39.0947690" lon="1.5503260">
        <ele>70.9</ele>
        <time>2020-02-23T13:24:35Z</time>
      </trkpt>
      <trkpt lat="39.0947610" lon="1.5503320">
        <ele>71.3</ele>
        <time>2020-02-23T13:24:36Z</time>
      </trkpt>
      <trkpt lat="39.0947970" lon="1.5503240">
        <ele>70.9</ele>
        <time>2020-02-23T13:25:19Z</time>
      </trkpt>
      <trkpt lat="39.0948040" lon="1.5503090">
        <ele>71.6</ele>
        <time>2020-02-23T13:25:20Z</time>
      </trkpt>
      <trkpt lat="39.0948090" lon="1.5502980">
        <ele>71.6</ele>
        <time>2020-02-23T13:25:21Z</time>
      </trkpt>
      <trkpt lat="39.0948090" lon="1.5502750">
        <ele>71.6</ele>
        <time>2020-02-23T13:25:22Z</time>
      </trkpt>
      <trkpt lat="39.0948090" lon="1.5502580">
        <ele>72.7</ele>
        <time>2020-02-23T13:25:23Z</time>
      </trkpt>
      <trkpt lat="39.0948080" lon="1.5502420">
        <ele>72.7</ele>
        <time>2020-02-23T13:25:24Z</time>
      </trkpt>
      <trkpt lat="39.0948090" lon="1.5502270">
        <ele>73.8</ele>
        <time>2020-02-23T13:25:25Z</time>
      </trkpt>
      <trkpt lat="39.0948060" lon="1.5502150">
        <ele>73.8</ele>
        <time>2020-02-23T13:25:26Z</time>
      </trkpt>
      <trkpt lat="39.0948000" lon="1.5502020">
        <ele>73.8</ele>
        <time>2020-02-23T13:25:27Z</time>
      </trkpt>
      <trkpt lat="39.0947940" lon="1.5501920">
        <ele>74.2</ele>
        <time>2020-02-23T13:25:28Z</time>
      </trkpt>
      <trkpt lat="39.0947880" lon="1.5501810">
        <ele>75.3</ele>
        <time>2020-02-23T13:25:29Z</time>
      </trkpt>
      <trkpt lat="39.0947800" lon="1.5501740">
        <ele>75.3</ele>
        <time>2020-02-23T13:25:30Z</time>
      </trkpt>
      <trkpt lat="39.0947750" lon="1.5501620">
        <ele>75.3</ele>
        <time>2020-02-23T13:25:31Z</time>
      </trkpt>
      <trkpt lat="39.0947670" lon="1.5501480">
        <ele>75.3</ele>
        <time>2020-02-23T13:25:32Z</time>
      </trkpt>
      <trkpt lat="39.0947600" lon="1.5501350">
        <ele>76.9</ele>
        <time>2020-02-23T13:25:33Z</time>
      </trkpt>
      <trkpt lat="39.0947550" lon="1.5501240">
        <ele>76.9</ele>
        <time>2020-02-23T13:25:34Z</time>
      </trkpt>
      <trkpt lat="39.0947530" lon="1.5501150">
        <ele>76.9</ele>
        <time>2020-02-23T13:25:35Z</time>
      </trkpt>
      <trkpt lat="39.0947530" lon="1.5501040">
        <ele>76.9</ele>
        <time>2020-02-23T13:25:36Z</time>
      </trkpt>
      <trkpt lat="39.0947540" lon="1.5500890">
        <ele>78.1</ele>
        <time>2020-02-23T13:25:37Z</time>
      </trkpt>
      <trkpt lat="39.0947540" lon="1.5500770">
        <ele>78.1</ele>
        <time>2020-02-23T13:25:38Z</time>
      </trkpt>
      <trkpt lat="39.0947590" lon="1.5500590">
        <ele>79.2</ele>
        <time>2020-02-23T13:25:39Z</time>
      </trkpt>
      <trkpt lat="39.0947530" lon="1.5500500">
        <ele>79.2</ele>
        <time>2020-02-23T13:25:40Z</time>
      </trkpt>
      <trkpt lat="39.0947520" lon="1.5500390">
        <ele>79.2</ele>
        <time>2020-02-23T13:25:41Z</time>
      </trkpt>
      <trkpt lat="39.0947550" lon="1.5500360">
        <ele>79.2</ele>
        <time>2020-02-23T13:25:42Z</time>
      </trkpt>
      <trkpt lat="39.0947470" lon="1.5500370">
        <ele>79.2</ele>
        <time>2020-02-23T13:25:43Z</time>
      </trkpt>
      <trkpt lat="39.0947410" lon="1.5500300">
        <ele>79.2</ele>
        <time>2020-02-23T13:25:44Z</time>
      </trkpt>
      <trkpt lat="39.0947320" lon="1.5500250">
        <ele>79.2</ele>
        <time>2020-02-23T13:25:45Z</time>
      </trkpt>
      <trkpt lat="39.0947240" lon="1.5500230">
        <ele>79.7</ele>
        <time>2020-02-23T13:25:46Z</time>
      </trkpt>
      <trkpt lat="39.0947140" lon="1.5500200">
        <ele>79.7</ele>
        <time>2020-02-23T13:25:47Z</time>
      </trkpt>
      <trkpt lat="39.0947070" lon="1.5500250">
        <ele>79.7</ele>
        <time>2020-02-23T13:25:48Z</time>
      </trkpt>
      <trkpt lat="39.0947010" lon="1.5500290">
        <ele>79.7</ele>
        <time>2020-02-23T13:25:49Z</time>
      </trkpt>
      <trkpt lat="39.0946940" lon="1.5500340">
        <ele>80.3</ele>
        <time>2020-02-23T13:25:50Z</time>
      </trkpt>
      <trkpt lat="39.0946880" lon="1.5500390">
        <ele>80.3</ele>
        <time>2020-02-23T13:25:51Z</time>
      </trkpt>
      <trkpt lat="39.0946880" lon="1.5500490">
        <ele>80.3</ele>
        <time>2020-02-23T13:25:52Z</time>
      </trkpt>
      <trkpt lat="39.0946810" lon="1.5500300">
        <ele>80.3</ele>
        <time>2020-02-23T13:25:53Z</time>
      </trkpt>
      <trkpt lat="39.0946770" lon="1.5500300">
        <ele>80.3</ele>
        <time>2020-02-23T13:25:54Z</time>
      </trkpt>
      <trkpt lat="39.0946670" lon="1.5500360">
        <ele>80.3</ele>
        <time>2020-02-23T13:25:55Z</time>
      </trkpt>
      <trkpt lat="39.0946610" lon="1.5500430">
        <ele>80.8</ele>
        <time>2020-02-23T13:25:56Z</time>
      </trkpt>
      <trkpt lat="39.0946640" lon="1.5500500">
        <ele>80.3</ele>
        <time>2020-02-23T13:25:57Z</time>
      </trkpt>
      <trkpt lat="39.0946620" lon="1.5500530">
        <ele>80.8</ele>
        <time>2020-02-23T13:25:58Z</time>
      </trkpt>
      <trkpt lat="39.0946570" lon="1.5500370">
        <ele>80.8</ele>
        <time>2020-02-23T13:25:59Z</time>
      </trkpt>
      <trkpt lat="39.0946490" lon="1.5500400">
        <ele>80.8</ele>
        <time>2020-02-23T13:26:00Z</time>
      </trkpt>
      <trkpt lat="39.0946490" lon="1.5500430">
        <ele>80.8</ele>
        <time>2020-02-23T13:26:01Z</time>
      </trkpt>
      <trkpt lat="39.0946490" lon="1.5500440">
        <ele>80.8</ele>
        <time>2020-02-23T13:26:02Z</time>
      </trkpt>
      <trkpt lat="39.0946490" lon="1.5500440">
        <ele>80.8</ele>
        <time>2020-02-23T13:26:03Z</time>
      </trkpt>
      <trkpt lat="39.0946520" lon="1.5500440">
        <ele>80.8</ele>
        <time>2020-02-23T13:26:04Z</time>
      </trkpt>
      <trkpt lat="39.0946480" lon="1.5500430">
        <ele>80.8</ele>
        <time>2020-02-23T13:26:05Z</time>
      </trkpt>
      <trkpt lat="39.0946490" lon="1.5500420">
        <ele>80.8</ele>
        <time>2020-02-23T13:26:06Z</time>
      </trkpt>
      <trkpt lat="39.0946550" lon="1.5500490">
        <ele>80.8</ele>
        <time>2020-02-23T13:26:07Z</time>
      </trkpt>
      <trkpt lat="39.0946510" lon="1.5500420">
        <ele>80.8</ele>
        <time>2020-02-23T13:26:08Z</time>
      </trkpt>
      <trkpt lat="39.0946540" lon="1.5500470">
        <ele>80.8</ele>
        <time>2020-02-23T13:26:09Z</time>
      </trkpt>
      <trkpt lat="39.0946520" lon="1.5500480">
        <ele>80.8</ele>
        <time>2020-02-23T13:26:10Z</time>
      </trkpt>
      <trkpt lat="39.0946500" lon="1.5501160">
        <ele>78.4</ele>
        <time>2020-02-23T13:26:25Z</time>
      </trkpt>
      <trkpt lat="39.0946490" lon="1.5501280">
        <ele>78.4</ele>
        <time>2020-02-23T13:26:26Z</time>
      </trkpt>
      <trkpt lat="39.0946470" lon="1.5501390">
        <ele>78.4</ele>
        <time>2020-02-23T13:26:27Z</time>
      </trkpt>
      <trkpt lat="39.0946400" lon="1.5501530">
        <ele>77.3</ele>
        <time>2020-02-23T13:26:28Z</time>
      </trkpt>
      <trkpt lat="39.0946420" lon="1.5501640">
        <ele>77.3</ele>
        <time>2020-02-23T13:26:29Z</time>
      </trkpt>
      <trkpt lat="39.0946360" lon="1.5501670">
        <ele>77.3</ele>
        <time>2020-02-23T13:26:30Z</time>
      </trkpt>
      <trkpt lat="39.0946330" lon="1.5501700">
        <ele>77.3</ele>
        <time>2020-02-23T13:26:31Z</time>
      </trkpt>
      <trkpt lat="39.0946310" lon="1.5501690">
        <ele>77.3</ele>
        <time>2020-02-23T13:26:32Z</time>
      </trkpt>
      <trkpt lat="39.0946310" lon="1.5501690">
        <ele>77.3</ele>
        <time>2020-02-23T13:26:33Z</time>
      </trkpt>
      <trkpt lat="39.0946300" lon="1.5501690">
        <ele>77.8</ele>
        <time>2020-02-23T13:26:34Z</time>
      </trkpt>
      <trkpt lat="39.0946300" lon="1.5501690">
        <ele>77.8</ele>
        <time>2020-02-23T13:26:35Z</time>
      </trkpt>
      <trkpt lat="39.0946290" lon="1.5501700">
        <ele>77.8</ele>
        <time>2020-02-23T13:26:36Z</time>
      </trkpt>
      <trkpt lat="39.0946270" lon="1.5501710">
        <ele>77.8</ele>
        <time>2020-02-23T13:26:37Z</time>
      </trkpt>
      <trkpt lat="39.0946260" lon="1.5501720">
        <ele>77.8</ele>
        <time>2020-02-23T13:26:38Z</time>
      </trkpt>
      <trkpt lat="39.0946250" lon="1.5501660">
        <ele>77.8</ele>
        <time>2020-02-23T13:26:39Z</time>
      </trkpt>
      <trkpt lat="39.0946240" lon="1.5501650">
        <ele>77.8</ele>
        <time>2020-02-23T13:26:40Z</time>
      </trkpt>
      <trkpt lat="39.0946240" lon="1.5501630">
        <ele>77.8</ele>
        <time>2020-02-23T13:26:41Z</time>
      </trkpt>
      <trkpt lat="39.0945740" lon="1.5500960">
        <ele>80.8</ele>
        <time>2020-02-23T13:27:04Z</time>
      </trkpt>
      <trkpt lat="39.0945730" lon="1.5500720">
        <ele>80.8</ele>
        <time>2020-02-23T13:27:05Z</time>
      </trkpt>
      <trkpt lat="39.0945770" lon="1.5500300">
        <ele>82.0</ele>
        <time>2020-02-23T13:27:06Z</time>
      </trkpt>
      <trkpt lat="39.0945630" lon="1.5499910">
        <ele>83.9</ele>
        <time>2020-02-23T13:27:07Z</time>
      </trkpt>
      <trkpt lat="39.0945410" lon="1.5499600">
        <ele>85.2</ele>
        <time>2020-02-23T13:27:08Z</time>
      </trkpt>
      <trkpt lat="39.0945300" lon="1.5499560">
        <ele>85.9</ele>
        <time>2020-02-23T13:27:09Z</time>
      </trkpt>
      <trkpt lat="39.0945010" lon="1.5499410">
        <ele>85.9</ele>
        <time>2020-02-23T13:27:10Z</time>
      </trkpt>
      <trkpt lat="39.0944930" lon="1.5499360">
        <ele>86.6</ele>
        <time>2020-02-23T13:27:11Z</time>
      </trkpt>
      <trkpt lat="39.0944820" lon="1.5499230">
        <ele>88.0</ele>
        <time>2020-02-23T13:27:12Z</time>
      </trkpt>
      <trkpt lat="39.0944800" lon="1.5499160">
        <ele>88.0</ele>
        <time>2020-02-23T13:27:13Z</time>
      </trkpt>
      <trkpt lat="39.0944760" lon="1.5499140">
        <ele>88.0</ele>
        <time>2020-02-23T13:27:14Z</time>
      </trkpt>
      <trkpt lat="39.0944770" lon="1.5499080">
        <ele>88.0</ele>
        <time>2020-02-23T13:27:15Z</time>
      </trkpt>
      <trkpt lat="39.0944570" lon="1.5498970">
        <ele>88.8</ele>
        <time>2020-02-23T13:27:16Z</time>
      </trkpt>
      <trkpt lat="39.0944500" lon="1.5498910">
        <ele>88.8</ele>
        <time>2020-02-23T13:27:17Z</time>
      </trkpt>
      <trkpt lat="39.0944420" lon="1.5498850">
        <ele>90.2</ele>
        <time>2020-02-23T13:27:18Z</time>
      </trkpt>
      <trkpt lat="39.0944160" lon="1.5498600">
        <ele>90.9</ele>
        <time>2020-02-23T13:27:19Z</time>
      </trkpt>
      <trkpt lat="39.0944060" lon="1.5498520">
        <ele>90.9</ele>
        <time>2020-02-23T13:27:20Z</time>
      </trkpt>
      <trkpt lat="39.0943970" lon="1.5498410">
        <ele>93.1</ele>
        <time>2020-02-23T13:27:21Z</time>
      </trkpt>
      <trkpt lat="39.0943890" lon="1.5498320">
        <ele>93.1</ele>
        <time>2020-02-23T13:27:22Z</time>
      </trkpt>
      <trkpt lat="39.0943770" lon="1.5498330">
        <ele>93.1</ele>
        <time>2020-02-23T13:27:23Z</time>
      </trkpt>
      <trkpt lat="39.0943690" lon="1.5498330">
        <ele>93.1</ele>
        <time>2020-02-23T13:27:24Z</time>
      </trkpt>
      <trkpt lat="39.0943620" lon="1.5498280">
        <ele>93.8</ele>
        <time>2020-02-23T13:27:25Z</time>
      </trkpt>
      <trkpt lat="39.0943560" lon="1.5498240">
        <ele>93.8</ele>
        <time>2020-02-23T13:27:26Z</time>
      </trkpt>
      <trkpt lat="39.0943490" lon="1.5498190">
        <ele>93.8</ele>
        <time>2020-02-23T13:27:27Z</time>
      </trkpt>
      <trkpt lat="39.0943420" lon="1.5498140">
        <ele>93.8</ele>
        <time>2020-02-23T13:27:28Z</time>
      </trkpt>
      <trkpt lat="39.0943230" lon="1.5498010">
        <ele>96.0</ele>
        <time>2020-02-23T13:27:29Z</time>
      </trkpt>
      <trkpt lat="39.0943150" lon="1.5497920">
        <ele>96.0</ele>
        <time>2020-02-23T13:27:30Z</time>
      </trkpt>
      <trkpt lat="39.0943070" lon="1.5497830">
        <ele>96.0</ele>
        <time>2020-02-23T13:27:31Z</time>
      </trkpt>
      <trkpt lat="39.0942960" lon="1.5497670">
        <ele>96.7</ele>
        <time>2020-02-23T13:27:32Z</time>
      </trkpt>
      <trkpt lat="39.0942910" lon="1.5497560">
        <ele>98.2</ele>
        <time>2020-02-23T13:27:33Z</time>
      </trkpt>
      <trkpt lat="39.0942860" lon="1.5497440">
        <ele>98.2</ele>
        <time>2020-02-23T13:27:34Z</time>
      </trkpt>
      <trkpt lat="39.0942650" lon="1.5497390">
        <ele>98.2</ele>
        <time>2020-02-23T13:27:35Z</time>
      </trkpt>
      <trkpt lat="39.0942570" lon="1.5497320">
        <ele>98.8</ele>
        <time>2020-02-23T13:27:36Z</time>
      </trkpt>
      <trkpt lat="39.0942490" lon="1.5497260">
        <ele>98.8</ele>
        <time>2020-02-23T13:27:37Z</time>
      </trkpt>
      <trkpt lat="39.0942430" lon="1.5497340">
        <ele>98.8</ele>
        <time>2020-02-23T13:27:38Z</time>
      </trkpt>
      <trkpt lat="39.0942560" lon="1.5497310">
        <ele>98.8</ele>
        <time>2020-02-23T13:27:39Z</time>
      </trkpt>
      <trkpt lat="39.0942580" lon="1.5497410">
        <ele>98.8</ele>
        <time>2020-02-23T13:27:40Z</time>
      </trkpt>
      <trkpt lat="39.0942620" lon="1.5497410">
        <ele>98.8</ele>
        <time>2020-02-23T13:27:41Z</time>
      </trkpt>
      <trkpt lat="39.0942690" lon="1.5497510">
        <ele>98.2</ele>
        <time>2020-02-23T13:27:42Z</time>
      </trkpt>
      <trkpt lat="39.0942760" lon="1.5497570">
        <ele>98.2</ele>
        <time>2020-02-23T13:27:43Z</time>
      </trkpt>
      <trkpt lat="39.0942790" lon="1.5497640">
        <ele>96.7</ele>
        <time>2020-02-23T13:27:44Z</time>
      </trkpt>
      <trkpt lat="39.0942850" lon="1.5497810">
        <ele>96.7</ele>
        <time>2020-02-23T13:27:45Z</time>
      </trkpt>
      <trkpt lat="39.0942890" lon="1.5497910">
        <ele>96.7</ele>
        <time>2020-02-23T13:27:46Z</time>
      </trkpt>
      <trkpt lat="39.0942930" lon="1.5498060">
        <ele>95.2</ele>
        <time>2020-02-23T13:27:47Z</time>
      </trkpt>
      <trkpt lat="39.0942930" lon="1.5498230">
        <ele>95.2</ele>
        <time>2020-02-23T13:27:48Z</time>
      </trkpt>
      <trkpt lat="39.0943050" lon="1.5498410">
        <ele>94.5</ele>
        <time>2020-02-23T13:27:49Z</time>
      </trkpt>
      <trkpt lat="39.0943100" lon="1.5498570">
        <ele>93.1</ele>
        <time>2020-02-23T13:27:50Z</time>
      </trkpt>
      <trkpt lat="39.0943180" lon="1.5498840">
        <ele>93.1</ele>
        <time>2020-02-23T13:27:51Z</time>
      </trkpt>
      <trkpt lat="39.0943250" lon="1.5498940">
        <ele>91.7</ele>
        <time>2020-02-23T13:27:52Z</time>
      </trkpt>
      <trkpt lat="39.0943310" lon="1.5499050">
        <ele>90.9</ele>
        <time>2020-02-23T13:27:53Z</time>
      </trkpt>
      <trkpt lat="39.0943380" lon="1.5499130">
        <ele>90.9</ele>
        <time>2020-02-23T13:27:54Z</time>
      </trkpt>
      <trkpt lat="39.0943400" lon="1.5499310">
        <ele>89.5</ele>
        <time>2020-02-23T13:27:55Z</time>
      </trkpt>
      <trkpt lat="39.0943450" lon="1.5499460">
        <ele>89.5</ele>
        <time>2020-02-23T13:27:56Z</time>
      </trkpt>
      <trkpt lat="39.0943520" lon="1.5499580">
        <ele>89.5</ele>
        <time>2020-02-23T13:27:57Z</time>
      </trkpt>
      <trkpt lat="39.0943580" lon="1.5499700">
        <ele>89.5</ele>
        <time>2020-02-23T13:27:58Z</time>
      </trkpt>
      <trkpt lat="39.0943650" lon="1.5499810">
        <ele>87.5</ele>
        <time>2020-02-23T13:27:59Z</time>
      </trkpt>
      <trkpt lat="39.0943690" lon="1.5499940">
        <ele>87.5</ele>
        <time>2020-02-23T13:28:00Z</time>
      </trkpt>
      <trkpt lat="39.0943690" lon="1.5500120">
        <ele>87.5</ele>
        <time>2020-02-23T13:28:01Z</time>
      </trkpt>
      <trkpt lat="39.0943680" lon="1.5500220">
        <ele>86.2</ele>
        <time>2020-02-23T13:28:02Z</time>
      </trkpt>
      <trkpt lat="39.0943610" lon="1.5500270">
        <ele>86.9</ele>
        <time>2020-02-23T13:28:03Z</time>
      </trkpt>
      <trkpt lat="39.0943570" lon="1.5500350">
        <ele>86.9</ele>
        <time>2020-02-23T13:28:04Z</time>
      </trkpt>
      <trkpt lat="39.0943520" lon="1.5500430">
        <ele>86.9</ele>
        <time>2020-02-23T13:28:05Z</time>
      </trkpt>
      <trkpt lat="39.0943510" lon="1.5500590">
        <ele>86.9</ele>
        <time>2020-02-23T13:28:06Z</time>
      </trkpt>
      <trkpt lat="39.0943440" lon="1.5500680">
        <ele>85.7</ele>
        <time>2020-02-23T13:28:07Z</time>
      </trkpt>
      <trkpt lat="39.0943280" lon="1.5500890">
        <ele>86.4</ele>
        <time>2020-02-23T13:28:08Z</time>
      </trkpt>
      <trkpt lat="39.0943190" lon="1.5501090">
        <ele>85.2</ele>
        <time>2020-02-23T13:28:09Z</time>
      </trkpt>
      <trkpt lat="39.0943110" lon="1.5501190">
        <ele>85.2</ele>
        <time>2020-02-23T13:28:10Z</time>
      </trkpt>
      <trkpt lat="39.0943030" lon="1.5501360">
        <ele>85.2</ele>
        <time>2020-02-23T13:28:11Z</time>
      </trkpt>
      <trkpt lat="39.0942950" lon="1.5501380">
        <ele>86.0</ele>
        <time>2020-02-23T13:28:12Z</time>
      </trkpt>
      <trkpt lat="39.0942950" lon="1.5501520">
        <ele>84.7</ele>
        <time>2020-02-23T13:28:13Z</time>
      </trkpt>
      <trkpt lat="39.0942810" lon="1.5501770">
        <ele>84.7</ele>
        <time>2020-02-23T13:28:14Z</time>
      </trkpt>
      <trkpt lat="39.0942750" lon="1.5501880">
        <ele>84.7</ele>
        <time>2020-02-23T13:28:15Z</time>
      </trkpt>
      <trkpt lat="39.0942680" lon="1.5502000">
        <ele>83.5</ele>
        <time>2020-02-23T13:28:16Z</time>
      </trkpt>
      <trkpt lat="39.0942460" lon="1.5502420">
        <ele>83.0</ele>
        <time>2020-02-23T13:28:17Z</time>
      </trkpt>
      <trkpt lat="39.0942390" lon="1.5502570">
        <ele>83.0</ele>
        <time>2020-02-23T13:28:18Z</time>
      </trkpt>
      <trkpt lat="39.0942240" lon="1.5502870">
        <ele>82.4</ele>
        <time>2020-02-23T13:28:19Z</time>
      </trkpt>
      <trkpt lat="39.0942190" lon="1.5502970">
        <ele>82.4</ele>
        <time>2020-02-23T13:28:20Z</time>
      </trkpt>
      <trkpt lat="39.0942130" lon="1.5503150">
        <ele>82.4</ele>
        <time>2020-02-23T13:28:21Z</time>
      </trkpt>
      <trkpt lat="39.0942150" lon="1.5503220">
        <ele>81.1</ele>
        <time>2020-02-23T13:28:22Z</time>
      </trkpt>
      <trkpt lat="39.0942060" lon="1.5503310">
        <ele>81.1</ele>
        <time>2020-02-23T13:28:23Z</time>
      </trkpt>
      <trkpt lat="39.0941970" lon="1.5503420">
        <ele>81.9</ele>
        <time>2020-02-23T13:28:24Z</time>
      </trkpt>
      <trkpt lat="39.0941930" lon="1.5503520">
        <ele>81.9</ele>
        <time>2020-02-23T13:28:25Z</time>
      </trkpt>
      <trkpt lat="39.0941860" lon="1.5503690">
        <ele>80.6</ele>
        <time>2020-02-23T13:28:26Z</time>
      </trkpt>
      <trkpt lat="39.0941720" lon="1.5503780">
        <ele>80.6</ele>
        <time>2020-02-23T13:28:27Z</time>
      </trkpt>
      <trkpt lat="39.0941600" lon="1.5503900">
        <ele>81.3</ele>
        <time>2020-02-23T13:28:28Z</time>
      </trkpt>
      <trkpt lat="39.0941430" lon="1.5503980">
        <ele>81.3</ele>
        <time>2020-02-23T13:28:29Z</time>
      </trkpt>
      <trkpt lat="39.0941270" lon="1.5504050">
        <ele>80.8</ele>
        <time>2020-02-23T13:28:30Z</time>
      </trkpt>
      <trkpt lat="39.0941110" lon="1.5504200">
        <ele>80.8</ele>
        <time>2020-02-23T13:28:31Z</time>
      </trkpt>
      <trkpt lat="39.0941050" lon="1.5504300">
        <ele>80.8</ele>
        <time>2020-02-23T13:28:32Z</time>
      </trkpt>
      <trkpt lat="39.0940980" lon="1.5504400">
        <ele>80.8</ele>
        <time>2020-02-23T13:28:33Z</time>
      </trkpt>
      <trkpt lat="39.0940770" lon="1.5504520">
        <ele>80.3</ele>
        <time>2020-02-23T13:28:34Z</time>
      </trkpt>
      <trkpt lat="39.0940690" lon="1.5504590">
        <ele>80.3</ele>
        <time>2020-02-23T13:28:35Z</time>
      </trkpt>
      <trkpt lat="39.0940620" lon="1.5504650">
        <ele>81.0</ele>
        <time>2020-02-23T13:28:36Z</time>
      </trkpt>
      <trkpt lat="39.0940470" lon="1.5504640">
        <ele>81.0</ele>
        <time>2020-02-23T13:28:37Z</time>
      </trkpt>
      <trkpt lat="39.0940340" lon="1.5504660">
        <ele>81.0</ele>
        <time>2020-02-23T13:28:38Z</time>
      </trkpt>
      <trkpt lat="39.0940200" lon="1.5504690">
        <ele>81.7</ele>
        <time>2020-02-23T13:28:39Z</time>
      </trkpt>
      <trkpt lat="39.0940030" lon="1.5504760">
        <ele>81.7</ele>
        <time>2020-02-23T13:28:40Z</time>
      </trkpt>
      <trkpt lat="39.0939970" lon="1.5504770">
        <ele>82.4</ele>
        <time>2020-02-23T13:28:41Z</time>
      </trkpt>
      <trkpt lat="39.0939930" lon="1.5504830">
        <ele>82.4</ele>
        <time>2020-02-23T13:28:42Z</time>
      </trkpt>
      <trkpt lat="39.0939900" lon="1.5504840">
        <ele>82.4</ele>
        <time>2020-02-23T13:28:43Z</time>
      </trkpt>
      <trkpt lat="39.0939780" lon="1.5504910">
        <ele>81.2</ele>
        <time>2020-02-23T13:28:44Z</time>
      </trkpt>
      <trkpt lat="39.0939680" lon="1.5504940">
        <ele>81.2</ele>
        <time>2020-02-23T13:28:45Z</time>
      </trkpt>
      <trkpt lat="39.0939610" lon="1.5504930">
        <ele>81.9</ele>
        <time>2020-02-23T13:28:46Z</time>
      </trkpt>
      <trkpt lat="39.0939520" lon="1.5505040">
        <ele>81.9</ele>
        <time>2020-02-23T13:28:47Z</time>
      </trkpt>
      <trkpt lat="39.0939380" lon="1.5505090">
        <ele>81.9</ele>
        <time>2020-02-23T13:28:48Z</time>
      </trkpt>
      <trkpt lat="39.0939250" lon="1.5505200">
        <ele>82.5</ele>
        <time>2020-02-23T13:28:49Z</time>
      </trkpt>
      <trkpt lat="39.0939140" lon="1.5505270">
        <ele>82.5</ele>
        <time>2020-02-23T13:28:50Z</time>
      </trkpt>
      <trkpt lat="39.0939170" lon="1.5505220">
        <ele>82.5</ele>
        <time>2020-02-23T13:28:51Z</time>
      </trkpt>
      <trkpt lat="39.0939130" lon="1.5505250">
        <ele>82.5</ele>
        <time>2020-02-23T13:28:52Z</time>
      </trkpt>
      <trkpt lat="39.0939030" lon="1.5505290">
        <ele>82.5</ele>
        <time>2020-02-23T13:28:53Z</time>
      </trkpt>
      <trkpt lat="39.0939010" lon="1.5505400">
        <ele>81.3</ele>
        <time>2020-02-23T13:28:54Z</time>
      </trkpt>
      <trkpt lat="39.0938930" lon="1.5505430">
        <ele>82.0</ele>
        <time>2020-02-23T13:28:55Z</time>
      </trkpt>
      <trkpt lat="39.0938840" lon="1.5505450">
        <ele>82.0</ele>
        <time>2020-02-23T13:28:56Z</time>
      </trkpt>
      <trkpt lat="39.0938730" lon="1.5505470">
        <ele>82.0</ele>
        <time>2020-02-23T13:28:57Z</time>
      </trkpt>
      <trkpt lat="39.0938650" lon="1.5505520">
        <ele>82.0</ele>
        <time>2020-02-23T13:28:58Z</time>
      </trkpt>
      <trkpt lat="39.0938520" lon="1.5505520">
        <ele>82.7</ele>
        <time>2020-02-23T13:28:59Z</time>
      </trkpt>
      <trkpt lat="39.0938440" lon="1.5505550">
        <ele>82.7</ele>
        <time>2020-02-23T13:29:00Z</time>
      </trkpt>
      <trkpt lat="39.0938360" lon="1.5505490">
        <ele>82.7</ele>
        <time>2020-02-23T13:29:01Z</time>
      </trkpt>
      <trkpt lat="39.0938220" lon="1.5505450">
        <ele>83.4</ele>
        <time>2020-02-23T13:29:02Z</time>
      </trkpt>
      <trkpt lat="39.0938130" lon="1.5505450">
        <ele>83.4</ele>
        <time>2020-02-23T13:29:03Z</time>
      </trkpt>
      <trkpt lat="39.0938060" lon="1.5505430">
        <ele>83.4</ele>
        <time>2020-02-23T13:29:04Z</time>
      </trkpt>
      <trkpt lat="39.0938000" lon="1.5505420">
        <ele>83.4</ele>
        <time>2020-02-23T13:29:05Z</time>
      </trkpt>
      <trkpt lat="39.0938000" lon="1.5505420">
        <ele>83.4</ele>
        <time>2020-02-23T13:29:06Z</time>
      </trkpt>
      <trkpt lat="39.0937990" lon="1.5505430">
        <ele>83.4</ele>
        <time>2020-02-23T13:29:07Z</time>
      </trkpt>
      <trkpt lat="39.0937970" lon="1.5505430">
        <ele>84.0</ele>
        <time>2020-02-23T13:29:08Z</time>
      </trkpt>
      <trkpt lat="39.0937900" lon="1.5505430">
        <ele>84.0</ele>
        <time>2020-02-23T13:29:09Z</time>
      </trkpt>
      <trkpt lat="39.0937790" lon="1.5505470">
        <ele>84.0</ele>
        <time>2020-02-23T13:29:10Z</time>
      </trkpt>
      <trkpt lat="39.0937690" lon="1.5505420">
        <ele>84.0</ele>
        <time>2020-02-23T13:29:11Z</time>
      </trkpt>
      <trkpt lat="39.0937630" lon="1.5505410">
        <ele>84.7</ele>
        <time>2020-02-23T13:29:12Z</time>
      </trkpt>
      <trkpt lat="39.0937610" lon="1.5505420">
        <ele>84.7</ele>
        <time>2020-02-23T13:29:13Z</time>
      </trkpt>
      <trkpt lat="39.0937520" lon="1.5505400">
        <ele>84.7</ele>
        <time>2020-02-23T13:29:14Z</time>
      </trkpt>
      <trkpt lat="39.0937430" lon="1.5505330">
        <ele>84.7</ele>
        <time>2020-02-23T13:29:15Z</time>
      </trkpt>
      <trkpt lat="39.0937340" lon="1.5505310">
        <ele>85.9</ele>
        <time>2020-02-23T13:29:16Z</time>
      </trkpt>
      <trkpt lat="39.0937240" lon="1.5505310">
        <ele>86.6</ele>
        <time>2020-02-23T13:29:17Z</time>
      </trkpt>
      <trkpt lat="39.0937180" lon="1.5505390">
        <ele>85.3</ele>
        <time>2020-02-23T13:29:18Z</time>
      </trkpt>
      <trkpt lat="39.0937040" lon="1.5505390">
        <ele>85.3</ele>
        <time>2020-02-23T13:29:19Z</time>
      </trkpt>
      <trkpt lat="39.0936980" lon="1.5505470">
        <ele>85.9</ele>
        <time>2020-02-23T13:29:20Z</time>
      </trkpt>
      <trkpt lat="39.0936770" lon="1.5505450">
        <ele>85.9</ele>
        <time>2020-02-23T13:29:21Z</time>
      </trkpt>
      <trkpt lat="39.0936680" lon="1.5505420">
        <ele>85.9</ele>
        <time>2020-02-23T13:29:22Z</time>
      </trkpt>
      <trkpt lat="39.0936600" lon="1.5505390">
        <ele>86.5</ele>
        <time>2020-02-23T13:29:23Z</time>
      </trkpt>
      <trkpt lat="39.0936490" lon="1.5505330">
        <ele>86.5</ele>
        <time>2020-02-23T13:29:24Z</time>
      </trkpt>
      <trkpt lat="39.0936420" lon="1.5505300">
        <ele>87.8</ele>
        <time>2020-02-23T13:29:25Z</time>
      </trkpt>
      <trkpt lat="39.0936390" lon="1.5505260">
        <ele>87.8</ele>
        <time>2020-02-23T13:29:26Z</time>
      </trkpt>
      <trkpt lat="39.0936350" lon="1.5505270">
        <ele>87.8</ele>
        <time>2020-02-23T13:29:27Z</time>
      </trkpt>
      <trkpt lat="39.0936290" lon="1.5505200">
        <ele>88.4</ele>
        <time>2020-02-23T13:29:28Z</time>
      </trkpt>
      <trkpt lat="39.0936220" lon="1.5505150">
        <ele>88.4</ele>
        <time>2020-02-23T13:29:29Z</time>
      </trkpt>
      <trkpt lat="39.0936160" lon="1.5505060">
        <ele>88.4</ele>
        <time>2020-02-23T13:29:30Z</time>
      </trkpt>
      <trkpt lat="39.0936040" lon="1.5505000">
        <ele>88.4</ele>
        <time>2020-02-23T13:29:31Z</time>
      </trkpt>
      <trkpt lat="39.0935980" lon="1.5504920">
        <ele>88.9</ele>
        <time>2020-02-23T13:29:32Z</time>
      </trkpt>
      <trkpt lat="39.0935900" lon="1.5504800">
        <ele>90.2</ele>
        <time>2020-02-23T13:29:33Z</time>
      </trkpt>
      <trkpt lat="39.0935840" lon="1.5504720">
        <ele>90.2</ele>
        <time>2020-02-23T13:29:34Z</time>
      </trkpt>
      <trkpt lat="39.0935760" lon="1.5504610">
        <ele>90.2</ele>
        <time>2020-02-23T13:29:35Z</time>
      </trkpt>
      <trkpt lat="39.0935700" lon="1.5504480">
        <ele>90.2</ele>
        <time>2020-02-23T13:29:36Z</time>
      </trkpt>
      <trkpt lat="39.0935580" lon="1.5504440">
        <ele>92.0</ele>
        <time>2020-02-23T13:29:37Z</time>
      </trkpt>
      <trkpt lat="39.0935450" lon="1.5504430">
        <ele>92.0</ele>
        <time>2020-02-23T13:29:38Z</time>
      </trkpt>
      <trkpt lat="39.0935400" lon="1.5504430">
        <ele>92.0</ele>
        <time>2020-02-23T13:29:39Z</time>
      </trkpt>
      <trkpt lat="39.0935350" lon="1.5504420">
        <ele>92.0</ele>
        <time>2020-02-23T13:29:40Z</time>
      </trkpt>
      <trkpt lat="39.0935300" lon="1.5504420">
        <ele>92.5</ele>
        <time>2020-02-23T13:29:41Z</time>
      </trkpt>
      <trkpt lat="39.0935240" lon="1.5504410">
        <ele>92.5</ele>
        <time>2020-02-23T13:29:42Z</time>
      </trkpt>
      <trkpt lat="39.0935190" lon="1.5504410">
        <ele>92.5</ele>
        <time>2020-02-23T13:29:43Z</time>
      </trkpt>
      <trkpt lat="39.0935140" lon="1.5504400">
        <ele>92.5</ele>
        <time>2020-02-23T13:29:44Z</time>
      </trkpt>
      <trkpt lat="39.0935090" lon="1.5504400">
        <ele>92.5</ele>
        <time>2020-02-23T13:29:45Z</time>
      </trkpt>
      <trkpt lat="39.0935040" lon="1.5504390">
        <ele>92.5</ele>
        <time>2020-02-23T13:29:46Z</time>
      </trkpt>
      <trkpt lat="39.0934990" lon="1.5504390">
        <ele>92.5</ele>
        <time>2020-02-23T13:29:47Z</time>
      </trkpt>
      <trkpt lat="39.0934940" lon="1.5504380">
        <ele>92.8</ele>
        <time>2020-02-23T13:29:48Z</time>
      </trkpt>
      <trkpt lat="39.0934890" lon="1.5504380">
        <ele>92.8</ele>
        <time>2020-02-23T13:29:49Z</time>
      </trkpt>
      <trkpt lat="39.0934830" lon="1.5504370">
        <ele>92.8</ele>
        <time>2020-02-23T13:29:50Z</time>
      </trkpt>
      <trkpt lat="39.0934780" lon="1.5504370">
        <ele>92.8</ele>
        <time>2020-02-23T13:29:51Z</time>
      </trkpt>
      <trkpt lat="39.0934730" lon="1.5504360">
        <ele>92.8</ele>
        <time>2020-02-23T13:29:52Z</time>
      </trkpt>
      <trkpt lat="39.0934680" lon="1.5504360">
        <ele>92.8</ele>
        <time>2020-02-23T13:30:41Z</time>
      </trkpt>
      <trkpt lat="39.0934630" lon="1.5504350">
        <ele>93.1</ele>
        <time>2020-02-23T13:30:42Z</time>
      </trkpt>
      <trkpt lat="39.0934280" lon="1.5504230">
        <ele>93.2</ele>
        <time>2020-02-23T13:30:43Z</time>
      </trkpt>
      <trkpt lat="39.0934170" lon="1.5504200">
        <ele>93.2</ele>
        <time>2020-02-23T13:30:44Z</time>
      </trkpt>
      <trkpt lat="39.0934080" lon="1.5504200">
        <ele>93.2</ele>
        <time>2020-02-23T13:30:45Z</time>
      </trkpt>
      <trkpt lat="39.0933890" lon="1.5504120">
        <ele>93.3</ele>
        <time>2020-02-23T13:30:46Z</time>
      </trkpt>
      <trkpt lat="39.0933570" lon="1.5504090">
        <ele>93.4</ele>
        <time>2020-02-23T13:30:47Z</time>
      </trkpt>
      <trkpt lat="39.0933430" lon="1.5504080">
        <ele>93.4</ele>
        <time>2020-02-23T13:30:48Z</time>
      </trkpt>
      <trkpt lat="39.0933070" lon="1.5503960">
        <ele>94.7</ele>
        <time>2020-02-23T13:30:49Z</time>
      </trkpt>
      <trkpt lat="39.0932810" lon="1.5503820">
        <ele>94.6</ele>
        <time>2020-02-23T13:30:50Z</time>
      </trkpt>
      <trkpt lat="39.0932770" lon="1.5503750">
        <ele>94.6</ele>
        <time>2020-02-23T13:30:51Z</time>
      </trkpt>
      <trkpt lat="39.0932720" lon="1.5503670">
        <ele>94.6</ele>
        <time>2020-02-23T13:30:52Z</time>
      </trkpt>
      <trkpt lat="39.0932600" lon="1.5503620">
        <ele>94.4</ele>
        <time>2020-02-23T13:30:53Z</time>
      </trkpt>
      <trkpt lat="39.0932420" lon="1.5503610">
        <ele>94.4</ele>
        <time>2020-02-23T13:30:54Z</time>
      </trkpt>
      <trkpt lat="39.0932150" lon="1.5503540">
        <ele>95.6</ele>
        <time>2020-02-23T13:30:55Z</time>
      </trkpt>
      <trkpt lat="39.0932060" lon="1.5503540">
        <ele>95.6</ele>
        <time>2020-02-23T13:30:56Z</time>
      </trkpt>
      <trkpt lat="39.0931770" lon="1.5503350">
        <ele>95.3</ele>
        <time>2020-02-23T13:30:57Z</time>
      </trkpt>
      <trkpt lat="39.0931670" lon="1.5503310">
        <ele>95.3</ele>
        <time>2020-02-23T13:30:58Z</time>
      </trkpt>
      <trkpt lat="39.0931380" lon="1.5503190">
        <ele>95.1</ele>
        <time>2020-02-23T13:30:59Z</time>
      </trkpt>
      <trkpt lat="39.0931280" lon="1.5503150">
        <ele>96.2</ele>
        <time>2020-02-23T13:31:00Z</time>
      </trkpt>
      <trkpt lat="39.0931010" lon="1.5503000">
        <ele>96.2</ele>
        <time>2020-02-23T13:31:01Z</time>
      </trkpt>
      <trkpt lat="39.0930720" lon="1.5502930">
        <ele>95.8</ele>
        <time>2020-02-23T13:31:02Z</time>
      </trkpt>
      <trkpt lat="39.0930380" lon="1.5502780">
        <ele>95.4</ele>
        <time>2020-02-23T13:31:03Z</time>
      </trkpt>
      <trkpt lat="39.0930280" lon="1.5502750">
        <ele>95.0</ele>
        <time>2020-02-23T13:31:04Z</time>
      </trkpt>
      <trkpt lat="39.0930210" lon="1.5502660">
        <ele>96.4</ele>
        <time>2020-02-23T13:31:05Z</time>
      </trkpt>
      <trkpt lat="39.0930170" lon="1.5502550">
        <ele>96.4</ele>
        <time>2020-02-23T13:31:06Z</time>
      </trkpt>
      <trkpt lat="39.0930150" lon="1.5502520">
        <ele>96.4</ele>
        <time>2020-02-23T13:31:07Z</time>
      </trkpt>
      <trkpt lat="39.0930260" lon="1.5502500">
        <ele>96.4</ele>
        <time>2020-02-23T13:31:08Z</time>
      </trkpt>
      <trkpt lat="39.0930260" lon="1.5502590">
        <ele>96.4</ele>
        <time>2020-02-23T13:31:09Z</time>
      </trkpt>
      <trkpt lat="39.0930250" lon="1.5502530">
        <ele>96.4</ele>
        <time>2020-02-23T13:31:10Z</time>
      </trkpt>
      <trkpt lat="39.0930240" lon="1.5502480">
        <ele>96.4</ele>
        <time>2020-02-23T13:31:11Z</time>
      </trkpt>
      <trkpt lat="39.0930190" lon="1.5502410">
        <ele>96.4</ele>
        <time>2020-02-23T13:31:12Z</time>
      </trkpt>
      <trkpt lat="39.0930070" lon="1.5502410">
        <ele>96.4</ele>
        <time>2020-02-23T13:31:13Z</time>
      </trkpt>
      <trkpt lat="39.0930070" lon="1.5502540">
        <ele>96.4</ele>
        <time>2020-02-23T13:31:14Z</time>
      </trkpt>
      <trkpt lat="39.0929940" lon="1.5502610">
        <ele>96.0</ele>
        <time>2020-02-23T13:31:15Z</time>
      </trkpt>
      <trkpt lat="39.0929770" lon="1.5502650">
        <ele>96.1</ele>
        <time>2020-02-23T13:31:16Z</time>
      </trkpt>
      <trkpt lat="39.0929650" lon="1.5502610">
        <ele>95.9</ele>
        <time>2020-02-23T13:31:17Z</time>
      </trkpt>
      <trkpt lat="39.0929480" lon="1.5502540">
        <ele>96.0</ele>
        <time>2020-02-23T13:31:18Z</time>
      </trkpt>
      <trkpt lat="39.0929370" lon="1.5502520">
        <ele>96.1</ele>
        <time>2020-02-23T13:31:19Z</time>
      </trkpt>
      <trkpt lat="39.0929270" lon="1.5502510">
        <ele>95.7</ele>
        <time>2020-02-23T13:31:20Z</time>
      </trkpt>
      <trkpt lat="39.0928990" lon="1.5502340">
        <ele>95.8</ele>
        <time>2020-02-23T13:31:21Z</time>
      </trkpt>
      <trkpt lat="39.0928900" lon="1.5502250">
        <ele>97.0</ele>
        <time>2020-02-23T13:31:22Z</time>
      </trkpt>
      <trkpt lat="39.0928730" lon="1.5502140">
        <ele>97.1</ele>
        <time>2020-02-23T13:31:23Z</time>
      </trkpt>
      <trkpt lat="39.0928640" lon="1.5502030">
        <ele>96.8</ele>
        <time>2020-02-23T13:31:24Z</time>
      </trkpt>
      <trkpt lat="39.0928470" lon="1.5501890">
        <ele>96.9</ele>
        <time>2020-02-23T13:31:25Z</time>
      </trkpt>
      <trkpt lat="39.0928450" lon="1.5501820">
        <ele>98.4</ele>
        <time>2020-02-23T13:31:26Z</time>
      </trkpt>
      <trkpt lat="39.0928380" lon="1.5501780">
        <ele>98.5</ele>
        <time>2020-02-23T13:31:27Z</time>
      </trkpt>
      <trkpt lat="39.0928220" lon="1.5501810">
        <ele>98.2</ele>
        <time>2020-02-23T13:31:28Z</time>
      </trkpt>
      <trkpt lat="39.0928020" lon="1.5501810">
        <ele>98.3</ele>
        <time>2020-02-23T13:31:29Z</time>
      </trkpt>
      <trkpt lat="39.0927670" lon="1.5501760">
        <ele>98.0</ele>
        <time>2020-02-23T13:31:30Z</time>
      </trkpt>
      <trkpt lat="39.0927540" lon="1.5501760">
        <ele>97.7</ele>
        <time>2020-02-23T13:31:31Z</time>
      </trkpt>
      <trkpt lat="39.0927230" lon="1.5501650">
        <ele>97.5</ele>
        <time>2020-02-23T13:31:32Z</time>
      </trkpt>
      <trkpt lat="39.0927110" lon="1.5501630">
        <ele>97.6</ele>
        <time>2020-02-23T13:31:33Z</time>
      </trkpt>
      <trkpt lat="39.0926740" lon="1.5501600">
        <ele>97.3</ele>
        <time>2020-02-23T13:31:34Z</time>
      </trkpt>
      <trkpt lat="39.0926630" lon="1.5501580">
        <ele>97.1</ele>
        <time>2020-02-23T13:31:35Z</time>
      </trkpt>
      <trkpt lat="39.0926260" lon="1.5501400">
        <ele>98.0</ele>
        <time>2020-02-23T13:31:36Z</time>
      </trkpt>
      <trkpt lat="39.0926130" lon="1.5501320">
        <ele>98.1</ele>
        <time>2020-02-23T13:31:37Z</time>
      </trkpt>
      <trkpt lat="39.0925740" lon="1.5501210">
        <ele>97.7</ele>
        <time>2020-02-23T13:31:38Z</time>
      </trkpt>
      <trkpt lat="39.0925590" lon="1.5501210">
        <ele>97.4</ele>
        <time>2020-02-23T13:31:39Z</time>
      </trkpt>
      <trkpt lat="39.0925300" lon="1.5501230">
        <ele>97.0</ele>
        <time>2020-02-23T13:31:40Z</time>
      </trkpt>
      <trkpt lat="39.0925190" lon="1.5501230">
        <ele>97.1</ele>
        <time>2020-02-23T13:31:41Z</time>
      </trkpt>
      <trkpt lat="39.0924860" lon="1.5501250">
        <ele>96.7</ele>
        <time>2020-02-23T13:31:42Z</time>
      </trkpt>
      <trkpt lat="39.0924780" lon="1.5501240">
        <ele>96.8</ele>
        <time>2020-02-23T13:31:43Z</time>
      </trkpt>
      <trkpt lat="39.0924650" lon="1.5501240">
        <ele>96.4</ele>
        <time>2020-02-23T13:31:44Z</time>
      </trkpt>
      <trkpt lat="39.0924500" lon="1.5501310">
        <ele>96.5</ele>
        <time>2020-02-23T13:31:45Z</time>
      </trkpt>
      <trkpt lat="39.0924240" lon="1.5501400">
        <ele>96.1</ele>
        <time>2020-02-23T13:31:46Z</time>
      </trkpt>
      <trkpt lat="39.0924130" lon="1.5501420">
        <ele>96.2</ele>
        <time>2020-02-23T13:31:47Z</time>
      </trkpt>
      <trkpt lat="39.0924010" lon="1.5501360">
        <ele>96.3</ele>
        <time>2020-02-23T13:31:48Z</time>
      </trkpt>
      <trkpt lat="39.0924020" lon="1.5501290">
        <ele>96.4</ele>
        <time>2020-02-23T13:31:49Z</time>
      </trkpt>
      <trkpt lat="39.0924040" lon="1.5501230">
        <ele>96.5</ele>
        <time>2020-02-23T13:31:50Z</time>
      </trkpt>
      <trkpt lat="39.0924060" lon="1.5501160">
        <ele>96.6</ele>
        <time>2020-02-23T13:31:51Z</time>
      </trkpt>
      <trkpt lat="39.0924070" lon="1.5501100">
        <ele>96.7</ele>
        <time>2020-02-23T13:31:52Z</time>
      </trkpt>
      <trkpt lat="39.0924090" lon="1.5501030">
        <ele>96.7</ele>
        <time>2020-02-23T13:31:53Z</time>
      </trkpt>
      <trkpt lat="39.0924100" lon="1.5500970">
        <ele>97.9</ele>
        <time>2020-02-23T13:31:54Z</time>
      </trkpt>
      <trkpt lat="39.0924120" lon="1.5500900">
        <ele>98.0</ele>
        <time>2020-02-23T13:31:55Z</time>
      </trkpt>
      <trkpt lat="39.0924070" lon="1.5500890">
        <ele>98.1</ele>
        <time>2020-02-23T13:31:56Z</time>
      </trkpt>
      <trkpt lat="39.0924060" lon="1.5501070">
        <ele>97.1</ele>
        <time>2020-02-23T13:31:57Z</time>
      </trkpt>
      <trkpt lat="39.0923980" lon="1.5501100">
        <ele>96.7</ele>
        <time>2020-02-23T13:31:58Z</time>
      </trkpt>
      <trkpt lat="39.0923900" lon="1.5501070">
        <ele>96.8</ele>
        <time>2020-02-23T13:31:59Z</time>
      </trkpt>
      <trkpt lat="39.0923890" lon="1.5501100">
        <ele>96.9</ele>
        <time>2020-02-23T13:32:00Z</time>
      </trkpt>
      <trkpt lat="39.0923860" lon="1.5501110">
        <ele>97.0</ele>
        <time>2020-02-23T13:32:01Z</time>
      </trkpt>
      <trkpt lat="39.0923790" lon="1.5501150">
        <ele>97.1</ele>
        <time>2020-02-23T13:32:02Z</time>
      </trkpt>
      <trkpt lat="39.0923710" lon="1.5501210">
        <ele>97.2</ele>
        <time>2020-02-23T13:32:03Z</time>
      </trkpt>
      <trkpt lat="39.0923620" lon="1.5501120">
        <ele>96.8</ele>
        <time>2020-02-23T13:32:04Z</time>
      </trkpt>
      <trkpt lat="39.0923570" lon="1.5501070">
        <ele>96.9</ele>
        <time>2020-02-23T13:32:05Z</time>
      </trkpt>
      <trkpt lat="39.0923530" lon="1.5501010">
        <ele>98.2</ele>
        <time>2020-02-23T13:32:06Z</time>
      </trkpt>
      <trkpt lat="39.0923450" lon="1.5501010">
        <ele>98.3</ele>
        <time>2020-02-23T13:32:07Z</time>
      </trkpt>
      <trkpt lat="39.0923270" lon="1.5501130">
        <ele>96.8</ele>
        <time>2020-02-23T13:32:08Z</time>
      </trkpt>
      <trkpt lat="39.0923140" lon="1.5501270">
        <ele>96.9</ele>
        <time>2020-02-23T13:32:09Z</time>
      </trkpt>
      <trkpt lat="39.0923030" lon="1.5501310">
        <ele>96.9</ele>
        <time>2020-02-23T13:32:10Z</time>
      </trkpt>
      <trkpt lat="39.0922830" lon="1.5501340">
        <ele>96.7</ele>
        <time>2020-02-23T13:32:11Z</time>
      </trkpt>
      <trkpt lat="39.0922710" lon="1.5501360">
        <ele>96.8</ele>
        <time>2020-02-23T13:32:12Z</time>
      </trkpt>
      <trkpt lat="39.0922580" lon="1.5501370">
        <ele>96.6</ele>
        <time>2020-02-23T13:32:13Z</time>
      </trkpt>
      <trkpt lat="39.0922370" lon="1.5501460">
        <ele>95.5</ele>
        <time>2020-02-23T13:32:14Z</time>
      </trkpt>
      <trkpt lat="39.0922290" lon="1.5501540">
        <ele>95.3</ele>
        <time>2020-02-23T13:32:15Z</time>
      </trkpt>
      <trkpt lat="39.0922200" lon="1.5501610">
        <ele>95.4</ele>
        <time>2020-02-23T13:32:16Z</time>
      </trkpt>
      <trkpt lat="39.0922120" lon="1.5501680">
        <ele>95.5</ele>
        <time>2020-02-23T13:32:17Z</time>
      </trkpt>
      <trkpt lat="39.0921870" lon="1.5502100">
        <ele>94.1</ele>
        <time>2020-02-23T13:32:18Z</time>
      </trkpt>
      <trkpt lat="39.0921790" lon="1.5502150">
        <ele>94.2</ele>
        <time>2020-02-23T13:32:19Z</time>
      </trkpt>
      <trkpt lat="39.0921830" lon="1.5502110">
        <ele>94.3</ele>
        <time>2020-02-23T13:32:20Z</time>
      </trkpt>
      <trkpt lat="39.0921720" lon="1.5502080">
        <ele>94.4</ele>
        <time>2020-02-23T13:32:21Z</time>
      </trkpt>
      <trkpt lat="39.0921530" lon="1.5502030">
        <ele>94.3</ele>
        <time>2020-02-23T13:32:22Z</time>
      </trkpt>
      <trkpt lat="39.0921340" lon="1.5501990">
        <ele>94.4</ele>
        <time>2020-02-23T13:32:23Z</time>
      </trkpt>
      <trkpt lat="39.0921270" lon="1.5502050">
        <ele>94.4</ele>
        <time>2020-02-23T13:32:24Z</time>
      </trkpt>
      <trkpt lat="39.0921240" lon="1.5502250">
        <ele>94.5</ele>
        <time>2020-02-23T13:32:25Z</time>
      </trkpt>
      <trkpt lat="39.0921100" lon="1.5502140">
        <ele>94.5</ele>
        <time>2020-02-23T13:32:26Z</time>
      </trkpt>
      <trkpt lat="39.0920980" lon="1.5501940">
        <ele>94.5</ele>
        <time>2020-02-23T13:32:27Z</time>
      </trkpt>
      <trkpt lat="39.0920790" lon="1.5501850">
        <ele>95.8</ele>
        <time>2020-02-23T13:32:28Z</time>
      </trkpt>
      <trkpt lat="39.0920690" lon="1.5501740">
        <ele>95.9</ele>
        <time>2020-02-23T13:32:29Z</time>
      </trkpt>
      <trkpt lat="39.0920590" lon="1.5501700">
        <ele>96.0</ele>
        <time>2020-02-23T13:32:30Z</time>
      </trkpt>
      <trkpt lat="39.0920480" lon="1.5501680">
        <ele>96.1</ele>
        <time>2020-02-23T13:32:31Z</time>
      </trkpt>
      <trkpt lat="39.0920380" lon="1.5501670">
        <ele>96.2</ele>
        <time>2020-02-23T13:32:32Z</time>
      </trkpt>
      <trkpt lat="39.0920270" lon="1.5501710">
        <ele>96.4</ele>
        <time>2020-02-23T13:32:33Z</time>
      </trkpt>
      <trkpt lat="39.0920210" lon="1.5501710">
        <ele>96.5</ele>
        <time>2020-02-23T13:32:34Z</time>
      </trkpt>
      <trkpt lat="39.0920090" lon="1.5501810">
        <ele>96.5</ele>
        <time>2020-02-23T13:32:35Z</time>
      </trkpt>
      <trkpt lat="39.0920030" lon="1.5501880">
        <ele>96.6</ele>
        <time>2020-02-23T13:32:36Z</time>
      </trkpt>
      <trkpt lat="39.0919980" lon="1.5501950">
        <ele>95.7</ele>
        <time>2020-02-23T13:32:37Z</time>
      </trkpt>
      <trkpt lat="39.0919880" lon="1.5502040">
        <ele>95.8</ele>
        <time>2020-02-23T13:32:38Z</time>
      </trkpt>
      <trkpt lat="39.0919860" lon="1.5502150">
        <ele>95.9</ele>
        <time>2020-02-23T13:32:39Z</time>
      </trkpt>
      <trkpt lat="39.0919810" lon="1.5502240">
        <ele>96.0</ele>
        <time>2020-02-23T13:32:40Z</time>
      </trkpt>
      <trkpt lat="39.0919770" lon="1.5502360">
        <ele>94.8</ele>
        <time>2020-02-23T13:32:41Z</time>
      </trkpt>
      <trkpt lat="39.0919700" lon="1.5502460">
        <ele>94.9</ele>
        <time>2020-02-23T13:32:42Z</time>
      </trkpt>
      <trkpt lat="39.0919600" lon="1.5502590">
        <ele>95.2</ele>
        <time>2020-02-23T13:32:43Z</time>
      </trkpt>
      <trkpt lat="39.0919570" lon="1.5502700">
        <ele>95.3</ele>
        <time>2020-02-23T13:32:44Z</time>
      </trkpt>
      <trkpt lat="39.0919510" lon="1.5502940">
        <ele>94.1</ele>
        <time>2020-02-23T13:32:45Z</time>
      </trkpt>
      <trkpt lat="39.0919470" lon="1.5503040">
        <ele>94.2</ele>
        <time>2020-02-23T13:32:46Z</time>
      </trkpt>
      <trkpt lat="39.0919440" lon="1.5503140">
        <ele>94.3</ele>
        <time>2020-02-23T13:32:47Z</time>
      </trkpt>
      <trkpt lat="39.0919370" lon="1.5503290">
        <ele>93.2</ele>
        <time>2020-02-23T13:32:48Z</time>
      </trkpt>
      <trkpt lat="39.0919190" lon="1.5503360">
        <ele>93.6</ele>
        <time>2020-02-23T13:32:49Z</time>
      </trkpt>
      <trkpt lat="39.0919090" lon="1.5503440">
        <ele>93.7</ele>
        <time>2020-02-23T13:32:50Z</time>
      </trkpt>
      <trkpt lat="39.0919000" lon="1.5503540">
        <ele>93.7</ele>
        <time>2020-02-23T13:32:51Z</time>
      </trkpt>
      <trkpt lat="39.0918910" lon="1.5503600">
        <ele>93.0</ele>
        <time>2020-02-23T13:32:52Z</time>
      </trkpt>
      <trkpt lat="39.0918790" lon="1.5503620">
        <ele>93.1</ele>
        <time>2020-02-23T13:32:53Z</time>
      </trkpt>
      <trkpt lat="39.0918650" lon="1.5503640">
        <ele>93.5</ele>
        <time>2020-02-23T13:32:54Z</time>
      </trkpt>
      <trkpt lat="39.0918580" lon="1.5503720">
        <ele>93.6</ele>
        <time>2020-02-23T13:32:55Z</time>
      </trkpt>
      <trkpt lat="39.0918470" lon="1.5503750">
        <ele>93.6</ele>
        <time>2020-02-23T13:32:56Z</time>
      </trkpt>
      <trkpt lat="39.0918400" lon="1.5503830">
        <ele>93.6</ele>
        <time>2020-02-23T13:32:57Z</time>
      </trkpt>
      <trkpt lat="39.0918380" lon="1.5503800">
        <ele>93.6</ele>
        <time>2020-02-23T13:32:58Z</time>
      </trkpt>
      <trkpt lat="39.0918300" lon="1.5503880">
        <ele>94.0</ele>
        <time>2020-02-23T13:32:59Z</time>
      </trkpt>
      <trkpt lat="39.0918220" lon="1.5503910">
        <ele>94.0</ele>
        <time>2020-02-23T13:33:00Z</time>
      </trkpt>
      <trkpt lat="39.0918170" lon="1.5503920">
        <ele>94.0</ele>
        <time>2020-02-23T13:33:01Z</time>
      </trkpt>
      <trkpt lat="39.0918120" lon="1.5503980">
        <ele>94.0</ele>
        <time>2020-02-23T13:33:02Z</time>
      </trkpt>
      <trkpt lat="39.0917990" lon="1.5504100">
        <ele>93.3</ele>
        <time>2020-02-23T13:33:03Z</time>
      </trkpt>
      <trkpt lat="39.0917970" lon="1.5504190">
        <ele>93.3</ele>
        <time>2020-02-23T13:33:04Z</time>
      </trkpt>
      <trkpt lat="39.0917950" lon="1.5504250">
        <ele>93.3</ele>
        <time>2020-02-23T13:33:05Z</time>
      </trkpt>
      <trkpt lat="39.0917930" lon="1.5504360">
        <ele>93.3</ele>
        <time>2020-02-23T13:33:06Z</time>
      </trkpt>
      <trkpt lat="39.0917920" lon="1.5504440">
        <ele>93.3</ele>
        <time>2020-02-23T13:33:07Z</time>
      </trkpt>
      <trkpt lat="39.0917890" lon="1.5504560">
        <ele>92.3</ele>
        <time>2020-02-23T13:33:08Z</time>
      </trkpt>
      <trkpt lat="39.0917870" lon="1.5504640">
        <ele>92.3</ele>
        <time>2020-02-23T13:33:09Z</time>
      </trkpt>
      <trkpt lat="39.0917820" lon="1.5504710">
        <ele>92.3</ele>
        <time>2020-02-23T13:33:10Z</time>
      </trkpt>
      <trkpt lat="39.0917740" lon="1.5504780">
        <ele>92.3</ele>
        <time>2020-02-23T13:33:11Z</time>
      </trkpt>
      <trkpt lat="39.0917650" lon="1.5504890">
        <ele>91.8</ele>
        <time>2020-02-23T13:33:12Z</time>
      </trkpt>
      <trkpt lat="39.0917630" lon="1.5504920">
        <ele>91.8</ele>
        <time>2020-02-23T13:33:13Z</time>
      </trkpt>
      <trkpt lat="39.0917610" lon="1.5504950">
        <ele>91.8</ele>
        <time>2020-02-23T13:33:14Z</time>
      </trkpt>
      <trkpt lat="39.0917590" lon="1.5504980">
        <ele>91.8</ele>
        <time>2020-02-23T13:33:15Z</time>
      </trkpt>
      <trkpt lat="39.0917570" lon="1.5505010">
        <ele>91.8</ele>
        <time>2020-02-23T13:33:16Z</time>
      </trkpt>
      <trkpt lat="39.0917540" lon="1.5505030">
        <ele>91.8</ele>
        <time>2020-02-23T13:33:17Z</time>
      </trkpt>
      <trkpt lat="39.0917520" lon="1.5505060">
        <ele>91.8</ele>
        <time>2020-02-23T13:33:18Z</time>
      </trkpt>
      <trkpt lat="39.0917500" lon="1.5505090">
        <ele>91.8</ele>
        <time>2020-02-23T13:33:19Z</time>
      </trkpt>
      <trkpt lat="39.0917480" lon="1.5505120">
        <ele>91.8</ele>
        <time>2020-02-23T13:33:20Z</time>
      </trkpt>
      <trkpt lat="39.0917460" lon="1.5505150">
        <ele>91.8</ele>
        <time>2020-02-23T13:33:21Z</time>
      </trkpt>
      <trkpt lat="39.0917440" lon="1.5505180">
        <ele>91.8</ele>
        <time>2020-02-23T13:33:22Z</time>
      </trkpt>
      <trkpt lat="39.0917330" lon="1.5505290">
        <ele>91.8</ele>
        <time>2020-02-23T13:33:23Z</time>
      </trkpt>
      <trkpt lat="39.0917270" lon="1.5505360">
        <ele>91.3</ele>
        <time>2020-02-23T13:33:24Z</time>
      </trkpt>
      <trkpt lat="39.0917240" lon="1.5505410">
        <ele>91.3</ele>
        <time>2020-02-23T13:33:25Z</time>
      </trkpt>
      <trkpt lat="39.0917060" lon="1.5505580">
        <ele>91.3</ele>
        <time>2020-02-23T13:33:26Z</time>
      </trkpt>
      <trkpt lat="39.0917010" lon="1.5505640">
        <ele>91.3</ele>
        <time>2020-02-23T13:33:27Z</time>
      </trkpt>
      <trkpt lat="39.0916950" lon="1.5505710">
        <ele>91.9</ele>
        <time>2020-02-23T13:33:28Z</time>
      </trkpt>
      <trkpt lat="39.0916900" lon="1.5505790">
        <ele>90.9</ele>
        <time>2020-02-23T13:33:29Z</time>
      </trkpt>
      <trkpt lat="39.0916810" lon="1.5505820">
        <ele>90.9</ele>
        <time>2020-02-23T13:33:30Z</time>
      </trkpt>
      <trkpt lat="39.0916750" lon="1.5505880">
        <ele>90.9</ele>
        <time>2020-02-23T13:33:31Z</time>
      </trkpt>
      <trkpt lat="39.0916710" lon="1.5505920">
        <ele>90.9</ele>
        <time>2020-02-23T13:33:32Z</time>
      </trkpt>
      <trkpt lat="39.0916660" lon="1.5505960">
        <ele>91.6</ele>
        <time>2020-02-23T13:33:33Z</time>
      </trkpt>
      <trkpt lat="39.0916580" lon="1.5506000">
        <ele>91.6</ele>
        <time>2020-02-23T13:33:34Z</time>
      </trkpt>
      <trkpt lat="39.0916460" lon="1.5506020">
        <ele>91.6</ele>
        <time>2020-02-23T13:33:35Z</time>
      </trkpt>
      <trkpt lat="39.0916390" lon="1.5506100">
        <ele>91.6</ele>
        <time>2020-02-23T13:33:36Z</time>
      </trkpt>
      <trkpt lat="39.0916300" lon="1.5506120">
        <ele>92.3</ele>
        <time>2020-02-23T13:33:37Z</time>
      </trkpt>
      <trkpt lat="39.0916300" lon="1.5506090">
        <ele>92.3</ele>
        <time>2020-02-23T13:33:38Z</time>
      </trkpt>
      <trkpt lat="39.0916250" lon="1.5506090">
        <ele>92.3</ele>
        <time>2020-02-23T13:33:39Z</time>
      </trkpt>
      <trkpt lat="39.0916200" lon="1.5506120">
        <ele>92.3</ele>
        <time>2020-02-23T13:33:40Z</time>
      </trkpt>
      <trkpt lat="39.0916100" lon="1.5506090">
        <ele>92.3</ele>
        <time>2020-02-23T13:33:41Z</time>
      </trkpt>
      <trkpt lat="39.0916000" lon="1.5506130">
        <ele>92.3</ele>
        <time>2020-02-23T13:33:42Z</time>
      </trkpt>
      <trkpt lat="39.0915950" lon="1.5506190">
        <ele>92.1</ele>
        <time>2020-02-23T13:33:43Z</time>
      </trkpt>
      <trkpt lat="39.0915880" lon="1.5506200">
        <ele>92.1</ele>
        <time>2020-02-23T13:33:44Z</time>
      </trkpt>
      <trkpt lat="39.0915780" lon="1.5506270">
        <ele>92.1</ele>
        <time>2020-02-23T13:33:45Z</time>
      </trkpt>
      <trkpt lat="39.0915690" lon="1.5506330">
        <ele>92.1</ele>
        <time>2020-02-23T13:33:46Z</time>
      </trkpt>
      <trkpt lat="39.0915570" lon="1.5506400">
        <ele>92.9</ele>
        <time>2020-02-23T13:33:47Z</time>
      </trkpt>
      <trkpt lat="39.0915450" lon="1.5506450">
        <ele>92.9</ele>
        <time>2020-02-23T13:33:48Z</time>
      </trkpt>
      <trkpt lat="39.0915270" lon="1.5506530">
        <ele>93.7</ele>
        <time>2020-02-23T13:33:49Z</time>
      </trkpt>
      <trkpt lat="39.0915190" lon="1.5506570">
        <ele>93.7</ele>
        <time>2020-02-23T13:33:50Z</time>
      </trkpt>
      <trkpt lat="39.0915110" lon="1.5506620">
        <ele>92.7</ele>
        <time>2020-02-23T13:33:51Z</time>
      </trkpt>
      <trkpt lat="39.0914980" lon="1.5506670">
        <ele>93.6</ele>
        <time>2020-02-23T13:33:52Z</time>
      </trkpt>
      <trkpt lat="39.0914910" lon="1.5506720">
        <ele>93.6</ele>
        <time>2020-02-23T13:33:53Z</time>
      </trkpt>
      <trkpt lat="39.0914870" lon="1.5506860">
        <ele>93.6</ele>
        <time>2020-02-23T13:33:54Z</time>
      </trkpt>
      <trkpt lat="39.0914710" lon="1.5506940">
        <ele>93.6</ele>
        <time>2020-02-23T13:33:55Z</time>
      </trkpt>
      <trkpt lat="39.0914660" lon="1.5506960">
        <ele>94.6</ele>
        <time>2020-02-23T13:33:56Z</time>
      </trkpt>
      <trkpt lat="39.0914620" lon="1.5506990">
        <ele>94.6</ele>
        <time>2020-02-23T13:33:57Z</time>
      </trkpt>
      <trkpt lat="39.0914570" lon="1.5507010">
        <ele>94.6</ele>
        <time>2020-02-23T13:33:58Z</time>
      </trkpt>
      <trkpt lat="39.0914530" lon="1.5507040">
        <ele>93.5</ele>
        <time>2020-02-23T13:33:59Z</time>
      </trkpt>
      <trkpt lat="39.0914440" lon="1.5507060">
        <ele>93.5</ele>
        <time>2020-02-23T13:34:00Z</time>
      </trkpt>
      <trkpt lat="39.0914390" lon="1.5507080">
        <ele>93.5</ele>
        <time>2020-02-23T13:34:01Z</time>
      </trkpt>
      <trkpt lat="39.0914210" lon="1.5507120">
        <ele>94.5</ele>
        <time>2020-02-23T13:34:02Z</time>
      </trkpt>
      <trkpt lat="39.0914100" lon="1.5507100">
        <ele>94.5</ele>
        <time>2020-02-23T13:34:03Z</time>
      </trkpt>
      <trkpt lat="39.0914020" lon="1.5507150">
        <ele>94.5</ele>
        <time>2020-02-23T13:34:04Z</time>
      </trkpt>
      <trkpt lat="39.0913900" lon="1.5507180">
        <ele>95.5</ele>
        <time>2020-02-23T13:34:05Z</time>
      </trkpt>
      <trkpt lat="39.0913690" lon="1.5507240">
        <ele>95.5</ele>
        <time>2020-02-23T13:34:06Z</time>
      </trkpt>
      <trkpt lat="39.0913640" lon="1.5507260">
        <ele>96.4</ele>
        <time>2020-02-23T13:34:07Z</time>
      </trkpt>
      <trkpt lat="39.0913580" lon="1.5507280">
        <ele>96.4</ele>
        <time>2020-02-23T13:34:08Z</time>
      </trkpt>
      <trkpt lat="39.0913520" lon="1.5507300">
        <ele>96.4</ele>
        <time>2020-02-23T13:34:09Z</time>
      </trkpt>
      <trkpt lat="39.0913550" lon="1.5507390">
        <ele>96.4</ele>
        <time>2020-02-23T13:34:10Z</time>
      </trkpt>
      <trkpt lat="39.0913420" lon="1.5507510">
        <ele>95.3</ele>
        <time>2020-02-23T13:34:11Z</time>
      </trkpt>
      <trkpt lat="39.0913290" lon="1.5507450">
        <ele>97.4</ele>
        <time>2020-02-23T13:34:12Z</time>
      </trkpt>
      <trkpt lat="39.0913170" lon="1.5507370">
        <ele>97.4</ele>
        <time>2020-02-23T13:34:13Z</time>
      </trkpt>
      <trkpt lat="39.0913100" lon="1.5507300">
        <ele>97.4</ele>
        <time>2020-02-23T13:34:14Z</time>
      </trkpt>
      <trkpt lat="39.0913030" lon="1.5507270">
        <ele>97.4</ele>
        <time>2020-02-23T13:34:15Z</time>
      </trkpt>
      <trkpt lat="39.0912850" lon="1.5507310">
        <ele>98.3</ele>
        <time>2020-02-23T13:34:16Z</time>
      </trkpt>
      <trkpt lat="39.0912630" lon="1.5507290">
        <ele>99.2</ele>
        <time>2020-02-23T13:34:17Z</time>
      </trkpt>
      <trkpt lat="39.0912540" lon="1.5507290">
        <ele>99.2</ele>
        <time>2020-02-23T13:34:18Z</time>
      </trkpt>
      <trkpt lat="39.0912460" lon="1.5507300">
        <ele>99.2</ele>
        <time>2020-02-23T13:34:19Z</time>
      </trkpt>
      <trkpt lat="39.0912370" lon="1.5507280">
        <ele>99.2</ele>
        <time>2020-02-23T13:34:20Z</time>
      </trkpt>
      <trkpt lat="39.0912290" lon="1.5507280">
        <ele>100.1</ele>
        <time>2020-02-23T13:34:21Z</time>
      </trkpt>
      <trkpt lat="39.0912150" lon="1.5507240">
        <ele>100.1</ele>
        <time>2020-02-23T13:34:22Z</time>
      </trkpt>
      <trkpt lat="39.0911990" lon="1.5507170">
        <ele>101.0</ele>
        <time>2020-02-23T13:34:23Z</time>
      </trkpt>
      <trkpt lat="39.0911880" lon="1.5507170">
        <ele>101.0</ele>
        <time>2020-02-23T13:34:24Z</time>
      </trkpt>
      <trkpt lat="39.0911700" lon="1.5507240">
        <ele>101.0</ele>
        <time>2020-02-23T13:34:25Z</time>
      </trkpt>
      <trkpt lat="39.0911640" lon="1.5507250">
        <ele>101.8</ele>
        <time>2020-02-23T13:34:26Z</time>
      </trkpt>
      <trkpt lat="39.0911530" lon="1.5507250">
        <ele>101.8</ele>
        <time>2020-02-23T13:34:27Z</time>
      </trkpt>
      <trkpt lat="39.0911420" lon="1.5507300">
        <ele>101.8</ele>
        <time>2020-02-23T13:34:28Z</time>
      </trkpt>
      <trkpt lat="39.0911260" lon="1.5507330">
        <ele>102.6</ele>
        <time>2020-02-23T13:34:29Z</time>
      </trkpt>
      <trkpt lat="39.0911080" lon="1.5507380">
        <ele>102.6</ele>
        <time>2020-02-23T13:34:30Z</time>
      </trkpt>
      <trkpt lat="39.0910950" lon="1.5507370">
        <ele>103.4</ele>
        <time>2020-02-23T13:34:31Z</time>
      </trkpt>
      <trkpt lat="39.0910760" lon="1.5507290">
        <ele>103.4</ele>
        <time>2020-02-23T13:34:32Z</time>
      </trkpt>
      <trkpt lat="39.0910610" lon="1.5507280">
        <ele>104.1</ele>
        <time>2020-02-23T13:34:33Z</time>
      </trkpt>
      <trkpt lat="39.0910420" lon="1.5507320">
        <ele>104.1</ele>
        <time>2020-02-23T13:34:34Z</time>
      </trkpt>
      <trkpt lat="39.0910290" lon="1.5507390">
        <ele>104.8</ele>
        <time>2020-02-23T13:34:35Z</time>
      </trkpt>
      <trkpt lat="39.0910110" lon="1.5507470">
        <ele>103.5</ele>
        <time>2020-02-23T13:34:36Z</time>
      </trkpt>
      <trkpt lat="39.0910020" lon="1.5507480">
        <ele>103.5</ele>
        <time>2020-02-23T13:34:37Z</time>
      </trkpt>
      <trkpt lat="39.0909930" lon="1.5507500">
        <ele>104.2</ele>
        <time>2020-02-23T13:34:38Z</time>
      </trkpt>
      <trkpt lat="39.0909780" lon="1.5507510">
        <ele>104.2</ele>
        <time>2020-02-23T13:34:39Z</time>
      </trkpt>
      <trkpt lat="39.0909620" lon="1.5507560">
        <ele>104.9</ele>
        <time>2020-02-23T13:34:40Z</time>
      </trkpt>
      <trkpt lat="39.0909520" lon="1.5507560">
        <ele>104.9</ele>
        <time>2020-02-23T13:34:41Z</time>
      </trkpt>
      <trkpt lat="39.0909350" lon="1.5507600">
        <ele>104.9</ele>
        <time>2020-02-23T13:34:42Z</time>
      </trkpt>
      <trkpt lat="39.0909270" lon="1.5507650">
        <ele>105.5</ele>
        <time>2020-02-23T13:34:43Z</time>
      </trkpt>
      <trkpt lat="39.0909170" lon="1.5507650">
        <ele>105.5</ele>
        <time>2020-02-23T13:34:44Z</time>
      </trkpt>
      <trkpt lat="39.0909090" lon="1.5507660">
        <ele>105.5</ele>
        <time>2020-02-23T13:34:45Z</time>
      </trkpt>
      <trkpt lat="39.0908980" lon="1.5507640">
        <ele>106.2</ele>
        <time>2020-02-23T13:34:46Z</time>
      </trkpt>
      <trkpt lat="39.0908910" lon="1.5507620">
        <ele>106.2</ele>
        <time>2020-02-23T13:34:47Z</time>
      </trkpt>
      <trkpt lat="39.0908850" lon="1.5507470">
        <ele>106.2</ele>
        <time>2020-02-23T13:34:48Z</time>
      </trkpt>
      <trkpt lat="39.0908740" lon="1.5507390">
        <ele>107.6</ele>
        <time>2020-02-23T13:34:49Z</time>
      </trkpt>
      <trkpt lat="39.0908690" lon="1.5507360">
        <ele>107.6</ele>
        <time>2020-02-23T13:34:50Z</time>
      </trkpt>
      <trkpt lat="39.0908610" lon="1.5507340">
        <ele>108.3</ele>
        <time>2020-02-23T13:34:51Z</time>
      </trkpt>
      <trkpt lat="39.0908520" lon="1.5507370">
        <ele>108.3</ele>
        <time>2020-02-23T13:34:52Z</time>
      </trkpt>
      <trkpt lat="39.0908300" lon="1.5507180">
        <ele>108.9</ele>
        <time>2020-02-23T13:34:53Z</time>
      </trkpt>
      <trkpt lat="39.0908200" lon="1.5507190">
        <ele>108.9</ele>
        <time>2020-02-23T13:34:54Z</time>
      </trkpt>
      <trkpt lat="39.0908110" lon="1.5507250">
        <ele>108.9</ele>
        <time>2020-02-23T13:34:55Z</time>
      </trkpt>
      <trkpt lat="39.0908040" lon="1.5507230">
        <ele>108.9</ele>
        <time>2020-02-23T13:34:56Z</time>
      </trkpt>
      <trkpt lat="39.0907890" lon="1.5507290">
        <ele>109.4</ele>
        <time>2020-02-23T13:34:57Z</time>
      </trkpt>
      <trkpt lat="39.0907790" lon="1.5507330">
        <ele>109.4</ele>
        <time>2020-02-23T13:34:58Z</time>
      </trkpt>
      <trkpt lat="39.0907740" lon="1.5507250">
        <ele>109.4</ele>
        <time>2020-02-23T13:34:59Z</time>
      </trkpt>
      <trkpt lat="39.0907650" lon="1.5507240">
        <ele>109.9</ele>
        <time>2020-02-23T13:35:00Z</time>
      </trkpt>
      <trkpt lat="39.0907590" lon="1.5507230">
        <ele>109.9</ele>
        <time>2020-02-23T13:35:01Z</time>
      </trkpt>
      <trkpt lat="39.0907650" lon="1.5507220">
        <ele>109.9</ele>
        <time>2020-02-23T13:35:02Z</time>
      </trkpt>
      <trkpt lat="39.0907510" lon="1.5507230">
        <ele>109.9</ele>
        <time>2020-02-23T13:35:03Z</time>
      </trkpt>
      <trkpt lat="39.0907420" lon="1.5507320">
        <ele>109.9</ele>
        <time>2020-02-23T13:35:04Z</time>
      </trkpt>
      <trkpt lat="39.0907330" lon="1.5507370">
        <ele>110.4</ele>
        <time>2020-02-23T13:35:05Z</time>
      </trkpt>
      <trkpt lat="39.0907240" lon="1.5507360">
        <ele>110.4</ele>
        <time>2020-02-23T13:35:06Z</time>
      </trkpt>
      <trkpt lat="39.0907140" lon="1.5507290">
        <ele>110.4</ele>
        <time>2020-02-23T13:35:07Z</time>
      </trkpt>
      <trkpt lat="39.0907080" lon="1.5507250">
        <ele>110.4</ele>
        <time>2020-02-23T13:35:08Z</time>
      </trkpt>
      <trkpt lat="39.0907000" lon="1.5507220">
        <ele>110.7</ele>
        <time>2020-02-23T13:35:09Z</time>
      </trkpt>
      <trkpt lat="39.0906870" lon="1.5507230">
        <ele>110.7</ele>
        <time>2020-02-23T13:35:10Z</time>
      </trkpt>
      <trkpt lat="39.0906730" lon="1.5507210">
        <ele>110.7</ele>
        <time>2020-02-23T13:35:11Z</time>
      </trkpt>
      <trkpt lat="39.0906520" lon="1.5507080">
        <ele>111.0</ele>
        <time>2020-02-23T13:35:12Z</time>
      </trkpt>
      <trkpt lat="39.0906470" lon="1.5507010">
        <ele>112.7</ele>
        <time>2020-02-23T13:35:13Z</time>
      </trkpt>
      <trkpt lat="39.0906410" lon="1.5506950">
        <ele>112.7</ele>
        <time>2020-02-23T13:35:14Z</time>
      </trkpt>
      <trkpt lat="39.0906310" lon="1.5506950">
        <ele>113.0</ele>
        <time>2020-02-23T13:35:15Z</time>
      </trkpt>
      <trkpt lat="39.0906160" lon="1.5506820">
        <ele>113.0</ele>
        <time>2020-02-23T13:35:16Z</time>
      </trkpt>
      <trkpt lat="39.0906090" lon="1.5506770">
        <ele>113.0</ele>
        <time>2020-02-23T13:35:17Z</time>
      </trkpt>
      <trkpt lat="39.0906020" lon="1.5506700">
        <ele>113.0</ele>
        <time>2020-02-23T13:35:18Z</time>
      </trkpt>
      <trkpt lat="39.0905870" lon="1.5506560">
        <ele>114.9</ele>
        <time>2020-02-23T13:35:19Z</time>
      </trkpt>
      <trkpt lat="39.0905610" lon="1.5506340">
        <ele>115.0</ele>
        <time>2020-02-23T13:35:20Z</time>
      </trkpt>
      <trkpt lat="39.0905540" lon="1.5506280">
        <ele>115.0</ele>
        <time>2020-02-23T13:35:21Z</time>
      </trkpt>
      <trkpt lat="39.0905470" lon="1.5506090">
        <ele>116.6</ele>
        <time>2020-02-23T13:35:22Z</time>
      </trkpt>
      <trkpt lat="39.0905420" lon="1.5505930">
        <ele>116.6</ele>
        <time>2020-02-23T13:35:23Z</time>
      </trkpt>
      <trkpt lat="39.0905350" lon="1.5505850">
        <ele>116.6</ele>
        <time>2020-02-23T13:35:24Z</time>
      </trkpt>
      <trkpt lat="39.0905260" lon="1.5505790">
        <ele>116.7</ele>
        <time>2020-02-23T13:35:25Z</time>
      </trkpt>
      <trkpt lat="39.0905190" lon="1.5505700">
        <ele>118.2</ele>
        <time>2020-02-23T13:35:26Z</time>
      </trkpt>
      <trkpt lat="39.0905130" lon="1.5505600">
        <ele>118.2</ele>
        <time>2020-02-23T13:35:27Z</time>
      </trkpt>
      <trkpt lat="39.0905150" lon="1.5505640">
        <ele>118.2</ele>
        <time>2020-02-23T13:35:28Z</time>
      </trkpt>
      <trkpt lat="39.0905140" lon="1.5505750">
        <ele>116.7</ele>
        <time>2020-02-23T13:35:29Z</time>
      </trkpt>
      <trkpt lat="39.0905160" lon="1.5505890">
        <ele>116.7</ele>
        <time>2020-02-23T13:35:30Z</time>
      </trkpt>
      <trkpt lat="39.0905170" lon="1.5505910">
        <ele>116.7</ele>
        <time>2020-02-23T13:35:31Z</time>
      </trkpt>
      <trkpt lat="39.0905170" lon="1.5505920">
        <ele>116.7</ele>
        <time>2020-02-23T13:35:32Z</time>
      </trkpt>
      <trkpt lat="39.0905160" lon="1.5505920">
        <ele>116.7</ele>
        <time>2020-02-23T13:35:33Z</time>
      </trkpt>
      <trkpt lat="39.0905160" lon="1.5505930">
        <ele>116.7</ele>
        <time>2020-02-23T13:35:34Z</time>
      </trkpt>
      <trkpt lat="39.0905160" lon="1.5505950">
        <ele>116.7</ele>
        <time>2020-02-23T13:35:35Z</time>
      </trkpt>
      <trkpt lat="39.0905150" lon="1.5505960">
        <ele>116.7</ele>
        <time>2020-02-23T13:35:36Z</time>
      </trkpt>
      <trkpt lat="39.0905150" lon="1.5505950">
        <ele>116.7</ele>
        <time>2020-02-23T13:35:37Z</time>
      </trkpt>
      <trkpt lat="39.0905150" lon="1.5505950">
        <ele>116.7</ele>
        <time>2020-02-23T13:35:38Z</time>
      </trkpt>
      <trkpt lat="39.0905140" lon="1.5505940">
        <ele>116.7</ele>
        <time>2020-02-23T13:35:39Z</time>
      </trkpt>
      <trkpt lat="39.0904780" lon="1.5505630">
        <ele>118.2</ele>
        <time>2020-02-23T13:36:51Z</time>
      </trkpt>
      <trkpt lat="39.0904710" lon="1.5505490">
        <ele>118.2</ele>
        <time>2020-02-23T13:36:52Z</time>
      </trkpt>
      <trkpt lat="39.0904610" lon="1.5505390">
        <ele>118.2</ele>
        <time>2020-02-23T13:36:53Z</time>
      </trkpt>
      <trkpt lat="39.0904590" lon="1.5505400">
        <ele>118.2</ele>
        <time>2020-02-23T13:36:54Z</time>
      </trkpt>
      <trkpt lat="39.0904590" lon="1.5505400">
        <ele>118.2</ele>
        <time>2020-02-23T13:36:55Z</time>
      </trkpt>
      <trkpt lat="39.0904580" lon="1.5505410">
        <ele>118.2</ele>
        <time>2020-02-23T13:36:56Z</time>
      </trkpt>
      <trkpt lat="39.0904580" lon="1.5505370">
        <ele>118.2</ele>
        <time>2020-02-23T13:36:57Z</time>
      </trkpt>
      <trkpt lat="39.0904580" lon="1.5505360">
        <ele>118.2</ele>
        <time>2020-02-23T13:36:58Z</time>
      </trkpt>
      <trkpt lat="39.0904620" lon="1.5505390">
        <ele>118.2</ele>
        <time>2020-02-23T13:36:59Z</time>
      </trkpt>
      <trkpt lat="39.0904580" lon="1.5505290">
        <ele>119.6</ele>
        <time>2020-02-23T13:37:00Z</time>
      </trkpt>
      <trkpt lat="39.0904490" lon="1.5505140">
        <ele>119.6</ele>
        <time>2020-02-23T13:37:01Z</time>
      </trkpt>
      <trkpt lat="39.0904500" lon="1.5505030">
        <ele>119.6</ele>
        <time>2020-02-23T13:37:02Z</time>
      </trkpt>
      <trkpt lat="39.0904390" lon="1.5504960">
        <ele>119.6</ele>
        <time>2020-02-23T13:37:03Z</time>
      </trkpt>
      <trkpt lat="39.0904240" lon="1.5504860">
        <ele>120.9</ele>
        <time>2020-02-23T13:37:04Z</time>
      </trkpt>
      <trkpt lat="39.0904070" lon="1.5504790">
        <ele>120.9</ele>
        <time>2020-02-23T13:37:05Z</time>
      </trkpt>
      <trkpt lat="39.0903940" lon="1.5504720">
        <ele>120.8</ele>
        <time>2020-02-23T13:37:06Z</time>
      </trkpt>
      <trkpt lat="39.0903820" lon="1.5504590">
        <ele>120.8</ele>
        <time>2020-02-23T13:37:07Z</time>
      </trkpt>
      <trkpt lat="39.0903730" lon="1.5504550">
        <ele>120.8</ele>
        <time>2020-02-23T13:37:08Z</time>
      </trkpt>
      <trkpt lat="39.0903630" lon="1.5504500">
        <ele>120.6</ele>
        <time>2020-02-23T13:37:09Z</time>
      </trkpt>
      <trkpt lat="39.0903540" lon="1.5504460">
        <ele>120.6</ele>
        <time>2020-02-23T13:37:10Z</time>
      </trkpt>
      <trkpt lat="39.0903420" lon="1.5504370">
        <ele>121.9</ele>
        <time>2020-02-23T13:37:11Z</time>
      </trkpt>
      <trkpt lat="39.0903310" lon="1.5504240">
        <ele>121.8</ele>
        <time>2020-02-23T13:37:12Z</time>
      </trkpt>
      <trkpt lat="39.0903080" lon="1.5504210">
        <ele>121.8</ele>
        <time>2020-02-23T13:37:13Z</time>
      </trkpt>
      <trkpt lat="39.0903010" lon="1.5504180">
        <ele>121.8</ele>
        <time>2020-02-23T13:37:14Z</time>
      </trkpt>
      <trkpt lat="39.0902930" lon="1.5504140">
        <ele>121.6</ele>
        <time>2020-02-23T13:37:15Z</time>
      </trkpt>
      <trkpt lat="39.0902770" lon="1.5504100">
        <ele>121.6</ele>
        <time>2020-02-23T13:37:16Z</time>
      </trkpt>
      <trkpt lat="39.0902610" lon="1.5504140">
        <ele>121.4</ele>
        <time>2020-02-23T13:37:17Z</time>
      </trkpt>
      <trkpt lat="39.0902490" lon="1.5504120">
        <ele>121.4</ele>
        <time>2020-02-23T13:37:18Z</time>
      </trkpt>
      <trkpt lat="39.0902380" lon="1.5504230">
        <ele>121.4</ele>
        <time>2020-02-23T13:37:19Z</time>
      </trkpt>
      <trkpt lat="39.0902260" lon="1.5504010">
        <ele>122.6</ele>
        <time>2020-02-23T13:37:20Z</time>
      </trkpt>
      <trkpt lat="39.0902250" lon="1.5503970">
        <ele>122.6</ele>
        <time>2020-02-23T13:37:21Z</time>
      </trkpt>
      <trkpt lat="39.0902220" lon="1.5503940">
        <ele>122.6</ele>
        <time>2020-02-23T13:37:22Z</time>
      </trkpt>
      <trkpt lat="39.0902150" lon="1.5503890">
        <ele>122.6</ele>
        <time>2020-02-23T13:37:23Z</time>
      </trkpt>
      <trkpt lat="39.0902090" lon="1.5503890">
        <ele>122.6</ele>
        <time>2020-02-23T13:37:24Z</time>
      </trkpt>
      <trkpt lat="39.0901990" lon="1.5503990">
        <ele>122.3</ele>
        <time>2020-02-23T13:37:25Z</time>
      </trkpt>
      <trkpt lat="39.0901880" lon="1.5503950">
        <ele>122.3</ele>
        <time>2020-02-23T13:37:26Z</time>
      </trkpt>
      <trkpt lat="39.0901820" lon="1.5503930">
        <ele>122.3</ele>
        <time>2020-02-23T13:37:27Z</time>
      </trkpt>
      <trkpt lat="39.0901760" lon="1.5503910">
        <ele>122.3</ele>
        <time>2020-02-23T13:37:28Z</time>
      </trkpt>
      <trkpt lat="39.0901690" lon="1.5503900">
        <ele>122.3</ele>
        <time>2020-02-23T13:37:29Z</time>
      </trkpt>
      <trkpt lat="39.0901630" lon="1.5503880">
        <ele>122.1</ele>
        <time>2020-02-23T13:37:30Z</time>
      </trkpt>
      <trkpt lat="39.0901570" lon="1.5503860">
        <ele>122.1</ele>
        <time>2020-02-23T13:37:31Z</time>
      </trkpt>
      <trkpt lat="39.0901350" lon="1.5503740">
        <ele>122.1</ele>
        <time>2020-02-23T13:37:32Z</time>
      </trkpt>
      <trkpt lat="39.0901300" lon="1.5503680">
        <ele>121.8</ele>
        <time>2020-02-23T13:37:33Z</time>
      </trkpt>
      <trkpt lat="39.0901240" lon="1.5503630">
        <ele>121.8</ele>
        <time>2020-02-23T13:37:34Z</time>
      </trkpt>
      <trkpt lat="39.0901140" lon="1.5503560">
        <ele>123.4</ele>
        <time>2020-02-23T13:37:35Z</time>
      </trkpt>
      <trkpt lat="39.0900940" lon="1.5503460">
        <ele>123.1</ele>
        <time>2020-02-23T13:37:36Z</time>
      </trkpt>
      <trkpt lat="39.0900760" lon="1.5503340">
        <ele>123.1</ele>
        <time>2020-02-23T13:37:37Z</time>
      </trkpt>
      <trkpt lat="39.0900680" lon="1.5503190">
        <ele>123.1</ele>
        <time>2020-02-23T13:37:38Z</time>
      </trkpt>
      <trkpt lat="39.0900620" lon="1.5503010">
        <ele>124.4</ele>
        <time>2020-02-23T13:37:39Z</time>
      </trkpt>
      <trkpt lat="39.0900530" lon="1.5502810">
        <ele>124.4</ele>
        <time>2020-02-23T13:37:40Z</time>
      </trkpt>
      <trkpt lat="39.0900260" lon="1.5502630">
        <ele>125.7</ele>
        <time>2020-02-23T13:37:41Z</time>
      </trkpt>
      <trkpt lat="39.0900150" lon="1.5502570">
        <ele>125.7</ele>
        <time>2020-02-23T13:37:42Z</time>
      </trkpt>
      <trkpt lat="39.0899990" lon="1.5502490">
        <ele>125.5</ele>
        <time>2020-02-23T13:37:43Z</time>
      </trkpt>
      <trkpt lat="39.0899960" lon="1.5502520">
        <ele>125.5</ele>
        <time>2020-02-23T13:37:44Z</time>
      </trkpt>
      <trkpt lat="39.0899930" lon="1.5502550">
        <ele>125.5</ele>
        <time>2020-02-23T13:37:45Z</time>
      </trkpt>
      <trkpt lat="39.0899900" lon="1.5502520">
        <ele>125.5</ele>
        <time>2020-02-23T13:37:46Z</time>
      </trkpt>
      <trkpt lat="39.0899810" lon="1.5502470">
        <ele>125.5</ele>
        <time>2020-02-23T13:37:47Z</time>
      </trkpt>
      <trkpt lat="39.0899740" lon="1.5502220">
        <ele>126.9</ele>
        <time>2020-02-23T13:37:48Z</time>
      </trkpt>
      <trkpt lat="39.0899720" lon="1.5502080">
        <ele>126.9</ele>
        <time>2020-02-23T13:37:49Z</time>
      </trkpt>
      <trkpt lat="39.0899710" lon="1.5501930">
        <ele>126.9</ele>
        <time>2020-02-23T13:37:50Z</time>
      </trkpt>
      <trkpt lat="39.0899590" lon="1.5501810">
        <ele>128.1</ele>
        <time>2020-02-23T13:37:51Z</time>
      </trkpt>
      <trkpt lat="39.0899470" lon="1.5501680">
        <ele>128.1</ele>
        <time>2020-02-23T13:37:52Z</time>
      </trkpt>
      <trkpt lat="39.0899360" lon="1.5501570">
        <ele>128.1</ele>
        <time>2020-02-23T13:37:53Z</time>
      </trkpt>
      <trkpt lat="39.0899260" lon="1.5501420">
        <ele>129.3</ele>
        <time>2020-02-23T13:37:54Z</time>
      </trkpt>
      <trkpt lat="39.0899170" lon="1.5501290">
        <ele>129.3</ele>
        <time>2020-02-23T13:37:55Z</time>
      </trkpt>
      <trkpt lat="39.0899040" lon="1.5501160">
        <ele>129.3</ele>
        <time>2020-02-23T13:37:56Z</time>
      </trkpt>
      <trkpt lat="39.0898580" lon="1.5500900">
        <ele>130.3</ele>
        <time>2020-02-23T13:37:57Z</time>
      </trkpt>
      <trkpt lat="39.0898330" lon="1.5500770">
        <ele>130.3</ele>
        <time>2020-02-23T13:37:58Z</time>
      </trkpt>
      <trkpt lat="39.0897920" lon="1.5500560">
        <ele>131.5</ele>
        <time>2020-02-23T13:37:59Z</time>
      </trkpt>
      <trkpt lat="39.0897800" lon="1.5500630">
        <ele>130.3</ele>
        <time>2020-02-23T13:38:00Z</time>
      </trkpt>
      <trkpt lat="39.0897570" lon="1.5500540">
        <ele>131.5</ele>
        <time>2020-02-23T13:38:01Z</time>
      </trkpt>
      <trkpt lat="39.0897360" lon="1.5500490">
        <ele>131.5</ele>
        <time>2020-02-23T13:38:02Z</time>
      </trkpt>
      <trkpt lat="39.0897310" lon="1.5500430">
        <ele>131.5</ele>
        <time>2020-02-23T13:38:03Z</time>
      </trkpt>
      <trkpt lat="39.0897220" lon="1.5500370">
        <ele>131.5</ele>
        <time>2020-02-23T13:38:04Z</time>
      </trkpt>
      <trkpt lat="39.0897030" lon="1.5500390">
        <ele>131.5</ele>
        <time>2020-02-23T13:38:05Z</time>
      </trkpt>
      <trkpt lat="39.0896880" lon="1.5500410">
        <ele>131.5</ele>
        <time>2020-02-23T13:38:06Z</time>
      </trkpt>
      <trkpt lat="39.0896690" lon="1.5500440">
        <ele>131.5</ele>
        <time>2020-02-23T13:38:07Z</time>
      </trkpt>
      <trkpt lat="39.0896410" lon="1.5500620">
        <ele>130.3</ele>
        <time>2020-02-23T13:38:08Z</time>
      </trkpt>
      <trkpt lat="39.0896320" lon="1.5500660">
        <ele>130.3</ele>
        <time>2020-02-23T13:38:09Z</time>
      </trkpt>
      <trkpt lat="39.0896080" lon="1.5500890">
        <ele>130.3</ele>
        <time>2020-02-23T13:38:10Z</time>
      </trkpt>
      <trkpt lat="39.0895990" lon="1.5500990">
        <ele>130.2</ele>
        <time>2020-02-23T13:38:11Z</time>
      </trkpt>
      <trkpt lat="39.0895760" lon="1.5501310">
        <ele>129.0</ele>
        <time>2020-02-23T13:38:12Z</time>
      </trkpt>
      <trkpt lat="39.0895690" lon="1.5501390">
        <ele>129.0</ele>
        <time>2020-02-23T13:38:13Z</time>
      </trkpt>
      <trkpt lat="39.0895480" lon="1.5501710">
        <ele>127.5</ele>
        <time>2020-02-23T13:38:14Z</time>
      </trkpt>
      <trkpt lat="39.0895400" lon="1.5501810">
        <ele>127.5</ele>
        <time>2020-02-23T13:38:15Z</time>
      </trkpt>
      <trkpt lat="39.0895080" lon="1.5502050">
        <ele>125.9</ele>
        <time>2020-02-23T13:38:16Z</time>
      </trkpt>
      <trkpt lat="39.0894940" lon="1.5502120">
        <ele>125.8</ele>
        <time>2020-02-23T13:38:17Z</time>
      </trkpt>
      <trkpt lat="39.0894660" lon="1.5502260">
        <ele>125.7</ele>
        <time>2020-02-23T13:38:18Z</time>
      </trkpt>
      <trkpt lat="39.0894570" lon="1.5502300">
        <ele>125.7</ele>
        <time>2020-02-23T13:38:19Z</time>
      </trkpt>
      <trkpt lat="39.0894420" lon="1.5502370">
        <ele>124.1</ele>
        <time>2020-02-23T13:38:20Z</time>
      </trkpt>
      <trkpt lat="39.0894260" lon="1.5502470">
        <ele>124.0</ele>
        <time>2020-02-23T13:38:21Z</time>
      </trkpt>
      <trkpt lat="39.0893950" lon="1.5502520">
        <ele>123.8</ele>
        <time>2020-02-23T13:38:22Z</time>
      </trkpt>
      <trkpt lat="39.0893680" lon="1.5502590">
        <ele>123.8</ele>
        <time>2020-02-23T13:38:23Z</time>
      </trkpt>
      <trkpt lat="39.0893570" lon="1.5502580">
        <ele>123.7</ele>
        <time>2020-02-23T13:38:24Z</time>
      </trkpt>
      <trkpt lat="39.0893350" lon="1.5502550">
        <ele>123.7</ele>
        <time>2020-02-23T13:38:25Z</time>
      </trkpt>
      <trkpt lat="39.0893240" lon="1.5502540">
        <ele>123.5</ele>
        <time>2020-02-23T13:38:26Z</time>
      </trkpt>
      <trkpt lat="39.0893130" lon="1.5502520">
        <ele>123.5</ele>
        <time>2020-02-23T13:38:27Z</time>
      </trkpt>
      <trkpt lat="39.0892940" lon="1.5502480">
        <ele>123.4</ele>
        <time>2020-02-23T13:38:28Z</time>
      </trkpt>
      <trkpt lat="39.0892780" lon="1.5502450">
        <ele>123.4</ele>
        <time>2020-02-23T13:38:29Z</time>
      </trkpt>
      <trkpt lat="39.0892440" lon="1.5502390">
        <ele>123.2</ele>
        <time>2020-02-23T13:38:30Z</time>
      </trkpt>
      <trkpt lat="39.0892340" lon="1.5502390">
        <ele>123.0</ele>
        <time>2020-02-23T13:38:31Z</time>
      </trkpt>
      <trkpt lat="39.0892070" lon="1.5502400">
        <ele>123.0</ele>
        <time>2020-02-23T13:38:32Z</time>
      </trkpt>
      <trkpt lat="39.0891730" lon="1.5502270">
        <ele>124.2</ele>
        <time>2020-02-23T13:38:33Z</time>
      </trkpt>
      <trkpt lat="39.0891600" lon="1.5502230">
        <ele>123.9</ele>
        <time>2020-02-23T13:38:34Z</time>
      </trkpt>
      <trkpt lat="39.0891290" lon="1.5502170">
        <ele>123.7</ele>
        <time>2020-02-23T13:38:35Z</time>
      </trkpt>
      <trkpt lat="39.0891180" lon="1.5502130">
        <ele>123.7</ele>
        <time>2020-02-23T13:38:36Z</time>
      </trkpt>
      <trkpt lat="39.0890870" lon="1.5502080">
        <ele>123.6</ele>
        <time>2020-02-23T13:38:37Z</time>
      </trkpt>
      <trkpt lat="39.0890660" lon="1.5501990">
        <ele>123.4</ele>
        <time>2020-02-23T13:38:38Z</time>
      </trkpt>
      <trkpt lat="39.0890530" lon="1.5501970">
        <ele>123.4</ele>
        <time>2020-02-23T13:38:39Z</time>
      </trkpt>
      <trkpt lat="39.0890320" lon="1.5501940">
        <ele>123.3</ele>
        <time>2020-02-23T13:38:40Z</time>
      </trkpt>
      <trkpt lat="39.0890230" lon="1.5501920">
        <ele>123.3</ele>
        <time>2020-02-23T13:38:41Z</time>
      </trkpt>
      <trkpt lat="39.0890130" lon="1.5501900">
        <ele>123.3</ele>
        <time>2020-02-23T13:38:42Z</time>
      </trkpt>
      <trkpt lat="39.0889830" lon="1.5501930">
        <ele>123.2</ele>
        <time>2020-02-23T13:38:43Z</time>
      </trkpt>
      <trkpt lat="39.0889560" lon="1.5501890">
        <ele>123.2</ele>
        <time>2020-02-23T13:38:44Z</time>
      </trkpt>
      <trkpt lat="39.0889210" lon="1.5501890">
        <ele>123.1</ele>
        <time>2020-02-23T13:38:45Z</time>
      </trkpt>
      <trkpt lat="39.0888930" lon="1.5501860">
        <ele>124.1</ele>
        <time>2020-02-23T13:38:46Z</time>
      </trkpt>
      <trkpt lat="39.0888770" lon="1.5501820">
        <ele>124.1</ele>
        <time>2020-02-23T13:38:47Z</time>
      </trkpt>
      <trkpt lat="39.0888590" lon="1.5501820">
        <ele>124.0</ele>
        <time>2020-02-23T13:38:48Z</time>
      </trkpt>
      <trkpt lat="39.0888320" lon="1.5501710">
        <ele>123.9</ele>
        <time>2020-02-23T13:38:49Z</time>
      </trkpt>
      <trkpt lat="39.0888000" lon="1.5501650">
        <ele>123.8</ele>
        <time>2020-02-23T13:38:50Z</time>
      </trkpt>
      <trkpt lat="39.0887890" lon="1.5501630">
        <ele>123.8</ele>
        <time>2020-02-23T13:38:51Z</time>
      </trkpt>
      <trkpt lat="39.0887530" lon="1.5501710">
        <ele>123.8</ele>
        <time>2020-02-23T13:38:52Z</time>
      </trkpt>
      <trkpt lat="39.0887400" lon="1.5501770">
        <ele>123.8</ele>
        <time>2020-02-23T13:38:53Z</time>
      </trkpt>
      <trkpt lat="39.0887020" lon="1.5501930">
        <ele>122.9</ele>
        <time>2020-02-23T13:38:54Z</time>
      </trkpt>
      <trkpt lat="39.0886860" lon="1.5501970">
        <ele>122.7</ele>
        <time>2020-02-23T13:38:55Z</time>
      </trkpt>
      <trkpt lat="39.0886550" lon="1.5501980">
        <ele>122.6</ele>
        <time>2020-02-23T13:38:56Z</time>
      </trkpt>
      <trkpt lat="39.0886450" lon="1.5501980">
        <ele>122.6</ele>
        <time>2020-02-23T13:38:57Z</time>
      </trkpt>
      <trkpt lat="39.0886320" lon="1.5501960">
        <ele>122.4</ele>
        <time>2020-02-23T13:38:58Z</time>
      </trkpt>
      <trkpt lat="39.0886140" lon="1.5502000">
        <ele>122.4</ele>
        <time>2020-02-23T13:38:59Z</time>
      </trkpt>
      <trkpt lat="39.0885820" lon="1.5502130">
        <ele>122.2</ele>
        <time>2020-02-23T13:39:00Z</time>
      </trkpt>
      <trkpt lat="39.0885710" lon="1.5502180">
        <ele>122.2</ele>
        <time>2020-02-23T13:39:01Z</time>
      </trkpt>
      <trkpt lat="39.0885390" lon="1.5502170">
        <ele>122.0</ele>
        <time>2020-02-23T13:39:02Z</time>
      </trkpt>
      <trkpt lat="39.0885030" lon="1.5502170">
        <ele>121.9</ele>
        <time>2020-02-23T13:39:03Z</time>
      </trkpt>
      <trkpt lat="39.0884890" lon="1.5502160">
        <ele>121.7</ele>
        <time>2020-02-23T13:39:04Z</time>
      </trkpt>
      <trkpt lat="39.0884560" lon="1.5502140">
        <ele>121.6</ele>
        <time>2020-02-23T13:39:05Z</time>
      </trkpt>
      <trkpt lat="39.0884160" lon="1.5502180">
        <ele>121.6</ele>
        <time>2020-02-23T13:39:06Z</time>
      </trkpt>
      <trkpt lat="39.0884040" lon="1.5502170">
        <ele>121.6</ele>
        <time>2020-02-23T13:39:07Z</time>
      </trkpt>
      <trkpt lat="39.0883770" lon="1.5502080">
        <ele>121.5</ele>
        <time>2020-02-23T13:39:08Z</time>
      </trkpt>
      <trkpt lat="39.0883680" lon="1.5502070">
        <ele>121.5</ele>
        <time>2020-02-23T13:39:09Z</time>
      </trkpt>
      <trkpt lat="39.0883580" lon="1.5501890">
        <ele>121.5</ele>
        <time>2020-02-23T13:39:10Z</time>
      </trkpt>
      <trkpt lat="39.0883580" lon="1.5501810">
        <ele>121.8</ele>
        <time>2020-02-23T13:39:11Z</time>
      </trkpt>
      <trkpt lat="39.0883550" lon="1.5501720">
        <ele>121.8</ele>
        <time>2020-02-23T13:39:12Z</time>
      </trkpt>
      <trkpt lat="39.0883540" lon="1.5501710">
        <ele>121.8</ele>
        <time>2020-02-23T13:39:13Z</time>
      </trkpt>
      <trkpt lat="39.0883530" lon="1.5501690">
        <ele>121.8</ele>
        <time>2020-02-23T13:39:14Z</time>
      </trkpt>
      <trkpt lat="39.0883500" lon="1.5501710">
        <ele>121.8</ele>
        <time>2020-02-23T13:39:15Z</time>
      </trkpt>
      <trkpt lat="39.0883450" lon="1.5501670">
        <ele>121.8</ele>
        <time>2020-02-23T13:39:16Z</time>
      </trkpt>
      <trkpt lat="39.0883390" lon="1.5501590">
        <ele>121.8</ele>
        <time>2020-02-23T13:39:17Z</time>
      </trkpt>
      <trkpt lat="39.0883340" lon="1.5501550">
        <ele>121.8</ele>
        <time>2020-02-23T13:39:18Z</time>
      </trkpt>
      <trkpt lat="39.0883350" lon="1.5501570">
        <ele>121.8</ele>
        <time>2020-02-23T13:39:19Z</time>
      </trkpt>
      <trkpt lat="39.0883270" lon="1.5501560">
        <ele>121.8</ele>
        <time>2020-02-23T13:39:20Z</time>
      </trkpt>
      <trkpt lat="39.0883160" lon="1.5501590">
        <ele>121.8</ele>
        <time>2020-02-23T13:39:21Z</time>
      </trkpt>
      <trkpt lat="39.0883130" lon="1.5501630">
        <ele>121.8</ele>
        <time>2020-02-23T13:39:22Z</time>
      </trkpt>
      <trkpt lat="39.0883090" lon="1.5501660">
        <ele>121.8</ele>
        <time>2020-02-23T13:39:23Z</time>
      </trkpt>
      <trkpt lat="39.0883060" lon="1.5501700">
        <ele>121.8</ele>
        <time>2020-02-23T13:39:24Z</time>
      </trkpt>
      <trkpt lat="39.0883020" lon="1.5501730">
        <ele>121.8</ele>
        <time>2020-02-23T13:39:25Z</time>
      </trkpt>
      <trkpt lat="39.0882980" lon="1.5501770">
        <ele>121.8</ele>
        <time>2020-02-23T13:39:26Z</time>
      </trkpt>
      <trkpt lat="39.0882950" lon="1.5501800">
        <ele>121.8</ele>
        <time>2020-02-23T13:39:27Z</time>
      </trkpt>
      <trkpt lat="39.0882910" lon="1.5501840">
        <ele>121.8</ele>
        <time>2020-02-23T13:39:28Z</time>
      </trkpt>
      <trkpt lat="39.0882880" lon="1.5501870">
        <ele>121.8</ele>
        <time>2020-02-23T13:39:29Z</time>
      </trkpt>
      <trkpt lat="39.0882840" lon="1.5501900">
        <ele>121.5</ele>
        <time>2020-02-23T13:39:30Z</time>
      </trkpt>
      <trkpt lat="39.0882800" lon="1.5501940">
        <ele>121.5</ele>
        <time>2020-02-23T13:39:31Z</time>
      </trkpt>
      <trkpt lat="39.0882770" lon="1.5501970">
        <ele>121.5</ele>
        <time>2020-02-23T13:39:32Z</time>
      </trkpt>
      <trkpt lat="39.0882730" lon="1.5502010">
        <ele>121.5</ele>
        <time>2020-02-23T13:39:33Z</time>
      </trkpt>
      <trkpt lat="39.0882690" lon="1.5502040">
        <ele>121.5</ele>
        <time>2020-02-23T13:39:34Z</time>
      </trkpt>
      <trkpt lat="39.0882660" lon="1.5502080">
        <ele>121.5</ele>
        <time>2020-02-23T13:39:35Z</time>
      </trkpt>
      <trkpt lat="39.0882620" lon="1.5502110">
        <ele>121.5</ele>
        <time>2020-02-23T13:39:54Z</time>
      </trkpt>
      <trkpt lat="39.0882590" lon="1.5502150">
        <ele>121.5</ele>
        <time>2020-02-23T13:39:55Z</time>
      </trkpt>
      <trkpt lat="39.0882550" lon="1.5502180">
        <ele>121.5</ele>
        <time>2020-02-23T13:39:56Z</time>
      </trkpt>
      <trkpt lat="39.0882470" lon="1.5502130">
        <ele>121.5</ele>
        <time>2020-02-23T13:39:57Z</time>
      </trkpt>
      <trkpt lat="39.0882330" lon="1.5502180">
        <ele>121.5</ele>
        <time>2020-02-23T13:39:58Z</time>
      </trkpt>
      <trkpt lat="39.0882220" lon="1.5502180">
        <ele>121.5</ele>
        <time>2020-02-23T13:39:59Z</time>
      </trkpt>
      <trkpt lat="39.0882170" lon="1.5502200">
        <ele>121.5</ele>
        <time>2020-02-23T13:40:00Z</time>
      </trkpt>
      <trkpt lat="39.0882100" lon="1.5502200">
        <ele>121.5</ele>
        <time>2020-02-23T13:40:01Z</time>
      </trkpt>
      <trkpt lat="39.0882020" lon="1.5502160">
        <ele>121.5</ele>
        <time>2020-02-23T13:40:02Z</time>
      </trkpt>
      <trkpt lat="39.0881930" lon="1.5502130">
        <ele>121.5</ele>
        <time>2020-02-23T13:40:03Z</time>
      </trkpt>
      <trkpt lat="39.0881840" lon="1.5502130">
        <ele>121.5</ele>
        <time>2020-02-23T13:40:04Z</time>
      </trkpt>
      <trkpt lat="39.0881730" lon="1.5502120">
        <ele>121.5</ele>
        <time>2020-02-23T13:40:05Z</time>
      </trkpt>
      <trkpt lat="39.0881630" lon="1.5502180">
        <ele>121.4</ele>
        <time>2020-02-23T13:40:06Z</time>
      </trkpt>
      <trkpt lat="39.0881360" lon="1.5502230">
        <ele>121.4</ele>
        <time>2020-02-23T13:40:07Z</time>
      </trkpt>
      <trkpt lat="39.0881270" lon="1.5502200">
        <ele>121.4</ele>
        <time>2020-02-23T13:40:08Z</time>
      </trkpt>
      <trkpt lat="39.0881170" lon="1.5502160">
        <ele>121.4</ele>
        <time>2020-02-23T13:40:09Z</time>
      </trkpt>
      <trkpt lat="39.0881100" lon="1.5502160">
        <ele>121.4</ele>
        <time>2020-02-23T13:40:10Z</time>
      </trkpt>
      <trkpt lat="39.0881000" lon="1.5502140">
        <ele>121.3</ele>
        <time>2020-02-23T13:40:11Z</time>
      </trkpt>
      <trkpt lat="39.0880920" lon="1.5502170">
        <ele>121.3</ele>
        <time>2020-02-23T13:40:12Z</time>
      </trkpt>
      <trkpt lat="39.0880810" lon="1.5502090">
        <ele>121.3</ele>
        <time>2020-02-23T13:40:13Z</time>
      </trkpt>
      <trkpt lat="39.0880660" lon="1.5502120">
        <ele>121.2</ele>
        <time>2020-02-23T13:40:14Z</time>
      </trkpt>
      <trkpt lat="39.0880490" lon="1.5502050">
        <ele>121.2</ele>
        <time>2020-02-23T13:40:15Z</time>
      </trkpt>
      <trkpt lat="39.0880280" lon="1.5501890">
        <ele>121.1</ele>
        <time>2020-02-23T13:40:16Z</time>
      </trkpt>
      <trkpt lat="39.0880170" lon="1.5501820">
        <ele>121.1</ele>
        <time>2020-02-23T13:40:17Z</time>
      </trkpt>
      <trkpt lat="39.0879930" lon="1.5501660">
        <ele>121.0</ele>
        <time>2020-02-23T13:40:18Z</time>
      </trkpt>
      <trkpt lat="39.0879860" lon="1.5501620">
        <ele>121.0</ele>
        <time>2020-02-23T13:40:19Z</time>
      </trkpt>
      <trkpt lat="39.0879780" lon="1.5501590">
        <ele>121.0</ele>
        <time>2020-02-23T13:40:20Z</time>
      </trkpt>
      <trkpt lat="39.0879610" lon="1.5501610">
        <ele>121.0</ele>
        <time>2020-02-23T13:40:21Z</time>
      </trkpt>
      <trkpt lat="39.0879500" lon="1.5501560">
        <ele>121.0</ele>
        <time>2020-02-23T13:40:22Z</time>
      </trkpt>
      <trkpt lat="39.0879240" lon="1.5501550">
        <ele>120.9</ele>
        <time>2020-02-23T13:40:23Z</time>
      </trkpt>
      <trkpt lat="39.0879120" lon="1.5501540">
        <ele>120.9</ele>
        <time>2020-02-23T13:40:24Z</time>
      </trkpt>
      <trkpt lat="39.0878950" lon="1.5501500">
        <ele>120.8</ele>
        <time>2020-02-23T13:40:25Z</time>
      </trkpt>
      <trkpt lat="39.0878840" lon="1.5501450">
        <ele>120.9</ele>
        <time>2020-02-23T13:40:26Z</time>
      </trkpt>
      <trkpt lat="39.0878630" lon="1.5501580">
        <ele>120.8</ele>
        <time>2020-02-23T13:40:27Z</time>
      </trkpt>
      <trkpt lat="39.0878560" lon="1.5501610">
        <ele>120.8</ele>
        <time>2020-02-23T13:40:28Z</time>
      </trkpt>
      <trkpt lat="39.0878500" lon="1.5501640">
        <ele>120.8</ele>
        <time>2020-02-23T13:40:29Z</time>
      </trkpt>
      <trkpt lat="39.0878380" lon="1.5501580">
        <ele>120.8</ele>
        <time>2020-02-23T13:40:30Z</time>
      </trkpt>
      <trkpt lat="39.0878250" lon="1.5501430">
        <ele>120.8</ele>
        <time>2020-02-23T13:40:31Z</time>
      </trkpt>
      <trkpt lat="39.0878190" lon="1.5501370">
        <ele>120.8</ele>
        <time>2020-02-23T13:40:32Z</time>
      </trkpt>
      <trkpt lat="39.0878180" lon="1.5501330">
        <ele>120.8</ele>
        <time>2020-02-23T13:40:33Z</time>
      </trkpt>
      <trkpt lat="39.0878160" lon="1.5501290">
        <ele>120.8</ele>
        <time>2020-02-23T13:40:34Z</time>
      </trkpt>
      <trkpt lat="39.0878140" lon="1.5501240">
        <ele>120.8</ele>
        <time>2020-02-23T13:40:35Z</time>
      </trkpt>
      <trkpt lat="39.0878130" lon="1.5501200">
        <ele>120.8</ele>
        <time>2020-02-23T13:40:36Z</time>
      </trkpt>
      <trkpt lat="39.0878110" lon="1.5501160">
        <ele>120.8</ele>
        <time>2020-02-23T13:40:37Z</time>
      </trkpt>
      <trkpt lat="39.0878090" lon="1.5501120">
        <ele>120.8</ele>
        <time>2020-02-23T13:40:38Z</time>
      </trkpt>
      <trkpt lat="39.0878080" lon="1.5501080">
        <ele>120.8</ele>
        <time>2020-02-23T13:40:39Z</time>
      </trkpt>
      <trkpt lat="39.0878060" lon="1.5501040">
        <ele>120.8</ele>
        <time>2020-02-23T13:40:40Z</time>
      </trkpt>
      <trkpt lat="39.0878040" lon="1.5501000">
        <ele>120.8</ele>
        <time>2020-02-23T13:40:41Z</time>
      </trkpt>
      <trkpt lat="39.0878020" lon="1.5500960">
        <ele>120.7</ele>
        <time>2020-02-23T13:40:42Z</time>
      </trkpt>
      <trkpt lat="39.0878010" lon="1.5500910">
        <ele>120.7</ele>
        <time>2020-02-23T13:40:43Z</time>
      </trkpt>
      <trkpt lat="39.0877990" lon="1.5500870">
        <ele>120.7</ele>
        <time>2020-02-23T13:40:56Z</time>
      </trkpt>
      <trkpt lat="39.0877970" lon="1.5500830">
        <ele>120.7</ele>
        <time>2020-02-23T13:40:57Z</time>
      </trkpt>
      <trkpt lat="39.0877960" lon="1.5500790">
        <ele>120.7</ele>
        <time>2020-02-23T13:40:58Z</time>
      </trkpt>
      <trkpt lat="39.0877940" lon="1.5500750">
        <ele>120.7</ele>
        <time>2020-02-23T13:40:59Z</time>
      </trkpt>
      <trkpt lat="39.0877910" lon="1.5500520">
        <ele>120.8</ele>
        <time>2020-02-23T13:41:00Z</time>
      </trkpt>
      <trkpt lat="39.0877890" lon="1.5500320">
        <ele>120.8</ele>
        <time>2020-02-23T13:41:01Z</time>
      </trkpt>
      <trkpt lat="39.0877870" lon="1.5500080">
        <ele>120.9</ele>
        <time>2020-02-23T13:41:02Z</time>
      </trkpt>
      <trkpt lat="39.0877830" lon="1.5499890">
        <ele>120.9</ele>
        <time>2020-02-23T13:41:03Z</time>
      </trkpt>
      <trkpt lat="39.0877620" lon="1.5499630">
        <ele>120.8</ele>
        <time>2020-02-23T13:41:04Z</time>
      </trkpt>
      <trkpt lat="39.0877540" lon="1.5499580">
        <ele>120.8</ele>
        <time>2020-02-23T13:41:05Z</time>
      </trkpt>
      <trkpt lat="39.0877450" lon="1.5499350">
        <ele>120.8</ele>
        <time>2020-02-23T13:41:06Z</time>
      </trkpt>
      <trkpt lat="39.0877320" lon="1.5499270">
        <ele>120.8</ele>
        <time>2020-02-23T13:41:07Z</time>
      </trkpt>
      <trkpt lat="39.0877170" lon="1.5499090">
        <ele>120.8</ele>
        <time>2020-02-23T13:41:08Z</time>
      </trkpt>
      <trkpt lat="39.0877110" lon="1.5499020">
        <ele>120.8</ele>
        <time>2020-02-23T13:41:09Z</time>
      </trkpt>
      <trkpt lat="39.0877040" lon="1.5498940">
        <ele>120.8</ele>
        <time>2020-02-23T13:41:10Z</time>
      </trkpt>
      <trkpt lat="39.0876930" lon="1.5498840">
        <ele>120.7</ele>
        <time>2020-02-23T13:41:11Z</time>
      </trkpt>
      <trkpt lat="39.0876760" lon="1.5498700">
        <ele>120.7</ele>
        <time>2020-02-23T13:41:12Z</time>
      </trkpt>
      <trkpt lat="39.0876410" lon="1.5498610">
        <ele>120.5</ele>
        <time>2020-02-23T13:41:13Z</time>
      </trkpt>
      <trkpt lat="39.0876270" lon="1.5498580">
        <ele>120.4</ele>
        <time>2020-02-23T13:41:14Z</time>
      </trkpt>
      <trkpt lat="39.0876020" lon="1.5498380">
        <ele>120.3</ele>
        <time>2020-02-23T13:41:15Z</time>
      </trkpt>
      <trkpt lat="39.0875760" lon="1.5498160">
        <ele>120.3</ele>
        <time>2020-02-23T13:41:16Z</time>
      </trkpt>
      <trkpt lat="39.0875400" lon="1.5497940">
        <ele>120.1</ele>
        <time>2020-02-23T13:41:17Z</time>
      </trkpt>
      <trkpt lat="39.0875270" lon="1.5497870">
        <ele>120.0</ele>
        <time>2020-02-23T13:41:18Z</time>
      </trkpt>
      <trkpt lat="39.0874930" lon="1.5497530">
        <ele>119.8</ele>
        <time>2020-02-23T13:41:19Z</time>
      </trkpt>
      <trkpt lat="39.0874800" lon="1.5497420">
        <ele>119.8</ele>
        <time>2020-02-23T13:41:20Z</time>
      </trkpt>
      <trkpt lat="39.0874490" lon="1.5497040">
        <ele>119.6</ele>
        <time>2020-02-23T13:41:21Z</time>
      </trkpt>
      <trkpt lat="39.0874340" lon="1.5496910">
        <ele>119.3</ele>
        <time>2020-02-23T13:41:22Z</time>
      </trkpt>
      <trkpt lat="39.0874080" lon="1.5496640">
        <ele>119.2</ele>
        <time>2020-02-23T13:41:23Z</time>
      </trkpt>
      <trkpt lat="39.0873690" lon="1.5496180">
        <ele>118.6</ele>
        <time>2020-02-23T13:41:24Z</time>
      </trkpt>
      <trkpt lat="39.0873390" lon="1.5495900">
        <ele>118.6</ele>
        <time>2020-02-23T13:41:25Z</time>
      </trkpt>
      <trkpt lat="39.0873110" lon="1.5495550">
        <ele>118.3</ele>
        <time>2020-02-23T13:41:26Z</time>
      </trkpt>
      <trkpt lat="39.0872910" lon="1.5495220">
        <ele>117.8</ele>
        <time>2020-02-23T13:41:27Z</time>
      </trkpt>
      <trkpt lat="39.0872750" lon="1.5494860">
        <ele>117.7</ele>
        <time>2020-02-23T13:41:28Z</time>
      </trkpt>
      <trkpt lat="39.0872600" lon="1.5494450">
        <ele>117.1</ele>
        <time>2020-02-23T13:41:29Z</time>
      </trkpt>
      <trkpt lat="39.0872460" lon="1.5494060">
        <ele>117.0</ele>
        <time>2020-02-23T13:41:30Z</time>
      </trkpt>
      <trkpt lat="39.0872350" lon="1.5493660">
        <ele>116.3</ele>
        <time>2020-02-23T13:41:31Z</time>
      </trkpt>
      <trkpt lat="39.0872280" lon="1.5493290">
        <ele>116.1</ele>
        <time>2020-02-23T13:41:32Z</time>
      </trkpt>
      <trkpt lat="39.0872350" lon="1.5492890">
        <ele>116.1</ele>
        <time>2020-02-23T13:41:33Z</time>
      </trkpt>
      <trkpt lat="39.0872410" lon="1.5492760">
        <ele>116.6</ele>
        <time>2020-02-23T13:41:34Z</time>
      </trkpt>
      <trkpt lat="39.0872590" lon="1.5492370">
        <ele>116.4</ele>
        <time>2020-02-23T13:41:35Z</time>
      </trkpt>
      <trkpt lat="39.0872650" lon="1.5492240">
        <ele>116.4</ele>
        <time>2020-02-23T13:41:36Z</time>
      </trkpt>
      <trkpt lat="39.0872880" lon="1.5491910">
        <ele>116.9</ele>
        <time>2020-02-23T13:41:37Z</time>
      </trkpt>
      <trkpt lat="39.0872990" lon="1.5491760">
        <ele>116.9</ele>
        <time>2020-02-23T13:41:38Z</time>
      </trkpt>
      <trkpt lat="39.0873260" lon="1.5491610">
        <ele>117.6</ele>
        <time>2020-02-23T13:41:39Z</time>
      </trkpt>
      <trkpt lat="39.0873590" lon="1.5491360">
        <ele>118.1</ele>
        <time>2020-02-23T13:41:40Z</time>
      </trkpt>
      <trkpt lat="39.0873730" lon="1.5491260">
        <ele>118.7</ele>
        <time>2020-02-23T13:41:41Z</time>
      </trkpt>
      <trkpt lat="39.0874050" lon="1.5491050">
        <ele>119.3</ele>
        <time>2020-02-23T13:41:42Z</time>
      </trkpt>
      <trkpt lat="39.0874150" lon="1.5491010">
        <ele>119.3</ele>
        <time>2020-02-23T13:41:43Z</time>
      </trkpt>
      <trkpt lat="39.0874430" lon="1.5490800">
        <ele>120.1</ele>
        <time>2020-02-23T13:41:44Z</time>
      </trkpt>
      <trkpt lat="39.0874510" lon="1.5490730">
        <ele>120.1</ele>
        <time>2020-02-23T13:41:45Z</time>
      </trkpt>
      <trkpt lat="39.0874750" lon="1.5490520">
        <ele>120.8</ele>
        <time>2020-02-23T13:41:46Z</time>
      </trkpt>
      <trkpt lat="39.0875010" lon="1.5490300">
        <ele>120.8</ele>
        <time>2020-02-23T13:41:47Z</time>
      </trkpt>
      <trkpt lat="39.0875240" lon="1.5490050">
        <ele>121.4</ele>
        <time>2020-02-23T13:41:48Z</time>
      </trkpt>
      <trkpt lat="39.0875410" lon="1.5489720">
        <ele>122.1</ele>
        <time>2020-02-23T13:41:49Z</time>
      </trkpt>
      <trkpt lat="39.0875530" lon="1.5489380">
        <ele>122.2</ele>
        <time>2020-02-23T13:41:50Z</time>
      </trkpt>
      <trkpt lat="39.0875410" lon="1.5488940">
        <ele>122.4</ele>
        <time>2020-02-23T13:41:51Z</time>
      </trkpt>
      <trkpt lat="39.0875330" lon="1.5488760">
        <ele>121.8</ele>
        <time>2020-02-23T13:41:52Z</time>
      </trkpt>
      <trkpt lat="39.0875070" lon="1.5488460">
        <ele>121.9</ele>
        <time>2020-02-23T13:41:53Z</time>
      </trkpt>
      <trkpt lat="39.0874930" lon="1.5488400">
        <ele>121.2</ele>
        <time>2020-02-23T13:41:54Z</time>
      </trkpt>
      <trkpt lat="39.0874560" lon="1.5488280">
        <ele>120.5</ele>
        <time>2020-02-23T13:41:55Z</time>
      </trkpt>
      <trkpt lat="39.0874230" lon="1.5488220">
        <ele>119.2</ele>
        <time>2020-02-23T13:41:56Z</time>
      </trkpt>
      <trkpt lat="39.0873890" lon="1.5488160">
        <ele>118.4</ele>
        <time>2020-02-23T13:41:57Z</time>
      </trkpt>
      <trkpt lat="39.0873580" lon="1.5488060">
        <ele>117.5</ele>
        <time>2020-02-23T13:41:58Z</time>
      </trkpt>
      <trkpt lat="39.0873230" lon="1.5488100">
        <ele>116.6</ele>
        <time>2020-02-23T13:41:59Z</time>
      </trkpt>
      <trkpt lat="39.0872890" lon="1.5488050">
        <ele>115.7</ele>
        <time>2020-02-23T13:42:00Z</time>
      </trkpt>
      <trkpt lat="39.0872510" lon="1.5488060">
        <ele>114.7</ele>
        <time>2020-02-23T13:42:01Z</time>
      </trkpt>
      <trkpt lat="39.0872200" lon="1.5488180">
        <ele>113.9</ele>
        <time>2020-02-23T13:42:02Z</time>
      </trkpt>
      <trkpt lat="39.0871850" lon="1.5488350">
        <ele>112.9</ele>
        <time>2020-02-23T13:42:03Z</time>
      </trkpt>
      <trkpt lat="39.0871710" lon="1.5488400">
        <ele>112.9</ele>
        <time>2020-02-23T13:42:04Z</time>
      </trkpt>
      <trkpt lat="39.0871480" lon="1.5488640">
        <ele>112.1</ele>
        <time>2020-02-23T13:42:05Z</time>
      </trkpt>
      <trkpt lat="39.0871330" lon="1.5488750">
        <ele>111.2</ele>
        <time>2020-02-23T13:42:06Z</time>
      </trkpt>
      <trkpt lat="39.0871180" lon="1.5488820">
        <ele>111.2</ele>
        <time>2020-02-23T13:42:07Z</time>
      </trkpt>
      <trkpt lat="39.0871080" lon="1.5488870">
        <ele>111.2</ele>
        <time>2020-02-23T13:42:08Z</time>
      </trkpt>
      <trkpt lat="39.0871130" lon="1.5489020">
        <ele>111.5</ele>
        <time>2020-02-23T13:42:09Z</time>
      </trkpt>
      <trkpt lat="39.0871030" lon="1.5488960">
        <ele>111.2</ele>
        <time>2020-02-23T13:42:10Z</time>
      </trkpt>
      <trkpt lat="39.0870870" lon="1.5488960">
        <ele>110.4</ele>
        <time>2020-02-23T13:42:11Z</time>
      </trkpt>
      <trkpt lat="39.0870510" lon="1.5489000">
        <ele>109.7</ele>
        <time>2020-02-23T13:42:12Z</time>
      </trkpt>
      <trkpt lat="39.0870390" lon="1.5489020">
        <ele>110.0</ele>
        <time>2020-02-23T13:42:13Z</time>
      </trkpt>
      <trkpt lat="39.0870280" lon="1.5489090">
        <ele>109.3</ele>
        <time>2020-02-23T13:42:14Z</time>
      </trkpt>
      <trkpt lat="39.0870140" lon="1.5489150">
        <ele>109.3</ele>
        <time>2020-02-23T13:42:15Z</time>
      </trkpt>
      <trkpt lat="39.0870100" lon="1.5489210">
        <ele>109.3</ele>
        <time>2020-02-23T13:42:16Z</time>
      </trkpt>
      <trkpt lat="39.0870060" lon="1.5489100">
        <ele>109.3</ele>
        <time>2020-02-23T13:42:17Z</time>
      </trkpt>
      <trkpt lat="39.0870050" lon="1.5489090">
        <ele>109.3</ele>
        <time>2020-02-23T13:42:18Z</time>
      </trkpt>
      <trkpt lat="39.0870050" lon="1.5489090">
        <ele>109.3</ele>
        <time>2020-02-23T13:42:19Z</time>
      </trkpt>
      <trkpt lat="39.0870010" lon="1.5489100">
        <ele>108.6</ele>
        <time>2020-02-23T13:42:20Z</time>
      </trkpt>
      <trkpt lat="39.0870000" lon="1.5489110">
        <ele>108.6</ele>
        <time>2020-02-23T13:42:21Z</time>
      </trkpt>
      <trkpt lat="39.0869990" lon="1.5489120">
        <ele>108.6</ele>
        <time>2020-02-23T13:42:22Z</time>
      </trkpt>
      <trkpt lat="39.0869980" lon="1.5489130">
        <ele>108.6</ele>
        <time>2020-02-23T13:42:23Z</time>
      </trkpt>
      <trkpt lat="39.0869970" lon="1.5489130">
        <ele>108.6</ele>
        <time>2020-02-23T13:42:24Z</time>
      </trkpt>
      <trkpt lat="39.0869980" lon="1.5489120">
        <ele>108.6</ele>
        <time>2020-02-23T13:42:25Z</time>
      </trkpt>
      <trkpt lat="39.0869770" lon="1.5488950">
        <ele>108.3</ele>
        <time>2020-02-23T13:42:35Z</time>
      </trkpt>
      <trkpt lat="39.0869620" lon="1.5488820">
        <ele>107.6</ele>
        <time>2020-02-23T13:42:36Z</time>
      </trkpt>
      <trkpt lat="39.0869310" lon="1.5488570">
        <ele>106.6</ele>
        <time>2020-02-23T13:42:37Z</time>
      </trkpt>
      <trkpt lat="39.0869190" lon="1.5488490">
        <ele>106.6</ele>
        <time>2020-02-23T13:42:38Z</time>
      </trkpt>
      <trkpt lat="39.0868930" lon="1.5488320">
        <ele>106.0</ele>
        <time>2020-02-23T13:42:39Z</time>
      </trkpt>
      <trkpt lat="39.0868470" lon="1.5488130">
        <ele>105.0</ele>
        <time>2020-02-23T13:42:40Z</time>
      </trkpt>
      <trkpt lat="39.0868250" lon="1.5488110">
        <ele>104.4</ele>
        <time>2020-02-23T13:42:41Z</time>
      </trkpt>
      <trkpt lat="39.0867950" lon="1.5487900">
        <ele>103.9</ele>
        <time>2020-02-23T13:42:42Z</time>
      </trkpt>
      <trkpt lat="39.0867850" lon="1.5487830">
        <ele>103.9</ele>
        <time>2020-02-23T13:42:43Z</time>
      </trkpt>
      <trkpt lat="39.0867570" lon="1.5487610">
        <ele>103.0</ele>
        <time>2020-02-23T13:42:44Z</time>
      </trkpt>
      <trkpt lat="39.0867470" lon="1.5487510">
        <ele>103.0</ele>
        <time>2020-02-23T13:42:45Z</time>
      </trkpt>
      <trkpt lat="39.0867250" lon="1.5487130">
        <ele>102.3</ele>
        <time>2020-02-23T13:42:46Z</time>
      </trkpt>
      <trkpt lat="39.0867200" lon="1.5486970">
        <ele>102.3</ele>
        <time>2020-02-23T13:42:47Z</time>
      </trkpt>
      <trkpt lat="39.0867080" lon="1.5486540">
        <ele>102.0</ele>
        <time>2020-02-23T13:42:48Z</time>
      </trkpt>
      <trkpt lat="39.0867060" lon="1.5486180">
        <ele>101.9</ele>
        <time>2020-02-23T13:42:49Z</time>
      </trkpt>
      <trkpt lat="39.0867050" lon="1.5485780">
        <ele>101.8</ele>
        <time>2020-02-23T13:42:50Z</time>
      </trkpt>
      <trkpt lat="39.0867000" lon="1.5485290">
        <ele>101.4</ele>
        <time>2020-02-23T13:42:51Z</time>
      </trkpt>
      <trkpt lat="39.0867010" lon="1.5484760">
        <ele>101.4</ele>
        <time>2020-02-23T13:42:52Z</time>
      </trkpt>
      <trkpt lat="39.0867040" lon="1.5484250">
        <ele>101.9</ele>
        <time>2020-02-23T13:42:53Z</time>
      </trkpt>
      <trkpt lat="39.0867100" lon="1.5483700">
        <ele>102.0</ele>
        <time>2020-02-23T13:42:54Z</time>
      </trkpt>
      <trkpt lat="39.0867140" lon="1.5483210">
        <ele>102.1</ele>
        <time>2020-02-23T13:42:55Z</time>
      </trkpt>
      <trkpt lat="39.0867220" lon="1.5482770">
        <ele>102.3</ele>
        <time>2020-02-23T13:42:56Z</time>
      </trkpt>
      <trkpt lat="39.0867350" lon="1.5482430">
        <ele>102.4</ele>
        <time>2020-02-23T13:42:57Z</time>
      </trkpt>
      <trkpt lat="39.0867570" lon="1.5482150">
        <ele>102.8</ele>
        <time>2020-02-23T13:42:58Z</time>
      </trkpt>
      <trkpt lat="39.0867770" lon="1.5481840">
        <ele>103.4</ele>
        <time>2020-02-23T13:42:59Z</time>
      </trkpt>
      <trkpt lat="39.0867790" lon="1.5481730">
        <ele>103.4</ele>
        <time>2020-02-23T13:43:00Z</time>
      </trkpt>
      <trkpt lat="39.0867900" lon="1.5481220">
        <ele>104.0</ele>
        <time>2020-02-23T13:43:01Z</time>
      </trkpt>
      <trkpt lat="39.0867940" lon="1.5481030">
        <ele>104.0</ele>
        <time>2020-02-23T13:43:02Z</time>
      </trkpt>
      <trkpt lat="39.0868070" lon="1.5480560">
        <ele>104.7</ele>
        <time>2020-02-23T13:43:03Z</time>
      </trkpt>
      <trkpt lat="39.0868100" lon="1.5480400">
        <ele>105.1</ele>
        <time>2020-02-23T13:43:04Z</time>
      </trkpt>
      <trkpt lat="39.0868260" lon="1.5479950">
        <ele>105.5</ele>
        <time>2020-02-23T13:43:05Z</time>
      </trkpt>
      <trkpt lat="39.0868300" lon="1.5479800">
        <ele>105.5</ele>
        <time>2020-02-23T13:43:06Z</time>
      </trkpt>
      <trkpt lat="39.0868450" lon="1.5479440">
        <ele>106.4</ele>
        <time>2020-02-23T13:43:07Z</time>
      </trkpt>
      <trkpt lat="39.0868510" lon="1.5479310">
        <ele>106.4</ele>
        <time>2020-02-23T13:43:08Z</time>
      </trkpt>
      <trkpt lat="39.0868700" lon="1.5478940">
        <ele>107.3</ele>
        <time>2020-02-23T13:43:09Z</time>
      </trkpt>
      <trkpt lat="39.0868920" lon="1.5478470">
        <ele>107.7</ele>
        <time>2020-02-23T13:43:10Z</time>
      </trkpt>
      <trkpt lat="39.0869380" lon="1.5477970">
        <ele>109.3</ele>
        <time>2020-02-23T13:43:11Z</time>
      </trkpt>
      <trkpt lat="39.0869700" lon="1.5477570">
        <ele>110.5</ele>
        <time>2020-02-23T13:43:12Z</time>
      </trkpt>
      <trkpt lat="39.0870090" lon="1.5477350">
        <ele>111.7</ele>
        <time>2020-02-23T13:43:13Z</time>
      </trkpt>
      <trkpt lat="39.0870510" lon="1.5477200">
        <ele>112.4</ele>
        <time>2020-02-23T13:43:14Z</time>
      </trkpt>
      <trkpt lat="39.0870710" lon="1.5476910">
        <ele>113.8</ele>
        <time>2020-02-23T13:43:15Z</time>
      </trkpt>
      <trkpt lat="39.0870710" lon="1.5476800">
        <ele>113.8</ele>
        <time>2020-02-23T13:43:16Z</time>
      </trkpt>
      <trkpt lat="39.0870730" lon="1.5476380">
        <ele>114.4</ele>
        <time>2020-02-23T13:43:17Z</time>
      </trkpt>
      <trkpt lat="39.0870720" lon="1.5476270">
        <ele>114.4</ele>
        <time>2020-02-23T13:43:18Z</time>
      </trkpt>
      <trkpt lat="39.0870690" lon="1.5475820">
        <ele>114.2</ele>
        <time>2020-02-23T13:43:19Z</time>
      </trkpt>
      <trkpt lat="39.0870640" lon="1.5475660">
        <ele>114.9</ele>
        <time>2020-02-23T13:43:20Z</time>
      </trkpt>
      <trkpt lat="39.0870560" lon="1.5475420">
        <ele>114.9</ele>
        <time>2020-02-23T13:43:21Z</time>
      </trkpt>
      <trkpt lat="39.0870570" lon="1.5475210">
        <ele>115.6</ele>
        <time>2020-02-23T13:43:22Z</time>
      </trkpt>
      <trkpt lat="39.0870430" lon="1.5474880">
        <ele>115.6</ele>
        <time>2020-02-23T13:43:23Z</time>
      </trkpt>
      <trkpt lat="39.0870410" lon="1.5474680">
        <ele>116.3</ele>
        <time>2020-02-23T13:43:24Z</time>
      </trkpt>
      <trkpt lat="39.0870340" lon="1.5474450">
        <ele>115.6</ele>
        <time>2020-02-23T13:43:25Z</time>
      </trkpt>
      <trkpt lat="39.0870270" lon="1.5474260">
        <ele>116.3</ele>
        <time>2020-02-23T13:43:26Z</time>
      </trkpt>
      <trkpt lat="39.0870200" lon="1.5474080">
        <ele>116.3</ele>
        <time>2020-02-23T13:43:27Z</time>
      </trkpt>
      <trkpt lat="39.0870040" lon="1.5473620">
        <ele>117.0</ele>
        <time>2020-02-23T13:43:28Z</time>
      </trkpt>
      <trkpt lat="39.0870000" lon="1.5473470">
        <ele>117.0</ele>
        <time>2020-02-23T13:43:29Z</time>
      </trkpt>
      <trkpt lat="39.0869970" lon="1.5473120">
        <ele>117.8</ele>
        <time>2020-02-23T13:43:30Z</time>
      </trkpt>
      <trkpt lat="39.0869880" lon="1.5472680">
        <ele>118.6</ele>
        <time>2020-02-23T13:43:31Z</time>
      </trkpt>
      <trkpt lat="39.0869840" lon="1.5472570">
        <ele>118.6</ele>
        <time>2020-02-23T13:43:32Z</time>
      </trkpt>
      <trkpt lat="39.0869720" lon="1.5472190">
        <ele>119.6</ele>
        <time>2020-02-23T13:43:33Z</time>
      </trkpt>
      <trkpt lat="39.0869700" lon="1.5472060">
        <ele>119.6</ele>
        <time>2020-02-23T13:43:34Z</time>
      </trkpt>
      <trkpt lat="39.0869550" lon="1.5471650">
        <ele>120.0</ele>
        <time>2020-02-23T13:43:35Z</time>
      </trkpt>
      <trkpt lat="39.0869510" lon="1.5471520">
        <ele>120.0</ele>
        <time>2020-02-23T13:43:36Z</time>
      </trkpt>
      <trkpt lat="39.0869410" lon="1.5471160">
        <ele>121.0</ele>
        <time>2020-02-23T13:43:37Z</time>
      </trkpt>
      <trkpt lat="39.0869370" lon="1.5471020">
        <ele>121.0</ele>
        <time>2020-02-23T13:43:38Z</time>
      </trkpt>
      <trkpt lat="39.0869430" lon="1.5470660">
        <ele>122.0</ele>
        <time>2020-02-23T13:43:39Z</time>
      </trkpt>
      <trkpt lat="39.0869450" lon="1.5470550">
        <ele>123.0</ele>
        <time>2020-02-23T13:43:40Z</time>
      </trkpt>
      <trkpt lat="39.0869510" lon="1.5470160">
        <ele>123.0</ele>
        <time>2020-02-23T13:43:41Z</time>
      </trkpt>
      <trkpt lat="39.0869510" lon="1.5470040">
        <ele>124.0</ele>
        <time>2020-02-23T13:43:42Z</time>
      </trkpt>
      <trkpt lat="39.0869410" lon="1.5469580">
        <ele>125.0</ele>
        <time>2020-02-23T13:43:43Z</time>
      </trkpt>
      <trkpt lat="39.0869380" lon="1.5469420">
        <ele>125.0</ele>
        <time>2020-02-23T13:43:44Z</time>
      </trkpt>
      <trkpt lat="39.0869280" lon="1.5469000">
        <ele>125.6</ele>
        <time>2020-02-23T13:43:45Z</time>
      </trkpt>
      <trkpt lat="39.0869250" lon="1.5468870">
        <ele>125.6</ele>
        <time>2020-02-23T13:43:46Z</time>
      </trkpt>
      <trkpt lat="39.0869230" lon="1.5468430">
        <ele>126.6</ele>
        <time>2020-02-23T13:43:47Z</time>
      </trkpt>
      <trkpt lat="39.0869230" lon="1.5468240">
        <ele>127.6</ele>
        <time>2020-02-23T13:43:48Z</time>
      </trkpt>
      <trkpt lat="39.0869230" lon="1.5467830">
        <ele>128.7</ele>
        <time>2020-02-23T13:43:49Z</time>
      </trkpt>
      <trkpt lat="39.0869210" lon="1.5467490">
        <ele>129.8</ele>
        <time>2020-02-23T13:43:50Z</time>
      </trkpt>
      <trkpt lat="39.0869230" lon="1.5467320">
        <ele>129.8</ele>
        <time>2020-02-23T13:43:51Z</time>
      </trkpt>
      <trkpt lat="39.0869210" lon="1.5467240">
        <ele>129.8</ele>
        <time>2020-02-23T13:43:52Z</time>
      </trkpt>
      <trkpt lat="39.0869160" lon="1.5467110">
        <ele>131.0</ele>
        <time>2020-02-23T13:43:53Z</time>
      </trkpt>
      <trkpt lat="39.0869100" lon="1.5466950">
        <ele>131.0</ele>
        <time>2020-02-23T13:43:54Z</time>
      </trkpt>
      <trkpt lat="39.0869010" lon="1.5466790">
        <ele>130.7</ele>
        <time>2020-02-23T13:43:55Z</time>
      </trkpt>
      <trkpt lat="39.0868940" lon="1.5466590">
        <ele>131.8</ele>
        <time>2020-02-23T13:43:56Z</time>
      </trkpt>
      <trkpt lat="39.0868800" lon="1.5466400">
        <ele>131.8</ele>
        <time>2020-02-23T13:43:57Z</time>
      </trkpt>
      <trkpt lat="39.0868520" lon="1.5466240">
        <ele>132.7</ele>
        <time>2020-02-23T13:43:58Z</time>
      </trkpt>
      <trkpt lat="39.0868410" lon="1.5466070">
        <ele>132.7</ele>
        <time>2020-02-23T13:43:59Z</time>
      </trkpt>
      <trkpt lat="39.0868320" lon="1.5465980">
        <ele>132.5</ele>
        <time>2020-02-23T13:44:00Z</time>
      </trkpt>
      <trkpt lat="39.0868200" lon="1.5465610">
        <ele>133.6</ele>
        <time>2020-02-23T13:44:01Z</time>
      </trkpt>
      <trkpt lat="39.0868190" lon="1.5465480">
        <ele>133.6</ele>
        <time>2020-02-23T13:44:02Z</time>
      </trkpt>
      <trkpt lat="39.0868110" lon="1.5465280">
        <ele>134.6</ele>
        <time>2020-02-23T13:44:03Z</time>
      </trkpt>
      <trkpt lat="39.0868080" lon="1.5465040">
        <ele>134.6</ele>
        <time>2020-02-23T13:44:04Z</time>
      </trkpt>
      <trkpt lat="39.0867960" lon="1.5464690">
        <ele>135.4</ele>
        <time>2020-02-23T13:44:05Z</time>
      </trkpt>
      <trkpt lat="39.0867910" lon="1.5464600">
        <ele>135.4</ele>
        <time>2020-02-23T13:44:06Z</time>
      </trkpt>
      <trkpt lat="39.0867870" lon="1.5464400">
        <ele>136.3</ele>
        <time>2020-02-23T13:44:07Z</time>
      </trkpt>
      <trkpt lat="39.0867890" lon="1.5464170">
        <ele>136.3</ele>
        <time>2020-02-23T13:44:08Z</time>
      </trkpt>
      <trkpt lat="39.0867980" lon="1.5464000">
        <ele>137.2</ele>
        <time>2020-02-23T13:44:09Z</time>
      </trkpt>
      <trkpt lat="39.0868040" lon="1.5463770">
        <ele>137.3</ele>
        <time>2020-02-23T13:44:10Z</time>
      </trkpt>
      <trkpt lat="39.0868080" lon="1.5463370">
        <ele>138.1</ele>
        <time>2020-02-23T13:44:11Z</time>
      </trkpt>
      <trkpt lat="39.0868080" lon="1.5463240">
        <ele>138.9</ele>
        <time>2020-02-23T13:44:12Z</time>
      </trkpt>
      <trkpt lat="39.0868120" lon="1.5462890">
        <ele>138.9</ele>
        <time>2020-02-23T13:44:13Z</time>
      </trkpt>
      <trkpt lat="39.0868130" lon="1.5462760">
        <ele>139.7</ele>
        <time>2020-02-23T13:44:14Z</time>
      </trkpt>
      <trkpt lat="39.0868150" lon="1.5462580">
        <ele>139.7</ele>
        <time>2020-02-23T13:44:15Z</time>
      </trkpt>
      <trkpt lat="39.0868210" lon="1.5462410">
        <ele>139.7</ele>
        <time>2020-02-23T13:44:16Z</time>
      </trkpt>
      <trkpt lat="39.0868220" lon="1.5462140">
        <ele>140.3</ele>
        <time>2020-02-23T13:44:17Z</time>
      </trkpt>
      <trkpt lat="39.0868190" lon="1.5462040">
        <ele>140.3</ele>
        <time>2020-02-23T13:44:18Z</time>
      </trkpt>
      <trkpt lat="39.0868150" lon="1.5461950">
        <ele>140.9</ele>
        <time>2020-02-23T13:44:19Z</time>
      </trkpt>
      <trkpt lat="39.0868200" lon="1.5461580">
        <ele>140.9</ele>
        <time>2020-02-23T13:44:20Z</time>
      </trkpt>
      <trkpt lat="39.0868230" lon="1.5461450">
        <ele>141.4</ele>
        <time>2020-02-23T13:44:21Z</time>
      </trkpt>
      <trkpt lat="39.0868200" lon="1.5461220">
        <ele>141.4</ele>
        <time>2020-02-23T13:44:22Z</time>
      </trkpt>
      <trkpt lat="39.0868230" lon="1.5461020">
        <ele>141.8</ele>
        <time>2020-02-23T13:44:23Z</time>
      </trkpt>
      <trkpt lat="39.0868180" lon="1.5460800">
        <ele>141.8</ele>
        <time>2020-02-23T13:44:24Z</time>
      </trkpt>
      <trkpt lat="39.0868160" lon="1.5460600">
        <ele>142.2</ele>
        <time>2020-02-23T13:44:25Z</time>
      </trkpt>
      <trkpt lat="39.0868190" lon="1.5460320">
        <ele>142.2</ele>
        <time>2020-02-23T13:44:26Z</time>
      </trkpt>
      <trkpt lat="39.0868250" lon="1.5460160">
        <ele>142.6</ele>
        <time>2020-02-23T13:44:27Z</time>
      </trkpt>
      <trkpt lat="39.0868190" lon="1.5459920">
        <ele>142.6</ele>
        <time>2020-02-23T13:44:28Z</time>
      </trkpt>
      <trkpt lat="39.0868150" lon="1.5459840">
        <ele>142.6</ele>
        <time>2020-02-23T13:44:29Z</time>
      </trkpt>
      <trkpt lat="39.0868100" lon="1.5459750">
        <ele>142.9</ele>
        <time>2020-02-23T13:44:30Z</time>
      </trkpt>
      <trkpt lat="39.0868050" lon="1.5459670">
        <ele>142.9</ele>
        <time>2020-02-23T13:44:31Z</time>
      </trkpt>
      <trkpt lat="39.0868010" lon="1.5459580">
        <ele>142.8</ele>
        <time>2020-02-23T13:44:32Z</time>
      </trkpt>
      <trkpt lat="39.0867960" lon="1.5459500">
        <ele>142.8</ele>
        <time>2020-02-23T13:44:33Z</time>
      </trkpt>
      <trkpt lat="39.0867910" lon="1.5459410">
        <ele>142.8</ele>
        <time>2020-02-23T13:44:34Z</time>
      </trkpt>
      <trkpt lat="39.0867860" lon="1.5459330">
        <ele>143.0</ele>
        <time>2020-02-23T13:44:35Z</time>
      </trkpt>
      <trkpt lat="39.0867820" lon="1.5459240">
        <ele>143.0</ele>
        <time>2020-02-23T13:44:36Z</time>
      </trkpt>
      <trkpt lat="39.0867770" lon="1.5459160">
        <ele>143.0</ele>
        <time>2020-02-23T13:44:37Z</time>
      </trkpt>
      <trkpt lat="39.0867720" lon="1.5459070">
        <ele>143.0</ele>
        <time>2020-02-23T13:44:38Z</time>
      </trkpt>
      <trkpt lat="39.0867680" lon="1.5458990">
        <ele>143.0</ele>
        <time>2020-02-23T13:45:47Z</time>
      </trkpt>
      <trkpt lat="39.0867630" lon="1.5458900">
        <ele>143.3</ele>
        <time>2020-02-23T13:45:48Z</time>
      </trkpt>
      <trkpt lat="39.0867460" lon="1.5458480">
        <ele>143.5</ele>
        <time>2020-02-23T13:45:49Z</time>
      </trkpt>
      <trkpt lat="39.0867320" lon="1.5458000">
        <ele>143.7</ele>
        <time>2020-02-23T13:45:50Z</time>
      </trkpt>
      <trkpt lat="39.0867190" lon="1.5457510">
        <ele>143.8</ele>
        <time>2020-02-23T13:45:51Z</time>
      </trkpt>
      <trkpt lat="39.0867170" lon="1.5457060">
        <ele>143.9</ele>
        <time>2020-02-23T13:45:52Z</time>
      </trkpt>
      <trkpt lat="39.0867180" lon="1.5456670">
        <ele>143.9</ele>
        <time>2020-02-23T13:45:53Z</time>
      </trkpt>
      <trkpt lat="39.0867210" lon="1.5456420">
        <ele>143.9</ele>
        <time>2020-02-23T13:45:54Z</time>
      </trkpt>
      <trkpt lat="39.0867240" lon="1.5456220">
        <ele>143.8</ele>
        <time>2020-02-23T13:45:55Z</time>
      </trkpt>
      <trkpt lat="39.0867100" lon="1.5455910">
        <ele>143.7</ele>
        <time>2020-02-23T13:45:56Z</time>
      </trkpt>
      <trkpt lat="39.0867030" lon="1.5455770">
        <ele>143.7</ele>
        <time>2020-02-23T13:45:57Z</time>
      </trkpt>
      <trkpt lat="39.0866970" lon="1.5455320">
        <ele>143.6</ele>
        <time>2020-02-23T13:45:58Z</time>
      </trkpt>
      <trkpt lat="39.0866990" lon="1.5454840">
        <ele>143.4</ele>
        <time>2020-02-23T13:45:59Z</time>
      </trkpt>
      <trkpt lat="39.0867010" lon="1.5454690">
        <ele>143.4</ele>
        <time>2020-02-23T13:46:00Z</time>
      </trkpt>
      <trkpt lat="39.0867110" lon="1.5454510">
        <ele>143.2</ele>
        <time>2020-02-23T13:46:01Z</time>
      </trkpt>
      <trkpt lat="39.0867130" lon="1.5454250">
        <ele>143.2</ele>
        <time>2020-02-23T13:46:02Z</time>
      </trkpt>
      <trkpt lat="39.0867160" lon="1.5453810">
        <ele>142.6</ele>
        <time>2020-02-23T13:46:03Z</time>
      </trkpt>
      <trkpt lat="39.0867160" lon="1.5453630">
        <ele>142.6</ele>
        <time>2020-02-23T13:46:04Z</time>
      </trkpt>
      <trkpt lat="39.0867080" lon="1.5453200">
        <ele>142.2</ele>
        <time>2020-02-23T13:46:05Z</time>
      </trkpt>
      <trkpt lat="39.0867040" lon="1.5453070">
        <ele>142.2</ele>
        <time>2020-02-23T13:46:06Z</time>
      </trkpt>
      <trkpt lat="39.0866930" lon="1.5452720">
        <ele>142.0</ele>
        <time>2020-02-23T13:46:07Z</time>
      </trkpt>
      <trkpt lat="39.0866890" lon="1.5452590">
        <ele>142.0</ele>
        <time>2020-02-23T13:46:08Z</time>
      </trkpt>
      <trkpt lat="39.0866790" lon="1.5452180">
        <ele>141.6</ele>
        <time>2020-02-23T13:46:09Z</time>
      </trkpt>
      <trkpt lat="39.0866780" lon="1.5452090">
        <ele>141.3</ele>
        <time>2020-02-23T13:46:10Z</time>
      </trkpt>
      <trkpt lat="39.0866750" lon="1.5451900">
        <ele>141.3</ele>
        <time>2020-02-23T13:46:11Z</time>
      </trkpt>
      <trkpt lat="39.0866740" lon="1.5451720">
        <ele>141.3</ele>
        <time>2020-02-23T13:46:12Z</time>
      </trkpt>
      <trkpt lat="39.0866750" lon="1.5451310">
        <ele>140.9</ele>
        <time>2020-02-23T13:46:13Z</time>
      </trkpt>
      <trkpt lat="39.0866770" lon="1.5451180">
        <ele>140.6</ele>
        <time>2020-02-23T13:46:14Z</time>
      </trkpt>
      <trkpt lat="39.0866800" lon="1.5450980">
        <ele>140.6</ele>
        <time>2020-02-23T13:46:15Z</time>
      </trkpt>
      <trkpt lat="39.0866740" lon="1.5450800">
        <ele>140.3</ele>
        <time>2020-02-23T13:46:16Z</time>
      </trkpt>
      <trkpt lat="39.0866670" lon="1.5450630">
        <ele>140.6</ele>
        <time>2020-02-23T13:46:17Z</time>
      </trkpt>
      <trkpt lat="39.0866710" lon="1.5450550">
        <ele>140.3</ele>
        <time>2020-02-23T13:46:18Z</time>
      </trkpt>
      <trkpt lat="39.0866780" lon="1.5450500">
        <ele>140.3</ele>
        <time>2020-02-23T13:46:19Z</time>
      </trkpt>
      <trkpt lat="39.0866830" lon="1.5450460">
        <ele>140.3</ele>
        <time>2020-02-23T13:46:20Z</time>
      </trkpt>
      <trkpt lat="39.0866790" lon="1.5450370">
        <ele>140.0</ele>
        <time>2020-02-23T13:46:21Z</time>
      </trkpt>
      <trkpt lat="39.0866800" lon="1.5450300">
        <ele>140.0</ele>
        <time>2020-02-23T13:46:22Z</time>
      </trkpt>
      <trkpt lat="39.0866770" lon="1.5450220">
        <ele>140.0</ele>
        <time>2020-02-23T13:46:23Z</time>
      </trkpt>
      <trkpt lat="39.0866830" lon="1.5450110">
        <ele>140.0</ele>
        <time>2020-02-23T13:46:24Z</time>
      </trkpt>
      <trkpt lat="39.0866830" lon="1.5450080">
        <ele>140.0</ele>
        <time>2020-02-23T13:46:25Z</time>
      </trkpt>
      <trkpt lat="39.0866820" lon="1.5449960">
        <ele>140.0</ele>
        <time>2020-02-23T13:46:26Z</time>
      </trkpt>
      <trkpt lat="39.0866840" lon="1.5449830">
        <ele>139.7</ele>
        <time>2020-02-23T13:46:27Z</time>
      </trkpt>
      <trkpt lat="39.0866910" lon="1.5449690">
        <ele>139.7</ele>
        <time>2020-02-23T13:46:28Z</time>
      </trkpt>
      <trkpt lat="39.0867080" lon="1.5449590">
        <ele>139.4</ele>
        <time>2020-02-23T13:46:29Z</time>
      </trkpt>
      <trkpt lat="39.0867230" lon="1.5449480">
        <ele>139.0</ele>
        <time>2020-02-23T13:46:30Z</time>
      </trkpt>
      <trkpt lat="39.0867390" lon="1.5449250">
        <ele>138.7</ele>
        <time>2020-02-23T13:46:31Z</time>
      </trkpt>
      <trkpt lat="39.0867440" lon="1.5449180">
        <ele>138.7</ele>
        <time>2020-02-23T13:46:32Z</time>
      </trkpt>
      <trkpt lat="39.0867500" lon="1.5449110">
        <ele>138.7</ele>
        <time>2020-02-23T13:46:33Z</time>
      </trkpt>
      <trkpt lat="39.0867600" lon="1.5448980">
        <ele>138.3</ele>
        <time>2020-02-23T13:46:34Z</time>
      </trkpt>
      <trkpt lat="39.0867690" lon="1.5448780">
        <ele>138.3</ele>
        <time>2020-02-23T13:46:35Z</time>
      </trkpt>
      <trkpt lat="39.0867890" lon="1.5448710">
        <ele>138.1</ele>
        <time>2020-02-23T13:46:36Z</time>
      </trkpt>
      <trkpt lat="39.0867980" lon="1.5448660">
        <ele>137.6</ele>
        <time>2020-02-23T13:46:37Z</time>
      </trkpt>
      <trkpt lat="39.0868060" lon="1.5448620">
        <ele>137.4</ele>
        <time>2020-02-23T13:46:38Z</time>
      </trkpt>
      <trkpt lat="39.0868110" lon="1.5448520">
        <ele>137.4</ele>
        <time>2020-02-23T13:46:39Z</time>
      </trkpt>
      <trkpt lat="39.0868270" lon="1.5448370">
        <ele>137.4</ele>
        <time>2020-02-23T13:46:40Z</time>
      </trkpt>
      <trkpt lat="39.0868430" lon="1.5448360">
        <ele>137.3</ele>
        <time>2020-02-23T13:46:41Z</time>
      </trkpt>
      <trkpt lat="39.0868470" lon="1.5448360">
        <ele>137.3</ele>
        <time>2020-02-23T13:46:42Z</time>
      </trkpt>
      <trkpt lat="39.0868460" lon="1.5448350">
        <ele>137.3</ele>
        <time>2020-02-23T13:46:43Z</time>
      </trkpt>
      <trkpt lat="39.0868540" lon="1.5448360">
        <ele>137.3</ele>
        <time>2020-02-23T13:46:44Z</time>
      </trkpt>
      <trkpt lat="39.0868680" lon="1.5448320">
        <ele>137.3</ele>
        <time>2020-02-23T13:46:45Z</time>
      </trkpt>
      <trkpt lat="39.0868770" lon="1.5448310">
        <ele>137.3</ele>
        <time>2020-02-23T13:46:46Z</time>
      </trkpt>
      <trkpt lat="39.0868850" lon="1.5448290">
        <ele>137.3</ele>
        <time>2020-02-23T13:46:47Z</time>
      </trkpt>
      <trkpt lat="39.0868930" lon="1.5448280">
        <ele>137.3</ele>
        <time>2020-02-23T13:46:48Z</time>
      </trkpt>
      <trkpt lat="39.0868980" lon="1.5448250">
        <ele>137.3</ele>
        <time>2020-02-23T13:46:49Z</time>
      </trkpt>
      <trkpt lat="39.0869020" lon="1.5448120">
        <ele>136.8</ele>
        <time>2020-02-23T13:46:50Z</time>
      </trkpt>
      <trkpt lat="39.0869080" lon="1.5447970">
        <ele>136.9</ele>
        <time>2020-02-23T13:46:51Z</time>
      </trkpt>
      <trkpt lat="39.0869180" lon="1.5447820">
        <ele>136.9</ele>
        <time>2020-02-23T13:46:52Z</time>
      </trkpt>
      <trkpt lat="39.0869250" lon="1.5447780">
        <ele>136.5</ele>
        <time>2020-02-23T13:46:53Z</time>
      </trkpt>
      <trkpt lat="39.0869340" lon="1.5447770">
        <ele>136.5</ele>
        <time>2020-02-23T13:46:54Z</time>
      </trkpt>
      <trkpt lat="39.0869560" lon="1.5447750">
        <ele>136.7</ele>
        <time>2020-02-23T13:46:55Z</time>
      </trkpt>
      <trkpt lat="39.0869660" lon="1.5447730">
        <ele>136.7</ele>
        <time>2020-02-23T13:46:56Z</time>
      </trkpt>
      <trkpt lat="39.0869750" lon="1.5447720">
        <ele>137.0</ele>
        <time>2020-02-23T13:46:57Z</time>
      </trkpt>
      <trkpt lat="39.0869980" lon="1.5447530">
        <ele>137.0</ele>
        <time>2020-02-23T13:46:58Z</time>
      </trkpt>
      <trkpt lat="39.0870080" lon="1.5447470">
        <ele>137.3</ele>
        <time>2020-02-23T13:46:59Z</time>
      </trkpt>
      <trkpt lat="39.0870160" lon="1.5447430">
        <ele>137.3</ele>
        <time>2020-02-23T13:47:00Z</time>
      </trkpt>
      <trkpt lat="39.0870190" lon="1.5447410">
        <ele>137.3</ele>
        <time>2020-02-23T13:47:01Z</time>
      </trkpt>
      <trkpt lat="39.0870290" lon="1.5447320">
        <ele>137.0</ele>
        <time>2020-02-23T13:47:02Z</time>
      </trkpt>
      <trkpt lat="39.0870390" lon="1.5447250">
        <ele>137.5</ele>
        <time>2020-02-23T13:47:03Z</time>
      </trkpt>
      <trkpt lat="39.0870450" lon="1.5447180">
        <ele>137.5</ele>
        <time>2020-02-23T13:47:04Z</time>
      </trkpt>
      <trkpt lat="39.0870510" lon="1.5447030">
        <ele>137.5</ele>
        <time>2020-02-23T13:47:05Z</time>
      </trkpt>
      <trkpt lat="39.0870550" lon="1.5446860">
        <ele>137.2</ele>
        <time>2020-02-23T13:47:06Z</time>
      </trkpt>
      <trkpt lat="39.0870520" lon="1.5446770">
        <ele>137.2</ele>
        <time>2020-02-23T13:47:07Z</time>
      </trkpt>
      <trkpt lat="39.0870520" lon="1.5446620">
        <ele>137.2</ele>
        <time>2020-02-23T13:47:08Z</time>
      </trkpt>
      <trkpt lat="39.0870560" lon="1.5446440">
        <ele>136.9</ele>
        <time>2020-02-23T13:47:09Z</time>
      </trkpt>
      <trkpt lat="39.0870740" lon="1.5446130">
        <ele>137.5</ele>
        <time>2020-02-23T13:47:10Z</time>
      </trkpt>
      <trkpt lat="39.0870790" lon="1.5446030">
        <ele>137.3</ele>
        <time>2020-02-23T13:47:11Z</time>
      </trkpt>
      <trkpt lat="39.0870920" lon="1.5445830">
        <ele>137.3</ele>
        <time>2020-02-23T13:47:12Z</time>
      </trkpt>
      <trkpt lat="39.0870910" lon="1.5445680">
        <ele>137.3</ele>
        <time>2020-02-23T13:47:13Z</time>
      </trkpt>
      <trkpt lat="39.0871110" lon="1.5445320">
        <ele>137.8</ele>
        <time>2020-02-23T13:47:14Z</time>
      </trkpt>
      <trkpt lat="39.0871130" lon="1.5445190">
        <ele>137.6</ele>
        <time>2020-02-23T13:47:15Z</time>
      </trkpt>
      <trkpt lat="39.0871110" lon="1.5444770">
        <ele>137.4</ele>
        <time>2020-02-23T13:47:16Z</time>
      </trkpt>
      <trkpt lat="39.0871100" lon="1.5444610">
        <ele>137.4</ele>
        <time>2020-02-23T13:47:17Z</time>
      </trkpt>
      <trkpt lat="39.0871180" lon="1.5444230">
        <ele>137.2</ele>
        <time>2020-02-23T13:47:18Z</time>
      </trkpt>
      <trkpt lat="39.0871250" lon="1.5443940">
        <ele>137.1</ele>
        <time>2020-02-23T13:47:19Z</time>
      </trkpt>
      <trkpt lat="39.0871290" lon="1.5443800">
        <ele>137.1</ele>
        <time>2020-02-23T13:47:20Z</time>
      </trkpt>
      <trkpt lat="39.0871380" lon="1.5443420">
        <ele>138.0</ele>
        <time>2020-02-23T13:47:21Z</time>
      </trkpt>
      <trkpt lat="39.0871370" lon="1.5443280">
        <ele>138.0</ele>
        <time>2020-02-23T13:47:22Z</time>
      </trkpt>
      <trkpt lat="39.0871240" lon="1.5442910">
        <ele>136.9</ele>
        <time>2020-02-23T13:47:23Z</time>
      </trkpt>
      <trkpt lat="39.0871150" lon="1.5442810">
        <ele>136.9</ele>
        <time>2020-02-23T13:47:24Z</time>
      </trkpt>
      <trkpt lat="39.0870920" lon="1.5442500">
        <ele>136.1</ele>
        <time>2020-02-23T13:47:25Z</time>
      </trkpt>
      <trkpt lat="39.0870800" lon="1.5442400">
        <ele>136.1</ele>
        <time>2020-02-23T13:47:26Z</time>
      </trkpt>
      <trkpt lat="39.0870650" lon="1.5442300">
        <ele>135.4</ele>
        <time>2020-02-23T13:47:27Z</time>
      </trkpt>
      <trkpt lat="39.0870580" lon="1.5442050">
        <ele>135.4</ele>
        <time>2020-02-23T13:47:28Z</time>
      </trkpt>
      <trkpt lat="39.0870600" lon="1.5441940">
        <ele>135.4</ele>
        <time>2020-02-23T13:47:29Z</time>
      </trkpt>
      <trkpt lat="39.0870610" lon="1.5441820">
        <ele>135.4</ele>
        <time>2020-02-23T13:47:30Z</time>
      </trkpt>
      <trkpt lat="39.0870510" lon="1.5441440">
        <ele>135.5</ele>
        <time>2020-02-23T13:47:31Z</time>
      </trkpt>
      <trkpt lat="39.0870460" lon="1.5441290">
        <ele>135.6</ele>
        <time>2020-02-23T13:47:32Z</time>
      </trkpt>
      <trkpt lat="39.0870240" lon="1.5440890">
        <ele>135.1</ele>
        <time>2020-02-23T13:47:33Z</time>
      </trkpt>
      <trkpt lat="39.0870150" lon="1.5440750">
        <ele>135.1</ele>
        <time>2020-02-23T13:47:34Z</time>
      </trkpt>
      <trkpt lat="39.0869980" lon="1.5440430">
        <ele>134.8</ele>
        <time>2020-02-23T13:47:35Z</time>
      </trkpt>
      <trkpt lat="39.0869910" lon="1.5440340">
        <ele>134.8</ele>
        <time>2020-02-23T13:47:36Z</time>
      </trkpt>
      <trkpt lat="39.0869820" lon="1.5440190">
        <ele>134.8</ele>
        <time>2020-02-23T13:47:37Z</time>
      </trkpt>
      <trkpt lat="39.0869680" lon="1.5440000">
        <ele>134.6</ele>
        <time>2020-02-23T13:47:38Z</time>
      </trkpt>
      <trkpt lat="39.0869400" lon="1.5439720">
        <ele>134.6</ele>
        <time>2020-02-23T13:47:39Z</time>
      </trkpt>
      <trkpt lat="39.0869300" lon="1.5439640">
        <ele>134.5</ele>
        <time>2020-02-23T13:47:40Z</time>
      </trkpt>
      <trkpt lat="39.0869160" lon="1.5439540">
        <ele>134.5</ele>
        <time>2020-02-23T13:47:41Z</time>
      </trkpt>
      <trkpt lat="39.0869030" lon="1.5439340">
        <ele>134.4</ele>
        <time>2020-02-23T13:47:42Z</time>
      </trkpt>
      <trkpt lat="39.0868870" lon="1.5439010">
        <ele>134.5</ele>
        <time>2020-02-23T13:47:43Z</time>
      </trkpt>
      <trkpt lat="39.0868810" lon="1.5438890">
        <ele>134.5</ele>
        <time>2020-02-23T13:47:44Z</time>
      </trkpt>
      <trkpt lat="39.0868650" lon="1.5438800">
        <ele>134.5</ele>
        <time>2020-02-23T13:47:45Z</time>
      </trkpt>
      <trkpt lat="39.0868540" lon="1.5438640">
        <ele>134.6</ele>
        <time>2020-02-23T13:47:46Z</time>
      </trkpt>
      <trkpt lat="39.0868340" lon="1.5438400">
        <ele>134.6</ele>
        <time>2020-02-23T13:47:47Z</time>
      </trkpt>
      <trkpt lat="39.0868140" lon="1.5438310">
        <ele>134.7</ele>
        <time>2020-02-23T13:47:48Z</time>
      </trkpt>
      <trkpt lat="39.0868080" lon="1.5438250">
        <ele>134.7</ele>
        <time>2020-02-23T13:47:49Z</time>
      </trkpt>
      <trkpt lat="39.0867970" lon="1.5438220">
        <ele>134.7</ele>
        <time>2020-02-23T13:47:50Z</time>
      </trkpt>
      <trkpt lat="39.0867970" lon="1.5438170">
        <ele>134.7</ele>
        <time>2020-02-23T13:47:51Z</time>
      </trkpt>
      <trkpt lat="39.0867960" lon="1.5438120">
        <ele>134.7</ele>
        <time>2020-02-23T13:47:52Z</time>
      </trkpt>
      <trkpt lat="39.0867950" lon="1.5438070">
        <ele>134.7</ele>
        <time>2020-02-23T13:47:53Z</time>
      </trkpt>
      <trkpt lat="39.0867950" lon="1.5438020">
        <ele>134.7</ele>
        <time>2020-02-23T13:47:54Z</time>
      </trkpt>
      <trkpt lat="39.0867940" lon="1.5437970">
        <ele>134.7</ele>
        <time>2020-02-23T13:47:55Z</time>
      </trkpt>
      <trkpt lat="39.0867930" lon="1.5437920">
        <ele>134.8</ele>
        <time>2020-02-23T13:47:56Z</time>
      </trkpt>
      <trkpt lat="39.0867930" lon="1.5437870">
        <ele>134.8</ele>
        <time>2020-02-23T13:47:57Z</time>
      </trkpt>
      <trkpt lat="39.0867920" lon="1.5437820">
        <ele>134.8</ele>
        <time>2020-02-23T13:47:58Z</time>
      </trkpt>
      <trkpt lat="39.0867900" lon="1.5437550">
        <ele>134.8</ele>
        <time>2020-02-23T13:47:59Z</time>
      </trkpt>
      <trkpt lat="39.0867830" lon="1.5437440">
        <ele>135.0</ele>
        <time>2020-02-23T13:48:00Z</time>
      </trkpt>
      <trkpt lat="39.0867770" lon="1.5437330">
        <ele>135.0</ele>
        <time>2020-02-23T13:48:01Z</time>
      </trkpt>
      <trkpt lat="39.0867710" lon="1.5437100">
        <ele>135.0</ele>
        <time>2020-02-23T13:48:02Z</time>
      </trkpt>
      <trkpt lat="39.0867630" lon="1.5437010">
        <ele>135.1</ele>
        <time>2020-02-23T13:48:03Z</time>
      </trkpt>
      <trkpt lat="39.0867550" lon="1.5436930">
        <ele>135.1</ele>
        <time>2020-02-23T13:48:04Z</time>
      </trkpt>
      <trkpt lat="39.0867440" lon="1.5436830">
        <ele>135.1</ele>
        <time>2020-02-23T13:48:05Z</time>
      </trkpt>
      <trkpt lat="39.0867400" lon="1.5436770">
        <ele>135.1</ele>
        <time>2020-02-23T13:48:06Z</time>
      </trkpt>
      <trkpt lat="39.0867360" lon="1.5436720">
        <ele>135.3</ele>
        <time>2020-02-23T13:48:07Z</time>
      </trkpt>
      <trkpt lat="39.0867320" lon="1.5436660">
        <ele>135.3</ele>
        <time>2020-02-23T13:48:08Z</time>
      </trkpt>
      <trkpt lat="39.0867280" lon="1.5436600">
        <ele>135.4</ele>
        <time>2020-02-23T13:48:09Z</time>
      </trkpt>
      <trkpt lat="39.0867250" lon="1.5436540">
        <ele>135.4</ele>
        <time>2020-02-23T13:48:10Z</time>
      </trkpt>
      <trkpt lat="39.0867210" lon="1.5436490">
        <ele>135.4</ele>
        <time>2020-02-23T13:48:11Z</time>
      </trkpt>
      <trkpt lat="39.0867170" lon="1.5436430">
        <ele>135.4</ele>
        <time>2020-02-23T13:48:12Z</time>
      </trkpt>
      <trkpt lat="39.0867130" lon="1.5436370">
        <ele>135.4</ele>
        <time>2020-02-23T13:48:13Z</time>
      </trkpt>
      <trkpt lat="39.0867090" lon="1.5436310">
        <ele>135.4</ele>
        <time>2020-02-23T13:48:14Z</time>
      </trkpt>
      <trkpt lat="39.0867050" lon="1.5436260">
        <ele>135.4</ele>
        <time>2020-02-23T13:48:21Z</time>
      </trkpt>
      <trkpt lat="39.0867010" lon="1.5436200">
        <ele>135.9</ele>
        <time>2020-02-23T13:48:22Z</time>
      </trkpt>
      <trkpt lat="39.0867010" lon="1.5435970">
        <ele>135.9</ele>
        <time>2020-02-23T13:48:23Z</time>
      </trkpt>
      <trkpt lat="39.0866940" lon="1.5435840">
        <ele>135.9</ele>
        <time>2020-02-23T13:48:24Z</time>
      </trkpt>
      <trkpt lat="39.0866960" lon="1.5435580">
        <ele>136.0</ele>
        <time>2020-02-23T13:48:25Z</time>
      </trkpt>
      <trkpt lat="39.0866960" lon="1.5435470">
        <ele>136.0</ele>
        <time>2020-02-23T13:48:26Z</time>
      </trkpt>
      <trkpt lat="39.0866970" lon="1.5435360">
        <ele>136.2</ele>
        <time>2020-02-23T13:48:27Z</time>
      </trkpt>
      <trkpt lat="39.0866930" lon="1.5435190">
        <ele>136.2</ele>
        <time>2020-02-23T13:48:28Z</time>
      </trkpt>
      <trkpt lat="39.0866910" lon="1.5434990">
        <ele>136.2</ele>
        <time>2020-02-23T13:48:29Z</time>
      </trkpt>
      <trkpt lat="39.0866890" lon="1.5434820">
        <ele>136.3</ele>
        <time>2020-02-23T13:48:30Z</time>
      </trkpt>
      <trkpt lat="39.0866920" lon="1.5434730">
        <ele>136.3</ele>
        <time>2020-02-23T13:48:31Z</time>
      </trkpt>
      <trkpt lat="39.0866910" lon="1.5434620">
        <ele>136.3</ele>
        <time>2020-02-23T13:48:32Z</time>
      </trkpt>
      <trkpt lat="39.0866980" lon="1.5434360">
        <ele>136.5</ele>
        <time>2020-02-23T13:48:33Z</time>
      </trkpt>
      <trkpt lat="39.0867030" lon="1.5434240">
        <ele>136.5</ele>
        <time>2020-02-23T13:48:34Z</time>
      </trkpt>
      <trkpt lat="39.0867080" lon="1.5434120">
        <ele>136.2</ele>
        <time>2020-02-23T13:48:35Z</time>
      </trkpt>
      <trkpt lat="39.0867080" lon="1.5433910">
        <ele>136.4</ele>
        <time>2020-02-23T13:48:36Z</time>
      </trkpt>
      <trkpt lat="39.0867120" lon="1.5433740">
        <ele>136.4</ele>
        <time>2020-02-23T13:48:37Z</time>
      </trkpt>
      <trkpt lat="39.0867180" lon="1.5433530">
        <ele>136.6</ele>
        <time>2020-02-23T13:48:38Z</time>
      </trkpt>
      <trkpt lat="39.0867250" lon="1.5433440">
        <ele>136.6</ele>
        <time>2020-02-23T13:48:39Z</time>
      </trkpt>
      <trkpt lat="39.0867330" lon="1.5433340">
        <ele>136.6</ele>
        <time>2020-02-23T13:48:40Z</time>
      </trkpt>
      <trkpt lat="39.0867520" lon="1.5433050">
        <ele>136.7</ele>
        <time>2020-02-23T13:48:41Z</time>
      </trkpt>
      <trkpt lat="39.0867550" lon="1.5432960">
        <ele>136.7</ele>
        <time>2020-02-23T13:48:42Z</time>
      </trkpt>
      <trkpt lat="39.0867770" lon="1.5432650">
        <ele>136.9</ele>
        <time>2020-02-23T13:48:43Z</time>
      </trkpt>
      <trkpt lat="39.0867830" lon="1.5432520">
        <ele>136.9</ele>
        <time>2020-02-23T13:48:44Z</time>
      </trkpt>
      <trkpt lat="39.0868140" lon="1.5432190">
        <ele>137.3</ele>
        <time>2020-02-23T13:48:45Z</time>
      </trkpt>
      <trkpt lat="39.0868240" lon="1.5432090">
        <ele>137.3</ele>
        <time>2020-02-23T13:48:46Z</time>
      </trkpt>
      <trkpt lat="39.0868370" lon="1.5431940">
        <ele>137.5</ele>
        <time>2020-02-23T13:48:47Z</time>
      </trkpt>
      <trkpt lat="39.0868450" lon="1.5431930">
        <ele>137.5</ele>
        <time>2020-02-23T13:48:48Z</time>
      </trkpt>
      <trkpt lat="39.0868480" lon="1.5431950">
        <ele>137.5</ele>
        <time>2020-02-23T13:48:49Z</time>
      </trkpt>
      <trkpt lat="39.0868520" lon="1.5431980">
        <ele>137.5</ele>
        <time>2020-02-23T13:48:50Z</time>
      </trkpt>
      <trkpt lat="39.0868670" lon="1.5431850">
        <ele>137.9</ele>
        <time>2020-02-23T13:48:51Z</time>
      </trkpt>
      <trkpt lat="39.0868750" lon="1.5431780">
        <ele>138.2</ele>
        <time>2020-02-23T13:48:52Z</time>
      </trkpt>
      <trkpt lat="39.0868830" lon="1.5431720">
        <ele>138.2</ele>
        <time>2020-02-23T13:48:53Z</time>
      </trkpt>
      <trkpt lat="39.0869040" lon="1.5431480">
        <ele>139.1</ele>
        <time>2020-02-23T13:48:54Z</time>
      </trkpt>
      <trkpt lat="39.0869110" lon="1.5431410">
        <ele>139.1</ele>
        <time>2020-02-23T13:48:55Z</time>
      </trkpt>
      <trkpt lat="39.0869420" lon="1.5431230">
        <ele>139.7</ele>
        <time>2020-02-23T13:48:56Z</time>
      </trkpt>
      <trkpt lat="39.0869520" lon="1.5431160">
        <ele>139.7</ele>
        <time>2020-02-23T13:48:57Z</time>
      </trkpt>
      <trkpt lat="39.0869630" lon="1.5431070">
        <ele>140.0</ele>
        <time>2020-02-23T13:48:58Z</time>
      </trkpt>
      <trkpt lat="39.0869650" lon="1.5430990">
        <ele>140.0</ele>
        <time>2020-02-23T13:48:59Z</time>
      </trkpt>
      <trkpt lat="39.0869690" lon="1.5431050">
        <ele>140.0</ele>
        <time>2020-02-23T13:49:00Z</time>
      </trkpt>
      <trkpt lat="39.0869780" lon="1.5430960">
        <ele>140.7</ele>
        <time>2020-02-23T13:49:01Z</time>
      </trkpt>
      <trkpt lat="39.0869960" lon="1.5430780">
        <ele>140.7</ele>
        <time>2020-02-23T13:49:02Z</time>
      </trkpt>
      <trkpt lat="39.0870000" lon="1.5430630">
        <ele>141.0</ele>
        <time>2020-02-23T13:49:03Z</time>
      </trkpt>
      <trkpt lat="39.0869990" lon="1.5430460">
        <ele>141.0</ele>
        <time>2020-02-23T13:49:04Z</time>
      </trkpt>
      <trkpt lat="39.0870070" lon="1.5430270">
        <ele>141.7</ele>
        <time>2020-02-23T13:49:05Z</time>
      </trkpt>
      <trkpt lat="39.0870160" lon="1.5430080">
        <ele>142.1</ele>
        <time>2020-02-23T13:49:06Z</time>
      </trkpt>
      <trkpt lat="39.0870250" lon="1.5429960">
        <ele>142.1</ele>
        <time>2020-02-23T13:49:07Z</time>
      </trkpt>
      <trkpt lat="39.0870310" lon="1.5429830">
        <ele>142.1</ele>
        <time>2020-02-23T13:49:08Z</time>
      </trkpt>
      <trkpt lat="39.0870340" lon="1.5429670">
        <ele>142.4</ele>
        <time>2020-02-23T13:49:09Z</time>
      </trkpt>
      <trkpt lat="39.0870340" lon="1.5429560">
        <ele>142.4</ele>
        <time>2020-02-23T13:49:10Z</time>
      </trkpt>
      <trkpt lat="39.0870500" lon="1.5429320">
        <ele>143.4</ele>
        <time>2020-02-23T13:49:11Z</time>
      </trkpt>
      <trkpt lat="39.0870580" lon="1.5429190">
        <ele>143.4</ele>
        <time>2020-02-23T13:49:12Z</time>
      </trkpt>
      <trkpt lat="39.0870620" lon="1.5428970">
        <ele>143.4</ele>
        <time>2020-02-23T13:49:13Z</time>
      </trkpt>
      <trkpt lat="39.0870610" lon="1.5428740">
        <ele>143.7</ele>
        <time>2020-02-23T13:49:14Z</time>
      </trkpt>
      <trkpt lat="39.0870550" lon="1.5428370">
        <ele>144.0</ele>
        <time>2020-02-23T13:49:15Z</time>
      </trkpt>
      <trkpt lat="39.0870540" lon="1.5428230">
        <ele>144.0</ele>
        <time>2020-02-23T13:49:16Z</time>
      </trkpt>
      <trkpt lat="39.0870490" lon="1.5427860">
        <ele>144.3</ele>
        <time>2020-02-23T13:49:17Z</time>
      </trkpt>
      <trkpt lat="39.0870490" lon="1.5427760">
        <ele>144.3</ele>
        <time>2020-02-23T13:49:18Z</time>
      </trkpt>
      <trkpt lat="39.0870480" lon="1.5427580">
        <ele>144.5</ele>
        <time>2020-02-23T13:49:19Z</time>
      </trkpt>
      <trkpt lat="39.0870500" lon="1.5427360">
        <ele>144.5</ele>
        <time>2020-02-23T13:49:20Z</time>
      </trkpt>
      <trkpt lat="39.0870510" lon="1.5427110">
        <ele>144.8</ele>
        <time>2020-02-23T13:49:21Z</time>
      </trkpt>
      <trkpt lat="39.0870520" lon="1.5426930">
        <ele>144.8</ele>
        <time>2020-02-23T13:49:22Z</time>
      </trkpt>
      <trkpt lat="39.0870510" lon="1.5426560">
        <ele>145.0</ele>
        <time>2020-02-23T13:49:23Z</time>
      </trkpt>
      <trkpt lat="39.0870520" lon="1.5426440">
        <ele>145.0</ele>
        <time>2020-02-23T13:49:24Z</time>
      </trkpt>
      <trkpt lat="39.0870440" lon="1.5426020">
        <ele>145.2</ele>
        <time>2020-02-23T13:49:25Z</time>
      </trkpt>
      <trkpt lat="39.0870450" lon="1.5425890">
        <ele>145.4</ele>
        <time>2020-02-23T13:49:26Z</time>
      </trkpt>
      <trkpt lat="39.0870510" lon="1.5425680">
        <ele>145.4</ele>
        <time>2020-02-23T13:49:27Z</time>
      </trkpt>
      <trkpt lat="39.0870470" lon="1.5425630">
        <ele>145.4</ele>
        <time>2020-02-23T13:49:28Z</time>
      </trkpt>
      <trkpt lat="39.0870490" lon="1.5425550">
        <ele>145.4</ele>
        <time>2020-02-23T13:49:29Z</time>
      </trkpt>
      <trkpt lat="39.0870490" lon="1.5425400">
        <ele>145.6</ele>
        <time>2020-02-23T13:49:30Z</time>
      </trkpt>
      <trkpt lat="39.0870480" lon="1.5425340">
        <ele>145.6</ele>
        <time>2020-02-23T13:49:31Z</time>
      </trkpt>
      <trkpt lat="39.0870470" lon="1.5425290">
        <ele>145.6</ele>
        <time>2020-02-23T13:49:32Z</time>
      </trkpt>
      <trkpt lat="39.0870470" lon="1.5425230">
        <ele>145.6</ele>
        <time>2020-02-23T13:49:33Z</time>
      </trkpt>
      <trkpt lat="39.0870460" lon="1.5425180">
        <ele>145.6</ele>
        <time>2020-02-23T13:49:34Z</time>
      </trkpt>
      <trkpt lat="39.0870450" lon="1.5425120">
        <ele>145.6</ele>
        <time>2020-02-23T13:49:35Z</time>
      </trkpt>
      <trkpt lat="39.0870440" lon="1.5425070">
        <ele>145.6</ele>
        <time>2020-02-23T13:49:36Z</time>
      </trkpt>
      <trkpt lat="39.0870310" lon="1.5424870">
        <ele>145.0</ele>
        <time>2020-02-23T13:49:37Z</time>
      </trkpt>
      <trkpt lat="39.0870230" lon="1.5424780">
        <ele>145.0</ele>
        <time>2020-02-23T13:49:38Z</time>
      </trkpt>
      <trkpt lat="39.0870140" lon="1.5424690">
        <ele>145.0</ele>
        <time>2020-02-23T13:49:39Z</time>
      </trkpt>
      <trkpt lat="39.0869930" lon="1.5424340">
        <ele>144.5</ele>
        <time>2020-02-23T13:49:40Z</time>
      </trkpt>
      <trkpt lat="39.0869860" lon="1.5424240">
        <ele>144.5</ele>
        <time>2020-02-23T13:49:41Z</time>
      </trkpt>
      <trkpt lat="39.0869690" lon="1.5423900">
        <ele>144.1</ele>
        <time>2020-02-23T13:49:42Z</time>
      </trkpt>
      <trkpt lat="39.0869650" lon="1.5423780">
        <ele>144.1</ele>
        <time>2020-02-23T13:49:43Z</time>
      </trkpt>
      <trkpt lat="39.0869570" lon="1.5423650">
        <ele>144.2</ele>
        <time>2020-02-23T13:49:44Z</time>
      </trkpt>
      <trkpt lat="39.0869380" lon="1.5423560">
        <ele>144.2</ele>
        <time>2020-02-23T13:49:45Z</time>
      </trkpt>
      <trkpt lat="39.0869070" lon="1.5423390">
        <ele>143.7</ele>
        <time>2020-02-23T13:49:46Z</time>
      </trkpt>
      <trkpt lat="39.0868980" lon="1.5423320">
        <ele>143.4</ele>
        <time>2020-02-23T13:49:47Z</time>
      </trkpt>
      <trkpt lat="39.0868850" lon="1.5423150">
        <ele>143.4</ele>
        <time>2020-02-23T13:49:48Z</time>
      </trkpt>
      <trkpt lat="39.0868730" lon="1.5423020">
        <ele>143.4</ele>
        <time>2020-02-23T13:49:49Z</time>
      </trkpt>
      <trkpt lat="39.0868710" lon="1.5422840">
        <ele>143.5</ele>
        <time>2020-02-23T13:49:50Z</time>
      </trkpt>
      <trkpt lat="39.0868640" lon="1.5422690">
        <ele>143.1</ele>
        <time>2020-02-23T13:49:51Z</time>
      </trkpt>
      <trkpt lat="39.0868550" lon="1.5422500">
        <ele>143.1</ele>
        <time>2020-02-23T13:49:52Z</time>
      </trkpt>
      <trkpt lat="39.0868510" lon="1.5422320">
        <ele>143.3</ele>
        <time>2020-02-23T13:49:53Z</time>
      </trkpt>
      <trkpt lat="39.0868420" lon="1.5422150">
        <ele>143.3</ele>
        <time>2020-02-23T13:49:54Z</time>
      </trkpt>
      <trkpt lat="39.0868320" lon="1.5421940">
        <ele>143.1</ele>
        <time>2020-02-23T13:49:55Z</time>
      </trkpt>
      <trkpt lat="39.0868200" lon="1.5421800">
        <ele>143.1</ele>
        <time>2020-02-23T13:49:56Z</time>
      </trkpt>
      <trkpt lat="39.0868060" lon="1.5421680">
        <ele>143.1</ele>
        <time>2020-02-23T13:49:57Z</time>
      </trkpt>
      <trkpt lat="39.0867960" lon="1.5421540">
        <ele>143.0</ele>
        <time>2020-02-23T13:49:58Z</time>
      </trkpt>
      <trkpt lat="39.0867840" lon="1.5421430">
        <ele>143.0</ele>
        <time>2020-02-23T13:49:59Z</time>
      </trkpt>
      <trkpt lat="39.0867730" lon="1.5421330">
        <ele>143.0</ele>
        <time>2020-02-23T13:50:00Z</time>
      </trkpt>
      <trkpt lat="39.0867700" lon="1.5421240">
        <ele>143.0</ele>
        <time>2020-02-23T13:50:01Z</time>
      </trkpt>
      <trkpt lat="39.0867700" lon="1.5421170">
        <ele>143.2</ele>
        <time>2020-02-23T13:50:02Z</time>
      </trkpt>
      <trkpt lat="39.0867700" lon="1.5421030">
        <ele>143.2</ele>
        <time>2020-02-23T13:50:03Z</time>
      </trkpt>
      <trkpt lat="39.0867670" lon="1.5420900">
        <ele>143.0</ele>
        <time>2020-02-23T13:50:04Z</time>
      </trkpt>
      <trkpt lat="39.0867700" lon="1.5420740">
        <ele>143.3</ele>
        <time>2020-02-23T13:50:05Z</time>
      </trkpt>
      <trkpt lat="39.0867630" lon="1.5420670">
        <ele>143.2</ele>
        <time>2020-02-23T13:50:06Z</time>
      </trkpt>
      <trkpt lat="39.0867590" lon="1.5420570">
        <ele>143.2</ele>
        <time>2020-02-23T13:50:07Z</time>
      </trkpt>
      <trkpt lat="39.0867610" lon="1.5420550">
        <ele>143.2</ele>
        <time>2020-02-23T13:50:08Z</time>
      </trkpt>
      <trkpt lat="39.0867670" lon="1.5420490">
        <ele>143.2</ele>
        <time>2020-02-23T13:50:09Z</time>
      </trkpt>
      <trkpt lat="39.0867710" lon="1.5420440">
        <ele>143.3</ele>
        <time>2020-02-23T13:50:10Z</time>
      </trkpt>
      <trkpt lat="39.0867720" lon="1.5420360">
        <ele>143.3</ele>
        <time>2020-02-23T13:50:11Z</time>
      </trkpt>
      <trkpt lat="39.0867680" lon="1.5420250">
        <ele>143.4</ele>
        <time>2020-02-23T13:50:12Z</time>
      </trkpt>
      <trkpt lat="39.0867560" lon="1.5420020">
        <ele>143.4</ele>
        <time>2020-02-23T13:50:13Z</time>
      </trkpt>
      <trkpt lat="39.0867520" lon="1.5419930">
        <ele>143.4</ele>
        <time>2020-02-23T13:50:14Z</time>
      </trkpt>
      <trkpt lat="39.0867490" lon="1.5419830">
        <ele>143.6</ele>
        <time>2020-02-23T13:50:15Z</time>
      </trkpt>
      <trkpt lat="39.0867440" lon="1.5419700">
        <ele>143.6</ele>
        <time>2020-02-23T13:50:16Z</time>
      </trkpt>
      <trkpt lat="39.0867340" lon="1.5419640">
        <ele>143.5</ele>
        <time>2020-02-23T13:50:17Z</time>
      </trkpt>
      <trkpt lat="39.0867280" lon="1.5419560">
        <ele>143.5</ele>
        <time>2020-02-23T13:50:18Z</time>
      </trkpt>
      <trkpt lat="39.0867110" lon="1.5419220">
        <ele>143.7</ele>
        <time>2020-02-23T13:50:19Z</time>
      </trkpt>
      <trkpt lat="39.0867070" lon="1.5419090">
        <ele>143.7</ele>
        <time>2020-02-23T13:50:20Z</time>
      </trkpt>
      <trkpt lat="39.0866880" lon="1.5418780">
        <ele>143.8</ele>
        <time>2020-02-23T13:50:21Z</time>
      </trkpt>
      <trkpt lat="39.0866850" lon="1.5418690">
        <ele>143.8</ele>
        <time>2020-02-23T13:50:22Z</time>
      </trkpt>
      <trkpt lat="39.0866740" lon="1.5418310">
        <ele>144.0</ele>
        <time>2020-02-23T13:50:23Z</time>
      </trkpt>
      <trkpt lat="39.0866710" lon="1.5418180">
        <ele>144.3</ele>
        <time>2020-02-23T13:50:24Z</time>
      </trkpt>
      <trkpt lat="39.0866740" lon="1.5417720">
        <ele>144.5</ele>
        <time>2020-02-23T13:50:25Z</time>
      </trkpt>
      <trkpt lat="39.0866750" lon="1.5417550">
        <ele>144.5</ele>
        <time>2020-02-23T13:50:26Z</time>
      </trkpt>
      <trkpt lat="39.0866800" lon="1.5417160">
        <ele>144.8</ele>
        <time>2020-02-23T13:50:27Z</time>
      </trkpt>
      <trkpt lat="39.0866800" lon="1.5417030">
        <ele>144.8</ele>
        <time>2020-02-23T13:50:28Z</time>
      </trkpt>
      <trkpt lat="39.0866900" lon="1.5416790">
        <ele>145.1</ele>
        <time>2020-02-23T13:50:29Z</time>
      </trkpt>
      <trkpt lat="39.0866920" lon="1.5416680">
        <ele>145.1</ele>
        <time>2020-02-23T13:50:30Z</time>
      </trkpt>
      <trkpt lat="39.0866930" lon="1.5416580">
        <ele>145.1</ele>
        <time>2020-02-23T13:50:31Z</time>
      </trkpt>
      <trkpt lat="39.0866940" lon="1.5416420">
        <ele>145.4</ele>
        <time>2020-02-23T13:50:32Z</time>
      </trkpt>
      <trkpt lat="39.0866970" lon="1.5416160">
        <ele>145.4</ele>
        <time>2020-02-23T13:50:33Z</time>
      </trkpt>
      <trkpt lat="39.0866940" lon="1.5415890">
        <ele>145.7</ele>
        <time>2020-02-23T13:50:34Z</time>
      </trkpt>
      <trkpt lat="39.0866890" lon="1.5415710">
        <ele>145.7</ele>
        <time>2020-02-23T13:50:35Z</time>
      </trkpt>
      <trkpt lat="39.0866860" lon="1.5415570">
        <ele>146.0</ele>
        <time>2020-02-23T13:50:36Z</time>
      </trkpt>
      <trkpt lat="39.0866960" lon="1.5415610">
        <ele>146.0</ele>
        <time>2020-02-23T13:50:37Z</time>
      </trkpt>
      <trkpt lat="39.0866980" lon="1.5415620">
        <ele>146.0</ele>
        <time>2020-02-23T13:50:38Z</time>
      </trkpt>
      <trkpt lat="39.0866980" lon="1.5415590">
        <ele>146.0</ele>
        <time>2020-02-23T13:50:39Z</time>
      </trkpt>
      <trkpt lat="39.0866980" lon="1.5415570">
        <ele>146.0</ele>
        <time>2020-02-23T13:50:40Z</time>
      </trkpt>
      <trkpt lat="39.0866980" lon="1.5415560">
        <ele>146.0</ele>
        <time>2020-02-23T13:50:41Z</time>
      </trkpt>
      <trkpt lat="39.0866980" lon="1.5415560">
        <ele>146.0</ele>
        <time>2020-02-23T13:50:42Z</time>
      </trkpt>
      <trkpt lat="39.0866990" lon="1.5415560">
        <ele>146.0</ele>
        <time>2020-02-23T13:50:43Z</time>
      </trkpt>
      <trkpt lat="39.0866990" lon="1.5415570">
        <ele>146.0</ele>
        <time>2020-02-23T13:50:44Z</time>
      </trkpt>
      <trkpt lat="39.0867020" lon="1.5415610">
        <ele>146.0</ele>
        <time>2020-02-23T13:50:45Z</time>
      </trkpt>
      <trkpt lat="39.0867050" lon="1.5415670">
        <ele>146.0</ele>
        <time>2020-02-23T13:50:46Z</time>
      </trkpt>
      <trkpt lat="39.0867050" lon="1.5415670">
        <ele>146.0</ele>
        <time>2020-02-23T13:50:47Z</time>
      </trkpt>
      <trkpt lat="39.0867130" lon="1.5415230">
        <ele>146.3</ele>
        <time>2020-02-23T13:51:40Z</time>
      </trkpt>
      <trkpt lat="39.0867130" lon="1.5415020">
        <ele>146.7</ele>
        <time>2020-02-23T13:51:41Z</time>
      </trkpt>
      <trkpt lat="39.0867150" lon="1.5414540">
        <ele>147.2</ele>
        <time>2020-02-23T13:51:42Z</time>
      </trkpt>
      <trkpt lat="39.0867140" lon="1.5414380">
        <ele>147.2</ele>
        <time>2020-02-23T13:51:43Z</time>
      </trkpt>
      <trkpt lat="39.0867120" lon="1.5413940">
        <ele>147.7</ele>
        <time>2020-02-23T13:51:44Z</time>
      </trkpt>
      <trkpt lat="39.0867110" lon="1.5413520">
        <ele>148.3</ele>
        <time>2020-02-23T13:51:45Z</time>
      </trkpt>
      <trkpt lat="39.0866920" lon="1.5413090">
        <ele>148.5</ele>
        <time>2020-02-23T13:51:46Z</time>
      </trkpt>
      <trkpt lat="39.0866850" lon="1.5412880">
        <ele>149.2</ele>
        <time>2020-02-23T13:51:47Z</time>
      </trkpt>
      <trkpt lat="39.0866820" lon="1.5412520">
        <ele>149.9</ele>
        <time>2020-02-23T13:51:48Z</time>
      </trkpt>
      <trkpt lat="39.0866860" lon="1.5412120">
        <ele>150.5</ele>
        <time>2020-02-23T13:51:49Z</time>
      </trkpt>
      <trkpt lat="39.0866850" lon="1.5412040">
        <ele>150.5</ele>
        <time>2020-02-23T13:51:50Z</time>
      </trkpt>
      <trkpt lat="39.0866820" lon="1.5411880">
        <ele>150.5</ele>
        <time>2020-02-23T13:51:51Z</time>
      </trkpt>
      <trkpt lat="39.0866810" lon="1.5411720">
        <ele>151.2</ele>
        <time>2020-02-23T13:51:52Z</time>
      </trkpt>
      <trkpt lat="39.0866860" lon="1.5411620">
        <ele>151.2</ele>
        <time>2020-02-23T13:51:53Z</time>
      </trkpt>
      <trkpt lat="39.0866900" lon="1.5411670">
        <ele>151.2</ele>
        <time>2020-02-23T13:51:54Z</time>
      </trkpt>
      <trkpt lat="39.0866950" lon="1.5411610">
        <ele>151.2</ele>
        <time>2020-02-23T13:51:55Z</time>
      </trkpt>
      <trkpt lat="39.0866970" lon="1.5411510">
        <ele>151.2</ele>
        <time>2020-02-23T13:51:56Z</time>
      </trkpt>
      <trkpt lat="39.0866990" lon="1.5411390">
        <ele>151.2</ele>
        <time>2020-02-23T13:51:57Z</time>
      </trkpt>
      <trkpt lat="39.0867070" lon="1.5411290">
        <ele>152.4</ele>
        <time>2020-02-23T13:51:58Z</time>
      </trkpt>
      <trkpt lat="39.0867110" lon="1.5411230">
        <ele>152.4</ele>
        <time>2020-02-23T13:51:59Z</time>
      </trkpt>
      <trkpt lat="39.0867100" lon="1.5411100">
        <ele>152.4</ele>
        <time>2020-02-23T13:52:00Z</time>
      </trkpt>
      <trkpt lat="39.0867220" lon="1.5411100">
        <ele>152.4</ele>
        <time>2020-02-23T13:52:01Z</time>
      </trkpt>
      <trkpt lat="39.0867260" lon="1.5411080">
        <ele>152.4</ele>
        <time>2020-02-23T13:52:02Z</time>
      </trkpt>
      <trkpt lat="39.0867240" lon="1.5411020">
        <ele>152.4</ele>
        <time>2020-02-23T13:52:03Z</time>
      </trkpt>
      <trkpt lat="39.0867260" lon="1.5410940">
        <ele>152.4</ele>
        <time>2020-02-23T13:52:04Z</time>
      </trkpt>
      <trkpt lat="39.0867280" lon="1.5410900">
        <ele>153.1</ele>
        <time>2020-02-23T13:52:05Z</time>
      </trkpt>
      <trkpt lat="39.0867330" lon="1.5410840">
        <ele>153.1</ele>
        <time>2020-02-23T13:52:06Z</time>
      </trkpt>
      <trkpt lat="39.0867350" lon="1.5410800">
        <ele>153.1</ele>
        <time>2020-02-23T13:52:07Z</time>
      </trkpt>
      <trkpt lat="39.0867350" lon="1.5410760">
        <ele>153.1</ele>
        <time>2020-02-23T13:52:08Z</time>
      </trkpt>
      <trkpt lat="39.0867360" lon="1.5410720">
        <ele>153.1</ele>
        <time>2020-02-23T13:52:09Z</time>
      </trkpt>
      <trkpt lat="39.0867360" lon="1.5410630">
        <ele>153.1</ele>
        <time>2020-02-23T13:52:10Z</time>
      </trkpt>
      <trkpt lat="39.0867280" lon="1.5410530">
        <ele>153.1</ele>
        <time>2020-02-23T13:52:11Z</time>
      </trkpt>
      <trkpt lat="39.0867370" lon="1.5410360">
        <ele>154.3</ele>
        <time>2020-02-23T13:52:12Z</time>
      </trkpt>
      <trkpt lat="39.0867420" lon="1.5410240">
        <ele>154.3</ele>
        <time>2020-02-23T13:52:13Z</time>
      </trkpt>
      <trkpt lat="39.0867450" lon="1.5410130">
        <ele>154.3</ele>
        <time>2020-02-23T13:52:14Z</time>
      </trkpt>
      <trkpt lat="39.0867530" lon="1.5409930">
        <ele>155.0</ele>
        <time>2020-02-23T13:52:15Z</time>
      </trkpt>
      <trkpt lat="39.0867550" lon="1.5409680">
        <ele>155.0</ele>
        <time>2020-02-23T13:52:16Z</time>
      </trkpt>
      <trkpt lat="39.0867570" lon="1.5409530">
        <ele>155.7</ele>
        <time>2020-02-23T13:52:17Z</time>
      </trkpt>
      <trkpt lat="39.0867580" lon="1.5409390">
        <ele>155.7</ele>
        <time>2020-02-23T13:52:18Z</time>
      </trkpt>
      <trkpt lat="39.0867580" lon="1.5409230">
        <ele>155.7</ele>
        <time>2020-02-23T13:52:19Z</time>
      </trkpt>
      <trkpt lat="39.0867540" lon="1.5409030">
        <ele>156.4</ele>
        <time>2020-02-23T13:52:20Z</time>
      </trkpt>
      <trkpt lat="39.0867540" lon="1.5408900">
        <ele>156.4</ele>
        <time>2020-02-23T13:52:21Z</time>
      </trkpt>
      <trkpt lat="39.0867530" lon="1.5408780">
        <ele>156.4</ele>
        <time>2020-02-23T13:52:22Z</time>
      </trkpt>
      <trkpt lat="39.0867530" lon="1.5408660">
        <ele>157.2</ele>
        <time>2020-02-23T13:52:23Z</time>
      </trkpt>
      <trkpt lat="39.0867570" lon="1.5408300">
        <ele>157.9</ele>
        <time>2020-02-23T13:52:24Z</time>
      </trkpt>
      <trkpt lat="39.0867600" lon="1.5408180">
        <ele>157.9</ele>
        <time>2020-02-23T13:52:25Z</time>
      </trkpt>
      <trkpt lat="39.0867750" lon="1.5407870">
        <ele>159.3</ele>
        <time>2020-02-23T13:52:26Z</time>
      </trkpt>
      <trkpt lat="39.0867820" lon="1.5407770">
        <ele>159.3</ele>
        <time>2020-02-23T13:52:27Z</time>
      </trkpt>
      <trkpt lat="39.0868130" lon="1.5407650">
        <ele>160.1</ele>
        <time>2020-02-23T13:52:28Z</time>
      </trkpt>
      <trkpt lat="39.0868210" lon="1.5407650">
        <ele>160.1</ele>
        <time>2020-02-23T13:52:29Z</time>
      </trkpt>
      <trkpt lat="39.0868520" lon="1.5407710">
        <ele>160.9</ele>
        <time>2020-02-23T13:52:30Z</time>
      </trkpt>
      <trkpt lat="39.0868630" lon="1.5407720">
        <ele>160.9</ele>
        <time>2020-02-23T13:52:31Z</time>
      </trkpt>
      <trkpt lat="39.0868950" lon="1.5407880">
        <ele>161.8</ele>
        <time>2020-02-23T13:52:32Z</time>
      </trkpt>
      <trkpt lat="39.0869020" lon="1.5407920">
        <ele>161.0</ele>
        <time>2020-02-23T13:52:33Z</time>
      </trkpt>
      <trkpt lat="39.0869160" lon="1.5407990">
        <ele>162.0</ele>
        <time>2020-02-23T13:52:34Z</time>
      </trkpt>
      <trkpt lat="39.0869310" lon="1.5408060">
        <ele>162.0</ele>
        <time>2020-02-23T13:52:35Z</time>
      </trkpt>
      <trkpt lat="39.0869420" lon="1.5408100">
        <ele>163.0</ele>
        <time>2020-02-23T13:52:36Z</time>
      </trkpt>
      <trkpt lat="39.0869510" lon="1.5408190">
        <ele>163.0</ele>
        <time>2020-02-23T13:52:37Z</time>
      </trkpt>
      <trkpt lat="39.0869580" lon="1.5408210">
        <ele>163.0</ele>
        <time>2020-02-23T13:52:38Z</time>
      </trkpt>
      <trkpt lat="39.0869670" lon="1.5408300">
        <ele>163.0</ele>
        <time>2020-02-23T13:52:39Z</time>
      </trkpt>
      <trkpt lat="39.0869720" lon="1.5408370">
        <ele>163.2</ele>
        <time>2020-02-23T13:52:40Z</time>
      </trkpt>
      <trkpt lat="39.0869780" lon="1.5408430">
        <ele>163.2</ele>
        <time>2020-02-23T13:52:41Z</time>
      </trkpt>
      <trkpt lat="39.0869830" lon="1.5408500">
        <ele>163.2</ele>
        <time>2020-02-23T13:52:42Z</time>
      </trkpt>
      <trkpt lat="39.0869880" lon="1.5408560">
        <ele>163.2</ele>
        <time>2020-02-23T13:52:43Z</time>
      </trkpt>
      <trkpt lat="39.0870040" lon="1.5408620">
        <ele>164.3</ele>
        <time>2020-02-23T13:52:44Z</time>
      </trkpt>
      <trkpt lat="39.0870220" lon="1.5408640">
        <ele>164.3</ele>
        <time>2020-02-23T13:52:45Z</time>
      </trkpt>
      <trkpt lat="39.0870490" lon="1.5408570">
        <ele>165.3</ele>
        <time>2020-02-23T13:52:46Z</time>
      </trkpt>
      <trkpt lat="39.0870580" lon="1.5408520">
        <ele>165.3</ele>
        <time>2020-02-23T13:52:47Z</time>
      </trkpt>
      <trkpt lat="39.0870740" lon="1.5408440">
        <ele>166.4</ele>
        <time>2020-02-23T13:52:48Z</time>
      </trkpt>
      <trkpt lat="39.0870810" lon="1.5408260">
        <ele>167.1</ele>
        <time>2020-02-23T13:52:49Z</time>
      </trkpt>
      <trkpt lat="39.0870820" lon="1.5408150">
        <ele>167.1</ele>
        <time>2020-02-23T13:52:50Z</time>
      </trkpt>
      <trkpt lat="39.0870790" lon="1.5408020">
        <ele>167.1</ele>
        <time>2020-02-23T13:52:51Z</time>
      </trkpt>
      <trkpt lat="39.0870670" lon="1.5407890">
        <ele>166.8</ele>
        <time>2020-02-23T13:52:52Z</time>
      </trkpt>
      <trkpt lat="39.0870580" lon="1.5407890">
        <ele>166.8</ele>
        <time>2020-02-23T13:52:53Z</time>
      </trkpt>
      <trkpt lat="39.0870530" lon="1.5407770">
        <ele>166.8</ele>
        <time>2020-02-23T13:52:54Z</time>
      </trkpt>
      <trkpt lat="39.0870410" lon="1.5407700">
        <ele>166.8</ele>
        <time>2020-02-23T13:52:55Z</time>
      </trkpt>
      <trkpt lat="39.0870350" lon="1.5407500">
        <ele>165.7</ele>
        <time>2020-02-23T13:52:56Z</time>
      </trkpt>
      <trkpt lat="39.0870320" lon="1.5407360">
        <ele>166.4</ele>
        <time>2020-02-23T13:52:57Z</time>
      </trkpt>
      <trkpt lat="39.0870300" lon="1.5407230">
        <ele>166.4</ele>
        <time>2020-02-23T13:52:58Z</time>
      </trkpt>
      <trkpt lat="39.0870220" lon="1.5407060">
        <ele>166.4</ele>
        <time>2020-02-23T13:52:59Z</time>
      </trkpt>
      <trkpt lat="39.0870120" lon="1.5406960">
        <ele>167.0</ele>
        <time>2020-02-23T13:53:00Z</time>
      </trkpt>
      <trkpt lat="39.0869910" lon="1.5406650">
        <ele>166.1</ele>
        <time>2020-02-23T13:53:01Z</time>
      </trkpt>
      <trkpt lat="39.0869850" lon="1.5406560">
        <ele>166.7</ele>
        <time>2020-02-23T13:53:02Z</time>
      </trkpt>
      <trkpt lat="39.0869730" lon="1.5406400">
        <ele>166.7</ele>
        <time>2020-02-23T13:53:03Z</time>
      </trkpt>
      <trkpt lat="39.0869710" lon="1.5406380">
        <ele>166.7</ele>
        <time>2020-02-23T13:53:04Z</time>
      </trkpt>
      <trkpt lat="39.0869640" lon="1.5406290">
        <ele>165.7</ele>
        <time>2020-02-23T13:53:05Z</time>
      </trkpt>
      <trkpt lat="39.0869530" lon="1.5406130">
        <ele>166.3</ele>
        <time>2020-02-23T13:53:06Z</time>
      </trkpt>
      <trkpt lat="39.0869380" lon="1.5405990">
        <ele>166.3</ele>
        <time>2020-02-23T13:53:07Z</time>
      </trkpt>
      <trkpt lat="39.0869180" lon="1.5405730">
        <ele>165.9</ele>
        <time>2020-02-23T13:53:08Z</time>
      </trkpt>
      <trkpt lat="39.0869100" lon="1.5405680">
        <ele>165.9</ele>
        <time>2020-02-23T13:53:09Z</time>
      </trkpt>
      <trkpt lat="39.0868930" lon="1.5405570">
        <ele>165.0</ele>
        <time>2020-02-23T13:53:10Z</time>
      </trkpt>
      <trkpt lat="39.0868840" lon="1.5405440">
        <ele>165.0</ele>
        <time>2020-02-23T13:53:11Z</time>
      </trkpt>
      <trkpt lat="39.0868660" lon="1.5405360">
        <ele>164.2</ele>
        <time>2020-02-23T13:53:12Z</time>
      </trkpt>
      <trkpt lat="39.0868500" lon="1.5405370">
        <ele>164.2</ele>
        <time>2020-02-23T13:53:13Z</time>
      </trkpt>
      <trkpt lat="39.0868280" lon="1.5405300">
        <ele>164.0</ele>
        <time>2020-02-23T13:53:14Z</time>
      </trkpt>
      <trkpt lat="39.0868190" lon="1.5405280">
        <ele>164.0</ele>
        <time>2020-02-23T13:53:15Z</time>
      </trkpt>
      <trkpt lat="39.0868100" lon="1.5405250">
        <ele>164.0</ele>
        <time>2020-02-23T13:53:16Z</time>
      </trkpt>
      <trkpt lat="39.0867900" lon="1.5405190">
        <ele>163.3</ele>
        <time>2020-02-23T13:53:17Z</time>
      </trkpt>
      <trkpt lat="39.0867750" lon="1.5405090">
        <ele>163.3</ele>
        <time>2020-02-23T13:53:18Z</time>
      </trkpt>
      <trkpt lat="39.0867570" lon="1.5405030">
        <ele>162.6</ele>
        <time>2020-02-23T13:53:19Z</time>
      </trkpt>
      <trkpt lat="39.0867420" lon="1.5405030">
        <ele>162.6</ele>
        <time>2020-02-23T13:53:20Z</time>
      </trkpt>
      <trkpt lat="39.0867250" lon="1.5404980">
        <ele>162.0</ele>
        <time>2020-02-23T13:53:21Z</time>
      </trkpt>
      <trkpt lat="39.0867110" lon="1.5404960">
        <ele>162.0</ele>
        <time>2020-02-23T13:53:22Z</time>
      </trkpt>
      <trkpt lat="39.0866990" lon="1.5404950">
        <ele>161.4</ele>
        <time>2020-02-23T13:53:23Z</time>
      </trkpt>
      <trkpt lat="39.0866810" lon="1.5404830">
        <ele>162.0</ele>
        <time>2020-02-23T13:53:24Z</time>
      </trkpt>
      <trkpt lat="39.0866650" lon="1.5404850">
        <ele>161.4</ele>
        <time>2020-02-23T13:53:25Z</time>
      </trkpt>
      <trkpt lat="39.0866480" lon="1.5404820">
        <ele>161.4</ele>
        <time>2020-02-23T13:53:26Z</time>
      </trkpt>
      <trkpt lat="39.0866280" lon="1.5404790">
        <ele>160.9</ele>
        <time>2020-02-23T13:53:27Z</time>
      </trkpt>
      <trkpt lat="39.0866190" lon="1.5404700">
        <ele>160.9</ele>
        <time>2020-02-23T13:53:28Z</time>
      </trkpt>
      <trkpt lat="39.0866110" lon="1.5404620">
        <ele>160.9</ele>
        <time>2020-02-23T13:53:29Z</time>
      </trkpt>
      <trkpt lat="39.0865930" lon="1.5404560">
        <ele>160.4</ele>
        <time>2020-02-23T13:53:30Z</time>
      </trkpt>
      <trkpt lat="39.0865810" lon="1.5404530">
        <ele>160.4</ele>
        <time>2020-02-23T13:53:31Z</time>
      </trkpt>
      <trkpt lat="39.0865700" lon="1.5404510">
        <ele>160.4</ele>
        <time>2020-02-23T13:53:32Z</time>
      </trkpt>
      <trkpt lat="39.0865600" lon="1.5404460">
        <ele>160.6</ele>
        <time>2020-02-23T13:53:33Z</time>
      </trkpt>
      <trkpt lat="39.0865450" lon="1.5404350">
        <ele>160.6</ele>
        <time>2020-02-23T13:53:34Z</time>
      </trkpt>
      <trkpt lat="39.0865300" lon="1.5404300">
        <ele>160.3</ele>
        <time>2020-02-23T13:53:35Z</time>
      </trkpt>
      <trkpt lat="39.0865100" lon="1.5404280">
        <ele>160.3</ele>
        <time>2020-02-23T13:53:36Z</time>
      </trkpt>
      <trkpt lat="39.0864990" lon="1.5404310">
        <ele>160.1</ele>
        <time>2020-02-23T13:53:37Z</time>
      </trkpt>
      <trkpt lat="39.0864820" lon="1.5404300">
        <ele>160.1</ele>
        <time>2020-02-23T13:53:38Z</time>
      </trkpt>
      <trkpt lat="39.0864760" lon="1.5404290">
        <ele>160.1</ele>
        <time>2020-02-23T13:53:39Z</time>
      </trkpt>
      <trkpt lat="39.0864700" lon="1.5404260">
        <ele>160.0</ele>
        <time>2020-02-23T13:53:40Z</time>
      </trkpt>
      <trkpt lat="39.0864570" lon="1.5404160">
        <ele>160.0</ele>
        <time>2020-02-23T13:53:41Z</time>
      </trkpt>
      <trkpt lat="39.0864440" lon="1.5404090">
        <ele>160.0</ele>
        <time>2020-02-23T13:53:42Z</time>
      </trkpt>
      <trkpt lat="39.0864310" lon="1.5403980">
        <ele>160.4</ele>
        <time>2020-02-23T13:53:43Z</time>
      </trkpt>
      <trkpt lat="39.0864110" lon="1.5403990">
        <ele>160.4</ele>
        <time>2020-02-23T13:53:44Z</time>
      </trkpt>
      <trkpt lat="39.0864010" lon="1.5403980">
        <ele>160.4</ele>
        <time>2020-02-23T13:53:45Z</time>
      </trkpt>
      <trkpt lat="39.0863910" lon="1.5403970">
        <ele>160.4</ele>
        <time>2020-02-23T13:53:46Z</time>
      </trkpt>
      <trkpt lat="39.0863710" lon="1.5403860">
        <ele>160.4</ele>
        <time>2020-02-23T13:53:47Z</time>
      </trkpt>
      <trkpt lat="39.0863620" lon="1.5403820">
        <ele>160.4</ele>
        <time>2020-02-23T13:53:48Z</time>
      </trkpt>
      <trkpt lat="39.0863530" lon="1.5403770">
        <ele>160.4</ele>
        <time>2020-02-23T13:53:49Z</time>
      </trkpt>
      <trkpt lat="39.0863380" lon="1.5403580">
        <ele>160.9</ele>
        <time>2020-02-23T13:53:50Z</time>
      </trkpt>
      <trkpt lat="39.0863340" lon="1.5403490">
        <ele>160.9</ele>
        <time>2020-02-23T13:53:51Z</time>
      </trkpt>
      <trkpt lat="39.0863290" lon="1.5403390">
        <ele>160.9</ele>
        <time>2020-02-23T13:53:52Z</time>
      </trkpt>
      <trkpt lat="39.0863190" lon="1.5403270">
        <ele>160.9</ele>
        <time>2020-02-23T13:53:53Z</time>
      </trkpt>
      <trkpt lat="39.0863130" lon="1.5403180">
        <ele>160.9</ele>
        <time>2020-02-23T13:53:54Z</time>
      </trkpt>
      <trkpt lat="39.0863020" lon="1.5403080">
        <ele>161.3</ele>
        <time>2020-02-23T13:53:55Z</time>
      </trkpt>
      <trkpt lat="39.0862900" lon="1.5402960">
        <ele>161.3</ele>
        <time>2020-02-23T13:53:56Z</time>
      </trkpt>
      <trkpt lat="39.0862830" lon="1.5402880">
        <ele>161.3</ele>
        <time>2020-02-23T13:53:57Z</time>
      </trkpt>
      <trkpt lat="39.0862750" lon="1.5402800">
        <ele>161.3</ele>
        <time>2020-02-23T13:53:58Z</time>
      </trkpt>
      <trkpt lat="39.0862680" lon="1.5402720">
        <ele>161.7</ele>
        <time>2020-02-23T13:53:59Z</time>
      </trkpt>
      <trkpt lat="39.0862590" lon="1.5402670">
        <ele>161.7</ele>
        <time>2020-02-23T13:54:00Z</time>
      </trkpt>
      <trkpt lat="39.0862470" lon="1.5402620">
        <ele>161.7</ele>
        <time>2020-02-23T13:54:01Z</time>
      </trkpt>
      <trkpt lat="39.0862360" lon="1.5402600">
        <ele>161.7</ele>
        <time>2020-02-23T13:54:02Z</time>
      </trkpt>
      <trkpt lat="39.0862240" lon="1.5402480">
        <ele>161.7</ele>
        <time>2020-02-23T13:54:03Z</time>
      </trkpt>
      <trkpt lat="39.0862120" lon="1.5402290">
        <ele>162.0</ele>
        <time>2020-02-23T13:54:04Z</time>
      </trkpt>
      <trkpt lat="39.0862020" lon="1.5401870">
        <ele>162.2</ele>
        <time>2020-02-23T13:54:05Z</time>
      </trkpt>
      <trkpt lat="39.0861980" lon="1.5401740">
        <ele>162.2</ele>
        <time>2020-02-23T13:54:06Z</time>
      </trkpt>
      <trkpt lat="39.0861890" lon="1.5401560">
        <ele>162.2</ele>
        <time>2020-02-23T13:54:07Z</time>
      </trkpt>
      <trkpt lat="39.0861830" lon="1.5401400">
        <ele>162.4</ele>
        <time>2020-02-23T13:54:08Z</time>
      </trkpt>
      <trkpt lat="39.0861670" lon="1.5401240">
        <ele>162.4</ele>
        <time>2020-02-23T13:54:09Z</time>
      </trkpt>
      <trkpt lat="39.0861680" lon="1.5401080">
        <ele>162.4</ele>
        <time>2020-02-23T13:54:10Z</time>
      </trkpt>
      <trkpt lat="39.0861610" lon="1.5400890">
        <ele>162.6</ele>
        <time>2020-02-23T13:54:11Z</time>
      </trkpt>
      <trkpt lat="39.0861700" lon="1.5400700">
        <ele>162.6</ele>
        <time>2020-02-23T13:54:12Z</time>
      </trkpt>
      <trkpt lat="39.0861880" lon="1.5400380">
        <ele>162.9</ele>
        <time>2020-02-23T13:54:13Z</time>
      </trkpt>
      <trkpt lat="39.0861930" lon="1.5400280">
        <ele>162.9</ele>
        <time>2020-02-23T13:54:14Z</time>
      </trkpt>
      <trkpt lat="39.0862010" lon="1.5400180">
        <ele>162.9</ele>
        <time>2020-02-23T13:54:15Z</time>
      </trkpt>
      <trkpt lat="39.0862090" lon="1.5399980">
        <ele>163.1</ele>
        <time>2020-02-23T13:54:16Z</time>
      </trkpt>
      <trkpt lat="39.0862190" lon="1.5399810">
        <ele>163.1</ele>
        <time>2020-02-23T13:54:17Z</time>
      </trkpt>
      <trkpt lat="39.0862280" lon="1.5399860">
        <ele>163.1</ele>
        <time>2020-02-23T13:54:18Z</time>
      </trkpt>
      <trkpt lat="39.0862340" lon="1.5399880">
        <ele>163.1</ele>
        <time>2020-02-23T13:54:19Z</time>
      </trkpt>
      <trkpt lat="39.0862410" lon="1.5399940">
        <ele>163.2</ele>
        <time>2020-02-23T13:54:20Z</time>
      </trkpt>
      <trkpt lat="39.0862530" lon="1.5399920">
        <ele>163.2</ele>
        <time>2020-02-23T13:54:21Z</time>
      </trkpt>
      <trkpt lat="39.0862690" lon="1.5400000">
        <ele>163.2</ele>
        <time>2020-02-23T13:54:22Z</time>
      </trkpt>
      <trkpt lat="39.0862860" lon="1.5399990">
        <ele>163.3</ele>
        <time>2020-02-23T13:54:23Z</time>
      </trkpt>
      <trkpt lat="39.0863040" lon="1.5400000">
        <ele>163.4</ele>
        <time>2020-02-23T13:54:24Z</time>
      </trkpt>
      <trkpt lat="39.0863240" lon="1.5399970">
        <ele>163.4</ele>
        <time>2020-02-23T13:54:25Z</time>
      </trkpt>
      <trkpt lat="39.0863320" lon="1.5399990">
        <ele>163.4</ele>
        <time>2020-02-23T13:54:26Z</time>
      </trkpt>
      <trkpt lat="39.0863390" lon="1.5400020">
        <ele>163.6</ele>
        <time>2020-02-23T13:54:27Z</time>
      </trkpt>
      <trkpt lat="39.0863470" lon="1.5400040">
        <ele>163.6</ele>
        <time>2020-02-23T13:54:28Z</time>
      </trkpt>
      <trkpt lat="39.0863680" lon="1.5400140">
        <ele>163.6</ele>
        <time>2020-02-23T13:54:29Z</time>
      </trkpt>
      <trkpt lat="39.0863780" lon="1.5400190">
        <ele>163.5</ele>
        <time>2020-02-23T13:54:30Z</time>
      </trkpt>
      <trkpt lat="39.0863890" lon="1.5400230">
        <ele>163.5</ele>
        <time>2020-02-23T13:54:31Z</time>
      </trkpt>
      <trkpt lat="39.0864120" lon="1.5400260">
        <ele>163.8</ele>
        <time>2020-02-23T13:54:32Z</time>
      </trkpt>
      <trkpt lat="39.0864200" lon="1.5400270">
        <ele>163.8</ele>
        <time>2020-02-23T13:54:33Z</time>
      </trkpt>
      <trkpt lat="39.0864280" lon="1.5400270">
        <ele>163.8</ele>
        <time>2020-02-23T13:54:34Z</time>
      </trkpt>
      <trkpt lat="39.0864450" lon="1.5400270">
        <ele>164.0</ele>
        <time>2020-02-23T13:54:35Z</time>
      </trkpt>
      <trkpt lat="39.0864520" lon="1.5400380">
        <ele>164.0</ele>
        <time>2020-02-23T13:54:36Z</time>
      </trkpt>
      <trkpt lat="39.0864600" lon="1.5400460">
        <ele>164.0</ele>
        <time>2020-02-23T13:54:37Z</time>
      </trkpt>
      <trkpt lat="39.0864710" lon="1.5400500">
        <ele>164.3</ele>
        <time>2020-02-23T13:54:38Z</time>
      </trkpt>
      <trkpt lat="39.0864870" lon="1.5400490">
        <ele>164.3</ele>
        <time>2020-02-23T13:54:39Z</time>
      </trkpt>
      <trkpt lat="39.0865070" lon="1.5400330">
        <ele>164.6</ele>
        <time>2020-02-23T13:54:40Z</time>
      </trkpt>
      <trkpt lat="39.0865150" lon="1.5400210">
        <ele>164.6</ele>
        <time>2020-02-23T13:54:41Z</time>
      </trkpt>
      <trkpt lat="39.0865220" lon="1.5400100">
        <ele>165.0</ele>
        <time>2020-02-23T13:54:42Z</time>
      </trkpt>
      <trkpt lat="39.0865230" lon="1.5399890">
        <ele>165.0</ele>
        <time>2020-02-23T13:54:43Z</time>
      </trkpt>
      <trkpt lat="39.0865230" lon="1.5399670">
        <ele>165.3</ele>
        <time>2020-02-23T13:54:44Z</time>
      </trkpt>
      <trkpt lat="39.0865200" lon="1.5399490">
        <ele>165.3</ele>
        <time>2020-02-23T13:54:45Z</time>
      </trkpt>
      <trkpt lat="39.0865170" lon="1.5399320">
        <ele>165.3</ele>
        <time>2020-02-23T13:54:46Z</time>
      </trkpt>
      <trkpt lat="39.0865080" lon="1.5399050">
        <ele>165.6</ele>
        <time>2020-02-23T13:54:47Z</time>
      </trkpt>
      <trkpt lat="39.0865040" lon="1.5398960">
        <ele>165.6</ele>
        <time>2020-02-23T13:54:48Z</time>
      </trkpt>
      <trkpt lat="39.0865000" lon="1.5398880">
        <ele>165.6</ele>
        <time>2020-02-23T13:54:49Z</time>
      </trkpt>
      <trkpt lat="39.0864920" lon="1.5398740">
        <ele>165.6</ele>
        <time>2020-02-23T13:54:50Z</time>
      </trkpt>
      <trkpt lat="39.0864850" lon="1.5398580">
        <ele>165.6</ele>
        <time>2020-02-23T13:54:51Z</time>
      </trkpt>
      <trkpt lat="39.0864760" lon="1.5398430">
        <ele>165.8</ele>
        <time>2020-02-23T13:54:52Z</time>
      </trkpt>
      <trkpt lat="39.0864560" lon="1.5398310">
        <ele>165.4</ele>
        <time>2020-02-23T13:54:53Z</time>
      </trkpt>
      <trkpt lat="39.0864450" lon="1.5398150">
        <ele>165.4</ele>
        <time>2020-02-23T13:54:54Z</time>
      </trkpt>
      <trkpt lat="39.0864320" lon="1.5398030">
        <ele>165.1</ele>
        <time>2020-02-23T13:54:55Z</time>
      </trkpt>
      <trkpt lat="39.0864090" lon="1.5397780">
        <ele>165.2</ele>
        <time>2020-02-23T13:54:56Z</time>
      </trkpt>
      <trkpt lat="39.0864030" lon="1.5397690">
        <ele>164.9</ele>
        <time>2020-02-23T13:54:57Z</time>
      </trkpt>
      <trkpt lat="39.0863970" lon="1.5397510">
        <ele>165.0</ele>
        <time>2020-02-23T13:54:58Z</time>
      </trkpt>
      <trkpt lat="39.0863850" lon="1.5397340">
        <ele>165.0</ele>
        <time>2020-02-23T13:54:59Z</time>
      </trkpt>
      <trkpt lat="39.0863770" lon="1.5397150">
        <ele>165.1</ele>
        <time>2020-02-23T13:55:00Z</time>
      </trkpt>
      <trkpt lat="39.0863720" lon="1.5396930">
        <ele>165.1</ele>
        <time>2020-02-23T13:55:01Z</time>
      </trkpt>
      <trkpt lat="39.0863710" lon="1.5396730">
        <ele>165.1</ele>
        <time>2020-02-23T13:55:02Z</time>
      </trkpt>
      <trkpt lat="39.0863710" lon="1.5396570">
        <ele>165.1</ele>
        <time>2020-02-23T13:55:03Z</time>
      </trkpt>
      <trkpt lat="39.0863670" lon="1.5396310">
        <ele>164.8</ele>
        <time>2020-02-23T13:55:04Z</time>
      </trkpt>
      <trkpt lat="39.0863690" lon="1.5396100">
        <ele>164.8</ele>
        <time>2020-02-23T13:55:05Z</time>
      </trkpt>
      <trkpt lat="39.0863710" lon="1.5395910">
        <ele>165.2</ele>
        <time>2020-02-23T13:55:06Z</time>
      </trkpt>
      <trkpt lat="39.0863730" lon="1.5395730">
        <ele>165.2</ele>
        <time>2020-02-23T13:55:07Z</time>
      </trkpt>
      <trkpt lat="39.0863740" lon="1.5395500">
        <ele>165.2</ele>
        <time>2020-02-23T13:55:08Z</time>
      </trkpt>
      <trkpt lat="39.0863750" lon="1.5395320">
        <ele>165.1</ele>
        <time>2020-02-23T13:55:09Z</time>
      </trkpt>
      <trkpt lat="39.0863760" lon="1.5395130">
        <ele>165.1</ele>
        <time>2020-02-23T13:55:10Z</time>
      </trkpt>
      <trkpt lat="39.0863770" lon="1.5394950">
        <ele>165.0</ele>
        <time>2020-02-23T13:55:11Z</time>
      </trkpt>
      <trkpt lat="39.0863880" lon="1.5394690">
        <ele>165.0</ele>
        <time>2020-02-23T13:55:12Z</time>
      </trkpt>
      <trkpt lat="39.0863950" lon="1.5394600">
        <ele>164.9</ele>
        <time>2020-02-23T13:55:13Z</time>
      </trkpt>
      <trkpt lat="39.0864020" lon="1.5394500">
        <ele>164.8</ele>
        <time>2020-02-23T13:55:14Z</time>
      </trkpt>
      <trkpt lat="39.0864120" lon="1.5394350">
        <ele>165.2</ele>
        <time>2020-02-23T13:55:15Z</time>
      </trkpt>
      <trkpt lat="39.0864200" lon="1.5394190">
        <ele>165.2</ele>
        <time>2020-02-23T13:55:16Z</time>
      </trkpt>
      <trkpt lat="39.0864350" lon="1.5394050">
        <ele>165.0</ele>
        <time>2020-02-23T13:55:17Z</time>
      </trkpt>
      <trkpt lat="39.0864500" lon="1.5393940">
        <ele>165.5</ele>
        <time>2020-02-23T13:55:18Z</time>
      </trkpt>
      <trkpt lat="39.0864660" lon="1.5393870">
        <ele>165.4</ele>
        <time>2020-02-23T13:55:19Z</time>
      </trkpt>
      <trkpt lat="39.0864820" lon="1.5393840">
        <ele>165.8</ele>
        <time>2020-02-23T13:55:20Z</time>
      </trkpt>
      <trkpt lat="39.0864990" lon="1.5393820">
        <ele>165.8</ele>
        <time>2020-02-23T13:55:21Z</time>
      </trkpt>
      <trkpt lat="39.0865170" lon="1.5393830">
        <ele>166.2</ele>
        <time>2020-02-23T13:55:22Z</time>
      </trkpt>
      <trkpt lat="39.0865490" lon="1.5393900">
        <ele>166.6</ele>
        <time>2020-02-23T13:55:23Z</time>
      </trkpt>
      <trkpt lat="39.0865580" lon="1.5393940">
        <ele>166.5</ele>
        <time>2020-02-23T13:55:24Z</time>
      </trkpt>
      <trkpt lat="39.0865690" lon="1.5393950">
        <ele>166.5</ele>
        <time>2020-02-23T13:55:25Z</time>
      </trkpt>
      <trkpt lat="39.0865830" lon="1.5393990">
        <ele>166.9</ele>
        <time>2020-02-23T13:55:26Z</time>
      </trkpt>
      <trkpt lat="39.0865940" lon="1.5393990">
        <ele>166.9</ele>
        <time>2020-02-23T13:55:27Z</time>
      </trkpt>
      <trkpt lat="39.0866010" lon="1.5394100">
        <ele>166.8</ele>
        <time>2020-02-23T13:55:28Z</time>
      </trkpt>
      <trkpt lat="39.0866000" lon="1.5394170">
        <ele>166.8</ele>
        <time>2020-02-23T13:55:29Z</time>
      </trkpt>
      <trkpt lat="39.0865990" lon="1.5394230">
        <ele>166.7</ele>
        <time>2020-02-23T13:55:30Z</time>
      </trkpt>
      <trkpt lat="39.0865990" lon="1.5394300">
        <ele>166.7</ele>
        <time>2020-02-23T13:55:31Z</time>
      </trkpt>
      <trkpt lat="39.0865980" lon="1.5394370">
        <ele>166.6</ele>
        <time>2020-02-23T13:55:32Z</time>
      </trkpt>
      <trkpt lat="39.0865970" lon="1.5394440">
        <ele>166.6</ele>
        <time>2020-02-23T13:55:33Z</time>
      </trkpt>
      <trkpt lat="39.0865960" lon="1.5394500">
        <ele>166.5</ele>
        <time>2020-02-23T13:55:34Z</time>
      </trkpt>
      <trkpt lat="39.0865950" lon="1.5394570">
        <ele>166.5</ele>
        <time>2020-02-23T13:55:35Z</time>
      </trkpt>
      <trkpt lat="39.0865940" lon="1.5394640">
        <ele>166.4</ele>
        <time>2020-02-23T13:55:36Z</time>
      </trkpt>
      <trkpt lat="39.0865930" lon="1.5394710">
        <ele>166.3</ele>
        <time>2020-02-23T13:55:37Z</time>
      </trkpt>
      <trkpt lat="39.0865920" lon="1.5394770">
        <ele>166.3</ele>
        <time>2020-02-23T13:55:38Z</time>
      </trkpt>
      <trkpt lat="39.0865920" lon="1.5394840">
        <ele>166.3</ele>
        <time>2020-02-23T13:55:39Z</time>
      </trkpt>
      <trkpt lat="39.0865910" lon="1.5394910">
        <ele>166.2</ele>
        <time>2020-02-23T13:55:40Z</time>
      </trkpt>
      <trkpt lat="39.0865900" lon="1.5394980">
        <ele>166.2</ele>
        <time>2020-02-23T13:55:41Z</time>
      </trkpt>
      <trkpt lat="39.0865890" lon="1.5395040">
        <ele>166.0</ele>
        <time>2020-02-23T13:57:10Z</time>
      </trkpt>
      <trkpt lat="39.0865880" lon="1.5395110">
        <ele>166.0</ele>
        <time>2020-02-23T13:57:11Z</time>
      </trkpt>
      <trkpt lat="39.0865880" lon="1.5395360">
        <ele>165.9</ele>
        <time>2020-02-23T13:57:12Z</time>
      </trkpt>
      <trkpt lat="39.0865890" lon="1.5395550">
        <ele>165.8</ele>
        <time>2020-02-23T13:57:13Z</time>
      </trkpt>
      <trkpt lat="39.0865830" lon="1.5395790">
        <ele>165.8</ele>
        <time>2020-02-23T13:57:14Z</time>
      </trkpt>
      <trkpt lat="39.0865770" lon="1.5395980">
        <ele>165.7</ele>
        <time>2020-02-23T13:57:15Z</time>
      </trkpt>
      <trkpt lat="39.0865910" lon="1.5396130">
        <ele>165.6</ele>
        <time>2020-02-23T13:57:16Z</time>
      </trkpt>
      <trkpt lat="39.0865990" lon="1.5396260">
        <ele>165.6</ele>
        <time>2020-02-23T13:57:17Z</time>
      </trkpt>
      <trkpt lat="39.0866160" lon="1.5396240">
        <ele>166.1</ele>
        <time>2020-02-23T13:57:18Z</time>
      </trkpt>
      <trkpt lat="39.0866300" lon="1.5396250">
        <ele>166.0</ele>
        <time>2020-02-23T13:57:19Z</time>
      </trkpt>
      <trkpt lat="39.0866420" lon="1.5396260">
        <ele>166.5</ele>
        <time>2020-02-23T13:57:20Z</time>
      </trkpt>
      <trkpt lat="39.0866560" lon="1.5396420">
        <ele>166.4</ele>
        <time>2020-02-23T13:57:21Z</time>
      </trkpt>
      <trkpt lat="39.0866660" lon="1.5396470">
        <ele>166.3</ele>
        <time>2020-02-23T13:57:22Z</time>
      </trkpt>
      <trkpt lat="39.0866870" lon="1.5396460">
        <ele>166.8</ele>
        <time>2020-02-23T13:57:23Z</time>
      </trkpt>
      <trkpt lat="39.0867140" lon="1.5396330">
        <ele>167.3</ele>
        <time>2020-02-23T13:57:24Z</time>
      </trkpt>
      <trkpt lat="39.0867210" lon="1.5396260">
        <ele>167.4</ele>
        <time>2020-02-23T13:57:25Z</time>
      </trkpt>
      <trkpt lat="39.0867490" lon="1.5396240">
        <ele>167.9</ele>
        <time>2020-02-23T13:57:26Z</time>
      </trkpt>
      <trkpt lat="39.0867590" lon="1.5396220">
        <ele>167.9</ele>
        <time>2020-02-23T13:57:27Z</time>
      </trkpt>
      <trkpt lat="39.0867910" lon="1.5396270">
        <ele>168.4</ele>
        <time>2020-02-23T13:57:28Z</time>
      </trkpt>
      <trkpt lat="39.0868010" lon="1.5396290">
        <ele>168.4</ele>
        <time>2020-02-23T13:57:29Z</time>
      </trkpt>
      <trkpt lat="39.0868170" lon="1.5396350">
        <ele>168.8</ele>
        <time>2020-02-23T13:57:30Z</time>
      </trkpt>
      <trkpt lat="39.0868310" lon="1.5396420">
        <ele>168.7</ele>
        <time>2020-02-23T13:57:31Z</time>
      </trkpt>
      <trkpt lat="39.0868490" lon="1.5396570">
        <ele>169.3</ele>
        <time>2020-02-23T13:57:32Z</time>
      </trkpt>
      <trkpt lat="39.0868600" lon="1.5396600">
        <ele>169.2</ele>
        <time>2020-02-23T13:57:33Z</time>
      </trkpt>
      <trkpt lat="39.0868750" lon="1.5396770">
        <ele>169.7</ele>
        <time>2020-02-23T13:57:34Z</time>
      </trkpt>
      <trkpt lat="39.0868900" lon="1.5396850">
        <ele>169.7</ele>
        <time>2020-02-23T13:57:35Z</time>
      </trkpt>
      <trkpt lat="39.0869010" lon="1.5396970">
        <ele>169.6</ele>
        <time>2020-02-23T13:57:36Z</time>
      </trkpt>
      <trkpt lat="39.0869150" lon="1.5397130">
        <ele>170.3</ele>
        <time>2020-02-23T13:57:37Z</time>
      </trkpt>
      <trkpt lat="39.0869370" lon="1.5397260">
        <ele>170.8</ele>
        <time>2020-02-23T13:57:38Z</time>
      </trkpt>
      <trkpt lat="39.0869450" lon="1.5397300">
        <ele>170.7</ele>
        <time>2020-02-23T13:57:39Z</time>
      </trkpt>
      <trkpt lat="39.0869520" lon="1.5397350">
        <ele>170.7</ele>
        <time>2020-02-23T13:57:40Z</time>
      </trkpt>
      <trkpt lat="39.0869670" lon="1.5397380">
        <ele>170.7</ele>
        <time>2020-02-23T13:57:41Z</time>
      </trkpt>
      <trkpt lat="39.0869810" lon="1.5397420">
        <ele>171.3</ele>
        <time>2020-02-23T13:57:42Z</time>
      </trkpt>
      <trkpt lat="39.0869950" lon="1.5397480">
        <ele>171.3</ele>
        <time>2020-02-23T13:57:43Z</time>
      </trkpt>
      <trkpt lat="39.0870120" lon="1.5397550">
        <ele>171.9</ele>
        <time>2020-02-23T13:57:44Z</time>
      </trkpt>
      <trkpt lat="39.0870240" lon="1.5397570">
        <ele>171.9</ele>
        <time>2020-02-23T13:57:45Z</time>
      </trkpt>
      <trkpt lat="39.0870350" lon="1.5397540">
        <ele>171.8</ele>
        <time>2020-02-23T13:57:46Z</time>
      </trkpt>
      <trkpt lat="39.0870410" lon="1.5397680">
        <ele>172.4</ele>
        <time>2020-02-23T13:57:47Z</time>
      </trkpt>
      <trkpt lat="39.0870490" lon="1.5397710">
        <ele>172.3</ele>
        <time>2020-02-23T13:57:48Z</time>
      </trkpt>
      <trkpt lat="39.0870540" lon="1.5397760">
        <ele>172.3</ele>
        <time>2020-02-23T13:57:49Z</time>
      </trkpt>
      <trkpt lat="39.0870580" lon="1.5397810">
        <ele>172.2</ele>
        <time>2020-02-23T13:57:50Z</time>
      </trkpt>
      <trkpt lat="39.0870630" lon="1.5397860">
        <ele>172.2</ele>
        <time>2020-02-23T13:57:51Z</time>
      </trkpt>
      <trkpt lat="39.0870680" lon="1.5397910">
        <ele>172.1</ele>
        <time>2020-02-23T13:57:52Z</time>
      </trkpt>
      <trkpt lat="39.0870730" lon="1.5397960">
        <ele>172.7</ele>
        <time>2020-02-23T13:57:53Z</time>
      </trkpt>
      <trkpt lat="39.0870770" lon="1.5398020">
        <ele>172.7</ele>
        <time>2020-02-23T13:57:54Z</time>
      </trkpt>
      <trkpt lat="39.0870820" lon="1.5398070">
        <ele>172.5</ele>
        <time>2020-02-23T13:57:55Z</time>
      </trkpt>
      <trkpt lat="39.0870870" lon="1.5398120">
        <ele>172.4</ele>
        <time>2020-02-23T13:57:56Z</time>
      </trkpt>
      <trkpt lat="39.0870920" lon="1.5398170">
        <ele>172.4</ele>
        <time>2020-02-23T13:57:57Z</time>
      </trkpt>
      <trkpt lat="39.0870960" lon="1.5398220">
        <ele>172.4</ele>
        <time>2020-02-23T13:57:58Z</time>
      </trkpt>
      <trkpt lat="39.0871010" lon="1.5398270">
        <ele>172.3</ele>
        <time>2020-02-23T13:58:09Z</time>
      </trkpt>
      <trkpt lat="39.0871060" lon="1.5398320">
        <ele>173.0</ele>
        <time>2020-02-23T13:58:10Z</time>
      </trkpt>
      <trkpt lat="39.0871380" lon="1.5398570">
        <ele>173.5</ele>
        <time>2020-02-23T13:58:11Z</time>
      </trkpt>
      <trkpt lat="39.0871470" lon="1.5398670">
        <ele>173.5</ele>
        <time>2020-02-23T13:58:12Z</time>
      </trkpt>
      <trkpt lat="39.0871680" lon="1.5398910">
        <ele>173.2</ele>
        <time>2020-02-23T13:58:13Z</time>
      </trkpt>
      <trkpt lat="39.0871750" lon="1.5399000">
        <ele>173.9</ele>
        <time>2020-02-23T13:58:14Z</time>
      </trkpt>
      <trkpt lat="39.0872010" lon="1.5399340">
        <ele>173.7</ele>
        <time>2020-02-23T13:58:15Z</time>
      </trkpt>
      <trkpt lat="39.0872110" lon="1.5399470">
        <ele>174.5</ele>
        <time>2020-02-23T13:58:16Z</time>
      </trkpt>
      <trkpt lat="39.0872380" lon="1.5399620">
        <ele>175.2</ele>
        <time>2020-02-23T13:58:17Z</time>
      </trkpt>
      <trkpt lat="39.0872680" lon="1.5399740">
        <ele>175.1</ele>
        <time>2020-02-23T13:58:18Z</time>
      </trkpt>
      <trkpt lat="39.0872980" lon="1.5399800">
        <ele>175.8</ele>
        <time>2020-02-23T13:58:19Z</time>
      </trkpt>
      <trkpt lat="39.0873260" lon="1.5399830">
        <ele>176.4</ele>
        <time>2020-02-23T13:58:20Z</time>
      </trkpt>
      <trkpt lat="39.0873660" lon="1.5399880">
        <ele>177.2</ele>
        <time>2020-02-23T13:58:21Z</time>
      </trkpt>
      <trkpt lat="39.0873820" lon="1.5399880">
        <ele>177.8</ele>
        <time>2020-02-23T13:58:22Z</time>
      </trkpt>
      <trkpt lat="39.0874190" lon="1.5399940">
        <ele>178.6</ele>
        <time>2020-02-23T13:58:23Z</time>
      </trkpt>
      <trkpt lat="39.0874330" lon="1.5399970">
        <ele>178.5</ele>
        <time>2020-02-23T13:58:24Z</time>
      </trkpt>
      <trkpt lat="39.0874660" lon="1.5399990">
        <ele>179.7</ele>
        <time>2020-02-23T13:58:25Z</time>
      </trkpt>
      <trkpt lat="39.0874990" lon="1.5399970">
        <ele>180.3</ele>
        <time>2020-02-23T13:58:26Z</time>
      </trkpt>
      <trkpt lat="39.0875310" lon="1.5400050">
        <ele>181.1</ele>
        <time>2020-02-23T13:58:27Z</time>
      </trkpt>
      <trkpt lat="39.0875600" lon="1.5400040">
        <ele>181.7</ele>
        <time>2020-02-23T13:58:28Z</time>
      </trkpt>
      <trkpt lat="39.0875910" lon="1.5399880">
        <ele>182.4</ele>
        <time>2020-02-23T13:58:29Z</time>
      </trkpt>
      <trkpt lat="39.0876260" lon="1.5399790">
        <ele>183.0</ele>
        <time>2020-02-23T13:58:30Z</time>
      </trkpt>
      <trkpt lat="39.0876570" lon="1.5399630">
        <ele>183.7</ele>
        <time>2020-02-23T13:58:31Z</time>
      </trkpt>
      <trkpt lat="39.0876960" lon="1.5399390">
        <ele>184.3</ele>
        <time>2020-02-23T13:58:32Z</time>
      </trkpt>
      <trkpt lat="39.0877110" lon="1.5399310">
        <ele>184.9</ele>
        <time>2020-02-23T13:58:33Z</time>
      </trkpt>
      <trkpt lat="39.0877390" lon="1.5399180">
        <ele>185.4</ele>
        <time>2020-02-23T13:58:34Z</time>
      </trkpt>
      <trkpt lat="39.0877640" lon="1.5398910">
        <ele>185.4</ele>
        <time>2020-02-23T13:58:35Z</time>
      </trkpt>
      <trkpt lat="39.0877880" lon="1.5398740">
        <ele>186.0</ele>
        <time>2020-02-23T13:58:36Z</time>
      </trkpt>
      <trkpt lat="39.0878150" lon="1.5398590">
        <ele>186.6</ele>
        <time>2020-02-23T13:58:37Z</time>
      </trkpt>
      <trkpt lat="39.0878440" lon="1.5398470">
        <ele>187.2</ele>
        <time>2020-02-23T13:58:38Z</time>
      </trkpt>
      <trkpt lat="39.0878810" lon="1.5398450">
        <ele>187.7</ele>
        <time>2020-02-23T13:58:39Z</time>
      </trkpt>
      <trkpt lat="39.0879200" lon="1.5398360">
        <ele>188.3</ele>
        <time>2020-02-23T13:58:40Z</time>
      </trkpt>
      <trkpt lat="39.0879320" lon="1.5398310">
        <ele>188.3</ele>
        <time>2020-02-23T13:58:41Z</time>
      </trkpt>
      <trkpt lat="39.0879630" lon="1.5398200">
        <ele>188.8</ele>
        <time>2020-02-23T13:58:42Z</time>
      </trkpt>
      <trkpt lat="39.0879730" lon="1.5398160">
        <ele>189.4</ele>
        <time>2020-02-23T13:58:43Z</time>
      </trkpt>
      <trkpt lat="39.0880140" lon="1.5397980">
        <ele>190.0</ele>
        <time>2020-02-23T13:58:44Z</time>
      </trkpt>
      <trkpt lat="39.0880310" lon="1.5397900">
        <ele>190.0</ele>
        <time>2020-02-23T13:58:45Z</time>
      </trkpt>
      <trkpt lat="39.0880550" lon="1.5397670">
        <ele>190.6</ele>
        <time>2020-02-23T13:58:46Z</time>
      </trkpt>
      <trkpt lat="39.0880610" lon="1.5397600">
        <ele>190.6</ele>
        <time>2020-02-23T13:58:47Z</time>
      </trkpt>
      <trkpt lat="39.0880650" lon="1.5397470">
        <ele>190.6</ele>
        <time>2020-02-23T13:58:48Z</time>
      </trkpt>
      <trkpt lat="39.0880640" lon="1.5397210">
        <ele>190.6</ele>
        <time>2020-02-23T13:58:49Z</time>
      </trkpt>
      <trkpt lat="39.0880580" lon="1.5396790">
        <ele>190.7</ele>
        <time>2020-02-23T13:58:50Z</time>
      </trkpt>
      <trkpt lat="39.0880550" lon="1.5396410">
        <ele>190.7</ele>
        <time>2020-02-23T13:58:51Z</time>
      </trkpt>
      <trkpt lat="39.0880520" lon="1.5396290">
        <ele>190.8</ele>
        <time>2020-02-23T13:58:52Z</time>
      </trkpt>
      <trkpt lat="39.0880430" lon="1.5396090">
        <ele>190.8</ele>
        <time>2020-02-23T13:58:53Z</time>
      </trkpt>
      <trkpt lat="39.0880340" lon="1.5395940">
        <ele>190.2</ele>
        <time>2020-02-23T13:58:54Z</time>
      </trkpt>
      <trkpt lat="39.0880180" lon="1.5395550">
        <ele>190.3</ele>
        <time>2020-02-23T13:58:55Z</time>
      </trkpt>
      <trkpt lat="39.0880150" lon="1.5395450">
        <ele>190.4</ele>
        <time>2020-02-23T13:58:56Z</time>
      </trkpt>
      <trkpt lat="39.0880120" lon="1.5395180">
        <ele>190.4</ele>
        <time>2020-02-23T13:58:57Z</time>
      </trkpt>
      <trkpt lat="39.0880110" lon="1.5395070">
        <ele>190.4</ele>
        <time>2020-02-23T13:58:58Z</time>
      </trkpt>
      <trkpt lat="39.0880100" lon="1.5394950">
        <ele>190.5</ele>
        <time>2020-02-23T13:58:59Z</time>
      </trkpt>
      <trkpt lat="39.0880130" lon="1.5394720">
        <ele>190.5</ele>
        <time>2020-02-23T13:59:00Z</time>
      </trkpt>
      <trkpt lat="39.0880220" lon="1.5394540">
        <ele>190.6</ele>
        <time>2020-02-23T13:59:01Z</time>
      </trkpt>
      <trkpt lat="39.0880390" lon="1.5394350">
        <ele>191.2</ele>
        <time>2020-02-23T13:59:02Z</time>
      </trkpt>
      <trkpt lat="39.0880440" lon="1.5394260">
        <ele>191.2</ele>
        <time>2020-02-23T13:59:03Z</time>
      </trkpt>
      <trkpt lat="39.0880500" lon="1.5394180">
        <ele>191.2</ele>
        <time>2020-02-23T13:59:04Z</time>
      </trkpt>
      <trkpt lat="39.0880720" lon="1.5393960">
        <ele>192.0</ele>
        <time>2020-02-23T13:59:05Z</time>
      </trkpt>
      <trkpt lat="39.0880780" lon="1.5393870">
        <ele>192.0</ele>
        <time>2020-02-23T13:59:06Z</time>
      </trkpt>
      <trkpt lat="39.0880940" lon="1.5393780">
        <ele>192.0</ele>
        <time>2020-02-23T13:59:07Z</time>
      </trkpt>
      <trkpt lat="39.0881110" lon="1.5393680">
        <ele>192.8</ele>
        <time>2020-02-23T13:59:08Z</time>
      </trkpt>
      <trkpt lat="39.0881280" lon="1.5393610">
        <ele>192.8</ele>
        <time>2020-02-23T13:59:09Z</time>
      </trkpt>
      <trkpt lat="39.0881450" lon="1.5393580">
        <ele>193.4</ele>
        <time>2020-02-23T13:59:10Z</time>
      </trkpt>
      <trkpt lat="39.0881640" lon="1.5393510">
        <ele>193.4</ele>
        <time>2020-02-23T13:59:11Z</time>
      </trkpt>
      <trkpt lat="39.0881800" lon="1.5393540">
        <ele>193.9</ele>
        <time>2020-02-23T13:59:12Z</time>
      </trkpt>
      <trkpt lat="39.0881930" lon="1.5393480">
        <ele>193.9</ele>
        <time>2020-02-23T13:59:13Z</time>
      </trkpt>
      <trkpt lat="39.0882060" lon="1.5393430">
        <ele>194.4</ele>
        <time>2020-02-23T13:59:14Z</time>
      </trkpt>
      <trkpt lat="39.0882280" lon="1.5393200">
        <ele>194.6</ele>
        <time>2020-02-23T13:59:15Z</time>
      </trkpt>
      <trkpt lat="39.0882370" lon="1.5393110">
        <ele>195.0</ele>
        <time>2020-02-23T13:59:16Z</time>
      </trkpt>
      <trkpt lat="39.0882660" lon="1.5392900">
        <ele>195.0</ele>
        <time>2020-02-23T13:59:17Z</time>
      </trkpt>
      <trkpt lat="39.0882730" lon="1.5392820">
        <ele>195.6</ele>
        <time>2020-02-23T13:59:18Z</time>
      </trkpt>
      <trkpt lat="39.0882850" lon="1.5392740">
        <ele>195.6</ele>
        <time>2020-02-23T13:59:19Z</time>
      </trkpt>
      <trkpt lat="39.0883000" lon="1.5392540">
        <ele>195.6</ele>
        <time>2020-02-23T13:59:20Z</time>
      </trkpt>
      <trkpt lat="39.0883210" lon="1.5392230">
        <ele>196.3</ele>
        <time>2020-02-23T13:59:21Z</time>
      </trkpt>
      <trkpt lat="39.0883270" lon="1.5392130">
        <ele>196.3</ele>
        <time>2020-02-23T13:59:22Z</time>
      </trkpt>
      <trkpt lat="39.0883370" lon="1.5392030">
        <ele>196.7</ele>
        <time>2020-02-23T13:59:23Z</time>
      </trkpt>
      <trkpt lat="39.0883480" lon="1.5391880">
        <ele>196.9</ele>
        <time>2020-02-23T13:59:24Z</time>
      </trkpt>
      <trkpt lat="39.0883610" lon="1.5391740">
        <ele>196.9</ele>
        <time>2020-02-23T13:59:25Z</time>
      </trkpt>
      <trkpt lat="39.0883710" lon="1.5391620">
        <ele>197.4</ele>
        <time>2020-02-23T13:59:26Z</time>
      </trkpt>
      <trkpt lat="39.0883850" lon="1.5391470">
        <ele>197.6</ele>
        <time>2020-02-23T13:59:27Z</time>
      </trkpt>
      <trkpt lat="39.0884010" lon="1.5391430">
        <ele>197.6</ele>
        <time>2020-02-23T13:59:28Z</time>
      </trkpt>
      <trkpt lat="39.0884210" lon="1.5391480">
        <ele>198.1</ele>
        <time>2020-02-23T13:59:29Z</time>
      </trkpt>
      <trkpt lat="39.0884360" lon="1.5391490">
        <ele>198.5</ele>
        <time>2020-02-23T13:59:30Z</time>
      </trkpt>
      <trkpt lat="39.0884530" lon="1.5391560">
        <ele>198.5</ele>
        <time>2020-02-23T13:59:31Z</time>
      </trkpt>
      <trkpt lat="39.0884630" lon="1.5391640">
        <ele>198.3</ele>
        <time>2020-02-23T13:59:32Z</time>
      </trkpt>
      <trkpt lat="39.0884840" lon="1.5391780">
        <ele>198.7</ele>
        <time>2020-02-23T13:59:33Z</time>
      </trkpt>
      <trkpt lat="39.0884920" lon="1.5391830">
        <ele>198.7</ele>
        <time>2020-02-23T13:59:34Z</time>
      </trkpt>
      <trkpt lat="39.0885010" lon="1.5391880">
        <ele>198.7</ele>
        <time>2020-02-23T13:59:35Z</time>
      </trkpt>
      <trkpt lat="39.0885160" lon="1.5391950">
        <ele>199.1</ele>
        <time>2020-02-23T13:59:36Z</time>
      </trkpt>
      <trkpt lat="39.0885320" lon="1.5392070">
        <ele>198.9</ele>
        <time>2020-02-23T13:59:37Z</time>
      </trkpt>
      <trkpt lat="39.0885420" lon="1.5392160">
        <ele>199.4</ele>
        <time>2020-02-23T13:59:38Z</time>
      </trkpt>
      <trkpt lat="39.0885600" lon="1.5392320">
        <ele>199.4</ele>
        <time>2020-02-23T13:59:39Z</time>
      </trkpt>
      <trkpt lat="39.0885820" lon="1.5392630">
        <ele>199.7</ele>
        <time>2020-02-23T13:59:40Z</time>
      </trkpt>
      <trkpt lat="39.0885880" lon="1.5392740">
        <ele>199.7</ele>
        <time>2020-02-23T13:59:41Z</time>
      </trkpt>
      <trkpt lat="39.0886010" lon="1.5392900">
        <ele>199.5</ele>
        <time>2020-02-23T13:59:42Z</time>
      </trkpt>
      <trkpt lat="39.0886150" lon="1.5393040">
        <ele>200.0</ele>
        <time>2020-02-23T13:59:43Z</time>
      </trkpt>
      <trkpt lat="39.0886280" lon="1.5393140">
        <ele>200.0</ele>
        <time>2020-02-23T13:59:44Z</time>
      </trkpt>
      <trkpt lat="39.0886410" lon="1.5393190">
        <ele>200.5</ele>
        <time>2020-02-23T13:59:45Z</time>
      </trkpt>
      <trkpt lat="39.0886700" lon="1.5393380">
        <ele>200.9</ele>
        <time>2020-02-23T13:59:46Z</time>
      </trkpt>
      <trkpt lat="39.0886780" lon="1.5393490">
        <ele>200.9</ele>
        <time>2020-02-23T13:59:47Z</time>
      </trkpt>
      <trkpt lat="39.0886930" lon="1.5393610">
        <ele>200.9</ele>
        <time>2020-02-23T13:59:48Z</time>
      </trkpt>
      <trkpt lat="39.0887100" lon="1.5393670">
        <ele>201.4</ele>
        <time>2020-02-23T13:59:49Z</time>
      </trkpt>
      <trkpt lat="39.0887350" lon="1.5393810">
        <ele>201.2</ele>
        <time>2020-02-23T13:59:50Z</time>
      </trkpt>
      <trkpt lat="39.0887440" lon="1.5393870">
        <ele>201.7</ele>
        <time>2020-02-23T13:59:51Z</time>
      </trkpt>
      <trkpt lat="39.0887660" lon="1.5394070">
        <ele>201.7</ele>
        <time>2020-02-23T13:59:52Z</time>
      </trkpt>
      <trkpt lat="39.0887730" lon="1.5394140">
        <ele>202.2</ele>
        <time>2020-02-23T13:59:53Z</time>
      </trkpt>
      <trkpt lat="39.0887900" lon="1.5394170">
        <ele>202.0</ele>
        <time>2020-02-23T13:59:54Z</time>
      </trkpt>
      <trkpt lat="39.0888070" lon="1.5394250">
        <ele>202.5</ele>
        <time>2020-02-23T13:59:55Z</time>
      </trkpt>
      <trkpt lat="39.0888340" lon="1.5394380">
        <ele>202.5</ele>
        <time>2020-02-23T13:59:56Z</time>
      </trkpt>
      <trkpt lat="39.0888430" lon="1.5394400">
        <ele>203.0</ele>
        <time>2020-02-23T13:59:57Z</time>
      </trkpt>
      <trkpt lat="39.0888610" lon="1.5394430">
        <ele>203.0</ele>
        <time>2020-02-23T13:59:58Z</time>
      </trkpt>
      <trkpt lat="39.0888790" lon="1.5394380">
        <ele>203.5</ele>
        <time>2020-02-23T13:59:59Z</time>
      </trkpt>
      <trkpt lat="39.0889080" lon="1.5394320">
        <ele>203.9</ele>
        <time>2020-02-23T14:00:00Z</time>
      </trkpt>
      <trkpt lat="39.0889170" lon="1.5394320">
        <ele>203.9</ele>
        <time>2020-02-23T14:00:01Z</time>
      </trkpt>
      <trkpt lat="39.0889360" lon="1.5394360">
        <ele>204.3</ele>
        <time>2020-02-23T14:00:02Z</time>
      </trkpt>
      <trkpt lat="39.0889510" lon="1.5394410">
        <ele>204.3</ele>
        <time>2020-02-23T14:00:03Z</time>
      </trkpt>
      <trkpt lat="39.0889670" lon="1.5394440">
        <ele>204.3</ele>
        <time>2020-02-23T14:00:04Z</time>
      </trkpt>
      <trkpt lat="39.0889840" lon="1.5394480">
        <ele>204.6</ele>
        <time>2020-02-23T14:00:05Z</time>
      </trkpt>
      <trkpt lat="39.0890020" lon="1.5394450">
        <ele>204.8</ele>
        <time>2020-02-23T14:00:06Z</time>
      </trkpt>
      <trkpt lat="39.0890170" lon="1.5394480">
        <ele>204.8</ele>
        <time>2020-02-23T14:00:07Z</time>
      </trkpt>
      <trkpt lat="39.0890430" lon="1.5394480">
        <ele>205.0</ele>
        <time>2020-02-23T14:00:08Z</time>
      </trkpt>
      <trkpt lat="39.0890560" lon="1.5394520">
        <ele>205.0</ele>
        <time>2020-02-23T14:00:09Z</time>
      </trkpt>
      <trkpt lat="39.0890920" lon="1.5394650">
        <ele>205.0</ele>
        <time>2020-02-23T14:00:10Z</time>
      </trkpt>
      <trkpt lat="39.0891030" lon="1.5394670">
        <ele>205.1</ele>
        <time>2020-02-23T14:00:11Z</time>
      </trkpt>
      <trkpt lat="39.0891370" lon="1.5394600">
        <ele>205.1</ele>
        <time>2020-02-23T14:00:12Z</time>
      </trkpt>
      <trkpt lat="39.0891480" lon="1.5394570">
        <ele>205.2</ele>
        <time>2020-02-23T14:00:13Z</time>
      </trkpt>
      <trkpt lat="39.0891750" lon="1.5394630">
        <ele>205.1</ele>
        <time>2020-02-23T14:00:14Z</time>
      </trkpt>
      <trkpt lat="39.0892020" lon="1.5394710">
        <ele>205.1</ele>
        <time>2020-02-23T14:00:15Z</time>
      </trkpt>
      <trkpt lat="39.0892150" lon="1.5394740">
        <ele>205.1</ele>
        <time>2020-02-23T14:00:16Z</time>
      </trkpt>
      <trkpt lat="39.0892310" lon="1.5394740">
        <ele>205.1</ele>
        <time>2020-02-23T14:00:17Z</time>
      </trkpt>
      <trkpt lat="39.0892460" lon="1.5394690">
        <ele>205.0</ele>
        <time>2020-02-23T14:00:18Z</time>
      </trkpt>
      <trkpt lat="39.0892810" lon="1.5394770">
        <ele>204.9</ele>
        <time>2020-02-23T14:00:19Z</time>
      </trkpt>
      <trkpt lat="39.0892930" lon="1.5394810">
        <ele>204.9</ele>
        <time>2020-02-23T14:00:20Z</time>
      </trkpt>
      <trkpt lat="39.0893230" lon="1.5394860">
        <ele>204.9</ele>
        <time>2020-02-23T14:00:21Z</time>
      </trkpt>
      <trkpt lat="39.0893320" lon="1.5394840">
        <ele>204.9</ele>
        <time>2020-02-23T14:00:22Z</time>
      </trkpt>
      <trkpt lat="39.0893610" lon="1.5394920">
        <ele>204.8</ele>
        <time>2020-02-23T14:00:23Z</time>
      </trkpt>
      <trkpt lat="39.0893680" lon="1.5394980">
        <ele>204.8</ele>
        <time>2020-02-23T14:00:24Z</time>
      </trkpt>
      <trkpt lat="39.0893960" lon="1.5395020">
        <ele>204.8</ele>
        <time>2020-02-23T14:00:25Z</time>
      </trkpt>
      <trkpt lat="39.0894070" lon="1.5395020">
        <ele>204.8</ele>
        <time>2020-02-23T14:00:26Z</time>
      </trkpt>
      <trkpt lat="39.0894340" lon="1.5394970">
        <ele>204.8</ele>
        <time>2020-02-23T14:00:27Z</time>
      </trkpt>
      <trkpt lat="39.0894670" lon="1.5394970">
        <ele>204.7</ele>
        <time>2020-02-23T14:00:28Z</time>
      </trkpt>
      <trkpt lat="39.0894790" lon="1.5394960">
        <ele>204.7</ele>
        <time>2020-02-23T14:00:29Z</time>
      </trkpt>
      <trkpt lat="39.0895160" lon="1.5395070">
        <ele>204.7</ele>
        <time>2020-02-23T14:00:30Z</time>
      </trkpt>
      <trkpt lat="39.0895270" lon="1.5395160">
        <ele>204.7</ele>
        <time>2020-02-23T14:00:31Z</time>
      </trkpt>
      <trkpt lat="39.0895460" lon="1.5395400">
        <ele>204.7</ele>
        <time>2020-02-23T14:00:32Z</time>
      </trkpt>
      <trkpt lat="39.0895730" lon="1.5395660">
        <ele>204.6</ele>
        <time>2020-02-23T14:00:33Z</time>
      </trkpt>
      <trkpt lat="39.0895820" lon="1.5395750">
        <ele>204.6</ele>
        <time>2020-02-23T14:00:34Z</time>
      </trkpt>
      <trkpt lat="39.0896230" lon="1.5395950">
        <ele>204.6</ele>
        <time>2020-02-23T14:00:35Z</time>
      </trkpt>
      <trkpt lat="39.0896420" lon="1.5396060">
        <ele>204.6</ele>
        <time>2020-02-23T14:00:36Z</time>
      </trkpt>
      <trkpt lat="39.0896720" lon="1.5396220">
        <ele>204.5</ele>
        <time>2020-02-23T14:00:37Z</time>
      </trkpt>
      <trkpt lat="39.0897010" lon="1.5396290">
        <ele>204.5</ele>
        <time>2020-02-23T14:00:38Z</time>
      </trkpt>
      <trkpt lat="39.0897370" lon="1.5396300">
        <ele>204.4</ele>
        <time>2020-02-23T14:00:39Z</time>
      </trkpt>
      <trkpt lat="39.0897480" lon="1.5396270">
        <ele>204.4</ele>
        <time>2020-02-23T14:00:40Z</time>
      </trkpt>
      <trkpt lat="39.0897720" lon="1.5395940">
        <ele>204.3</ele>
        <time>2020-02-23T14:00:41Z</time>
      </trkpt>
      <trkpt lat="39.0897810" lon="1.5395810">
        <ele>204.1</ele>
        <time>2020-02-23T14:00:42Z</time>
      </trkpt>
      <trkpt lat="39.0897940" lon="1.5395480">
        <ele>204.1</ele>
        <time>2020-02-23T14:00:43Z</time>
      </trkpt>
      <trkpt lat="39.0898030" lon="1.5395010">
        <ele>203.5</ele>
        <time>2020-02-23T14:00:44Z</time>
      </trkpt>
      <trkpt lat="39.0898010" lon="1.5394850">
        <ele>203.3</ele>
        <time>2020-02-23T14:00:45Z</time>
      </trkpt>
      <trkpt lat="39.0898050" lon="1.5394500">
        <ele>202.9</ele>
        <time>2020-02-23T14:00:46Z</time>
      </trkpt>
      <trkpt lat="39.0898090" lon="1.5393980">
        <ele>202.2</ele>
        <time>2020-02-23T14:00:47Z</time>
      </trkpt>
      <trkpt lat="39.0898090" lon="1.5393760">
        <ele>201.8</ele>
        <time>2020-02-23T14:00:48Z</time>
      </trkpt>
      <trkpt lat="39.0898090" lon="1.5393340">
        <ele>201.3</ele>
        <time>2020-02-23T14:00:49Z</time>
      </trkpt>
      <trkpt lat="39.0897970" lon="1.5392930">
        <ele>200.7</ele>
        <time>2020-02-23T14:00:50Z</time>
      </trkpt>
      <trkpt lat="39.0897950" lon="1.5392840">
        <ele>200.6</ele>
        <time>2020-02-23T14:00:51Z</time>
      </trkpt>
      <trkpt lat="39.0897920" lon="1.5392610">
        <ele>200.4</ele>
        <time>2020-02-23T14:00:52Z</time>
      </trkpt>
      <trkpt lat="39.0897860" lon="1.5392420">
        <ele>200.1</ele>
        <time>2020-02-23T14:00:53Z</time>
      </trkpt>
      <trkpt lat="39.0897850" lon="1.5392190">
        <ele>199.9</ele>
        <time>2020-02-23T14:00:54Z</time>
      </trkpt>
      <trkpt lat="39.0897760" lon="1.5391980">
        <ele>199.6</ele>
        <time>2020-02-23T14:00:55Z</time>
      </trkpt>
      <trkpt lat="39.0897770" lon="1.5391610">
        <ele>199.2</ele>
        <time>2020-02-23T14:00:56Z</time>
      </trkpt>
      <trkpt lat="39.0897760" lon="1.5391470">
        <ele>199.1</ele>
        <time>2020-02-23T14:00:57Z</time>
      </trkpt>
      <trkpt lat="39.0897690" lon="1.5390990">
        <ele>198.7</ele>
        <time>2020-02-23T14:00:58Z</time>
      </trkpt>
      <trkpt lat="39.0897670" lon="1.5390830">
        <ele>198.6</ele>
        <time>2020-02-23T14:00:59Z</time>
      </trkpt>
      <trkpt lat="39.0897520" lon="1.5390400">
        <ele>198.3</ele>
        <time>2020-02-23T14:01:00Z</time>
      </trkpt>
      <trkpt lat="39.0897470" lon="1.5390260">
        <ele>198.3</ele>
        <time>2020-02-23T14:01:01Z</time>
      </trkpt>
      <trkpt lat="39.0897330" lon="1.5389920">
        <ele>198.1</ele>
        <time>2020-02-23T14:01:02Z</time>
      </trkpt>
      <trkpt lat="39.0897170" lon="1.5389450">
        <ele>198.0</ele>
        <time>2020-02-23T14:01:03Z</time>
      </trkpt>
      <trkpt lat="39.0897120" lon="1.5389280">
        <ele>198.0</ele>
        <time>2020-02-23T14:01:04Z</time>
      </trkpt>
      <trkpt lat="39.0897050" lon="1.5388940">
        <ele>198.0</ele>
        <time>2020-02-23T14:01:05Z</time>
      </trkpt>
      <trkpt lat="39.0897040" lon="1.5388580">
        <ele>198.1</ele>
        <time>2020-02-23T14:01:06Z</time>
      </trkpt>
      <trkpt lat="39.0897140" lon="1.5388140">
        <ele>198.2</ele>
        <time>2020-02-23T14:01:07Z</time>
      </trkpt>
      <trkpt lat="39.0897200" lon="1.5388020">
        <ele>198.3</ele>
        <time>2020-02-23T14:01:08Z</time>
      </trkpt>
      <trkpt lat="39.0897440" lon="1.5387730">
        <ele>198.4</ele>
        <time>2020-02-23T14:01:09Z</time>
      </trkpt>
      <trkpt lat="39.0897680" lon="1.5387570">
        <ele>198.5</ele>
        <time>2020-02-23T14:01:10Z</time>
      </trkpt>
      <trkpt lat="39.0897920" lon="1.5387320">
        <ele>198.7</ele>
        <time>2020-02-23T14:01:11Z</time>
      </trkpt>
      <trkpt lat="39.0898150" lon="1.5387070">
        <ele>198.8</ele>
        <time>2020-02-23T14:01:12Z</time>
      </trkpt>
      <trkpt lat="39.0898370" lon="1.5386800">
        <ele>198.9</ele>
        <time>2020-02-23T14:01:13Z</time>
      </trkpt>
      <trkpt lat="39.0898610" lon="1.5386530">
        <ele>198.9</ele>
        <time>2020-02-23T14:01:14Z</time>
      </trkpt>
      <trkpt lat="39.0898900" lon="1.5386280">
        <ele>199.0</ele>
        <time>2020-02-23T14:01:15Z</time>
      </trkpt>
      <trkpt lat="39.0899180" lon="1.5386010">
        <ele>199.0</ele>
        <time>2020-02-23T14:01:16Z</time>
      </trkpt>
      <trkpt lat="39.0899440" lon="1.5385760">
        <ele>199.0</ele>
        <time>2020-02-23T14:01:17Z</time>
      </trkpt>
      <trkpt lat="39.0899720" lon="1.5385550">
        <ele>199.0</ele>
        <time>2020-02-23T14:01:18Z</time>
      </trkpt>
      <trkpt lat="39.0899970" lon="1.5385340">
        <ele>198.9</ele>
        <time>2020-02-23T14:01:19Z</time>
      </trkpt>
      <trkpt lat="39.0900250" lon="1.5385110">
        <ele>198.8</ele>
        <time>2020-02-23T14:01:20Z</time>
      </trkpt>
      <trkpt lat="39.0900500" lon="1.5384840">
        <ele>198.8</ele>
        <time>2020-02-23T14:01:21Z</time>
      </trkpt>
      <trkpt lat="39.0900770" lon="1.5384580">
        <ele>198.7</ele>
        <time>2020-02-23T14:01:22Z</time>
      </trkpt>
      <trkpt lat="39.0901020" lon="1.5384400">
        <ele>198.7</ele>
        <time>2020-02-23T14:01:23Z</time>
      </trkpt>
      <trkpt lat="39.0901280" lon="1.5384220">
        <ele>198.7</ele>
        <time>2020-02-23T14:01:24Z</time>
      </trkpt>
      <trkpt lat="39.0901570" lon="1.5383980">
        <ele>198.7</ele>
        <time>2020-02-23T14:01:25Z</time>
      </trkpt>
      <trkpt lat="39.0902000" lon="1.5383800">
        <ele>198.7</ele>
        <time>2020-02-23T14:01:26Z</time>
      </trkpt>
      <trkpt lat="39.0902180" lon="1.5383710">
        <ele>198.7</ele>
        <time>2020-02-23T14:01:27Z</time>
      </trkpt>
      <trkpt lat="39.0902470" lon="1.5383610">
        <ele>198.8</ele>
        <time>2020-02-23T14:01:28Z</time>
      </trkpt>
      <trkpt lat="39.0902800" lon="1.5383420">
        <ele>198.9</ele>
        <time>2020-02-23T14:01:29Z</time>
      </trkpt>
      <trkpt lat="39.0903110" lon="1.5383290">
        <ele>198.9</ele>
        <time>2020-02-23T14:01:30Z</time>
      </trkpt>
      <trkpt lat="39.0903400" lon="1.5383100">
        <ele>199.0</ele>
        <time>2020-02-23T14:01:31Z</time>
      </trkpt>
      <trkpt lat="39.0903690" lon="1.5382910">
        <ele>199.1</ele>
        <time>2020-02-23T14:01:32Z</time>
      </trkpt>
      <trkpt lat="39.0903910" lon="1.5382610">
        <ele>199.1</ele>
        <time>2020-02-23T14:01:33Z</time>
      </trkpt>
      <trkpt lat="39.0903980" lon="1.5382190">
        <ele>199.2</ele>
        <time>2020-02-23T14:01:34Z</time>
      </trkpt>
      <trkpt lat="39.0903920" lon="1.5381820">
        <ele>199.2</ele>
        <time>2020-02-23T14:01:35Z</time>
      </trkpt>
      <trkpt lat="39.0903760" lon="1.5381410">
        <ele>199.3</ele>
        <time>2020-02-23T14:01:36Z</time>
      </trkpt>
      <trkpt lat="39.0903470" lon="1.5381130">
        <ele>199.3</ele>
        <time>2020-02-23T14:01:37Z</time>
      </trkpt>
      <trkpt lat="39.0903320" lon="1.5381070">
        <ele>199.3</ele>
        <time>2020-02-23T14:01:38Z</time>
      </trkpt>
      <trkpt lat="39.0902960" lon="1.5380820">
        <ele>199.3</ele>
        <time>2020-02-23T14:01:39Z</time>
      </trkpt>
      <trkpt lat="39.0902840" lon="1.5380740">
        <ele>199.3</ele>
        <time>2020-02-23T14:01:40Z</time>
      </trkpt>
      <trkpt lat="39.0902530" lon="1.5380480">
        <ele>199.4</ele>
        <time>2020-02-23T14:01:41Z</time>
      </trkpt>
      <trkpt lat="39.0902440" lon="1.5380410">
        <ele>199.4</ele>
        <time>2020-02-23T14:01:42Z</time>
      </trkpt>
      <trkpt lat="39.0902150" lon="1.5380190">
        <ele>199.4</ele>
        <time>2020-02-23T14:01:43Z</time>
      </trkpt>
      <trkpt lat="39.0902030" lon="1.5380150">
        <ele>199.4</ele>
        <time>2020-02-23T14:01:44Z</time>
      </trkpt>
      <trkpt lat="39.0901730" lon="1.5380010">
        <ele>199.4</ele>
        <time>2020-02-23T14:01:45Z</time>
      </trkpt>
      <trkpt lat="39.0901620" lon="1.5380000">
        <ele>199.4</ele>
        <time>2020-02-23T14:01:46Z</time>
      </trkpt>
      <trkpt lat="39.0901260" lon="1.5379910">
        <ele>199.5</ele>
        <time>2020-02-23T14:01:47Z</time>
      </trkpt>
      <trkpt lat="39.0901100" lon="1.5379890">
        <ele>199.5</ele>
        <time>2020-02-23T14:01:48Z</time>
      </trkpt>
      <trkpt lat="39.0900790" lon="1.5379780">
        <ele>199.5</ele>
        <time>2020-02-23T14:01:49Z</time>
      </trkpt>
      <trkpt lat="39.0900700" lon="1.5379720">
        <ele>199.6</ele>
        <time>2020-02-23T14:01:50Z</time>
      </trkpt>
      <trkpt lat="39.0900410" lon="1.5379540">
        <ele>199.6</ele>
        <time>2020-02-23T14:01:51Z</time>
      </trkpt>
      <trkpt lat="39.0900330" lon="1.5379490">
        <ele>199.7</ele>
        <time>2020-02-23T14:01:52Z</time>
      </trkpt>
      <trkpt lat="39.0900170" lon="1.5379400">
        <ele>199.7</ele>
        <time>2020-02-23T14:01:53Z</time>
      </trkpt>
      <trkpt lat="39.0900020" lon="1.5379280">
        <ele>199.8</ele>
        <time>2020-02-23T14:01:54Z</time>
      </trkpt>
      <trkpt lat="39.0899740" lon="1.5379120">
        <ele>199.8</ele>
        <time>2020-02-23T14:01:55Z</time>
      </trkpt>
      <trkpt lat="39.0899640" lon="1.5379040">
        <ele>199.9</ele>
        <time>2020-02-23T14:01:56Z</time>
      </trkpt>
      <trkpt lat="39.0899340" lon="1.5378830">
        <ele>200.0</ele>
        <time>2020-02-23T14:01:57Z</time>
      </trkpt>
      <trkpt lat="39.0899250" lon="1.5378760">
        <ele>200.1</ele>
        <time>2020-02-23T14:01:58Z</time>
      </trkpt>
      <trkpt lat="39.0898990" lon="1.5378570">
        <ele>200.2</ele>
        <time>2020-02-23T14:01:59Z</time>
      </trkpt>
      <trkpt lat="39.0898900" lon="1.5378510">
        <ele>200.3</ele>
        <time>2020-02-23T14:02:00Z</time>
      </trkpt>
      <trkpt lat="39.0898710" lon="1.5378240">
        <ele>200.4</ele>
        <time>2020-02-23T14:02:01Z</time>
      </trkpt>
      <trkpt lat="39.0898650" lon="1.5378140">
        <ele>200.5</ele>
        <time>2020-02-23T14:02:02Z</time>
      </trkpt>
      <trkpt lat="39.0898500" lon="1.5377800">
        <ele>200.7</ele>
        <time>2020-02-23T14:02:03Z</time>
      </trkpt>
      <trkpt lat="39.0898340" lon="1.5377380">
        <ele>201.0</ele>
        <time>2020-02-23T14:02:04Z</time>
      </trkpt>
      <trkpt lat="39.0898290" lon="1.5377230">
        <ele>201.1</ele>
        <time>2020-02-23T14:02:05Z</time>
      </trkpt>
      <trkpt lat="39.0898190" lon="1.5376830">
        <ele>201.4</ele>
        <time>2020-02-23T14:02:06Z</time>
      </trkpt>
      <trkpt lat="39.0898150" lon="1.5376700">
        <ele>201.5</ele>
        <time>2020-02-23T14:02:07Z</time>
      </trkpt>
      <trkpt lat="39.0898040" lon="1.5376260">
        <ele>201.8</ele>
        <time>2020-02-23T14:02:08Z</time>
      </trkpt>
      <trkpt lat="39.0897990" lon="1.5376130">
        <ele>201.9</ele>
        <time>2020-02-23T14:02:09Z</time>
      </trkpt>
      <trkpt lat="39.0897830" lon="1.5375670">
        <ele>202.3</ele>
        <time>2020-02-23T14:02:10Z</time>
      </trkpt>
      <trkpt lat="39.0897750" lon="1.5375530">
        <ele>202.5</ele>
        <time>2020-02-23T14:02:11Z</time>
      </trkpt>
      <trkpt lat="39.0897510" lon="1.5375090">
        <ele>203.0</ele>
        <time>2020-02-23T14:02:12Z</time>
      </trkpt>
      <trkpt lat="39.0897410" lon="1.5374930">
        <ele>203.2</ele>
        <time>2020-02-23T14:02:13Z</time>
      </trkpt>
      <trkpt lat="39.0897170" lon="1.5374590">
        <ele>203.7</ele>
        <time>2020-02-23T14:02:14Z</time>
      </trkpt>
      <trkpt lat="39.0896980" lon="1.5374290">
        <ele>204.1</ele>
        <time>2020-02-23T14:02:15Z</time>
      </trkpt>
      <trkpt lat="39.0896860" lon="1.5373890">
        <ele>204.7</ele>
        <time>2020-02-23T14:02:16Z</time>
      </trkpt>
      <trkpt lat="39.0896810" lon="1.5373720">
        <ele>204.9</ele>
        <time>2020-02-23T14:02:17Z</time>
      </trkpt>
      <trkpt lat="39.0896690" lon="1.5373290">
        <ele>205.5</ele>
        <time>2020-02-23T14:02:18Z</time>
      </trkpt>
      <trkpt lat="39.0896620" lon="1.5372930">
        <ele>205.9</ele>
        <time>2020-02-23T14:02:19Z</time>
      </trkpt>
      <trkpt lat="39.0896600" lon="1.5372430">
        <ele>206.6</ele>
        <time>2020-02-23T14:02:20Z</time>
      </trkpt>
      <trkpt lat="39.0896350" lon="1.5372010">
        <ele>207.4</ele>
        <time>2020-02-23T14:02:21Z</time>
      </trkpt>
      <trkpt lat="39.0896300" lon="1.5371810">
        <ele>207.7</ele>
        <time>2020-02-23T14:02:22Z</time>
      </trkpt>
      <trkpt lat="39.0896170" lon="1.5371430">
        <ele>208.3</ele>
        <time>2020-02-23T14:02:23Z</time>
      </trkpt>
      <trkpt lat="39.0895930" lon="1.5371020">
        <ele>209.1</ele>
        <time>2020-02-23T14:02:24Z</time>
      </trkpt>
      <trkpt lat="39.0895810" lon="1.5370890">
        <ele>209.4</ele>
        <time>2020-02-23T14:02:25Z</time>
      </trkpt>
      <trkpt lat="39.0895680" lon="1.5370480">
        <ele>210.0</ele>
        <time>2020-02-23T14:02:26Z</time>
      </trkpt>
      <trkpt lat="39.0895590" lon="1.5370350">
        <ele>210.3</ele>
        <time>2020-02-23T14:02:27Z</time>
      </trkpt>
      <trkpt lat="39.0895390" lon="1.5370010">
        <ele>210.9</ele>
        <time>2020-02-23T14:02:28Z</time>
      </trkpt>
      <trkpt lat="39.0895240" lon="1.5369700">
        <ele>211.4</ele>
        <time>2020-02-23T14:02:29Z</time>
      </trkpt>
      <trkpt lat="39.0895000" lon="1.5369310">
        <ele>212.1</ele>
        <time>2020-02-23T14:02:30Z</time>
      </trkpt>
      <trkpt lat="39.0894940" lon="1.5369160">
        <ele>212.4</ele>
        <time>2020-02-23T14:02:31Z</time>
      </trkpt>
      <trkpt lat="39.0894720" lon="1.5368810">
        <ele>213.0</ele>
        <time>2020-02-23T14:02:32Z</time>
      </trkpt>
      <trkpt lat="39.0894640" lon="1.5368720">
        <ele>213.2</ele>
        <time>2020-02-23T14:02:33Z</time>
      </trkpt>
      <trkpt lat="39.0894440" lon="1.5368410">
        <ele>213.8</ele>
        <time>2020-02-23T14:02:34Z</time>
      </trkpt>
      <trkpt lat="39.0894380" lon="1.5368320">
        <ele>213.9</ele>
        <time>2020-02-23T14:02:35Z</time>
      </trkpt>
      <trkpt lat="39.0894210" lon="1.5368050">
        <ele>214.4</ele>
        <time>2020-02-23T14:02:36Z</time>
      </trkpt>
      <trkpt lat="39.0894110" lon="1.5367910">
        <ele>214.6</ele>
        <time>2020-02-23T14:02:37Z</time>
      </trkpt>
      <trkpt lat="39.0893960" lon="1.5367610">
        <ele>215.1</ele>
        <time>2020-02-23T14:02:38Z</time>
      </trkpt>
      <trkpt lat="39.0893810" lon="1.5367260">
        <ele>215.6</ele>
        <time>2020-02-23T14:02:39Z</time>
      </trkpt>
      <trkpt lat="39.0893630" lon="1.5366970">
        <ele>216.0</ele>
        <time>2020-02-23T14:02:40Z</time>
      </trkpt>
      <trkpt lat="39.0893430" lon="1.5366660">
        <ele>216.5</ele>
        <time>2020-02-23T14:02:41Z</time>
      </trkpt>
      <trkpt lat="39.0893210" lon="1.5366270">
        <ele>217.0</ele>
        <time>2020-02-23T14:02:42Z</time>
      </trkpt>
      <trkpt lat="39.0893040" lon="1.5365920">
        <ele>217.5</ele>
        <time>2020-02-23T14:02:43Z</time>
      </trkpt>
      <trkpt lat="39.0892860" lon="1.5365600">
        <ele>217.9</ele>
        <time>2020-02-23T14:02:44Z</time>
      </trkpt>
      <trkpt lat="39.0892680" lon="1.5365320">
        <ele>218.4</ele>
        <time>2020-02-23T14:02:45Z</time>
      </trkpt>
      <trkpt lat="39.0892500" lon="1.5364970">
        <ele>218.9</ele>
        <time>2020-02-23T14:02:46Z</time>
      </trkpt>
      <trkpt lat="39.0892290" lon="1.5364680">
        <ele>219.3</ele>
        <time>2020-02-23T14:02:47Z</time>
      </trkpt>
      <trkpt lat="39.0892130" lon="1.5364300">
        <ele>219.9</ele>
        <time>2020-02-23T14:02:48Z</time>
      </trkpt>
      <trkpt lat="39.0891970" lon="1.5363970">
        <ele>220.3</ele>
        <time>2020-02-23T14:02:49Z</time>
      </trkpt>
      <trkpt lat="39.0891800" lon="1.5363530">
        <ele>220.6</ele>
        <time>2020-02-23T14:02:50Z</time>
      </trkpt>
      <trkpt lat="39.0891780" lon="1.5363370">
        <ele>220.7</ele>
        <time>2020-02-23T14:02:51Z</time>
      </trkpt>
      <trkpt lat="39.0891710" lon="1.5362900">
        <ele>221.0</ele>
        <time>2020-02-23T14:02:52Z</time>
      </trkpt>
      <trkpt lat="39.0891680" lon="1.5362740">
        <ele>221.1</ele>
        <time>2020-02-23T14:02:53Z</time>
      </trkpt>
      <trkpt lat="39.0891640" lon="1.5362540">
        <ele>221.2</ele>
        <time>2020-02-23T14:02:54Z</time>
      </trkpt>
      <trkpt lat="39.0891600" lon="1.5362340">
        <ele>221.3</ele>
        <time>2020-02-23T14:02:55Z</time>
      </trkpt>
      <trkpt lat="39.0891590" lon="1.5362110">
        <ele>221.5</ele>
        <time>2020-02-23T14:02:56Z</time>
      </trkpt>
      <trkpt lat="39.0891550" lon="1.5361890">
        <ele>221.7</ele>
        <time>2020-02-23T14:02:57Z</time>
      </trkpt>
      <trkpt lat="39.0891470" lon="1.5361520">
        <ele>222.0</ele>
        <time>2020-02-23T14:02:58Z</time>
      </trkpt>
      <trkpt lat="39.0891440" lon="1.5361380">
        <ele>222.1</ele>
        <time>2020-02-23T14:02:59Z</time>
      </trkpt>
      <trkpt lat="39.0891390" lon="1.5360940">
        <ele>222.4</ele>
        <time>2020-02-23T14:03:00Z</time>
      </trkpt>
      <trkpt lat="39.0891380" lon="1.5360790">
        <ele>222.5</ele>
        <time>2020-02-23T14:03:01Z</time>
      </trkpt>
      <trkpt lat="39.0891350" lon="1.5360300">
        <ele>222.9</ele>
        <time>2020-02-23T14:03:02Z</time>
      </trkpt>
      <trkpt lat="39.0891330" lon="1.5360130">
        <ele>223.0</ele>
        <time>2020-02-23T14:03:03Z</time>
      </trkpt>
      <trkpt lat="39.0891310" lon="1.5359740">
        <ele>223.2</ele>
        <time>2020-02-23T14:03:04Z</time>
      </trkpt>
      <trkpt lat="39.0891300" lon="1.5359260">
        <ele>223.5</ele>
        <time>2020-02-23T14:03:05Z</time>
      </trkpt>
      <trkpt lat="39.0891270" lon="1.5359120">
        <ele>223.5</ele>
        <time>2020-02-23T14:03:06Z</time>
      </trkpt>
      <trkpt lat="39.0891210" lon="1.5358710">
        <ele>223.6</ele>
        <time>2020-02-23T14:03:07Z</time>
      </trkpt>
      <trkpt lat="39.0891210" lon="1.5358540">
        <ele>223.7</ele>
        <time>2020-02-23T14:03:08Z</time>
      </trkpt>
      <trkpt lat="39.0891140" lon="1.5358100">
        <ele>223.8</ele>
        <time>2020-02-23T14:03:09Z</time>
      </trkpt>
      <trkpt lat="39.0891120" lon="1.5357970">
        <ele>223.8</ele>
        <time>2020-02-23T14:03:10Z</time>
      </trkpt>
      <trkpt lat="39.0891090" lon="1.5357550">
        <ele>224.0</ele>
        <time>2020-02-23T14:03:11Z</time>
      </trkpt>
      <trkpt lat="39.0891070" lon="1.5357410">
        <ele>224.0</ele>
        <time>2020-02-23T14:03:12Z</time>
      </trkpt>
      <trkpt lat="39.0891070" lon="1.5357200">
        <ele>224.1</ele>
        <time>2020-02-23T14:03:13Z</time>
      </trkpt>
      <trkpt lat="39.0890970" lon="1.5357010">
        <ele>224.1</ele>
        <time>2020-02-23T14:03:14Z</time>
      </trkpt>
      <trkpt lat="39.0890840" lon="1.5356650">
        <ele>224.2</ele>
        <time>2020-02-23T14:03:15Z</time>
      </trkpt>
      <trkpt lat="39.0890810" lon="1.5356490">
        <ele>224.3</ele>
        <time>2020-02-23T14:03:16Z</time>
      </trkpt>
      <trkpt lat="39.0890800" lon="1.5356100">
        <ele>224.4</ele>
        <time>2020-02-23T14:03:17Z</time>
      </trkpt>
      <trkpt lat="39.0890760" lon="1.5355640">
        <ele>224.5</ele>
        <time>2020-02-23T14:03:18Z</time>
      </trkpt>
      <trkpt lat="39.0890740" lon="1.5355480">
        <ele>224.6</ele>
        <time>2020-02-23T14:03:19Z</time>
      </trkpt>
      <trkpt lat="39.0890660" lon="1.5354960">
        <ele>224.8</ele>
        <time>2020-02-23T14:03:20Z</time>
      </trkpt>
      <trkpt lat="39.0890640" lon="1.5354770">
        <ele>224.9</ele>
        <time>2020-02-23T14:03:21Z</time>
      </trkpt>
      <trkpt lat="39.0890670" lon="1.5354280">
        <ele>225.1</ele>
        <time>2020-02-23T14:03:22Z</time>
      </trkpt>
      <trkpt lat="39.0890690" lon="1.5354110">
        <ele>225.2</ele>
        <time>2020-02-23T14:03:23Z</time>
      </trkpt>
      <trkpt lat="39.0890780" lon="1.5353640">
        <ele>225.3</ele>
        <time>2020-02-23T14:03:24Z</time>
      </trkpt>
      <trkpt lat="39.0890830" lon="1.5353420">
        <ele>225.4</ele>
        <time>2020-02-23T14:03:25Z</time>
      </trkpt>
      <trkpt lat="39.0890840" lon="1.5353060">
        <ele>225.5</ele>
        <time>2020-02-23T14:03:26Z</time>
      </trkpt>
      <trkpt lat="39.0890950" lon="1.5352560">
        <ele>225.7</ele>
        <time>2020-02-23T14:03:27Z</time>
      </trkpt>
      <trkpt lat="39.0890990" lon="1.5352370">
        <ele>225.7</ele>
        <time>2020-02-23T14:03:28Z</time>
      </trkpt>
      <trkpt lat="39.0891090" lon="1.5351970">
        <ele>225.9</ele>
        <time>2020-02-23T14:03:29Z</time>
      </trkpt>
      <trkpt lat="39.0891100" lon="1.5351850">
        <ele>225.9</ele>
        <time>2020-02-23T14:03:30Z</time>
      </trkpt>
      <trkpt lat="39.0891280" lon="1.5351430">
        <ele>226.1</ele>
        <time>2020-02-23T14:03:31Z</time>
      </trkpt>
      <trkpt lat="39.0891340" lon="1.5351280">
        <ele>226.1</ele>
        <time>2020-02-23T14:03:32Z</time>
      </trkpt>
      <trkpt lat="39.0891460" lon="1.5350840">
        <ele>226.3</ele>
        <time>2020-02-23T14:03:33Z</time>
      </trkpt>
      <trkpt lat="39.0891530" lon="1.5350480">
        <ele>226.4</ele>
        <time>2020-02-23T14:03:34Z</time>
      </trkpt>
      <trkpt lat="39.0891630" lon="1.5350160">
        <ele>226.5</ele>
        <time>2020-02-23T14:03:35Z</time>
      </trkpt>
      <trkpt lat="39.0891700" lon="1.5349810">
        <ele>226.6</ele>
        <time>2020-02-23T14:03:36Z</time>
      </trkpt>
      <trkpt lat="39.0891840" lon="1.5349450">
        <ele>226.7</ele>
        <time>2020-02-23T14:03:37Z</time>
      </trkpt>
      <trkpt lat="39.0891930" lon="1.5349080">
        <ele>226.9</ele>
        <time>2020-02-23T14:03:38Z</time>
      </trkpt>
      <trkpt lat="39.0891950" lon="1.5348960">
        <ele>226.9</ele>
        <time>2020-02-23T14:03:39Z</time>
      </trkpt>
      <trkpt lat="39.0892090" lon="1.5348590">
        <ele>227.0</ele>
        <time>2020-02-23T14:03:40Z</time>
      </trkpt>
      <trkpt lat="39.0892200" lon="1.5348420">
        <ele>227.1</ele>
        <time>2020-02-23T14:03:41Z</time>
      </trkpt>
      <trkpt lat="39.0892250" lon="1.5348220">
        <ele>227.2</ele>
        <time>2020-02-23T14:03:42Z</time>
      </trkpt>
      <trkpt lat="39.0892270" lon="1.5347800">
        <ele>227.3</ele>
        <time>2020-02-23T14:03:43Z</time>
      </trkpt>
      <trkpt lat="39.0892290" lon="1.5347640">
        <ele>227.3</ele>
        <time>2020-02-23T14:03:44Z</time>
      </trkpt>
      <trkpt lat="39.0892410" lon="1.5347320">
        <ele>227.4</ele>
        <time>2020-02-23T14:03:45Z</time>
      </trkpt>
      <trkpt lat="39.0892510" lon="1.5346990">
        <ele>227.6</ele>
        <time>2020-02-23T14:03:46Z</time>
      </trkpt>
      <trkpt lat="39.0892650" lon="1.5346590">
        <ele>227.8</ele>
        <time>2020-02-23T14:03:47Z</time>
      </trkpt>
      <trkpt lat="39.0892680" lon="1.5346450">
        <ele>227.8</ele>
        <time>2020-02-23T14:03:48Z</time>
      </trkpt>
      <trkpt lat="39.0892800" lon="1.5346050">
        <ele>228.0</ele>
        <time>2020-02-23T14:03:49Z</time>
      </trkpt>
      <trkpt lat="39.0892830" lon="1.5345920">
        <ele>228.1</ele>
        <time>2020-02-23T14:03:50Z</time>
      </trkpt>
      <trkpt lat="39.0892920" lon="1.5345560">
        <ele>228.3</ele>
        <time>2020-02-23T14:03:51Z</time>
      </trkpt>
      <trkpt lat="39.0892960" lon="1.5345430">
        <ele>228.3</ele>
        <time>2020-02-23T14:03:52Z</time>
      </trkpt>
      <trkpt lat="39.0893080" lon="1.5345070">
        <ele>228.5</ele>
        <time>2020-02-23T14:03:53Z</time>
      </trkpt>
      <trkpt lat="39.0893140" lon="1.5344940">
        <ele>228.6</ele>
        <time>2020-02-23T14:03:54Z</time>
      </trkpt>
      <trkpt lat="39.0893310" lon="1.5344570">
        <ele>228.8</ele>
        <time>2020-02-23T14:03:55Z</time>
      </trkpt>
      <trkpt lat="39.0893370" lon="1.5344430">
        <ele>228.8</ele>
        <time>2020-02-23T14:03:56Z</time>
      </trkpt>
      <trkpt lat="39.0893530" lon="1.5344130">
        <ele>229.0</ele>
        <time>2020-02-23T14:03:57Z</time>
      </trkpt>
      <trkpt lat="39.0893730" lon="1.5343770">
        <ele>229.4</ele>
        <time>2020-02-23T14:03:58Z</time>
      </trkpt>
      <trkpt lat="39.0893790" lon="1.5343640">
        <ele>229.5</ele>
        <time>2020-02-23T14:03:59Z</time>
      </trkpt>
      <trkpt lat="39.0893990" lon="1.5343320">
        <ele>229.8</ele>
        <time>2020-02-23T14:04:00Z</time>
      </trkpt>
      <trkpt lat="39.0894050" lon="1.5343220">
        <ele>229.9</ele>
        <time>2020-02-23T14:04:01Z</time>
      </trkpt>
      <trkpt lat="39.0894170" lon="1.5342850">
        <ele>230.2</ele>
        <time>2020-02-23T14:04:02Z</time>
      </trkpt>
      <trkpt lat="39.0894190" lon="1.5342740">
        <ele>230.3</ele>
        <time>2020-02-23T14:04:03Z</time>
      </trkpt>
      <trkpt lat="39.0894340" lon="1.5342290">
        <ele>230.6</ele>
        <time>2020-02-23T14:04:04Z</time>
      </trkpt>
      <trkpt lat="39.0894400" lon="1.5342130">
        <ele>230.8</ele>
        <time>2020-02-23T14:04:05Z</time>
      </trkpt>
      <trkpt lat="39.0894500" lon="1.5341700">
        <ele>231.1</ele>
        <time>2020-02-23T14:04:06Z</time>
      </trkpt>
      <trkpt lat="39.0894530" lon="1.5341570">
        <ele>231.2</ele>
        <time>2020-02-23T14:04:07Z</time>
      </trkpt>
      <trkpt lat="39.0894490" lon="1.5341420">
        <ele>231.3</ele>
        <time>2020-02-23T14:04:08Z</time>
      </trkpt>
      <trkpt lat="39.0894440" lon="1.5341220">
        <ele>231.4</ele>
        <time>2020-02-23T14:04:09Z</time>
      </trkpt>
      <trkpt lat="39.0894450" lon="1.5340710">
        <ele>231.7</ele>
        <time>2020-02-23T14:04:10Z</time>
      </trkpt>
      <trkpt lat="39.0894460" lon="1.5340530">
        <ele>231.8</ele>
        <time>2020-02-23T14:04:11Z</time>
      </trkpt>
      <trkpt lat="39.0894520" lon="1.5340140">
        <ele>232.0</ele>
        <time>2020-02-23T14:04:12Z</time>
      </trkpt>
      <trkpt lat="39.0894550" lon="1.5339740">
        <ele>232.2</ele>
        <time>2020-02-23T14:04:13Z</time>
      </trkpt>
      <trkpt lat="39.0894620" lon="1.5339350">
        <ele>232.4</ele>
        <time>2020-02-23T14:04:14Z</time>
      </trkpt>
      <trkpt lat="39.0894590" lon="1.5339090">
        <ele>232.6</ele>
        <time>2020-02-23T14:04:15Z</time>
      </trkpt>
      <trkpt lat="39.0894570" lon="1.5338910">
        <ele>232.6</ele>
        <time>2020-02-23T14:04:16Z</time>
      </trkpt>
      <trkpt lat="39.0894560" lon="1.5338740">
        <ele>232.7</ele>
        <time>2020-02-23T14:04:17Z</time>
      </trkpt>
      <trkpt lat="39.0894490" lon="1.5338290">
        <ele>233.0</ele>
        <time>2020-02-23T14:04:18Z</time>
      </trkpt>
      <trkpt lat="39.0894480" lon="1.5338130">
        <ele>233.0</ele>
        <time>2020-02-23T14:04:19Z</time>
      </trkpt>
      <trkpt lat="39.0894360" lon="1.5337650">
        <ele>233.3</ele>
        <time>2020-02-23T14:04:20Z</time>
      </trkpt>
      <trkpt lat="39.0894310" lon="1.5337490">
        <ele>233.4</ele>
        <time>2020-02-23T14:04:21Z</time>
      </trkpt>
      <trkpt lat="39.0894240" lon="1.5337000">
        <ele>233.6</ele>
        <time>2020-02-23T14:04:22Z</time>
      </trkpt>
      <trkpt lat="39.0894230" lon="1.5336840">
        <ele>233.7</ele>
        <time>2020-02-23T14:04:23Z</time>
      </trkpt>
      <trkpt lat="39.0894120" lon="1.5336370">
        <ele>233.9</ele>
        <time>2020-02-23T14:04:24Z</time>
      </trkpt>
      <trkpt lat="39.0894070" lon="1.5336190">
        <ele>234.0</ele>
        <time>2020-02-23T14:04:25Z</time>
      </trkpt>
      <trkpt lat="39.0893980" lon="1.5335840">
        <ele>234.3</ele>
        <time>2020-02-23T14:04:26Z</time>
      </trkpt>
      <trkpt lat="39.0894020" lon="1.5335400">
        <ele>234.6</ele>
        <time>2020-02-23T14:04:27Z</time>
      </trkpt>
      <trkpt lat="39.0893990" lon="1.5335000">
        <ele>234.8</ele>
        <time>2020-02-23T14:04:28Z</time>
      </trkpt>
      <trkpt lat="39.0893970" lon="1.5334880">
        <ele>234.9</ele>
        <time>2020-02-23T14:04:29Z</time>
      </trkpt>
      <trkpt lat="39.0893920" lon="1.5334510">
        <ele>235.1</ele>
        <time>2020-02-23T14:04:30Z</time>
      </trkpt>
      <trkpt lat="39.0893810" lon="1.5334170">
        <ele>235.3</ele>
        <time>2020-02-23T14:04:31Z</time>
      </trkpt>
      <trkpt lat="39.0893640" lon="1.5333730">
        <ele>235.6</ele>
        <time>2020-02-23T14:04:32Z</time>
      </trkpt>
      <trkpt lat="39.0893580" lon="1.5333570">
        <ele>235.7</ele>
        <time>2020-02-23T14:04:33Z</time>
      </trkpt>
      <trkpt lat="39.0893370" lon="1.5333210">
        <ele>236.0</ele>
        <time>2020-02-23T14:04:34Z</time>
      </trkpt>
      <trkpt lat="39.0893300" lon="1.5333070">
        <ele>236.1</ele>
        <time>2020-02-23T14:04:35Z</time>
      </trkpt>
      <trkpt lat="39.0893130" lon="1.5332730">
        <ele>236.3</ele>
        <time>2020-02-23T14:04:36Z</time>
      </trkpt>
      <trkpt lat="39.0893080" lon="1.5332640">
        <ele>236.3</ele>
        <time>2020-02-23T14:04:37Z</time>
      </trkpt>
      <trkpt lat="39.0892920" lon="1.5332560">
        <ele>236.5</ele>
        <time>2020-02-23T14:04:38Z</time>
      </trkpt>
      <trkpt lat="39.0892780" lon="1.5332400">
        <ele>236.6</ele>
        <time>2020-02-23T14:04:39Z</time>
      </trkpt>
      <trkpt lat="39.0892650" lon="1.5332290">
        <ele>236.7</ele>
        <time>2020-02-23T14:04:40Z</time>
      </trkpt>
      <trkpt lat="39.0892470" lon="1.5332200">
        <ele>236.9</ele>
        <time>2020-02-23T14:04:41Z</time>
      </trkpt>
      <trkpt lat="39.0892160" lon="1.5332050">
        <ele>237.1</ele>
        <time>2020-02-23T14:04:42Z</time>
      </trkpt>
      <trkpt lat="39.0892050" lon="1.5331980">
        <ele>237.2</ele>
        <time>2020-02-23T14:04:43Z</time>
      </trkpt>
      <trkpt lat="39.0891820" lon="1.5331770">
        <ele>237.4</ele>
        <time>2020-02-23T14:04:44Z</time>
      </trkpt>
      <trkpt lat="39.0891740" lon="1.5331720">
        <ele>237.5</ele>
        <time>2020-02-23T14:04:45Z</time>
      </trkpt>
      <trkpt lat="39.0891480" lon="1.5331640">
        <ele>237.6</ele>
        <time>2020-02-23T14:04:46Z</time>
      </trkpt>
      <trkpt lat="39.0891400" lon="1.5331620">
        <ele>237.7</ele>
        <time>2020-02-23T14:04:47Z</time>
      </trkpt>
      <trkpt lat="39.0891310" lon="1.5331590">
        <ele>237.7</ele>
        <time>2020-02-23T14:04:48Z</time>
      </trkpt>
      <trkpt lat="39.0891150" lon="1.5331500">
        <ele>237.8</ele>
        <time>2020-02-23T14:04:49Z</time>
      </trkpt>
      <trkpt lat="39.0891000" lon="1.5331420">
        <ele>237.9</ele>
        <time>2020-02-23T14:04:50Z</time>
      </trkpt>
      <trkpt lat="39.0890840" lon="1.5331310">
        <ele>238.0</ele>
        <time>2020-02-23T14:04:51Z</time>
      </trkpt>
      <trkpt lat="39.0890690" lon="1.5331190">
        <ele>238.1</ele>
        <time>2020-02-23T14:04:52Z</time>
      </trkpt>
      <trkpt lat="39.0890440" lon="1.5330960">
        <ele>238.2</ele>
        <time>2020-02-23T14:04:53Z</time>
      </trkpt>
      <trkpt lat="39.0890360" lon="1.5330880">
        <ele>238.3</ele>
        <time>2020-02-23T14:04:54Z</time>
      </trkpt>
      <trkpt lat="39.0890140" lon="1.5330610">
        <ele>238.4</ele>
        <time>2020-02-23T14:04:55Z</time>
      </trkpt>
      <trkpt lat="39.0890060" lon="1.5330520">
        <ele>238.5</ele>
        <time>2020-02-23T14:04:56Z</time>
      </trkpt>
      <trkpt lat="39.0889810" lon="1.5330290">
        <ele>238.7</ele>
        <time>2020-02-23T14:04:57Z</time>
      </trkpt>
      <trkpt lat="39.0889720" lon="1.5330220">
        <ele>238.8</ele>
        <time>2020-02-23T14:04:58Z</time>
      </trkpt>
      <trkpt lat="39.0889500" lon="1.5329930">
        <ele>239.0</ele>
        <time>2020-02-23T14:04:59Z</time>
      </trkpt>
      <trkpt lat="39.0889410" lon="1.5329830">
        <ele>239.1</ele>
        <time>2020-02-23T14:05:00Z</time>
      </trkpt>
      <trkpt lat="39.0889190" lon="1.5329610">
        <ele>239.3</ele>
        <time>2020-02-23T14:05:01Z</time>
      </trkpt>
      <trkpt lat="39.0888970" lon="1.5329390">
        <ele>239.5</ele>
        <time>2020-02-23T14:05:02Z</time>
      </trkpt>
      <trkpt lat="39.0888640" lon="1.5329200">
        <ele>239.7</ele>
        <time>2020-02-23T14:05:03Z</time>
      </trkpt>
      <trkpt lat="39.0888530" lon="1.5329170">
        <ele>239.8</ele>
        <time>2020-02-23T14:05:04Z</time>
      </trkpt>
      <trkpt lat="39.0888200" lon="1.5329200">
        <ele>240.0</ele>
        <time>2020-02-23T14:05:05Z</time>
      </trkpt>
      <trkpt lat="39.0888080" lon="1.5329240">
        <ele>240.0</ele>
        <time>2020-02-23T14:05:06Z</time>
      </trkpt>
      <trkpt lat="39.0887720" lon="1.5329270">
        <ele>240.2</ele>
        <time>2020-02-23T14:05:07Z</time>
      </trkpt>
      <trkpt lat="39.0887610" lon="1.5329270">
        <ele>240.2</ele>
        <time>2020-02-23T14:05:08Z</time>
      </trkpt>
      <trkpt lat="39.0887320" lon="1.5329350">
        <ele>240.4</ele>
        <time>2020-02-23T14:05:09Z</time>
      </trkpt>
      <trkpt lat="39.0887220" lon="1.5329380">
        <ele>240.4</ele>
        <time>2020-02-23T14:05:10Z</time>
      </trkpt>
      <trkpt lat="39.0887060" lon="1.5329450">
        <ele>240.5</ele>
        <time>2020-02-23T14:05:11Z</time>
      </trkpt>
      <trkpt lat="39.0886900" lon="1.5329500">
        <ele>240.6</ele>
        <time>2020-02-23T14:05:12Z</time>
      </trkpt>
      <trkpt lat="39.0886620" lon="1.5329590">
        <ele>240.7</ele>
        <time>2020-02-23T14:05:13Z</time>
      </trkpt>
      <trkpt lat="39.0886540" lon="1.5329620">
        <ele>240.8</ele>
        <time>2020-02-23T14:05:14Z</time>
      </trkpt>
      <trkpt lat="39.0886260" lon="1.5329590">
        <ele>240.9</ele>
        <time>2020-02-23T14:05:15Z</time>
      </trkpt>
      <trkpt lat="39.0886160" lon="1.5329560">
        <ele>241.0</ele>
        <time>2020-02-23T14:05:16Z</time>
      </trkpt>
      <trkpt lat="39.0886010" lon="1.5329520">
        <ele>241.1</ele>
        <time>2020-02-23T14:05:17Z</time>
      </trkpt>
      <trkpt lat="39.0885840" lon="1.5329600">
        <ele>241.2</ele>
        <time>2020-02-23T14:05:18Z</time>
      </trkpt>
      <trkpt lat="39.0885540" lon="1.5329660">
        <ele>241.4</ele>
        <time>2020-02-23T14:05:19Z</time>
      </trkpt>
      <trkpt lat="39.0885440" lon="1.5329680">
        <ele>241.5</ele>
        <time>2020-02-23T14:05:20Z</time>
      </trkpt>
      <trkpt lat="39.0885130" lon="1.5329770">
        <ele>241.7</ele>
        <time>2020-02-23T14:05:21Z</time>
      </trkpt>
      <trkpt lat="39.0885010" lon="1.5329800">
        <ele>241.8</ele>
        <time>2020-02-23T14:05:22Z</time>
      </trkpt>
      <trkpt lat="39.0884870" lon="1.5329890">
        <ele>241.9</ele>
        <time>2020-02-23T14:05:23Z</time>
      </trkpt>
      <trkpt lat="39.0884740" lon="1.5329990">
        <ele>242.1</ele>
        <time>2020-02-23T14:05:24Z</time>
      </trkpt>
      <trkpt lat="39.0884560" lon="1.5330120">
        <ele>242.2</ele>
        <time>2020-02-23T14:05:25Z</time>
      </trkpt>
      <trkpt lat="39.0884410" lon="1.5330190">
        <ele>242.4</ele>
        <time>2020-02-23T14:05:26Z</time>
      </trkpt>
      <trkpt lat="39.0884240" lon="1.5330230">
        <ele>242.6</ele>
        <time>2020-02-23T14:05:27Z</time>
      </trkpt>
      <trkpt lat="39.0884050" lon="1.5330260">
        <ele>242.8</ele>
        <time>2020-02-23T14:05:28Z</time>
      </trkpt>
      <trkpt lat="39.0883680" lon="1.5330180">
        <ele>243.3</ele>
        <time>2020-02-23T14:05:29Z</time>
      </trkpt>
      <trkpt lat="39.0883560" lon="1.5330150">
        <ele>243.4</ele>
        <time>2020-02-23T14:05:30Z</time>
      </trkpt>
      <trkpt lat="39.0883240" lon="1.5329910">
        <ele>243.9</ele>
        <time>2020-02-23T14:05:31Z</time>
      </trkpt>
      <trkpt lat="39.0883150" lon="1.5329800">
        <ele>244.1</ele>
        <time>2020-02-23T14:05:32Z</time>
      </trkpt>
      <trkpt lat="39.0882910" lon="1.5329480">
        <ele>244.6</ele>
        <time>2020-02-23T14:05:33Z</time>
      </trkpt>
      <trkpt lat="39.0882820" lon="1.5329400">
        <ele>244.8</ele>
        <time>2020-02-23T14:05:34Z</time>
      </trkpt>
      <trkpt lat="39.0882570" lon="1.5329120">
        <ele>245.3</ele>
        <time>2020-02-23T14:05:35Z</time>
      </trkpt>
      <trkpt lat="39.0882490" lon="1.5329050">
        <ele>245.4</ele>
        <time>2020-02-23T14:05:36Z</time>
      </trkpt>
      <trkpt lat="39.0882270" lon="1.5328710">
        <ele>245.9</ele>
        <time>2020-02-23T14:05:37Z</time>
      </trkpt>
      <trkpt lat="39.0882190" lon="1.5328610">
        <ele>246.1</ele>
        <time>2020-02-23T14:05:38Z</time>
      </trkpt>
      <trkpt lat="39.0882040" lon="1.5328280">
        <ele>246.6</ele>
        <time>2020-02-23T14:05:39Z</time>
      </trkpt>
      <trkpt lat="39.0882000" lon="1.5328190">
        <ele>246.7</ele>
        <time>2020-02-23T14:05:40Z</time>
      </trkpt>
      <trkpt lat="39.0881790" lon="1.5327890">
        <ele>247.2</ele>
        <time>2020-02-23T14:05:41Z</time>
      </trkpt>
      <trkpt lat="39.0881710" lon="1.5327760">
        <ele>247.4</ele>
        <time>2020-02-23T14:05:42Z</time>
      </trkpt>
      <trkpt lat="39.0881490" lon="1.5327430">
        <ele>247.9</ele>
        <time>2020-02-23T14:05:43Z</time>
      </trkpt>
      <trkpt lat="39.0881390" lon="1.5327310">
        <ele>248.1</ele>
        <time>2020-02-23T14:05:44Z</time>
      </trkpt>
      <trkpt lat="39.0881200" lon="1.5327060">
        <ele>248.5</ele>
        <time>2020-02-23T14:05:45Z</time>
      </trkpt>
      <trkpt lat="39.0880890" lon="1.5326790">
        <ele>249.0</ele>
        <time>2020-02-23T14:05:46Z</time>
      </trkpt>
      <trkpt lat="39.0880790" lon="1.5326730">
        <ele>249.2</ele>
        <time>2020-02-23T14:05:47Z</time>
      </trkpt>
      <trkpt lat="39.0880470" lon="1.5326520">
        <ele>249.6</ele>
        <time>2020-02-23T14:05:48Z</time>
      </trkpt>
      <trkpt lat="39.0880330" lon="1.5326450">
        <ele>249.8</ele>
        <time>2020-02-23T14:05:49Z</time>
      </trkpt>
      <trkpt lat="39.0880080" lon="1.5326130">
        <ele>250.3</ele>
        <time>2020-02-23T14:05:50Z</time>
      </trkpt>
      <trkpt lat="39.0879990" lon="1.5326040">
        <ele>250.4</ele>
        <time>2020-02-23T14:05:51Z</time>
      </trkpt>
      <trkpt lat="39.0879800" lon="1.5325780">
        <ele>250.8</ele>
        <time>2020-02-23T14:05:52Z</time>
      </trkpt>
      <trkpt lat="39.0879720" lon="1.5325700">
        <ele>250.9</ele>
        <time>2020-02-23T14:05:53Z</time>
      </trkpt>
      <trkpt lat="39.0879450" lon="1.5325500">
        <ele>251.3</ele>
        <time>2020-02-23T14:05:54Z</time>
      </trkpt>
      <trkpt lat="39.0879340" lon="1.5325440">
        <ele>251.4</ele>
        <time>2020-02-23T14:05:55Z</time>
      </trkpt>
      <trkpt lat="39.0879050" lon="1.5325510">
        <ele>251.8</ele>
        <time>2020-02-23T14:05:56Z</time>
      </trkpt>
      <trkpt lat="39.0878940" lon="1.5325550">
        <ele>252.0</ele>
        <time>2020-02-23T14:05:57Z</time>
      </trkpt>
      <trkpt lat="39.0878640" lon="1.5325730">
        <ele>252.4</ele>
        <time>2020-02-23T14:05:58Z</time>
      </trkpt>
      <trkpt lat="39.0878550" lon="1.5325780">
        <ele>252.6</ele>
        <time>2020-02-23T14:05:59Z</time>
      </trkpt>
      <trkpt lat="39.0878260" lon="1.5325990">
        <ele>252.9</ele>
        <time>2020-02-23T14:06:00Z</time>
      </trkpt>
      <trkpt lat="39.0878160" lon="1.5326060">
        <ele>253.1</ele>
        <time>2020-02-23T14:06:01Z</time>
      </trkpt>
      <trkpt lat="39.0877870" lon="1.5326290">
        <ele>253.4</ele>
        <time>2020-02-23T14:06:02Z</time>
      </trkpt>
      <trkpt lat="39.0877760" lon="1.5326360">
        <ele>253.6</ele>
        <time>2020-02-23T14:06:03Z</time>
      </trkpt>
      <trkpt lat="39.0877430" lon="1.5326580">
        <ele>254.0</ele>
        <time>2020-02-23T14:06:04Z</time>
      </trkpt>
      <trkpt lat="39.0877320" lon="1.5326640">
        <ele>254.1</ele>
        <time>2020-02-23T14:06:05Z</time>
      </trkpt>
      <trkpt lat="39.0877050" lon="1.5326710">
        <ele>254.2</ele>
        <time>2020-02-23T14:06:06Z</time>
      </trkpt>
      <trkpt lat="39.0876720" lon="1.5326730">
        <ele>254.5</ele>
        <time>2020-02-23T14:06:07Z</time>
      </trkpt>
      <trkpt lat="39.0876450" lon="1.5326690">
        <ele>254.7</ele>
        <time>2020-02-23T14:06:08Z</time>
      </trkpt>
      <trkpt lat="39.0876140" lon="1.5326590">
        <ele>255.0</ele>
        <time>2020-02-23T14:06:09Z</time>
      </trkpt>
      <trkpt lat="39.0876030" lon="1.5326590">
        <ele>255.0</ele>
        <time>2020-02-23T14:06:10Z</time>
      </trkpt>
      <trkpt lat="39.0875750" lon="1.5326480">
        <ele>255.2</ele>
        <time>2020-02-23T14:06:11Z</time>
      </trkpt>
      <trkpt lat="39.0875630" lon="1.5326430">
        <ele>255.3</ele>
        <time>2020-02-23T14:06:12Z</time>
      </trkpt>
      <trkpt lat="39.0875290" lon="1.5326290">
        <ele>255.6</ele>
        <time>2020-02-23T14:06:13Z</time>
      </trkpt>
      <trkpt lat="39.0875180" lon="1.5326220">
        <ele>255.7</ele>
        <time>2020-02-23T14:06:14Z</time>
      </trkpt>
      <trkpt lat="39.0874870" lon="1.5326040">
        <ele>255.9</ele>
        <time>2020-02-23T14:06:15Z</time>
      </trkpt>
      <trkpt lat="39.0874770" lon="1.5326000">
        <ele>255.9</ele>
        <time>2020-02-23T14:06:16Z</time>
      </trkpt>
      <trkpt lat="39.0874560" lon="1.5325770">
        <ele>256.1</ele>
        <time>2020-02-23T14:06:17Z</time>
      </trkpt>
      <trkpt lat="39.0874490" lon="1.5325680">
        <ele>256.2</ele>
        <time>2020-02-23T14:06:18Z</time>
      </trkpt>
      <trkpt lat="39.0874250" lon="1.5325430">
        <ele>256.4</ele>
        <time>2020-02-23T14:06:19Z</time>
      </trkpt>
      <trkpt lat="39.0874180" lon="1.5325340">
        <ele>256.4</ele>
        <time>2020-02-23T14:06:20Z</time>
      </trkpt>
      <trkpt lat="39.0873980" lon="1.5325050">
        <ele>256.6</ele>
        <time>2020-02-23T14:06:21Z</time>
      </trkpt>
      <trkpt lat="39.0873910" lon="1.5325000">
        <ele>256.7</ele>
        <time>2020-02-23T14:06:22Z</time>
      </trkpt>
      <trkpt lat="39.0873790" lon="1.5324900">
        <ele>256.7</ele>
        <time>2020-02-23T14:06:23Z</time>
      </trkpt>
      <trkpt lat="39.0873660" lon="1.5324760">
        <ele>256.9</ele>
        <time>2020-02-23T14:06:24Z</time>
      </trkpt>
      <trkpt lat="39.0873500" lon="1.5324440">
        <ele>257.0</ele>
        <time>2020-02-23T14:06:25Z</time>
      </trkpt>
      <trkpt lat="39.0873430" lon="1.5324310">
        <ele>257.1</ele>
        <time>2020-02-23T14:06:26Z</time>
      </trkpt>
      <trkpt lat="39.0873320" lon="1.5323960">
        <ele>257.3</ele>
        <time>2020-02-23T14:06:27Z</time>
      </trkpt>
      <trkpt lat="39.0873270" lon="1.5323850">
        <ele>257.3</ele>
        <time>2020-02-23T14:06:28Z</time>
      </trkpt>
      <trkpt lat="39.0873150" lon="1.5323670">
        <ele>257.4</ele>
        <time>2020-02-23T14:06:29Z</time>
      </trkpt>
      <trkpt lat="39.0873080" lon="1.5323490">
        <ele>257.5</ele>
        <time>2020-02-23T14:06:30Z</time>
      </trkpt>
      <trkpt lat="39.0872990" lon="1.5323330">
        <ele>257.6</ele>
        <time>2020-02-23T14:06:31Z</time>
      </trkpt>
      <trkpt lat="39.0872920" lon="1.5323200">
        <ele>257.7</ele>
        <time>2020-02-23T14:06:32Z</time>
      </trkpt>
      <trkpt lat="39.0872710" lon="1.5322920">
        <ele>257.9</ele>
        <time>2020-02-23T14:06:33Z</time>
      </trkpt>
      <trkpt lat="39.0872620" lon="1.5322850">
        <ele>258.0</ele>
        <time>2020-02-23T14:06:34Z</time>
      </trkpt>
      <trkpt lat="39.0872370" lon="1.5322520">
        <ele>258.2</ele>
        <time>2020-02-23T14:06:35Z</time>
      </trkpt>
      <trkpt lat="39.0872300" lon="1.5322420">
        <ele>258.3</ele>
        <time>2020-02-23T14:06:36Z</time>
      </trkpt>
      <trkpt lat="39.0872070" lon="1.5322150">
        <ele>258.5</ele>
        <time>2020-02-23T14:06:37Z</time>
      </trkpt>
      <trkpt lat="39.0871980" lon="1.5322080">
        <ele>258.6</ele>
        <time>2020-02-23T14:06:38Z</time>
      </trkpt>
      <trkpt lat="39.0871760" lon="1.5321830">
        <ele>258.8</ele>
        <time>2020-02-23T14:06:39Z</time>
      </trkpt>
      <trkpt lat="39.0871690" lon="1.5321760">
        <ele>258.8</ele>
        <time>2020-02-23T14:06:40Z</time>
      </trkpt>
      <trkpt lat="39.0871590" lon="1.5321570">
        <ele>259.0</ele>
        <time>2020-02-23T14:06:41Z</time>
      </trkpt>
      <trkpt lat="39.0871510" lon="1.5321380">
        <ele>259.1</ele>
        <time>2020-02-23T14:06:42Z</time>
      </trkpt>
      <trkpt lat="39.0871340" lon="1.5321070">
        <ele>259.4</ele>
        <time>2020-02-23T14:06:43Z</time>
      </trkpt>
      <trkpt lat="39.0871270" lon="1.5320970">
        <ele>259.5</ele>
        <time>2020-02-23T14:06:44Z</time>
      </trkpt>
      <trkpt lat="39.0871070" lon="1.5320620">
        <ele>259.7</ele>
        <time>2020-02-23T14:06:45Z</time>
      </trkpt>
      <trkpt lat="39.0871010" lon="1.5320500">
        <ele>259.8</ele>
        <time>2020-02-23T14:06:46Z</time>
      </trkpt>
      <trkpt lat="39.0870880" lon="1.5320180">
        <ele>260.1</ele>
        <time>2020-02-23T14:06:47Z</time>
      </trkpt>
      <trkpt lat="39.0870840" lon="1.5320090">
        <ele>260.1</ele>
        <time>2020-02-23T14:06:48Z</time>
      </trkpt>
      <trkpt lat="39.0870810" lon="1.5319860">
        <ele>260.3</ele>
        <time>2020-02-23T14:06:49Z</time>
      </trkpt>
      <trkpt lat="39.0870730" lon="1.5319690">
        <ele>260.4</ele>
        <time>2020-02-23T14:06:50Z</time>
      </trkpt>
      <trkpt lat="39.0870660" lon="1.5319560">
        <ele>260.5</ele>
        <time>2020-02-23T14:06:51Z</time>
      </trkpt>
      <trkpt lat="39.0870520" lon="1.5319360">
        <ele>260.7</ele>
        <time>2020-02-23T14:06:52Z</time>
      </trkpt>
      <trkpt lat="39.0870430" lon="1.5319180">
        <ele>260.9</ele>
        <time>2020-02-23T14:06:53Z</time>
      </trkpt>
      <trkpt lat="39.0870370" lon="1.5319030">
        <ele>261.0</ele>
        <time>2020-02-23T14:06:54Z</time>
      </trkpt>
      <trkpt lat="39.0870200" lon="1.5318910">
        <ele>261.2</ele>
        <time>2020-02-23T14:06:55Z</time>
      </trkpt>
      <trkpt lat="39.0870060" lon="1.5318830">
        <ele>261.3</ele>
        <time>2020-02-23T14:06:56Z</time>
      </trkpt>
      <trkpt lat="39.0869760" lon="1.5318660">
        <ele>261.6</ele>
        <time>2020-02-23T14:06:57Z</time>
      </trkpt>
      <trkpt lat="39.0869700" lon="1.5318590">
        <ele>261.7</ele>
        <time>2020-02-23T14:06:58Z</time>
      </trkpt>
      <trkpt lat="39.0869470" lon="1.5318200">
        <ele>262.0</ele>
        <time>2020-02-23T14:06:59Z</time>
      </trkpt>
      <trkpt lat="39.0869380" lon="1.5318080">
        <ele>262.1</ele>
        <time>2020-02-23T14:07:00Z</time>
      </trkpt>
      <trkpt lat="39.0869140" lon="1.5317840">
        <ele>262.4</ele>
        <time>2020-02-23T14:07:01Z</time>
      </trkpt>
      <trkpt lat="39.0869060" lon="1.5317780">
        <ele>262.5</ele>
        <time>2020-02-23T14:07:02Z</time>
      </trkpt>
      <trkpt lat="39.0868840" lon="1.5317530">
        <ele>262.7</ele>
        <time>2020-02-23T14:07:03Z</time>
      </trkpt>
      <trkpt lat="39.0868750" lon="1.5317420">
        <ele>262.8</ele>
        <time>2020-02-23T14:07:04Z</time>
      </trkpt>
      <trkpt lat="39.0868670" lon="1.5317280">
        <ele>262.9</ele>
        <time>2020-02-23T14:07:05Z</time>
      </trkpt>
      <trkpt lat="39.0868530" lon="1.5317070">
        <ele>263.1</ele>
        <time>2020-02-23T14:07:06Z</time>
      </trkpt>
      <trkpt lat="39.0868320" lon="1.5316820">
        <ele>263.3</ele>
        <time>2020-02-23T14:07:07Z</time>
      </trkpt>
      <trkpt lat="39.0868250" lon="1.5316770">
        <ele>263.4</ele>
        <time>2020-02-23T14:07:08Z</time>
      </trkpt>
      <trkpt lat="39.0868110" lon="1.5316640">
        <ele>263.5</ele>
        <time>2020-02-23T14:07:09Z</time>
      </trkpt>
      <trkpt lat="39.0867980" lon="1.5316440">
        <ele>263.7</ele>
        <time>2020-02-23T14:07:10Z</time>
      </trkpt>
      <trkpt lat="39.0867810" lon="1.5316130">
        <ele>264.0</ele>
        <time>2020-02-23T14:07:11Z</time>
      </trkpt>
      <trkpt lat="39.0867750" lon="1.5315990">
        <ele>264.1</ele>
        <time>2020-02-23T14:07:12Z</time>
      </trkpt>
      <trkpt lat="39.0867640" lon="1.5315510">
        <ele>264.4</ele>
        <time>2020-02-23T14:07:13Z</time>
      </trkpt>
      <trkpt lat="39.0867600" lon="1.5315340">
        <ele>264.5</ele>
        <time>2020-02-23T14:07:14Z</time>
      </trkpt>
      <trkpt lat="39.0867480" lon="1.5315030">
        <ele>264.7</ele>
        <time>2020-02-23T14:07:15Z</time>
      </trkpt>
      <trkpt lat="39.0867430" lon="1.5314920">
        <ele>264.8</ele>
        <time>2020-02-23T14:07:16Z</time>
      </trkpt>
      <trkpt lat="39.0867250" lon="1.5314640">
        <ele>265.1</ele>
        <time>2020-02-23T14:07:17Z</time>
      </trkpt>
      <trkpt lat="39.0867180" lon="1.5314540">
        <ele>265.2</ele>
        <time>2020-02-23T14:07:18Z</time>
      </trkpt>
      <trkpt lat="39.0866970" lon="1.5314100">
        <ele>265.5</ele>
        <time>2020-02-23T14:07:19Z</time>
      </trkpt>
      <trkpt lat="39.0866890" lon="1.5313960">
        <ele>265.6</ele>
        <time>2020-02-23T14:07:20Z</time>
      </trkpt>
      <trkpt lat="39.0866630" lon="1.5313670">
        <ele>265.9</ele>
        <time>2020-02-23T14:07:21Z</time>
      </trkpt>
      <trkpt lat="39.0866540" lon="1.5313570">
        <ele>266.0</ele>
        <time>2020-02-23T14:07:22Z</time>
      </trkpt>
      <trkpt lat="39.0866440" lon="1.5313200">
        <ele>266.2</ele>
        <time>2020-02-23T14:07:23Z</time>
      </trkpt>
      <trkpt lat="39.0866400" lon="1.5313060">
        <ele>266.3</ele>
        <time>2020-02-23T14:07:24Z</time>
      </trkpt>
      <trkpt lat="39.0866120" lon="1.5312730">
        <ele>266.7</ele>
        <time>2020-02-23T14:07:25Z</time>
      </trkpt>
      <trkpt lat="39.0866010" lon="1.5312640">
        <ele>266.8</ele>
        <time>2020-02-23T14:07:26Z</time>
      </trkpt>
      <trkpt lat="39.0865800" lon="1.5312280">
        <ele>267.1</ele>
        <time>2020-02-23T14:07:27Z</time>
      </trkpt>
      <trkpt lat="39.0865590" lon="1.5311950">
        <ele>267.3</ele>
        <time>2020-02-23T14:07:28Z</time>
      </trkpt>
      <trkpt lat="39.0865480" lon="1.5311830">
        <ele>267.4</ele>
        <time>2020-02-23T14:07:29Z</time>
      </trkpt>
      <trkpt lat="39.0865340" lon="1.5311510">
        <ele>267.7</ele>
        <time>2020-02-23T14:07:30Z</time>
      </trkpt>
      <trkpt lat="39.0865310" lon="1.5311390">
        <ele>267.8</ele>
        <time>2020-02-23T14:07:31Z</time>
      </trkpt>
      <trkpt lat="39.0865210" lon="1.5311200">
        <ele>267.9</ele>
        <time>2020-02-23T14:07:32Z</time>
      </trkpt>
      <trkpt lat="39.0865100" lon="1.5311010">
        <ele>268.1</ele>
        <time>2020-02-23T14:07:33Z</time>
      </trkpt>
      <trkpt lat="39.0864980" lon="1.5310660">
        <ele>268.3</ele>
        <time>2020-02-23T14:07:34Z</time>
      </trkpt>
      <trkpt lat="39.0864940" lon="1.5310540">
        <ele>268.4</ele>
        <time>2020-02-23T14:07:35Z</time>
      </trkpt>
      <trkpt lat="39.0864870" lon="1.5310160">
        <ele>268.6</ele>
        <time>2020-02-23T14:07:36Z</time>
      </trkpt>
      <trkpt lat="39.0864850" lon="1.5310040">
        <ele>268.7</ele>
        <time>2020-02-23T14:07:37Z</time>
      </trkpt>
      <trkpt lat="39.0864810" lon="1.5309610">
        <ele>268.9</ele>
        <time>2020-02-23T14:07:38Z</time>
      </trkpt>
      <trkpt lat="39.0864790" lon="1.5309450">
        <ele>269.0</ele>
        <time>2020-02-23T14:07:39Z</time>
      </trkpt>
      <trkpt lat="39.0864740" lon="1.5308920">
        <ele>269.3</ele>
        <time>2020-02-23T14:07:40Z</time>
      </trkpt>
      <trkpt lat="39.0864710" lon="1.5308690">
        <ele>269.4</ele>
        <time>2020-02-23T14:07:41Z</time>
      </trkpt>
      <trkpt lat="39.0864670" lon="1.5308330">
        <ele>269.7</ele>
        <time>2020-02-23T14:07:42Z</time>
      </trkpt>
      <trkpt lat="39.0864620" lon="1.5307860">
        <ele>269.9</ele>
        <time>2020-02-23T14:07:43Z</time>
      </trkpt>
      <trkpt lat="39.0864590" lon="1.5307720">
        <ele>270.0</ele>
        <time>2020-02-23T14:07:44Z</time>
      </trkpt>
      <trkpt lat="39.0864580" lon="1.5307340">
        <ele>270.2</ele>
        <time>2020-02-23T14:07:45Z</time>
      </trkpt>
      <trkpt lat="39.0864580" lon="1.5306950">
        <ele>270.4</ele>
        <time>2020-02-23T14:07:46Z</time>
      </trkpt>
      <trkpt lat="39.0864560" lon="1.5306600">
        <ele>270.6</ele>
        <time>2020-02-23T14:07:47Z</time>
      </trkpt>
      <trkpt lat="39.0864530" lon="1.5306160">
        <ele>270.8</ele>
        <time>2020-02-23T14:07:48Z</time>
      </trkpt>
      <trkpt lat="39.0864510" lon="1.5306010">
        <ele>270.9</ele>
        <time>2020-02-23T14:07:49Z</time>
      </trkpt>
      <trkpt lat="39.0864500" lon="1.5305590">
        <ele>271.1</ele>
        <time>2020-02-23T14:07:50Z</time>
      </trkpt>
      <trkpt lat="39.0864510" lon="1.5305450">
        <ele>271.2</ele>
        <time>2020-02-23T14:07:51Z</time>
      </trkpt>
      <trkpt lat="39.0864530" lon="1.5305040">
        <ele>271.4</ele>
        <time>2020-02-23T14:07:52Z</time>
      </trkpt>
      <trkpt lat="39.0864520" lon="1.5304910">
        <ele>271.5</ele>
        <time>2020-02-23T14:07:53Z</time>
      </trkpt>
      <trkpt lat="39.0864510" lon="1.5304470">
        <ele>271.8</ele>
        <time>2020-02-23T14:07:54Z</time>
      </trkpt>
      <trkpt lat="39.0864500" lon="1.5304330">
        <ele>271.8</ele>
        <time>2020-02-23T14:07:55Z</time>
      </trkpt>
      <trkpt lat="39.0864470" lon="1.5303860">
        <ele>272.1</ele>
        <time>2020-02-23T14:07:56Z</time>
      </trkpt>
      <trkpt lat="39.0864450" lon="1.5303700">
        <ele>272.2</ele>
        <time>2020-02-23T14:07:57Z</time>
      </trkpt>
      <trkpt lat="39.0864410" lon="1.5303250">
        <ele>272.4</ele>
        <time>2020-02-23T14:07:58Z</time>
      </trkpt>
      <trkpt lat="39.0864370" lon="1.5303110">
        <ele>272.5</ele>
        <time>2020-02-23T14:07:59Z</time>
      </trkpt>
      <trkpt lat="39.0864300" lon="1.5302620">
        <ele>272.7</ele>
        <time>2020-02-23T14:08:00Z</time>
      </trkpt>
      <trkpt lat="39.0864280" lon="1.5302430">
        <ele>272.8</ele>
        <time>2020-02-23T14:08:01Z</time>
      </trkpt>
      <trkpt lat="39.0864170" lon="1.5302010">
        <ele>273.1</ele>
        <time>2020-02-23T14:08:02Z</time>
      </trkpt>
      <trkpt lat="39.0864130" lon="1.5301870">
        <ele>273.2</ele>
        <time>2020-02-23T14:08:03Z</time>
      </trkpt>
      <trkpt lat="39.0864060" lon="1.5301420">
        <ele>273.4</ele>
        <time>2020-02-23T14:08:04Z</time>
      </trkpt>
      <trkpt lat="39.0864040" lon="1.5301290">
        <ele>273.5</ele>
        <time>2020-02-23T14:08:05Z</time>
      </trkpt>
      <trkpt lat="39.0864010" lon="1.5300870">
        <ele>273.8</ele>
        <time>2020-02-23T14:08:06Z</time>
      </trkpt>
      <trkpt lat="39.0864000" lon="1.5300740">
        <ele>273.9</ele>
        <time>2020-02-23T14:08:07Z</time>
      </trkpt>
      <trkpt lat="39.0863930" lon="1.5300360">
        <ele>274.1</ele>
        <time>2020-02-23T14:08:08Z</time>
      </trkpt>
      <trkpt lat="39.0863880" lon="1.5300220">
        <ele>274.2</ele>
        <time>2020-02-23T14:08:09Z</time>
      </trkpt>
      <trkpt lat="39.0863790" lon="1.5299750">
        <ele>274.5</ele>
        <time>2020-02-23T14:08:10Z</time>
      </trkpt>
      <trkpt lat="39.0863730" lon="1.5299580">
        <ele>274.7</ele>
        <time>2020-02-23T14:08:11Z</time>
      </trkpt>
      <trkpt lat="39.0863670" lon="1.5299100">
        <ele>275.1</ele>
        <time>2020-02-23T14:08:12Z</time>
      </trkpt>
      <trkpt lat="39.0863670" lon="1.5298930">
        <ele>275.2</ele>
        <time>2020-02-23T14:08:13Z</time>
      </trkpt>
      <trkpt lat="39.0863710" lon="1.5298460">
        <ele>275.6</ele>
        <time>2020-02-23T14:08:14Z</time>
      </trkpt>
      <trkpt lat="39.0863750" lon="1.5298290">
        <ele>275.7</ele>
        <time>2020-02-23T14:08:15Z</time>
      </trkpt>
      <trkpt lat="39.0863910" lon="1.5297880">
        <ele>276.1</ele>
        <time>2020-02-23T14:08:16Z</time>
      </trkpt>
      <trkpt lat="39.0863980" lon="1.5297730">
        <ele>276.3</ele>
        <time>2020-02-23T14:08:17Z</time>
      </trkpt>
      <trkpt lat="39.0864240" lon="1.5297450">
        <ele>276.6</ele>
        <time>2020-02-23T14:08:18Z</time>
      </trkpt>
      <trkpt lat="39.0864330" lon="1.5297370">
        <ele>276.8</ele>
        <time>2020-02-23T14:08:19Z</time>
      </trkpt>
      <trkpt lat="39.0864560" lon="1.5297160">
        <ele>277.1</ele>
        <time>2020-02-23T14:08:20Z</time>
      </trkpt>
      <trkpt lat="39.0864640" lon="1.5297090">
        <ele>277.2</ele>
        <time>2020-02-23T14:08:21Z</time>
      </trkpt>
      <trkpt lat="39.0864980" lon="1.5296950">
        <ele>277.5</ele>
        <time>2020-02-23T14:08:22Z</time>
      </trkpt>
      <trkpt lat="39.0865120" lon="1.5296930">
        <ele>277.7</ele>
        <time>2020-02-23T14:08:23Z</time>
      </trkpt>
      <trkpt lat="39.0865490" lon="1.5296830">
        <ele>278.1</ele>
        <time>2020-02-23T14:08:24Z</time>
      </trkpt>
      <trkpt lat="39.0865630" lon="1.5296780">
        <ele>278.2</ele>
        <time>2020-02-23T14:08:25Z</time>
      </trkpt>
      <trkpt lat="39.0866030" lon="1.5296630">
        <ele>278.7</ele>
        <time>2020-02-23T14:08:26Z</time>
      </trkpt>
      <trkpt lat="39.0866190" lon="1.5296550">
        <ele>278.8</ele>
        <time>2020-02-23T14:08:27Z</time>
      </trkpt>
      <trkpt lat="39.0866650" lon="1.5296350">
        <ele>279.3</ele>
        <time>2020-02-23T14:08:28Z</time>
      </trkpt>
      <trkpt lat="39.0866880" lon="1.5296240">
        <ele>279.5</ele>
        <time>2020-02-23T14:08:29Z</time>
      </trkpt>
      <trkpt lat="39.0867280" lon="1.5296040">
        <ele>280.0</ele>
        <time>2020-02-23T14:08:30Z</time>
      </trkpt>
      <trkpt lat="39.0867680" lon="1.5295870">
        <ele>280.4</ele>
        <time>2020-02-23T14:08:31Z</time>
      </trkpt>
      <trkpt lat="39.0867820" lon="1.5295790">
        <ele>280.6</ele>
        <time>2020-02-23T14:08:32Z</time>
      </trkpt>
      <trkpt lat="39.0868130" lon="1.5295630">
        <ele>280.9</ele>
        <time>2020-02-23T14:08:33Z</time>
      </trkpt>
      <trkpt lat="39.0868520" lon="1.5295500">
        <ele>281.3</ele>
        <time>2020-02-23T14:08:34Z</time>
      </trkpt>
      <trkpt lat="39.0868650" lon="1.5295460">
        <ele>281.4</ele>
        <time>2020-02-23T14:08:35Z</time>
      </trkpt>
      <trkpt lat="39.0868950" lon="1.5295410">
        <ele>281.7</ele>
        <time>2020-02-23T14:08:36Z</time>
      </trkpt>
      <trkpt lat="39.0869230" lon="1.5295370">
        <ele>281.9</ele>
        <time>2020-02-23T14:08:37Z</time>
      </trkpt>
      <trkpt lat="39.0869500" lon="1.5295350">
        <ele>282.2</ele>
        <time>2020-02-23T14:08:38Z</time>
      </trkpt>
      <trkpt lat="39.0869830" lon="1.5295290">
        <ele>282.5</ele>
        <time>2020-02-23T14:08:39Z</time>
      </trkpt>
      <trkpt lat="39.0870120" lon="1.5295260">
        <ele>282.7</ele>
        <time>2020-02-23T14:08:40Z</time>
      </trkpt>
      <trkpt lat="39.0870420" lon="1.5295210">
        <ele>282.9</ele>
        <time>2020-02-23T14:08:41Z</time>
      </trkpt>
      <trkpt lat="39.0870720" lon="1.5295160">
        <ele>283.2</ele>
        <time>2020-02-23T14:08:42Z</time>
      </trkpt>
      <trkpt lat="39.0871030" lon="1.5295140">
        <ele>283.4</ele>
        <time>2020-02-23T14:08:43Z</time>
      </trkpt>
      <trkpt lat="39.0871300" lon="1.5295040">
        <ele>283.7</ele>
        <time>2020-02-23T14:08:44Z</time>
      </trkpt>
      <trkpt lat="39.0871640" lon="1.5294980">
        <ele>283.9</ele>
        <time>2020-02-23T14:08:45Z</time>
      </trkpt>
      <trkpt lat="39.0871980" lon="1.5294920">
        <ele>284.2</ele>
        <time>2020-02-23T14:08:46Z</time>
      </trkpt>
      <trkpt lat="39.0872380" lon="1.5294920">
        <ele>284.5</ele>
        <time>2020-02-23T14:08:47Z</time>
      </trkpt>
      <trkpt lat="39.0872520" lon="1.5294900">
        <ele>284.6</ele>
        <time>2020-02-23T14:08:48Z</time>
      </trkpt>
      <trkpt lat="39.0872880" lon="1.5294650">
        <ele>284.8</ele>
        <time>2020-02-23T14:08:49Z</time>
      </trkpt>
      <trkpt lat="39.0873050" lon="1.5294480">
        <ele>284.9</ele>
        <time>2020-02-23T14:08:50Z</time>
      </trkpt>
      <trkpt lat="39.0873260" lon="1.5294140">
        <ele>285.1</ele>
        <time>2020-02-23T14:08:51Z</time>
      </trkpt>
      <trkpt lat="39.0873510" lon="1.5293760">
        <ele>285.3</ele>
        <time>2020-02-23T14:08:52Z</time>
      </trkpt>
      <trkpt lat="39.0873680" lon="1.5293460">
        <ele>285.4</ele>
        <time>2020-02-23T14:08:53Z</time>
      </trkpt>
      <trkpt lat="39.0873920" lon="1.5293050">
        <ele>285.5</ele>
        <time>2020-02-23T14:08:54Z</time>
      </trkpt>
      <trkpt lat="39.0874010" lon="1.5292900">
        <ele>285.6</ele>
        <time>2020-02-23T14:08:55Z</time>
      </trkpt>
      <trkpt lat="39.0874180" lon="1.5292490">
        <ele>285.7</ele>
        <time>2020-02-23T14:08:56Z</time>
      </trkpt>
      <trkpt lat="39.0874370" lon="1.5292080">
        <ele>285.8</ele>
        <time>2020-02-23T14:08:57Z</time>
      </trkpt>
      <trkpt lat="39.0874510" lon="1.5291550">
        <ele>286.0</ele>
        <time>2020-02-23T14:08:58Z</time>
      </trkpt>
      <trkpt lat="39.0874560" lon="1.5291130">
        <ele>286.1</ele>
        <time>2020-02-23T14:08:59Z</time>
      </trkpt>
      <trkpt lat="39.0874670" lon="1.5290640">
        <ele>286.2</ele>
        <time>2020-02-23T14:09:00Z</time>
      </trkpt>
      <trkpt lat="39.0874970" lon="1.5290140">
        <ele>286.3</ele>
        <time>2020-02-23T14:09:01Z</time>
      </trkpt>
      <trkpt lat="39.0875200" lon="1.5289720">
        <ele>286.3</ele>
        <time>2020-02-23T14:09:02Z</time>
      </trkpt>
      <trkpt lat="39.0875500" lon="1.5289330">
        <ele>286.4</ele>
        <time>2020-02-23T14:09:03Z</time>
      </trkpt>
      <trkpt lat="39.0875720" lon="1.5288950">
        <ele>286.0</ele>
        <time>2020-02-23T14:09:04Z</time>
      </trkpt>
      <trkpt lat="39.0876050" lon="1.5288590">
        <ele>286.1</ele>
        <time>2020-02-23T14:09:05Z</time>
      </trkpt>
      <trkpt lat="39.0876350" lon="1.5288260">
        <ele>286.3</ele>
        <time>2020-02-23T14:09:06Z</time>
      </trkpt>
      <trkpt lat="39.0876700" lon="1.5287890">
        <ele>286.4</ele>
        <time>2020-02-23T14:09:07Z</time>
      </trkpt>
      <trkpt lat="39.0877110" lon="1.5287540">
        <ele>286.7</ele>
        <time>2020-02-23T14:09:08Z</time>
      </trkpt>
      <trkpt lat="39.0877410" lon="1.5287270">
        <ele>286.8</ele>
        <time>2020-02-23T14:09:09Z</time>
      </trkpt>
      <trkpt lat="39.0877700" lon="1.5287040">
        <ele>287.0</ele>
        <time>2020-02-23T14:09:10Z</time>
      </trkpt>
      <trkpt lat="39.0877960" lon="1.5286790">
        <ele>287.1</ele>
        <time>2020-02-23T14:09:11Z</time>
      </trkpt>
      <trkpt lat="39.0878200" lon="1.5286510">
        <ele>287.2</ele>
        <time>2020-02-23T14:09:12Z</time>
      </trkpt>
      <trkpt lat="39.0878460" lon="1.5286260">
        <ele>287.4</ele>
        <time>2020-02-23T14:09:13Z</time>
      </trkpt>
      <trkpt lat="39.0878750" lon="1.5286030">
        <ele>287.5</ele>
        <time>2020-02-23T14:09:14Z</time>
      </trkpt>
      <trkpt lat="39.0879140" lon="1.5285760">
        <ele>287.7</ele>
        <time>2020-02-23T14:09:15Z</time>
      </trkpt>
      <trkpt lat="39.0879300" lon="1.5285670">
        <ele>287.8</ele>
        <time>2020-02-23T14:09:16Z</time>
      </trkpt>
      <trkpt lat="39.0879620" lon="1.5285480">
        <ele>287.9</ele>
        <time>2020-02-23T14:09:17Z</time>
      </trkpt>
      <trkpt lat="39.0879880" lon="1.5285300">
        <ele>288.0</ele>
        <time>2020-02-23T14:09:18Z</time>
      </trkpt>
      <trkpt lat="39.0880160" lon="1.5285150">
        <ele>288.1</ele>
        <time>2020-02-23T14:09:19Z</time>
      </trkpt>
      <trkpt lat="39.0880430" lon="1.5285200">
        <ele>288.2</ele>
        <time>2020-02-23T14:09:20Z</time>
      </trkpt>
      <trkpt lat="39.0880850" lon="1.5285050">
        <ele>288.3</ele>
        <time>2020-02-23T14:09:21Z</time>
      </trkpt>
      <trkpt lat="39.0881040" lon="1.5284960">
        <ele>288.4</ele>
        <time>2020-02-23T14:09:22Z</time>
      </trkpt>
      <trkpt lat="39.0881350" lon="1.5284710">
        <ele>288.5</ele>
        <time>2020-02-23T14:09:23Z</time>
      </trkpt>
      <trkpt lat="39.0881720" lon="1.5284510">
        <ele>288.7</ele>
        <time>2020-02-23T14:09:24Z</time>
      </trkpt>
      <trkpt lat="39.0882080" lon="1.5284300">
        <ele>288.8</ele>
        <time>2020-02-23T14:09:25Z</time>
      </trkpt>
      <trkpt lat="39.0882410" lon="1.5284110">
        <ele>288.9</ele>
        <time>2020-02-23T14:09:26Z</time>
      </trkpt>
      <trkpt lat="39.0882730" lon="1.5283950">
        <ele>289.0</ele>
        <time>2020-02-23T14:09:27Z</time>
      </trkpt>
      <trkpt lat="39.0883080" lon="1.5283660">
        <ele>289.1</ele>
        <time>2020-02-23T14:09:28Z</time>
      </trkpt>
      <trkpt lat="39.0883400" lon="1.5283420">
        <ele>289.2</ele>
        <time>2020-02-23T14:09:29Z</time>
      </trkpt>
      <trkpt lat="39.0883780" lon="1.5283180">
        <ele>289.3</ele>
        <time>2020-02-23T14:09:30Z</time>
      </trkpt>
      <trkpt lat="39.0883930" lon="1.5283010">
        <ele>289.3</ele>
        <time>2020-02-23T14:09:31Z</time>
      </trkpt>
      <trkpt lat="39.0884200" lon="1.5282870">
        <ele>289.4</ele>
        <time>2020-02-23T14:09:32Z</time>
      </trkpt>
      <trkpt lat="39.0884470" lon="1.5282510">
        <ele>289.6</ele>
        <time>2020-02-23T14:09:33Z</time>
      </trkpt>
      <trkpt lat="39.0884700" lon="1.5282110">
        <ele>289.7</ele>
        <time>2020-02-23T14:09:34Z</time>
      </trkpt>
      <trkpt lat="39.0884960" lon="1.5281710">
        <ele>289.8</ele>
        <time>2020-02-23T14:09:35Z</time>
      </trkpt>
      <trkpt lat="39.0885160" lon="1.5281250">
        <ele>289.9</ele>
        <time>2020-02-23T14:09:36Z</time>
      </trkpt>
      <trkpt lat="39.0885160" lon="1.5280690">
        <ele>289.9</ele>
        <time>2020-02-23T14:09:37Z</time>
      </trkpt>
      <trkpt lat="39.0885220" lon="1.5280010">
        <ele>290.0</ele>
        <time>2020-02-23T14:09:38Z</time>
      </trkpt>
      <trkpt lat="39.0885230" lon="1.5279370">
        <ele>290.0</ele>
        <time>2020-02-23T14:09:39Z</time>
      </trkpt>
      <trkpt lat="39.0885270" lon="1.5278730">
        <ele>290.1</ele>
        <time>2020-02-23T14:09:40Z</time>
      </trkpt>
      <trkpt lat="39.0885300" lon="1.5278160">
        <ele>290.1</ele>
        <time>2020-02-23T14:09:41Z</time>
      </trkpt>
      <trkpt lat="39.0885230" lon="1.5277550">
        <ele>290.1</ele>
        <time>2020-02-23T14:09:42Z</time>
      </trkpt>
      <trkpt lat="39.0885170" lon="1.5277030">
        <ele>290.1</ele>
        <time>2020-02-23T14:09:43Z</time>
      </trkpt>
      <trkpt lat="39.0885140" lon="1.5276410">
        <ele>290.1</ele>
        <time>2020-02-23T14:09:44Z</time>
      </trkpt>
      <trkpt lat="39.0885120" lon="1.5275770">
        <ele>290.1</ele>
        <time>2020-02-23T14:09:45Z</time>
      </trkpt>
      <trkpt lat="39.0884990" lon="1.5275240">
        <ele>290.1</ele>
        <time>2020-02-23T14:09:46Z</time>
      </trkpt>
      <trkpt lat="39.0884850" lon="1.5274650">
        <ele>290.1</ele>
        <time>2020-02-23T14:09:47Z</time>
      </trkpt>
      <trkpt lat="39.0884610" lon="1.5274020">
        <ele>290.1</ele>
        <time>2020-02-23T14:09:48Z</time>
      </trkpt>
      <trkpt lat="39.0884460" lon="1.5273440">
        <ele>290.1</ele>
        <time>2020-02-23T14:09:49Z</time>
      </trkpt>
      <trkpt lat="39.0884280" lon="1.5272980">
        <ele>290.1</ele>
        <time>2020-02-23T14:09:50Z</time>
      </trkpt>
      <trkpt lat="39.0884090" lon="1.5272560">
        <ele>290.1</ele>
        <time>2020-02-23T14:09:51Z</time>
      </trkpt>
      <trkpt lat="39.0883810" lon="1.5272170">
        <ele>290.1</ele>
        <time>2020-02-23T14:09:52Z</time>
      </trkpt>
      <trkpt lat="39.0883480" lon="1.5271860">
        <ele>290.1</ele>
        <time>2020-02-23T14:09:53Z</time>
      </trkpt>
      <trkpt lat="39.0883120" lon="1.5271510">
        <ele>290.1</ele>
        <time>2020-02-23T14:09:54Z</time>
      </trkpt>
      <trkpt lat="39.0882850" lon="1.5271140">
        <ele>290.1</ele>
        <time>2020-02-23T14:09:55Z</time>
      </trkpt>
      <trkpt lat="39.0882620" lon="1.5270860">
        <ele>290.1</ele>
        <time>2020-02-23T14:09:56Z</time>
      </trkpt>
      <trkpt lat="39.0882300" lon="1.5270540">
        <ele>290.1</ele>
        <time>2020-02-23T14:09:57Z</time>
      </trkpt>
      <trkpt lat="39.0882160" lon="1.5270410">
        <ele>290.1</ele>
        <time>2020-02-23T14:09:58Z</time>
      </trkpt>
      <trkpt lat="39.0881930" lon="1.5270120">
        <ele>290.1</ele>
        <time>2020-02-23T14:09:59Z</time>
      </trkpt>
      <trkpt lat="39.0881680" lon="1.5269870">
        <ele>290.2</ele>
        <time>2020-02-23T14:10:00Z</time>
      </trkpt>
      <trkpt lat="39.0881390" lon="1.5269610">
        <ele>290.2</ele>
        <time>2020-02-23T14:10:01Z</time>
      </trkpt>
      <trkpt lat="39.0881200" lon="1.5269240">
        <ele>290.2</ele>
        <time>2020-02-23T14:10:02Z</time>
      </trkpt>
      <trkpt lat="39.0880930" lon="1.5269080">
        <ele>290.2</ele>
        <time>2020-02-23T14:10:03Z</time>
      </trkpt>
      <trkpt lat="39.0880710" lon="1.5268670">
        <ele>290.2</ele>
        <time>2020-02-23T14:10:04Z</time>
      </trkpt>
      <trkpt lat="39.0880430" lon="1.5268230">
        <ele>290.2</ele>
        <time>2020-02-23T14:10:05Z</time>
      </trkpt>
      <trkpt lat="39.0880170" lon="1.5268010">
        <ele>290.2</ele>
        <time>2020-02-23T14:10:06Z</time>
      </trkpt>
      <trkpt lat="39.0879940" lon="1.5267650">
        <ele>290.4</ele>
        <time>2020-02-23T14:10:07Z</time>
      </trkpt>
      <trkpt lat="39.0879810" lon="1.5267310">
        <ele>290.5</ele>
        <time>2020-02-23T14:10:08Z</time>
      </trkpt>
      <trkpt lat="39.0879630" lon="1.5266910">
        <ele>290.7</ele>
        <time>2020-02-23T14:10:09Z</time>
      </trkpt>
      <trkpt lat="39.0879560" lon="1.5266770">
        <ele>290.8</ele>
        <time>2020-02-23T14:10:10Z</time>
      </trkpt>
      <trkpt lat="39.0879420" lon="1.5266310">
        <ele>291.0</ele>
        <time>2020-02-23T14:10:11Z</time>
      </trkpt>
      <trkpt lat="39.0879400" lon="1.5266160">
        <ele>291.1</ele>
        <time>2020-02-23T14:10:12Z</time>
      </trkpt>
      <trkpt lat="39.0879390" lon="1.5265780">
        <ele>291.2</ele>
        <time>2020-02-23T14:10:13Z</time>
      </trkpt>
      <trkpt lat="39.0879400" lon="1.5265250">
        <ele>291.5</ele>
        <time>2020-02-23T14:10:14Z</time>
      </trkpt>
      <trkpt lat="39.0879400" lon="1.5265040">
        <ele>291.5</ele>
        <time>2020-02-23T14:10:15Z</time>
      </trkpt>
      <trkpt lat="39.0879460" lon="1.5264550">
        <ele>291.3</ele>
        <time>2020-02-23T14:10:16Z</time>
      </trkpt>
      <trkpt lat="39.0879470" lon="1.5264360">
        <ele>291.3</ele>
        <time>2020-02-23T14:10:17Z</time>
      </trkpt>
      <trkpt lat="39.0879590" lon="1.5264010">
        <ele>291.2</ele>
        <time>2020-02-23T14:10:18Z</time>
      </trkpt>
      <trkpt lat="39.0879760" lon="1.5263710">
        <ele>291.1</ele>
        <time>2020-02-23T14:10:19Z</time>
      </trkpt>
      <trkpt lat="39.0879920" lon="1.5263240">
        <ele>291.1</ele>
        <time>2020-02-23T14:10:20Z</time>
      </trkpt>
      <trkpt lat="39.0879970" lon="1.5263060">
        <ele>291.1</ele>
        <time>2020-02-23T14:10:21Z</time>
      </trkpt>
      <trkpt lat="39.0880050" lon="1.5262690">
        <ele>291.0</ele>
        <time>2020-02-23T14:10:22Z</time>
      </trkpt>
      <trkpt lat="39.0880150" lon="1.5262320">
        <ele>291.0</ele>
        <time>2020-02-23T14:10:23Z</time>
      </trkpt>
      <trkpt lat="39.0880270" lon="1.5261900">
        <ele>291.1</ele>
        <time>2020-02-23T14:10:24Z</time>
      </trkpt>
      <trkpt lat="39.0880330" lon="1.5261520">
        <ele>291.1</ele>
        <time>2020-02-23T14:10:25Z</time>
      </trkpt>
      <trkpt lat="39.0880460" lon="1.5261060">
        <ele>291.2</ele>
        <time>2020-02-23T14:10:26Z</time>
      </trkpt>
      <trkpt lat="39.0880540" lon="1.5260600">
        <ele>291.3</ele>
        <time>2020-02-23T14:10:27Z</time>
      </trkpt>
      <trkpt lat="39.0880610" lon="1.5260100">
        <ele>291.5</ele>
        <time>2020-02-23T14:10:28Z</time>
      </trkpt>
      <trkpt lat="39.0880630" lon="1.5259920">
        <ele>291.5</ele>
        <time>2020-02-23T14:10:29Z</time>
      </trkpt>
      <trkpt lat="39.0880620" lon="1.5259480">
        <ele>291.7</ele>
        <time>2020-02-23T14:10:30Z</time>
      </trkpt>
      <trkpt lat="39.0880740" lon="1.5259010">
        <ele>291.8</ele>
        <time>2020-02-23T14:10:31Z</time>
      </trkpt>
      <trkpt lat="39.0880760" lon="1.5258820">
        <ele>291.9</ele>
        <time>2020-02-23T14:10:32Z</time>
      </trkpt>
      <trkpt lat="39.0880790" lon="1.5258250">
        <ele>292.0</ele>
        <time>2020-02-23T14:10:33Z</time>
      </trkpt>
      <trkpt lat="39.0880810" lon="1.5258000">
        <ele>292.1</ele>
        <time>2020-02-23T14:10:34Z</time>
      </trkpt>
      <trkpt lat="39.0880870" lon="1.5257500">
        <ele>292.2</ele>
        <time>2020-02-23T14:10:35Z</time>
      </trkpt>
      <trkpt lat="39.0880850" lon="1.5257150">
        <ele>292.3</ele>
        <time>2020-02-23T14:10:36Z</time>
      </trkpt>
      <trkpt lat="39.0880850" lon="1.5256700">
        <ele>292.4</ele>
        <time>2020-02-23T14:10:37Z</time>
      </trkpt>
      <trkpt lat="39.0880910" lon="1.5256250">
        <ele>292.5</ele>
        <time>2020-02-23T14:10:38Z</time>
      </trkpt>
      <trkpt lat="39.0880940" lon="1.5255870">
        <ele>292.6</ele>
        <time>2020-02-23T14:10:39Z</time>
      </trkpt>
      <trkpt lat="39.0880990" lon="1.5255520">
        <ele>292.6</ele>
        <time>2020-02-23T14:10:40Z</time>
      </trkpt>
      <trkpt lat="39.0881090" lon="1.5255030">
        <ele>292.7</ele>
        <time>2020-02-23T14:10:41Z</time>
      </trkpt>
      <trkpt lat="39.0881050" lon="1.5254540">
        <ele>292.7</ele>
        <time>2020-02-23T14:10:42Z</time>
      </trkpt>
      <trkpt lat="39.0881020" lon="1.5254060">
        <ele>292.8</ele>
        <time>2020-02-23T14:10:43Z</time>
      </trkpt>
      <trkpt lat="39.0881050" lon="1.5253460">
        <ele>292.7</ele>
        <time>2020-02-23T14:10:44Z</time>
      </trkpt>
      <trkpt lat="39.0881070" lon="1.5252930">
        <ele>292.7</ele>
        <time>2020-02-23T14:10:45Z</time>
      </trkpt>
      <trkpt lat="39.0881040" lon="1.5252350">
        <ele>292.6</ele>
        <time>2020-02-23T14:10:46Z</time>
      </trkpt>
      <trkpt lat="39.0880960" lon="1.5251880">
        <ele>292.5</ele>
        <time>2020-02-23T14:10:47Z</time>
      </trkpt>
      <trkpt lat="39.0880820" lon="1.5251420">
        <ele>292.3</ele>
        <time>2020-02-23T14:10:48Z</time>
      </trkpt>
      <trkpt lat="39.0880680" lon="1.5250980">
        <ele>292.2</ele>
        <time>2020-02-23T14:10:49Z</time>
      </trkpt>
      <trkpt lat="39.0880440" lon="1.5250650">
        <ele>292.0</ele>
        <time>2020-02-23T14:10:50Z</time>
      </trkpt>
      <trkpt lat="39.0880160" lon="1.5250330">
        <ele>291.8</ele>
        <time>2020-02-23T14:10:51Z</time>
      </trkpt>
      <trkpt lat="39.0879860" lon="1.5250070">
        <ele>291.6</ele>
        <time>2020-02-23T14:10:52Z</time>
      </trkpt>
      <trkpt lat="39.0879610" lon="1.5249910">
        <ele>291.4</ele>
        <time>2020-02-23T14:10:53Z</time>
      </trkpt>
      <trkpt lat="39.0879310" lon="1.5249860">
        <ele>291.4</ele>
        <time>2020-02-23T14:10:54Z</time>
      </trkpt>
      <trkpt lat="39.0879000" lon="1.5249900">
        <ele>291.4</ele>
        <time>2020-02-23T14:10:55Z</time>
      </trkpt>
      <trkpt lat="39.0878690" lon="1.5249920">
        <ele>291.4</ele>
        <time>2020-02-23T14:10:56Z</time>
      </trkpt>
      <trkpt lat="39.0878330" lon="1.5250020">
        <ele>291.4</ele>
        <time>2020-02-23T14:10:57Z</time>
      </trkpt>
      <trkpt lat="39.0877870" lon="1.5250130">
        <ele>291.4</ele>
        <time>2020-02-23T14:10:58Z</time>
      </trkpt>
      <trkpt lat="39.0877680" lon="1.5250190">
        <ele>291.4</ele>
        <time>2020-02-23T14:10:59Z</time>
      </trkpt>
      <trkpt lat="39.0877280" lon="1.5250280">
        <ele>291.3</ele>
        <time>2020-02-23T14:11:00Z</time>
      </trkpt>
      <trkpt lat="39.0876910" lon="1.5250360">
        <ele>291.3</ele>
        <time>2020-02-23T14:11:01Z</time>
      </trkpt>
      <trkpt lat="39.0876620" lon="1.5250390">
        <ele>291.2</ele>
        <time>2020-02-23T14:11:02Z</time>
      </trkpt>
      <trkpt lat="39.0876250" lon="1.5250380">
        <ele>291.2</ele>
        <time>2020-02-23T14:11:03Z</time>
      </trkpt>
      <trkpt lat="39.0875920" lon="1.5250470">
        <ele>291.1</ele>
        <time>2020-02-23T14:11:04Z</time>
      </trkpt>
      <trkpt lat="39.0875600" lon="1.5250500">
        <ele>291.0</ele>
        <time>2020-02-23T14:11:05Z</time>
      </trkpt>
      <trkpt lat="39.0875280" lon="1.5250470">
        <ele>290.9</ele>
        <time>2020-02-23T14:11:06Z</time>
      </trkpt>
      <trkpt lat="39.0874910" lon="1.5250480">
        <ele>290.8</ele>
        <time>2020-02-23T14:11:07Z</time>
      </trkpt>
      <trkpt lat="39.0874560" lon="1.5250490">
        <ele>290.7</ele>
        <time>2020-02-23T14:11:08Z</time>
      </trkpt>
      <trkpt lat="39.0874230" lon="1.5250500">
        <ele>290.6</ele>
        <time>2020-02-23T14:11:09Z</time>
      </trkpt>
      <trkpt lat="39.0873760" lon="1.5250470">
        <ele>290.5</ele>
        <time>2020-02-23T14:11:10Z</time>
      </trkpt>
      <trkpt lat="39.0873420" lon="1.5250500">
        <ele>290.5</ele>
        <time>2020-02-23T14:11:11Z</time>
      </trkpt>
      <trkpt lat="39.0873050" lon="1.5250500">
        <ele>290.4</ele>
        <time>2020-02-23T14:11:12Z</time>
      </trkpt>
      <trkpt lat="39.0872700" lon="1.5250580">
        <ele>290.4</ele>
        <time>2020-02-23T14:11:13Z</time>
      </trkpt>
      <trkpt lat="39.0872380" lon="1.5250620">
        <ele>290.4</ele>
        <time>2020-02-23T14:11:14Z</time>
      </trkpt>
      <trkpt lat="39.0872080" lon="1.5250670">
        <ele>290.4</ele>
        <time>2020-02-23T14:11:15Z</time>
      </trkpt>
      <trkpt lat="39.0871770" lon="1.5250710">
        <ele>290.4</ele>
        <time>2020-02-23T14:11:16Z</time>
      </trkpt>
      <trkpt lat="39.0871470" lon="1.5250710">
        <ele>290.4</ele>
        <time>2020-02-23T14:11:17Z</time>
      </trkpt>
      <trkpt lat="39.0871100" lon="1.5250730">
        <ele>290.3</ele>
        <time>2020-02-23T14:11:18Z</time>
      </trkpt>
      <trkpt lat="39.0870720" lon="1.5250670">
        <ele>290.3</ele>
        <time>2020-02-23T14:11:19Z</time>
      </trkpt>
      <trkpt lat="39.0870440" lon="1.5250750">
        <ele>290.3</ele>
        <time>2020-02-23T14:11:20Z</time>
      </trkpt>
      <trkpt lat="39.0870030" lon="1.5250690">
        <ele>290.3</ele>
        <time>2020-02-23T14:11:21Z</time>
      </trkpt>
      <trkpt lat="39.0869640" lon="1.5250660">
        <ele>290.3</ele>
        <time>2020-02-23T14:11:22Z</time>
      </trkpt>
      <trkpt lat="39.0869270" lon="1.5250590">
        <ele>290.3</ele>
        <time>2020-02-23T14:11:23Z</time>
      </trkpt>
      <trkpt lat="39.0868860" lon="1.5250640">
        <ele>290.4</ele>
        <time>2020-02-23T14:11:24Z</time>
      </trkpt>
      <trkpt lat="39.0868460" lon="1.5250750">
        <ele>290.4</ele>
        <time>2020-02-23T14:11:25Z</time>
      </trkpt>
      <trkpt lat="39.0868080" lon="1.5250780">
        <ele>290.4</ele>
        <time>2020-02-23T14:11:26Z</time>
      </trkpt>
      <trkpt lat="39.0867710" lon="1.5250900">
        <ele>290.5</ele>
        <time>2020-02-23T14:11:27Z</time>
      </trkpt>
      <trkpt lat="39.0867310" lon="1.5251020">
        <ele>290.5</ele>
        <time>2020-02-23T14:11:28Z</time>
      </trkpt>
      <trkpt lat="39.0866970" lon="1.5251060">
        <ele>290.6</ele>
        <time>2020-02-23T14:11:29Z</time>
      </trkpt>
      <trkpt lat="39.0866650" lon="1.5251080">
        <ele>290.6</ele>
        <time>2020-02-23T14:11:30Z</time>
      </trkpt>
      <trkpt lat="39.0866280" lon="1.5251100">
        <ele>290.7</ele>
        <time>2020-02-23T14:11:31Z</time>
      </trkpt>
      <trkpt lat="39.0865920" lon="1.5251210">
        <ele>290.8</ele>
        <time>2020-02-23T14:11:32Z</time>
      </trkpt>
      <trkpt lat="39.0865510" lon="1.5251320">
        <ele>291.0</ele>
        <time>2020-02-23T14:11:33Z</time>
      </trkpt>
      <trkpt lat="39.0865110" lon="1.5251420">
        <ele>291.1</ele>
        <time>2020-02-23T14:11:34Z</time>
      </trkpt>
      <trkpt lat="39.0864770" lon="1.5251430">
        <ele>291.1</ele>
        <time>2020-02-23T14:11:35Z</time>
      </trkpt>
      <trkpt lat="39.0864350" lon="1.5251540">
        <ele>291.2</ele>
        <time>2020-02-23T14:11:36Z</time>
      </trkpt>
      <trkpt lat="39.0864010" lon="1.5251520">
        <ele>291.3</ele>
        <time>2020-02-23T14:11:37Z</time>
      </trkpt>
      <trkpt lat="39.0863740" lon="1.5251480">
        <ele>291.3</ele>
        <time>2020-02-23T14:11:38Z</time>
      </trkpt>
      <trkpt lat="39.0863330" lon="1.5251570">
        <ele>291.4</ele>
        <time>2020-02-23T14:11:39Z</time>
      </trkpt>
      <trkpt lat="39.0862980" lon="1.5251620">
        <ele>291.5</ele>
        <time>2020-02-23T14:11:40Z</time>
      </trkpt>
      <trkpt lat="39.0862610" lon="1.5251630">
        <ele>291.6</ele>
        <time>2020-02-23T14:11:41Z</time>
      </trkpt>
      <trkpt lat="39.0862200" lon="1.5251630">
        <ele>291.7</ele>
        <time>2020-02-23T14:11:42Z</time>
      </trkpt>
      <trkpt lat="39.0861820" lon="1.5251580">
        <ele>291.8</ele>
        <time>2020-02-23T14:11:43Z</time>
      </trkpt>
      <trkpt lat="39.0861480" lon="1.5251610">
        <ele>291.8</ele>
        <time>2020-02-23T14:11:44Z</time>
      </trkpt>
      <trkpt lat="39.0861160" lon="1.5251590">
        <ele>291.9</ele>
        <time>2020-02-23T14:11:45Z</time>
      </trkpt>
      <trkpt lat="39.0860850" lon="1.5251670">
        <ele>292.0</ele>
        <time>2020-02-23T14:11:46Z</time>
      </trkpt>
      <trkpt lat="39.0860470" lon="1.5251710">
        <ele>292.1</ele>
        <time>2020-02-23T14:11:47Z</time>
      </trkpt>
      <trkpt lat="39.0860110" lon="1.5251640">
        <ele>292.1</ele>
        <time>2020-02-23T14:11:48Z</time>
      </trkpt>
      <trkpt lat="39.0859800" lon="1.5251580">
        <ele>292.2</ele>
        <time>2020-02-23T14:11:49Z</time>
      </trkpt>
      <trkpt lat="39.0859530" lon="1.5251470">
        <ele>292.2</ele>
        <time>2020-02-23T14:11:50Z</time>
      </trkpt>
      <trkpt lat="39.0859290" lon="1.5251140">
        <ele>292.2</ele>
        <time>2020-02-23T14:11:51Z</time>
      </trkpt>
      <trkpt lat="39.0858980" lon="1.5250910">
        <ele>292.2</ele>
        <time>2020-02-23T14:11:52Z</time>
      </trkpt>
      <trkpt lat="39.0858560" lon="1.5250830">
        <ele>292.2</ele>
        <time>2020-02-23T14:11:53Z</time>
      </trkpt>
      <trkpt lat="39.0858070" lon="1.5250660">
        <ele>292.3</ele>
        <time>2020-02-23T14:11:54Z</time>
      </trkpt>
      <trkpt lat="39.0857560" lon="1.5250360">
        <ele>292.3</ele>
        <time>2020-02-23T14:11:55Z</time>
      </trkpt>
      <trkpt lat="39.0857080" lon="1.5250020">
        <ele>292.3</ele>
        <time>2020-02-23T14:11:56Z</time>
      </trkpt>
      <trkpt lat="39.0856610" lon="1.5249700">
        <ele>292.3</ele>
        <time>2020-02-23T14:11:57Z</time>
      </trkpt>
      <trkpt lat="39.0856260" lon="1.5249360">
        <ele>292.3</ele>
        <time>2020-02-23T14:11:58Z</time>
      </trkpt>
      <trkpt lat="39.0856010" lon="1.5248810">
        <ele>292.3</ele>
        <time>2020-02-23T14:11:59Z</time>
      </trkpt>
      <trkpt lat="39.0855570" lon="1.5248340">
        <ele>292.3</ele>
        <time>2020-02-23T14:12:00Z</time>
      </trkpt>
      <trkpt lat="39.0855230" lon="1.5247840">
        <ele>292.2</ele>
        <time>2020-02-23T14:12:01Z</time>
      </trkpt>
      <trkpt lat="39.0854910" lon="1.5247470">
        <ele>292.2</ele>
        <time>2020-02-23T14:12:02Z</time>
      </trkpt>
      <trkpt lat="39.0854470" lon="1.5247170">
        <ele>292.2</ele>
        <time>2020-02-23T14:12:03Z</time>
      </trkpt>
      <trkpt lat="39.0854050" lon="1.5246850">
        <ele>292.2</ele>
        <time>2020-02-23T14:12:04Z</time>
      </trkpt>
      <trkpt lat="39.0853680" lon="1.5246550">
        <ele>292.2</ele>
        <time>2020-02-23T14:12:05Z</time>
      </trkpt>
      <trkpt lat="39.0853360" lon="1.5246090">
        <ele>292.2</ele>
        <time>2020-02-23T14:12:06Z</time>
      </trkpt>
      <trkpt lat="39.0852990" lon="1.5245640">
        <ele>292.2</ele>
        <time>2020-02-23T14:12:07Z</time>
      </trkpt>
      <trkpt lat="39.0852710" lon="1.5245290">
        <ele>292.2</ele>
        <time>2020-02-23T14:12:08Z</time>
      </trkpt>
      <trkpt lat="39.0852380" lon="1.5244980">
        <ele>292.2</ele>
        <time>2020-02-23T14:12:09Z</time>
      </trkpt>
      <trkpt lat="39.0851990" lon="1.5244730">
        <ele>292.2</ele>
        <time>2020-02-23T14:12:10Z</time>
      </trkpt>
      <trkpt lat="39.0851640" lon="1.5244430">
        <ele>292.2</ele>
        <time>2020-02-23T14:12:11Z</time>
      </trkpt>
      <trkpt lat="39.0851240" lon="1.5244130">
        <ele>292.2</ele>
        <time>2020-02-23T14:12:12Z</time>
      </trkpt>
      <trkpt lat="39.0850900" lon="1.5243770">
        <ele>292.1</ele>
        <time>2020-02-23T14:12:13Z</time>
      </trkpt>
      <trkpt lat="39.0850530" lon="1.5243470">
        <ele>292.1</ele>
        <time>2020-02-23T14:12:14Z</time>
      </trkpt>
      <trkpt lat="39.0850200" lon="1.5243180">
        <ele>292.0</ele>
        <time>2020-02-23T14:12:15Z</time>
      </trkpt>
      <trkpt lat="39.0849890" lon="1.5242850">
        <ele>291.9</ele>
        <time>2020-02-23T14:12:16Z</time>
      </trkpt>
      <trkpt lat="39.0849600" lon="1.5242460">
        <ele>291.8</ele>
        <time>2020-02-23T14:12:17Z</time>
      </trkpt>
      <trkpt lat="39.0849370" lon="1.5242120">
        <ele>291.7</ele>
        <time>2020-02-23T14:12:18Z</time>
      </trkpt>
      <trkpt lat="39.0849130" lon="1.5241760">
        <ele>291.6</ele>
        <time>2020-02-23T14:12:19Z</time>
      </trkpt>
      <trkpt lat="39.0848870" lon="1.5241330">
        <ele>291.5</ele>
        <time>2020-02-23T14:12:20Z</time>
      </trkpt>
      <trkpt lat="39.0848620" lon="1.5240840">
        <ele>291.3</ele>
        <time>2020-02-23T14:12:21Z</time>
      </trkpt>
      <trkpt lat="39.0848350" lon="1.5240350">
        <ele>291.2</ele>
        <time>2020-02-23T14:12:22Z</time>
      </trkpt>
      <trkpt lat="39.0848100" lon="1.5239900">
        <ele>291.1</ele>
        <time>2020-02-23T14:12:23Z</time>
      </trkpt>
      <trkpt lat="39.0847850" lon="1.5239630">
        <ele>290.9</ele>
        <time>2020-02-23T14:12:24Z</time>
      </trkpt>
      <trkpt lat="39.0847680" lon="1.5239240">
        <ele>290.8</ele>
        <time>2020-02-23T14:12:25Z</time>
      </trkpt>
      <trkpt lat="39.0847560" lon="1.5238910">
        <ele>290.7</ele>
        <time>2020-02-23T14:12:26Z</time>
      </trkpt>
      <trkpt lat="39.0847460" lon="1.5238640">
        <ele>290.5</ele>
        <time>2020-02-23T14:12:27Z</time>
      </trkpt>
      <trkpt lat="39.0847510" lon="1.5238490">
        <ele>290.2</ele>
        <time>2020-02-23T14:12:28Z</time>
      </trkpt>
      <trkpt lat="39.0847520" lon="1.5238360">
        <ele>290.2</ele>
        <time>2020-02-23T14:12:29Z</time>
      </trkpt>
      <trkpt lat="39.0847500" lon="1.5238540">
        <ele>290.5</ele>
        <time>2020-02-23T14:12:30Z</time>
      </trkpt>
      <trkpt lat="39.0847460" lon="1.5238560">
        <ele>290.2</ele>
        <time>2020-02-23T14:12:31Z</time>
      </trkpt>
      <trkpt lat="39.0847400" lon="1.5238610">
        <ele>290.5</ele>
        <time>2020-02-23T14:12:32Z</time>
      </trkpt>
      <trkpt lat="39.0847330" lon="1.5238720">
        <ele>290.5</ele>
        <time>2020-02-23T14:12:33Z</time>
      </trkpt>
      <trkpt lat="39.0847320" lon="1.5238710">
        <ele>290.5</ele>
        <time>2020-02-23T14:12:34Z</time>
      </trkpt>
      <trkpt lat="39.0847300" lon="1.5238710">
        <ele>290.5</ele>
        <time>2020-02-23T14:12:35Z</time>
      </trkpt>
      <trkpt lat="39.0847300" lon="1.5238720">
        <ele>290.5</ele>
        <time>2020-02-23T14:12:36Z</time>
      </trkpt>
      <trkpt lat="39.0847250" lon="1.5238590">
        <ele>290.2</ele>
        <time>2020-02-23T14:12:37Z</time>
      </trkpt>
      <trkpt lat="39.0847200" lon="1.5238450">
        <ele>290.1</ele>
        <time>2020-02-23T14:12:38Z</time>
      </trkpt>
      <trkpt lat="39.0847150" lon="1.5238320">
        <ele>290.1</ele>
        <time>2020-02-23T14:12:39Z</time>
      </trkpt>
      <trkpt lat="39.0847100" lon="1.5238190">
        <ele>290.0</ele>
        <time>2020-02-23T14:12:40Z</time>
      </trkpt>
      <trkpt lat="39.0847040" lon="1.5238050">
        <ele>289.9</ele>
        <time>2020-02-23T14:12:41Z</time>
      </trkpt>
      <trkpt lat="39.0846990" lon="1.5237920">
        <ele>289.8</ele>
        <time>2020-02-23T14:12:42Z</time>
      </trkpt>
      <trkpt lat="39.0846940" lon="1.5237790">
        <ele>289.8</ele>
        <time>2020-02-23T14:12:43Z</time>
      </trkpt>
      <trkpt lat="39.0846890" lon="1.5237650">
        <ele>289.7</ele>
        <time>2020-02-23T14:13:13Z</time>
      </trkpt>
      <trkpt lat="39.0846840" lon="1.5237520">
        <ele>289.6</ele>
        <time>2020-02-23T14:13:14Z</time>
      </trkpt>
      <trkpt lat="39.0846180" lon="1.5237240">
        <ele>289.2</ele>
        <time>2020-02-23T14:13:15Z</time>
      </trkpt>
      <trkpt lat="39.0845540" lon="1.5237250">
        <ele>288.7</ele>
        <time>2020-02-23T14:13:16Z</time>
      </trkpt>
      <trkpt lat="39.0844740" lon="1.5237260">
        <ele>288.2</ele>
        <time>2020-02-23T14:13:17Z</time>
      </trkpt>
      <trkpt lat="39.0844040" lon="1.5236990">
        <ele>287.7</ele>
        <time>2020-02-23T14:13:18Z</time>
      </trkpt>
      <trkpt lat="39.0843310" lon="1.5236730">
        <ele>287.1</ele>
        <time>2020-02-23T14:13:19Z</time>
      </trkpt>
      <trkpt lat="39.0842580" lon="1.5236330">
        <ele>286.6</ele>
        <time>2020-02-23T14:13:20Z</time>
      </trkpt>
      <trkpt lat="39.0841870" lon="1.5235930">
        <ele>286.0</ele>
        <time>2020-02-23T14:13:21Z</time>
      </trkpt>
      <trkpt lat="39.0841210" lon="1.5235330">
        <ele>285.4</ele>
        <time>2020-02-23T14:13:22Z</time>
      </trkpt>
      <trkpt lat="39.0840690" lon="1.5234860">
        <ele>284.9</ele>
        <time>2020-02-23T14:13:23Z</time>
      </trkpt>
      <trkpt lat="39.0840160" lon="1.5233890">
        <ele>284.1</ele>
        <time>2020-02-23T14:13:24Z</time>
      </trkpt>
      <trkpt lat="39.0839690" lon="1.5233230">
        <ele>283.5</ele>
        <time>2020-02-23T14:13:25Z</time>
      </trkpt>
      <trkpt lat="39.0839220" lon="1.5232580">
        <ele>282.9</ele>
        <time>2020-02-23T14:13:26Z</time>
      </trkpt>
      <trkpt lat="39.0838690" lon="1.5231950">
        <ele>282.2</ele>
        <time>2020-02-23T14:13:27Z</time>
      </trkpt>
      <trkpt lat="39.0838080" lon="1.5231340">
        <ele>281.6</ele>
        <time>2020-02-23T14:13:28Z</time>
      </trkpt>
      <trkpt lat="39.0837380" lon="1.5230770">
        <ele>280.9</ele>
        <time>2020-02-23T14:13:29Z</time>
      </trkpt>
      <trkpt lat="39.0836660" lon="1.5230220">
        <ele>280.3</ele>
        <time>2020-02-23T14:13:30Z</time>
      </trkpt>
      <trkpt lat="39.0835880" lon="1.5229720">
        <ele>280.0</ele>
        <time>2020-02-23T14:13:31Z</time>
      </trkpt>
      <trkpt lat="39.0835050" lon="1.5229340">
        <ele>279.7</ele>
        <time>2020-02-23T14:13:32Z</time>
      </trkpt>
      <trkpt lat="39.0834240" lon="1.5229060">
        <ele>279.5</ele>
        <time>2020-02-23T14:13:33Z</time>
      </trkpt>
      <trkpt lat="39.0833520" lon="1.5228960">
        <ele>279.3</ele>
        <time>2020-02-23T14:13:34Z</time>
      </trkpt>
      <trkpt lat="39.0832760" lon="1.5228950">
        <ele>279.1</ele>
        <time>2020-02-23T14:13:35Z</time>
      </trkpt>
      <trkpt lat="39.0832030" lon="1.5228850">
        <ele>278.8</ele>
        <time>2020-02-23T14:13:36Z</time>
      </trkpt>
      <trkpt lat="39.0831330" lon="1.5228610">
        <ele>278.5</ele>
        <time>2020-02-23T14:13:37Z</time>
      </trkpt>
      <trkpt lat="39.0830770" lon="1.5228310">
        <ele>278.2</ele>
        <time>2020-02-23T14:13:38Z</time>
      </trkpt>
      <trkpt lat="39.0830370" lon="1.5227900">
        <ele>278.0</ele>
        <time>2020-02-23T14:13:39Z</time>
      </trkpt>
      <trkpt lat="39.0830010" lon="1.5227440">
        <ele>277.6</ele>
        <time>2020-02-23T14:13:40Z</time>
      </trkpt>
      <trkpt lat="39.0829630" lon="1.5226950">
        <ele>277.2</ele>
        <time>2020-02-23T14:13:41Z</time>
      </trkpt>
      <trkpt lat="39.0829250" lon="1.5226500">
        <ele>276.8</ele>
        <time>2020-02-23T14:13:42Z</time>
      </trkpt>
      <trkpt lat="39.0828900" lon="1.5226010">
        <ele>276.4</ele>
        <time>2020-02-23T14:13:43Z</time>
      </trkpt>
      <trkpt lat="39.0828690" lon="1.5225430">
        <ele>276.0</ele>
        <time>2020-02-23T14:13:44Z</time>
      </trkpt>
      <trkpt lat="39.0828790" lon="1.5224690">
        <ele>275.4</ele>
        <time>2020-02-23T14:13:45Z</time>
      </trkpt>
      <trkpt lat="39.0829080" lon="1.5223990">
        <ele>274.7</ele>
        <time>2020-02-23T14:13:46Z</time>
      </trkpt>
      <trkpt lat="39.0829390" lon="1.5223270">
        <ele>273.9</ele>
        <time>2020-02-23T14:13:47Z</time>
      </trkpt>
      <trkpt lat="39.0829640" lon="1.5222500">
        <ele>273.0</ele>
        <time>2020-02-23T14:13:48Z</time>
      </trkpt>
      <trkpt lat="39.0829730" lon="1.5221730">
        <ele>272.2</ele>
        <time>2020-02-23T14:13:49Z</time>
      </trkpt>
      <trkpt lat="39.0829760" lon="1.5220960">
        <ele>271.4</ele>
        <time>2020-02-23T14:13:50Z</time>
      </trkpt>
      <trkpt lat="39.0829770" lon="1.5220070">
        <ele>270.6</ele>
        <time>2020-02-23T14:13:51Z</time>
      </trkpt>
      <trkpt lat="39.0829690" lon="1.5219200">
        <ele>269.8</ele>
        <time>2020-02-23T14:13:52Z</time>
      </trkpt>
      <trkpt lat="39.0829660" lon="1.5218360">
        <ele>269.0</ele>
        <time>2020-02-23T14:13:53Z</time>
      </trkpt>
      <trkpt lat="39.0829620" lon="1.5217650">
        <ele>268.4</ele>
        <time>2020-02-23T14:13:54Z</time>
      </trkpt>
      <trkpt lat="39.0829450" lon="1.5217100">
        <ele>267.8</ele>
        <time>2020-02-23T14:13:55Z</time>
      </trkpt>
      <trkpt lat="39.0829210" lon="1.5216650">
        <ele>267.4</ele>
        <time>2020-02-23T14:13:56Z</time>
      </trkpt>
      <trkpt lat="39.0828920" lon="1.5216250">
        <ele>266.1</ele>
        <time>2020-02-23T14:13:57Z</time>
      </trkpt>
      <trkpt lat="39.0828570" lon="1.5215970">
        <ele>266.2</ele>
        <time>2020-02-23T14:13:58Z</time>
      </trkpt>
      <trkpt lat="39.0828180" lon="1.5215860">
        <ele>266.2</ele>
        <time>2020-02-23T14:13:59Z</time>
      </trkpt>
      <trkpt lat="39.0827750" lon="1.5215880">
        <ele>266.3</ele>
        <time>2020-02-23T14:14:00Z</time>
      </trkpt>
      <trkpt lat="39.0827340" lon="1.5216020">
        <ele>266.3</ele>
        <time>2020-02-23T14:14:01Z</time>
      </trkpt>
      <trkpt lat="39.0826890" lon="1.5216200">
        <ele>266.3</ele>
        <time>2020-02-23T14:14:02Z</time>
      </trkpt>
      <trkpt lat="39.0826360" lon="1.5216340">
        <ele>266.3</ele>
        <time>2020-02-23T14:14:03Z</time>
      </trkpt>
      <trkpt lat="39.0825830" lon="1.5216480">
        <ele>266.3</ele>
        <time>2020-02-23T14:14:04Z</time>
      </trkpt>
      <trkpt lat="39.0825260" lon="1.5216540">
        <ele>266.3</ele>
        <time>2020-02-23T14:14:05Z</time>
      </trkpt>
      <trkpt lat="39.0824700" lon="1.5216600">
        <ele>266.2</ele>
        <time>2020-02-23T14:14:06Z</time>
      </trkpt>
      <trkpt lat="39.0824130" lon="1.5216590">
        <ele>266.1</ele>
        <time>2020-02-23T14:14:07Z</time>
      </trkpt>
      <trkpt lat="39.0823590" lon="1.5216600">
        <ele>266.1</ele>
        <time>2020-02-23T14:14:08Z</time>
      </trkpt>
      <trkpt lat="39.0823080" lon="1.5216650">
        <ele>266.0</ele>
        <time>2020-02-23T14:14:09Z</time>
      </trkpt>
      <trkpt lat="39.0822620" lon="1.5216620">
        <ele>265.9</ele>
        <time>2020-02-23T14:14:10Z</time>
      </trkpt>
      <trkpt lat="39.0822120" lon="1.5216640">
        <ele>265.6</ele>
        <time>2020-02-23T14:14:11Z</time>
      </trkpt>
      <trkpt lat="39.0821750" lon="1.5216340">
        <ele>265.4</ele>
        <time>2020-02-23T14:14:12Z</time>
      </trkpt>
      <trkpt lat="39.0821440" lon="1.5215780">
        <ele>265.1</ele>
        <time>2020-02-23T14:14:13Z</time>
      </trkpt>
      <trkpt lat="39.0821240" lon="1.5215100">
        <ele>264.7</ele>
        <time>2020-02-23T14:14:14Z</time>
      </trkpt>
      <trkpt lat="39.0821160" lon="1.5214350">
        <ele>264.4</ele>
        <time>2020-02-23T14:14:15Z</time>
      </trkpt>
      <trkpt lat="39.0821080" lon="1.5213540">
        <ele>264.0</ele>
        <time>2020-02-23T14:14:16Z</time>
      </trkpt>
      <trkpt lat="39.0821010" lon="1.5212690">
        <ele>263.5</ele>
        <time>2020-02-23T14:14:17Z</time>
      </trkpt>
      <trkpt lat="39.0820840" lon="1.5211770">
        <ele>262.8</ele>
        <time>2020-02-23T14:14:18Z</time>
      </trkpt>
      <trkpt lat="39.0820800" lon="1.5210830">
        <ele>262.2</ele>
        <time>2020-02-23T14:14:19Z</time>
      </trkpt>
      <trkpt lat="39.0820770" lon="1.5209920">
        <ele>261.7</ele>
        <time>2020-02-23T14:14:20Z</time>
      </trkpt>
      <trkpt lat="39.0820750" lon="1.5209040">
        <ele>261.3</ele>
        <time>2020-02-23T14:14:21Z</time>
      </trkpt>
      <trkpt lat="39.0820740" lon="1.5208160">
        <ele>260.8</ele>
        <time>2020-02-23T14:14:22Z</time>
      </trkpt>
      <trkpt lat="39.0820740" lon="1.5207300">
        <ele>260.4</ele>
        <time>2020-02-23T14:14:23Z</time>
      </trkpt>
      <trkpt lat="39.0820770" lon="1.5206470">
        <ele>260.1</ele>
        <time>2020-02-23T14:14:24Z</time>
      </trkpt>
      <trkpt lat="39.0820780" lon="1.5205670">
        <ele>259.9</ele>
        <time>2020-02-23T14:14:25Z</time>
      </trkpt>
      <trkpt lat="39.0820810" lon="1.5204830">
        <ele>259.8</ele>
        <time>2020-02-23T14:14:26Z</time>
      </trkpt>
      <trkpt lat="39.0820870" lon="1.5204020">
        <ele>259.7</ele>
        <time>2020-02-23T14:14:27Z</time>
      </trkpt>
      <trkpt lat="39.0820840" lon="1.5203230">
        <ele>259.5</ele>
        <time>2020-02-23T14:14:28Z</time>
      </trkpt>
      <trkpt lat="39.0820760" lon="1.5202500">
        <ele>259.4</ele>
        <time>2020-02-23T14:14:29Z</time>
      </trkpt>
      <trkpt lat="39.0820690" lon="1.5201770">
        <ele>259.3</ele>
        <time>2020-02-23T14:14:30Z</time>
      </trkpt>
      <trkpt lat="39.0820650" lon="1.5201040">
        <ele>259.2</ele>
        <time>2020-02-23T14:14:31Z</time>
      </trkpt>
      <trkpt lat="39.0820630" lon="1.5200310">
        <ele>259.1</ele>
        <time>2020-02-23T14:14:32Z</time>
      </trkpt>
      <trkpt lat="39.0820560" lon="1.5199600">
        <ele>259.1</ele>
        <time>2020-02-23T14:14:33Z</time>
      </trkpt>
      <trkpt lat="39.0820410" lon="1.5198910">
        <ele>259.0</ele>
        <time>2020-02-23T14:14:34Z</time>
      </trkpt>
      <trkpt lat="39.0820320" lon="1.5198240">
        <ele>259.0</ele>
        <time>2020-02-23T14:14:35Z</time>
      </trkpt>
      <trkpt lat="39.0820210" lon="1.5197560">
        <ele>259.0</ele>
        <time>2020-02-23T14:14:36Z</time>
      </trkpt>
      <trkpt lat="39.0820130" lon="1.5196870">
        <ele>258.9</ele>
        <time>2020-02-23T14:14:37Z</time>
      </trkpt>
      <trkpt lat="39.0819980" lon="1.5196230">
        <ele>258.9</ele>
        <time>2020-02-23T14:14:38Z</time>
      </trkpt>
      <trkpt lat="39.0819960" lon="1.5195550">
        <ele>258.8</ele>
        <time>2020-02-23T14:14:39Z</time>
      </trkpt>
      <trkpt lat="39.0820070" lon="1.5194760">
        <ele>258.8</ele>
        <time>2020-02-23T14:14:40Z</time>
      </trkpt>
      <trkpt lat="39.0820190" lon="1.5193910">
        <ele>258.7</ele>
        <time>2020-02-23T14:14:41Z</time>
      </trkpt>
      <trkpt lat="39.0820270" lon="1.5192980">
        <ele>258.6</ele>
        <time>2020-02-23T14:14:42Z</time>
      </trkpt>
      <trkpt lat="39.0820350" lon="1.5192000">
        <ele>258.5</ele>
        <time>2020-02-23T14:14:43Z</time>
      </trkpt>
      <trkpt lat="39.0820520" lon="1.5191050">
        <ele>258.3</ele>
        <time>2020-02-23T14:14:44Z</time>
      </trkpt>
      <trkpt lat="39.0820650" lon="1.5190150">
        <ele>258.1</ele>
        <time>2020-02-23T14:14:45Z</time>
      </trkpt>
      <trkpt lat="39.0821090" lon="1.5189420">
        <ele>257.8</ele>
        <time>2020-02-23T14:14:46Z</time>
      </trkpt>
      <trkpt lat="39.0821510" lon="1.5188700">
        <ele>257.6</ele>
        <time>2020-02-23T14:14:47Z</time>
      </trkpt>
      <trkpt lat="39.0821920" lon="1.5188050">
        <ele>257.3</ele>
        <time>2020-02-23T14:14:48Z</time>
      </trkpt>
      <trkpt lat="39.0822290" lon="1.5187410">
        <ele>257.1</ele>
        <time>2020-02-23T14:14:49Z</time>
      </trkpt>
      <trkpt lat="39.0822540" lon="1.5186730">
        <ele>257.0</ele>
        <time>2020-02-23T14:14:50Z</time>
      </trkpt>
      <trkpt lat="39.0822870" lon="1.5186100">
        <ele>256.8</ele>
        <time>2020-02-23T14:14:51Z</time>
      </trkpt>
      <trkpt lat="39.0823500" lon="1.5185600">
        <ele>256.6</ele>
        <time>2020-02-23T14:14:52Z</time>
      </trkpt>
      <trkpt lat="39.0823780" lon="1.5184920">
        <ele>256.4</ele>
        <time>2020-02-23T14:14:53Z</time>
      </trkpt>
      <trkpt lat="39.0824060" lon="1.5184230">
        <ele>256.3</ele>
        <time>2020-02-23T14:14:54Z</time>
      </trkpt>
      <trkpt lat="39.0824310" lon="1.5183510">
        <ele>256.3</ele>
        <time>2020-02-23T14:14:55Z</time>
      </trkpt>
      <trkpt lat="39.0824480" lon="1.5182760">
        <ele>256.2</ele>
        <time>2020-02-23T14:14:56Z</time>
      </trkpt>
      <trkpt lat="39.0824670" lon="1.5182070">
        <ele>256.2</ele>
        <time>2020-02-23T14:14:57Z</time>
      </trkpt>
      <trkpt lat="39.0824900" lon="1.5181430">
        <ele>256.2</ele>
        <time>2020-02-23T14:14:58Z</time>
      </trkpt>
      <trkpt lat="39.0825110" lon="1.5180810">
        <ele>256.1</ele>
        <time>2020-02-23T14:14:59Z</time>
      </trkpt>
      <trkpt lat="39.0825050" lon="1.5180110">
        <ele>256.1</ele>
        <time>2020-02-23T14:15:00Z</time>
      </trkpt>
      <trkpt lat="39.0825010" lon="1.5179380">
        <ele>256.0</ele>
        <time>2020-02-23T14:15:01Z</time>
      </trkpt>
      <trkpt lat="39.0824890" lon="1.5178550">
        <ele>255.9</ele>
        <time>2020-02-23T14:15:02Z</time>
      </trkpt>
      <trkpt lat="39.0824570" lon="1.5177760">
        <ele>255.8</ele>
        <time>2020-02-23T14:15:03Z</time>
      </trkpt>
      <trkpt lat="39.0824020" lon="1.5177120">
        <ele>255.7</ele>
        <time>2020-02-23T14:15:04Z</time>
      </trkpt>
      <trkpt lat="39.0823370" lon="1.5176600">
        <ele>255.6</ele>
        <time>2020-02-23T14:15:05Z</time>
      </trkpt>
      <trkpt lat="39.0822670" lon="1.5176340">
        <ele>255.2</ele>
        <time>2020-02-23T14:15:06Z</time>
      </trkpt>
      <trkpt lat="39.0821910" lon="1.5176340">
        <ele>254.8</ele>
        <time>2020-02-23T14:15:07Z</time>
      </trkpt>
      <trkpt lat="39.0821120" lon="1.5176470">
        <ele>254.3</ele>
        <time>2020-02-23T14:15:08Z</time>
      </trkpt>
      <trkpt lat="39.0820330" lon="1.5176680">
        <ele>253.5</ele>
        <time>2020-02-23T14:15:09Z</time>
      </trkpt>
      <trkpt lat="39.0819480" lon="1.5177030">
        <ele>252.6</ele>
        <time>2020-02-23T14:15:10Z</time>
      </trkpt>
      <trkpt lat="39.0818570" lon="1.5177410">
        <ele>251.5</ele>
        <time>2020-02-23T14:15:11Z</time>
      </trkpt>
      <trkpt lat="39.0817660" lon="1.5177750">
        <ele>250.7</ele>
        <time>2020-02-23T14:15:12Z</time>
      </trkpt>
      <trkpt lat="39.0816790" lon="1.5178180">
        <ele>250.0</ele>
        <time>2020-02-23T14:15:13Z</time>
      </trkpt>
      <trkpt lat="39.0815930" lon="1.5178640">
        <ele>249.3</ele>
        <time>2020-02-23T14:15:14Z</time>
      </trkpt>
      <trkpt lat="39.0814980" lon="1.5179030">
        <ele>248.5</ele>
        <time>2020-02-23T14:15:15Z</time>
      </trkpt>
      <trkpt lat="39.0814170" lon="1.5179680">
        <ele>247.8</ele>
        <time>2020-02-23T14:15:16Z</time>
      </trkpt>
      <trkpt lat="39.0813470" lon="1.5180450">
        <ele>247.1</ele>
        <time>2020-02-23T14:15:17Z</time>
      </trkpt>
      <trkpt lat="39.0812750" lon="1.5181210">
        <ele>246.4</ele>
        <time>2020-02-23T14:15:18Z</time>
      </trkpt>
      <trkpt lat="39.0812030" lon="1.5181950">
        <ele>245.7</ele>
        <time>2020-02-23T14:15:19Z</time>
      </trkpt>
      <trkpt lat="39.0811240" lon="1.5182580">
        <ele>245.1</ele>
        <time>2020-02-23T14:15:20Z</time>
      </trkpt>
      <trkpt lat="39.0810370" lon="1.5183000">
        <ele>244.6</ele>
        <time>2020-02-23T14:15:21Z</time>
      </trkpt>
      <trkpt lat="39.0809460" lon="1.5183250">
        <ele>244.0</ele>
        <time>2020-02-23T14:15:22Z</time>
      </trkpt>
      <trkpt lat="39.0808550" lon="1.5183240">
        <ele>243.5</ele>
        <time>2020-02-23T14:15:23Z</time>
      </trkpt>
      <trkpt lat="39.0807670" lon="1.5183090">
        <ele>243.0</ele>
        <time>2020-02-23T14:15:24Z</time>
      </trkpt>
      <trkpt lat="39.0806810" lon="1.5182810">
        <ele>242.6</ele>
        <time>2020-02-23T14:15:25Z</time>
      </trkpt>
      <trkpt lat="39.0806000" lon="1.5182350">
        <ele>242.2</ele>
        <time>2020-02-23T14:15:26Z</time>
      </trkpt>
      <trkpt lat="39.0805340" lon="1.5181660">
        <ele>241.7</ele>
        <time>2020-02-23T14:15:27Z</time>
      </trkpt>
      <trkpt lat="39.0804780" lon="1.5180860">
        <ele>241.3</ele>
        <time>2020-02-23T14:15:28Z</time>
      </trkpt>
      <trkpt lat="39.0804210" lon="1.5180100">
        <ele>240.8</ele>
        <time>2020-02-23T14:15:29Z</time>
      </trkpt>
      <trkpt lat="39.0803650" lon="1.5179360">
        <ele>240.4</ele>
        <time>2020-02-23T14:15:30Z</time>
      </trkpt>
      <trkpt lat="39.0803100" lon="1.5178570">
        <ele>240.1</ele>
        <time>2020-02-23T14:15:31Z</time>
      </trkpt>
      <trkpt lat="39.0802450" lon="1.5177820">
        <ele>239.8</ele>
        <time>2020-02-23T14:15:32Z</time>
      </trkpt>
      <trkpt lat="39.0801750" lon="1.5177010">
        <ele>239.5</ele>
        <time>2020-02-23T14:15:33Z</time>
      </trkpt>
      <trkpt lat="39.0801090" lon="1.5176210">
        <ele>239.1</ele>
        <time>2020-02-23T14:15:34Z</time>
      </trkpt>
      <trkpt lat="39.0800540" lon="1.5175400">
        <ele>238.8</ele>
        <time>2020-02-23T14:15:35Z</time>
      </trkpt>
      <trkpt lat="39.0800090" lon="1.5174560">
        <ele>238.5</ele>
        <time>2020-02-23T14:15:36Z</time>
      </trkpt>
      <trkpt lat="39.0799710" lon="1.5173800">
        <ele>238.2</ele>
        <time>2020-02-23T14:15:37Z</time>
      </trkpt>
      <trkpt lat="39.0799640" lon="1.5172940">
        <ele>238.0</ele>
        <time>2020-02-23T14:15:38Z</time>
      </trkpt>
      <trkpt lat="39.0799720" lon="1.5172130">
        <ele>237.7</ele>
        <time>2020-02-23T14:15:39Z</time>
      </trkpt>
      <trkpt lat="39.0799920" lon="1.5171250">
        <ele>237.3</ele>
        <time>2020-02-23T14:15:40Z</time>
      </trkpt>
      <trkpt lat="39.0800320" lon="1.5170360">
        <ele>236.7</ele>
        <time>2020-02-23T14:15:41Z</time>
      </trkpt>
      <trkpt lat="39.0801090" lon="1.5169600">
        <ele>234.6</ele>
        <time>2020-02-23T14:15:42Z</time>
      </trkpt>
      <trkpt lat="39.0801860" lon="1.5168950">
        <ele>233.6</ele>
        <time>2020-02-23T14:15:43Z</time>
      </trkpt>
      <trkpt lat="39.0802410" lon="1.5168070">
        <ele>232.7</ele>
        <time>2020-02-23T14:15:44Z</time>
      </trkpt>
      <trkpt lat="39.0802830" lon="1.5167200">
        <ele>231.9</ele>
        <time>2020-02-23T14:15:45Z</time>
      </trkpt>
      <trkpt lat="39.0803490" lon="1.5166500">
        <ele>231.1</ele>
        <time>2020-02-23T14:15:46Z</time>
      </trkpt>
      <trkpt lat="39.0803640" lon="1.5165640">
        <ele>230.5</ele>
        <time>2020-02-23T14:15:47Z</time>
      </trkpt>
      <trkpt lat="39.0803530" lon="1.5164830">
        <ele>230.0</ele>
        <time>2020-02-23T14:15:48Z</time>
      </trkpt>
      <trkpt lat="39.0803160" lon="1.5164120">
        <ele>229.4</ele>
        <time>2020-02-23T14:15:49Z</time>
      </trkpt>
      <trkpt lat="39.0802540" lon="1.5163600">
        <ele>228.7</ele>
        <time>2020-02-23T14:15:50Z</time>
      </trkpt>
      <trkpt lat="39.0801800" lon="1.5163230">
        <ele>228.1</ele>
        <time>2020-02-23T14:15:51Z</time>
      </trkpt>
      <trkpt lat="39.0800970" lon="1.5163000">
        <ele>227.3</ele>
        <time>2020-02-23T14:15:52Z</time>
      </trkpt>
      <trkpt lat="39.0800120" lon="1.5162860">
        <ele>221.7</ele>
        <time>2020-02-23T14:15:53Z</time>
      </trkpt>
      <trkpt lat="39.0799220" lon="1.5162810">
        <ele>221.5</ele>
        <time>2020-02-23T14:15:54Z</time>
      </trkpt>
      <trkpt lat="39.0798300" lon="1.5162790">
        <ele>221.1</ele>
        <time>2020-02-23T14:15:55Z</time>
      </trkpt>
      <trkpt lat="39.0797360" lon="1.5162730">
        <ele>220.8</ele>
        <time>2020-02-23T14:15:56Z</time>
      </trkpt>
      <trkpt lat="39.0796420" lon="1.5162610">
        <ele>220.3</ele>
        <time>2020-02-23T14:15:57Z</time>
      </trkpt>
      <trkpt lat="39.0795490" lon="1.5162480">
        <ele>219.7</ele>
        <time>2020-02-23T14:15:58Z</time>
      </trkpt>
      <trkpt lat="39.0794580" lon="1.5162290">
        <ele>219.3</ele>
        <time>2020-02-23T14:15:59Z</time>
      </trkpt>
      <trkpt lat="39.0793720" lon="1.5161850">
        <ele>218.8</ele>
        <time>2020-02-23T14:16:00Z</time>
      </trkpt>
      <trkpt lat="39.0792850" lon="1.5161400">
        <ele>218.2</ele>
        <time>2020-02-23T14:16:01Z</time>
      </trkpt>
      <trkpt lat="39.0791980" lon="1.5160950">
        <ele>217.5</ele>
        <time>2020-02-23T14:16:02Z</time>
      </trkpt>
      <trkpt lat="39.0791150" lon="1.5160490">
        <ele>216.9</ele>
        <time>2020-02-23T14:16:03Z</time>
      </trkpt>
      <trkpt lat="39.0790320" lon="1.5160080">
        <ele>216.3</ele>
        <time>2020-02-23T14:16:04Z</time>
      </trkpt>
      <trkpt lat="39.0789480" lon="1.5159710">
        <ele>215.6</ele>
        <time>2020-02-23T14:16:05Z</time>
      </trkpt>
      <trkpt lat="39.0788670" lon="1.5159400">
        <ele>215.0</ele>
        <time>2020-02-23T14:16:06Z</time>
      </trkpt>
      <trkpt lat="39.0787870" lon="1.5159150">
        <ele>214.4</ele>
        <time>2020-02-23T14:16:07Z</time>
      </trkpt>
      <trkpt lat="39.0787060" lon="1.5159080">
        <ele>213.7</ele>
        <time>2020-02-23T14:16:08Z</time>
      </trkpt>
      <trkpt lat="39.0786280" lon="1.5159080">
        <ele>212.9</ele>
        <time>2020-02-23T14:16:09Z</time>
      </trkpt>
      <trkpt lat="39.0785420" lon="1.5159110">
        <ele>212.0</ele>
        <time>2020-02-23T14:16:10Z</time>
      </trkpt>
      <trkpt lat="39.0784610" lon="1.5159180">
        <ele>211.2</ele>
        <time>2020-02-23T14:16:11Z</time>
      </trkpt>
      <trkpt lat="39.0783860" lon="1.5159270">
        <ele>210.4</ele>
        <time>2020-02-23T14:16:12Z</time>
      </trkpt>
      <trkpt lat="39.0783130" lon="1.5159400">
        <ele>209.3</ele>
        <time>2020-02-23T14:16:13Z</time>
      </trkpt>
      <trkpt lat="39.0782610" lon="1.5159530">
        <ele>208.6</ele>
        <time>2020-02-23T14:16:14Z</time>
      </trkpt>
      <trkpt lat="39.0782200" lon="1.5159500">
        <ele>208.1</ele>
        <time>2020-02-23T14:16:15Z</time>
      </trkpt>
      <trkpt lat="39.0781840" lon="1.5159440">
        <ele>207.7</ele>
        <time>2020-02-23T14:16:16Z</time>
      </trkpt>
      <trkpt lat="39.0781460" lon="1.5159240">
        <ele>207.3</ele>
        <time>2020-02-23T14:16:17Z</time>
      </trkpt>
      <trkpt lat="39.0781320" lon="1.5159180">
        <ele>207.1</ele>
        <time>2020-02-23T14:16:18Z</time>
      </trkpt>
      <trkpt lat="39.0781360" lon="1.5158750">
        <ele>206.9</ele>
        <time>2020-02-23T14:16:19Z</time>
      </trkpt>
      <trkpt lat="39.0781380" lon="1.5158270">
        <ele>206.6</ele>
        <time>2020-02-23T14:16:20Z</time>
      </trkpt>
      <trkpt lat="39.0781360" lon="1.5157810">
        <ele>206.1</ele>
        <time>2020-02-23T14:16:21Z</time>
      </trkpt>
      <trkpt lat="39.0781300" lon="1.5157350">
        <ele>205.9</ele>
        <time>2020-02-23T14:16:22Z</time>
      </trkpt>
      <trkpt lat="39.0781230" lon="1.5156910">
        <ele>205.7</ele>
        <time>2020-02-23T14:16:23Z</time>
      </trkpt>
      <trkpt lat="39.0781170" lon="1.5156350">
        <ele>205.5</ele>
        <time>2020-02-23T14:16:24Z</time>
      </trkpt>
      <trkpt lat="39.0781020" lon="1.5155950">
        <ele>205.4</ele>
        <time>2020-02-23T14:16:25Z</time>
      </trkpt>
      <trkpt lat="39.0781000" lon="1.5155490">
        <ele>205.2</ele>
        <time>2020-02-23T14:16:26Z</time>
      </trkpt>
      <trkpt lat="39.0780890" lon="1.5155140">
        <ele>205.1</ele>
        <time>2020-02-23T14:16:27Z</time>
      </trkpt>
      <trkpt lat="39.0780820" lon="1.5154800">
        <ele>205.0</ele>
        <time>2020-02-23T14:16:28Z</time>
      </trkpt>
      <trkpt lat="39.0780760" lon="1.5154460">
        <ele>204.9</ele>
        <time>2020-02-23T14:16:29Z</time>
      </trkpt>
      <trkpt lat="39.0780680" lon="1.5154130">
        <ele>204.8</ele>
        <time>2020-02-23T14:16:30Z</time>
      </trkpt>
      <trkpt lat="39.0780630" lon="1.5153720">
        <ele>204.6</ele>
        <time>2020-02-23T14:16:31Z</time>
      </trkpt>
      <trkpt lat="39.0780610" lon="1.5153280">
        <ele>204.5</ele>
        <time>2020-02-23T14:16:32Z</time>
      </trkpt>
      <trkpt lat="39.0780590" lon="1.5152810">
        <ele>204.3</ele>
        <time>2020-02-23T14:16:33Z</time>
      </trkpt>
      <trkpt lat="39.0780570" lon="1.5152310">
        <ele>204.2</ele>
        <time>2020-02-23T14:16:34Z</time>
      </trkpt>
      <trkpt lat="39.0780530" lon="1.5151790">
        <ele>204.0</ele>
        <time>2020-02-23T14:16:35Z</time>
      </trkpt>
      <trkpt lat="39.0780520" lon="1.5151260">
        <ele>203.8</ele>
        <time>2020-02-23T14:16:36Z</time>
      </trkpt>
      <trkpt lat="39.0780470" lon="1.5150690">
        <ele>203.6</ele>
        <time>2020-02-23T14:16:37Z</time>
      </trkpt>
      <trkpt lat="39.0780370" lon="1.5150040">
        <ele>203.4</ele>
        <time>2020-02-23T14:16:38Z</time>
      </trkpt>
      <trkpt lat="39.0780230" lon="1.5149330">
        <ele>203.1</ele>
        <time>2020-02-23T14:16:39Z</time>
      </trkpt>
      <trkpt lat="39.0780040" lon="1.5148560">
        <ele>202.8</ele>
        <time>2020-02-23T14:16:40Z</time>
      </trkpt>
      <trkpt lat="39.0779880" lon="1.5147770">
        <ele>202.5</ele>
        <time>2020-02-23T14:16:41Z</time>
      </trkpt>
      <trkpt lat="39.0779840" lon="1.5147130">
        <ele>202.2</ele>
        <time>2020-02-23T14:16:42Z</time>
      </trkpt>
      <trkpt lat="39.0779830" lon="1.5146620">
        <ele>201.9</ele>
        <time>2020-02-23T14:16:43Z</time>
      </trkpt>
      <trkpt lat="39.0779830" lon="1.5146060">
        <ele>201.7</ele>
        <time>2020-02-23T14:16:44Z</time>
      </trkpt>
      <trkpt lat="39.0779810" lon="1.5145320">
        <ele>201.4</ele>
        <time>2020-02-23T14:16:45Z</time>
      </trkpt>
      <trkpt lat="39.0779640" lon="1.5144420">
        <ele>200.4</ele>
        <time>2020-02-23T14:16:46Z</time>
      </trkpt>
      <trkpt lat="39.0779250" lon="1.5143360">
        <ele>199.7</ele>
        <time>2020-02-23T14:16:47Z</time>
      </trkpt>
      <trkpt lat="39.0778940" lon="1.5142440">
        <ele>199.1</ele>
        <time>2020-02-23T14:16:48Z</time>
      </trkpt>
      <trkpt lat="39.0778810" lon="1.5141750">
        <ele>198.7</ele>
        <time>2020-02-23T14:16:49Z</time>
      </trkpt>
      <trkpt lat="39.0778760" lon="1.5141200">
        <ele>198.3</ele>
        <time>2020-02-23T14:16:50Z</time>
      </trkpt>
      <trkpt lat="39.0778760" lon="1.5140420">
        <ele>197.9</ele>
        <time>2020-02-23T14:16:51Z</time>
      </trkpt>
      <trkpt lat="39.0778700" lon="1.5139980">
        <ele>197.6</ele>
        <time>2020-02-23T14:16:52Z</time>
      </trkpt>
      <trkpt lat="39.0778620" lon="1.5139570">
        <ele>197.4</ele>
        <time>2020-02-23T14:16:53Z</time>
      </trkpt>
      <trkpt lat="39.0778510" lon="1.5139140">
        <ele>197.0</ele>
        <time>2020-02-23T14:16:54Z</time>
      </trkpt>
      <trkpt lat="39.0778450" lon="1.5139030">
        <ele>196.9</ele>
        <time>2020-02-23T14:16:55Z</time>
      </trkpt>
      <trkpt lat="39.0778440" lon="1.5138820">
        <ele>196.7</ele>
        <time>2020-02-23T14:16:56Z</time>
      </trkpt>
      <trkpt lat="39.0778410" lon="1.5138560">
        <ele>196.5</ele>
        <time>2020-02-23T14:16:57Z</time>
      </trkpt>
      <trkpt lat="39.0778460" lon="1.5138350">
        <ele>196.3</ele>
        <time>2020-02-23T14:16:58Z</time>
      </trkpt>
      <trkpt lat="39.0778420" lon="1.5138210">
        <ele>196.2</ele>
        <time>2020-02-23T14:16:59Z</time>
      </trkpt>
      <trkpt lat="39.0778300" lon="1.5138000">
        <ele>196.0</ele>
        <time>2020-02-23T14:17:00Z</time>
      </trkpt>
      <trkpt lat="39.0778260" lon="1.5137860">
        <ele>195.8</ele>
        <time>2020-02-23T14:17:01Z</time>
      </trkpt>
      <trkpt lat="39.0778230" lon="1.5137720">
        <ele>195.7</ele>
        <time>2020-02-23T14:17:02Z</time>
      </trkpt>
      <trkpt lat="39.0778250" lon="1.5137330">
        <ele>195.4</ele>
        <time>2020-02-23T14:17:03Z</time>
      </trkpt>
      <trkpt lat="39.0778250" lon="1.5137230">
        <ele>195.3</ele>
        <time>2020-02-23T14:17:04Z</time>
      </trkpt>
      <trkpt lat="39.0778300" lon="1.5136890">
        <ele>195.1</ele>
        <time>2020-02-23T14:17:05Z</time>
      </trkpt>
      <trkpt lat="39.0778320" lon="1.5136740">
        <ele>195.0</ele>
        <time>2020-02-23T14:17:06Z</time>
      </trkpt>
      <trkpt lat="39.0778330" lon="1.5136460">
        <ele>194.8</ele>
        <time>2020-02-23T14:17:07Z</time>
      </trkpt>
      <trkpt lat="39.0778290" lon="1.5136320">
        <ele>194.7</ele>
        <time>2020-02-23T14:17:08Z</time>
      </trkpt>
      <trkpt lat="39.0778310" lon="1.5136230">
        <ele>194.6</ele>
        <time>2020-02-23T14:17:09Z</time>
      </trkpt>
      <trkpt lat="39.0778310" lon="1.5136170">
        <ele>194.6</ele>
        <time>2020-02-23T14:17:10Z</time>
      </trkpt>
      <trkpt lat="39.0778300" lon="1.5136160">
        <ele>194.6</ele>
        <time>2020-02-23T14:17:11Z</time>
      </trkpt>
      <trkpt lat="39.0778300" lon="1.5136140">
        <ele>194.4</ele>
        <time>2020-02-23T14:17:12Z</time>
      </trkpt>
      <trkpt lat="39.0778290" lon="1.5136150">
        <ele>194.4</ele>
        <time>2020-02-23T14:17:13Z</time>
      </trkpt>
      <trkpt lat="39.0778280" lon="1.5136170">
        <ele>194.6</ele>
        <time>2020-02-23T14:17:14Z</time>
      </trkpt>
      <trkpt lat="39.0778270" lon="1.5136190">
        <ele>194.6</ele>
        <time>2020-02-23T14:17:15Z</time>
      </trkpt>
      <trkpt lat="39.0778270" lon="1.5136220">
        <ele>194.6</ele>
        <time>2020-02-23T14:17:16Z</time>
      </trkpt>
      <trkpt lat="39.0778290" lon="1.5136240">
        <ele>194.6</ele>
        <time>2020-02-23T14:17:17Z</time>
      </trkpt>
      <trkpt lat="39.0778340" lon="1.5136260">
        <ele>194.7</ele>
        <time>2020-02-23T14:17:18Z</time>
      </trkpt>
      <trkpt lat="39.0778080" lon="1.5135610">
        <ele>194.3</ele>
        <time>2020-02-23T14:17:36Z</time>
      </trkpt>
      <trkpt lat="39.0778260" lon="1.5135550">
        <ele>194.2</ele>
        <time>2020-02-23T14:17:37Z</time>
      </trkpt>
      <trkpt lat="39.0778230" lon="1.5135540">
        <ele>194.2</ele>
        <time>2020-02-23T14:17:38Z</time>
      </trkpt>
      <trkpt lat="39.0778210" lon="1.5135540">
        <ele>194.2</ele>
        <time>2020-02-23T14:17:39Z</time>
      </trkpt>
      <trkpt lat="39.0778260" lon="1.5135520">
        <ele>194.2</ele>
        <time>2020-02-23T14:17:40Z</time>
      </trkpt>
      <trkpt lat="39.0778300" lon="1.5135520">
        <ele>194.2</ele>
        <time>2020-02-23T14:17:41Z</time>
      </trkpt>
      <trkpt lat="39.0778310" lon="1.5135530">
        <ele>194.2</ele>
        <time>2020-02-23T14:17:42Z</time>
      </trkpt>
      <trkpt lat="39.0778350" lon="1.5135490">
        <ele>194.2</ele>
        <time>2020-02-23T14:17:43Z</time>
      </trkpt>
      <trkpt lat="39.0778360" lon="1.5135460">
        <ele>194.2</ele>
        <time>2020-02-23T14:17:44Z</time>
      </trkpt>
      <trkpt lat="39.0778190" lon="1.5135510">
        <ele>194.1</ele>
        <time>2020-02-23T14:17:45Z</time>
      </trkpt>
      <trkpt lat="39.0778030" lon="1.5135570">
        <ele>194.0</ele>
        <time>2020-02-23T14:17:46Z</time>
      </trkpt>
      <trkpt lat="39.0777980" lon="1.5135570">
        <ele>194.0</ele>
        <time>2020-02-23T14:17:47Z</time>
      </trkpt>
      <trkpt lat="39.0777860" lon="1.5134850">
        <ele>193.8</ele>
        <time>2020-02-23T14:18:09Z</time>
      </trkpt>
      <trkpt lat="39.0777810" lon="1.5134660">
        <ele>193.8</ele>
        <time>2020-02-23T14:18:10Z</time>
      </trkpt>
      <trkpt lat="39.0777750" lon="1.5134500">
        <ele>193.7</ele>
        <time>2020-02-23T14:18:11Z</time>
      </trkpt>
      <trkpt lat="39.0777720" lon="1.5134350">
        <ele>193.7</ele>
        <time>2020-02-23T14:18:12Z</time>
      </trkpt>
      <trkpt lat="39.0777600" lon="1.5134290">
        <ele>193.6</ele>
        <time>2020-02-23T14:18:13Z</time>
      </trkpt>
      <trkpt lat="39.0777570" lon="1.5134180">
        <ele>193.6</ele>
        <time>2020-02-23T14:18:14Z</time>
      </trkpt>
      <trkpt lat="39.0777520" lon="1.5134110">
        <ele>193.6</ele>
        <time>2020-02-23T14:18:15Z</time>
      </trkpt>
      <trkpt lat="39.0777450" lon="1.5133960">
        <ele>193.5</ele>
        <time>2020-02-23T14:18:16Z</time>
      </trkpt>
      <trkpt lat="39.0777380" lon="1.5133560">
        <ele>193.4</ele>
        <time>2020-02-23T14:18:17Z</time>
      </trkpt>
      <trkpt lat="39.0777340" lon="1.5133410">
        <ele>193.4</ele>
        <time>2020-02-23T14:18:18Z</time>
      </trkpt>
      <trkpt lat="39.0777280" lon="1.5133070">
        <ele>193.3</ele>
        <time>2020-02-23T14:18:19Z</time>
      </trkpt>
      <trkpt lat="39.0777150" lon="1.5132640">
        <ele>193.1</ele>
        <time>2020-02-23T14:18:20Z</time>
      </trkpt>
      <trkpt lat="39.0777100" lon="1.5132520">
        <ele>193.2</ele>
        <time>2020-02-23T14:18:21Z</time>
      </trkpt>
      <trkpt lat="39.0777040" lon="1.5132330">
        <ele>193.2</ele>
        <time>2020-02-23T14:18:22Z</time>
      </trkpt>
      <trkpt lat="39.0777070" lon="1.5132280">
        <ele>193.2</ele>
        <time>2020-02-23T14:18:23Z</time>
      </trkpt>
      <trkpt lat="39.0777100" lon="1.5132280">
        <ele>193.2</ele>
        <time>2020-02-23T14:18:24Z</time>
      </trkpt>
      <trkpt lat="39.0777120" lon="1.5132270">
        <ele>193.2</ele>
        <time>2020-02-23T14:18:25Z</time>
      </trkpt>
      <trkpt lat="39.0777170" lon="1.5132280">
        <ele>193.3</ele>
        <time>2020-02-23T14:18:26Z</time>
      </trkpt>
      <trkpt lat="39.0777230" lon="1.5132290">
        <ele>193.3</ele>
        <time>2020-02-23T14:18:27Z</time>
      </trkpt>
      <trkpt lat="39.0777290" lon="1.5132310">
        <ele>193.3</ele>
        <time>2020-02-23T14:18:28Z</time>
      </trkpt>
      <trkpt lat="39.0777340" lon="1.5132330">
        <ele>193.3</ele>
        <time>2020-02-23T14:18:29Z</time>
      </trkpt>
      <trkpt lat="39.0777240" lon="1.5132290">
        <ele>193.3</ele>
        <time>2020-02-23T14:18:30Z</time>
      </trkpt>
      <trkpt lat="39.0777310" lon="1.5132330">
        <ele>193.4</ele>
        <time>2020-02-23T14:18:31Z</time>
      </trkpt>
      <trkpt lat="39.0777360" lon="1.5132390">
        <ele>193.4</ele>
        <time>2020-02-23T14:18:32Z</time>
      </trkpt>
      <trkpt lat="39.0777420" lon="1.5132410">
        <ele>193.4</ele>
        <time>2020-02-23T14:18:33Z</time>
      </trkpt>
      <trkpt lat="39.0777790" lon="1.5133300">
        <ele>193.6</ele>
        <time>2020-02-23T14:18:39Z</time>
      </trkpt>
      <trkpt lat="39.0777790" lon="1.5133430">
        <ele>193.7</ele>
        <time>2020-02-23T14:18:40Z</time>
      </trkpt>
      <trkpt lat="39.0777820" lon="1.5133530">
        <ele>193.7</ele>
        <time>2020-02-23T14:18:41Z</time>
      </trkpt>
      <trkpt lat="39.0777860" lon="1.5133660">
        <ele>193.7</ele>
        <time>2020-02-23T14:18:42Z</time>
      </trkpt>
      <trkpt lat="39.0777980" lon="1.5133780">
        <ele>193.8</ele>
        <time>2020-02-23T14:18:43Z</time>
      </trkpt>
      <trkpt lat="39.0778040" lon="1.5133880">
        <ele>193.8</ele>
        <time>2020-02-23T14:18:44Z</time>
      </trkpt>
      <trkpt lat="39.0778140" lon="1.5133950">
        <ele>193.8</ele>
        <time>2020-02-23T14:18:45Z</time>
      </trkpt>
      <trkpt lat="39.0778180" lon="1.5134090">
        <ele>193.9</ele>
        <time>2020-02-23T14:18:46Z</time>
      </trkpt>
      <trkpt lat="39.0778210" lon="1.5134230">
        <ele>193.9</ele>
        <time>2020-02-23T14:18:47Z</time>
      </trkpt>
      <trkpt lat="39.0778220" lon="1.5134380">
        <ele>193.9</ele>
        <time>2020-02-23T14:18:48Z</time>
      </trkpt>
      <trkpt lat="39.0778300" lon="1.5134420">
        <ele>194.0</ele>
        <time>2020-02-23T14:18:49Z</time>
      </trkpt>
      <trkpt lat="39.0778300" lon="1.5134530">
        <ele>194.0</ele>
        <time>2020-02-23T14:18:50Z</time>
      </trkpt>
      <trkpt lat="39.0778330" lon="1.5134600">
        <ele>194.0</ele>
        <time>2020-02-23T14:18:51Z</time>
      </trkpt>
      <trkpt lat="39.0778320" lon="1.5134680">
        <ele>194.0</ele>
        <time>2020-02-23T14:18:52Z</time>
      </trkpt>
      <trkpt lat="39.0778350" lon="1.5134740">
        <ele>194.0</ele>
        <time>2020-02-23T14:18:53Z</time>
      </trkpt>
      <trkpt lat="39.0778370" lon="1.5134800">
        <ele>194.0</ele>
        <time>2020-02-23T14:18:54Z</time>
      </trkpt>
      <trkpt lat="39.0778420" lon="1.5134850">
        <ele>194.1</ele>
        <time>2020-02-23T14:18:55Z</time>
      </trkpt>
      <trkpt lat="39.0778440" lon="1.5134900">
        <ele>194.1</ele>
        <time>2020-02-23T14:18:56Z</time>
      </trkpt>
      <trkpt lat="39.0778460" lon="1.5134880">
        <ele>194.1</ele>
        <time>2020-02-23T14:18:57Z</time>
      </trkpt>
      <trkpt lat="39.0778440" lon="1.5134880">
        <ele>194.1</ele>
        <time>2020-02-23T14:18:58Z</time>
      </trkpt>
      <trkpt lat="39.0778400" lon="1.5134920">
        <ele>194.1</ele>
        <time>2020-02-23T14:18:59Z</time>
      </trkpt>
      <trkpt lat="39.0778350" lon="1.5134970">
        <ele>194.1</ele>
        <time>2020-02-23T14:19:00Z</time>
      </trkpt>
      <trkpt lat="39.0778380" lon="1.5135000">
        <ele>194.1</ele>
        <time>2020-02-23T14:19:01Z</time>
      </trkpt>
      <trkpt lat="39.0778270" lon="1.5135090">
        <ele>194.4</ele>
        <time>2020-02-23T14:19:02Z</time>
      </trkpt>
      <trkpt lat="39.0778340" lon="1.5135090">
        <ele>194.4</ele>
        <time>2020-02-23T14:19:03Z</time>
      </trkpt>
      <trkpt lat="39.0778320" lon="1.5135140">
        <ele>194.4</ele>
        <time>2020-02-23T14:19:04Z</time>
      </trkpt>
      <trkpt lat="39.0778240" lon="1.5135200">
        <ele>194.4</ele>
        <time>2020-02-23T14:19:05Z</time>
      </trkpt>
      <trkpt lat="39.0778210" lon="1.5135200">
        <ele>194.4</ele>
        <time>2020-02-23T14:19:06Z</time>
      </trkpt>
      <trkpt lat="39.0778270" lon="1.5135210">
        <ele>194.4</ele>
        <time>2020-02-23T14:19:07Z</time>
      </trkpt>
      <trkpt lat="39.0778300" lon="1.5135280">
        <ele>194.4</ele>
        <time>2020-02-23T14:19:08Z</time>
      </trkpt>
      <trkpt lat="39.0778390" lon="1.5135320">
        <ele>194.4</ele>
        <time>2020-02-23T14:19:09Z</time>
      </trkpt>
      <trkpt lat="39.0778330" lon="1.5135340">
        <ele>194.4</ele>
        <time>2020-02-23T14:19:10Z</time>
      </trkpt>
      <trkpt lat="39.0778300" lon="1.5135340">
        <ele>194.4</ele>
        <time>2020-02-23T14:19:11Z</time>
      </trkpt>
      <trkpt lat="39.0778210" lon="1.5135350">
        <ele>194.4</ele>
        <time>2020-02-23T14:19:12Z</time>
      </trkpt>
      <trkpt lat="39.0778170" lon="1.5135350">
        <ele>194.4</ele>
        <time>2020-02-23T14:19:13Z</time>
      </trkpt>
      <trkpt lat="39.0778220" lon="1.5135330">
        <ele>194.4</ele>
        <time>2020-02-23T14:19:14Z</time>
      </trkpt>
      <trkpt lat="39.0778290" lon="1.5135310">
        <ele>194.4</ele>
        <time>2020-02-23T14:19:15Z</time>
      </trkpt>
      <trkpt lat="39.0778290" lon="1.5135340">
        <ele>194.4</ele>
        <time>2020-02-23T14:19:16Z</time>
      </trkpt>
      <trkpt lat="39.0778390" lon="1.5135360">
        <ele>194.4</ele>
        <time>2020-02-23T14:19:17Z</time>
      </trkpt>
      <trkpt lat="39.0778360" lon="1.5135400">
        <ele>194.4</ele>
        <time>2020-02-23T14:19:18Z</time>
      </trkpt>
      <trkpt lat="39.0778350" lon="1.5135470">
        <ele>194.4</ele>
        <time>2020-02-23T14:19:19Z</time>
      </trkpt>
      <trkpt lat="39.0778360" lon="1.5135540">
        <ele>194.4</ele>
        <time>2020-02-23T14:19:20Z</time>
      </trkpt>
      <trkpt lat="39.0778380" lon="1.5135590">
        <ele>194.4</ele>
        <time>2020-02-23T14:19:21Z</time>
      </trkpt>
      <trkpt lat="39.0778370" lon="1.5135600">
        <ele>194.4</ele>
        <time>2020-02-23T14:19:22Z</time>
      </trkpt>
      <trkpt lat="39.0778410" lon="1.5135610">
        <ele>194.4</ele>
        <time>2020-02-23T14:19:23Z</time>
      </trkpt>
      <trkpt lat="39.0778520" lon="1.5135640">
        <ele>194.4</ele>
        <time>2020-02-23T14:19:24Z</time>
      </trkpt>
      <trkpt lat="39.0778590" lon="1.5135660">
        <ele>194.4</ele>
        <time>2020-02-23T14:19:25Z</time>
      </trkpt>
      <trkpt lat="39.0778580" lon="1.5135670">
        <ele>194.4</ele>
        <time>2020-02-23T14:19:26Z</time>
      </trkpt>
      <trkpt lat="39.0778610" lon="1.5135680">
        <ele>194.4</ele>
        <time>2020-02-23T14:19:27Z</time>
      </trkpt>
      <trkpt lat="39.0778640" lon="1.5135690">
        <ele>194.4</ele>
        <time>2020-02-23T14:19:28Z</time>
      </trkpt>
      <trkpt lat="39.0778590" lon="1.5135640">
        <ele>194.4</ele>
        <time>2020-02-23T14:19:29Z</time>
      </trkpt>
      <trkpt lat="39.0778590" lon="1.5135610">
        <ele>194.4</ele>
        <time>2020-02-23T14:19:30Z</time>
      </trkpt>
      <trkpt lat="39.0778540" lon="1.5135600">
        <ele>194.4</ele>
        <time>2020-02-23T14:19:31Z</time>
      </trkpt>
      <trkpt lat="39.0778510" lon="1.5135580">
        <ele>194.4</ele>
        <time>2020-02-23T14:19:32Z</time>
      </trkpt>
      <trkpt lat="39.0778560" lon="1.5135600">
        <ele>194.4</ele>
        <time>2020-02-23T14:19:33Z</time>
      </trkpt>
      <trkpt lat="39.0778570" lon="1.5135580">
        <ele>194.4</ele>
        <time>2020-02-23T14:19:34Z</time>
      </trkpt>
      <trkpt lat="39.0778580" lon="1.5135580">
        <ele>194.4</ele>
        <time>2020-02-23T14:19:35Z</time>
      </trkpt>
      <trkpt lat="39.0778760" lon="1.5135430">
        <ele>194.3</ele>
        <time>2020-02-23T14:24:52Z</time>
      </trkpt>
      <trkpt lat="39.0778750" lon="1.5135320">
        <ele>194.3</ele>
        <time>2020-02-23T14:24:53Z</time>
      </trkpt>
      <trkpt lat="39.0778710" lon="1.5135290">
        <ele>194.3</ele>
        <time>2020-02-23T14:24:54Z</time>
      </trkpt>
      <trkpt lat="39.0778680" lon="1.5135310">
        <ele>194.3</ele>
        <time>2020-02-23T14:24:55Z</time>
      </trkpt>
      <trkpt lat="39.0778690" lon="1.5135280">
        <ele>194.3</ele>
        <time>2020-02-23T14:24:56Z</time>
      </trkpt>
      <trkpt lat="39.0778670" lon="1.5135310">
        <ele>194.3</ele>
        <time>2020-02-23T14:24:57Z</time>
      </trkpt>
      <trkpt lat="39.0778660" lon="1.5135290">
        <ele>194.3</ele>
        <time>2020-02-23T14:24:58Z</time>
      </trkpt>
      <trkpt lat="39.0778660" lon="1.5135200">
        <ele>194.3</ele>
        <time>2020-02-23T14:24:59Z</time>
      </trkpt>
      <trkpt lat="39.0778670" lon="1.5135130">
        <ele>194.3</ele>
        <time>2020-02-23T14:25:00Z</time>
      </trkpt>
      <trkpt lat="39.0778640" lon="1.5135130">
        <ele>194.3</ele>
        <time>2020-02-23T14:25:01Z</time>
      </trkpt>
      <trkpt lat="39.0778640" lon="1.5135130">
        <ele>194.3</ele>
        <time>2020-02-23T14:25:02Z</time>
      </trkpt>
      <trkpt lat="39.0778670" lon="1.5135130">
        <ele>194.3</ele>
        <time>2020-02-23T14:25:03Z</time>
      </trkpt>
      <trkpt lat="39.0778680" lon="1.5135140">
        <ele>194.3</ele>
        <time>2020-02-23T14:25:04Z</time>
      </trkpt>
      <trkpt lat="39.0778750" lon="1.5135160">
        <ele>194.3</ele>
        <time>2020-02-23T14:25:05Z</time>
      </trkpt>
      <trkpt lat="39.0779050" lon="1.5135400">
        <ele>194.3</ele>
        <time>2020-02-23T14:25:09Z</time>
      </trkpt>
      <trkpt lat="39.0779120" lon="1.5135430">
        <ele>194.3</ele>
        <time>2020-02-23T14:25:10Z</time>
      </trkpt>
      <trkpt lat="39.0779170" lon="1.5135430">
        <ele>194.3</ele>
        <time>2020-02-23T14:25:11Z</time>
      </trkpt>
      <trkpt lat="39.0779180" lon="1.5135430">
        <ele>194.3</ele>
        <time>2020-02-23T14:25:12Z</time>
      </trkpt>
      <trkpt lat="39.0779190" lon="1.5135430">
        <ele>194.3</ele>
        <time>2020-02-23T14:25:13Z</time>
      </trkpt>
      <trkpt lat="39.0779190" lon="1.5135410">
        <ele>194.3</ele>
        <time>2020-02-23T14:25:14Z</time>
      </trkpt>
      <trkpt lat="39.0779190" lon="1.5135420">
        <ele>194.3</ele>
        <time>2020-02-23T14:25:15Z</time>
      </trkpt>
      <trkpt lat="39.0779170" lon="1.5135410">
        <ele>194.3</ele>
        <time>2020-02-23T14:25:16Z</time>
      </trkpt>
      <trkpt lat="39.0779160" lon="1.5135390">
        <ele>194.3</ele>
        <time>2020-02-23T14:25:17Z</time>
      </trkpt>
      <trkpt lat="39.0779120" lon="1.5135340">
        <ele>194.3</ele>
        <time>2020-02-23T14:25:18Z</time>
      </trkpt>
      <trkpt lat="39.0779010" lon="1.5135210">
        <ele>194.3</ele>
        <time>2020-02-23T14:25:19Z</time>
      </trkpt>
      <trkpt lat="39.0778900" lon="1.5135090">
        <ele>194.3</ele>
        <time>2020-02-23T14:25:20Z</time>
      </trkpt>
      <trkpt lat="39.0778850" lon="1.5135030">
        <ele>194.3</ele>
        <time>2020-02-23T14:25:21Z</time>
      </trkpt>
      <trkpt lat="39.0778830" lon="1.5135030">
        <ele>194.3</ele>
        <time>2020-02-23T14:25:22Z</time>
      </trkpt>
      <trkpt lat="39.0778830" lon="1.5135060">
        <ele>194.3</ele>
        <time>2020-02-23T14:25:23Z</time>
      </trkpt>
      <trkpt lat="39.0778820" lon="1.5135090">
        <ele>194.3</ele>
        <time>2020-02-23T14:25:24Z</time>
      </trkpt>
      <trkpt lat="39.0778800" lon="1.5135110">
        <ele>194.3</ele>
        <time>2020-02-23T14:25:25Z</time>
      </trkpt>
      <trkpt lat="39.0778760" lon="1.5135090">
        <ele>194.3</ele>
        <time>2020-02-23T14:25:26Z</time>
      </trkpt>
      <trkpt lat="39.0778710" lon="1.5135100">
        <ele>194.3</ele>
        <time>2020-02-23T14:25:27Z</time>
      </trkpt>
      <trkpt lat="39.0778690" lon="1.5135120">
        <ele>194.3</ele>
        <time>2020-02-23T14:25:28Z</time>
      </trkpt>
      <trkpt lat="39.0778660" lon="1.5135150">
        <ele>194.3</ele>
        <time>2020-02-23T14:25:29Z</time>
      </trkpt>
      <trkpt lat="39.0778610" lon="1.5135130">
        <ele>194.3</ele>
        <time>2020-02-23T14:25:30Z</time>
      </trkpt>
      <trkpt lat="39.0778570" lon="1.5135130">
        <ele>194.3</ele>
        <time>2020-02-23T14:25:31Z</time>
      </trkpt>
      <trkpt lat="39.0778560" lon="1.5135120">
        <ele>194.3</ele>
        <time>2020-02-23T14:25:32Z</time>
      </trkpt>
      <trkpt lat="39.0776660" lon="1.5135750">
        <ele>194.3</ele>
        <time>2020-02-23T14:26:29Z</time>
      </trkpt>
      <trkpt lat="39.0776640" lon="1.5135770">
        <ele>194.3</ele>
        <time>2020-02-23T14:26:30Z</time>
      </trkpt>
      <trkpt lat="39.0776560" lon="1.5135740">
        <ele>194.3</ele>
        <time>2020-02-23T14:26:31Z</time>
      </trkpt>
      <trkpt lat="39.0776430" lon="1.5135720">
        <ele>194.3</ele>
        <time>2020-02-23T14:26:32Z</time>
      </trkpt>
      <trkpt lat="39.0776440" lon="1.5135690">
        <ele>194.3</ele>
        <time>2020-02-23T14:26:33Z</time>
      </trkpt>
      <trkpt lat="39.0776430" lon="1.5135710">
        <ele>194.3</ele>
        <time>2020-02-23T14:26:34Z</time>
      </trkpt>
      <trkpt lat="39.0776370" lon="1.5135690">
        <ele>194.3</ele>
        <time>2020-02-23T14:26:35Z</time>
      </trkpt>
      <trkpt lat="39.0776340" lon="1.5135710">
        <ele>194.3</ele>
        <time>2020-02-23T14:26:36Z</time>
      </trkpt>
      <trkpt lat="39.0776290" lon="1.5135680">
        <ele>194.3</ele>
        <time>2020-02-23T14:26:37Z</time>
      </trkpt>
      <trkpt lat="39.0776380" lon="1.5135690">
        <ele>194.3</ele>
        <time>2020-02-23T14:26:38Z</time>
      </trkpt>
      <trkpt lat="39.0776340" lon="1.5135720">
        <ele>194.3</ele>
        <time>2020-02-23T14:26:39Z</time>
      </trkpt>
      <trkpt lat="39.0776680" lon="1.5135780">
        <ele>194.2</ele>
        <time>2020-02-23T14:26:40Z</time>
      </trkpt>
      <trkpt lat="39.0776480" lon="1.5135820">
        <ele>194.2</ele>
        <time>2020-02-23T14:26:41Z</time>
      </trkpt>
      <trkpt lat="39.0776470" lon="1.5135830">
        <ele>194.2</ele>
        <time>2020-02-23T14:26:42Z</time>
      </trkpt>
      <trkpt lat="39.0776470" lon="1.5135850">
        <ele>194.2</ele>
        <time>2020-02-23T14:26:43Z</time>
      </trkpt>
      <trkpt lat="39.0776460" lon="1.5135880">
        <ele>194.2</ele>
        <time>2020-02-23T14:26:44Z</time>
      </trkpt>
      <trkpt lat="39.0776440" lon="1.5135900">
        <ele>194.2</ele>
        <time>2020-02-23T14:26:45Z</time>
      </trkpt>
      <trkpt lat="39.0776460" lon="1.5135950">
        <ele>194.2</ele>
        <time>2020-02-23T14:26:46Z</time>
      </trkpt>
      <trkpt lat="39.0776470" lon="1.5135990">
        <ele>194.2</ele>
        <time>2020-02-23T14:26:47Z</time>
      </trkpt>
      <trkpt lat="39.0776420" lon="1.5136020">
        <ele>194.2</ele>
        <time>2020-02-23T14:26:48Z</time>
      </trkpt>
      <trkpt lat="39.0776360" lon="1.5136060">
        <ele>194.2</ele>
        <time>2020-02-23T14:26:49Z</time>
      </trkpt>
      <trkpt lat="39.0776180" lon="1.5135980">
        <ele>194.2</ele>
        <time>2020-02-23T14:26:50Z</time>
      </trkpt>
      <trkpt lat="39.0776090" lon="1.5135920">
        <ele>194.2</ele>
        <time>2020-02-23T14:26:51Z</time>
      </trkpt>
      <trkpt lat="39.0776000" lon="1.5135860">
        <ele>194.2</ele>
        <time>2020-02-23T14:26:52Z</time>
      </trkpt>
      <trkpt lat="39.0775930" lon="1.5135800">
        <ele>194.2</ele>
        <time>2020-02-23T14:26:53Z</time>
      </trkpt>
      <trkpt lat="39.0775990" lon="1.5135770">
        <ele>194.2</ele>
        <time>2020-02-23T14:26:54Z</time>
      </trkpt>
      <trkpt lat="39.0775970" lon="1.5135760">
        <ele>194.2</ele>
        <time>2020-02-23T14:26:55Z</time>
      </trkpt>
      <trkpt lat="39.0775900" lon="1.5135720">
        <ele>194.2</ele>
        <time>2020-02-23T14:26:56Z</time>
      </trkpt>
      <trkpt lat="39.0775910" lon="1.5135740">
        <ele>194.2</ele>
        <time>2020-02-23T14:26:57Z</time>
      </trkpt>
      <trkpt lat="39.0775880" lon="1.5135700">
        <ele>194.2</ele>
        <time>2020-02-23T14:26:58Z</time>
      </trkpt>
      <trkpt lat="39.0775910" lon="1.5135740">
        <ele>194.2</ele>
        <time>2020-02-23T14:26:59Z</time>
      </trkpt>
      <trkpt lat="39.0775960" lon="1.5135760">
        <ele>194.2</ele>
        <time>2020-02-23T14:27:00Z</time>
      </trkpt>
      <trkpt lat="39.0775990" lon="1.5135800">
        <ele>194.2</ele>
        <time>2020-02-23T14:27:01Z</time>
      </trkpt>
      <trkpt lat="39.0776030" lon="1.5135800">
        <ele>194.2</ele>
        <time>2020-02-23T14:27:02Z</time>
      </trkpt>
      <trkpt lat="39.0776080" lon="1.5135830">
        <ele>194.2</ele>
        <time>2020-02-23T14:27:03Z</time>
      </trkpt>
      <trkpt lat="39.0776190" lon="1.5135890">
        <ele>194.2</ele>
        <time>2020-02-23T14:27:04Z</time>
      </trkpt>
      <trkpt lat="39.0776260" lon="1.5135940">
        <ele>194.2</ele>
        <time>2020-02-23T14:27:05Z</time>
      </trkpt>
      <trkpt lat="39.0776270" lon="1.5135890">
        <ele>194.2</ele>
        <time>2020-02-23T14:27:06Z</time>
      </trkpt>
      <trkpt lat="39.0776330" lon="1.5135910">
        <ele>194.2</ele>
        <time>2020-02-23T14:27:07Z</time>
      </trkpt>
      <trkpt lat="39.0776400" lon="1.5135940">
        <ele>194.2</ele>
        <time>2020-02-23T14:27:08Z</time>
      </trkpt>
      <trkpt lat="39.0776380" lon="1.5135880">
        <ele>194.2</ele>
        <time>2020-02-23T14:27:09Z</time>
      </trkpt>
      <trkpt lat="39.0776410" lon="1.5135840">
        <ele>194.2</ele>
        <time>2020-02-23T14:27:10Z</time>
      </trkpt>
      <trkpt lat="39.0776420" lon="1.5135840">
        <ele>194.2</ele>
        <time>2020-02-23T14:27:11Z</time>
      </trkpt>
      <trkpt lat="39.0776430" lon="1.5135800">
        <ele>194.2</ele>
        <time>2020-02-23T14:27:12Z</time>
      </trkpt>
      <trkpt lat="39.0776410" lon="1.5135720">
        <ele>194.2</ele>
        <time>2020-02-23T14:27:13Z</time>
      </trkpt>
      <trkpt lat="39.0776420" lon="1.5135700">
        <ele>194.2</ele>
        <time>2020-02-23T14:27:14Z</time>
      </trkpt>
      <trkpt lat="39.0776420" lon="1.5135670">
        <ele>194.2</ele>
        <time>2020-02-23T14:27:15Z</time>
      </trkpt>
      <trkpt lat="39.0776450" lon="1.5135640">
        <ele>194.2</ele>
        <time>2020-02-23T14:27:16Z</time>
      </trkpt>
      <trkpt lat="39.0776480" lon="1.5135650">
        <ele>194.2</ele>
        <time>2020-02-23T14:27:17Z</time>
      </trkpt>
      <trkpt lat="39.0776480" lon="1.5135630">
        <ele>194.2</ele>
        <time>2020-02-23T14:27:18Z</time>
      </trkpt>
      <trkpt lat="39.0776470" lon="1.5135620">
        <ele>194.2</ele>
        <time>2020-02-23T14:27:19Z</time>
      </trkpt>
      <trkpt lat="39.0776460" lon="1.5135630">
        <ele>194.2</ele>
        <time>2020-02-23T14:27:20Z</time>
      </trkpt>
      <trkpt lat="39.0776470" lon="1.5135650">
        <ele>194.2</ele>
        <time>2020-02-23T14:27:21Z</time>
      </trkpt>
      <trkpt lat="39.0776440" lon="1.5135620">
        <ele>194.2</ele>
        <time>2020-02-23T14:27:22Z</time>
      </trkpt>
      <trkpt lat="39.0776410" lon="1.5135570">
        <ele>194.2</ele>
        <time>2020-02-23T14:27:23Z</time>
      </trkpt>
      <trkpt lat="39.0776370" lon="1.5135530">
        <ele>194.2</ele>
        <time>2020-02-23T14:27:24Z</time>
      </trkpt>
      <trkpt lat="39.0776320" lon="1.5135500">
        <ele>194.2</ele>
        <time>2020-02-23T14:27:25Z</time>
      </trkpt>
      <trkpt lat="39.0776330" lon="1.5135560">
        <ele>194.2</ele>
        <time>2020-02-23T14:27:26Z</time>
      </trkpt>
      <trkpt lat="39.0776340" lon="1.5135600">
        <ele>194.2</ele>
        <time>2020-02-23T14:27:27Z</time>
      </trkpt>
      <trkpt lat="39.0776310" lon="1.5135580">
        <ele>194.2</ele>
        <time>2020-02-23T14:27:28Z</time>
      </trkpt>
      <trkpt lat="39.0776320" lon="1.5135580">
        <ele>194.2</ele>
        <time>2020-02-23T14:27:29Z</time>
      </trkpt>
      <trkpt lat="39.0776340" lon="1.5135690">
        <ele>194.2</ele>
        <time>2020-02-23T14:27:30Z</time>
      </trkpt>
      <trkpt lat="39.0776420" lon="1.5135730">
        <ele>194.2</ele>
        <time>2020-02-23T14:27:31Z</time>
      </trkpt>
      <trkpt lat="39.0776440" lon="1.5135800">
        <ele>194.2</ele>
        <time>2020-02-23T14:27:32Z</time>
      </trkpt>
      <trkpt lat="39.0776420" lon="1.5135790">
        <ele>194.2</ele>
        <time>2020-02-23T14:27:33Z</time>
      </trkpt>
      <trkpt lat="39.0776430" lon="1.5135760">
        <ele>194.2</ele>
        <time>2020-02-23T14:27:34Z</time>
      </trkpt>
      <trkpt lat="39.0776450" lon="1.5135740">
        <ele>194.2</ele>
        <time>2020-02-23T14:27:35Z</time>
      </trkpt>
      <trkpt lat="39.0776440" lon="1.5135750">
        <ele>194.2</ele>
        <time>2020-02-23T14:27:36Z</time>
      </trkpt>
      <trkpt lat="39.0776450" lon="1.5135760">
        <ele>194.2</ele>
        <time>2020-02-23T14:27:37Z</time>
      </trkpt>
      <trkpt lat="39.0776440" lon="1.5135800">
        <ele>194.2</ele>
        <time>2020-02-23T14:27:38Z</time>
      </trkpt>
      <trkpt lat="39.0776430" lon="1.5135840">
        <ele>194.2</ele>
        <time>2020-02-23T14:27:39Z</time>
      </trkpt>
      <trkpt lat="39.0776450" lon="1.5135830">
        <ele>194.2</ele>
        <time>2020-02-23T14:27:40Z</time>
      </trkpt>
      <trkpt lat="39.0776470" lon="1.5135920">
        <ele>194.2</ele>
        <time>2020-02-23T14:27:41Z</time>
      </trkpt>
      <trkpt lat="39.0776500" lon="1.5135990">
        <ele>194.2</ele>
        <time>2020-02-23T14:27:42Z</time>
      </trkpt>
      <trkpt lat="39.0776520" lon="1.5136050">
        <ele>194.2</ele>
        <time>2020-02-23T14:27:43Z</time>
      </trkpt>
      <trkpt lat="39.0776560" lon="1.5136090">
        <ele>194.2</ele>
        <time>2020-02-23T14:27:44Z</time>
      </trkpt>
      <trkpt lat="39.0776600" lon="1.5136150">
        <ele>194.2</ele>
        <time>2020-02-23T14:27:45Z</time>
      </trkpt>
      <trkpt lat="39.0776650" lon="1.5136220">
        <ele>194.2</ele>
        <time>2020-02-23T14:27:46Z</time>
      </trkpt>
      <trkpt lat="39.0776610" lon="1.5136320">
        <ele>194.2</ele>
        <time>2020-02-23T14:27:47Z</time>
      </trkpt>
      <trkpt lat="39.0776660" lon="1.5136370">
        <ele>194.2</ele>
        <time>2020-02-23T14:27:48Z</time>
      </trkpt>
      <trkpt lat="39.0776700" lon="1.5136430">
        <ele>194.2</ele>
        <time>2020-02-23T14:27:49Z</time>
      </trkpt>
      <trkpt lat="39.0776710" lon="1.5136440">
        <ele>194.2</ele>
        <time>2020-02-23T14:27:50Z</time>
      </trkpt>
      <trkpt lat="39.0776760" lon="1.5136380">
        <ele>194.2</ele>
        <time>2020-02-23T14:27:51Z</time>
      </trkpt>
      <trkpt lat="39.0776810" lon="1.5136290">
        <ele>194.2</ele>
        <time>2020-02-23T14:27:52Z</time>
      </trkpt>
      <trkpt lat="39.0776860" lon="1.5136250">
        <ele>194.2</ele>
        <time>2020-02-23T14:27:53Z</time>
      </trkpt>
      <trkpt lat="39.0776920" lon="1.5136210">
        <ele>194.2</ele>
        <time>2020-02-23T14:27:54Z</time>
      </trkpt>
      <trkpt lat="39.0777010" lon="1.5136120">
        <ele>194.2</ele>
        <time>2020-02-23T14:27:55Z</time>
      </trkpt>
      <trkpt lat="39.0777090" lon="1.5136060">
        <ele>194.2</ele>
        <time>2020-02-23T14:27:56Z</time>
      </trkpt>
      <trkpt lat="39.0777130" lon="1.5135970">
        <ele>194.2</ele>
        <time>2020-02-23T14:27:57Z</time>
      </trkpt>
      <trkpt lat="39.0777210" lon="1.5135790">
        <ele>194.2</ele>
        <time>2020-02-23T14:27:58Z</time>
      </trkpt>
      <trkpt lat="39.0777270" lon="1.5135740">
        <ele>194.2</ele>
        <time>2020-02-23T14:27:59Z</time>
      </trkpt>
      <trkpt lat="39.0777320" lon="1.5135680">
        <ele>194.2</ele>
        <time>2020-02-23T14:28:00Z</time>
      </trkpt>
      <trkpt lat="39.0777370" lon="1.5135620">
        <ele>194.2</ele>
        <time>2020-02-23T14:28:01Z</time>
      </trkpt>
      <trkpt lat="39.0777400" lon="1.5135540">
        <ele>194.1</ele>
        <time>2020-02-23T14:28:02Z</time>
      </trkpt>
      <trkpt lat="39.0777440" lon="1.5135470">
        <ele>194.1</ele>
        <time>2020-02-23T14:28:03Z</time>
      </trkpt>
      <trkpt lat="39.0777490" lon="1.5135430">
        <ele>194.1</ele>
        <time>2020-02-23T14:28:04Z</time>
      </trkpt>
      <trkpt lat="39.0777440" lon="1.5135390">
        <ele>194.1</ele>
        <time>2020-02-23T14:28:05Z</time>
      </trkpt>
      <trkpt lat="39.0777400" lon="1.5135440">
        <ele>194.1</ele>
        <time>2020-02-23T14:28:06Z</time>
      </trkpt>
      <trkpt lat="39.0777370" lon="1.5135540">
        <ele>194.1</ele>
        <time>2020-02-23T14:28:07Z</time>
      </trkpt>
      <trkpt lat="39.0777350" lon="1.5135490">
        <ele>194.1</ele>
        <time>2020-02-23T14:28:08Z</time>
      </trkpt>
      <trkpt lat="39.0777440" lon="1.5135470">
        <ele>194.1</ele>
        <time>2020-02-23T14:28:09Z</time>
      </trkpt>
      <trkpt lat="39.0777510" lon="1.5135520">
        <ele>194.1</ele>
        <time>2020-02-23T14:28:10Z</time>
      </trkpt>
      <trkpt lat="39.0777550" lon="1.5135570">
        <ele>194.1</ele>
        <time>2020-02-23T14:28:11Z</time>
      </trkpt>
      <trkpt lat="39.0777650" lon="1.5135590">
        <ele>194.1</ele>
        <time>2020-02-23T14:28:12Z</time>
      </trkpt>
      <trkpt lat="39.0777780" lon="1.5135660">
        <ele>194.1</ele>
        <time>2020-02-23T14:28:13Z</time>
      </trkpt>
      <trkpt lat="39.0777770" lon="1.5135570">
        <ele>194.1</ele>
        <time>2020-02-23T14:28:14Z</time>
      </trkpt>
      <trkpt lat="39.0777720" lon="1.5135510">
        <ele>194.1</ele>
        <time>2020-02-23T14:28:15Z</time>
      </trkpt>
      <trkpt lat="39.0777670" lon="1.5135420">
        <ele>194.1</ele>
        <time>2020-02-23T14:28:16Z</time>
      </trkpt>
      <trkpt lat="39.0777700" lon="1.5135390">
        <ele>194.1</ele>
        <time>2020-02-23T14:28:17Z</time>
      </trkpt>
      <trkpt lat="39.0777630" lon="1.5135350">
        <ele>194.1</ele>
        <time>2020-02-23T14:28:18Z</time>
      </trkpt>
      <trkpt lat="39.0777580" lon="1.5135280">
        <ele>194.1</ele>
        <time>2020-02-23T14:28:19Z</time>
      </trkpt>
      <trkpt lat="39.0777580" lon="1.5135230">
        <ele>194.1</ele>
        <time>2020-02-23T14:28:20Z</time>
      </trkpt>
      <trkpt lat="39.0777540" lon="1.5135130">
        <ele>194.1</ele>
        <time>2020-02-23T14:28:21Z</time>
      </trkpt>
      <trkpt lat="39.0777510" lon="1.5135050">
        <ele>194.1</ele>
        <time>2020-02-23T14:28:22Z</time>
      </trkpt>
      <trkpt lat="39.0777450" lon="1.5134960">
        <ele>194.1</ele>
        <time>2020-02-23T14:28:23Z</time>
      </trkpt>
      <trkpt lat="39.0777430" lon="1.5134880">
        <ele>194.1</ele>
        <time>2020-02-23T14:28:24Z</time>
      </trkpt>
      <trkpt lat="39.0777400" lon="1.5134860">
        <ele>194.1</ele>
        <time>2020-02-23T14:28:25Z</time>
      </trkpt>
      <trkpt lat="39.0777370" lon="1.5134800">
        <ele>194.1</ele>
        <time>2020-02-23T14:28:26Z</time>
      </trkpt>
      <trkpt lat="39.0777320" lon="1.5134760">
        <ele>194.1</ele>
        <time>2020-02-23T14:28:27Z</time>
      </trkpt>
      <trkpt lat="39.0777290" lon="1.5134750">
        <ele>194.1</ele>
        <time>2020-02-23T14:28:28Z</time>
      </trkpt>
      <trkpt lat="39.0777340" lon="1.5134870">
        <ele>194.1</ele>
        <time>2020-02-23T14:28:29Z</time>
      </trkpt>
      <trkpt lat="39.0777400" lon="1.5135010">
        <ele>194.1</ele>
        <time>2020-02-23T14:28:30Z</time>
      </trkpt>
      <trkpt lat="39.0777420" lon="1.5135080">
        <ele>194.1</ele>
        <time>2020-02-23T14:28:31Z</time>
      </trkpt>
      <trkpt lat="39.0777360" lon="1.5135030">
        <ele>194.1</ele>
        <time>2020-02-23T14:28:32Z</time>
      </trkpt>
      <trkpt lat="39.0777340" lon="1.5135000">
        <ele>194.1</ele>
        <time>2020-02-23T14:28:33Z</time>
      </trkpt>
      <trkpt lat="39.0777270" lon="1.5134920">
        <ele>194.1</ele>
        <time>2020-02-23T14:28:34Z</time>
      </trkpt>
      <trkpt lat="39.0777200" lon="1.5134810">
        <ele>194.1</ele>
        <time>2020-02-23T14:28:35Z</time>
      </trkpt>
      <trkpt lat="39.0777210" lon="1.5134840">
        <ele>194.1</ele>
        <time>2020-02-23T14:28:36Z</time>
      </trkpt>
      <trkpt lat="39.0777180" lon="1.5134880">
        <ele>194.1</ele>
        <time>2020-02-23T14:28:37Z</time>
      </trkpt>
      <trkpt lat="39.0777330" lon="1.5135020">
        <ele>194.1</ele>
        <time>2020-02-23T14:28:38Z</time>
      </trkpt>
      <trkpt lat="39.0777410" lon="1.5135170">
        <ele>194.1</ele>
        <time>2020-02-23T14:28:39Z</time>
      </trkpt>
      <trkpt lat="39.0777450" lon="1.5135260">
        <ele>194.1</ele>
        <time>2020-02-23T14:28:40Z</time>
      </trkpt>
      <trkpt lat="39.0777480" lon="1.5135500">
        <ele>194.1</ele>
        <time>2020-02-23T14:28:41Z</time>
      </trkpt>
      <trkpt lat="39.0777500" lon="1.5135670">
        <ele>194.1</ele>
        <time>2020-02-23T14:28:42Z</time>
      </trkpt>
      <trkpt lat="39.0777520" lon="1.5135830">
        <ele>194.1</ele>
        <time>2020-02-23T14:28:43Z</time>
      </trkpt>
      <trkpt lat="39.0777520" lon="1.5135900">
        <ele>194.1</ele>
        <time>2020-02-23T14:28:44Z</time>
      </trkpt>
      <trkpt lat="39.0777500" lon="1.5135930">
        <ele>194.1</ele>
        <time>2020-02-23T14:28:45Z</time>
      </trkpt>
      <trkpt lat="39.0777470" lon="1.5135910">
        <ele>194.1</ele>
        <time>2020-02-23T14:28:46Z</time>
      </trkpt>
      <trkpt lat="39.0777470" lon="1.5135980">
        <ele>194.1</ele>
        <time>2020-02-23T14:28:47Z</time>
      </trkpt>
      <trkpt lat="39.0777470" lon="1.5136120">
        <ele>194.1</ele>
        <time>2020-02-23T14:28:48Z</time>
      </trkpt>
      <trkpt lat="39.0777480" lon="1.5136190">
        <ele>194.1</ele>
        <time>2020-02-23T14:28:49Z</time>
      </trkpt>
      <trkpt lat="39.0777430" lon="1.5136260">
        <ele>194.1</ele>
        <time>2020-02-23T14:28:50Z</time>
      </trkpt>
      <trkpt lat="39.0777390" lon="1.5136270">
        <ele>194.1</ele>
        <time>2020-02-23T14:28:51Z</time>
      </trkpt>
      <trkpt lat="39.0777350" lon="1.5136270">
        <ele>194.1</ele>
        <time>2020-02-23T14:28:52Z</time>
      </trkpt>
      <trkpt lat="39.0777310" lon="1.5136270">
        <ele>194.1</ele>
        <time>2020-02-23T14:28:53Z</time>
      </trkpt>
      <trkpt lat="39.0777280" lon="1.5136280">
        <ele>194.1</ele>
        <time>2020-02-23T14:28:54Z</time>
      </trkpt>
      <trkpt lat="39.0777240" lon="1.5136280">
        <ele>194.1</ele>
        <time>2020-02-23T14:28:55Z</time>
      </trkpt>
      <trkpt lat="39.0777200" lon="1.5136280">
        <ele>194.1</ele>
        <time>2020-02-23T14:28:56Z</time>
      </trkpt>
      <trkpt lat="39.0777160" lon="1.5136280">
        <ele>194.1</ele>
        <time>2020-02-23T14:28:57Z</time>
      </trkpt>
      <trkpt lat="39.0777120" lon="1.5136290">
        <ele>194.1</ele>
        <time>2020-02-23T14:28:58Z</time>
      </trkpt>
      <trkpt lat="39.0777080" lon="1.5136290">
        <ele>194.1</ele>
        <time>2020-02-23T14:28:59Z</time>
      </trkpt>
      <trkpt lat="39.0777000" lon="1.5136290">
        <ele>194.1</ele>
        <time>2020-02-23T14:29:00Z</time>
      </trkpt>
      <trkpt lat="39.0776960" lon="1.5136280">
        <ele>194.1</ele>
        <time>2020-02-23T14:29:01Z</time>
      </trkpt>
      <trkpt lat="39.0776900" lon="1.5136240">
        <ele>194.1</ele>
        <time>2020-02-23T14:29:02Z</time>
      </trkpt>
      <trkpt lat="39.0776840" lon="1.5136140">
        <ele>194.1</ele>
        <time>2020-02-23T14:29:03Z</time>
      </trkpt>
      <trkpt lat="39.0776780" lon="1.5136140">
        <ele>194.1</ele>
        <time>2020-02-23T14:29:04Z</time>
      </trkpt>
      <trkpt lat="39.0776800" lon="1.5136070">
        <ele>194.1</ele>
        <time>2020-02-23T14:29:05Z</time>
      </trkpt>
      <trkpt lat="39.0776780" lon="1.5136050">
        <ele>194.1</ele>
        <time>2020-02-23T14:29:06Z</time>
      </trkpt>
      <trkpt lat="39.0776750" lon="1.5136020">
        <ele>194.1</ele>
        <time>2020-02-23T14:29:07Z</time>
      </trkpt>
      <trkpt lat="39.0776730" lon="1.5136000">
        <ele>194.1</ele>
        <time>2020-02-23T14:29:08Z</time>
      </trkpt>
      <trkpt lat="39.0776710" lon="1.5135980">
        <ele>194.1</ele>
        <time>2020-02-23T14:29:09Z</time>
      </trkpt>
      <trkpt lat="39.0776690" lon="1.5135960">
        <ele>194.1</ele>
        <time>2020-02-23T14:29:10Z</time>
      </trkpt>
      <trkpt lat="39.0776670" lon="1.5135940">
        <ele>194.0</ele>
        <time>2020-02-23T14:29:11Z</time>
      </trkpt>
      <trkpt lat="39.0776650" lon="1.5135910">
        <ele>194.0</ele>
        <time>2020-02-23T14:29:12Z</time>
      </trkpt>
      <trkpt lat="39.0776620" lon="1.5135890">
        <ele>194.0</ele>
        <time>2020-02-23T14:29:13Z</time>
      </trkpt>
      <trkpt lat="39.0776600" lon="1.5135870">
        <ele>194.0</ele>
        <time>2020-02-23T14:29:14Z</time>
      </trkpt>
      <trkpt lat="39.0776580" lon="1.5135850">
        <ele>194.0</ele>
        <time>2020-02-23T14:29:15Z</time>
      </trkpt>
      <trkpt lat="39.0776560" lon="1.5135830">
        <ele>194.0</ele>
        <time>2020-02-23T14:29:16Z</time>
      </trkpt>
      <trkpt lat="39.0776540" lon="1.5135810">
        <ele>194.0</ele>
        <time>2020-02-23T14:29:17Z</time>
      </trkpt>
      <trkpt lat="39.0776510" lon="1.5135780">
        <ele>194.0</ele>
        <time>2020-02-23T14:29:18Z</time>
      </trkpt>
      <trkpt lat="39.0776490" lon="1.5135760">
        <ele>194.0</ele>
        <time>2020-02-23T14:29:19Z</time>
      </trkpt>
      <trkpt lat="39.0776470" lon="1.5135740">
        <ele>194.0</ele>
        <time>2020-02-23T14:29:20Z</time>
      </trkpt>
      <trkpt lat="39.0776420" lon="1.5135740">
        <ele>194.0</ele>
        <time>2020-02-23T14:29:21Z</time>
      </trkpt>
      <trkpt lat="39.0776410" lon="1.5135750">
        <ele>194.0</ele>
        <time>2020-02-23T14:29:22Z</time>
      </trkpt>
      <trkpt lat="39.0776390" lon="1.5135770">
        <ele>194.0</ele>
        <time>2020-02-23T14:29:23Z</time>
      </trkpt>
      <trkpt lat="39.0776380" lon="1.5135790">
        <ele>194.0</ele>
        <time>2020-02-23T14:29:24Z</time>
      </trkpt>
      <trkpt lat="39.0776370" lon="1.5135810">
        <ele>194.0</ele>
        <time>2020-02-23T14:29:25Z</time>
      </trkpt>
      <trkpt lat="39.0776360" lon="1.5135820">
        <ele>194.0</ele>
        <time>2020-02-23T14:29:26Z</time>
      </trkpt>
      <trkpt lat="39.0776340" lon="1.5135840">
        <ele>194.0</ele>
        <time>2020-02-23T14:29:27Z</time>
      </trkpt>
      <trkpt lat="39.0776330" lon="1.5135860">
        <ele>194.0</ele>
        <time>2020-02-23T14:29:28Z</time>
      </trkpt>
      <trkpt lat="39.0776320" lon="1.5135870">
        <ele>194.0</ele>
        <time>2020-02-23T14:29:29Z</time>
      </trkpt>
      <trkpt lat="39.0776310" lon="1.5135890">
        <ele>194.0</ele>
        <time>2020-02-23T14:29:30Z</time>
      </trkpt>
      <trkpt lat="39.0776290" lon="1.5135910">
        <ele>194.0</ele>
        <time>2020-02-23T14:29:31Z</time>
      </trkpt>
      <trkpt lat="39.0776280" lon="1.5135920">
        <ele>194.0</ele>
        <time>2020-02-23T14:29:32Z</time>
      </trkpt>
      <trkpt lat="39.0776270" lon="1.5135940">
        <ele>194.0</ele>
        <time>2020-02-23T14:29:33Z</time>
      </trkpt>
      <trkpt lat="39.0776260" lon="1.5135960">
        <ele>194.0</ele>
        <time>2020-02-23T14:29:34Z</time>
      </trkpt>
      <trkpt lat="39.0776240" lon="1.5135980">
        <ele>194.0</ele>
        <time>2020-02-23T14:29:35Z</time>
      </trkpt>
      <trkpt lat="39.0776230" lon="1.5135990">
        <ele>194.0</ele>
        <time>2020-02-23T14:29:36Z</time>
      </trkpt>
      <trkpt lat="39.0776220" lon="1.5136010">
        <ele>194.0</ele>
        <time>2020-02-23T14:29:37Z</time>
      </trkpt>
      <trkpt lat="39.0776210" lon="1.5136030">
        <ele>194.0</ele>
        <time>2020-02-23T14:29:38Z</time>
      </trkpt>
      <trkpt lat="39.0776190" lon="1.5136040">
        <ele>194.0</ele>
        <time>2020-02-23T14:29:39Z</time>
      </trkpt>
      <trkpt lat="39.0776180" lon="1.5136060">
        <ele>194.0</ele>
        <time>2020-02-23T14:29:40Z</time>
      </trkpt>
      <trkpt lat="39.0776170" lon="1.5136090">
        <ele>194.0</ele>
        <time>2020-02-23T14:29:41Z</time>
      </trkpt>
      <trkpt lat="39.0776160" lon="1.5136210">
        <ele>194.0</ele>
        <time>2020-02-23T14:29:42Z</time>
      </trkpt>
      <trkpt lat="39.0776230" lon="1.5136200">
        <ele>194.0</ele>
        <time>2020-02-23T14:29:43Z</time>
      </trkpt>
      <trkpt lat="39.0776320" lon="1.5136140">
        <ele>194.0</ele>
        <time>2020-02-23T14:29:44Z</time>
      </trkpt>
      <trkpt lat="39.0776160" lon="1.5136150">
        <ele>194.0</ele>
        <time>2020-02-23T14:29:45Z</time>
      </trkpt>
      <trkpt lat="39.0776170" lon="1.5136170">
        <ele>194.0</ele>
        <time>2020-02-23T14:29:46Z</time>
      </trkpt>
      <trkpt lat="39.0776200" lon="1.5136130">
        <ele>194.0</ele>
        <time>2020-02-23T14:29:47Z</time>
      </trkpt>
      <trkpt lat="39.0776290" lon="1.5136180">
        <ele>194.0</ele>
        <time>2020-02-23T14:29:48Z</time>
      </trkpt>
      <trkpt lat="39.0776340" lon="1.5136210">
        <ele>194.0</ele>
        <time>2020-02-23T14:29:49Z</time>
      </trkpt>
      <trkpt lat="39.0776350" lon="1.5136230">
        <ele>194.0</ele>
        <time>2020-02-23T14:29:50Z</time>
      </trkpt>
      <trkpt lat="39.0776340" lon="1.5136150">
        <ele>194.0</ele>
        <time>2020-02-23T14:29:51Z</time>
      </trkpt>
      <trkpt lat="39.0776400" lon="1.5136170">
        <ele>194.0</ele>
        <time>2020-02-23T14:29:52Z</time>
      </trkpt>
      <trkpt lat="39.0776490" lon="1.5136230">
        <ele>194.0</ele>
        <time>2020-02-23T14:29:53Z</time>
      </trkpt>
      <trkpt lat="39.0776440" lon="1.5136310">
        <ele>194.0</ele>
        <time>2020-02-23T14:29:54Z</time>
      </trkpt>
      <trkpt lat="39.0776390" lon="1.5136370">
        <ele>194.0</ele>
        <time>2020-02-23T14:29:55Z</time>
      </trkpt>
      <trkpt lat="39.0776330" lon="1.5136440">
        <ele>194.0</ele>
        <time>2020-02-23T14:29:56Z</time>
      </trkpt>
      <trkpt lat="39.0776280" lon="1.5136500">
        <ele>194.0</ele>
        <time>2020-02-23T14:29:57Z</time>
      </trkpt>
      <trkpt lat="39.0776230" lon="1.5136570">
        <ele>194.0</ele>
        <time>2020-02-23T14:29:58Z</time>
      </trkpt>
      <trkpt lat="39.0776050" lon="1.5136900">
        <ele>194.0</ele>
        <time>2020-02-23T14:29:59Z</time>
      </trkpt>
      <trkpt lat="39.0776000" lon="1.5137050">
        <ele>194.0</ele>
        <time>2020-02-23T14:30:00Z</time>
      </trkpt>
      <trkpt lat="39.0775910" lon="1.5137230">
        <ele>194.0</ele>
        <time>2020-02-23T14:30:01Z</time>
      </trkpt>
      <trkpt lat="39.0775860" lon="1.5137340">
        <ele>194.0</ele>
        <time>2020-02-23T14:30:02Z</time>
      </trkpt>
      <trkpt lat="39.0775860" lon="1.5137340">
        <ele>194.0</ele>
        <time>2020-02-23T14:30:03Z</time>
      </trkpt>
      <trkpt lat="39.0775860" lon="1.5137340">
        <ele>194.0</ele>
        <time>2020-02-23T14:30:04Z</time>
      </trkpt>
      <trkpt lat="39.0775810" lon="1.5137420">
        <ele>194.0</ele>
        <time>2020-02-23T14:30:05Z</time>
      </trkpt>
      <trkpt lat="39.0775850" lon="1.5137400">
        <ele>194.0</ele>
        <time>2020-02-23T14:30:06Z</time>
      </trkpt>
      <trkpt lat="39.0775840" lon="1.5137310">
        <ele>194.0</ele>
        <time>2020-02-23T14:30:07Z</time>
      </trkpt>
      <trkpt lat="39.0775900" lon="1.5137160">
        <ele>194.0</ele>
        <time>2020-02-23T14:30:08Z</time>
      </trkpt>
      <trkpt lat="39.0775900" lon="1.5137060">
        <ele>194.0</ele>
        <time>2020-02-23T14:30:09Z</time>
      </trkpt>
      <trkpt lat="39.0775970" lon="1.5137050">
        <ele>194.0</ele>
        <time>2020-02-23T14:30:10Z</time>
      </trkpt>
      <trkpt lat="39.0776000" lon="1.5137000">
        <ele>194.0</ele>
        <time>2020-02-23T14:30:11Z</time>
      </trkpt>
      <trkpt lat="39.0776040" lon="1.5136970">
        <ele>194.0</ele>
        <time>2020-02-23T14:30:12Z</time>
      </trkpt>
      <trkpt lat="39.0776040" lon="1.5136940">
        <ele>194.0</ele>
        <time>2020-02-23T14:30:13Z</time>
      </trkpt>
      <trkpt lat="39.0776030" lon="1.5136950">
        <ele>194.0</ele>
        <time>2020-02-23T14:30:14Z</time>
      </trkpt>
      <trkpt lat="39.0776080" lon="1.5136890">
        <ele>194.0</ele>
        <time>2020-02-23T14:30:15Z</time>
      </trkpt>
      <trkpt lat="39.0776120" lon="1.5136870">
        <ele>194.0</ele>
        <time>2020-02-23T14:30:16Z</time>
      </trkpt>
      <trkpt lat="39.0776100" lon="1.5136840">
        <ele>194.0</ele>
        <time>2020-02-23T14:30:17Z</time>
      </trkpt>
      <trkpt lat="39.0776160" lon="1.5136760">
        <ele>194.0</ele>
        <time>2020-02-23T14:30:18Z</time>
      </trkpt>
      <trkpt lat="39.0776210" lon="1.5136680">
        <ele>194.0</ele>
        <time>2020-02-23T14:30:19Z</time>
      </trkpt>
      <trkpt lat="39.0776250" lon="1.5136600">
        <ele>194.0</ele>
        <time>2020-02-23T14:30:20Z</time>
      </trkpt>
      <trkpt lat="39.0776300" lon="1.5136520">
        <ele>194.0</ele>
        <time>2020-02-23T14:30:21Z</time>
      </trkpt>
      <trkpt lat="39.0776340" lon="1.5136440">
        <ele>194.0</ele>
        <time>2020-02-23T14:30:22Z</time>
      </trkpt>
      <trkpt lat="39.0776340" lon="1.5136440">
        <ele>194.0</ele>
        <time>2020-02-23T14:30:23Z</time>
      </trkpt>
      <trkpt lat="39.0776340" lon="1.5136440">
        <ele>194.0</ele>
        <time>2020-02-23T14:30:24Z</time>
      </trkpt>
      <trkpt lat="39.0776340" lon="1.5136430">
        <ele>194.0</ele>
        <time>2020-02-23T14:30:25Z</time>
      </trkpt>
      <trkpt lat="39.0776380" lon="1.5136420">
        <ele>194.0</ele>
        <time>2020-02-23T14:30:26Z</time>
      </trkpt>
      <trkpt lat="39.0776450" lon="1.5136380">
        <ele>194.0</ele>
        <time>2020-02-23T14:30:27Z</time>
      </trkpt>
      <trkpt lat="39.0776470" lon="1.5136300">
        <ele>194.0</ele>
        <time>2020-02-23T14:30:28Z</time>
      </trkpt>
      <trkpt lat="39.0776500" lon="1.5136220">
        <ele>194.0</ele>
        <time>2020-02-23T14:30:29Z</time>
      </trkpt>
      <trkpt lat="39.0776950" lon="1.5136020">
        <ele>194.0</ele>
        <time>2020-02-23T14:30:35Z</time>
      </trkpt>
      <trkpt lat="39.0777060" lon="1.5136010">
        <ele>194.0</ele>
        <time>2020-02-23T14:30:36Z</time>
      </trkpt>
      <trkpt lat="39.0777150" lon="1.5136050">
        <ele>193.9</ele>
        <time>2020-02-23T14:30:37Z</time>
      </trkpt>
      <trkpt lat="39.0777220" lon="1.5136010">
        <ele>193.9</ele>
        <time>2020-02-23T14:30:38Z</time>
      </trkpt>
      <trkpt lat="39.0777210" lon="1.5135920">
        <ele>193.9</ele>
        <time>2020-02-23T14:30:39Z</time>
      </trkpt>
      <trkpt lat="39.0777280" lon="1.5135850">
        <ele>193.9</ele>
        <time>2020-02-23T14:30:40Z</time>
      </trkpt>
      <trkpt lat="39.0777320" lon="1.5135770">
        <ele>193.9</ele>
        <time>2020-02-23T14:30:41Z</time>
      </trkpt>
      <trkpt lat="39.0777290" lon="1.5135760">
        <ele>193.9</ele>
        <time>2020-02-23T14:30:42Z</time>
      </trkpt>
      <trkpt lat="39.0777340" lon="1.5135650">
        <ele>193.9</ele>
        <time>2020-02-23T14:30:43Z</time>
      </trkpt>
      <trkpt lat="39.0777360" lon="1.5135640">
        <ele>193.9</ele>
        <time>2020-02-23T14:30:44Z</time>
      </trkpt>
      <trkpt lat="39.0777310" lon="1.5135590">
        <ele>193.9</ele>
        <time>2020-02-23T14:30:45Z</time>
      </trkpt>
      <trkpt lat="39.0777300" lon="1.5135580">
        <ele>193.9</ele>
        <time>2020-02-23T14:30:46Z</time>
      </trkpt>
      <trkpt lat="39.0777200" lon="1.5135520">
        <ele>193.9</ele>
        <time>2020-02-23T14:30:47Z</time>
      </trkpt>
      <trkpt lat="39.0777170" lon="1.5135440">
        <ele>193.9</ele>
        <time>2020-02-23T14:30:48Z</time>
      </trkpt>
      <trkpt lat="39.0777160" lon="1.5135440">
        <ele>193.9</ele>
        <time>2020-02-23T14:30:49Z</time>
      </trkpt>
      <trkpt lat="39.0777210" lon="1.5135470">
        <ele>193.9</ele>
        <time>2020-02-23T14:30:50Z</time>
      </trkpt>
      <trkpt lat="39.0777210" lon="1.5135540">
        <ele>193.9</ele>
        <time>2020-02-23T14:30:51Z</time>
      </trkpt>
      <trkpt lat="39.0777160" lon="1.5135440">
        <ele>193.9</ele>
        <time>2020-02-23T14:30:52Z</time>
      </trkpt>
      <trkpt lat="39.0777270" lon="1.5135340">
        <ele>193.9</ele>
        <time>2020-02-23T14:30:53Z</time>
      </trkpt>
      <trkpt lat="39.0777290" lon="1.5135290">
        <ele>193.9</ele>
        <time>2020-02-23T14:30:54Z</time>
      </trkpt>
      <trkpt lat="39.0777300" lon="1.5135150">
        <ele>193.9</ele>
        <time>2020-02-23T14:30:55Z</time>
      </trkpt>
      <trkpt lat="39.0777340" lon="1.5135060">
        <ele>193.9</ele>
        <time>2020-02-23T14:30:56Z</time>
      </trkpt>
      <trkpt lat="39.0777330" lon="1.5134880">
        <ele>193.9</ele>
        <time>2020-02-23T14:30:57Z</time>
      </trkpt>
      <trkpt lat="39.0777360" lon="1.5134690">
        <ele>193.9</ele>
        <time>2020-02-23T14:30:58Z</time>
      </trkpt>
      <trkpt lat="39.0777330" lon="1.5134530">
        <ele>193.9</ele>
        <time>2020-02-23T14:30:59Z</time>
      </trkpt>
      <trkpt lat="39.0777340" lon="1.5134410">
        <ele>193.9</ele>
        <time>2020-02-23T14:31:00Z</time>
      </trkpt>
      <trkpt lat="39.0777390" lon="1.5134360">
        <ele>193.9</ele>
        <time>2020-02-23T14:31:01Z</time>
      </trkpt>
      <trkpt lat="39.0777410" lon="1.5134470">
        <ele>193.9</ele>
        <time>2020-02-23T14:31:02Z</time>
      </trkpt>
      <trkpt lat="39.0777410" lon="1.5134470">
        <ele>193.9</ele>
        <time>2020-02-23T14:31:03Z</time>
      </trkpt>
      <trkpt lat="39.0777410" lon="1.5134470">
        <ele>193.9</ele>
        <time>2020-02-23T14:31:04Z</time>
      </trkpt>
      <trkpt lat="39.0777460" lon="1.5134500">
        <ele>193.9</ele>
        <time>2020-02-23T14:31:05Z</time>
      </trkpt>
      <trkpt lat="39.0777510" lon="1.5134600">
        <ele>193.9</ele>
        <time>2020-02-23T14:31:06Z</time>
      </trkpt>
      <trkpt lat="39.0777580" lon="1.5134630">
        <ele>193.9</ele>
        <time>2020-02-23T14:31:07Z</time>
      </trkpt>
      <trkpt lat="39.0777580" lon="1.5134700">
        <ele>193.9</ele>
        <time>2020-02-23T14:31:08Z</time>
      </trkpt>
      <trkpt lat="39.0777590" lon="1.5134790">
        <ele>193.9</ele>
        <time>2020-02-23T14:31:09Z</time>
      </trkpt>
      <trkpt lat="39.0777590" lon="1.5134780">
        <ele>193.9</ele>
        <time>2020-02-23T14:31:10Z</time>
      </trkpt>
      <trkpt lat="39.0777610" lon="1.5134800">
        <ele>193.9</ele>
        <time>2020-02-23T14:31:11Z</time>
      </trkpt>
      <trkpt lat="39.0777630" lon="1.5134900">
        <ele>193.9</ele>
        <time>2020-02-23T14:31:12Z</time>
      </trkpt>
      <trkpt lat="39.0777650" lon="1.5134910">
        <ele>193.9</ele>
        <time>2020-02-23T14:31:13Z</time>
      </trkpt>
      <trkpt lat="39.0777660" lon="1.5134940">
        <ele>193.9</ele>
        <time>2020-02-23T14:31:14Z</time>
      </trkpt>
      <trkpt lat="39.0777720" lon="1.5135110">
        <ele>193.9</ele>
        <time>2020-02-23T14:31:15Z</time>
      </trkpt>
      <trkpt lat="39.0777700" lon="1.5135170">
        <ele>193.9</ele>
        <time>2020-02-23T14:31:16Z</time>
      </trkpt>
      <trkpt lat="39.0777700" lon="1.5135250">
        <ele>193.9</ele>
        <time>2020-02-23T14:31:17Z</time>
      </trkpt>
      <trkpt lat="39.0777680" lon="1.5135210">
        <ele>193.9</ele>
        <time>2020-02-23T14:31:18Z</time>
      </trkpt>
      <trkpt lat="39.0777680" lon="1.5135150">
        <ele>193.9</ele>
        <time>2020-02-23T14:31:19Z</time>
      </trkpt>
      <trkpt lat="39.0777670" lon="1.5135120">
        <ele>193.9</ele>
        <time>2020-02-23T14:31:20Z</time>
      </trkpt>
      <trkpt lat="39.0777650" lon="1.5135080">
        <ele>193.9</ele>
        <time>2020-02-23T14:31:21Z</time>
      </trkpt>
      <trkpt lat="39.0777650" lon="1.5135110">
        <ele>193.9</ele>
        <time>2020-02-23T14:31:22Z</time>
      </trkpt>
      <trkpt lat="39.0777690" lon="1.5135160">
        <ele>193.9</ele>
        <time>2020-02-23T14:31:23Z</time>
      </trkpt>
      <trkpt lat="39.0777690" lon="1.5135220">
        <ele>193.9</ele>
        <time>2020-02-23T14:31:24Z</time>
      </trkpt>
      <trkpt lat="39.0777660" lon="1.5135250">
        <ele>193.9</ele>
        <time>2020-02-23T14:31:25Z</time>
      </trkpt>
      <trkpt lat="39.0777560" lon="1.5135250">
        <ele>193.9</ele>
        <time>2020-02-23T14:31:26Z</time>
      </trkpt>
      <trkpt lat="39.0777470" lon="1.5135210">
        <ele>193.9</ele>
        <time>2020-02-23T14:31:27Z</time>
      </trkpt>
      <trkpt lat="39.0777370" lon="1.5135190">
        <ele>193.9</ele>
        <time>2020-02-23T14:31:28Z</time>
      </trkpt>
      <trkpt lat="39.0777280" lon="1.5135200">
        <ele>193.9</ele>
        <time>2020-02-23T14:31:29Z</time>
      </trkpt>
      <trkpt lat="39.0777210" lon="1.5135190">
        <ele>193.9</ele>
        <time>2020-02-23T14:31:30Z</time>
      </trkpt>
      <trkpt lat="39.0777110" lon="1.5135160">
        <ele>193.9</ele>
        <time>2020-02-23T14:31:31Z</time>
      </trkpt>
      <trkpt lat="39.0777040" lon="1.5135120">
        <ele>193.9</ele>
        <time>2020-02-23T14:31:32Z</time>
      </trkpt>
      <trkpt lat="39.0776930" lon="1.5135090">
        <ele>193.9</ele>
        <time>2020-02-23T14:31:33Z</time>
      </trkpt>
      <trkpt lat="39.0776890" lon="1.5135030">
        <ele>193.9</ele>
        <time>2020-02-23T14:31:34Z</time>
      </trkpt>
      <trkpt lat="39.0776820" lon="1.5134900">
        <ele>193.9</ele>
        <time>2020-02-23T14:31:35Z</time>
      </trkpt>
      <trkpt lat="39.0776760" lon="1.5134830">
        <ele>193.9</ele>
        <time>2020-02-23T14:31:36Z</time>
      </trkpt>
      <trkpt lat="39.0776690" lon="1.5134760">
        <ele>193.9</ele>
        <time>2020-02-23T14:31:37Z</time>
      </trkpt>
      <trkpt lat="39.0776610" lon="1.5134700">
        <ele>193.9</ele>
        <time>2020-02-23T14:31:38Z</time>
      </trkpt>
      <trkpt lat="39.0776620" lon="1.5134710">
        <ele>193.9</ele>
        <time>2020-02-23T14:31:39Z</time>
      </trkpt>
      <trkpt lat="39.0776630" lon="1.5134770">
        <ele>193.9</ele>
        <time>2020-02-23T14:31:40Z</time>
      </trkpt>
      <trkpt lat="39.0776650" lon="1.5134800">
        <ele>193.9</ele>
        <time>2020-02-23T14:31:41Z</time>
      </trkpt>
      <trkpt lat="39.0776740" lon="1.5134890">
        <ele>193.9</ele>
        <time>2020-02-23T14:31:42Z</time>
      </trkpt>
      <trkpt lat="39.0776790" lon="1.5134940">
        <ele>193.9</ele>
        <time>2020-02-23T14:31:43Z</time>
      </trkpt>
      <trkpt lat="39.0776810" lon="1.5134960">
        <ele>193.9</ele>
        <time>2020-02-23T14:31:44Z</time>
      </trkpt>
      <trkpt lat="39.0776830" lon="1.5134970">
        <ele>193.9</ele>
        <time>2020-02-23T14:31:45Z</time>
      </trkpt>
      <trkpt lat="39.0776780" lon="1.5134990">
        <ele>193.9</ele>
        <time>2020-02-23T14:31:46Z</time>
      </trkpt>
      <trkpt lat="39.0776740" lon="1.5135030">
        <ele>193.9</ele>
        <time>2020-02-23T14:31:47Z</time>
      </trkpt>
      <trkpt lat="39.0776760" lon="1.5135050">
        <ele>193.9</ele>
        <time>2020-02-23T14:31:48Z</time>
      </trkpt>
      <trkpt lat="39.0776780" lon="1.5135000">
        <ele>193.9</ele>
        <time>2020-02-23T14:31:49Z</time>
      </trkpt>
      <trkpt lat="39.0776820" lon="1.5135020">
        <ele>193.9</ele>
        <time>2020-02-23T14:31:50Z</time>
      </trkpt>
      <trkpt lat="39.0776850" lon="1.5135050">
        <ele>193.9</ele>
        <time>2020-02-23T14:31:51Z</time>
      </trkpt>
      <trkpt lat="39.0776840" lon="1.5135090">
        <ele>193.9</ele>
        <time>2020-02-23T14:31:52Z</time>
      </trkpt>
      <trkpt lat="39.0776890" lon="1.5135130">
        <ele>193.9</ele>
        <time>2020-02-23T14:31:53Z</time>
      </trkpt>
      <trkpt lat="39.0776880" lon="1.5135180">
        <ele>193.9</ele>
        <time>2020-02-23T14:31:54Z</time>
      </trkpt>
      <trkpt lat="39.0776930" lon="1.5135160">
        <ele>193.9</ele>
        <time>2020-02-23T14:31:55Z</time>
      </trkpt>
      <trkpt lat="39.0776940" lon="1.5135200">
        <ele>193.9</ele>
        <time>2020-02-23T14:31:56Z</time>
      </trkpt>
      <trkpt lat="39.0776950" lon="1.5135120">
        <ele>193.9</ele>
        <time>2020-02-23T14:31:57Z</time>
      </trkpt>
      <trkpt lat="39.0777030" lon="1.5135080">
        <ele>193.8</ele>
        <time>2020-02-23T14:31:58Z</time>
      </trkpt>
      <trkpt lat="39.0777140" lon="1.5134980">
        <ele>193.8</ele>
        <time>2020-02-23T14:31:59Z</time>
      </trkpt>
      <trkpt lat="39.0777120" lon="1.5135000">
        <ele>193.8</ele>
        <time>2020-02-23T14:32:00Z</time>
      </trkpt>
      <trkpt lat="39.0777110" lon="1.5134940">
        <ele>193.8</ele>
        <time>2020-02-23T14:32:01Z</time>
      </trkpt>
      <trkpt lat="39.0776950" lon="1.5134960">
        <ele>193.8</ele>
        <time>2020-02-23T14:32:02Z</time>
      </trkpt>
      <trkpt lat="39.0776910" lon="1.5135000">
        <ele>193.8</ele>
        <time>2020-02-23T14:32:03Z</time>
      </trkpt>
      <trkpt lat="39.0776870" lon="1.5135000">
        <ele>193.8</ele>
        <time>2020-02-23T14:32:04Z</time>
      </trkpt>
      <trkpt lat="39.0776840" lon="1.5135070">
        <ele>193.8</ele>
        <time>2020-02-23T14:32:05Z</time>
      </trkpt>
      <trkpt lat="39.0776790" lon="1.5135100">
        <ele>193.8</ele>
        <time>2020-02-23T14:32:06Z</time>
      </trkpt>
      <trkpt lat="39.0776830" lon="1.5135210">
        <ele>193.8</ele>
        <time>2020-02-23T14:32:07Z</time>
      </trkpt>
      <trkpt lat="39.0776870" lon="1.5135330">
        <ele>193.8</ele>
        <time>2020-02-23T14:32:08Z</time>
      </trkpt>
      <trkpt lat="39.0776760" lon="1.5135250">
        <ele>193.8</ele>
        <time>2020-02-23T14:32:09Z</time>
      </trkpt>
      <trkpt lat="39.0776690" lon="1.5135090">
        <ele>193.8</ele>
        <time>2020-02-23T14:32:10Z</time>
      </trkpt>
      <trkpt lat="39.0776740" lon="1.5135080">
        <ele>193.8</ele>
        <time>2020-02-23T14:32:11Z</time>
      </trkpt>
      <trkpt lat="39.0776720" lon="1.5135020">
        <ele>193.8</ele>
        <time>2020-02-23T14:32:12Z</time>
      </trkpt>
      <trkpt lat="39.0776740" lon="1.5134990">
        <ele>193.8</ele>
        <time>2020-02-23T14:32:13Z</time>
      </trkpt>
      <trkpt lat="39.0776740" lon="1.5134960">
        <ele>193.8</ele>
        <time>2020-02-23T14:32:14Z</time>
      </trkpt>
      <trkpt lat="39.0776720" lon="1.5134920">
        <ele>193.8</ele>
        <time>2020-02-23T14:32:15Z</time>
      </trkpt>
      <trkpt lat="39.0776820" lon="1.5134890">
        <ele>193.8</ele>
        <time>2020-02-23T14:32:16Z</time>
      </trkpt>
      <trkpt lat="39.0776870" lon="1.5134920">
        <ele>193.8</ele>
        <time>2020-02-23T14:32:17Z</time>
      </trkpt>
      <trkpt lat="39.0776840" lon="1.5134900">
        <ele>193.8</ele>
        <time>2020-02-23T14:32:18Z</time>
      </trkpt>
      <trkpt lat="39.0776810" lon="1.5134840">
        <ele>193.8</ele>
        <time>2020-02-23T14:32:19Z</time>
      </trkpt>
      <trkpt lat="39.0776900" lon="1.5134790">
        <ele>193.8</ele>
        <time>2020-02-23T14:32:20Z</time>
      </trkpt>
      <trkpt lat="39.0776960" lon="1.5134770">
        <ele>193.8</ele>
        <time>2020-02-23T14:32:21Z</time>
      </trkpt>
      <trkpt lat="39.0776940" lon="1.5134770">
        <ele>193.8</ele>
        <time>2020-02-23T14:32:22Z</time>
      </trkpt>
      <trkpt lat="39.0776940" lon="1.5134820">
        <ele>193.8</ele>
        <time>2020-02-23T14:32:23Z</time>
      </trkpt>
      <trkpt lat="39.0776960" lon="1.5134870">
        <ele>193.8</ele>
        <time>2020-02-23T14:32:24Z</time>
      </trkpt>
      <trkpt lat="39.0777170" lon="1.5134930">
        <ele>193.8</ele>
        <time>2020-02-23T14:32:25Z</time>
      </trkpt>
      <trkpt lat="39.0777300" lon="1.5135000">
        <ele>193.8</ele>
        <time>2020-02-23T14:32:26Z</time>
      </trkpt>
      <trkpt lat="39.0777300" lon="1.5135060">
        <ele>193.8</ele>
        <time>2020-02-23T14:32:27Z</time>
      </trkpt>
      <trkpt lat="39.0777370" lon="1.5135020">
        <ele>193.8</ele>
        <time>2020-02-23T14:32:28Z</time>
      </trkpt>
      <trkpt lat="39.0777500" lon="1.5135070">
        <ele>193.8</ele>
        <time>2020-02-23T14:32:29Z</time>
      </trkpt>
      <trkpt lat="39.0777640" lon="1.5135100">
        <ele>193.8</ele>
        <time>2020-02-23T14:32:30Z</time>
      </trkpt>
      <trkpt lat="39.0777590" lon="1.5135060">
        <ele>193.8</ele>
        <time>2020-02-23T14:32:31Z</time>
      </trkpt>
      <trkpt lat="39.0777560" lon="1.5135100">
        <ele>193.8</ele>
        <time>2020-02-23T14:32:32Z</time>
      </trkpt>
      <trkpt lat="39.0777620" lon="1.5135070">
        <ele>193.8</ele>
        <time>2020-02-23T14:32:33Z</time>
      </trkpt>
      <trkpt lat="39.0777740" lon="1.5135060">
        <ele>193.8</ele>
        <time>2020-02-23T14:32:34Z</time>
      </trkpt>
      <trkpt lat="39.0777810" lon="1.5135080">
        <ele>193.8</ele>
        <time>2020-02-23T14:32:35Z</time>
      </trkpt>
      <trkpt lat="39.0777830" lon="1.5135090">
        <ele>193.8</ele>
        <time>2020-02-23T14:32:36Z</time>
      </trkpt>
      <trkpt lat="39.0777910" lon="1.5135080">
        <ele>193.8</ele>
        <time>2020-02-23T14:32:37Z</time>
      </trkpt>
      <trkpt lat="39.0777990" lon="1.5135120">
        <ele>193.8</ele>
        <time>2020-02-23T14:32:38Z</time>
      </trkpt>
      <trkpt lat="39.0778050" lon="1.5135180">
        <ele>193.8</ele>
        <time>2020-02-23T14:32:39Z</time>
      </trkpt>
      <trkpt lat="39.0778050" lon="1.5135240">
        <ele>193.8</ele>
        <time>2020-02-23T14:32:40Z</time>
      </trkpt>
      <trkpt lat="39.0778090" lon="1.5135230">
        <ele>193.8</ele>
        <time>2020-02-23T14:32:41Z</time>
      </trkpt>
      <trkpt lat="39.0778120" lon="1.5135280">
        <ele>193.8</ele>
        <time>2020-02-23T14:32:42Z</time>
      </trkpt>
      <trkpt lat="39.0778090" lon="1.5135290">
        <ele>193.8</ele>
        <time>2020-02-23T14:32:43Z</time>
      </trkpt>
      <trkpt lat="39.0778090" lon="1.5135340">
        <ele>193.8</ele>
        <time>2020-02-23T14:32:44Z</time>
      </trkpt>
      <trkpt lat="39.0778090" lon="1.5135390">
        <ele>193.8</ele>
        <time>2020-02-23T14:32:45Z</time>
      </trkpt>
      <trkpt lat="39.0778120" lon="1.5135430">
        <ele>193.8</ele>
        <time>2020-02-23T14:32:46Z</time>
      </trkpt>
      <trkpt lat="39.0778130" lon="1.5135450">
        <ele>193.8</ele>
        <time>2020-02-23T14:32:47Z</time>
      </trkpt>
      <trkpt lat="39.0778130" lon="1.5135450">
        <ele>193.8</ele>
        <time>2020-02-23T14:32:48Z</time>
      </trkpt>
      <trkpt lat="39.0778120" lon="1.5135470">
        <ele>193.8</ele>
        <time>2020-02-23T14:32:49Z</time>
      </trkpt>
      <trkpt lat="39.0778100" lon="1.5135440">
        <ele>193.8</ele>
        <time>2020-02-23T14:32:50Z</time>
      </trkpt>
      <trkpt lat="39.0778110" lon="1.5135540">
        <ele>193.8</ele>
        <time>2020-02-23T14:32:58Z</time>
      </trkpt>
      <trkpt lat="39.0778210" lon="1.5135500">
        <ele>193.8</ele>
        <time>2020-02-23T14:32:59Z</time>
      </trkpt>
      <trkpt lat="39.0778250" lon="1.5135490">
        <ele>193.8</ele>
        <time>2020-02-23T14:33:00Z</time>
      </trkpt>
      <trkpt lat="39.0778290" lon="1.5135460">
        <ele>193.8</ele>
        <time>2020-02-23T14:33:01Z</time>
      </trkpt>
      <trkpt lat="39.0778340" lon="1.5135410">
        <ele>193.8</ele>
        <time>2020-02-23T14:33:02Z</time>
      </trkpt>
      <trkpt lat="39.0778340" lon="1.5135380">
        <ele>193.8</ele>
        <time>2020-02-23T14:33:03Z</time>
      </trkpt>
      <trkpt lat="39.0778260" lon="1.5135380">
        <ele>193.8</ele>
        <time>2020-02-23T14:33:04Z</time>
      </trkpt>
      <trkpt lat="39.0778300" lon="1.5135380">
        <ele>193.8</ele>
        <time>2020-02-23T14:33:05Z</time>
      </trkpt>
      <trkpt lat="39.0778290" lon="1.5135400">
        <ele>193.8</ele>
        <time>2020-02-23T14:33:06Z</time>
      </trkpt>
      <trkpt lat="39.0778340" lon="1.5135390">
        <ele>193.8</ele>
        <time>2020-02-23T14:33:07Z</time>
      </trkpt>
      <trkpt lat="39.0778370" lon="1.5135450">
        <ele>193.8</ele>
        <time>2020-02-23T14:33:08Z</time>
      </trkpt>
      <trkpt lat="39.0778380" lon="1.5135570">
        <ele>193.8</ele>
        <time>2020-02-23T14:33:09Z</time>
      </trkpt>
      <trkpt lat="39.0778400" lon="1.5135570">
        <ele>193.8</ele>
        <time>2020-02-23T14:33:10Z</time>
      </trkpt>
      <trkpt lat="39.0778460" lon="1.5135710">
        <ele>193.8</ele>
        <time>2020-02-23T14:33:11Z</time>
      </trkpt>
      <trkpt lat="39.0778470" lon="1.5135750">
        <ele>193.8</ele>
        <time>2020-02-23T14:33:12Z</time>
      </trkpt>
      <trkpt lat="39.0778410" lon="1.5135780">
        <ele>193.8</ele>
        <time>2020-02-23T14:33:13Z</time>
      </trkpt>
      <trkpt lat="39.0778400" lon="1.5135850">
        <ele>193.8</ele>
        <time>2020-02-23T14:33:14Z</time>
      </trkpt>
      <trkpt lat="39.0778430" lon="1.5135830">
        <ele>193.8</ele>
        <time>2020-02-23T14:33:15Z</time>
      </trkpt>
      <trkpt lat="39.0778400" lon="1.5135830">
        <ele>193.8</ele>
        <time>2020-02-23T14:33:16Z</time>
      </trkpt>
      <trkpt lat="39.0778370" lon="1.5135760">
        <ele>193.8</ele>
        <time>2020-02-23T14:33:17Z</time>
      </trkpt>
      <trkpt lat="39.0778340" lon="1.5135760">
        <ele>193.8</ele>
        <time>2020-02-23T14:33:18Z</time>
      </trkpt>
      <trkpt lat="39.0778280" lon="1.5135800">
        <ele>193.8</ele>
        <time>2020-02-23T14:33:19Z</time>
      </trkpt>
      <trkpt lat="39.0778300" lon="1.5135800">
        <ele>193.8</ele>
        <time>2020-02-23T14:33:20Z</time>
      </trkpt>
      <trkpt lat="39.0778330" lon="1.5135830">
        <ele>193.8</ele>
        <time>2020-02-23T14:33:21Z</time>
      </trkpt>
      <trkpt lat="39.0778350" lon="1.5135930">
        <ele>193.8</ele>
        <time>2020-02-23T14:33:22Z</time>
      </trkpt>
      <trkpt lat="39.0778180" lon="1.5135760">
        <ele>193.8</ele>
        <time>2020-02-23T14:33:23Z</time>
      </trkpt>
      <trkpt lat="39.0778070" lon="1.5135550">
        <ele>193.8</ele>
        <time>2020-02-23T14:33:24Z</time>
      </trkpt>
      <trkpt lat="39.0777990" lon="1.5135370">
        <ele>193.8</ele>
        <time>2020-02-23T14:33:25Z</time>
      </trkpt>
      <trkpt lat="39.0777880" lon="1.5135190">
        <ele>193.7</ele>
        <time>2020-02-23T14:33:26Z</time>
      </trkpt>
      <trkpt lat="39.0777790" lon="1.5135020">
        <ele>193.7</ele>
        <time>2020-02-23T14:33:27Z</time>
      </trkpt>
      <trkpt lat="39.0777710" lon="1.5134830">
        <ele>193.7</ele>
        <time>2020-02-23T14:33:28Z</time>
      </trkpt>
      <trkpt lat="39.0777680" lon="1.5134740">
        <ele>193.7</ele>
        <time>2020-02-23T14:33:29Z</time>
      </trkpt>
      <trkpt lat="39.0777650" lon="1.5134690">
        <ele>193.7</ele>
        <time>2020-02-23T14:33:30Z</time>
      </trkpt>
      <trkpt lat="39.0777680" lon="1.5134730">
        <ele>193.7</ele>
        <time>2020-02-23T14:33:31Z</time>
      </trkpt>
      <trkpt lat="39.0777730" lon="1.5134710">
        <ele>193.7</ele>
        <time>2020-02-23T14:33:32Z</time>
      </trkpt>
      <trkpt lat="39.0777740" lon="1.5134700">
        <ele>193.7</ele>
        <time>2020-02-23T14:33:33Z</time>
      </trkpt>
      <trkpt lat="39.0777720" lon="1.5134700">
        <ele>193.7</ele>
        <time>2020-02-23T14:33:34Z</time>
      </trkpt>
      <trkpt lat="39.0777700" lon="1.5134730">
        <ele>193.7</ele>
        <time>2020-02-23T14:33:35Z</time>
      </trkpt>
      <trkpt lat="39.0777740" lon="1.5134850">
        <ele>193.7</ele>
        <time>2020-02-23T14:33:36Z</time>
      </trkpt>
      <trkpt lat="39.0777710" lon="1.5134830">
        <ele>193.7</ele>
        <time>2020-02-23T14:33:37Z</time>
      </trkpt>
      <trkpt lat="39.0777680" lon="1.5134840">
        <ele>193.7</ele>
        <time>2020-02-23T14:33:38Z</time>
      </trkpt>
      <trkpt lat="39.0777620" lon="1.5134790">
        <ele>193.7</ele>
        <time>2020-02-23T14:33:39Z</time>
      </trkpt>
      <trkpt lat="39.0777570" lon="1.5134730">
        <ele>193.7</ele>
        <time>2020-02-23T14:33:40Z</time>
      </trkpt>
      <trkpt lat="39.0777550" lon="1.5134760">
        <ele>193.7</ele>
        <time>2020-02-23T14:33:41Z</time>
      </trkpt>
      <trkpt lat="39.0777430" lon="1.5134780">
        <ele>193.7</ele>
        <time>2020-02-23T14:33:42Z</time>
      </trkpt>
      <trkpt lat="39.0777360" lon="1.5134770">
        <ele>193.7</ele>
        <time>2020-02-23T14:33:43Z</time>
      </trkpt>
      <trkpt lat="39.0777360" lon="1.5134750">
        <ele>193.7</ele>
        <time>2020-02-23T14:33:44Z</time>
      </trkpt>
      <trkpt lat="39.0777330" lon="1.5134780">
        <ele>193.7</ele>
        <time>2020-02-23T14:33:45Z</time>
      </trkpt>
      <trkpt lat="39.0777350" lon="1.5134730">
        <ele>193.7</ele>
        <time>2020-02-23T14:33:46Z</time>
      </trkpt>
      <trkpt lat="39.0777420" lon="1.5134590">
        <ele>193.7</ele>
        <time>2020-02-23T14:33:47Z</time>
      </trkpt>
      <trkpt lat="39.0777490" lon="1.5134470">
        <ele>193.7</ele>
        <time>2020-02-23T14:33:48Z</time>
      </trkpt>
      <trkpt lat="39.0777510" lon="1.5134400">
        <ele>193.7</ele>
        <time>2020-02-23T14:33:49Z</time>
      </trkpt>
      <trkpt lat="39.0777510" lon="1.5134430">
        <ele>193.7</ele>
        <time>2020-02-23T14:33:50Z</time>
      </trkpt>
      <trkpt lat="39.0777530" lon="1.5134440">
        <ele>193.7</ele>
        <time>2020-02-23T14:33:51Z</time>
      </trkpt>
      <trkpt lat="39.0777530" lon="1.5134480">
        <ele>193.7</ele>
        <time>2020-02-23T14:33:52Z</time>
      </trkpt>
      <trkpt lat="39.0777550" lon="1.5134480">
        <ele>193.7</ele>
        <time>2020-02-23T14:33:53Z</time>
      </trkpt>
      <trkpt lat="39.0777580" lon="1.5134470">
        <ele>193.7</ele>
        <time>2020-02-23T14:33:54Z</time>
      </trkpt>
      <trkpt lat="39.0777610" lon="1.5134400">
        <ele>193.7</ele>
        <time>2020-02-23T14:33:55Z</time>
      </trkpt>
      <trkpt lat="39.0777620" lon="1.5134370">
        <ele>193.7</ele>
        <time>2020-02-23T14:33:56Z</time>
      </trkpt>
      <trkpt lat="39.0777660" lon="1.5134350">
        <ele>193.7</ele>
        <time>2020-02-23T14:33:57Z</time>
      </trkpt>
      <trkpt lat="39.0777710" lon="1.5134380">
        <ele>193.7</ele>
        <time>2020-02-23T14:33:58Z</time>
      </trkpt>
      <trkpt lat="39.0777730" lon="1.5134440">
        <ele>193.7</ele>
        <time>2020-02-23T14:33:59Z</time>
      </trkpt>
      <trkpt lat="39.0777730" lon="1.5134440">
        <ele>193.7</ele>
        <time>2020-02-23T14:34:00Z</time>
      </trkpt>
      <trkpt lat="39.0777700" lon="1.5134490">
        <ele>193.7</ele>
        <time>2020-02-23T14:34:01Z</time>
      </trkpt>
      <trkpt lat="39.0777670" lon="1.5134550">
        <ele>193.7</ele>
        <time>2020-02-23T14:34:02Z</time>
      </trkpt>
      <trkpt lat="39.0777650" lon="1.5134600">
        <ele>193.7</ele>
        <time>2020-02-23T14:34:03Z</time>
      </trkpt>
      <trkpt lat="39.0777650" lon="1.5134780">
        <ele>193.7</ele>
        <time>2020-02-23T14:34:04Z</time>
      </trkpt>
      <trkpt lat="39.0777630" lon="1.5134840">
        <ele>193.7</ele>
        <time>2020-02-23T14:34:05Z</time>
      </trkpt>
      <trkpt lat="39.0777570" lon="1.5135640">
        <ele>193.7</ele>
        <time>2020-02-23T14:35:30Z</time>
      </trkpt>
      <trkpt lat="39.0777530" lon="1.5135630">
        <ele>193.7</ele>
        <time>2020-02-23T14:35:31Z</time>
      </trkpt>
      <trkpt lat="39.0777500" lon="1.5135610">
        <ele>193.7</ele>
        <time>2020-02-23T14:35:32Z</time>
      </trkpt>
      <trkpt lat="39.0777460" lon="1.5135600">
        <ele>193.7</ele>
        <time>2020-02-23T14:35:33Z</time>
      </trkpt>
      <trkpt lat="39.0777460" lon="1.5135590">
        <ele>193.7</ele>
        <time>2020-02-23T14:35:34Z</time>
      </trkpt>
      <trkpt lat="39.0777470" lon="1.5135590">
        <ele>193.7</ele>
        <time>2020-02-23T14:35:35Z</time>
      </trkpt>
      <trkpt lat="39.0777510" lon="1.5135540">
        <ele>193.7</ele>
        <time>2020-02-23T14:35:36Z</time>
      </trkpt>
      <trkpt lat="39.0777470" lon="1.5135540">
        <ele>193.7</ele>
        <time>2020-02-23T14:35:37Z</time>
      </trkpt>
      <trkpt lat="39.0777390" lon="1.5135580">
        <ele>193.7</ele>
        <time>2020-02-23T14:35:38Z</time>
      </trkpt>
      <trkpt lat="39.0777340" lon="1.5135620">
        <ele>193.7</ele>
        <time>2020-02-23T14:35:39Z</time>
      </trkpt>
      <trkpt lat="39.0777340" lon="1.5135670">
        <ele>193.7</ele>
        <time>2020-02-23T14:35:40Z</time>
      </trkpt>
      <trkpt lat="39.0777370" lon="1.5135670">
        <ele>193.7</ele>
        <time>2020-02-23T14:35:41Z</time>
      </trkpt>
      <trkpt lat="39.0777410" lon="1.5135670">
        <ele>193.7</ele>
        <time>2020-02-23T14:35:42Z</time>
      </trkpt>
      <trkpt lat="39.0777440" lon="1.5135660">
        <ele>193.7</ele>
        <time>2020-02-23T14:35:43Z</time>
      </trkpt>
      <trkpt lat="39.0777480" lon="1.5135660">
        <ele>193.7</ele>
        <time>2020-02-23T14:35:44Z</time>
      </trkpt>
      <trkpt lat="39.0777520" lon="1.5135660">
        <ele>193.7</ele>
        <time>2020-02-23T14:35:45Z</time>
      </trkpt>
      <trkpt lat="39.0777550" lon="1.5135660">
        <ele>193.7</ele>
        <time>2020-02-23T14:35:46Z</time>
      </trkpt>
      <trkpt lat="39.0777590" lon="1.5135660">
        <ele>193.7</ele>
        <time>2020-02-23T14:35:47Z</time>
      </trkpt>
      <trkpt lat="39.0777620" lon="1.5135660">
        <ele>193.7</ele>
        <time>2020-02-23T14:35:48Z</time>
      </trkpt>
      <trkpt lat="39.0777660" lon="1.5135650">
        <ele>193.7</ele>
        <time>2020-02-23T14:35:49Z</time>
      </trkpt>
      <trkpt lat="39.0777690" lon="1.5135650">
        <ele>193.7</ele>
        <time>2020-02-23T14:35:50Z</time>
      </trkpt>
      <trkpt lat="39.0777730" lon="1.5135650">
        <ele>193.7</ele>
        <time>2020-02-23T14:35:51Z</time>
      </trkpt>
      <trkpt lat="39.0777820" lon="1.5135610">
        <ele>193.7</ele>
        <time>2020-02-23T14:35:52Z</time>
      </trkpt>
      <trkpt lat="39.0777800" lon="1.5135590">
        <ele>193.7</ele>
        <time>2020-02-23T14:35:53Z</time>
      </trkpt>
      <trkpt lat="39.0777820" lon="1.5135560">
        <ele>193.7</ele>
        <time>2020-02-23T14:35:54Z</time>
      </trkpt>
      <trkpt lat="39.0777830" lon="1.5135550">
        <ele>193.7</ele>
        <time>2020-02-23T14:35:55Z</time>
      </trkpt>
      <trkpt lat="39.0777790" lon="1.5135500">
        <ele>193.7</ele>
        <time>2020-02-23T14:35:56Z</time>
      </trkpt>
      <trkpt lat="39.0777770" lon="1.5135520">
        <ele>193.7</ele>
        <time>2020-02-23T14:35:57Z</time>
      </trkpt>
      <trkpt lat="39.0777740" lon="1.5135490">
        <ele>193.7</ele>
        <time>2020-02-23T14:35:58Z</time>
      </trkpt>
      <trkpt lat="39.0777720" lon="1.5135480">
        <ele>193.7</ele>
        <time>2020-02-23T14:35:59Z</time>
      </trkpt>
      <trkpt lat="39.0777720" lon="1.5135460">
        <ele>193.7</ele>
        <time>2020-02-23T14:36:00Z</time>
      </trkpt>
      <trkpt lat="39.0777700" lon="1.5135440">
        <ele>193.7</ele>
        <time>2020-02-23T14:36:01Z</time>
      </trkpt>
      <trkpt lat="39.0777660" lon="1.5135480">
        <ele>193.7</ele>
        <time>2020-02-23T14:36:02Z</time>
      </trkpt>
      <trkpt lat="39.0777630" lon="1.5135510">
        <ele>193.7</ele>
        <time>2020-02-23T14:36:03Z</time>
      </trkpt>
      <trkpt lat="39.0777630" lon="1.5135500">
        <ele>193.7</ele>
        <time>2020-02-23T14:36:04Z</time>
      </trkpt>
      <trkpt lat="39.0777630" lon="1.5135470">
        <ele>193.7</ele>
        <time>2020-02-23T14:36:05Z</time>
      </trkpt>
      <trkpt lat="39.0777620" lon="1.5135440">
        <ele>193.7</ele>
        <time>2020-02-23T14:36:06Z</time>
      </trkpt>
      <trkpt lat="39.0777660" lon="1.5135440">
        <ele>193.7</ele>
        <time>2020-02-23T14:36:07Z</time>
      </trkpt>
      <trkpt lat="39.0777620" lon="1.5135390">
        <ele>193.7</ele>
        <time>2020-02-23T14:36:08Z</time>
      </trkpt>
      <trkpt lat="39.0777610" lon="1.5135350">
        <ele>193.7</ele>
        <time>2020-02-23T14:36:09Z</time>
      </trkpt>
      <trkpt lat="39.0777580" lon="1.5135310">
        <ele>193.7</ele>
        <time>2020-02-23T14:36:10Z</time>
      </trkpt>
      <trkpt lat="39.0777520" lon="1.5135310">
        <ele>193.7</ele>
        <time>2020-02-23T14:36:11Z</time>
      </trkpt>
      <trkpt lat="39.0777530" lon="1.5135290">
        <ele>193.7</ele>
        <time>2020-02-23T14:36:12Z</time>
      </trkpt>
      <trkpt lat="39.0777530" lon="1.5135260">
        <ele>193.7</ele>
        <time>2020-02-23T14:36:13Z</time>
      </trkpt>
      <trkpt lat="39.0777480" lon="1.5135320">
        <ele>193.7</ele>
        <time>2020-02-23T14:36:14Z</time>
      </trkpt>
      <trkpt lat="39.0777470" lon="1.5135340">
        <ele>193.7</ele>
        <time>2020-02-23T14:36:15Z</time>
      </trkpt>
      <trkpt lat="39.0777460" lon="1.5135410">
        <ele>193.7</ele>
        <time>2020-02-23T14:36:16Z</time>
      </trkpt>
      <trkpt lat="39.0777430" lon="1.5135440">
        <ele>193.7</ele>
        <time>2020-02-23T14:36:17Z</time>
      </trkpt>
      <trkpt lat="39.0777390" lon="1.5135480">
        <ele>193.7</ele>
        <time>2020-02-23T14:36:18Z</time>
      </trkpt>
      <trkpt lat="39.0777350" lon="1.5135490">
        <ele>193.7</ele>
        <time>2020-02-23T14:36:19Z</time>
      </trkpt>
      <trkpt lat="39.0777350" lon="1.5135510">
        <ele>193.7</ele>
        <time>2020-02-23T14:36:20Z</time>
      </trkpt>
      <trkpt lat="39.0777350" lon="1.5135520">
        <ele>193.7</ele>
        <time>2020-02-23T14:36:21Z</time>
      </trkpt>
      <trkpt lat="39.0777360" lon="1.5135480">
        <ele>193.7</ele>
        <time>2020-02-23T14:36:22Z</time>
      </trkpt>
      <trkpt lat="39.0777360" lon="1.5135460">
        <ele>193.7</ele>
        <time>2020-02-23T14:36:23Z</time>
      </trkpt>
      <trkpt lat="39.0777370" lon="1.5135450">
        <ele>193.7</ele>
        <time>2020-02-23T14:36:24Z</time>
      </trkpt>
      <trkpt lat="39.0777380" lon="1.5135460">
        <ele>193.7</ele>
        <time>2020-02-23T14:36:25Z</time>
      </trkpt>
      <trkpt lat="39.0777430" lon="1.5135460">
        <ele>193.7</ele>
        <time>2020-02-23T14:36:26Z</time>
      </trkpt>
      <trkpt lat="39.0777410" lon="1.5135450">
        <ele>193.7</ele>
        <time>2020-02-23T14:36:27Z</time>
      </trkpt>
      <trkpt lat="39.0777400" lon="1.5135480">
        <ele>193.7</ele>
        <time>2020-02-23T14:36:28Z</time>
      </trkpt>
      <trkpt lat="39.0777380" lon="1.5135520">
        <ele>193.7</ele>
        <time>2020-02-23T14:36:29Z</time>
      </trkpt>
      <trkpt lat="39.0777380" lon="1.5135590">
        <ele>193.7</ele>
        <time>2020-02-23T14:36:30Z</time>
      </trkpt>
      <trkpt lat="39.0777370" lon="1.5135600">
        <ele>193.7</ele>
        <time>2020-02-23T14:36:31Z</time>
      </trkpt>
      <trkpt lat="39.0777390" lon="1.5135600">
        <ele>193.7</ele>
        <time>2020-02-23T14:36:32Z</time>
      </trkpt>
      <trkpt lat="39.0777420" lon="1.5135590">
        <ele>193.7</ele>
        <time>2020-02-23T14:36:33Z</time>
      </trkpt>
      <trkpt lat="39.0777400" lon="1.5135610">
        <ele>193.7</ele>
        <time>2020-02-23T14:36:34Z</time>
      </trkpt>
      <trkpt lat="39.0777410" lon="1.5135610">
        <ele>193.7</ele>
        <time>2020-02-23T14:36:35Z</time>
      </trkpt>
      <trkpt lat="39.0777390" lon="1.5135530">
        <ele>193.7</ele>
        <time>2020-02-23T14:36:36Z</time>
      </trkpt>
      <trkpt lat="39.0777350" lon="1.5135570">
        <ele>193.7</ele>
        <time>2020-02-23T14:36:37Z</time>
      </trkpt>
      <trkpt lat="39.0777350" lon="1.5135580">
        <ele>193.7</ele>
        <time>2020-02-23T14:36:38Z</time>
      </trkpt>
      <trkpt lat="39.0777330" lon="1.5135420">
        <ele>193.7</ele>
        <time>2020-02-23T14:36:39Z</time>
      </trkpt>
      <trkpt lat="39.0777280" lon="1.5135400">
        <ele>193.7</ele>
        <time>2020-02-23T14:36:40Z</time>
      </trkpt>
      <trkpt lat="39.0777270" lon="1.5135360">
        <ele>193.6</ele>
        <time>2020-02-23T14:36:41Z</time>
      </trkpt>
      <trkpt lat="39.0777270" lon="1.5135330">
        <ele>193.6</ele>
        <time>2020-02-23T14:36:42Z</time>
      </trkpt>
      <trkpt lat="39.0777260" lon="1.5135200">
        <ele>193.6</ele>
        <time>2020-02-23T14:36:43Z</time>
      </trkpt>
      <trkpt lat="39.0777220" lon="1.5135200">
        <ele>193.6</ele>
        <time>2020-02-23T14:36:44Z</time>
      </trkpt>
      <trkpt lat="39.0777220" lon="1.5135310">
        <ele>193.6</ele>
        <time>2020-02-23T14:36:45Z</time>
      </trkpt>
      <trkpt lat="39.0777220" lon="1.5135300">
        <ele>193.6</ele>
        <time>2020-02-23T14:36:46Z</time>
      </trkpt>
      <trkpt lat="39.0777210" lon="1.5135310">
        <ele>193.6</ele>
        <time>2020-02-23T14:36:47Z</time>
      </trkpt>
      <trkpt lat="39.0777210" lon="1.5135400">
        <ele>193.6</ele>
        <time>2020-02-23T14:36:48Z</time>
      </trkpt>
      <trkpt lat="39.0777220" lon="1.5135490">
        <ele>193.6</ele>
        <time>2020-02-23T14:36:49Z</time>
      </trkpt>
      <trkpt lat="39.0777240" lon="1.5135500">
        <ele>193.6</ele>
        <time>2020-02-23T14:36:50Z</time>
      </trkpt>
      <trkpt lat="39.0777260" lon="1.5135450">
        <ele>193.6</ele>
        <time>2020-02-23T14:36:51Z</time>
      </trkpt>
      <trkpt lat="39.0777270" lon="1.5135380">
        <ele>193.6</ele>
        <time>2020-02-23T14:36:52Z</time>
      </trkpt>
      <trkpt lat="39.0777280" lon="1.5135340">
        <ele>193.6</ele>
        <time>2020-02-23T14:36:53Z</time>
      </trkpt>
      <trkpt lat="39.0777280" lon="1.5135330">
        <ele>193.6</ele>
        <time>2020-02-23T14:36:54Z</time>
      </trkpt>
      <trkpt lat="39.0777290" lon="1.5135330">
        <ele>193.6</ele>
        <time>2020-02-23T14:36:55Z</time>
      </trkpt>
      <trkpt lat="39.0777250" lon="1.5135290">
        <ele>193.6</ele>
        <time>2020-02-23T14:36:56Z</time>
      </trkpt>
      <trkpt lat="39.0777240" lon="1.5135260">
        <ele>193.6</ele>
        <time>2020-02-23T14:36:57Z</time>
      </trkpt>
      <trkpt lat="39.0777220" lon="1.5135200">
        <ele>193.6</ele>
        <time>2020-02-23T14:36:58Z</time>
      </trkpt>
      <trkpt lat="39.0777190" lon="1.5135130">
        <ele>193.6</ele>
        <time>2020-02-23T14:36:59Z</time>
      </trkpt>
      <trkpt lat="39.0777160" lon="1.5135070">
        <ele>193.6</ele>
        <time>2020-02-23T14:37:00Z</time>
      </trkpt>
      <trkpt lat="39.0777150" lon="1.5135010">
        <ele>193.6</ele>
        <time>2020-02-23T14:37:01Z</time>
      </trkpt>
      <trkpt lat="39.0777170" lon="1.5135040">
        <ele>193.6</ele>
        <time>2020-02-23T14:37:02Z</time>
      </trkpt>
      <trkpt lat="39.0777160" lon="1.5135030">
        <ele>193.6</ele>
        <time>2020-02-23T14:37:03Z</time>
      </trkpt>
      <trkpt lat="39.0777140" lon="1.5134960">
        <ele>193.6</ele>
        <time>2020-02-23T14:37:04Z</time>
      </trkpt>
      <trkpt lat="39.0777160" lon="1.5134960">
        <ele>193.6</ele>
        <time>2020-02-23T14:37:05Z</time>
      </trkpt>
      <trkpt lat="39.0777190" lon="1.5134980">
        <ele>193.6</ele>
        <time>2020-02-23T14:37:06Z</time>
      </trkpt>
      <trkpt lat="39.0777240" lon="1.5135070">
        <ele>193.6</ele>
        <time>2020-02-23T14:37:07Z</time>
      </trkpt>
      <trkpt lat="39.0777280" lon="1.5135150">
        <ele>193.6</ele>
        <time>2020-02-23T14:37:08Z</time>
      </trkpt>
      <trkpt lat="39.0777280" lon="1.5135150">
        <ele>193.6</ele>
        <time>2020-02-23T14:37:09Z</time>
      </trkpt>
      <trkpt lat="39.0777280" lon="1.5135160">
        <ele>193.6</ele>
        <time>2020-02-23T14:37:10Z</time>
      </trkpt>
      <trkpt lat="39.0777280" lon="1.5135170">
        <ele>193.6</ele>
        <time>2020-02-23T14:37:11Z</time>
      </trkpt>
      <trkpt lat="39.0777290" lon="1.5135250">
        <ele>193.6</ele>
        <time>2020-02-23T14:37:12Z</time>
      </trkpt>
      <trkpt lat="39.0775870" lon="1.5136110">
        <ele>193.6</ele>
        <time>2020-02-23T14:37:37Z</time>
      </trkpt>
      <trkpt lat="39.0775800" lon="1.5136160">
        <ele>193.6</ele>
        <time>2020-02-23T14:37:38Z</time>
      </trkpt>
      <trkpt lat="39.0775770" lon="1.5136240">
        <ele>193.6</ele>
        <time>2020-02-23T14:37:39Z</time>
      </trkpt>
      <trkpt lat="39.0775740" lon="1.5136310">
        <ele>193.6</ele>
        <time>2020-02-23T14:37:40Z</time>
      </trkpt>
      <trkpt lat="39.0775740" lon="1.5136310">
        <ele>193.6</ele>
        <time>2020-02-23T14:37:41Z</time>
      </trkpt>
      <trkpt lat="39.0775730" lon="1.5136350">
        <ele>193.6</ele>
        <time>2020-02-23T14:37:42Z</time>
      </trkpt>
      <trkpt lat="39.0775780" lon="1.5136340">
        <ele>193.6</ele>
        <time>2020-02-23T14:37:43Z</time>
      </trkpt>
      <trkpt lat="39.0775760" lon="1.5136300">
        <ele>193.6</ele>
        <time>2020-02-23T14:37:44Z</time>
      </trkpt>
      <trkpt lat="39.0775810" lon="1.5136290">
        <ele>193.6</ele>
        <time>2020-02-23T14:37:45Z</time>
      </trkpt>
      <trkpt lat="39.0775820" lon="1.5136280">
        <ele>193.6</ele>
        <time>2020-02-23T14:37:46Z</time>
      </trkpt>
      <trkpt lat="39.0775790" lon="1.5136300">
        <ele>193.6</ele>
        <time>2020-02-23T14:37:47Z</time>
      </trkpt>
      <trkpt lat="39.0775770" lon="1.5136340">
        <ele>193.6</ele>
        <time>2020-02-23T14:37:48Z</time>
      </trkpt>
      <trkpt lat="39.0775750" lon="1.5136390">
        <ele>193.6</ele>
        <time>2020-02-23T14:37:49Z</time>
      </trkpt>
      <trkpt lat="39.0775740" lon="1.5136410">
        <ele>193.6</ele>
        <time>2020-02-23T14:37:50Z</time>
      </trkpt>
      <trkpt lat="39.0775730" lon="1.5136460">
        <ele>193.6</ele>
        <time>2020-02-23T14:37:51Z</time>
      </trkpt>
      <trkpt lat="39.0775870" lon="1.5136480">
        <ele>193.6</ele>
        <time>2020-02-23T14:37:52Z</time>
      </trkpt>
      <trkpt lat="39.0775890" lon="1.5136340">
        <ele>193.6</ele>
        <time>2020-02-23T14:37:53Z</time>
      </trkpt>
      <trkpt lat="39.0776860" lon="1.5136060">
        <ele>193.6</ele>
        <time>2020-02-23T14:40:09Z</time>
      </trkpt>
      <trkpt lat="39.0776900" lon="1.5135920">
        <ele>193.6</ele>
        <time>2020-02-23T14:40:10Z</time>
      </trkpt>
      <trkpt lat="39.0776980" lon="1.5135850">
        <ele>193.6</ele>
        <time>2020-02-23T14:40:11Z</time>
      </trkpt>
      <trkpt lat="39.0777020" lon="1.5135810">
        <ele>193.6</ele>
        <time>2020-02-23T14:40:12Z</time>
      </trkpt>
      <trkpt lat="39.0777050" lon="1.5135740">
        <ele>193.6</ele>
        <time>2020-02-23T14:40:13Z</time>
      </trkpt>
      <trkpt lat="39.0777050" lon="1.5135700">
        <ele>193.6</ele>
        <time>2020-02-23T14:40:14Z</time>
      </trkpt>
      <trkpt lat="39.0777050" lon="1.5135720">
        <ele>193.6</ele>
        <time>2020-02-23T14:40:15Z</time>
      </trkpt>
      <trkpt lat="39.0777040" lon="1.5135790">
        <ele>193.6</ele>
        <time>2020-02-23T14:40:16Z</time>
      </trkpt>
      <trkpt lat="39.0777050" lon="1.5135830">
        <ele>193.6</ele>
        <time>2020-02-23T14:40:17Z</time>
      </trkpt>
      <trkpt lat="39.0777080" lon="1.5135910">
        <ele>193.6</ele>
        <time>2020-02-23T14:40:18Z</time>
      </trkpt>
      <trkpt lat="39.0777130" lon="1.5135880">
        <ele>193.6</ele>
        <time>2020-02-23T14:40:19Z</time>
      </trkpt>
      <trkpt lat="39.0777180" lon="1.5135880">
        <ele>193.6</ele>
        <time>2020-02-23T14:40:20Z</time>
      </trkpt>
      <trkpt lat="39.0777260" lon="1.5135890">
        <ele>193.6</ele>
        <time>2020-02-23T14:40:21Z</time>
      </trkpt>
      <trkpt lat="39.0777260" lon="1.5135870">
        <ele>193.6</ele>
        <time>2020-02-23T14:40:22Z</time>
      </trkpt>
      <trkpt lat="39.0777250" lon="1.5135810">
        <ele>193.6</ele>
        <time>2020-02-23T14:40:23Z</time>
      </trkpt>
      <trkpt lat="39.0777310" lon="1.5135830">
        <ele>193.6</ele>
        <time>2020-02-23T14:40:24Z</time>
      </trkpt>
      <trkpt lat="39.0777280" lon="1.5135870">
        <ele>193.6</ele>
        <time>2020-02-23T14:40:25Z</time>
      </trkpt>
      <trkpt lat="39.0777310" lon="1.5135870">
        <ele>193.5</ele>
        <time>2020-02-23T14:40:26Z</time>
      </trkpt>
      <trkpt lat="39.0777360" lon="1.5135820">
        <ele>193.5</ele>
        <time>2020-02-23T14:40:27Z</time>
      </trkpt>
      <trkpt lat="39.0777370" lon="1.5135800">
        <ele>193.5</ele>
        <time>2020-02-23T14:40:28Z</time>
      </trkpt>
      <trkpt lat="39.0777390" lon="1.5135790">
        <ele>193.5</ele>
        <time>2020-02-23T14:40:29Z</time>
      </trkpt>
      <trkpt lat="39.0777400" lon="1.5135770">
        <ele>193.5</ele>
        <time>2020-02-23T14:40:30Z</time>
      </trkpt>
      <trkpt lat="39.0777390" lon="1.5135800">
        <ele>193.5</ele>
        <time>2020-02-23T14:40:31Z</time>
      </trkpt>
      <trkpt lat="39.0777390" lon="1.5135790">
        <ele>193.5</ele>
        <time>2020-02-23T14:40:32Z</time>
      </trkpt>
      <trkpt lat="39.0777390" lon="1.5135790">
        <ele>193.5</ele>
        <time>2020-02-23T14:40:33Z</time>
      </trkpt>
      <trkpt lat="39.0777340" lon="1.5135710">
        <ele>193.5</ele>
        <time>2020-02-23T14:40:34Z</time>
      </trkpt>
      <trkpt lat="39.0777000" lon="1.5135910">
        <ele>193.5</ele>
        <time>2020-02-23T14:40:43Z</time>
      </trkpt>
      <trkpt lat="39.0777010" lon="1.5135970">
        <ele>193.5</ele>
        <time>2020-02-23T14:40:44Z</time>
      </trkpt>
      <trkpt lat="39.0777010" lon="1.5135990">
        <ele>193.5</ele>
        <time>2020-02-23T14:40:45Z</time>
      </trkpt>
      <trkpt lat="39.0777030" lon="1.5136020">
        <ele>193.5</ele>
        <time>2020-02-23T14:40:46Z</time>
      </trkpt>
      <trkpt lat="39.0777040" lon="1.5136050">
        <ele>193.5</ele>
        <time>2020-02-23T14:40:47Z</time>
      </trkpt>
      <trkpt lat="39.0776970" lon="1.5135940">
        <ele>193.5</ele>
        <time>2020-02-23T14:40:48Z</time>
      </trkpt>
      <trkpt lat="39.0776950" lon="1.5135920">
        <ele>193.5</ele>
        <time>2020-02-23T14:40:49Z</time>
      </trkpt>
      <trkpt lat="39.0776970" lon="1.5135850">
        <ele>193.5</ele>
        <time>2020-02-23T14:40:50Z</time>
      </trkpt>
      <trkpt lat="39.0777000" lon="1.5135760">
        <ele>193.5</ele>
        <time>2020-02-23T14:40:51Z</time>
      </trkpt>
      <trkpt lat="39.0777010" lon="1.5135740">
        <ele>193.5</ele>
        <time>2020-02-23T14:40:52Z</time>
      </trkpt>
      <trkpt lat="39.0776960" lon="1.5135710">
        <ele>193.5</ele>
        <time>2020-02-23T14:40:53Z</time>
      </trkpt>
      <trkpt lat="39.0776950" lon="1.5135660">
        <ele>193.5</ele>
        <time>2020-02-23T14:40:54Z</time>
      </trkpt>
      <trkpt lat="39.0776860" lon="1.5135560">
        <ele>193.5</ele>
        <time>2020-02-23T14:40:55Z</time>
      </trkpt>
      <trkpt lat="39.0776780" lon="1.5135530">
        <ele>193.5</ele>
        <time>2020-02-23T14:40:56Z</time>
      </trkpt>
      <trkpt lat="39.0776730" lon="1.5135510">
        <ele>193.5</ele>
        <time>2020-02-23T14:40:57Z</time>
      </trkpt>
      <trkpt lat="39.0776640" lon="1.5135490">
        <ele>193.5</ele>
        <time>2020-02-23T14:40:58Z</time>
      </trkpt>
      <trkpt lat="39.0776570" lon="1.5135620">
        <ele>193.5</ele>
        <time>2020-02-23T14:40:59Z</time>
      </trkpt>
      <trkpt lat="39.0776490" lon="1.5135670">
        <ele>193.5</ele>
        <time>2020-02-23T14:41:00Z</time>
      </trkpt>
      <trkpt lat="39.0776410" lon="1.5135730">
        <ele>193.5</ele>
        <time>2020-02-23T14:41:01Z</time>
      </trkpt>
      <trkpt lat="39.0776340" lon="1.5135780">
        <ele>193.5</ele>
        <time>2020-02-23T14:41:02Z</time>
      </trkpt>
      <trkpt lat="39.0776280" lon="1.5135820">
        <ele>193.5</ele>
        <time>2020-02-23T14:41:03Z</time>
      </trkpt>
      <trkpt lat="39.0776120" lon="1.5135820">
        <ele>193.5</ele>
        <time>2020-02-23T14:41:04Z</time>
      </trkpt>
      <trkpt lat="39.0776040" lon="1.5135810">
        <ele>193.5</ele>
        <time>2020-02-23T14:41:05Z</time>
      </trkpt>
      <trkpt lat="39.0775970" lon="1.5135790">
        <ele>193.5</ele>
        <time>2020-02-23T14:41:06Z</time>
      </trkpt>
      <trkpt lat="39.0775890" lon="1.5135780">
        <ele>193.5</ele>
        <time>2020-02-23T14:41:07Z</time>
      </trkpt>
      <trkpt lat="39.0775810" lon="1.5135790">
        <ele>193.5</ele>
        <time>2020-02-23T14:41:08Z</time>
      </trkpt>
      <trkpt lat="39.0775710" lon="1.5135780">
        <ele>193.5</ele>
        <time>2020-02-23T14:41:09Z</time>
      </trkpt>
      <trkpt lat="39.0775550" lon="1.5135810">
        <ele>193.5</ele>
        <time>2020-02-23T14:41:10Z</time>
      </trkpt>
      <trkpt lat="39.0775330" lon="1.5135860">
        <ele>193.5</ele>
        <time>2020-02-23T14:41:11Z</time>
      </trkpt>
      <trkpt lat="39.0775230" lon="1.5135890">
        <ele>193.5</ele>
        <time>2020-02-23T14:41:12Z</time>
      </trkpt>
      <trkpt lat="39.0775140" lon="1.5135920">
        <ele>193.5</ele>
        <time>2020-02-23T14:41:13Z</time>
      </trkpt>
      <trkpt lat="39.0775010" lon="1.5136020">
        <ele>193.5</ele>
        <time>2020-02-23T14:41:14Z</time>
      </trkpt>
      <trkpt lat="39.0774950" lon="1.5136030">
        <ele>193.5</ele>
        <time>2020-02-23T14:41:15Z</time>
      </trkpt>
      <trkpt lat="39.0774940" lon="1.5136050">
        <ele>193.5</ele>
        <time>2020-02-23T14:41:16Z</time>
      </trkpt>
      <trkpt lat="39.0775020" lon="1.5136000">
        <ele>193.5</ele>
        <time>2020-02-23T14:41:17Z</time>
      </trkpt>
      <trkpt lat="39.0775070" lon="1.5135960">
        <ele>193.5</ele>
        <time>2020-02-23T14:41:18Z</time>
      </trkpt>
      <trkpt lat="39.0775030" lon="1.5135960">
        <ele>193.5</ele>
        <time>2020-02-23T14:41:19Z</time>
      </trkpt>
      <trkpt lat="39.0774970" lon="1.5135930">
        <ele>193.5</ele>
        <time>2020-02-23T14:41:20Z</time>
      </trkpt>
      <trkpt lat="39.0774970" lon="1.5135900">
        <ele>193.5</ele>
        <time>2020-02-23T14:41:21Z</time>
      </trkpt>
      <trkpt lat="39.0774990" lon="1.5135940">
        <ele>193.5</ele>
        <time>2020-02-23T14:41:22Z</time>
      </trkpt>
      <trkpt lat="39.0774980" lon="1.5135940">
        <ele>193.5</ele>
        <time>2020-02-23T14:41:23Z</time>
      </trkpt>
      <trkpt lat="39.0774940" lon="1.5135980">
        <ele>193.5</ele>
        <time>2020-02-23T14:41:24Z</time>
      </trkpt>
      <trkpt lat="39.0774940" lon="1.5135990">
        <ele>193.5</ele>
        <time>2020-02-23T14:41:25Z</time>
      </trkpt>
      <trkpt lat="39.0774890" lon="1.5135950">
        <ele>193.5</ele>
        <time>2020-02-23T14:41:26Z</time>
      </trkpt>
      <trkpt lat="39.0774900" lon="1.5135950">
        <ele>193.5</ele>
        <time>2020-02-23T14:41:27Z</time>
      </trkpt>
      <trkpt lat="39.0774870" lon="1.5136010">
        <ele>193.5</ele>
        <time>2020-02-23T14:41:28Z</time>
      </trkpt>
      <trkpt lat="39.0774890" lon="1.5136050">
        <ele>193.5</ele>
        <time>2020-02-23T14:41:29Z</time>
      </trkpt>
      <trkpt lat="39.0774850" lon="1.5136070">
        <ele>193.5</ele>
        <time>2020-02-23T14:41:30Z</time>
      </trkpt>
      <trkpt lat="39.0774840" lon="1.5136040">
        <ele>193.5</ele>
        <time>2020-02-23T14:41:31Z</time>
      </trkpt>
      <trkpt lat="39.0774810" lon="1.5136000">
        <ele>193.5</ele>
        <time>2020-02-23T14:41:32Z</time>
      </trkpt>
      <trkpt lat="39.0774790" lon="1.5135990">
        <ele>193.5</ele>
        <time>2020-02-23T14:41:33Z</time>
      </trkpt>
      <trkpt lat="39.0774740" lon="1.5135990">
        <ele>193.5</ele>
        <time>2020-02-23T14:41:34Z</time>
      </trkpt>
      <trkpt lat="39.0774830" lon="1.5136030">
        <ele>193.5</ele>
        <time>2020-02-23T14:41:35Z</time>
      </trkpt>
      <trkpt lat="39.0774950" lon="1.5136060">
        <ele>193.5</ele>
        <time>2020-02-23T14:41:36Z</time>
      </trkpt>
      <trkpt lat="39.0774970" lon="1.5136020">
        <ele>193.5</ele>
        <time>2020-02-23T14:41:37Z</time>
      </trkpt>
      <trkpt lat="39.0774950" lon="1.5136040">
        <ele>193.5</ele>
        <time>2020-02-23T14:41:38Z</time>
      </trkpt>
      <trkpt lat="39.0774990" lon="1.5136050">
        <ele>193.5</ele>
        <time>2020-02-23T14:41:39Z</time>
      </trkpt>
      <trkpt lat="39.0774950" lon="1.5136030">
        <ele>193.5</ele>
        <time>2020-02-23T14:41:40Z</time>
      </trkpt>
      <trkpt lat="39.0775000" lon="1.5135960">
        <ele>193.5</ele>
        <time>2020-02-23T14:41:41Z</time>
      </trkpt>
      <trkpt lat="39.0775020" lon="1.5135900">
        <ele>193.5</ele>
        <time>2020-02-23T14:41:42Z</time>
      </trkpt>
      <trkpt lat="39.0775040" lon="1.5135870">
        <ele>193.5</ele>
        <time>2020-02-23T14:41:43Z</time>
      </trkpt>
      <trkpt lat="39.0775050" lon="1.5135840">
        <ele>193.5</ele>
        <time>2020-02-23T14:41:44Z</time>
      </trkpt>
      <trkpt lat="39.0775070" lon="1.5135950">
        <ele>193.5</ele>
        <time>2020-02-23T14:41:45Z</time>
      </trkpt>
      <trkpt lat="39.0775000" lon="1.5136050">
        <ele>193.5</ele>
        <time>2020-02-23T14:41:46Z</time>
      </trkpt>
      <trkpt lat="39.0774930" lon="1.5136080">
        <ele>193.5</ele>
        <time>2020-02-23T14:41:47Z</time>
      </trkpt>
      <trkpt lat="39.0774930" lon="1.5136100">
        <ele>193.5</ele>
        <time>2020-02-23T14:41:48Z</time>
      </trkpt>
      <trkpt lat="39.0774920" lon="1.5136050">
        <ele>193.5</ele>
        <time>2020-02-23T14:41:49Z</time>
      </trkpt>
      <trkpt lat="39.0774980" lon="1.5136020">
        <ele>193.5</ele>
        <time>2020-02-23T14:41:50Z</time>
      </trkpt>
      <trkpt lat="39.0775010" lon="1.5136070">
        <ele>193.5</ele>
        <time>2020-02-23T14:41:51Z</time>
      </trkpt>
      <trkpt lat="39.0775070" lon="1.5136110">
        <ele>193.5</ele>
        <time>2020-02-23T14:41:52Z</time>
      </trkpt>
      <trkpt lat="39.0775100" lon="1.5136100">
        <ele>193.5</ele>
        <time>2020-02-23T14:41:53Z</time>
      </trkpt>
      <trkpt lat="39.0775100" lon="1.5136130">
        <ele>193.5</ele>
        <time>2020-02-23T14:41:54Z</time>
      </trkpt>
      <trkpt lat="39.0775080" lon="1.5136190">
        <ele>193.5</ele>
        <time>2020-02-23T14:41:55Z</time>
      </trkpt>
      <trkpt lat="39.0775020" lon="1.5136200">
        <ele>193.5</ele>
        <time>2020-02-23T14:41:56Z</time>
      </trkpt>
      <trkpt lat="39.0774950" lon="1.5136170">
        <ele>193.5</ele>
        <time>2020-02-23T14:41:57Z</time>
      </trkpt>
      <trkpt lat="39.0774930" lon="1.5136170">
        <ele>193.5</ele>
        <time>2020-02-23T14:41:58Z</time>
      </trkpt>
      <trkpt lat="39.0774960" lon="1.5136180">
        <ele>193.5</ele>
        <time>2020-02-23T14:41:59Z</time>
      </trkpt>
      <trkpt lat="39.0774970" lon="1.5136190">
        <ele>193.5</ele>
        <time>2020-02-23T14:42:00Z</time>
      </trkpt>
      <trkpt lat="39.0774940" lon="1.5136160">
        <ele>193.5</ele>
        <time>2020-02-23T14:42:01Z</time>
      </trkpt>
      <trkpt lat="39.0774910" lon="1.5136070">
        <ele>193.5</ele>
        <time>2020-02-23T14:42:02Z</time>
      </trkpt>
      <trkpt lat="39.0774880" lon="1.5136070">
        <ele>193.5</ele>
        <time>2020-02-23T14:42:03Z</time>
      </trkpt>
      <trkpt lat="39.0774910" lon="1.5136110">
        <ele>193.4</ele>
        <time>2020-02-23T14:42:04Z</time>
      </trkpt>
      <trkpt lat="39.0774880" lon="1.5136190">
        <ele>193.4</ele>
        <time>2020-02-23T14:42:05Z</time>
      </trkpt>
      <trkpt lat="39.0774760" lon="1.5136250">
        <ele>193.4</ele>
        <time>2020-02-23T14:42:06Z</time>
      </trkpt>
      <trkpt lat="39.0774640" lon="1.5136280">
        <ele>193.4</ele>
        <time>2020-02-23T14:42:07Z</time>
      </trkpt>
      <trkpt lat="39.0774560" lon="1.5136320">
        <ele>193.4</ele>
        <time>2020-02-23T14:42:08Z</time>
      </trkpt>
      <trkpt lat="39.0774510" lon="1.5136310">
        <ele>193.4</ele>
        <time>2020-02-23T14:42:09Z</time>
      </trkpt>
      <trkpt lat="39.0774430" lon="1.5136300">
        <ele>193.4</ele>
        <time>2020-02-23T14:42:10Z</time>
      </trkpt>
      <trkpt lat="39.0774390" lon="1.5136300">
        <ele>193.4</ele>
        <time>2020-02-23T14:42:11Z</time>
      </trkpt>
      <trkpt lat="39.0774400" lon="1.5136240">
        <ele>193.4</ele>
        <time>2020-02-23T14:42:12Z</time>
      </trkpt>
      <trkpt lat="39.0774460" lon="1.5136240">
        <ele>193.4</ele>
        <time>2020-02-23T14:42:13Z</time>
      </trkpt>
      <trkpt lat="39.0774500" lon="1.5136230">
        <ele>193.4</ele>
        <time>2020-02-23T14:42:14Z</time>
      </trkpt>
      <trkpt lat="39.0774530" lon="1.5136220">
        <ele>193.4</ele>
        <time>2020-02-23T14:42:15Z</time>
      </trkpt>
      <trkpt lat="39.0774420" lon="1.5136250">
        <ele>193.4</ele>
        <time>2020-02-23T14:42:16Z</time>
      </trkpt>
      <trkpt lat="39.0774400" lon="1.5136280">
        <ele>193.4</ele>
        <time>2020-02-23T14:42:17Z</time>
      </trkpt>
      <trkpt lat="39.0774420" lon="1.5136290">
        <ele>193.4</ele>
        <time>2020-02-23T14:42:18Z</time>
      </trkpt>
      <trkpt lat="39.0774440" lon="1.5136310">
        <ele>193.4</ele>
        <time>2020-02-23T14:42:19Z</time>
      </trkpt>
      <trkpt lat="39.0774430" lon="1.5136310">
        <ele>193.4</ele>
        <time>2020-02-23T14:42:20Z</time>
      </trkpt>
      <trkpt lat="39.0774430" lon="1.5136310">
        <ele>193.4</ele>
        <time>2020-02-23T14:42:21Z</time>
      </trkpt>
      <trkpt lat="39.0774520" lon="1.5136330">
        <ele>193.4</ele>
        <time>2020-02-23T14:42:22Z</time>
      </trkpt>
      <trkpt lat="39.0774540" lon="1.5136300">
        <ele>193.4</ele>
        <time>2020-02-23T14:42:23Z</time>
      </trkpt>
      <trkpt lat="39.0774540" lon="1.5136270">
        <ele>193.4</ele>
        <time>2020-02-23T14:42:24Z</time>
      </trkpt>
      <trkpt lat="39.0774550" lon="1.5136260">
        <ele>193.4</ele>
        <time>2020-02-23T14:42:25Z</time>
      </trkpt>
      <trkpt lat="39.0774640" lon="1.5136290">
        <ele>193.4</ele>
        <time>2020-02-23T14:42:26Z</time>
      </trkpt>
      <trkpt lat="39.0774660" lon="1.5136240">
        <ele>193.4</ele>
        <time>2020-02-23T14:42:27Z</time>
      </trkpt>
      <trkpt lat="39.0774660" lon="1.5136220">
        <ele>193.4</ele>
        <time>2020-02-23T14:42:28Z</time>
      </trkpt>
      <trkpt lat="39.0774630" lon="1.5136200">
        <ele>193.4</ele>
        <time>2020-02-23T14:42:29Z</time>
      </trkpt>
      <trkpt lat="39.0774620" lon="1.5136240">
        <ele>193.4</ele>
        <time>2020-02-23T14:42:30Z</time>
      </trkpt>
      <trkpt lat="39.0774650" lon="1.5136270">
        <ele>193.4</ele>
        <time>2020-02-23T14:42:31Z</time>
      </trkpt>
      <trkpt lat="39.0774700" lon="1.5136270">
        <ele>193.4</ele>
        <time>2020-02-23T14:42:32Z</time>
      </trkpt>
      <trkpt lat="39.0774800" lon="1.5136280">
        <ele>193.4</ele>
        <time>2020-02-23T14:42:33Z</time>
      </trkpt>
      <trkpt lat="39.0774800" lon="1.5136280">
        <ele>193.4</ele>
        <time>2020-02-23T14:42:34Z</time>
      </trkpt>
      <trkpt lat="39.0774800" lon="1.5136280">
        <ele>193.4</ele>
        <time>2020-02-23T14:42:35Z</time>
      </trkpt>
      <trkpt lat="39.0774810" lon="1.5136300">
        <ele>193.4</ele>
        <time>2020-02-23T14:42:36Z</time>
      </trkpt>
      <trkpt lat="39.0774830" lon="1.5136330">
        <ele>193.4</ele>
        <time>2020-02-23T14:42:37Z</time>
      </trkpt>
      <trkpt lat="39.0774790" lon="1.5136290">
        <ele>193.4</ele>
        <time>2020-02-23T14:42:38Z</time>
      </trkpt>
      <trkpt lat="39.0774780" lon="1.5136290">
        <ele>193.4</ele>
        <time>2020-02-23T14:42:39Z</time>
      </trkpt>
      <trkpt lat="39.0774730" lon="1.5136290">
        <ele>193.4</ele>
        <time>2020-02-23T14:42:40Z</time>
      </trkpt>
      <trkpt lat="39.0774770" lon="1.5136270">
        <ele>193.4</ele>
        <time>2020-02-23T14:42:41Z</time>
      </trkpt>
      <trkpt lat="39.0774770" lon="1.5136270">
        <ele>193.4</ele>
        <time>2020-02-23T14:42:42Z</time>
      </trkpt>
      <trkpt lat="39.0774770" lon="1.5136270">
        <ele>193.4</ele>
        <time>2020-02-23T14:42:43Z</time>
      </trkpt>
      <trkpt lat="39.0774770" lon="1.5136270">
        <ele>193.4</ele>
        <time>2020-02-23T14:42:44Z</time>
      </trkpt>
      <trkpt lat="39.0774770" lon="1.5136270">
        <ele>193.4</ele>
        <time>2020-02-23T14:42:45Z</time>
      </trkpt>
      <trkpt lat="39.0774770" lon="1.5136270">
        <ele>193.4</ele>
        <time>2020-02-23T14:42:46Z</time>
      </trkpt>
      <trkpt lat="39.0774680" lon="1.5136220">
        <ele>193.4</ele>
        <time>2020-02-23T14:42:47Z</time>
      </trkpt>
      <trkpt lat="39.0774670" lon="1.5136180">
        <ele>193.4</ele>
        <time>2020-02-23T14:42:48Z</time>
      </trkpt>
      <trkpt lat="39.0774640" lon="1.5136170">
        <ele>193.4</ele>
        <time>2020-02-23T14:42:49Z</time>
      </trkpt>
      <trkpt lat="39.0774660" lon="1.5136180">
        <ele>193.4</ele>
        <time>2020-02-23T14:42:50Z</time>
      </trkpt>
      <trkpt lat="39.0774650" lon="1.5136180">
        <ele>193.4</ele>
        <time>2020-02-23T14:42:51Z</time>
      </trkpt>
      <trkpt lat="39.0774650" lon="1.5136160">
        <ele>193.4</ele>
        <time>2020-02-23T14:42:52Z</time>
      </trkpt>
      <trkpt lat="39.0773710" lon="1.5137120">
        <ele>193.4</ele>
        <time>2020-02-23T14:43:31Z</time>
      </trkpt>
      <trkpt lat="39.0773660" lon="1.5137120">
        <ele>193.4</ele>
        <time>2020-02-23T14:43:32Z</time>
      </trkpt>
      <trkpt lat="39.0773570" lon="1.5137180">
        <ele>193.4</ele>
        <time>2020-02-23T14:43:33Z</time>
      </trkpt>
      <trkpt lat="39.0773540" lon="1.5137230">
        <ele>193.4</ele>
        <time>2020-02-23T14:43:34Z</time>
      </trkpt>
      <trkpt lat="39.0773560" lon="1.5137230">
        <ele>193.4</ele>
        <time>2020-02-23T14:43:35Z</time>
      </trkpt>
      <trkpt lat="39.0773630" lon="1.5137160">
        <ele>193.4</ele>
        <time>2020-02-23T14:43:36Z</time>
      </trkpt>
      <trkpt lat="39.0773680" lon="1.5137120">
        <ele>193.4</ele>
        <time>2020-02-23T14:43:37Z</time>
      </trkpt>
      <trkpt lat="39.0773660" lon="1.5137100">
        <ele>193.4</ele>
        <time>2020-02-23T14:43:38Z</time>
      </trkpt>
      <trkpt lat="39.0773650" lon="1.5137070">
        <ele>193.4</ele>
        <time>2020-02-23T14:43:39Z</time>
      </trkpt>
      <trkpt lat="39.0773670" lon="1.5137030">
        <ele>193.4</ele>
        <time>2020-02-23T14:43:40Z</time>
      </trkpt>
      <trkpt lat="39.0773810" lon="1.5136930">
        <ele>193.4</ele>
        <time>2020-02-23T14:43:41Z</time>
      </trkpt>
      <trkpt lat="39.0773780" lon="1.5136960">
        <ele>193.4</ele>
        <time>2020-02-23T14:43:42Z</time>
      </trkpt>
      <trkpt lat="39.0773790" lon="1.5136960">
        <ele>193.4</ele>
        <time>2020-02-23T14:43:43Z</time>
      </trkpt>
      <trkpt lat="39.0773800" lon="1.5136960">
        <ele>193.4</ele>
        <time>2020-02-23T14:43:44Z</time>
      </trkpt>
      <trkpt lat="39.0773880" lon="1.5136960">
        <ele>193.4</ele>
        <time>2020-02-23T14:43:45Z</time>
      </trkpt>
      <trkpt lat="39.0773900" lon="1.5136940">
        <ele>193.4</ele>
        <time>2020-02-23T14:43:46Z</time>
      </trkpt>
      <trkpt lat="39.0773960" lon="1.5136920">
        <ele>193.4</ele>
        <time>2020-02-23T14:43:47Z</time>
      </trkpt>
      <trkpt lat="39.0773950" lon="1.5136960">
        <ele>193.4</ele>
        <time>2020-02-23T14:43:48Z</time>
      </trkpt>
      <trkpt lat="39.0773940" lon="1.5136980">
        <ele>193.4</ele>
        <time>2020-02-23T14:43:49Z</time>
      </trkpt>
      <trkpt lat="39.0773880" lon="1.5137120">
        <ele>193.4</ele>
        <time>2020-02-23T14:43:50Z</time>
      </trkpt>
      <trkpt lat="39.0773840" lon="1.5137210">
        <ele>193.4</ele>
        <time>2020-02-23T14:43:51Z</time>
      </trkpt>
      <trkpt lat="39.0773780" lon="1.5137290">
        <ele>193.4</ele>
        <time>2020-02-23T14:43:52Z</time>
      </trkpt>
      <trkpt lat="39.0773750" lon="1.5137360">
        <ele>193.4</ele>
        <time>2020-02-23T14:43:53Z</time>
      </trkpt>
      <trkpt lat="39.0773760" lon="1.5137340">
        <ele>193.4</ele>
        <time>2020-02-23T14:43:54Z</time>
      </trkpt>
      <trkpt lat="39.0773750" lon="1.5137350">
        <ele>193.4</ele>
        <time>2020-02-23T14:43:55Z</time>
      </trkpt>
      <trkpt lat="39.0773750" lon="1.5137350">
        <ele>193.4</ele>
        <time>2020-02-23T14:43:56Z</time>
      </trkpt>
      <trkpt lat="39.0773750" lon="1.5137350">
        <ele>193.4</ele>
        <time>2020-02-23T14:43:57Z</time>
      </trkpt>
      <trkpt lat="39.0773730" lon="1.5137360">
        <ele>193.4</ele>
        <time>2020-02-23T14:43:58Z</time>
      </trkpt>
      <trkpt lat="39.0773710" lon="1.5137360">
        <ele>193.4</ele>
        <time>2020-02-23T14:43:59Z</time>
      </trkpt>
      <trkpt lat="39.0773690" lon="1.5137360">
        <ele>193.4</ele>
        <time>2020-02-23T14:44:00Z</time>
      </trkpt>
      <trkpt lat="39.0773620" lon="1.5137340">
        <ele>193.4</ele>
        <time>2020-02-23T14:44:01Z</time>
      </trkpt>
      <trkpt lat="39.0773560" lon="1.5137290">
        <ele>193.4</ele>
        <time>2020-02-23T14:44:02Z</time>
      </trkpt>
      <trkpt lat="39.0773460" lon="1.5137210">
        <ele>193.3</ele>
        <time>2020-02-23T14:44:03Z</time>
      </trkpt>
      <trkpt lat="39.0773380" lon="1.5137120">
        <ele>193.3</ele>
        <time>2020-02-23T14:44:04Z</time>
      </trkpt>
      <trkpt lat="39.0773290" lon="1.5137080">
        <ele>193.3</ele>
        <time>2020-02-23T14:44:05Z</time>
      </trkpt>
      <trkpt lat="39.0773240" lon="1.5137050">
        <ele>193.3</ele>
        <time>2020-02-23T14:44:06Z</time>
      </trkpt>
      <trkpt lat="39.0773170" lon="1.5137040">
        <ele>193.3</ele>
        <time>2020-02-23T14:44:07Z</time>
      </trkpt>
      <trkpt lat="39.0773140" lon="1.5137050">
        <ele>193.3</ele>
        <time>2020-02-23T14:44:08Z</time>
      </trkpt>
      <trkpt lat="39.0773040" lon="1.5137050">
        <ele>193.3</ele>
        <time>2020-02-23T14:44:09Z</time>
      </trkpt>
      <trkpt lat="39.0773000" lon="1.5137050">
        <ele>193.3</ele>
        <time>2020-02-23T14:44:10Z</time>
      </trkpt>
      <trkpt lat="39.0772970" lon="1.5137030">
        <ele>193.3</ele>
        <time>2020-02-23T14:44:11Z</time>
      </trkpt>
      <trkpt lat="39.0772950" lon="1.5137030">
        <ele>193.3</ele>
        <time>2020-02-23T14:44:12Z</time>
      </trkpt>
      <trkpt lat="39.0773010" lon="1.5137020">
        <ele>193.3</ele>
        <time>2020-02-23T14:44:13Z</time>
      </trkpt>
      <trkpt lat="39.0773080" lon="1.5136990">
        <ele>193.3</ele>
        <time>2020-02-23T14:44:14Z</time>
      </trkpt>
      <trkpt lat="39.0773170" lon="1.5136890">
        <ele>193.3</ele>
        <time>2020-02-23T14:44:15Z</time>
      </trkpt>
      <trkpt lat="39.0773140" lon="1.5136890">
        <ele>193.3</ele>
        <time>2020-02-23T14:44:16Z</time>
      </trkpt>
      <trkpt lat="39.0773150" lon="1.5136890">
        <ele>193.3</ele>
        <time>2020-02-23T14:44:17Z</time>
      </trkpt>
      <trkpt lat="39.0773150" lon="1.5136880">
        <ele>193.3</ele>
        <time>2020-02-23T14:44:18Z</time>
      </trkpt>
      <trkpt lat="39.0773160" lon="1.5136880">
        <ele>193.3</ele>
        <time>2020-02-23T14:44:19Z</time>
      </trkpt>
      <trkpt lat="39.0773170" lon="1.5136880">
        <ele>193.3</ele>
        <time>2020-02-23T14:44:20Z</time>
      </trkpt>
      <trkpt lat="39.0773190" lon="1.5136880">
        <ele>193.3</ele>
        <time>2020-02-23T14:44:21Z</time>
      </trkpt>
      <trkpt lat="39.0773190" lon="1.5136900">
        <ele>193.3</ele>
        <time>2020-02-23T14:44:22Z</time>
      </trkpt>
      <trkpt lat="39.0773190" lon="1.5136900">
        <ele>193.3</ele>
        <time>2020-02-23T14:44:23Z</time>
      </trkpt>
      <trkpt lat="39.0773220" lon="1.5136900">
        <ele>193.3</ele>
        <time>2020-02-23T14:44:24Z</time>
      </trkpt>
      <trkpt lat="39.0773190" lon="1.5136940">
        <ele>193.3</ele>
        <time>2020-02-23T14:44:25Z</time>
      </trkpt>
      <trkpt lat="39.0773160" lon="1.5136960">
        <ele>193.3</ele>
        <time>2020-02-23T14:44:26Z</time>
      </trkpt>
      <trkpt lat="39.0773120" lon="1.5137010">
        <ele>193.3</ele>
        <time>2020-02-23T14:44:27Z</time>
      </trkpt>
      <trkpt lat="39.0773090" lon="1.5137010">
        <ele>193.3</ele>
        <time>2020-02-23T14:44:28Z</time>
      </trkpt>
      <trkpt lat="39.0773040" lon="1.5137030">
        <ele>193.3</ele>
        <time>2020-02-23T14:44:29Z</time>
      </trkpt>
      <trkpt lat="39.0773020" lon="1.5137040">
        <ele>193.3</ele>
        <time>2020-02-23T14:44:30Z</time>
      </trkpt>
      <trkpt lat="39.0772970" lon="1.5137070">
        <ele>193.3</ele>
        <time>2020-02-23T14:44:31Z</time>
      </trkpt>
      <trkpt lat="39.0772920" lon="1.5137070">
        <ele>193.3</ele>
        <time>2020-02-23T14:44:32Z</time>
      </trkpt>
      <trkpt lat="39.0772850" lon="1.5137090">
        <ele>193.3</ele>
        <time>2020-02-23T14:44:33Z</time>
      </trkpt>
      <trkpt lat="39.0772740" lon="1.5137140">
        <ele>193.3</ele>
        <time>2020-02-23T14:44:34Z</time>
      </trkpt>
      <trkpt lat="39.0772690" lon="1.5137150">
        <ele>193.3</ele>
        <time>2020-02-23T14:44:35Z</time>
      </trkpt>
      <trkpt lat="39.0772690" lon="1.5137160">
        <ele>193.3</ele>
        <time>2020-02-23T14:44:36Z</time>
      </trkpt>
      <trkpt lat="39.0772690" lon="1.5137150">
        <ele>193.3</ele>
        <time>2020-02-23T14:44:37Z</time>
      </trkpt>
      <trkpt lat="39.0772720" lon="1.5137130">
        <ele>193.3</ele>
        <time>2020-02-23T14:44:38Z</time>
      </trkpt>
      <trkpt lat="39.0772730" lon="1.5137140">
        <ele>193.3</ele>
        <time>2020-02-23T14:44:39Z</time>
      </trkpt>
      <trkpt lat="39.0772670" lon="1.5137140">
        <ele>193.3</ele>
        <time>2020-02-23T14:44:40Z</time>
      </trkpt>
      <trkpt lat="39.0772670" lon="1.5137140">
        <ele>193.3</ele>
        <time>2020-02-23T14:44:41Z</time>
      </trkpt>
      <trkpt lat="39.0772680" lon="1.5137140">
        <ele>193.3</ele>
        <time>2020-02-23T14:44:42Z</time>
      </trkpt>
      <trkpt lat="39.0772710" lon="1.5137140">
        <ele>193.3</ele>
        <time>2020-02-23T14:44:43Z</time>
      </trkpt>
      <trkpt lat="39.0772790" lon="1.5137120">
        <ele>193.3</ele>
        <time>2020-02-23T14:44:44Z</time>
      </trkpt>
      <trkpt lat="39.0772840" lon="1.5137110">
        <ele>193.3</ele>
        <time>2020-02-23T14:44:45Z</time>
      </trkpt>
      <trkpt lat="39.0772830" lon="1.5137100">
        <ele>193.3</ele>
        <time>2020-02-23T14:44:46Z</time>
      </trkpt>
      <trkpt lat="39.0772840" lon="1.5137090">
        <ele>193.3</ele>
        <time>2020-02-23T14:44:47Z</time>
      </trkpt>
      <trkpt lat="39.0772900" lon="1.5137070">
        <ele>193.3</ele>
        <time>2020-02-23T14:44:48Z</time>
      </trkpt>
      <trkpt lat="39.0772930" lon="1.5137070">
        <ele>193.3</ele>
        <time>2020-02-23T14:44:49Z</time>
      </trkpt>
      <trkpt lat="39.0772900" lon="1.5137040">
        <ele>193.3</ele>
        <time>2020-02-23T14:44:50Z</time>
      </trkpt>
      <trkpt lat="39.0772980" lon="1.5137250">
        <ele>193.3</ele>
        <time>2020-02-23T14:45:05Z</time>
      </trkpt>
      <trkpt lat="39.0772960" lon="1.5137280">
        <ele>193.3</ele>
        <time>2020-02-23T14:45:06Z</time>
      </trkpt>
      <trkpt lat="39.0772990" lon="1.5137290">
        <ele>193.3</ele>
        <time>2020-02-23T14:45:07Z</time>
      </trkpt>
      <trkpt lat="39.0773030" lon="1.5137300">
        <ele>193.3</ele>
        <time>2020-02-23T14:45:08Z</time>
      </trkpt>
      <trkpt lat="39.0773060" lon="1.5137330">
        <ele>193.3</ele>
        <time>2020-02-23T14:45:09Z</time>
      </trkpt>
      <trkpt lat="39.0773100" lon="1.5137340">
        <ele>193.3</ele>
        <time>2020-02-23T14:45:10Z</time>
      </trkpt>
      <trkpt lat="39.0773180" lon="1.5137350">
        <ele>193.3</ele>
        <time>2020-02-23T14:45:11Z</time>
      </trkpt>
      <trkpt lat="39.0773270" lon="1.5137300">
        <ele>193.3</ele>
        <time>2020-02-23T14:45:12Z</time>
      </trkpt>
      <trkpt lat="39.0773420" lon="1.5137260">
        <ele>193.3</ele>
        <time>2020-02-23T14:45:13Z</time>
      </trkpt>
      <trkpt lat="39.0773560" lon="1.5137240">
        <ele>193.3</ele>
        <time>2020-02-23T14:45:14Z</time>
      </trkpt>
      <trkpt lat="39.0773590" lon="1.5137250">
        <ele>193.4</ele>
        <time>2020-02-23T14:45:15Z</time>
      </trkpt>
      <trkpt lat="39.0773560" lon="1.5137200">
        <ele>193.4</ele>
        <time>2020-02-23T14:45:16Z</time>
      </trkpt>
      <trkpt lat="39.0773400" lon="1.5136830">
        <ele>193.4</ele>
        <time>2020-02-23T14:45:24Z</time>
      </trkpt>
      <trkpt lat="39.0773410" lon="1.5136800">
        <ele>193.4</ele>
        <time>2020-02-23T14:45:25Z</time>
      </trkpt>
      <trkpt lat="39.0773430" lon="1.5136800">
        <ele>193.4</ele>
        <time>2020-02-23T14:45:26Z</time>
      </trkpt>
      <trkpt lat="39.0773450" lon="1.5136800">
        <ele>193.4</ele>
        <time>2020-02-23T14:45:27Z</time>
      </trkpt>
      <trkpt lat="39.0773470" lon="1.5136800">
        <ele>193.4</ele>
        <time>2020-02-23T14:45:28Z</time>
      </trkpt>
      <trkpt lat="39.0773510" lon="1.5136800">
        <ele>193.4</ele>
        <time>2020-02-23T14:45:29Z</time>
      </trkpt>
      <trkpt lat="39.0773490" lon="1.5136800">
        <ele>193.4</ele>
        <time>2020-02-23T14:45:30Z</time>
      </trkpt>
      <trkpt lat="39.0773460" lon="1.5136800">
        <ele>193.4</ele>
        <time>2020-02-23T14:45:31Z</time>
      </trkpt>
      <trkpt lat="39.0773400" lon="1.5136800">
        <ele>193.4</ele>
        <time>2020-02-23T14:45:32Z</time>
      </trkpt>
      <trkpt lat="39.0773420" lon="1.5136780">
        <ele>193.4</ele>
        <time>2020-02-23T14:45:33Z</time>
      </trkpt>
      <trkpt lat="39.0773440" lon="1.5136770">
        <ele>193.4</ele>
        <time>2020-02-23T14:45:34Z</time>
      </trkpt>
      <trkpt lat="39.0773440" lon="1.5136790">
        <ele>193.4</ele>
        <time>2020-02-23T14:45:35Z</time>
      </trkpt>
      <trkpt lat="39.0773460" lon="1.5136810">
        <ele>193.4</ele>
        <time>2020-02-23T14:45:36Z</time>
      </trkpt>
      <trkpt lat="39.0773490" lon="1.5136820">
        <ele>193.4</ele>
        <time>2020-02-23T14:45:37Z</time>
      </trkpt>
      <trkpt lat="39.0773510" lon="1.5136790">
        <ele>193.4</ele>
        <time>2020-02-23T14:45:38Z</time>
      </trkpt>
      <trkpt lat="39.0773540" lon="1.5136730">
        <ele>193.4</ele>
        <time>2020-02-23T14:45:39Z</time>
      </trkpt>
      <trkpt lat="39.0773560" lon="1.5136710">
        <ele>193.4</ele>
        <time>2020-02-23T14:45:40Z</time>
      </trkpt>
      <trkpt lat="39.0773580" lon="1.5136690">
        <ele>193.4</ele>
        <time>2020-02-23T14:45:41Z</time>
      </trkpt>
      <trkpt lat="39.0773550" lon="1.5136660">
        <ele>193.4</ele>
        <time>2020-02-23T14:45:42Z</time>
      </trkpt>
      <trkpt lat="39.0773540" lon="1.5136080">
        <ele>193.5</ele>
        <time>2020-02-23T14:45:51Z</time>
      </trkpt>
      <trkpt lat="39.0773590" lon="1.5136100">
        <ele>193.5</ele>
        <time>2020-02-23T14:45:52Z</time>
      </trkpt>
      <trkpt lat="39.0773690" lon="1.5136110">
        <ele>193.5</ele>
        <time>2020-02-23T14:45:53Z</time>
      </trkpt>
      <trkpt lat="39.0773790" lon="1.5136130">
        <ele>193.5</ele>
        <time>2020-02-23T14:45:54Z</time>
      </trkpt>
      <trkpt lat="39.0773820" lon="1.5136150">
        <ele>193.5</ele>
        <time>2020-02-23T14:45:55Z</time>
      </trkpt>
      <trkpt lat="39.0773860" lon="1.5136160">
        <ele>193.5</ele>
        <time>2020-02-23T14:45:56Z</time>
      </trkpt>
      <trkpt lat="39.0773910" lon="1.5136170">
        <ele>193.5</ele>
        <time>2020-02-23T14:45:57Z</time>
      </trkpt>
      <trkpt lat="39.0773940" lon="1.5136190">
        <ele>193.5</ele>
        <time>2020-02-23T14:45:58Z</time>
      </trkpt>
      <trkpt lat="39.0773950" lon="1.5136200">
        <ele>193.5</ele>
        <time>2020-02-23T14:45:59Z</time>
      </trkpt>
      <trkpt lat="39.0773960" lon="1.5136220">
        <ele>193.5</ele>
        <time>2020-02-23T14:46:00Z</time>
      </trkpt>
      <trkpt lat="39.0773970" lon="1.5136210">
        <ele>193.5</ele>
        <time>2020-02-23T14:46:01Z</time>
      </trkpt>
      <trkpt lat="39.0773990" lon="1.5136170">
        <ele>193.5</ele>
        <time>2020-02-23T14:46:02Z</time>
      </trkpt>
      <trkpt lat="39.0778370" lon="1.5135990">
        <ele>193.9</ele>
        <time>2020-02-23T14:52:29Z</time>
      </trkpt>
      <trkpt lat="39.0778370" lon="1.5135990">
        <ele>193.9</ele>
        <time>2020-02-23T14:52:30Z</time>
      </trkpt>
      <trkpt lat="39.0778370" lon="1.5135990">
        <ele>193.9</ele>
        <time>2020-02-23T14:52:31Z</time>
      </trkpt>
      <trkpt lat="39.0778370" lon="1.5135990">
        <ele>193.9</ele>
        <time>2020-02-23T14:52:32Z</time>
      </trkpt>
      <trkpt lat="39.0778370" lon="1.5135990">
        <ele>193.9</ele>
        <time>2020-02-23T14:52:33Z</time>
      </trkpt>
      <trkpt lat="39.0778370" lon="1.5135990">
        <ele>193.9</ele>
        <time>2020-02-23T14:52:34Z</time>
      </trkpt>
      <trkpt lat="39.0778370" lon="1.5135990">
        <ele>193.9</ele>
        <time>2020-02-23T14:52:35Z</time>
      </trkpt>
      <trkpt lat="39.0778370" lon="1.5135990">
        <ele>193.9</ele>
        <time>2020-02-23T14:52:36Z</time>
      </trkpt>
      <trkpt lat="39.0778370" lon="1.5135990">
        <ele>193.9</ele>
        <time>2020-02-23T14:52:37Z</time>
      </trkpt>
      <trkpt lat="39.0778410" lon="1.5135970">
        <ele>193.9</ele>
        <time>2020-02-23T14:52:38Z</time>
      </trkpt>
      <trkpt lat="39.0778400" lon="1.5135870">
        <ele>193.9</ele>
        <time>2020-02-23T14:52:39Z</time>
      </trkpt>
      <trkpt lat="39.0778190" lon="1.5135690">
        <ele>193.9</ele>
        <time>2020-02-23T14:53:25Z</time>
      </trkpt>
      <trkpt lat="39.0778080" lon="1.5135670">
        <ele>193.9</ele>
        <time>2020-02-23T14:53:26Z</time>
      </trkpt>
      <trkpt lat="39.0777980" lon="1.5135670">
        <ele>193.9</ele>
        <time>2020-02-23T14:53:27Z</time>
      </trkpt>
      <trkpt lat="39.0777980" lon="1.5135650">
        <ele>193.9</ele>
        <time>2020-02-23T14:53:28Z</time>
      </trkpt>
      <trkpt lat="39.0777960" lon="1.5135660">
        <ele>193.9</ele>
        <time>2020-02-23T14:53:29Z</time>
      </trkpt>
      <trkpt lat="39.0777990" lon="1.5135620">
        <ele>193.9</ele>
        <time>2020-02-23T14:53:30Z</time>
      </trkpt>
      <trkpt lat="39.0778010" lon="1.5135580">
        <ele>193.9</ele>
        <time>2020-02-23T14:53:31Z</time>
      </trkpt>
      <trkpt lat="39.0778010" lon="1.5135580">
        <ele>193.9</ele>
        <time>2020-02-23T14:53:32Z</time>
      </trkpt>
      <trkpt lat="39.0778010" lon="1.5135580">
        <ele>193.9</ele>
        <time>2020-02-23T14:53:33Z</time>
      </trkpt>
      <trkpt lat="39.0777960" lon="1.5135590">
        <ele>193.9</ele>
        <time>2020-02-23T14:53:34Z</time>
      </trkpt>
      <trkpt lat="39.0777940" lon="1.5135590">
        <ele>193.9</ele>
        <time>2020-02-23T14:53:35Z</time>
      </trkpt>
      <trkpt lat="39.0777940" lon="1.5135580">
        <ele>193.9</ele>
        <time>2020-02-23T14:53:36Z</time>
      </trkpt>
      <trkpt lat="39.0777940" lon="1.5135610">
        <ele>193.9</ele>
        <time>2020-02-23T14:53:37Z</time>
      </trkpt>
      <trkpt lat="39.0777920" lon="1.5135540">
        <ele>193.9</ele>
        <time>2020-02-23T14:53:38Z</time>
      </trkpt>
      <trkpt lat="39.0777920" lon="1.5135510">
        <ele>193.9</ele>
        <time>2020-02-23T14:53:39Z</time>
      </trkpt>
      <trkpt lat="39.0777920" lon="1.5135510">
        <ele>193.9</ele>
        <time>2020-02-23T14:53:40Z</time>
      </trkpt>
      <trkpt lat="39.0777920" lon="1.5135510">
        <ele>193.9</ele>
        <time>2020-02-23T14:53:41Z</time>
      </trkpt>
      <trkpt lat="39.0777920" lon="1.5135510">
        <ele>193.9</ele>
        <time>2020-02-23T14:53:42Z</time>
      </trkpt>
      <trkpt lat="39.0777920" lon="1.5135510">
        <ele>193.9</ele>
        <time>2020-02-23T14:53:43Z</time>
      </trkpt>
      <trkpt lat="39.0777920" lon="1.5135510">
        <ele>193.9</ele>
        <time>2020-02-23T14:53:44Z</time>
      </trkpt>
      <trkpt lat="39.0777920" lon="1.5135510">
        <ele>193.9</ele>
        <time>2020-02-23T14:53:45Z</time>
      </trkpt>
      <trkpt lat="39.0777920" lon="1.5135510">
        <ele>193.9</ele>
        <time>2020-02-23T14:53:46Z</time>
      </trkpt>
      <trkpt lat="39.0778030" lon="1.5135520">
        <ele>194.0</ele>
        <time>2020-02-23T14:53:47Z</time>
      </trkpt>
      <trkpt lat="39.0778180" lon="1.5135520">
        <ele>194.0</ele>
        <time>2020-02-23T14:53:48Z</time>
      </trkpt>
      <trkpt lat="39.0778110" lon="1.5135880">
        <ele>194.0</ele>
        <time>2020-02-23T14:56:07Z</time>
      </trkpt>
      <trkpt lat="39.0778050" lon="1.5135920">
        <ele>194.0</ele>
        <time>2020-02-23T14:56:08Z</time>
      </trkpt>
      <trkpt lat="39.0778050" lon="1.5135920">
        <ele>194.0</ele>
        <time>2020-02-23T14:56:09Z</time>
      </trkpt>
      <trkpt lat="39.0778060" lon="1.5135910">
        <ele>194.0</ele>
        <time>2020-02-23T14:56:10Z</time>
      </trkpt>
      <trkpt lat="39.0778060" lon="1.5135900">
        <ele>194.0</ele>
        <time>2020-02-23T14:56:11Z</time>
      </trkpt>
      <trkpt lat="39.0778070" lon="1.5135920">
        <ele>194.0</ele>
        <time>2020-02-23T14:56:12Z</time>
      </trkpt>
      <trkpt lat="39.0778040" lon="1.5135920">
        <ele>194.0</ele>
        <time>2020-02-23T14:56:13Z</time>
      </trkpt>
      <trkpt lat="39.0778040" lon="1.5135970">
        <ele>194.0</ele>
        <time>2020-02-23T14:56:14Z</time>
      </trkpt>
      <trkpt lat="39.0778040" lon="1.5135960">
        <ele>194.0</ele>
        <time>2020-02-23T14:56:15Z</time>
      </trkpt>
      <trkpt lat="39.0778020" lon="1.5135980">
        <ele>194.0</ele>
        <time>2020-02-23T14:56:16Z</time>
      </trkpt>
      <trkpt lat="39.0778030" lon="1.5135970">
        <ele>194.0</ele>
        <time>2020-02-23T14:56:17Z</time>
      </trkpt>
      <trkpt lat="39.0778080" lon="1.5135950">
        <ele>194.0</ele>
        <time>2020-02-23T14:56:18Z</time>
      </trkpt>
      <trkpt lat="39.0778170" lon="1.5135970">
        <ele>194.0</ele>
        <time>2020-02-23T14:58:11Z</time>
      </trkpt>
      <trkpt lat="39.0778100" lon="1.5135990">
        <ele>194.0</ele>
        <time>2020-02-23T14:58:12Z</time>
      </trkpt>
      <trkpt lat="39.0778090" lon="1.5136030">
        <ele>194.0</ele>
        <time>2020-02-23T14:58:13Z</time>
      </trkpt>
      <trkpt lat="39.0778070" lon="1.5135990">
        <ele>194.0</ele>
        <time>2020-02-23T14:58:14Z</time>
      </trkpt>
      <trkpt lat="39.0778060" lon="1.5135950">
        <ele>194.0</ele>
        <time>2020-02-23T14:58:15Z</time>
      </trkpt>
      <trkpt lat="39.0778080" lon="1.5136050">
        <ele>194.1</ele>
        <time>2020-02-23T14:58:16Z</time>
      </trkpt>
      <trkpt lat="39.0778110" lon="1.5136050">
        <ele>194.1</ele>
        <time>2020-02-23T14:58:17Z</time>
      </trkpt>
      <trkpt lat="39.0778120" lon="1.5136060">
        <ele>194.1</ele>
        <time>2020-02-23T14:58:18Z</time>
      </trkpt>
      <trkpt lat="39.0778110" lon="1.5136090">
        <ele>194.1</ele>
        <time>2020-02-23T14:58:19Z</time>
      </trkpt>
      <trkpt lat="39.0778100" lon="1.5136120">
        <ele>194.1</ele>
        <time>2020-02-23T14:58:20Z</time>
      </trkpt>
      <trkpt lat="39.0778100" lon="1.5136120">
        <ele>194.1</ele>
        <time>2020-02-23T14:58:21Z</time>
      </trkpt>
      <trkpt lat="39.0778130" lon="1.5136150">
        <ele>194.1</ele>
        <time>2020-02-23T14:58:22Z</time>
      </trkpt>
      <trkpt lat="39.0778130" lon="1.5136150">
        <ele>194.1</ele>
        <time>2020-02-23T14:58:23Z</time>
      </trkpt>
      <trkpt lat="39.0778130" lon="1.5136150">
        <ele>194.1</ele>
        <time>2020-02-23T14:58:24Z</time>
      </trkpt>
      <trkpt lat="39.0779890" lon="1.5135780">
        <ele>194.2</ele>
        <time>2020-02-23T15:03:32Z</time>
      </trkpt>
      <trkpt lat="39.0779920" lon="1.5135800">
        <ele>194.2</ele>
        <time>2020-02-23T15:03:33Z</time>
      </trkpt>
      <trkpt lat="39.0780030" lon="1.5135760">
        <ele>194.3</ele>
        <time>2020-02-23T15:03:34Z</time>
      </trkpt>
      <trkpt lat="39.0780030" lon="1.5135760">
        <ele>194.3</ele>
        <time>2020-02-23T15:03:35Z</time>
      </trkpt>
      <trkpt lat="39.0780030" lon="1.5135760">
        <ele>194.3</ele>
        <time>2020-02-23T15:03:36Z</time>
      </trkpt>
      <trkpt lat="39.0780030" lon="1.5135760">
        <ele>194.3</ele>
        <time>2020-02-23T15:03:37Z</time>
      </trkpt>
      <trkpt lat="39.0780030" lon="1.5135760">
        <ele>194.3</ele>
        <time>2020-02-23T15:03:38Z</time>
      </trkpt>
      <trkpt lat="39.0780160" lon="1.5135690">
        <ele>194.3</ele>
        <time>2020-02-23T15:03:39Z</time>
      </trkpt>
      <trkpt lat="39.0780170" lon="1.5135650">
        <ele>194.3</ele>
        <time>2020-02-23T15:03:40Z</time>
      </trkpt>
      <trkpt lat="39.0780220" lon="1.5135660">
        <ele>194.3</ele>
        <time>2020-02-23T15:03:41Z</time>
      </trkpt>
      <trkpt lat="39.0780280" lon="1.5135620">
        <ele>194.3</ele>
        <time>2020-02-23T15:03:42Z</time>
      </trkpt>
      <trkpt lat="39.0780330" lon="1.5135590">
        <ele>194.3</ele>
        <time>2020-02-23T15:03:43Z</time>
      </trkpt>
      <trkpt lat="39.0780340" lon="1.5135580">
        <ele>194.3</ele>
        <time>2020-02-23T15:03:44Z</time>
      </trkpt>
      <trkpt lat="39.0780310" lon="1.5135620">
        <ele>194.3</ele>
        <time>2020-02-23T15:03:45Z</time>
      </trkpt>
      <trkpt lat="39.0780300" lon="1.5135640">
        <ele>194.3</ele>
        <time>2020-02-23T15:03:46Z</time>
      </trkpt>
      <trkpt lat="39.0780330" lon="1.5135650">
        <ele>194.3</ele>
        <time>2020-02-23T15:03:47Z</time>
      </trkpt>
      <trkpt lat="39.0780330" lon="1.5135640">
        <ele>194.3</ele>
        <time>2020-02-23T15:03:48Z</time>
      </trkpt>
      <trkpt lat="39.0780270" lon="1.5135640">
        <ele>194.3</ele>
        <time>2020-02-23T15:03:49Z</time>
      </trkpt>
      <trkpt lat="39.0780200" lon="1.5135620">
        <ele>194.3</ele>
        <time>2020-02-23T15:03:50Z</time>
      </trkpt>
      <trkpt lat="39.0780180" lon="1.5135570">
        <ele>194.3</ele>
        <time>2020-02-23T15:03:51Z</time>
      </trkpt>
      <trkpt lat="39.0780180" lon="1.5135520">
        <ele>194.3</ele>
        <time>2020-02-23T15:03:52Z</time>
      </trkpt>
      <trkpt lat="39.0780200" lon="1.5135420">
        <ele>194.3</ele>
        <time>2020-02-23T15:03:53Z</time>
      </trkpt>
      <trkpt lat="39.0780140" lon="1.5135360">
        <ele>194.3</ele>
        <time>2020-02-23T15:03:54Z</time>
      </trkpt>
      <trkpt lat="39.0780110" lon="1.5135330">
        <ele>194.3</ele>
        <time>2020-02-23T15:03:55Z</time>
      </trkpt>
      <trkpt lat="39.0780090" lon="1.5135270">
        <ele>194.3</ele>
        <time>2020-02-23T15:03:56Z</time>
      </trkpt>
      <trkpt lat="39.0780060" lon="1.5135200">
        <ele>194.3</ele>
        <time>2020-02-23T15:03:57Z</time>
      </trkpt>
      <trkpt lat="39.0780010" lon="1.5135130">
        <ele>194.4</ele>
        <time>2020-02-23T15:03:58Z</time>
      </trkpt>
      <trkpt lat="39.0779950" lon="1.5135090">
        <ele>194.4</ele>
        <time>2020-02-23T15:03:59Z</time>
      </trkpt>
      <trkpt lat="39.0779900" lon="1.5135100">
        <ele>194.4</ele>
        <time>2020-02-23T15:04:00Z</time>
      </trkpt>
      <trkpt lat="39.0779840" lon="1.5135030">
        <ele>194.4</ele>
        <time>2020-02-23T15:04:01Z</time>
      </trkpt>
      <trkpt lat="39.0779790" lon="1.5134950">
        <ele>194.4</ele>
        <time>2020-02-23T15:04:02Z</time>
      </trkpt>
      <trkpt lat="39.0779730" lon="1.5134880">
        <ele>194.4</ele>
        <time>2020-02-23T15:04:03Z</time>
      </trkpt>
      <trkpt lat="39.0779670" lon="1.5134810">
        <ele>194.3</ele>
        <time>2020-02-23T15:04:04Z</time>
      </trkpt>
      <trkpt lat="39.0779620" lon="1.5134740">
        <ele>194.3</ele>
        <time>2020-02-23T15:04:05Z</time>
      </trkpt>
      <trkpt lat="39.0779560" lon="1.5134660">
        <ele>194.2</ele>
        <time>2020-02-23T15:04:06Z</time>
      </trkpt>
      <trkpt lat="39.0779510" lon="1.5134590">
        <ele>194.2</ele>
        <time>2020-02-23T15:04:07Z</time>
      </trkpt>
      <trkpt lat="39.0779450" lon="1.5134520">
        <ele>194.2</ele>
        <time>2020-02-23T15:04:08Z</time>
      </trkpt>
      <trkpt lat="39.0779390" lon="1.5134440">
        <ele>194.1</ele>
        <time>2020-02-23T15:04:09Z</time>
      </trkpt>
      <trkpt lat="39.0779340" lon="1.5134370">
        <ele>194.1</ele>
        <time>2020-02-23T15:04:10Z</time>
      </trkpt>
      <trkpt lat="39.0779280" lon="1.5134300">
        <ele>194.1</ele>
        <time>2020-02-23T15:04:11Z</time>
      </trkpt>
      <trkpt lat="39.0779220" lon="1.5134230">
        <ele>194.0</ele>
        <time>2020-02-23T15:09:37Z</time>
      </trkpt>
      <trkpt lat="39.0779170" lon="1.5134150">
        <ele>194.0</ele>
        <time>2020-02-23T15:09:38Z</time>
      </trkpt>
      <trkpt lat="39.0779110" lon="1.5134080">
        <ele>194.0</ele>
        <time>2020-02-23T15:09:39Z</time>
      </trkpt>
      <trkpt lat="39.0779050" lon="1.5134010">
        <ele>193.9</ele>
        <time>2020-02-23T15:09:40Z</time>
      </trkpt>
      <trkpt lat="39.0779000" lon="1.5133940">
        <ele>193.9</ele>
        <time>2020-02-23T15:09:41Z</time>
      </trkpt>
      <trkpt lat="39.0778940" lon="1.5133860">
        <ele>193.9</ele>
        <time>2020-02-23T15:09:42Z</time>
      </trkpt>
      <trkpt lat="39.0778880" lon="1.5133790">
        <ele>193.8</ele>
        <time>2020-02-23T15:09:43Z</time>
      </trkpt>
      <trkpt lat="39.0778830" lon="1.5133720">
        <ele>193.8</ele>
        <time>2020-02-23T15:09:44Z</time>
      </trkpt>
      <trkpt lat="39.0778770" lon="1.5133640">
        <ele>193.8</ele>
        <time>2020-02-23T15:09:45Z</time>
      </trkpt>
      <trkpt lat="39.0778720" lon="1.5133570">
        <ele>193.7</ele>
        <time>2020-02-23T15:09:46Z</time>
      </trkpt>
      <trkpt lat="39.0778660" lon="1.5133500">
        <ele>193.7</ele>
        <time>2020-02-23T15:09:47Z</time>
      </trkpt>
      <trkpt lat="39.0778600" lon="1.5133430">
        <ele>193.7</ele>
        <time>2020-02-23T15:10:08Z</time>
      </trkpt>
      <trkpt lat="39.0778550" lon="1.5133350">
        <ele>193.6</ele>
        <time>2020-02-23T15:10:09Z</time>
      </trkpt>
      <trkpt lat="39.0778490" lon="1.5133280">
        <ele>193.6</ele>
        <time>2020-02-23T15:10:10Z</time>
      </trkpt>
      <trkpt lat="39.0778410" lon="1.5133120">
        <ele>193.5</ele>
        <time>2020-02-23T15:10:11Z</time>
      </trkpt>
      <trkpt lat="39.0778450" lon="1.5132890">
        <ele>193.4</ele>
        <time>2020-02-23T15:10:12Z</time>
      </trkpt>
      <trkpt lat="39.0778220" lon="1.5132560">
        <ele>193.3</ele>
        <time>2020-02-23T15:10:13Z</time>
      </trkpt>
      <trkpt lat="39.0778090" lon="1.5132420">
        <ele>193.2</ele>
        <time>2020-02-23T15:10:14Z</time>
      </trkpt>
      <trkpt lat="39.0777850" lon="1.5132250">
        <ele>193.1</ele>
        <time>2020-02-23T15:10:15Z</time>
      </trkpt>
      <trkpt lat="39.0777550" lon="1.5132040">
        <ele>193.0</ele>
        <time>2020-02-23T15:10:16Z</time>
      </trkpt>
      <trkpt lat="39.0777450" lon="1.5131980">
        <ele>192.9</ele>
        <time>2020-02-23T15:10:17Z</time>
      </trkpt>
      <trkpt lat="39.0777180" lon="1.5131720">
        <ele>192.8</ele>
        <time>2020-02-23T15:10:18Z</time>
      </trkpt>
      <trkpt lat="39.0777100" lon="1.5131630">
        <ele>192.7</ele>
        <time>2020-02-23T15:10:19Z</time>
      </trkpt>
      <trkpt lat="39.0776980" lon="1.5131200">
        <ele>192.6</ele>
        <time>2020-02-23T15:10:20Z</time>
      </trkpt>
      <trkpt lat="39.0776950" lon="1.5131060">
        <ele>192.6</ele>
        <time>2020-02-23T15:10:21Z</time>
      </trkpt>
      <trkpt lat="39.0776860" lon="1.5130570">
        <ele>192.4</ele>
        <time>2020-02-23T15:10:22Z</time>
      </trkpt>
      <trkpt lat="39.0776800" lon="1.5130380">
        <ele>192.3</ele>
        <time>2020-02-23T15:10:23Z</time>
      </trkpt>
      <trkpt lat="39.0776680" lon="1.5130050">
        <ele>192.2</ele>
        <time>2020-02-23T15:10:24Z</time>
      </trkpt>
      <trkpt lat="39.0776590" lon="1.5129710">
        <ele>192.0</ele>
        <time>2020-02-23T15:10:25Z</time>
      </trkpt>
      <trkpt lat="39.0776470" lon="1.5129290">
        <ele>191.9</ele>
        <time>2020-02-23T15:10:26Z</time>
      </trkpt>
      <trkpt lat="39.0776420" lon="1.5129160">
        <ele>191.9</ele>
        <time>2020-02-23T15:10:27Z</time>
      </trkpt>
      <trkpt lat="39.0776290" lon="1.5128810">
        <ele>191.8</ele>
        <time>2020-02-23T15:10:28Z</time>
      </trkpt>
      <trkpt lat="39.0776240" lon="1.5128710">
        <ele>191.8</ele>
        <time>2020-02-23T15:10:29Z</time>
      </trkpt>
      <trkpt lat="39.0776050" lon="1.5128410">
        <ele>191.6</ele>
        <time>2020-02-23T15:10:30Z</time>
      </trkpt>
      <trkpt lat="39.0776000" lon="1.5128310">
        <ele>191.6</ele>
        <time>2020-02-23T15:10:31Z</time>
      </trkpt>
      <trkpt lat="39.0775830" lon="1.5127920">
        <ele>191.4</ele>
        <time>2020-02-23T15:10:32Z</time>
      </trkpt>
      <trkpt lat="39.0775740" lon="1.5127780">
        <ele>191.4</ele>
        <time>2020-02-23T15:10:33Z</time>
      </trkpt>
      <trkpt lat="39.0775600" lon="1.5127440">
        <ele>191.2</ele>
        <time>2020-02-23T15:10:34Z</time>
      </trkpt>
      <trkpt lat="39.0775490" lon="1.5127070">
        <ele>191.1</ele>
        <time>2020-02-23T15:10:35Z</time>
      </trkpt>
      <trkpt lat="39.0775340" lon="1.5126690">
        <ele>191.0</ele>
        <time>2020-02-23T15:10:36Z</time>
      </trkpt>
      <trkpt lat="39.0775240" lon="1.5126280">
        <ele>190.8</ele>
        <time>2020-02-23T15:10:37Z</time>
      </trkpt>
      <trkpt lat="39.0775070" lon="1.5125820">
        <ele>190.6</ele>
        <time>2020-02-23T15:10:38Z</time>
      </trkpt>
      <trkpt lat="39.0774910" lon="1.5125370">
        <ele>190.5</ele>
        <time>2020-02-23T15:10:39Z</time>
      </trkpt>
      <trkpt lat="39.0774810" lon="1.5124860">
        <ele>190.3</ele>
        <time>2020-02-23T15:10:40Z</time>
      </trkpt>
      <trkpt lat="39.0774740" lon="1.5124300">
        <ele>190.1</ele>
        <time>2020-02-23T15:10:41Z</time>
      </trkpt>
      <trkpt lat="39.0774700" lon="1.5123650">
        <ele>190.0</ele>
        <time>2020-02-23T15:10:42Z</time>
      </trkpt>
      <trkpt lat="39.0774690" lon="1.5122990">
        <ele>189.9</ele>
        <time>2020-02-23T15:10:43Z</time>
      </trkpt>
      <trkpt lat="39.0774710" lon="1.5122300">
        <ele>189.7</ele>
        <time>2020-02-23T15:10:44Z</time>
      </trkpt>
      <trkpt lat="39.0774710" lon="1.5121640">
        <ele>189.6</ele>
        <time>2020-02-23T15:10:45Z</time>
      </trkpt>
      <trkpt lat="39.0774720" lon="1.5120960">
        <ele>189.5</ele>
        <time>2020-02-23T15:10:46Z</time>
      </trkpt>
      <trkpt lat="39.0774730" lon="1.5120280">
        <ele>189.3</ele>
        <time>2020-02-23T15:10:47Z</time>
      </trkpt>
      <trkpt lat="39.0774760" lon="1.5119480">
        <ele>189.1</ele>
        <time>2020-02-23T15:10:48Z</time>
      </trkpt>
      <trkpt lat="39.0774780" lon="1.5118770">
        <ele>188.9</ele>
        <time>2020-02-23T15:10:49Z</time>
      </trkpt>
      <trkpt lat="39.0774820" lon="1.5118090">
        <ele>188.7</ele>
        <time>2020-02-23T15:10:50Z</time>
      </trkpt>
      <trkpt lat="39.0774870" lon="1.5117380">
        <ele>188.4</ele>
        <time>2020-02-23T15:10:51Z</time>
      </trkpt>
      <trkpt lat="39.0774920" lon="1.5116680">
        <ele>188.1</ele>
        <time>2020-02-23T15:10:52Z</time>
      </trkpt>
      <trkpt lat="39.0775020" lon="1.5115990">
        <ele>187.9</ele>
        <time>2020-02-23T15:10:53Z</time>
      </trkpt>
      <trkpt lat="39.0775210" lon="1.5115100">
        <ele>187.6</ele>
        <time>2020-02-23T15:10:54Z</time>
      </trkpt>
      <trkpt lat="39.0775310" lon="1.5114450">
        <ele>187.4</ele>
        <time>2020-02-23T15:10:55Z</time>
      </trkpt>
      <trkpt lat="39.0775400" lon="1.5113730">
        <ele>187.3</ele>
        <time>2020-02-23T15:10:56Z</time>
      </trkpt>
      <trkpt lat="39.0775440" lon="1.5112980">
        <ele>187.2</ele>
        <time>2020-02-23T15:10:57Z</time>
      </trkpt>
      <trkpt lat="39.0775510" lon="1.5112180">
        <ele>187.0</ele>
        <time>2020-02-23T15:10:58Z</time>
      </trkpt>
      <trkpt lat="39.0775550" lon="1.5111410">
        <ele>186.9</ele>
        <time>2020-02-23T15:10:59Z</time>
      </trkpt>
      <trkpt lat="39.0775580" lon="1.5110670">
        <ele>186.7</ele>
        <time>2020-02-23T15:11:00Z</time>
      </trkpt>
      <trkpt lat="39.0775570" lon="1.5109940">
        <ele>186.5</ele>
        <time>2020-02-23T15:11:01Z</time>
      </trkpt>
      <trkpt lat="39.0775560" lon="1.5109350">
        <ele>186.4</ele>
        <time>2020-02-23T15:11:02Z</time>
      </trkpt>
      <trkpt lat="39.0775540" lon="1.5108660">
        <ele>186.3</ele>
        <time>2020-02-23T15:11:03Z</time>
      </trkpt>
      <trkpt lat="39.0775500" lon="1.5107840">
        <ele>186.1</ele>
        <time>2020-02-23T15:11:04Z</time>
      </trkpt>
      <trkpt lat="39.0775520" lon="1.5107040">
        <ele>185.9</ele>
        <time>2020-02-23T15:11:05Z</time>
      </trkpt>
      <trkpt lat="39.0775530" lon="1.5106240">
        <ele>185.8</ele>
        <time>2020-02-23T15:11:06Z</time>
      </trkpt>
      <trkpt lat="39.0775580" lon="1.5105490">
        <ele>185.5</ele>
        <time>2020-02-23T15:11:07Z</time>
      </trkpt>
      <trkpt lat="39.0775470" lon="1.5104590">
        <ele>185.3</ele>
        <time>2020-02-23T15:11:08Z</time>
      </trkpt>
      <trkpt lat="39.0775300" lon="1.5103760">
        <ele>185.0</ele>
        <time>2020-02-23T15:11:09Z</time>
      </trkpt>
      <trkpt lat="39.0775100" lon="1.5103020">
        <ele>184.8</ele>
        <time>2020-02-23T15:11:10Z</time>
      </trkpt>
      <trkpt lat="39.0774890" lon="1.5102240">
        <ele>184.6</ele>
        <time>2020-02-23T15:11:11Z</time>
      </trkpt>
      <trkpt lat="39.0774690" lon="1.5101400">
        <ele>184.3</ele>
        <time>2020-02-23T15:11:12Z</time>
      </trkpt>
      <trkpt lat="39.0774470" lon="1.5100660">
        <ele>184.1</ele>
        <time>2020-02-23T15:11:13Z</time>
      </trkpt>
      <trkpt lat="39.0774220" lon="1.5099880">
        <ele>183.9</ele>
        <time>2020-02-23T15:11:14Z</time>
      </trkpt>
      <trkpt lat="39.0773950" lon="1.5099160">
        <ele>183.7</ele>
        <time>2020-02-23T15:11:15Z</time>
      </trkpt>
      <trkpt lat="39.0773600" lon="1.5098400">
        <ele>183.5</ele>
        <time>2020-02-23T15:11:16Z</time>
      </trkpt>
      <trkpt lat="39.0773250" lon="1.5097780">
        <ele>183.2</ele>
        <time>2020-02-23T15:11:17Z</time>
      </trkpt>
      <trkpt lat="39.0772880" lon="1.5097230">
        <ele>183.0</ele>
        <time>2020-02-23T15:11:18Z</time>
      </trkpt>
      <trkpt lat="39.0772520" lon="1.5096570">
        <ele>182.8</ele>
        <time>2020-02-23T15:11:19Z</time>
      </trkpt>
      <trkpt lat="39.0772160" lon="1.5095890">
        <ele>182.6</ele>
        <time>2020-02-23T15:11:20Z</time>
      </trkpt>
      <trkpt lat="39.0771730" lon="1.5095140">
        <ele>182.3</ele>
        <time>2020-02-23T15:11:21Z</time>
      </trkpt>
      <trkpt lat="39.0771280" lon="1.5094400">
        <ele>182.0</ele>
        <time>2020-02-23T15:11:22Z</time>
      </trkpt>
      <trkpt lat="39.0770850" lon="1.5093700">
        <ele>181.7</ele>
        <time>2020-02-23T15:11:23Z</time>
      </trkpt>
      <trkpt lat="39.0770400" lon="1.5093060">
        <ele>181.4</ele>
        <time>2020-02-23T15:11:24Z</time>
      </trkpt>
      <trkpt lat="39.0769960" lon="1.5092380">
        <ele>181.0</ele>
        <time>2020-02-23T15:11:25Z</time>
      </trkpt>
      <trkpt lat="39.0769540" lon="1.5091750">
        <ele>180.6</ele>
        <time>2020-02-23T15:11:26Z</time>
      </trkpt>
      <trkpt lat="39.0769100" lon="1.5091020">
        <ele>180.1</ele>
        <time>2020-02-23T15:11:27Z</time>
      </trkpt>
      <trkpt lat="39.0768640" lon="1.5090300">
        <ele>179.9</ele>
        <time>2020-02-23T15:11:28Z</time>
      </trkpt>
      <trkpt lat="39.0768200" lon="1.5089620">
        <ele>179.8</ele>
        <time>2020-02-23T15:11:29Z</time>
      </trkpt>
      <trkpt lat="39.0767780" lon="1.5088950">
        <ele>179.6</ele>
        <time>2020-02-23T15:11:30Z</time>
      </trkpt>
      <trkpt lat="39.0767340" lon="1.5088300">
        <ele>179.5</ele>
        <time>2020-02-23T15:11:31Z</time>
      </trkpt>
      <trkpt lat="39.0766840" lon="1.5087640">
        <ele>179.3</ele>
        <time>2020-02-23T15:11:32Z</time>
      </trkpt>
      <trkpt lat="39.0766380" lon="1.5086990">
        <ele>179.1</ele>
        <time>2020-02-23T15:11:33Z</time>
      </trkpt>
      <trkpt lat="39.0765870" lon="1.5086300">
        <ele>178.9</ele>
        <time>2020-02-23T15:11:34Z</time>
      </trkpt>
      <trkpt lat="39.0765350" lon="1.5085580">
        <ele>178.8</ele>
        <time>2020-02-23T15:11:35Z</time>
      </trkpt>
      <trkpt lat="39.0764860" lon="1.5084860">
        <ele>178.6</ele>
        <time>2020-02-23T15:11:36Z</time>
      </trkpt>
      <trkpt lat="39.0764360" lon="1.5084110">
        <ele>178.5</ele>
        <time>2020-02-23T15:11:37Z</time>
      </trkpt>
      <trkpt lat="39.0763880" lon="1.5083390">
        <ele>178.3</ele>
        <time>2020-02-23T15:11:38Z</time>
      </trkpt>
      <trkpt lat="39.0763330" lon="1.5082610">
        <ele>178.1</ele>
        <time>2020-02-23T15:11:39Z</time>
      </trkpt>
      <trkpt lat="39.0762780" lon="1.5081820">
        <ele>178.0</ele>
        <time>2020-02-23T15:11:40Z</time>
      </trkpt>
      <trkpt lat="39.0762230" lon="1.5081030">
        <ele>177.9</ele>
        <time>2020-02-23T15:11:41Z</time>
      </trkpt>
      <trkpt lat="39.0761690" lon="1.5080240">
        <ele>177.7</ele>
        <time>2020-02-23T15:11:42Z</time>
      </trkpt>
      <trkpt lat="39.0761180" lon="1.5079440">
        <ele>177.6</ele>
        <time>2020-02-23T15:11:43Z</time>
      </trkpt>
      <trkpt lat="39.0760650" lon="1.5078680">
        <ele>177.4</ele>
        <time>2020-02-23T15:11:44Z</time>
      </trkpt>
      <trkpt lat="39.0760210" lon="1.5077880">
        <ele>177.2</ele>
        <time>2020-02-23T15:11:45Z</time>
      </trkpt>
      <trkpt lat="39.0759730" lon="1.5077090">
        <ele>177.0</ele>
        <time>2020-02-23T15:11:46Z</time>
      </trkpt>
      <trkpt lat="39.0759280" lon="1.5076250">
        <ele>176.7</ele>
        <time>2020-02-23T15:11:47Z</time>
      </trkpt>
      <trkpt lat="39.0758940" lon="1.5075360">
        <ele>176.5</ele>
        <time>2020-02-23T15:11:48Z</time>
      </trkpt>
      <trkpt lat="39.0758590" lon="1.5074490">
        <ele>176.4</ele>
        <time>2020-02-23T15:11:49Z</time>
      </trkpt>
      <trkpt lat="39.0758370" lon="1.5073540">
        <ele>176.2</ele>
        <time>2020-02-23T15:11:50Z</time>
      </trkpt>
      <trkpt lat="39.0758150" lon="1.5072540">
        <ele>176.1</ele>
        <time>2020-02-23T15:11:51Z</time>
      </trkpt>
      <trkpt lat="39.0757900" lon="1.5071570">
        <ele>176.2</ele>
        <time>2020-02-23T15:11:52Z</time>
      </trkpt>
      <trkpt lat="39.0757680" lon="1.5070580">
        <ele>176.3</ele>
        <time>2020-02-23T15:11:53Z</time>
      </trkpt>
      <trkpt lat="39.0757570" lon="1.5069590">
        <ele>176.3</ele>
        <time>2020-02-23T15:11:54Z</time>
      </trkpt>
      <trkpt lat="39.0757480" lon="1.5068590">
        <ele>176.4</ele>
        <time>2020-02-23T15:11:55Z</time>
      </trkpt>
      <trkpt lat="39.0757410" lon="1.5067600">
        <ele>176.5</ele>
        <time>2020-02-23T15:11:56Z</time>
      </trkpt>
      <trkpt lat="39.0757310" lon="1.5066620">
        <ele>176.6</ele>
        <time>2020-02-23T15:11:57Z</time>
      </trkpt>
      <trkpt lat="39.0757200" lon="1.5065650">
        <ele>176.7</ele>
        <time>2020-02-23T15:11:58Z</time>
      </trkpt>
      <trkpt lat="39.0757120" lon="1.5064680">
        <ele>176.8</ele>
        <time>2020-02-23T15:11:59Z</time>
      </trkpt>
      <trkpt lat="39.0757030" lon="1.5063720">
        <ele>176.9</ele>
        <time>2020-02-23T15:12:00Z</time>
      </trkpt>
      <trkpt lat="39.0756970" lon="1.5062740">
        <ele>177.1</ele>
        <time>2020-02-23T15:12:01Z</time>
      </trkpt>
      <trkpt lat="39.0756970" lon="1.5061780">
        <ele>174.0</ele>
        <time>2020-02-23T15:12:02Z</time>
      </trkpt>
      <trkpt lat="39.0757060" lon="1.5060840">
        <ele>174.9</ele>
        <time>2020-02-23T15:12:03Z</time>
      </trkpt>
      <trkpt lat="39.0757170" lon="1.5059870">
        <ele>174.4</ele>
        <time>2020-02-23T15:12:04Z</time>
      </trkpt>
      <trkpt lat="39.0757070" lon="1.5058930">
        <ele>174.1</ele>
        <time>2020-02-23T15:12:05Z</time>
      </trkpt>
      <trkpt lat="39.0756900" lon="1.5058030">
        <ele>173.8</ele>
        <time>2020-02-23T15:12:06Z</time>
      </trkpt>
      <trkpt lat="39.0756790" lon="1.5057120">
        <ele>173.6</ele>
        <time>2020-02-23T15:12:07Z</time>
      </trkpt>
      <trkpt lat="39.0756720" lon="1.5056190">
        <ele>173.3</ele>
        <time>2020-02-23T15:12:08Z</time>
      </trkpt>
      <trkpt lat="39.0756860" lon="1.5055210">
        <ele>173.0</ele>
        <time>2020-02-23T15:12:09Z</time>
      </trkpt>
      <trkpt lat="39.0756960" lon="1.5054190">
        <ele>172.8</ele>
        <time>2020-02-23T15:12:10Z</time>
      </trkpt>
      <trkpt lat="39.0757000" lon="1.5053160">
        <ele>172.6</ele>
        <time>2020-02-23T15:12:11Z</time>
      </trkpt>
      <trkpt lat="39.0757070" lon="1.5052120">
        <ele>172.4</ele>
        <time>2020-02-23T15:12:12Z</time>
      </trkpt>
      <trkpt lat="39.0757160" lon="1.5051070">
        <ele>172.3</ele>
        <time>2020-02-23T15:12:13Z</time>
      </trkpt>
      <trkpt lat="39.0757230" lon="1.5050020">
        <ele>172.1</ele>
        <time>2020-02-23T15:12:14Z</time>
      </trkpt>
      <trkpt lat="39.0757300" lon="1.5048970">
        <ele>171.9</ele>
        <time>2020-02-23T15:12:15Z</time>
      </trkpt>
      <trkpt lat="39.0757410" lon="1.5047940">
        <ele>171.6</ele>
        <time>2020-02-23T15:12:16Z</time>
      </trkpt>
      <trkpt lat="39.0757550" lon="1.5046890">
        <ele>171.3</ele>
        <time>2020-02-23T15:12:17Z</time>
      </trkpt>
      <trkpt lat="39.0757720" lon="1.5045840">
        <ele>171.0</ele>
        <time>2020-02-23T15:12:18Z</time>
      </trkpt>
      <trkpt lat="39.0757800" lon="1.5044770">
        <ele>170.8</ele>
        <time>2020-02-23T15:12:19Z</time>
      </trkpt>
      <trkpt lat="39.0758000" lon="1.5043720">
        <ele>170.4</ele>
        <time>2020-02-23T15:12:20Z</time>
      </trkpt>
      <trkpt lat="39.0758220" lon="1.5042680">
        <ele>170.1</ele>
        <time>2020-02-23T15:12:21Z</time>
      </trkpt>
      <trkpt lat="39.0758390" lon="1.5041630">
        <ele>169.0</ele>
        <time>2020-02-23T15:12:22Z</time>
      </trkpt>
      <trkpt lat="39.0758540" lon="1.5040550">
        <ele>168.4</ele>
        <time>2020-02-23T15:12:23Z</time>
      </trkpt>
      <trkpt lat="39.0758690" lon="1.5039490">
        <ele>167.8</ele>
        <time>2020-02-23T15:12:24Z</time>
      </trkpt>
      <trkpt lat="39.0758810" lon="1.5038430">
        <ele>167.2</ele>
        <time>2020-02-23T15:12:25Z</time>
      </trkpt>
      <trkpt lat="39.0758930" lon="1.5037370">
        <ele>166.4</ele>
        <time>2020-02-23T15:12:26Z</time>
      </trkpt>
      <trkpt lat="39.0758960" lon="1.5036290">
        <ele>165.5</ele>
        <time>2020-02-23T15:12:27Z</time>
      </trkpt>
      <trkpt lat="39.0759000" lon="1.5035220">
        <ele>164.7</ele>
        <time>2020-02-23T15:12:28Z</time>
      </trkpt>
      <trkpt lat="39.0759060" lon="1.5034150">
        <ele>163.9</ele>
        <time>2020-02-23T15:12:29Z</time>
      </trkpt>
      <trkpt lat="39.0759020" lon="1.5033110">
        <ele>163.5</ele>
        <time>2020-02-23T15:12:30Z</time>
      </trkpt>
      <trkpt lat="39.0759000" lon="1.5032080">
        <ele>163.0</ele>
        <time>2020-02-23T15:12:31Z</time>
      </trkpt>
      <trkpt lat="39.0759050" lon="1.5031050">
        <ele>162.5</ele>
        <time>2020-02-23T15:12:32Z</time>
      </trkpt>
      <trkpt lat="39.0759100" lon="1.5030020">
        <ele>161.9</ele>
        <time>2020-02-23T15:12:33Z</time>
      </trkpt>
      <trkpt lat="39.0759000" lon="1.5029000">
        <ele>161.3</ele>
        <time>2020-02-23T15:12:34Z</time>
      </trkpt>
      <trkpt lat="39.0758920" lon="1.5027980">
        <ele>160.9</ele>
        <time>2020-02-23T15:12:35Z</time>
      </trkpt>
      <trkpt lat="39.0758810" lon="1.5027010">
        <ele>160.7</ele>
        <time>2020-02-23T15:12:36Z</time>
      </trkpt>
      <trkpt lat="39.0758700" lon="1.5026060">
        <ele>160.4</ele>
        <time>2020-02-23T15:12:37Z</time>
      </trkpt>
      <trkpt lat="39.0758650" lon="1.5025110">
        <ele>160.2</ele>
        <time>2020-02-23T15:12:38Z</time>
      </trkpt>
      <trkpt lat="39.0758500" lon="1.5024200">
        <ele>159.9</ele>
        <time>2020-02-23T15:12:39Z</time>
      </trkpt>
      <trkpt lat="39.0758340" lon="1.5023290">
        <ele>159.7</ele>
        <time>2020-02-23T15:12:40Z</time>
      </trkpt>
      <trkpt lat="39.0758190" lon="1.5022400">
        <ele>159.4</ele>
        <time>2020-02-23T15:12:41Z</time>
      </trkpt>
      <trkpt lat="39.0758020" lon="1.5021540">
        <ele>159.2</ele>
        <time>2020-02-23T15:12:42Z</time>
      </trkpt>
      <trkpt lat="39.0757870" lon="1.5020680">
        <ele>159.0</ele>
        <time>2020-02-23T15:12:43Z</time>
      </trkpt>
      <trkpt lat="39.0757710" lon="1.5019890">
        <ele>158.8</ele>
        <time>2020-02-23T15:12:44Z</time>
      </trkpt>
      <trkpt lat="39.0757540" lon="1.5019210">
        <ele>158.7</ele>
        <time>2020-02-23T15:12:45Z</time>
      </trkpt>
      <trkpt lat="39.0757420" lon="1.5018620">
        <ele>158.5</ele>
        <time>2020-02-23T15:12:46Z</time>
      </trkpt>
      <trkpt lat="39.0757330" lon="1.5018340">
        <ele>158.4</ele>
        <time>2020-02-23T15:12:47Z</time>
      </trkpt>
      <trkpt lat="39.0757260" lon="1.5018340">
        <ele>158.4</ele>
        <time>2020-02-23T15:12:48Z</time>
      </trkpt>
      <trkpt lat="39.0757300" lon="1.5018380">
        <ele>158.4</ele>
        <time>2020-02-23T15:12:49Z</time>
      </trkpt>
      <trkpt lat="39.0757290" lon="1.5018380">
        <ele>158.4</ele>
        <time>2020-02-23T15:12:50Z</time>
      </trkpt>
      <trkpt lat="39.0757320" lon="1.5018360">
        <ele>158.4</ele>
        <time>2020-02-23T15:12:51Z</time>
      </trkpt>
      <trkpt lat="39.0757390" lon="1.5018340">
        <ele>158.4</ele>
        <time>2020-02-23T15:12:52Z</time>
      </trkpt>
      <trkpt lat="39.0757440" lon="1.5018320">
        <ele>158.3</ele>
        <time>2020-02-23T15:12:53Z</time>
      </trkpt>
      <trkpt lat="39.0757470" lon="1.5018300">
        <ele>158.3</ele>
        <time>2020-02-23T15:12:54Z</time>
      </trkpt>
      <trkpt lat="39.0757470" lon="1.5018300">
        <ele>158.3</ele>
        <time>2020-02-23T15:12:55Z</time>
      </trkpt>
      <trkpt lat="39.0757450" lon="1.5018300">
        <ele>158.3</ele>
        <time>2020-02-23T15:12:56Z</time>
      </trkpt>
      <trkpt lat="39.0757490" lon="1.5018300">
        <ele>158.3</ele>
        <time>2020-02-23T15:12:57Z</time>
      </trkpt>
      <trkpt lat="39.0756880" lon="1.5017810">
        <ele>158.1</ele>
        <time>2020-02-23T15:15:18Z</time>
      </trkpt>
      <trkpt lat="39.0756790" lon="1.5017620">
        <ele>158.0</ele>
        <time>2020-02-23T15:15:19Z</time>
      </trkpt>
      <trkpt lat="39.0756680" lon="1.5017180">
        <ele>157.9</ele>
        <time>2020-02-23T15:15:20Z</time>
      </trkpt>
      <trkpt lat="39.0756640" lon="1.5017020">
        <ele>157.9</ele>
        <time>2020-02-23T15:15:21Z</time>
      </trkpt>
      <trkpt lat="39.0756650" lon="1.5016600">
        <ele>157.8</ele>
        <time>2020-02-23T15:15:22Z</time>
      </trkpt>
      <trkpt lat="39.0756610" lon="1.5016200">
        <ele>157.7</ele>
        <time>2020-02-23T15:15:23Z</time>
      </trkpt>
      <trkpt lat="39.0756490" lon="1.5015790">
        <ele>157.6</ele>
        <time>2020-02-23T15:15:24Z</time>
      </trkpt>
      <trkpt lat="39.0756380" lon="1.5015360">
        <ele>157.5</ele>
        <time>2020-02-23T15:15:25Z</time>
      </trkpt>
      <trkpt lat="39.0756240" lon="1.5014890">
        <ele>157.4</ele>
        <time>2020-02-23T15:15:26Z</time>
      </trkpt>
      <trkpt lat="39.0756110" lon="1.5014390">
        <ele>157.3</ele>
        <time>2020-02-23T15:15:27Z</time>
      </trkpt>
      <trkpt lat="39.0755970" lon="1.5013820">
        <ele>157.2</ele>
        <time>2020-02-23T15:15:28Z</time>
      </trkpt>
      <trkpt lat="39.0755770" lon="1.5013240">
        <ele>157.1</ele>
        <time>2020-02-23T15:15:29Z</time>
      </trkpt>
      <trkpt lat="39.0755540" lon="1.5012700">
        <ele>157.0</ele>
        <time>2020-02-23T15:15:30Z</time>
      </trkpt>
      <trkpt lat="39.0755330" lon="1.5012100">
        <ele>157.3</ele>
        <time>2020-02-23T15:15:31Z</time>
      </trkpt>
      <trkpt lat="39.0755100" lon="1.5011480">
        <ele>157.6</ele>
        <time>2020-02-23T15:15:32Z</time>
      </trkpt>
      <trkpt lat="39.0754900" lon="1.5010850">
        <ele>157.8</ele>
        <time>2020-02-23T15:15:33Z</time>
      </trkpt>
      <trkpt lat="39.0754630" lon="1.5010260">
        <ele>158.0</ele>
        <time>2020-02-23T15:15:34Z</time>
      </trkpt>
      <trkpt lat="39.0754390" lon="1.5009620">
        <ele>158.3</ele>
        <time>2020-02-23T15:15:35Z</time>
      </trkpt>
      <trkpt lat="39.0754030" lon="1.5009020">
        <ele>158.5</ele>
        <time>2020-02-23T15:15:36Z</time>
      </trkpt>
      <trkpt lat="39.0753680" lon="1.5008370">
        <ele>158.8</ele>
        <time>2020-02-23T15:15:37Z</time>
      </trkpt>
      <trkpt lat="39.0753320" lon="1.5007710">
        <ele>159.1</ele>
        <time>2020-02-23T15:15:38Z</time>
      </trkpt>
      <trkpt lat="39.0752970" lon="1.5007030">
        <ele>159.4</ele>
        <time>2020-02-23T15:15:39Z</time>
      </trkpt>
      <trkpt lat="39.0752590" lon="1.5006390">
        <ele>159.6</ele>
        <time>2020-02-23T15:15:40Z</time>
      </trkpt>
      <trkpt lat="39.0752220" lon="1.5005720">
        <ele>159.8</ele>
        <time>2020-02-23T15:15:41Z</time>
      </trkpt>
      <trkpt lat="39.0751820" lon="1.5005030">
        <ele>160.0</ele>
        <time>2020-02-23T15:15:42Z</time>
      </trkpt>
      <trkpt lat="39.0751400" lon="1.5004360">
        <ele>160.2</ele>
        <time>2020-02-23T15:15:43Z</time>
      </trkpt>
      <trkpt lat="39.0750970" lon="1.5003700">
        <ele>160.2</ele>
        <time>2020-02-23T15:15:44Z</time>
      </trkpt>
      <trkpt lat="39.0750540" lon="1.5003100">
        <ele>160.1</ele>
        <time>2020-02-23T15:15:45Z</time>
      </trkpt>
      <trkpt lat="39.0750110" lon="1.5002480">
        <ele>160.0</ele>
        <time>2020-02-23T15:15:46Z</time>
      </trkpt>
      <trkpt lat="39.0749670" lon="1.5001860">
        <ele>159.8</ele>
        <time>2020-02-23T15:15:47Z</time>
      </trkpt>
      <trkpt lat="39.0749200" lon="1.5001250">
        <ele>159.6</ele>
        <time>2020-02-23T15:15:48Z</time>
      </trkpt>
      <trkpt lat="39.0748730" lon="1.5000640">
        <ele>159.4</ele>
        <time>2020-02-23T15:15:49Z</time>
      </trkpt>
      <trkpt lat="39.0748210" lon="1.5000100">
        <ele>159.1</ele>
        <time>2020-02-23T15:15:50Z</time>
      </trkpt>
      <trkpt lat="39.0747710" lon="1.4999530">
        <ele>158.9</ele>
        <time>2020-02-23T15:15:51Z</time>
      </trkpt>
      <trkpt lat="39.0747200" lon="1.4998980">
        <ele>158.5</ele>
        <time>2020-02-23T15:15:52Z</time>
      </trkpt>
      <trkpt lat="39.0746700" lon="1.4998400">
        <ele>158.2</ele>
        <time>2020-02-23T15:15:53Z</time>
      </trkpt>
      <trkpt lat="39.0746140" lon="1.4997880">
        <ele>157.7</ele>
        <time>2020-02-23T15:15:54Z</time>
      </trkpt>
      <trkpt lat="39.0745590" lon="1.4997380">
        <ele>157.3</ele>
        <time>2020-02-23T15:15:55Z</time>
      </trkpt>
      <trkpt lat="39.0745030" lon="1.4996890">
        <ele>156.9</ele>
        <time>2020-02-23T15:15:56Z</time>
      </trkpt>
      <trkpt lat="39.0744460" lon="1.4996370">
        <ele>156.5</ele>
        <time>2020-02-23T15:15:57Z</time>
      </trkpt>
      <trkpt lat="39.0743890" lon="1.4995890">
        <ele>156.2</ele>
        <time>2020-02-23T15:15:58Z</time>
      </trkpt>
      <trkpt lat="39.0743260" lon="1.4995490">
        <ele>155.9</ele>
        <time>2020-02-23T15:15:59Z</time>
      </trkpt>
      <trkpt lat="39.0742630" lon="1.4995060">
        <ele>155.7</ele>
        <time>2020-02-23T15:16:00Z</time>
      </trkpt>
      <trkpt lat="39.0741980" lon="1.4994670">
        <ele>155.5</ele>
        <time>2020-02-23T15:16:01Z</time>
      </trkpt>
      <trkpt lat="39.0741320" lon="1.4994320">
        <ele>155.3</ele>
        <time>2020-02-23T15:16:02Z</time>
      </trkpt>
      <trkpt lat="39.0740660" lon="1.4993960">
        <ele>155.1</ele>
        <time>2020-02-23T15:16:03Z</time>
      </trkpt>
      <trkpt lat="39.0739990" lon="1.4993600">
        <ele>154.9</ele>
        <time>2020-02-23T15:16:04Z</time>
      </trkpt>
      <trkpt lat="39.0739300" lon="1.4993290">
        <ele>154.7</ele>
        <time>2020-02-23T15:16:05Z</time>
      </trkpt>
      <trkpt lat="39.0738620" lon="1.4992980">
        <ele>154.5</ele>
        <time>2020-02-23T15:16:06Z</time>
      </trkpt>
      <trkpt lat="39.0737950" lon="1.4992700">
        <ele>154.3</ele>
        <time>2020-02-23T15:16:07Z</time>
      </trkpt>
      <trkpt lat="39.0737250" lon="1.4992400">
        <ele>154.1</ele>
        <time>2020-02-23T15:16:08Z</time>
      </trkpt>
      <trkpt lat="39.0736550" lon="1.4992130">
        <ele>153.9</ele>
        <time>2020-02-23T15:16:09Z</time>
      </trkpt>
      <trkpt lat="39.0735850" lon="1.4991800">
        <ele>153.7</ele>
        <time>2020-02-23T15:16:10Z</time>
      </trkpt>
      <trkpt lat="39.0735140" lon="1.4991460">
        <ele>153.5</ele>
        <time>2020-02-23T15:16:11Z</time>
      </trkpt>
      <trkpt lat="39.0734430" lon="1.4991120">
        <ele>153.3</ele>
        <time>2020-02-23T15:16:12Z</time>
      </trkpt>
      <trkpt lat="39.0733710" lon="1.4990770">
        <ele>153.1</ele>
        <time>2020-02-23T15:16:13Z</time>
      </trkpt>
      <trkpt lat="39.0733010" lon="1.4990380">
        <ele>152.9</ele>
        <time>2020-02-23T15:16:14Z</time>
      </trkpt>
      <trkpt lat="39.0732290" lon="1.4989970">
        <ele>152.7</ele>
        <time>2020-02-23T15:16:15Z</time>
      </trkpt>
      <trkpt lat="39.0731580" lon="1.4989550">
        <ele>152.4</ele>
        <time>2020-02-23T15:16:16Z</time>
      </trkpt>
      <trkpt lat="39.0730870" lon="1.4989130">
        <ele>152.2</ele>
        <time>2020-02-23T15:16:17Z</time>
      </trkpt>
      <trkpt lat="39.0730190" lon="1.4988680">
        <ele>151.9</ele>
        <time>2020-02-23T15:16:18Z</time>
      </trkpt>
      <trkpt lat="39.0729550" lon="1.4988180">
        <ele>151.7</ele>
        <time>2020-02-23T15:16:19Z</time>
      </trkpt>
      <trkpt lat="39.0728910" lon="1.4987690">
        <ele>151.5</ele>
        <time>2020-02-23T15:16:20Z</time>
      </trkpt>
      <trkpt lat="39.0728310" lon="1.4987170">
        <ele>151.4</ele>
        <time>2020-02-23T15:16:21Z</time>
      </trkpt>
      <trkpt lat="39.0727710" lon="1.4986660">
        <ele>151.3</ele>
        <time>2020-02-23T15:16:22Z</time>
      </trkpt>
      <trkpt lat="39.0727140" lon="1.4986090">
        <ele>151.2</ele>
        <time>2020-02-23T15:16:23Z</time>
      </trkpt>
      <trkpt lat="39.0726620" lon="1.4985500">
        <ele>151.1</ele>
        <time>2020-02-23T15:16:24Z</time>
      </trkpt>
      <trkpt lat="39.0726100" lon="1.4984900">
        <ele>150.9</ele>
        <time>2020-02-23T15:16:25Z</time>
      </trkpt>
      <trkpt lat="39.0725610" lon="1.4984290">
        <ele>150.8</ele>
        <time>2020-02-23T15:16:26Z</time>
      </trkpt>
      <trkpt lat="39.0725140" lon="1.4983670">
        <ele>150.6</ele>
        <time>2020-02-23T15:16:27Z</time>
      </trkpt>
      <trkpt lat="39.0724660" lon="1.4983080">
        <ele>150.5</ele>
        <time>2020-02-23T15:16:28Z</time>
      </trkpt>
      <trkpt lat="39.0724210" lon="1.4982500">
        <ele>150.3</ele>
        <time>2020-02-23T15:16:29Z</time>
      </trkpt>
      <trkpt lat="39.0723760" lon="1.4981900">
        <ele>150.3</ele>
        <time>2020-02-23T15:16:30Z</time>
      </trkpt>
      <trkpt lat="39.0723320" lon="1.4981300">
        <ele>150.3</ele>
        <time>2020-02-23T15:16:31Z</time>
      </trkpt>
      <trkpt lat="39.0722910" lon="1.4980690">
        <ele>150.2</ele>
        <time>2020-02-23T15:16:32Z</time>
      </trkpt>
      <trkpt lat="39.0722500" lon="1.4980090">
        <ele>150.2</ele>
        <time>2020-02-23T15:16:33Z</time>
      </trkpt>
      <trkpt lat="39.0722110" lon="1.4979480">
        <ele>150.2</ele>
        <time>2020-02-23T15:16:34Z</time>
      </trkpt>
      <trkpt lat="39.0721710" lon="1.4978900">
        <ele>150.2</ele>
        <time>2020-02-23T15:16:35Z</time>
      </trkpt>
      <trkpt lat="39.0721280" lon="1.4978330">
        <ele>150.1</ele>
        <time>2020-02-23T15:16:36Z</time>
      </trkpt>
      <trkpt lat="39.0720820" lon="1.4977800">
        <ele>150.0</ele>
        <time>2020-02-23T15:16:37Z</time>
      </trkpt>
      <trkpt lat="39.0720420" lon="1.4977250">
        <ele>149.9</ele>
        <time>2020-02-23T15:16:38Z</time>
      </trkpt>
      <trkpt lat="39.0720010" lon="1.4976690">
        <ele>149.7</ele>
        <time>2020-02-23T15:16:39Z</time>
      </trkpt>
      <trkpt lat="39.0719610" lon="1.4976130">
        <ele>149.6</ele>
        <time>2020-02-23T15:16:40Z</time>
      </trkpt>
      <trkpt lat="39.0719210" lon="1.4975630">
        <ele>149.4</ele>
        <time>2020-02-23T15:16:41Z</time>
      </trkpt>
      <trkpt lat="39.0718770" lon="1.4975140">
        <ele>149.3</ele>
        <time>2020-02-23T15:16:42Z</time>
      </trkpt>
      <trkpt lat="39.0718370" lon="1.4974610">
        <ele>149.3</ele>
        <time>2020-02-23T15:16:43Z</time>
      </trkpt>
      <trkpt lat="39.0717920" lon="1.4974120">
        <ele>149.2</ele>
        <time>2020-02-23T15:16:44Z</time>
      </trkpt>
      <trkpt lat="39.0717520" lon="1.4973620">
        <ele>149.2</ele>
        <time>2020-02-23T15:16:45Z</time>
      </trkpt>
      <trkpt lat="39.0717080" lon="1.4973160">
        <ele>149.2</ele>
        <time>2020-02-23T15:16:46Z</time>
      </trkpt>
      <trkpt lat="39.0716650" lon="1.4972710">
        <ele>149.2</ele>
        <time>2020-02-23T15:16:47Z</time>
      </trkpt>
      <trkpt lat="39.0716200" lon="1.4972260">
        <ele>149.2</ele>
        <time>2020-02-23T15:16:48Z</time>
      </trkpt>
      <trkpt lat="39.0715770" lon="1.4971800">
        <ele>149.2</ele>
        <time>2020-02-23T15:16:49Z</time>
      </trkpt>
      <trkpt lat="39.0715320" lon="1.4971360">
        <ele>149.2</ele>
        <time>2020-02-23T15:16:50Z</time>
      </trkpt>
      <trkpt lat="39.0714850" lon="1.4970950">
        <ele>149.2</ele>
        <time>2020-02-23T15:16:51Z</time>
      </trkpt>
      <trkpt lat="39.0714390" lon="1.4970500">
        <ele>149.2</ele>
        <time>2020-02-23T15:16:52Z</time>
      </trkpt>
      <trkpt lat="39.0713920" lon="1.4970090">
        <ele>149.2</ele>
        <time>2020-02-23T15:16:53Z</time>
      </trkpt>
      <trkpt lat="39.0713400" lon="1.4969710">
        <ele>149.2</ele>
        <time>2020-02-23T15:16:54Z</time>
      </trkpt>
      <trkpt lat="39.0712880" lon="1.4969320">
        <ele>149.2</ele>
        <time>2020-02-23T15:16:55Z</time>
      </trkpt>
      <trkpt lat="39.0712350" lon="1.4968940">
        <ele>149.2</ele>
        <time>2020-02-23T15:16:56Z</time>
      </trkpt>
      <trkpt lat="39.0711830" lon="1.4968530">
        <ele>149.2</ele>
        <time>2020-02-23T15:16:57Z</time>
      </trkpt>
      <trkpt lat="39.0711310" lon="1.4968170">
        <ele>149.1</ele>
        <time>2020-02-23T15:16:58Z</time>
      </trkpt>
      <trkpt lat="39.0710780" lon="1.4967840">
        <ele>149.0</ele>
        <time>2020-02-23T15:16:59Z</time>
      </trkpt>
      <trkpt lat="39.0710270" lon="1.4967560">
        <ele>148.9</ele>
        <time>2020-02-23T15:17:00Z</time>
      </trkpt>
      <trkpt lat="39.0709740" lon="1.4967180">
        <ele>148.7</ele>
        <time>2020-02-23T15:17:01Z</time>
      </trkpt>
      <trkpt lat="39.0709180" lon="1.4966880">
        <ele>148.6</ele>
        <time>2020-02-23T15:17:02Z</time>
      </trkpt>
      <trkpt lat="39.0708630" lon="1.4966570">
        <ele>148.4</ele>
        <time>2020-02-23T15:17:03Z</time>
      </trkpt>
      <trkpt lat="39.0708080" lon="1.4966270">
        <ele>148.2</ele>
        <time>2020-02-23T15:17:04Z</time>
      </trkpt>
      <trkpt lat="39.0707550" lon="1.4965940">
        <ele>148.0</ele>
        <time>2020-02-23T15:17:05Z</time>
      </trkpt>
      <trkpt lat="39.0707000" lon="1.4965650">
        <ele>147.8</ele>
        <time>2020-02-23T15:17:06Z</time>
      </trkpt>
      <trkpt lat="39.0706440" lon="1.4965360">
        <ele>147.5</ele>
        <time>2020-02-23T15:17:07Z</time>
      </trkpt>
      <trkpt lat="39.0705900" lon="1.4965040">
        <ele>147.1</ele>
        <time>2020-02-23T15:17:08Z</time>
      </trkpt>
      <trkpt lat="39.0705380" lon="1.4964710">
        <ele>146.6</ele>
        <time>2020-02-23T15:17:09Z</time>
      </trkpt>
      <trkpt lat="39.0704880" lon="1.4964390">
        <ele>146.2</ele>
        <time>2020-02-23T15:17:10Z</time>
      </trkpt>
      <trkpt lat="39.0704380" lon="1.4964060">
        <ele>145.9</ele>
        <time>2020-02-23T15:17:11Z</time>
      </trkpt>
      <trkpt lat="39.0703910" lon="1.4963760">
        <ele>145.7</ele>
        <time>2020-02-23T15:17:12Z</time>
      </trkpt>
      <trkpt lat="39.0703500" lon="1.4963500">
        <ele>145.4</ele>
        <time>2020-02-23T15:17:13Z</time>
      </trkpt>
      <trkpt lat="39.0703170" lon="1.4963300">
        <ele>145.3</ele>
        <time>2020-02-23T15:17:14Z</time>
      </trkpt>
      <trkpt lat="39.0702890" lon="1.4963130">
        <ele>145.1</ele>
        <time>2020-02-23T15:17:15Z</time>
      </trkpt>
      <trkpt lat="39.0702530" lon="1.4962970">
        <ele>144.9</ele>
        <time>2020-02-23T15:17:16Z</time>
      </trkpt>
      <trkpt lat="39.0702410" lon="1.4962910">
        <ele>144.8</ele>
        <time>2020-02-23T15:17:17Z</time>
      </trkpt>
      <trkpt lat="39.0702080" lon="1.4962720">
        <ele>144.7</ele>
        <time>2020-02-23T15:17:18Z</time>
      </trkpt>
      <trkpt lat="39.0701980" lon="1.4962650">
        <ele>144.6</ele>
        <time>2020-02-23T15:17:19Z</time>
      </trkpt>
      <trkpt lat="39.0701790" lon="1.4962350">
        <ele>144.4</ele>
        <time>2020-02-23T15:17:20Z</time>
      </trkpt>
      <trkpt lat="39.0701760" lon="1.4962250">
        <ele>144.4</ele>
        <time>2020-02-23T15:17:21Z</time>
      </trkpt>
      <trkpt lat="39.0701890" lon="1.4961950">
        <ele>144.2</ele>
        <time>2020-02-23T15:17:22Z</time>
      </trkpt>
      <trkpt lat="39.0702170" lon="1.4961680">
        <ele>144.0</ele>
        <time>2020-02-23T15:17:23Z</time>
      </trkpt>
      <trkpt lat="39.0702250" lon="1.4961600">
        <ele>144.0</ele>
        <time>2020-02-23T15:17:24Z</time>
      </trkpt>
      <trkpt lat="39.0702530" lon="1.4961530">
        <ele>143.8</ele>
        <time>2020-02-23T15:17:25Z</time>
      </trkpt>
      <trkpt lat="39.0702620" lon="1.4961510">
        <ele>143.8</ele>
        <time>2020-02-23T15:17:26Z</time>
      </trkpt>
      <trkpt lat="39.0702890" lon="1.4961600">
        <ele>143.6</ele>
        <time>2020-02-23T15:17:27Z</time>
      </trkpt>
      <trkpt lat="39.0702970" lon="1.4961660">
        <ele>143.5</ele>
        <time>2020-02-23T15:17:28Z</time>
      </trkpt>
      <trkpt lat="39.0703090" lon="1.4961620">
        <ele>143.5</ele>
        <time>2020-02-23T15:17:29Z</time>
      </trkpt>
      <trkpt lat="39.0703150" lon="1.4961550">
        <ele>143.4</ele>
        <time>2020-02-23T15:17:30Z</time>
      </trkpt>
      <trkpt lat="39.0703140" lon="1.4961500">
        <ele>143.4</ele>
        <time>2020-02-23T15:17:31Z</time>
      </trkpt>
      <trkpt lat="39.0703100" lon="1.4961510">
        <ele>143.4</ele>
        <time>2020-02-23T15:17:32Z</time>
      </trkpt>
      <trkpt lat="39.0703100" lon="1.4961470">
        <ele>143.4</ele>
        <time>2020-02-23T15:17:33Z</time>
      </trkpt>
      <trkpt lat="39.0703100" lon="1.4961460">
        <ele>143.4</ele>
        <time>2020-02-23T15:17:34Z</time>
      </trkpt>
      <trkpt lat="39.0703140" lon="1.4961400">
        <ele>143.3</ele>
        <time>2020-02-23T15:17:35Z</time>
      </trkpt>
      <trkpt lat="39.0703140" lon="1.4961380">
        <ele>143.3</ele>
        <time>2020-02-23T15:17:36Z</time>
      </trkpt>
      <trkpt lat="39.0703010" lon="1.4961340">
        <ele>143.2</ele>
        <time>2020-02-23T15:17:37Z</time>
      </trkpt>
      <trkpt lat="39.0702910" lon="1.4961250">
        <ele>143.2</ele>
        <time>2020-02-23T15:17:38Z</time>
      </trkpt>
      <trkpt lat="39.0702800" lon="1.4961170">
        <ele>143.1</ele>
        <time>2020-02-23T15:17:39Z</time>
      </trkpt>
      <trkpt lat="39.0702690" lon="1.4961080">
        <ele>143.0</ele>
        <time>2020-02-23T15:17:40Z</time>
      </trkpt>
      <trkpt lat="39.0702590" lon="1.4961000">
        <ele>143.0</ele>
        <time>2020-02-23T15:17:41Z</time>
      </trkpt>
      <trkpt lat="39.0702480" lon="1.4960910">
        <ele>142.9</ele>
        <time>2020-02-23T15:17:42Z</time>
      </trkpt>
      <trkpt lat="39.0702370" lon="1.4960830">
        <ele>142.8</ele>
        <time>2020-02-23T15:17:55Z</time>
      </trkpt>
      <trkpt lat="39.0702260" lon="1.4960740">
        <ele>142.8</ele>
        <time>2020-02-23T15:17:56Z</time>
      </trkpt>
      <trkpt lat="39.0702160" lon="1.4960660">
        <ele>142.7</ele>
        <time>2020-02-23T15:17:57Z</time>
      </trkpt>
      <trkpt lat="39.0702050" lon="1.4960570">
        <ele>142.6</ele>
        <time>2020-02-23T15:17:58Z</time>
      </trkpt>
      <trkpt lat="39.0701940" lon="1.4960490">
        <ele>142.6</ele>
        <time>2020-02-23T15:17:59Z</time>
      </trkpt>
      <trkpt lat="39.0701840" lon="1.4960400">
        <ele>142.5</ele>
        <time>2020-02-23T15:18:00Z</time>
      </trkpt>
      <trkpt lat="39.0701730" lon="1.4960320">
        <ele>142.4</ele>
        <time>2020-02-23T15:18:01Z</time>
      </trkpt>
      <trkpt lat="39.0701380" lon="1.4960140">
        <ele>142.3</ele>
        <time>2020-02-23T15:18:02Z</time>
      </trkpt>
      <trkpt lat="39.0701200" lon="1.4960020">
        <ele>142.2</ele>
        <time>2020-02-23T15:18:03Z</time>
      </trkpt>
      <trkpt lat="39.0701010" lon="1.4959890">
        <ele>142.1</ele>
        <time>2020-02-23T15:18:04Z</time>
      </trkpt>
      <trkpt lat="39.0700580" lon="1.4959580">
        <ele>141.8</ele>
        <time>2020-02-23T15:18:05Z</time>
      </trkpt>
      <trkpt lat="39.0700320" lon="1.4959480">
        <ele>141.7</ele>
        <time>2020-02-23T15:18:06Z</time>
      </trkpt>
      <trkpt lat="39.0700050" lon="1.4959390">
        <ele>141.5</ele>
        <time>2020-02-23T15:18:07Z</time>
      </trkpt>
      <trkpt lat="39.0699790" lon="1.4959290">
        <ele>141.4</ele>
        <time>2020-02-23T15:18:08Z</time>
      </trkpt>
      <trkpt lat="39.0699260" lon="1.4959020">
        <ele>141.1</ele>
        <time>2020-02-23T15:18:09Z</time>
      </trkpt>
      <trkpt lat="39.0699070" lon="1.4958870">
        <ele>141.0</ele>
        <time>2020-02-23T15:18:10Z</time>
      </trkpt>
      <trkpt lat="39.0698880" lon="1.4958720">
        <ele>140.9</ele>
        <time>2020-02-23T15:18:11Z</time>
      </trkpt>
      <trkpt lat="39.0698600" lon="1.4958500">
        <ele>140.7</ele>
        <time>2020-02-23T15:18:12Z</time>
      </trkpt>
      <trkpt lat="39.0698320" lon="1.4958360">
        <ele>140.8</ele>
        <time>2020-02-23T15:18:13Z</time>
      </trkpt>
      <trkpt lat="39.0698290" lon="1.4958440">
        <ele>140.8</ele>
        <time>2020-02-23T15:18:14Z</time>
      </trkpt>
      <trkpt lat="39.0697960" lon="1.4959010">
        <ele>141.0</ele>
        <time>2020-02-23T15:18:15Z</time>
      </trkpt>
      <trkpt lat="39.0697910" lon="1.4959710">
        <ele>141.2</ele>
        <time>2020-02-23T15:18:16Z</time>
      </trkpt>
      <trkpt lat="39.0697860" lon="1.4960410">
        <ele>141.3</ele>
        <time>2020-02-23T15:18:17Z</time>
      </trkpt>
      <trkpt lat="39.0697640" lon="1.4960120">
        <ele>141.4</ele>
        <time>2020-02-23T15:18:18Z</time>
      </trkpt>
      <trkpt lat="39.0697550" lon="1.4960080">
        <ele>141.5</ele>
        <time>2020-02-23T15:18:19Z</time>
      </trkpt>
      <trkpt lat="39.0697460" lon="1.4960050">
        <ele>141.5</ele>
        <time>2020-02-23T15:18:20Z</time>
      </trkpt>
      <trkpt lat="39.0697370" lon="1.4960010">
        <ele>141.5</ele>
        <time>2020-02-23T15:18:21Z</time>
      </trkpt>
      <trkpt lat="39.0697450" lon="1.4960120">
        <ele>141.6</ele>
        <time>2020-02-23T15:18:22Z</time>
      </trkpt>
      <trkpt lat="39.0697490" lon="1.4960150">
        <ele>141.6</ele>
        <time>2020-02-23T15:18:23Z</time>
      </trkpt>
      <trkpt lat="39.0697540" lon="1.4960180">
        <ele>141.6</ele>
        <time>2020-02-23T15:18:24Z</time>
      </trkpt>
      <trkpt lat="39.0697580" lon="1.4960200">
        <ele>141.6</ele>
        <time>2020-02-23T15:18:25Z</time>
      </trkpt>
      <trkpt lat="39.0697630" lon="1.4960230">
        <ele>141.6</ele>
        <time>2020-02-23T15:18:26Z</time>
      </trkpt>
      <trkpt lat="39.0697670" lon="1.4960260">
        <ele>141.6</ele>
        <time>2020-02-23T15:18:27Z</time>
      </trkpt>
      <trkpt lat="39.0697720" lon="1.4960290">
        <ele>141.7</ele>
        <time>2020-02-23T15:18:28Z</time>
      </trkpt>
      <trkpt lat="39.0697830" lon="1.4960350">
        <ele>141.7</ele>
        <time>2020-02-23T15:18:29Z</time>
      </trkpt>
      <trkpt lat="39.0698010" lon="1.4960420">
        <ele>141.8</ele>
        <time>2020-02-23T15:18:30Z</time>
      </trkpt>
      <trkpt lat="39.0698330" lon="1.4960660">
        <ele>141.9</ele>
        <time>2020-02-23T15:18:31Z</time>
      </trkpt>
      <trkpt lat="39.0698430" lon="1.4960730">
        <ele>141.9</ele>
        <time>2020-02-23T15:18:32Z</time>
      </trkpt>
      <trkpt lat="39.0698370" lon="1.4960690">
        <ele>141.9</ele>
        <time>2020-02-23T15:18:33Z</time>
      </trkpt>
      <trkpt lat="39.0698340" lon="1.4960670">
        <ele>142.0</ele>
        <time>2020-02-23T15:18:34Z</time>
      </trkpt>
      <trkpt lat="39.0698300" lon="1.4960630">
        <ele>142.0</ele>
        <time>2020-02-23T15:18:35Z</time>
      </trkpt>
      <trkpt lat="39.0698300" lon="1.4960600">
        <ele>142.0</ele>
        <time>2020-02-23T15:18:36Z</time>
      </trkpt>
      <trkpt lat="39.0698210" lon="1.4960540">
        <ele>142.0</ele>
        <time>2020-02-23T15:18:37Z</time>
      </trkpt>
      <trkpt lat="39.0698150" lon="1.4960500">
        <ele>142.0</ele>
        <time>2020-02-23T15:18:38Z</time>
      </trkpt>
      <trkpt lat="39.0698210" lon="1.4960550">
        <ele>142.1</ele>
        <time>2020-02-23T15:18:39Z</time>
      </trkpt>
      <trkpt lat="39.0698290" lon="1.4960600">
        <ele>142.1</ele>
        <time>2020-02-23T15:18:40Z</time>
      </trkpt>
      <trkpt lat="39.0698380" lon="1.4960660">
        <ele>142.1</ele>
        <time>2020-02-23T15:18:41Z</time>
      </trkpt>
      <trkpt lat="39.0698460" lon="1.4960710">
        <ele>142.1</ele>
        <time>2020-02-23T15:18:42Z</time>
      </trkpt>
      <trkpt lat="39.0698540" lon="1.4960770">
        <ele>142.2</ele>
        <time>2020-02-23T15:18:43Z</time>
      </trkpt>
      <trkpt lat="39.0698870" lon="1.4960930">
        <ele>142.3</ele>
        <time>2020-02-23T15:18:44Z</time>
      </trkpt>
      <trkpt lat="39.0699060" lon="1.4961010">
        <ele>142.4</ele>
        <time>2020-02-23T15:18:45Z</time>
      </trkpt>
      <trkpt lat="39.0699250" lon="1.4961080">
        <ele>142.4</ele>
        <time>2020-02-23T15:18:46Z</time>
      </trkpt>
      <trkpt lat="39.0699590" lon="1.4961210">
        <ele>142.5</ele>
        <time>2020-02-23T15:18:47Z</time>
      </trkpt>
      <trkpt lat="39.0699880" lon="1.4961320">
        <ele>142.6</ele>
        <time>2020-02-23T15:18:48Z</time>
      </trkpt>
      <trkpt lat="39.0700030" lon="1.4961410">
        <ele>142.7</ele>
        <time>2020-02-23T15:18:49Z</time>
      </trkpt>
      <trkpt lat="39.0700140" lon="1.4961460">
        <ele>142.7</ele>
        <time>2020-02-23T15:18:50Z</time>
      </trkpt>
      <trkpt lat="39.0700050" lon="1.4961510">
        <ele>142.8</ele>
        <time>2020-02-23T15:18:51Z</time>
      </trkpt>
      <trkpt lat="39.0699960" lon="1.4961500">
        <ele>142.8</ele>
        <time>2020-02-23T15:18:52Z</time>
      </trkpt>
      <trkpt lat="39.0699850" lon="1.4961480">
        <ele>142.8</ele>
        <time>2020-02-23T15:18:53Z</time>
      </trkpt>
      <trkpt lat="39.0699880" lon="1.4961490">
        <ele>142.8</ele>
        <time>2020-02-23T15:18:54Z</time>
      </trkpt>
      <trkpt lat="39.0699920" lon="1.4961520">
        <ele>142.8</ele>
        <time>2020-02-23T15:18:55Z</time>
      </trkpt>
      <trkpt lat="39.0699990" lon="1.4961570">
        <ele>142.9</ele>
        <time>2020-02-23T15:18:56Z</time>
      </trkpt>
      <trkpt lat="39.0700040" lon="1.4961610">
        <ele>142.9</ele>
        <time>2020-02-23T15:18:57Z</time>
      </trkpt>
      <trkpt lat="39.0700080" lon="1.4961630">
        <ele>142.9</ele>
        <time>2020-02-23T15:18:58Z</time>
      </trkpt>
      <trkpt lat="39.0700180" lon="1.4961680">
        <ele>142.9</ele>
        <time>2020-02-23T15:18:59Z</time>
      </trkpt>
      <trkpt lat="39.0700300" lon="1.4961720">
        <ele>143.0</ele>
        <time>2020-02-23T15:19:00Z</time>
      </trkpt>
      <trkpt lat="39.0700450" lon="1.4961820">
        <ele>143.1</ele>
        <time>2020-02-23T15:19:01Z</time>
      </trkpt>
      <trkpt lat="39.0700490" lon="1.4961810">
        <ele>143.1</ele>
        <time>2020-02-23T15:19:02Z</time>
      </trkpt>
      <trkpt lat="39.0700520" lon="1.4961770">
        <ele>143.1</ele>
        <time>2020-02-23T15:19:03Z</time>
      </trkpt>
      <trkpt lat="39.0700510" lon="1.4961690">
        <ele>143.1</ele>
        <time>2020-02-23T15:19:04Z</time>
      </trkpt>
      <trkpt lat="39.0700460" lon="1.4961610">
        <ele>143.1</ele>
        <time>2020-02-23T15:19:05Z</time>
      </trkpt>
      <trkpt lat="39.0700470" lon="1.4961640">
        <ele>143.1</ele>
        <time>2020-02-23T15:19:06Z</time>
      </trkpt>
      <trkpt lat="39.0700480" lon="1.4961660">
        <ele>143.2</ele>
        <time>2020-02-23T15:19:07Z</time>
      </trkpt>
      <trkpt lat="39.0700510" lon="1.4961660">
        <ele>143.2</ele>
        <time>2020-02-23T15:19:08Z</time>
      </trkpt>
      <trkpt lat="39.0700520" lon="1.4961680">
        <ele>143.2</ele>
        <time>2020-02-23T15:19:09Z</time>
      </trkpt>
      <trkpt lat="39.0700510" lon="1.4961620">
        <ele>143.2</ele>
        <time>2020-02-23T15:19:10Z</time>
      </trkpt>
      <trkpt lat="39.0700450" lon="1.4961570">
        <ele>143.2</ele>
        <time>2020-02-23T15:19:11Z</time>
      </trkpt>
      <trkpt lat="39.0700420" lon="1.4961520">
        <ele>143.2</ele>
        <time>2020-02-23T15:19:12Z</time>
      </trkpt>
      <trkpt lat="39.0700360" lon="1.4961450">
        <ele>143.3</ele>
        <time>2020-02-23T15:19:13Z</time>
      </trkpt>
      <trkpt lat="39.0700270" lon="1.4961340">
        <ele>143.3</ele>
        <time>2020-02-23T15:19:14Z</time>
      </trkpt>
      <trkpt lat="39.0700250" lon="1.4961330">
        <ele>143.3</ele>
        <time>2020-02-23T15:19:15Z</time>
      </trkpt>
      <trkpt lat="39.0700250" lon="1.4961320">
        <ele>143.3</ele>
        <time>2020-02-23T15:19:16Z</time>
      </trkpt>
      <trkpt lat="39.0700340" lon="1.4961380">
        <ele>143.4</ele>
        <time>2020-02-23T15:19:17Z</time>
      </trkpt>
      <trkpt lat="39.0700370" lon="1.4961430">
        <ele>143.4</ele>
        <time>2020-02-23T15:19:18Z</time>
      </trkpt>
      <trkpt lat="39.0700400" lon="1.4961430">
        <ele>143.4</ele>
        <time>2020-02-23T15:19:19Z</time>
      </trkpt>
      <trkpt lat="39.0700400" lon="1.4961370">
        <ele>143.4</ele>
        <time>2020-02-23T15:19:20Z</time>
      </trkpt>
      <trkpt lat="39.0700500" lon="1.4961360">
        <ele>143.4</ele>
        <time>2020-02-23T15:19:21Z</time>
      </trkpt>
      <trkpt lat="39.0700590" lon="1.4961340">
        <ele>143.5</ele>
        <time>2020-02-23T15:19:22Z</time>
      </trkpt>
      <trkpt lat="39.0700650" lon="1.4961260">
        <ele>143.5</ele>
        <time>2020-02-23T15:19:23Z</time>
      </trkpt>
      <trkpt lat="39.0700670" lon="1.4961260">
        <ele>143.5</ele>
        <time>2020-02-23T15:19:24Z</time>
      </trkpt>
      <trkpt lat="39.0700800" lon="1.4961270">
        <ele>143.6</ele>
        <time>2020-02-23T15:19:25Z</time>
      </trkpt>
      <trkpt lat="39.0700900" lon="1.4961250">
        <ele>143.6</ele>
        <time>2020-02-23T15:19:26Z</time>
      </trkpt>
      <trkpt lat="39.0701070" lon="1.4961200">
        <ele>143.7</ele>
        <time>2020-02-23T15:19:27Z</time>
      </trkpt>
      <trkpt lat="39.0701150" lon="1.4961160">
        <ele>143.7</ele>
        <time>2020-02-23T15:19:28Z</time>
      </trkpt>
      <trkpt lat="39.0701240" lon="1.4961170">
        <ele>143.7</ele>
        <time>2020-02-23T15:19:29Z</time>
      </trkpt>
      <trkpt lat="39.0701230" lon="1.4961160">
        <ele>143.7</ele>
        <time>2020-02-23T15:19:30Z</time>
      </trkpt>
      <trkpt lat="39.0701290" lon="1.4961160">
        <ele>143.8</ele>
        <time>2020-02-23T15:19:31Z</time>
      </trkpt>
      <trkpt lat="39.0701350" lon="1.4961130">
        <ele>143.8</ele>
        <time>2020-02-23T15:19:32Z</time>
      </trkpt>
      <trkpt lat="39.0701440" lon="1.4961130">
        <ele>143.8</ele>
        <time>2020-02-23T15:19:33Z</time>
      </trkpt>
      <trkpt lat="39.0701580" lon="1.4961130">
        <ele>143.9</ele>
        <time>2020-02-23T15:19:34Z</time>
      </trkpt>
      <trkpt lat="39.0701690" lon="1.4961100">
        <ele>143.9</ele>
        <time>2020-02-23T15:19:35Z</time>
      </trkpt>
      <trkpt lat="39.0701800" lon="1.4961110">
        <ele>143.9</ele>
        <time>2020-02-23T15:19:36Z</time>
      </trkpt>
      <trkpt lat="39.0701880" lon="1.4961150">
        <ele>144.0</ele>
        <time>2020-02-23T15:19:37Z</time>
      </trkpt>
      <trkpt lat="39.0702320" lon="1.4961010">
        <ele>144.1</ele>
        <time>2020-02-23T15:19:38Z</time>
      </trkpt>
      <trkpt lat="39.0702740" lon="1.4960910">
        <ele>144.3</ele>
        <time>2020-02-23T15:21:01Z</time>
      </trkpt>
      <trkpt lat="39.0703160" lon="1.4960810">
        <ele>144.5</ele>
        <time>2020-02-23T15:21:02Z</time>
      </trkpt>
      <trkpt lat="39.0703230" lon="1.4960830">
        <ele>144.5</ele>
        <time>2020-02-23T15:21:03Z</time>
      </trkpt>
      <trkpt lat="39.0703260" lon="1.4960810">
        <ele>144.5</ele>
        <time>2020-02-23T15:21:04Z</time>
      </trkpt>
      <trkpt lat="39.0703280" lon="1.4960800">
        <ele>144.5</ele>
        <time>2020-02-23T15:21:05Z</time>
      </trkpt>
      <trkpt lat="39.0703300" lon="1.4960800">
        <ele>144.5</ele>
        <time>2020-02-23T15:21:06Z</time>
      </trkpt>
      <trkpt lat="39.0703300" lon="1.4960820">
        <ele>144.5</ele>
        <time>2020-02-23T15:21:07Z</time>
      </trkpt>
      <trkpt lat="39.0703320" lon="1.4960830">
        <ele>144.5</ele>
        <time>2020-02-23T15:21:08Z</time>
      </trkpt>
      <trkpt lat="39.0703320" lon="1.4960840">
        <ele>144.5</ele>
        <time>2020-02-23T15:21:09Z</time>
      </trkpt>
      <trkpt lat="39.0703300" lon="1.4960830">
        <ele>144.5</ele>
        <time>2020-02-23T15:21:10Z</time>
      </trkpt>
      <trkpt lat="39.0703340" lon="1.4960810">
        <ele>144.6</ele>
        <time>2020-02-23T15:21:11Z</time>
      </trkpt>
      <trkpt lat="39.0703350" lon="1.4960810">
        <ele>144.6</ele>
        <time>2020-02-23T15:21:12Z</time>
      </trkpt>
      <trkpt lat="39.0703350" lon="1.4960810">
        <ele>144.6</ele>
        <time>2020-02-23T15:21:13Z</time>
      </trkpt>
      <trkpt lat="39.0703380" lon="1.4960770">
        <ele>144.6</ele>
        <time>2020-02-23T15:21:14Z</time>
      </trkpt>
      <trkpt lat="39.0703460" lon="1.4960670">
        <ele>144.6</ele>
        <time>2020-02-23T15:21:15Z</time>
      </trkpt>
      <trkpt lat="39.0703480" lon="1.4960620">
        <ele>144.6</ele>
        <time>2020-02-23T15:21:16Z</time>
      </trkpt>
      <trkpt lat="39.0703500" lon="1.4960590">
        <ele>144.6</ele>
        <time>2020-02-23T15:21:17Z</time>
      </trkpt>
      <trkpt lat="39.0703520" lon="1.4960550">
        <ele>144.7</ele>
        <time>2020-02-23T15:21:18Z</time>
      </trkpt>
      <trkpt lat="39.0703570" lon="1.4960500">
        <ele>144.7</ele>
        <time>2020-02-23T15:21:19Z</time>
      </trkpt>
      <trkpt lat="39.0703630" lon="1.4960480">
        <ele>144.7</ele>
        <time>2020-02-23T15:21:20Z</time>
      </trkpt>
      <trkpt lat="39.0703680" lon="1.4960490">
        <ele>144.7</ele>
        <time>2020-02-23T15:21:21Z</time>
      </trkpt>
      <trkpt lat="39.0703700" lon="1.4960500">
        <ele>144.7</ele>
        <time>2020-02-23T15:21:22Z</time>
      </trkpt>
      <trkpt lat="39.0703740" lon="1.4960510">
        <ele>144.7</ele>
        <time>2020-02-23T15:21:23Z</time>
      </trkpt>
      <trkpt lat="39.0703770" lon="1.4960520">
        <ele>144.8</ele>
        <time>2020-02-23T15:21:24Z</time>
      </trkpt>
      <trkpt lat="39.0703710" lon="1.4960590">
        <ele>144.8</ele>
        <time>2020-02-23T15:21:25Z</time>
      </trkpt>
      <trkpt lat="39.0703720" lon="1.4960580">
        <ele>144.8</ele>
        <time>2020-02-23T15:21:26Z</time>
      </trkpt>
      <trkpt lat="39.0703730" lon="1.4960580">
        <ele>144.8</ele>
        <time>2020-02-23T15:21:27Z</time>
      </trkpt>
      <trkpt lat="39.0703730" lon="1.4960580">
        <ele>144.8</ele>
        <time>2020-02-23T15:21:28Z</time>
      </trkpt>
      <trkpt lat="39.0703710" lon="1.4960560">
        <ele>144.8</ele>
        <time>2020-02-23T15:21:29Z</time>
      </trkpt>
      <trkpt lat="39.0703640" lon="1.4960640">
        <ele>144.8</ele>
        <time>2020-02-23T15:21:30Z</time>
      </trkpt>
      <trkpt lat="39.0703650" lon="1.4960600">
        <ele>144.8</ele>
        <time>2020-02-23T15:21:31Z</time>
      </trkpt>
      <trkpt lat="39.0703650" lon="1.4960600">
        <ele>144.8</ele>
        <time>2020-02-23T15:21:32Z</time>
      </trkpt>
      <trkpt lat="39.0703640" lon="1.4960610">
        <ele>144.8</ele>
        <time>2020-02-23T15:21:33Z</time>
      </trkpt>
      <trkpt lat="39.0703590" lon="1.4961910">
        <ele>145.2</ele>
        <time>2020-02-23T15:23:20Z</time>
      </trkpt>
      <trkpt lat="39.0703640" lon="1.4962000">
        <ele>145.2</ele>
        <time>2020-02-23T15:23:21Z</time>
      </trkpt>
      <trkpt lat="39.0703650" lon="1.4962160">
        <ele>145.2</ele>
        <time>2020-02-23T15:23:22Z</time>
      </trkpt>
      <trkpt lat="39.0703730" lon="1.4962640">
        <ele>145.4</ele>
        <time>2020-02-23T15:23:23Z</time>
      </trkpt>
      <trkpt lat="39.0703760" lon="1.4962810">
        <ele>145.4</ele>
        <time>2020-02-23T15:23:24Z</time>
      </trkpt>
      <trkpt lat="39.0703850" lon="1.4963180">
        <ele>145.5</ele>
        <time>2020-02-23T15:23:25Z</time>
      </trkpt>
      <trkpt lat="39.0703890" lon="1.4963320">
        <ele>145.5</ele>
        <time>2020-02-23T15:23:26Z</time>
      </trkpt>
      <trkpt lat="39.0703940" lon="1.4963760">
        <ele>145.7</ele>
        <time>2020-02-23T15:23:27Z</time>
      </trkpt>
      <trkpt lat="39.0703990" lon="1.4963970">
        <ele>145.7</ele>
        <time>2020-02-23T15:23:28Z</time>
      </trkpt>
      <trkpt lat="39.0704150" lon="1.4964420">
        <ele>145.8</ele>
        <time>2020-02-23T15:23:29Z</time>
      </trkpt>
      <trkpt lat="39.0704210" lon="1.4964540">
        <ele>145.9</ele>
        <time>2020-02-23T15:23:30Z</time>
      </trkpt>
      <trkpt lat="39.0704540" lon="1.4964660">
        <ele>146.0</ele>
        <time>2020-02-23T15:23:31Z</time>
      </trkpt>
      <trkpt lat="39.0704660" lon="1.4964730">
        <ele>146.0</ele>
        <time>2020-02-23T15:23:32Z</time>
      </trkpt>
      <trkpt lat="39.0705020" lon="1.4964530">
        <ele>146.2</ele>
        <time>2020-02-23T15:23:33Z</time>
      </trkpt>
      <trkpt lat="39.0705160" lon="1.4964460">
        <ele>146.2</ele>
        <time>2020-02-23T15:23:34Z</time>
      </trkpt>
      <trkpt lat="39.0705410" lon="1.4964250">
        <ele>146.3</ele>
        <time>2020-02-23T15:23:35Z</time>
      </trkpt>
      <trkpt lat="39.0705770" lon="1.4963980">
        <ele>147.2</ele>
        <time>2020-02-23T15:23:36Z</time>
      </trkpt>
      <trkpt lat="39.0705910" lon="1.4963880">
        <ele>147.2</ele>
        <time>2020-02-23T15:23:37Z</time>
      </trkpt>
      <trkpt lat="39.0706160" lon="1.4963710">
        <ele>147.2</ele>
        <time>2020-02-23T15:23:38Z</time>
      </trkpt>
      <trkpt lat="39.0706450" lon="1.4963440">
        <ele>147.2</ele>
        <time>2020-02-23T15:23:39Z</time>
      </trkpt>
      <trkpt lat="39.0706670" lon="1.4963240">
        <ele>147.2</ele>
        <time>2020-02-23T15:23:40Z</time>
      </trkpt>
      <trkpt lat="39.0706900" lon="1.4962980">
        <ele>147.1</ele>
        <time>2020-02-23T15:23:41Z</time>
      </trkpt>
      <trkpt lat="39.0706960" lon="1.4962940">
        <ele>147.1</ele>
        <time>2020-02-23T15:23:42Z</time>
      </trkpt>
      <trkpt lat="39.0707070" lon="1.4962820">
        <ele>147.1</ele>
        <time>2020-02-23T15:23:43Z</time>
      </trkpt>
      <trkpt lat="39.0707080" lon="1.4962860">
        <ele>147.1</ele>
        <time>2020-02-23T15:23:44Z</time>
      </trkpt>
      <trkpt lat="39.0707090" lon="1.4962850">
        <ele>147.1</ele>
        <time>2020-02-23T15:23:45Z</time>
      </trkpt>
      <trkpt lat="39.0707100" lon="1.4962840">
        <ele>147.1</ele>
        <time>2020-02-23T15:23:46Z</time>
      </trkpt>
      <trkpt lat="39.0707100" lon="1.4962840">
        <ele>147.1</ele>
        <time>2020-02-23T15:23:47Z</time>
      </trkpt>
      <trkpt lat="39.0707090" lon="1.4962840">
        <ele>147.1</ele>
        <time>2020-02-23T15:23:48Z</time>
      </trkpt>
      <trkpt lat="39.0707070" lon="1.4962840">
        <ele>147.1</ele>
        <time>2020-02-23T15:23:49Z</time>
      </trkpt>
      <trkpt lat="39.0707080" lon="1.4962830">
        <ele>147.1</ele>
        <time>2020-02-23T15:23:50Z</time>
      </trkpt>
      <trkpt lat="39.0707080" lon="1.4962830">
        <ele>147.1</ele>
        <time>2020-02-23T15:23:51Z</time>
      </trkpt>
      <trkpt lat="39.0707110" lon="1.4962860">
        <ele>147.1</ele>
        <time>2020-02-23T15:23:52Z</time>
      </trkpt>
      <trkpt lat="39.0707300" lon="1.4962810">
        <ele>147.1</ele>
        <time>2020-02-23T15:23:53Z</time>
      </trkpt>
      <trkpt lat="39.0707740" lon="1.4962570">
        <ele>147.1</ele>
        <time>2020-02-23T15:23:54Z</time>
      </trkpt>
      <trkpt lat="39.0707920" lon="1.4962440">
        <ele>147.1</ele>
        <time>2020-02-23T15:23:55Z</time>
      </trkpt>
      <trkpt lat="39.0708390" lon="1.4962000">
        <ele>147.1</ele>
        <time>2020-02-23T15:23:56Z</time>
      </trkpt>
      <trkpt lat="39.0708850" lon="1.4961600">
        <ele>147.1</ele>
        <time>2020-02-23T15:23:57Z</time>
      </trkpt>
      <trkpt lat="39.0709250" lon="1.4961270">
        <ele>147.1</ele>
        <time>2020-02-23T15:23:58Z</time>
      </trkpt>
      <trkpt lat="39.0709750" lon="1.4960830">
        <ele>147.0</ele>
        <time>2020-02-23T15:23:59Z</time>
      </trkpt>
      <trkpt lat="39.0710280" lon="1.4960490">
        <ele>147.0</ele>
        <time>2020-02-23T15:24:00Z</time>
      </trkpt>
      <trkpt lat="39.0710730" lon="1.4960070">
        <ele>146.9</ele>
        <time>2020-02-23T15:24:01Z</time>
      </trkpt>
      <trkpt lat="39.0711040" lon="1.4959820">
        <ele>146.8</ele>
        <time>2020-02-23T15:24:02Z</time>
      </trkpt>
      <trkpt lat="39.0711420" lon="1.4959430">
        <ele>146.7</ele>
        <time>2020-02-23T15:24:03Z</time>
      </trkpt>
      <trkpt lat="39.0711810" lon="1.4959110">
        <ele>146.6</ele>
        <time>2020-02-23T15:24:04Z</time>
      </trkpt>
      <trkpt lat="39.0712310" lon="1.4958650">
        <ele>146.4</ele>
        <time>2020-02-23T15:24:05Z</time>
      </trkpt>
      <trkpt lat="39.0712680" lon="1.4958220">
        <ele>146.3</ele>
        <time>2020-02-23T15:24:06Z</time>
      </trkpt>
      <trkpt lat="39.0712950" lon="1.4957810">
        <ele>146.2</ele>
        <time>2020-02-23T15:24:07Z</time>
      </trkpt>
      <trkpt lat="39.0713190" lon="1.4957510">
        <ele>146.1</ele>
        <time>2020-02-23T15:24:08Z</time>
      </trkpt>
      <trkpt lat="39.0713400" lon="1.4957170">
        <ele>146.1</ele>
        <time>2020-02-23T15:24:09Z</time>
      </trkpt>
      <trkpt lat="39.0713750" lon="1.4956690">
        <ele>146.0</ele>
        <time>2020-02-23T15:24:10Z</time>
      </trkpt>
      <trkpt lat="39.0713980" lon="1.4956270">
        <ele>146.0</ele>
        <time>2020-02-23T15:24:11Z</time>
      </trkpt>
      <trkpt lat="39.0714040" lon="1.4955770">
        <ele>146.0</ele>
        <time>2020-02-23T15:24:12Z</time>
      </trkpt>
      <trkpt lat="39.0714100" lon="1.4955230">
        <ele>145.9</ele>
        <time>2020-02-23T15:24:13Z</time>
      </trkpt>
      <trkpt lat="39.0713950" lon="1.4954800">
        <ele>145.9</ele>
        <time>2020-02-23T15:24:14Z</time>
      </trkpt>
      <trkpt lat="39.0713820" lon="1.4954320">
        <ele>145.9</ele>
        <time>2020-02-23T15:24:15Z</time>
      </trkpt>
      <trkpt lat="39.0713690" lon="1.4953910">
        <ele>145.9</ele>
        <time>2020-02-23T15:24:16Z</time>
      </trkpt>
      <trkpt lat="39.0713520" lon="1.4953540">
        <ele>145.9</ele>
        <time>2020-02-23T15:24:17Z</time>
      </trkpt>
      <trkpt lat="39.0713390" lon="1.4953110">
        <ele>145.9</ele>
        <time>2020-02-23T15:24:18Z</time>
      </trkpt>
      <trkpt lat="39.0713260" lon="1.4952770">
        <ele>145.9</ele>
        <time>2020-02-23T15:24:19Z</time>
      </trkpt>
      <trkpt lat="39.0713130" lon="1.4952460">
        <ele>145.9</ele>
        <time>2020-02-23T15:24:20Z</time>
      </trkpt>
      <trkpt lat="39.0712970" lon="1.4952070">
        <ele>145.8</ele>
        <time>2020-02-23T15:24:21Z</time>
      </trkpt>
      <trkpt lat="39.0712730" lon="1.4951610">
        <ele>145.8</ele>
        <time>2020-02-23T15:24:22Z</time>
      </trkpt>
      <trkpt lat="39.0712500" lon="1.4951180">
        <ele>145.8</ele>
        <time>2020-02-23T15:24:23Z</time>
      </trkpt>
      <trkpt lat="39.0712300" lon="1.4950710">
        <ele>145.8</ele>
        <time>2020-02-23T15:24:24Z</time>
      </trkpt>
      <trkpt lat="39.0712120" lon="1.4950310">
        <ele>146.0</ele>
        <time>2020-02-23T15:24:25Z</time>
      </trkpt>
      <trkpt lat="39.0711910" lon="1.4949990">
        <ele>146.1</ele>
        <time>2020-02-23T15:24:26Z</time>
      </trkpt>
      <trkpt lat="39.0711690" lon="1.4949690">
        <ele>146.2</ele>
        <time>2020-02-23T15:24:27Z</time>
      </trkpt>
      <trkpt lat="39.0711480" lon="1.4949270">
        <ele>146.3</ele>
        <time>2020-02-23T15:24:28Z</time>
      </trkpt>
      <trkpt lat="39.0711290" lon="1.4948850">
        <ele>146.4</ele>
        <time>2020-02-23T15:24:29Z</time>
      </trkpt>
      <trkpt lat="39.0711110" lon="1.4948490">
        <ele>146.5</ele>
        <time>2020-02-23T15:24:30Z</time>
      </trkpt>
      <trkpt lat="39.0710950" lon="1.4948170">
        <ele>146.6</ele>
        <time>2020-02-23T15:24:31Z</time>
      </trkpt>
      <trkpt lat="39.0710710" lon="1.4947740">
        <ele>146.8</ele>
        <time>2020-02-23T15:24:32Z</time>
      </trkpt>
      <trkpt lat="39.0710510" lon="1.4947270">
        <ele>146.9</ele>
        <time>2020-02-23T15:24:33Z</time>
      </trkpt>
      <trkpt lat="39.0710230" lon="1.4946750">
        <ele>146.7</ele>
        <time>2020-02-23T15:24:34Z</time>
      </trkpt>
      <trkpt lat="39.0710020" lon="1.4946230">
        <ele>146.6</ele>
        <time>2020-02-23T15:24:35Z</time>
      </trkpt>
      <trkpt lat="39.0709760" lon="1.4945670">
        <ele>146.4</ele>
        <time>2020-02-23T15:24:36Z</time>
      </trkpt>
      <trkpt lat="39.0709550" lon="1.4945170">
        <ele>146.3</ele>
        <time>2020-02-23T15:24:37Z</time>
      </trkpt>
      <trkpt lat="39.0709310" lon="1.4944800">
        <ele>146.2</ele>
        <time>2020-02-23T15:24:38Z</time>
      </trkpt>
      <trkpt lat="39.0709070" lon="1.4944270">
        <ele>146.0</ele>
        <time>2020-02-23T15:24:39Z</time>
      </trkpt>
      <trkpt lat="39.0708940" lon="1.4944050">
        <ele>146.0</ele>
        <time>2020-02-23T15:24:40Z</time>
      </trkpt>
      <trkpt lat="39.0708710" lon="1.4943580">
        <ele>145.9</ele>
        <time>2020-02-23T15:24:41Z</time>
      </trkpt>
      <trkpt lat="39.0708520" lon="1.4943140">
        <ele>145.8</ele>
        <time>2020-02-23T15:24:42Z</time>
      </trkpt>
      <trkpt lat="39.0708280" lon="1.4942670">
        <ele>145.7</ele>
        <time>2020-02-23T15:24:43Z</time>
      </trkpt>
      <trkpt lat="39.0708110" lon="1.4942190">
        <ele>145.6</ele>
        <time>2020-02-23T15:24:44Z</time>
      </trkpt>
      <trkpt lat="39.0707800" lon="1.4941670">
        <ele>145.5</ele>
        <time>2020-02-23T15:24:45Z</time>
      </trkpt>
      <trkpt lat="39.0707490" lon="1.4941140">
        <ele>145.4</ele>
        <time>2020-02-23T15:24:46Z</time>
      </trkpt>
      <trkpt lat="39.0707210" lon="1.4940640">
        <ele>145.2</ele>
        <time>2020-02-23T15:24:47Z</time>
      </trkpt>
      <trkpt lat="39.0706840" lon="1.4940180">
        <ele>145.1</ele>
        <time>2020-02-23T15:24:48Z</time>
      </trkpt>
      <trkpt lat="39.0706560" lon="1.4939730">
        <ele>145.0</ele>
        <time>2020-02-23T15:24:49Z</time>
      </trkpt>
      <trkpt lat="39.0706280" lon="1.4939160">
        <ele>144.9</ele>
        <time>2020-02-23T15:24:50Z</time>
      </trkpt>
      <trkpt lat="39.0706020" lon="1.4938630">
        <ele>144.8</ele>
        <time>2020-02-23T15:24:51Z</time>
      </trkpt>
      <trkpt lat="39.0705760" lon="1.4938050">
        <ele>144.8</ele>
        <time>2020-02-23T15:24:52Z</time>
      </trkpt>
      <trkpt lat="39.0705530" lon="1.4937520">
        <ele>144.7</ele>
        <time>2020-02-23T15:24:53Z</time>
      </trkpt>
      <trkpt lat="39.0705270" lon="1.4936900">
        <ele>144.6</ele>
        <time>2020-02-23T15:24:54Z</time>
      </trkpt>
      <trkpt lat="39.0704980" lon="1.4936320">
        <ele>144.4</ele>
        <time>2020-02-23T15:24:55Z</time>
      </trkpt>
      <trkpt lat="39.0704720" lon="1.4935730">
        <ele>144.3</ele>
        <time>2020-02-23T15:24:56Z</time>
      </trkpt>
      <trkpt lat="39.0704390" lon="1.4935190">
        <ele>144.2</ele>
        <time>2020-02-23T15:24:57Z</time>
      </trkpt>
      <trkpt lat="39.0704160" lon="1.4934630">
        <ele>144.1</ele>
        <time>2020-02-23T15:24:58Z</time>
      </trkpt>
      <trkpt lat="39.0703890" lon="1.4934120">
        <ele>144.0</ele>
        <time>2020-02-23T15:24:59Z</time>
      </trkpt>
      <trkpt lat="39.0703630" lon="1.4933530">
        <ele>143.9</ele>
        <time>2020-02-23T15:25:00Z</time>
      </trkpt>
      <trkpt lat="39.0703320" lon="1.4932930">
        <ele>143.8</ele>
        <time>2020-02-23T15:25:01Z</time>
      </trkpt>
      <trkpt lat="39.0703060" lon="1.4932370">
        <ele>143.8</ele>
        <time>2020-02-23T15:25:02Z</time>
      </trkpt>
      <trkpt lat="39.0702720" lon="1.4931670">
        <ele>143.7</ele>
        <time>2020-02-23T15:25:03Z</time>
      </trkpt>
      <trkpt lat="39.0702410" lon="1.4930920">
        <ele>143.6</ele>
        <time>2020-02-23T15:25:04Z</time>
      </trkpt>
      <trkpt lat="39.0702210" lon="1.4930140">
        <ele>143.5</ele>
        <time>2020-02-23T15:25:05Z</time>
      </trkpt>
      <trkpt lat="39.0702030" lon="1.4929480">
        <ele>143.4</ele>
        <time>2020-02-23T15:25:06Z</time>
      </trkpt>
      <trkpt lat="39.0701810" lon="1.4928930">
        <ele>143.3</ele>
        <time>2020-02-23T15:25:07Z</time>
      </trkpt>
      <trkpt lat="39.0701610" lon="1.4928310">
        <ele>143.2</ele>
        <time>2020-02-23T15:25:08Z</time>
      </trkpt>
      <trkpt lat="39.0701450" lon="1.4927700">
        <ele>143.0</ele>
        <time>2020-02-23T15:25:09Z</time>
      </trkpt>
      <trkpt lat="39.0701140" lon="1.4927180">
        <ele>142.9</ele>
        <time>2020-02-23T15:25:10Z</time>
      </trkpt>
      <trkpt lat="39.0700970" lon="1.4926680">
        <ele>142.8</ele>
        <time>2020-02-23T15:25:11Z</time>
      </trkpt>
      <trkpt lat="39.0700710" lon="1.4926060">
        <ele>142.7</ele>
        <time>2020-02-23T15:25:12Z</time>
      </trkpt>
      <trkpt lat="39.0700470" lon="1.4925440">
        <ele>142.4</ele>
        <time>2020-02-23T15:25:13Z</time>
      </trkpt>
      <trkpt lat="39.0700260" lon="1.4924770">
        <ele>142.1</ele>
        <time>2020-02-23T15:25:14Z</time>
      </trkpt>
      <trkpt lat="39.0700030" lon="1.4924160">
        <ele>141.8</ele>
        <time>2020-02-23T15:25:15Z</time>
      </trkpt>
      <trkpt lat="39.0699810" lon="1.4923590">
        <ele>141.5</ele>
        <time>2020-02-23T15:25:16Z</time>
      </trkpt>
      <trkpt lat="39.0699590" lon="1.4922990">
        <ele>141.2</ele>
        <time>2020-02-23T15:25:17Z</time>
      </trkpt>
      <trkpt lat="39.0699240" lon="1.4922300">
        <ele>140.8</ele>
        <time>2020-02-23T15:25:18Z</time>
      </trkpt>
      <trkpt lat="39.0698980" lon="1.4921660">
        <ele>140.3</ele>
        <time>2020-02-23T15:25:19Z</time>
      </trkpt>
      <trkpt lat="39.0698650" lon="1.4921090">
        <ele>139.9</ele>
        <time>2020-02-23T15:25:20Z</time>
      </trkpt>
      <trkpt lat="39.0698360" lon="1.4920550">
        <ele>139.5</ele>
        <time>2020-02-23T15:25:21Z</time>
      </trkpt>
      <trkpt lat="39.0698020" lon="1.4919890">
        <ele>139.1</ele>
        <time>2020-02-23T15:25:22Z</time>
      </trkpt>
      <trkpt lat="39.0697730" lon="1.4919320">
        <ele>138.7</ele>
        <time>2020-02-23T15:25:23Z</time>
      </trkpt>
      <trkpt lat="39.0697480" lon="1.4918760">
        <ele>138.4</ele>
        <time>2020-02-23T15:25:24Z</time>
      </trkpt>
      <trkpt lat="39.0697170" lon="1.4918290">
        <ele>138.1</ele>
        <time>2020-02-23T15:25:25Z</time>
      </trkpt>
      <trkpt lat="39.0696870" lon="1.4917770">
        <ele>137.9</ele>
        <time>2020-02-23T15:25:26Z</time>
      </trkpt>
      <trkpt lat="39.0696550" lon="1.4917270">
        <ele>137.7</ele>
        <time>2020-02-23T15:25:27Z</time>
      </trkpt>
      <trkpt lat="39.0696170" lon="1.4916600">
        <ele>137.5</ele>
        <time>2020-02-23T15:25:28Z</time>
      </trkpt>
      <trkpt lat="39.0695830" lon="1.4915970">
        <ele>137.4</ele>
        <time>2020-02-23T15:25:29Z</time>
      </trkpt>
      <trkpt lat="39.0695450" lon="1.4915330">
        <ele>137.3</ele>
        <time>2020-02-23T15:25:30Z</time>
      </trkpt>
      <trkpt lat="39.0695020" lon="1.4914850">
        <ele>137.2</ele>
        <time>2020-02-23T15:25:31Z</time>
      </trkpt>
      <trkpt lat="39.0694610" lon="1.4914310">
        <ele>137.2</ele>
        <time>2020-02-23T15:25:32Z</time>
      </trkpt>
      <trkpt lat="39.0694190" lon="1.4913730">
        <ele>137.1</ele>
        <time>2020-02-23T15:25:33Z</time>
      </trkpt>
      <trkpt lat="39.0693780" lon="1.4913210">
        <ele>137.1</ele>
        <time>2020-02-23T15:25:34Z</time>
      </trkpt>
      <trkpt lat="39.0693430" lon="1.4912720">
        <ele>137.0</ele>
        <time>2020-02-23T15:25:35Z</time>
      </trkpt>
      <trkpt lat="39.0693020" lon="1.4912250">
        <ele>136.8</ele>
        <time>2020-02-23T15:25:36Z</time>
      </trkpt>
      <trkpt lat="39.0692700" lon="1.4911690">
        <ele>136.6</ele>
        <time>2020-02-23T15:25:37Z</time>
      </trkpt>
      <trkpt lat="39.0692400" lon="1.4911170">
        <ele>136.4</ele>
        <time>2020-02-23T15:25:38Z</time>
      </trkpt>
      <trkpt lat="39.0692060" lon="1.4910590">
        <ele>136.4</ele>
        <time>2020-02-23T15:25:39Z</time>
      </trkpt>
      <trkpt lat="39.0691740" lon="1.4910020">
        <ele>136.4</ele>
        <time>2020-02-23T15:25:40Z</time>
      </trkpt>
      <trkpt lat="39.0691430" lon="1.4909470">
        <ele>136.4</ele>
        <time>2020-02-23T15:25:41Z</time>
      </trkpt>
      <trkpt lat="39.0691030" lon="1.4908850">
        <ele>136.4</ele>
        <time>2020-02-23T15:25:42Z</time>
      </trkpt>
      <trkpt lat="39.0690680" lon="1.4908360">
        <ele>136.4</ele>
        <time>2020-02-23T15:25:43Z</time>
      </trkpt>
      <trkpt lat="39.0690290" lon="1.4907820">
        <ele>136.4</ele>
        <time>2020-02-23T15:25:44Z</time>
      </trkpt>
      <trkpt lat="39.0689930" lon="1.4907360">
        <ele>136.4</ele>
        <time>2020-02-23T15:25:45Z</time>
      </trkpt>
      <trkpt lat="39.0689540" lon="1.4906880">
        <ele>136.4</ele>
        <time>2020-02-23T15:25:46Z</time>
      </trkpt>
      <trkpt lat="39.0689200" lon="1.4906420">
        <ele>136.4</ele>
        <time>2020-02-23T15:25:47Z</time>
      </trkpt>
      <trkpt lat="39.0688830" lon="1.4905820">
        <ele>136.3</ele>
        <time>2020-02-23T15:25:48Z</time>
      </trkpt>
      <trkpt lat="39.0688420" lon="1.4905180">
        <ele>136.2</ele>
        <time>2020-02-23T15:25:49Z</time>
      </trkpt>
      <trkpt lat="39.0688000" lon="1.4904490">
        <ele>136.1</ele>
        <time>2020-02-23T15:25:50Z</time>
      </trkpt>
      <trkpt lat="39.0687690" lon="1.4903900">
        <ele>135.9</ele>
        <time>2020-02-23T15:25:51Z</time>
      </trkpt>
      <trkpt lat="39.0687360" lon="1.4903310">
        <ele>135.7</ele>
        <time>2020-02-23T15:25:52Z</time>
      </trkpt>
      <trkpt lat="39.0686970" lon="1.4902690">
        <ele>135.6</ele>
        <time>2020-02-23T15:25:53Z</time>
      </trkpt>
      <trkpt lat="39.0686690" lon="1.4902120">
        <ele>135.5</ele>
        <time>2020-02-23T15:25:54Z</time>
      </trkpt>
      <trkpt lat="39.0686380" lon="1.4901580">
        <ele>135.5</ele>
        <time>2020-02-23T15:25:55Z</time>
      </trkpt>
      <trkpt lat="39.0686090" lon="1.4901070">
        <ele>135.4</ele>
        <time>2020-02-23T15:25:56Z</time>
      </trkpt>
      <trkpt lat="39.0685760" lon="1.4900490">
        <ele>135.4</ele>
        <time>2020-02-23T15:25:57Z</time>
      </trkpt>
      <trkpt lat="39.0685440" lon="1.4899940">
        <ele>135.4</ele>
        <time>2020-02-23T15:25:58Z</time>
      </trkpt>
      <trkpt lat="39.0685110" lon="1.4899360">
        <ele>135.4</ele>
        <time>2020-02-23T15:25:59Z</time>
      </trkpt>
      <trkpt lat="39.0684830" lon="1.4898790">
        <ele>135.4</ele>
        <time>2020-02-23T15:26:00Z</time>
      </trkpt>
      <trkpt lat="39.0684500" lon="1.4898210">
        <ele>135.4</ele>
        <time>2020-02-23T15:26:01Z</time>
      </trkpt>
      <trkpt lat="39.0684200" lon="1.4897670">
        <ele>135.4</ele>
        <time>2020-02-23T15:26:02Z</time>
      </trkpt>
      <trkpt lat="39.0683860" lon="1.4896980">
        <ele>135.4</ele>
        <time>2020-02-23T15:26:03Z</time>
      </trkpt>
      <trkpt lat="39.0683350" lon="1.4896430">
        <ele>135.3</ele>
        <time>2020-02-23T15:26:04Z</time>
      </trkpt>
      <trkpt lat="39.0682970" lon="1.4895820">
        <ele>135.2</ele>
        <time>2020-02-23T15:26:05Z</time>
      </trkpt>
      <trkpt lat="39.0682650" lon="1.4895260">
        <ele>135.1</ele>
        <time>2020-02-23T15:26:06Z</time>
      </trkpt>
      <trkpt lat="39.0682360" lon="1.4894760">
        <ele>135.0</ele>
        <time>2020-02-23T15:26:07Z</time>
      </trkpt>
      <trkpt lat="39.0681970" lon="1.4894290">
        <ele>134.9</ele>
        <time>2020-02-23T15:26:08Z</time>
      </trkpt>
      <trkpt lat="39.0681590" lon="1.4893740">
        <ele>134.7</ele>
        <time>2020-02-23T15:26:09Z</time>
      </trkpt>
      <trkpt lat="39.0681210" lon="1.4893200">
        <ele>134.6</ele>
        <time>2020-02-23T15:26:10Z</time>
      </trkpt>
      <trkpt lat="39.0680870" lon="1.4892640">
        <ele>134.4</ele>
        <time>2020-02-23T15:26:11Z</time>
      </trkpt>
      <trkpt lat="39.0680540" lon="1.4892020">
        <ele>134.2</ele>
        <time>2020-02-23T15:26:12Z</time>
      </trkpt>
      <trkpt lat="39.0680260" lon="1.4891500">
        <ele>134.1</ele>
        <time>2020-02-23T15:26:13Z</time>
      </trkpt>
      <trkpt lat="39.0679960" lon="1.4890850">
        <ele>133.8</ele>
        <time>2020-02-23T15:26:14Z</time>
      </trkpt>
      <trkpt lat="39.0679710" lon="1.4890230">
        <ele>133.6</ele>
        <time>2020-02-23T15:26:15Z</time>
      </trkpt>
      <trkpt lat="39.0679420" lon="1.4889510">
        <ele>133.3</ele>
        <time>2020-02-23T15:26:16Z</time>
      </trkpt>
      <trkpt lat="39.0679200" lon="1.4888860">
        <ele>133.0</ele>
        <time>2020-02-23T15:26:17Z</time>
      </trkpt>
      <trkpt lat="39.0678890" lon="1.4888180">
        <ele>132.7</ele>
        <time>2020-02-23T15:26:18Z</time>
      </trkpt>
      <trkpt lat="39.0678570" lon="1.4887480">
        <ele>132.4</ele>
        <time>2020-02-23T15:26:19Z</time>
      </trkpt>
      <trkpt lat="39.0678280" lon="1.4886830">
        <ele>132.1</ele>
        <time>2020-02-23T15:26:20Z</time>
      </trkpt>
      <trkpt lat="39.0678000" lon="1.4886150">
        <ele>131.8</ele>
        <time>2020-02-23T15:26:21Z</time>
      </trkpt>
      <trkpt lat="39.0677680" lon="1.4885450">
        <ele>131.5</ele>
        <time>2020-02-23T15:26:22Z</time>
      </trkpt>
      <trkpt lat="39.0677370" lon="1.4884770">
        <ele>131.2</ele>
        <time>2020-02-23T15:26:23Z</time>
      </trkpt>
      <trkpt lat="39.0677000" lon="1.4884070">
        <ele>130.9</ele>
        <time>2020-02-23T15:26:24Z</time>
      </trkpt>
      <trkpt lat="39.0676710" lon="1.4883230">
        <ele>130.7</ele>
        <time>2020-02-23T15:26:25Z</time>
      </trkpt>
      <trkpt lat="39.0676390" lon="1.4882510">
        <ele>130.5</ele>
        <time>2020-02-23T15:26:26Z</time>
      </trkpt>
      <trkpt lat="39.0675940" lon="1.4881750">
        <ele>130.3</ele>
        <time>2020-02-23T15:26:27Z</time>
      </trkpt>
      <trkpt lat="39.0675610" lon="1.4881080">
        <ele>130.2</ele>
        <time>2020-02-23T15:26:28Z</time>
      </trkpt>
      <trkpt lat="39.0674970" lon="1.4880330">
        <ele>129.9</ele>
        <time>2020-02-23T15:26:29Z</time>
      </trkpt>
      <trkpt lat="39.0674430" lon="1.4879580">
        <ele>129.5</ele>
        <time>2020-02-23T15:26:30Z</time>
      </trkpt>
      <trkpt lat="39.0673850" lon="1.4878830">
        <ele>129.2</ele>
        <time>2020-02-23T15:26:31Z</time>
      </trkpt>
      <trkpt lat="39.0673240" lon="1.4878100">
        <ele>128.8</ele>
        <time>2020-02-23T15:26:32Z</time>
      </trkpt>
      <trkpt lat="39.0672730" lon="1.4877500">
        <ele>128.5</ele>
        <time>2020-02-23T15:26:33Z</time>
      </trkpt>
      <trkpt lat="39.0672180" lon="1.4876880">
        <ele>128.1</ele>
        <time>2020-02-23T15:26:34Z</time>
      </trkpt>
      <trkpt lat="39.0671670" lon="1.4876310">
        <ele>127.8</ele>
        <time>2020-02-23T15:26:35Z</time>
      </trkpt>
      <trkpt lat="39.0671230" lon="1.4875810">
        <ele>127.6</ele>
        <time>2020-02-23T15:26:36Z</time>
      </trkpt>
      <trkpt lat="39.0670680" lon="1.4875240">
        <ele>127.3</ele>
        <time>2020-02-23T15:26:37Z</time>
      </trkpt>
      <trkpt lat="39.0670140" lon="1.4874580">
        <ele>127.0</ele>
        <time>2020-02-23T15:26:38Z</time>
      </trkpt>
      <trkpt lat="39.0669600" lon="1.4873930">
        <ele>126.7</ele>
        <time>2020-02-23T15:26:39Z</time>
      </trkpt>
      <trkpt lat="39.0669090" lon="1.4873340">
        <ele>126.3</ele>
        <time>2020-02-23T15:26:40Z</time>
      </trkpt>
      <trkpt lat="39.0668560" lon="1.4872720">
        <ele>125.9</ele>
        <time>2020-02-23T15:26:41Z</time>
      </trkpt>
      <trkpt lat="39.0668010" lon="1.4872140">
        <ele>125.5</ele>
        <time>2020-02-23T15:26:42Z</time>
      </trkpt>
      <trkpt lat="39.0667460" lon="1.4871560">
        <ele>125.1</ele>
        <time>2020-02-23T15:26:43Z</time>
      </trkpt>
      <trkpt lat="39.0666940" lon="1.4870930">
        <ele>124.6</ele>
        <time>2020-02-23T15:26:44Z</time>
      </trkpt>
      <trkpt lat="39.0666390" lon="1.4870300">
        <ele>124.2</ele>
        <time>2020-02-23T15:26:45Z</time>
      </trkpt>
      <trkpt lat="39.0665850" lon="1.4869630">
        <ele>123.8</ele>
        <time>2020-02-23T15:26:46Z</time>
      </trkpt>
      <trkpt lat="39.0665290" lon="1.4868990">
        <ele>123.6</ele>
        <time>2020-02-23T15:26:47Z</time>
      </trkpt>
      <trkpt lat="39.0664700" lon="1.4868370">
        <ele>123.5</ele>
        <time>2020-02-23T15:26:48Z</time>
      </trkpt>
      <trkpt lat="39.0664130" lon="1.4867720">
        <ele>123.4</ele>
        <time>2020-02-23T15:26:49Z</time>
      </trkpt>
      <trkpt lat="39.0663530" lon="1.4867080">
        <ele>123.3</ele>
        <time>2020-02-23T15:26:50Z</time>
      </trkpt>
      <trkpt lat="39.0662920" lon="1.4866420">
        <ele>123.2</ele>
        <time>2020-02-23T15:26:51Z</time>
      </trkpt>
      <trkpt lat="39.0662320" lon="1.4865750">
        <ele>123.0</ele>
        <time>2020-02-23T15:26:52Z</time>
      </trkpt>
      <trkpt lat="39.0661720" lon="1.4865050">
        <ele>122.8</ele>
        <time>2020-02-23T15:26:53Z</time>
      </trkpt>
      <trkpt lat="39.0661110" lon="1.4864360">
        <ele>122.6</ele>
        <time>2020-02-23T15:26:54Z</time>
      </trkpt>
      <trkpt lat="39.0660490" lon="1.4863690">
        <ele>122.5</ele>
        <time>2020-02-23T15:26:55Z</time>
      </trkpt>
      <trkpt lat="39.0659910" lon="1.4862990">
        <ele>122.4</ele>
        <time>2020-02-23T15:26:56Z</time>
      </trkpt>
      <trkpt lat="39.0659350" lon="1.4862290">
        <ele>122.3</ele>
        <time>2020-02-23T15:26:57Z</time>
      </trkpt>
      <trkpt lat="39.0658810" lon="1.4861560">
        <ele>122.3</ele>
        <time>2020-02-23T15:26:58Z</time>
      </trkpt>
      <trkpt lat="39.0658280" lon="1.4860850">
        <ele>122.3</ele>
        <time>2020-02-23T15:26:59Z</time>
      </trkpt>
      <trkpt lat="39.0657780" lon="1.4860140">
        <ele>122.3</ele>
        <time>2020-02-23T15:27:00Z</time>
      </trkpt>
      <trkpt lat="39.0657360" lon="1.4859410">
        <ele>122.5</ele>
        <time>2020-02-23T15:27:01Z</time>
      </trkpt>
      <trkpt lat="39.0656970" lon="1.4858670">
        <ele>122.6</ele>
        <time>2020-02-23T15:27:02Z</time>
      </trkpt>
      <trkpt lat="39.0656570" lon="1.4857930">
        <ele>122.7</ele>
        <time>2020-02-23T15:27:03Z</time>
      </trkpt>
      <trkpt lat="39.0656190" lon="1.4857160">
        <ele>122.9</ele>
        <time>2020-02-23T15:27:04Z</time>
      </trkpt>
      <trkpt lat="39.0655820" lon="1.4856400">
        <ele>123.2</ele>
        <time>2020-02-23T15:27:05Z</time>
      </trkpt>
      <trkpt lat="39.0655450" lon="1.4855670">
        <ele>123.4</ele>
        <time>2020-02-23T15:27:06Z</time>
      </trkpt>
      <trkpt lat="39.0655090" lon="1.4854940">
        <ele>123.6</ele>
        <time>2020-02-23T15:27:07Z</time>
      </trkpt>
      <trkpt lat="39.0654830" lon="1.4854140">
        <ele>123.8</ele>
        <time>2020-02-23T15:27:08Z</time>
      </trkpt>
      <trkpt lat="39.0654640" lon="1.4853330">
        <ele>124.0</ele>
        <time>2020-02-23T15:27:09Z</time>
      </trkpt>
      <trkpt lat="39.0654370" lon="1.4852570">
        <ele>124.2</ele>
        <time>2020-02-23T15:27:10Z</time>
      </trkpt>
      <trkpt lat="39.0654170" lon="1.4851800">
        <ele>124.5</ele>
        <time>2020-02-23T15:27:11Z</time>
      </trkpt>
      <trkpt lat="39.0653930" lon="1.4851070">
        <ele>124.8</ele>
        <time>2020-02-23T15:27:12Z</time>
      </trkpt>
      <trkpt lat="39.0653780" lon="1.4850330">
        <ele>125.3</ele>
        <time>2020-02-23T15:27:13Z</time>
      </trkpt>
      <trkpt lat="39.0653630" lon="1.4849600">
        <ele>125.7</ele>
        <time>2020-02-23T15:27:14Z</time>
      </trkpt>
      <trkpt lat="39.0653460" lon="1.4848920">
        <ele>126.1</ele>
        <time>2020-02-23T15:27:15Z</time>
      </trkpt>
      <trkpt lat="39.0653380" lon="1.4848210">
        <ele>126.5</ele>
        <time>2020-02-23T15:27:16Z</time>
      </trkpt>
      <trkpt lat="39.0653190" lon="1.4847610">
        <ele>126.9</ele>
        <time>2020-02-23T15:27:17Z</time>
      </trkpt>
      <trkpt lat="39.0653010" lon="1.4847020">
        <ele>127.2</ele>
        <time>2020-02-23T15:27:18Z</time>
      </trkpt>
      <trkpt lat="39.0652880" lon="1.4846420">
        <ele>127.5</ele>
        <time>2020-02-23T15:27:19Z</time>
      </trkpt>
      <trkpt lat="39.0652730" lon="1.4845850">
        <ele>127.8</ele>
        <time>2020-02-23T15:27:20Z</time>
      </trkpt>
      <trkpt lat="39.0652590" lon="1.4845310">
        <ele>128.1</ele>
        <time>2020-02-23T15:27:21Z</time>
      </trkpt>
      <trkpt lat="39.0652420" lon="1.4844830">
        <ele>128.4</ele>
        <time>2020-02-23T15:27:22Z</time>
      </trkpt>
      <trkpt lat="39.0652330" lon="1.4844330">
        <ele>128.6</ele>
        <time>2020-02-23T15:27:23Z</time>
      </trkpt>
      <trkpt lat="39.0652150" lon="1.4843900">
        <ele>128.9</ele>
        <time>2020-02-23T15:27:24Z</time>
      </trkpt>
      <trkpt lat="39.0651940" lon="1.4843490">
        <ele>129.1</ele>
        <time>2020-02-23T15:27:25Z</time>
      </trkpt>
      <trkpt lat="39.0651800" lon="1.4843040">
        <ele>129.4</ele>
        <time>2020-02-23T15:27:26Z</time>
      </trkpt>
      <trkpt lat="39.0651740" lon="1.4842540">
        <ele>129.7</ele>
        <time>2020-02-23T15:27:27Z</time>
      </trkpt>
      <trkpt lat="39.0651610" lon="1.4842110">
        <ele>129.9</ele>
        <time>2020-02-23T15:27:28Z</time>
      </trkpt>
      <trkpt lat="39.0651460" lon="1.4841680">
        <ele>130.2</ele>
        <time>2020-02-23T15:27:29Z</time>
      </trkpt>
      <trkpt lat="39.0651320" lon="1.4841260">
        <ele>130.5</ele>
        <time>2020-02-23T15:27:30Z</time>
      </trkpt>
      <trkpt lat="39.0651140" lon="1.4840850">
        <ele>130.7</ele>
        <time>2020-02-23T15:27:31Z</time>
      </trkpt>
      <trkpt lat="39.0650960" lon="1.4840470">
        <ele>131.0</ele>
        <time>2020-02-23T15:27:32Z</time>
      </trkpt>
      <trkpt lat="39.0650770" lon="1.4840110">
        <ele>131.2</ele>
        <time>2020-02-23T15:27:33Z</time>
      </trkpt>
      <trkpt lat="39.0650640" lon="1.4839700">
        <ele>131.5</ele>
        <time>2020-02-23T15:27:34Z</time>
      </trkpt>
      <trkpt lat="39.0650500" lon="1.4839280">
        <ele>131.7</ele>
        <time>2020-02-23T15:27:35Z</time>
      </trkpt>
      <trkpt lat="39.0650350" lon="1.4838870">
        <ele>132.0</ele>
        <time>2020-02-23T15:27:36Z</time>
      </trkpt>
      <trkpt lat="39.0650140" lon="1.4838500">
        <ele>132.2</ele>
        <time>2020-02-23T15:27:37Z</time>
      </trkpt>
      <trkpt lat="39.0649970" lon="1.4838170">
        <ele>132.4</ele>
        <time>2020-02-23T15:27:38Z</time>
      </trkpt>
      <trkpt lat="39.0649790" lon="1.4837810">
        <ele>132.6</ele>
        <time>2020-02-23T15:27:39Z</time>
      </trkpt>
      <trkpt lat="39.0649640" lon="1.4837290">
        <ele>132.8</ele>
        <time>2020-02-23T15:27:40Z</time>
      </trkpt>
      <trkpt lat="39.0649510" lon="1.4836950">
        <ele>133.0</ele>
        <time>2020-02-23T15:27:41Z</time>
      </trkpt>
      <trkpt lat="39.0649360" lon="1.4836590">
        <ele>133.1</ele>
        <time>2020-02-23T15:27:42Z</time>
      </trkpt>
      <trkpt lat="39.0649200" lon="1.4836300">
        <ele>133.3</ele>
        <time>2020-02-23T15:27:43Z</time>
      </trkpt>
      <trkpt lat="39.0649000" lon="1.4835880">
        <ele>133.5</ele>
        <time>2020-02-23T15:27:44Z</time>
      </trkpt>
      <trkpt lat="39.0648920" lon="1.4835720">
        <ele>133.5</ele>
        <time>2020-02-23T15:27:45Z</time>
      </trkpt>
      <trkpt lat="39.0648760" lon="1.4835390">
        <ele>133.7</ele>
        <time>2020-02-23T15:27:46Z</time>
      </trkpt>
      <trkpt lat="39.0648670" lon="1.4835010">
        <ele>133.8</ele>
        <time>2020-02-23T15:27:47Z</time>
      </trkpt>
      <trkpt lat="39.0648510" lon="1.4834530">
        <ele>134.0</ele>
        <time>2020-02-23T15:27:48Z</time>
      </trkpt>
      <trkpt lat="39.0648350" lon="1.4834240">
        <ele>134.1</ele>
        <time>2020-02-23T15:27:49Z</time>
      </trkpt>
      <trkpt lat="39.0648170" lon="1.4833880">
        <ele>134.3</ele>
        <time>2020-02-23T15:27:50Z</time>
      </trkpt>
      <trkpt lat="39.0648000" lon="1.4833440">
        <ele>134.4</ele>
        <time>2020-02-23T15:27:51Z</time>
      </trkpt>
      <trkpt lat="39.0647940" lon="1.4833270">
        <ele>134.5</ele>
        <time>2020-02-23T15:27:52Z</time>
      </trkpt>
      <trkpt lat="39.0647830" lon="1.4832920">
        <ele>134.6</ele>
        <time>2020-02-23T15:27:53Z</time>
      </trkpt>
      <trkpt lat="39.0647650" lon="1.4832440">
        <ele>134.8</ele>
        <time>2020-02-23T15:27:54Z</time>
      </trkpt>
      <trkpt lat="39.0647570" lon="1.4832260">
        <ele>134.9</ele>
        <time>2020-02-23T15:27:55Z</time>
      </trkpt>
      <trkpt lat="39.0647480" lon="1.4831860">
        <ele>135.0</ele>
        <time>2020-02-23T15:27:56Z</time>
      </trkpt>
      <trkpt lat="39.0647340" lon="1.4831400">
        <ele>135.1</ele>
        <time>2020-02-23T15:27:57Z</time>
      </trkpt>
      <trkpt lat="39.0647280" lon="1.4831230">
        <ele>135.2</ele>
        <time>2020-02-23T15:27:58Z</time>
      </trkpt>
      <trkpt lat="39.0647160" lon="1.4830870">
        <ele>135.3</ele>
        <time>2020-02-23T15:27:59Z</time>
      </trkpt>
      <trkpt lat="39.0647040" lon="1.4830530">
        <ele>135.3</ele>
        <time>2020-02-23T15:28:00Z</time>
      </trkpt>
      <trkpt lat="39.0646870" lon="1.4830180">
        <ele>135.4</ele>
        <time>2020-02-23T15:28:01Z</time>
      </trkpt>
      <trkpt lat="39.0646710" lon="1.4829820">
        <ele>135.5</ele>
        <time>2020-02-23T15:28:02Z</time>
      </trkpt>
      <trkpt lat="39.0646540" lon="1.4829330">
        <ele>135.6</ele>
        <time>2020-02-23T15:28:03Z</time>
      </trkpt>
      <trkpt lat="39.0646470" lon="1.4829140">
        <ele>135.6</ele>
        <time>2020-02-23T15:28:04Z</time>
      </trkpt>
      <trkpt lat="39.0646310" lon="1.4828790">
        <ele>135.6</ele>
        <time>2020-02-23T15:28:05Z</time>
      </trkpt>
      <trkpt lat="39.0646080" lon="1.4828370">
        <ele>135.7</ele>
        <time>2020-02-23T15:28:06Z</time>
      </trkpt>
      <trkpt lat="39.0645820" lon="1.4827900">
        <ele>135.7</ele>
        <time>2020-02-23T15:28:07Z</time>
      </trkpt>
      <trkpt lat="39.0645660" lon="1.4827560">
        <ele>135.7</ele>
        <time>2020-02-23T15:28:08Z</time>
      </trkpt>
      <trkpt lat="39.0645540" lon="1.4827050">
        <ele>135.7</ele>
        <time>2020-02-23T15:28:09Z</time>
      </trkpt>
      <trkpt lat="39.0645490" lon="1.4826870">
        <ele>135.7</ele>
        <time>2020-02-23T15:28:10Z</time>
      </trkpt>
      <trkpt lat="39.0645310" lon="1.4826300">
        <ele>135.6</ele>
        <time>2020-02-23T15:28:11Z</time>
      </trkpt>
      <trkpt lat="39.0645130" lon="1.4825930">
        <ele>135.6</ele>
        <time>2020-02-23T15:28:12Z</time>
      </trkpt>
      <trkpt lat="39.0644970" lon="1.4825540">
        <ele>135.5</ele>
        <time>2020-02-23T15:28:13Z</time>
      </trkpt>
      <trkpt lat="39.0644790" lon="1.4825120">
        <ele>135.4</ele>
        <time>2020-02-23T15:28:14Z</time>
      </trkpt>
      <trkpt lat="39.0644590" lon="1.4824690">
        <ele>135.3</ele>
        <time>2020-02-23T15:28:15Z</time>
      </trkpt>
      <trkpt lat="39.0644470" lon="1.4824290">
        <ele>135.2</ele>
        <time>2020-02-23T15:28:16Z</time>
      </trkpt>
      <trkpt lat="39.0644300" lon="1.4823900">
        <ele>135.2</ele>
        <time>2020-02-23T15:28:17Z</time>
      </trkpt>
      <trkpt lat="39.0644230" lon="1.4823430">
        <ele>135.0</ele>
        <time>2020-02-23T15:28:18Z</time>
      </trkpt>
      <trkpt lat="39.0644170" lon="1.4823190">
        <ele>135.0</ele>
        <time>2020-02-23T15:28:19Z</time>
      </trkpt>
      <trkpt lat="39.0643950" lon="1.4822530">
        <ele>134.8</ele>
        <time>2020-02-23T15:28:20Z</time>
      </trkpt>
      <trkpt lat="39.0643790" lon="1.4821990">
        <ele>134.7</ele>
        <time>2020-02-23T15:28:21Z</time>
      </trkpt>
      <trkpt lat="39.0643610" lon="1.4821550">
        <ele>134.5</ele>
        <time>2020-02-23T15:28:22Z</time>
      </trkpt>
      <trkpt lat="39.0643390" lon="1.4821010">
        <ele>134.3</ele>
        <time>2020-02-23T15:28:23Z</time>
      </trkpt>
      <trkpt lat="39.0643210" lon="1.4820590">
        <ele>134.2</ele>
        <time>2020-02-23T15:28:24Z</time>
      </trkpt>
      <trkpt lat="39.0643020" lon="1.4820150">
        <ele>134.0</ele>
        <time>2020-02-23T15:28:25Z</time>
      </trkpt>
      <trkpt lat="39.0642850" lon="1.4819620">
        <ele>133.8</ele>
        <time>2020-02-23T15:28:26Z</time>
      </trkpt>
      <trkpt lat="39.0642620" lon="1.4819120">
        <ele>133.6</ele>
        <time>2020-02-23T15:28:27Z</time>
      </trkpt>
      <trkpt lat="39.0642510" lon="1.4818900">
        <ele>133.6</ele>
        <time>2020-02-23T15:28:28Z</time>
      </trkpt>
      <trkpt lat="39.0642260" lon="1.4817970">
        <ele>133.2</ele>
        <time>2020-02-23T15:28:29Z</time>
      </trkpt>
      <trkpt lat="39.0642110" lon="1.4817280">
        <ele>132.9</ele>
        <time>2020-02-23T15:28:30Z</time>
      </trkpt>
      <trkpt lat="39.0641940" lon="1.4816750">
        <ele>132.7</ele>
        <time>2020-02-23T15:28:31Z</time>
      </trkpt>
      <trkpt lat="39.0641740" lon="1.4816140">
        <ele>132.4</ele>
        <time>2020-02-23T15:28:32Z</time>
      </trkpt>
      <trkpt lat="39.0641550" lon="1.4815300">
        <ele>132.1</ele>
        <time>2020-02-23T15:28:33Z</time>
      </trkpt>
      <trkpt lat="39.0641380" lon="1.4814850">
        <ele>131.9</ele>
        <time>2020-02-23T15:28:34Z</time>
      </trkpt>
      <trkpt lat="39.0641160" lon="1.4814230">
        <ele>131.7</ele>
        <time>2020-02-23T15:28:35Z</time>
      </trkpt>
      <trkpt lat="39.0640850" lon="1.4813340">
        <ele>131.4</ele>
        <time>2020-02-23T15:28:36Z</time>
      </trkpt>
      <trkpt lat="39.0640620" lon="1.4812700">
        <ele>131.2</ele>
        <time>2020-02-23T15:28:37Z</time>
      </trkpt>
      <trkpt lat="39.0640360" lon="1.4811970">
        <ele>131.1</ele>
        <time>2020-02-23T15:28:38Z</time>
      </trkpt>
      <trkpt lat="39.0639960" lon="1.4810990">
        <ele>130.9</ele>
        <time>2020-02-23T15:28:39Z</time>
      </trkpt>
      <trkpt lat="39.0639590" lon="1.4810050">
        <ele>130.8</ele>
        <time>2020-02-23T15:28:40Z</time>
      </trkpt>
      <trkpt lat="39.0639210" lon="1.4809170">
        <ele>130.7</ele>
        <time>2020-02-23T15:28:41Z</time>
      </trkpt>
      <trkpt lat="39.0638810" lon="1.4808340">
        <ele>130.7</ele>
        <time>2020-02-23T15:28:42Z</time>
      </trkpt>
      <trkpt lat="39.0638490" lon="1.4807630">
        <ele>130.7</ele>
        <time>2020-02-23T15:28:43Z</time>
      </trkpt>
      <trkpt lat="39.0638180" lon="1.4806940">
        <ele>130.8</ele>
        <time>2020-02-23T15:28:44Z</time>
      </trkpt>
      <trkpt lat="39.0637850" lon="1.4806310">
        <ele>130.8</ele>
        <time>2020-02-23T15:28:45Z</time>
      </trkpt>
      <trkpt lat="39.0637500" lon="1.4805640">
        <ele>130.9</ele>
        <time>2020-02-23T15:28:46Z</time>
      </trkpt>
      <trkpt lat="39.0637150" lon="1.4804980">
        <ele>131.0</ele>
        <time>2020-02-23T15:28:47Z</time>
      </trkpt>
      <trkpt lat="39.0636880" lon="1.4804330">
        <ele>131.1</ele>
        <time>2020-02-23T15:28:48Z</time>
      </trkpt>
      <trkpt lat="39.0636590" lon="1.4803670">
        <ele>131.3</ele>
        <time>2020-02-23T15:28:49Z</time>
      </trkpt>
      <trkpt lat="39.0636240" lon="1.4803040">
        <ele>131.5</ele>
        <time>2020-02-23T15:28:50Z</time>
      </trkpt>
      <trkpt lat="39.0635880" lon="1.4802420">
        <ele>131.7</ele>
        <time>2020-02-23T15:28:51Z</time>
      </trkpt>
      <trkpt lat="39.0635550" lon="1.4801840">
        <ele>132.0</ele>
        <time>2020-02-23T15:28:52Z</time>
      </trkpt>
      <trkpt lat="39.0635310" lon="1.4801180">
        <ele>132.3</ele>
        <time>2020-02-23T15:28:53Z</time>
      </trkpt>
      <trkpt lat="39.0635100" lon="1.4800550">
        <ele>132.7</ele>
        <time>2020-02-23T15:28:54Z</time>
      </trkpt>
      <trkpt lat="39.0634870" lon="1.4799900">
        <ele>133.0</ele>
        <time>2020-02-23T15:28:55Z</time>
      </trkpt>
      <trkpt lat="39.0634640" lon="1.4799250">
        <ele>133.4</ele>
        <time>2020-02-23T15:28:56Z</time>
      </trkpt>
      <trkpt lat="39.0634400" lon="1.4798650">
        <ele>133.9</ele>
        <time>2020-02-23T15:28:57Z</time>
      </trkpt>
      <trkpt lat="39.0634170" lon="1.4798070">
        <ele>134.3</ele>
        <time>2020-02-23T15:28:58Z</time>
      </trkpt>
      <trkpt lat="39.0634140" lon="1.4797520">
        <ele>134.6</ele>
        <time>2020-02-23T15:28:59Z</time>
      </trkpt>
      <trkpt lat="39.0634130" lon="1.4797030">
        <ele>135.0</ele>
        <time>2020-02-23T15:29:00Z</time>
      </trkpt>
      <trkpt lat="39.0634160" lon="1.4796580">
        <ele>135.3</ele>
        <time>2020-02-23T15:29:01Z</time>
      </trkpt>
      <trkpt lat="39.0634100" lon="1.4796200">
        <ele>135.6</ele>
        <time>2020-02-23T15:29:02Z</time>
      </trkpt>
      <trkpt lat="39.0634050" lon="1.4795850">
        <ele>135.8</ele>
        <time>2020-02-23T15:29:03Z</time>
      </trkpt>
      <trkpt lat="39.0634010" lon="1.4795500">
        <ele>136.0</ele>
        <time>2020-02-23T15:29:04Z</time>
      </trkpt>
      <trkpt lat="39.0634050" lon="1.4795120">
        <ele>136.3</ele>
        <time>2020-02-23T15:29:05Z</time>
      </trkpt>
      <trkpt lat="39.0634000" lon="1.4794760">
        <ele>136.6</ele>
        <time>2020-02-23T15:29:06Z</time>
      </trkpt>
      <trkpt lat="39.0633970" lon="1.4794410">
        <ele>136.8</ele>
        <time>2020-02-23T15:29:07Z</time>
      </trkpt>
      <trkpt lat="39.0634010" lon="1.4793900">
        <ele>137.2</ele>
        <time>2020-02-23T15:29:08Z</time>
      </trkpt>
      <trkpt lat="39.0634020" lon="1.4793730">
        <ele>137.3</ele>
        <time>2020-02-23T15:29:09Z</time>
      </trkpt>
      <trkpt lat="39.0634090" lon="1.4793260">
        <ele>137.6</ele>
        <time>2020-02-23T15:29:10Z</time>
      </trkpt>
      <trkpt lat="39.0634140" lon="1.4793110">
        <ele>137.7</ele>
        <time>2020-02-23T15:29:11Z</time>
      </trkpt>
      <trkpt lat="39.0634180" lon="1.4792650">
        <ele>138.0</ele>
        <time>2020-02-23T15:29:12Z</time>
      </trkpt>
      <trkpt lat="39.0634160" lon="1.4792500">
        <ele>138.1</ele>
        <time>2020-02-23T15:29:13Z</time>
      </trkpt>
      <trkpt lat="39.0634080" lon="1.4792110">
        <ele>138.4</ele>
        <time>2020-02-23T15:29:14Z</time>
      </trkpt>
      <trkpt lat="39.0634040" lon="1.4792000">
        <ele>138.4</ele>
        <time>2020-02-23T15:29:15Z</time>
      </trkpt>
      <trkpt lat="39.0634030" lon="1.4791610">
        <ele>138.7</ele>
        <time>2020-02-23T15:29:16Z</time>
      </trkpt>
      <trkpt lat="39.0633980" lon="1.4791250">
        <ele>138.9</ele>
        <time>2020-02-23T15:29:17Z</time>
      </trkpt>
      <trkpt lat="39.0633970" lon="1.4791100">
        <ele>139.0</ele>
        <time>2020-02-23T15:29:18Z</time>
      </trkpt>
      <trkpt lat="39.0633940" lon="1.4790710">
        <ele>139.3</ele>
        <time>2020-02-23T15:29:19Z</time>
      </trkpt>
      <trkpt lat="39.0633930" lon="1.4790320">
        <ele>139.5</ele>
        <time>2020-02-23T15:29:20Z</time>
      </trkpt>
      <trkpt lat="39.0633970" lon="1.4789940">
        <ele>139.7</ele>
        <time>2020-02-23T15:29:21Z</time>
      </trkpt>
      <trkpt lat="39.0633990" lon="1.4789820">
        <ele>139.8</ele>
        <time>2020-02-23T15:29:22Z</time>
      </trkpt>
      <trkpt lat="39.0634010" lon="1.4789390">
        <ele>140.1</ele>
        <time>2020-02-23T15:29:23Z</time>
      </trkpt>
      <trkpt lat="39.0634000" lon="1.4789260">
        <ele>140.1</ele>
        <time>2020-02-23T15:29:24Z</time>
      </trkpt>
      <trkpt lat="39.0633960" lon="1.4788770">
        <ele>140.4</ele>
        <time>2020-02-23T15:29:25Z</time>
      </trkpt>
      <trkpt lat="39.0634010" lon="1.4788410">
        <ele>140.7</ele>
        <time>2020-02-23T15:29:26Z</time>
      </trkpt>
      <trkpt lat="39.0634000" lon="1.4788250">
        <ele>140.8</ele>
        <time>2020-02-23T15:29:27Z</time>
      </trkpt>
      <trkpt lat="39.0634060" lon="1.4787750">
        <ele>141.1</ele>
        <time>2020-02-23T15:29:28Z</time>
      </trkpt>
      <trkpt lat="39.0634120" lon="1.4787570">
        <ele>141.2</ele>
        <time>2020-02-23T15:29:29Z</time>
      </trkpt>
      <trkpt lat="39.0634110" lon="1.4787160">
        <ele>141.4</ele>
        <time>2020-02-23T15:29:30Z</time>
      </trkpt>
      <trkpt lat="39.0634080" lon="1.4787070">
        <ele>141.5</ele>
        <time>2020-02-23T15:29:31Z</time>
      </trkpt>
      <trkpt lat="39.0634040" lon="1.4786710">
        <ele>141.7</ele>
        <time>2020-02-23T15:29:32Z</time>
      </trkpt>
      <trkpt lat="39.0634050" lon="1.4786560">
        <ele>141.7</ele>
        <time>2020-02-23T15:29:33Z</time>
      </trkpt>
      <trkpt lat="39.0634020" lon="1.4786040">
        <ele>142.0</ele>
        <time>2020-02-23T15:29:34Z</time>
      </trkpt>
      <trkpt lat="39.0633990" lon="1.4785820">
        <ele>142.1</ele>
        <time>2020-02-23T15:29:35Z</time>
      </trkpt>
      <trkpt lat="39.0633970" lon="1.4785450">
        <ele>142.3</ele>
        <time>2020-02-23T15:29:36Z</time>
      </trkpt>
      <trkpt lat="39.0633990" lon="1.4785300">
        <ele>142.4</ele>
        <time>2020-02-23T15:29:37Z</time>
      </trkpt>
      <trkpt lat="39.0633980" lon="1.4784990">
        <ele>142.5</ele>
        <time>2020-02-23T15:29:38Z</time>
      </trkpt>
      <trkpt lat="39.0633970" lon="1.4784590">
        <ele>142.7</ele>
        <time>2020-02-23T15:29:39Z</time>
      </trkpt>
      <trkpt lat="39.0633950" lon="1.4784420">
        <ele>142.7</ele>
        <time>2020-02-23T15:29:40Z</time>
      </trkpt>
      <trkpt lat="39.0633880" lon="1.4784020">
        <ele>142.9</ele>
        <time>2020-02-23T15:29:41Z</time>
      </trkpt>
      <trkpt lat="39.0633840" lon="1.4783580">
        <ele>143.1</ele>
        <time>2020-02-23T15:29:42Z</time>
      </trkpt>
      <trkpt lat="39.0633820" lon="1.4783480">
        <ele>143.1</ele>
        <time>2020-02-23T15:29:43Z</time>
      </trkpt>
      <trkpt lat="39.0633800" lon="1.4783030">
        <ele>143.3</ele>
        <time>2020-02-23T15:29:44Z</time>
      </trkpt>
      <trkpt lat="39.0633800" lon="1.4782860">
        <ele>143.3</ele>
        <time>2020-02-23T15:29:45Z</time>
      </trkpt>
      <trkpt lat="39.0633760" lon="1.4782490">
        <ele>143.4</ele>
        <time>2020-02-23T15:29:46Z</time>
      </trkpt>
      <trkpt lat="39.0633720" lon="1.4782380">
        <ele>143.5</ele>
        <time>2020-02-23T15:29:47Z</time>
      </trkpt>
      <trkpt lat="39.0633700" lon="1.4781970">
        <ele>143.6</ele>
        <time>2020-02-23T15:29:48Z</time>
      </trkpt>
      <trkpt lat="39.0633660" lon="1.4781840">
        <ele>143.6</ele>
        <time>2020-02-23T15:29:49Z</time>
      </trkpt>
      <trkpt lat="39.0633700" lon="1.4781460">
        <ele>143.7</ele>
        <time>2020-02-23T15:29:50Z</time>
      </trkpt>
      <trkpt lat="39.0633670" lon="1.4780990">
        <ele>143.8</ele>
        <time>2020-02-23T15:29:51Z</time>
      </trkpt>
      <trkpt lat="39.0633640" lon="1.4780820">
        <ele>143.9</ele>
        <time>2020-02-23T15:29:52Z</time>
      </trkpt>
      <trkpt lat="39.0633570" lon="1.4780300">
        <ele>144.0</ele>
        <time>2020-02-23T15:29:53Z</time>
      </trkpt>
      <trkpt lat="39.0633520" lon="1.4780100">
        <ele>144.0</ele>
        <time>2020-02-23T15:29:54Z</time>
      </trkpt>
      <trkpt lat="39.0633440" lon="1.4779660">
        <ele>144.1</ele>
        <time>2020-02-23T15:29:55Z</time>
      </trkpt>
      <trkpt lat="39.0633360" lon="1.4779220">
        <ele>144.2</ele>
        <time>2020-02-23T15:29:56Z</time>
      </trkpt>
      <trkpt lat="39.0633290" lon="1.4778850">
        <ele>144.3</ele>
        <time>2020-02-23T15:29:57Z</time>
      </trkpt>
      <trkpt lat="39.0633160" lon="1.4778360">
        <ele>144.4</ele>
        <time>2020-02-23T15:29:58Z</time>
      </trkpt>
      <trkpt lat="39.0633110" lon="1.4778190">
        <ele>144.4</ele>
        <time>2020-02-23T15:29:59Z</time>
      </trkpt>
      <trkpt lat="39.0633020" lon="1.4777840">
        <ele>144.5</ele>
        <time>2020-02-23T15:30:00Z</time>
      </trkpt>
      <trkpt lat="39.0632980" lon="1.4777350">
        <ele>144.5</ele>
        <time>2020-02-23T15:30:01Z</time>
      </trkpt>
      <trkpt lat="39.0632930" lon="1.4776820">
        <ele>144.6</ele>
        <time>2020-02-23T15:30:02Z</time>
      </trkpt>
      <trkpt lat="39.0632910" lon="1.4776380">
        <ele>144.7</ele>
        <time>2020-02-23T15:30:03Z</time>
      </trkpt>
      <trkpt lat="39.0632800" lon="1.4776020">
        <ele>144.8</ele>
        <time>2020-02-23T15:30:04Z</time>
      </trkpt>
      <trkpt lat="39.0632780" lon="1.4775670">
        <ele>144.8</ele>
        <time>2020-02-23T15:30:05Z</time>
      </trkpt>
      <trkpt lat="39.0632670" lon="1.4775280">
        <ele>144.8</ele>
        <time>2020-02-23T15:30:06Z</time>
      </trkpt>
      <trkpt lat="39.0632550" lon="1.4774860">
        <ele>144.9</ele>
        <time>2020-02-23T15:30:07Z</time>
      </trkpt>
      <trkpt lat="39.0632400" lon="1.4774500">
        <ele>144.9</ele>
        <time>2020-02-23T15:30:08Z</time>
      </trkpt>
      <trkpt lat="39.0632270" lon="1.4774070">
        <ele>144.9</ele>
        <time>2020-02-23T15:30:09Z</time>
      </trkpt>
      <trkpt lat="39.0632190" lon="1.4773640">
        <ele>145.0</ele>
        <time>2020-02-23T15:30:10Z</time>
      </trkpt>
      <trkpt lat="39.0632050" lon="1.4773320">
        <ele>145.0</ele>
        <time>2020-02-23T15:30:11Z</time>
      </trkpt>
      <trkpt lat="39.0631950" lon="1.4772970">
        <ele>145.0</ele>
        <time>2020-02-23T15:30:12Z</time>
      </trkpt>
      <trkpt lat="39.0631810" lon="1.4772650">
        <ele>145.0</ele>
        <time>2020-02-23T15:30:13Z</time>
      </trkpt>
      <trkpt lat="39.0631750" lon="1.4772280">
        <ele>145.0</ele>
        <time>2020-02-23T15:30:14Z</time>
      </trkpt>
      <trkpt lat="39.0631590" lon="1.4771670">
        <ele>145.0</ele>
        <time>2020-02-23T15:30:15Z</time>
      </trkpt>
      <trkpt lat="39.0631470" lon="1.4771200">
        <ele>145.0</ele>
        <time>2020-02-23T15:30:16Z</time>
      </trkpt>
      <trkpt lat="39.0631340" lon="1.4770740">
        <ele>145.0</ele>
        <time>2020-02-23T15:30:17Z</time>
      </trkpt>
      <trkpt lat="39.0631240" lon="1.4770400">
        <ele>145.0</ele>
        <time>2020-02-23T15:30:18Z</time>
      </trkpt>
      <trkpt lat="39.0630990" lon="1.4769810">
        <ele>145.0</ele>
        <time>2020-02-23T15:30:19Z</time>
      </trkpt>
      <trkpt lat="39.0630830" lon="1.4769490">
        <ele>145.0</ele>
        <time>2020-02-23T15:30:20Z</time>
      </trkpt>
      <trkpt lat="39.0630690" lon="1.4769090">
        <ele>145.0</ele>
        <time>2020-02-23T15:30:21Z</time>
      </trkpt>
      <trkpt lat="39.0630540" lon="1.4768550">
        <ele>145.0</ele>
        <time>2020-02-23T15:30:22Z</time>
      </trkpt>
      <trkpt lat="39.0630370" lon="1.4768120">
        <ele>145.0</ele>
        <time>2020-02-23T15:30:23Z</time>
      </trkpt>
      <trkpt lat="39.0630210" lon="1.4767790">
        <ele>145.0</ele>
        <time>2020-02-23T15:30:24Z</time>
      </trkpt>
      <trkpt lat="39.0630030" lon="1.4767280">
        <ele>145.0</ele>
        <time>2020-02-23T15:30:25Z</time>
      </trkpt>
      <trkpt lat="39.0629840" lon="1.4766830">
        <ele>145.0</ele>
        <time>2020-02-23T15:30:26Z</time>
      </trkpt>
      <trkpt lat="39.0629680" lon="1.4766310">
        <ele>145.0</ele>
        <time>2020-02-23T15:30:27Z</time>
      </trkpt>
      <trkpt lat="39.0629530" lon="1.4765840">
        <ele>145.1</ele>
        <time>2020-02-23T15:30:28Z</time>
      </trkpt>
      <trkpt lat="39.0629410" lon="1.4765430">
        <ele>145.1</ele>
        <time>2020-02-23T15:30:29Z</time>
      </trkpt>
      <trkpt lat="39.0629290" lon="1.4764950">
        <ele>145.1</ele>
        <time>2020-02-23T15:30:30Z</time>
      </trkpt>
      <trkpt lat="39.0629160" lon="1.4764460">
        <ele>145.1</ele>
        <time>2020-02-23T15:30:31Z</time>
      </trkpt>
      <trkpt lat="39.0629020" lon="1.4763900">
        <ele>145.1</ele>
        <time>2020-02-23T15:30:32Z</time>
      </trkpt>
      <trkpt lat="39.0628880" lon="1.4763460">
        <ele>145.1</ele>
        <time>2020-02-23T15:30:33Z</time>
      </trkpt>
      <trkpt lat="39.0628830" lon="1.4763010">
        <ele>145.1</ele>
        <time>2020-02-23T15:30:34Z</time>
      </trkpt>
      <trkpt lat="39.0628730" lon="1.4762500">
        <ele>145.1</ele>
        <time>2020-02-23T15:30:35Z</time>
      </trkpt>
      <trkpt lat="39.0628670" lon="1.4762080">
        <ele>145.1</ele>
        <time>2020-02-23T15:30:36Z</time>
      </trkpt>
      <trkpt lat="39.0628640" lon="1.4761630">
        <ele>145.1</ele>
        <time>2020-02-23T15:30:37Z</time>
      </trkpt>
      <trkpt lat="39.0628560" lon="1.4761240">
        <ele>145.1</ele>
        <time>2020-02-23T15:30:38Z</time>
      </trkpt>
      <trkpt lat="39.0628550" lon="1.4760740">
        <ele>145.1</ele>
        <time>2020-02-23T15:30:39Z</time>
      </trkpt>
      <trkpt lat="39.0628510" lon="1.4760230">
        <ele>145.1</ele>
        <time>2020-02-23T15:30:40Z</time>
      </trkpt>
      <trkpt lat="39.0628440" lon="1.4759800">
        <ele>145.1</ele>
        <time>2020-02-23T15:30:41Z</time>
      </trkpt>
      <trkpt lat="39.0628340" lon="1.4759410">
        <ele>145.1</ele>
        <time>2020-02-23T15:30:42Z</time>
      </trkpt>
      <trkpt lat="39.0628280" lon="1.4759020">
        <ele>145.1</ele>
        <time>2020-02-23T15:30:43Z</time>
      </trkpt>
      <trkpt lat="39.0628190" lon="1.4758510">
        <ele>145.1</ele>
        <time>2020-02-23T15:30:44Z</time>
      </trkpt>
      <trkpt lat="39.0628110" lon="1.4757810">
        <ele>145.1</ele>
        <time>2020-02-23T15:30:45Z</time>
      </trkpt>
      <trkpt lat="39.0628000" lon="1.4757250">
        <ele>145.1</ele>
        <time>2020-02-23T15:30:46Z</time>
      </trkpt>
      <trkpt lat="39.0627930" lon="1.4756730">
        <ele>145.1</ele>
        <time>2020-02-23T15:30:47Z</time>
      </trkpt>
      <trkpt lat="39.0627880" lon="1.4756180">
        <ele>145.1</ele>
        <time>2020-02-23T15:30:48Z</time>
      </trkpt>
      <trkpt lat="39.0627850" lon="1.4755590">
        <ele>145.1</ele>
        <time>2020-02-23T15:30:49Z</time>
      </trkpt>
      <trkpt lat="39.0627830" lon="1.4755020">
        <ele>145.1</ele>
        <time>2020-02-23T15:30:50Z</time>
      </trkpt>
      <trkpt lat="39.0627790" lon="1.4754500">
        <ele>145.1</ele>
        <time>2020-02-23T15:30:51Z</time>
      </trkpt>
      <trkpt lat="39.0627750" lon="1.4754020">
        <ele>145.1</ele>
        <time>2020-02-23T15:30:52Z</time>
      </trkpt>
      <trkpt lat="39.0627740" lon="1.4753560">
        <ele>145.1</ele>
        <time>2020-02-23T15:30:53Z</time>
      </trkpt>
      <trkpt lat="39.0627650" lon="1.4752890">
        <ele>145.2</ele>
        <time>2020-02-23T15:30:54Z</time>
      </trkpt>
      <trkpt lat="39.0627600" lon="1.4752370">
        <ele>145.2</ele>
        <time>2020-02-23T15:30:55Z</time>
      </trkpt>
      <trkpt lat="39.0627570" lon="1.4752160">
        <ele>145.2</ele>
        <time>2020-02-23T15:30:56Z</time>
      </trkpt>
      <trkpt lat="39.0627660" lon="1.4751580">
        <ele>145.2</ele>
        <time>2020-02-23T15:30:57Z</time>
      </trkpt>
      <trkpt lat="39.0627660" lon="1.4751020">
        <ele>145.3</ele>
        <time>2020-02-23T15:30:58Z</time>
      </trkpt>
      <trkpt lat="39.0627650" lon="1.4750580">
        <ele>145.3</ele>
        <time>2020-02-23T15:30:59Z</time>
      </trkpt>
      <trkpt lat="39.0627620" lon="1.4750040">
        <ele>145.3</ele>
        <time>2020-02-23T15:31:00Z</time>
      </trkpt>
      <trkpt lat="39.0627460" lon="1.4749590">
        <ele>145.4</ele>
        <time>2020-02-23T15:31:01Z</time>
      </trkpt>
      <trkpt lat="39.0627390" lon="1.4749070">
        <ele>145.5</ele>
        <time>2020-02-23T15:31:02Z</time>
      </trkpt>
      <trkpt lat="39.0627280" lon="1.4748600">
        <ele>145.5</ele>
        <time>2020-02-23T15:31:03Z</time>
      </trkpt>
      <trkpt lat="39.0627190" lon="1.4748040">
        <ele>145.6</ele>
        <time>2020-02-23T15:31:04Z</time>
      </trkpt>
      <trkpt lat="39.0627160" lon="1.4747490">
        <ele>145.7</ele>
        <time>2020-02-23T15:31:05Z</time>
      </trkpt>
      <trkpt lat="39.0627080" lon="1.4746750">
        <ele>145.8</ele>
        <time>2020-02-23T15:31:06Z</time>
      </trkpt>
      <trkpt lat="39.0627020" lon="1.4746240">
        <ele>145.8</ele>
        <time>2020-02-23T15:31:07Z</time>
      </trkpt>
      <trkpt lat="39.0626950" lon="1.4745720">
        <ele>145.9</ele>
        <time>2020-02-23T15:31:08Z</time>
      </trkpt>
      <trkpt lat="39.0626900" lon="1.4745320">
        <ele>146.0</ele>
        <time>2020-02-23T15:31:09Z</time>
      </trkpt>
      <trkpt lat="39.0626870" lon="1.4744860">
        <ele>146.1</ele>
        <time>2020-02-23T15:31:10Z</time>
      </trkpt>
      <trkpt lat="39.0626820" lon="1.4744290">
        <ele>146.2</ele>
        <time>2020-02-23T15:31:11Z</time>
      </trkpt>
      <trkpt lat="39.0626750" lon="1.4743740">
        <ele>146.3</ele>
        <time>2020-02-23T15:31:12Z</time>
      </trkpt>
      <trkpt lat="39.0626710" lon="1.4743250">
        <ele>146.4</ele>
        <time>2020-02-23T15:31:13Z</time>
      </trkpt>
      <trkpt lat="39.0626680" lon="1.4742680">
        <ele>146.5</ele>
        <time>2020-02-23T15:31:14Z</time>
      </trkpt>
      <trkpt lat="39.0626650" lon="1.4742290">
        <ele>146.5</ele>
        <time>2020-02-23T15:31:15Z</time>
      </trkpt>
      <trkpt lat="39.0626570" lon="1.4741860">
        <ele>146.6</ele>
        <time>2020-02-23T15:31:16Z</time>
      </trkpt>
      <trkpt lat="39.0626480" lon="1.4741530">
        <ele>146.7</ele>
        <time>2020-02-23T15:31:17Z</time>
      </trkpt>
      <trkpt lat="39.0626350" lon="1.4741070">
        <ele>146.8</ele>
        <time>2020-02-23T15:31:18Z</time>
      </trkpt>
      <trkpt lat="39.0626310" lon="1.4740900">
        <ele>146.8</ele>
        <time>2020-02-23T15:31:19Z</time>
      </trkpt>
      <trkpt lat="39.0626280" lon="1.4740260">
        <ele>146.9</ele>
        <time>2020-02-23T15:31:20Z</time>
      </trkpt>
      <trkpt lat="39.0626310" lon="1.4739710">
        <ele>147.0</ele>
        <time>2020-02-23T15:31:21Z</time>
      </trkpt>
      <trkpt lat="39.0626310" lon="1.4739360">
        <ele>147.0</ele>
        <time>2020-02-23T15:31:22Z</time>
      </trkpt>
      <trkpt lat="39.0626280" lon="1.4738700">
        <ele>147.1</ele>
        <time>2020-02-23T15:31:23Z</time>
      </trkpt>
      <trkpt lat="39.0626250" lon="1.4738370">
        <ele>147.2</ele>
        <time>2020-02-23T15:31:24Z</time>
      </trkpt>
      <trkpt lat="39.0626240" lon="1.4737900">
        <ele>147.2</ele>
        <time>2020-02-23T15:31:25Z</time>
      </trkpt>
      <trkpt lat="39.0626190" lon="1.4737420">
        <ele>147.3</ele>
        <time>2020-02-23T15:31:26Z</time>
      </trkpt>
      <trkpt lat="39.0626070" lon="1.4737000">
        <ele>147.4</ele>
        <time>2020-02-23T15:31:27Z</time>
      </trkpt>
      <trkpt lat="39.0625970" lon="1.4736470">
        <ele>147.5</ele>
        <time>2020-02-23T15:31:28Z</time>
      </trkpt>
      <trkpt lat="39.0625840" lon="1.4735940">
        <ele>147.5</ele>
        <time>2020-02-23T15:31:29Z</time>
      </trkpt>
      <trkpt lat="39.0625740" lon="1.4735370">
        <ele>147.6</ele>
        <time>2020-02-23T15:31:30Z</time>
      </trkpt>
      <trkpt lat="39.0625610" lon="1.4734870">
        <ele>147.6</ele>
        <time>2020-02-23T15:31:31Z</time>
      </trkpt>
      <trkpt lat="39.0625490" lon="1.4734470">
        <ele>147.6</ele>
        <time>2020-02-23T15:31:32Z</time>
      </trkpt>
      <trkpt lat="39.0625340" lon="1.4734070">
        <ele>147.6</ele>
        <time>2020-02-23T15:31:33Z</time>
      </trkpt>
      <trkpt lat="39.0625220" lon="1.4733590">
        <ele>147.6</ele>
        <time>2020-02-23T15:31:34Z</time>
      </trkpt>
      <trkpt lat="39.0625080" lon="1.4733140">
        <ele>147.5</ele>
        <time>2020-02-23T15:31:35Z</time>
      </trkpt>
      <trkpt lat="39.0624930" lon="1.4732710">
        <ele>147.5</ele>
        <time>2020-02-23T15:31:36Z</time>
      </trkpt>
      <trkpt lat="39.0624720" lon="1.4732130">
        <ele>147.4</ele>
        <time>2020-02-23T15:31:37Z</time>
      </trkpt>
      <trkpt lat="39.0624540" lon="1.4731570">
        <ele>147.4</ele>
        <time>2020-02-23T15:31:38Z</time>
      </trkpt>
      <trkpt lat="39.0624400" lon="1.4731050">
        <ele>147.3</ele>
        <time>2020-02-23T15:31:39Z</time>
      </trkpt>
      <trkpt lat="39.0624250" lon="1.4730530">
        <ele>147.2</ele>
        <time>2020-02-23T15:31:40Z</time>
      </trkpt>
      <trkpt lat="39.0624150" lon="1.4729970">
        <ele>147.1</ele>
        <time>2020-02-23T15:31:41Z</time>
      </trkpt>
      <trkpt lat="39.0624020" lon="1.4729370">
        <ele>147.0</ele>
        <time>2020-02-23T15:31:42Z</time>
      </trkpt>
      <trkpt lat="39.0623910" lon="1.4728870">
        <ele>146.9</ele>
        <time>2020-02-23T15:31:43Z</time>
      </trkpt>
      <trkpt lat="39.0623790" lon="1.4728330">
        <ele>146.8</ele>
        <time>2020-02-23T15:31:44Z</time>
      </trkpt>
      <trkpt lat="39.0623680" lon="1.4727850">
        <ele>146.7</ele>
        <time>2020-02-23T15:31:45Z</time>
      </trkpt>
      <trkpt lat="39.0623560" lon="1.4727390">
        <ele>146.6</ele>
        <time>2020-02-23T15:31:46Z</time>
      </trkpt>
      <trkpt lat="39.0623370" lon="1.4726860">
        <ele>146.5</ele>
        <time>2020-02-23T15:31:47Z</time>
      </trkpt>
      <trkpt lat="39.0623230" lon="1.4726300">
        <ele>146.3</ele>
        <time>2020-02-23T15:31:48Z</time>
      </trkpt>
      <trkpt lat="39.0623030" lon="1.4725730">
        <ele>146.1</ele>
        <time>2020-02-23T15:31:49Z</time>
      </trkpt>
      <trkpt lat="39.0622840" lon="1.4725190">
        <ele>146.0</ele>
        <time>2020-02-23T15:31:50Z</time>
      </trkpt>
      <trkpt lat="39.0622660" lon="1.4724620">
        <ele>145.8</ele>
        <time>2020-02-23T15:31:51Z</time>
      </trkpt>
      <trkpt lat="39.0622450" lon="1.4723990">
        <ele>145.7</ele>
        <time>2020-02-23T15:31:52Z</time>
      </trkpt>
      <trkpt lat="39.0622270" lon="1.4723520">
        <ele>145.6</ele>
        <time>2020-02-23T15:31:53Z</time>
      </trkpt>
      <trkpt lat="39.0622110" lon="1.4723040">
        <ele>145.5</ele>
        <time>2020-02-23T15:31:54Z</time>
      </trkpt>
      <trkpt lat="39.0621890" lon="1.4722460">
        <ele>145.3</ele>
        <time>2020-02-23T15:31:55Z</time>
      </trkpt>
      <trkpt lat="39.0621730" lon="1.4721960">
        <ele>145.2</ele>
        <time>2020-02-23T15:31:56Z</time>
      </trkpt>
      <trkpt lat="39.0621530" lon="1.4721330">
        <ele>145.0</ele>
        <time>2020-02-23T15:31:57Z</time>
      </trkpt>
      <trkpt lat="39.0621320" lon="1.4720760">
        <ele>144.7</ele>
        <time>2020-02-23T15:31:58Z</time>
      </trkpt>
      <trkpt lat="39.0620950" lon="1.4719930">
        <ele>144.5</ele>
        <time>2020-02-23T15:31:59Z</time>
      </trkpt>
      <trkpt lat="39.0620700" lon="1.4719300">
        <ele>144.2</ele>
        <time>2020-02-23T15:32:00Z</time>
      </trkpt>
      <trkpt lat="39.0620320" lon="1.4718640">
        <ele>143.9</ele>
        <time>2020-02-23T15:32:01Z</time>
      </trkpt>
      <trkpt lat="39.0620110" lon="1.4718210">
        <ele>143.7</ele>
        <time>2020-02-23T15:32:02Z</time>
      </trkpt>
      <trkpt lat="39.0619730" lon="1.4717650">
        <ele>143.4</ele>
        <time>2020-02-23T15:32:03Z</time>
      </trkpt>
      <trkpt lat="39.0619440" lon="1.4717070">
        <ele>143.1</ele>
        <time>2020-02-23T15:32:04Z</time>
      </trkpt>
      <trkpt lat="39.0619050" lon="1.4716420">
        <ele>142.6</ele>
        <time>2020-02-23T15:32:05Z</time>
      </trkpt>
      <trkpt lat="39.0618650" lon="1.4715720">
        <ele>142.2</ele>
        <time>2020-02-23T15:32:06Z</time>
      </trkpt>
      <trkpt lat="39.0618330" lon="1.4715130">
        <ele>141.8</ele>
        <time>2020-02-23T15:32:07Z</time>
      </trkpt>
      <trkpt lat="39.0617930" lon="1.4714450">
        <ele>141.4</ele>
        <time>2020-02-23T15:32:08Z</time>
      </trkpt>
      <trkpt lat="39.0617480" lon="1.4713690">
        <ele>141.2</ele>
        <time>2020-02-23T15:32:09Z</time>
      </trkpt>
      <trkpt lat="39.0617110" lon="1.4713000">
        <ele>141.1</ele>
        <time>2020-02-23T15:32:10Z</time>
      </trkpt>
      <trkpt lat="39.0616670" lon="1.4712270">
        <ele>140.9</ele>
        <time>2020-02-23T15:32:11Z</time>
      </trkpt>
      <trkpt lat="39.0616180" lon="1.4711570">
        <ele>140.7</ele>
        <time>2020-02-23T15:32:12Z</time>
      </trkpt>
      <trkpt lat="39.0615680" lon="1.4710880">
        <ele>140.5</ele>
        <time>2020-02-23T15:32:13Z</time>
      </trkpt>
      <trkpt lat="39.0615230" lon="1.4710180">
        <ele>140.3</ele>
        <time>2020-02-23T15:32:14Z</time>
      </trkpt>
      <trkpt lat="39.0614790" lon="1.4709410">
        <ele>140.1</ele>
        <time>2020-02-23T15:32:15Z</time>
      </trkpt>
      <trkpt lat="39.0614400" lon="1.4708710">
        <ele>139.9</ele>
        <time>2020-02-23T15:32:16Z</time>
      </trkpt>
      <trkpt lat="39.0613960" lon="1.4708050">
        <ele>139.7</ele>
        <time>2020-02-23T15:32:17Z</time>
      </trkpt>
      <trkpt lat="39.0613540" lon="1.4707380">
        <ele>139.4</ele>
        <time>2020-02-23T15:32:18Z</time>
      </trkpt>
      <trkpt lat="39.0613130" lon="1.4706730">
        <ele>139.1</ele>
        <time>2020-02-23T15:32:19Z</time>
      </trkpt>
      <trkpt lat="39.0612700" lon="1.4706060">
        <ele>138.9</ele>
        <time>2020-02-23T15:32:20Z</time>
      </trkpt>
      <trkpt lat="39.0612250" lon="1.4705380">
        <ele>138.7</ele>
        <time>2020-02-23T15:32:21Z</time>
      </trkpt>
      <trkpt lat="39.0611850" lon="1.4704690">
        <ele>138.4</ele>
        <time>2020-02-23T15:32:22Z</time>
      </trkpt>
      <trkpt lat="39.0611460" lon="1.4704010">
        <ele>138.2</ele>
        <time>2020-02-23T15:32:23Z</time>
      </trkpt>
      <trkpt lat="39.0611070" lon="1.4703320">
        <ele>137.9</ele>
        <time>2020-02-23T15:32:24Z</time>
      </trkpt>
      <trkpt lat="39.0610670" lon="1.4702650">
        <ele>137.6</ele>
        <time>2020-02-23T15:32:25Z</time>
      </trkpt>
      <trkpt lat="39.0610270" lon="1.4701940">
        <ele>137.4</ele>
        <time>2020-02-23T15:32:26Z</time>
      </trkpt>
      <trkpt lat="39.0609860" lon="1.4701250">
        <ele>137.1</ele>
        <time>2020-02-23T15:32:27Z</time>
      </trkpt>
      <trkpt lat="39.0609490" lon="1.4700560">
        <ele>136.9</ele>
        <time>2020-02-23T15:32:28Z</time>
      </trkpt>
      <trkpt lat="39.0609120" lon="1.4699850">
        <ele>136.7</ele>
        <time>2020-02-23T15:32:29Z</time>
      </trkpt>
      <trkpt lat="39.0608740" lon="1.4699140">
        <ele>136.5</ele>
        <time>2020-02-23T15:32:30Z</time>
      </trkpt>
      <trkpt lat="39.0608390" lon="1.4698400">
        <ele>136.3</ele>
        <time>2020-02-23T15:32:31Z</time>
      </trkpt>
      <trkpt lat="39.0608080" lon="1.4697650">
        <ele>136.1</ele>
        <time>2020-02-23T15:32:32Z</time>
      </trkpt>
      <trkpt lat="39.0607860" lon="1.4696860">
        <ele>136.0</ele>
        <time>2020-02-23T15:32:33Z</time>
      </trkpt>
      <trkpt lat="39.0607550" lon="1.4696100">
        <ele>135.8</ele>
        <time>2020-02-23T15:32:34Z</time>
      </trkpt>
      <trkpt lat="39.0607240" lon="1.4695340">
        <ele>135.6</ele>
        <time>2020-02-23T15:32:35Z</time>
      </trkpt>
      <trkpt lat="39.0606960" lon="1.4694570">
        <ele>135.6</ele>
        <time>2020-02-23T15:32:36Z</time>
      </trkpt>
      <trkpt lat="39.0606640" lon="1.4693830">
        <ele>135.5</ele>
        <time>2020-02-23T15:32:37Z</time>
      </trkpt>
      <trkpt lat="39.0606350" lon="1.4693090">
        <ele>135.5</ele>
        <time>2020-02-23T15:32:38Z</time>
      </trkpt>
      <trkpt lat="39.0606080" lon="1.4692360">
        <ele>135.4</ele>
        <time>2020-02-23T15:32:39Z</time>
      </trkpt>
      <trkpt lat="39.0605860" lon="1.4691610">
        <ele>135.4</ele>
        <time>2020-02-23T15:32:40Z</time>
      </trkpt>
      <trkpt lat="39.0605590" lon="1.4690910">
        <ele>135.4</ele>
        <time>2020-02-23T15:32:41Z</time>
      </trkpt>
      <trkpt lat="39.0605370" lon="1.4690210">
        <ele>135.4</ele>
        <time>2020-02-23T15:32:42Z</time>
      </trkpt>
      <trkpt lat="39.0605140" lon="1.4689550">
        <ele>135.4</ele>
        <time>2020-02-23T15:32:43Z</time>
      </trkpt>
      <trkpt lat="39.0604880" lon="1.4688930">
        <ele>135.4</ele>
        <time>2020-02-23T15:32:44Z</time>
      </trkpt>
      <trkpt lat="39.0604660" lon="1.4688310">
        <ele>135.4</ele>
        <time>2020-02-23T15:32:45Z</time>
      </trkpt>
      <trkpt lat="39.0604500" lon="1.4687680">
        <ele>135.4</ele>
        <time>2020-02-23T15:32:46Z</time>
      </trkpt>
      <trkpt lat="39.0604420" lon="1.4687010">
        <ele>135.4</ele>
        <time>2020-02-23T15:32:47Z</time>
      </trkpt>
      <trkpt lat="39.0604240" lon="1.4686410">
        <ele>135.4</ele>
        <time>2020-02-23T15:32:48Z</time>
      </trkpt>
      <trkpt lat="39.0604090" lon="1.4685840">
        <ele>135.4</ele>
        <time>2020-02-23T15:32:49Z</time>
      </trkpt>
      <trkpt lat="39.0603890" lon="1.4685320">
        <ele>135.4</ele>
        <time>2020-02-23T15:32:50Z</time>
      </trkpt>
      <trkpt lat="39.0603710" lon="1.4684780">
        <ele>135.4</ele>
        <time>2020-02-23T15:32:51Z</time>
      </trkpt>
      <trkpt lat="39.0603580" lon="1.4684250">
        <ele>135.4</ele>
        <time>2020-02-23T15:32:52Z</time>
      </trkpt>
      <trkpt lat="39.0603470" lon="1.4683740">
        <ele>135.4</ele>
        <time>2020-02-23T15:32:53Z</time>
      </trkpt>
      <trkpt lat="39.0603380" lon="1.4683220">
        <ele>135.4</ele>
        <time>2020-02-23T15:32:54Z</time>
      </trkpt>
      <trkpt lat="39.0603190" lon="1.4682730">
        <ele>135.4</ele>
        <time>2020-02-23T15:32:55Z</time>
      </trkpt>
      <trkpt lat="39.0602960" lon="1.4682240">
        <ele>135.4</ele>
        <time>2020-02-23T15:32:56Z</time>
      </trkpt>
      <trkpt lat="39.0602780" lon="1.4681730">
        <ele>135.4</ele>
        <time>2020-02-23T15:32:57Z</time>
      </trkpt>
      <trkpt lat="39.0602520" lon="1.4681250">
        <ele>135.4</ele>
        <time>2020-02-23T15:32:58Z</time>
      </trkpt>
      <trkpt lat="39.0602380" lon="1.4680720">
        <ele>135.4</ele>
        <time>2020-02-23T15:32:59Z</time>
      </trkpt>
      <trkpt lat="39.0602280" lon="1.4680160">
        <ele>135.4</ele>
        <time>2020-02-23T15:33:00Z</time>
      </trkpt>
      <trkpt lat="39.0602160" lon="1.4679590">
        <ele>135.4</ele>
        <time>2020-02-23T15:33:01Z</time>
      </trkpt>
      <trkpt lat="39.0602050" lon="1.4679010">
        <ele>135.4</ele>
        <time>2020-02-23T15:33:02Z</time>
      </trkpt>
      <trkpt lat="39.0601900" lon="1.4678460">
        <ele>135.4</ele>
        <time>2020-02-23T15:33:03Z</time>
      </trkpt>
      <trkpt lat="39.0601800" lon="1.4677920">
        <ele>135.4</ele>
        <time>2020-02-23T15:33:04Z</time>
      </trkpt>
      <trkpt lat="39.0601690" lon="1.4677360">
        <ele>135.4</ele>
        <time>2020-02-23T15:33:05Z</time>
      </trkpt>
      <trkpt lat="39.0601520" lon="1.4676830">
        <ele>135.4</ele>
        <time>2020-02-23T15:33:06Z</time>
      </trkpt>
      <trkpt lat="39.0601360" lon="1.4676310">
        <ele>135.4</ele>
        <time>2020-02-23T15:33:07Z</time>
      </trkpt>
      <trkpt lat="39.0601200" lon="1.4675660">
        <ele>135.4</ele>
        <time>2020-02-23T15:33:08Z</time>
      </trkpt>
      <trkpt lat="39.0600990" lon="1.4675190">
        <ele>135.4</ele>
        <time>2020-02-23T15:33:09Z</time>
      </trkpt>
      <trkpt lat="39.0600800" lon="1.4674740">
        <ele>135.4</ele>
        <time>2020-02-23T15:33:10Z</time>
      </trkpt>
      <trkpt lat="39.0600550" lon="1.4674060">
        <ele>135.4</ele>
        <time>2020-02-23T15:33:11Z</time>
      </trkpt>
      <trkpt lat="39.0600280" lon="1.4673410">
        <ele>135.4</ele>
        <time>2020-02-23T15:33:12Z</time>
      </trkpt>
      <trkpt lat="39.0600080" lon="1.4672640">
        <ele>135.4</ele>
        <time>2020-02-23T15:33:13Z</time>
      </trkpt>
      <trkpt lat="39.0599870" lon="1.4671750">
        <ele>135.4</ele>
        <time>2020-02-23T15:33:14Z</time>
      </trkpt>
      <trkpt lat="39.0599500" lon="1.4670820">
        <ele>135.3</ele>
        <time>2020-02-23T15:33:15Z</time>
      </trkpt>
      <trkpt lat="39.0599150" lon="1.4669950">
        <ele>135.3</ele>
        <time>2020-02-23T15:33:16Z</time>
      </trkpt>
      <trkpt lat="39.0598730" lon="1.4669030">
        <ele>135.2</ele>
        <time>2020-02-23T15:33:17Z</time>
      </trkpt>
      <trkpt lat="39.0598330" lon="1.4668030">
        <ele>135.0</ele>
        <time>2020-02-23T15:33:18Z</time>
      </trkpt>
      <trkpt lat="39.0597940" lon="1.4667020">
        <ele>134.7</ele>
        <time>2020-02-23T15:33:19Z</time>
      </trkpt>
      <trkpt lat="39.0597520" lon="1.4666070">
        <ele>134.4</ele>
        <time>2020-02-23T15:33:20Z</time>
      </trkpt>
      <trkpt lat="39.0597090" lon="1.4665130">
        <ele>134.2</ele>
        <time>2020-02-23T15:33:21Z</time>
      </trkpt>
      <trkpt lat="39.0596640" lon="1.4664200">
        <ele>133.9</ele>
        <time>2020-02-23T15:33:22Z</time>
      </trkpt>
      <trkpt lat="39.0596240" lon="1.4663270">
        <ele>133.6</ele>
        <time>2020-02-23T15:33:23Z</time>
      </trkpt>
      <trkpt lat="39.0595810" lon="1.4662360">
        <ele>133.4</ele>
        <time>2020-02-23T15:33:24Z</time>
      </trkpt>
      <trkpt lat="39.0595390" lon="1.4661460">
        <ele>133.1</ele>
        <time>2020-02-23T15:33:25Z</time>
      </trkpt>
      <trkpt lat="39.0594970" lon="1.4660580">
        <ele>132.9</ele>
        <time>2020-02-23T15:33:26Z</time>
      </trkpt>
      <trkpt lat="39.0594590" lon="1.4659680">
        <ele>132.7</ele>
        <time>2020-02-23T15:33:27Z</time>
      </trkpt>
      <trkpt lat="39.0594210" lon="1.4658800">
        <ele>132.5</ele>
        <time>2020-02-23T15:33:28Z</time>
      </trkpt>
      <trkpt lat="39.0593760" lon="1.4657980">
        <ele>132.2</ele>
        <time>2020-02-23T15:33:29Z</time>
      </trkpt>
      <trkpt lat="39.0593360" lon="1.4657110">
        <ele>132.0</ele>
        <time>2020-02-23T15:33:30Z</time>
      </trkpt>
      <trkpt lat="39.0592980" lon="1.4656270">
        <ele>131.8</ele>
        <time>2020-02-23T15:33:31Z</time>
      </trkpt>
      <trkpt lat="39.0592580" lon="1.4655450">
        <ele>131.6</ele>
        <time>2020-02-23T15:33:32Z</time>
      </trkpt>
      <trkpt lat="39.0592220" lon="1.4654610">
        <ele>131.5</ele>
        <time>2020-02-23T15:33:33Z</time>
      </trkpt>
      <trkpt lat="39.0591860" lon="1.4653790">
        <ele>131.4</ele>
        <time>2020-02-23T15:33:34Z</time>
      </trkpt>
      <trkpt lat="39.0591460" lon="1.4653020">
        <ele>131.4</ele>
        <time>2020-02-23T15:33:35Z</time>
      </trkpt>
      <trkpt lat="39.0591080" lon="1.4652260">
        <ele>131.5</ele>
        <time>2020-02-23T15:33:36Z</time>
      </trkpt>
      <trkpt lat="39.0590650" lon="1.4651540">
        <ele>131.5</ele>
        <time>2020-02-23T15:33:37Z</time>
      </trkpt>
      <trkpt lat="39.0590340" lon="1.4650750">
        <ele>131.5</ele>
        <time>2020-02-23T15:33:38Z</time>
      </trkpt>
      <trkpt lat="39.0589950" lon="1.4650040">
        <ele>131.5</ele>
        <time>2020-02-23T15:33:39Z</time>
      </trkpt>
      <trkpt lat="39.0589590" lon="1.4649360">
        <ele>131.6</ele>
        <time>2020-02-23T15:33:40Z</time>
      </trkpt>
      <trkpt lat="39.0589210" lon="1.4648720">
        <ele>131.6</ele>
        <time>2020-02-23T15:33:41Z</time>
      </trkpt>
      <trkpt lat="39.0588840" lon="1.4648050">
        <ele>131.6</ele>
        <time>2020-02-23T15:33:42Z</time>
      </trkpt>
      <trkpt lat="39.0588480" lon="1.4647410">
        <ele>131.7</ele>
        <time>2020-02-23T15:33:43Z</time>
      </trkpt>
      <trkpt lat="39.0588120" lon="1.4646780">
        <ele>131.7</ele>
        <time>2020-02-23T15:33:44Z</time>
      </trkpt>
      <trkpt lat="39.0587750" lon="1.4646190">
        <ele>131.8</ele>
        <time>2020-02-23T15:33:45Z</time>
      </trkpt>
      <trkpt lat="39.0587430" lon="1.4645560">
        <ele>132.0</ele>
        <time>2020-02-23T15:33:46Z</time>
      </trkpt>
      <trkpt lat="39.0587130" lon="1.4644930">
        <ele>132.1</ele>
        <time>2020-02-23T15:33:47Z</time>
      </trkpt>
      <trkpt lat="39.0586830" lon="1.4644290">
        <ele>132.3</ele>
        <time>2020-02-23T15:33:48Z</time>
      </trkpt>
      <trkpt lat="39.0586480" lon="1.4643720">
        <ele>132.4</ele>
        <time>2020-02-23T15:33:49Z</time>
      </trkpt>
      <trkpt lat="39.0586170" lon="1.4643160">
        <ele>132.6</ele>
        <time>2020-02-23T15:33:50Z</time>
      </trkpt>
      <trkpt lat="39.0585810" lon="1.4642680">
        <ele>132.7</ele>
        <time>2020-02-23T15:33:51Z</time>
      </trkpt>
      <trkpt lat="39.0585510" lon="1.4642150">
        <ele>132.7</ele>
        <time>2020-02-23T15:33:52Z</time>
      </trkpt>
      <trkpt lat="39.0585190" lon="1.4641680">
        <ele>132.8</ele>
        <time>2020-02-23T15:33:53Z</time>
      </trkpt>
      <trkpt lat="39.0584900" lon="1.4641180">
        <ele>132.8</ele>
        <time>2020-02-23T15:33:54Z</time>
      </trkpt>
      <trkpt lat="39.0584630" lon="1.4640690">
        <ele>132.9</ele>
        <time>2020-02-23T15:33:55Z</time>
      </trkpt>
      <trkpt lat="39.0584450" lon="1.4640120">
        <ele>132.9</ele>
        <time>2020-02-23T15:33:56Z</time>
      </trkpt>
      <trkpt lat="39.0584230" lon="1.4639580">
        <ele>133.0</ele>
        <time>2020-02-23T15:33:57Z</time>
      </trkpt>
      <trkpt lat="39.0584100" lon="1.4638970">
        <ele>133.1</ele>
        <time>2020-02-23T15:33:58Z</time>
      </trkpt>
      <trkpt lat="39.0583900" lon="1.4638400">
        <ele>133.2</ele>
        <time>2020-02-23T15:33:59Z</time>
      </trkpt>
      <trkpt lat="39.0583660" lon="1.4637840">
        <ele>133.3</ele>
        <time>2020-02-23T15:34:00Z</time>
      </trkpt>
      <trkpt lat="39.0583510" lon="1.4637200">
        <ele>133.4</ele>
        <time>2020-02-23T15:34:01Z</time>
      </trkpt>
      <trkpt lat="39.0583300" lon="1.4636590">
        <ele>133.6</ele>
        <time>2020-02-23T15:34:02Z</time>
      </trkpt>
      <trkpt lat="39.0583170" lon="1.4635980">
        <ele>133.7</ele>
        <time>2020-02-23T15:34:03Z</time>
      </trkpt>
      <trkpt lat="39.0583010" lon="1.4635370">
        <ele>133.8</ele>
        <time>2020-02-23T15:34:04Z</time>
      </trkpt>
      <trkpt lat="39.0582900" lon="1.4634750">
        <ele>133.9</ele>
        <time>2020-02-23T15:34:05Z</time>
      </trkpt>
      <trkpt lat="39.0582790" lon="1.4634150">
        <ele>134.0</ele>
        <time>2020-02-23T15:34:06Z</time>
      </trkpt>
      <trkpt lat="39.0582700" lon="1.4633550">
        <ele>134.1</ele>
        <time>2020-02-23T15:34:07Z</time>
      </trkpt>
      <trkpt lat="39.0582550" lon="1.4632960">
        <ele>134.2</ele>
        <time>2020-02-23T15:34:08Z</time>
      </trkpt>
      <trkpt lat="39.0582480" lon="1.4632350">
        <ele>134.3</ele>
        <time>2020-02-23T15:34:09Z</time>
      </trkpt>
      <trkpt lat="39.0582350" lon="1.4631760">
        <ele>134.3</ele>
        <time>2020-02-23T15:34:10Z</time>
      </trkpt>
      <trkpt lat="39.0582300" lon="1.4631160">
        <ele>134.4</ele>
        <time>2020-02-23T15:34:11Z</time>
      </trkpt>
      <trkpt lat="39.0582210" lon="1.4630550">
        <ele>134.5</ele>
        <time>2020-02-23T15:34:12Z</time>
      </trkpt>
      <trkpt lat="39.0582100" lon="1.4629920">
        <ele>134.5</ele>
        <time>2020-02-23T15:34:13Z</time>
      </trkpt>
      <trkpt lat="39.0581990" lon="1.4629330">
        <ele>134.6</ele>
        <time>2020-02-23T15:34:14Z</time>
      </trkpt>
      <trkpt lat="39.0582000" lon="1.4628560">
        <ele>134.7</ele>
        <time>2020-02-23T15:34:15Z</time>
      </trkpt>
      <trkpt lat="39.0581940" lon="1.4628070">
        <ele>134.7</ele>
        <time>2020-02-23T15:34:16Z</time>
      </trkpt>
      <trkpt lat="39.0581860" lon="1.4627600">
        <ele>134.9</ele>
        <time>2020-02-23T15:34:17Z</time>
      </trkpt>
      <trkpt lat="39.0581760" lon="1.4627040">
        <ele>135.0</ele>
        <time>2020-02-23T15:34:18Z</time>
      </trkpt>
      <trkpt lat="39.0581640" lon="1.4626570">
        <ele>135.1</ele>
        <time>2020-02-23T15:34:19Z</time>
      </trkpt>
      <trkpt lat="39.0581550" lon="1.4626090">
        <ele>135.2</ele>
        <time>2020-02-23T15:34:20Z</time>
      </trkpt>
      <trkpt lat="39.0581470" lon="1.4625620">
        <ele>135.3</ele>
        <time>2020-02-23T15:34:21Z</time>
      </trkpt>
      <trkpt lat="39.0581350" lon="1.4625010">
        <ele>135.5</ele>
        <time>2020-02-23T15:34:22Z</time>
      </trkpt>
      <trkpt lat="39.0581270" lon="1.4624490">
        <ele>135.6</ele>
        <time>2020-02-23T15:34:23Z</time>
      </trkpt>
      <trkpt lat="39.0581190" lon="1.4624080">
        <ele>135.7</ele>
        <time>2020-02-23T15:34:24Z</time>
      </trkpt>
      <trkpt lat="39.0581090" lon="1.4623600">
        <ele>135.9</ele>
        <time>2020-02-23T15:34:25Z</time>
      </trkpt>
      <trkpt lat="39.0581010" lon="1.4623160">
        <ele>136.1</ele>
        <time>2020-02-23T15:34:26Z</time>
      </trkpt>
      <trkpt lat="39.0580950" lon="1.4622760">
        <ele>136.3</ele>
        <time>2020-02-23T15:34:27Z</time>
      </trkpt>
      <trkpt lat="39.0580850" lon="1.4622330">
        <ele>136.4</ele>
        <time>2020-02-23T15:34:28Z</time>
      </trkpt>
      <trkpt lat="39.0580800" lon="1.4621880">
        <ele>136.6</ele>
        <time>2020-02-23T15:34:29Z</time>
      </trkpt>
      <trkpt lat="39.0580680" lon="1.4621430">
        <ele>136.7</ele>
        <time>2020-02-23T15:34:30Z</time>
      </trkpt>
      <trkpt lat="39.0580610" lon="1.4620920">
        <ele>136.9</ele>
        <time>2020-02-23T15:34:31Z</time>
      </trkpt>
      <trkpt lat="39.0580580" lon="1.4620460">
        <ele>137.0</ele>
        <time>2020-02-23T15:34:32Z</time>
      </trkpt>
      <trkpt lat="39.0580490" lon="1.4619910">
        <ele>137.1</ele>
        <time>2020-02-23T15:34:33Z</time>
      </trkpt>
      <trkpt lat="39.0580390" lon="1.4619400">
        <ele>137.2</ele>
        <time>2020-02-23T15:34:34Z</time>
      </trkpt>
      <trkpt lat="39.0580350" lon="1.4619020">
        <ele>137.2</ele>
        <time>2020-02-23T15:34:35Z</time>
      </trkpt>
      <trkpt lat="39.0580270" lon="1.4618560">
        <ele>137.3</ele>
        <time>2020-02-23T15:34:36Z</time>
      </trkpt>
      <trkpt lat="39.0580140" lon="1.4617970">
        <ele>137.5</ele>
        <time>2020-02-23T15:34:37Z</time>
      </trkpt>
      <trkpt lat="39.0580030" lon="1.4617440">
        <ele>137.7</ele>
        <time>2020-02-23T15:34:38Z</time>
      </trkpt>
      <trkpt lat="39.0579990" lon="1.4617200">
        <ele>137.7</ele>
        <time>2020-02-23T15:34:39Z</time>
      </trkpt>
      <trkpt lat="39.0579900" lon="1.4616720">
        <ele>137.8</ele>
        <time>2020-02-23T15:34:40Z</time>
      </trkpt>
      <trkpt lat="39.0579780" lon="1.4616320">
        <ele>137.9</ele>
        <time>2020-02-23T15:34:41Z</time>
      </trkpt>
      <trkpt lat="39.0579640" lon="1.4615860">
        <ele>138.0</ele>
        <time>2020-02-23T15:34:42Z</time>
      </trkpt>
      <trkpt lat="39.0579590" lon="1.4615260">
        <ele>138.2</ele>
        <time>2020-02-23T15:34:43Z</time>
      </trkpt>
      <trkpt lat="39.0579440" lon="1.4614790">
        <ele>138.3</ele>
        <time>2020-02-23T15:34:44Z</time>
      </trkpt>
      <trkpt lat="39.0579340" lon="1.4614380">
        <ele>138.3</ele>
        <time>2020-02-23T15:34:45Z</time>
      </trkpt>
      <trkpt lat="39.0579210" lon="1.4613920">
        <ele>138.5</ele>
        <time>2020-02-23T15:34:46Z</time>
      </trkpt>
      <trkpt lat="39.0579060" lon="1.4613420">
        <ele>138.7</ele>
        <time>2020-02-23T15:34:47Z</time>
      </trkpt>
      <trkpt lat="39.0578940" lon="1.4613080">
        <ele>138.8</ele>
        <time>2020-02-23T15:34:48Z</time>
      </trkpt>
      <trkpt lat="39.0578780" lon="1.4612640">
        <ele>139.0</ele>
        <time>2020-02-23T15:34:49Z</time>
      </trkpt>
      <trkpt lat="39.0578600" lon="1.4612110">
        <ele>139.2</ele>
        <time>2020-02-23T15:34:50Z</time>
      </trkpt>
      <trkpt lat="39.0578460" lon="1.4611690">
        <ele>139.4</ele>
        <time>2020-02-23T15:34:51Z</time>
      </trkpt>
      <trkpt lat="39.0578330" lon="1.4611320">
        <ele>139.5</ele>
        <time>2020-02-23T15:34:52Z</time>
      </trkpt>
      <trkpt lat="39.0578180" lon="1.4610930">
        <ele>139.5</ele>
        <time>2020-02-23T15:34:53Z</time>
      </trkpt>
      <trkpt lat="39.0578060" lon="1.4610610">
        <ele>139.6</ele>
        <time>2020-02-23T15:34:54Z</time>
      </trkpt>
      <trkpt lat="39.0577820" lon="1.4610110">
        <ele>139.7</ele>
        <time>2020-02-23T15:34:55Z</time>
      </trkpt>
      <trkpt lat="39.0577700" lon="1.4609900">
        <ele>139.8</ele>
        <time>2020-02-23T15:34:56Z</time>
      </trkpt>
      <trkpt lat="39.0577500" lon="1.4609440">
        <ele>139.9</ele>
        <time>2020-02-23T15:34:57Z</time>
      </trkpt>
      <trkpt lat="39.0577280" lon="1.4609000">
        <ele>140.0</ele>
        <time>2020-02-23T15:34:58Z</time>
      </trkpt>
      <trkpt lat="39.0577080" lon="1.4608570">
        <ele>140.1</ele>
        <time>2020-02-23T15:34:59Z</time>
      </trkpt>
      <trkpt lat="39.0576890" lon="1.4608220">
        <ele>140.2</ele>
        <time>2020-02-23T15:35:00Z</time>
      </trkpt>
      <trkpt lat="39.0576620" lon="1.4607720">
        <ele>140.2</ele>
        <time>2020-02-23T15:35:01Z</time>
      </trkpt>
      <trkpt lat="39.0576510" lon="1.4607480">
        <ele>140.3</ele>
        <time>2020-02-23T15:35:02Z</time>
      </trkpt>
      <trkpt lat="39.0576250" lon="1.4606960">
        <ele>140.4</ele>
        <time>2020-02-23T15:35:03Z</time>
      </trkpt>
      <trkpt lat="39.0576050" lon="1.4606520">
        <ele>140.5</ele>
        <time>2020-02-23T15:35:04Z</time>
      </trkpt>
      <trkpt lat="39.0575920" lon="1.4606110">
        <ele>140.6</ele>
        <time>2020-02-23T15:35:05Z</time>
      </trkpt>
      <trkpt lat="39.0575710" lon="1.4605550">
        <ele>140.7</ele>
        <time>2020-02-23T15:35:06Z</time>
      </trkpt>
      <trkpt lat="39.0575550" lon="1.4605110">
        <ele>140.8</ele>
        <time>2020-02-23T15:35:07Z</time>
      </trkpt>
      <trkpt lat="39.0575350" lon="1.4604560">
        <ele>140.9</ele>
        <time>2020-02-23T15:35:08Z</time>
      </trkpt>
      <trkpt lat="39.0575150" lon="1.4604080">
        <ele>141.1</ele>
        <time>2020-02-23T15:35:09Z</time>
      </trkpt>
      <trkpt lat="39.0574980" lon="1.4603600">
        <ele>141.2</ele>
        <time>2020-02-23T15:35:10Z</time>
      </trkpt>
      <trkpt lat="39.0574810" lon="1.4603090">
        <ele>141.3</ele>
        <time>2020-02-23T15:35:11Z</time>
      </trkpt>
      <trkpt lat="39.0574640" lon="1.4602570">
        <ele>141.4</ele>
        <time>2020-02-23T15:35:12Z</time>
      </trkpt>
      <trkpt lat="39.0574440" lon="1.4602150">
        <ele>141.5</ele>
        <time>2020-02-23T15:35:13Z</time>
      </trkpt>
      <trkpt lat="39.0574290" lon="1.4601800">
        <ele>141.6</ele>
        <time>2020-02-23T15:35:14Z</time>
      </trkpt>
      <trkpt lat="39.0574200" lon="1.4601250">
        <ele>141.7</ele>
        <time>2020-02-23T15:35:15Z</time>
      </trkpt>
      <trkpt lat="39.0574080" lon="1.4600730">
        <ele>141.9</ele>
        <time>2020-02-23T15:35:16Z</time>
      </trkpt>
      <trkpt lat="39.0574000" lon="1.4600340">
        <ele>141.9</ele>
        <time>2020-02-23T15:35:17Z</time>
      </trkpt>
      <trkpt lat="39.0573850" lon="1.4599880">
        <ele>142.0</ele>
        <time>2020-02-23T15:35:18Z</time>
      </trkpt>
      <trkpt lat="39.0573700" lon="1.4599340">
        <ele>142.2</ele>
        <time>2020-02-23T15:35:19Z</time>
      </trkpt>
      <trkpt lat="39.0573630" lon="1.4599110">
        <ele>142.2</ele>
        <time>2020-02-23T15:35:20Z</time>
      </trkpt>
      <trkpt lat="39.0573510" lon="1.4598690">
        <ele>142.3</ele>
        <time>2020-02-23T15:35:21Z</time>
      </trkpt>
      <trkpt lat="39.0573420" lon="1.4598330">
        <ele>142.4</ele>
        <time>2020-02-23T15:35:22Z</time>
      </trkpt>
      <trkpt lat="39.0573260" lon="1.4597890">
        <ele>142.4</ele>
        <time>2020-02-23T15:35:23Z</time>
      </trkpt>
      <trkpt lat="39.0573110" lon="1.4597480">
        <ele>142.5</ele>
        <time>2020-02-23T15:35:24Z</time>
      </trkpt>
      <trkpt lat="39.0572930" lon="1.4597070">
        <ele>142.6</ele>
        <time>2020-02-23T15:35:25Z</time>
      </trkpt>
      <trkpt lat="39.0572770" lon="1.4596600">
        <ele>142.7</ele>
        <time>2020-02-23T15:35:26Z</time>
      </trkpt>
      <trkpt lat="39.0572570" lon="1.4596120">
        <ele>142.8</ele>
        <time>2020-02-23T15:35:27Z</time>
      </trkpt>
      <trkpt lat="39.0572380" lon="1.4595730">
        <ele>142.8</ele>
        <time>2020-02-23T15:35:28Z</time>
      </trkpt>
      <trkpt lat="39.0572190" lon="1.4595370">
        <ele>142.9</ele>
        <time>2020-02-23T15:35:29Z</time>
      </trkpt>
      <trkpt lat="39.0571990" lon="1.4594970">
        <ele>142.9</ele>
        <time>2020-02-23T15:35:30Z</time>
      </trkpt>
      <trkpt lat="39.0571820" lon="1.4594530">
        <ele>143.0</ele>
        <time>2020-02-23T15:35:31Z</time>
      </trkpt>
      <trkpt lat="39.0571730" lon="1.4594150">
        <ele>143.0</ele>
        <time>2020-02-23T15:35:32Z</time>
      </trkpt>
      <trkpt lat="39.0571620" lon="1.4593790">
        <ele>143.1</ele>
        <time>2020-02-23T15:35:33Z</time>
      </trkpt>
      <trkpt lat="39.0571520" lon="1.4593420">
        <ele>143.2</ele>
        <time>2020-02-23T15:35:34Z</time>
      </trkpt>
      <trkpt lat="39.0571340" lon="1.4592930">
        <ele>143.2</ele>
        <time>2020-02-23T15:35:35Z</time>
      </trkpt>
      <trkpt lat="39.0571260" lon="1.4592510">
        <ele>143.3</ele>
        <time>2020-02-23T15:35:36Z</time>
      </trkpt>
      <trkpt lat="39.0571110" lon="1.4592200">
        <ele>143.4</ele>
        <time>2020-02-23T15:35:37Z</time>
      </trkpt>
      <trkpt lat="39.0570950" lon="1.4591730">
        <ele>143.5</ele>
        <time>2020-02-23T15:35:38Z</time>
      </trkpt>
      <trkpt lat="39.0570790" lon="1.4591310">
        <ele>143.6</ele>
        <time>2020-02-23T15:35:39Z</time>
      </trkpt>
      <trkpt lat="39.0570560" lon="1.4590760">
        <ele>143.7</ele>
        <time>2020-02-23T15:35:40Z</time>
      </trkpt>
      <trkpt lat="39.0570400" lon="1.4590230">
        <ele>143.9</ele>
        <time>2020-02-23T15:35:41Z</time>
      </trkpt>
      <trkpt lat="39.0570300" lon="1.4589780">
        <ele>144.0</ele>
        <time>2020-02-23T15:35:42Z</time>
      </trkpt>
      <trkpt lat="39.0570150" lon="1.4589390">
        <ele>144.1</ele>
        <time>2020-02-23T15:35:43Z</time>
      </trkpt>
      <trkpt lat="39.0569990" lon="1.4588950">
        <ele>144.2</ele>
        <time>2020-02-23T15:35:44Z</time>
      </trkpt>
      <trkpt lat="39.0569760" lon="1.4588470">
        <ele>144.4</ele>
        <time>2020-02-23T15:35:45Z</time>
      </trkpt>
      <trkpt lat="39.0569670" lon="1.4588260">
        <ele>144.5</ele>
        <time>2020-02-23T15:35:46Z</time>
      </trkpt>
      <trkpt lat="39.0569510" lon="1.4587960">
        <ele>144.6</ele>
        <time>2020-02-23T15:35:47Z</time>
      </trkpt>
      <trkpt lat="39.0569340" lon="1.4587540">
        <ele>144.8</ele>
        <time>2020-02-23T15:35:48Z</time>
      </trkpt>
      <trkpt lat="39.0569150" lon="1.4587040">
        <ele>145.0</ele>
        <time>2020-02-23T15:35:49Z</time>
      </trkpt>
      <trkpt lat="39.0569080" lon="1.4586830">
        <ele>145.1</ele>
        <time>2020-02-23T15:35:50Z</time>
      </trkpt>
      <trkpt lat="39.0568960" lon="1.4586420">
        <ele>145.3</ele>
        <time>2020-02-23T15:35:51Z</time>
      </trkpt>
      <trkpt lat="39.0568830" lon="1.4586050">
        <ele>145.4</ele>
        <time>2020-02-23T15:35:52Z</time>
      </trkpt>
      <trkpt lat="39.0568740" lon="1.4585710">
        <ele>145.6</ele>
        <time>2020-02-23T15:35:53Z</time>
      </trkpt>
      <trkpt lat="39.0568670" lon="1.4585340">
        <ele>145.7</ele>
        <time>2020-02-23T15:35:54Z</time>
      </trkpt>
      <trkpt lat="39.0568620" lon="1.4584960">
        <ele>145.9</ele>
        <time>2020-02-23T15:35:55Z</time>
      </trkpt>
      <trkpt lat="39.0568520" lon="1.4584500">
        <ele>146.1</ele>
        <time>2020-02-23T15:35:56Z</time>
      </trkpt>
      <trkpt lat="39.0568450" lon="1.4584100">
        <ele>146.2</ele>
        <time>2020-02-23T15:35:57Z</time>
      </trkpt>
      <trkpt lat="39.0568400" lon="1.4583690">
        <ele>146.5</ele>
        <time>2020-02-23T15:35:58Z</time>
      </trkpt>
      <trkpt lat="39.0568290" lon="1.4583170">
        <ele>146.5</ele>
        <time>2020-02-23T15:35:59Z</time>
      </trkpt>
      <trkpt lat="39.0568350" lon="1.4582840">
        <ele>146.5</ele>
        <time>2020-02-23T15:36:00Z</time>
      </trkpt>
      <trkpt lat="39.0568340" lon="1.4582710">
        <ele>146.5</ele>
        <time>2020-02-23T15:36:01Z</time>
      </trkpt>
      <trkpt lat="39.0568240" lon="1.4582460">
        <ele>146.5</ele>
        <time>2020-02-23T15:36:02Z</time>
      </trkpt>
      <trkpt lat="39.0568200" lon="1.4582370">
        <ele>146.5</ele>
        <time>2020-02-23T15:36:03Z</time>
      </trkpt>
      <trkpt lat="39.0568110" lon="1.4582290">
        <ele>146.5</ele>
        <time>2020-02-23T15:36:04Z</time>
      </trkpt>
      <trkpt lat="39.0568040" lon="1.4582430">
        <ele>146.5</ele>
        <time>2020-02-23T15:36:05Z</time>
      </trkpt>
      <trkpt lat="39.0567980" lon="1.4582570">
        <ele>146.5</ele>
        <time>2020-02-23T15:36:06Z</time>
      </trkpt>
      <trkpt lat="39.0567910" lon="1.4582710">
        <ele>146.5</ele>
        <time>2020-02-23T15:36:07Z</time>
      </trkpt>
      <trkpt lat="39.0567600" lon="1.4583440">
        <ele>146.5</ele>
        <time>2020-02-23T15:36:08Z</time>
      </trkpt>
      <trkpt lat="39.0567230" lon="1.4583740">
        <ele>146.5</ele>
        <time>2020-02-23T15:36:09Z</time>
      </trkpt>
      <trkpt lat="39.0566880" lon="1.4584000">
        <ele>146.5</ele>
        <time>2020-02-23T15:36:10Z</time>
      </trkpt>
      <trkpt lat="39.0566500" lon="1.4584210">
        <ele>146.4</ele>
        <time>2020-02-23T15:36:11Z</time>
      </trkpt>
      <trkpt lat="39.0566140" lon="1.4584420">
        <ele>146.4</ele>
        <time>2020-02-23T15:36:12Z</time>
      </trkpt>
      <trkpt lat="39.0565780" lon="1.4584600">
        <ele>146.4</ele>
        <time>2020-02-23T15:36:13Z</time>
      </trkpt>
      <trkpt lat="39.0565460" lon="1.4584790">
        <ele>146.4</ele>
        <time>2020-02-23T15:36:14Z</time>
      </trkpt>
      <trkpt lat="39.0565200" lon="1.4585050">
        <ele>146.4</ele>
        <time>2020-02-23T15:36:15Z</time>
      </trkpt>
      <trkpt lat="39.0564900" lon="1.4585260">
        <ele>146.4</ele>
        <time>2020-02-23T15:36:16Z</time>
      </trkpt>
      <trkpt lat="39.0564550" lon="1.4585460">
        <ele>146.4</ele>
        <time>2020-02-23T15:36:17Z</time>
      </trkpt>
      <trkpt lat="39.0564160" lon="1.4585600">
        <ele>146.4</ele>
        <time>2020-02-23T15:36:18Z</time>
      </trkpt>
      <trkpt lat="39.0563710" lon="1.4585820">
        <ele>146.4</ele>
        <time>2020-02-23T15:36:19Z</time>
      </trkpt>
      <trkpt lat="39.0563300" lon="1.4586010">
        <ele>146.4</ele>
        <time>2020-02-23T15:36:20Z</time>
      </trkpt>
      <trkpt lat="39.0562920" lon="1.4586220">
        <ele>146.4</ele>
        <time>2020-02-23T15:36:21Z</time>
      </trkpt>
      <trkpt lat="39.0562580" lon="1.4586410">
        <ele>146.5</ele>
        <time>2020-02-23T15:36:22Z</time>
      </trkpt>
      <trkpt lat="39.0562240" lon="1.4586620">
        <ele>146.5</ele>
        <time>2020-02-23T15:36:23Z</time>
      </trkpt>
      <trkpt lat="39.0561830" lon="1.4586770">
        <ele>146.6</ele>
        <time>2020-02-23T15:36:24Z</time>
      </trkpt>
      <trkpt lat="39.0561470" lon="1.4586880">
        <ele>146.6</ele>
        <time>2020-02-23T15:36:25Z</time>
      </trkpt>
      <trkpt lat="39.0561100" lon="1.4587060">
        <ele>146.7</ele>
        <time>2020-02-23T15:36:26Z</time>
      </trkpt>
      <trkpt lat="39.0560800" lon="1.4587210">
        <ele>146.8</ele>
        <time>2020-02-23T15:36:27Z</time>
      </trkpt>
      <trkpt lat="39.0560510" lon="1.4587390">
        <ele>146.8</ele>
        <time>2020-02-23T15:36:28Z</time>
      </trkpt>
      <trkpt lat="39.0560140" lon="1.4587630">
        <ele>146.9</ele>
        <time>2020-02-23T15:36:29Z</time>
      </trkpt>
      <trkpt lat="39.0559840" lon="1.4587810">
        <ele>147.0</ele>
        <time>2020-02-23T15:36:30Z</time>
      </trkpt>
      <trkpt lat="39.0559450" lon="1.4588020">
        <ele>147.1</ele>
        <time>2020-02-23T15:36:31Z</time>
      </trkpt>
      <trkpt lat="39.0559110" lon="1.4588220">
        <ele>147.2</ele>
        <time>2020-02-23T15:36:32Z</time>
      </trkpt>
      <trkpt lat="39.0558740" lon="1.4588410">
        <ele>147.3</ele>
        <time>2020-02-23T15:36:33Z</time>
      </trkpt>
      <trkpt lat="39.0558380" lon="1.4588660">
        <ele>147.4</ele>
        <time>2020-02-23T15:36:34Z</time>
      </trkpt>
      <trkpt lat="39.0558050" lon="1.4588820">
        <ele>147.4</ele>
        <time>2020-02-23T15:36:35Z</time>
      </trkpt>
      <trkpt lat="39.0557680" lon="1.4589040">
        <ele>147.5</ele>
        <time>2020-02-23T15:36:36Z</time>
      </trkpt>
      <trkpt lat="39.0557280" lon="1.4589250">
        <ele>147.7</ele>
        <time>2020-02-23T15:36:37Z</time>
      </trkpt>
      <trkpt lat="39.0556900" lon="1.4589470">
        <ele>147.8</ele>
        <time>2020-02-23T15:36:38Z</time>
      </trkpt>
      <trkpt lat="39.0556520" lon="1.4589670">
        <ele>148.0</ele>
        <time>2020-02-23T15:36:39Z</time>
      </trkpt>
      <trkpt lat="39.0556140" lon="1.4589920">
        <ele>148.1</ele>
        <time>2020-02-23T15:36:40Z</time>
      </trkpt>
      <trkpt lat="39.0555890" lon="1.4590090">
        <ele>148.2</ele>
        <time>2020-02-23T15:36:41Z</time>
      </trkpt>
      <trkpt lat="39.0555590" lon="1.4590300">
        <ele>148.4</ele>
        <time>2020-02-23T15:36:42Z</time>
      </trkpt>
      <trkpt lat="39.0555310" lon="1.4590490">
        <ele>148.5</ele>
        <time>2020-02-23T15:36:43Z</time>
      </trkpt>
      <trkpt lat="39.0554930" lon="1.4590710">
        <ele>148.7</ele>
        <time>2020-02-23T15:36:44Z</time>
      </trkpt>
      <trkpt lat="39.0554570" lon="1.4590930">
        <ele>148.9</ele>
        <time>2020-02-23T15:36:45Z</time>
      </trkpt>
      <trkpt lat="39.0554290" lon="1.4591140">
        <ele>149.1</ele>
        <time>2020-02-23T15:36:46Z</time>
      </trkpt>
      <trkpt lat="39.0553930" lon="1.4591300">
        <ele>149.3</ele>
        <time>2020-02-23T15:36:47Z</time>
      </trkpt>
      <trkpt lat="39.0553560" lon="1.4591480">
        <ele>149.5</ele>
        <time>2020-02-23T15:36:48Z</time>
      </trkpt>
      <trkpt lat="39.0553170" lon="1.4591710">
        <ele>149.7</ele>
        <time>2020-02-23T15:36:49Z</time>
      </trkpt>
      <trkpt lat="39.0552770" lon="1.4592020">
        <ele>149.9</ele>
        <time>2020-02-23T15:36:50Z</time>
      </trkpt>
      <trkpt lat="39.0552350" lon="1.4592320">
        <ele>150.1</ele>
        <time>2020-02-23T15:36:51Z</time>
      </trkpt>
      <trkpt lat="39.0552070" lon="1.4592540">
        <ele>150.3</ele>
        <time>2020-02-23T15:36:52Z</time>
      </trkpt>
      <trkpt lat="39.0551680" lon="1.4592860">
        <ele>150.5</ele>
        <time>2020-02-23T15:36:53Z</time>
      </trkpt>
      <trkpt lat="39.0551490" lon="1.4592980">
        <ele>150.6</ele>
        <time>2020-02-23T15:36:54Z</time>
      </trkpt>
      <trkpt lat="39.0551170" lon="1.4593220">
        <ele>150.8</ele>
        <time>2020-02-23T15:36:55Z</time>
      </trkpt>
      <trkpt lat="39.0550930" lon="1.4593450">
        <ele>151.0</ele>
        <time>2020-02-23T15:36:56Z</time>
      </trkpt>
      <trkpt lat="39.0550630" lon="1.4593690">
        <ele>151.2</ele>
        <time>2020-02-23T15:36:57Z</time>
      </trkpt>
      <trkpt lat="39.0550280" lon="1.4593990">
        <ele>151.4</ele>
        <time>2020-02-23T15:36:58Z</time>
      </trkpt>
      <trkpt lat="39.0549870" lon="1.4594340">
        <ele>151.7</ele>
        <time>2020-02-23T15:36:59Z</time>
      </trkpt>
      <trkpt lat="39.0549530" lon="1.4594560">
        <ele>151.9</ele>
        <time>2020-02-23T15:37:00Z</time>
      </trkpt>
      <trkpt lat="39.0549200" lon="1.4594800">
        <ele>152.1</ele>
        <time>2020-02-23T15:37:01Z</time>
      </trkpt>
      <trkpt lat="39.0548900" lon="1.4594990">
        <ele>152.2</ele>
        <time>2020-02-23T15:37:02Z</time>
      </trkpt>
      <trkpt lat="39.0548610" lon="1.4595190">
        <ele>152.3</ele>
        <time>2020-02-23T15:37:03Z</time>
      </trkpt>
      <trkpt lat="39.0548290" lon="1.4595420">
        <ele>152.4</ele>
        <time>2020-02-23T15:37:04Z</time>
      </trkpt>
      <trkpt lat="39.0547990" lon="1.4595660">
        <ele>152.5</ele>
        <time>2020-02-23T15:37:05Z</time>
      </trkpt>
      <trkpt lat="39.0547740" lon="1.4595880">
        <ele>152.6</ele>
        <time>2020-02-23T15:37:06Z</time>
      </trkpt>
      <trkpt lat="39.0547460" lon="1.4596150">
        <ele>152.6</ele>
        <time>2020-02-23T15:37:07Z</time>
      </trkpt>
      <trkpt lat="39.0547120" lon="1.4596370">
        <ele>152.7</ele>
        <time>2020-02-23T15:37:08Z</time>
      </trkpt>
      <trkpt lat="39.0546770" lon="1.4596560">
        <ele>152.8</ele>
        <time>2020-02-23T15:37:09Z</time>
      </trkpt>
      <trkpt lat="39.0546470" lon="1.4596740">
        <ele>152.9</ele>
        <time>2020-02-23T15:37:10Z</time>
      </trkpt>
      <trkpt lat="39.0546130" lon="1.4596920">
        <ele>153.0</ele>
        <time>2020-02-23T15:37:11Z</time>
      </trkpt>
      <trkpt lat="39.0545770" lon="1.4597120">
        <ele>153.1</ele>
        <time>2020-02-23T15:37:12Z</time>
      </trkpt>
      <trkpt lat="39.0545390" lon="1.4597430">
        <ele>153.3</ele>
        <time>2020-02-23T15:37:13Z</time>
      </trkpt>
      <trkpt lat="39.0545060" lon="1.4597670">
        <ele>153.4</ele>
        <time>2020-02-23T15:37:14Z</time>
      </trkpt>
      <trkpt lat="39.0544900" lon="1.4597770">
        <ele>153.4</ele>
        <time>2020-02-23T15:37:15Z</time>
      </trkpt>
      <trkpt lat="39.0544550" lon="1.4597970">
        <ele>153.6</ele>
        <time>2020-02-23T15:37:16Z</time>
      </trkpt>
      <trkpt lat="39.0544300" lon="1.4598120">
        <ele>153.7</ele>
        <time>2020-02-23T15:37:17Z</time>
      </trkpt>
      <trkpt lat="39.0544040" lon="1.4598270">
        <ele>153.8</ele>
        <time>2020-02-23T15:37:18Z</time>
      </trkpt>
      <trkpt lat="39.0543700" lon="1.4598470">
        <ele>153.9</ele>
        <time>2020-02-23T15:37:19Z</time>
      </trkpt>
      <trkpt lat="39.0543570" lon="1.4598530">
        <ele>153.9</ele>
        <time>2020-02-23T15:37:20Z</time>
      </trkpt>
      <trkpt lat="39.0543230" lon="1.4598630">
        <ele>154.1</ele>
        <time>2020-02-23T15:37:21Z</time>
      </trkpt>
      <trkpt lat="39.0542890" lon="1.4598770">
        <ele>154.2</ele>
        <time>2020-02-23T15:37:22Z</time>
      </trkpt>
      <trkpt lat="39.0542470" lon="1.4598930">
        <ele>154.4</ele>
        <time>2020-02-23T15:37:23Z</time>
      </trkpt>
      <trkpt lat="39.0542210" lon="1.4599200">
        <ele>154.5</ele>
        <time>2020-02-23T15:37:24Z</time>
      </trkpt>
      <trkpt lat="39.0541950" lon="1.4599340">
        <ele>154.6</ele>
        <time>2020-02-23T15:37:25Z</time>
      </trkpt>
      <trkpt lat="39.0541730" lon="1.4599560">
        <ele>154.7</ele>
        <time>2020-02-23T15:37:26Z</time>
      </trkpt>
      <trkpt lat="39.0541450" lon="1.4599810">
        <ele>154.8</ele>
        <time>2020-02-23T15:37:27Z</time>
      </trkpt>
      <trkpt lat="39.0541320" lon="1.4599910">
        <ele>154.9</ele>
        <time>2020-02-23T15:37:28Z</time>
      </trkpt>
      <trkpt lat="39.0541010" lon="1.4600040">
        <ele>155.0</ele>
        <time>2020-02-23T15:37:29Z</time>
      </trkpt>
      <trkpt lat="39.0540740" lon="1.4600190">
        <ele>155.1</ele>
        <time>2020-02-23T15:37:30Z</time>
      </trkpt>
      <trkpt lat="39.0540450" lon="1.4600290">
        <ele>155.2</ele>
        <time>2020-02-23T15:37:31Z</time>
      </trkpt>
      <trkpt lat="39.0540200" lon="1.4600450">
        <ele>155.2</ele>
        <time>2020-02-23T15:37:32Z</time>
      </trkpt>
      <trkpt lat="39.0539810" lon="1.4600610">
        <ele>155.4</ele>
        <time>2020-02-23T15:37:33Z</time>
      </trkpt>
      <trkpt lat="39.0539640" lon="1.4600660">
        <ele>155.4</ele>
        <time>2020-02-23T15:37:34Z</time>
      </trkpt>
      <trkpt lat="39.0539350" lon="1.4600830">
        <ele>155.5</ele>
        <time>2020-02-23T15:37:35Z</time>
      </trkpt>
      <trkpt lat="39.0539220" lon="1.4600880">
        <ele>155.5</ele>
        <time>2020-02-23T15:37:36Z</time>
      </trkpt>
      <trkpt lat="39.0538890" lon="1.4600950">
        <ele>155.6</ele>
        <time>2020-02-23T15:37:37Z</time>
      </trkpt>
      <trkpt lat="39.0538600" lon="1.4601050">
        <ele>155.6</ele>
        <time>2020-02-23T15:37:38Z</time>
      </trkpt>
      <trkpt lat="39.0538270" lon="1.4601220">
        <ele>155.7</ele>
        <time>2020-02-23T15:37:39Z</time>
      </trkpt>
      <trkpt lat="39.0538140" lon="1.4601250">
        <ele>155.7</ele>
        <time>2020-02-23T15:37:40Z</time>
      </trkpt>
      <trkpt lat="39.0537840" lon="1.4601260">
        <ele>155.8</ele>
        <time>2020-02-23T15:37:41Z</time>
      </trkpt>
      <trkpt lat="39.0537460" lon="1.4601300">
        <ele>155.8</ele>
        <time>2020-02-23T15:37:42Z</time>
      </trkpt>
      <trkpt lat="39.0537350" lon="1.4601310">
        <ele>155.8</ele>
        <time>2020-02-23T15:37:43Z</time>
      </trkpt>
      <trkpt lat="39.0537050" lon="1.4601280">
        <ele>155.8</ele>
        <time>2020-02-23T15:37:44Z</time>
      </trkpt>
      <trkpt lat="39.0536780" lon="1.4601240">
        <ele>155.9</ele>
        <time>2020-02-23T15:37:45Z</time>
      </trkpt>
      <trkpt lat="39.0536670" lon="1.4601230">
        <ele>155.9</ele>
        <time>2020-02-23T15:37:46Z</time>
      </trkpt>
      <trkpt lat="39.0536290" lon="1.4601200">
        <ele>155.9</ele>
        <time>2020-02-23T15:37:47Z</time>
      </trkpt>
      <trkpt lat="39.0535920" lon="1.4601200">
        <ele>155.9</ele>
        <time>2020-02-23T15:37:48Z</time>
      </trkpt>
      <trkpt lat="39.0535500" lon="1.4601150">
        <ele>155.9</ele>
        <time>2020-02-23T15:37:49Z</time>
      </trkpt>
      <trkpt lat="39.0535340" lon="1.4601160">
        <ele>155.9</ele>
        <time>2020-02-23T15:37:50Z</time>
      </trkpt>
      <trkpt lat="39.0534930" lon="1.4601220">
        <ele>155.9</ele>
        <time>2020-02-23T15:37:51Z</time>
      </trkpt>
      <trkpt lat="39.0534750" lon="1.4601220">
        <ele>155.9</ele>
        <time>2020-02-23T15:37:52Z</time>
      </trkpt>
      <trkpt lat="39.0534400" lon="1.4601170">
        <ele>155.9</ele>
        <time>2020-02-23T15:37:53Z</time>
      </trkpt>
      <trkpt lat="39.0534110" lon="1.4601110">
        <ele>156.0</ele>
        <time>2020-02-23T15:37:54Z</time>
      </trkpt>
      <trkpt lat="39.0533840" lon="1.4601190">
        <ele>156.0</ele>
        <time>2020-02-23T15:37:55Z</time>
      </trkpt>
      <trkpt lat="39.0533450" lon="1.4601140">
        <ele>156.0</ele>
        <time>2020-02-23T15:37:56Z</time>
      </trkpt>
      <trkpt lat="39.0533110" lon="1.4601090">
        <ele>156.0</ele>
        <time>2020-02-23T15:37:57Z</time>
      </trkpt>
      <trkpt lat="39.0532800" lon="1.4601050">
        <ele>156.0</ele>
        <time>2020-02-23T15:37:58Z</time>
      </trkpt>
      <trkpt lat="39.0532440" lon="1.4601100">
        <ele>156.0</ele>
        <time>2020-02-23T15:37:59Z</time>
      </trkpt>
      <trkpt lat="39.0532280" lon="1.4601120">
        <ele>155.9</ele>
        <time>2020-02-23T15:38:00Z</time>
      </trkpt>
      <trkpt lat="39.0531940" lon="1.4601170">
        <ele>155.9</ele>
        <time>2020-02-23T15:38:01Z</time>
      </trkpt>
      <trkpt lat="39.0531510" lon="1.4601220">
        <ele>155.9</ele>
        <time>2020-02-23T15:38:02Z</time>
      </trkpt>
      <trkpt lat="39.0531200" lon="1.4601210">
        <ele>155.9</ele>
        <time>2020-02-23T15:38:03Z</time>
      </trkpt>
      <trkpt lat="39.0530850" lon="1.4601300">
        <ele>155.9</ele>
        <time>2020-02-23T15:38:04Z</time>
      </trkpt>
      <trkpt lat="39.0530510" lon="1.4601250">
        <ele>155.9</ele>
        <time>2020-02-23T15:38:05Z</time>
      </trkpt>
      <trkpt lat="39.0530090" lon="1.4601290">
        <ele>155.9</ele>
        <time>2020-02-23T15:38:06Z</time>
      </trkpt>
      <trkpt lat="39.0529460" lon="1.4601450">
        <ele>155.9</ele>
        <time>2020-02-23T15:38:07Z</time>
      </trkpt>
      <trkpt lat="39.0529060" lon="1.4601560">
        <ele>155.9</ele>
        <time>2020-02-23T15:38:08Z</time>
      </trkpt>
      <trkpt lat="39.0528730" lon="1.4601590">
        <ele>155.9</ele>
        <time>2020-02-23T15:38:09Z</time>
      </trkpt>
      <trkpt lat="39.0528300" lon="1.4601640">
        <ele>155.9</ele>
        <time>2020-02-23T15:38:10Z</time>
      </trkpt>
      <trkpt lat="39.0527820" lon="1.4601660">
        <ele>155.9</ele>
        <time>2020-02-23T15:38:11Z</time>
      </trkpt>
      <trkpt lat="39.0527410" lon="1.4601720">
        <ele>155.9</ele>
        <time>2020-02-23T15:38:12Z</time>
      </trkpt>
      <trkpt lat="39.0527020" lon="1.4601840">
        <ele>155.9</ele>
        <time>2020-02-23T15:38:13Z</time>
      </trkpt>
      <trkpt lat="39.0526630" lon="1.4601930">
        <ele>155.9</ele>
        <time>2020-02-23T15:38:14Z</time>
      </trkpt>
      <trkpt lat="39.0526280" lon="1.4601920">
        <ele>155.9</ele>
        <time>2020-02-23T15:38:15Z</time>
      </trkpt>
      <trkpt lat="39.0525840" lon="1.4601970">
        <ele>155.9</ele>
        <time>2020-02-23T15:38:16Z</time>
      </trkpt>
      <trkpt lat="39.0525310" lon="1.4601970">
        <ele>155.9</ele>
        <time>2020-02-23T15:38:17Z</time>
      </trkpt>
      <trkpt lat="39.0524880" lon="1.4602010">
        <ele>155.9</ele>
        <time>2020-02-23T15:38:18Z</time>
      </trkpt>
      <trkpt lat="39.0524350" lon="1.4602090">
        <ele>155.9</ele>
        <time>2020-02-23T15:38:19Z</time>
      </trkpt>
      <trkpt lat="39.0523880" lon="1.4602210">
        <ele>155.9</ele>
        <time>2020-02-23T15:38:20Z</time>
      </trkpt>
      <trkpt lat="39.0523440" lon="1.4602290">
        <ele>155.9</ele>
        <time>2020-02-23T15:38:21Z</time>
      </trkpt>
      <trkpt lat="39.0523000" lon="1.4602390">
        <ele>155.9</ele>
        <time>2020-02-23T15:38:22Z</time>
      </trkpt>
      <trkpt lat="39.0522560" lon="1.4602460">
        <ele>155.9</ele>
        <time>2020-02-23T15:38:23Z</time>
      </trkpt>
      <trkpt lat="39.0522090" lon="1.4602530">
        <ele>155.9</ele>
        <time>2020-02-23T15:38:24Z</time>
      </trkpt>
      <trkpt lat="39.0521700" lon="1.4602630">
        <ele>155.9</ele>
        <time>2020-02-23T15:38:25Z</time>
      </trkpt>
      <trkpt lat="39.0521340" lon="1.4602730">
        <ele>155.9</ele>
        <time>2020-02-23T15:38:26Z</time>
      </trkpt>
      <trkpt lat="39.0520870" lon="1.4602860">
        <ele>155.9</ele>
        <time>2020-02-23T15:38:27Z</time>
      </trkpt>
      <trkpt lat="39.0520400" lon="1.4602950">
        <ele>155.9</ele>
        <time>2020-02-23T15:38:28Z</time>
      </trkpt>
      <trkpt lat="39.0519810" lon="1.4603040">
        <ele>155.9</ele>
        <time>2020-02-23T15:38:29Z</time>
      </trkpt>
      <trkpt lat="39.0519380" lon="1.4603160">
        <ele>155.9</ele>
        <time>2020-02-23T15:38:30Z</time>
      </trkpt>
      <trkpt lat="39.0518970" lon="1.4603250">
        <ele>155.9</ele>
        <time>2020-02-23T15:38:31Z</time>
      </trkpt>
      <trkpt lat="39.0518590" lon="1.4603390">
        <ele>155.9</ele>
        <time>2020-02-23T15:38:32Z</time>
      </trkpt>
      <trkpt lat="39.0518200" lon="1.4603500">
        <ele>155.8</ele>
        <time>2020-02-23T15:38:33Z</time>
      </trkpt>
      <trkpt lat="39.0517840" lon="1.4603570">
        <ele>155.8</ele>
        <time>2020-02-23T15:38:34Z</time>
      </trkpt>
      <trkpt lat="39.0517530" lon="1.4603580">
        <ele>155.8</ele>
        <time>2020-02-23T15:38:35Z</time>
      </trkpt>
      <trkpt lat="39.0517220" lon="1.4603660">
        <ele>155.8</ele>
        <time>2020-02-23T15:38:36Z</time>
      </trkpt>
      <trkpt lat="39.0516740" lon="1.4603970">
        <ele>155.7</ele>
        <time>2020-02-23T15:38:37Z</time>
      </trkpt>
      <trkpt lat="39.0516310" lon="1.4604160">
        <ele>155.7</ele>
        <time>2020-02-23T15:38:38Z</time>
      </trkpt>
      <trkpt lat="39.0515870" lon="1.4604410">
        <ele>155.7</ele>
        <time>2020-02-23T15:38:39Z</time>
      </trkpt>
      <trkpt lat="39.0515550" lon="1.4604550">
        <ele>155.7</ele>
        <time>2020-02-23T15:38:40Z</time>
      </trkpt>
      <trkpt lat="39.0515100" lon="1.4604700">
        <ele>155.7</ele>
        <time>2020-02-23T15:38:41Z</time>
      </trkpt>
      <trkpt lat="39.0514650" lon="1.4605030">
        <ele>155.7</ele>
        <time>2020-02-23T15:38:42Z</time>
      </trkpt>
      <trkpt lat="39.0514300" lon="1.4605220">
        <ele>155.7</ele>
        <time>2020-02-23T15:38:43Z</time>
      </trkpt>
      <trkpt lat="39.0513900" lon="1.4605420">
        <ele>155.7</ele>
        <time>2020-02-23T15:38:44Z</time>
      </trkpt>
      <trkpt lat="39.0513560" lon="1.4605650">
        <ele>155.7</ele>
        <time>2020-02-23T15:38:45Z</time>
      </trkpt>
      <trkpt lat="39.0513200" lon="1.4605850">
        <ele>155.7</ele>
        <time>2020-02-23T15:38:46Z</time>
      </trkpt>
      <trkpt lat="39.0512920" lon="1.4606010">
        <ele>155.7</ele>
        <time>2020-02-23T15:38:47Z</time>
      </trkpt>
      <trkpt lat="39.0512600" lon="1.4606190">
        <ele>155.7</ele>
        <time>2020-02-23T15:38:48Z</time>
      </trkpt>
      <trkpt lat="39.0512190" lon="1.4606340">
        <ele>155.7</ele>
        <time>2020-02-23T15:38:49Z</time>
      </trkpt>
      <trkpt lat="39.0511880" lon="1.4606530">
        <ele>155.7</ele>
        <time>2020-02-23T15:38:50Z</time>
      </trkpt>
      <trkpt lat="39.0511520" lon="1.4606610">
        <ele>155.7</ele>
        <time>2020-02-23T15:38:51Z</time>
      </trkpt>
      <trkpt lat="39.0511000" lon="1.4606820">
        <ele>155.8</ele>
        <time>2020-02-23T15:38:52Z</time>
      </trkpt>
      <trkpt lat="39.0510570" lon="1.4607000">
        <ele>155.8</ele>
        <time>2020-02-23T15:38:53Z</time>
      </trkpt>
      <trkpt lat="39.0510200" lon="1.4607130">
        <ele>155.8</ele>
        <time>2020-02-23T15:38:54Z</time>
      </trkpt>
      <trkpt lat="39.0509890" lon="1.4607260">
        <ele>155.8</ele>
        <time>2020-02-23T15:38:55Z</time>
      </trkpt>
      <trkpt lat="39.0509500" lon="1.4607450">
        <ele>155.9</ele>
        <time>2020-02-23T15:38:56Z</time>
      </trkpt>
      <trkpt lat="39.0509320" lon="1.4607540">
        <ele>155.9</ele>
        <time>2020-02-23T15:38:57Z</time>
      </trkpt>
      <trkpt lat="39.0509010" lon="1.4607750">
        <ele>155.9</ele>
        <time>2020-02-23T15:38:58Z</time>
      </trkpt>
      <trkpt lat="39.0508660" lon="1.4608010">
        <ele>155.9</ele>
        <time>2020-02-23T15:38:59Z</time>
      </trkpt>
      <trkpt lat="39.0508150" lon="1.4608370">
        <ele>155.9</ele>
        <time>2020-02-23T15:39:00Z</time>
      </trkpt>
      <trkpt lat="39.0507760" lon="1.4608670">
        <ele>156.0</ele>
        <time>2020-02-23T15:39:01Z</time>
      </trkpt>
      <trkpt lat="39.0507480" lon="1.4608840">
        <ele>156.0</ele>
        <time>2020-02-23T15:39:02Z</time>
      </trkpt>
      <trkpt lat="39.0507180" lon="1.4609010">
        <ele>156.0</ele>
        <time>2020-02-23T15:39:03Z</time>
      </trkpt>
      <trkpt lat="39.0506810" lon="1.4609220">
        <ele>156.0</ele>
        <time>2020-02-23T15:39:04Z</time>
      </trkpt>
      <trkpt lat="39.0506330" lon="1.4609390">
        <ele>156.0</ele>
        <time>2020-02-23T15:39:05Z</time>
      </trkpt>
      <trkpt lat="39.0506000" lon="1.4609560">
        <ele>156.0</ele>
        <time>2020-02-23T15:39:06Z</time>
      </trkpt>
      <trkpt lat="39.0505680" lon="1.4609760">
        <ele>156.0</ele>
        <time>2020-02-23T15:39:07Z</time>
      </trkpt>
      <trkpt lat="39.0505320" lon="1.4609960">
        <ele>156.0</ele>
        <time>2020-02-23T15:39:08Z</time>
      </trkpt>
      <trkpt lat="39.0504950" lon="1.4610200">
        <ele>156.1</ele>
        <time>2020-02-23T15:39:09Z</time>
      </trkpt>
      <trkpt lat="39.0504510" lon="1.4610570">
        <ele>156.1</ele>
        <time>2020-02-23T15:39:10Z</time>
      </trkpt>
      <trkpt lat="39.0504120" lon="1.4610840">
        <ele>156.1</ele>
        <time>2020-02-23T15:39:11Z</time>
      </trkpt>
      <trkpt lat="39.0503740" lon="1.4611060">
        <ele>156.1</ele>
        <time>2020-02-23T15:39:12Z</time>
      </trkpt>
      <trkpt lat="39.0503330" lon="1.4611260">
        <ele>156.1</ele>
        <time>2020-02-23T15:39:13Z</time>
      </trkpt>
      <trkpt lat="39.0503010" lon="1.4611590">
        <ele>156.1</ele>
        <time>2020-02-23T15:39:14Z</time>
      </trkpt>
      <trkpt lat="39.0502680" lon="1.4611920">
        <ele>156.1</ele>
        <time>2020-02-23T15:39:15Z</time>
      </trkpt>
      <trkpt lat="39.0502390" lon="1.4612170">
        <ele>156.1</ele>
        <time>2020-02-23T15:39:16Z</time>
      </trkpt>
      <trkpt lat="39.0502080" lon="1.4612460">
        <ele>156.1</ele>
        <time>2020-02-23T15:39:17Z</time>
      </trkpt>
      <trkpt lat="39.0501760" lon="1.4612830">
        <ele>156.1</ele>
        <time>2020-02-23T15:39:18Z</time>
      </trkpt>
      <trkpt lat="39.0501380" lon="1.4613130">
        <ele>156.1</ele>
        <time>2020-02-23T15:39:19Z</time>
      </trkpt>
      <trkpt lat="39.0501060" lon="1.4613390">
        <ele>156.1</ele>
        <time>2020-02-23T15:39:20Z</time>
      </trkpt>
      <trkpt lat="39.0500750" lon="1.4613700">
        <ele>156.1</ele>
        <time>2020-02-23T15:39:21Z</time>
      </trkpt>
      <trkpt lat="39.0500370" lon="1.4613910">
        <ele>156.2</ele>
        <time>2020-02-23T15:39:22Z</time>
      </trkpt>
      <trkpt lat="39.0500080" lon="1.4614240">
        <ele>156.2</ele>
        <time>2020-02-23T15:39:23Z</time>
      </trkpt>
      <trkpt lat="39.0499790" lon="1.4614450">
        <ele>156.2</ele>
        <time>2020-02-23T15:39:24Z</time>
      </trkpt>
      <trkpt lat="39.0499470" lon="1.4614650">
        <ele>156.2</ele>
        <time>2020-02-23T15:39:25Z</time>
      </trkpt>
      <trkpt lat="39.0499130" lon="1.4614910">
        <ele>156.2</ele>
        <time>2020-02-23T15:39:26Z</time>
      </trkpt>
      <trkpt lat="39.0498820" lon="1.4615150">
        <ele>156.2</ele>
        <time>2020-02-23T15:39:27Z</time>
      </trkpt>
      <trkpt lat="39.0498460" lon="1.4615420">
        <ele>156.3</ele>
        <time>2020-02-23T15:39:28Z</time>
      </trkpt>
      <trkpt lat="39.0498120" lon="1.4615680">
        <ele>156.3</ele>
        <time>2020-02-23T15:39:29Z</time>
      </trkpt>
      <trkpt lat="39.0497860" lon="1.4615970">
        <ele>156.3</ele>
        <time>2020-02-23T15:39:30Z</time>
      </trkpt>
      <trkpt lat="39.0497470" lon="1.4616200">
        <ele>156.4</ele>
        <time>2020-02-23T15:39:31Z</time>
      </trkpt>
      <trkpt lat="39.0497140" lon="1.4616420">
        <ele>156.4</ele>
        <time>2020-02-23T15:39:32Z</time>
      </trkpt>
      <trkpt lat="39.0496770" lon="1.4616670">
        <ele>156.5</ele>
        <time>2020-02-23T15:39:33Z</time>
      </trkpt>
      <trkpt lat="39.0496450" lon="1.4616860">
        <ele>156.5</ele>
        <time>2020-02-23T15:39:34Z</time>
      </trkpt>
      <trkpt lat="39.0496110" lon="1.4617020">
        <ele>156.6</ele>
        <time>2020-02-23T15:39:35Z</time>
      </trkpt>
      <trkpt lat="39.0495740" lon="1.4617220">
        <ele>156.7</ele>
        <time>2020-02-23T15:39:36Z</time>
      </trkpt>
      <trkpt lat="39.0495420" lon="1.4617450">
        <ele>156.7</ele>
        <time>2020-02-23T15:39:37Z</time>
      </trkpt>
      <trkpt lat="39.0495020" lon="1.4617610">
        <ele>156.8</ele>
        <time>2020-02-23T15:39:38Z</time>
      </trkpt>
      <trkpt lat="39.0494710" lon="1.4617800">
        <ele>156.8</ele>
        <time>2020-02-23T15:39:39Z</time>
      </trkpt>
      <trkpt lat="39.0494400" lon="1.4617990">
        <ele>156.9</ele>
        <time>2020-02-23T15:39:40Z</time>
      </trkpt>
      <trkpt lat="39.0494110" lon="1.4618200">
        <ele>156.9</ele>
        <time>2020-02-23T15:39:41Z</time>
      </trkpt>
      <trkpt lat="39.0493790" lon="1.4618430">
        <ele>157.0</ele>
        <time>2020-02-23T15:39:42Z</time>
      </trkpt>
      <trkpt lat="39.0493370" lon="1.4618590">
        <ele>157.0</ele>
        <time>2020-02-23T15:39:43Z</time>
      </trkpt>
      <trkpt lat="39.0492930" lon="1.4618840">
        <ele>157.1</ele>
        <time>2020-02-23T15:39:44Z</time>
      </trkpt>
      <trkpt lat="39.0492450" lon="1.4619030">
        <ele>157.2</ele>
        <time>2020-02-23T15:39:45Z</time>
      </trkpt>
      <trkpt lat="39.0492120" lon="1.4619300">
        <ele>157.2</ele>
        <time>2020-02-23T15:39:46Z</time>
      </trkpt>
      <trkpt lat="39.0491720" lon="1.4619690">
        <ele>157.3</ele>
        <time>2020-02-23T15:39:47Z</time>
      </trkpt>
      <trkpt lat="39.0491380" lon="1.4619960">
        <ele>157.4</ele>
        <time>2020-02-23T15:39:48Z</time>
      </trkpt>
      <trkpt lat="39.0491060" lon="1.4620210">
        <ele>157.5</ele>
        <time>2020-02-23T15:39:49Z</time>
      </trkpt>
      <trkpt lat="39.0490680" lon="1.4620550">
        <ele>157.5</ele>
        <time>2020-02-23T15:39:50Z</time>
      </trkpt>
      <trkpt lat="39.0490380" lon="1.4620790">
        <ele>157.6</ele>
        <time>2020-02-23T15:39:51Z</time>
      </trkpt>
      <trkpt lat="39.0490060" lon="1.4620990">
        <ele>157.6</ele>
        <time>2020-02-23T15:39:52Z</time>
      </trkpt>
      <trkpt lat="39.0489740" lon="1.4621250">
        <ele>157.7</ele>
        <time>2020-02-23T15:39:53Z</time>
      </trkpt>
      <trkpt lat="39.0489400" lon="1.4621490">
        <ele>157.7</ele>
        <time>2020-02-23T15:39:54Z</time>
      </trkpt>
      <trkpt lat="39.0489070" lon="1.4621740">
        <ele>157.7</ele>
        <time>2020-02-23T15:39:55Z</time>
      </trkpt>
      <trkpt lat="39.0488770" lon="1.4621970">
        <ele>157.7</ele>
        <time>2020-02-23T15:39:56Z</time>
      </trkpt>
      <trkpt lat="39.0488380" lon="1.4622210">
        <ele>157.7</ele>
        <time>2020-02-23T15:39:57Z</time>
      </trkpt>
      <trkpt lat="39.0488040" lon="1.4622420">
        <ele>157.7</ele>
        <time>2020-02-23T15:39:58Z</time>
      </trkpt>
      <trkpt lat="39.0487680" lon="1.4622650">
        <ele>157.7</ele>
        <time>2020-02-23T15:39:59Z</time>
      </trkpt>
      <trkpt lat="39.0487310" lon="1.4622840">
        <ele>157.7</ele>
        <time>2020-02-23T15:40:00Z</time>
      </trkpt>
      <trkpt lat="39.0486930" lon="1.4623040">
        <ele>157.7</ele>
        <time>2020-02-23T15:40:01Z</time>
      </trkpt>
      <trkpt lat="39.0486510" lon="1.4623260">
        <ele>157.7</ele>
        <time>2020-02-23T15:40:02Z</time>
      </trkpt>
      <trkpt lat="39.0486110" lon="1.4623510">
        <ele>157.7</ele>
        <time>2020-02-23T15:40:03Z</time>
      </trkpt>
      <trkpt lat="39.0485810" lon="1.4623630">
        <ele>157.7</ele>
        <time>2020-02-23T15:40:04Z</time>
      </trkpt>
      <trkpt lat="39.0485440" lon="1.4623820">
        <ele>157.7</ele>
        <time>2020-02-23T15:40:05Z</time>
      </trkpt>
      <trkpt lat="39.0485070" lon="1.4624040">
        <ele>157.7</ele>
        <time>2020-02-23T15:40:06Z</time>
      </trkpt>
      <trkpt lat="39.0484720" lon="1.4624270">
        <ele>157.7</ele>
        <time>2020-02-23T15:40:07Z</time>
      </trkpt>
      <trkpt lat="39.0484320" lon="1.4624470">
        <ele>157.7</ele>
        <time>2020-02-23T15:40:08Z</time>
      </trkpt>
      <trkpt lat="39.0483930" lon="1.4624570">
        <ele>157.7</ele>
        <time>2020-02-23T15:40:09Z</time>
      </trkpt>
      <trkpt lat="39.0483540" lon="1.4624700">
        <ele>157.7</ele>
        <time>2020-02-23T15:40:10Z</time>
      </trkpt>
      <trkpt lat="39.0483130" lon="1.4624880">
        <ele>157.6</ele>
        <time>2020-02-23T15:40:11Z</time>
      </trkpt>
      <trkpt lat="39.0482740" lon="1.4625000">
        <ele>157.5</ele>
        <time>2020-02-23T15:40:12Z</time>
      </trkpt>
      <trkpt lat="39.0482320" lon="1.4625080">
        <ele>157.4</ele>
        <time>2020-02-23T15:40:13Z</time>
      </trkpt>
      <trkpt lat="39.0481890" lon="1.4625150">
        <ele>157.3</ele>
        <time>2020-02-23T15:40:14Z</time>
      </trkpt>
      <trkpt lat="39.0481480" lon="1.4625240">
        <ele>157.3</ele>
        <time>2020-02-23T15:40:15Z</time>
      </trkpt>
      <trkpt lat="39.0481030" lon="1.4625300">
        <ele>157.3</ele>
        <time>2020-02-23T15:40:16Z</time>
      </trkpt>
      <trkpt lat="39.0480620" lon="1.4625420">
        <ele>157.3</ele>
        <time>2020-02-23T15:40:17Z</time>
      </trkpt>
      <trkpt lat="39.0480130" lon="1.4625540">
        <ele>157.2</ele>
        <time>2020-02-23T15:40:18Z</time>
      </trkpt>
      <trkpt lat="39.0479680" lon="1.4625630">
        <ele>157.2</ele>
        <time>2020-02-23T15:40:19Z</time>
      </trkpt>
      <trkpt lat="39.0479220" lon="1.4625750">
        <ele>157.2</ele>
        <time>2020-02-23T15:40:20Z</time>
      </trkpt>
      <trkpt lat="39.0478730" lon="1.4625860">
        <ele>157.2</ele>
        <time>2020-02-23T15:40:21Z</time>
      </trkpt>
      <trkpt lat="39.0478220" lon="1.4625970">
        <ele>157.2</ele>
        <time>2020-02-23T15:40:22Z</time>
      </trkpt>
      <trkpt lat="39.0477800" lon="1.4626080">
        <ele>157.1</ele>
        <time>2020-02-23T15:40:23Z</time>
      </trkpt>
      <trkpt lat="39.0477300" lon="1.4626120">
        <ele>157.1</ele>
        <time>2020-02-23T15:40:24Z</time>
      </trkpt>
      <trkpt lat="39.0476820" lon="1.4626170">
        <ele>157.1</ele>
        <time>2020-02-23T15:40:25Z</time>
      </trkpt>
      <trkpt lat="39.0476310" lon="1.4626200">
        <ele>157.1</ele>
        <time>2020-02-23T15:40:26Z</time>
      </trkpt>
      <trkpt lat="39.0475750" lon="1.4626260">
        <ele>157.2</ele>
        <time>2020-02-23T15:40:27Z</time>
      </trkpt>
      <trkpt lat="39.0475170" lon="1.4626310">
        <ele>157.2</ele>
        <time>2020-02-23T15:40:28Z</time>
      </trkpt>
      <trkpt lat="39.0474530" lon="1.4626410">
        <ele>157.1</ele>
        <time>2020-02-23T15:40:29Z</time>
      </trkpt>
      <trkpt lat="39.0473920" lon="1.4626490">
        <ele>157.0</ele>
        <time>2020-02-23T15:40:30Z</time>
      </trkpt>
      <trkpt lat="39.0473370" lon="1.4626490">
        <ele>156.8</ele>
        <time>2020-02-23T15:40:31Z</time>
      </trkpt>
      <trkpt lat="39.0472830" lon="1.4626530">
        <ele>156.6</ele>
        <time>2020-02-23T15:40:32Z</time>
      </trkpt>
      <trkpt lat="39.0472270" lon="1.4626580">
        <ele>156.4</ele>
        <time>2020-02-23T15:40:33Z</time>
      </trkpt>
      <trkpt lat="39.0471620" lon="1.4626650">
        <ele>156.1</ele>
        <time>2020-02-23T15:40:34Z</time>
      </trkpt>
      <trkpt lat="39.0471050" lon="1.4626730">
        <ele>156.0</ele>
        <time>2020-02-23T15:40:35Z</time>
      </trkpt>
      <trkpt lat="39.0470470" lon="1.4626810">
        <ele>155.8</ele>
        <time>2020-02-23T15:40:36Z</time>
      </trkpt>
      <trkpt lat="39.0469890" lon="1.4626870">
        <ele>155.5</ele>
        <time>2020-02-23T15:40:37Z</time>
      </trkpt>
      <trkpt lat="39.0469340" lon="1.4626940">
        <ele>155.4</ele>
        <time>2020-02-23T15:40:38Z</time>
      </trkpt>
      <trkpt lat="39.0468790" lon="1.4627090">
        <ele>155.2</ele>
        <time>2020-02-23T15:40:39Z</time>
      </trkpt>
      <trkpt lat="39.0468190" lon="1.4627170">
        <ele>155.0</ele>
        <time>2020-02-23T15:40:40Z</time>
      </trkpt>
      <trkpt lat="39.0467550" lon="1.4627210">
        <ele>154.8</ele>
        <time>2020-02-23T15:40:41Z</time>
      </trkpt>
      <trkpt lat="39.0466970" lon="1.4627270">
        <ele>154.7</ele>
        <time>2020-02-23T15:40:42Z</time>
      </trkpt>
      <trkpt lat="39.0466370" lon="1.4627430">
        <ele>154.4</ele>
        <time>2020-02-23T15:40:43Z</time>
      </trkpt>
      <trkpt lat="39.0465690" lon="1.4627650">
        <ele>154.2</ele>
        <time>2020-02-23T15:40:44Z</time>
      </trkpt>
      <trkpt lat="39.0465170" lon="1.4627840">
        <ele>154.0</ele>
        <time>2020-02-23T15:40:45Z</time>
      </trkpt>
      <trkpt lat="39.0464600" lon="1.4628020">
        <ele>153.8</ele>
        <time>2020-02-23T15:40:46Z</time>
      </trkpt>
      <trkpt lat="39.0464010" lon="1.4628090">
        <ele>153.6</ele>
        <time>2020-02-23T15:40:47Z</time>
      </trkpt>
      <trkpt lat="39.0463470" lon="1.4628120">
        <ele>153.4</ele>
        <time>2020-02-23T15:40:48Z</time>
      </trkpt>
      <trkpt lat="39.0462860" lon="1.4628190">
        <ele>153.1</ele>
        <time>2020-02-23T15:40:49Z</time>
      </trkpt>
      <trkpt lat="39.0462220" lon="1.4628270">
        <ele>153.0</ele>
        <time>2020-02-23T15:40:50Z</time>
      </trkpt>
      <trkpt lat="39.0461610" lon="1.4628300">
        <ele>152.8</ele>
        <time>2020-02-23T15:40:51Z</time>
      </trkpt>
      <trkpt lat="39.0461000" lon="1.4628360">
        <ele>152.6</ele>
        <time>2020-02-23T15:40:52Z</time>
      </trkpt>
      <trkpt lat="39.0460450" lon="1.4628480">
        <ele>152.4</ele>
        <time>2020-02-23T15:40:53Z</time>
      </trkpt>
      <trkpt lat="39.0459820" lon="1.4628570">
        <ele>152.1</ele>
        <time>2020-02-23T15:40:54Z</time>
      </trkpt>
      <trkpt lat="39.0459230" lon="1.4628630">
        <ele>151.8</ele>
        <time>2020-02-23T15:40:55Z</time>
      </trkpt>
      <trkpt lat="39.0458650" lon="1.4628710">
        <ele>151.5</ele>
        <time>2020-02-23T15:40:56Z</time>
      </trkpt>
      <trkpt lat="39.0458170" lon="1.4628760">
        <ele>151.3</ele>
        <time>2020-02-23T15:40:57Z</time>
      </trkpt>
      <trkpt lat="39.0457580" lon="1.4628810">
        <ele>150.9</ele>
        <time>2020-02-23T15:40:58Z</time>
      </trkpt>
      <trkpt lat="39.0456840" lon="1.4628810">
        <ele>150.4</ele>
        <time>2020-02-23T15:40:59Z</time>
      </trkpt>
      <trkpt lat="39.0456110" lon="1.4628760">
        <ele>150.0</ele>
        <time>2020-02-23T15:41:00Z</time>
      </trkpt>
      <trkpt lat="39.0455370" lon="1.4628710">
        <ele>149.7</ele>
        <time>2020-02-23T15:41:01Z</time>
      </trkpt>
      <trkpt lat="39.0454760" lon="1.4628710">
        <ele>149.4</ele>
        <time>2020-02-23T15:41:02Z</time>
      </trkpt>
      <trkpt lat="39.0454130" lon="1.4628630">
        <ele>149.1</ele>
        <time>2020-02-23T15:41:03Z</time>
      </trkpt>
      <trkpt lat="39.0453390" lon="1.4628600">
        <ele>148.7</ele>
        <time>2020-02-23T15:41:04Z</time>
      </trkpt>
      <trkpt lat="39.0452660" lon="1.4628560">
        <ele>148.3</ele>
        <time>2020-02-23T15:41:05Z</time>
      </trkpt>
      <trkpt lat="39.0451920" lon="1.4628520">
        <ele>148.1</ele>
        <time>2020-02-23T15:41:06Z</time>
      </trkpt>
      <trkpt lat="39.0451060" lon="1.4628500">
        <ele>147.8</ele>
        <time>2020-02-23T15:41:07Z</time>
      </trkpt>
      <trkpt lat="39.0450210" lon="1.4628450">
        <ele>147.5</ele>
        <time>2020-02-23T15:41:08Z</time>
      </trkpt>
      <trkpt lat="39.0449290" lon="1.4628430">
        <ele>147.1</ele>
        <time>2020-02-23T15:41:09Z</time>
      </trkpt>
      <trkpt lat="39.0448270" lon="1.4628430">
        <ele>146.7</ele>
        <time>2020-02-23T15:41:10Z</time>
      </trkpt>
      <trkpt lat="39.0447300" lon="1.4628420">
        <ele>146.4</ele>
        <time>2020-02-23T15:41:11Z</time>
      </trkpt>
      <trkpt lat="39.0446340" lon="1.4628360">
        <ele>146.1</ele>
        <time>2020-02-23T15:41:12Z</time>
      </trkpt>
      <trkpt lat="39.0445310" lon="1.4628450">
        <ele>145.9</ele>
        <time>2020-02-23T15:41:13Z</time>
      </trkpt>
      <trkpt lat="39.0444300" lon="1.4628490">
        <ele>145.8</ele>
        <time>2020-02-23T15:41:14Z</time>
      </trkpt>
      <trkpt lat="39.0443330" lon="1.4628480">
        <ele>145.8</ele>
        <time>2020-02-23T15:41:15Z</time>
      </trkpt>
      <trkpt lat="39.0442420" lon="1.4628440">
        <ele>145.8</ele>
        <time>2020-02-23T15:41:16Z</time>
      </trkpt>
      <trkpt lat="39.0441570" lon="1.4628500">
        <ele>145.8</ele>
        <time>2020-02-23T15:41:17Z</time>
      </trkpt>
      <trkpt lat="39.0440760" lon="1.4628590">
        <ele>145.7</ele>
        <time>2020-02-23T15:41:18Z</time>
      </trkpt>
      <trkpt lat="39.0440000" lon="1.4628730">
        <ele>145.6</ele>
        <time>2020-02-23T15:41:19Z</time>
      </trkpt>
      <trkpt lat="39.0439240" lon="1.4628860">
        <ele>145.5</ele>
        <time>2020-02-23T15:41:20Z</time>
      </trkpt>
      <trkpt lat="39.0438520" lon="1.4629060">
        <ele>145.3</ele>
        <time>2020-02-23T15:41:21Z</time>
      </trkpt>
      <trkpt lat="39.0437830" lon="1.4629330">
        <ele>145.1</ele>
        <time>2020-02-23T15:41:22Z</time>
      </trkpt>
      <trkpt lat="39.0437160" lon="1.4629590">
        <ele>144.9</ele>
        <time>2020-02-23T15:41:23Z</time>
      </trkpt>
      <trkpt lat="39.0436520" lon="1.4629890">
        <ele>144.7</ele>
        <time>2020-02-23T15:41:24Z</time>
      </trkpt>
      <trkpt lat="39.0435880" lon="1.4630210">
        <ele>144.5</ele>
        <time>2020-02-23T15:41:25Z</time>
      </trkpt>
      <trkpt lat="39.0435230" lon="1.4630490">
        <ele>144.3</ele>
        <time>2020-02-23T15:41:26Z</time>
      </trkpt>
      <trkpt lat="39.0434590" lon="1.4630800">
        <ele>144.1</ele>
        <time>2020-02-23T15:41:27Z</time>
      </trkpt>
      <trkpt lat="39.0433970" lon="1.4631160">
        <ele>143.9</ele>
        <time>2020-02-23T15:41:28Z</time>
      </trkpt>
      <trkpt lat="39.0433340" lon="1.4631470">
        <ele>143.7</ele>
        <time>2020-02-23T15:41:29Z</time>
      </trkpt>
      <trkpt lat="39.0432710" lon="1.4631740">
        <ele>143.6</ele>
        <time>2020-02-23T15:41:30Z</time>
      </trkpt>
      <trkpt lat="39.0432050" lon="1.4631970">
        <ele>143.5</ele>
        <time>2020-02-23T15:41:31Z</time>
      </trkpt>
      <trkpt lat="39.0431390" lon="1.4632190">
        <ele>143.4</ele>
        <time>2020-02-23T15:41:32Z</time>
      </trkpt>
      <trkpt lat="39.0430710" lon="1.4632380">
        <ele>143.2</ele>
        <time>2020-02-23T15:41:33Z</time>
      </trkpt>
      <trkpt lat="39.0430030" lon="1.4632570">
        <ele>143.0</ele>
        <time>2020-02-23T15:41:34Z</time>
      </trkpt>
      <trkpt lat="39.0429360" lon="1.4632680">
        <ele>142.8</ele>
        <time>2020-02-23T15:41:35Z</time>
      </trkpt>
      <trkpt lat="39.0428690" lon="1.4632830">
        <ele>142.6</ele>
        <time>2020-02-23T15:41:36Z</time>
      </trkpt>
      <trkpt lat="39.0428030" lon="1.4633000">
        <ele>142.5</ele>
        <time>2020-02-23T15:41:37Z</time>
      </trkpt>
      <trkpt lat="39.0427380" lon="1.4633140">
        <ele>142.5</ele>
        <time>2020-02-23T15:41:38Z</time>
      </trkpt>
      <trkpt lat="39.0426730" lon="1.4633260">
        <ele>142.4</ele>
        <time>2020-02-23T15:41:39Z</time>
      </trkpt>
      <trkpt lat="39.0426080" lon="1.4633390">
        <ele>142.4</ele>
        <time>2020-02-23T15:41:40Z</time>
      </trkpt>
      <trkpt lat="39.0425450" lon="1.4633520">
        <ele>142.4</ele>
        <time>2020-02-23T15:41:41Z</time>
      </trkpt>
      <trkpt lat="39.0424810" lon="1.4633630">
        <ele>142.3</ele>
        <time>2020-02-23T15:41:42Z</time>
      </trkpt>
      <trkpt lat="39.0424190" lon="1.4633760">
        <ele>142.3</ele>
        <time>2020-02-23T15:41:43Z</time>
      </trkpt>
      <trkpt lat="39.0423590" lon="1.4633880">
        <ele>142.3</ele>
        <time>2020-02-23T15:41:44Z</time>
      </trkpt>
      <trkpt lat="39.0423010" lon="1.4634020">
        <ele>142.3</ele>
        <time>2020-02-23T15:41:45Z</time>
      </trkpt>
      <trkpt lat="39.0422420" lon="1.4634180">
        <ele>142.3</ele>
        <time>2020-02-23T15:41:46Z</time>
      </trkpt>
      <trkpt lat="39.0421830" lon="1.4634260">
        <ele>142.3</ele>
        <time>2020-02-23T15:41:47Z</time>
      </trkpt>
      <trkpt lat="39.0421260" lon="1.4634440">
        <ele>142.3</ele>
        <time>2020-02-23T15:41:48Z</time>
      </trkpt>
      <trkpt lat="39.0420710" lon="1.4634560">
        <ele>142.3</ele>
        <time>2020-02-23T15:41:49Z</time>
      </trkpt>
      <trkpt lat="39.0420170" lon="1.4634740">
        <ele>142.3</ele>
        <time>2020-02-23T15:41:50Z</time>
      </trkpt>
      <trkpt lat="39.0419630" lon="1.4634910">
        <ele>142.3</ele>
        <time>2020-02-23T15:41:51Z</time>
      </trkpt>
      <trkpt lat="39.0419090" lon="1.4635010">
        <ele>142.3</ele>
        <time>2020-02-23T15:41:52Z</time>
      </trkpt>
      <trkpt lat="39.0418550" lon="1.4635190">
        <ele>142.3</ele>
        <time>2020-02-23T15:41:53Z</time>
      </trkpt>
      <trkpt lat="39.0417980" lon="1.4635300">
        <ele>142.2</ele>
        <time>2020-02-23T15:41:54Z</time>
      </trkpt>
      <trkpt lat="39.0417400" lon="1.4635410">
        <ele>142.2</ele>
        <time>2020-02-23T15:41:55Z</time>
      </trkpt>
      <trkpt lat="39.0416820" lon="1.4635590">
        <ele>142.1</ele>
        <time>2020-02-23T15:41:56Z</time>
      </trkpt>
      <trkpt lat="39.0416210" lon="1.4635700">
        <ele>142.0</ele>
        <time>2020-02-23T15:41:57Z</time>
      </trkpt>
      <trkpt lat="39.0415610" lon="1.4635850">
        <ele>141.9</ele>
        <time>2020-02-23T15:41:58Z</time>
      </trkpt>
      <trkpt lat="39.0415020" lon="1.4636040">
        <ele>141.8</ele>
        <time>2020-02-23T15:41:59Z</time>
      </trkpt>
      <trkpt lat="39.0414430" lon="1.4636090">
        <ele>141.6</ele>
        <time>2020-02-23T15:42:00Z</time>
      </trkpt>
      <trkpt lat="39.0413840" lon="1.4636290">
        <ele>141.4</ele>
        <time>2020-02-23T15:42:01Z</time>
      </trkpt>
      <trkpt lat="39.0413250" lon="1.4636400">
        <ele>141.3</ele>
        <time>2020-02-23T15:42:02Z</time>
      </trkpt>
      <trkpt lat="39.0412640" lon="1.4636500">
        <ele>141.1</ele>
        <time>2020-02-23T15:42:03Z</time>
      </trkpt>
      <trkpt lat="39.0412030" lon="1.4636690">
        <ele>141.0</ele>
        <time>2020-02-23T15:42:04Z</time>
      </trkpt>
      <trkpt lat="39.0411380" lon="1.4636810">
        <ele>140.8</ele>
        <time>2020-02-23T15:42:05Z</time>
      </trkpt>
      <trkpt lat="39.0410740" lon="1.4636920">
        <ele>140.6</ele>
        <time>2020-02-23T15:42:06Z</time>
      </trkpt>
      <trkpt lat="39.0410150" lon="1.4637080">
        <ele>140.5</ele>
        <time>2020-02-23T15:42:07Z</time>
      </trkpt>
      <trkpt lat="39.0409570" lon="1.4637290">
        <ele>140.4</ele>
        <time>2020-02-23T15:42:08Z</time>
      </trkpt>
      <trkpt lat="39.0409000" lon="1.4637410">
        <ele>140.3</ele>
        <time>2020-02-23T15:42:09Z</time>
      </trkpt>
      <trkpt lat="39.0408420" lon="1.4637540">
        <ele>140.3</ele>
        <time>2020-02-23T15:42:10Z</time>
      </trkpt>
      <trkpt lat="39.0407860" lon="1.4637570">
        <ele>140.2</ele>
        <time>2020-02-23T15:42:11Z</time>
      </trkpt>
      <trkpt lat="39.0407320" lon="1.4637590">
        <ele>140.2</ele>
        <time>2020-02-23T15:42:12Z</time>
      </trkpt>
      <trkpt lat="39.0406770" lon="1.4637610">
        <ele>140.2</ele>
        <time>2020-02-23T15:42:13Z</time>
      </trkpt>
      <trkpt lat="39.0406200" lon="1.4637710">
        <ele>140.2</ele>
        <time>2020-02-23T15:42:14Z</time>
      </trkpt>
      <trkpt lat="39.0405580" lon="1.4637780">
        <ele>140.2</ele>
        <time>2020-02-23T15:42:15Z</time>
      </trkpt>
      <trkpt lat="39.0404960" lon="1.4637820">
        <ele>140.2</ele>
        <time>2020-02-23T15:42:16Z</time>
      </trkpt>
      <trkpt lat="39.0404280" lon="1.4637960">
        <ele>140.2</ele>
        <time>2020-02-23T15:42:17Z</time>
      </trkpt>
      <trkpt lat="39.0403630" lon="1.4638060">
        <ele>140.2</ele>
        <time>2020-02-23T15:42:18Z</time>
      </trkpt>
      <trkpt lat="39.0403000" lon="1.4638110">
        <ele>140.2</ele>
        <time>2020-02-23T15:42:19Z</time>
      </trkpt>
      <trkpt lat="39.0402350" lon="1.4638080">
        <ele>140.2</ele>
        <time>2020-02-23T15:42:20Z</time>
      </trkpt>
      <trkpt lat="39.0401700" lon="1.4637980">
        <ele>140.1</ele>
        <time>2020-02-23T15:42:21Z</time>
      </trkpt>
      <trkpt lat="39.0401060" lon="1.4637720">
        <ele>140.1</ele>
        <time>2020-02-23T15:42:22Z</time>
      </trkpt>
      <trkpt lat="39.0400380" lon="1.4637650">
        <ele>140.0</ele>
        <time>2020-02-23T15:42:23Z</time>
      </trkpt>
      <trkpt lat="39.0399650" lon="1.4637570">
        <ele>139.8</ele>
        <time>2020-02-23T15:42:24Z</time>
      </trkpt>
      <trkpt lat="39.0398890" lon="1.4637460">
        <ele>139.6</ele>
        <time>2020-02-23T15:42:25Z</time>
      </trkpt>
      <trkpt lat="39.0398140" lon="1.4637260">
        <ele>139.3</ele>
        <time>2020-02-23T15:42:26Z</time>
      </trkpt>
      <trkpt lat="39.0397390" lon="1.4637180">
        <ele>139.1</ele>
        <time>2020-02-23T15:42:27Z</time>
      </trkpt>
      <trkpt lat="39.0396650" lon="1.4637010">
        <ele>138.8</ele>
        <time>2020-02-23T15:42:28Z</time>
      </trkpt>
      <trkpt lat="39.0395960" lon="1.4636860">
        <ele>138.4</ele>
        <time>2020-02-23T15:42:29Z</time>
      </trkpt>
      <trkpt lat="39.0395290" lon="1.4636680">
        <ele>138.1</ele>
        <time>2020-02-23T15:42:30Z</time>
      </trkpt>
      <trkpt lat="39.0394630" lon="1.4636460">
        <ele>137.6</ele>
        <time>2020-02-23T15:42:31Z</time>
      </trkpt>
      <trkpt lat="39.0393980" lon="1.4636190">
        <ele>137.2</ele>
        <time>2020-02-23T15:42:32Z</time>
      </trkpt>
      <trkpt lat="39.0393410" lon="1.4635940">
        <ele>136.8</ele>
        <time>2020-02-23T15:42:33Z</time>
      </trkpt>
      <trkpt lat="39.0392870" lon="1.4635670">
        <ele>136.4</ele>
        <time>2020-02-23T15:42:34Z</time>
      </trkpt>
      <trkpt lat="39.0392350" lon="1.4635310">
        <ele>136.0</ele>
        <time>2020-02-23T15:42:35Z</time>
      </trkpt>
      <trkpt lat="39.0391830" lon="1.4635080">
        <ele>135.7</ele>
        <time>2020-02-23T15:42:36Z</time>
      </trkpt>
      <trkpt lat="39.0391330" lon="1.4634890">
        <ele>135.5</ele>
        <time>2020-02-23T15:42:37Z</time>
      </trkpt>
      <trkpt lat="39.0390860" lon="1.4634620">
        <ele>135.4</ele>
        <time>2020-02-23T15:42:38Z</time>
      </trkpt>
      <trkpt lat="39.0390450" lon="1.4634290">
        <ele>135.3</ele>
        <time>2020-02-23T15:42:39Z</time>
      </trkpt>
      <trkpt lat="39.0390050" lon="1.4633990">
        <ele>135.2</ele>
        <time>2020-02-23T15:42:40Z</time>
      </trkpt>
      <trkpt lat="39.0389630" lon="1.4633690">
        <ele>135.2</ele>
        <time>2020-02-23T15:42:41Z</time>
      </trkpt>
      <trkpt lat="39.0389200" lon="1.4633340">
        <ele>135.2</ele>
        <time>2020-02-23T15:42:42Z</time>
      </trkpt>
      <trkpt lat="39.0388710" lon="1.4633030">
        <ele>135.1</ele>
        <time>2020-02-23T15:42:43Z</time>
      </trkpt>
      <trkpt lat="39.0388230" lon="1.4632710">
        <ele>135.1</ele>
        <time>2020-02-23T15:42:44Z</time>
      </trkpt>
      <trkpt lat="39.0387760" lon="1.4632340">
        <ele>135.1</ele>
        <time>2020-02-23T15:42:45Z</time>
      </trkpt>
      <trkpt lat="39.0387310" lon="1.4631960">
        <ele>135.1</ele>
        <time>2020-02-23T15:42:46Z</time>
      </trkpt>
      <trkpt lat="39.0386870" lon="1.4631640">
        <ele>135.1</ele>
        <time>2020-02-23T15:42:47Z</time>
      </trkpt>
      <trkpt lat="39.0386410" lon="1.4631290">
        <ele>135.1</ele>
        <time>2020-02-23T15:42:48Z</time>
      </trkpt>
      <trkpt lat="39.0385960" lon="1.4630890">
        <ele>135.1</ele>
        <time>2020-02-23T15:42:49Z</time>
      </trkpt>
      <trkpt lat="39.0385470" lon="1.4630580">
        <ele>135.1</ele>
        <time>2020-02-23T15:42:50Z</time>
      </trkpt>
      <trkpt lat="39.0384980" lon="1.4630270">
        <ele>135.1</ele>
        <time>2020-02-23T15:42:51Z</time>
      </trkpt>
      <trkpt lat="39.0384450" lon="1.4630030">
        <ele>135.1</ele>
        <time>2020-02-23T15:42:52Z</time>
      </trkpt>
      <trkpt lat="39.0383840" lon="1.4629780">
        <ele>135.1</ele>
        <time>2020-02-23T15:42:53Z</time>
      </trkpt>
      <trkpt lat="39.0383150" lon="1.4629660">
        <ele>135.1</ele>
        <time>2020-02-23T15:42:54Z</time>
      </trkpt>
      <trkpt lat="39.0382420" lon="1.4629600">
        <ele>135.1</ele>
        <time>2020-02-23T15:42:55Z</time>
      </trkpt>
      <trkpt lat="39.0381650" lon="1.4629540">
        <ele>135.1</ele>
        <time>2020-02-23T15:42:56Z</time>
      </trkpt>
      <trkpt lat="39.0380860" lon="1.4629480">
        <ele>135.0</ele>
        <time>2020-02-23T15:42:57Z</time>
      </trkpt>
      <trkpt lat="39.0380070" lon="1.4629370">
        <ele>134.9</ele>
        <time>2020-02-23T15:42:58Z</time>
      </trkpt>
      <trkpt lat="39.0379250" lon="1.4629310">
        <ele>134.7</ele>
        <time>2020-02-23T15:42:59Z</time>
      </trkpt>
      <trkpt lat="39.0378420" lon="1.4629290">
        <ele>134.5</ele>
        <time>2020-02-23T15:43:00Z</time>
      </trkpt>
      <trkpt lat="39.0377590" lon="1.4629190">
        <ele>134.2</ele>
        <time>2020-02-23T15:43:01Z</time>
      </trkpt>
      <trkpt lat="39.0376750" lon="1.4629170">
        <ele>133.8</ele>
        <time>2020-02-23T15:43:02Z</time>
      </trkpt>
      <trkpt lat="39.0375900" lon="1.4629120">
        <ele>133.5</ele>
        <time>2020-02-23T15:43:03Z</time>
      </trkpt>
      <trkpt lat="39.0375050" lon="1.4629060">
        <ele>133.1</ele>
        <time>2020-02-23T15:43:04Z</time>
      </trkpt>
      <trkpt lat="39.0374190" lon="1.4629040">
        <ele>132.6</ele>
        <time>2020-02-23T15:43:05Z</time>
      </trkpt>
      <trkpt lat="39.0373300" lon="1.4629060">
        <ele>132.1</ele>
        <time>2020-02-23T15:43:06Z</time>
      </trkpt>
      <trkpt lat="39.0372410" lon="1.4629060">
        <ele>131.5</ele>
        <time>2020-02-23T15:43:07Z</time>
      </trkpt>
      <trkpt lat="39.0371520" lon="1.4629090">
        <ele>130.8</ele>
        <time>2020-02-23T15:43:08Z</time>
      </trkpt>
      <trkpt lat="39.0370630" lon="1.4629040">
        <ele>130.0</ele>
        <time>2020-02-23T15:43:09Z</time>
      </trkpt>
      <trkpt lat="39.0369750" lon="1.4628950">
        <ele>129.3</ele>
        <time>2020-02-23T15:43:10Z</time>
      </trkpt>
      <trkpt lat="39.0368890" lon="1.4628900">
        <ele>128.6</ele>
        <time>2020-02-23T15:43:11Z</time>
      </trkpt>
      <trkpt lat="39.0368040" lon="1.4628880">
        <ele>128.0</ele>
        <time>2020-02-23T15:43:12Z</time>
      </trkpt>
      <trkpt lat="39.0367220" lon="1.4628850">
        <ele>127.5</ele>
        <time>2020-02-23T15:43:13Z</time>
      </trkpt>
      <trkpt lat="39.0366390" lon="1.4628800">
        <ele>127.1</ele>
        <time>2020-02-23T15:43:14Z</time>
      </trkpt>
      <trkpt lat="39.0365570" lon="1.4628770">
        <ele>126.8</ele>
        <time>2020-02-23T15:43:15Z</time>
      </trkpt>
      <trkpt lat="39.0364790" lon="1.4628760">
        <ele>126.5</ele>
        <time>2020-02-23T15:43:16Z</time>
      </trkpt>
      <trkpt lat="39.0364030" lon="1.4628770">
        <ele>126.3</ele>
        <time>2020-02-23T15:43:17Z</time>
      </trkpt>
      <trkpt lat="39.0363310" lon="1.4628760">
        <ele>126.2</ele>
        <time>2020-02-23T15:43:18Z</time>
      </trkpt>
      <trkpt lat="39.0362660" lon="1.4628780">
        <ele>126.1</ele>
        <time>2020-02-23T15:43:19Z</time>
      </trkpt>
      <trkpt lat="39.0362040" lon="1.4628810">
        <ele>126.1</ele>
        <time>2020-02-23T15:43:20Z</time>
      </trkpt>
      <trkpt lat="39.0361440" lon="1.4628680">
        <ele>126.1</ele>
        <time>2020-02-23T15:43:21Z</time>
      </trkpt>
      <trkpt lat="39.0360840" lon="1.4628670">
        <ele>126.0</ele>
        <time>2020-02-23T15:43:22Z</time>
      </trkpt>
      <trkpt lat="39.0360260" lon="1.4628730">
        <ele>126.0</ele>
        <time>2020-02-23T15:43:23Z</time>
      </trkpt>
      <trkpt lat="39.0359690" lon="1.4628730">
        <ele>126.0</ele>
        <time>2020-02-23T15:43:24Z</time>
      </trkpt>
      <trkpt lat="39.0359160" lon="1.4628730">
        <ele>126.0</ele>
        <time>2020-02-23T15:43:25Z</time>
      </trkpt>
      <trkpt lat="39.0358670" lon="1.4628540">
        <ele>126.0</ele>
        <time>2020-02-23T15:43:26Z</time>
      </trkpt>
      <trkpt lat="39.0358270" lon="1.4628520">
        <ele>126.1</ele>
        <time>2020-02-23T15:43:27Z</time>
      </trkpt>
      <trkpt lat="39.0357900" lon="1.4628630">
        <ele>126.1</ele>
        <time>2020-02-23T15:43:28Z</time>
      </trkpt>
      <trkpt lat="39.0357580" lon="1.4628710">
        <ele>126.1</ele>
        <time>2020-02-23T15:43:29Z</time>
      </trkpt>
      <trkpt lat="39.0357230" lon="1.4628710">
        <ele>126.2</ele>
        <time>2020-02-23T15:43:30Z</time>
      </trkpt>
      <trkpt lat="39.0356880" lon="1.4628720">
        <ele>126.3</ele>
        <time>2020-02-23T15:43:31Z</time>
      </trkpt>
      <trkpt lat="39.0356550" lon="1.4628760">
        <ele>126.4</ele>
        <time>2020-02-23T15:43:32Z</time>
      </trkpt>
      <trkpt lat="39.0356240" lon="1.4628750">
        <ele>126.5</ele>
        <time>2020-02-23T15:43:33Z</time>
      </trkpt>
      <trkpt lat="39.0355940" lon="1.4628810">
        <ele>126.7</ele>
        <time>2020-02-23T15:43:34Z</time>
      </trkpt>
      <trkpt lat="39.0355660" lon="1.4628790">
        <ele>126.8</ele>
        <time>2020-02-23T15:43:35Z</time>
      </trkpt>
      <trkpt lat="39.0355400" lon="1.4628920">
        <ele>126.9</ele>
        <time>2020-02-23T15:43:36Z</time>
      </trkpt>
      <trkpt lat="39.0355120" lon="1.4628860">
        <ele>127.0</ele>
        <time>2020-02-23T15:43:37Z</time>
      </trkpt>
      <trkpt lat="39.0354850" lon="1.4628980">
        <ele>127.2</ele>
        <time>2020-02-23T15:43:38Z</time>
      </trkpt>
      <trkpt lat="39.0354460" lon="1.4629000">
        <ele>127.5</ele>
        <time>2020-02-23T15:43:39Z</time>
      </trkpt>
      <trkpt lat="39.0354330" lon="1.4628980">
        <ele>127.6</ele>
        <time>2020-02-23T15:43:40Z</time>
      </trkpt>
      <trkpt lat="39.0354000" lon="1.4628960">
        <ele>127.8</ele>
        <time>2020-02-23T15:43:41Z</time>
      </trkpt>
      <trkpt lat="39.0353890" lon="1.4628960">
        <ele>127.8</ele>
        <time>2020-02-23T15:43:42Z</time>
      </trkpt>
      <trkpt lat="39.0353560" lon="1.4629060">
        <ele>128.0</ele>
        <time>2020-02-23T15:43:43Z</time>
      </trkpt>
      <trkpt lat="39.0353450" lon="1.4629080">
        <ele>128.1</ele>
        <time>2020-02-23T15:43:44Z</time>
      </trkpt>
      <trkpt lat="39.0353080" lon="1.4629030">
        <ele>128.3</ele>
        <time>2020-02-23T15:43:45Z</time>
      </trkpt>
      <trkpt lat="39.0352940" lon="1.4629000">
        <ele>128.3</ele>
        <time>2020-02-23T15:43:46Z</time>
      </trkpt>
      <trkpt lat="39.0352620" lon="1.4628890">
        <ele>128.5</ele>
        <time>2020-02-23T15:43:47Z</time>
      </trkpt>
      <trkpt lat="39.0352250" lon="1.4628910">
        <ele>128.7</ele>
        <time>2020-02-23T15:43:48Z</time>
      </trkpt>
      <trkpt lat="39.0351840" lon="1.4628920">
        <ele>128.8</ele>
        <time>2020-02-23T15:43:49Z</time>
      </trkpt>
      <trkpt lat="39.0351460" lon="1.4628980">
        <ele>128.9</ele>
        <time>2020-02-23T15:43:50Z</time>
      </trkpt>
      <trkpt lat="39.0351100" lon="1.4628970">
        <ele>129.0</ele>
        <time>2020-02-23T15:43:51Z</time>
      </trkpt>
      <trkpt lat="39.0350810" lon="1.4629030">
        <ele>129.0</ele>
        <time>2020-02-23T15:43:52Z</time>
      </trkpt>
      <trkpt lat="39.0350520" lon="1.4629130">
        <ele>129.1</ele>
        <time>2020-02-23T15:43:53Z</time>
      </trkpt>
      <trkpt lat="39.0350150" lon="1.4629230">
        <ele>129.1</ele>
        <time>2020-02-23T15:43:54Z</time>
      </trkpt>
      <trkpt lat="39.0349820" lon="1.4629330">
        <ele>129.1</ele>
        <time>2020-02-23T15:43:55Z</time>
      </trkpt>
      <trkpt lat="39.0349440" lon="1.4629460">
        <ele>129.1</ele>
        <time>2020-02-23T15:43:56Z</time>
      </trkpt>
      <trkpt lat="39.0349160" lon="1.4629580">
        <ele>129.1</ele>
        <time>2020-02-23T15:43:57Z</time>
      </trkpt>
      <trkpt lat="39.0348700" lon="1.4629770">
        <ele>129.0</ele>
        <time>2020-02-23T15:43:58Z</time>
      </trkpt>
      <trkpt lat="39.0348280" lon="1.4629980">
        <ele>128.9</ele>
        <time>2020-02-23T15:43:59Z</time>
      </trkpt>
      <trkpt lat="39.0347800" lon="1.4630190">
        <ele>128.9</ele>
        <time>2020-02-23T15:44:00Z</time>
      </trkpt>
      <trkpt lat="39.0347320" lon="1.4630480">
        <ele>128.8</ele>
        <time>2020-02-23T15:44:01Z</time>
      </trkpt>
      <trkpt lat="39.0346850" lon="1.4630820">
        <ele>128.6</ele>
        <time>2020-02-23T15:44:02Z</time>
      </trkpt>
      <trkpt lat="39.0346350" lon="1.4631280">
        <ele>128.5</ele>
        <time>2020-02-23T15:44:03Z</time>
      </trkpt>
      <trkpt lat="39.0345820" lon="1.4631740">
        <ele>128.4</ele>
        <time>2020-02-23T15:44:04Z</time>
      </trkpt>
      <trkpt lat="39.0345260" lon="1.4632120">
        <ele>128.3</ele>
        <time>2020-02-23T15:44:05Z</time>
      </trkpt>
      <trkpt lat="39.0344750" lon="1.4632410">
        <ele>128.2</ele>
        <time>2020-02-23T15:44:06Z</time>
      </trkpt>
      <trkpt lat="39.0344170" lon="1.4632880">
        <ele>128.2</ele>
        <time>2020-02-23T15:44:07Z</time>
      </trkpt>
      <trkpt lat="39.0343780" lon="1.4633230">
        <ele>128.2</ele>
        <time>2020-02-23T15:44:08Z</time>
      </trkpt>
      <trkpt lat="39.0343300" lon="1.4633640">
        <ele>128.1</ele>
        <time>2020-02-23T15:44:09Z</time>
      </trkpt>
      <trkpt lat="39.0342910" lon="1.4634000">
        <ele>128.1</ele>
        <time>2020-02-23T15:44:10Z</time>
      </trkpt>
      <trkpt lat="39.0342470" lon="1.4634410">
        <ele>128.1</ele>
        <time>2020-02-23T15:44:11Z</time>
      </trkpt>
      <trkpt lat="39.0342020" lon="1.4634770">
        <ele>128.1</ele>
        <time>2020-02-23T15:44:12Z</time>
      </trkpt>
      <trkpt lat="39.0341640" lon="1.4635090">
        <ele>128.1</ele>
        <time>2020-02-23T15:44:13Z</time>
      </trkpt>
      <trkpt lat="39.0341220" lon="1.4635360">
        <ele>128.1</ele>
        <time>2020-02-23T15:44:14Z</time>
      </trkpt>
      <trkpt lat="39.0340820" lon="1.4635620">
        <ele>128.1</ele>
        <time>2020-02-23T15:44:15Z</time>
      </trkpt>
      <trkpt lat="39.0340350" lon="1.4635980">
        <ele>128.1</ele>
        <time>2020-02-23T15:44:16Z</time>
      </trkpt>
      <trkpt lat="39.0339940" lon="1.4636340">
        <ele>128.1</ele>
        <time>2020-02-23T15:44:17Z</time>
      </trkpt>
      <trkpt lat="39.0339470" lon="1.4636710">
        <ele>128.1</ele>
        <time>2020-02-23T15:44:18Z</time>
      </trkpt>
      <trkpt lat="39.0339050" lon="1.4637140">
        <ele>128.1</ele>
        <time>2020-02-23T15:44:19Z</time>
      </trkpt>
      <trkpt lat="39.0338720" lon="1.4637470">
        <ele>128.1</ele>
        <time>2020-02-23T15:44:20Z</time>
      </trkpt>
      <trkpt lat="39.0338280" lon="1.4637850">
        <ele>128.1</ele>
        <time>2020-02-23T15:44:21Z</time>
      </trkpt>
      <trkpt lat="39.0337840" lon="1.4638230">
        <ele>128.1</ele>
        <time>2020-02-23T15:44:22Z</time>
      </trkpt>
      <trkpt lat="39.0337390" lon="1.4638620">
        <ele>128.1</ele>
        <time>2020-02-23T15:44:23Z</time>
      </trkpt>
      <trkpt lat="39.0337020" lon="1.4638910">
        <ele>128.1</ele>
        <time>2020-02-23T15:44:24Z</time>
      </trkpt>
      <trkpt lat="39.0336600" lon="1.4639160">
        <ele>128.0</ele>
        <time>2020-02-23T15:44:25Z</time>
      </trkpt>
      <trkpt lat="39.0336080" lon="1.4639370">
        <ele>128.0</ele>
        <time>2020-02-23T15:44:26Z</time>
      </trkpt>
      <trkpt lat="39.0335560" lon="1.4639610">
        <ele>127.9</ele>
        <time>2020-02-23T15:44:27Z</time>
      </trkpt>
      <trkpt lat="39.0335010" lon="1.4639750">
        <ele>127.9</ele>
        <time>2020-02-23T15:44:28Z</time>
      </trkpt>
      <trkpt lat="39.0334420" lon="1.4639960">
        <ele>127.7</ele>
        <time>2020-02-23T15:44:29Z</time>
      </trkpt>
      <trkpt lat="39.0333750" lon="1.4640160">
        <ele>127.5</ele>
        <time>2020-02-23T15:44:30Z</time>
      </trkpt>
      <trkpt lat="39.0333180" lon="1.4640430">
        <ele>127.4</ele>
        <time>2020-02-23T15:44:31Z</time>
      </trkpt>
      <trkpt lat="39.0332620" lon="1.4640650">
        <ele>127.2</ele>
        <time>2020-02-23T15:44:32Z</time>
      </trkpt>
      <trkpt lat="39.0331970" lon="1.4640810">
        <ele>126.9</ele>
        <time>2020-02-23T15:44:33Z</time>
      </trkpt>
      <trkpt lat="39.0331410" lon="1.4641060">
        <ele>126.7</ele>
        <time>2020-02-23T15:44:34Z</time>
      </trkpt>
      <trkpt lat="39.0330670" lon="1.4641390">
        <ele>126.4</ele>
        <time>2020-02-23T15:44:35Z</time>
      </trkpt>
      <trkpt lat="39.0330000" lon="1.4641620">
        <ele>126.1</ele>
        <time>2020-02-23T15:44:36Z</time>
      </trkpt>
      <trkpt lat="39.0329370" lon="1.4641860">
        <ele>125.8</ele>
        <time>2020-02-23T15:44:37Z</time>
      </trkpt>
      <trkpt lat="39.0328690" lon="1.4642070">
        <ele>125.5</ele>
        <time>2020-02-23T15:44:38Z</time>
      </trkpt>
      <trkpt lat="39.0328010" lon="1.4642280">
        <ele>125.2</ele>
        <time>2020-02-23T15:44:39Z</time>
      </trkpt>
      <trkpt lat="39.0327370" lon="1.4642600">
        <ele>124.9</ele>
        <time>2020-02-23T15:44:40Z</time>
      </trkpt>
      <trkpt lat="39.0326700" lon="1.4643070">
        <ele>124.5</ele>
        <time>2020-02-23T15:44:41Z</time>
      </trkpt>
      <trkpt lat="39.0326140" lon="1.4643600">
        <ele>124.2</ele>
        <time>2020-02-23T15:44:42Z</time>
      </trkpt>
      <trkpt lat="39.0325520" lon="1.4644220">
        <ele>123.9</ele>
        <time>2020-02-23T15:44:43Z</time>
      </trkpt>
      <trkpt lat="39.0324970" lon="1.4644860">
        <ele>123.6</ele>
        <time>2020-02-23T15:44:44Z</time>
      </trkpt>
      <trkpt lat="39.0324310" lon="1.4645520">
        <ele>123.4</ele>
        <time>2020-02-23T15:44:45Z</time>
      </trkpt>
      <trkpt lat="39.0323660" lon="1.4646190">
        <ele>123.1</ele>
        <time>2020-02-23T15:44:46Z</time>
      </trkpt>
      <trkpt lat="39.0323000" lon="1.4646890">
        <ele>122.9</ele>
        <time>2020-02-23T15:44:47Z</time>
      </trkpt>
      <trkpt lat="39.0322380" lon="1.4647570">
        <ele>122.6</ele>
        <time>2020-02-23T15:44:48Z</time>
      </trkpt>
      <trkpt lat="39.0321810" lon="1.4648220">
        <ele>122.4</ele>
        <time>2020-02-23T15:44:49Z</time>
      </trkpt>
      <trkpt lat="39.0321260" lon="1.4648800">
        <ele>122.2</ele>
        <time>2020-02-23T15:44:50Z</time>
      </trkpt>
      <trkpt lat="39.0320730" lon="1.4649320">
        <ele>122.1</ele>
        <time>2020-02-23T15:44:51Z</time>
      </trkpt>
      <trkpt lat="39.0320210" lon="1.4649730">
        <ele>122.0</ele>
        <time>2020-02-23T15:44:52Z</time>
      </trkpt>
      <trkpt lat="39.0319780" lon="1.4649890">
        <ele>122.4</ele>
        <time>2020-02-23T15:44:53Z</time>
      </trkpt>
      <trkpt lat="39.0319340" lon="1.4649710">
        <ele>122.8</ele>
        <time>2020-02-23T15:44:54Z</time>
      </trkpt>
      <trkpt lat="39.0319100" lon="1.4649300">
        <ele>123.1</ele>
        <time>2020-02-23T15:44:55Z</time>
      </trkpt>
      <trkpt lat="39.0318890" lon="1.4648950">
        <ele>123.4</ele>
        <time>2020-02-23T15:44:56Z</time>
      </trkpt>
      <trkpt lat="39.0318890" lon="1.4648520">
        <ele>123.6</ele>
        <time>2020-02-23T15:44:57Z</time>
      </trkpt>
      <trkpt lat="39.0318970" lon="1.4648090">
        <ele>123.9</ele>
        <time>2020-02-23T15:44:58Z</time>
      </trkpt>
      <trkpt lat="39.0319040" lon="1.4647670">
        <ele>124.2</ele>
        <time>2020-02-23T15:44:59Z</time>
      </trkpt>
      <trkpt lat="39.0318950" lon="1.4647320">
        <ele>124.4</ele>
        <time>2020-02-23T15:45:00Z</time>
      </trkpt>
      <trkpt lat="39.0318780" lon="1.4646880">
        <ele>124.8</ele>
        <time>2020-02-23T15:45:01Z</time>
      </trkpt>
      <trkpt lat="39.0318720" lon="1.4646760">
        <ele>124.9</ele>
        <time>2020-02-23T15:45:02Z</time>
      </trkpt>
      <trkpt lat="39.0318670" lon="1.4646300">
        <ele>125.2</ele>
        <time>2020-02-23T15:45:03Z</time>
      </trkpt>
      <trkpt lat="39.0318670" lon="1.4646120">
        <ele>125.3</ele>
        <time>2020-02-23T15:45:04Z</time>
      </trkpt>
      <trkpt lat="39.0318790" lon="1.4645760">
        <ele>125.5</ele>
        <time>2020-02-23T15:45:05Z</time>
      </trkpt>
      <trkpt lat="39.0318650" lon="1.4645320">
        <ele>125.7</ele>
        <time>2020-02-23T15:45:06Z</time>
      </trkpt>
      <trkpt lat="39.0318580" lon="1.4645190">
        <ele>125.8</ele>
        <time>2020-02-23T15:45:07Z</time>
      </trkpt>
      <trkpt lat="39.0318390" lon="1.4644930">
        <ele>126.0</ele>
        <time>2020-02-23T15:45:08Z</time>
      </trkpt>
      <trkpt lat="39.0318210" lon="1.4644490">
        <ele>126.3</ele>
        <time>2020-02-23T15:45:09Z</time>
      </trkpt>
      <trkpt lat="39.0318140" lon="1.4644360">
        <ele>126.5</ele>
        <time>2020-02-23T15:45:10Z</time>
      </trkpt>
      <trkpt lat="39.0318010" lon="1.4643920">
        <ele>126.8</ele>
        <time>2020-02-23T15:45:11Z</time>
      </trkpt>
      <trkpt lat="39.0317990" lon="1.4643770">
        <ele>127.0</ele>
        <time>2020-02-23T15:45:12Z</time>
      </trkpt>
      <trkpt lat="39.0317870" lon="1.4643320">
        <ele>127.3</ele>
        <time>2020-02-23T15:45:13Z</time>
      </trkpt>
      <trkpt lat="39.0317850" lon="1.4643150">
        <ele>127.4</ele>
        <time>2020-02-23T15:45:14Z</time>
      </trkpt>
      <trkpt lat="39.0317660" lon="1.4642760">
        <ele>127.7</ele>
        <time>2020-02-23T15:45:15Z</time>
      </trkpt>
      <trkpt lat="39.0317590" lon="1.4642640">
        <ele>127.8</ele>
        <time>2020-02-23T15:45:16Z</time>
      </trkpt>
      <trkpt lat="39.0317570" lon="1.4642260">
        <ele>128.1</ele>
        <time>2020-02-23T15:45:17Z</time>
      </trkpt>
      <trkpt lat="39.0317370" lon="1.4641930">
        <ele>128.3</ele>
        <time>2020-02-23T15:45:18Z</time>
      </trkpt>
      <trkpt lat="39.0317290" lon="1.4641820">
        <ele>128.3</ele>
        <time>2020-02-23T15:45:19Z</time>
      </trkpt>
      <trkpt lat="39.0317130" lon="1.4641460">
        <ele>128.5</ele>
        <time>2020-02-23T15:45:20Z</time>
      </trkpt>
      <trkpt lat="39.0317060" lon="1.4641350">
        <ele>128.6</ele>
        <time>2020-02-23T15:45:21Z</time>
      </trkpt>
      <trkpt lat="39.0316890" lon="1.4641020">
        <ele>128.8</ele>
        <time>2020-02-23T15:45:22Z</time>
      </trkpt>
      <trkpt lat="39.0316810" lon="1.4640950">
        <ele>128.9</ele>
        <time>2020-02-23T15:45:23Z</time>
      </trkpt>
      <trkpt lat="39.0316650" lon="1.4640640">
        <ele>129.1</ele>
        <time>2020-02-23T15:45:24Z</time>
      </trkpt>
      <trkpt lat="39.0316590" lon="1.4640520">
        <ele>129.2</ele>
        <time>2020-02-23T15:45:25Z</time>
      </trkpt>
      <trkpt lat="39.0316370" lon="1.4640190">
        <ele>129.3</ele>
        <time>2020-02-23T15:45:26Z</time>
      </trkpt>
      <trkpt lat="39.0316280" lon="1.4640070">
        <ele>129.4</ele>
        <time>2020-02-23T15:45:27Z</time>
      </trkpt>
      <trkpt lat="39.0316110" lon="1.4639620">
        <ele>129.5</ele>
        <time>2020-02-23T15:45:28Z</time>
      </trkpt>
      <trkpt lat="39.0316030" lon="1.4639490">
        <ele>129.5</ele>
        <time>2020-02-23T15:45:29Z</time>
      </trkpt>
      <trkpt lat="39.0315850" lon="1.4639130">
        <ele>129.7</ele>
        <time>2020-02-23T15:45:30Z</time>
      </trkpt>
      <trkpt lat="39.0315780" lon="1.4639000">
        <ele>129.7</ele>
        <time>2020-02-23T15:45:31Z</time>
      </trkpt>
      <trkpt lat="39.0315570" lon="1.4638630">
        <ele>129.8</ele>
        <time>2020-02-23T15:45:32Z</time>
      </trkpt>
      <trkpt lat="39.0315490" lon="1.4638530">
        <ele>129.9</ele>
        <time>2020-02-23T15:45:33Z</time>
      </trkpt>
      <trkpt lat="39.0315280" lon="1.4638170">
        <ele>130.0</ele>
        <time>2020-02-23T15:45:34Z</time>
      </trkpt>
      <trkpt lat="39.0315190" lon="1.4638060">
        <ele>130.1</ele>
        <time>2020-02-23T15:45:35Z</time>
      </trkpt>
      <trkpt lat="39.0314950" lon="1.4637720">
        <ele>130.3</ele>
        <time>2020-02-23T15:45:36Z</time>
      </trkpt>
      <trkpt lat="39.0314890" lon="1.4637590">
        <ele>130.4</ele>
        <time>2020-02-23T15:45:37Z</time>
      </trkpt>
      <trkpt lat="39.0314720" lon="1.4637250">
        <ele>130.5</ele>
        <time>2020-02-23T15:45:38Z</time>
      </trkpt>
      <trkpt lat="39.0314670" lon="1.4637140">
        <ele>130.5</ele>
        <time>2020-02-23T15:45:39Z</time>
      </trkpt>
      <trkpt lat="39.0314590" lon="1.4636690">
        <ele>130.6</ele>
        <time>2020-02-23T15:45:40Z</time>
      </trkpt>
      <trkpt lat="39.0314540" lon="1.4636560">
        <ele>130.6</ele>
        <time>2020-02-23T15:45:41Z</time>
      </trkpt>
      <trkpt lat="39.0314480" lon="1.4636110">
        <ele>130.7</ele>
        <time>2020-02-23T15:45:42Z</time>
      </trkpt>
      <trkpt lat="39.0314470" lon="1.4635930">
        <ele>130.8</ele>
        <time>2020-02-23T15:45:43Z</time>
      </trkpt>
      <trkpt lat="39.0314510" lon="1.4635550">
        <ele>130.9</ele>
        <time>2020-02-23T15:45:44Z</time>
      </trkpt>
      <trkpt lat="39.0314470" lon="1.4635130">
        <ele>131.0</ele>
        <time>2020-02-23T15:45:45Z</time>
      </trkpt>
      <trkpt lat="39.0314560" lon="1.4634710">
        <ele>131.1</ele>
        <time>2020-02-23T15:45:46Z</time>
      </trkpt>
      <trkpt lat="39.0314670" lon="1.4634350">
        <ele>131.2</ele>
        <time>2020-02-23T15:45:47Z</time>
      </trkpt>
      <trkpt lat="39.0314730" lon="1.4633980">
        <ele>131.3</ele>
        <time>2020-02-23T15:45:48Z</time>
      </trkpt>
      <trkpt lat="39.0314760" lon="1.4633570">
        <ele>131.3</ele>
        <time>2020-02-23T15:45:49Z</time>
      </trkpt>
      <trkpt lat="39.0314810" lon="1.4633180">
        <ele>131.4</ele>
        <time>2020-02-23T15:45:50Z</time>
      </trkpt>
      <trkpt lat="39.0314860" lon="1.4632790">
        <ele>131.5</ele>
        <time>2020-02-23T15:45:51Z</time>
      </trkpt>
      <trkpt lat="39.0314950" lon="1.4632400">
        <ele>131.6</ele>
        <time>2020-02-23T15:45:52Z</time>
      </trkpt>
      <trkpt lat="39.0315170" lon="1.4632060">
        <ele>131.6</ele>
        <time>2020-02-23T15:45:53Z</time>
      </trkpt>
      <trkpt lat="39.0315300" lon="1.4631690">
        <ele>131.7</ele>
        <time>2020-02-23T15:45:54Z</time>
      </trkpt>
      <trkpt lat="39.0315370" lon="1.4631250">
        <ele>131.8</ele>
        <time>2020-02-23T15:45:55Z</time>
      </trkpt>
      <trkpt lat="39.0315400" lon="1.4630840">
        <ele>131.8</ele>
        <time>2020-02-23T15:45:56Z</time>
      </trkpt>
      <trkpt lat="39.0315420" lon="1.4630450">
        <ele>131.9</ele>
        <time>2020-02-23T15:45:57Z</time>
      </trkpt>
      <trkpt lat="39.0315580" lon="1.4630130">
        <ele>132.0</ele>
        <time>2020-02-23T15:45:58Z</time>
      </trkpt>
      <trkpt lat="39.0315660" lon="1.4629740">
        <ele>132.1</ele>
        <time>2020-02-23T15:45:59Z</time>
      </trkpt>
      <trkpt lat="39.0315690" lon="1.4629340">
        <ele>132.1</ele>
        <time>2020-02-23T15:46:00Z</time>
      </trkpt>
      <trkpt lat="39.0315740" lon="1.4628960">
        <ele>132.2</ele>
        <time>2020-02-23T15:46:01Z</time>
      </trkpt>
      <trkpt lat="39.0315800" lon="1.4628570">
        <ele>132.3</ele>
        <time>2020-02-23T15:46:02Z</time>
      </trkpt>
      <trkpt lat="39.0315880" lon="1.4628190">
        <ele>132.3</ele>
        <time>2020-02-23T15:46:03Z</time>
      </trkpt>
      <trkpt lat="39.0316060" lon="1.4627870">
        <ele>132.4</ele>
        <time>2020-02-23T15:46:04Z</time>
      </trkpt>
      <trkpt lat="39.0316190" lon="1.4627540">
        <ele>132.4</ele>
        <time>2020-02-23T15:46:05Z</time>
      </trkpt>
      <trkpt lat="39.0316290" lon="1.4627160">
        <ele>132.5</ele>
        <time>2020-02-23T15:46:06Z</time>
      </trkpt>
      <trkpt lat="39.0316400" lon="1.4626740">
        <ele>132.5</ele>
        <time>2020-02-23T15:46:07Z</time>
      </trkpt>
      <trkpt lat="39.0316460" lon="1.4626290">
        <ele>132.6</ele>
        <time>2020-02-23T15:46:08Z</time>
      </trkpt>
      <trkpt lat="39.0316520" lon="1.4625830">
        <ele>132.6</ele>
        <time>2020-02-23T15:46:09Z</time>
      </trkpt>
      <trkpt lat="39.0316630" lon="1.4625430">
        <ele>132.7</ele>
        <time>2020-02-23T15:46:10Z</time>
      </trkpt>
      <trkpt lat="39.0316760" lon="1.4625040">
        <ele>132.7</ele>
        <time>2020-02-23T15:46:11Z</time>
      </trkpt>
      <trkpt lat="39.0316880" lon="1.4624620">
        <ele>132.8</ele>
        <time>2020-02-23T15:46:12Z</time>
      </trkpt>
      <trkpt lat="39.0316900" lon="1.4624200">
        <ele>132.9</ele>
        <time>2020-02-23T15:46:13Z</time>
      </trkpt>
      <trkpt lat="39.0317010" lon="1.4623820">
        <ele>132.9</ele>
        <time>2020-02-23T15:46:14Z</time>
      </trkpt>
      <trkpt lat="39.0317160" lon="1.4623440">
        <ele>133.0</ele>
        <time>2020-02-23T15:46:15Z</time>
      </trkpt>
      <trkpt lat="39.0317200" lon="1.4623040">
        <ele>133.1</ele>
        <time>2020-02-23T15:46:16Z</time>
      </trkpt>
      <trkpt lat="39.0317180" lon="1.4622640">
        <ele>133.1</ele>
        <time>2020-02-23T15:46:17Z</time>
      </trkpt>
      <trkpt lat="39.0317060" lon="1.4622260">
        <ele>133.2</ele>
        <time>2020-02-23T15:46:18Z</time>
      </trkpt>
      <trkpt lat="39.0316920" lon="1.4621940">
        <ele>133.2</ele>
        <time>2020-02-23T15:46:19Z</time>
      </trkpt>
      <trkpt lat="39.0316720" lon="1.4621640">
        <ele>133.2</ele>
        <time>2020-02-23T15:46:20Z</time>
      </trkpt>
      <trkpt lat="39.0316520" lon="1.4621280">
        <ele>133.3</ele>
        <time>2020-02-23T15:46:21Z</time>
      </trkpt>
      <trkpt lat="39.0316310" lon="1.4621010">
        <ele>133.3</ele>
        <time>2020-02-23T15:46:22Z</time>
      </trkpt>
      <trkpt lat="39.0316150" lon="1.4620660">
        <ele>133.4</ele>
        <time>2020-02-23T15:46:23Z</time>
      </trkpt>
      <trkpt lat="39.0315960" lon="1.4620310">
        <ele>133.5</ele>
        <time>2020-02-23T15:46:24Z</time>
      </trkpt>
      <trkpt lat="39.0315800" lon="1.4620000">
        <ele>133.5</ele>
        <time>2020-02-23T15:46:25Z</time>
      </trkpt>
      <trkpt lat="39.0315650" lon="1.4619670">
        <ele>133.6</ele>
        <time>2020-02-23T15:46:26Z</time>
      </trkpt>
      <trkpt lat="39.0315510" lon="1.4619330">
        <ele>133.6</ele>
        <time>2020-02-23T15:46:27Z</time>
      </trkpt>
      <trkpt lat="39.0315380" lon="1.4618990">
        <ele>133.7</ele>
        <time>2020-02-23T15:46:28Z</time>
      </trkpt>
      <trkpt lat="39.0315400" lon="1.4618610">
        <ele>133.7</ele>
        <time>2020-02-23T15:46:29Z</time>
      </trkpt>
      <trkpt lat="39.0315360" lon="1.4618180">
        <ele>133.8</ele>
        <time>2020-02-23T15:46:30Z</time>
      </trkpt>
      <trkpt lat="39.0315410" lon="1.4617740">
        <ele>133.8</ele>
        <time>2020-02-23T15:46:31Z</time>
      </trkpt>
      <trkpt lat="39.0315450" lon="1.4617270">
        <ele>133.8</ele>
        <time>2020-02-23T15:46:32Z</time>
      </trkpt>
      <trkpt lat="39.0315570" lon="1.4616790">
        <ele>133.8</ele>
        <time>2020-02-23T15:46:33Z</time>
      </trkpt>
      <trkpt lat="39.0315630" lon="1.4616290">
        <ele>133.8</ele>
        <time>2020-02-23T15:46:34Z</time>
      </trkpt>
      <trkpt lat="39.0315710" lon="1.4615820">
        <ele>133.8</ele>
        <time>2020-02-23T15:46:35Z</time>
      </trkpt>
      <trkpt lat="39.0315760" lon="1.4615350">
        <ele>133.8</ele>
        <time>2020-02-23T15:46:36Z</time>
      </trkpt>
      <trkpt lat="39.0315830" lon="1.4614890">
        <ele>133.8</ele>
        <time>2020-02-23T15:46:37Z</time>
      </trkpt>
      <trkpt lat="39.0315870" lon="1.4614420">
        <ele>133.8</ele>
        <time>2020-02-23T15:46:38Z</time>
      </trkpt>
      <trkpt lat="39.0315890" lon="1.4613960">
        <ele>133.8</ele>
        <time>2020-02-23T15:46:39Z</time>
      </trkpt>
      <trkpt lat="39.0315990" lon="1.4613520">
        <ele>133.8</ele>
        <time>2020-02-23T15:46:40Z</time>
      </trkpt>
      <trkpt lat="39.0316080" lon="1.4613140">
        <ele>133.8</ele>
        <time>2020-02-23T15:46:41Z</time>
      </trkpt>
      <trkpt lat="39.0316020" lon="1.4612780">
        <ele>133.8</ele>
        <time>2020-02-23T15:46:42Z</time>
      </trkpt>
      <trkpt lat="39.0315860" lon="1.4612430">
        <ele>133.8</ele>
        <time>2020-02-23T15:46:43Z</time>
      </trkpt>
      <trkpt lat="39.0315670" lon="1.4612070">
        <ele>133.7</ele>
        <time>2020-02-23T15:46:44Z</time>
      </trkpt>
      <trkpt lat="39.0315370" lon="1.4611790">
        <ele>133.7</ele>
        <time>2020-02-23T15:46:45Z</time>
      </trkpt>
      <trkpt lat="39.0315160" lon="1.4611400">
        <ele>133.7</ele>
        <time>2020-02-23T15:46:46Z</time>
      </trkpt>
      <trkpt lat="39.0314930" lon="1.4611030">
        <ele>133.6</ele>
        <time>2020-02-23T15:46:47Z</time>
      </trkpt>
      <trkpt lat="39.0314790" lon="1.4610600">
        <ele>133.6</ele>
        <time>2020-02-23T15:46:48Z</time>
      </trkpt>
      <trkpt lat="39.0314730" lon="1.4610150">
        <ele>133.5</ele>
        <time>2020-02-23T15:46:49Z</time>
      </trkpt>
      <trkpt lat="39.0314730" lon="1.4609700">
        <ele>133.5</ele>
        <time>2020-02-23T15:46:50Z</time>
      </trkpt>
      <trkpt lat="39.0314640" lon="1.4609230">
        <ele>133.4</ele>
        <time>2020-02-23T15:46:51Z</time>
      </trkpt>
      <trkpt lat="39.0314630" lon="1.4608850">
        <ele>133.4</ele>
        <time>2020-02-23T15:46:52Z</time>
      </trkpt>
      <trkpt lat="39.0314570" lon="1.4608470">
        <ele>133.3</ele>
        <time>2020-02-23T15:46:53Z</time>
      </trkpt>
      <trkpt lat="39.0314560" lon="1.4608120">
        <ele>133.2</ele>
        <time>2020-02-23T15:46:54Z</time>
      </trkpt>
      <trkpt lat="39.0314610" lon="1.4607740">
        <ele>133.2</ele>
        <time>2020-02-23T15:46:55Z</time>
      </trkpt>
      <trkpt lat="39.0314730" lon="1.4607300">
        <ele>133.0</ele>
        <time>2020-02-23T15:46:56Z</time>
      </trkpt>
      <trkpt lat="39.0314850" lon="1.4606790">
        <ele>132.9</ele>
        <time>2020-02-23T15:46:57Z</time>
      </trkpt>
      <trkpt lat="39.0314960" lon="1.4606260">
        <ele>132.7</ele>
        <time>2020-02-23T15:46:58Z</time>
      </trkpt>
      <trkpt lat="39.0315040" lon="1.4605710">
        <ele>132.5</ele>
        <time>2020-02-23T15:46:59Z</time>
      </trkpt>
      <trkpt lat="39.0314970" lon="1.4605110">
        <ele>132.3</ele>
        <time>2020-02-23T15:47:00Z</time>
      </trkpt>
      <trkpt lat="39.0315030" lon="1.4604510">
        <ele>132.1</ele>
        <time>2020-02-23T15:47:01Z</time>
      </trkpt>
      <trkpt lat="39.0315110" lon="1.4603890">
        <ele>131.8</ele>
        <time>2020-02-23T15:47:02Z</time>
      </trkpt>
      <trkpt lat="39.0315200" lon="1.4603180">
        <ele>131.5</ele>
        <time>2020-02-23T15:47:03Z</time>
      </trkpt>
      <trkpt lat="39.0315440" lon="1.4602410">
        <ele>131.2</ele>
        <time>2020-02-23T15:47:04Z</time>
      </trkpt>
      <trkpt lat="39.0315690" lon="1.4601480">
        <ele>130.9</ele>
        <time>2020-02-23T15:47:05Z</time>
      </trkpt>
      <trkpt lat="39.0315980" lon="1.4600490">
        <ele>130.5</ele>
        <time>2020-02-23T15:47:06Z</time>
      </trkpt>
      <trkpt lat="39.0316330" lon="1.4599530">
        <ele>130.1</ele>
        <time>2020-02-23T15:47:07Z</time>
      </trkpt>
      <trkpt lat="39.0316750" lon="1.4598630">
        <ele>129.6</ele>
        <time>2020-02-23T15:47:08Z</time>
      </trkpt>
      <trkpt lat="39.0316980" lon="1.4597650">
        <ele>129.1</ele>
        <time>2020-02-23T15:47:09Z</time>
      </trkpt>
      <trkpt lat="39.0317360" lon="1.4596720">
        <ele>128.8</ele>
        <time>2020-02-23T15:47:10Z</time>
      </trkpt>
      <trkpt lat="39.0317700" lon="1.4595810">
        <ele>128.4</ele>
        <time>2020-02-23T15:47:11Z</time>
      </trkpt>
      <trkpt lat="39.0318070" lon="1.4594890">
        <ele>128.0</ele>
        <time>2020-02-23T15:47:12Z</time>
      </trkpt>
      <trkpt lat="39.0318310" lon="1.4593930">
        <ele>127.6</ele>
        <time>2020-02-23T15:47:13Z</time>
      </trkpt>
      <trkpt lat="39.0318710" lon="1.4593190">
        <ele>127.2</ele>
        <time>2020-02-23T15:47:14Z</time>
      </trkpt>
      <trkpt lat="39.0319210" lon="1.4592620">
        <ele>126.7</ele>
        <time>2020-02-23T15:47:15Z</time>
      </trkpt>
      <trkpt lat="39.0319790" lon="1.4592140">
        <ele>126.2</ele>
        <time>2020-02-23T15:47:16Z</time>
      </trkpt>
      <trkpt lat="39.0320300" lon="1.4591470">
        <ele>125.6</ele>
        <time>2020-02-23T15:47:17Z</time>
      </trkpt>
      <trkpt lat="39.0320750" lon="1.4590630">
        <ele>125.1</ele>
        <time>2020-02-23T15:47:18Z</time>
      </trkpt>
      <trkpt lat="39.0321120" lon="1.4589760">
        <ele>124.6</ele>
        <time>2020-02-23T15:47:19Z</time>
      </trkpt>
      <trkpt lat="39.0321490" lon="1.4588870">
        <ele>124.2</ele>
        <time>2020-02-23T15:47:20Z</time>
      </trkpt>
      <trkpt lat="39.0321850" lon="1.4587990">
        <ele>123.9</ele>
        <time>2020-02-23T15:47:21Z</time>
      </trkpt>
      <trkpt lat="39.0322270" lon="1.4587190">
        <ele>123.6</ele>
        <time>2020-02-23T15:47:22Z</time>
      </trkpt>
      <trkpt lat="39.0322470" lon="1.4586420">
        <ele>123.3</ele>
        <time>2020-02-23T15:47:23Z</time>
      </trkpt>
      <trkpt lat="39.0322440" lon="1.4585700">
        <ele>123.0</ele>
        <time>2020-02-23T15:47:24Z</time>
      </trkpt>
      <trkpt lat="39.0322290" lon="1.4585070">
        <ele>123.0</ele>
        <time>2020-02-23T15:47:25Z</time>
      </trkpt>
      <trkpt lat="39.0322220" lon="1.4584550">
        <ele>123.0</ele>
        <time>2020-02-23T15:47:26Z</time>
      </trkpt>
      <trkpt lat="39.0322160" lon="1.4584040">
        <ele>123.1</ele>
        <time>2020-02-23T15:47:27Z</time>
      </trkpt>
      <trkpt lat="39.0322160" lon="1.4583490">
        <ele>123.1</ele>
        <time>2020-02-23T15:47:28Z</time>
      </trkpt>
      <trkpt lat="39.0322120" lon="1.4582970">
        <ele>123.2</ele>
        <time>2020-02-23T15:47:29Z</time>
      </trkpt>
      <trkpt lat="39.0322650" lon="1.4582350">
        <ele>123.3</ele>
        <time>2020-02-23T15:47:30Z</time>
      </trkpt>
      <trkpt lat="39.0322670" lon="1.4581850">
        <ele>123.4</ele>
        <time>2020-02-23T15:47:31Z</time>
      </trkpt>
      <trkpt lat="39.0322630" lon="1.4581460">
        <ele>123.5</ele>
        <time>2020-02-23T15:47:32Z</time>
      </trkpt>
      <trkpt lat="39.0322780" lon="1.4580970">
        <ele>123.5</ele>
        <time>2020-02-23T15:47:33Z</time>
      </trkpt>
      <trkpt lat="39.0322910" lon="1.4580790">
        <ele>123.6</ele>
        <time>2020-02-23T15:47:34Z</time>
      </trkpt>
      <trkpt lat="39.0322980" lon="1.4580640">
        <ele>123.6</ele>
        <time>2020-02-23T15:47:35Z</time>
      </trkpt>
      <trkpt lat="39.0323060" lon="1.4580600">
        <ele>123.6</ele>
        <time>2020-02-23T15:47:36Z</time>
      </trkpt>
      <trkpt lat="39.0323110" lon="1.4580620">
        <ele>123.7</ele>
        <time>2020-02-23T15:47:37Z</time>
      </trkpt>
      <trkpt lat="39.0323080" lon="1.4580590">
        <ele>123.7</ele>
        <time>2020-02-23T15:47:38Z</time>
      </trkpt>
      <trkpt lat="39.0322970" lon="1.4580520">
        <ele>123.7</ele>
        <time>2020-02-23T15:47:39Z</time>
      </trkpt>
      <trkpt lat="39.0323000" lon="1.4580510">
        <ele>123.7</ele>
        <time>2020-02-23T15:47:40Z</time>
      </trkpt>
      <trkpt lat="39.0322980" lon="1.4580450">
        <ele>123.7</ele>
        <time>2020-02-23T15:47:41Z</time>
      </trkpt>
      <trkpt lat="39.0323040" lon="1.4580430">
        <ele>123.7</ele>
        <time>2020-02-23T15:47:42Z</time>
      </trkpt>
      <trkpt lat="39.0323230" lon="1.4580430">
        <ele>123.8</ele>
        <time>2020-02-23T15:47:43Z</time>
      </trkpt>
      <trkpt lat="39.0323380" lon="1.4580430">
        <ele>123.8</ele>
        <time>2020-02-23T15:47:44Z</time>
      </trkpt>
      <trkpt lat="39.0323250" lon="1.4579950">
        <ele>124.0</ele>
        <time>2020-02-23T15:47:45Z</time>
      </trkpt>
      <trkpt lat="39.0323010" lon="1.4579480">
        <ele>124.1</ele>
        <time>2020-02-23T15:47:46Z</time>
      </trkpt>
      <trkpt lat="39.0322760" lon="1.4579000">
        <ele>124.3</ele>
        <time>2020-02-23T15:47:47Z</time>
      </trkpt>
      <trkpt lat="39.0322520" lon="1.4578530">
        <ele>124.3</ele>
        <time>2020-02-23T15:50:52Z</time>
      </trkpt>
      <trkpt lat="39.0322270" lon="1.4578060">
        <ele>124.3</ele>
        <time>2020-02-23T15:50:53Z</time>
      </trkpt>
      <trkpt lat="39.0321990" lon="1.4577920">
        <ele>124.3</ele>
        <time>2020-02-23T15:50:54Z</time>
      </trkpt>
      <trkpt lat="39.0321730" lon="1.4577700">
        <ele>124.3</ele>
        <time>2020-02-23T15:50:55Z</time>
      </trkpt>
      <trkpt lat="39.0321510" lon="1.4577440">
        <ele>124.3</ele>
        <time>2020-02-23T15:50:56Z</time>
      </trkpt>
      <trkpt lat="39.0321310" lon="1.4577170">
        <ele>124.3</ele>
        <time>2020-02-23T15:50:57Z</time>
      </trkpt>
      <trkpt lat="39.0321090" lon="1.4576920">
        <ele>124.3</ele>
        <time>2020-02-23T15:50:58Z</time>
      </trkpt>
      <trkpt lat="39.0320860" lon="1.4576680">
        <ele>124.3</ele>
        <time>2020-02-23T15:50:59Z</time>
      </trkpt>
      <trkpt lat="39.0320610" lon="1.4576330">
        <ele>124.3</ele>
        <time>2020-02-23T15:51:00Z</time>
      </trkpt>
      <trkpt lat="39.0320500" lon="1.4576230">
        <ele>124.4</ele>
        <time>2020-02-23T15:51:01Z</time>
      </trkpt>
      <trkpt lat="39.0320190" lon="1.4576080">
        <ele>124.4</ele>
        <time>2020-02-23T15:51:02Z</time>
      </trkpt>
      <trkpt lat="39.0319920" lon="1.4576350">
        <ele>124.4</ele>
        <time>2020-02-23T15:51:03Z</time>
      </trkpt>
      <trkpt lat="39.0319680" lon="1.4576640">
        <ele>124.4</ele>
        <time>2020-02-23T15:51:04Z</time>
      </trkpt>
      <trkpt lat="39.0319380" lon="1.4576930">
        <ele>124.4</ele>
        <time>2020-02-23T15:51:05Z</time>
      </trkpt>
      <trkpt lat="39.0319030" lon="1.4577200">
        <ele>124.4</ele>
        <time>2020-02-23T15:51:06Z</time>
      </trkpt>
      <trkpt lat="39.0318710" lon="1.4577330">
        <ele>124.4</ele>
        <time>2020-02-23T15:51:07Z</time>
      </trkpt>
      <trkpt lat="39.0318230" lon="1.4577450">
        <ele>124.4</ele>
        <time>2020-02-23T15:51:08Z</time>
      </trkpt>
      <trkpt lat="39.0317820" lon="1.4577760">
        <ele>124.4</ele>
        <time>2020-02-23T15:51:09Z</time>
      </trkpt>
      <trkpt lat="39.0317400" lon="1.4578040">
        <ele>124.4</ele>
        <time>2020-02-23T15:51:10Z</time>
      </trkpt>
      <trkpt lat="39.0316920" lon="1.4578270">
        <ele>124.4</ele>
        <time>2020-02-23T15:51:11Z</time>
      </trkpt>
      <trkpt lat="39.0316460" lon="1.4578480">
        <ele>124.4</ele>
        <time>2020-02-23T15:51:12Z</time>
      </trkpt>
      <trkpt lat="39.0316080" lon="1.4578630">
        <ele>124.4</ele>
        <time>2020-02-23T15:51:13Z</time>
      </trkpt>
      <trkpt lat="39.0315750" lon="1.4578810">
        <ele>124.4</ele>
        <time>2020-02-23T15:51:14Z</time>
      </trkpt>
      <trkpt lat="39.0315440" lon="1.4578980">
        <ele>124.4</ele>
        <time>2020-02-23T15:51:15Z</time>
      </trkpt>
      <trkpt lat="39.0315100" lon="1.4579060">
        <ele>124.4</ele>
        <time>2020-02-23T15:51:16Z</time>
      </trkpt>
      <trkpt lat="39.0314760" lon="1.4579180">
        <ele>124.4</ele>
        <time>2020-02-23T15:51:17Z</time>
      </trkpt>
      <trkpt lat="39.0314370" lon="1.4579350">
        <ele>124.4</ele>
        <time>2020-02-23T15:51:18Z</time>
      </trkpt>
      <trkpt lat="39.0314050" lon="1.4579440">
        <ele>124.4</ele>
        <time>2020-02-23T15:51:19Z</time>
      </trkpt>
      <trkpt lat="39.0313710" lon="1.4579500">
        <ele>124.4</ele>
        <time>2020-02-23T15:51:20Z</time>
      </trkpt>
      <trkpt lat="39.0313350" lon="1.4579710">
        <ele>124.4</ele>
        <time>2020-02-23T15:51:21Z</time>
      </trkpt>
      <trkpt lat="39.0312860" lon="1.4579770">
        <ele>124.4</ele>
        <time>2020-02-23T15:51:22Z</time>
      </trkpt>
      <trkpt lat="39.0312410" lon="1.4579980">
        <ele>124.4</ele>
        <time>2020-02-23T15:51:23Z</time>
      </trkpt>
      <trkpt lat="39.0312010" lon="1.4580220">
        <ele>124.4</ele>
        <time>2020-02-23T15:51:24Z</time>
      </trkpt>
      <trkpt lat="39.0311690" lon="1.4580380">
        <ele>124.4</ele>
        <time>2020-02-23T15:51:25Z</time>
      </trkpt>
      <trkpt lat="39.0311300" lon="1.4580520">
        <ele>124.4</ele>
        <time>2020-02-23T15:51:26Z</time>
      </trkpt>
      <trkpt lat="39.0310890" lon="1.4580670">
        <ele>124.4</ele>
        <time>2020-02-23T15:51:27Z</time>
      </trkpt>
      <trkpt lat="39.0310530" lon="1.4580810">
        <ele>124.4</ele>
        <time>2020-02-23T15:51:28Z</time>
      </trkpt>
      <trkpt lat="39.0310080" lon="1.4581020">
        <ele>124.4</ele>
        <time>2020-02-23T15:51:29Z</time>
      </trkpt>
      <trkpt lat="39.0309680" lon="1.4581270">
        <ele>124.4</ele>
        <time>2020-02-23T15:51:30Z</time>
      </trkpt>
      <trkpt lat="39.0309360" lon="1.4581500">
        <ele>124.4</ele>
        <time>2020-02-23T15:51:31Z</time>
      </trkpt>
      <trkpt lat="39.0309040" lon="1.4581740">
        <ele>124.4</ele>
        <time>2020-02-23T15:51:32Z</time>
      </trkpt>
      <trkpt lat="39.0308650" lon="1.4581990">
        <ele>124.4</ele>
        <time>2020-02-23T15:51:33Z</time>
      </trkpt>
      <trkpt lat="39.0308310" lon="1.4582230">
        <ele>124.4</ele>
        <time>2020-02-23T15:51:34Z</time>
      </trkpt>
      <trkpt lat="39.0307940" lon="1.4582470">
        <ele>124.4</ele>
        <time>2020-02-23T15:51:35Z</time>
      </trkpt>
      <trkpt lat="39.0307750" lon="1.4582590">
        <ele>124.4</ele>
        <time>2020-02-23T15:51:36Z</time>
      </trkpt>
      <trkpt lat="39.0307370" lon="1.4582800">
        <ele>124.4</ele>
        <time>2020-02-23T15:51:37Z</time>
      </trkpt>
      <trkpt lat="39.0307010" lon="1.4582990">
        <ele>124.4</ele>
        <time>2020-02-23T15:51:38Z</time>
      </trkpt>
      <trkpt lat="39.0306640" lon="1.4583250">
        <ele>124.4</ele>
        <time>2020-02-23T15:51:39Z</time>
      </trkpt>
      <trkpt lat="39.0306400" lon="1.4583560">
        <ele>124.4</ele>
        <time>2020-02-23T15:51:40Z</time>
      </trkpt>
      <trkpt lat="39.0306050" lon="1.4583790">
        <ele>124.4</ele>
        <time>2020-02-23T15:51:41Z</time>
      </trkpt>
      <trkpt lat="39.0305760" lon="1.4584030">
        <ele>124.4</ele>
        <time>2020-02-23T15:51:42Z</time>
      </trkpt>
      <trkpt lat="39.0305490" lon="1.4584280">
        <ele>124.4</ele>
        <time>2020-02-23T15:51:43Z</time>
      </trkpt>
      <trkpt lat="39.0305200" lon="1.4584530">
        <ele>124.4</ele>
        <time>2020-02-23T15:51:44Z</time>
      </trkpt>
      <trkpt lat="39.0304880" lon="1.4584740">
        <ele>124.4</ele>
        <time>2020-02-23T15:51:45Z</time>
      </trkpt>
      <trkpt lat="39.0304570" lon="1.4585180">
        <ele>124.4</ele>
        <time>2020-02-23T15:51:46Z</time>
      </trkpt>
      <trkpt lat="39.0304270" lon="1.4585450">
        <ele>124.4</ele>
        <time>2020-02-23T15:51:47Z</time>
      </trkpt>
      <trkpt lat="39.0303970" lon="1.4585640">
        <ele>124.4</ele>
        <time>2020-02-23T15:51:48Z</time>
      </trkpt>
      <trkpt lat="39.0303700" lon="1.4585770">
        <ele>124.4</ele>
        <time>2020-02-23T15:51:49Z</time>
      </trkpt>
      <trkpt lat="39.0303410" lon="1.4585900">
        <ele>124.4</ele>
        <time>2020-02-23T15:51:50Z</time>
      </trkpt>
      <trkpt lat="39.0303120" lon="1.4586030">
        <ele>124.4</ele>
        <time>2020-02-23T15:51:51Z</time>
      </trkpt>
      <trkpt lat="39.0303040" lon="1.4586080">
        <ele>124.4</ele>
        <time>2020-02-23T15:51:52Z</time>
      </trkpt>
      <trkpt lat="39.0302920" lon="1.4586150">
        <ele>124.4</ele>
        <time>2020-02-23T15:51:53Z</time>
      </trkpt>
      <trkpt lat="39.0302870" lon="1.4586170">
        <ele>124.4</ele>
        <time>2020-02-23T15:51:54Z</time>
      </trkpt>
      <trkpt lat="39.0302760" lon="1.4586230">
        <ele>124.4</ele>
        <time>2020-02-23T15:51:55Z</time>
      </trkpt>
      <trkpt lat="39.0302650" lon="1.4586290">
        <ele>124.4</ele>
        <time>2020-02-23T15:51:56Z</time>
      </trkpt>
      <trkpt lat="39.0302460" lon="1.4586460">
        <ele>124.4</ele>
        <time>2020-02-23T15:51:57Z</time>
      </trkpt>
      <trkpt lat="39.0302160" lon="1.4586740">
        <ele>124.4</ele>
        <time>2020-02-23T15:51:58Z</time>
      </trkpt>
      <trkpt lat="39.0301830" lon="1.4587050">
        <ele>124.4</ele>
        <time>2020-02-23T15:51:59Z</time>
      </trkpt>
      <trkpt lat="39.0301460" lon="1.4587300">
        <ele>124.4</ele>
        <time>2020-02-23T15:52:00Z</time>
      </trkpt>
      <trkpt lat="39.0301100" lon="1.4587530">
        <ele>124.4</ele>
        <time>2020-02-23T15:52:01Z</time>
      </trkpt>
      <trkpt lat="39.0300700" lon="1.4587820">
        <ele>124.4</ele>
        <time>2020-02-23T15:52:02Z</time>
      </trkpt>
      <trkpt lat="39.0300250" lon="1.4588050">
        <ele>124.4</ele>
        <time>2020-02-23T15:52:03Z</time>
      </trkpt>
      <trkpt lat="39.0299800" lon="1.4588330">
        <ele>124.4</ele>
        <time>2020-02-23T15:52:04Z</time>
      </trkpt>
      <trkpt lat="39.0299310" lon="1.4588570">
        <ele>124.4</ele>
        <time>2020-02-23T15:52:05Z</time>
      </trkpt>
      <trkpt lat="39.0298770" lon="1.4588760">
        <ele>124.4</ele>
        <time>2020-02-23T15:52:06Z</time>
      </trkpt>
      <trkpt lat="39.0298350" lon="1.4589010">
        <ele>124.4</ele>
        <time>2020-02-23T15:52:07Z</time>
      </trkpt>
      <trkpt lat="39.0297860" lon="1.4589170">
        <ele>124.4</ele>
        <time>2020-02-23T15:52:08Z</time>
      </trkpt>
      <trkpt lat="39.0297390" lon="1.4589310">
        <ele>124.4</ele>
        <time>2020-02-23T15:52:09Z</time>
      </trkpt>
      <trkpt lat="39.0296980" lon="1.4589480">
        <ele>124.4</ele>
        <time>2020-02-23T15:52:10Z</time>
      </trkpt>
      <trkpt lat="39.0296500" lon="1.4589700">
        <ele>124.4</ele>
        <time>2020-02-23T15:52:11Z</time>
      </trkpt>
      <trkpt lat="39.0296050" lon="1.4589940">
        <ele>124.4</ele>
        <time>2020-02-23T15:52:12Z</time>
      </trkpt>
      <trkpt lat="39.0295650" lon="1.4590200">
        <ele>124.4</ele>
        <time>2020-02-23T15:52:13Z</time>
      </trkpt>
      <trkpt lat="39.0295180" lon="1.4590400">
        <ele>124.4</ele>
        <time>2020-02-23T15:52:14Z</time>
      </trkpt>
      <trkpt lat="39.0294730" lon="1.4590540">
        <ele>124.4</ele>
        <time>2020-02-23T15:52:15Z</time>
      </trkpt>
      <trkpt lat="39.0294220" lon="1.4590690">
        <ele>124.4</ele>
        <time>2020-02-23T15:52:16Z</time>
      </trkpt>
      <trkpt lat="39.0293690" lon="1.4590770">
        <ele>124.4</ele>
        <time>2020-02-23T15:52:17Z</time>
      </trkpt>
      <trkpt lat="39.0293140" lon="1.4590850">
        <ele>124.4</ele>
        <time>2020-02-23T15:52:18Z</time>
      </trkpt>
      <trkpt lat="39.0292720" lon="1.4590900">
        <ele>124.4</ele>
        <time>2020-02-23T15:52:19Z</time>
      </trkpt>
      <trkpt lat="39.0292330" lon="1.4590960">
        <ele>124.4</ele>
        <time>2020-02-23T15:52:20Z</time>
      </trkpt>
      <trkpt lat="39.0291960" lon="1.4591050">
        <ele>124.4</ele>
        <time>2020-02-23T15:52:21Z</time>
      </trkpt>
      <trkpt lat="39.0291540" lon="1.4591130">
        <ele>124.4</ele>
        <time>2020-02-23T15:52:22Z</time>
      </trkpt>
      <trkpt lat="39.0291150" lon="1.4591190">
        <ele>124.5</ele>
        <time>2020-02-23T15:52:23Z</time>
      </trkpt>
      <trkpt lat="39.0290740" lon="1.4591230">
        <ele>124.5</ele>
        <time>2020-02-23T15:52:24Z</time>
      </trkpt>
      <trkpt lat="39.0290370" lon="1.4591300">
        <ele>124.5</ele>
        <time>2020-02-23T15:52:25Z</time>
      </trkpt>
      <trkpt lat="39.0290010" lon="1.4591390">
        <ele>124.5</ele>
        <time>2020-02-23T15:52:26Z</time>
      </trkpt>
      <trkpt lat="39.0289660" lon="1.4591510">
        <ele>124.5</ele>
        <time>2020-02-23T15:52:27Z</time>
      </trkpt>
      <trkpt lat="39.0289360" lon="1.4591580">
        <ele>124.5</ele>
        <time>2020-02-23T15:52:28Z</time>
      </trkpt>
      <trkpt lat="39.0289030" lon="1.4591750">
        <ele>124.5</ele>
        <time>2020-02-23T15:52:29Z</time>
      </trkpt>
      <trkpt lat="39.0288910" lon="1.4591790">
        <ele>124.5</ele>
        <time>2020-02-23T15:52:30Z</time>
      </trkpt>
      <trkpt lat="39.0288640" lon="1.4591940">
        <ele>124.5</ele>
        <time>2020-02-23T15:52:31Z</time>
      </trkpt>
      <trkpt lat="39.0288360" lon="1.4591980">
        <ele>124.5</ele>
        <time>2020-02-23T15:52:32Z</time>
      </trkpt>
      <trkpt lat="39.0288010" lon="1.4592090">
        <ele>124.5</ele>
        <time>2020-02-23T15:52:33Z</time>
      </trkpt>
      <trkpt lat="39.0287740" lon="1.4592170">
        <ele>124.5</ele>
        <time>2020-02-23T15:52:34Z</time>
      </trkpt>
      <trkpt lat="39.0287440" lon="1.4592200">
        <ele>124.5</ele>
        <time>2020-02-23T15:52:35Z</time>
      </trkpt>
      <trkpt lat="39.0287070" lon="1.4592270">
        <ele>124.5</ele>
        <time>2020-02-23T15:52:36Z</time>
      </trkpt>
      <trkpt lat="39.0286950" lon="1.4592270">
        <ele>124.5</ele>
        <time>2020-02-23T15:52:37Z</time>
      </trkpt>
      <trkpt lat="39.0286670" lon="1.4592340">
        <ele>124.5</ele>
        <time>2020-02-23T15:52:38Z</time>
      </trkpt>
      <trkpt lat="39.0286260" lon="1.4592420">
        <ele>124.5</ele>
        <time>2020-02-23T15:52:39Z</time>
      </trkpt>
      <trkpt lat="39.0286110" lon="1.4592440">
        <ele>124.5</ele>
        <time>2020-02-23T15:52:40Z</time>
      </trkpt>
      <trkpt lat="39.0285780" lon="1.4592550">
        <ele>124.5</ele>
        <time>2020-02-23T15:52:41Z</time>
      </trkpt>
      <trkpt lat="39.0285440" lon="1.4592670">
        <ele>124.5</ele>
        <time>2020-02-23T15:52:42Z</time>
      </trkpt>
      <trkpt lat="39.0285160" lon="1.4592730">
        <ele>124.5</ele>
        <time>2020-02-23T15:52:43Z</time>
      </trkpt>
      <trkpt lat="39.0284830" lon="1.4592830">
        <ele>124.5</ele>
        <time>2020-02-23T15:52:44Z</time>
      </trkpt>
      <trkpt lat="39.0284520" lon="1.4592920">
        <ele>124.5</ele>
        <time>2020-02-23T15:52:45Z</time>
      </trkpt>
      <trkpt lat="39.0284230" lon="1.4593030">
        <ele>124.5</ele>
        <time>2020-02-23T15:52:46Z</time>
      </trkpt>
      <trkpt lat="39.0283920" lon="1.4593120">
        <ele>124.5</ele>
        <time>2020-02-23T15:52:47Z</time>
      </trkpt>
      <trkpt lat="39.0283560" lon="1.4593310">
        <ele>124.5</ele>
        <time>2020-02-23T15:52:48Z</time>
      </trkpt>
      <trkpt lat="39.0283430" lon="1.4593360">
        <ele>124.5</ele>
        <time>2020-02-23T15:52:49Z</time>
      </trkpt>
      <trkpt lat="39.0283090" lon="1.4593450">
        <ele>124.5</ele>
        <time>2020-02-23T15:52:50Z</time>
      </trkpt>
      <trkpt lat="39.0282970" lon="1.4593510">
        <ele>124.5</ele>
        <time>2020-02-23T15:52:51Z</time>
      </trkpt>
      <trkpt lat="39.0282660" lon="1.4593580">
        <ele>124.5</ele>
        <time>2020-02-23T15:52:52Z</time>
      </trkpt>
      <trkpt lat="39.0282370" lon="1.4593640">
        <ele>124.5</ele>
        <time>2020-02-23T15:52:53Z</time>
      </trkpt>
      <trkpt lat="39.0281950" lon="1.4593790">
        <ele>124.5</ele>
        <time>2020-02-23T15:52:54Z</time>
      </trkpt>
      <trkpt lat="39.0281630" lon="1.4593910">
        <ele>124.5</ele>
        <time>2020-02-23T15:52:55Z</time>
      </trkpt>
      <trkpt lat="39.0281320" lon="1.4594020">
        <ele>124.5</ele>
        <time>2020-02-23T15:52:56Z</time>
      </trkpt>
      <trkpt lat="39.0281020" lon="1.4594110">
        <ele>124.5</ele>
        <time>2020-02-23T15:52:57Z</time>
      </trkpt>
      <trkpt lat="39.0280740" lon="1.4594190">
        <ele>124.5</ele>
        <time>2020-02-23T15:52:58Z</time>
      </trkpt>
      <trkpt lat="39.0280450" lon="1.4594290">
        <ele>124.5</ele>
        <time>2020-02-23T15:52:59Z</time>
      </trkpt>
      <trkpt lat="39.0280140" lon="1.4594410">
        <ele>124.5</ele>
        <time>2020-02-23T15:53:00Z</time>
      </trkpt>
      <trkpt lat="39.0280060" lon="1.4594480">
        <ele>124.5</ele>
        <time>2020-02-23T15:53:01Z</time>
      </trkpt>
      <trkpt lat="39.0279740" lon="1.4594620">
        <ele>124.5</ele>
        <time>2020-02-23T15:53:02Z</time>
      </trkpt>
      <trkpt lat="39.0279610" lon="1.4594660">
        <ele>124.5</ele>
        <time>2020-02-23T15:53:03Z</time>
      </trkpt>
      <trkpt lat="39.0279250" lon="1.4594800">
        <ele>124.5</ele>
        <time>2020-02-23T15:53:04Z</time>
      </trkpt>
      <trkpt lat="39.0279120" lon="1.4594810">
        <ele>124.5</ele>
        <time>2020-02-23T15:53:05Z</time>
      </trkpt>
      <trkpt lat="39.0278690" lon="1.4594880">
        <ele>124.5</ele>
        <time>2020-02-23T15:53:06Z</time>
      </trkpt>
      <trkpt lat="39.0278530" lon="1.4594900">
        <ele>124.5</ele>
        <time>2020-02-23T15:53:07Z</time>
      </trkpt>
      <trkpt lat="39.0278190" lon="1.4594950">
        <ele>124.5</ele>
        <time>2020-02-23T15:53:08Z</time>
      </trkpt>
      <trkpt lat="39.0277840" lon="1.4595050">
        <ele>124.6</ele>
        <time>2020-02-23T15:53:09Z</time>
      </trkpt>
      <trkpt lat="39.0277530" lon="1.4595170">
        <ele>124.6</ele>
        <time>2020-02-23T15:53:10Z</time>
      </trkpt>
      <trkpt lat="39.0277150" lon="1.4595340">
        <ele>124.6</ele>
        <time>2020-02-23T15:53:11Z</time>
      </trkpt>
      <trkpt lat="39.0277020" lon="1.4595410">
        <ele>124.6</ele>
        <time>2020-02-23T15:53:12Z</time>
      </trkpt>
      <trkpt lat="39.0276740" lon="1.4595640">
        <ele>124.6</ele>
        <time>2020-02-23T15:53:13Z</time>
      </trkpt>
      <trkpt lat="39.0276650" lon="1.4595720">
        <ele>124.7</ele>
        <time>2020-02-23T15:53:14Z</time>
      </trkpt>
      <trkpt lat="39.0276320" lon="1.4595970">
        <ele>124.7</ele>
        <time>2020-02-23T15:53:15Z</time>
      </trkpt>
      <trkpt lat="39.0276200" lon="1.4596060">
        <ele>124.7</ele>
        <time>2020-02-23T15:53:16Z</time>
      </trkpt>
      <trkpt lat="39.0275970" lon="1.4596280">
        <ele>124.8</ele>
        <time>2020-02-23T15:53:17Z</time>
      </trkpt>
      <trkpt lat="39.0275750" lon="1.4596530">
        <ele>124.9</ele>
        <time>2020-02-23T15:53:18Z</time>
      </trkpt>
      <trkpt lat="39.0275430" lon="1.4596800">
        <ele>125.0</ele>
        <time>2020-02-23T15:53:19Z</time>
      </trkpt>
      <trkpt lat="39.0275300" lon="1.4596890">
        <ele>125.1</ele>
        <time>2020-02-23T15:53:20Z</time>
      </trkpt>
      <trkpt lat="39.0274970" lon="1.4597140">
        <ele>125.2</ele>
        <time>2020-02-23T15:53:21Z</time>
      </trkpt>
      <trkpt lat="39.0274860" lon="1.4597230">
        <ele>125.3</ele>
        <time>2020-02-23T15:53:22Z</time>
      </trkpt>
      <trkpt lat="39.0274640" lon="1.4597440">
        <ele>125.4</ele>
        <time>2020-02-23T15:53:23Z</time>
      </trkpt>
      <trkpt lat="39.0274420" lon="1.4597660">
        <ele>125.5</ele>
        <time>2020-02-23T15:53:24Z</time>
      </trkpt>
      <trkpt lat="39.0274150" lon="1.4597810">
        <ele>125.6</ele>
        <time>2020-02-23T15:53:25Z</time>
      </trkpt>
      <trkpt lat="39.0273910" lon="1.4598020">
        <ele>125.8</ele>
        <time>2020-02-23T15:53:26Z</time>
      </trkpt>
      <trkpt lat="39.0273580" lon="1.4598250">
        <ele>126.0</ele>
        <time>2020-02-23T15:53:27Z</time>
      </trkpt>
      <trkpt lat="39.0273470" lon="1.4598330">
        <ele>126.0</ele>
        <time>2020-02-23T15:53:28Z</time>
      </trkpt>
      <trkpt lat="39.0273210" lon="1.4598530">
        <ele>126.1</ele>
        <time>2020-02-23T15:53:29Z</time>
      </trkpt>
      <trkpt lat="39.0272940" lon="1.4598830">
        <ele>126.2</ele>
        <time>2020-02-23T15:53:30Z</time>
      </trkpt>
      <trkpt lat="39.0272680" lon="1.4598930">
        <ele>126.3</ele>
        <time>2020-02-23T15:53:31Z</time>
      </trkpt>
      <trkpt lat="39.0272370" lon="1.4599040">
        <ele>126.4</ele>
        <time>2020-02-23T15:53:32Z</time>
      </trkpt>
      <trkpt lat="39.0272210" lon="1.4599130">
        <ele>126.4</ele>
        <time>2020-02-23T15:53:33Z</time>
      </trkpt>
      <trkpt lat="39.0271900" lon="1.4599250">
        <ele>126.4</ele>
        <time>2020-02-23T15:53:34Z</time>
      </trkpt>
      <trkpt lat="39.0271700" lon="1.4599480">
        <ele>126.5</ele>
        <time>2020-02-23T15:53:35Z</time>
      </trkpt>
      <trkpt lat="39.0271440" lon="1.4599690">
        <ele>126.5</ele>
        <time>2020-02-23T15:53:36Z</time>
      </trkpt>
      <trkpt lat="39.0271210" lon="1.4599910">
        <ele>126.5</ele>
        <time>2020-02-23T15:53:37Z</time>
      </trkpt>
      <trkpt lat="39.0270930" lon="1.4600130">
        <ele>126.5</ele>
        <time>2020-02-23T15:53:38Z</time>
      </trkpt>
      <trkpt lat="39.0270580" lon="1.4600250">
        <ele>126.5</ele>
        <time>2020-02-23T15:53:39Z</time>
      </trkpt>
      <trkpt lat="39.0270460" lon="1.4600290">
        <ele>126.5</ele>
        <time>2020-02-23T15:53:40Z</time>
      </trkpt>
      <trkpt lat="39.0270100" lon="1.4600490">
        <ele>126.5</ele>
        <time>2020-02-23T15:53:41Z</time>
      </trkpt>
      <trkpt lat="39.0269960" lon="1.4600580">
        <ele>126.5</ele>
        <time>2020-02-23T15:53:42Z</time>
      </trkpt>
      <trkpt lat="39.0269590" lon="1.4600780">
        <ele>126.5</ele>
        <time>2020-02-23T15:53:43Z</time>
      </trkpt>
      <trkpt lat="39.0269450" lon="1.4600830">
        <ele>126.5</ele>
        <time>2020-02-23T15:53:44Z</time>
      </trkpt>
      <trkpt lat="39.0269160" lon="1.4600950">
        <ele>126.5</ele>
        <time>2020-02-23T15:53:45Z</time>
      </trkpt>
      <trkpt lat="39.0268880" lon="1.4601150">
        <ele>126.5</ele>
        <time>2020-02-23T15:53:46Z</time>
      </trkpt>
      <trkpt lat="39.0268610" lon="1.4601340">
        <ele>126.5</ele>
        <time>2020-02-23T15:53:47Z</time>
      </trkpt>
      <trkpt lat="39.0268310" lon="1.4601540">
        <ele>126.5</ele>
        <time>2020-02-23T15:53:48Z</time>
      </trkpt>
      <trkpt lat="39.0268040" lon="1.4601720">
        <ele>126.6</ele>
        <time>2020-02-23T15:53:49Z</time>
      </trkpt>
      <trkpt lat="39.0267750" lon="1.4601980">
        <ele>126.6</ele>
        <time>2020-02-23T15:53:50Z</time>
      </trkpt>
      <trkpt lat="39.0267490" lon="1.4602150">
        <ele>126.6</ele>
        <time>2020-02-23T15:53:51Z</time>
      </trkpt>
      <trkpt lat="39.0267190" lon="1.4602360">
        <ele>126.6</ele>
        <time>2020-02-23T15:53:52Z</time>
      </trkpt>
      <trkpt lat="39.0266850" lon="1.4602500">
        <ele>126.7</ele>
        <time>2020-02-23T15:53:53Z</time>
      </trkpt>
      <trkpt lat="39.0266430" lon="1.4602640">
        <ele>126.7</ele>
        <time>2020-02-23T15:53:54Z</time>
      </trkpt>
      <trkpt lat="39.0266270" lon="1.4602720">
        <ele>126.8</ele>
        <time>2020-02-23T15:53:55Z</time>
      </trkpt>
      <trkpt lat="39.0265880" lon="1.4602900">
        <ele>126.9</ele>
        <time>2020-02-23T15:53:56Z</time>
      </trkpt>
      <trkpt lat="39.0265600" lon="1.4603100">
        <ele>127.0</ele>
        <time>2020-02-23T15:53:57Z</time>
      </trkpt>
      <trkpt lat="39.0265300" lon="1.4603360">
        <ele>127.1</ele>
        <time>2020-02-23T15:53:58Z</time>
      </trkpt>
      <trkpt lat="39.0265010" lon="1.4603660">
        <ele>127.2</ele>
        <time>2020-02-23T15:53:59Z</time>
      </trkpt>
      <trkpt lat="39.0264690" lon="1.4603930">
        <ele>127.3</ele>
        <time>2020-02-23T15:54:00Z</time>
      </trkpt>
      <trkpt lat="39.0264390" lon="1.4604110">
        <ele>127.4</ele>
        <time>2020-02-23T15:54:01Z</time>
      </trkpt>
      <trkpt lat="39.0264090" lon="1.4604300">
        <ele>127.5</ele>
        <time>2020-02-23T15:54:02Z</time>
      </trkpt>
      <trkpt lat="39.0263790" lon="1.4604560">
        <ele>127.5</ele>
        <time>2020-02-23T15:54:03Z</time>
      </trkpt>
      <trkpt lat="39.0263490" lon="1.4604770">
        <ele>127.6</ele>
        <time>2020-02-23T15:54:04Z</time>
      </trkpt>
      <trkpt lat="39.0263220" lon="1.4605000">
        <ele>127.6</ele>
        <time>2020-02-23T15:54:05Z</time>
      </trkpt>
      <trkpt lat="39.0262890" lon="1.4605100">
        <ele>127.7</ele>
        <time>2020-02-23T15:54:06Z</time>
      </trkpt>
      <trkpt lat="39.0262580" lon="1.4605210">
        <ele>127.7</ele>
        <time>2020-02-23T15:54:07Z</time>
      </trkpt>
      <trkpt lat="39.0262330" lon="1.4605420">
        <ele>127.7</ele>
        <time>2020-02-23T15:54:08Z</time>
      </trkpt>
      <trkpt lat="39.0261910" lon="1.4605610">
        <ele>127.8</ele>
        <time>2020-02-23T15:54:09Z</time>
      </trkpt>
      <trkpt lat="39.0261730" lon="1.4605680">
        <ele>127.9</ele>
        <time>2020-02-23T15:54:10Z</time>
      </trkpt>
      <trkpt lat="39.0261430" lon="1.4605850">
        <ele>128.0</ele>
        <time>2020-02-23T15:54:11Z</time>
      </trkpt>
      <trkpt lat="39.0261130" lon="1.4606000">
        <ele>128.1</ele>
        <time>2020-02-23T15:54:12Z</time>
      </trkpt>
      <trkpt lat="39.0260860" lon="1.4606250">
        <ele>128.2</ele>
        <time>2020-02-23T15:54:13Z</time>
      </trkpt>
      <trkpt lat="39.0260540" lon="1.4606450">
        <ele>128.3</ele>
        <time>2020-02-23T15:54:14Z</time>
      </trkpt>
      <trkpt lat="39.0260230" lon="1.4606710">
        <ele>128.4</ele>
        <time>2020-02-23T15:54:15Z</time>
      </trkpt>
      <trkpt lat="39.0259830" lon="1.4606970">
        <ele>128.4</ele>
        <time>2020-02-23T15:54:16Z</time>
      </trkpt>
      <trkpt lat="39.0259440" lon="1.4607250">
        <ele>128.5</ele>
        <time>2020-02-23T15:54:17Z</time>
      </trkpt>
      <trkpt lat="39.0259140" lon="1.4607480">
        <ele>128.5</ele>
        <time>2020-02-23T15:54:18Z</time>
      </trkpt>
      <trkpt lat="39.0258790" lon="1.4607700">
        <ele>128.5</ele>
        <time>2020-02-23T15:54:19Z</time>
      </trkpt>
      <trkpt lat="39.0258610" lon="1.4607840">
        <ele>128.5</ele>
        <time>2020-02-23T15:54:20Z</time>
      </trkpt>
      <trkpt lat="39.0258210" lon="1.4608050">
        <ele>128.4</ele>
        <time>2020-02-23T15:54:21Z</time>
      </trkpt>
      <trkpt lat="39.0258000" lon="1.4608090">
        <ele>128.4</ele>
        <time>2020-02-23T15:54:22Z</time>
      </trkpt>
      <trkpt lat="39.0257630" lon="1.4608250">
        <ele>128.2</ele>
        <time>2020-02-23T15:54:23Z</time>
      </trkpt>
      <trkpt lat="39.0257260" lon="1.4608370">
        <ele>128.0</ele>
        <time>2020-02-23T15:54:24Z</time>
      </trkpt>
      <trkpt lat="39.0256900" lon="1.4608540">
        <ele>127.8</ele>
        <time>2020-02-23T15:54:25Z</time>
      </trkpt>
      <trkpt lat="39.0256530" lon="1.4608690">
        <ele>127.7</ele>
        <time>2020-02-23T15:54:26Z</time>
      </trkpt>
      <trkpt lat="39.0256160" lon="1.4608760">
        <ele>127.7</ele>
        <time>2020-02-23T15:54:27Z</time>
      </trkpt>
      <trkpt lat="39.0255750" lon="1.4608820">
        <ele>127.7</ele>
        <time>2020-02-23T15:54:28Z</time>
      </trkpt>
      <trkpt lat="39.0255360" lon="1.4609000">
        <ele>127.7</ele>
        <time>2020-02-23T15:54:29Z</time>
      </trkpt>
      <trkpt lat="39.0254920" lon="1.4609030">
        <ele>127.7</ele>
        <time>2020-02-23T15:54:30Z</time>
      </trkpt>
      <trkpt lat="39.0254480" lon="1.4609110">
        <ele>127.7</ele>
        <time>2020-02-23T15:54:31Z</time>
      </trkpt>
      <trkpt lat="39.0254010" lon="1.4609170">
        <ele>127.7</ele>
        <time>2020-02-23T15:54:32Z</time>
      </trkpt>
      <trkpt lat="39.0253610" lon="1.4609240">
        <ele>127.7</ele>
        <time>2020-02-23T15:54:33Z</time>
      </trkpt>
      <trkpt lat="39.0253180" lon="1.4609210">
        <ele>127.6</ele>
        <time>2020-02-23T15:54:34Z</time>
      </trkpt>
      <trkpt lat="39.0252810" lon="1.4609160">
        <ele>127.6</ele>
        <time>2020-02-23T15:54:35Z</time>
      </trkpt>
      <trkpt lat="39.0252440" lon="1.4609090">
        <ele>127.6</ele>
        <time>2020-02-23T15:54:36Z</time>
      </trkpt>
      <trkpt lat="39.0252000" lon="1.4608990">
        <ele>127.6</ele>
        <time>2020-02-23T15:54:37Z</time>
      </trkpt>
      <trkpt lat="39.0251480" lon="1.4608900">
        <ele>127.5</ele>
        <time>2020-02-23T15:54:38Z</time>
      </trkpt>
      <trkpt lat="39.0251120" lon="1.4608920">
        <ele>127.4</ele>
        <time>2020-02-23T15:54:39Z</time>
      </trkpt>
      <trkpt lat="39.0250730" lon="1.4608960">
        <ele>127.3</ele>
        <time>2020-02-23T15:54:40Z</time>
      </trkpt>
      <trkpt lat="39.0250320" lon="1.4608990">
        <ele>127.2</ele>
        <time>2020-02-23T15:54:41Z</time>
      </trkpt>
      <trkpt lat="39.0249950" lon="1.4608940">
        <ele>127.1</ele>
        <time>2020-02-23T15:54:42Z</time>
      </trkpt>
      <trkpt lat="39.0249530" lon="1.4608880">
        <ele>127.0</ele>
        <time>2020-02-23T15:54:43Z</time>
      </trkpt>
      <trkpt lat="39.0249110" lon="1.4608870">
        <ele>126.9</ele>
        <time>2020-02-23T15:54:44Z</time>
      </trkpt>
      <trkpt lat="39.0248680" lon="1.4608970">
        <ele>126.7</ele>
        <time>2020-02-23T15:54:45Z</time>
      </trkpt>
      <trkpt lat="39.0248220" lon="1.4608980">
        <ele>126.6</ele>
        <time>2020-02-23T15:54:46Z</time>
      </trkpt>
      <trkpt lat="39.0247790" lon="1.4608950">
        <ele>126.6</ele>
        <time>2020-02-23T15:54:47Z</time>
      </trkpt>
      <trkpt lat="39.0247400" lon="1.4608920">
        <ele>126.5</ele>
        <time>2020-02-23T15:54:48Z</time>
      </trkpt>
      <trkpt lat="39.0247060" lon="1.4608870">
        <ele>126.4</ele>
        <time>2020-02-23T15:54:49Z</time>
      </trkpt>
      <trkpt lat="39.0246730" lon="1.4608870">
        <ele>126.4</ele>
        <time>2020-02-23T15:54:50Z</time>
      </trkpt>
      <trkpt lat="39.0246360" lon="1.4608900">
        <ele>126.3</ele>
        <time>2020-02-23T15:54:51Z</time>
      </trkpt>
      <trkpt lat="39.0245940" lon="1.4608880">
        <ele>126.2</ele>
        <time>2020-02-23T15:54:52Z</time>
      </trkpt>
      <trkpt lat="39.0245500" lon="1.4608870">
        <ele>126.0</ele>
        <time>2020-02-23T15:54:53Z</time>
      </trkpt>
      <trkpt lat="39.0244970" lon="1.4608910">
        <ele>125.8</ele>
        <time>2020-02-23T15:54:54Z</time>
      </trkpt>
      <trkpt lat="39.0244480" lon="1.4608900">
        <ele>125.6</ele>
        <time>2020-02-23T15:54:55Z</time>
      </trkpt>
      <trkpt lat="39.0244020" lon="1.4608890">
        <ele>125.4</ele>
        <time>2020-02-23T15:54:56Z</time>
      </trkpt>
      <trkpt lat="39.0243600" lon="1.4608910">
        <ele>125.2</ele>
        <time>2020-02-23T15:54:57Z</time>
      </trkpt>
      <trkpt lat="39.0243130" lon="1.4608860">
        <ele>125.0</ele>
        <time>2020-02-23T15:54:58Z</time>
      </trkpt>
      <trkpt lat="39.0242610" lon="1.4608880">
        <ele>124.8</ele>
        <time>2020-02-23T15:54:59Z</time>
      </trkpt>
      <trkpt lat="39.0242080" lon="1.4608800">
        <ele>124.6</ele>
        <time>2020-02-23T15:55:00Z</time>
      </trkpt>
      <trkpt lat="39.0241530" lon="1.4608770">
        <ele>124.4</ele>
        <time>2020-02-23T15:55:01Z</time>
      </trkpt>
      <trkpt lat="39.0241060" lon="1.4608850">
        <ele>124.3</ele>
        <time>2020-02-23T15:55:02Z</time>
      </trkpt>
      <trkpt lat="39.0240550" lon="1.4608810">
        <ele>124.1</ele>
        <time>2020-02-23T15:55:03Z</time>
      </trkpt>
      <trkpt lat="39.0240110" lon="1.4608670">
        <ele>124.0</ele>
        <time>2020-02-23T15:55:04Z</time>
      </trkpt>
      <trkpt lat="39.0239600" lon="1.4608460">
        <ele>123.7</ele>
        <time>2020-02-23T15:55:05Z</time>
      </trkpt>
      <trkpt lat="39.0239240" lon="1.4608310">
        <ele>123.5</ele>
        <time>2020-02-23T15:55:06Z</time>
      </trkpt>
      <trkpt lat="39.0238930" lon="1.4608050">
        <ele>123.3</ele>
        <time>2020-02-23T15:55:07Z</time>
      </trkpt>
      <trkpt lat="39.0238810" lon="1.4607620">
        <ele>123.2</ele>
        <time>2020-02-23T15:55:08Z</time>
      </trkpt>
      <trkpt lat="39.0238790" lon="1.4607070">
        <ele>123.0</ele>
        <time>2020-02-23T15:55:09Z</time>
      </trkpt>
      <trkpt lat="39.0238830" lon="1.4606450">
        <ele>122.8</ele>
        <time>2020-02-23T15:55:10Z</time>
      </trkpt>
      <trkpt lat="39.0238770" lon="1.4605810">
        <ele>122.7</ele>
        <time>2020-02-23T15:55:11Z</time>
      </trkpt>
      <trkpt lat="39.0238610" lon="1.4605140">
        <ele>122.5</ele>
        <time>2020-02-23T15:55:12Z</time>
      </trkpt>
      <trkpt lat="39.0238360" lon="1.4604610">
        <ele>122.2</ele>
        <time>2020-02-23T15:55:13Z</time>
      </trkpt>
      <trkpt lat="39.0238090" lon="1.4604230">
        <ele>122.0</ele>
        <time>2020-02-23T15:55:14Z</time>
      </trkpt>
      <trkpt lat="39.0237700" lon="1.4603790">
        <ele>121.7</ele>
        <time>2020-02-23T15:55:15Z</time>
      </trkpt>
      <trkpt lat="39.0237320" lon="1.4603640">
        <ele>121.4</ele>
        <time>2020-02-23T15:55:16Z</time>
      </trkpt>
      <trkpt lat="39.0236750" lon="1.4603510">
        <ele>121.1</ele>
        <time>2020-02-23T15:55:17Z</time>
      </trkpt>
      <trkpt lat="39.0236080" lon="1.4603420">
        <ele>120.8</ele>
        <time>2020-02-23T15:55:18Z</time>
      </trkpt>
      <trkpt lat="39.0235500" lon="1.4603360">
        <ele>120.6</ele>
        <time>2020-02-23T15:55:19Z</time>
      </trkpt>
      <trkpt lat="39.0234890" lon="1.4603190">
        <ele>120.4</ele>
        <time>2020-02-23T15:55:20Z</time>
      </trkpt>
      <trkpt lat="39.0234370" lon="1.4603080">
        <ele>120.2</ele>
        <time>2020-02-23T15:55:21Z</time>
      </trkpt>
      <trkpt lat="39.0233880" lon="1.4603060">
        <ele>120.0</ele>
        <time>2020-02-23T15:55:22Z</time>
      </trkpt>
      <trkpt lat="39.0233440" lon="1.4602940">
        <ele>119.9</ele>
        <time>2020-02-23T15:55:23Z</time>
      </trkpt>
      <trkpt lat="39.0232940" lon="1.4602740">
        <ele>119.7</ele>
        <time>2020-02-23T15:55:24Z</time>
      </trkpt>
      <trkpt lat="39.0232500" lon="1.4602620">
        <ele>119.5</ele>
        <time>2020-02-23T15:55:25Z</time>
      </trkpt>
      <trkpt lat="39.0232030" lon="1.4602600">
        <ele>119.4</ele>
        <time>2020-02-23T15:55:26Z</time>
      </trkpt>
      <trkpt lat="39.0231540" lon="1.4602460">
        <ele>119.2</ele>
        <time>2020-02-23T15:55:27Z</time>
      </trkpt>
      <trkpt lat="39.0231040" lon="1.4602080">
        <ele>119.0</ele>
        <time>2020-02-23T15:55:28Z</time>
      </trkpt>
      <trkpt lat="39.0230530" lon="1.4601960">
        <ele>118.8</ele>
        <time>2020-02-23T15:55:29Z</time>
      </trkpt>
      <trkpt lat="39.0229960" lon="1.4601880">
        <ele>118.6</ele>
        <time>2020-02-23T15:55:30Z</time>
      </trkpt>
      <trkpt lat="39.0229400" lon="1.4601770">
        <ele>118.4</ele>
        <time>2020-02-23T15:55:31Z</time>
      </trkpt>
      <trkpt lat="39.0228880" lon="1.4601710">
        <ele>118.2</ele>
        <time>2020-02-23T15:55:32Z</time>
      </trkpt>
      <trkpt lat="39.0228290" lon="1.4601650">
        <ele>117.9</ele>
        <time>2020-02-23T15:55:33Z</time>
      </trkpt>
      <trkpt lat="39.0227730" lon="1.4601520">
        <ele>117.7</ele>
        <time>2020-02-23T15:55:34Z</time>
      </trkpt>
      <trkpt lat="39.0227210" lon="1.4601280">
        <ele>117.5</ele>
        <time>2020-02-23T15:55:35Z</time>
      </trkpt>
      <trkpt lat="39.0226620" lon="1.4601140">
        <ele>117.2</ele>
        <time>2020-02-23T15:55:36Z</time>
      </trkpt>
      <trkpt lat="39.0226060" lon="1.4600920">
        <ele>117.0</ele>
        <time>2020-02-23T15:55:37Z</time>
      </trkpt>
      <trkpt lat="39.0225540" lon="1.4600670">
        <ele>116.8</ele>
        <time>2020-02-23T15:55:38Z</time>
      </trkpt>
      <trkpt lat="39.0225120" lon="1.4600370">
        <ele>116.7</ele>
        <time>2020-02-23T15:55:39Z</time>
      </trkpt>
      <trkpt lat="39.0224690" lon="1.4600000">
        <ele>116.5</ele>
        <time>2020-02-23T15:55:40Z</time>
      </trkpt>
      <trkpt lat="39.0224280" lon="1.4599590">
        <ele>116.3</ele>
        <time>2020-02-23T15:55:41Z</time>
      </trkpt>
      <trkpt lat="39.0223770" lon="1.4599100">
        <ele>115.9</ele>
        <time>2020-02-23T15:55:42Z</time>
      </trkpt>
      <trkpt lat="39.0223350" lon="1.4598660">
        <ele>116.0</ele>
        <time>2020-02-23T15:55:43Z</time>
      </trkpt>
      <trkpt lat="39.0222970" lon="1.4598230">
        <ele>116.1</ele>
        <time>2020-02-23T15:55:44Z</time>
      </trkpt>
      <trkpt lat="39.0222590" lon="1.4597820">
        <ele>116.2</ele>
        <time>2020-02-23T15:55:45Z</time>
      </trkpt>
      <trkpt lat="39.0222260" lon="1.4597460">
        <ele>116.2</ele>
        <time>2020-02-23T15:55:46Z</time>
      </trkpt>
      <trkpt lat="39.0221930" lon="1.4597090">
        <ele>116.3</ele>
        <time>2020-02-23T15:55:47Z</time>
      </trkpt>
      <trkpt lat="39.0221610" lon="1.4596750">
        <ele>116.3</ele>
        <time>2020-02-23T15:55:48Z</time>
      </trkpt>
      <trkpt lat="39.0221310" lon="1.4596470">
        <ele>116.3</ele>
        <time>2020-02-23T15:55:49Z</time>
      </trkpt>
      <trkpt lat="39.0221020" lon="1.4596290">
        <ele>116.4</ele>
        <time>2020-02-23T15:55:50Z</time>
      </trkpt>
      <trkpt lat="39.0220670" lon="1.4596040">
        <ele>116.4</ele>
        <time>2020-02-23T15:55:51Z</time>
      </trkpt>
      <trkpt lat="39.0220270" lon="1.4595790">
        <ele>116.4</ele>
        <time>2020-02-23T15:55:52Z</time>
      </trkpt>
      <trkpt lat="39.0219960" lon="1.4595480">
        <ele>116.4</ele>
        <time>2020-02-23T15:55:53Z</time>
      </trkpt>
      <trkpt lat="39.0219660" lon="1.4595190">
        <ele>116.5</ele>
        <time>2020-02-23T15:55:54Z</time>
      </trkpt>
      <trkpt lat="39.0219320" lon="1.4594900">
        <ele>116.5</ele>
        <time>2020-02-23T15:55:55Z</time>
      </trkpt>
      <trkpt lat="39.0219010" lon="1.4594670">
        <ele>116.5</ele>
        <time>2020-02-23T15:55:56Z</time>
      </trkpt>
      <trkpt lat="39.0218710" lon="1.4594430">
        <ele>116.6</ele>
        <time>2020-02-23T15:55:57Z</time>
      </trkpt>
      <trkpt lat="39.0218390" lon="1.4594130">
        <ele>116.7</ele>
        <time>2020-02-23T15:55:58Z</time>
      </trkpt>
      <trkpt lat="39.0218270" lon="1.4594000">
        <ele>116.7</ele>
        <time>2020-02-23T15:55:59Z</time>
      </trkpt>
      <trkpt lat="39.0217950" lon="1.4593770">
        <ele>116.8</ele>
        <time>2020-02-23T15:56:00Z</time>
      </trkpt>
      <trkpt lat="39.0217580" lon="1.4593550">
        <ele>116.9</ele>
        <time>2020-02-23T15:56:01Z</time>
      </trkpt>
      <trkpt lat="39.0217240" lon="1.4593300">
        <ele>117.0</ele>
        <time>2020-02-23T15:56:02Z</time>
      </trkpt>
      <trkpt lat="39.0216910" lon="1.4593020">
        <ele>117.1</ele>
        <time>2020-02-23T15:56:03Z</time>
      </trkpt>
      <trkpt lat="39.0216590" lon="1.4592840">
        <ele>117.2</ele>
        <time>2020-02-23T15:56:04Z</time>
      </trkpt>
      <trkpt lat="39.0216210" lon="1.4592650">
        <ele>117.4</ele>
        <time>2020-02-23T15:56:05Z</time>
      </trkpt>
      <trkpt lat="39.0215830" lon="1.4592430">
        <ele>117.6</ele>
        <time>2020-02-23T15:56:06Z</time>
      </trkpt>
      <trkpt lat="39.0215500" lon="1.4592220">
        <ele>117.7</ele>
        <time>2020-02-23T15:56:07Z</time>
      </trkpt>
      <trkpt lat="39.0215160" lon="1.4592010">
        <ele>117.9</ele>
        <time>2020-02-23T15:56:08Z</time>
      </trkpt>
      <trkpt lat="39.0214910" lon="1.4591830">
        <ele>118.0</ele>
        <time>2020-02-23T15:56:09Z</time>
      </trkpt>
      <trkpt lat="39.0214480" lon="1.4591600">
        <ele>118.2</ele>
        <time>2020-02-23T15:56:10Z</time>
      </trkpt>
      <trkpt lat="39.0214060" lon="1.4591490">
        <ele>118.3</ele>
        <time>2020-02-23T15:56:11Z</time>
      </trkpt>
      <trkpt lat="39.0213580" lon="1.4591280">
        <ele>118.4</ele>
        <time>2020-02-23T15:56:12Z</time>
      </trkpt>
      <trkpt lat="39.0213210" lon="1.4591040">
        <ele>118.6</ele>
        <time>2020-02-23T15:56:13Z</time>
      </trkpt>
      <trkpt lat="39.0212850" lon="1.4590800">
        <ele>118.7</ele>
        <time>2020-02-23T15:56:14Z</time>
      </trkpt>
      <trkpt lat="39.0212500" lon="1.4590630">
        <ele>118.8</ele>
        <time>2020-02-23T15:56:15Z</time>
      </trkpt>
      <trkpt lat="39.0212170" lon="1.4590430">
        <ele>118.9</ele>
        <time>2020-02-23T15:56:16Z</time>
      </trkpt>
      <trkpt lat="39.0211890" lon="1.4590270">
        <ele>119.0</ele>
        <time>2020-02-23T15:56:17Z</time>
      </trkpt>
      <trkpt lat="39.0211560" lon="1.4590030">
        <ele>119.1</ele>
        <time>2020-02-23T15:56:18Z</time>
      </trkpt>
      <trkpt lat="39.0211240" lon="1.4589820">
        <ele>119.3</ele>
        <time>2020-02-23T15:56:19Z</time>
      </trkpt>
      <trkpt lat="39.0210970" lon="1.4589570">
        <ele>119.4</ele>
        <time>2020-02-23T15:56:20Z</time>
      </trkpt>
      <trkpt lat="39.0210690" lon="1.4589300">
        <ele>119.5</ele>
        <time>2020-02-23T15:56:21Z</time>
      </trkpt>
      <trkpt lat="39.0210410" lon="1.4589050">
        <ele>119.6</ele>
        <time>2020-02-23T15:56:22Z</time>
      </trkpt>
      <trkpt lat="39.0210140" lon="1.4588760">
        <ele>119.8</ele>
        <time>2020-02-23T15:56:23Z</time>
      </trkpt>
      <trkpt lat="39.0209850" lon="1.4588490">
        <ele>120.0</ele>
        <time>2020-02-23T15:56:24Z</time>
      </trkpt>
      <trkpt lat="39.0209550" lon="1.4588150">
        <ele>120.2</ele>
        <time>2020-02-23T15:56:25Z</time>
      </trkpt>
      <trkpt lat="39.0209280" lon="1.4587850">
        <ele>120.3</ele>
        <time>2020-02-23T15:56:26Z</time>
      </trkpt>
      <trkpt lat="39.0208990" lon="1.4587580">
        <ele>120.3</ele>
        <time>2020-02-23T15:56:27Z</time>
      </trkpt>
      <trkpt lat="39.0208710" lon="1.4587270">
        <ele>120.3</ele>
        <time>2020-02-23T15:56:28Z</time>
      </trkpt>
      <trkpt lat="39.0208520" lon="1.4586920">
        <ele>120.3</ele>
        <time>2020-02-23T15:56:29Z</time>
      </trkpt>
      <trkpt lat="39.0208290" lon="1.4586630">
        <ele>120.4</ele>
        <time>2020-02-23T15:56:30Z</time>
      </trkpt>
      <trkpt lat="39.0208040" lon="1.4586400">
        <ele>120.4</ele>
        <time>2020-02-23T15:56:31Z</time>
      </trkpt>
      <trkpt lat="39.0207760" lon="1.4586240">
        <ele>120.5</ele>
        <time>2020-02-23T15:56:32Z</time>
      </trkpt>
      <trkpt lat="39.0207470" lon="1.4585920">
        <ele>120.6</ele>
        <time>2020-02-23T15:56:33Z</time>
      </trkpt>
      <trkpt lat="39.0207170" lon="1.4585600">
        <ele>120.8</ele>
        <time>2020-02-23T15:56:34Z</time>
      </trkpt>
      <trkpt lat="39.0206800" lon="1.4585310">
        <ele>121.0</ele>
        <time>2020-02-23T15:56:35Z</time>
      </trkpt>
      <trkpt lat="39.0206550" lon="1.4584930">
        <ele>121.2</ele>
        <time>2020-02-23T15:56:36Z</time>
      </trkpt>
      <trkpt lat="39.0206260" lon="1.4584580">
        <ele>121.4</ele>
        <time>2020-02-23T15:56:37Z</time>
      </trkpt>
      <trkpt lat="39.0206030" lon="1.4584360">
        <ele>121.5</ele>
        <time>2020-02-23T15:56:38Z</time>
      </trkpt>
      <trkpt lat="39.0205770" lon="1.4584140">
        <ele>121.7</ele>
        <time>2020-02-23T15:56:39Z</time>
      </trkpt>
      <trkpt lat="39.0205450" lon="1.4583950">
        <ele>121.9</ele>
        <time>2020-02-23T15:56:40Z</time>
      </trkpt>
      <trkpt lat="39.0205170" lon="1.4583710">
        <ele>122.0</ele>
        <time>2020-02-23T15:56:41Z</time>
      </trkpt>
      <trkpt lat="39.0204840" lon="1.4583430">
        <ele>122.3</ele>
        <time>2020-02-23T15:56:42Z</time>
      </trkpt>
      <trkpt lat="39.0204490" lon="1.4583110">
        <ele>122.5</ele>
        <time>2020-02-23T15:56:43Z</time>
      </trkpt>
      <trkpt lat="39.0204230" lon="1.4582840">
        <ele>122.7</ele>
        <time>2020-02-23T15:56:44Z</time>
      </trkpt>
      <trkpt lat="39.0204020" lon="1.4582540">
        <ele>122.9</ele>
        <time>2020-02-23T15:56:45Z</time>
      </trkpt>
      <trkpt lat="39.0203740" lon="1.4582180">
        <ele>123.1</ele>
        <time>2020-02-23T15:56:46Z</time>
      </trkpt>
      <trkpt lat="39.0203620" lon="1.4582070">
        <ele>123.1</ele>
        <time>2020-02-23T15:56:47Z</time>
      </trkpt>
      <trkpt lat="39.0203290" lon="1.4581780">
        <ele>123.4</ele>
        <time>2020-02-23T15:56:48Z</time>
      </trkpt>
      <trkpt lat="39.0202990" lon="1.4581560">
        <ele>123.5</ele>
        <time>2020-02-23T15:56:49Z</time>
      </trkpt>
      <trkpt lat="39.0202720" lon="1.4581340">
        <ele>123.7</ele>
        <time>2020-02-23T15:56:50Z</time>
      </trkpt>
      <trkpt lat="39.0202390" lon="1.4581110">
        <ele>123.9</ele>
        <time>2020-02-23T15:56:51Z</time>
      </trkpt>
      <trkpt lat="39.0202110" lon="1.4580850">
        <ele>124.1</ele>
        <time>2020-02-23T15:56:52Z</time>
      </trkpt>
      <trkpt lat="39.0201830" lon="1.4580590">
        <ele>124.3</ele>
        <time>2020-02-23T15:56:53Z</time>
      </trkpt>
      <trkpt lat="39.0201580" lon="1.4580360">
        <ele>124.5</ele>
        <time>2020-02-23T15:56:54Z</time>
      </trkpt>
      <trkpt lat="39.0201270" lon="1.4580190">
        <ele>124.7</ele>
        <time>2020-02-23T15:56:55Z</time>
      </trkpt>
      <trkpt lat="39.0200980" lon="1.4579910">
        <ele>125.0</ele>
        <time>2020-02-23T15:56:56Z</time>
      </trkpt>
      <trkpt lat="39.0200850" lon="1.4579820">
        <ele>125.1</ele>
        <time>2020-02-23T15:56:57Z</time>
      </trkpt>
      <trkpt lat="39.0200570" lon="1.4579580">
        <ele>125.4</ele>
        <time>2020-02-23T15:56:58Z</time>
      </trkpt>
      <trkpt lat="39.0200310" lon="1.4579500">
        <ele>125.6</ele>
        <time>2020-02-23T15:56:59Z</time>
      </trkpt>
      <trkpt lat="39.0200220" lon="1.4579440">
        <ele>125.7</ele>
        <time>2020-02-23T15:57:00Z</time>
      </trkpt>
      <trkpt lat="39.0200020" lon="1.4579110">
        <ele>126.0</ele>
        <time>2020-02-23T15:57:01Z</time>
      </trkpt>
      <trkpt lat="39.0199910" lon="1.4579040">
        <ele>126.1</ele>
        <time>2020-02-23T15:57:02Z</time>
      </trkpt>
      <trkpt lat="39.0199690" lon="1.4578720">
        <ele>126.4</ele>
        <time>2020-02-23T15:57:03Z</time>
      </trkpt>
      <trkpt lat="39.0199600" lon="1.4578630">
        <ele>126.5</ele>
        <time>2020-02-23T15:57:04Z</time>
      </trkpt>
      <trkpt lat="39.0199350" lon="1.4578350">
        <ele>126.8</ele>
        <time>2020-02-23T15:57:05Z</time>
      </trkpt>
      <trkpt lat="39.0199270" lon="1.4578240">
        <ele>126.9</ele>
        <time>2020-02-23T15:57:06Z</time>
      </trkpt>
      <trkpt lat="39.0199070" lon="1.4577910">
        <ele>127.2</ele>
        <time>2020-02-23T15:57:07Z</time>
      </trkpt>
      <trkpt lat="39.0198840" lon="1.4577660">
        <ele>127.4</ele>
        <time>2020-02-23T15:57:08Z</time>
      </trkpt>
      <trkpt lat="39.0198630" lon="1.4577400">
        <ele>127.6</ele>
        <time>2020-02-23T15:57:09Z</time>
      </trkpt>
      <trkpt lat="39.0198420" lon="1.4577150">
        <ele>127.8</ele>
        <time>2020-02-23T15:57:10Z</time>
      </trkpt>
      <trkpt lat="39.0198160" lon="1.4576820">
        <ele>128.0</ele>
        <time>2020-02-23T15:57:11Z</time>
      </trkpt>
      <trkpt lat="39.0197890" lon="1.4576500">
        <ele>128.2</ele>
        <time>2020-02-23T15:57:12Z</time>
      </trkpt>
      <trkpt lat="39.0197620" lon="1.4576180">
        <ele>128.3</ele>
        <time>2020-02-23T15:57:13Z</time>
      </trkpt>
      <trkpt lat="39.0197390" lon="1.4575930">
        <ele>128.4</ele>
        <time>2020-02-23T15:57:14Z</time>
      </trkpt>
      <trkpt lat="39.0197160" lon="1.4575720">
        <ele>128.4</ele>
        <time>2020-02-23T15:57:15Z</time>
      </trkpt>
      <trkpt lat="39.0196840" lon="1.4575470">
        <ele>128.5</ele>
        <time>2020-02-23T15:57:16Z</time>
      </trkpt>
      <trkpt lat="39.0196750" lon="1.4575410">
        <ele>128.5</ele>
        <time>2020-02-23T15:57:17Z</time>
      </trkpt>
      <trkpt lat="39.0196450" lon="1.4575220">
        <ele>128.6</ele>
        <time>2020-02-23T15:57:18Z</time>
      </trkpt>
      <trkpt lat="39.0196130" lon="1.4575080">
        <ele>128.6</ele>
        <time>2020-02-23T15:57:19Z</time>
      </trkpt>
      <trkpt lat="39.0195870" lon="1.4574870">
        <ele>128.6</ele>
        <time>2020-02-23T15:57:20Z</time>
      </trkpt>
      <trkpt lat="39.0195510" lon="1.4574720">
        <ele>128.7</ele>
        <time>2020-02-23T15:57:21Z</time>
      </trkpt>
      <trkpt lat="39.0195170" lon="1.4574540">
        <ele>128.7</ele>
        <time>2020-02-23T15:57:22Z</time>
      </trkpt>
      <trkpt lat="39.0194980" lon="1.4574210">
        <ele>128.8</ele>
        <time>2020-02-23T15:57:23Z</time>
      </trkpt>
      <trkpt lat="39.0194670" lon="1.4574030">
        <ele>128.8</ele>
        <time>2020-02-23T15:57:24Z</time>
      </trkpt>
      <trkpt lat="39.0194390" lon="1.4573960">
        <ele>128.9</ele>
        <time>2020-02-23T15:57:25Z</time>
      </trkpt>
      <trkpt lat="39.0194040" lon="1.4573760">
        <ele>129.0</ele>
        <time>2020-02-23T15:57:26Z</time>
      </trkpt>
      <trkpt lat="39.0193920" lon="1.4573680">
        <ele>129.0</ele>
        <time>2020-02-23T15:57:27Z</time>
      </trkpt>
      <trkpt lat="39.0193560" lon="1.4573440">
        <ele>129.2</ele>
        <time>2020-02-23T15:57:28Z</time>
      </trkpt>
      <trkpt lat="39.0193340" lon="1.4573240">
        <ele>129.3</ele>
        <time>2020-02-23T15:57:29Z</time>
      </trkpt>
      <trkpt lat="39.0192970" lon="1.4572990">
        <ele>129.5</ele>
        <time>2020-02-23T15:57:30Z</time>
      </trkpt>
      <trkpt lat="39.0192830" lon="1.4572910">
        <ele>129.5</ele>
        <time>2020-02-23T15:57:31Z</time>
      </trkpt>
      <trkpt lat="39.0192600" lon="1.4572710">
        <ele>129.6</ele>
        <time>2020-02-23T15:57:32Z</time>
      </trkpt>
      <trkpt lat="39.0192250" lon="1.4572410">
        <ele>129.8</ele>
        <time>2020-02-23T15:57:33Z</time>
      </trkpt>
      <trkpt lat="39.0191930" lon="1.4572230">
        <ele>129.9</ele>
        <time>2020-02-23T15:57:34Z</time>
      </trkpt>
      <trkpt lat="39.0191650" lon="1.4572080">
        <ele>130.1</ele>
        <time>2020-02-23T15:57:35Z</time>
      </trkpt>
      <trkpt lat="39.0191360" lon="1.4571920">
        <ele>130.2</ele>
        <time>2020-02-23T15:57:36Z</time>
      </trkpt>
      <trkpt lat="39.0191070" lon="1.4571730">
        <ele>130.3</ele>
        <time>2020-02-23T15:57:37Z</time>
      </trkpt>
      <trkpt lat="39.0190710" lon="1.4571480">
        <ele>130.4</ele>
        <time>2020-02-23T15:57:38Z</time>
      </trkpt>
      <trkpt lat="39.0190450" lon="1.4571290">
        <ele>130.4</ele>
        <time>2020-02-23T15:57:39Z</time>
      </trkpt>
      <trkpt lat="39.0190190" lon="1.4571120">
        <ele>130.5</ele>
        <time>2020-02-23T15:57:40Z</time>
      </trkpt>
      <trkpt lat="39.0189940" lon="1.4570950">
        <ele>130.6</ele>
        <time>2020-02-23T15:57:41Z</time>
      </trkpt>
      <trkpt lat="39.0189630" lon="1.4570720">
        <ele>130.7</ele>
        <time>2020-02-23T15:57:42Z</time>
      </trkpt>
      <trkpt lat="39.0189360" lon="1.4570490">
        <ele>130.7</ele>
        <time>2020-02-23T15:57:43Z</time>
      </trkpt>
      <trkpt lat="39.0189020" lon="1.4570160">
        <ele>130.8</ele>
        <time>2020-02-23T15:57:44Z</time>
      </trkpt>
      <trkpt lat="39.0188740" lon="1.4569990">
        <ele>130.9</ele>
        <time>2020-02-23T15:57:45Z</time>
      </trkpt>
      <trkpt lat="39.0188480" lon="1.4569790">
        <ele>130.9</ele>
        <time>2020-02-23T15:57:46Z</time>
      </trkpt>
      <trkpt lat="39.0188250" lon="1.4569610">
        <ele>131.0</ele>
        <time>2020-02-23T15:57:47Z</time>
      </trkpt>
      <trkpt lat="39.0187990" lon="1.4569370">
        <ele>131.1</ele>
        <time>2020-02-23T15:57:48Z</time>
      </trkpt>
      <trkpt lat="39.0187800" lon="1.4569000">
        <ele>131.2</ele>
        <time>2020-02-23T15:57:49Z</time>
      </trkpt>
      <trkpt lat="39.0187590" lon="1.4568620">
        <ele>131.4</ele>
        <time>2020-02-23T15:57:50Z</time>
      </trkpt>
      <trkpt lat="39.0187300" lon="1.4568350">
        <ele>131.6</ele>
        <time>2020-02-23T15:57:51Z</time>
      </trkpt>
      <trkpt lat="39.0187090" lon="1.4568020">
        <ele>131.8</ele>
        <time>2020-02-23T15:57:52Z</time>
      </trkpt>
      <trkpt lat="39.0186900" lon="1.4567770">
        <ele>132.0</ele>
        <time>2020-02-23T15:57:53Z</time>
      </trkpt>
      <trkpt lat="39.0186610" lon="1.4567390">
        <ele>132.3</ele>
        <time>2020-02-23T15:57:54Z</time>
      </trkpt>
      <trkpt lat="39.0186500" lon="1.4567270">
        <ele>132.3</ele>
        <time>2020-02-23T15:57:55Z</time>
      </trkpt>
      <trkpt lat="39.0186360" lon="1.4566920">
        <ele>132.6</ele>
        <time>2020-02-23T15:57:56Z</time>
      </trkpt>
      <trkpt lat="39.0186230" lon="1.4566570">
        <ele>132.8</ele>
        <time>2020-02-23T15:57:57Z</time>
      </trkpt>
      <trkpt lat="39.0186050" lon="1.4566130">
        <ele>133.0</ele>
        <time>2020-02-23T15:57:58Z</time>
      </trkpt>
      <trkpt lat="39.0185900" lon="1.4565700">
        <ele>133.2</ele>
        <time>2020-02-23T15:57:59Z</time>
      </trkpt>
      <trkpt lat="39.0185750" lon="1.4565310">
        <ele>133.4</ele>
        <time>2020-02-23T15:58:00Z</time>
      </trkpt>
      <trkpt lat="39.0185600" lon="1.4564920">
        <ele>133.5</ele>
        <time>2020-02-23T15:58:01Z</time>
      </trkpt>
      <trkpt lat="39.0185400" lon="1.4564570">
        <ele>133.7</ele>
        <time>2020-02-23T15:58:02Z</time>
      </trkpt>
      <trkpt lat="39.0185210" lon="1.4564170">
        <ele>133.8</ele>
        <time>2020-02-23T15:58:03Z</time>
      </trkpt>
      <trkpt lat="39.0185080" lon="1.4563740">
        <ele>133.9</ele>
        <time>2020-02-23T15:58:04Z</time>
      </trkpt>
      <trkpt lat="39.0184940" lon="1.4563370">
        <ele>133.9</ele>
        <time>2020-02-23T15:58:05Z</time>
      </trkpt>
      <trkpt lat="39.0184860" lon="1.4562990">
        <ele>133.9</ele>
        <time>2020-02-23T15:58:06Z</time>
      </trkpt>
      <trkpt lat="39.0184780" lon="1.4562580">
        <ele>133.9</ele>
        <time>2020-02-23T15:58:07Z</time>
      </trkpt>
      <trkpt lat="39.0184650" lon="1.4562190">
        <ele>134.0</ele>
        <time>2020-02-23T15:58:08Z</time>
      </trkpt>
      <trkpt lat="39.0184630" lon="1.4561710">
        <ele>134.0</ele>
        <time>2020-02-23T15:58:09Z</time>
      </trkpt>
      <trkpt lat="39.0184560" lon="1.4561190">
        <ele>134.0</ele>
        <time>2020-02-23T15:58:10Z</time>
      </trkpt>
      <trkpt lat="39.0184540" lon="1.4560600">
        <ele>134.0</ele>
        <time>2020-02-23T15:58:11Z</time>
      </trkpt>
      <trkpt lat="39.0184570" lon="1.4560060">
        <ele>134.0</ele>
        <time>2020-02-23T15:58:12Z</time>
      </trkpt>
      <trkpt lat="39.0184740" lon="1.4559420">
        <ele>134.0</ele>
        <time>2020-02-23T15:58:13Z</time>
      </trkpt>
      <trkpt lat="39.0184770" lon="1.4558840">
        <ele>134.0</ele>
        <time>2020-02-23T15:58:14Z</time>
      </trkpt>
      <trkpt lat="39.0184760" lon="1.4558330">
        <ele>134.1</ele>
        <time>2020-02-23T15:58:15Z</time>
      </trkpt>
      <trkpt lat="39.0184710" lon="1.4557900">
        <ele>134.1</ele>
        <time>2020-02-23T15:58:16Z</time>
      </trkpt>
      <trkpt lat="39.0184700" lon="1.4557480">
        <ele>134.1</ele>
        <time>2020-02-23T15:58:17Z</time>
      </trkpt>
      <trkpt lat="39.0184660" lon="1.4557010">
        <ele>134.1</ele>
        <time>2020-02-23T15:58:18Z</time>
      </trkpt>
      <trkpt lat="39.0184680" lon="1.4556530">
        <ele>134.1</ele>
        <time>2020-02-23T15:58:19Z</time>
      </trkpt>
      <trkpt lat="39.0184660" lon="1.4556040">
        <ele>134.1</ele>
        <time>2020-02-23T15:58:20Z</time>
      </trkpt>
      <trkpt lat="39.0184570" lon="1.4555530">
        <ele>134.1</ele>
        <time>2020-02-23T15:58:21Z</time>
      </trkpt>
      <trkpt lat="39.0184570" lon="1.4555010">
        <ele>134.1</ele>
        <time>2020-02-23T15:58:22Z</time>
      </trkpt>
      <trkpt lat="39.0184440" lon="1.4554500">
        <ele>134.1</ele>
        <time>2020-02-23T15:58:23Z</time>
      </trkpt>
      <trkpt lat="39.0184320" lon="1.4554030">
        <ele>134.1</ele>
        <time>2020-02-23T15:58:24Z</time>
      </trkpt>
      <trkpt lat="39.0184160" lon="1.4553530">
        <ele>134.2</ele>
        <time>2020-02-23T15:58:25Z</time>
      </trkpt>
      <trkpt lat="39.0184050" lon="1.4552990">
        <ele>134.2</ele>
        <time>2020-02-23T15:58:26Z</time>
      </trkpt>
      <trkpt lat="39.0183940" lon="1.4552440">
        <ele>134.2</ele>
        <time>2020-02-23T15:58:27Z</time>
      </trkpt>
      <trkpt lat="39.0183850" lon="1.4551960">
        <ele>134.2</ele>
        <time>2020-02-23T15:58:28Z</time>
      </trkpt>
      <trkpt lat="39.0183780" lon="1.4551450">
        <ele>134.2</ele>
        <time>2020-02-23T15:58:29Z</time>
      </trkpt>
      <trkpt lat="39.0183680" lon="1.4550910">
        <ele>134.3</ele>
        <time>2020-02-23T15:58:30Z</time>
      </trkpt>
      <trkpt lat="39.0183640" lon="1.4550440">
        <ele>134.3</ele>
        <time>2020-02-23T15:58:31Z</time>
      </trkpt>
      <trkpt lat="39.0183580" lon="1.4549890">
        <ele>134.4</ele>
        <time>2020-02-23T15:58:32Z</time>
      </trkpt>
      <trkpt lat="39.0183540" lon="1.4549470">
        <ele>134.5</ele>
        <time>2020-02-23T15:58:33Z</time>
      </trkpt>
      <trkpt lat="39.0183560" lon="1.4549010">
        <ele>134.6</ele>
        <time>2020-02-23T15:58:34Z</time>
      </trkpt>
      <trkpt lat="39.0183570" lon="1.4548580">
        <ele>134.7</ele>
        <time>2020-02-23T15:58:35Z</time>
      </trkpt>
      <trkpt lat="39.0183620" lon="1.4548180">
        <ele>134.8</ele>
        <time>2020-02-23T15:58:36Z</time>
      </trkpt>
      <trkpt lat="39.0183570" lon="1.4547810">
        <ele>134.8</ele>
        <time>2020-02-23T15:58:37Z</time>
      </trkpt>
      <trkpt lat="39.0183570" lon="1.4547400">
        <ele>134.9</ele>
        <time>2020-02-23T15:58:38Z</time>
      </trkpt>
      <trkpt lat="39.0183500" lon="1.4546980">
        <ele>135.0</ele>
        <time>2020-02-23T15:58:39Z</time>
      </trkpt>
      <trkpt lat="39.0183450" lon="1.4546840">
        <ele>135.0</ele>
        <time>2020-02-23T15:58:40Z</time>
      </trkpt>
      <trkpt lat="39.0183360" lon="1.4546480">
        <ele>135.1</ele>
        <time>2020-02-23T15:58:41Z</time>
      </trkpt>
      <trkpt lat="39.0183130" lon="1.4546090">
        <ele>135.1</ele>
        <time>2020-02-23T15:58:42Z</time>
      </trkpt>
      <trkpt lat="39.0182920" lon="1.4545690">
        <ele>135.2</ele>
        <time>2020-02-23T15:58:43Z</time>
      </trkpt>
      <trkpt lat="39.0182700" lon="1.4545220">
        <ele>135.2</ele>
        <time>2020-02-23T15:58:44Z</time>
      </trkpt>
      <trkpt lat="39.0182480" lon="1.4544760">
        <ele>135.3</ele>
        <time>2020-02-23T15:58:45Z</time>
      </trkpt>
      <trkpt lat="39.0182260" lon="1.4544330">
        <ele>135.3</ele>
        <time>2020-02-23T15:58:46Z</time>
      </trkpt>
      <trkpt lat="39.0182070" lon="1.4543900">
        <ele>135.3</ele>
        <time>2020-02-23T15:58:47Z</time>
      </trkpt>
      <trkpt lat="39.0181890" lon="1.4543430">
        <ele>135.3</ele>
        <time>2020-02-23T15:58:48Z</time>
      </trkpt>
      <trkpt lat="39.0181650" lon="1.4542940">
        <ele>135.3</ele>
        <time>2020-02-23T15:58:49Z</time>
      </trkpt>
      <trkpt lat="39.0181490" lon="1.4542570">
        <ele>135.3</ele>
        <time>2020-02-23T15:58:50Z</time>
      </trkpt>
      <trkpt lat="39.0181300" lon="1.4542180">
        <ele>135.4</ele>
        <time>2020-02-23T15:58:51Z</time>
      </trkpt>
      <trkpt lat="39.0181140" lon="1.4541710">
        <ele>135.4</ele>
        <time>2020-02-23T15:58:52Z</time>
      </trkpt>
      <trkpt lat="39.0181000" lon="1.4541320">
        <ele>135.5</ele>
        <time>2020-02-23T15:58:53Z</time>
      </trkpt>
      <trkpt lat="39.0180840" lon="1.4540830">
        <ele>135.6</ele>
        <time>2020-02-23T15:58:54Z</time>
      </trkpt>
      <trkpt lat="39.0180760" lon="1.4540440">
        <ele>135.8</ele>
        <time>2020-02-23T15:58:55Z</time>
      </trkpt>
      <trkpt lat="39.0180560" lon="1.4540040">
        <ele>135.9</ele>
        <time>2020-02-23T15:58:56Z</time>
      </trkpt>
      <trkpt lat="39.0180430" lon="1.4539680">
        <ele>136.0</ele>
        <time>2020-02-23T15:58:57Z</time>
      </trkpt>
      <trkpt lat="39.0180380" lon="1.4539330">
        <ele>136.1</ele>
        <time>2020-02-23T15:58:58Z</time>
      </trkpt>
      <trkpt lat="39.0180280" lon="1.4538990">
        <ele>136.1</ele>
        <time>2020-02-23T15:58:59Z</time>
      </trkpt>
      <trkpt lat="39.0179990" lon="1.4538680">
        <ele>136.2</ele>
        <time>2020-02-23T15:59:00Z</time>
      </trkpt>
      <trkpt lat="39.0179870" lon="1.4538300">
        <ele>136.3</ele>
        <time>2020-02-23T15:59:01Z</time>
      </trkpt>
      <trkpt lat="39.0179720" lon="1.4537940">
        <ele>136.4</ele>
        <time>2020-02-23T15:59:02Z</time>
      </trkpt>
      <trkpt lat="39.0179550" lon="1.4537540">
        <ele>136.5</ele>
        <time>2020-02-23T15:59:03Z</time>
      </trkpt>
      <trkpt lat="39.0179370" lon="1.4537150">
        <ele>136.5</ele>
        <time>2020-02-23T15:59:04Z</time>
      </trkpt>
      <trkpt lat="39.0179170" lon="1.4536790">
        <ele>136.6</ele>
        <time>2020-02-23T15:59:05Z</time>
      </trkpt>
      <trkpt lat="39.0179010" lon="1.4536440">
        <ele>136.7</ele>
        <time>2020-02-23T15:59:06Z</time>
      </trkpt>
      <trkpt lat="39.0178860" lon="1.4535990">
        <ele>136.8</ele>
        <time>2020-02-23T15:59:07Z</time>
      </trkpt>
      <trkpt lat="39.0178790" lon="1.4535550">
        <ele>136.9</ele>
        <time>2020-02-23T15:59:08Z</time>
      </trkpt>
      <trkpt lat="39.0178700" lon="1.4535070">
        <ele>137.0</ele>
        <time>2020-02-23T15:59:09Z</time>
      </trkpt>
      <trkpt lat="39.0178640" lon="1.4534550">
        <ele>137.2</ele>
        <time>2020-02-23T15:59:10Z</time>
      </trkpt>
      <trkpt lat="39.0178540" lon="1.4534050">
        <ele>137.2</ele>
        <time>2020-02-23T15:59:11Z</time>
      </trkpt>
      <trkpt lat="39.0178520" lon="1.4533620">
        <ele>137.3</ele>
        <time>2020-02-23T15:59:12Z</time>
      </trkpt>
      <trkpt lat="39.0178410" lon="1.4533210">
        <ele>137.4</ele>
        <time>2020-02-23T15:59:13Z</time>
      </trkpt>
      <trkpt lat="39.0178310" lon="1.4532790">
        <ele>137.4</ele>
        <time>2020-02-23T15:59:14Z</time>
      </trkpt>
      <trkpt lat="39.0178140" lon="1.4532380">
        <ele>137.4</ele>
        <time>2020-02-23T15:59:15Z</time>
      </trkpt>
      <trkpt lat="39.0178110" lon="1.4532020">
        <ele>137.5</ele>
        <time>2020-02-23T15:59:16Z</time>
      </trkpt>
      <trkpt lat="39.0177940" lon="1.4531590">
        <ele>137.5</ele>
        <time>2020-02-23T15:59:17Z</time>
      </trkpt>
      <trkpt lat="39.0177830" lon="1.4531200">
        <ele>137.5</ele>
        <time>2020-02-23T15:59:18Z</time>
      </trkpt>
      <trkpt lat="39.0177790" lon="1.4530730">
        <ele>137.5</ele>
        <time>2020-02-23T15:59:19Z</time>
      </trkpt>
      <trkpt lat="39.0177720" lon="1.4530320">
        <ele>137.5</ele>
        <time>2020-02-23T15:59:20Z</time>
      </trkpt>
      <trkpt lat="39.0177640" lon="1.4529820">
        <ele>137.5</ele>
        <time>2020-02-23T15:59:21Z</time>
      </trkpt>
      <trkpt lat="39.0177600" lon="1.4529650">
        <ele>137.5</ele>
        <time>2020-02-23T15:59:22Z</time>
      </trkpt>
      <trkpt lat="39.0177480" lon="1.4529240">
        <ele>137.5</ele>
        <time>2020-02-23T15:59:23Z</time>
      </trkpt>
      <trkpt lat="39.0177430" lon="1.4528780">
        <ele>137.5</ele>
        <time>2020-02-23T15:59:24Z</time>
      </trkpt>
      <trkpt lat="39.0177250" lon="1.4528380">
        <ele>137.5</ele>
        <time>2020-02-23T15:59:25Z</time>
      </trkpt>
      <trkpt lat="39.0177110" lon="1.4527930">
        <ele>137.6</ele>
        <time>2020-02-23T15:59:26Z</time>
      </trkpt>
      <trkpt lat="39.0176930" lon="1.4527520">
        <ele>137.6</ele>
        <time>2020-02-23T15:59:27Z</time>
      </trkpt>
      <trkpt lat="39.0176780" lon="1.4527090">
        <ele>137.6</ele>
        <time>2020-02-23T15:59:28Z</time>
      </trkpt>
      <trkpt lat="39.0176670" lon="1.4526650">
        <ele>137.6</ele>
        <time>2020-02-23T15:59:29Z</time>
      </trkpt>
      <trkpt lat="39.0176560" lon="1.4526290">
        <ele>137.6</ele>
        <time>2020-02-23T15:59:30Z</time>
      </trkpt>
      <trkpt lat="39.0176430" lon="1.4525910">
        <ele>137.6</ele>
        <time>2020-02-23T15:59:31Z</time>
      </trkpt>
      <trkpt lat="39.0176370" lon="1.4525570">
        <ele>137.6</ele>
        <time>2020-02-23T15:59:32Z</time>
      </trkpt>
      <trkpt lat="39.0176180" lon="1.4525160">
        <ele>137.6</ele>
        <time>2020-02-23T15:59:33Z</time>
      </trkpt>
      <trkpt lat="39.0176130" lon="1.4524990">
        <ele>137.5</ele>
        <time>2020-02-23T15:59:34Z</time>
      </trkpt>
      <trkpt lat="39.0176090" lon="1.4524440">
        <ele>137.5</ele>
        <time>2020-02-23T15:59:35Z</time>
      </trkpt>
      <trkpt lat="39.0175980" lon="1.4523990">
        <ele>137.4</ele>
        <time>2020-02-23T15:59:36Z</time>
      </trkpt>
      <trkpt lat="39.0175840" lon="1.4523490">
        <ele>137.3</ele>
        <time>2020-02-23T15:59:37Z</time>
      </trkpt>
      <trkpt lat="39.0175750" lon="1.4523080">
        <ele>137.2</ele>
        <time>2020-02-23T15:59:38Z</time>
      </trkpt>
      <trkpt lat="39.0175510" lon="1.4522680">
        <ele>137.1</ele>
        <time>2020-02-23T15:59:39Z</time>
      </trkpt>
      <trkpt lat="39.0175400" lon="1.4522520">
        <ele>137.1</ele>
        <time>2020-02-23T15:59:40Z</time>
      </trkpt>
      <trkpt lat="39.0175230" lon="1.4522130">
        <ele>137.0</ele>
        <time>2020-02-23T15:59:41Z</time>
      </trkpt>
      <trkpt lat="39.0175040" lon="1.4521700">
        <ele>136.8</ele>
        <time>2020-02-23T15:59:42Z</time>
      </trkpt>
      <trkpt lat="39.0174810" lon="1.4521300">
        <ele>136.7</ele>
        <time>2020-02-23T15:59:43Z</time>
      </trkpt>
      <trkpt lat="39.0174560" lon="1.4520950">
        <ele>136.5</ele>
        <time>2020-02-23T15:59:44Z</time>
      </trkpt>
      <trkpt lat="39.0174290" lon="1.4520640">
        <ele>136.4</ele>
        <time>2020-02-23T15:59:45Z</time>
      </trkpt>
      <trkpt lat="39.0173970" lon="1.4520400">
        <ele>136.3</ele>
        <time>2020-02-23T15:59:46Z</time>
      </trkpt>
      <trkpt lat="39.0173550" lon="1.4520340">
        <ele>136.1</ele>
        <time>2020-02-23T15:59:47Z</time>
      </trkpt>
      <trkpt lat="39.0173020" lon="1.4520090">
        <ele>136.0</ele>
        <time>2020-02-23T15:59:48Z</time>
      </trkpt>
      <trkpt lat="39.0172490" lon="1.4519790">
        <ele>135.8</ele>
        <time>2020-02-23T15:59:49Z</time>
      </trkpt>
      <trkpt lat="39.0171880" lon="1.4519640">
        <ele>135.7</ele>
        <time>2020-02-23T15:59:50Z</time>
      </trkpt>
      <trkpt lat="39.0171330" lon="1.4519430">
        <ele>135.7</ele>
        <time>2020-02-23T15:59:51Z</time>
      </trkpt>
      <trkpt lat="39.0170820" lon="1.4519250">
        <ele>135.6</ele>
        <time>2020-02-23T15:59:52Z</time>
      </trkpt>
      <trkpt lat="39.0170250" lon="1.4519050">
        <ele>135.5</ele>
        <time>2020-02-23T15:59:53Z</time>
      </trkpt>
      <trkpt lat="39.0169680" lon="1.4518850">
        <ele>135.3</ele>
        <time>2020-02-23T15:59:54Z</time>
      </trkpt>
      <trkpt lat="39.0169070" lon="1.4518660">
        <ele>135.1</ele>
        <time>2020-02-23T15:59:55Z</time>
      </trkpt>
      <trkpt lat="39.0168440" lon="1.4518460">
        <ele>134.8</ele>
        <time>2020-02-23T15:59:56Z</time>
      </trkpt>
      <trkpt lat="39.0167890" lon="1.4518220">
        <ele>134.5</ele>
        <time>2020-02-23T15:59:57Z</time>
      </trkpt>
      <trkpt lat="39.0167300" lon="1.4518050">
        <ele>134.2</ele>
        <time>2020-02-23T15:59:58Z</time>
      </trkpt>
      <trkpt lat="39.0166790" lon="1.4517870">
        <ele>133.9</ele>
        <time>2020-02-23T15:59:59Z</time>
      </trkpt>
      <trkpt lat="39.0166290" lon="1.4517810">
        <ele>133.6</ele>
        <time>2020-02-23T16:00:00Z</time>
      </trkpt>
      <trkpt lat="39.0165860" lon="1.4517850">
        <ele>133.4</ele>
        <time>2020-02-23T16:00:01Z</time>
      </trkpt>
      <trkpt lat="39.0165440" lon="1.4517600">
        <ele>133.1</ele>
        <time>2020-02-23T16:00:02Z</time>
      </trkpt>
      <trkpt lat="39.0165110" lon="1.4517120">
        <ele>133.1</ele>
        <time>2020-02-23T16:00:03Z</time>
      </trkpt>
      <trkpt lat="39.0165100" lon="1.4516680">
        <ele>133.0</ele>
        <time>2020-02-23T16:00:04Z</time>
      </trkpt>
      <trkpt lat="39.0165190" lon="1.4516130">
        <ele>133.0</ele>
        <time>2020-02-23T16:00:05Z</time>
      </trkpt>
      <trkpt lat="39.0165210" lon="1.4515560">
        <ele>133.0</ele>
        <time>2020-02-23T16:00:06Z</time>
      </trkpt>
      <trkpt lat="39.0165260" lon="1.4514970">
        <ele>133.0</ele>
        <time>2020-02-23T16:00:07Z</time>
      </trkpt>
      <trkpt lat="39.0165310" lon="1.4514390">
        <ele>132.9</ele>
        <time>2020-02-23T16:00:08Z</time>
      </trkpt>
      <trkpt lat="39.0165300" lon="1.4513790">
        <ele>132.9</ele>
        <time>2020-02-23T16:00:09Z</time>
      </trkpt>
      <trkpt lat="39.0165240" lon="1.4513140">
        <ele>132.9</ele>
        <time>2020-02-23T16:00:10Z</time>
      </trkpt>
      <trkpt lat="39.0165190" lon="1.4512520">
        <ele>132.9</ele>
        <time>2020-02-23T16:00:11Z</time>
      </trkpt>
      <trkpt lat="39.0165100" lon="1.4511980">
        <ele>132.8</ele>
        <time>2020-02-23T16:00:12Z</time>
      </trkpt>
      <trkpt lat="39.0165050" lon="1.4511330">
        <ele>132.8</ele>
        <time>2020-02-23T16:00:13Z</time>
      </trkpt>
      <trkpt lat="39.0165010" lon="1.4510790">
        <ele>132.7</ele>
        <time>2020-02-23T16:00:14Z</time>
      </trkpt>
      <trkpt lat="39.0165000" lon="1.4510300">
        <ele>132.7</ele>
        <time>2020-02-23T16:00:15Z</time>
      </trkpt>
      <trkpt lat="39.0164990" lon="1.4509780">
        <ele>132.7</ele>
        <time>2020-02-23T16:00:16Z</time>
      </trkpt>
      <trkpt lat="39.0165020" lon="1.4509180">
        <ele>132.6</ele>
        <time>2020-02-23T16:00:17Z</time>
      </trkpt>
      <trkpt lat="39.0164890" lon="1.4508560">
        <ele>132.5</ele>
        <time>2020-02-23T16:00:18Z</time>
      </trkpt>
      <trkpt lat="39.0164800" lon="1.4508040">
        <ele>132.4</ele>
        <time>2020-02-23T16:00:19Z</time>
      </trkpt>
      <trkpt lat="39.0164750" lon="1.4507390">
        <ele>132.3</ele>
        <time>2020-02-23T16:00:20Z</time>
      </trkpt>
      <trkpt lat="39.0164710" lon="1.4506720">
        <ele>132.2</ele>
        <time>2020-02-23T16:00:21Z</time>
      </trkpt>
      <trkpt lat="39.0164690" lon="1.4506070">
        <ele>132.0</ele>
        <time>2020-02-23T16:00:22Z</time>
      </trkpt>
      <trkpt lat="39.0164570" lon="1.4505450">
        <ele>131.8</ele>
        <time>2020-02-23T16:00:23Z</time>
      </trkpt>
      <trkpt lat="39.0164510" lon="1.4504840">
        <ele>131.7</ele>
        <time>2020-02-23T16:00:24Z</time>
      </trkpt>
      <trkpt lat="39.0164440" lon="1.4504260">
        <ele>131.5</ele>
        <time>2020-02-23T16:00:25Z</time>
      </trkpt>
      <trkpt lat="39.0164330" lon="1.4503680">
        <ele>131.4</ele>
        <time>2020-02-23T16:00:26Z</time>
      </trkpt>
      <trkpt lat="39.0164260" lon="1.4503130">
        <ele>131.2</ele>
        <time>2020-02-23T16:00:27Z</time>
      </trkpt>
      <trkpt lat="39.0164180" lon="1.4502550">
        <ele>131.1</ele>
        <time>2020-02-23T16:00:28Z</time>
      </trkpt>
      <trkpt lat="39.0164120" lon="1.4501940">
        <ele>130.9</ele>
        <time>2020-02-23T16:00:29Z</time>
      </trkpt>
      <trkpt lat="39.0164060" lon="1.4501330">
        <ele>130.7</ele>
        <time>2020-02-23T16:00:30Z</time>
      </trkpt>
      <trkpt lat="39.0163970" lon="1.4500670">
        <ele>130.5</ele>
        <time>2020-02-23T16:00:31Z</time>
      </trkpt>
      <trkpt lat="39.0163830" lon="1.4500000">
        <ele>130.3</ele>
        <time>2020-02-23T16:00:32Z</time>
      </trkpt>
      <trkpt lat="39.0163790" lon="1.4499310">
        <ele>129.9</ele>
        <time>2020-02-23T16:00:33Z</time>
      </trkpt>
      <trkpt lat="39.0163680" lon="1.4498650">
        <ele>129.8</ele>
        <time>2020-02-23T16:00:34Z</time>
      </trkpt>
      <trkpt lat="39.0163540" lon="1.4497980">
        <ele>129.6</ele>
        <time>2020-02-23T16:00:35Z</time>
      </trkpt>
      <trkpt lat="39.0163390" lon="1.4497270">
        <ele>129.4</ele>
        <time>2020-02-23T16:00:36Z</time>
      </trkpt>
      <trkpt lat="39.0163250" lon="1.4496590">
        <ele>129.2</ele>
        <time>2020-02-23T16:00:37Z</time>
      </trkpt>
      <trkpt lat="39.0163130" lon="1.4495880">
        <ele>129.1</ele>
        <time>2020-02-23T16:00:38Z</time>
      </trkpt>
      <trkpt lat="39.0162960" lon="1.4495210">
        <ele>128.9</ele>
        <time>2020-02-23T16:00:39Z</time>
      </trkpt>
      <trkpt lat="39.0162800" lon="1.4494480">
        <ele>128.8</ele>
        <time>2020-02-23T16:00:40Z</time>
      </trkpt>
      <trkpt lat="39.0162570" lon="1.4493750">
        <ele>128.6</ele>
        <time>2020-02-23T16:00:41Z</time>
      </trkpt>
      <trkpt lat="39.0162390" lon="1.4493030">
        <ele>128.4</ele>
        <time>2020-02-23T16:00:42Z</time>
      </trkpt>
      <trkpt lat="39.0162160" lon="1.4492330">
        <ele>128.3</ele>
        <time>2020-02-23T16:00:43Z</time>
      </trkpt>
      <trkpt lat="39.0161890" lon="1.4491640">
        <ele>128.1</ele>
        <time>2020-02-23T16:00:44Z</time>
      </trkpt>
      <trkpt lat="39.0161610" lon="1.4490940">
        <ele>128.0</ele>
        <time>2020-02-23T16:00:45Z</time>
      </trkpt>
      <trkpt lat="39.0161240" lon="1.4490200">
        <ele>127.8</ele>
        <time>2020-02-23T16:00:46Z</time>
      </trkpt>
      <trkpt lat="39.0160840" lon="1.4489460">
        <ele>127.6</ele>
        <time>2020-02-23T16:00:47Z</time>
      </trkpt>
      <trkpt lat="39.0160500" lon="1.4488750">
        <ele>127.4</ele>
        <time>2020-02-23T16:00:48Z</time>
      </trkpt>
      <trkpt lat="39.0160130" lon="1.4488040">
        <ele>127.2</ele>
        <time>2020-02-23T16:00:49Z</time>
      </trkpt>
      <trkpt lat="39.0159680" lon="1.4487260">
        <ele>127.0</ele>
        <time>2020-02-23T16:00:50Z</time>
      </trkpt>
      <trkpt lat="39.0159210" lon="1.4486550">
        <ele>126.8</ele>
        <time>2020-02-23T16:00:51Z</time>
      </trkpt>
      <trkpt lat="39.0158590" lon="1.4485910">
        <ele>126.6</ele>
        <time>2020-02-23T16:00:52Z</time>
      </trkpt>
      <trkpt lat="39.0157910" lon="1.4485240">
        <ele>126.4</ele>
        <time>2020-02-23T16:00:53Z</time>
      </trkpt>
      <trkpt lat="39.0157280" lon="1.4484640">
        <ele>126.3</ele>
        <time>2020-02-23T16:00:54Z</time>
      </trkpt>
      <trkpt lat="39.0156650" lon="1.4484030">
        <ele>126.1</ele>
        <time>2020-02-23T16:00:55Z</time>
      </trkpt>
      <trkpt lat="39.0156000" lon="1.4483450">
        <ele>125.9</ele>
        <time>2020-02-23T16:00:56Z</time>
      </trkpt>
      <trkpt lat="39.0155350" lon="1.4482870">
        <ele>125.8</ele>
        <time>2020-02-23T16:00:57Z</time>
      </trkpt>
      <trkpt lat="39.0154720" lon="1.4482220">
        <ele>125.5</ele>
        <time>2020-02-23T16:00:58Z</time>
      </trkpt>
      <trkpt lat="39.0154110" lon="1.4481570">
        <ele>125.3</ele>
        <time>2020-02-23T16:00:59Z</time>
      </trkpt>
      <trkpt lat="39.0153490" lon="1.4480980">
        <ele>125.1</ele>
        <time>2020-02-23T16:01:00Z</time>
      </trkpt>
      <trkpt lat="39.0152910" lon="1.4480360">
        <ele>125.0</ele>
        <time>2020-02-23T16:01:01Z</time>
      </trkpt>
      <trkpt lat="39.0152350" lon="1.4479810">
        <ele>124.8</ele>
        <time>2020-02-23T16:01:02Z</time>
      </trkpt>
      <trkpt lat="39.0151840" lon="1.4479280">
        <ele>124.7</ele>
        <time>2020-02-23T16:01:03Z</time>
      </trkpt>
      <trkpt lat="39.0151390" lon="1.4478660">
        <ele>124.6</ele>
        <time>2020-02-23T16:01:04Z</time>
      </trkpt>
      <trkpt lat="39.0150870" lon="1.4478110">
        <ele>124.5</ele>
        <time>2020-02-23T16:01:05Z</time>
      </trkpt>
      <trkpt lat="39.0150420" lon="1.4477480">
        <ele>124.5</ele>
        <time>2020-02-23T16:01:06Z</time>
      </trkpt>
      <trkpt lat="39.0149930" lon="1.4476890">
        <ele>124.4</ele>
        <time>2020-02-23T16:01:07Z</time>
      </trkpt>
      <trkpt lat="39.0149490" lon="1.4476280">
        <ele>124.3</ele>
        <time>2020-02-23T16:01:08Z</time>
      </trkpt>
      <trkpt lat="39.0149100" lon="1.4475600">
        <ele>124.3</ele>
        <time>2020-02-23T16:01:09Z</time>
      </trkpt>
      <trkpt lat="39.0148650" lon="1.4474970">
        <ele>124.2</ele>
        <time>2020-02-23T16:01:10Z</time>
      </trkpt>
      <trkpt lat="39.0148220" lon="1.4474340">
        <ele>124.1</ele>
        <time>2020-02-23T16:01:11Z</time>
      </trkpt>
      <trkpt lat="39.0147810" lon="1.4473760">
        <ele>124.1</ele>
        <time>2020-02-23T16:01:12Z</time>
      </trkpt>
      <trkpt lat="39.0147380" lon="1.4473150">
        <ele>124.0</ele>
        <time>2020-02-23T16:01:13Z</time>
      </trkpt>
      <trkpt lat="39.0146940" lon="1.4472610">
        <ele>124.0</ele>
        <time>2020-02-23T16:01:14Z</time>
      </trkpt>
      <trkpt lat="39.0146510" lon="1.4472110">
        <ele>123.9</ele>
        <time>2020-02-23T16:01:15Z</time>
      </trkpt>
      <trkpt lat="39.0146060" lon="1.4471660">
        <ele>123.9</ele>
        <time>2020-02-23T16:01:16Z</time>
      </trkpt>
      <trkpt lat="39.0145610" lon="1.4471230">
        <ele>123.8</ele>
        <time>2020-02-23T16:01:17Z</time>
      </trkpt>
      <trkpt lat="39.0145190" lon="1.4470720">
        <ele>123.8</ele>
        <time>2020-02-23T16:01:18Z</time>
      </trkpt>
      <trkpt lat="39.0144780" lon="1.4470300">
        <ele>123.8</ele>
        <time>2020-02-23T16:01:19Z</time>
      </trkpt>
      <trkpt lat="39.0144350" lon="1.4469970">
        <ele>123.8</ele>
        <time>2020-02-23T16:01:20Z</time>
      </trkpt>
      <trkpt lat="39.0143950" lon="1.4469630">
        <ele>123.8</ele>
        <time>2020-02-23T16:01:21Z</time>
      </trkpt>
      <trkpt lat="39.0143570" lon="1.4469310">
        <ele>123.8</ele>
        <time>2020-02-23T16:01:22Z</time>
      </trkpt>
      <trkpt lat="39.0143200" lon="1.4468970">
        <ele>123.8</ele>
        <time>2020-02-23T16:01:23Z</time>
      </trkpt>
      <trkpt lat="39.0142810" lon="1.4468700">
        <ele>123.8</ele>
        <time>2020-02-23T16:01:24Z</time>
      </trkpt>
      <trkpt lat="39.0142450" lon="1.4468400">
        <ele>123.8</ele>
        <time>2020-02-23T16:01:25Z</time>
      </trkpt>
      <trkpt lat="39.0142080" lon="1.4468120">
        <ele>123.8</ele>
        <time>2020-02-23T16:01:26Z</time>
      </trkpt>
      <trkpt lat="39.0141710" lon="1.4467810">
        <ele>123.6</ele>
        <time>2020-02-23T16:01:27Z</time>
      </trkpt>
      <trkpt lat="39.0141360" lon="1.4467520">
        <ele>123.5</ele>
        <time>2020-02-23T16:01:28Z</time>
      </trkpt>
      <trkpt lat="39.0141030" lon="1.4467160">
        <ele>123.4</ele>
        <time>2020-02-23T16:01:29Z</time>
      </trkpt>
      <trkpt lat="39.0140690" lon="1.4466810">
        <ele>123.4</ele>
        <time>2020-02-23T16:01:30Z</time>
      </trkpt>
      <trkpt lat="39.0140300" lon="1.4466540">
        <ele>123.3</ele>
        <time>2020-02-23T16:01:31Z</time>
      </trkpt>
      <trkpt lat="39.0139940" lon="1.4466210">
        <ele>123.2</ele>
        <time>2020-02-23T16:01:32Z</time>
      </trkpt>
      <trkpt lat="39.0139530" lon="1.4465900">
        <ele>123.1</ele>
        <time>2020-02-23T16:01:33Z</time>
      </trkpt>
      <trkpt lat="39.0139120" lon="1.4465640">
        <ele>123.0</ele>
        <time>2020-02-23T16:01:34Z</time>
      </trkpt>
      <trkpt lat="39.0138740" lon="1.4465280">
        <ele>123.0</ele>
        <time>2020-02-23T16:01:35Z</time>
      </trkpt>
      <trkpt lat="39.0138400" lon="1.4464860">
        <ele>122.9</ele>
        <time>2020-02-23T16:01:36Z</time>
      </trkpt>
      <trkpt lat="39.0138030" lon="1.4464480">
        <ele>122.8</ele>
        <time>2020-02-23T16:01:37Z</time>
      </trkpt>
      <trkpt lat="39.0137640" lon="1.4464160">
        <ele>122.8</ele>
        <time>2020-02-23T16:01:38Z</time>
      </trkpt>
      <trkpt lat="39.0137260" lon="1.4463800">
        <ele>122.7</ele>
        <time>2020-02-23T16:01:39Z</time>
      </trkpt>
      <trkpt lat="39.0136880" lon="1.4463470">
        <ele>122.6</ele>
        <time>2020-02-23T16:01:40Z</time>
      </trkpt>
      <trkpt lat="39.0136460" lon="1.4463100">
        <ele>122.5</ele>
        <time>2020-02-23T16:01:41Z</time>
      </trkpt>
      <trkpt lat="39.0136040" lon="1.4462770">
        <ele>122.5</ele>
        <time>2020-02-23T16:01:42Z</time>
      </trkpt>
      <trkpt lat="39.0135640" lon="1.4462400">
        <ele>122.4</ele>
        <time>2020-02-23T16:01:43Z</time>
      </trkpt>
      <trkpt lat="39.0135250" lon="1.4462090">
        <ele>122.3</ele>
        <time>2020-02-23T16:01:44Z</time>
      </trkpt>
      <trkpt lat="39.0134880" lon="1.4461750">
        <ele>122.3</ele>
        <time>2020-02-23T16:01:45Z</time>
      </trkpt>
      <trkpt lat="39.0134430" lon="1.4461340">
        <ele>122.2</ele>
        <time>2020-02-23T16:01:46Z</time>
      </trkpt>
      <trkpt lat="39.0133990" lon="1.4460920">
        <ele>122.1</ele>
        <time>2020-02-23T16:01:47Z</time>
      </trkpt>
      <trkpt lat="39.0133560" lon="1.4460550">
        <ele>122.0</ele>
        <time>2020-02-23T16:01:48Z</time>
      </trkpt>
      <trkpt lat="39.0133090" lon="1.4460160">
        <ele>121.9</ele>
        <time>2020-02-23T16:01:49Z</time>
      </trkpt>
      <trkpt lat="39.0132630" lon="1.4459760">
        <ele>121.9</ele>
        <time>2020-02-23T16:01:50Z</time>
      </trkpt>
      <trkpt lat="39.0132250" lon="1.4459440">
        <ele>121.9</ele>
        <time>2020-02-23T16:01:51Z</time>
      </trkpt>
      <trkpt lat="39.0131880" lon="1.4459140">
        <ele>121.9</ele>
        <time>2020-02-23T16:01:52Z</time>
      </trkpt>
      <trkpt lat="39.0131420" lon="1.4458780">
        <ele>122.0</ele>
        <time>2020-02-23T16:01:53Z</time>
      </trkpt>
      <trkpt lat="39.0130990" lon="1.4458390">
        <ele>122.0</ele>
        <time>2020-02-23T16:01:54Z</time>
      </trkpt>
      <trkpt lat="39.0130600" lon="1.4458080">
        <ele>122.0</ele>
        <time>2020-02-23T16:01:55Z</time>
      </trkpt>
      <trkpt lat="39.0130240" lon="1.4457790">
        <ele>122.1</ele>
        <time>2020-02-23T16:01:56Z</time>
      </trkpt>
      <trkpt lat="39.0129930" lon="1.4457510">
        <ele>122.1</ele>
        <time>2020-02-23T16:01:57Z</time>
      </trkpt>
      <trkpt lat="39.0129540" lon="1.4457190">
        <ele>122.2</ele>
        <time>2020-02-23T16:01:58Z</time>
      </trkpt>
      <trkpt lat="39.0129170" lon="1.4456860">
        <ele>122.3</ele>
        <time>2020-02-23T16:01:59Z</time>
      </trkpt>
      <trkpt lat="39.0128710" lon="1.4456400">
        <ele>122.4</ele>
        <time>2020-02-23T16:02:00Z</time>
      </trkpt>
      <trkpt lat="39.0128410" lon="1.4456180">
        <ele>122.5</ele>
        <time>2020-02-23T16:02:01Z</time>
      </trkpt>
      <trkpt lat="39.0127980" lon="1.4455800">
        <ele>122.6</ele>
        <time>2020-02-23T16:02:02Z</time>
      </trkpt>
      <trkpt lat="39.0127670" lon="1.4455530">
        <ele>122.6</ele>
        <time>2020-02-23T16:02:03Z</time>
      </trkpt>
      <trkpt lat="39.0127230" lon="1.4455140">
        <ele>122.7</ele>
        <time>2020-02-23T16:02:04Z</time>
      </trkpt>
      <trkpt lat="39.0126740" lon="1.4454700">
        <ele>122.8</ele>
        <time>2020-02-23T16:02:05Z</time>
      </trkpt>
      <trkpt lat="39.0126310" lon="1.4454330">
        <ele>122.8</ele>
        <time>2020-02-23T16:02:06Z</time>
      </trkpt>
      <trkpt lat="39.0125880" lon="1.4453930">
        <ele>122.9</ele>
        <time>2020-02-23T16:02:07Z</time>
      </trkpt>
      <trkpt lat="39.0125500" lon="1.4453640">
        <ele>122.9</ele>
        <time>2020-02-23T16:02:08Z</time>
      </trkpt>
      <trkpt lat="39.0125070" lon="1.4453220">
        <ele>122.9</ele>
        <time>2020-02-23T16:02:09Z</time>
      </trkpt>
      <trkpt lat="39.0124550" lon="1.4452710">
        <ele>122.9</ele>
        <time>2020-02-23T16:02:10Z</time>
      </trkpt>
      <trkpt lat="39.0124280" lon="1.4452510">
        <ele>122.9</ele>
        <time>2020-02-23T16:02:11Z</time>
      </trkpt>
      <trkpt lat="39.0123820" lon="1.4452100">
        <ele>122.9</ele>
        <time>2020-02-23T16:02:12Z</time>
      </trkpt>
      <trkpt lat="39.0123400" lon="1.4451690">
        <ele>122.9</ele>
        <time>2020-02-23T16:02:13Z</time>
      </trkpt>
      <trkpt lat="39.0122970" lon="1.4451260">
        <ele>122.9</ele>
        <time>2020-02-23T16:02:14Z</time>
      </trkpt>
      <trkpt lat="39.0122610" lon="1.4450920">
        <ele>122.9</ele>
        <time>2020-02-23T16:02:15Z</time>
      </trkpt>
      <trkpt lat="39.0122240" lon="1.4450560">
        <ele>122.9</ele>
        <time>2020-02-23T16:02:16Z</time>
      </trkpt>
      <trkpt lat="39.0121890" lon="1.4450270">
        <ele>122.9</ele>
        <time>2020-02-23T16:02:17Z</time>
      </trkpt>
      <trkpt lat="39.0121500" lon="1.4449880">
        <ele>122.9</ele>
        <time>2020-02-23T16:02:18Z</time>
      </trkpt>
      <trkpt lat="39.0121080" lon="1.4449540">
        <ele>122.9</ele>
        <time>2020-02-23T16:02:19Z</time>
      </trkpt>
      <trkpt lat="39.0120730" lon="1.4449220">
        <ele>122.9</ele>
        <time>2020-02-23T16:02:20Z</time>
      </trkpt>
      <trkpt lat="39.0120380" lon="1.4448860">
        <ele>122.9</ele>
        <time>2020-02-23T16:02:21Z</time>
      </trkpt>
      <trkpt lat="39.0120050" lon="1.4448690">
        <ele>122.9</ele>
        <time>2020-02-23T16:02:22Z</time>
      </trkpt>
      <trkpt lat="39.0119650" lon="1.4448330">
        <ele>122.9</ele>
        <time>2020-02-23T16:02:23Z</time>
      </trkpt>
      <trkpt lat="39.0119260" lon="1.4447920">
        <ele>122.9</ele>
        <time>2020-02-23T16:02:24Z</time>
      </trkpt>
      <trkpt lat="39.0118920" lon="1.4447580">
        <ele>123.0</ele>
        <time>2020-02-23T16:02:25Z</time>
      </trkpt>
      <trkpt lat="39.0118500" lon="1.4447270">
        <ele>123.0</ele>
        <time>2020-02-23T16:02:26Z</time>
      </trkpt>
      <trkpt lat="39.0118030" lon="1.4446840">
        <ele>123.0</ele>
        <time>2020-02-23T16:02:27Z</time>
      </trkpt>
      <trkpt lat="39.0117550" lon="1.4446420">
        <ele>123.0</ele>
        <time>2020-02-23T16:02:28Z</time>
      </trkpt>
      <trkpt lat="39.0117110" lon="1.4446000">
        <ele>123.0</ele>
        <time>2020-02-23T16:02:29Z</time>
      </trkpt>
      <trkpt lat="39.0116840" lon="1.4445840">
        <ele>123.0</ele>
        <time>2020-02-23T16:02:30Z</time>
      </trkpt>
      <trkpt lat="39.0116400" lon="1.4445460">
        <ele>123.0</ele>
        <time>2020-02-23T16:02:31Z</time>
      </trkpt>
      <trkpt lat="39.0115860" lon="1.4444950">
        <ele>123.0</ele>
        <time>2020-02-23T16:02:32Z</time>
      </trkpt>
      <trkpt lat="39.0115440" lon="1.4444560">
        <ele>122.9</ele>
        <time>2020-02-23T16:02:33Z</time>
      </trkpt>
      <trkpt lat="39.0114990" lon="1.4444210">
        <ele>122.9</ele>
        <time>2020-02-23T16:02:34Z</time>
      </trkpt>
      <trkpt lat="39.0114600" lon="1.4443980">
        <ele>122.9</ele>
        <time>2020-02-23T16:02:35Z</time>
      </trkpt>
      <trkpt lat="39.0114150" lon="1.4443640">
        <ele>122.9</ele>
        <time>2020-02-23T16:02:36Z</time>
      </trkpt>
      <trkpt lat="39.0113770" lon="1.4443410">
        <ele>122.9</ele>
        <time>2020-02-23T16:02:37Z</time>
      </trkpt>
      <trkpt lat="39.0113370" lon="1.4443190">
        <ele>122.8</ele>
        <time>2020-02-23T16:02:38Z</time>
      </trkpt>
      <trkpt lat="39.0112930" lon="1.4443000">
        <ele>122.8</ele>
        <time>2020-02-23T16:02:39Z</time>
      </trkpt>
      <trkpt lat="39.0112290" lon="1.4442650">
        <ele>122.7</ele>
        <time>2020-02-23T16:02:40Z</time>
      </trkpt>
      <trkpt lat="39.0111840" lon="1.4442500">
        <ele>122.7</ele>
        <time>2020-02-23T16:02:41Z</time>
      </trkpt>
      <trkpt lat="39.0111370" lon="1.4442260">
        <ele>122.6</ele>
        <time>2020-02-23T16:02:42Z</time>
      </trkpt>
      <trkpt lat="39.0110810" lon="1.4441900">
        <ele>122.5</ele>
        <time>2020-02-23T16:02:43Z</time>
      </trkpt>
      <trkpt lat="39.0110290" lon="1.4441610">
        <ele>122.4</ele>
        <time>2020-02-23T16:02:44Z</time>
      </trkpt>
      <trkpt lat="39.0109810" lon="1.4441310">
        <ele>122.4</ele>
        <time>2020-02-23T16:02:45Z</time>
      </trkpt>
      <trkpt lat="39.0109390" lon="1.4441140">
        <ele>122.3</ele>
        <time>2020-02-23T16:02:46Z</time>
      </trkpt>
      <trkpt lat="39.0108900" lon="1.4440880">
        <ele>122.2</ele>
        <time>2020-02-23T16:02:47Z</time>
      </trkpt>
      <trkpt lat="39.0108390" lon="1.4440590">
        <ele>122.1</ele>
        <time>2020-02-23T16:02:48Z</time>
      </trkpt>
      <trkpt lat="39.0107880" lon="1.4440290">
        <ele>122.1</ele>
        <time>2020-02-23T16:02:49Z</time>
      </trkpt>
      <trkpt lat="39.0107240" lon="1.4439890">
        <ele>122.0</ele>
        <time>2020-02-23T16:02:50Z</time>
      </trkpt>
      <trkpt lat="39.0106690" lon="1.4439620">
        <ele>121.9</ele>
        <time>2020-02-23T16:02:51Z</time>
      </trkpt>
      <trkpt lat="39.0106190" lon="1.4439400">
        <ele>121.8</ele>
        <time>2020-02-23T16:02:52Z</time>
      </trkpt>
      <trkpt lat="39.0105620" lon="1.4439150">
        <ele>121.7</ele>
        <time>2020-02-23T16:02:53Z</time>
      </trkpt>
      <trkpt lat="39.0105110" lon="1.4438930">
        <ele>121.7</ele>
        <time>2020-02-23T16:02:54Z</time>
      </trkpt>
      <trkpt lat="39.0104700" lon="1.4438750">
        <ele>121.6</ele>
        <time>2020-02-23T16:02:55Z</time>
      </trkpt>
      <trkpt lat="39.0104300" lon="1.4438540">
        <ele>121.6</ele>
        <time>2020-02-23T16:02:56Z</time>
      </trkpt>
      <trkpt lat="39.0103730" lon="1.4438230">
        <ele>121.5</ele>
        <time>2020-02-23T16:02:57Z</time>
      </trkpt>
      <trkpt lat="39.0102990" lon="1.4437850">
        <ele>121.4</ele>
        <time>2020-02-23T16:02:58Z</time>
      </trkpt>
      <trkpt lat="39.0102600" lon="1.4437650">
        <ele>121.3</ele>
        <time>2020-02-23T16:02:59Z</time>
      </trkpt>
      <trkpt lat="39.0102270" lon="1.4437410">
        <ele>121.3</ele>
        <time>2020-02-23T16:03:00Z</time>
      </trkpt>
      <trkpt lat="39.0101880" lon="1.4437200">
        <ele>121.3</ele>
        <time>2020-02-23T16:03:01Z</time>
      </trkpt>
      <trkpt lat="39.0101350" lon="1.4436990">
        <ele>121.2</ele>
        <time>2020-02-23T16:03:02Z</time>
      </trkpt>
      <trkpt lat="39.0101000" lon="1.4436930">
        <ele>121.2</ele>
        <time>2020-02-23T16:03:03Z</time>
      </trkpt>
      <trkpt lat="39.0100550" lon="1.4436840">
        <ele>121.2</ele>
        <time>2020-02-23T16:03:04Z</time>
      </trkpt>
      <trkpt lat="39.0100120" lon="1.4436730">
        <ele>121.2</ele>
        <time>2020-02-23T16:03:05Z</time>
      </trkpt>
      <trkpt lat="39.0099700" lon="1.4436580">
        <ele>121.1</ele>
        <time>2020-02-23T16:03:06Z</time>
      </trkpt>
      <trkpt lat="39.0099180" lon="1.4436480">
        <ele>121.1</ele>
        <time>2020-02-23T16:03:07Z</time>
      </trkpt>
      <trkpt lat="39.0098610" lon="1.4436310">
        <ele>121.1</ele>
        <time>2020-02-23T16:03:08Z</time>
      </trkpt>
      <trkpt lat="39.0098120" lon="1.4436170">
        <ele>121.0</ele>
        <time>2020-02-23T16:03:09Z</time>
      </trkpt>
      <trkpt lat="39.0097670" lon="1.4436040">
        <ele>120.9</ele>
        <time>2020-02-23T16:03:10Z</time>
      </trkpt>
      <trkpt lat="39.0097170" lon="1.4435880">
        <ele>120.9</ele>
        <time>2020-02-23T16:03:11Z</time>
      </trkpt>
      <trkpt lat="39.0096750" lon="1.4435600">
        <ele>120.8</ele>
        <time>2020-02-23T16:03:12Z</time>
      </trkpt>
      <trkpt lat="39.0096340" lon="1.4435510">
        <ele>120.7</ele>
        <time>2020-02-23T16:03:13Z</time>
      </trkpt>
      <trkpt lat="39.0095960" lon="1.4435460">
        <ele>120.6</ele>
        <time>2020-02-23T16:03:14Z</time>
      </trkpt>
      <trkpt lat="39.0095420" lon="1.4435390">
        <ele>120.5</ele>
        <time>2020-02-23T16:03:15Z</time>
      </trkpt>
      <trkpt lat="39.0094880" lon="1.4435270">
        <ele>120.4</ele>
        <time>2020-02-23T16:03:16Z</time>
      </trkpt>
      <trkpt lat="39.0094190" lon="1.4435170">
        <ele>120.4</ele>
        <time>2020-02-23T16:03:17Z</time>
      </trkpt>
      <trkpt lat="39.0093630" lon="1.4435090">
        <ele>120.3</ele>
        <time>2020-02-23T16:03:18Z</time>
      </trkpt>
      <trkpt lat="39.0092970" lon="1.4434910">
        <ele>120.2</ele>
        <time>2020-02-23T16:03:19Z</time>
      </trkpt>
      <trkpt lat="39.0092640" lon="1.4434680">
        <ele>120.1</ele>
        <time>2020-02-23T16:03:20Z</time>
      </trkpt>
      <trkpt lat="39.0092160" lon="1.4434510">
        <ele>120.1</ele>
        <time>2020-02-23T16:03:21Z</time>
      </trkpt>
      <trkpt lat="39.0091660" lon="1.4434410">
        <ele>120.0</ele>
        <time>2020-02-23T16:03:22Z</time>
      </trkpt>
      <trkpt lat="39.0091110" lon="1.4434300">
        <ele>120.0</ele>
        <time>2020-02-23T16:03:23Z</time>
      </trkpt>
      <trkpt lat="39.0090440" lon="1.4434240">
        <ele>119.9</ele>
        <time>2020-02-23T16:03:24Z</time>
      </trkpt>
      <trkpt lat="39.0089690" lon="1.4434150">
        <ele>119.8</ele>
        <time>2020-02-23T16:03:25Z</time>
      </trkpt>
      <trkpt lat="39.0089240" lon="1.4434130">
        <ele>119.8</ele>
        <time>2020-02-23T16:03:26Z</time>
      </trkpt>
      <trkpt lat="39.0088820" lon="1.4434070">
        <ele>119.7</ele>
        <time>2020-02-23T16:03:27Z</time>
      </trkpt>
      <trkpt lat="39.0088200" lon="1.4433940">
        <ele>119.7</ele>
        <time>2020-02-23T16:03:28Z</time>
      </trkpt>
      <trkpt lat="39.0087600" lon="1.4434050">
        <ele>119.6</ele>
        <time>2020-02-23T16:03:29Z</time>
      </trkpt>
      <trkpt lat="39.0087050" lon="1.4434050">
        <ele>119.5</ele>
        <time>2020-02-23T16:03:30Z</time>
      </trkpt>
      <trkpt lat="39.0086230" lon="1.4434130">
        <ele>119.5</ele>
        <time>2020-02-23T16:03:31Z</time>
      </trkpt>
      <trkpt lat="39.0085710" lon="1.4434100">
        <ele>119.4</ele>
        <time>2020-02-23T16:03:32Z</time>
      </trkpt>
      <trkpt lat="39.0085170" lon="1.4434190">
        <ele>119.3</ele>
        <time>2020-02-23T16:03:33Z</time>
      </trkpt>
      <trkpt lat="39.0084540" lon="1.4434300">
        <ele>119.3</ele>
        <time>2020-02-23T16:03:34Z</time>
      </trkpt>
      <trkpt lat="39.0083950" lon="1.4434440">
        <ele>119.2</ele>
        <time>2020-02-23T16:03:35Z</time>
      </trkpt>
      <trkpt lat="39.0083390" lon="1.4434650">
        <ele>118.9</ele>
        <time>2020-02-23T16:03:36Z</time>
      </trkpt>
      <trkpt lat="39.0082840" lon="1.4434940">
        <ele>118.6</ele>
        <time>2020-02-23T16:03:37Z</time>
      </trkpt>
      <trkpt lat="39.0082290" lon="1.4435230">
        <ele>118.4</ele>
        <time>2020-02-23T16:03:38Z</time>
      </trkpt>
      <trkpt lat="39.0081830" lon="1.4435600">
        <ele>118.2</ele>
        <time>2020-02-23T16:03:39Z</time>
      </trkpt>
      <trkpt lat="39.0081330" lon="1.4435830">
        <ele>118.0</ele>
        <time>2020-02-23T16:03:40Z</time>
      </trkpt>
      <trkpt lat="39.0080870" lon="1.4435980">
        <ele>117.9</ele>
        <time>2020-02-23T16:03:41Z</time>
      </trkpt>
      <trkpt lat="39.0080320" lon="1.4436170">
        <ele>117.7</ele>
        <time>2020-02-23T16:03:42Z</time>
      </trkpt>
      <trkpt lat="39.0079780" lon="1.4436350">
        <ele>117.5</ele>
        <time>2020-02-23T16:03:43Z</time>
      </trkpt>
      <trkpt lat="39.0079190" lon="1.4436520">
        <ele>117.3</ele>
        <time>2020-02-23T16:03:44Z</time>
      </trkpt>
      <trkpt lat="39.0078610" lon="1.4436690">
        <ele>117.1</ele>
        <time>2020-02-23T16:03:45Z</time>
      </trkpt>
      <trkpt lat="39.0078010" lon="1.4436830">
        <ele>116.9</ele>
        <time>2020-02-23T16:03:46Z</time>
      </trkpt>
      <trkpt lat="39.0077420" lon="1.4436970">
        <ele>116.7</ele>
        <time>2020-02-23T16:03:47Z</time>
      </trkpt>
      <trkpt lat="39.0076820" lon="1.4437170">
        <ele>116.5</ele>
        <time>2020-02-23T16:03:48Z</time>
      </trkpt>
      <trkpt lat="39.0076190" lon="1.4437340">
        <ele>116.4</ele>
        <time>2020-02-23T16:03:49Z</time>
      </trkpt>
      <trkpt lat="39.0075530" lon="1.4437500">
        <ele>116.2</ele>
        <time>2020-02-23T16:03:50Z</time>
      </trkpt>
      <trkpt lat="39.0074900" lon="1.4437610">
        <ele>115.9</ele>
        <time>2020-02-23T16:03:51Z</time>
      </trkpt>
      <trkpt lat="39.0074260" lon="1.4437730">
        <ele>115.7</ele>
        <time>2020-02-23T16:03:52Z</time>
      </trkpt>
      <trkpt lat="39.0073610" lon="1.4437750">
        <ele>115.5</ele>
        <time>2020-02-23T16:03:53Z</time>
      </trkpt>
      <trkpt lat="39.0072930" lon="1.4437820">
        <ele>115.4</ele>
        <time>2020-02-23T16:03:54Z</time>
      </trkpt>
      <trkpt lat="39.0072320" lon="1.4437810">
        <ele>115.2</ele>
        <time>2020-02-23T16:03:55Z</time>
      </trkpt>
      <trkpt lat="39.0071760" lon="1.4437750">
        <ele>115.1</ele>
        <time>2020-02-23T16:03:56Z</time>
      </trkpt>
      <trkpt lat="39.0071230" lon="1.4437710">
        <ele>115.0</ele>
        <time>2020-02-23T16:03:57Z</time>
      </trkpt>
      <trkpt lat="39.0070610" lon="1.4437700">
        <ele>114.8</ele>
        <time>2020-02-23T16:03:58Z</time>
      </trkpt>
      <trkpt lat="39.0069960" lon="1.4437710">
        <ele>114.6</ele>
        <time>2020-02-23T16:03:59Z</time>
      </trkpt>
      <trkpt lat="39.0069420" lon="1.4437680">
        <ele>114.4</ele>
        <time>2020-02-23T16:04:00Z</time>
      </trkpt>
      <trkpt lat="39.0068900" lon="1.4437790">
        <ele>114.2</ele>
        <time>2020-02-23T16:04:01Z</time>
      </trkpt>
      <trkpt lat="39.0068390" lon="1.4437850">
        <ele>114.0</ele>
        <time>2020-02-23T16:04:02Z</time>
      </trkpt>
      <trkpt lat="39.0067820" lon="1.4437910">
        <ele>113.8</ele>
        <time>2020-02-23T16:04:03Z</time>
      </trkpt>
      <trkpt lat="39.0067180" lon="1.4437870">
        <ele>113.6</ele>
        <time>2020-02-23T16:04:04Z</time>
      </trkpt>
      <trkpt lat="39.0066600" lon="1.4437850">
        <ele>113.4</ele>
        <time>2020-02-23T16:04:05Z</time>
      </trkpt>
      <trkpt lat="39.0066040" lon="1.4437900">
        <ele>113.2</ele>
        <time>2020-02-23T16:04:06Z</time>
      </trkpt>
      <trkpt lat="39.0065510" lon="1.4437820">
        <ele>112.9</ele>
        <time>2020-02-23T16:04:07Z</time>
      </trkpt>
      <trkpt lat="39.0064950" lon="1.4437690">
        <ele>112.6</ele>
        <time>2020-02-23T16:04:08Z</time>
      </trkpt>
      <trkpt lat="39.0064340" lon="1.4437390">
        <ele>112.4</ele>
        <time>2020-02-23T16:04:09Z</time>
      </trkpt>
      <trkpt lat="39.0063780" lon="1.4436970">
        <ele>112.2</ele>
        <time>2020-02-23T16:04:10Z</time>
      </trkpt>
      <trkpt lat="39.0063240" lon="1.4436370">
        <ele>112.2</ele>
        <time>2020-02-23T16:04:11Z</time>
      </trkpt>
      <trkpt lat="39.0062770" lon="1.4435650">
        <ele>112.2</ele>
        <time>2020-02-23T16:04:12Z</time>
      </trkpt>
      <trkpt lat="39.0062360" lon="1.4434920">
        <ele>112.2</ele>
        <time>2020-02-23T16:04:13Z</time>
      </trkpt>
      <trkpt lat="39.0062010" lon="1.4434260">
        <ele>112.2</ele>
        <time>2020-02-23T16:04:14Z</time>
      </trkpt>
      <trkpt lat="39.0061650" lon="1.4433560">
        <ele>112.3</ele>
        <time>2020-02-23T16:04:15Z</time>
      </trkpt>
      <trkpt lat="39.0061310" lon="1.4432860">
        <ele>112.3</ele>
        <time>2020-02-23T16:04:16Z</time>
      </trkpt>
      <trkpt lat="39.0060950" lon="1.4432180">
        <ele>112.4</ele>
        <time>2020-02-23T16:04:17Z</time>
      </trkpt>
      <trkpt lat="39.0060600" lon="1.4431500">
        <ele>112.6</ele>
        <time>2020-02-23T16:04:18Z</time>
      </trkpt>
      <trkpt lat="39.0060240" lon="1.4430880">
        <ele>112.7</ele>
        <time>2020-02-23T16:04:19Z</time>
      </trkpt>
      <trkpt lat="39.0059940" lon="1.4430310">
        <ele>112.8</ele>
        <time>2020-02-23T16:04:20Z</time>
      </trkpt>
      <trkpt lat="39.0059650" lon="1.4429710">
        <ele>112.8</ele>
        <time>2020-02-23T16:04:21Z</time>
      </trkpt>
      <trkpt lat="39.0059380" lon="1.4429130">
        <ele>112.9</ele>
        <time>2020-02-23T16:04:22Z</time>
      </trkpt>
      <trkpt lat="39.0059050" lon="1.4428590">
        <ele>113.0</ele>
        <time>2020-02-23T16:04:23Z</time>
      </trkpt>
      <trkpt lat="39.0058710" lon="1.4428000">
        <ele>113.0</ele>
        <time>2020-02-23T16:04:24Z</time>
      </trkpt>
      <trkpt lat="39.0058390" lon="1.4427410">
        <ele>113.1</ele>
        <time>2020-02-23T16:04:25Z</time>
      </trkpt>
      <trkpt lat="39.0058050" lon="1.4426870">
        <ele>113.2</ele>
        <time>2020-02-23T16:04:26Z</time>
      </trkpt>
      <trkpt lat="39.0057830" lon="1.4426350">
        <ele>113.2</ele>
        <time>2020-02-23T16:04:27Z</time>
      </trkpt>
      <trkpt lat="39.0057550" lon="1.4425990">
        <ele>113.3</ele>
        <time>2020-02-23T16:04:28Z</time>
      </trkpt>
      <trkpt lat="39.0057260" lon="1.4425540">
        <ele>113.4</ele>
        <time>2020-02-23T16:04:29Z</time>
      </trkpt>
      <trkpt lat="39.0057040" lon="1.4425120">
        <ele>113.5</ele>
        <time>2020-02-23T16:04:30Z</time>
      </trkpt>
      <trkpt lat="39.0056810" lon="1.4424730">
        <ele>113.5</ele>
        <time>2020-02-23T16:04:31Z</time>
      </trkpt>
      <trkpt lat="39.0056560" lon="1.4424400">
        <ele>113.5</ele>
        <time>2020-02-23T16:04:32Z</time>
      </trkpt>
      <trkpt lat="39.0056350" lon="1.4424050">
        <ele>113.6</ele>
        <time>2020-02-23T16:04:33Z</time>
      </trkpt>
      <trkpt lat="39.0056020" lon="1.4423660">
        <ele>113.6</ele>
        <time>2020-02-23T16:04:34Z</time>
      </trkpt>
      <trkpt lat="39.0055690" lon="1.4423370">
        <ele>113.7</ele>
        <time>2020-02-23T16:04:35Z</time>
      </trkpt>
      <trkpt lat="39.0055260" lon="1.4423080">
        <ele>113.7</ele>
        <time>2020-02-23T16:04:36Z</time>
      </trkpt>
      <trkpt lat="39.0054850" lon="1.4422850">
        <ele>113.8</ele>
        <time>2020-02-23T16:04:37Z</time>
      </trkpt>
      <trkpt lat="39.0054450" lon="1.4422600">
        <ele>113.8</ele>
        <time>2020-02-23T16:04:38Z</time>
      </trkpt>
      <trkpt lat="39.0053960" lon="1.4422280">
        <ele>113.8</ele>
        <time>2020-02-23T16:04:39Z</time>
      </trkpt>
      <trkpt lat="39.0053460" lon="1.4422010">
        <ele>113.8</ele>
        <time>2020-02-23T16:04:40Z</time>
      </trkpt>
      <trkpt lat="39.0053060" lon="1.4421830">
        <ele>113.9</ele>
        <time>2020-02-23T16:04:41Z</time>
      </trkpt>
      <trkpt lat="39.0052840" lon="1.4421880">
        <ele>113.9</ele>
        <time>2020-02-23T16:04:42Z</time>
      </trkpt>
      <trkpt lat="39.0052820" lon="1.4422060">
        <ele>113.9</ele>
        <time>2020-02-23T16:04:43Z</time>
      </trkpt>
      <trkpt lat="39.0053070" lon="1.4422320">
        <ele>113.9</ele>
        <time>2020-02-23T16:04:44Z</time>
      </trkpt>
      <trkpt lat="39.0053330" lon="1.4422200">
        <ele>113.9</ele>
        <time>2020-02-23T16:04:45Z</time>
      </trkpt>
      <trkpt lat="39.0053850" lon="1.4422330">
        <ele>113.9</ele>
        <time>2020-02-23T16:04:46Z</time>
      </trkpt>
      <trkpt lat="39.0054140" lon="1.4422430">
        <ele>113.9</ele>
        <time>2020-02-23T16:04:47Z</time>
      </trkpt>
      <trkpt lat="39.0054210" lon="1.4422500">
        <ele>113.9</ele>
        <time>2020-02-23T16:04:48Z</time>
      </trkpt>
      <trkpt lat="39.0054300" lon="1.4422540">
        <ele>113.9</ele>
        <time>2020-02-23T16:04:49Z</time>
      </trkpt>
      <trkpt lat="39.0054150" lon="1.4422350">
        <ele>114.0</ele>
        <time>2020-02-23T16:04:50Z</time>
      </trkpt>
      <trkpt lat="39.0054250" lon="1.4422400">
        <ele>114.0</ele>
        <time>2020-02-23T16:04:51Z</time>
      </trkpt>
      <trkpt lat="39.0054250" lon="1.4422450">
        <ele>114.0</ele>
        <time>2020-02-23T16:04:52Z</time>
      </trkpt>
      <trkpt lat="39.0054330" lon="1.4422490">
        <ele>114.0</ele>
        <time>2020-02-23T16:04:53Z</time>
      </trkpt>
      <trkpt lat="39.0054340" lon="1.4422450">
        <ele>114.0</ele>
        <time>2020-02-23T16:04:54Z</time>
      </trkpt>
      <trkpt lat="39.0054470" lon="1.4422570">
        <ele>114.0</ele>
        <time>2020-02-23T16:04:55Z</time>
      </trkpt>
      <trkpt lat="39.0054440" lon="1.4422590">
        <ele>114.0</ele>
        <time>2020-02-23T16:04:56Z</time>
      </trkpt>
      <trkpt lat="39.0054420" lon="1.4422530">
        <ele>114.0</ele>
        <time>2020-02-23T16:04:57Z</time>
      </trkpt>
      <trkpt lat="39.0054410" lon="1.4422510">
        <ele>114.0</ele>
        <time>2020-02-23T16:04:58Z</time>
      </trkpt>
      <trkpt lat="39.0054520" lon="1.4422950">
        <ele>114.0</ele>
        <time>2020-02-23T16:05:07Z</time>
      </trkpt>
      <trkpt lat="39.0054660" lon="1.4423110">
        <ele>114.0</ele>
        <time>2020-02-23T16:05:08Z</time>
      </trkpt>
      <trkpt lat="39.0054900" lon="1.4423380">
        <ele>114.0</ele>
        <time>2020-02-23T16:05:09Z</time>
      </trkpt>
      <trkpt lat="39.0054990" lon="1.4423470">
        <ele>114.0</ele>
        <time>2020-02-23T16:05:10Z</time>
      </trkpt>
      <trkpt lat="39.0055310" lon="1.4423640">
        <ele>114.0</ele>
        <time>2020-02-23T16:05:11Z</time>
      </trkpt>
      <trkpt lat="39.0055430" lon="1.4423720">
        <ele>114.0</ele>
        <time>2020-02-23T16:05:12Z</time>
      </trkpt>
      <trkpt lat="39.0055770" lon="1.4423930">
        <ele>114.0</ele>
        <time>2020-02-23T16:05:13Z</time>
      </trkpt>
      <trkpt lat="39.0056070" lon="1.4424120">
        <ele>114.0</ele>
        <time>2020-02-23T16:05:14Z</time>
      </trkpt>
      <trkpt lat="39.0056150" lon="1.4424180">
        <ele>114.1</ele>
        <time>2020-02-23T16:05:15Z</time>
      </trkpt>
      <trkpt lat="39.0056370" lon="1.4424390">
        <ele>114.1</ele>
        <time>2020-02-23T16:05:16Z</time>
      </trkpt>
      <trkpt lat="39.0056460" lon="1.4424490">
        <ele>114.1</ele>
        <time>2020-02-23T16:05:17Z</time>
      </trkpt>
      <trkpt lat="39.0056620" lon="1.4424590">
        <ele>114.1</ele>
        <time>2020-02-23T16:05:18Z</time>
      </trkpt>
      <trkpt lat="39.0056700" lon="1.4424660">
        <ele>114.1</ele>
        <time>2020-02-23T16:05:19Z</time>
      </trkpt>
      <trkpt lat="39.0056760" lon="1.4424800">
        <ele>114.1</ele>
        <time>2020-02-23T16:05:20Z</time>
      </trkpt>
      <trkpt lat="39.0056790" lon="1.4424790">
        <ele>114.1</ele>
        <time>2020-02-23T16:05:21Z</time>
      </trkpt>
      <trkpt lat="39.0056790" lon="1.4424680">
        <ele>114.1</ele>
        <time>2020-02-23T16:05:22Z</time>
      </trkpt>
      <trkpt lat="39.0056750" lon="1.4424620">
        <ele>114.1</ele>
        <time>2020-02-23T16:05:23Z</time>
      </trkpt>
      <trkpt lat="39.0056650" lon="1.4424470">
        <ele>114.1</ele>
        <time>2020-02-23T16:05:24Z</time>
      </trkpt>
      <trkpt lat="39.0056510" lon="1.4424280">
        <ele>114.1</ele>
        <time>2020-02-23T16:05:25Z</time>
      </trkpt>
      <trkpt lat="39.0056250" lon="1.4424060">
        <ele>114.1</ele>
        <time>2020-02-23T16:05:26Z</time>
      </trkpt>
      <trkpt lat="39.0056110" lon="1.4423960">
        <ele>114.1</ele>
        <time>2020-02-23T16:05:27Z</time>
      </trkpt>
      <trkpt lat="39.0055750" lon="1.4423760">
        <ele>114.2</ele>
        <time>2020-02-23T16:05:28Z</time>
      </trkpt>
      <trkpt lat="39.0055610" lon="1.4423680">
        <ele>114.2</ele>
        <time>2020-02-23T16:05:29Z</time>
      </trkpt>
      <trkpt lat="39.0055360" lon="1.4423460">
        <ele>114.2</ele>
        <time>2020-02-23T16:05:30Z</time>
      </trkpt>
      <trkpt lat="39.0055240" lon="1.4423380">
        <ele>114.2</ele>
        <time>2020-02-23T16:05:31Z</time>
      </trkpt>
      <trkpt lat="39.0054970" lon="1.4423220">
        <ele>114.2</ele>
        <time>2020-02-23T16:05:32Z</time>
      </trkpt>
      <trkpt lat="39.0054910" lon="1.4423160">
        <ele>114.2</ele>
        <time>2020-02-23T16:05:33Z</time>
      </trkpt>
      <trkpt lat="39.0054820" lon="1.4423010">
        <ele>114.3</ele>
        <time>2020-02-23T16:05:34Z</time>
      </trkpt>
      <trkpt lat="39.0054770" lon="1.4423000">
        <ele>114.3</ele>
        <time>2020-02-23T16:05:35Z</time>
      </trkpt>
      <trkpt lat="39.0054760" lon="1.4422970">
        <ele>114.3</ele>
        <time>2020-02-23T16:05:36Z</time>
      </trkpt>
      <trkpt lat="39.0054810" lon="1.4422950">
        <ele>114.3</ele>
        <time>2020-02-23T16:05:37Z</time>
      </trkpt>
      <trkpt lat="39.0054810" lon="1.4422900">
        <ele>114.3</ele>
        <time>2020-02-23T16:05:38Z</time>
      </trkpt>
      <trkpt lat="39.0054830" lon="1.4422860">
        <ele>114.3</ele>
        <time>2020-02-23T16:05:39Z</time>
      </trkpt>
      <trkpt lat="39.0054780" lon="1.4422790">
        <ele>114.3</ele>
        <time>2020-02-23T16:05:40Z</time>
      </trkpt>
      <trkpt lat="39.0054760" lon="1.4422730">
        <ele>114.3</ele>
        <time>2020-02-23T16:05:41Z</time>
      </trkpt>
      <trkpt lat="39.0054740" lon="1.4422680">
        <ele>114.3</ele>
        <time>2020-02-23T16:05:42Z</time>
      </trkpt>
      <trkpt lat="39.0054650" lon="1.4422580">
        <ele>114.3</ele>
        <time>2020-02-23T16:05:43Z</time>
      </trkpt>
      <trkpt lat="39.0054600" lon="1.4422590">
        <ele>114.3</ele>
        <time>2020-02-23T16:05:44Z</time>
      </trkpt>
      <trkpt lat="39.0054770" lon="1.4422740">
        <ele>114.3</ele>
        <time>2020-02-23T16:05:45Z</time>
      </trkpt>
      <trkpt lat="39.0054730" lon="1.4422690">
        <ele>114.3</ele>
        <time>2020-02-23T16:05:46Z</time>
      </trkpt>
      <trkpt lat="39.0054690" lon="1.4422660">
        <ele>114.3</ele>
        <time>2020-02-23T16:05:47Z</time>
      </trkpt>
      <trkpt lat="39.0054650" lon="1.4422630">
        <ele>114.3</ele>
        <time>2020-02-23T16:05:48Z</time>
      </trkpt>
      <trkpt lat="39.0054660" lon="1.4422600">
        <ele>114.3</ele>
        <time>2020-02-23T16:05:49Z</time>
      </trkpt>
      <trkpt lat="39.0054660" lon="1.4422600">
        <ele>114.3</ele>
        <time>2020-02-23T16:05:50Z</time>
      </trkpt>
      <trkpt lat="39.0054550" lon="1.4422470">
        <ele>114.3</ele>
        <time>2020-02-23T16:05:51Z</time>
      </trkpt>
      <trkpt lat="39.0054500" lon="1.4422440">
        <ele>114.4</ele>
        <time>2020-02-23T16:05:52Z</time>
      </trkpt>
      <trkpt lat="39.0054470" lon="1.4422420">
        <ele>114.4</ele>
        <time>2020-02-23T16:05:53Z</time>
      </trkpt>
      <trkpt lat="39.0054470" lon="1.4422420">
        <ele>114.4</ele>
        <time>2020-02-23T16:05:54Z</time>
      </trkpt>
      <trkpt lat="39.0054010" lon="1.4422770">
        <ele>114.4</ele>
        <time>2020-02-23T16:06:35Z</time>
      </trkpt>
      <trkpt lat="39.0053930" lon="1.4422810">
        <ele>114.4</ele>
        <time>2020-02-23T16:06:36Z</time>
      </trkpt>
      <trkpt lat="39.0053960" lon="1.4422880">
        <ele>114.4</ele>
        <time>2020-02-23T16:06:37Z</time>
      </trkpt>
      <trkpt lat="39.0053880" lon="1.4422930">
        <ele>114.4</ele>
        <time>2020-02-23T16:06:38Z</time>
      </trkpt>
      <trkpt lat="39.0053850" lon="1.4422970">
        <ele>114.4</ele>
        <time>2020-02-23T16:06:39Z</time>
      </trkpt>
      <trkpt lat="39.0053770" lon="1.4422930">
        <ele>114.5</ele>
        <time>2020-02-23T16:06:40Z</time>
      </trkpt>
      <trkpt lat="39.0053640" lon="1.4422830">
        <ele>114.5</ele>
        <time>2020-02-23T16:06:41Z</time>
      </trkpt>
      <trkpt lat="39.0053720" lon="1.4422890">
        <ele>114.5</ele>
        <time>2020-02-23T16:06:42Z</time>
      </trkpt>
      <trkpt lat="39.0053660" lon="1.4422870">
        <ele>114.5</ele>
        <time>2020-02-23T16:06:43Z</time>
      </trkpt>
      <trkpt lat="39.0053570" lon="1.4422840">
        <ele>114.5</ele>
        <time>2020-02-23T16:06:44Z</time>
      </trkpt>
      <trkpt lat="39.0053430" lon="1.4422700">
        <ele>114.5</ele>
        <time>2020-02-23T16:06:45Z</time>
      </trkpt>
      <trkpt lat="39.0053270" lon="1.4422590">
        <ele>114.5</ele>
        <time>2020-02-23T16:06:46Z</time>
      </trkpt>
      <trkpt lat="39.0053090" lon="1.4422450">
        <ele>114.6</ele>
        <time>2020-02-23T16:06:47Z</time>
      </trkpt>
      <trkpt lat="39.0053020" lon="1.4422400">
        <ele>114.6</ele>
        <time>2020-02-23T16:06:48Z</time>
      </trkpt>
      <trkpt lat="39.0052950" lon="1.4422360">
        <ele>114.6</ele>
        <time>2020-02-23T16:06:49Z</time>
      </trkpt>
      <trkpt lat="39.0052860" lon="1.4422370">
        <ele>114.6</ele>
        <time>2020-02-23T16:06:50Z</time>
      </trkpt>
      <trkpt lat="39.0052880" lon="1.4422350">
        <ele>114.6</ele>
        <time>2020-02-23T16:06:51Z</time>
      </trkpt>
      <trkpt lat="39.0052820" lon="1.4422380">
        <ele>114.6</ele>
        <time>2020-02-23T16:06:52Z</time>
      </trkpt>
      <trkpt lat="39.0052890" lon="1.4422500">
        <ele>114.6</ele>
        <time>2020-02-23T16:06:53Z</time>
      </trkpt>
      <trkpt lat="39.0052950" lon="1.4422570">
        <ele>114.6</ele>
        <time>2020-02-23T16:06:54Z</time>
      </trkpt>
      <trkpt lat="39.0052980" lon="1.4422600">
        <ele>114.6</ele>
        <time>2020-02-23T16:06:55Z</time>
      </trkpt>
      <trkpt lat="39.0053020" lon="1.4422630">
        <ele>114.6</ele>
        <time>2020-02-23T16:06:56Z</time>
      </trkpt>
      <trkpt lat="39.0052970" lon="1.4422600">
        <ele>114.6</ele>
        <time>2020-02-23T16:06:57Z</time>
      </trkpt>
      <trkpt lat="39.0052970" lon="1.4422570">
        <ele>114.6</ele>
        <time>2020-02-23T16:06:58Z</time>
      </trkpt>
      <trkpt lat="39.0052940" lon="1.4422530">
        <ele>114.6</ele>
        <time>2020-02-23T16:06:59Z</time>
      </trkpt>
      <trkpt lat="39.0052890" lon="1.4422390">
        <ele>114.6</ele>
        <time>2020-02-23T16:07:00Z</time>
      </trkpt>
      <trkpt lat="39.0052850" lon="1.4422190">
        <ele>114.7</ele>
        <time>2020-02-23T16:07:01Z</time>
      </trkpt>
      <trkpt lat="39.0052840" lon="1.4422080">
        <ele>114.7</ele>
        <time>2020-02-23T16:07:02Z</time>
      </trkpt>
      <trkpt lat="39.0052820" lon="1.4422020">
        <ele>114.7</ele>
        <time>2020-02-23T16:07:03Z</time>
      </trkpt>
      <trkpt lat="39.0052660" lon="1.4421890">
        <ele>114.7</ele>
        <time>2020-02-23T16:07:04Z</time>
      </trkpt>
      <trkpt lat="39.0052540" lon="1.4421780">
        <ele>114.7</ele>
        <time>2020-02-23T16:07:05Z</time>
      </trkpt>
      <trkpt lat="39.0052240" lon="1.4421530">
        <ele>114.8</ele>
        <time>2020-02-23T16:07:06Z</time>
      </trkpt>
      <trkpt lat="39.0051940" lon="1.4421340">
        <ele>114.8</ele>
        <time>2020-02-23T16:07:07Z</time>
      </trkpt>
      <trkpt lat="39.0051720" lon="1.4421160">
        <ele>114.8</ele>
        <time>2020-02-23T16:07:08Z</time>
      </trkpt>
      <trkpt lat="39.0051640" lon="1.4421060">
        <ele>114.8</ele>
        <time>2020-02-23T16:07:09Z</time>
      </trkpt>
      <trkpt lat="39.0051440" lon="1.4420810">
        <ele>114.8</ele>
        <time>2020-02-23T16:07:10Z</time>
      </trkpt>
      <trkpt lat="39.0051240" lon="1.4420550">
        <ele>114.9</ele>
        <time>2020-02-23T16:07:11Z</time>
      </trkpt>
      <trkpt lat="39.0050960" lon="1.4420330">
        <ele>114.9</ele>
        <time>2020-02-23T16:07:12Z</time>
      </trkpt>
      <trkpt lat="39.0050860" lon="1.4420270">
        <ele>114.9</ele>
        <time>2020-02-23T16:07:13Z</time>
      </trkpt>
      <trkpt lat="39.0050540" lon="1.4420120">
        <ele>114.9</ele>
        <time>2020-02-23T16:07:14Z</time>
      </trkpt>
      <trkpt lat="39.0050410" lon="1.4420030">
        <ele>114.9</ele>
        <time>2020-02-23T16:07:15Z</time>
      </trkpt>
      <trkpt lat="39.0050140" lon="1.4419830">
        <ele>115.0</ele>
        <time>2020-02-23T16:07:16Z</time>
      </trkpt>
      <trkpt lat="39.0050030" lon="1.4419780">
        <ele>115.0</ele>
        <time>2020-02-23T16:07:17Z</time>
      </trkpt>
      <trkpt lat="39.0049730" lon="1.4419620">
        <ele>115.0</ele>
        <time>2020-02-23T16:07:18Z</time>
      </trkpt>
      <trkpt lat="39.0049640" lon="1.4419570">
        <ele>115.0</ele>
        <time>2020-02-23T16:07:19Z</time>
      </trkpt>
      <trkpt lat="39.0049370" lon="1.4419350">
        <ele>115.0</ele>
        <time>2020-02-23T16:07:20Z</time>
      </trkpt>
      <trkpt lat="39.0049260" lon="1.4419290">
        <ele>115.1</ele>
        <time>2020-02-23T16:07:21Z</time>
      </trkpt>
      <trkpt lat="39.0048950" lon="1.4419100">
        <ele>115.1</ele>
        <time>2020-02-23T16:07:22Z</time>
      </trkpt>
      <trkpt lat="39.0048660" lon="1.4419000">
        <ele>115.1</ele>
        <time>2020-02-23T16:07:23Z</time>
      </trkpt>
      <trkpt lat="39.0048250" lon="1.4418800">
        <ele>115.1</ele>
        <time>2020-02-23T16:07:24Z</time>
      </trkpt>
      <trkpt lat="39.0048080" lon="1.4418710">
        <ele>115.2</ele>
        <time>2020-02-23T16:07:25Z</time>
      </trkpt>
      <trkpt lat="39.0047710" lon="1.4418550">
        <ele>115.2</ele>
        <time>2020-02-23T16:07:26Z</time>
      </trkpt>
      <trkpt lat="39.0047570" lon="1.4418460">
        <ele>115.2</ele>
        <time>2020-02-23T16:07:27Z</time>
      </trkpt>
      <trkpt lat="39.0047260" lon="1.4418330">
        <ele>115.2</ele>
        <time>2020-02-23T16:07:28Z</time>
      </trkpt>
      <trkpt lat="39.0046880" lon="1.4418120">
        <ele>115.3</ele>
        <time>2020-02-23T16:07:29Z</time>
      </trkpt>
      <trkpt lat="39.0046570" lon="1.4417940">
        <ele>115.3</ele>
        <time>2020-02-23T16:07:30Z</time>
      </trkpt>
      <trkpt lat="39.0046260" lon="1.4417770">
        <ele>115.4</ele>
        <time>2020-02-23T16:07:31Z</time>
      </trkpt>
      <trkpt lat="39.0045900" lon="1.4417530">
        <ele>115.4</ele>
        <time>2020-02-23T16:07:32Z</time>
      </trkpt>
      <trkpt lat="39.0045760" lon="1.4417450">
        <ele>115.4</ele>
        <time>2020-02-23T16:07:33Z</time>
      </trkpt>
      <trkpt lat="39.0045480" lon="1.4417250">
        <ele>115.5</ele>
        <time>2020-02-23T16:07:34Z</time>
      </trkpt>
      <trkpt lat="39.0045150" lon="1.4416990">
        <ele>115.5</ele>
        <time>2020-02-23T16:07:35Z</time>
      </trkpt>
      <trkpt lat="39.0044830" lon="1.4416760">
        <ele>115.6</ele>
        <time>2020-02-23T16:07:36Z</time>
      </trkpt>
      <trkpt lat="39.0044500" lon="1.4416500">
        <ele>115.6</ele>
        <time>2020-02-23T16:07:37Z</time>
      </trkpt>
      <trkpt lat="39.0044230" lon="1.4416380">
        <ele>115.7</ele>
        <time>2020-02-23T16:07:38Z</time>
      </trkpt>
      <trkpt lat="39.0043890" lon="1.4416250">
        <ele>115.7</ele>
        <time>2020-02-23T16:07:39Z</time>
      </trkpt>
      <trkpt lat="39.0043490" lon="1.4416060">
        <ele>115.8</ele>
        <time>2020-02-23T16:07:40Z</time>
      </trkpt>
      <trkpt lat="39.0043330" lon="1.4415960">
        <ele>115.8</ele>
        <time>2020-02-23T16:07:41Z</time>
      </trkpt>
      <trkpt lat="39.0042990" lon="1.4415710">
        <ele>115.8</ele>
        <time>2020-02-23T16:07:42Z</time>
      </trkpt>
      <trkpt lat="39.0042690" lon="1.4415520">
        <ele>115.9</ele>
        <time>2020-02-23T16:07:43Z</time>
      </trkpt>
      <trkpt lat="39.0042380" lon="1.4415320">
        <ele>115.9</ele>
        <time>2020-02-23T16:07:44Z</time>
      </trkpt>
      <trkpt lat="39.0042080" lon="1.4415090">
        <ele>116.0</ele>
        <time>2020-02-23T16:07:45Z</time>
      </trkpt>
      <trkpt lat="39.0041810" lon="1.4414920">
        <ele>116.0</ele>
        <time>2020-02-23T16:07:46Z</time>
      </trkpt>
      <trkpt lat="39.0041470" lon="1.4414710">
        <ele>116.0</ele>
        <time>2020-02-23T16:07:47Z</time>
      </trkpt>
      <trkpt lat="39.0041150" lon="1.4414470">
        <ele>116.1</ele>
        <time>2020-02-23T16:07:48Z</time>
      </trkpt>
      <trkpt lat="39.0040760" lon="1.4414200">
        <ele>116.1</ele>
        <time>2020-02-23T16:07:49Z</time>
      </trkpt>
      <trkpt lat="39.0040390" lon="1.4413900">
        <ele>116.2</ele>
        <time>2020-02-23T16:07:50Z</time>
      </trkpt>
      <trkpt lat="39.0040070" lon="1.4413630">
        <ele>116.2</ele>
        <time>2020-02-23T16:07:51Z</time>
      </trkpt>
      <trkpt lat="39.0039770" lon="1.4413300">
        <ele>116.3</ele>
        <time>2020-02-23T16:07:52Z</time>
      </trkpt>
      <trkpt lat="39.0039510" lon="1.4413000">
        <ele>116.3</ele>
        <time>2020-02-23T16:07:53Z</time>
      </trkpt>
      <trkpt lat="39.0039160" lon="1.4412610">
        <ele>116.3</ele>
        <time>2020-02-23T16:07:54Z</time>
      </trkpt>
      <trkpt lat="39.0038870" lon="1.4412330">
        <ele>116.4</ele>
        <time>2020-02-23T16:07:55Z</time>
      </trkpt>
      <trkpt lat="39.0038630" lon="1.4412070">
        <ele>116.4</ele>
        <time>2020-02-23T16:07:56Z</time>
      </trkpt>
      <trkpt lat="39.0038360" lon="1.4411750">
        <ele>116.5</ele>
        <time>2020-02-23T16:07:57Z</time>
      </trkpt>
      <trkpt lat="39.0038100" lon="1.4411510">
        <ele>116.5</ele>
        <time>2020-02-23T16:07:58Z</time>
      </trkpt>
      <trkpt lat="39.0037830" lon="1.4411220">
        <ele>116.5</ele>
        <time>2020-02-23T16:07:59Z</time>
      </trkpt>
      <trkpt lat="39.0037560" lon="1.4410910">
        <ele>116.6</ele>
        <time>2020-02-23T16:08:00Z</time>
      </trkpt>
      <trkpt lat="39.0037320" lon="1.4410610">
        <ele>116.6</ele>
        <time>2020-02-23T16:08:01Z</time>
      </trkpt>
      <trkpt lat="39.0037050" lon="1.4410320">
        <ele>116.6</ele>
        <time>2020-02-23T16:08:02Z</time>
      </trkpt>
      <trkpt lat="39.0036740" lon="1.4409960">
        <ele>116.7</ele>
        <time>2020-02-23T16:08:03Z</time>
      </trkpt>
      <trkpt lat="39.0036450" lon="1.4409700">
        <ele>116.7</ele>
        <time>2020-02-23T16:08:04Z</time>
      </trkpt>
      <trkpt lat="39.0036200" lon="1.4409380">
        <ele>116.7</ele>
        <time>2020-02-23T16:08:05Z</time>
      </trkpt>
      <trkpt lat="39.0036020" lon="1.4409110">
        <ele>116.8</ele>
        <time>2020-02-23T16:08:06Z</time>
      </trkpt>
      <trkpt lat="39.0035800" lon="1.4408840">
        <ele>116.8</ele>
        <time>2020-02-23T16:08:07Z</time>
      </trkpt>
      <trkpt lat="39.0035650" lon="1.4408390">
        <ele>116.8</ele>
        <time>2020-02-23T16:08:08Z</time>
      </trkpt>
      <trkpt lat="39.0035440" lon="1.4408060">
        <ele>116.9</ele>
        <time>2020-02-23T16:08:09Z</time>
      </trkpt>
      <trkpt lat="39.0035210" lon="1.4407710">
        <ele>116.9</ele>
        <time>2020-02-23T16:08:10Z</time>
      </trkpt>
      <trkpt lat="39.0034960" lon="1.4407340">
        <ele>117.0</ele>
        <time>2020-02-23T16:08:11Z</time>
      </trkpt>
      <trkpt lat="39.0034820" lon="1.4406980">
        <ele>117.0</ele>
        <time>2020-02-23T16:08:12Z</time>
      </trkpt>
      <trkpt lat="39.0034620" lon="1.4406550">
        <ele>117.1</ele>
        <time>2020-02-23T16:08:13Z</time>
      </trkpt>
      <trkpt lat="39.0034390" lon="1.4406160">
        <ele>117.2</ele>
        <time>2020-02-23T16:08:14Z</time>
      </trkpt>
      <trkpt lat="39.0034150" lon="1.4405830">
        <ele>117.2</ele>
        <time>2020-02-23T16:08:15Z</time>
      </trkpt>
      <trkpt lat="39.0033900" lon="1.4405570">
        <ele>117.3</ele>
        <time>2020-02-23T16:08:16Z</time>
      </trkpt>
      <trkpt lat="39.0033780" lon="1.4405430">
        <ele>117.3</ele>
        <time>2020-02-23T16:08:17Z</time>
      </trkpt>
      <trkpt lat="39.0033440" lon="1.4405060">
        <ele>117.4</ele>
        <time>2020-02-23T16:08:18Z</time>
      </trkpt>
      <trkpt lat="39.0033150" lon="1.4404750">
        <ele>117.5</ele>
        <time>2020-02-23T16:08:19Z</time>
      </trkpt>
      <trkpt lat="39.0033000" lon="1.4404590">
        <ele>117.5</ele>
        <time>2020-02-23T16:08:20Z</time>
      </trkpt>
      <trkpt lat="39.0032670" lon="1.4404190">
        <ele>117.6</ele>
        <time>2020-02-23T16:08:21Z</time>
      </trkpt>
      <trkpt lat="39.0032370" lon="1.4403840">
        <ele>117.7</ele>
        <time>2020-02-23T16:08:22Z</time>
      </trkpt>
      <trkpt lat="39.0032000" lon="1.4403510">
        <ele>117.8</ele>
        <time>2020-02-23T16:08:23Z</time>
      </trkpt>
      <trkpt lat="39.0031600" lon="1.4403130">
        <ele>117.9</ele>
        <time>2020-02-23T16:08:24Z</time>
      </trkpt>
      <trkpt lat="39.0031320" lon="1.4402740">
        <ele>117.9</ele>
        <time>2020-02-23T16:08:25Z</time>
      </trkpt>
      <trkpt lat="39.0031130" lon="1.4402400">
        <ele>118.0</ele>
        <time>2020-02-23T16:08:26Z</time>
      </trkpt>
      <trkpt lat="39.0030990" lon="1.4402080">
        <ele>118.1</ele>
        <time>2020-02-23T16:08:27Z</time>
      </trkpt>
      <trkpt lat="39.0030680" lon="1.4401730">
        <ele>118.2</ele>
        <time>2020-02-23T16:08:28Z</time>
      </trkpt>
      <trkpt lat="39.0030530" lon="1.4401610">
        <ele>118.2</ele>
        <time>2020-02-23T16:08:29Z</time>
      </trkpt>
      <trkpt lat="39.0030310" lon="1.4401370">
        <ele>118.3</ele>
        <time>2020-02-23T16:08:30Z</time>
      </trkpt>
      <trkpt lat="39.0030090" lon="1.4401140">
        <ele>118.3</ele>
        <time>2020-02-23T16:08:31Z</time>
      </trkpt>
      <trkpt lat="39.0029820" lon="1.4400830">
        <ele>118.4</ele>
        <time>2020-02-23T16:08:32Z</time>
      </trkpt>
      <trkpt lat="39.0029480" lon="1.4400500">
        <ele>118.5</ele>
        <time>2020-02-23T16:08:33Z</time>
      </trkpt>
      <trkpt lat="39.0029220" lon="1.4400190">
        <ele>118.6</ele>
        <time>2020-02-23T16:08:34Z</time>
      </trkpt>
      <trkpt lat="39.0028910" lon="1.4400010">
        <ele>118.7</ele>
        <time>2020-02-23T16:08:35Z</time>
      </trkpt>
      <trkpt lat="39.0028660" lon="1.4399780">
        <ele>118.8</ele>
        <time>2020-02-23T16:08:36Z</time>
      </trkpt>
      <trkpt lat="39.0028380" lon="1.4399460">
        <ele>118.9</ele>
        <time>2020-02-23T16:08:37Z</time>
      </trkpt>
      <trkpt lat="39.0028100" lon="1.4399180">
        <ele>119.0</ele>
        <time>2020-02-23T16:08:38Z</time>
      </trkpt>
      <trkpt lat="39.0027750" lon="1.4398700">
        <ele>119.2</ele>
        <time>2020-02-23T16:08:39Z</time>
      </trkpt>
      <trkpt lat="39.0027550" lon="1.4398450">
        <ele>119.4</ele>
        <time>2020-02-23T16:08:40Z</time>
      </trkpt>
      <trkpt lat="39.0027310" lon="1.4398250">
        <ele>119.5</ele>
        <time>2020-02-23T16:08:41Z</time>
      </trkpt>
      <trkpt lat="39.0027070" lon="1.4398030">
        <ele>119.6</ele>
        <time>2020-02-23T16:08:42Z</time>
      </trkpt>
      <trkpt lat="39.0026830" lon="1.4397820">
        <ele>119.7</ele>
        <time>2020-02-23T16:08:43Z</time>
      </trkpt>
      <trkpt lat="39.0026450" lon="1.4397520">
        <ele>120.0</ele>
        <time>2020-02-23T16:08:44Z</time>
      </trkpt>
      <trkpt lat="39.0026290" lon="1.4397410">
        <ele>120.0</ele>
        <time>2020-02-23T16:08:45Z</time>
      </trkpt>
      <trkpt lat="39.0026030" lon="1.4397200">
        <ele>120.2</ele>
        <time>2020-02-23T16:08:46Z</time>
      </trkpt>
      <trkpt lat="39.0025760" lon="1.4396970">
        <ele>120.4</ele>
        <time>2020-02-23T16:08:47Z</time>
      </trkpt>
      <trkpt lat="39.0025440" lon="1.4396680">
        <ele>120.6</ele>
        <time>2020-02-23T16:08:48Z</time>
      </trkpt>
      <trkpt lat="39.0025090" lon="1.4396370">
        <ele>120.9</ele>
        <time>2020-02-23T16:08:49Z</time>
      </trkpt>
      <trkpt lat="39.0024960" lon="1.4396260">
        <ele>121.0</ele>
        <time>2020-02-23T16:08:50Z</time>
      </trkpt>
      <trkpt lat="39.0024620" lon="1.4395930">
        <ele>121.3</ele>
        <time>2020-02-23T16:08:51Z</time>
      </trkpt>
      <trkpt lat="39.0024470" lon="1.4395790">
        <ele>121.4</ele>
        <time>2020-02-23T16:08:52Z</time>
      </trkpt>
      <trkpt lat="39.0024210" lon="1.4395550">
        <ele>121.6</ele>
        <time>2020-02-23T16:08:53Z</time>
      </trkpt>
      <trkpt lat="39.0023920" lon="1.4395450">
        <ele>122.2</ele>
        <time>2020-02-23T16:08:54Z</time>
      </trkpt>
      <trkpt lat="39.0023590" lon="1.4395250">
        <ele>122.5</ele>
        <time>2020-02-23T16:08:55Z</time>
      </trkpt>
      <trkpt lat="39.0023240" lon="1.4395020">
        <ele>122.7</ele>
        <time>2020-02-23T16:08:56Z</time>
      </trkpt>
      <trkpt lat="39.0022950" lon="1.4394790">
        <ele>123.0</ele>
        <time>2020-02-23T16:08:57Z</time>
      </trkpt>
      <trkpt lat="39.0022660" lon="1.4394540">
        <ele>123.2</ele>
        <time>2020-02-23T16:08:58Z</time>
      </trkpt>
      <trkpt lat="39.0022380" lon="1.4394320">
        <ele>123.4</ele>
        <time>2020-02-23T16:08:59Z</time>
      </trkpt>
      <trkpt lat="39.0022220" lon="1.4394170">
        <ele>123.5</ele>
        <time>2020-02-23T16:09:00Z</time>
      </trkpt>
      <trkpt lat="39.0021930" lon="1.4394030">
        <ele>123.7</ele>
        <time>2020-02-23T16:09:01Z</time>
      </trkpt>
      <trkpt lat="39.0021600" lon="1.4393860">
        <ele>123.9</ele>
        <time>2020-02-23T16:09:02Z</time>
      </trkpt>
      <trkpt lat="39.0021220" lon="1.4393530">
        <ele>124.1</ele>
        <time>2020-02-23T16:09:03Z</time>
      </trkpt>
      <trkpt lat="39.0020910" lon="1.4393330">
        <ele>124.3</ele>
        <time>2020-02-23T16:09:04Z</time>
      </trkpt>
      <trkpt lat="39.0020590" lon="1.4393060">
        <ele>124.5</ele>
        <time>2020-02-23T16:09:05Z</time>
      </trkpt>
      <trkpt lat="39.0020340" lon="1.4392760">
        <ele>124.6</ele>
        <time>2020-02-23T16:09:06Z</time>
      </trkpt>
      <trkpt lat="39.0020290" lon="1.4392700">
        <ele>124.6</ele>
        <time>2020-02-23T16:09:07Z</time>
      </trkpt>
      <trkpt lat="39.0019990" lon="1.4392450">
        <ele>124.8</ele>
        <time>2020-02-23T16:09:08Z</time>
      </trkpt>
      <trkpt lat="39.0019860" lon="1.4392380">
        <ele>124.8</ele>
        <time>2020-02-23T16:09:09Z</time>
      </trkpt>
      <trkpt lat="39.0019580" lon="1.4392170">
        <ele>125.0</ele>
        <time>2020-02-23T16:09:10Z</time>
      </trkpt>
      <trkpt lat="39.0019340" lon="1.4391970">
        <ele>125.1</ele>
        <time>2020-02-23T16:09:11Z</time>
      </trkpt>
      <trkpt lat="39.0019070" lon="1.4391690">
        <ele>125.2</ele>
        <time>2020-02-23T16:09:12Z</time>
      </trkpt>
      <trkpt lat="39.0018980" lon="1.4391580">
        <ele>125.3</ele>
        <time>2020-02-23T16:09:13Z</time>
      </trkpt>
      <trkpt lat="39.0018610" lon="1.4391220">
        <ele>125.4</ele>
        <time>2020-02-23T16:09:14Z</time>
      </trkpt>
      <trkpt lat="39.0018340" lon="1.4390960">
        <ele>125.5</ele>
        <time>2020-02-23T16:09:15Z</time>
      </trkpt>
      <trkpt lat="39.0018110" lon="1.4390760">
        <ele>125.6</ele>
        <time>2020-02-23T16:09:16Z</time>
      </trkpt>
      <trkpt lat="39.0017970" lon="1.4390610">
        <ele>125.6</ele>
        <time>2020-02-23T16:09:17Z</time>
      </trkpt>
      <trkpt lat="39.0017780" lon="1.4390330">
        <ele>125.7</ele>
        <time>2020-02-23T16:09:18Z</time>
      </trkpt>
      <trkpt lat="39.0017480" lon="1.4390000">
        <ele>125.8</ele>
        <time>2020-02-23T16:09:19Z</time>
      </trkpt>
      <trkpt lat="39.0017350" lon="1.4389880">
        <ele>125.8</ele>
        <time>2020-02-23T16:09:20Z</time>
      </trkpt>
      <trkpt lat="39.0017120" lon="1.4389680">
        <ele>125.9</ele>
        <time>2020-02-23T16:09:21Z</time>
      </trkpt>
      <trkpt lat="39.0016880" lon="1.4389420">
        <ele>126.0</ele>
        <time>2020-02-23T16:09:22Z</time>
      </trkpt>
      <trkpt lat="39.0016620" lon="1.4388990">
        <ele>126.1</ele>
        <time>2020-02-23T16:09:23Z</time>
      </trkpt>
      <trkpt lat="39.0016530" lon="1.4388810">
        <ele>126.1</ele>
        <time>2020-02-23T16:09:24Z</time>
      </trkpt>
      <trkpt lat="39.0016320" lon="1.4388450">
        <ele>126.2</ele>
        <time>2020-02-23T16:09:25Z</time>
      </trkpt>
      <trkpt lat="39.0016160" lon="1.4388060">
        <ele>126.2</ele>
        <time>2020-02-23T16:09:26Z</time>
      </trkpt>
      <trkpt lat="39.0016030" lon="1.4387680">
        <ele>126.2</ele>
        <time>2020-02-23T16:09:27Z</time>
      </trkpt>
      <trkpt lat="39.0015980" lon="1.4387250">
        <ele>126.3</ele>
        <time>2020-02-23T16:09:28Z</time>
      </trkpt>
      <trkpt lat="39.0015810" lon="1.4386750">
        <ele>126.4</ele>
        <time>2020-02-23T16:09:29Z</time>
      </trkpt>
      <trkpt lat="39.0015700" lon="1.4386200">
        <ele>126.1</ele>
        <time>2020-02-23T16:09:30Z</time>
      </trkpt>
      <trkpt lat="39.0015650" lon="1.4385630">
        <ele>125.9</ele>
        <time>2020-02-23T16:09:31Z</time>
      </trkpt>
      <trkpt lat="39.0015590" lon="1.4385100">
        <ele>125.6</ele>
        <time>2020-02-23T16:09:32Z</time>
      </trkpt>
      <trkpt lat="39.0015590" lon="1.4384460">
        <ele>125.4</ele>
        <time>2020-02-23T16:09:33Z</time>
      </trkpt>
      <trkpt lat="39.0015470" lon="1.4383890">
        <ele>125.1</ele>
        <time>2020-02-23T16:09:34Z</time>
      </trkpt>
      <trkpt lat="39.0015400" lon="1.4383310">
        <ele>124.8</ele>
        <time>2020-02-23T16:09:35Z</time>
      </trkpt>
      <trkpt lat="39.0015310" lon="1.4382680">
        <ele>124.5</ele>
        <time>2020-02-23T16:09:36Z</time>
      </trkpt>
      <trkpt lat="39.0015240" lon="1.4382080">
        <ele>124.3</ele>
        <time>2020-02-23T16:09:37Z</time>
      </trkpt>
      <trkpt lat="39.0015210" lon="1.4381470">
        <ele>124.0</ele>
        <time>2020-02-23T16:09:38Z</time>
      </trkpt>
      <trkpt lat="39.0015250" lon="1.4380810">
        <ele>123.7</ele>
        <time>2020-02-23T16:09:39Z</time>
      </trkpt>
      <trkpt lat="39.0015270" lon="1.4380130">
        <ele>123.4</ele>
        <time>2020-02-23T16:09:40Z</time>
      </trkpt>
      <trkpt lat="39.0015290" lon="1.4379510">
        <ele>123.1</ele>
        <time>2020-02-23T16:09:41Z</time>
      </trkpt>
      <trkpt lat="39.0015370" lon="1.4378780">
        <ele>122.7</ele>
        <time>2020-02-23T16:09:42Z</time>
      </trkpt>
      <trkpt lat="39.0015220" lon="1.4378050">
        <ele>122.3</ele>
        <time>2020-02-23T16:09:43Z</time>
      </trkpt>
      <trkpt lat="39.0014990" lon="1.4377250">
        <ele>121.9</ele>
        <time>2020-02-23T16:09:44Z</time>
      </trkpt>
      <trkpt lat="39.0014670" lon="1.4376350">
        <ele>121.3</ele>
        <time>2020-02-23T16:09:45Z</time>
      </trkpt>
      <trkpt lat="39.0014390" lon="1.4375430">
        <ele>120.6</ele>
        <time>2020-02-23T16:09:46Z</time>
      </trkpt>
      <trkpt lat="39.0014050" lon="1.4374440">
        <ele>119.6</ele>
        <time>2020-02-23T16:09:47Z</time>
      </trkpt>
      <trkpt lat="39.0013800" lon="1.4373650">
        <ele>119.0</ele>
        <time>2020-02-23T16:09:48Z</time>
      </trkpt>
      <trkpt lat="39.0013510" lon="1.4372890">
        <ele>118.6</ele>
        <time>2020-02-23T16:09:49Z</time>
      </trkpt>
      <trkpt lat="39.0013080" lon="1.4372080">
        <ele>118.0</ele>
        <time>2020-02-23T16:09:50Z</time>
      </trkpt>
      <trkpt lat="39.0012580" lon="1.4371350">
        <ele>117.5</ele>
        <time>2020-02-23T16:09:51Z</time>
      </trkpt>
      <trkpt lat="39.0011770" lon="1.4370830">
        <ele>116.9</ele>
        <time>2020-02-23T16:09:52Z</time>
      </trkpt>
      <trkpt lat="39.0010910" lon="1.4370330">
        <ele>116.4</ele>
        <time>2020-02-23T16:09:53Z</time>
      </trkpt>
      <trkpt lat="39.0010040" lon="1.4369740">
        <ele>115.9</ele>
        <time>2020-02-23T16:09:54Z</time>
      </trkpt>
      <trkpt lat="39.0009200" lon="1.4369190">
        <ele>115.2</ele>
        <time>2020-02-23T16:09:55Z</time>
      </trkpt>
      <trkpt lat="39.0008380" lon="1.4368700">
        <ele>114.5</ele>
        <time>2020-02-23T16:09:56Z</time>
      </trkpt>
      <trkpt lat="39.0007460" lon="1.4368370">
        <ele>114.1</ele>
        <time>2020-02-23T16:09:57Z</time>
      </trkpt>
      <trkpt lat="39.0006580" lon="1.4367950">
        <ele>113.7</ele>
        <time>2020-02-23T16:09:58Z</time>
      </trkpt>
      <trkpt lat="39.0005650" lon="1.4367640">
        <ele>113.3</ele>
        <time>2020-02-23T16:09:59Z</time>
      </trkpt>
      <trkpt lat="39.0004720" lon="1.4367340">
        <ele>112.9</ele>
        <time>2020-02-23T16:10:00Z</time>
      </trkpt>
      <trkpt lat="39.0003830" lon="1.4367000">
        <ele>112.6</ele>
        <time>2020-02-23T16:10:01Z</time>
      </trkpt>
      <trkpt lat="39.0002980" lon="1.4366660">
        <ele>112.3</ele>
        <time>2020-02-23T16:10:02Z</time>
      </trkpt>
      <trkpt lat="39.0002140" lon="1.4366350">
        <ele>112.1</ele>
        <time>2020-02-23T16:10:03Z</time>
      </trkpt>
      <trkpt lat="39.0001330" lon="1.4366140">
        <ele>111.8</ele>
        <time>2020-02-23T16:10:04Z</time>
      </trkpt>
      <trkpt lat="39.0000510" lon="1.4366000">
        <ele>111.6</ele>
        <time>2020-02-23T16:10:05Z</time>
      </trkpt>
      <trkpt lat="38.9999700" lon="1.4365770">
        <ele>111.4</ele>
        <time>2020-02-23T16:10:06Z</time>
      </trkpt>
      <trkpt lat="38.9998910" lon="1.4365530">
        <ele>111.1</ele>
        <time>2020-02-23T16:10:07Z</time>
      </trkpt>
      <trkpt lat="38.9998130" lon="1.4365270">
        <ele>110.8</ele>
        <time>2020-02-23T16:10:08Z</time>
      </trkpt>
      <trkpt lat="38.9997320" lon="1.4365060">
        <ele>110.6</ele>
        <time>2020-02-23T16:10:09Z</time>
      </trkpt>
      <trkpt lat="38.9996510" lon="1.4364910">
        <ele>110.3</ele>
        <time>2020-02-23T16:10:10Z</time>
      </trkpt>
      <trkpt lat="38.9995750" lon="1.4364660">
        <ele>110.1</ele>
        <time>2020-02-23T16:10:11Z</time>
      </trkpt>
      <trkpt lat="38.9995000" lon="1.4364390">
        <ele>109.9</ele>
        <time>2020-02-23T16:10:12Z</time>
      </trkpt>
      <trkpt lat="38.9994260" lon="1.4364170">
        <ele>109.6</ele>
        <time>2020-02-23T16:10:13Z</time>
      </trkpt>
      <trkpt lat="38.9993530" lon="1.4363860">
        <ele>109.3</ele>
        <time>2020-02-23T16:10:14Z</time>
      </trkpt>
      <trkpt lat="38.9992840" lon="1.4363390">
        <ele>109.0</ele>
        <time>2020-02-23T16:10:15Z</time>
      </trkpt>
      <trkpt lat="38.9992190" lon="1.4362830">
        <ele>108.7</ele>
        <time>2020-02-23T16:10:16Z</time>
      </trkpt>
      <trkpt lat="38.9991620" lon="1.4362130">
        <ele>108.4</ele>
        <time>2020-02-23T16:10:17Z</time>
      </trkpt>
      <trkpt lat="38.9991110" lon="1.4361310">
        <ele>108.0</ele>
        <time>2020-02-23T16:10:18Z</time>
      </trkpt>
      <trkpt lat="38.9990680" lon="1.4360380">
        <ele>107.6</ele>
        <time>2020-02-23T16:10:19Z</time>
      </trkpt>
      <trkpt lat="38.9990270" lon="1.4359380">
        <ele>107.1</ele>
        <time>2020-02-23T16:10:20Z</time>
      </trkpt>
      <trkpt lat="38.9990020" lon="1.4358310">
        <ele>106.6</ele>
        <time>2020-02-23T16:10:21Z</time>
      </trkpt>
      <trkpt lat="38.9989760" lon="1.4357210">
        <ele>106.1</ele>
        <time>2020-02-23T16:10:22Z</time>
      </trkpt>
      <trkpt lat="38.9989480" lon="1.4356110">
        <ele>105.5</ele>
        <time>2020-02-23T16:10:23Z</time>
      </trkpt>
      <trkpt lat="38.9989190" lon="1.4355010">
        <ele>105.0</ele>
        <time>2020-02-23T16:10:24Z</time>
      </trkpt>
      <trkpt lat="38.9988890" lon="1.4353910">
        <ele>104.5</ele>
        <time>2020-02-23T16:10:25Z</time>
      </trkpt>
      <trkpt lat="38.9988590" lon="1.4352820">
        <ele>104.2</ele>
        <time>2020-02-23T16:10:26Z</time>
      </trkpt>
      <trkpt lat="38.9988310" lon="1.4351740">
        <ele>103.9</ele>
        <time>2020-02-23T16:10:27Z</time>
      </trkpt>
      <trkpt lat="38.9988000" lon="1.4350720">
        <ele>103.7</ele>
        <time>2020-02-23T16:10:28Z</time>
      </trkpt>
      <trkpt lat="38.9987680" lon="1.4349740">
        <ele>103.5</ele>
        <time>2020-02-23T16:10:29Z</time>
      </trkpt>
      <trkpt lat="38.9987440" lon="1.4348750">
        <ele>103.4</ele>
        <time>2020-02-23T16:10:30Z</time>
      </trkpt>
      <trkpt lat="38.9987170" lon="1.4347830">
        <ele>103.4</ele>
        <time>2020-02-23T16:10:31Z</time>
      </trkpt>
      <trkpt lat="38.9986840" lon="1.4346960">
        <ele>103.5</ele>
        <time>2020-02-23T16:10:32Z</time>
      </trkpt>
      <trkpt lat="38.9986570" lon="1.4346080">
        <ele>103.6</ele>
        <time>2020-02-23T16:10:33Z</time>
      </trkpt>
      <trkpt lat="38.9986350" lon="1.4345260">
        <ele>103.7</ele>
        <time>2020-02-23T16:10:34Z</time>
      </trkpt>
      <trkpt lat="38.9986100" lon="1.4344510">
        <ele>103.8</ele>
        <time>2020-02-23T16:10:35Z</time>
      </trkpt>
      <trkpt lat="38.9985840" lon="1.4343830">
        <ele>104.1</ele>
        <time>2020-02-23T16:10:36Z</time>
      </trkpt>
      <trkpt lat="38.9985610" lon="1.4343180">
        <ele>104.3</ele>
        <time>2020-02-23T16:10:37Z</time>
      </trkpt>
      <trkpt lat="38.9985440" lon="1.4342540">
        <ele>104.5</ele>
        <time>2020-02-23T16:10:38Z</time>
      </trkpt>
      <trkpt lat="38.9985270" lon="1.4341950">
        <ele>104.7</ele>
        <time>2020-02-23T16:10:39Z</time>
      </trkpt>
      <trkpt lat="38.9985050" lon="1.4341460">
        <ele>104.9</ele>
        <time>2020-02-23T16:10:40Z</time>
      </trkpt>
      <trkpt lat="38.9984770" lon="1.4341070">
        <ele>105.1</ele>
        <time>2020-02-23T16:10:41Z</time>
      </trkpt>
      <trkpt lat="38.9984630" lon="1.4340650">
        <ele>105.3</ele>
        <time>2020-02-23T16:10:42Z</time>
      </trkpt>
      <trkpt lat="38.9984560" lon="1.4340230">
        <ele>105.4</ele>
        <time>2020-02-23T16:10:43Z</time>
      </trkpt>
      <trkpt lat="38.9984470" lon="1.4339870">
        <ele>105.6</ele>
        <time>2020-02-23T16:10:44Z</time>
      </trkpt>
      <trkpt lat="38.9984380" lon="1.4339500">
        <ele>105.8</ele>
        <time>2020-02-23T16:10:45Z</time>
      </trkpt>
      <trkpt lat="38.9984320" lon="1.4339130">
        <ele>106.0</ele>
        <time>2020-02-23T16:10:46Z</time>
      </trkpt>
      <trkpt lat="38.9984140" lon="1.4338870">
        <ele>106.3</ele>
        <time>2020-02-23T16:10:47Z</time>
      </trkpt>
      <trkpt lat="38.9983940" lon="1.4338590">
        <ele>106.5</ele>
        <time>2020-02-23T16:10:48Z</time>
      </trkpt>
      <trkpt lat="38.9983860" lon="1.4338110">
        <ele>106.8</ele>
        <time>2020-02-23T16:10:49Z</time>
      </trkpt>
      <trkpt lat="38.9983840" lon="1.4337950">
        <ele>106.9</ele>
        <time>2020-02-23T16:10:50Z</time>
      </trkpt>
      <trkpt lat="38.9983680" lon="1.4337480">
        <ele>107.2</ele>
        <time>2020-02-23T16:10:51Z</time>
      </trkpt>
      <trkpt lat="38.9983620" lon="1.4337330">
        <ele>107.3</ele>
        <time>2020-02-23T16:10:52Z</time>
      </trkpt>
      <trkpt lat="38.9983600" lon="1.4336870">
        <ele>107.6</ele>
        <time>2020-02-23T16:10:53Z</time>
      </trkpt>
      <trkpt lat="38.9983600" lon="1.4336730">
        <ele>107.6</ele>
        <time>2020-02-23T16:10:54Z</time>
      </trkpt>
      <trkpt lat="38.9983500" lon="1.4336310">
        <ele>107.9</ele>
        <time>2020-02-23T16:10:55Z</time>
      </trkpt>
      <trkpt lat="38.9983460" lon="1.4336170">
        <ele>107.9</ele>
        <time>2020-02-23T16:10:56Z</time>
      </trkpt>
      <trkpt lat="38.9983380" lon="1.4335760">
        <ele>108.2</ele>
        <time>2020-02-23T16:10:57Z</time>
      </trkpt>
      <trkpt lat="38.9983360" lon="1.4335630">
        <ele>108.2</ele>
        <time>2020-02-23T16:10:58Z</time>
      </trkpt>
      <trkpt lat="38.9983310" lon="1.4335220">
        <ele>108.4</ele>
        <time>2020-02-23T16:10:59Z</time>
      </trkpt>
      <trkpt lat="38.9983300" lon="1.4335100">
        <ele>108.5</ele>
        <time>2020-02-23T16:11:00Z</time>
      </trkpt>
      <trkpt lat="38.9983320" lon="1.4334730">
        <ele>108.7</ele>
        <time>2020-02-23T16:11:01Z</time>
      </trkpt>
      <trkpt lat="38.9983320" lon="1.4334620">
        <ele>108.8</ele>
        <time>2020-02-23T16:11:02Z</time>
      </trkpt>
      <trkpt lat="38.9983420" lon="1.4334190">
        <ele>109.0</ele>
        <time>2020-02-23T16:11:03Z</time>
      </trkpt>
      <trkpt lat="38.9983460" lon="1.4334050">
        <ele>109.1</ele>
        <time>2020-02-23T16:11:04Z</time>
      </trkpt>
      <trkpt lat="38.9983540" lon="1.4333600">
        <ele>109.3</ele>
        <time>2020-02-23T16:11:05Z</time>
      </trkpt>
      <trkpt lat="38.9983570" lon="1.4333460">
        <ele>109.4</ele>
        <time>2020-02-23T16:11:06Z</time>
      </trkpt>
      <trkpt lat="38.9983630" lon="1.4333110">
        <ele>109.6</ele>
        <time>2020-02-23T16:11:07Z</time>
      </trkpt>
      <trkpt lat="38.9983710" lon="1.4332630">
        <ele>109.9</ele>
        <time>2020-02-23T16:11:08Z</time>
      </trkpt>
      <trkpt lat="38.9983740" lon="1.4332470">
        <ele>110.0</ele>
        <time>2020-02-23T16:11:09Z</time>
      </trkpt>
      <trkpt lat="38.9983840" lon="1.4332140">
        <ele>110.2</ele>
        <time>2020-02-23T16:11:10Z</time>
      </trkpt>
      <trkpt lat="38.9983890" lon="1.4331920">
        <ele>110.3</ele>
        <time>2020-02-23T16:11:11Z</time>
      </trkpt>
      <trkpt lat="38.9983910" lon="1.4331690">
        <ele>110.5</ele>
        <time>2020-02-23T16:11:12Z</time>
      </trkpt>
      <trkpt lat="38.9983900" lon="1.4331300">
        <ele>110.7</ele>
        <time>2020-02-23T16:11:13Z</time>
      </trkpt>
      <trkpt lat="38.9983990" lon="1.4330830">
        <ele>111.0</ele>
        <time>2020-02-23T16:11:14Z</time>
      </trkpt>
      <trkpt lat="38.9984020" lon="1.4330670">
        <ele>111.0</ele>
        <time>2020-02-23T16:11:15Z</time>
      </trkpt>
      <trkpt lat="38.9984030" lon="1.4330250">
        <ele>111.3</ele>
        <time>2020-02-23T16:11:16Z</time>
      </trkpt>
      <trkpt lat="38.9984030" lon="1.4330090">
        <ele>111.3</ele>
        <time>2020-02-23T16:11:17Z</time>
      </trkpt>
      <trkpt lat="38.9984040" lon="1.4329730">
        <ele>111.5</ele>
        <time>2020-02-23T16:11:18Z</time>
      </trkpt>
      <trkpt lat="38.9983990" lon="1.4329270">
        <ele>111.8</ele>
        <time>2020-02-23T16:11:19Z</time>
      </trkpt>
      <trkpt lat="38.9983970" lon="1.4329130">
        <ele>111.9</ele>
        <time>2020-02-23T16:11:20Z</time>
      </trkpt>
      <trkpt lat="38.9983980" lon="1.4328780">
        <ele>112.1</ele>
        <time>2020-02-23T16:11:21Z</time>
      </trkpt>
      <trkpt lat="38.9984020" lon="1.4328430">
        <ele>112.3</ele>
        <time>2020-02-23T16:11:22Z</time>
      </trkpt>
      <trkpt lat="38.9984010" lon="1.4327950">
        <ele>112.6</ele>
        <time>2020-02-23T16:11:23Z</time>
      </trkpt>
      <trkpt lat="38.9984010" lon="1.4327810">
        <ele>112.7</ele>
        <time>2020-02-23T16:11:24Z</time>
      </trkpt>
      <trkpt lat="38.9984040" lon="1.4327470">
        <ele>112.8</ele>
        <time>2020-02-23T16:11:25Z</time>
      </trkpt>
      <trkpt lat="38.9984080" lon="1.4327340">
        <ele>112.9</ele>
        <time>2020-02-23T16:11:26Z</time>
      </trkpt>
      <trkpt lat="38.9984180" lon="1.4327000">
        <ele>113.0</ele>
        <time>2020-02-23T16:11:27Z</time>
      </trkpt>
      <trkpt lat="38.9984230" lon="1.4326890">
        <ele>113.1</ele>
        <time>2020-02-23T16:11:28Z</time>
      </trkpt>
      <trkpt lat="38.9984310" lon="1.4326430">
        <ele>113.2</ele>
        <time>2020-02-23T16:11:29Z</time>
      </trkpt>
      <trkpt lat="38.9984320" lon="1.4326260">
        <ele>113.3</ele>
        <time>2020-02-23T16:11:30Z</time>
      </trkpt>
      <trkpt lat="38.9984420" lon="1.4325830">
        <ele>113.4</ele>
        <time>2020-02-23T16:11:31Z</time>
      </trkpt>
      <trkpt lat="38.9984430" lon="1.4325670">
        <ele>113.5</ele>
        <time>2020-02-23T16:11:32Z</time>
      </trkpt>
      <trkpt lat="38.9984450" lon="1.4325170">
        <ele>113.7</ele>
        <time>2020-02-23T16:11:33Z</time>
      </trkpt>
      <trkpt lat="38.9984460" lon="1.4324970">
        <ele>113.8</ele>
        <time>2020-02-23T16:11:34Z</time>
      </trkpt>
      <trkpt lat="38.9984520" lon="1.4324510">
        <ele>114.0</ele>
        <time>2020-02-23T16:11:35Z</time>
      </trkpt>
      <trkpt lat="38.9984590" lon="1.4324110">
        <ele>114.2</ele>
        <time>2020-02-23T16:11:36Z</time>
      </trkpt>
      <trkpt lat="38.9984620" lon="1.4323660">
        <ele>114.3</ele>
        <time>2020-02-23T16:11:37Z</time>
      </trkpt>
      <trkpt lat="38.9984690" lon="1.4323290">
        <ele>114.4</ele>
        <time>2020-02-23T16:11:38Z</time>
      </trkpt>
      <trkpt lat="38.9984710" lon="1.4322940">
        <ele>114.5</ele>
        <time>2020-02-23T16:11:39Z</time>
      </trkpt>
      <trkpt lat="38.9984660" lon="1.4322550">
        <ele>114.6</ele>
        <time>2020-02-23T16:11:40Z</time>
      </trkpt>
      <trkpt lat="38.9984640" lon="1.4322160">
        <ele>114.7</ele>
        <time>2020-02-23T16:11:41Z</time>
      </trkpt>
      <trkpt lat="38.9984710" lon="1.4321620">
        <ele>114.8</ele>
        <time>2020-02-23T16:11:42Z</time>
      </trkpt>
      <trkpt lat="38.9984770" lon="1.4321200">
        <ele>115.0</ele>
        <time>2020-02-23T16:11:43Z</time>
      </trkpt>
      <trkpt lat="38.9984750" lon="1.4320610">
        <ele>115.1</ele>
        <time>2020-02-23T16:11:44Z</time>
      </trkpt>
      <trkpt lat="38.9984740" lon="1.4320230">
        <ele>115.1</ele>
        <time>2020-02-23T16:11:45Z</time>
      </trkpt>
      <trkpt lat="38.9984760" lon="1.4319830">
        <ele>115.2</ele>
        <time>2020-02-23T16:11:46Z</time>
      </trkpt>
      <trkpt lat="38.9984760" lon="1.4319360">
        <ele>115.2</ele>
        <time>2020-02-23T16:11:47Z</time>
      </trkpt>
      <trkpt lat="38.9984790" lon="1.4318900">
        <ele>115.3</ele>
        <time>2020-02-23T16:11:48Z</time>
      </trkpt>
      <trkpt lat="38.9984870" lon="1.4318430">
        <ele>115.4</ele>
        <time>2020-02-23T16:11:49Z</time>
      </trkpt>
      <trkpt lat="38.9984860" lon="1.4317910">
        <ele>115.4</ele>
        <time>2020-02-23T16:11:50Z</time>
      </trkpt>
      <trkpt lat="38.9984860" lon="1.4317350">
        <ele>115.5</ele>
        <time>2020-02-23T16:11:51Z</time>
      </trkpt>
      <trkpt lat="38.9984920" lon="1.4316810">
        <ele>115.6</ele>
        <time>2020-02-23T16:11:52Z</time>
      </trkpt>
      <trkpt lat="38.9984930" lon="1.4316310">
        <ele>115.8</ele>
        <time>2020-02-23T16:11:53Z</time>
      </trkpt>
      <trkpt lat="38.9984980" lon="1.4315790">
        <ele>115.9</ele>
        <time>2020-02-23T16:11:54Z</time>
      </trkpt>
      <trkpt lat="38.9984970" lon="1.4315320">
        <ele>115.9</ele>
        <time>2020-02-23T16:11:55Z</time>
      </trkpt>
      <trkpt lat="38.9985000" lon="1.4314910">
        <ele>116.0</ele>
        <time>2020-02-23T16:11:56Z</time>
      </trkpt>
      <trkpt lat="38.9985040" lon="1.4314460">
        <ele>116.1</ele>
        <time>2020-02-23T16:11:57Z</time>
      </trkpt>
      <trkpt lat="38.9985090" lon="1.4314000">
        <ele>116.1</ele>
        <time>2020-02-23T16:11:58Z</time>
      </trkpt>
      <trkpt lat="38.9985120" lon="1.4313570">
        <ele>116.2</ele>
        <time>2020-02-23T16:11:59Z</time>
      </trkpt>
      <trkpt lat="38.9985180" lon="1.4313130">
        <ele>116.2</ele>
        <time>2020-02-23T16:12:00Z</time>
      </trkpt>
      <trkpt lat="38.9985210" lon="1.4312680">
        <ele>116.2</ele>
        <time>2020-02-23T16:12:01Z</time>
      </trkpt>
      <trkpt lat="38.9985200" lon="1.4312260">
        <ele>116.3</ele>
        <time>2020-02-23T16:12:02Z</time>
      </trkpt>
      <trkpt lat="38.9985220" lon="1.4311830">
        <ele>116.3</ele>
        <time>2020-02-23T16:12:03Z</time>
      </trkpt>
      <trkpt lat="38.9985170" lon="1.4311320">
        <ele>116.3</ele>
        <time>2020-02-23T16:12:04Z</time>
      </trkpt>
      <trkpt lat="38.9985150" lon="1.4310860">
        <ele>116.3</ele>
        <time>2020-02-23T16:12:05Z</time>
      </trkpt>
      <trkpt lat="38.9985130" lon="1.4310410">
        <ele>116.3</ele>
        <time>2020-02-23T16:12:06Z</time>
      </trkpt>
      <trkpt lat="38.9985070" lon="1.4309960">
        <ele>116.4</ele>
        <time>2020-02-23T16:12:07Z</time>
      </trkpt>
      <trkpt lat="38.9984990" lon="1.4309500">
        <ele>116.6</ele>
        <time>2020-02-23T16:12:08Z</time>
      </trkpt>
      <trkpt lat="38.9984880" lon="1.4309070">
        <ele>116.8</ele>
        <time>2020-02-23T16:12:09Z</time>
      </trkpt>
      <trkpt lat="38.9984750" lon="1.4308590">
        <ele>117.0</ele>
        <time>2020-02-23T16:12:10Z</time>
      </trkpt>
      <trkpt lat="38.9984660" lon="1.4308220">
        <ele>117.2</ele>
        <time>2020-02-23T16:12:11Z</time>
      </trkpt>
      <trkpt lat="38.9984560" lon="1.4307780">
        <ele>117.4</ele>
        <time>2020-02-23T16:12:12Z</time>
      </trkpt>
      <trkpt lat="38.9984450" lon="1.4307300">
        <ele>117.6</ele>
        <time>2020-02-23T16:12:13Z</time>
      </trkpt>
      <trkpt lat="38.9984320" lon="1.4306880">
        <ele>117.8</ele>
        <time>2020-02-23T16:12:14Z</time>
      </trkpt>
      <trkpt lat="38.9984290" lon="1.4306510">
        <ele>117.9</ele>
        <time>2020-02-23T16:12:15Z</time>
      </trkpt>
      <trkpt lat="38.9984240" lon="1.4306150">
        <ele>118.1</ele>
        <time>2020-02-23T16:12:16Z</time>
      </trkpt>
      <trkpt lat="38.9984280" lon="1.4305670">
        <ele>118.3</ele>
        <time>2020-02-23T16:12:17Z</time>
      </trkpt>
      <trkpt lat="38.9984270" lon="1.4305520">
        <ele>118.3</ele>
        <time>2020-02-23T16:12:18Z</time>
      </trkpt>
      <trkpt lat="38.9984260" lon="1.4305120">
        <ele>118.5</ele>
        <time>2020-02-23T16:12:19Z</time>
      </trkpt>
      <trkpt lat="38.9984200" lon="1.4304730">
        <ele>118.6</ele>
        <time>2020-02-23T16:12:20Z</time>
      </trkpt>
      <trkpt lat="38.9984130" lon="1.4304310">
        <ele>118.6</ele>
        <time>2020-02-23T16:12:21Z</time>
      </trkpt>
      <trkpt lat="38.9984070" lon="1.4304150">
        <ele>118.7</ele>
        <time>2020-02-23T16:12:22Z</time>
      </trkpt>
      <trkpt lat="38.9983940" lon="1.4303830">
        <ele>118.7</ele>
        <time>2020-02-23T16:12:23Z</time>
      </trkpt>
      <trkpt lat="38.9983680" lon="1.4303610">
        <ele>118.8</ele>
        <time>2020-02-23T16:12:24Z</time>
      </trkpt>
      <trkpt lat="38.9983500" lon="1.4303340">
        <ele>118.9</ele>
        <time>2020-02-23T16:12:25Z</time>
      </trkpt>
      <trkpt lat="38.9983330" lon="1.4303050">
        <ele>118.9</ele>
        <time>2020-02-23T16:12:26Z</time>
      </trkpt>
      <trkpt lat="38.9983130" lon="1.4302790">
        <ele>119.0</ele>
        <time>2020-02-23T16:12:27Z</time>
      </trkpt>
      <trkpt lat="38.9982870" lon="1.4302530">
        <ele>119.1</ele>
        <time>2020-02-23T16:12:28Z</time>
      </trkpt>
      <trkpt lat="38.9982790" lon="1.4302500">
        <ele>119.1</ele>
        <time>2020-02-23T16:12:29Z</time>
      </trkpt>
      <trkpt lat="38.9982400" lon="1.4302640">
        <ele>119.2</ele>
        <time>2020-02-23T16:12:30Z</time>
      </trkpt>
      <trkpt lat="38.9982230" lon="1.4302690">
        <ele>119.2</ele>
        <time>2020-02-23T16:12:31Z</time>
      </trkpt>
      <trkpt lat="38.9981880" lon="1.4302820">
        <ele>119.2</ele>
        <time>2020-02-23T16:12:32Z</time>
      </trkpt>
      <trkpt lat="38.9981490" lon="1.4302910">
        <ele>119.2</ele>
        <time>2020-02-23T16:12:33Z</time>
      </trkpt>
      <trkpt lat="38.9981130" lon="1.4303000">
        <ele>119.1</ele>
        <time>2020-02-23T16:12:34Z</time>
      </trkpt>
      <trkpt lat="38.9980680" lon="1.4303110">
        <ele>119.0</ele>
        <time>2020-02-23T16:12:35Z</time>
      </trkpt>
      <trkpt lat="38.9980240" lon="1.4303160">
        <ele>118.9</ele>
        <time>2020-02-23T16:12:36Z</time>
      </trkpt>
      <trkpt lat="38.9979820" lon="1.4303220">
        <ele>118.8</ele>
        <time>2020-02-23T16:12:37Z</time>
      </trkpt>
      <trkpt lat="38.9979460" lon="1.4303250">
        <ele>118.8</ele>
        <time>2020-02-23T16:12:38Z</time>
      </trkpt>
      <trkpt lat="38.9979130" lon="1.4303310">
        <ele>118.7</ele>
        <time>2020-02-23T16:12:39Z</time>
      </trkpt>
      <trkpt lat="38.9978780" lon="1.4303410">
        <ele>118.7</ele>
        <time>2020-02-23T16:12:40Z</time>
      </trkpt>
      <trkpt lat="38.9978430" lon="1.4303500">
        <ele>118.6</ele>
        <time>2020-02-23T16:12:41Z</time>
      </trkpt>
      <trkpt lat="38.9978080" lon="1.4303550">
        <ele>118.5</ele>
        <time>2020-02-23T16:12:42Z</time>
      </trkpt>
      <trkpt lat="38.9977690" lon="1.4303740">
        <ele>118.5</ele>
        <time>2020-02-23T16:12:43Z</time>
      </trkpt>
      <trkpt lat="38.9977280" lon="1.4303850">
        <ele>118.4</ele>
        <time>2020-02-23T16:12:44Z</time>
      </trkpt>
      <trkpt lat="38.9976880" lon="1.4303790">
        <ele>118.3</ele>
        <time>2020-02-23T16:12:45Z</time>
      </trkpt>
      <trkpt lat="38.9976500" lon="1.4303550">
        <ele>118.7</ele>
        <time>2020-02-23T16:12:46Z</time>
      </trkpt>
      <trkpt lat="38.9976270" lon="1.4303190">
        <ele>118.9</ele>
        <time>2020-02-23T16:12:47Z</time>
      </trkpt>
      <trkpt lat="38.9976150" lon="1.4302800">
        <ele>119.0</ele>
        <time>2020-02-23T16:12:48Z</time>
      </trkpt>
      <trkpt lat="38.9976100" lon="1.4302360">
        <ele>119.4</ele>
        <time>2020-02-23T16:12:49Z</time>
      </trkpt>
      <trkpt lat="38.9976110" lon="1.4301910">
        <ele>119.7</ele>
        <time>2020-02-23T16:12:50Z</time>
      </trkpt>
      <trkpt lat="38.9976100" lon="1.4301520">
        <ele>119.9</ele>
        <time>2020-02-23T16:12:51Z</time>
      </trkpt>
      <trkpt lat="38.9976130" lon="1.4301080">
        <ele>120.1</ele>
        <time>2020-02-23T16:12:52Z</time>
      </trkpt>
      <trkpt lat="38.9976130" lon="1.4300680">
        <ele>120.3</ele>
        <time>2020-02-23T16:12:53Z</time>
      </trkpt>
      <trkpt lat="38.9976160" lon="1.4300330">
        <ele>120.4</ele>
        <time>2020-02-23T16:12:54Z</time>
      </trkpt>
      <trkpt lat="38.9976300" lon="1.4299900">
        <ele>120.6</ele>
        <time>2020-02-23T16:12:55Z</time>
      </trkpt>
      <trkpt lat="38.9976350" lon="1.4299710">
        <ele>120.7</ele>
        <time>2020-02-23T16:12:56Z</time>
      </trkpt>
      <trkpt lat="38.9976440" lon="1.4299370">
        <ele>120.9</ele>
        <time>2020-02-23T16:12:57Z</time>
      </trkpt>
      <trkpt lat="38.9976460" lon="1.4298990">
        <ele>121.0</ele>
        <time>2020-02-23T16:12:58Z</time>
      </trkpt>
      <trkpt lat="38.9976550" lon="1.4298610">
        <ele>121.2</ele>
        <time>2020-02-23T16:12:59Z</time>
      </trkpt>
      <trkpt lat="38.9976640" lon="1.4298280">
        <ele>121.3</ele>
        <time>2020-02-23T16:13:00Z</time>
      </trkpt>
      <trkpt lat="38.9976780" lon="1.4297820">
        <ele>121.5</ele>
        <time>2020-02-23T16:13:01Z</time>
      </trkpt>
      <trkpt lat="38.9976800" lon="1.4297650">
        <ele>121.6</ele>
        <time>2020-02-23T16:13:02Z</time>
      </trkpt>
      <trkpt lat="38.9976840" lon="1.4297190">
        <ele>121.8</ele>
        <time>2020-02-23T16:13:03Z</time>
      </trkpt>
      <trkpt lat="38.9976860" lon="1.4297030">
        <ele>121.8</ele>
        <time>2020-02-23T16:13:04Z</time>
      </trkpt>
      <trkpt lat="38.9976950" lon="1.4296570">
        <ele>122.0</ele>
        <time>2020-02-23T16:13:05Z</time>
      </trkpt>
      <trkpt lat="38.9976990" lon="1.4296440">
        <ele>122.0</ele>
        <time>2020-02-23T16:13:06Z</time>
      </trkpt>
      <trkpt lat="38.9977020" lon="1.4296060">
        <ele>122.1</ele>
        <time>2020-02-23T16:13:07Z</time>
      </trkpt>
      <trkpt lat="38.9977130" lon="1.4295580">
        <ele>122.3</ele>
        <time>2020-02-23T16:13:08Z</time>
      </trkpt>
      <trkpt lat="38.9977140" lon="1.4295400">
        <ele>122.3</ele>
        <time>2020-02-23T16:13:09Z</time>
      </trkpt>
      <trkpt lat="38.9977230" lon="1.4294880">
        <ele>122.5</ele>
        <time>2020-02-23T16:13:10Z</time>
      </trkpt>
      <trkpt lat="38.9977280" lon="1.4294700">
        <ele>122.6</ele>
        <time>2020-02-23T16:13:11Z</time>
      </trkpt>
      <trkpt lat="38.9977340" lon="1.4294170">
        <ele>122.7</ele>
        <time>2020-02-23T16:13:12Z</time>
      </trkpt>
      <trkpt lat="38.9977360" lon="1.4293980">
        <ele>122.8</ele>
        <time>2020-02-23T16:13:13Z</time>
      </trkpt>
      <trkpt lat="38.9977450" lon="1.4293610">
        <ele>122.9</ele>
        <time>2020-02-23T16:13:14Z</time>
      </trkpt>
      <trkpt lat="38.9977530" lon="1.4293110">
        <ele>123.1</ele>
        <time>2020-02-23T16:13:15Z</time>
      </trkpt>
      <trkpt lat="38.9977550" lon="1.4292920">
        <ele>123.1</ele>
        <time>2020-02-23T16:13:16Z</time>
      </trkpt>
      <trkpt lat="38.9977590" lon="1.4292520">
        <ele>123.2</ele>
        <time>2020-02-23T16:13:17Z</time>
      </trkpt>
      <trkpt lat="38.9977660" lon="1.4292120">
        <ele>123.3</ele>
        <time>2020-02-23T16:13:18Z</time>
      </trkpt>
      <trkpt lat="38.9977780" lon="1.4291700">
        <ele>123.3</ele>
        <time>2020-02-23T16:13:19Z</time>
      </trkpt>
      <trkpt lat="38.9977890" lon="1.4291350">
        <ele>123.4</ele>
        <time>2020-02-23T16:13:20Z</time>
      </trkpt>
      <trkpt lat="38.9978020" lon="1.4290820">
        <ele>123.5</ele>
        <time>2020-02-23T16:13:21Z</time>
      </trkpt>
      <trkpt lat="38.9978080" lon="1.4290410">
        <ele>123.6</ele>
        <time>2020-02-23T16:13:22Z</time>
      </trkpt>
      <trkpt lat="38.9978130" lon="1.4289980">
        <ele>123.6</ele>
        <time>2020-02-23T16:13:23Z</time>
      </trkpt>
      <trkpt lat="38.9978190" lon="1.4289620">
        <ele>123.7</ele>
        <time>2020-02-23T16:13:24Z</time>
      </trkpt>
      <trkpt lat="38.9978200" lon="1.4289200">
        <ele>123.7</ele>
        <time>2020-02-23T16:13:25Z</time>
      </trkpt>
      <trkpt lat="38.9978300" lon="1.4288830">
        <ele>123.8</ele>
        <time>2020-02-23T16:13:26Z</time>
      </trkpt>
      <trkpt lat="38.9978360" lon="1.4288280">
        <ele>123.8</ele>
        <time>2020-02-23T16:13:27Z</time>
      </trkpt>
      <trkpt lat="38.9978380" lon="1.4288080">
        <ele>123.8</ele>
        <time>2020-02-23T16:13:28Z</time>
      </trkpt>
      <trkpt lat="38.9978320" lon="1.4287680">
        <ele>123.9</ele>
        <time>2020-02-23T16:13:29Z</time>
      </trkpt>
      <trkpt lat="38.9978340" lon="1.4287270">
        <ele>123.9</ele>
        <time>2020-02-23T16:13:30Z</time>
      </trkpt>
      <trkpt lat="38.9978280" lon="1.4287160">
        <ele>124.0</ele>
        <time>2020-02-23T16:13:31Z</time>
      </trkpt>
      <trkpt lat="38.9978260" lon="1.4286710">
        <ele>124.1</ele>
        <time>2020-02-23T16:13:32Z</time>
      </trkpt>
      <trkpt lat="38.9978270" lon="1.4286570">
        <ele>124.1</ele>
        <time>2020-02-23T16:13:33Z</time>
      </trkpt>
      <trkpt lat="38.9978480" lon="1.4286180">
        <ele>124.1</ele>
        <time>2020-02-23T16:13:34Z</time>
      </trkpt>
      <trkpt lat="38.9978540" lon="1.4286060">
        <ele>124.1</ele>
        <time>2020-02-23T16:13:35Z</time>
      </trkpt>
      <trkpt lat="38.9978830" lon="1.4285850">
        <ele>124.1</ele>
        <time>2020-02-23T16:13:36Z</time>
      </trkpt>
      <trkpt lat="38.9978930" lon="1.4285800">
        <ele>124.1</ele>
        <time>2020-02-23T16:13:37Z</time>
      </trkpt>
      <trkpt lat="38.9979230" lon="1.4285620">
        <ele>124.2</ele>
        <time>2020-02-23T16:13:38Z</time>
      </trkpt>
      <trkpt lat="38.9979320" lon="1.4285590">
        <ele>124.2</ele>
        <time>2020-02-23T16:13:39Z</time>
      </trkpt>
      <trkpt lat="38.9979620" lon="1.4285710">
        <ele>124.2</ele>
        <time>2020-02-23T16:13:40Z</time>
      </trkpt>
      <trkpt lat="38.9979700" lon="1.4285760">
        <ele>124.2</ele>
        <time>2020-02-23T16:13:41Z</time>
      </trkpt>
      <trkpt lat="38.9979980" lon="1.4285820">
        <ele>124.3</ele>
        <time>2020-02-23T16:13:42Z</time>
      </trkpt>
      <trkpt lat="38.9980080" lon="1.4285860">
        <ele>124.2</ele>
        <time>2020-02-23T16:13:43Z</time>
      </trkpt>
      <trkpt lat="38.9980280" lon="1.4285870">
        <ele>124.2</ele>
        <time>2020-02-23T16:13:44Z</time>
      </trkpt>
      <trkpt lat="38.9980360" lon="1.4285900">
        <ele>124.2</ele>
        <time>2020-02-23T16:13:45Z</time>
      </trkpt>
      <trkpt lat="38.9980480" lon="1.4285940">
        <ele>124.2</ele>
        <time>2020-02-23T16:13:46Z</time>
      </trkpt>
      <trkpt lat="38.9980470" lon="1.4285940">
        <ele>124.2</ele>
        <time>2020-02-23T16:13:47Z</time>
      </trkpt>
      <trkpt lat="38.9980450" lon="1.4285960">
        <ele>124.2</ele>
        <time>2020-02-23T16:13:48Z</time>
      </trkpt>
      <trkpt lat="38.9980480" lon="1.4285970">
        <ele>124.2</ele>
        <time>2020-02-23T16:13:49Z</time>
      </trkpt>
      <trkpt lat="38.9980470" lon="1.4285900">
        <ele>124.2</ele>
        <time>2020-02-23T16:13:50Z</time>
      </trkpt>
      <trkpt lat="38.9980420" lon="1.4285890">
        <ele>124.2</ele>
        <time>2020-02-23T16:13:51Z</time>
      </trkpt>
      <trkpt lat="38.9980440" lon="1.4285900">
        <ele>124.2</ele>
        <time>2020-02-23T16:13:52Z</time>
      </trkpt>
      <trkpt lat="38.9980390" lon="1.4285940">
        <ele>124.2</ele>
        <time>2020-02-23T16:13:53Z</time>
      </trkpt>
      <trkpt lat="38.9980380" lon="1.4285860">
        <ele>124.2</ele>
        <time>2020-02-23T16:13:54Z</time>
      </trkpt>
      <trkpt lat="38.9980370" lon="1.4285820">
        <ele>124.2</ele>
        <time>2020-02-23T16:13:55Z</time>
      </trkpt>
      <trkpt lat="38.9980190" lon="1.4285910">
        <ele>124.2</ele>
        <time>2020-02-23T16:13:56Z</time>
      </trkpt>
      <trkpt lat="38.9980130" lon="1.4285940">
        <ele>124.2</ele>
        <time>2020-02-23T16:13:57Z</time>
      </trkpt>
      <trkpt lat="38.9980090" lon="1.4285980">
        <ele>124.1</ele>
        <time>2020-02-23T16:13:58Z</time>
      </trkpt>
      <trkpt lat="38.9980110" lon="1.4285940">
        <ele>124.1</ele>
        <time>2020-02-23T16:13:59Z</time>
      </trkpt>
      <trkpt lat="38.9980140" lon="1.4285960">
        <ele>124.1</ele>
        <time>2020-02-23T16:14:00Z</time>
      </trkpt>
      <trkpt lat="38.9980190" lon="1.4286000">
        <ele>124.1</ele>
        <time>2020-02-23T16:14:01Z</time>
      </trkpt>
      <trkpt lat="38.9980160" lon="1.4286110">
        <ele>124.1</ele>
        <time>2020-02-23T16:14:02Z</time>
      </trkpt>
      <trkpt lat="38.9980080" lon="1.4286080">
        <ele>124.1</ele>
        <time>2020-02-23T16:14:03Z</time>
      </trkpt>
      <trkpt lat="38.9980070" lon="1.4286070">
        <ele>124.1</ele>
        <time>2020-02-23T16:14:04Z</time>
      </trkpt>
      <trkpt lat="38.9980070" lon="1.4286070">
        <ele>124.1</ele>
        <time>2020-02-23T16:14:05Z</time>
      </trkpt>
      <trkpt lat="38.9980070" lon="1.4286070">
        <ele>124.1</ele>
        <time>2020-02-23T16:14:06Z</time>
      </trkpt>
      <trkpt lat="38.9980070" lon="1.4286070">
        <ele>124.1</ele>
        <time>2020-02-23T16:14:07Z</time>
      </trkpt>
      <trkpt lat="38.9980070" lon="1.4286070">
        <ele>124.1</ele>
        <time>2020-02-23T16:14:08Z</time>
      </trkpt>
      <trkpt lat="38.9980070" lon="1.4286070">
        <ele>124.1</ele>
        <time>2020-02-23T16:14:09Z</time>
      </trkpt>
      <trkpt lat="38.9980070" lon="1.4286070">
        <ele>124.1</ele>
        <time>2020-02-23T16:14:10Z</time>
      </trkpt>
      <trkpt lat="38.9980070" lon="1.4286070">
        <ele>124.1</ele>
        <time>2020-02-23T16:14:11Z</time>
      </trkpt>
      <trkpt lat="38.9980070" lon="1.4286070">
        <ele>124.1</ele>
        <time>2020-02-23T16:14:12Z</time>
      </trkpt>
      <trkpt lat="38.9980070" lon="1.4286070">
        <ele>124.1</ele>
        <time>2020-02-23T16:14:13Z</time>
      </trkpt>
      <trkpt lat="38.9980070" lon="1.4286070">
        <ele>124.1</ele>
        <time>2020-02-23T16:14:14Z</time>
      </trkpt>
      <trkpt lat="38.9979940" lon="1.4283590">
        <ele>123.9</ele>
        <time>2020-02-23T16:20:52Z</time>
      </trkpt>
      <trkpt lat="38.9979970" lon="1.4283480">
        <ele>123.9</ele>
        <time>2020-02-23T16:20:53Z</time>
      </trkpt>
      <trkpt lat="38.9980030" lon="1.4283460">
        <ele>123.9</ele>
        <time>2020-02-23T16:20:54Z</time>
      </trkpt>
      <trkpt lat="38.9980080" lon="1.4283420">
        <ele>123.9</ele>
        <time>2020-02-23T16:20:55Z</time>
      </trkpt>
      <trkpt lat="38.9980120" lon="1.4283390">
        <ele>123.9</ele>
        <time>2020-02-23T16:20:56Z</time>
      </trkpt>
      <trkpt lat="38.9980120" lon="1.4283360">
        <ele>123.9</ele>
        <time>2020-02-23T16:20:57Z</time>
      </trkpt>
      <trkpt lat="38.9980090" lon="1.4283380">
        <ele>123.9</ele>
        <time>2020-02-23T16:20:58Z</time>
      </trkpt>
      <trkpt lat="38.9980050" lon="1.4283410">
        <ele>123.9</ele>
        <time>2020-02-23T16:20:59Z</time>
      </trkpt>
      <trkpt lat="38.9980050" lon="1.4283400">
        <ele>123.9</ele>
        <time>2020-02-23T16:21:00Z</time>
      </trkpt>
      <trkpt lat="38.9980050" lon="1.4283400">
        <ele>123.9</ele>
        <time>2020-02-23T16:21:01Z</time>
      </trkpt>
      <trkpt lat="38.9980050" lon="1.4283400">
        <ele>123.9</ele>
        <time>2020-02-23T16:21:02Z</time>
      </trkpt>
      <trkpt lat="38.9980050" lon="1.4283390">
        <ele>123.9</ele>
        <time>2020-02-23T16:21:03Z</time>
      </trkpt>
      <trkpt lat="38.9980050" lon="1.4283390">
        <ele>123.9</ele>
        <time>2020-02-23T16:21:04Z</time>
      </trkpt>
      <trkpt lat="38.9980050" lon="1.4283390">
        <ele>123.9</ele>
        <time>2020-02-23T16:21:05Z</time>
      </trkpt>
      <trkpt lat="38.9980050" lon="1.4283390">
        <ele>123.9</ele>
        <time>2020-02-23T16:21:06Z</time>
      </trkpt>
      <trkpt lat="38.9980290" lon="1.4283060">
        <ele>123.8</ele>
        <time>2020-02-23T16:21:43Z</time>
      </trkpt>
      <trkpt lat="38.9980330" lon="1.4282980">
        <ele>123.8</ele>
        <time>2020-02-23T16:21:44Z</time>
      </trkpt>
      <trkpt lat="38.9980380" lon="1.4282920">
        <ele>123.8</ele>
        <time>2020-02-23T16:21:45Z</time>
      </trkpt>
      <trkpt lat="38.9980400" lon="1.4282910">
        <ele>123.8</ele>
        <time>2020-02-23T16:21:46Z</time>
      </trkpt>
      <trkpt lat="38.9980420" lon="1.4282870">
        <ele>123.8</ele>
        <time>2020-02-23T16:21:47Z</time>
      </trkpt>
      <trkpt lat="38.9980430" lon="1.4282860">
        <ele>123.8</ele>
        <time>2020-02-23T16:21:48Z</time>
      </trkpt>
      <trkpt lat="38.9980450" lon="1.4282850">
        <ele>123.8</ele>
        <time>2020-02-23T16:21:49Z</time>
      </trkpt>
      <trkpt lat="38.9980470" lon="1.4282860">
        <ele>123.8</ele>
        <time>2020-02-23T16:21:50Z</time>
      </trkpt>
      <trkpt lat="38.9980500" lon="1.4282830">
        <ele>123.8</ele>
        <time>2020-02-23T16:21:51Z</time>
      </trkpt>
      <trkpt lat="38.9980520" lon="1.4282790">
        <ele>123.8</ele>
        <time>2020-02-23T16:21:52Z</time>
      </trkpt>
      <trkpt lat="38.9980500" lon="1.4282800">
        <ele>123.8</ele>
        <time>2020-02-23T16:21:53Z</time>
      </trkpt>
      <trkpt lat="38.9980490" lon="1.4282820">
        <ele>123.8</ele>
        <time>2020-02-23T16:21:54Z</time>
      </trkpt>
      <trkpt lat="38.9980500" lon="1.4282850">
        <ele>123.8</ele>
        <time>2020-02-23T16:21:55Z</time>
      </trkpt>
      <trkpt lat="38.9980500" lon="1.4282790">
        <ele>123.8</ele>
        <time>2020-02-23T16:21:56Z</time>
      </trkpt>
      <trkpt lat="38.9980520" lon="1.4282700">
        <ele>123.8</ele>
        <time>2020-02-23T16:21:57Z</time>
      </trkpt>
      <trkpt lat="38.9980520" lon="1.4282650">
        <ele>123.8</ele>
        <time>2020-02-23T16:21:58Z</time>
      </trkpt>
      <trkpt lat="38.9980490" lon="1.4282720">
        <ele>123.8</ele>
        <time>2020-02-23T16:21:59Z</time>
      </trkpt>
      <trkpt lat="38.9980480" lon="1.4282770">
        <ele>123.8</ele>
        <time>2020-02-23T16:22:00Z</time>
      </trkpt>
      <trkpt lat="38.9980490" lon="1.4282780">
        <ele>123.8</ele>
        <time>2020-02-23T16:22:01Z</time>
      </trkpt>
      <trkpt lat="38.9980470" lon="1.4282870">
        <ele>123.8</ele>
        <time>2020-02-23T16:22:02Z</time>
      </trkpt>
      <trkpt lat="38.9980470" lon="1.4282850">
        <ele>123.8</ele>
        <time>2020-02-23T16:22:03Z</time>
      </trkpt>
      <trkpt lat="38.9980440" lon="1.4282890">
        <ele>123.8</ele>
        <time>2020-02-23T16:22:04Z</time>
      </trkpt>
      <trkpt lat="38.9980430" lon="1.4282900">
        <ele>123.8</ele>
        <time>2020-02-23T16:22:05Z</time>
      </trkpt>
      <trkpt lat="38.9980420" lon="1.4282870">
        <ele>123.8</ele>
        <time>2020-02-23T16:22:06Z</time>
      </trkpt>
      <trkpt lat="38.9980430" lon="1.4282840">
        <ele>123.8</ele>
        <time>2020-02-23T16:22:07Z</time>
      </trkpt>
      <trkpt lat="38.9980430" lon="1.4282840">
        <ele>123.8</ele>
        <time>2020-02-23T16:22:08Z</time>
      </trkpt>
      <trkpt lat="38.9980420" lon="1.4282830">
        <ele>123.8</ele>
        <time>2020-02-23T16:22:09Z</time>
      </trkpt>
      <trkpt lat="38.9980420" lon="1.4282830">
        <ele>123.8</ele>
        <time>2020-02-23T16:22:10Z</time>
      </trkpt>
      <trkpt lat="38.9980420" lon="1.4282830">
        <ele>123.8</ele>
        <time>2020-02-23T16:22:11Z</time>
      </trkpt>
      <trkpt lat="38.9980420" lon="1.4282820">
        <ele>123.8</ele>
        <time>2020-02-23T16:22:12Z</time>
      </trkpt>
      <trkpt lat="38.9980420" lon="1.4282820">
        <ele>123.8</ele>
        <time>2020-02-23T16:22:13Z</time>
      </trkpt>
      <trkpt lat="38.9980420" lon="1.4282820">
        <ele>123.8</ele>
        <time>2020-02-23T16:22:14Z</time>
      </trkpt>
      <trkpt lat="38.9980420" lon="1.4282820">
        <ele>123.8</ele>
        <time>2020-02-23T16:22:15Z</time>
      </trkpt>
      <trkpt lat="38.9980420" lon="1.4282820">
        <ele>123.8</ele>
        <time>2020-02-23T16:22:16Z</time>
      </trkpt>
      <trkpt lat="38.9980420" lon="1.4282810">
        <ele>123.8</ele>
        <time>2020-02-23T16:22:17Z</time>
      </trkpt>
      <trkpt lat="38.9977480" lon="1.4293210">
        <ele>123.0</ele>
        <time>2020-02-23T16:35:51Z</time>
      </trkpt>
      <trkpt lat="38.9977640" lon="1.4291470">
        <ele>123.4</ele>
        <time>2020-02-23T16:35:52Z</time>
      </trkpt>
      <trkpt lat="38.9977830" lon="1.4290030">
        <ele>123.6</ele>
        <time>2020-02-23T16:35:53Z</time>
      </trkpt>
      <trkpt lat="38.9978000" lon="1.4288680">
        <ele>123.7</ele>
        <time>2020-02-23T16:35:54Z</time>
      </trkpt>
      <trkpt lat="38.9978160" lon="1.4288520">
        <ele>123.8</ele>
        <time>2020-02-23T16:35:55Z</time>
      </trkpt>
      <trkpt lat="38.9978210" lon="1.4288600">
        <ele>123.8</ele>
        <time>2020-02-23T16:35:56Z</time>
      </trkpt>
      <trkpt lat="38.9978310" lon="1.4288650">
        <ele>123.8</ele>
        <time>2020-02-23T16:35:57Z</time>
      </trkpt>
      <trkpt lat="38.9978360" lon="1.4288690">
        <ele>123.8</ele>
        <time>2020-02-23T16:35:58Z</time>
      </trkpt>
      <trkpt lat="38.9978430" lon="1.4288730">
        <ele>123.8</ele>
        <time>2020-02-23T16:35:59Z</time>
      </trkpt>
      <trkpt lat="38.9978490" lon="1.4288790">
        <ele>123.8</ele>
        <time>2020-02-23T16:36:00Z</time>
      </trkpt>
      <trkpt lat="38.9978490" lon="1.4288870">
        <ele>123.8</ele>
        <time>2020-02-23T16:36:01Z</time>
      </trkpt>
      <trkpt lat="38.9978490" lon="1.4288890">
        <ele>123.8</ele>
        <time>2020-02-23T16:36:02Z</time>
      </trkpt>
      <trkpt lat="38.9978500" lon="1.4288900">
        <ele>123.8</ele>
        <time>2020-02-23T16:36:03Z</time>
      </trkpt>
      <trkpt lat="38.9978500" lon="1.4288910">
        <ele>123.8</ele>
        <time>2020-02-23T16:36:04Z</time>
      </trkpt>
      <trkpt lat="38.9978530" lon="1.4288810">
        <ele>123.8</ele>
        <time>2020-02-23T16:36:05Z</time>
      </trkpt>
      <trkpt lat="38.9978570" lon="1.4288740">
        <ele>123.8</ele>
        <time>2020-02-23T16:36:06Z</time>
      </trkpt>
      <trkpt lat="38.9978580" lon="1.4288710">
        <ele>123.8</ele>
        <time>2020-02-23T16:36:07Z</time>
      </trkpt>
      <trkpt lat="38.9978580" lon="1.4288730">
        <ele>123.8</ele>
        <time>2020-02-23T16:36:08Z</time>
      </trkpt>
      <trkpt lat="38.9978580" lon="1.4288730">
        <ele>123.8</ele>
        <time>2020-02-23T16:36:09Z</time>
      </trkpt>
      <trkpt lat="38.9978580" lon="1.4288730">
        <ele>123.8</ele>
        <time>2020-02-23T16:36:10Z</time>
      </trkpt>
      <trkpt lat="38.9978580" lon="1.4288730">
        <ele>123.8</ele>
        <time>2020-02-23T16:36:11Z</time>
      </trkpt>
      <trkpt lat="38.9978580" lon="1.4288730">
        <ele>123.8</ele>
        <time>2020-02-23T16:36:12Z</time>
      </trkpt>
      <trkpt lat="38.9978990" lon="1.4286640">
        <ele>124.0</ele>
        <time>2020-02-23T16:38:56Z</time>
      </trkpt>
      <trkpt lat="38.9979040" lon="1.4286300">
        <ele>124.1</ele>
        <time>2020-02-23T16:38:57Z</time>
      </trkpt>
      <trkpt lat="38.9979020" lon="1.4285930">
        <ele>124.1</ele>
        <time>2020-02-23T16:38:58Z</time>
      </trkpt>
      <trkpt lat="38.9979000" lon="1.4285810">
        <ele>124.1</ele>
        <time>2020-02-23T16:38:59Z</time>
      </trkpt>
      <trkpt lat="38.9978950" lon="1.4285350">
        <ele>124.2</ele>
        <time>2020-02-23T16:39:00Z</time>
      </trkpt>
      <trkpt lat="38.9978940" lon="1.4285180">
        <ele>124.2</ele>
        <time>2020-02-23T16:39:01Z</time>
      </trkpt>
      <trkpt lat="38.9978960" lon="1.4284730">
        <ele>124.2</ele>
        <time>2020-02-23T16:39:02Z</time>
      </trkpt>
      <trkpt lat="38.9979000" lon="1.4284600">
        <ele>124.2</ele>
        <time>2020-02-23T16:39:03Z</time>
      </trkpt>
      <trkpt lat="38.9978970" lon="1.4284390">
        <ele>124.2</ele>
        <time>2020-02-23T16:39:04Z</time>
      </trkpt>
      <trkpt lat="38.9979010" lon="1.4284180">
        <ele>124.1</ele>
        <time>2020-02-23T16:39:05Z</time>
      </trkpt>
      <trkpt lat="38.9979110" lon="1.4284190">
        <ele>124.1</ele>
        <time>2020-02-23T16:39:06Z</time>
      </trkpt>
      <trkpt lat="38.9979170" lon="1.4284140">
        <ele>124.0</ele>
        <time>2020-02-23T16:39:07Z</time>
      </trkpt>
      <trkpt lat="38.9979240" lon="1.4284090">
        <ele>124.0</ele>
        <time>2020-02-23T16:39:08Z</time>
      </trkpt>
      <trkpt lat="38.9979310" lon="1.4284040">
        <ele>124.0</ele>
        <time>2020-02-23T16:39:09Z</time>
      </trkpt>
      <trkpt lat="38.9979370" lon="1.4283990">
        <ele>124.0</ele>
        <time>2020-02-23T16:39:10Z</time>
      </trkpt>
      <trkpt lat="38.9979440" lon="1.4283940">
        <ele>123.9</ele>
        <time>2020-02-23T16:39:11Z</time>
      </trkpt>
      <trkpt lat="38.9979510" lon="1.4283890">
        <ele>123.9</ele>
        <time>2020-02-23T16:39:12Z</time>
      </trkpt>
      <trkpt lat="38.9979570" lon="1.4283840">
        <ele>123.9</ele>
        <time>2020-02-23T16:39:13Z</time>
      </trkpt>
      <trkpt lat="38.9979640" lon="1.4283790">
        <ele>123.9</ele>
        <time>2020-02-23T16:39:14Z</time>
      </trkpt>
      <trkpt lat="38.9979710" lon="1.4283740">
        <ele>123.8</ele>
        <time>2020-02-23T16:39:15Z</time>
      </trkpt>
      <trkpt lat="38.9979770" lon="1.4283690">
        <ele>123.8</ele>
        <time>2020-02-23T16:39:44Z</time>
      </trkpt>
      <trkpt lat="38.9979840" lon="1.4283640">
        <ele>123.8</ele>
        <time>2020-02-23T16:39:45Z</time>
      </trkpt>
      <trkpt lat="38.9979870" lon="1.4283130">
        <ele>123.7</ele>
        <time>2020-02-23T16:39:46Z</time>
      </trkpt>
      <trkpt lat="38.9980030" lon="1.4282360">
        <ele>123.6</ele>
        <time>2020-02-23T16:39:47Z</time>
      </trkpt>
      <trkpt lat="38.9980110" lon="1.4281740">
        <ele>123.5</ele>
        <time>2020-02-23T16:39:48Z</time>
      </trkpt>
      <trkpt lat="38.9980140" lon="1.4281290">
        <ele>123.4</ele>
        <time>2020-02-23T16:39:49Z</time>
      </trkpt>
      <trkpt lat="38.9980130" lon="1.4280770">
        <ele>123.4</ele>
        <time>2020-02-23T16:39:50Z</time>
      </trkpt>
      <trkpt lat="38.9980070" lon="1.4280410">
        <ele>123.4</ele>
        <time>2020-02-23T16:39:51Z</time>
      </trkpt>
      <trkpt lat="38.9980080" lon="1.4279980">
        <ele>123.3</ele>
        <time>2020-02-23T16:39:52Z</time>
      </trkpt>
      <trkpt lat="38.9980110" lon="1.4279410">
        <ele>123.3</ele>
        <time>2020-02-23T16:39:53Z</time>
      </trkpt>
      <trkpt lat="38.9980130" lon="1.4278780">
        <ele>123.3</ele>
        <time>2020-02-23T16:39:54Z</time>
      </trkpt>
      <trkpt lat="38.9980130" lon="1.4278370">
        <ele>123.2</ele>
        <time>2020-02-23T16:39:55Z</time>
      </trkpt>
      <trkpt lat="38.9980170" lon="1.4277840">
        <ele>123.2</ele>
        <time>2020-02-23T16:39:56Z</time>
      </trkpt>
      <trkpt lat="38.9980250" lon="1.4277400">
        <ele>123.2</ele>
        <time>2020-02-23T16:39:57Z</time>
      </trkpt>
      <trkpt lat="38.9980330" lon="1.4276970">
        <ele>123.2</ele>
        <time>2020-02-23T16:39:58Z</time>
      </trkpt>
      <trkpt lat="38.9980410" lon="1.4276450">
        <ele>123.2</ele>
        <time>2020-02-23T16:39:59Z</time>
      </trkpt>
      <trkpt lat="38.9980560" lon="1.4276000">
        <ele>123.1</ele>
        <time>2020-02-23T16:40:00Z</time>
      </trkpt>
      <trkpt lat="38.9980650" lon="1.4275500">
        <ele>123.1</ele>
        <time>2020-02-23T16:40:01Z</time>
      </trkpt>
      <trkpt lat="38.9980780" lon="1.4275060">
        <ele>123.1</ele>
        <time>2020-02-23T16:40:02Z</time>
      </trkpt>
      <trkpt lat="38.9980930" lon="1.4274680">
        <ele>123.1</ele>
        <time>2020-02-23T16:40:03Z</time>
      </trkpt>
      <trkpt lat="38.9981150" lon="1.4274280">
        <ele>122.9</ele>
        <time>2020-02-23T16:40:04Z</time>
      </trkpt>
      <trkpt lat="38.9981270" lon="1.4273790">
        <ele>122.9</ele>
        <time>2020-02-23T16:40:05Z</time>
      </trkpt>
      <trkpt lat="38.9981540" lon="1.4273630">
        <ele>122.9</ele>
        <time>2020-02-23T16:40:06Z</time>
      </trkpt>
      <trkpt lat="38.9981770" lon="1.4273430">
        <ele>122.9</ele>
        <time>2020-02-23T16:40:07Z</time>
      </trkpt>
      <trkpt lat="38.9982050" lon="1.4273320">
        <ele>122.8</ele>
        <time>2020-02-23T16:40:08Z</time>
      </trkpt>
      <trkpt lat="38.9982310" lon="1.4273210">
        <ele>122.8</ele>
        <time>2020-02-23T16:40:09Z</time>
      </trkpt>
      <trkpt lat="38.9982670" lon="1.4273060">
        <ele>122.8</ele>
        <time>2020-02-23T16:40:10Z</time>
      </trkpt>
      <trkpt lat="38.9983080" lon="1.4272860">
        <ele>122.7</ele>
        <time>2020-02-23T16:40:11Z</time>
      </trkpt>
      <trkpt lat="38.9983440" lon="1.4272650">
        <ele>122.7</ele>
        <time>2020-02-23T16:40:12Z</time>
      </trkpt>
      <trkpt lat="38.9983720" lon="1.4272450">
        <ele>122.7</ele>
        <time>2020-02-23T16:40:13Z</time>
      </trkpt>
      <trkpt lat="38.9983950" lon="1.4272130">
        <ele>122.6</ele>
        <time>2020-02-23T16:40:14Z</time>
      </trkpt>
      <trkpt lat="38.9983870" lon="1.4271630">
        <ele>122.6</ele>
        <time>2020-02-23T16:40:15Z</time>
      </trkpt>
      <trkpt lat="38.9983760" lon="1.4271460">
        <ele>122.6</ele>
        <time>2020-02-23T16:40:16Z</time>
      </trkpt>
      <trkpt lat="38.9983450" lon="1.4271030">
        <ele>122.6</ele>
        <time>2020-02-23T16:40:17Z</time>
      </trkpt>
      <trkpt lat="38.9983120" lon="1.4270290">
        <ele>122.9</ele>
        <time>2020-02-23T16:40:18Z</time>
      </trkpt>
      <trkpt lat="38.9982860" lon="1.4269780">
        <ele>123.0</ele>
        <time>2020-02-23T16:40:19Z</time>
      </trkpt>
      <trkpt lat="38.9982670" lon="1.4269300">
        <ele>123.1</ele>
        <time>2020-02-23T16:40:20Z</time>
      </trkpt>
      <trkpt lat="38.9982490" lon="1.4268840">
        <ele>123.2</ele>
        <time>2020-02-23T16:40:21Z</time>
      </trkpt>
      <trkpt lat="38.9982320" lon="1.4268340">
        <ele>123.3</ele>
        <time>2020-02-23T16:40:22Z</time>
      </trkpt>
      <trkpt lat="38.9982090" lon="1.4267710">
        <ele>123.4</ele>
        <time>2020-02-23T16:40:23Z</time>
      </trkpt>
      <trkpt lat="38.9981860" lon="1.4267150">
        <ele>123.4</ele>
        <time>2020-02-23T16:40:24Z</time>
      </trkpt>
      <trkpt lat="38.9981630" lon="1.4266600">
        <ele>123.4</ele>
        <time>2020-02-23T16:40:25Z</time>
      </trkpt>
      <trkpt lat="38.9981390" lon="1.4266160">
        <ele>123.4</ele>
        <time>2020-02-23T16:40:26Z</time>
      </trkpt>
      <trkpt lat="38.9981160" lon="1.4265820">
        <ele>123.3</ele>
        <time>2020-02-23T16:40:27Z</time>
      </trkpt>
      <trkpt lat="38.9980890" lon="1.4265520">
        <ele>123.3</ele>
        <time>2020-02-23T16:40:28Z</time>
      </trkpt>
      <trkpt lat="38.9980590" lon="1.4265060">
        <ele>123.3</ele>
        <time>2020-02-23T16:40:29Z</time>
      </trkpt>
      <trkpt lat="38.9980360" lon="1.4264670">
        <ele>123.3</ele>
        <time>2020-02-23T16:40:30Z</time>
      </trkpt>
      <trkpt lat="38.9980070" lon="1.4264350">
        <ele>123.2</ele>
        <time>2020-02-23T16:40:31Z</time>
      </trkpt>
      <trkpt lat="38.9979830" lon="1.4264060">
        <ele>123.2</ele>
        <time>2020-02-23T16:40:32Z</time>
      </trkpt>
      <trkpt lat="38.9979510" lon="1.4263840">
        <ele>123.1</ele>
        <time>2020-02-23T16:40:33Z</time>
      </trkpt>
      <trkpt lat="38.9979240" lon="1.4263800">
        <ele>123.0</ele>
        <time>2020-02-23T16:40:34Z</time>
      </trkpt>
      <trkpt lat="38.9978840" lon="1.4263650">
        <ele>122.9</ele>
        <time>2020-02-23T16:40:35Z</time>
      </trkpt>
      <trkpt lat="38.9978470" lon="1.4263460">
        <ele>122.8</ele>
        <time>2020-02-23T16:40:36Z</time>
      </trkpt>
      <trkpt lat="38.9978240" lon="1.4263130">
        <ele>122.8</ele>
        <time>2020-02-23T16:40:37Z</time>
      </trkpt>
      <trkpt lat="38.9977910" lon="1.4262860">
        <ele>122.7</ele>
        <time>2020-02-23T16:40:38Z</time>
      </trkpt>
      <trkpt lat="38.9977790" lon="1.4262790">
        <ele>122.6</ele>
        <time>2020-02-23T16:40:39Z</time>
      </trkpt>
      <trkpt lat="38.9977490" lon="1.4262770">
        <ele>122.4</ele>
        <time>2020-02-23T16:40:40Z</time>
      </trkpt>
      <trkpt lat="38.9977120" lon="1.4262690">
        <ele>122.4</ele>
        <time>2020-02-23T16:40:41Z</time>
      </trkpt>
      <trkpt lat="38.9976980" lon="1.4262680">
        <ele>122.4</ele>
        <time>2020-02-23T16:40:42Z</time>
      </trkpt>
      <trkpt lat="38.9976700" lon="1.4262660">
        <ele>122.4</ele>
        <time>2020-02-23T16:40:43Z</time>
      </trkpt>
      <trkpt lat="38.9976480" lon="1.4262260">
        <ele>122.4</ele>
        <time>2020-02-23T16:40:44Z</time>
      </trkpt>
      <trkpt lat="38.9976270" lon="1.4261780">
        <ele>122.9</ele>
        <time>2020-02-23T16:40:45Z</time>
      </trkpt>
      <trkpt lat="38.9976080" lon="1.4261300">
        <ele>123.0</ele>
        <time>2020-02-23T16:40:46Z</time>
      </trkpt>
      <trkpt lat="38.9975940" lon="1.4260810">
        <ele>123.1</ele>
        <time>2020-02-23T16:40:47Z</time>
      </trkpt>
      <trkpt lat="38.9975830" lon="1.4260290">
        <ele>123.2</ele>
        <time>2020-02-23T16:40:48Z</time>
      </trkpt>
      <trkpt lat="38.9975700" lon="1.4259760">
        <ele>123.3</ele>
        <time>2020-02-23T16:40:49Z</time>
      </trkpt>
      <trkpt lat="38.9975590" lon="1.4259270">
        <ele>123.4</ele>
        <time>2020-02-23T16:40:50Z</time>
      </trkpt>
      <trkpt lat="38.9975500" lon="1.4258790">
        <ele>123.5</ele>
        <time>2020-02-23T16:40:51Z</time>
      </trkpt>
      <trkpt lat="38.9975420" lon="1.4258370">
        <ele>123.5</ele>
        <time>2020-02-23T16:40:52Z</time>
      </trkpt>
      <trkpt lat="38.9975350" lon="1.4258020">
        <ele>123.5</ele>
        <time>2020-02-23T16:40:53Z</time>
      </trkpt>
      <trkpt lat="38.9975310" lon="1.4257600">
        <ele>123.5</ele>
        <time>2020-02-23T16:40:54Z</time>
      </trkpt>
      <trkpt lat="38.9975270" lon="1.4257120">
        <ele>123.5</ele>
        <time>2020-02-23T16:40:55Z</time>
      </trkpt>
      <trkpt lat="38.9975210" lon="1.4256570">
        <ele>123.4</ele>
        <time>2020-02-23T16:40:56Z</time>
      </trkpt>
      <trkpt lat="38.9975140" lon="1.4255910">
        <ele>123.2</ele>
        <time>2020-02-23T16:40:57Z</time>
      </trkpt>
      <trkpt lat="38.9974970" lon="1.4255250">
        <ele>123.0</ele>
        <time>2020-02-23T16:40:58Z</time>
      </trkpt>
      <trkpt lat="38.9974800" lon="1.4254510">
        <ele>122.8</ele>
        <time>2020-02-23T16:40:59Z</time>
      </trkpt>
      <trkpt lat="38.9974680" lon="1.4253830">
        <ele>122.6</ele>
        <time>2020-02-23T16:41:00Z</time>
      </trkpt>
      <trkpt lat="38.9974510" lon="1.4253240">
        <ele>122.5</ele>
        <time>2020-02-23T16:41:01Z</time>
      </trkpt>
      <trkpt lat="38.9974350" lon="1.4252650">
        <ele>122.4</ele>
        <time>2020-02-23T16:41:02Z</time>
      </trkpt>
      <trkpt lat="38.9974230" lon="1.4252090">
        <ele>122.2</ele>
        <time>2020-02-23T16:41:03Z</time>
      </trkpt>
      <trkpt lat="38.9974110" lon="1.4251540">
        <ele>122.1</ele>
        <time>2020-02-23T16:41:04Z</time>
      </trkpt>
      <trkpt lat="38.9973980" lon="1.4250950">
        <ele>121.9</ele>
        <time>2020-02-23T16:41:05Z</time>
      </trkpt>
      <trkpt lat="38.9973970" lon="1.4250410">
        <ele>121.7</ele>
        <time>2020-02-23T16:41:06Z</time>
      </trkpt>
      <trkpt lat="38.9973860" lon="1.4249820">
        <ele>121.4</ele>
        <time>2020-02-23T16:41:07Z</time>
      </trkpt>
      <trkpt lat="38.9973740" lon="1.4249210">
        <ele>121.1</ele>
        <time>2020-02-23T16:41:08Z</time>
      </trkpt>
      <trkpt lat="38.9973580" lon="1.4248510">
        <ele>120.6</ele>
        <time>2020-02-23T16:41:09Z</time>
      </trkpt>
      <trkpt lat="38.9973470" lon="1.4247820">
        <ele>120.2</ele>
        <time>2020-02-23T16:41:10Z</time>
      </trkpt>
      <trkpt lat="38.9973350" lon="1.4247260">
        <ele>119.8</ele>
        <time>2020-02-23T16:41:11Z</time>
      </trkpt>
      <trkpt lat="38.9973340" lon="1.4246600">
        <ele>119.4</ele>
        <time>2020-02-23T16:41:12Z</time>
      </trkpt>
      <trkpt lat="38.9973460" lon="1.4246050">
        <ele>119.1</ele>
        <time>2020-02-23T16:41:13Z</time>
      </trkpt>
      <trkpt lat="38.9973640" lon="1.4245440">
        <ele>118.9</ele>
        <time>2020-02-23T16:41:14Z</time>
      </trkpt>
      <trkpt lat="38.9973850" lon="1.4244780">
        <ele>118.6</ele>
        <time>2020-02-23T16:41:15Z</time>
      </trkpt>
      <trkpt lat="38.9974110" lon="1.4244280">
        <ele>118.3</ele>
        <time>2020-02-23T16:41:16Z</time>
      </trkpt>
      <trkpt lat="38.9974320" lon="1.4243620">
        <ele>118.0</ele>
        <time>2020-02-23T16:41:17Z</time>
      </trkpt>
      <trkpt lat="38.9974350" lon="1.4242960">
        <ele>117.7</ele>
        <time>2020-02-23T16:41:18Z</time>
      </trkpt>
      <trkpt lat="38.9974270" lon="1.4242310">
        <ele>117.2</ele>
        <time>2020-02-23T16:41:19Z</time>
      </trkpt>
      <trkpt lat="38.9974090" lon="1.4241520">
        <ele>116.6</ele>
        <time>2020-02-23T16:41:20Z</time>
      </trkpt>
      <trkpt lat="38.9973830" lon="1.4240730">
        <ele>115.9</ele>
        <time>2020-02-23T16:41:21Z</time>
      </trkpt>
      <trkpt lat="38.9973570" lon="1.4239960">
        <ele>115.3</ele>
        <time>2020-02-23T16:41:22Z</time>
      </trkpt>
      <trkpt lat="38.9973260" lon="1.4239220">
        <ele>114.7</ele>
        <time>2020-02-23T16:41:23Z</time>
      </trkpt>
      <trkpt lat="38.9973100" lon="1.4238500">
        <ele>114.3</ele>
        <time>2020-02-23T16:41:24Z</time>
      </trkpt>
      <trkpt lat="38.9972840" lon="1.4237750">
        <ele>113.8</ele>
        <time>2020-02-23T16:41:25Z</time>
      </trkpt>
      <trkpt lat="38.9972690" lon="1.4237110">
        <ele>113.5</ele>
        <time>2020-02-23T16:41:26Z</time>
      </trkpt>
      <trkpt lat="38.9972670" lon="1.4236600">
        <ele>113.2</ele>
        <time>2020-02-23T16:41:27Z</time>
      </trkpt>
      <trkpt lat="38.9972630" lon="1.4236070">
        <ele>112.9</ele>
        <time>2020-02-23T16:41:28Z</time>
      </trkpt>
      <trkpt lat="38.9972830" lon="1.4235610">
        <ele>112.6</ele>
        <time>2020-02-23T16:41:29Z</time>
      </trkpt>
      <trkpt lat="38.9972990" lon="1.4235470">
        <ele>112.4</ele>
        <time>2020-02-23T16:41:30Z</time>
      </trkpt>
      <trkpt lat="38.9973230" lon="1.4235220">
        <ele>112.2</ele>
        <time>2020-02-23T16:41:31Z</time>
      </trkpt>
      <trkpt lat="38.9973480" lon="1.4234860">
        <ele>112.0</ele>
        <time>2020-02-23T16:41:32Z</time>
      </trkpt>
      <trkpt lat="38.9973560" lon="1.4234740">
        <ele>112.0</ele>
        <time>2020-02-23T16:41:33Z</time>
      </trkpt>
      <trkpt lat="38.9973680" lon="1.4234410">
        <ele>112.0</ele>
        <time>2020-02-23T16:41:34Z</time>
      </trkpt>
      <trkpt lat="38.9973730" lon="1.4234310">
        <ele>111.9</ele>
        <time>2020-02-23T16:41:35Z</time>
      </trkpt>
      <trkpt lat="38.9973960" lon="1.4234150">
        <ele>112.0</ele>
        <time>2020-02-23T16:41:36Z</time>
      </trkpt>
      <trkpt lat="38.9974060" lon="1.4234070">
        <ele>112.0</ele>
        <time>2020-02-23T16:41:37Z</time>
      </trkpt>
      <trkpt lat="38.9974330" lon="1.4233830">
        <ele>112.0</ele>
        <time>2020-02-23T16:41:38Z</time>
      </trkpt>
      <trkpt lat="38.9974610" lon="1.4233540">
        <ele>112.1</ele>
        <time>2020-02-23T16:41:39Z</time>
      </trkpt>
      <trkpt lat="38.9974700" lon="1.4233450">
        <ele>112.1</ele>
        <time>2020-02-23T16:41:40Z</time>
      </trkpt>
      <trkpt lat="38.9974830" lon="1.4233360">
        <ele>112.2</ele>
        <time>2020-02-23T16:41:41Z</time>
      </trkpt>
      <trkpt lat="38.9975050" lon="1.4233320">
        <ele>112.2</ele>
        <time>2020-02-23T16:41:42Z</time>
      </trkpt>
      <trkpt lat="38.9975420" lon="1.4233240">
        <ele>112.3</ele>
        <time>2020-02-23T16:41:43Z</time>
      </trkpt>
      <trkpt lat="38.9975560" lon="1.4233200">
        <ele>112.4</ele>
        <time>2020-02-23T16:41:44Z</time>
      </trkpt>
      <trkpt lat="38.9975810" lon="1.4233080">
        <ele>112.4</ele>
        <time>2020-02-23T16:41:45Z</time>
      </trkpt>
      <trkpt lat="38.9976090" lon="1.4232820">
        <ele>112.6</ele>
        <time>2020-02-23T16:41:46Z</time>
      </trkpt>
      <trkpt lat="38.9976130" lon="1.4232730">
        <ele>112.6</ele>
        <time>2020-02-23T16:41:47Z</time>
      </trkpt>
      <trkpt lat="38.9976410" lon="1.4232680">
        <ele>112.7</ele>
        <time>2020-02-23T16:41:48Z</time>
      </trkpt>
      <trkpt lat="38.9976510" lon="1.4232660">
        <ele>112.7</ele>
        <time>2020-02-23T16:41:49Z</time>
      </trkpt>
      <trkpt lat="38.9976870" lon="1.4232540">
        <ele>112.9</ele>
        <time>2020-02-23T16:41:50Z</time>
      </trkpt>
      <trkpt lat="38.9976990" lon="1.4232500">
        <ele>112.9</ele>
        <time>2020-02-23T16:41:51Z</time>
      </trkpt>
      <trkpt lat="38.9977260" lon="1.4232440">
        <ele>113.0</ele>
        <time>2020-02-23T16:41:52Z</time>
      </trkpt>
      <trkpt lat="38.9977360" lon="1.4232430">
        <ele>113.0</ele>
        <time>2020-02-23T16:41:53Z</time>
      </trkpt>
      <trkpt lat="38.9977610" lon="1.4232400">
        <ele>113.1</ele>
        <time>2020-02-23T16:41:54Z</time>
      </trkpt>
      <trkpt lat="38.9977710" lon="1.4232350">
        <ele>113.2</ele>
        <time>2020-02-23T16:41:55Z</time>
      </trkpt>
      <trkpt lat="38.9977910" lon="1.4232280">
        <ele>113.3</ele>
        <time>2020-02-23T16:41:56Z</time>
      </trkpt>
      <trkpt lat="38.9978020" lon="1.4232260">
        <ele>113.3</ele>
        <time>2020-02-23T16:41:57Z</time>
      </trkpt>
      <trkpt lat="38.9978130" lon="1.4232230">
        <ele>113.4</ele>
        <time>2020-02-23T16:41:58Z</time>
      </trkpt>
      <trkpt lat="38.9978370" lon="1.4231990">
        <ele>113.5</ele>
        <time>2020-02-23T16:41:59Z</time>
      </trkpt>
      <trkpt lat="38.9978680" lon="1.4231910">
        <ele>113.6</ele>
        <time>2020-02-23T16:42:00Z</time>
      </trkpt>
      <trkpt lat="38.9979020" lon="1.4231650">
        <ele>113.8</ele>
        <time>2020-02-23T16:42:01Z</time>
      </trkpt>
      <trkpt lat="38.9979450" lon="1.4231720">
        <ele>114.1</ele>
        <time>2020-02-23T16:42:02Z</time>
      </trkpt>
      <trkpt lat="38.9979630" lon="1.4231870">
        <ele>114.2</ele>
        <time>2020-02-23T16:42:03Z</time>
      </trkpt>
      <trkpt lat="38.9979980" lon="1.4232100">
        <ele>114.4</ele>
        <time>2020-02-23T16:42:04Z</time>
      </trkpt>
      <trkpt lat="38.9980320" lon="1.4232190">
        <ele>114.6</ele>
        <time>2020-02-23T16:42:05Z</time>
      </trkpt>
      <trkpt lat="38.9980670" lon="1.4232280">
        <ele>114.8</ele>
        <time>2020-02-23T16:42:06Z</time>
      </trkpt>
      <trkpt lat="38.9981030" lon="1.4232320">
        <ele>115.0</ele>
        <time>2020-02-23T16:42:07Z</time>
      </trkpt>
      <trkpt lat="38.9981150" lon="1.4232350">
        <ele>115.0</ele>
        <time>2020-02-23T16:42:08Z</time>
      </trkpt>
      <trkpt lat="38.9981470" lon="1.4232330">
        <ele>115.2</ele>
        <time>2020-02-23T16:42:09Z</time>
      </trkpt>
      <trkpt lat="38.9981590" lon="1.4232280">
        <ele>115.3</ele>
        <time>2020-02-23T16:42:10Z</time>
      </trkpt>
      <trkpt lat="38.9981960" lon="1.4232030">
        <ele>115.4</ele>
        <time>2020-02-23T16:42:11Z</time>
      </trkpt>
      <trkpt lat="38.9982110" lon="1.4231890">
        <ele>115.5</ele>
        <time>2020-02-23T16:42:12Z</time>
      </trkpt>
      <trkpt lat="38.9982350" lon="1.4231620">
        <ele>115.5</ele>
        <time>2020-02-23T16:42:13Z</time>
      </trkpt>
      <trkpt lat="38.9982680" lon="1.4231110">
        <ele>115.6</ele>
        <time>2020-02-23T16:42:14Z</time>
      </trkpt>
      <trkpt lat="38.9982990" lon="1.4230830">
        <ele>115.7</ele>
        <time>2020-02-23T16:42:15Z</time>
      </trkpt>
      <trkpt lat="38.9983240" lon="1.4230680">
        <ele>115.7</ele>
        <time>2020-02-23T16:42:16Z</time>
      </trkpt>
      <trkpt lat="38.9983490" lon="1.4230440">
        <ele>115.7</ele>
        <time>2020-02-23T16:42:17Z</time>
      </trkpt>
      <trkpt lat="38.9983570" lon="1.4230320">
        <ele>115.8</ele>
        <time>2020-02-23T16:42:18Z</time>
      </trkpt>
      <trkpt lat="38.9983620" lon="1.4230120">
        <ele>115.8</ele>
        <time>2020-02-23T16:42:19Z</time>
      </trkpt>
      <trkpt lat="38.9983760" lon="1.4229950">
        <ele>115.8</ele>
        <time>2020-02-23T16:42:20Z</time>
      </trkpt>
      <trkpt lat="38.9983960" lon="1.4229560">
        <ele>115.9</ele>
        <time>2020-02-23T16:42:21Z</time>
      </trkpt>
      <trkpt lat="38.9984010" lon="1.4229390">
        <ele>115.9</ele>
        <time>2020-02-23T16:42:22Z</time>
      </trkpt>
      <trkpt lat="38.9984260" lon="1.4229050">
        <ele>116.0</ele>
        <time>2020-02-23T16:42:23Z</time>
      </trkpt>
      <trkpt lat="38.9984320" lon="1.4228930">
        <ele>116.0</ele>
        <time>2020-02-23T16:42:24Z</time>
      </trkpt>
      <trkpt lat="38.9984530" lon="1.4228710">
        <ele>116.0</ele>
        <time>2020-02-23T16:42:25Z</time>
      </trkpt>
      <trkpt lat="38.9984640" lon="1.4228680">
        <ele>116.6</ele>
        <time>2020-02-23T16:42:26Z</time>
      </trkpt>
      <trkpt lat="38.9984940" lon="1.4228770">
        <ele>116.8</ele>
        <time>2020-02-23T16:42:27Z</time>
      </trkpt>
      <trkpt lat="38.9985270" lon="1.4228980">
        <ele>117.0</ele>
        <time>2020-02-23T16:42:28Z</time>
      </trkpt>
      <trkpt lat="38.9985390" lon="1.4229060">
        <ele>117.1</ele>
        <time>2020-02-23T16:42:29Z</time>
      </trkpt>
      <trkpt lat="38.9985690" lon="1.4229130">
        <ele>117.3</ele>
        <time>2020-02-23T16:42:30Z</time>
      </trkpt>
      <trkpt lat="38.9985790" lon="1.4229160">
        <ele>117.4</ele>
        <time>2020-02-23T16:42:31Z</time>
      </trkpt>
      <trkpt lat="38.9986140" lon="1.4229220">
        <ele>117.6</ele>
        <time>2020-02-23T16:42:32Z</time>
      </trkpt>
      <trkpt lat="38.9986250" lon="1.4229210">
        <ele>117.7</ele>
        <time>2020-02-23T16:42:33Z</time>
      </trkpt>
      <trkpt lat="38.9986560" lon="1.4229190">
        <ele>117.9</ele>
        <time>2020-02-23T16:42:34Z</time>
      </trkpt>
      <trkpt lat="38.9986670" lon="1.4229190">
        <ele>118.0</ele>
        <time>2020-02-23T16:42:35Z</time>
      </trkpt>
      <trkpt lat="38.9986880" lon="1.4229120">
        <ele>118.1</ele>
        <time>2020-02-23T16:42:36Z</time>
      </trkpt>
      <trkpt lat="38.9987000" lon="1.4229100">
        <ele>118.1</ele>
        <time>2020-02-23T16:42:37Z</time>
      </trkpt>
      <trkpt lat="38.9987240" lon="1.4229040">
        <ele>118.0</ele>
        <time>2020-02-23T16:42:38Z</time>
      </trkpt>
      <trkpt lat="38.9987290" lon="1.4228990">
        <ele>117.9</ele>
        <time>2020-02-23T16:42:39Z</time>
      </trkpt>
      <trkpt lat="38.9987200" lon="1.4228910">
        <ele>117.9</ele>
        <time>2020-02-23T16:42:40Z</time>
      </trkpt>
      <trkpt lat="38.9987150" lon="1.4228840">
        <ele>117.9</ele>
        <time>2020-02-23T16:42:41Z</time>
      </trkpt>
      <trkpt lat="38.9987130" lon="1.4228770">
        <ele>117.8</ele>
        <time>2020-02-23T16:42:42Z</time>
      </trkpt>
      <trkpt lat="38.9987090" lon="1.4228690">
        <ele>117.8</ele>
        <time>2020-02-23T16:42:43Z</time>
      </trkpt>
      <trkpt lat="38.9987080" lon="1.4228670">
        <ele>117.8</ele>
        <time>2020-02-23T16:42:44Z</time>
      </trkpt>
      <trkpt lat="38.9987130" lon="1.4228410">
        <ele>117.7</ele>
        <time>2020-02-23T16:42:45Z</time>
      </trkpt>
      <trkpt lat="38.9987120" lon="1.4228280">
        <ele>117.7</ele>
        <time>2020-02-23T16:42:46Z</time>
      </trkpt>
      <trkpt lat="38.9987130" lon="1.4228200">
        <ele>117.6</ele>
        <time>2020-02-23T16:42:47Z</time>
      </trkpt>
      <trkpt lat="38.9987140" lon="1.4228160">
        <ele>117.6</ele>
        <time>2020-02-23T16:42:48Z</time>
      </trkpt>
      <trkpt lat="38.9987140" lon="1.4228090">
        <ele>117.6</ele>
        <time>2020-02-23T16:42:49Z</time>
      </trkpt>
      <trkpt lat="38.9987120" lon="1.4228090">
        <ele>117.6</ele>
        <time>2020-02-23T16:42:50Z</time>
      </trkpt>
      <trkpt lat="38.9986800" lon="1.4227100">
        <ele>117.2</ele>
        <time>2020-02-23T16:43:01Z</time>
      </trkpt>
      <trkpt lat="38.9986770" lon="1.4226860">
        <ele>117.1</ele>
        <time>2020-02-23T16:43:02Z</time>
      </trkpt>
      <trkpt lat="38.9986480" lon="1.4226550">
        <ele>116.9</ele>
        <time>2020-02-23T16:43:03Z</time>
      </trkpt>
      <trkpt lat="38.9986400" lon="1.4226420">
        <ele>116.9</ele>
        <time>2020-02-23T16:43:04Z</time>
      </trkpt>
      <trkpt lat="38.9986210" lon="1.4226100">
        <ele>116.7</ele>
        <time>2020-02-23T16:43:05Z</time>
      </trkpt>
      <trkpt lat="38.9986140" lon="1.4225760">
        <ele>116.6</ele>
        <time>2020-02-23T16:43:06Z</time>
      </trkpt>
      <trkpt lat="38.9986070" lon="1.4225220">
        <ele>116.4</ele>
        <time>2020-02-23T16:43:07Z</time>
      </trkpt>
      <trkpt lat="38.9986070" lon="1.4225000">
        <ele>116.4</ele>
        <time>2020-02-23T16:43:08Z</time>
      </trkpt>
      <trkpt lat="38.9986010" lon="1.4224490">
        <ele>116.2</ele>
        <time>2020-02-23T16:43:09Z</time>
      </trkpt>
      <trkpt lat="38.9985840" lon="1.4224060">
        <ele>116.1</ele>
        <time>2020-02-23T16:43:10Z</time>
      </trkpt>
      <trkpt lat="38.9985720" lon="1.4223660">
        <ele>116.0</ele>
        <time>2020-02-23T16:43:11Z</time>
      </trkpt>
      <trkpt lat="38.9985670" lon="1.4223540">
        <ele>116.0</ele>
        <time>2020-02-23T16:43:12Z</time>
      </trkpt>
      <trkpt lat="38.9985580" lon="1.4223140">
        <ele>115.9</ele>
        <time>2020-02-23T16:43:13Z</time>
      </trkpt>
      <trkpt lat="38.9985450" lon="1.4223060">
        <ele>115.8</ele>
        <time>2020-02-23T16:43:14Z</time>
      </trkpt>
      <trkpt lat="38.9985210" lon="1.4222680">
        <ele>115.7</ele>
        <time>2020-02-23T16:43:15Z</time>
      </trkpt>
      <trkpt lat="38.9985110" lon="1.4222430">
        <ele>115.7</ele>
        <time>2020-02-23T16:43:16Z</time>
      </trkpt>
      <trkpt lat="38.9985060" lon="1.4221960">
        <ele>115.6</ele>
        <time>2020-02-23T16:43:17Z</time>
      </trkpt>
      <trkpt lat="38.9985000" lon="1.4221810">
        <ele>115.6</ele>
        <time>2020-02-23T16:43:18Z</time>
      </trkpt>
      <trkpt lat="38.9984910" lon="1.4221470">
        <ele>115.6</ele>
        <time>2020-02-23T16:43:19Z</time>
      </trkpt>
      <trkpt lat="38.9984850" lon="1.4221370">
        <ele>115.6</ele>
        <time>2020-02-23T16:43:20Z</time>
      </trkpt>
      <trkpt lat="38.9984770" lon="1.4221240">
        <ele>115.6</ele>
        <time>2020-02-23T16:43:21Z</time>
      </trkpt>
      <trkpt lat="38.9984700" lon="1.4221040">
        <ele>115.6</ele>
        <time>2020-02-23T16:43:22Z</time>
      </trkpt>
      <trkpt lat="38.9984470" lon="1.4220810">
        <ele>115.6</ele>
        <time>2020-02-23T16:43:23Z</time>
      </trkpt>
      <trkpt lat="38.9984390" lon="1.4220730">
        <ele>115.6</ele>
        <time>2020-02-23T16:43:24Z</time>
      </trkpt>
      <trkpt lat="38.9984150" lon="1.4220470">
        <ele>115.6</ele>
        <time>2020-02-23T16:43:25Z</time>
      </trkpt>
      <trkpt lat="38.9984080" lon="1.4220410">
        <ele>115.6</ele>
        <time>2020-02-23T16:43:26Z</time>
      </trkpt>
      <trkpt lat="38.9983720" lon="1.4220300">
        <ele>115.6</ele>
        <time>2020-02-23T16:43:27Z</time>
      </trkpt>
      <trkpt lat="38.9983600" lon="1.4220260">
        <ele>115.6</ele>
        <time>2020-02-23T16:43:28Z</time>
      </trkpt>
      <trkpt lat="38.9983290" lon="1.4220350">
        <ele>115.5</ele>
        <time>2020-02-23T16:43:29Z</time>
      </trkpt>
      <trkpt lat="38.9982980" lon="1.4220410">
        <ele>115.4</ele>
        <time>2020-02-23T16:43:30Z</time>
      </trkpt>
      <trkpt lat="38.9982580" lon="1.4220290">
        <ele>115.3</ele>
        <time>2020-02-23T16:43:31Z</time>
      </trkpt>
      <trkpt lat="38.9982110" lon="1.4220170">
        <ele>115.2</ele>
        <time>2020-02-23T16:43:32Z</time>
      </trkpt>
      <trkpt lat="38.9981650" lon="1.4220040">
        <ele>115.0</ele>
        <time>2020-02-23T16:43:33Z</time>
      </trkpt>
      <trkpt lat="38.9981090" lon="1.4219880">
        <ele>115.1</ele>
        <time>2020-02-23T16:43:34Z</time>
      </trkpt>
      <trkpt lat="38.9980550" lon="1.4219700">
        <ele>114.9</ele>
        <time>2020-02-23T16:43:35Z</time>
      </trkpt>
      <trkpt lat="38.9979990" lon="1.4219100">
        <ele>115.2</ele>
        <time>2020-02-23T16:43:36Z</time>
      </trkpt>
      <trkpt lat="38.9979640" lon="1.4218720">
        <ele>115.1</ele>
        <time>2020-02-23T16:43:37Z</time>
      </trkpt>
      <trkpt lat="38.9979510" lon="1.4218570">
        <ele>115.4</ele>
        <time>2020-02-23T16:43:38Z</time>
      </trkpt>
      <trkpt lat="38.9979490" lon="1.4218490">
        <ele>115.5</ele>
        <time>2020-02-23T16:43:39Z</time>
      </trkpt>
      <trkpt lat="38.9979440" lon="1.4218450">
        <ele>115.6</ele>
        <time>2020-02-23T16:43:40Z</time>
      </trkpt>
      <trkpt lat="38.9979410" lon="1.4218270">
        <ele>115.8</ele>
        <time>2020-02-23T16:43:41Z</time>
      </trkpt>
      <trkpt lat="38.9979410" lon="1.4218100">
        <ele>115.8</ele>
        <time>2020-02-23T16:43:42Z</time>
      </trkpt>
      <trkpt lat="38.9979400" lon="1.4217940">
        <ele>115.9</ele>
        <time>2020-02-23T16:43:43Z</time>
      </trkpt>
      <trkpt lat="38.9979240" lon="1.4217620">
        <ele>116.3</ele>
        <time>2020-02-23T16:43:44Z</time>
      </trkpt>
      <trkpt lat="38.9979170" lon="1.4217460">
        <ele>116.3</ele>
        <time>2020-02-23T16:43:45Z</time>
      </trkpt>
      <trkpt lat="38.9979030" lon="1.4217130">
        <ele>116.5</ele>
        <time>2020-02-23T16:43:46Z</time>
      </trkpt>
      <trkpt lat="38.9978780" lon="1.4216940">
        <ele>116.7</ele>
        <time>2020-02-23T16:43:47Z</time>
      </trkpt>
      <trkpt lat="38.9978510" lon="1.4216740">
        <ele>116.9</ele>
        <time>2020-02-23T16:43:48Z</time>
      </trkpt>
      <trkpt lat="38.9978240" lon="1.4216420">
        <ele>117.2</ele>
        <time>2020-02-23T16:43:49Z</time>
      </trkpt>
      <trkpt lat="38.9978010" lon="1.4216230">
        <ele>117.3</ele>
        <time>2020-02-23T16:43:50Z</time>
      </trkpt>
      <trkpt lat="38.9977730" lon="1.4215940">
        <ele>117.4</ele>
        <time>2020-02-23T16:43:51Z</time>
      </trkpt>
      <trkpt lat="38.9977640" lon="1.4215840">
        <ele>117.4</ele>
        <time>2020-02-23T16:43:52Z</time>
      </trkpt>
      <trkpt lat="38.9977410" lon="1.4215500">
        <ele>117.6</ele>
        <time>2020-02-23T16:43:53Z</time>
      </trkpt>
      <trkpt lat="38.9977340" lon="1.4215410">
        <ele>117.6</ele>
        <time>2020-02-23T16:43:54Z</time>
      </trkpt>
      <trkpt lat="38.9977200" lon="1.4215130">
        <ele>117.8</ele>
        <time>2020-02-23T16:43:55Z</time>
      </trkpt>
      <trkpt lat="38.9977150" lon="1.4215000">
        <ele>117.8</ele>
        <time>2020-02-23T16:43:56Z</time>
      </trkpt>
      <trkpt lat="38.9977010" lon="1.4214880">
        <ele>117.9</ele>
        <time>2020-02-23T16:43:57Z</time>
      </trkpt>
      <trkpt lat="38.9976920" lon="1.4214750">
        <ele>118.0</ele>
        <time>2020-02-23T16:43:58Z</time>
      </trkpt>
      <trkpt lat="38.9976860" lon="1.4214650">
        <ele>118.0</ele>
        <time>2020-02-23T16:43:59Z</time>
      </trkpt>
      <trkpt lat="38.9976830" lon="1.4214540">
        <ele>118.1</ele>
        <time>2020-02-23T16:44:00Z</time>
      </trkpt>
      <trkpt lat="38.9976790" lon="1.4214330">
        <ele>118.2</ele>
        <time>2020-02-23T16:44:01Z</time>
      </trkpt>
      <trkpt lat="38.9976750" lon="1.4214240">
        <ele>118.3</ele>
        <time>2020-02-23T16:44:02Z</time>
      </trkpt>
      <trkpt lat="38.9976720" lon="1.4214190">
        <ele>118.3</ele>
        <time>2020-02-23T16:44:03Z</time>
      </trkpt>
      <trkpt lat="38.9976680" lon="1.4213970">
        <ele>118.4</ele>
        <time>2020-02-23T16:44:04Z</time>
      </trkpt>
      <trkpt lat="38.9976540" lon="1.4213630">
        <ele>118.6</ele>
        <time>2020-02-23T16:44:05Z</time>
      </trkpt>
      <trkpt lat="38.9976480" lon="1.4213480">
        <ele>118.7</ele>
        <time>2020-02-23T16:44:06Z</time>
      </trkpt>
      <trkpt lat="38.9976440" lon="1.4213330">
        <ele>118.8</ele>
        <time>2020-02-23T16:44:07Z</time>
      </trkpt>
      <trkpt lat="38.9976420" lon="1.4213210">
        <ele>118.9</ele>
        <time>2020-02-23T16:44:08Z</time>
      </trkpt>
      <trkpt lat="38.9976440" lon="1.4213150">
        <ele>118.9</ele>
        <time>2020-02-23T16:44:09Z</time>
      </trkpt>
      <trkpt lat="38.9976460" lon="1.4213040">
        <ele>119.0</ele>
        <time>2020-02-23T16:44:10Z</time>
      </trkpt>
      <trkpt lat="38.9976430" lon="1.4212950">
        <ele>119.0</ele>
        <time>2020-02-23T16:44:11Z</time>
      </trkpt>
      <trkpt lat="38.9976390" lon="1.4212860">
        <ele>119.1</ele>
        <time>2020-02-23T16:44:12Z</time>
      </trkpt>
      <trkpt lat="38.9976360" lon="1.4212540">
        <ele>119.3</ele>
        <time>2020-02-23T16:44:13Z</time>
      </trkpt>
      <trkpt lat="38.9976330" lon="1.4212440">
        <ele>119.3</ele>
        <time>2020-02-23T16:44:14Z</time>
      </trkpt>
      <trkpt lat="38.9976290" lon="1.4212330">
        <ele>119.4</ele>
        <time>2020-02-23T16:44:15Z</time>
      </trkpt>
      <trkpt lat="38.9976240" lon="1.4212160">
        <ele>119.5</ele>
        <time>2020-02-23T16:44:16Z</time>
      </trkpt>
      <trkpt lat="38.9976220" lon="1.4212000">
        <ele>119.6</ele>
        <time>2020-02-23T16:44:17Z</time>
      </trkpt>
      <trkpt lat="38.9976180" lon="1.4211890">
        <ele>119.7</ele>
        <time>2020-02-23T16:44:18Z</time>
      </trkpt>
      <trkpt lat="38.9976160" lon="1.4211610">
        <ele>119.9</ele>
        <time>2020-02-23T16:44:19Z</time>
      </trkpt>
      <trkpt lat="38.9976140" lon="1.4211440">
        <ele>120.0</ele>
        <time>2020-02-23T16:44:20Z</time>
      </trkpt>
      <trkpt lat="38.9976100" lon="1.4211180">
        <ele>120.2</ele>
        <time>2020-02-23T16:44:21Z</time>
      </trkpt>
      <trkpt lat="38.9976060" lon="1.4211020">
        <ele>120.2</ele>
        <time>2020-02-23T16:44:22Z</time>
      </trkpt>
      <trkpt lat="38.9975960" lon="1.4210700">
        <ele>120.4</ele>
        <time>2020-02-23T16:44:23Z</time>
      </trkpt>
      <trkpt lat="38.9975920" lon="1.4210580">
        <ele>120.4</ele>
        <time>2020-02-23T16:44:24Z</time>
      </trkpt>
      <trkpt lat="38.9975890" lon="1.4210330">
        <ele>120.5</ele>
        <time>2020-02-23T16:44:25Z</time>
      </trkpt>
      <trkpt lat="38.9975860" lon="1.4210210">
        <ele>120.6</ele>
        <time>2020-02-23T16:44:26Z</time>
      </trkpt>
      <trkpt lat="38.9975840" lon="1.4210100">
        <ele>120.6</ele>
        <time>2020-02-23T16:44:27Z</time>
      </trkpt>
      <trkpt lat="38.9975830" lon="1.4209740">
        <ele>120.8</ele>
        <time>2020-02-23T16:44:28Z</time>
      </trkpt>
      <trkpt lat="38.9975790" lon="1.4209560">
        <ele>120.9</ele>
        <time>2020-02-23T16:44:29Z</time>
      </trkpt>
      <trkpt lat="38.9975690" lon="1.4209310">
        <ele>121.0</ele>
        <time>2020-02-23T16:44:30Z</time>
      </trkpt>
      <trkpt lat="38.9975550" lon="1.4208970">
        <ele>121.1</ele>
        <time>2020-02-23T16:44:31Z</time>
      </trkpt>
      <trkpt lat="38.9975520" lon="1.4208870">
        <ele>121.2</ele>
        <time>2020-02-23T16:44:32Z</time>
      </trkpt>
      <trkpt lat="38.9975430" lon="1.4208500">
        <ele>121.4</ele>
        <time>2020-02-23T16:44:33Z</time>
      </trkpt>
      <trkpt lat="38.9975380" lon="1.4208380">
        <ele>121.4</ele>
        <time>2020-02-23T16:44:34Z</time>
      </trkpt>
      <trkpt lat="38.9975270" lon="1.4208270">
        <ele>121.5</ele>
        <time>2020-02-23T16:44:35Z</time>
      </trkpt>
      <trkpt lat="38.9975260" lon="1.4208010">
        <ele>121.6</ele>
        <time>2020-02-23T16:44:36Z</time>
      </trkpt>
      <trkpt lat="38.9975120" lon="1.4207890">
        <ele>121.7</ele>
        <time>2020-02-23T16:44:37Z</time>
      </trkpt>
      <trkpt lat="38.9974980" lon="1.4207770">
        <ele>121.8</ele>
        <time>2020-02-23T16:44:38Z</time>
      </trkpt>
      <trkpt lat="38.9974620" lon="1.4207660">
        <ele>122.0</ele>
        <time>2020-02-23T16:44:39Z</time>
      </trkpt>
      <trkpt lat="38.9974490" lon="1.4207630">
        <ele>122.0</ele>
        <time>2020-02-23T16:44:40Z</time>
      </trkpt>
      <trkpt lat="38.9974190" lon="1.4207510">
        <ele>122.2</ele>
        <time>2020-02-23T16:44:41Z</time>
      </trkpt>
      <trkpt lat="38.9974090" lon="1.4207500">
        <ele>122.2</ele>
        <time>2020-02-23T16:44:42Z</time>
      </trkpt>
      <trkpt lat="38.9973770" lon="1.4207560">
        <ele>122.4</ele>
        <time>2020-02-23T16:44:43Z</time>
      </trkpt>
      <trkpt lat="38.9973680" lon="1.4207560">
        <ele>122.4</ele>
        <time>2020-02-23T16:44:44Z</time>
      </trkpt>
      <trkpt lat="38.9973400" lon="1.4207550">
        <ele>122.6</ele>
        <time>2020-02-23T16:44:45Z</time>
      </trkpt>
      <trkpt lat="38.9973310" lon="1.4207570">
        <ele>122.5</ele>
        <time>2020-02-23T16:44:46Z</time>
      </trkpt>
      <trkpt lat="38.9973130" lon="1.4207560">
        <ele>122.5</ele>
        <time>2020-02-23T16:44:47Z</time>
      </trkpt>
      <trkpt lat="38.9972980" lon="1.4207570">
        <ele>122.4</ele>
        <time>2020-02-23T16:44:48Z</time>
      </trkpt>
      <trkpt lat="38.9972850" lon="1.4207660">
        <ele>122.3</ele>
        <time>2020-02-23T16:44:49Z</time>
      </trkpt>
      <trkpt lat="38.9972730" lon="1.4207730">
        <ele>122.3</ele>
        <time>2020-02-23T16:44:50Z</time>
      </trkpt>
      <trkpt lat="38.9972590" lon="1.4207680">
        <ele>122.2</ele>
        <time>2020-02-23T16:44:51Z</time>
      </trkpt>
      <trkpt lat="38.9972450" lon="1.4207630">
        <ele>122.2</ele>
        <time>2020-02-23T16:44:52Z</time>
      </trkpt>
      <trkpt lat="38.9972190" lon="1.4207630">
        <ele>122.1</ele>
        <time>2020-02-23T16:44:53Z</time>
      </trkpt>
      <trkpt lat="38.9972090" lon="1.4207600">
        <ele>122.1</ele>
        <time>2020-02-23T16:44:54Z</time>
      </trkpt>
      <trkpt lat="38.9971940" lon="1.4207670">
        <ele>122.0</ele>
        <time>2020-02-23T16:44:55Z</time>
      </trkpt>
      <trkpt lat="38.9971750" lon="1.4207760">
        <ele>122.0</ele>
        <time>2020-02-23T16:44:56Z</time>
      </trkpt>
      <trkpt lat="38.9971470" lon="1.4207810">
        <ele>121.9</ele>
        <time>2020-02-23T16:44:57Z</time>
      </trkpt>
      <trkpt lat="38.9971380" lon="1.4207840">
        <ele>121.9</ele>
        <time>2020-02-23T16:44:58Z</time>
      </trkpt>
      <trkpt lat="38.9971220" lon="1.4207930">
        <ele>121.9</ele>
        <time>2020-02-23T16:44:59Z</time>
      </trkpt>
      <trkpt lat="38.9971090" lon="1.4208010">
        <ele>121.8</ele>
        <time>2020-02-23T16:45:00Z</time>
      </trkpt>
      <trkpt lat="38.9970930" lon="1.4208080">
        <ele>121.8</ele>
        <time>2020-02-23T16:45:01Z</time>
      </trkpt>
      <trkpt lat="38.9970830" lon="1.4208140">
        <ele>121.8</ele>
        <time>2020-02-23T16:45:02Z</time>
      </trkpt>
      <trkpt lat="38.9970450" lon="1.4208300">
        <ele>121.8</ele>
        <time>2020-02-23T16:45:03Z</time>
      </trkpt>
      <trkpt lat="38.9970370" lon="1.4208290">
        <ele>121.8</ele>
        <time>2020-02-23T16:45:04Z</time>
      </trkpt>
      <trkpt lat="38.9970230" lon="1.4208380">
        <ele>121.8</ele>
        <time>2020-02-23T16:45:05Z</time>
      </trkpt>
      <trkpt lat="38.9970150" lon="1.4208420">
        <ele>121.8</ele>
        <time>2020-02-23T16:45:06Z</time>
      </trkpt>
      <trkpt lat="38.9970050" lon="1.4208410">
        <ele>121.8</ele>
        <time>2020-02-23T16:45:07Z</time>
      </trkpt>
      <trkpt lat="38.9969950" lon="1.4208410">
        <ele>121.8</ele>
        <time>2020-02-23T16:45:08Z</time>
      </trkpt>
      <trkpt lat="38.9969860" lon="1.4208400">
        <ele>121.8</ele>
        <time>2020-02-23T16:45:09Z</time>
      </trkpt>
      <trkpt lat="38.9969530" lon="1.4208430">
        <ele>121.8</ele>
        <time>2020-02-23T16:45:10Z</time>
      </trkpt>
      <trkpt lat="38.9969450" lon="1.4208450">
        <ele>121.8</ele>
        <time>2020-02-23T16:45:11Z</time>
      </trkpt>
      <trkpt lat="38.9969350" lon="1.4208530">
        <ele>121.8</ele>
        <time>2020-02-23T16:45:12Z</time>
      </trkpt>
      <trkpt lat="38.9969240" lon="1.4208600">
        <ele>121.9</ele>
        <time>2020-02-23T16:45:13Z</time>
      </trkpt>
      <trkpt lat="38.9969150" lon="1.4208690">
        <ele>121.9</ele>
        <time>2020-02-23T16:45:14Z</time>
      </trkpt>
      <trkpt lat="38.9968970" lon="1.4208730">
        <ele>121.9</ele>
        <time>2020-02-23T16:45:15Z</time>
      </trkpt>
      <trkpt lat="38.9968930" lon="1.4208680">
        <ele>121.9</ele>
        <time>2020-02-23T16:45:16Z</time>
      </trkpt>
      <trkpt lat="38.9968920" lon="1.4208720">
        <ele>121.9</ele>
        <time>2020-02-23T16:45:17Z</time>
      </trkpt>
      <trkpt lat="38.9968870" lon="1.4208730">
        <ele>121.9</ele>
        <time>2020-02-23T16:45:18Z</time>
      </trkpt>
      <trkpt lat="38.9968750" lon="1.4208790">
        <ele>122.0</ele>
        <time>2020-02-23T16:45:19Z</time>
      </trkpt>
      <trkpt lat="38.9968560" lon="1.4208800">
        <ele>122.1</ele>
        <time>2020-02-23T16:45:20Z</time>
      </trkpt>
      <trkpt lat="38.9968270" lon="1.4208730">
        <ele>122.2</ele>
        <time>2020-02-23T16:45:21Z</time>
      </trkpt>
      <trkpt lat="38.9967950" lon="1.4208610">
        <ele>122.3</ele>
        <time>2020-02-23T16:45:22Z</time>
      </trkpt>
      <trkpt lat="38.9967550" lon="1.4208480">
        <ele>122.6</ele>
        <time>2020-02-23T16:45:23Z</time>
      </trkpt>
      <trkpt lat="38.9967120" lon="1.4208380">
        <ele>122.9</ele>
        <time>2020-02-23T16:45:24Z</time>
      </trkpt>
      <trkpt lat="38.9966670" lon="1.4208160">
        <ele>123.2</ele>
        <time>2020-02-23T16:45:25Z</time>
      </trkpt>
      <trkpt lat="38.9966240" lon="1.4207990">
        <ele>123.6</ele>
        <time>2020-02-23T16:45:26Z</time>
      </trkpt>
      <trkpt lat="38.9965870" lon="1.4207830">
        <ele>123.9</ele>
        <time>2020-02-23T16:45:27Z</time>
      </trkpt>
      <trkpt lat="38.9965550" lon="1.4207600">
        <ele>124.2</ele>
        <time>2020-02-23T16:45:28Z</time>
      </trkpt>
      <trkpt lat="38.9965320" lon="1.4207250">
        <ele>124.6</ele>
        <time>2020-02-23T16:45:29Z</time>
      </trkpt>
      <trkpt lat="38.9965100" lon="1.4206810">
        <ele>124.9</ele>
        <time>2020-02-23T16:45:30Z</time>
      </trkpt>
      <trkpt lat="38.9964940" lon="1.4206280">
        <ele>125.3</ele>
        <time>2020-02-23T16:45:31Z</time>
      </trkpt>
      <trkpt lat="38.9964860" lon="1.4205840">
        <ele>125.5</ele>
        <time>2020-02-23T16:45:32Z</time>
      </trkpt>
      <trkpt lat="38.9964650" lon="1.4205390">
        <ele>125.8</ele>
        <time>2020-02-23T16:45:33Z</time>
      </trkpt>
      <trkpt lat="38.9964580" lon="1.4205210">
        <ele>125.8</ele>
        <time>2020-02-23T16:45:34Z</time>
      </trkpt>
      <trkpt lat="38.9964480" lon="1.4204870">
        <ele>126.0</ele>
        <time>2020-02-23T16:45:35Z</time>
      </trkpt>
      <trkpt lat="38.9964430" lon="1.4204440">
        <ele>126.1</ele>
        <time>2020-02-23T16:45:36Z</time>
      </trkpt>
      <trkpt lat="38.9964380" lon="1.4204050">
        <ele>126.2</ele>
        <time>2020-02-23T16:45:37Z</time>
      </trkpt>
      <trkpt lat="38.9964300" lon="1.4203690">
        <ele>126.3</ele>
        <time>2020-02-23T16:45:38Z</time>
      </trkpt>
      <trkpt lat="38.9964290" lon="1.4203270">
        <ele>126.4</ele>
        <time>2020-02-23T16:45:39Z</time>
      </trkpt>
      <trkpt lat="38.9964290" lon="1.4203080">
        <ele>126.5</ele>
        <time>2020-02-23T16:45:40Z</time>
      </trkpt>
      <trkpt lat="38.9964220" lon="1.4202570">
        <ele>126.6</ele>
        <time>2020-02-23T16:45:41Z</time>
      </trkpt>
      <trkpt lat="38.9964220" lon="1.4202390">
        <ele>126.6</ele>
        <time>2020-02-23T16:45:42Z</time>
      </trkpt>
      <trkpt lat="38.9964220" lon="1.4201980">
        <ele>126.7</ele>
        <time>2020-02-23T16:45:43Z</time>
      </trkpt>
      <trkpt lat="38.9964220" lon="1.4201810">
        <ele>126.7</ele>
        <time>2020-02-23T16:45:44Z</time>
      </trkpt>
      <trkpt lat="38.9964120" lon="1.4201470">
        <ele>126.7</ele>
        <time>2020-02-23T16:45:45Z</time>
      </trkpt>
      <trkpt lat="38.9964020" lon="1.4201090">
        <ele>126.8</ele>
        <time>2020-02-23T16:45:46Z</time>
      </trkpt>
      <trkpt lat="38.9963880" lon="1.4200620">
        <ele>126.8</ele>
        <time>2020-02-23T16:45:47Z</time>
      </trkpt>
      <trkpt lat="38.9963840" lon="1.4200450">
        <ele>126.8</ele>
        <time>2020-02-23T16:45:48Z</time>
      </trkpt>
      <trkpt lat="38.9963650" lon="1.4200030">
        <ele>126.8</ele>
        <time>2020-02-23T16:45:49Z</time>
      </trkpt>
      <trkpt lat="38.9963570" lon="1.4199880">
        <ele>126.8</ele>
        <time>2020-02-23T16:45:50Z</time>
      </trkpt>
      <trkpt lat="38.9963460" lon="1.4199520">
        <ele>126.8</ele>
        <time>2020-02-23T16:45:51Z</time>
      </trkpt>
      <trkpt lat="38.9963310" lon="1.4199070">
        <ele>126.8</ele>
        <time>2020-02-23T16:45:52Z</time>
      </trkpt>
      <trkpt lat="38.9963230" lon="1.4198940">
        <ele>126.8</ele>
        <time>2020-02-23T16:45:53Z</time>
      </trkpt>
      <trkpt lat="38.9963140" lon="1.4198600">
        <ele>127.1</ele>
        <time>2020-02-23T16:45:54Z</time>
      </trkpt>
      <trkpt lat="38.9963130" lon="1.4198490">
        <ele>127.1</ele>
        <time>2020-02-23T16:45:55Z</time>
      </trkpt>
      <trkpt lat="38.9963150" lon="1.4198270">
        <ele>127.2</ele>
        <time>2020-02-23T16:45:56Z</time>
      </trkpt>
      <trkpt lat="38.9963170" lon="1.4198050">
        <ele>127.3</ele>
        <time>2020-02-23T16:45:57Z</time>
      </trkpt>
      <trkpt lat="38.9963210" lon="1.4197630">
        <ele>127.6</ele>
        <time>2020-02-23T16:45:58Z</time>
      </trkpt>
      <trkpt lat="38.9963220" lon="1.4197230">
        <ele>127.7</ele>
        <time>2020-02-23T16:45:59Z</time>
      </trkpt>
      <trkpt lat="38.9963220" lon="1.4197100">
        <ele>127.8</ele>
        <time>2020-02-23T16:46:00Z</time>
      </trkpt>
      <trkpt lat="38.9963190" lon="1.4196630">
        <ele>128.0</ele>
        <time>2020-02-23T16:46:01Z</time>
      </trkpt>
      <trkpt lat="38.9963170" lon="1.4196500">
        <ele>128.0</ele>
        <time>2020-02-23T16:46:02Z</time>
      </trkpt>
      <trkpt lat="38.9963190" lon="1.4196000">
        <ele>128.2</ele>
        <time>2020-02-23T16:46:03Z</time>
      </trkpt>
      <trkpt lat="38.9963170" lon="1.4195810">
        <ele>128.2</ele>
        <time>2020-02-23T16:46:04Z</time>
      </trkpt>
      <trkpt lat="38.9963160" lon="1.4195400">
        <ele>128.4</ele>
        <time>2020-02-23T16:46:05Z</time>
      </trkpt>
      <trkpt lat="38.9963170" lon="1.4194930">
        <ele>128.5</ele>
        <time>2020-02-23T16:46:06Z</time>
      </trkpt>
      <trkpt lat="38.9963140" lon="1.4194480">
        <ele>128.6</ele>
        <time>2020-02-23T16:46:07Z</time>
      </trkpt>
      <trkpt lat="38.9963060" lon="1.4194120">
        <ele>128.8</ele>
        <time>2020-02-23T16:46:08Z</time>
      </trkpt>
      <trkpt lat="38.9963080" lon="1.4193610">
        <ele>128.9</ele>
        <time>2020-02-23T16:46:09Z</time>
      </trkpt>
      <trkpt lat="38.9963080" lon="1.4193410">
        <ele>129.0</ele>
        <time>2020-02-23T16:46:10Z</time>
      </trkpt>
      <trkpt lat="38.9963070" lon="1.4192960">
        <ele>129.1</ele>
        <time>2020-02-23T16:46:11Z</time>
      </trkpt>
      <trkpt lat="38.9963070" lon="1.4192520">
        <ele>129.2</ele>
        <time>2020-02-23T16:46:12Z</time>
      </trkpt>
      <trkpt lat="38.9963070" lon="1.4192080">
        <ele>129.3</ele>
        <time>2020-02-23T16:46:13Z</time>
      </trkpt>
      <trkpt lat="38.9963070" lon="1.4191670">
        <ele>129.4</ele>
        <time>2020-02-23T16:46:14Z</time>
      </trkpt>
      <trkpt lat="38.9963110" lon="1.4191290">
        <ele>129.5</ele>
        <time>2020-02-23T16:46:15Z</time>
      </trkpt>
      <trkpt lat="38.9963160" lon="1.4190850">
        <ele>129.6</ele>
        <time>2020-02-23T16:46:16Z</time>
      </trkpt>
      <trkpt lat="38.9963170" lon="1.4190500">
        <ele>129.7</ele>
        <time>2020-02-23T16:46:17Z</time>
      </trkpt>
      <trkpt lat="38.9963250" lon="1.4190090">
        <ele>129.8</ele>
        <time>2020-02-23T16:46:18Z</time>
      </trkpt>
      <trkpt lat="38.9963270" lon="1.4189690">
        <ele>129.9</ele>
        <time>2020-02-23T16:46:19Z</time>
      </trkpt>
      <trkpt lat="38.9963120" lon="1.4189380">
        <ele>130.1</ele>
        <time>2020-02-23T16:46:20Z</time>
      </trkpt>
      <trkpt lat="38.9963040" lon="1.4188790">
        <ele>130.4</ele>
        <time>2020-02-23T16:46:21Z</time>
      </trkpt>
      <trkpt lat="38.9962950" lon="1.4188380">
        <ele>130.5</ele>
        <time>2020-02-23T16:46:22Z</time>
      </trkpt>
      <trkpt lat="38.9962800" lon="1.4187950">
        <ele>130.7</ele>
        <time>2020-02-23T16:46:23Z</time>
      </trkpt>
      <trkpt lat="38.9962640" lon="1.4187640">
        <ele>130.9</ele>
        <time>2020-02-23T16:46:24Z</time>
      </trkpt>
      <trkpt lat="38.9962640" lon="1.4187150">
        <ele>131.1</ele>
        <time>2020-02-23T16:46:25Z</time>
      </trkpt>
      <trkpt lat="38.9962650" lon="1.4186750">
        <ele>131.2</ele>
        <time>2020-02-23T16:46:26Z</time>
      </trkpt>
      <trkpt lat="38.9962640" lon="1.4186300">
        <ele>131.3</ele>
        <time>2020-02-23T16:46:27Z</time>
      </trkpt>
      <trkpt lat="38.9962680" lon="1.4185900">
        <ele>131.3</ele>
        <time>2020-02-23T16:46:28Z</time>
      </trkpt>
      <trkpt lat="38.9962720" lon="1.4185550">
        <ele>131.4</ele>
        <time>2020-02-23T16:46:29Z</time>
      </trkpt>
      <trkpt lat="38.9962830" lon="1.4185080">
        <ele>131.5</ele>
        <time>2020-02-23T16:46:30Z</time>
      </trkpt>
      <trkpt lat="38.9962880" lon="1.4184860">
        <ele>131.6</ele>
        <time>2020-02-23T16:46:31Z</time>
      </trkpt>
      <trkpt lat="38.9962880" lon="1.4184280">
        <ele>131.7</ele>
        <time>2020-02-23T16:46:32Z</time>
      </trkpt>
      <trkpt lat="38.9962870" lon="1.4183650">
        <ele>131.9</ele>
        <time>2020-02-23T16:46:33Z</time>
      </trkpt>
      <trkpt lat="38.9962860" lon="1.4183160">
        <ele>132.1</ele>
        <time>2020-02-23T16:46:34Z</time>
      </trkpt>
      <trkpt lat="38.9962730" lon="1.4182660">
        <ele>132.3</ele>
        <time>2020-02-23T16:46:35Z</time>
      </trkpt>
      <trkpt lat="38.9962700" lon="1.4182170">
        <ele>132.4</ele>
        <time>2020-02-23T16:46:36Z</time>
      </trkpt>
      <trkpt lat="38.9962660" lon="1.4181750">
        <ele>132.6</ele>
        <time>2020-02-23T16:46:37Z</time>
      </trkpt>
      <trkpt lat="38.9962630" lon="1.4181370">
        <ele>132.7</ele>
        <time>2020-02-23T16:46:38Z</time>
      </trkpt>
      <trkpt lat="38.9962690" lon="1.4181020">
        <ele>132.9</ele>
        <time>2020-02-23T16:46:39Z</time>
      </trkpt>
      <trkpt lat="38.9962660" lon="1.4180580">
        <ele>133.1</ele>
        <time>2020-02-23T16:46:40Z</time>
      </trkpt>
      <trkpt lat="38.9962600" lon="1.4180150">
        <ele>133.3</ele>
        <time>2020-02-23T16:46:41Z</time>
      </trkpt>
      <trkpt lat="38.9962570" lon="1.4179790">
        <ele>133.5</ele>
        <time>2020-02-23T16:46:42Z</time>
      </trkpt>
      <trkpt lat="38.9962570" lon="1.4179370">
        <ele>133.7</ele>
        <time>2020-02-23T16:46:43Z</time>
      </trkpt>
      <trkpt lat="38.9962600" lon="1.4178910">
        <ele>133.9</ele>
        <time>2020-02-23T16:46:44Z</time>
      </trkpt>
      <trkpt lat="38.9962600" lon="1.4178350">
        <ele>134.2</ele>
        <time>2020-02-23T16:46:45Z</time>
      </trkpt>
      <trkpt lat="38.9962580" lon="1.4177870">
        <ele>134.4</ele>
        <time>2020-02-23T16:46:46Z</time>
      </trkpt>
      <trkpt lat="38.9962630" lon="1.4177420">
        <ele>134.7</ele>
        <time>2020-02-23T16:46:47Z</time>
      </trkpt>
      <trkpt lat="38.9962590" lon="1.4176990">
        <ele>134.9</ele>
        <time>2020-02-23T16:46:48Z</time>
      </trkpt>
      <trkpt lat="38.9962520" lon="1.4176610">
        <ele>135.1</ele>
        <time>2020-02-23T16:46:49Z</time>
      </trkpt>
      <trkpt lat="38.9962430" lon="1.4176220">
        <ele>135.3</ele>
        <time>2020-02-23T16:46:50Z</time>
      </trkpt>
      <trkpt lat="38.9962460" lon="1.4175810">
        <ele>135.6</ele>
        <time>2020-02-23T16:46:51Z</time>
      </trkpt>
      <trkpt lat="38.9962470" lon="1.4175410">
        <ele>135.8</ele>
        <time>2020-02-23T16:46:52Z</time>
      </trkpt>
      <trkpt lat="38.9962460" lon="1.4175300">
        <ele>135.9</ele>
        <time>2020-02-23T16:46:53Z</time>
      </trkpt>
      <trkpt lat="38.9962480" lon="1.4175110">
        <ele>136.0</ele>
        <time>2020-02-23T16:46:54Z</time>
      </trkpt>
      <trkpt lat="38.9962490" lon="1.4175010">
        <ele>136.0</ele>
        <time>2020-02-23T16:46:55Z</time>
      </trkpt>
      <trkpt lat="38.9962500" lon="1.4174900">
        <ele>136.3</ele>
        <time>2020-02-23T16:46:56Z</time>
      </trkpt>
      <trkpt lat="38.9962510" lon="1.4174800">
        <ele>136.4</ele>
        <time>2020-02-23T16:46:57Z</time>
      </trkpt>
      <trkpt lat="38.9962450" lon="1.4174430">
        <ele>136.5</ele>
        <time>2020-02-23T16:46:58Z</time>
      </trkpt>
      <trkpt lat="38.9962400" lon="1.4174270">
        <ele>136.5</ele>
        <time>2020-02-23T16:46:59Z</time>
      </trkpt>
      <trkpt lat="38.9962260" lon="1.4173940">
        <ele>136.6</ele>
        <time>2020-02-23T16:47:00Z</time>
      </trkpt>
      <trkpt lat="38.9961990" lon="1.4173700">
        <ele>136.7</ele>
        <time>2020-02-23T16:47:01Z</time>
      </trkpt>
      <trkpt lat="38.9961730" lon="1.4173280">
        <ele>136.9</ele>
        <time>2020-02-23T16:47:02Z</time>
      </trkpt>
      <trkpt lat="38.9961500" lon="1.4173040">
        <ele>136.9</ele>
        <time>2020-02-23T16:47:03Z</time>
      </trkpt>
      <trkpt lat="38.9961270" lon="1.4172770">
        <ele>137.0</ele>
        <time>2020-02-23T16:47:04Z</time>
      </trkpt>
      <trkpt lat="38.9961060" lon="1.4172380">
        <ele>137.1</ele>
        <time>2020-02-23T16:47:05Z</time>
      </trkpt>
      <trkpt lat="38.9960850" lon="1.4171970">
        <ele>137.1</ele>
        <time>2020-02-23T16:47:06Z</time>
      </trkpt>
      <trkpt lat="38.9960640" lon="1.4171570">
        <ele>137.2</ele>
        <time>2020-02-23T16:47:07Z</time>
      </trkpt>
      <trkpt lat="38.9960450" lon="1.4171260">
        <ele>137.2</ele>
        <time>2020-02-23T16:47:08Z</time>
      </trkpt>
      <trkpt lat="38.9960250" lon="1.4171000">
        <ele>137.3</ele>
        <time>2020-02-23T16:47:09Z</time>
      </trkpt>
      <trkpt lat="38.9960110" lon="1.4170630">
        <ele>137.3</ele>
        <time>2020-02-23T16:47:10Z</time>
      </trkpt>
      <trkpt lat="38.9960020" lon="1.4170260">
        <ele>137.4</ele>
        <time>2020-02-23T16:47:11Z</time>
      </trkpt>
      <trkpt lat="38.9959870" lon="1.4169860">
        <ele>137.4</ele>
        <time>2020-02-23T16:47:12Z</time>
      </trkpt>
      <trkpt lat="38.9959690" lon="1.4169560">
        <ele>137.5</ele>
        <time>2020-02-23T16:47:13Z</time>
      </trkpt>
      <trkpt lat="38.9959450" lon="1.4169210">
        <ele>137.6</ele>
        <time>2020-02-23T16:47:14Z</time>
      </trkpt>
      <trkpt lat="38.9959290" lon="1.4168700">
        <ele>137.7</ele>
        <time>2020-02-23T16:47:15Z</time>
      </trkpt>
      <trkpt lat="38.9959190" lon="1.4168270">
        <ele>137.9</ele>
        <time>2020-02-23T16:47:16Z</time>
      </trkpt>
      <trkpt lat="38.9959080" lon="1.4167820">
        <ele>138.0</ele>
        <time>2020-02-23T16:47:17Z</time>
      </trkpt>
      <trkpt lat="38.9959060" lon="1.4167240">
        <ele>138.3</ele>
        <time>2020-02-23T16:47:18Z</time>
      </trkpt>
      <trkpt lat="38.9958970" lon="1.4166760">
        <ele>138.5</ele>
        <time>2020-02-23T16:47:19Z</time>
      </trkpt>
      <trkpt lat="38.9958840" lon="1.4166250">
        <ele>138.8</ele>
        <time>2020-02-23T16:47:20Z</time>
      </trkpt>
      <trkpt lat="38.9958730" lon="1.4165740">
        <ele>139.2</ele>
        <time>2020-02-23T16:47:21Z</time>
      </trkpt>
      <trkpt lat="38.9958610" lon="1.4165290">
        <ele>139.5</ele>
        <time>2020-02-23T16:47:22Z</time>
      </trkpt>
      <trkpt lat="38.9958410" lon="1.4164790">
        <ele>140.0</ele>
        <time>2020-02-23T16:47:23Z</time>
      </trkpt>
      <trkpt lat="38.9958290" lon="1.4164300">
        <ele>140.5</ele>
        <time>2020-02-23T16:47:24Z</time>
      </trkpt>
      <trkpt lat="38.9958160" lon="1.4163830">
        <ele>140.9</ele>
        <time>2020-02-23T16:47:25Z</time>
      </trkpt>
      <trkpt lat="38.9957970" lon="1.4163440">
        <ele>141.2</ele>
        <time>2020-02-23T16:47:26Z</time>
      </trkpt>
      <trkpt lat="38.9957750" lon="1.4163190">
        <ele>141.2</ele>
        <time>2020-02-23T16:47:27Z</time>
      </trkpt>
      <trkpt lat="38.9957360" lon="1.4163010">
        <ele>141.1</ele>
        <time>2020-02-23T16:47:28Z</time>
      </trkpt>
      <trkpt lat="38.9957180" lon="1.4162980">
        <ele>141.1</ele>
        <time>2020-02-23T16:47:29Z</time>
      </trkpt>
      <trkpt lat="38.9956800" lon="1.4162930">
        <ele>141.1</ele>
        <time>2020-02-23T16:47:30Z</time>
      </trkpt>
      <trkpt lat="38.9956400" lon="1.4162900">
        <ele>141.0</ele>
        <time>2020-02-23T16:47:31Z</time>
      </trkpt>
      <trkpt lat="38.9956030" lon="1.4162980">
        <ele>141.0</ele>
        <time>2020-02-23T16:47:32Z</time>
      </trkpt>
      <trkpt lat="38.9955590" lon="1.4163030">
        <ele>141.0</ele>
        <time>2020-02-23T16:47:33Z</time>
      </trkpt>
      <trkpt lat="38.9955160" lon="1.4163000">
        <ele>141.1</ele>
        <time>2020-02-23T16:47:34Z</time>
      </trkpt>
      <trkpt lat="38.9954760" lon="1.4163050">
        <ele>141.1</ele>
        <time>2020-02-23T16:47:35Z</time>
      </trkpt>
      <trkpt lat="38.9954470" lon="1.4163010">
        <ele>141.2</ele>
        <time>2020-02-23T16:47:36Z</time>
      </trkpt>
      <trkpt lat="38.9954180" lon="1.4162980">
        <ele>141.3</ele>
        <time>2020-02-23T16:47:37Z</time>
      </trkpt>
      <trkpt lat="38.9953870" lon="1.4162970">
        <ele>141.3</ele>
        <time>2020-02-23T16:47:38Z</time>
      </trkpt>
      <trkpt lat="38.9953580" lon="1.4163020">
        <ele>141.4</ele>
        <time>2020-02-23T16:47:39Z</time>
      </trkpt>
      <trkpt lat="38.9953040" lon="1.4163120">
        <ele>141.6</ele>
        <time>2020-02-23T16:47:40Z</time>
      </trkpt>
      <trkpt lat="38.9952600" lon="1.4163150">
        <ele>141.7</ele>
        <time>2020-02-23T16:47:41Z</time>
      </trkpt>
      <trkpt lat="38.9952110" lon="1.4163190">
        <ele>141.8</ele>
        <time>2020-02-23T16:47:42Z</time>
      </trkpt>
      <trkpt lat="38.9951870" lon="1.4163200">
        <ele>141.8</ele>
        <time>2020-02-23T16:47:43Z</time>
      </trkpt>
      <trkpt lat="38.9951490" lon="1.4163220">
        <ele>141.9</ele>
        <time>2020-02-23T16:47:44Z</time>
      </trkpt>
      <trkpt lat="38.9951060" lon="1.4163150">
        <ele>141.9</ele>
        <time>2020-02-23T16:47:45Z</time>
      </trkpt>
      <trkpt lat="38.9950700" lon="1.4163090">
        <ele>141.9</ele>
        <time>2020-02-23T16:47:46Z</time>
      </trkpt>
      <trkpt lat="38.9950250" lon="1.4163060">
        <ele>141.9</ele>
        <time>2020-02-23T16:47:47Z</time>
      </trkpt>
      <trkpt lat="38.9949820" lon="1.4163040">
        <ele>141.9</ele>
        <time>2020-02-23T16:47:48Z</time>
      </trkpt>
      <trkpt lat="38.9949640" lon="1.4163040">
        <ele>141.9</ele>
        <time>2020-02-23T16:47:49Z</time>
      </trkpt>
      <trkpt lat="38.9949330" lon="1.4163090">
        <ele>141.9</ele>
        <time>2020-02-23T16:47:50Z</time>
      </trkpt>
      <trkpt lat="38.9949010" lon="1.4163070">
        <ele>141.9</ele>
        <time>2020-02-23T16:47:51Z</time>
      </trkpt>
      <trkpt lat="38.9948730" lon="1.4163080">
        <ele>141.9</ele>
        <time>2020-02-23T16:47:52Z</time>
      </trkpt>
      <trkpt lat="38.9948410" lon="1.4162930">
        <ele>141.9</ele>
        <time>2020-02-23T16:47:53Z</time>
      </trkpt>
      <trkpt lat="38.9948330" lon="1.4162830">
        <ele>141.9</ele>
        <time>2020-02-23T16:47:54Z</time>
      </trkpt>
      <trkpt lat="38.9948110" lon="1.4162500">
        <ele>142.4</ele>
        <time>2020-02-23T16:47:55Z</time>
      </trkpt>
      <trkpt lat="38.9947880" lon="1.4162230">
        <ele>142.6</ele>
        <time>2020-02-23T16:47:56Z</time>
      </trkpt>
      <trkpt lat="38.9947720" lon="1.4161810">
        <ele>142.9</ele>
        <time>2020-02-23T16:47:57Z</time>
      </trkpt>
      <trkpt lat="38.9947700" lon="1.4161650">
        <ele>143.0</ele>
        <time>2020-02-23T16:47:58Z</time>
      </trkpt>
      <trkpt lat="38.9947610" lon="1.4161250">
        <ele>143.2</ele>
        <time>2020-02-23T16:47:59Z</time>
      </trkpt>
      <trkpt lat="38.9947590" lon="1.4161140">
        <ele>143.3</ele>
        <time>2020-02-23T16:48:00Z</time>
      </trkpt>
      <trkpt lat="38.9947410" lon="1.4160850">
        <ele>143.5</ele>
        <time>2020-02-23T16:48:01Z</time>
      </trkpt>
      <trkpt lat="38.9947370" lon="1.4160730">
        <ele>143.6</ele>
        <time>2020-02-23T16:48:02Z</time>
      </trkpt>
      <trkpt lat="38.9947190" lon="1.4160420">
        <ele>143.9</ele>
        <time>2020-02-23T16:48:03Z</time>
      </trkpt>
      <trkpt lat="38.9947120" lon="1.4160330">
        <ele>143.9</ele>
        <time>2020-02-23T16:48:04Z</time>
      </trkpt>
      <trkpt lat="38.9946970" lon="1.4159980">
        <ele>144.2</ele>
        <time>2020-02-23T16:48:05Z</time>
      </trkpt>
      <trkpt lat="38.9946900" lon="1.4159850">
        <ele>144.3</ele>
        <time>2020-02-23T16:48:06Z</time>
      </trkpt>
      <trkpt lat="38.9946730" lon="1.4159520">
        <ele>144.5</ele>
        <time>2020-02-23T16:48:07Z</time>
      </trkpt>
      <trkpt lat="38.9946660" lon="1.4159420">
        <ele>144.6</ele>
        <time>2020-02-23T16:48:08Z</time>
      </trkpt>
      <trkpt lat="38.9946460" lon="1.4159020">
        <ele>144.9</ele>
        <time>2020-02-23T16:48:09Z</time>
      </trkpt>
      <trkpt lat="38.9946390" lon="1.4158880">
        <ele>145.0</ele>
        <time>2020-02-23T16:48:10Z</time>
      </trkpt>
      <trkpt lat="38.9946190" lon="1.4158590">
        <ele>145.3</ele>
        <time>2020-02-23T16:48:11Z</time>
      </trkpt>
      <trkpt lat="38.9946130" lon="1.4158520">
        <ele>145.3</ele>
        <time>2020-02-23T16:48:12Z</time>
      </trkpt>
      <trkpt lat="38.9946010" lon="1.4158400">
        <ele>145.4</ele>
        <time>2020-02-23T16:48:13Z</time>
      </trkpt>
      <trkpt lat="38.9945910" lon="1.4158290">
        <ele>145.4</ele>
        <time>2020-02-23T16:48:14Z</time>
      </trkpt>
      <trkpt lat="38.9945790" lon="1.4158140">
        <ele>145.5</ele>
        <time>2020-02-23T16:48:15Z</time>
      </trkpt>
      <trkpt lat="38.9945630" lon="1.4158010">
        <ele>145.6</ele>
        <time>2020-02-23T16:48:16Z</time>
      </trkpt>
      <trkpt lat="38.9945320" lon="1.4157890">
        <ele>145.7</ele>
        <time>2020-02-23T16:48:17Z</time>
      </trkpt>
      <trkpt lat="38.9945200" lon="1.4157820">
        <ele>145.8</ele>
        <time>2020-02-23T16:48:18Z</time>
      </trkpt>
      <trkpt lat="38.9944920" lon="1.4157720">
        <ele>145.9</ele>
        <time>2020-02-23T16:48:19Z</time>
      </trkpt>
      <trkpt lat="38.9944840" lon="1.4157700">
        <ele>146.0</ele>
        <time>2020-02-23T16:48:20Z</time>
      </trkpt>
      <trkpt lat="38.9944590" lon="1.4157570">
        <ele>146.1</ele>
        <time>2020-02-23T16:48:21Z</time>
      </trkpt>
      <trkpt lat="38.9944200" lon="1.4157450">
        <ele>146.3</ele>
        <time>2020-02-23T16:48:22Z</time>
      </trkpt>
      <trkpt lat="38.9944060" lon="1.4157420">
        <ele>146.3</ele>
        <time>2020-02-23T16:48:23Z</time>
      </trkpt>
      <trkpt lat="38.9943710" lon="1.4157330">
        <ele>146.5</ele>
        <time>2020-02-23T16:48:24Z</time>
      </trkpt>
      <trkpt lat="38.9943600" lon="1.4157260">
        <ele>146.5</ele>
        <time>2020-02-23T16:48:25Z</time>
      </trkpt>
      <trkpt lat="38.9943270" lon="1.4157160">
        <ele>146.7</ele>
        <time>2020-02-23T16:48:26Z</time>
      </trkpt>
      <trkpt lat="38.9943170" lon="1.4157110">
        <ele>146.7</ele>
        <time>2020-02-23T16:48:27Z</time>
      </trkpt>
      <trkpt lat="38.9942880" lon="1.4157000">
        <ele>146.9</ele>
        <time>2020-02-23T16:48:28Z</time>
      </trkpt>
      <trkpt lat="38.9942770" lon="1.4156960">
        <ele>146.9</ele>
        <time>2020-02-23T16:48:29Z</time>
      </trkpt>
      <trkpt lat="38.9942470" lon="1.4156770">
        <ele>147.0</ele>
        <time>2020-02-23T16:48:30Z</time>
      </trkpt>
      <trkpt lat="38.9942370" lon="1.4156750">
        <ele>147.1</ele>
        <time>2020-02-23T16:48:31Z</time>
      </trkpt>
      <trkpt lat="38.9942110" lon="1.4156740">
        <ele>147.2</ele>
        <time>2020-02-23T16:48:32Z</time>
      </trkpt>
      <trkpt lat="38.9942000" lon="1.4156730">
        <ele>147.2</ele>
        <time>2020-02-23T16:48:33Z</time>
      </trkpt>
      <trkpt lat="38.9941720" lon="1.4156660">
        <ele>147.3</ele>
        <time>2020-02-23T16:48:34Z</time>
      </trkpt>
      <trkpt lat="38.9941370" lon="1.4156570">
        <ele>147.4</ele>
        <time>2020-02-23T16:48:35Z</time>
      </trkpt>
      <trkpt lat="38.9941240" lon="1.4156560">
        <ele>147.5</ele>
        <time>2020-02-23T16:48:36Z</time>
      </trkpt>
      <trkpt lat="38.9940880" lon="1.4156470">
        <ele>147.6</ele>
        <time>2020-02-23T16:48:37Z</time>
      </trkpt>
      <trkpt lat="38.9940740" lon="1.4156460">
        <ele>147.6</ele>
        <time>2020-02-23T16:48:38Z</time>
      </trkpt>
      <trkpt lat="38.9940470" lon="1.4156420">
        <ele>147.7</ele>
        <time>2020-02-23T16:48:39Z</time>
      </trkpt>
      <trkpt lat="38.9940130" lon="1.4156440">
        <ele>147.8</ele>
        <time>2020-02-23T16:48:40Z</time>
      </trkpt>
      <trkpt lat="38.9939710" lon="1.4156460">
        <ele>147.9</ele>
        <time>2020-02-23T16:48:41Z</time>
      </trkpt>
      <trkpt lat="38.9939550" lon="1.4156420">
        <ele>148.0</ele>
        <time>2020-02-23T16:48:42Z</time>
      </trkpt>
      <trkpt lat="38.9939250" lon="1.4156340">
        <ele>148.1</ele>
        <time>2020-02-23T16:48:43Z</time>
      </trkpt>
      <trkpt lat="38.9938820" lon="1.4156240">
        <ele>148.2</ele>
        <time>2020-02-23T16:48:44Z</time>
      </trkpt>
      <trkpt lat="38.9938650" lon="1.4156210">
        <ele>148.2</ele>
        <time>2020-02-23T16:48:45Z</time>
      </trkpt>
      <trkpt lat="38.9938350" lon="1.4156190">
        <ele>148.3</ele>
        <time>2020-02-23T16:48:46Z</time>
      </trkpt>
      <trkpt lat="38.9937980" lon="1.4156050">
        <ele>148.4</ele>
        <time>2020-02-23T16:48:47Z</time>
      </trkpt>
      <trkpt lat="38.9937820" lon="1.4156020">
        <ele>148.4</ele>
        <time>2020-02-23T16:48:48Z</time>
      </trkpt>
      <trkpt lat="38.9937420" lon="1.4156020">
        <ele>148.5</ele>
        <time>2020-02-23T16:48:49Z</time>
      </trkpt>
      <trkpt lat="38.9937250" lon="1.4156050">
        <ele>148.6</ele>
        <time>2020-02-23T16:48:50Z</time>
      </trkpt>
      <trkpt lat="38.9936970" lon="1.4156100">
        <ele>148.7</ele>
        <time>2020-02-23T16:48:51Z</time>
      </trkpt>
      <trkpt lat="38.9936660" lon="1.4156100">
        <ele>148.7</ele>
        <time>2020-02-23T16:48:52Z</time>
      </trkpt>
      <trkpt lat="38.9936270" lon="1.4156120">
        <ele>148.8</ele>
        <time>2020-02-23T16:48:53Z</time>
      </trkpt>
      <trkpt lat="38.9936130" lon="1.4156110">
        <ele>148.9</ele>
        <time>2020-02-23T16:48:54Z</time>
      </trkpt>
      <trkpt lat="38.9935800" lon="1.4156170">
        <ele>148.9</ele>
        <time>2020-02-23T16:48:55Z</time>
      </trkpt>
      <trkpt lat="38.9935500" lon="1.4156120">
        <ele>149.0</ele>
        <time>2020-02-23T16:48:56Z</time>
      </trkpt>
      <trkpt lat="38.9935220" lon="1.4156070">
        <ele>149.0</ele>
        <time>2020-02-23T16:48:57Z</time>
      </trkpt>
      <trkpt lat="38.9934920" lon="1.4156000">
        <ele>149.1</ele>
        <time>2020-02-23T16:48:58Z</time>
      </trkpt>
      <trkpt lat="38.9934620" lon="1.4155950">
        <ele>149.1</ele>
        <time>2020-02-23T16:48:59Z</time>
      </trkpt>
      <trkpt lat="38.9934170" lon="1.4155990">
        <ele>149.2</ele>
        <time>2020-02-23T16:49:00Z</time>
      </trkpt>
      <trkpt lat="38.9933790" lon="1.4156010">
        <ele>149.2</ele>
        <time>2020-02-23T16:49:01Z</time>
      </trkpt>
      <trkpt lat="38.9933440" lon="1.4156090">
        <ele>149.2</ele>
        <time>2020-02-23T16:49:02Z</time>
      </trkpt>
      <trkpt lat="38.9933080" lon="1.4156170">
        <ele>149.3</ele>
        <time>2020-02-23T16:49:03Z</time>
      </trkpt>
      <trkpt lat="38.9932750" lon="1.4156280">
        <ele>149.3</ele>
        <time>2020-02-23T16:49:04Z</time>
      </trkpt>
      <trkpt lat="38.9932450" lon="1.4156360">
        <ele>149.3</ele>
        <time>2020-02-23T16:49:05Z</time>
      </trkpt>
      <trkpt lat="38.9932070" lon="1.4156510">
        <ele>149.4</ele>
        <time>2020-02-23T16:49:06Z</time>
      </trkpt>
      <trkpt lat="38.9931890" lon="1.4156510">
        <ele>149.4</ele>
        <time>2020-02-23T16:49:07Z</time>
      </trkpt>
      <trkpt lat="38.9931520" lon="1.4156480">
        <ele>149.4</ele>
        <time>2020-02-23T16:49:08Z</time>
      </trkpt>
      <trkpt lat="38.9931370" lon="1.4156480">
        <ele>149.4</ele>
        <time>2020-02-23T16:49:09Z</time>
      </trkpt>
      <trkpt lat="38.9931090" lon="1.4156470">
        <ele>149.4</ele>
        <time>2020-02-23T16:49:10Z</time>
      </trkpt>
      <trkpt lat="38.9930790" lon="1.4156660">
        <ele>149.4</ele>
        <time>2020-02-23T16:49:11Z</time>
      </trkpt>
      <trkpt lat="38.9930460" lon="1.4156730">
        <ele>149.4</ele>
        <time>2020-02-23T16:49:12Z</time>
      </trkpt>
      <trkpt lat="38.9930130" lon="1.4156850">
        <ele>149.4</ele>
        <time>2020-02-23T16:49:13Z</time>
      </trkpt>
      <trkpt lat="38.9929860" lon="1.4156900">
        <ele>149.4</ele>
        <time>2020-02-23T16:49:14Z</time>
      </trkpt>
      <trkpt lat="38.9929620" lon="1.4156780">
        <ele>149.4</ele>
        <time>2020-02-23T16:49:15Z</time>
      </trkpt>
      <trkpt lat="38.9929510" lon="1.4156690">
        <ele>149.4</ele>
        <time>2020-02-23T16:49:16Z</time>
      </trkpt>
      <trkpt lat="38.9929320" lon="1.4156250">
        <ele>149.2</ele>
        <time>2020-02-23T16:49:17Z</time>
      </trkpt>
      <trkpt lat="38.9929270" lon="1.4156080">
        <ele>149.2</ele>
        <time>2020-02-23T16:49:18Z</time>
      </trkpt>
      <trkpt lat="38.9929110" lon="1.4155640">
        <ele>149.1</ele>
        <time>2020-02-23T16:49:19Z</time>
      </trkpt>
      <trkpt lat="38.9928910" lon="1.4155120">
        <ele>148.9</ele>
        <time>2020-02-23T16:49:20Z</time>
      </trkpt>
      <trkpt lat="38.9928760" lon="1.4154670">
        <ele>148.9</ele>
        <time>2020-02-23T16:49:21Z</time>
      </trkpt>
      <trkpt lat="38.9928610" lon="1.4154070">
        <ele>148.7</ele>
        <time>2020-02-23T16:49:22Z</time>
      </trkpt>
      <trkpt lat="38.9928470" lon="1.4153570">
        <ele>148.6</ele>
        <time>2020-02-23T16:49:23Z</time>
      </trkpt>
      <trkpt lat="38.9928360" lon="1.4153000">
        <ele>148.5</ele>
        <time>2020-02-23T16:49:24Z</time>
      </trkpt>
      <trkpt lat="38.9928250" lon="1.4152420">
        <ele>148.3</ele>
        <time>2020-02-23T16:49:25Z</time>
      </trkpt>
      <trkpt lat="38.9928240" lon="1.4151830">
        <ele>148.2</ele>
        <time>2020-02-23T16:49:26Z</time>
      </trkpt>
      <trkpt lat="38.9928170" lon="1.4151190">
        <ele>148.0</ele>
        <time>2020-02-23T16:49:27Z</time>
      </trkpt>
      <trkpt lat="38.9928090" lon="1.4150690">
        <ele>147.9</ele>
        <time>2020-02-23T16:49:28Z</time>
      </trkpt>
      <trkpt lat="38.9927980" lon="1.4150310">
        <ele>147.8</ele>
        <time>2020-02-23T16:49:29Z</time>
      </trkpt>
      <trkpt lat="38.9927950" lon="1.4150020">
        <ele>147.7</ele>
        <time>2020-02-23T16:49:30Z</time>
      </trkpt>
      <trkpt lat="38.9927950" lon="1.4149900">
        <ele>147.7</ele>
        <time>2020-02-23T16:49:31Z</time>
      </trkpt>
      <trkpt lat="38.9927950" lon="1.4149770">
        <ele>147.7</ele>
        <time>2020-02-23T16:49:32Z</time>
      </trkpt>
      <trkpt lat="38.9927950" lon="1.4149640">
        <ele>147.7</ele>
        <time>2020-02-23T16:49:33Z</time>
      </trkpt>
      <trkpt lat="38.9927950" lon="1.4149520">
        <ele>147.6</ele>
        <time>2020-02-23T16:49:34Z</time>
      </trkpt>
      <trkpt lat="38.9927950" lon="1.4149390">
        <ele>147.6</ele>
        <time>2020-02-23T16:49:35Z</time>
      </trkpt>
      <trkpt lat="38.9927950" lon="1.4149260">
        <ele>147.6</ele>
        <time>2020-02-23T16:49:36Z</time>
      </trkpt>
      <trkpt lat="38.9927940" lon="1.4149140">
        <ele>147.6</ele>
        <time>2020-02-23T16:49:37Z</time>
      </trkpt>
      <trkpt lat="38.9927940" lon="1.4149010">
        <ele>147.5</ele>
        <time>2020-02-23T16:49:38Z</time>
      </trkpt>
      <trkpt lat="38.9927940" lon="1.4148890">
        <ele>147.5</ele>
        <time>2020-02-23T16:49:39Z</time>
      </trkpt>
      <trkpt lat="38.9927940" lon="1.4148760">
        <ele>147.4</ele>
        <time>2020-02-23T16:49:40Z</time>
      </trkpt>
      <trkpt lat="38.9927940" lon="1.4148630">
        <ele>147.3</ele>
        <time>2020-02-23T16:49:41Z</time>
      </trkpt>
      <trkpt lat="38.9927940" lon="1.4148510">
        <ele>147.3</ele>
        <time>2020-02-23T16:49:53Z</time>
      </trkpt>
      <trkpt lat="38.9927940" lon="1.4148380">
        <ele>147.2</ele>
        <time>2020-02-23T16:49:54Z</time>
      </trkpt>
      <trkpt lat="38.9927900" lon="1.4147670">
        <ele>147.0</ele>
        <time>2020-02-23T16:49:55Z</time>
      </trkpt>
      <trkpt lat="38.9927790" lon="1.4146710">
        <ele>146.6</ele>
        <time>2020-02-23T16:49:56Z</time>
      </trkpt>
      <trkpt lat="38.9927730" lon="1.4145700">
        <ele>146.3</ele>
        <time>2020-02-23T16:49:57Z</time>
      </trkpt>
      <trkpt lat="38.9927610" lon="1.4144710">
        <ele>145.8</ele>
        <time>2020-02-23T16:49:58Z</time>
      </trkpt>
      <trkpt lat="38.9927510" lon="1.4143790">
        <ele>145.5</ele>
        <time>2020-02-23T16:49:59Z</time>
      </trkpt>
      <trkpt lat="38.9927430" lon="1.4142820">
        <ele>145.1</ele>
        <time>2020-02-23T16:50:00Z</time>
      </trkpt>
      <trkpt lat="38.9927320" lon="1.4141970">
        <ele>144.8</ele>
        <time>2020-02-23T16:50:01Z</time>
      </trkpt>
      <trkpt lat="38.9927210" lon="1.4141190">
        <ele>144.6</ele>
        <time>2020-02-23T16:50:02Z</time>
      </trkpt>
      <trkpt lat="38.9927090" lon="1.4140620">
        <ele>144.3</ele>
        <time>2020-02-23T16:50:03Z</time>
      </trkpt>
      <trkpt lat="38.9926980" lon="1.4140020">
        <ele>144.1</ele>
        <time>2020-02-23T16:50:04Z</time>
      </trkpt>
      <trkpt lat="38.9926750" lon="1.4139340">
        <ele>143.7</ele>
        <time>2020-02-23T16:50:05Z</time>
      </trkpt>
      <trkpt lat="38.9926350" lon="1.4138760">
        <ele>143.2</ele>
        <time>2020-02-23T16:50:06Z</time>
      </trkpt>
      <trkpt lat="38.9925790" lon="1.4138770">
        <ele>142.8</ele>
        <time>2020-02-23T16:50:07Z</time>
      </trkpt>
      <trkpt lat="38.9925090" lon="1.4138460">
        <ele>142.3</ele>
        <time>2020-02-23T16:50:08Z</time>
      </trkpt>
      <trkpt lat="38.9924470" lon="1.4138220">
        <ele>141.7</ele>
        <time>2020-02-23T16:50:09Z</time>
      </trkpt>
      <trkpt lat="38.9923850" lon="1.4137930">
        <ele>141.2</ele>
        <time>2020-02-23T16:50:10Z</time>
      </trkpt>
      <trkpt lat="38.9923290" lon="1.4137730">
        <ele>140.5</ele>
        <time>2020-02-23T16:50:11Z</time>
      </trkpt>
      <trkpt lat="38.9922660" lon="1.4137670">
        <ele>139.8</ele>
        <time>2020-02-23T16:50:12Z</time>
      </trkpt>
      <trkpt lat="38.9921990" lon="1.4137500">
        <ele>139.2</ele>
        <time>2020-02-23T16:50:13Z</time>
      </trkpt>
      <trkpt lat="38.9921350" lon="1.4137230">
        <ele>138.5</ele>
        <time>2020-02-23T16:50:14Z</time>
      </trkpt>
      <trkpt lat="38.9920770" lon="1.4137150">
        <ele>138.0</ele>
        <time>2020-02-23T16:50:15Z</time>
      </trkpt>
      <trkpt lat="38.9920210" lon="1.4137060">
        <ele>137.5</ele>
        <time>2020-02-23T16:50:16Z</time>
      </trkpt>
      <trkpt lat="38.9919690" lon="1.4137210">
        <ele>136.9</ele>
        <time>2020-02-23T16:50:17Z</time>
      </trkpt>
      <trkpt lat="38.9919310" lon="1.4137490">
        <ele>136.4</ele>
        <time>2020-02-23T16:50:18Z</time>
      </trkpt>
      <trkpt lat="38.9918880" lon="1.4137810">
        <ele>135.7</ele>
        <time>2020-02-23T16:50:19Z</time>
      </trkpt>
      <trkpt lat="38.9918490" lon="1.4137970">
        <ele>135.1</ele>
        <time>2020-02-23T16:50:20Z</time>
      </trkpt>
      <trkpt lat="38.9917720" lon="1.4138140">
        <ele>133.8</ele>
        <time>2020-02-23T16:50:21Z</time>
      </trkpt>
      <trkpt lat="38.9917180" lon="1.4138300">
        <ele>132.9</ele>
        <time>2020-02-23T16:50:22Z</time>
      </trkpt>
      <trkpt lat="38.9916610" lon="1.4138470">
        <ele>132.2</ele>
        <time>2020-02-23T16:50:23Z</time>
      </trkpt>
      <trkpt lat="38.9916030" lon="1.4138700">
        <ele>131.6</ele>
        <time>2020-02-23T16:50:24Z</time>
      </trkpt>
      <trkpt lat="38.9915580" lon="1.4138800">
        <ele>131.2</ele>
        <time>2020-02-23T16:50:25Z</time>
      </trkpt>
      <trkpt lat="38.9914800" lon="1.4138810">
        <ele>130.5</ele>
        <time>2020-02-23T16:50:26Z</time>
      </trkpt>
      <trkpt lat="38.9914210" lon="1.4138570">
        <ele>129.9</ele>
        <time>2020-02-23T16:50:27Z</time>
      </trkpt>
      <trkpt lat="38.9913830" lon="1.4138050">
        <ele>129.3</ele>
        <time>2020-02-23T16:50:28Z</time>
      </trkpt>
      <trkpt lat="38.9913660" lon="1.4137030">
        <ele>128.4</ele>
        <time>2020-02-23T16:50:29Z</time>
      </trkpt>
      <trkpt lat="38.9913630" lon="1.4135980">
        <ele>127.4</ele>
        <time>2020-02-23T16:50:30Z</time>
      </trkpt>
      <trkpt lat="38.9913540" lon="1.4135180">
        <ele>126.8</ele>
        <time>2020-02-23T16:50:31Z</time>
      </trkpt>
      <trkpt lat="38.9913460" lon="1.4134590">
        <ele>126.3</ele>
        <time>2020-02-23T16:50:32Z</time>
      </trkpt>
      <trkpt lat="38.9913350" lon="1.4133980">
        <ele>125.8</ele>
        <time>2020-02-23T16:50:33Z</time>
      </trkpt>
      <trkpt lat="38.9913240" lon="1.4133220">
        <ele>125.1</ele>
        <time>2020-02-23T16:50:34Z</time>
      </trkpt>
      <trkpt lat="38.9913150" lon="1.4132540">
        <ele>124.6</ele>
        <time>2020-02-23T16:50:35Z</time>
      </trkpt>
      <trkpt lat="38.9913070" lon="1.4131870">
        <ele>124.0</ele>
        <time>2020-02-23T16:50:36Z</time>
      </trkpt>
      <trkpt lat="38.9912910" lon="1.4131490">
        <ele>123.7</ele>
        <time>2020-02-23T16:50:37Z</time>
      </trkpt>
      <trkpt lat="38.9912310" lon="1.4131270">
        <ele>123.0</ele>
        <time>2020-02-23T16:50:38Z</time>
      </trkpt>
      <trkpt lat="38.9911800" lon="1.4130800">
        <ele>122.3</ele>
        <time>2020-02-23T16:50:39Z</time>
      </trkpt>
      <trkpt lat="38.9911290" lon="1.4130660">
        <ele>121.7</ele>
        <time>2020-02-23T16:50:40Z</time>
      </trkpt>
      <trkpt lat="38.9910920" lon="1.4130450">
        <ele>121.2</ele>
        <time>2020-02-23T16:50:41Z</time>
      </trkpt>
      <trkpt lat="38.9910560" lon="1.4130080">
        <ele>120.7</ele>
        <time>2020-02-23T16:50:42Z</time>
      </trkpt>
      <trkpt lat="38.9910280" lon="1.4129560">
        <ele>120.1</ele>
        <time>2020-02-23T16:50:43Z</time>
      </trkpt>
      <trkpt lat="38.9910100" lon="1.4129030">
        <ele>119.5</ele>
        <time>2020-02-23T16:50:44Z</time>
      </trkpt>
      <trkpt lat="38.9909870" lon="1.4128410">
        <ele>118.8</ele>
        <time>2020-02-23T16:50:45Z</time>
      </trkpt>
      <trkpt lat="38.9909560" lon="1.4127570">
        <ele>117.9</ele>
        <time>2020-02-23T16:50:46Z</time>
      </trkpt>
      <trkpt lat="38.9909330" lon="1.4126740">
        <ele>117.2</ele>
        <time>2020-02-23T16:50:47Z</time>
      </trkpt>
      <trkpt lat="38.9909060" lon="1.4126040">
        <ele>116.6</ele>
        <time>2020-02-23T16:50:48Z</time>
      </trkpt>
      <trkpt lat="38.9908730" lon="1.4125340">
        <ele>116.0</ele>
        <time>2020-02-23T16:50:49Z</time>
      </trkpt>
      <trkpt lat="38.9908420" lon="1.4124560">
        <ele>115.4</ele>
        <time>2020-02-23T16:50:50Z</time>
      </trkpt>
      <trkpt lat="38.9908160" lon="1.4123920">
        <ele>114.9</ele>
        <time>2020-02-23T16:50:51Z</time>
      </trkpt>
      <trkpt lat="38.9907880" lon="1.4123280">
        <ele>114.4</ele>
        <time>2020-02-23T16:50:52Z</time>
      </trkpt>
      <trkpt lat="38.9907620" lon="1.4122700">
        <ele>113.9</ele>
        <time>2020-02-23T16:50:53Z</time>
      </trkpt>
      <trkpt lat="38.9907330" lon="1.4122200">
        <ele>113.4</ele>
        <time>2020-02-23T16:50:54Z</time>
      </trkpt>
      <trkpt lat="38.9906960" lon="1.4121640">
        <ele>112.8</ele>
        <time>2020-02-23T16:50:55Z</time>
      </trkpt>
      <trkpt lat="38.9906640" lon="1.4121250">
        <ele>112.4</ele>
        <time>2020-02-23T16:50:56Z</time>
      </trkpt>
      <trkpt lat="38.9906190" lon="1.4120790">
        <ele>111.7</ele>
        <time>2020-02-23T16:50:57Z</time>
      </trkpt>
      <trkpt lat="38.9905950" lon="1.4120440">
        <ele>111.2</ele>
        <time>2020-02-23T16:50:58Z</time>
      </trkpt>
      <trkpt lat="38.9905560" lon="1.4120230">
        <ele>110.7</ele>
        <time>2020-02-23T16:50:59Z</time>
      </trkpt>
      <trkpt lat="38.9905020" lon="1.4120010">
        <ele>109.9</ele>
        <time>2020-02-23T16:51:00Z</time>
      </trkpt>
      <trkpt lat="38.9904400" lon="1.4119770">
        <ele>109.1</ele>
        <time>2020-02-23T16:51:01Z</time>
      </trkpt>
      <trkpt lat="38.9903700" lon="1.4119490">
        <ele>108.2</ele>
        <time>2020-02-23T16:51:02Z</time>
      </trkpt>
      <trkpt lat="38.9902910" lon="1.4119190">
        <ele>107.2</ele>
        <time>2020-02-23T16:51:03Z</time>
      </trkpt>
      <trkpt lat="38.9902170" lon="1.4118960">
        <ele>106.2</ele>
        <time>2020-02-23T16:51:04Z</time>
      </trkpt>
      <trkpt lat="38.9901420" lon="1.4118650">
        <ele>105.3</ele>
        <time>2020-02-23T16:51:05Z</time>
      </trkpt>
      <trkpt lat="38.9900750" lon="1.4118380">
        <ele>104.6</ele>
        <time>2020-02-23T16:51:06Z</time>
      </trkpt>
      <trkpt lat="38.9900080" lon="1.4118010">
        <ele>104.0</ele>
        <time>2020-02-23T16:51:07Z</time>
      </trkpt>
      <trkpt lat="38.9899500" lon="1.4117760">
        <ele>103.5</ele>
        <time>2020-02-23T16:51:08Z</time>
      </trkpt>
      <trkpt lat="38.9898840" lon="1.4117430">
        <ele>103.0</ele>
        <time>2020-02-23T16:51:09Z</time>
      </trkpt>
      <trkpt lat="38.9898300" lon="1.4117160">
        <ele>102.7</ele>
        <time>2020-02-23T16:51:10Z</time>
      </trkpt>
      <trkpt lat="38.9897850" lon="1.4116890">
        <ele>102.3</ele>
        <time>2020-02-23T16:51:11Z</time>
      </trkpt>
      <trkpt lat="38.9897460" lon="1.4116480">
        <ele>101.9</ele>
        <time>2020-02-23T16:51:12Z</time>
      </trkpt>
      <trkpt lat="38.9897090" lon="1.4115850">
        <ele>101.5</ele>
        <time>2020-02-23T16:51:13Z</time>
      </trkpt>
      <trkpt lat="38.9896900" lon="1.4114980">
        <ele>100.7</ele>
        <time>2020-02-23T16:51:14Z</time>
      </trkpt>
      <trkpt lat="38.9896720" lon="1.4114040">
        <ele>99.9</ele>
        <time>2020-02-23T16:51:15Z</time>
      </trkpt>
      <trkpt lat="38.9896570" lon="1.4113260">
        <ele>99.3</ele>
        <time>2020-02-23T16:51:16Z</time>
      </trkpt>
      <trkpt lat="38.9896460" lon="1.4112350">
        <ele>98.7</ele>
        <time>2020-02-23T16:51:17Z</time>
      </trkpt>
      <trkpt lat="38.9896330" lon="1.4111470">
        <ele>98.2</ele>
        <time>2020-02-23T16:51:18Z</time>
      </trkpt>
      <trkpt lat="38.9896200" lon="1.4110580">
        <ele>97.7</ele>
        <time>2020-02-23T16:51:19Z</time>
      </trkpt>
      <trkpt lat="38.9896080" lon="1.4109670">
        <ele>97.2</ele>
        <time>2020-02-23T16:51:20Z</time>
      </trkpt>
      <trkpt lat="38.9895880" lon="1.4108670">
        <ele>96.7</ele>
        <time>2020-02-23T16:51:21Z</time>
      </trkpt>
      <trkpt lat="38.9895740" lon="1.4107690">
        <ele>96.2</ele>
        <time>2020-02-23T16:51:22Z</time>
      </trkpt>
      <trkpt lat="38.9895580" lon="1.4106610">
        <ele>95.8</ele>
        <time>2020-02-23T16:51:23Z</time>
      </trkpt>
      <trkpt lat="38.9895460" lon="1.4105740">
        <ele>95.7</ele>
        <time>2020-02-23T16:51:24Z</time>
      </trkpt>
      <trkpt lat="38.9895360" lon="1.4104960">
        <ele>95.6</ele>
        <time>2020-02-23T16:51:25Z</time>
      </trkpt>
      <trkpt lat="38.9895280" lon="1.4104240">
        <ele>95.6</ele>
        <time>2020-02-23T16:51:26Z</time>
      </trkpt>
      <trkpt lat="38.9895090" lon="1.4103630">
        <ele>95.7</ele>
        <time>2020-02-23T16:51:27Z</time>
      </trkpt>
      <trkpt lat="38.9894800" lon="1.4103180">
        <ele>95.8</ele>
        <time>2020-02-23T16:51:28Z</time>
      </trkpt>
      <trkpt lat="38.9894520" lon="1.4103000">
        <ele>95.9</ele>
        <time>2020-02-23T16:51:29Z</time>
      </trkpt>
      <trkpt lat="38.9894410" lon="1.4102860">
        <ele>96.0</ele>
        <time>2020-02-23T16:51:30Z</time>
      </trkpt>
      <trkpt lat="38.9894300" lon="1.4102770">
        <ele>96.0</ele>
        <time>2020-02-23T16:51:31Z</time>
      </trkpt>
      <trkpt lat="38.9894030" lon="1.4102540">
        <ele>96.1</ele>
        <time>2020-02-23T16:51:32Z</time>
      </trkpt>
      <trkpt lat="38.9893920" lon="1.4102480">
        <ele>96.1</ele>
        <time>2020-02-23T16:51:33Z</time>
      </trkpt>
      <trkpt lat="38.9893610" lon="1.4102290">
        <ele>96.2</ele>
        <time>2020-02-23T16:51:34Z</time>
      </trkpt>
      <trkpt lat="38.9893510" lon="1.4102260">
        <ele>96.3</ele>
        <time>2020-02-23T16:51:35Z</time>
      </trkpt>
      <trkpt lat="38.9893260" lon="1.4102070">
        <ele>96.4</ele>
        <time>2020-02-23T16:51:36Z</time>
      </trkpt>
      <trkpt lat="38.9893170" lon="1.4102040">
        <ele>96.5</ele>
        <time>2020-02-23T16:51:37Z</time>
      </trkpt>
      <trkpt lat="38.9892880" lon="1.4102160">
        <ele>96.6</ele>
        <time>2020-02-23T16:51:38Z</time>
      </trkpt>
      <trkpt lat="38.9892770" lon="1.4102190">
        <ele>96.6</ele>
        <time>2020-02-23T16:51:39Z</time>
      </trkpt>
      <trkpt lat="38.9892470" lon="1.4102470">
        <ele>96.7</ele>
        <time>2020-02-23T16:51:40Z</time>
      </trkpt>
      <trkpt lat="38.9892360" lon="1.4102570">
        <ele>96.7</ele>
        <time>2020-02-23T16:51:41Z</time>
      </trkpt>
      <trkpt lat="38.9892080" lon="1.4102670">
        <ele>96.8</ele>
        <time>2020-02-23T16:51:42Z</time>
      </trkpt>
      <trkpt lat="38.9891800" lon="1.4102800">
        <ele>96.8</ele>
        <time>2020-02-23T16:51:43Z</time>
      </trkpt>
      <trkpt lat="38.9891510" lon="1.4102900">
        <ele>96.9</ele>
        <time>2020-02-23T16:51:44Z</time>
      </trkpt>
      <trkpt lat="38.9891140" lon="1.4103090">
        <ele>96.9</ele>
        <time>2020-02-23T16:51:45Z</time>
      </trkpt>
      <trkpt lat="38.9890990" lon="1.4103130">
        <ele>96.9</ele>
        <time>2020-02-23T16:51:46Z</time>
      </trkpt>
      <trkpt lat="38.9890690" lon="1.4103320">
        <ele>96.9</ele>
        <time>2020-02-23T16:51:47Z</time>
      </trkpt>
      <trkpt lat="38.9890410" lon="1.4103500">
        <ele>97.0</ele>
        <time>2020-02-23T16:51:48Z</time>
      </trkpt>
      <trkpt lat="38.9890090" lon="1.4103670">
        <ele>97.0</ele>
        <time>2020-02-23T16:51:49Z</time>
      </trkpt>
      <trkpt lat="38.9889780" lon="1.4103810">
        <ele>97.0</ele>
        <time>2020-02-23T16:51:50Z</time>
      </trkpt>
      <trkpt lat="38.9889490" lon="1.4103930">
        <ele>97.0</ele>
        <time>2020-02-23T16:51:51Z</time>
      </trkpt>
      <trkpt lat="38.9889220" lon="1.4104170">
        <ele>97.0</ele>
        <time>2020-02-23T16:51:52Z</time>
      </trkpt>
      <trkpt lat="38.9888970" lon="1.4104300">
        <ele>97.0</ele>
        <time>2020-02-23T16:51:53Z</time>
      </trkpt>
      <trkpt lat="38.9888720" lon="1.4104470">
        <ele>97.0</ele>
        <time>2020-02-23T16:51:54Z</time>
      </trkpt>
      <trkpt lat="38.9888450" lon="1.4104680">
        <ele>97.0</ele>
        <time>2020-02-23T16:51:55Z</time>
      </trkpt>
      <trkpt lat="38.9888370" lon="1.4104700">
        <ele>96.9</ele>
        <time>2020-02-23T16:51:56Z</time>
      </trkpt>
      <trkpt lat="38.9888220" lon="1.4104750">
        <ele>96.9</ele>
        <time>2020-02-23T16:51:57Z</time>
      </trkpt>
      <trkpt lat="38.9888180" lon="1.4104780">
        <ele>96.9</ele>
        <time>2020-02-23T16:51:58Z</time>
      </trkpt>
      <trkpt lat="38.9888130" lon="1.4104810">
        <ele>96.9</ele>
        <time>2020-02-23T16:51:59Z</time>
      </trkpt>
      <trkpt lat="38.9888090" lon="1.4104840">
        <ele>96.9</ele>
        <time>2020-02-23T16:52:00Z</time>
      </trkpt>
      <trkpt lat="38.9888050" lon="1.4104860">
        <ele>96.9</ele>
        <time>2020-02-23T16:52:01Z</time>
      </trkpt>
      <trkpt lat="38.9888010" lon="1.4104890">
        <ele>96.9</ele>
        <time>2020-02-23T16:52:02Z</time>
      </trkpt>
      <trkpt lat="38.9887960" lon="1.4104920">
        <ele>96.9</ele>
        <time>2020-02-23T16:52:03Z</time>
      </trkpt>
      <trkpt lat="38.9887920" lon="1.4104950">
        <ele>96.9</ele>
        <time>2020-02-23T16:52:04Z</time>
      </trkpt>
      <trkpt lat="38.9887660" lon="1.4105090">
        <ele>96.5</ele>
        <time>2020-02-23T16:52:05Z</time>
      </trkpt>
      <trkpt lat="38.9887380" lon="1.4105280">
        <ele>96.3</ele>
        <time>2020-02-23T16:52:06Z</time>
      </trkpt>
      <trkpt lat="38.9887050" lon="1.4105530">
        <ele>96.1</ele>
        <time>2020-02-23T16:52:07Z</time>
      </trkpt>
      <trkpt lat="38.9886660" lon="1.4105770">
        <ele>95.9</ele>
        <time>2020-02-23T16:52:08Z</time>
      </trkpt>
      <trkpt lat="38.9886230" lon="1.4106000">
        <ele>95.7</ele>
        <time>2020-02-23T16:52:09Z</time>
      </trkpt>
      <trkpt lat="38.9885780" lon="1.4106250">
        <ele>95.4</ele>
        <time>2020-02-23T16:52:10Z</time>
      </trkpt>
      <trkpt lat="38.9885290" lon="1.4106490">
        <ele>95.2</ele>
        <time>2020-02-23T16:52:11Z</time>
      </trkpt>
      <trkpt lat="38.9884840" lon="1.4106860">
        <ele>94.9</ele>
        <time>2020-02-23T16:52:12Z</time>
      </trkpt>
      <trkpt lat="38.9884350" lon="1.4107120">
        <ele>94.5</ele>
        <time>2020-02-23T16:52:13Z</time>
      </trkpt>
      <trkpt lat="38.9883860" lon="1.4107440">
        <ele>94.1</ele>
        <time>2020-02-23T16:52:14Z</time>
      </trkpt>
      <trkpt lat="38.9883350" lon="1.4107750">
        <ele>93.7</ele>
        <time>2020-02-23T16:52:15Z</time>
      </trkpt>
      <trkpt lat="38.9882790" lon="1.4108060">
        <ele>93.1</ele>
        <time>2020-02-23T16:52:16Z</time>
      </trkpt>
      <trkpt lat="38.9882160" lon="1.4108000">
        <ele>92.4</ele>
        <time>2020-02-23T16:52:17Z</time>
      </trkpt>
      <trkpt lat="38.9881560" lon="1.4107830">
        <ele>92.2</ele>
        <time>2020-02-23T16:52:18Z</time>
      </trkpt>
      <trkpt lat="38.9881180" lon="1.4107450">
        <ele>92.1</ele>
        <time>2020-02-23T16:52:19Z</time>
      </trkpt>
      <trkpt lat="38.9880780" lon="1.4107070">
        <ele>92.0</ele>
        <time>2020-02-23T16:52:20Z</time>
      </trkpt>
      <trkpt lat="38.9880340" lon="1.4106750">
        <ele>91.9</ele>
        <time>2020-02-23T16:52:21Z</time>
      </trkpt>
      <trkpt lat="38.9879870" lon="1.4106500">
        <ele>91.8</ele>
        <time>2020-02-23T16:52:22Z</time>
      </trkpt>
      <trkpt lat="38.9879420" lon="1.4106170">
        <ele>91.7</ele>
        <time>2020-02-23T16:52:23Z</time>
      </trkpt>
      <trkpt lat="38.9878980" lon="1.4105820">
        <ele>91.6</ele>
        <time>2020-02-23T16:52:24Z</time>
      </trkpt>
      <trkpt lat="38.9878570" lon="1.4105480">
        <ele>91.6</ele>
        <time>2020-02-23T16:52:25Z</time>
      </trkpt>
      <trkpt lat="38.9878170" lon="1.4105090">
        <ele>91.5</ele>
        <time>2020-02-23T16:52:26Z</time>
      </trkpt>
      <trkpt lat="38.9877760" lon="1.4104730">
        <ele>91.5</ele>
        <time>2020-02-23T16:52:27Z</time>
      </trkpt>
      <trkpt lat="38.9877300" lon="1.4104370">
        <ele>91.4</ele>
        <time>2020-02-23T16:52:28Z</time>
      </trkpt>
      <trkpt lat="38.9876860" lon="1.4103950">
        <ele>91.4</ele>
        <time>2020-02-23T16:52:29Z</time>
      </trkpt>
      <trkpt lat="38.9876400" lon="1.4103560">
        <ele>91.3</ele>
        <time>2020-02-23T16:52:30Z</time>
      </trkpt>
      <trkpt lat="38.9875950" lon="1.4103130">
        <ele>91.3</ele>
        <time>2020-02-23T16:52:31Z</time>
      </trkpt>
      <trkpt lat="38.9875490" lon="1.4102850">
        <ele>91.2</ele>
        <time>2020-02-23T16:52:32Z</time>
      </trkpt>
      <trkpt lat="38.9875080" lon="1.4102490">
        <ele>91.2</ele>
        <time>2020-02-23T16:52:33Z</time>
      </trkpt>
      <trkpt lat="38.9874610" lon="1.4102210">
        <ele>91.1</ele>
        <time>2020-02-23T16:52:34Z</time>
      </trkpt>
      <trkpt lat="38.9874180" lon="1.4101860">
        <ele>91.1</ele>
        <time>2020-02-23T16:52:35Z</time>
      </trkpt>
      <trkpt lat="38.9873750" lon="1.4101520">
        <ele>91.0</ele>
        <time>2020-02-23T16:52:36Z</time>
      </trkpt>
      <trkpt lat="38.9873290" lon="1.4101160">
        <ele>91.0</ele>
        <time>2020-02-23T16:52:37Z</time>
      </trkpt>
      <trkpt lat="38.9872820" lon="1.4100820">
        <ele>90.9</ele>
        <time>2020-02-23T16:52:38Z</time>
      </trkpt>
      <trkpt lat="38.9872400" lon="1.4100440">
        <ele>90.9</ele>
        <time>2020-02-23T16:52:39Z</time>
      </trkpt>
      <trkpt lat="38.9871960" lon="1.4100050">
        <ele>90.8</ele>
        <time>2020-02-23T16:52:40Z</time>
      </trkpt>
      <trkpt lat="38.9871540" lon="1.4099710">
        <ele>90.8</ele>
        <time>2020-02-23T16:52:41Z</time>
      </trkpt>
      <trkpt lat="38.9871210" lon="1.4099280">
        <ele>90.7</ele>
        <time>2020-02-23T16:52:42Z</time>
      </trkpt>
      <trkpt lat="38.9870880" lon="1.4098840">
        <ele>90.6</ele>
        <time>2020-02-23T16:52:43Z</time>
      </trkpt>
      <trkpt lat="38.9870630" lon="1.4098390">
        <ele>90.5</ele>
        <time>2020-02-23T16:52:44Z</time>
      </trkpt>
      <trkpt lat="38.9870550" lon="1.4097910">
        <ele>90.4</ele>
        <time>2020-02-23T16:52:45Z</time>
      </trkpt>
      <trkpt lat="38.9870500" lon="1.4097390">
        <ele>90.3</ele>
        <time>2020-02-23T16:52:46Z</time>
      </trkpt>
      <trkpt lat="38.9870430" lon="1.4096870">
        <ele>90.2</ele>
        <time>2020-02-23T16:52:47Z</time>
      </trkpt>
      <trkpt lat="38.9870300" lon="1.4096380">
        <ele>90.1</ele>
        <time>2020-02-23T16:52:48Z</time>
      </trkpt>
      <trkpt lat="38.9870170" lon="1.4095900">
        <ele>90.0</ele>
        <time>2020-02-23T16:52:49Z</time>
      </trkpt>
      <trkpt lat="38.9870130" lon="1.4095330">
        <ele>89.9</ele>
        <time>2020-02-23T16:52:50Z</time>
      </trkpt>
      <trkpt lat="38.9870010" lon="1.4094780">
        <ele>89.9</ele>
        <time>2020-02-23T16:52:51Z</time>
      </trkpt>
      <trkpt lat="38.9869870" lon="1.4094220">
        <ele>89.9</ele>
        <time>2020-02-23T16:52:52Z</time>
      </trkpt>
      <trkpt lat="38.9869370" lon="1.4093740">
        <ele>89.9</ele>
        <time>2020-02-23T16:52:53Z</time>
      </trkpt>
      <trkpt lat="38.9869170" lon="1.4093200">
        <ele>89.8</ele>
        <time>2020-02-23T16:52:54Z</time>
      </trkpt>
      <trkpt lat="38.9869010" lon="1.4092580">
        <ele>89.8</ele>
        <time>2020-02-23T16:52:55Z</time>
      </trkpt>
      <trkpt lat="38.9868820" lon="1.4091950">
        <ele>89.8</ele>
        <time>2020-02-23T16:52:56Z</time>
      </trkpt>
      <trkpt lat="38.9868620" lon="1.4091320">
        <ele>89.8</ele>
        <time>2020-02-23T16:52:57Z</time>
      </trkpt>
      <trkpt lat="38.9868480" lon="1.4090700">
        <ele>89.8</ele>
        <time>2020-02-23T16:52:58Z</time>
      </trkpt>
      <trkpt lat="38.9868350" lon="1.4090080">
        <ele>89.8</ele>
        <time>2020-02-23T16:52:59Z</time>
      </trkpt>
      <trkpt lat="38.9868250" lon="1.4089440">
        <ele>89.8</ele>
        <time>2020-02-23T16:53:00Z</time>
      </trkpt>
      <trkpt lat="38.9868080" lon="1.4088790">
        <ele>89.7</ele>
        <time>2020-02-23T16:53:01Z</time>
      </trkpt>
      <trkpt lat="38.9867890" lon="1.4088080">
        <ele>89.7</ele>
        <time>2020-02-23T16:53:02Z</time>
      </trkpt>
      <trkpt lat="38.9867620" lon="1.4087360">
        <ele>89.6</ele>
        <time>2020-02-23T16:53:03Z</time>
      </trkpt>
      <trkpt lat="38.9867350" lon="1.4086640">
        <ele>89.5</ele>
        <time>2020-02-23T16:53:04Z</time>
      </trkpt>
      <trkpt lat="38.9867170" lon="1.4085890">
        <ele>89.4</ele>
        <time>2020-02-23T16:53:05Z</time>
      </trkpt>
      <trkpt lat="38.9866980" lon="1.4085160">
        <ele>89.3</ele>
        <time>2020-02-23T16:53:06Z</time>
      </trkpt>
      <trkpt lat="38.9866810" lon="1.4084460">
        <ele>89.2</ele>
        <time>2020-02-23T16:53:07Z</time>
      </trkpt>
      <trkpt lat="38.9866510" lon="1.4083810">
        <ele>89.1</ele>
        <time>2020-02-23T16:53:08Z</time>
      </trkpt>
      <trkpt lat="38.9866290" lon="1.4083110">
        <ele>88.9</ele>
        <time>2020-02-23T16:53:09Z</time>
      </trkpt>
      <trkpt lat="38.9866100" lon="1.4082360">
        <ele>88.8</ele>
        <time>2020-02-23T16:53:10Z</time>
      </trkpt>
      <trkpt lat="38.9865830" lon="1.4081580">
        <ele>88.6</ele>
        <time>2020-02-23T16:53:11Z</time>
      </trkpt>
      <trkpt lat="38.9865570" lon="1.4080770">
        <ele>88.3</ele>
        <time>2020-02-23T16:53:12Z</time>
      </trkpt>
      <trkpt lat="38.9865300" lon="1.4079920">
        <ele>88.2</ele>
        <time>2020-02-23T16:53:13Z</time>
      </trkpt>
      <trkpt lat="38.9864900" lon="1.4079080">
        <ele>88.0</ele>
        <time>2020-02-23T16:53:14Z</time>
      </trkpt>
      <trkpt lat="38.9864780" lon="1.4078170">
        <ele>87.7</ele>
        <time>2020-02-23T16:53:15Z</time>
      </trkpt>
      <trkpt lat="38.9864620" lon="1.4077280">
        <ele>87.4</ele>
        <time>2020-02-23T16:53:16Z</time>
      </trkpt>
      <trkpt lat="38.9864230" lon="1.4076490">
        <ele>87.1</ele>
        <time>2020-02-23T16:53:17Z</time>
      </trkpt>
      <trkpt lat="38.9863660" lon="1.4075740">
        <ele>86.8</ele>
        <time>2020-02-23T16:53:18Z</time>
      </trkpt>
      <trkpt lat="38.9862970" lon="1.4074990">
        <ele>86.2</ele>
        <time>2020-02-23T16:53:19Z</time>
      </trkpt>
      <trkpt lat="38.9862380" lon="1.4074110">
        <ele>85.7</ele>
        <time>2020-02-23T16:53:20Z</time>
      </trkpt>
      <trkpt lat="38.9861740" lon="1.4073250">
        <ele>85.2</ele>
        <time>2020-02-23T16:53:21Z</time>
      </trkpt>
      <trkpt lat="38.9861300" lon="1.4072220">
        <ele>84.7</ele>
        <time>2020-02-23T16:53:22Z</time>
      </trkpt>
      <trkpt lat="38.9860920" lon="1.4071180">
        <ele>84.3</ele>
        <time>2020-02-23T16:53:23Z</time>
      </trkpt>
      <trkpt lat="38.9860630" lon="1.4070080">
        <ele>83.9</ele>
        <time>2020-02-23T16:53:24Z</time>
      </trkpt>
      <trkpt lat="38.9860370" lon="1.4069020">
        <ele>83.2</ele>
        <time>2020-02-23T16:53:25Z</time>
      </trkpt>
      <trkpt lat="38.9860060" lon="1.4067990">
        <ele>82.7</ele>
        <time>2020-02-23T16:53:26Z</time>
      </trkpt>
      <trkpt lat="38.9859800" lon="1.4066940">
        <ele>82.3</ele>
        <time>2020-02-23T16:53:27Z</time>
      </trkpt>
      <trkpt lat="38.9859610" lon="1.4065810">
        <ele>81.6</ele>
        <time>2020-02-23T16:53:28Z</time>
      </trkpt>
      <trkpt lat="38.9859430" lon="1.4064760">
        <ele>81.0</ele>
        <time>2020-02-23T16:53:29Z</time>
      </trkpt>
      <trkpt lat="38.9859190" lon="1.4063950">
        <ele>80.5</ele>
        <time>2020-02-23T16:53:30Z</time>
      </trkpt>
      <trkpt lat="38.9858930" lon="1.4063410">
        <ele>80.1</ele>
        <time>2020-02-23T16:53:31Z</time>
      </trkpt>
      <trkpt lat="38.9858710" lon="1.4063000">
        <ele>79.9</ele>
        <time>2020-02-23T16:53:32Z</time>
      </trkpt>
      <trkpt lat="38.9858350" lon="1.4062620">
        <ele>79.5</ele>
        <time>2020-02-23T16:53:33Z</time>
      </trkpt>
      <trkpt lat="38.9857960" lon="1.4062510">
        <ele>79.2</ele>
        <time>2020-02-23T16:53:34Z</time>
      </trkpt>
      <trkpt lat="38.9857600" lon="1.4062520">
        <ele>77.6</ele>
        <time>2020-02-23T16:53:35Z</time>
      </trkpt>
      <trkpt lat="38.9857290" lon="1.4062650">
        <ele>77.4</ele>
        <time>2020-02-23T16:53:36Z</time>
      </trkpt>
      <trkpt lat="38.9857020" lon="1.4062930">
        <ele>77.3</ele>
        <time>2020-02-23T16:53:37Z</time>
      </trkpt>
      <trkpt lat="38.9856730" lon="1.4063160">
        <ele>77.1</ele>
        <time>2020-02-23T16:53:38Z</time>
      </trkpt>
      <trkpt lat="38.9856540" lon="1.4063620">
        <ele>76.9</ele>
        <time>2020-02-23T16:53:39Z</time>
      </trkpt>
      <trkpt lat="38.9856290" lon="1.4064030">
        <ele>76.7</ele>
        <time>2020-02-23T16:53:40Z</time>
      </trkpt>
      <trkpt lat="38.9855970" lon="1.4064340">
        <ele>76.5</ele>
        <time>2020-02-23T16:53:41Z</time>
      </trkpt>
      <trkpt lat="38.9855670" lon="1.4064730">
        <ele>76.3</ele>
        <time>2020-02-23T16:53:42Z</time>
      </trkpt>
      <trkpt lat="38.9855520" lon="1.4065310">
        <ele>76.0</ele>
        <time>2020-02-23T16:53:43Z</time>
      </trkpt>
      <trkpt lat="38.9855310" lon="1.4065830">
        <ele>75.8</ele>
        <time>2020-02-23T16:53:44Z</time>
      </trkpt>
      <trkpt lat="38.9855110" lon="1.4066350">
        <ele>75.6</ele>
        <time>2020-02-23T16:53:45Z</time>
      </trkpt>
      <trkpt lat="38.9854880" lon="1.4066830">
        <ele>75.4</ele>
        <time>2020-02-23T16:53:46Z</time>
      </trkpt>
      <trkpt lat="38.9854620" lon="1.4067360">
        <ele>75.2</ele>
        <time>2020-02-23T16:53:47Z</time>
      </trkpt>
      <trkpt lat="38.9854320" lon="1.4067930">
        <ele>75.0</ele>
        <time>2020-02-23T16:53:48Z</time>
      </trkpt>
      <trkpt lat="38.9854030" lon="1.4068470">
        <ele>74.8</ele>
        <time>2020-02-23T16:53:49Z</time>
      </trkpt>
      <trkpt lat="38.9853790" lon="1.4068990">
        <ele>74.7</ele>
        <time>2020-02-23T16:53:50Z</time>
      </trkpt>
      <trkpt lat="38.9853530" lon="1.4069460">
        <ele>74.6</ele>
        <time>2020-02-23T16:53:51Z</time>
      </trkpt>
      <trkpt lat="38.9853240" lon="1.4069930">
        <ele>74.6</ele>
        <time>2020-02-23T16:53:52Z</time>
      </trkpt>
      <trkpt lat="38.9852950" lon="1.4070440">
        <ele>74.5</ele>
        <time>2020-02-23T16:53:53Z</time>
      </trkpt>
      <trkpt lat="38.9852640" lon="1.4070950">
        <ele>74.5</ele>
        <time>2020-02-23T16:53:54Z</time>
      </trkpt>
      <trkpt lat="38.9852340" lon="1.4071440">
        <ele>74.5</ele>
        <time>2020-02-23T16:53:55Z</time>
      </trkpt>
      <trkpt lat="38.9852040" lon="1.4071910">
        <ele>74.5</ele>
        <time>2020-02-23T16:53:56Z</time>
      </trkpt>
      <trkpt lat="38.9851730" lon="1.4072380">
        <ele>74.5</ele>
        <time>2020-02-23T16:53:57Z</time>
      </trkpt>
      <trkpt lat="38.9851390" lon="1.4072830">
        <ele>74.5</ele>
        <time>2020-02-23T16:53:58Z</time>
      </trkpt>
      <trkpt lat="38.9851010" lon="1.4073280">
        <ele>74.5</ele>
        <time>2020-02-23T16:53:59Z</time>
      </trkpt>
      <trkpt lat="38.9850620" lon="1.4073700">
        <ele>74.5</ele>
        <time>2020-02-23T16:54:00Z</time>
      </trkpt>
      <trkpt lat="38.9850260" lon="1.4074120">
        <ele>74.5</ele>
        <time>2020-02-23T16:54:01Z</time>
      </trkpt>
      <trkpt lat="38.9849870" lon="1.4074540">
        <ele>74.5</ele>
        <time>2020-02-23T16:54:02Z</time>
      </trkpt>
      <trkpt lat="38.9849470" lon="1.4074930">
        <ele>74.5</ele>
        <time>2020-02-23T16:54:03Z</time>
      </trkpt>
      <trkpt lat="38.9849100" lon="1.4075250">
        <ele>74.5</ele>
        <time>2020-02-23T16:54:04Z</time>
      </trkpt>
      <trkpt lat="38.9848720" lon="1.4075510">
        <ele>74.5</ele>
        <time>2020-02-23T16:54:05Z</time>
      </trkpt>
      <trkpt lat="38.9848320" lon="1.4075760">
        <ele>74.5</ele>
        <time>2020-02-23T16:54:06Z</time>
      </trkpt>
      <trkpt lat="38.9847920" lon="1.4075990">
        <ele>74.5</ele>
        <time>2020-02-23T16:54:07Z</time>
      </trkpt>
      <trkpt lat="38.9847510" lon="1.4076200">
        <ele>74.4</ele>
        <time>2020-02-23T16:54:08Z</time>
      </trkpt>
      <trkpt lat="38.9847030" lon="1.4076160">
        <ele>74.4</ele>
        <time>2020-02-23T16:54:09Z</time>
      </trkpt>
      <trkpt lat="38.9846600" lon="1.4076390">
        <ele>74.4</ele>
        <time>2020-02-23T16:54:10Z</time>
      </trkpt>
      <trkpt lat="38.9846140" lon="1.4076630">
        <ele>74.5</ele>
        <time>2020-02-23T16:54:11Z</time>
      </trkpt>
      <trkpt lat="38.9845690" lon="1.4076870">
        <ele>74.5</ele>
        <time>2020-02-23T16:54:12Z</time>
      </trkpt>
      <trkpt lat="38.9845260" lon="1.4077100">
        <ele>74.6</ele>
        <time>2020-02-23T16:54:13Z</time>
      </trkpt>
      <trkpt lat="38.9844850" lon="1.4077290">
        <ele>74.7</ele>
        <time>2020-02-23T16:54:14Z</time>
      </trkpt>
      <trkpt lat="38.9844460" lon="1.4077530">
        <ele>74.8</ele>
        <time>2020-02-23T16:54:15Z</time>
      </trkpt>
      <trkpt lat="38.9844080" lon="1.4077820">
        <ele>74.9</ele>
        <time>2020-02-23T16:54:16Z</time>
      </trkpt>
      <trkpt lat="38.9843610" lon="1.4078170">
        <ele>75.1</ele>
        <time>2020-02-23T16:54:17Z</time>
      </trkpt>
      <trkpt lat="38.9843110" lon="1.4078520">
        <ele>75.3</ele>
        <time>2020-02-23T16:54:18Z</time>
      </trkpt>
      <trkpt lat="38.9842680" lon="1.4078830">
        <ele>75.4</ele>
        <time>2020-02-23T16:54:19Z</time>
      </trkpt>
      <trkpt lat="38.9842290" lon="1.4079050">
        <ele>75.5</ele>
        <time>2020-02-23T16:54:20Z</time>
      </trkpt>
      <trkpt lat="38.9841890" lon="1.4079250">
        <ele>75.6</ele>
        <time>2020-02-23T16:54:21Z</time>
      </trkpt>
      <trkpt lat="38.9841520" lon="1.4079460">
        <ele>75.6</ele>
        <time>2020-02-23T16:54:22Z</time>
      </trkpt>
      <trkpt lat="38.9841220" lon="1.4079680">
        <ele>75.7</ele>
        <time>2020-02-23T16:54:23Z</time>
      </trkpt>
      <trkpt lat="38.9840970" lon="1.4079990">
        <ele>75.7</ele>
        <time>2020-02-23T16:54:24Z</time>
      </trkpt>
      <trkpt lat="38.9840630" lon="1.4080440">
        <ele>75.5</ele>
        <time>2020-02-23T16:54:25Z</time>
      </trkpt>
      <trkpt lat="38.9840330" lon="1.4080930">
        <ele>75.3</ele>
        <time>2020-02-23T16:54:26Z</time>
      </trkpt>
      <trkpt lat="38.9840020" lon="1.4081580">
        <ele>75.0</ele>
        <time>2020-02-23T16:54:27Z</time>
      </trkpt>
      <trkpt lat="38.9839790" lon="1.4082120">
        <ele>74.8</ele>
        <time>2020-02-23T16:54:28Z</time>
      </trkpt>
      <trkpt lat="38.9839550" lon="1.4082750">
        <ele>74.6</ele>
        <time>2020-02-23T16:54:29Z</time>
      </trkpt>
      <trkpt lat="38.9839300" lon="1.4083360">
        <ele>74.3</ele>
        <time>2020-02-23T16:54:30Z</time>
      </trkpt>
      <trkpt lat="38.9838990" lon="1.4083970">
        <ele>74.1</ele>
        <time>2020-02-23T16:54:31Z</time>
      </trkpt>
      <trkpt lat="38.9838610" lon="1.4084510">
        <ele>73.9</ele>
        <time>2020-02-23T16:54:32Z</time>
      </trkpt>
      <trkpt lat="38.9838290" lon="1.4084990">
        <ele>73.8</ele>
        <time>2020-02-23T16:54:33Z</time>
      </trkpt>
      <trkpt lat="38.9838020" lon="1.4085600">
        <ele>73.6</ele>
        <time>2020-02-23T16:54:34Z</time>
      </trkpt>
      <trkpt lat="38.9837650" lon="1.4086330">
        <ele>73.4</ele>
        <time>2020-02-23T16:54:35Z</time>
      </trkpt>
      <trkpt lat="38.9837440" lon="1.4086790">
        <ele>73.3</ele>
        <time>2020-02-23T16:54:36Z</time>
      </trkpt>
      <trkpt lat="38.9837150" lon="1.4087300">
        <ele>73.2</ele>
        <time>2020-02-23T16:54:37Z</time>
      </trkpt>
      <trkpt lat="38.9836780" lon="1.4087810">
        <ele>73.1</ele>
        <time>2020-02-23T16:54:38Z</time>
      </trkpt>
      <trkpt lat="38.9836520" lon="1.4088290">
        <ele>73.1</ele>
        <time>2020-02-23T16:54:39Z</time>
      </trkpt>
      <trkpt lat="38.9836280" lon="1.4088770">
        <ele>73.0</ele>
        <time>2020-02-23T16:54:40Z</time>
      </trkpt>
      <trkpt lat="38.9836100" lon="1.4089190">
        <ele>73.0</ele>
        <time>2020-02-23T16:54:41Z</time>
      </trkpt>
      <trkpt lat="38.9835880" lon="1.4089550">
        <ele>73.0</ele>
        <time>2020-02-23T16:54:42Z</time>
      </trkpt>
      <trkpt lat="38.9835600" lon="1.4090010">
        <ele>73.0</ele>
        <time>2020-02-23T16:54:43Z</time>
      </trkpt>
      <trkpt lat="38.9835300" lon="1.4090610">
        <ele>72.9</ele>
        <time>2020-02-23T16:54:44Z</time>
      </trkpt>
      <trkpt lat="38.9834940" lon="1.4091250">
        <ele>72.9</ele>
        <time>2020-02-23T16:54:45Z</time>
      </trkpt>
      <trkpt lat="38.9834670" lon="1.4091750">
        <ele>72.9</ele>
        <time>2020-02-23T16:54:46Z</time>
      </trkpt>
      <trkpt lat="38.9834400" lon="1.4092270">
        <ele>72.8</ele>
        <time>2020-02-23T16:54:47Z</time>
      </trkpt>
      <trkpt lat="38.9834140" lon="1.4092750">
        <ele>72.8</ele>
        <time>2020-02-23T16:54:48Z</time>
      </trkpt>
      <trkpt lat="38.9833880" lon="1.4093280">
        <ele>72.7</ele>
        <time>2020-02-23T16:54:49Z</time>
      </trkpt>
      <trkpt lat="38.9833600" lon="1.4093840">
        <ele>72.7</ele>
        <time>2020-02-23T16:54:50Z</time>
      </trkpt>
      <trkpt lat="38.9833330" lon="1.4094400">
        <ele>72.6</ele>
        <time>2020-02-23T16:54:51Z</time>
      </trkpt>
      <trkpt lat="38.9833070" lon="1.4094950">
        <ele>72.5</ele>
        <time>2020-02-23T16:54:52Z</time>
      </trkpt>
      <trkpt lat="38.9832790" lon="1.4095530">
        <ele>72.4</ele>
        <time>2020-02-23T16:54:53Z</time>
      </trkpt>
      <trkpt lat="38.9832470" lon="1.4096060">
        <ele>72.3</ele>
        <time>2020-02-23T16:54:54Z</time>
      </trkpt>
      <trkpt lat="38.9832160" lon="1.4096610">
        <ele>72.3</ele>
        <time>2020-02-23T16:54:55Z</time>
      </trkpt>
      <trkpt lat="38.9831870" lon="1.4097130">
        <ele>72.2</ele>
        <time>2020-02-23T16:54:56Z</time>
      </trkpt>
      <trkpt lat="38.9831570" lon="1.4097710">
        <ele>72.2</ele>
        <time>2020-02-23T16:54:57Z</time>
      </trkpt>
      <trkpt lat="38.9831290" lon="1.4098370">
        <ele>72.1</ele>
        <time>2020-02-23T16:54:58Z</time>
      </trkpt>
      <trkpt lat="38.9831060" lon="1.4098850">
        <ele>72.1</ele>
        <time>2020-02-23T16:54:59Z</time>
      </trkpt>
      <trkpt lat="38.9830770" lon="1.4099390">
        <ele>72.0</ele>
        <time>2020-02-23T16:55:00Z</time>
      </trkpt>
      <trkpt lat="38.9830450" lon="1.4099950">
        <ele>71.9</ele>
        <time>2020-02-23T16:55:01Z</time>
      </trkpt>
      <trkpt lat="38.9830120" lon="1.4100550">
        <ele>71.9</ele>
        <time>2020-02-23T16:55:02Z</time>
      </trkpt>
      <trkpt lat="38.9829820" lon="1.4101180">
        <ele>71.7</ele>
        <time>2020-02-23T16:55:03Z</time>
      </trkpt>
      <trkpt lat="38.9829520" lon="1.4101790">
        <ele>71.6</ele>
        <time>2020-02-23T16:55:04Z</time>
      </trkpt>
      <trkpt lat="38.9829220" lon="1.4102310">
        <ele>71.5</ele>
        <time>2020-02-23T16:55:05Z</time>
      </trkpt>
      <trkpt lat="38.9828920" lon="1.4102630">
        <ele>71.4</ele>
        <time>2020-02-23T16:55:06Z</time>
      </trkpt>
      <trkpt lat="38.9828420" lon="1.4102830">
        <ele>71.2</ele>
        <time>2020-02-23T16:55:07Z</time>
      </trkpt>
      <trkpt lat="38.9828010" lon="1.4102400">
        <ele>71.4</ele>
        <time>2020-02-23T16:55:08Z</time>
      </trkpt>
      <trkpt lat="38.9827720" lon="1.4101800">
        <ele>71.6</ele>
        <time>2020-02-23T16:55:09Z</time>
      </trkpt>
      <trkpt lat="38.9827440" lon="1.4101350">
        <ele>71.7</ele>
        <time>2020-02-23T16:55:10Z</time>
      </trkpt>
      <trkpt lat="38.9827160" lon="1.4100830">
        <ele>71.8</ele>
        <time>2020-02-23T16:55:11Z</time>
      </trkpt>
      <trkpt lat="38.9826860" lon="1.4100270">
        <ele>71.9</ele>
        <time>2020-02-23T16:55:12Z</time>
      </trkpt>
      <trkpt lat="38.9826510" lon="1.4099760">
        <ele>72.1</ele>
        <time>2020-02-23T16:55:13Z</time>
      </trkpt>
      <trkpt lat="38.9826190" lon="1.4099390">
        <ele>72.2</ele>
        <time>2020-02-23T16:55:14Z</time>
      </trkpt>
      <trkpt lat="38.9825880" lon="1.4099050">
        <ele>72.4</ele>
        <time>2020-02-23T16:55:15Z</time>
      </trkpt>
      <trkpt lat="38.9825570" lon="1.4098690">
        <ele>72.6</ele>
        <time>2020-02-23T16:55:16Z</time>
      </trkpt>
      <trkpt lat="38.9825300" lon="1.4098260">
        <ele>72.8</ele>
        <time>2020-02-23T16:55:17Z</time>
      </trkpt>
      <trkpt lat="38.9824960" lon="1.4097860">
        <ele>73.0</ele>
        <time>2020-02-23T16:55:18Z</time>
      </trkpt>
      <trkpt lat="38.9824670" lon="1.4097390">
        <ele>73.1</ele>
        <time>2020-02-23T16:55:19Z</time>
      </trkpt>
      <trkpt lat="38.9824350" lon="1.4096990">
        <ele>73.3</ele>
        <time>2020-02-23T16:55:20Z</time>
      </trkpt>
      <trkpt lat="38.9824090" lon="1.4096600">
        <ele>73.5</ele>
        <time>2020-02-23T16:55:21Z</time>
      </trkpt>
      <trkpt lat="38.9823790" lon="1.4096220">
        <ele>73.7</ele>
        <time>2020-02-23T16:55:22Z</time>
      </trkpt>
      <trkpt lat="38.9823440" lon="1.4095820">
        <ele>74.0</ele>
        <time>2020-02-23T16:55:23Z</time>
      </trkpt>
      <trkpt lat="38.9823130" lon="1.4095430">
        <ele>74.3</ele>
        <time>2020-02-23T16:55:24Z</time>
      </trkpt>
      <trkpt lat="38.9822800" lon="1.4095030">
        <ele>74.5</ele>
        <time>2020-02-23T16:55:25Z</time>
      </trkpt>
      <trkpt lat="38.9822480" lon="1.4094620">
        <ele>74.7</ele>
        <time>2020-02-23T16:55:26Z</time>
      </trkpt>
      <trkpt lat="38.9822170" lon="1.4094180">
        <ele>74.9</ele>
        <time>2020-02-23T16:55:27Z</time>
      </trkpt>
      <trkpt lat="38.9821840" lon="1.4093810">
        <ele>75.1</ele>
        <time>2020-02-23T16:55:28Z</time>
      </trkpt>
      <trkpt lat="38.9821540" lon="1.4093420">
        <ele>75.3</ele>
        <time>2020-02-23T16:55:29Z</time>
      </trkpt>
      <trkpt lat="38.9821230" lon="1.4092960">
        <ele>75.4</ele>
        <time>2020-02-23T16:55:30Z</time>
      </trkpt>
      <trkpt lat="38.9820950" lon="1.4092590">
        <ele>75.6</ele>
        <time>2020-02-23T16:55:31Z</time>
      </trkpt>
      <trkpt lat="38.9820620" lon="1.4092220">
        <ele>75.7</ele>
        <time>2020-02-23T16:55:32Z</time>
      </trkpt>
      <trkpt lat="38.9820280" lon="1.4091900">
        <ele>75.9</ele>
        <time>2020-02-23T16:55:33Z</time>
      </trkpt>
      <trkpt lat="38.9819920" lon="1.4091560">
        <ele>76.1</ele>
        <time>2020-02-23T16:55:34Z</time>
      </trkpt>
      <trkpt lat="38.9819600" lon="1.4091270">
        <ele>76.2</ele>
        <time>2020-02-23T16:55:35Z</time>
      </trkpt>
      <trkpt lat="38.9819270" lon="1.4090950">
        <ele>76.4</ele>
        <time>2020-02-23T16:55:36Z</time>
      </trkpt>
      <trkpt lat="38.9818980" lon="1.4090610">
        <ele>76.5</ele>
        <time>2020-02-23T16:55:37Z</time>
      </trkpt>
      <trkpt lat="38.9818640" lon="1.4090280">
        <ele>76.6</ele>
        <time>2020-02-23T16:55:38Z</time>
      </trkpt>
      <trkpt lat="38.9818480" lon="1.4089790">
        <ele>76.7</ele>
        <time>2020-02-23T16:55:39Z</time>
      </trkpt>
      <trkpt lat="38.9818230" lon="1.4089510">
        <ele>76.8</ele>
        <time>2020-02-23T16:55:40Z</time>
      </trkpt>
      <trkpt lat="38.9818050" lon="1.4089240">
        <ele>76.9</ele>
        <time>2020-02-23T16:55:41Z</time>
      </trkpt>
      <trkpt lat="38.9817720" lon="1.4088940">
        <ele>77.0</ele>
        <time>2020-02-23T16:55:42Z</time>
      </trkpt>
      <trkpt lat="38.9817590" lon="1.4088820">
        <ele>77.0</ele>
        <time>2020-02-23T16:55:43Z</time>
      </trkpt>
      <trkpt lat="38.9817320" lon="1.4088570">
        <ele>77.1</ele>
        <time>2020-02-23T16:55:44Z</time>
      </trkpt>
      <trkpt lat="38.9816930" lon="1.4088400">
        <ele>77.1</ele>
        <time>2020-02-23T16:55:45Z</time>
      </trkpt>
      <trkpt lat="38.9816600" lon="1.4088270">
        <ele>77.2</ele>
        <time>2020-02-23T16:55:46Z</time>
      </trkpt>
      <trkpt lat="38.9816300" lon="1.4088180">
        <ele>77.2</ele>
        <time>2020-02-23T16:55:47Z</time>
      </trkpt>
      <trkpt lat="38.9815960" lon="1.4088100">
        <ele>77.2</ele>
        <time>2020-02-23T16:55:48Z</time>
      </trkpt>
      <trkpt lat="38.9815640" lon="1.4088080">
        <ele>77.2</ele>
        <time>2020-02-23T16:55:49Z</time>
      </trkpt>
      <trkpt lat="38.9815280" lon="1.4088060">
        <ele>77.2</ele>
        <time>2020-02-23T16:55:50Z</time>
      </trkpt>
      <trkpt lat="38.9814940" lon="1.4088100">
        <ele>77.2</ele>
        <time>2020-02-23T16:55:51Z</time>
      </trkpt>
      <trkpt lat="38.9814600" lon="1.4088130">
        <ele>77.2</ele>
        <time>2020-02-23T16:55:52Z</time>
      </trkpt>
      <trkpt lat="38.9814240" lon="1.4088130">
        <ele>77.2</ele>
        <time>2020-02-23T16:55:53Z</time>
      </trkpt>
      <trkpt lat="38.9813880" lon="1.4088190">
        <ele>77.2</ele>
        <time>2020-02-23T16:55:54Z</time>
      </trkpt>
      <trkpt lat="38.9813550" lon="1.4088200">
        <ele>77.2</ele>
        <time>2020-02-23T16:55:55Z</time>
      </trkpt>
      <trkpt lat="38.9813170" lon="1.4088240">
        <ele>77.2</ele>
        <time>2020-02-23T16:55:56Z</time>
      </trkpt>
      <trkpt lat="38.9812840" lon="1.4088310">
        <ele>77.2</ele>
        <time>2020-02-23T16:55:57Z</time>
      </trkpt>
      <trkpt lat="38.9812510" lon="1.4088310">
        <ele>77.2</ele>
        <time>2020-02-23T16:55:58Z</time>
      </trkpt>
      <trkpt lat="38.9812220" lon="1.4088450">
        <ele>77.2</ele>
        <time>2020-02-23T16:55:59Z</time>
      </trkpt>
      <trkpt lat="38.9811910" lon="1.4088500">
        <ele>77.2</ele>
        <time>2020-02-23T16:56:00Z</time>
      </trkpt>
      <trkpt lat="38.9811560" lon="1.4088500">
        <ele>77.2</ele>
        <time>2020-02-23T16:56:01Z</time>
      </trkpt>
      <trkpt lat="38.9811130" lon="1.4088510">
        <ele>77.2</ele>
        <time>2020-02-23T16:56:02Z</time>
      </trkpt>
      <trkpt lat="38.9810730" lon="1.4088590">
        <ele>77.2</ele>
        <time>2020-02-23T16:56:03Z</time>
      </trkpt>
      <trkpt lat="38.9810310" lon="1.4088550">
        <ele>77.3</ele>
        <time>2020-02-23T16:56:04Z</time>
      </trkpt>
      <trkpt lat="38.9809950" lon="1.4088510">
        <ele>77.3</ele>
        <time>2020-02-23T16:56:05Z</time>
      </trkpt>
      <trkpt lat="38.9809550" lon="1.4088550">
        <ele>77.3</ele>
        <time>2020-02-23T16:56:06Z</time>
      </trkpt>
      <trkpt lat="38.9809220" lon="1.4088560">
        <ele>77.3</ele>
        <time>2020-02-23T16:56:07Z</time>
      </trkpt>
      <trkpt lat="38.9808840" lon="1.4088540">
        <ele>77.3</ele>
        <time>2020-02-23T16:56:08Z</time>
      </trkpt>
      <trkpt lat="38.9808470" lon="1.4088400">
        <ele>77.3</ele>
        <time>2020-02-23T16:56:09Z</time>
      </trkpt>
      <trkpt lat="38.9808060" lon="1.4088420">
        <ele>77.4</ele>
        <time>2020-02-23T16:56:10Z</time>
      </trkpt>
      <trkpt lat="38.9807630" lon="1.4088280">
        <ele>77.5</ele>
        <time>2020-02-23T16:56:11Z</time>
      </trkpt>
      <trkpt lat="38.9807210" lon="1.4088290">
        <ele>77.6</ele>
        <time>2020-02-23T16:56:12Z</time>
      </trkpt>
      <trkpt lat="38.9806760" lon="1.4088300">
        <ele>77.6</ele>
        <time>2020-02-23T16:56:13Z</time>
      </trkpt>
      <trkpt lat="38.9806340" lon="1.4088330">
        <ele>77.7</ele>
        <time>2020-02-23T16:56:14Z</time>
      </trkpt>
      <trkpt lat="38.9805910" lon="1.4088280">
        <ele>77.8</ele>
        <time>2020-02-23T16:56:15Z</time>
      </trkpt>
      <trkpt lat="38.9805460" lon="1.4088240">
        <ele>77.9</ele>
        <time>2020-02-23T16:56:16Z</time>
      </trkpt>
      <trkpt lat="38.9805000" lon="1.4088150">
        <ele>78.0</ele>
        <time>2020-02-23T16:56:17Z</time>
      </trkpt>
      <trkpt lat="38.9804560" lon="1.4087900">
        <ele>78.1</ele>
        <time>2020-02-23T16:56:18Z</time>
      </trkpt>
      <trkpt lat="38.9804150" lon="1.4087550">
        <ele>78.6</ele>
        <time>2020-02-23T16:56:19Z</time>
      </trkpt>
      <trkpt lat="38.9803820" lon="1.4087060">
        <ele>79.0</ele>
        <time>2020-02-23T16:56:20Z</time>
      </trkpt>
      <trkpt lat="38.9803420" lon="1.4086510">
        <ele>79.3</ele>
        <time>2020-02-23T16:56:21Z</time>
      </trkpt>
      <trkpt lat="38.9803080" lon="1.4086050">
        <ele>79.6</ele>
        <time>2020-02-23T16:56:22Z</time>
      </trkpt>
      <trkpt lat="38.9802740" lon="1.4085590">
        <ele>79.9</ele>
        <time>2020-02-23T16:56:23Z</time>
      </trkpt>
      <trkpt lat="38.9802400" lon="1.4085200">
        <ele>80.1</ele>
        <time>2020-02-23T16:56:24Z</time>
      </trkpt>
      <trkpt lat="38.9802130" lon="1.4084930">
        <ele>80.3</ele>
        <time>2020-02-23T16:56:25Z</time>
      </trkpt>
      <trkpt lat="38.9801850" lon="1.4084680">
        <ele>80.4</ele>
        <time>2020-02-23T16:56:26Z</time>
      </trkpt>
      <trkpt lat="38.9801580" lon="1.4084390">
        <ele>80.6</ele>
        <time>2020-02-23T16:56:27Z</time>
      </trkpt>
      <trkpt lat="38.9801310" lon="1.4084080">
        <ele>80.8</ele>
        <time>2020-02-23T16:56:28Z</time>
      </trkpt>
      <trkpt lat="38.9801080" lon="1.4083770">
        <ele>81.0</ele>
        <time>2020-02-23T16:56:29Z</time>
      </trkpt>
      <trkpt lat="38.9800830" lon="1.4083440">
        <ele>81.2</ele>
        <time>2020-02-23T16:56:30Z</time>
      </trkpt>
      <trkpt lat="38.9800590" lon="1.4083010">
        <ele>81.7</ele>
        <time>2020-02-23T16:56:31Z</time>
      </trkpt>
      <trkpt lat="38.9800310" lon="1.4082720">
        <ele>82.0</ele>
        <time>2020-02-23T16:56:32Z</time>
      </trkpt>
      <trkpt lat="38.9800060" lon="1.4082420">
        <ele>82.2</ele>
        <time>2020-02-23T16:56:33Z</time>
      </trkpt>
      <trkpt lat="38.9799880" lon="1.4082000">
        <ele>82.4</ele>
        <time>2020-02-23T16:56:34Z</time>
      </trkpt>
      <trkpt lat="38.9799730" lon="1.4081550">
        <ele>82.6</ele>
        <time>2020-02-23T16:56:35Z</time>
      </trkpt>
      <trkpt lat="38.9799640" lon="1.4081090">
        <ele>82.8</ele>
        <time>2020-02-23T16:56:36Z</time>
      </trkpt>
      <trkpt lat="38.9799490" lon="1.4080590">
        <ele>83.1</ele>
        <time>2020-02-23T16:56:37Z</time>
      </trkpt>
      <trkpt lat="38.9799420" lon="1.4080080">
        <ele>83.3</ele>
        <time>2020-02-23T16:56:38Z</time>
      </trkpt>
      <trkpt lat="38.9799330" lon="1.4079570">
        <ele>83.5</ele>
        <time>2020-02-23T16:56:39Z</time>
      </trkpt>
      <trkpt lat="38.9799170" lon="1.4079130">
        <ele>83.7</ele>
        <time>2020-02-23T16:56:40Z</time>
      </trkpt>
      <trkpt lat="38.9799090" lon="1.4078650">
        <ele>83.9</ele>
        <time>2020-02-23T16:56:41Z</time>
      </trkpt>
      <trkpt lat="38.9798960" lon="1.4078310">
        <ele>84.0</ele>
        <time>2020-02-23T16:56:42Z</time>
      </trkpt>
      <trkpt lat="38.9798790" lon="1.4077880">
        <ele>84.2</ele>
        <time>2020-02-23T16:56:43Z</time>
      </trkpt>
      <trkpt lat="38.9798660" lon="1.4077430">
        <ele>84.3</ele>
        <time>2020-02-23T16:56:44Z</time>
      </trkpt>
      <trkpt lat="38.9798540" lon="1.4076960">
        <ele>84.5</ele>
        <time>2020-02-23T16:56:45Z</time>
      </trkpt>
      <trkpt lat="38.9798400" lon="1.4076550">
        <ele>84.6</ele>
        <time>2020-02-23T16:56:46Z</time>
      </trkpt>
      <trkpt lat="38.9798280" lon="1.4076180">
        <ele>84.7</ele>
        <time>2020-02-23T16:56:47Z</time>
      </trkpt>
      <trkpt lat="38.9798110" lon="1.4075690">
        <ele>84.9</ele>
        <time>2020-02-23T16:56:48Z</time>
      </trkpt>
      <trkpt lat="38.9797880" lon="1.4075170">
        <ele>85.1</ele>
        <time>2020-02-23T16:56:49Z</time>
      </trkpt>
      <trkpt lat="38.9797650" lon="1.4074730">
        <ele>85.2</ele>
        <time>2020-02-23T16:56:50Z</time>
      </trkpt>
      <trkpt lat="38.9797460" lon="1.4074280">
        <ele>85.3</ele>
        <time>2020-02-23T16:56:51Z</time>
      </trkpt>
      <trkpt lat="38.9797260" lon="1.4073870">
        <ele>85.4</ele>
        <time>2020-02-23T16:56:52Z</time>
      </trkpt>
      <trkpt lat="38.9796990" lon="1.4073540">
        <ele>85.6</ele>
        <time>2020-02-23T16:56:53Z</time>
      </trkpt>
      <trkpt lat="38.9796680" lon="1.4073210">
        <ele>85.7</ele>
        <time>2020-02-23T16:56:54Z</time>
      </trkpt>
      <trkpt lat="38.9796400" lon="1.4072840">
        <ele>85.8</ele>
        <time>2020-02-23T16:56:55Z</time>
      </trkpt>
      <trkpt lat="38.9796100" lon="1.4072390">
        <ele>85.9</ele>
        <time>2020-02-23T16:56:56Z</time>
      </trkpt>
      <trkpt lat="38.9795880" lon="1.4071930">
        <ele>86.0</ele>
        <time>2020-02-23T16:56:57Z</time>
      </trkpt>
      <trkpt lat="38.9795660" lon="1.4071390">
        <ele>86.0</ele>
        <time>2020-02-23T16:56:58Z</time>
      </trkpt>
      <trkpt lat="38.9795370" lon="1.4070930">
        <ele>86.1</ele>
        <time>2020-02-23T16:56:59Z</time>
      </trkpt>
      <trkpt lat="38.9795120" lon="1.4070550">
        <ele>86.1</ele>
        <time>2020-02-23T16:57:00Z</time>
      </trkpt>
      <trkpt lat="38.9794860" lon="1.4070190">
        <ele>86.1</ele>
        <time>2020-02-23T16:57:01Z</time>
      </trkpt>
      <trkpt lat="38.9794560" lon="1.4069790">
        <ele>86.1</ele>
        <time>2020-02-23T16:57:02Z</time>
      </trkpt>
      <trkpt lat="38.9794290" lon="1.4069290">
        <ele>86.1</ele>
        <time>2020-02-23T16:57:03Z</time>
      </trkpt>
      <trkpt lat="38.9793910" lon="1.4068760">
        <ele>86.1</ele>
        <time>2020-02-23T16:57:04Z</time>
      </trkpt>
      <trkpt lat="38.9793620" lon="1.4068290">
        <ele>86.1</ele>
        <time>2020-02-23T16:57:05Z</time>
      </trkpt>
      <trkpt lat="38.9793400" lon="1.4067770">
        <ele>86.1</ele>
        <time>2020-02-23T16:57:06Z</time>
      </trkpt>
      <trkpt lat="38.9793130" lon="1.4067270">
        <ele>86.1</ele>
        <time>2020-02-23T16:57:07Z</time>
      </trkpt>
      <trkpt lat="38.9792850" lon="1.4066730">
        <ele>86.1</ele>
        <time>2020-02-23T16:57:08Z</time>
      </trkpt>
      <trkpt lat="38.9792540" lon="1.4066120">
        <ele>86.1</ele>
        <time>2020-02-23T16:57:09Z</time>
      </trkpt>
      <trkpt lat="38.9792390" lon="1.4065480">
        <ele>86.0</ele>
        <time>2020-02-23T16:57:10Z</time>
      </trkpt>
      <trkpt lat="38.9792160" lon="1.4064940">
        <ele>85.9</ele>
        <time>2020-02-23T16:57:11Z</time>
      </trkpt>
      <trkpt lat="38.9791870" lon="1.4064590">
        <ele>85.8</ele>
        <time>2020-02-23T16:57:12Z</time>
      </trkpt>
      <trkpt lat="38.9791530" lon="1.4064320">
        <ele>85.7</ele>
        <time>2020-02-23T16:57:13Z</time>
      </trkpt>
      <trkpt lat="38.9791070" lon="1.4064170">
        <ele>85.6</ele>
        <time>2020-02-23T16:57:14Z</time>
      </trkpt>
      <trkpt lat="38.9790610" lon="1.4064130">
        <ele>85.5</ele>
        <time>2020-02-23T16:57:15Z</time>
      </trkpt>
      <trkpt lat="38.9790210" lon="1.4064130">
        <ele>85.4</ele>
        <time>2020-02-23T16:57:16Z</time>
      </trkpt>
      <trkpt lat="38.9789770" lon="1.4064130">
        <ele>85.4</ele>
        <time>2020-02-23T16:57:17Z</time>
      </trkpt>
      <trkpt lat="38.9789390" lon="1.4064090">
        <ele>85.4</ele>
        <time>2020-02-23T16:57:18Z</time>
      </trkpt>
      <trkpt lat="38.9788960" lon="1.4064030">
        <ele>85.4</ele>
        <time>2020-02-23T16:57:19Z</time>
      </trkpt>
      <trkpt lat="38.9788540" lon="1.4063960">
        <ele>85.4</ele>
        <time>2020-02-23T16:57:20Z</time>
      </trkpt>
      <trkpt lat="38.9788070" lon="1.4063860">
        <ele>85.4</ele>
        <time>2020-02-23T16:57:21Z</time>
      </trkpt>
      <trkpt lat="38.9787600" lon="1.4063820">
        <ele>85.4</ele>
        <time>2020-02-23T16:57:22Z</time>
      </trkpt>
      <trkpt lat="38.9787150" lon="1.4063860">
        <ele>85.4</ele>
        <time>2020-02-23T16:57:23Z</time>
      </trkpt>
      <trkpt lat="38.9786760" lon="1.4063820">
        <ele>85.4</ele>
        <time>2020-02-23T16:57:24Z</time>
      </trkpt>
      <trkpt lat="38.9786350" lon="1.4063900">
        <ele>85.5</ele>
        <time>2020-02-23T16:57:25Z</time>
      </trkpt>
      <trkpt lat="38.9785910" lon="1.4063970">
        <ele>85.5</ele>
        <time>2020-02-23T16:57:26Z</time>
      </trkpt>
      <trkpt lat="38.9785430" lon="1.4064000">
        <ele>85.5</ele>
        <time>2020-02-23T16:57:27Z</time>
      </trkpt>
      <trkpt lat="38.9785020" lon="1.4064090">
        <ele>85.5</ele>
        <time>2020-02-23T16:57:28Z</time>
      </trkpt>
      <trkpt lat="38.9784610" lon="1.4064160">
        <ele>85.6</ele>
        <time>2020-02-23T16:57:29Z</time>
      </trkpt>
      <trkpt lat="38.9784180" lon="1.4064130">
        <ele>85.6</ele>
        <time>2020-02-23T16:57:30Z</time>
      </trkpt>
      <trkpt lat="38.9783680" lon="1.4064030">
        <ele>85.8</ele>
        <time>2020-02-23T16:57:31Z</time>
      </trkpt>
      <trkpt lat="38.9783300" lon="1.4063970">
        <ele>85.9</ele>
        <time>2020-02-23T16:57:32Z</time>
      </trkpt>
      <trkpt lat="38.9782950" lon="1.4063910">
        <ele>86.0</ele>
        <time>2020-02-23T16:57:33Z</time>
      </trkpt>
      <trkpt lat="38.9782540" lon="1.4063960">
        <ele>86.1</ele>
        <time>2020-02-23T16:57:34Z</time>
      </trkpt>
      <trkpt lat="38.9782100" lon="1.4063860">
        <ele>86.3</ele>
        <time>2020-02-23T16:57:35Z</time>
      </trkpt>
      <trkpt lat="38.9781660" lon="1.4063860">
        <ele>86.4</ele>
        <time>2020-02-23T16:57:36Z</time>
      </trkpt>
      <trkpt lat="38.9781220" lon="1.4063850">
        <ele>86.5</ele>
        <time>2020-02-23T16:57:37Z</time>
      </trkpt>
      <trkpt lat="38.9780780" lon="1.4063810">
        <ele>86.6</ele>
        <time>2020-02-23T16:57:38Z</time>
      </trkpt>
      <trkpt lat="38.9780320" lon="1.4063890">
        <ele>86.6</ele>
        <time>2020-02-23T16:57:39Z</time>
      </trkpt>
      <trkpt lat="38.9779870" lon="1.4063990">
        <ele>86.7</ele>
        <time>2020-02-23T16:57:40Z</time>
      </trkpt>
      <trkpt lat="38.9779390" lon="1.4064030">
        <ele>86.8</ele>
        <time>2020-02-23T16:57:41Z</time>
      </trkpt>
      <trkpt lat="38.9778960" lon="1.4063950">
        <ele>86.8</ele>
        <time>2020-02-23T16:57:42Z</time>
      </trkpt>
      <trkpt lat="38.9778540" lon="1.4063920">
        <ele>86.9</ele>
        <time>2020-02-23T16:57:43Z</time>
      </trkpt>
      <trkpt lat="38.9778110" lon="1.4063910">
        <ele>87.1</ele>
        <time>2020-02-23T16:57:44Z</time>
      </trkpt>
      <trkpt lat="38.9777690" lon="1.4063910">
        <ele>87.2</ele>
        <time>2020-02-23T16:57:45Z</time>
      </trkpt>
      <trkpt lat="38.9777250" lon="1.4063790">
        <ele>87.3</ele>
        <time>2020-02-23T16:57:46Z</time>
      </trkpt>
      <trkpt lat="38.9776750" lon="1.4063630">
        <ele>87.5</ele>
        <time>2020-02-23T16:57:47Z</time>
      </trkpt>
      <trkpt lat="38.9776260" lon="1.4063420">
        <ele>87.6</ele>
        <time>2020-02-23T16:57:48Z</time>
      </trkpt>
      <trkpt lat="38.9775860" lon="1.4063250">
        <ele>87.7</ele>
        <time>2020-02-23T16:57:49Z</time>
      </trkpt>
      <trkpt lat="38.9775470" lon="1.4063070">
        <ele>87.8</ele>
        <time>2020-02-23T16:57:50Z</time>
      </trkpt>
      <trkpt lat="38.9775100" lon="1.4062810">
        <ele>87.8</ele>
        <time>2020-02-23T16:57:51Z</time>
      </trkpt>
      <trkpt lat="38.9774830" lon="1.4062470">
        <ele>87.8</ele>
        <time>2020-02-23T16:57:52Z</time>
      </trkpt>
      <trkpt lat="38.9774580" lon="1.4062160">
        <ele>87.9</ele>
        <time>2020-02-23T16:57:53Z</time>
      </trkpt>
      <trkpt lat="38.9774300" lon="1.4061850">
        <ele>87.9</ele>
        <time>2020-02-23T16:57:54Z</time>
      </trkpt>
      <trkpt lat="38.9773940" lon="1.4061670">
        <ele>87.9</ele>
        <time>2020-02-23T16:57:55Z</time>
      </trkpt>
      <trkpt lat="38.9773600" lon="1.4061460">
        <ele>87.9</ele>
        <time>2020-02-23T16:57:56Z</time>
      </trkpt>
      <trkpt lat="38.9773310" lon="1.4061330">
        <ele>88.0</ele>
        <time>2020-02-23T16:57:57Z</time>
      </trkpt>
      <trkpt lat="38.9772880" lon="1.4061380">
        <ele>88.0</ele>
        <time>2020-02-23T16:57:58Z</time>
      </trkpt>
      <trkpt lat="38.9772500" lon="1.4061390">
        <ele>88.1</ele>
        <time>2020-02-23T16:57:59Z</time>
      </trkpt>
      <trkpt lat="38.9772110" lon="1.4061300">
        <ele>88.2</ele>
        <time>2020-02-23T16:58:00Z</time>
      </trkpt>
      <trkpt lat="38.9771720" lon="1.4061210">
        <ele>88.4</ele>
        <time>2020-02-23T16:58:01Z</time>
      </trkpt>
      <trkpt lat="38.9771200" lon="1.4061110">
        <ele>88.6</ele>
        <time>2020-02-23T16:58:02Z</time>
      </trkpt>
      <trkpt lat="38.9770780" lon="1.4061050">
        <ele>88.8</ele>
        <time>2020-02-23T16:58:03Z</time>
      </trkpt>
      <trkpt lat="38.9770380" lon="1.4060950">
        <ele>89.0</ele>
        <time>2020-02-23T16:58:04Z</time>
      </trkpt>
      <trkpt lat="38.9769970" lon="1.4060850">
        <ele>89.2</ele>
        <time>2020-02-23T16:58:05Z</time>
      </trkpt>
      <trkpt lat="38.9769550" lon="1.4060780">
        <ele>89.5</ele>
        <time>2020-02-23T16:58:06Z</time>
      </trkpt>
      <trkpt lat="38.9769070" lon="1.4060670">
        <ele>89.8</ele>
        <time>2020-02-23T16:58:07Z</time>
      </trkpt>
      <trkpt lat="38.9768590" lon="1.4060600">
        <ele>90.1</ele>
        <time>2020-02-23T16:58:08Z</time>
      </trkpt>
      <trkpt lat="38.9768070" lon="1.4060640">
        <ele>90.4</ele>
        <time>2020-02-23T16:58:09Z</time>
      </trkpt>
      <trkpt lat="38.9767620" lon="1.4060600">
        <ele>90.6</ele>
        <time>2020-02-23T16:58:10Z</time>
      </trkpt>
      <trkpt lat="38.9767200" lon="1.4060510">
        <ele>90.8</ele>
        <time>2020-02-23T16:58:11Z</time>
      </trkpt>
      <trkpt lat="38.9766760" lon="1.4060420">
        <ele>90.9</ele>
        <time>2020-02-23T16:58:12Z</time>
      </trkpt>
      <trkpt lat="38.9766240" lon="1.4060130">
        <ele>91.0</ele>
        <time>2020-02-23T16:58:13Z</time>
      </trkpt>
      <trkpt lat="38.9765830" lon="1.4060040">
        <ele>91.1</ele>
        <time>2020-02-23T16:58:14Z</time>
      </trkpt>
      <trkpt lat="38.9765260" lon="1.4059910">
        <ele>91.1</ele>
        <time>2020-02-23T16:58:15Z</time>
      </trkpt>
      <trkpt lat="38.9764810" lon="1.4059850">
        <ele>91.2</ele>
        <time>2020-02-23T16:58:16Z</time>
      </trkpt>
      <trkpt lat="38.9764350" lon="1.4059800">
        <ele>91.1</ele>
        <time>2020-02-23T16:58:17Z</time>
      </trkpt>
      <trkpt lat="38.9763910" lon="1.4059800">
        <ele>91.0</ele>
        <time>2020-02-23T16:58:18Z</time>
      </trkpt>
      <trkpt lat="38.9763410" lon="1.4059740">
        <ele>91.0</ele>
        <time>2020-02-23T16:58:19Z</time>
      </trkpt>
      <trkpt lat="38.9762930" lon="1.4059640">
        <ele>90.9</ele>
        <time>2020-02-23T16:58:20Z</time>
      </trkpt>
      <trkpt lat="38.9762430" lon="1.4059560">
        <ele>90.9</ele>
        <time>2020-02-23T16:58:21Z</time>
      </trkpt>
      <trkpt lat="38.9761960" lon="1.4059610">
        <ele>90.9</ele>
        <time>2020-02-23T16:58:22Z</time>
      </trkpt>
      <trkpt lat="38.9761600" lon="1.4059580">
        <ele>90.8</ele>
        <time>2020-02-23T16:58:23Z</time>
      </trkpt>
      <trkpt lat="38.9761140" lon="1.4059610">
        <ele>90.8</ele>
        <time>2020-02-23T16:58:24Z</time>
      </trkpt>
      <trkpt lat="38.9760720" lon="1.4059770">
        <ele>90.8</ele>
        <time>2020-02-23T16:58:25Z</time>
      </trkpt>
      <trkpt lat="38.9760320" lon="1.4059900">
        <ele>90.8</ele>
        <time>2020-02-23T16:58:26Z</time>
      </trkpt>
      <trkpt lat="38.9759920" lon="1.4060230">
        <ele>90.9</ele>
        <time>2020-02-23T16:58:27Z</time>
      </trkpt>
      <trkpt lat="38.9759480" lon="1.4060660">
        <ele>90.9</ele>
        <time>2020-02-23T16:58:28Z</time>
      </trkpt>
      <trkpt lat="38.9759100" lon="1.4060970">
        <ele>90.9</ele>
        <time>2020-02-23T16:58:29Z</time>
      </trkpt>
      <trkpt lat="38.9758730" lon="1.4061270">
        <ele>91.0</ele>
        <time>2020-02-23T16:58:30Z</time>
      </trkpt>
      <trkpt lat="38.9758400" lon="1.4061630">
        <ele>91.0</ele>
        <time>2020-02-23T16:58:31Z</time>
      </trkpt>
      <trkpt lat="38.9758050" lon="1.4061820">
        <ele>91.1</ele>
        <time>2020-02-23T16:58:32Z</time>
      </trkpt>
      <trkpt lat="38.9757680" lon="1.4062010">
        <ele>91.2</ele>
        <time>2020-02-23T16:58:33Z</time>
      </trkpt>
      <trkpt lat="38.9757350" lon="1.4062240">
        <ele>91.3</ele>
        <time>2020-02-23T16:58:34Z</time>
      </trkpt>
      <trkpt lat="38.9757030" lon="1.4062410">
        <ele>91.3</ele>
        <time>2020-02-23T16:58:35Z</time>
      </trkpt>
      <trkpt lat="38.9756650" lon="1.4062570">
        <ele>91.4</ele>
        <time>2020-02-23T16:58:36Z</time>
      </trkpt>
      <trkpt lat="38.9756380" lon="1.4062720">
        <ele>91.5</ele>
        <time>2020-02-23T16:58:37Z</time>
      </trkpt>
      <trkpt lat="38.9756100" lon="1.4062910">
        <ele>91.6</ele>
        <time>2020-02-23T16:58:38Z</time>
      </trkpt>
      <trkpt lat="38.9755700" lon="1.4062930">
        <ele>91.8</ele>
        <time>2020-02-23T16:58:39Z</time>
      </trkpt>
      <trkpt lat="38.9755570" lon="1.4062950">
        <ele>91.8</ele>
        <time>2020-02-23T16:58:40Z</time>
      </trkpt>
      <trkpt lat="38.9755210" lon="1.4062940">
        <ele>92.1</ele>
        <time>2020-02-23T16:58:41Z</time>
      </trkpt>
      <trkpt lat="38.9755050" lon="1.4062880">
        <ele>92.2</ele>
        <time>2020-02-23T16:58:42Z</time>
      </trkpt>
      <trkpt lat="38.9754690" lon="1.4062600">
        <ele>92.5</ele>
        <time>2020-02-23T16:58:43Z</time>
      </trkpt>
      <trkpt lat="38.9754570" lon="1.4062490">
        <ele>92.6</ele>
        <time>2020-02-23T16:58:44Z</time>
      </trkpt>
      <trkpt lat="38.9754290" lon="1.4062240">
        <ele>92.8</ele>
        <time>2020-02-23T16:58:45Z</time>
      </trkpt>
      <trkpt lat="38.9754010" lon="1.4061900">
        <ele>93.1</ele>
        <time>2020-02-23T16:58:46Z</time>
      </trkpt>
      <trkpt lat="38.9753890" lon="1.4061780">
        <ele>93.2</ele>
        <time>2020-02-23T16:58:47Z</time>
      </trkpt>
      <trkpt lat="38.9753660" lon="1.4061580">
        <ele>93.4</ele>
        <time>2020-02-23T16:58:48Z</time>
      </trkpt>
      <trkpt lat="38.9753410" lon="1.4061440">
        <ele>93.5</ele>
        <time>2020-02-23T16:58:49Z</time>
      </trkpt>
      <trkpt lat="38.9753150" lon="1.4061290">
        <ele>93.7</ele>
        <time>2020-02-23T16:58:50Z</time>
      </trkpt>
      <trkpt lat="38.9752870" lon="1.4061170">
        <ele>93.9</ele>
        <time>2020-02-23T16:58:51Z</time>
      </trkpt>
      <trkpt lat="38.9752590" lon="1.4061070">
        <ele>94.1</ele>
        <time>2020-02-23T16:58:52Z</time>
      </trkpt>
      <trkpt lat="38.9752330" lon="1.4060960">
        <ele>94.3</ele>
        <time>2020-02-23T16:58:53Z</time>
      </trkpt>
      <trkpt lat="38.9751910" lon="1.4060790">
        <ele>94.6</ele>
        <time>2020-02-23T16:58:54Z</time>
      </trkpt>
      <trkpt lat="38.9751740" lon="1.4060710">
        <ele>94.8</ele>
        <time>2020-02-23T16:58:55Z</time>
      </trkpt>
      <trkpt lat="38.9751410" lon="1.4060540">
        <ele>95.0</ele>
        <time>2020-02-23T16:58:56Z</time>
      </trkpt>
      <trkpt lat="38.9750990" lon="1.4060440">
        <ele>95.3</ele>
        <time>2020-02-23T16:58:57Z</time>
      </trkpt>
      <trkpt lat="38.9750580" lon="1.4060350">
        <ele>95.5</ele>
        <time>2020-02-23T16:58:58Z</time>
      </trkpt>
      <trkpt lat="38.9750280" lon="1.4060220">
        <ele>95.7</ele>
        <time>2020-02-23T16:58:59Z</time>
      </trkpt>
      <trkpt lat="38.9749950" lon="1.4060060">
        <ele>95.9</ele>
        <time>2020-02-23T16:59:00Z</time>
      </trkpt>
      <trkpt lat="38.9749690" lon="1.4059920">
        <ele>96.1</ele>
        <time>2020-02-23T16:59:01Z</time>
      </trkpt>
      <trkpt lat="38.9749440" lon="1.4059730">
        <ele>96.3</ele>
        <time>2020-02-23T16:59:02Z</time>
      </trkpt>
      <trkpt lat="38.9749100" lon="1.4059580">
        <ele>96.5</ele>
        <time>2020-02-23T16:59:03Z</time>
      </trkpt>
      <trkpt lat="38.9748740" lon="1.4059420">
        <ele>96.7</ele>
        <time>2020-02-23T16:59:04Z</time>
      </trkpt>
      <trkpt lat="38.9748410" lon="1.4059270">
        <ele>97.0</ele>
        <time>2020-02-23T16:59:05Z</time>
      </trkpt>
      <trkpt lat="38.9748080" lon="1.4059080">
        <ele>97.2</ele>
        <time>2020-02-23T16:59:06Z</time>
      </trkpt>
      <trkpt lat="38.9747730" lon="1.4058920">
        <ele>97.3</ele>
        <time>2020-02-23T16:59:07Z</time>
      </trkpt>
      <trkpt lat="38.9747410" lon="1.4058750">
        <ele>97.4</ele>
        <time>2020-02-23T16:59:08Z</time>
      </trkpt>
      <trkpt lat="38.9747080" lon="1.4058630">
        <ele>97.5</ele>
        <time>2020-02-23T16:59:09Z</time>
      </trkpt>
      <trkpt lat="38.9746800" lon="1.4058450">
        <ele>97.7</ele>
        <time>2020-02-23T16:59:10Z</time>
      </trkpt>
      <trkpt lat="38.9746690" lon="1.4058410">
        <ele>97.7</ele>
        <time>2020-02-23T16:59:11Z</time>
      </trkpt>
      <trkpt lat="38.9746430" lon="1.4058290">
        <ele>97.9</ele>
        <time>2020-02-23T16:59:12Z</time>
      </trkpt>
      <trkpt lat="38.9746030" lon="1.4058130">
        <ele>98.1</ele>
        <time>2020-02-23T16:59:13Z</time>
      </trkpt>
      <trkpt lat="38.9745780" lon="1.4057930">
        <ele>98.3</ele>
        <time>2020-02-23T16:59:14Z</time>
      </trkpt>
      <trkpt lat="38.9745400" lon="1.4057850">
        <ele>98.5</ele>
        <time>2020-02-23T16:59:15Z</time>
      </trkpt>
      <trkpt lat="38.9745030" lon="1.4057780">
        <ele>98.8</ele>
        <time>2020-02-23T16:59:16Z</time>
      </trkpt>
      <trkpt lat="38.9744660" lon="1.4057650">
        <ele>99.0</ele>
        <time>2020-02-23T16:59:17Z</time>
      </trkpt>
      <trkpt lat="38.9744540" lon="1.4057610">
        <ele>99.1</ele>
        <time>2020-02-23T16:59:18Z</time>
      </trkpt>
      <trkpt lat="38.9744220" lon="1.4057510">
        <ele>99.3</ele>
        <time>2020-02-23T16:59:19Z</time>
      </trkpt>
      <trkpt lat="38.9743870" lon="1.4057450">
        <ele>99.5</ele>
        <time>2020-02-23T16:59:20Z</time>
      </trkpt>
      <trkpt lat="38.9743480" lon="1.4057240">
        <ele>99.8</ele>
        <time>2020-02-23T16:59:21Z</time>
      </trkpt>
      <trkpt lat="38.9743310" lon="1.4057190">
        <ele>99.9</ele>
        <time>2020-02-23T16:59:22Z</time>
      </trkpt>
      <trkpt lat="38.9743010" lon="1.4057040">
        <ele>100.0</ele>
        <time>2020-02-23T16:59:23Z</time>
      </trkpt>
      <trkpt lat="38.9742720" lon="1.4056940">
        <ele>100.2</ele>
        <time>2020-02-23T16:59:24Z</time>
      </trkpt>
      <trkpt lat="38.9742440" lon="1.4056800">
        <ele>100.4</ele>
        <time>2020-02-23T16:59:25Z</time>
      </trkpt>
      <trkpt lat="38.9742120" lon="1.4056750">
        <ele>100.6</ele>
        <time>2020-02-23T16:59:26Z</time>
      </trkpt>
      <trkpt lat="38.9741810" lon="1.4056690">
        <ele>100.8</ele>
        <time>2020-02-23T16:59:27Z</time>
      </trkpt>
      <trkpt lat="38.9741520" lon="1.4056680">
        <ele>100.9</ele>
        <time>2020-02-23T16:59:28Z</time>
      </trkpt>
      <trkpt lat="38.9741220" lon="1.4056610">
        <ele>101.1</ele>
        <time>2020-02-23T16:59:29Z</time>
      </trkpt>
      <trkpt lat="38.9740860" lon="1.4056360">
        <ele>101.5</ele>
        <time>2020-02-23T16:59:30Z</time>
      </trkpt>
      <trkpt lat="38.9740490" lon="1.4056170">
        <ele>101.9</ele>
        <time>2020-02-23T16:59:31Z</time>
      </trkpt>
      <trkpt lat="38.9740130" lon="1.4056030">
        <ele>102.2</ele>
        <time>2020-02-23T16:59:32Z</time>
      </trkpt>
      <trkpt lat="38.9739830" lon="1.4055950">
        <ele>102.5</ele>
        <time>2020-02-23T16:59:33Z</time>
      </trkpt>
      <trkpt lat="38.9739540" lon="1.4055870">
        <ele>102.9</ele>
        <time>2020-02-23T16:59:34Z</time>
      </trkpt>
      <trkpt lat="38.9739280" lon="1.4055740">
        <ele>103.2</ele>
        <time>2020-02-23T16:59:35Z</time>
      </trkpt>
      <trkpt lat="38.9739020" lon="1.4055620">
        <ele>103.5</ele>
        <time>2020-02-23T16:59:36Z</time>
      </trkpt>
      <trkpt lat="38.9738670" lon="1.4055440">
        <ele>103.9</ele>
        <time>2020-02-23T16:59:37Z</time>
      </trkpt>
      <trkpt lat="38.9738390" lon="1.4055290">
        <ele>104.3</ele>
        <time>2020-02-23T16:59:38Z</time>
      </trkpt>
      <trkpt lat="38.9737990" lon="1.4055190">
        <ele>104.7</ele>
        <time>2020-02-23T16:59:39Z</time>
      </trkpt>
      <trkpt lat="38.9737840" lon="1.4055170">
        <ele>104.9</ele>
        <time>2020-02-23T16:59:40Z</time>
      </trkpt>
      <trkpt lat="38.9737540" lon="1.4055050">
        <ele>105.2</ele>
        <time>2020-02-23T16:59:41Z</time>
      </trkpt>
      <trkpt lat="38.9737250" lon="1.4054890">
        <ele>105.5</ele>
        <time>2020-02-23T16:59:42Z</time>
      </trkpt>
      <trkpt lat="38.9736970" lon="1.4054690">
        <ele>105.8</ele>
        <time>2020-02-23T16:59:43Z</time>
      </trkpt>
      <trkpt lat="38.9736720" lon="1.4054500">
        <ele>106.1</ele>
        <time>2020-02-23T16:59:44Z</time>
      </trkpt>
      <trkpt lat="38.9736470" lon="1.4054330">
        <ele>106.4</ele>
        <time>2020-02-23T16:59:45Z</time>
      </trkpt>
      <trkpt lat="38.9736140" lon="1.4054100">
        <ele>106.6</ele>
        <time>2020-02-23T16:59:46Z</time>
      </trkpt>
      <trkpt lat="38.9736020" lon="1.4054020">
        <ele>106.7</ele>
        <time>2020-02-23T16:59:47Z</time>
      </trkpt>
      <trkpt lat="38.9735690" lon="1.4053810">
        <ele>107.0</ele>
        <time>2020-02-23T16:59:48Z</time>
      </trkpt>
      <trkpt lat="38.9735560" lon="1.4053770">
        <ele>107.1</ele>
        <time>2020-02-23T16:59:49Z</time>
      </trkpt>
      <trkpt lat="38.9735250" lon="1.4053610">
        <ele>107.3</ele>
        <time>2020-02-23T16:59:50Z</time>
      </trkpt>
      <trkpt lat="38.9735110" lon="1.4053580">
        <ele>107.4</ele>
        <time>2020-02-23T16:59:51Z</time>
      </trkpt>
      <trkpt lat="38.9734750" lon="1.4053520">
        <ele>107.6</ele>
        <time>2020-02-23T16:59:52Z</time>
      </trkpt>
      <trkpt lat="38.9734430" lon="1.4053440">
        <ele>107.8</ele>
        <time>2020-02-23T16:59:53Z</time>
      </trkpt>
      <trkpt lat="38.9734110" lon="1.4053320">
        <ele>108.0</ele>
        <time>2020-02-23T16:59:54Z</time>
      </trkpt>
      <trkpt lat="38.9733800" lon="1.4053120">
        <ele>108.2</ele>
        <time>2020-02-23T16:59:55Z</time>
      </trkpt>
      <trkpt lat="38.9733470" lon="1.4053060">
        <ele>108.3</ele>
        <time>2020-02-23T16:59:56Z</time>
      </trkpt>
      <trkpt lat="38.9733170" lon="1.4053050">
        <ele>108.3</ele>
        <time>2020-02-23T16:59:57Z</time>
      </trkpt>
      <trkpt lat="38.9732900" lon="1.4052910">
        <ele>108.4</ele>
        <time>2020-02-23T16:59:58Z</time>
      </trkpt>
      <trkpt lat="38.9732570" lon="1.4052710">
        <ele>108.5</ele>
        <time>2020-02-23T16:59:59Z</time>
      </trkpt>
      <trkpt lat="38.9732210" lon="1.4052590">
        <ele>108.5</ele>
        <time>2020-02-23T17:00:00Z</time>
      </trkpt>
      <trkpt lat="38.9731870" lon="1.4052480">
        <ele>108.5</ele>
        <time>2020-02-23T17:00:01Z</time>
      </trkpt>
      <trkpt lat="38.9731470" lon="1.4052440">
        <ele>108.4</ele>
        <time>2020-02-23T17:00:02Z</time>
      </trkpt>
      <trkpt lat="38.9731100" lon="1.4052340">
        <ele>108.3</ele>
        <time>2020-02-23T17:00:03Z</time>
      </trkpt>
      <trkpt lat="38.9730760" lon="1.4052250">
        <ele>108.2</ele>
        <time>2020-02-23T17:00:04Z</time>
      </trkpt>
      <trkpt lat="38.9730450" lon="1.4052200">
        <ele>108.1</ele>
        <time>2020-02-23T17:00:05Z</time>
      </trkpt>
      <trkpt lat="38.9730120" lon="1.4052080">
        <ele>108.0</ele>
        <time>2020-02-23T17:00:06Z</time>
      </trkpt>
      <trkpt lat="38.9729760" lon="1.4052000">
        <ele>107.8</ele>
        <time>2020-02-23T17:00:07Z</time>
      </trkpt>
      <trkpt lat="38.9729410" lon="1.4052030">
        <ele>107.7</ele>
        <time>2020-02-23T17:00:08Z</time>
      </trkpt>
      <trkpt lat="38.9729040" lon="1.4052040">
        <ele>107.5</ele>
        <time>2020-02-23T17:00:09Z</time>
      </trkpt>
      <trkpt lat="38.9728650" lon="1.4052070">
        <ele>107.3</ele>
        <time>2020-02-23T17:00:10Z</time>
      </trkpt>
      <trkpt lat="38.9728260" lon="1.4052140">
        <ele>107.1</ele>
        <time>2020-02-23T17:00:11Z</time>
      </trkpt>
      <trkpt lat="38.9727900" lon="1.4052140">
        <ele>107.0</ele>
        <time>2020-02-23T17:00:12Z</time>
      </trkpt>
      <trkpt lat="38.9727540" lon="1.4052150">
        <ele>106.8</ele>
        <time>2020-02-23T17:00:13Z</time>
      </trkpt>
      <trkpt lat="38.9727220" lon="1.4052010">
        <ele>106.7</ele>
        <time>2020-02-23T17:00:14Z</time>
      </trkpt>
      <trkpt lat="38.9726840" lon="1.4051960">
        <ele>106.7</ele>
        <time>2020-02-23T17:00:15Z</time>
      </trkpt>
      <trkpt lat="38.9726460" lon="1.4051950">
        <ele>106.6</ele>
        <time>2020-02-23T17:00:16Z</time>
      </trkpt>
      <trkpt lat="38.9726130" lon="1.4051920">
        <ele>106.7</ele>
        <time>2020-02-23T17:00:17Z</time>
      </trkpt>
      <trkpt lat="38.9725720" lon="1.4051880">
        <ele>106.8</ele>
        <time>2020-02-23T17:00:18Z</time>
      </trkpt>
      <trkpt lat="38.9725370" lon="1.4051850">
        <ele>106.8</ele>
        <time>2020-02-23T17:00:19Z</time>
      </trkpt>
      <trkpt lat="38.9724940" lon="1.4051930">
        <ele>107.0</ele>
        <time>2020-02-23T17:00:20Z</time>
      </trkpt>
      <trkpt lat="38.9724520" lon="1.4052010">
        <ele>107.3</ele>
        <time>2020-02-23T17:00:21Z</time>
      </trkpt>
      <trkpt lat="38.9724090" lon="1.4052100">
        <ele>107.5</ele>
        <time>2020-02-23T17:00:22Z</time>
      </trkpt>
      <trkpt lat="38.9723650" lon="1.4052250">
        <ele>107.9</ele>
        <time>2020-02-23T17:00:23Z</time>
      </trkpt>
      <trkpt lat="38.9723250" lon="1.4052360">
        <ele>108.2</ele>
        <time>2020-02-23T17:00:24Z</time>
      </trkpt>
      <trkpt lat="38.9722850" lon="1.4052470">
        <ele>108.5</ele>
        <time>2020-02-23T17:00:25Z</time>
      </trkpt>
      <trkpt lat="38.9722470" lon="1.4052580">
        <ele>108.8</ele>
        <time>2020-02-23T17:00:26Z</time>
      </trkpt>
      <trkpt lat="38.9722090" lon="1.4052720">
        <ele>109.1</ele>
        <time>2020-02-23T17:00:27Z</time>
      </trkpt>
      <trkpt lat="38.9721650" lon="1.4052870">
        <ele>109.4</ele>
        <time>2020-02-23T17:00:28Z</time>
      </trkpt>
      <trkpt lat="38.9721300" lon="1.4053030">
        <ele>109.6</ele>
        <time>2020-02-23T17:00:29Z</time>
      </trkpt>
      <trkpt lat="38.9720960" lon="1.4053180">
        <ele>109.9</ele>
        <time>2020-02-23T17:00:30Z</time>
      </trkpt>
      <trkpt lat="38.9720610" lon="1.4053310">
        <ele>110.1</ele>
        <time>2020-02-23T17:00:31Z</time>
      </trkpt>
      <trkpt lat="38.9720250" lon="1.4053500">
        <ele>110.4</ele>
        <time>2020-02-23T17:00:32Z</time>
      </trkpt>
      <trkpt lat="38.9719860" lon="1.4053660">
        <ele>110.6</ele>
        <time>2020-02-23T17:00:33Z</time>
      </trkpt>
      <trkpt lat="38.9719480" lon="1.4053870">
        <ele>110.8</ele>
        <time>2020-02-23T17:00:34Z</time>
      </trkpt>
      <trkpt lat="38.9719170" lon="1.4054090">
        <ele>111.0</ele>
        <time>2020-02-23T17:00:35Z</time>
      </trkpt>
      <trkpt lat="38.9718890" lon="1.4054330">
        <ele>111.2</ele>
        <time>2020-02-23T17:00:36Z</time>
      </trkpt>
      <trkpt lat="38.9718570" lon="1.4054600">
        <ele>111.4</ele>
        <time>2020-02-23T17:00:37Z</time>
      </trkpt>
      <trkpt lat="38.9718180" lon="1.4054910">
        <ele>111.6</ele>
        <time>2020-02-23T17:00:38Z</time>
      </trkpt>
      <trkpt lat="38.9717760" lon="1.4055190">
        <ele>111.9</ele>
        <time>2020-02-23T17:00:39Z</time>
      </trkpt>
      <trkpt lat="38.9717390" lon="1.4055390">
        <ele>112.1</ele>
        <time>2020-02-23T17:00:40Z</time>
      </trkpt>
      <trkpt lat="38.9717060" lon="1.4055590">
        <ele>112.3</ele>
        <time>2020-02-23T17:00:41Z</time>
      </trkpt>
      <trkpt lat="38.9716760" lon="1.4055800">
        <ele>112.5</ele>
        <time>2020-02-23T17:00:42Z</time>
      </trkpt>
      <trkpt lat="38.9716440" lon="1.4056000">
        <ele>112.6</ele>
        <time>2020-02-23T17:00:43Z</time>
      </trkpt>
      <trkpt lat="38.9716100" lon="1.4056220">
        <ele>112.8</ele>
        <time>2020-02-23T17:00:44Z</time>
      </trkpt>
      <trkpt lat="38.9715760" lon="1.4056450">
        <ele>113.0</ele>
        <time>2020-02-23T17:00:45Z</time>
      </trkpt>
      <trkpt lat="38.9715410" lon="1.4056680">
        <ele>113.2</ele>
        <time>2020-02-23T17:00:46Z</time>
      </trkpt>
      <trkpt lat="38.9715110" lon="1.4056890">
        <ele>113.4</ele>
        <time>2020-02-23T17:00:47Z</time>
      </trkpt>
      <trkpt lat="38.9714810" lon="1.4057090">
        <ele>113.6</ele>
        <time>2020-02-23T17:00:48Z</time>
      </trkpt>
      <trkpt lat="38.9714520" lon="1.4057300">
        <ele>113.8</ele>
        <time>2020-02-23T17:00:49Z</time>
      </trkpt>
      <trkpt lat="38.9714250" lon="1.4057450">
        <ele>114.1</ele>
        <time>2020-02-23T17:00:50Z</time>
      </trkpt>
      <trkpt lat="38.9713990" lon="1.4057620">
        <ele>114.3</ele>
        <time>2020-02-23T17:00:51Z</time>
      </trkpt>
      <trkpt lat="38.9713690" lon="1.4057910">
        <ele>114.6</ele>
        <time>2020-02-23T17:00:52Z</time>
      </trkpt>
      <trkpt lat="38.9713430" lon="1.4058100">
        <ele>114.8</ele>
        <time>2020-02-23T17:00:53Z</time>
      </trkpt>
      <trkpt lat="38.9713140" lon="1.4058370">
        <ele>115.2</ele>
        <time>2020-02-23T17:00:54Z</time>
      </trkpt>
      <trkpt lat="38.9712900" lon="1.4058630">
        <ele>115.5</ele>
        <time>2020-02-23T17:00:55Z</time>
      </trkpt>
      <trkpt lat="38.9712590" lon="1.4058830">
        <ele>115.8</ele>
        <time>2020-02-23T17:00:56Z</time>
      </trkpt>
      <trkpt lat="38.9712300" lon="1.4059170">
        <ele>116.3</ele>
        <time>2020-02-23T17:00:57Z</time>
      </trkpt>
      <trkpt lat="38.9712190" lon="1.4059270">
        <ele>116.4</ele>
        <time>2020-02-23T17:00:58Z</time>
      </trkpt>
      <trkpt lat="38.9711960" lon="1.4059540">
        <ele>116.8</ele>
        <time>2020-02-23T17:00:59Z</time>
      </trkpt>
      <trkpt lat="38.9711590" lon="1.4059760">
        <ele>117.3</ele>
        <time>2020-02-23T17:01:00Z</time>
      </trkpt>
      <trkpt lat="38.9711340" lon="1.4060000">
        <ele>117.7</ele>
        <time>2020-02-23T17:01:01Z</time>
      </trkpt>
      <trkpt lat="38.9711080" lon="1.4060280">
        <ele>118.2</ele>
        <time>2020-02-23T17:01:02Z</time>
      </trkpt>
      <trkpt lat="38.9710760" lon="1.4060540">
        <ele>119.0</ele>
        <time>2020-02-23T17:01:03Z</time>
      </trkpt>
      <trkpt lat="38.9710660" lon="1.4060610">
        <ele>119.1</ele>
        <time>2020-02-23T17:01:04Z</time>
      </trkpt>
      <trkpt lat="38.9710280" lon="1.4060780">
        <ele>119.4</ele>
        <time>2020-02-23T17:01:05Z</time>
      </trkpt>
      <trkpt lat="38.9710140" lon="1.4060840">
        <ele>119.5</ele>
        <time>2020-02-23T17:01:06Z</time>
      </trkpt>
      <trkpt lat="38.9709840" lon="1.4061050">
        <ele>119.8</ele>
        <time>2020-02-23T17:01:07Z</time>
      </trkpt>
      <trkpt lat="38.9709540" lon="1.4061220">
        <ele>120.0</ele>
        <time>2020-02-23T17:01:08Z</time>
      </trkpt>
      <trkpt lat="38.9709290" lon="1.4061430">
        <ele>120.2</ele>
        <time>2020-02-23T17:01:09Z</time>
      </trkpt>
      <trkpt lat="38.9709050" lon="1.4061650">
        <ele>120.5</ele>
        <time>2020-02-23T17:01:10Z</time>
      </trkpt>
      <trkpt lat="38.9708790" lon="1.4061870">
        <ele>120.7</ele>
        <time>2020-02-23T17:01:11Z</time>
      </trkpt>
      <trkpt lat="38.9708500" lon="1.4062110">
        <ele>121.0</ele>
        <time>2020-02-23T17:01:12Z</time>
      </trkpt>
      <trkpt lat="38.9708240" lon="1.4062340">
        <ele>121.2</ele>
        <time>2020-02-23T17:01:13Z</time>
      </trkpt>
      <trkpt lat="38.9707960" lon="1.4062540">
        <ele>121.4</ele>
        <time>2020-02-23T17:01:14Z</time>
      </trkpt>
      <trkpt lat="38.9707650" lon="1.4062700">
        <ele>121.7</ele>
        <time>2020-02-23T17:01:15Z</time>
      </trkpt>
      <trkpt lat="38.9707390" lon="1.4062900">
        <ele>121.9</ele>
        <time>2020-02-23T17:01:16Z</time>
      </trkpt>
      <trkpt lat="38.9707160" lon="1.4063080">
        <ele>122.2</ele>
        <time>2020-02-23T17:01:17Z</time>
      </trkpt>
      <trkpt lat="38.9706920" lon="1.4063280">
        <ele>122.4</ele>
        <time>2020-02-23T17:01:18Z</time>
      </trkpt>
      <trkpt lat="38.9706680" lon="1.4063490">
        <ele>122.6</ele>
        <time>2020-02-23T17:01:19Z</time>
      </trkpt>
      <trkpt lat="38.9706420" lon="1.4063650">
        <ele>122.8</ele>
        <time>2020-02-23T17:01:20Z</time>
      </trkpt>
      <trkpt lat="38.9706150" lon="1.4063840">
        <ele>123.1</ele>
        <time>2020-02-23T17:01:21Z</time>
      </trkpt>
      <trkpt lat="38.9705870" lon="1.4064010">
        <ele>123.3</ele>
        <time>2020-02-23T17:01:22Z</time>
      </trkpt>
      <trkpt lat="38.9705590" lon="1.4064170">
        <ele>123.6</ele>
        <time>2020-02-23T17:01:23Z</time>
      </trkpt>
      <trkpt lat="38.9705300" lon="1.4064330">
        <ele>123.9</ele>
        <time>2020-02-23T17:01:24Z</time>
      </trkpt>
      <trkpt lat="38.9705040" lon="1.4064570">
        <ele>124.2</ele>
        <time>2020-02-23T17:01:25Z</time>
      </trkpt>
      <trkpt lat="38.9704730" lon="1.4064840">
        <ele>124.6</ele>
        <time>2020-02-23T17:01:26Z</time>
      </trkpt>
      <trkpt lat="38.9704620" lon="1.4064930">
        <ele>124.7</ele>
        <time>2020-02-23T17:01:27Z</time>
      </trkpt>
      <trkpt lat="38.9704310" lon="1.4065150">
        <ele>125.1</ele>
        <time>2020-02-23T17:01:28Z</time>
      </trkpt>
      <trkpt lat="38.9704210" lon="1.4065230">
        <ele>125.2</ele>
        <time>2020-02-23T17:01:29Z</time>
      </trkpt>
      <trkpt lat="38.9703950" lon="1.4065420">
        <ele>125.3</ele>
        <time>2020-02-23T17:01:30Z</time>
      </trkpt>
      <trkpt lat="38.9703880" lon="1.4065460">
        <ele>125.4</ele>
        <time>2020-02-23T17:01:31Z</time>
      </trkpt>
      <trkpt lat="38.9703790" lon="1.4065550">
        <ele>125.5</ele>
        <time>2020-02-23T17:01:32Z</time>
      </trkpt>
      <trkpt lat="38.9703680" lon="1.4065640">
        <ele>125.5</ele>
        <time>2020-02-23T17:01:33Z</time>
      </trkpt>
      <trkpt lat="38.9703610" lon="1.4065690">
        <ele>125.6</ele>
        <time>2020-02-23T17:01:34Z</time>
      </trkpt>
      <trkpt lat="38.9703470" lon="1.4065800">
        <ele>125.7</ele>
        <time>2020-02-23T17:01:35Z</time>
      </trkpt>
      <trkpt lat="38.9703420" lon="1.4065940">
        <ele>125.8</ele>
        <time>2020-02-23T17:01:36Z</time>
      </trkpt>
      <trkpt lat="38.9703410" lon="1.4065960">
        <ele>125.8</ele>
        <time>2020-02-23T17:01:37Z</time>
      </trkpt>
      <trkpt lat="38.9703690" lon="1.4066040">
        <ele>126.0</ele>
        <time>2020-02-23T17:01:38Z</time>
      </trkpt>
      <trkpt lat="38.9703820" lon="1.4066120">
        <ele>126.1</ele>
        <time>2020-02-23T17:01:39Z</time>
      </trkpt>
      <trkpt lat="38.9704030" lon="1.4066400">
        <ele>126.2</ele>
        <time>2020-02-23T17:01:40Z</time>
      </trkpt>
      <trkpt lat="38.9704280" lon="1.4066750">
        <ele>126.5</ele>
        <time>2020-02-23T17:01:41Z</time>
      </trkpt>
      <trkpt lat="38.9704510" lon="1.4067170">
        <ele>126.7</ele>
        <time>2020-02-23T17:01:42Z</time>
      </trkpt>
      <trkpt lat="38.9704790" lon="1.4067420">
        <ele>127.0</ele>
        <time>2020-02-23T17:01:43Z</time>
      </trkpt>
      <trkpt lat="38.9705000" lon="1.4067740">
        <ele>127.2</ele>
        <time>2020-02-23T17:01:44Z</time>
      </trkpt>
      <trkpt lat="38.9705270" lon="1.4068150">
        <ele>127.4</ele>
        <time>2020-02-23T17:01:45Z</time>
      </trkpt>
      <trkpt lat="38.9705370" lon="1.4068320">
        <ele>127.5</ele>
        <time>2020-02-23T17:01:46Z</time>
      </trkpt>
      <trkpt lat="38.9705600" lon="1.4068710">
        <ele>127.7</ele>
        <time>2020-02-23T17:01:47Z</time>
      </trkpt>
      <trkpt lat="38.9705660" lon="1.4068840">
        <ele>127.8</ele>
        <time>2020-02-23T17:01:48Z</time>
      </trkpt>
      <trkpt lat="38.9705950" lon="1.4069200">
        <ele>128.0</ele>
        <time>2020-02-23T17:01:49Z</time>
      </trkpt>
      <trkpt lat="38.9706200" lon="1.4069490">
        <ele>128.2</ele>
        <time>2020-02-23T17:01:50Z</time>
      </trkpt>
      <trkpt lat="38.9706440" lon="1.4069830">
        <ele>128.5</ele>
        <time>2020-02-23T17:01:51Z</time>
      </trkpt>
      <trkpt lat="38.9706650" lon="1.4070110">
        <ele>128.7</ele>
        <time>2020-02-23T17:01:52Z</time>
      </trkpt>
      <trkpt lat="38.9706690" lon="1.4070210">
        <ele>128.8</ele>
        <time>2020-02-23T17:01:53Z</time>
      </trkpt>
      <trkpt lat="38.9706830" lon="1.4070470">
        <ele>129.0</ele>
        <time>2020-02-23T17:01:54Z</time>
      </trkpt>
      <trkpt lat="38.9706860" lon="1.4070550">
        <ele>129.1</ele>
        <time>2020-02-23T17:01:55Z</time>
      </trkpt>
      <trkpt lat="38.9706900" lon="1.4070630">
        <ele>129.1</ele>
        <time>2020-02-23T17:01:56Z</time>
      </trkpt>
      <trkpt lat="38.9707050" lon="1.4070950">
        <ele>129.4</ele>
        <time>2020-02-23T17:01:57Z</time>
      </trkpt>
      <trkpt lat="38.9707200" lon="1.4071300">
        <ele>129.7</ele>
        <time>2020-02-23T17:01:58Z</time>
      </trkpt>
      <trkpt lat="38.9707240" lon="1.4071450">
        <ele>129.8</ele>
        <time>2020-02-23T17:01:59Z</time>
      </trkpt>
      <trkpt lat="38.9707320" lon="1.4071620">
        <ele>130.0</ele>
        <time>2020-02-23T17:02:00Z</time>
      </trkpt>
      <trkpt lat="38.9707370" lon="1.4071680">
        <ele>130.1</ele>
        <time>2020-02-23T17:02:01Z</time>
      </trkpt>
      <trkpt lat="38.9707420" lon="1.4071790">
        <ele>130.2</ele>
        <time>2020-02-23T17:02:02Z</time>
      </trkpt>
      <trkpt lat="38.9707500" lon="1.4071920">
        <ele>130.3</ele>
        <time>2020-02-23T17:02:03Z</time>
      </trkpt>
      <trkpt lat="38.9707500" lon="1.4072160">
        <ele>130.5</ele>
        <time>2020-02-23T17:02:04Z</time>
      </trkpt>
      <trkpt lat="38.9707640" lon="1.4072280">
        <ele>130.7</ele>
        <time>2020-02-23T17:02:05Z</time>
      </trkpt>
      <trkpt lat="38.9707730" lon="1.4072420">
        <ele>130.9</ele>
        <time>2020-02-23T17:02:06Z</time>
      </trkpt>
      <trkpt lat="38.9707960" lon="1.4072690">
        <ele>131.3</ele>
        <time>2020-02-23T17:02:07Z</time>
      </trkpt>
      <trkpt lat="38.9708010" lon="1.4072780">
        <ele>131.4</ele>
        <time>2020-02-23T17:02:08Z</time>
      </trkpt>
      <trkpt lat="38.9708030" lon="1.4073020">
        <ele>131.7</ele>
        <time>2020-02-23T17:02:09Z</time>
      </trkpt>
      <trkpt lat="38.9708190" lon="1.4073120">
        <ele>132.0</ele>
        <time>2020-02-23T17:02:10Z</time>
      </trkpt>
      <trkpt lat="38.9708220" lon="1.4073370">
        <ele>132.2</ele>
        <time>2020-02-23T17:02:11Z</time>
      </trkpt>
      <trkpt lat="38.9708270" lon="1.4073550">
        <ele>132.3</ele>
        <time>2020-02-23T17:02:12Z</time>
      </trkpt>
      <trkpt lat="38.9708260" lon="1.4073740">
        <ele>132.4</ele>
        <time>2020-02-23T17:02:13Z</time>
      </trkpt>
      <trkpt lat="38.9708220" lon="1.4073830">
        <ele>132.5</ele>
        <time>2020-02-23T17:02:14Z</time>
      </trkpt>
      <trkpt lat="38.9708360" lon="1.4073970">
        <ele>132.7</ele>
        <time>2020-02-23T17:02:15Z</time>
      </trkpt>
      <trkpt lat="38.9708540" lon="1.4074170">
        <ele>132.8</ele>
        <time>2020-02-23T17:02:16Z</time>
      </trkpt>
      <trkpt lat="38.9708560" lon="1.4074290">
        <ele>132.9</ele>
        <time>2020-02-23T17:02:17Z</time>
      </trkpt>
      <trkpt lat="38.9708580" lon="1.4074400">
        <ele>133.0</ele>
        <time>2020-02-23T17:02:18Z</time>
      </trkpt>
      <trkpt lat="38.9708700" lon="1.4074610">
        <ele>133.1</ele>
        <time>2020-02-23T17:02:19Z</time>
      </trkpt>
      <trkpt lat="38.9708760" lon="1.4074700">
        <ele>133.2</ele>
        <time>2020-02-23T17:02:20Z</time>
      </trkpt>
      <trkpt lat="38.9708810" lon="1.4074790">
        <ele>133.3</ele>
        <time>2020-02-23T17:02:21Z</time>
      </trkpt>
      <trkpt lat="38.9708820" lon="1.4074950">
        <ele>133.4</ele>
        <time>2020-02-23T17:02:22Z</time>
      </trkpt>
      <trkpt lat="38.9708800" lon="1.4075140">
        <ele>133.5</ele>
        <time>2020-02-23T17:02:23Z</time>
      </trkpt>
      <trkpt lat="38.9708850" lon="1.4075220">
        <ele>133.6</ele>
        <time>2020-02-23T17:02:24Z</time>
      </trkpt>
      <trkpt lat="38.9708830" lon="1.4075430">
        <ele>133.8</ele>
        <time>2020-02-23T17:02:25Z</time>
      </trkpt>
      <trkpt lat="38.9708880" lon="1.4075520">
        <ele>133.8</ele>
        <time>2020-02-23T17:02:26Z</time>
      </trkpt>
      <trkpt lat="38.9708880" lon="1.4075750">
        <ele>134.0</ele>
        <time>2020-02-23T17:02:27Z</time>
      </trkpt>
      <trkpt lat="38.9708930" lon="1.4075880">
        <ele>134.1</ele>
        <time>2020-02-23T17:02:28Z</time>
      </trkpt>
      <trkpt lat="38.9709200" lon="1.4076000">
        <ele>134.5</ele>
        <time>2020-02-23T17:02:29Z</time>
      </trkpt>
      <trkpt lat="38.9709340" lon="1.4076070">
        <ele>134.7</ele>
        <time>2020-02-23T17:02:30Z</time>
      </trkpt>
      <trkpt lat="38.9709480" lon="1.4076440">
        <ele>135.1</ele>
        <time>2020-02-23T17:02:31Z</time>
      </trkpt>
      <trkpt lat="38.9709550" lon="1.4076770">
        <ele>135.4</ele>
        <time>2020-02-23T17:02:32Z</time>
      </trkpt>
      <trkpt lat="38.9709580" lon="1.4076910">
        <ele>135.6</ele>
        <time>2020-02-23T17:02:33Z</time>
      </trkpt>
      <trkpt lat="38.9709810" lon="1.4077270">
        <ele>135.9</ele>
        <time>2020-02-23T17:02:34Z</time>
      </trkpt>
      <trkpt lat="38.9709870" lon="1.4077370">
        <ele>136.0</ele>
        <time>2020-02-23T17:02:35Z</time>
      </trkpt>
      <trkpt lat="38.9709910" lon="1.4077550">
        <ele>136.2</ele>
        <time>2020-02-23T17:02:36Z</time>
      </trkpt>
      <trkpt lat="38.9709930" lon="1.4077680">
        <ele>136.4</ele>
        <time>2020-02-23T17:02:37Z</time>
      </trkpt>
      <trkpt lat="38.9710000" lon="1.4077770">
        <ele>136.6</ele>
        <time>2020-02-23T17:02:38Z</time>
      </trkpt>
      <trkpt lat="38.9710000" lon="1.4077960">
        <ele>136.8</ele>
        <time>2020-02-23T17:02:39Z</time>
      </trkpt>
      <trkpt lat="38.9710100" lon="1.4078110">
        <ele>137.1</ele>
        <time>2020-02-23T17:02:40Z</time>
      </trkpt>
      <trkpt lat="38.9710170" lon="1.4078330">
        <ele>137.4</ele>
        <time>2020-02-23T17:02:41Z</time>
      </trkpt>
      <trkpt lat="38.9710170" lon="1.4078530">
        <ele>137.5</ele>
        <time>2020-02-23T17:02:42Z</time>
      </trkpt>
      <trkpt lat="38.9710190" lon="1.4078770">
        <ele>137.8</ele>
        <time>2020-02-23T17:02:43Z</time>
      </trkpt>
      <trkpt lat="38.9710280" lon="1.4078910">
        <ele>137.9</ele>
        <time>2020-02-23T17:02:44Z</time>
      </trkpt>
      <trkpt lat="38.9710420" lon="1.4079020">
        <ele>138.1</ele>
        <time>2020-02-23T17:02:45Z</time>
      </trkpt>
      <trkpt lat="38.9710530" lon="1.4079130">
        <ele>138.2</ele>
        <time>2020-02-23T17:02:46Z</time>
      </trkpt>
      <trkpt lat="38.9710640" lon="1.4079250">
        <ele>138.2</ele>
        <time>2020-02-23T17:02:47Z</time>
      </trkpt>
      <trkpt lat="38.9710730" lon="1.4079450">
        <ele>138.3</ele>
        <time>2020-02-23T17:02:48Z</time>
      </trkpt>
      <trkpt lat="38.9710800" lon="1.4079500">
        <ele>138.4</ele>
        <time>2020-02-23T17:02:49Z</time>
      </trkpt>
      <trkpt lat="38.9710790" lon="1.4079680">
        <ele>138.4</ele>
        <time>2020-02-23T17:02:50Z</time>
      </trkpt>
      <trkpt lat="38.9710760" lon="1.4079900">
        <ele>138.5</ele>
        <time>2020-02-23T17:02:51Z</time>
      </trkpt>
      <trkpt lat="38.9710660" lon="1.4080230">
        <ele>138.6</ele>
        <time>2020-02-23T17:02:52Z</time>
      </trkpt>
      <trkpt lat="38.9710650" lon="1.4080380">
        <ele>138.7</ele>
        <time>2020-02-23T17:02:53Z</time>
      </trkpt>
      <trkpt lat="38.9710450" lon="1.4080660">
        <ele>138.8</ele>
        <time>2020-02-23T17:02:54Z</time>
      </trkpt>
      <trkpt lat="38.9710360" lon="1.4080720">
        <ele>138.8</ele>
        <time>2020-02-23T17:02:55Z</time>
      </trkpt>
      <trkpt lat="38.9710110" lon="1.4081020">
        <ele>138.9</ele>
        <time>2020-02-23T17:02:56Z</time>
      </trkpt>
      <trkpt lat="38.9710010" lon="1.4081120">
        <ele>138.9</ele>
        <time>2020-02-23T17:02:57Z</time>
      </trkpt>
      <trkpt lat="38.9709860" lon="1.4081390">
        <ele>138.9</ele>
        <time>2020-02-23T17:02:58Z</time>
      </trkpt>
      <trkpt lat="38.9709780" lon="1.4081510">
        <ele>138.9</ele>
        <time>2020-02-23T17:02:59Z</time>
      </trkpt>
      <trkpt lat="38.9709750" lon="1.4081930">
        <ele>139.0</ele>
        <time>2020-02-23T17:03:00Z</time>
      </trkpt>
      <trkpt lat="38.9709760" lon="1.4082050">
        <ele>139.0</ele>
        <time>2020-02-23T17:03:01Z</time>
      </trkpt>
      <trkpt lat="38.9709710" lon="1.4082260">
        <ele>139.0</ele>
        <time>2020-02-23T17:03:02Z</time>
      </trkpt>
      <trkpt lat="38.9709660" lon="1.4082450">
        <ele>139.0</ele>
        <time>2020-02-23T17:03:03Z</time>
      </trkpt>
      <trkpt lat="38.9709600" lon="1.4082650">
        <ele>139.0</ele>
        <time>2020-02-23T17:03:04Z</time>
      </trkpt>
      <trkpt lat="38.9709470" lon="1.4082780">
        <ele>139.0</ele>
        <time>2020-02-23T17:03:05Z</time>
      </trkpt>
      <trkpt lat="38.9709390" lon="1.4083140">
        <ele>139.1</ele>
        <time>2020-02-23T17:03:06Z</time>
      </trkpt>
      <trkpt lat="38.9709360" lon="1.4083230">
        <ele>139.1</ele>
        <time>2020-02-23T17:03:07Z</time>
      </trkpt>
      <trkpt lat="38.9709350" lon="1.4083640">
        <ele>139.2</ele>
        <time>2020-02-23T17:03:08Z</time>
      </trkpt>
      <trkpt lat="38.9709380" lon="1.4083780">
        <ele>139.3</ele>
        <time>2020-02-23T17:03:09Z</time>
      </trkpt>
      <trkpt lat="38.9709330" lon="1.4084160">
        <ele>139.4</ele>
        <time>2020-02-23T17:03:10Z</time>
      </trkpt>
      <trkpt lat="38.9709290" lon="1.4084280">
        <ele>139.4</ele>
        <time>2020-02-23T17:03:11Z</time>
      </trkpt>
      <trkpt lat="38.9709230" lon="1.4084680">
        <ele>139.5</ele>
        <time>2020-02-23T17:03:12Z</time>
      </trkpt>
      <trkpt lat="38.9709220" lon="1.4084830">
        <ele>139.6</ele>
        <time>2020-02-23T17:03:13Z</time>
      </trkpt>
      <trkpt lat="38.9709200" lon="1.4085320">
        <ele>139.7</ele>
        <time>2020-02-23T17:03:14Z</time>
      </trkpt>
      <trkpt lat="38.9709190" lon="1.4085500">
        <ele>139.8</ele>
        <time>2020-02-23T17:03:15Z</time>
      </trkpt>
      <trkpt lat="38.9709050" lon="1.4086010">
        <ele>140.0</ele>
        <time>2020-02-23T17:03:16Z</time>
      </trkpt>
      <trkpt lat="38.9708980" lon="1.4086180">
        <ele>140.1</ele>
        <time>2020-02-23T17:03:17Z</time>
      </trkpt>
      <trkpt lat="38.9708810" lon="1.4086520">
        <ele>140.3</ele>
        <time>2020-02-23T17:03:18Z</time>
      </trkpt>
      <trkpt lat="38.9708570" lon="1.4086890">
        <ele>140.5</ele>
        <time>2020-02-23T17:03:19Z</time>
      </trkpt>
      <trkpt lat="38.9708470" lon="1.4087010">
        <ele>140.6</ele>
        <time>2020-02-23T17:03:20Z</time>
      </trkpt>
      <trkpt lat="38.9708260" lon="1.4087260">
        <ele>140.8</ele>
        <time>2020-02-23T17:03:21Z</time>
      </trkpt>
      <trkpt lat="38.9708050" lon="1.4087560">
        <ele>141.1</ele>
        <time>2020-02-23T17:03:22Z</time>
      </trkpt>
      <trkpt lat="38.9707710" lon="1.4087860">
        <ele>141.3</ele>
        <time>2020-02-23T17:03:23Z</time>
      </trkpt>
      <trkpt lat="38.9707590" lon="1.4087970">
        <ele>141.4</ele>
        <time>2020-02-23T17:03:24Z</time>
      </trkpt>
      <trkpt lat="38.9707300" lon="1.4088320">
        <ele>141.6</ele>
        <time>2020-02-23T17:03:25Z</time>
      </trkpt>
      <trkpt lat="38.9707180" lon="1.4088430">
        <ele>141.6</ele>
        <time>2020-02-23T17:03:26Z</time>
      </trkpt>
      <trkpt lat="38.9707020" lon="1.4088760">
        <ele>141.8</ele>
        <time>2020-02-23T17:03:27Z</time>
      </trkpt>
      <trkpt lat="38.9706820" lon="1.4089120">
        <ele>141.9</ele>
        <time>2020-02-23T17:03:28Z</time>
      </trkpt>
      <trkpt lat="38.9706650" lon="1.4089540">
        <ele>141.6</ele>
        <time>2020-02-23T17:03:29Z</time>
      </trkpt>
      <trkpt lat="38.9706570" lon="1.4089660">
        <ele>141.5</ele>
        <time>2020-02-23T17:03:30Z</time>
      </trkpt>
      <trkpt lat="38.9706620" lon="1.4089800">
        <ele>141.5</ele>
        <time>2020-02-23T17:03:31Z</time>
      </trkpt>
      <trkpt lat="38.9706640" lon="1.4090060">
        <ele>141.3</ele>
        <time>2020-02-23T17:03:32Z</time>
      </trkpt>
      <trkpt lat="38.9706720" lon="1.4090460">
        <ele>141.2</ele>
        <time>2020-02-23T17:03:33Z</time>
      </trkpt>
      <trkpt lat="38.9706750" lon="1.4090580">
        <ele>141.2</ele>
        <time>2020-02-23T17:03:34Z</time>
      </trkpt>
      <trkpt lat="38.9706820" lon="1.4090920">
        <ele>141.1</ele>
        <time>2020-02-23T17:03:35Z</time>
      </trkpt>
      <trkpt lat="38.9706870" lon="1.4091380">
        <ele>140.9</ele>
        <time>2020-02-23T17:03:36Z</time>
      </trkpt>
      <trkpt lat="38.9706900" lon="1.4091510">
        <ele>140.8</ele>
        <time>2020-02-23T17:03:37Z</time>
      </trkpt>
      <trkpt lat="38.9707030" lon="1.4091900">
        <ele>140.6</ele>
        <time>2020-02-23T17:03:38Z</time>
      </trkpt>
      <trkpt lat="38.9707050" lon="1.4092050">
        <ele>140.5</ele>
        <time>2020-02-23T17:03:39Z</time>
      </trkpt>
      <trkpt lat="38.9707180" lon="1.4092160">
        <ele>140.5</ele>
        <time>2020-02-23T17:03:40Z</time>
      </trkpt>
      <trkpt lat="38.9707190" lon="1.4092430">
        <ele>140.5</ele>
        <time>2020-02-23T17:03:41Z</time>
      </trkpt>
      <trkpt lat="38.9707200" lon="1.4092580">
        <ele>140.5</ele>
        <time>2020-02-23T17:03:42Z</time>
      </trkpt>
      <trkpt lat="38.9707270" lon="1.4092600">
        <ele>140.5</ele>
        <time>2020-02-23T17:03:43Z</time>
      </trkpt>
      <trkpt lat="38.9707300" lon="1.4092770">
        <ele>140.5</ele>
        <time>2020-02-23T17:03:44Z</time>
      </trkpt>
      <trkpt lat="38.9707310" lon="1.4093000">
        <ele>140.5</ele>
        <time>2020-02-23T17:03:45Z</time>
      </trkpt>
      <trkpt lat="38.9707250" lon="1.4093210">
        <ele>140.4</ele>
        <time>2020-02-23T17:03:46Z</time>
      </trkpt>
      <trkpt lat="38.9707180" lon="1.4093610">
        <ele>140.2</ele>
        <time>2020-02-23T17:03:47Z</time>
      </trkpt>
      <trkpt lat="38.9707140" lon="1.4093760">
        <ele>140.1</ele>
        <time>2020-02-23T17:03:48Z</time>
      </trkpt>
      <trkpt lat="38.9707010" lon="1.4094140">
        <ele>140.0</ele>
        <time>2020-02-23T17:03:49Z</time>
      </trkpt>
      <trkpt lat="38.9706840" lon="1.4094480">
        <ele>139.9</ele>
        <time>2020-02-23T17:03:50Z</time>
      </trkpt>
      <trkpt lat="38.9706690" lon="1.4094810">
        <ele>139.9</ele>
        <time>2020-02-23T17:03:51Z</time>
      </trkpt>
      <trkpt lat="38.9706400" lon="1.4095140">
        <ele>139.9</ele>
        <time>2020-02-23T17:03:52Z</time>
      </trkpt>
      <trkpt lat="38.9706190" lon="1.4095450">
        <ele>139.8</ele>
        <time>2020-02-23T17:03:53Z</time>
      </trkpt>
      <trkpt lat="38.9705920" lon="1.4095850">
        <ele>139.7</ele>
        <time>2020-02-23T17:03:54Z</time>
      </trkpt>
      <trkpt lat="38.9705830" lon="1.4095990">
        <ele>139.7</ele>
        <time>2020-02-23T17:03:55Z</time>
      </trkpt>
      <trkpt lat="38.9705600" lon="1.4096320">
        <ele>139.9</ele>
        <time>2020-02-23T17:03:56Z</time>
      </trkpt>
      <trkpt lat="38.9705550" lon="1.4096400">
        <ele>139.8</ele>
        <time>2020-02-23T17:03:57Z</time>
      </trkpt>
      <trkpt lat="38.9705380" lon="1.4096560">
        <ele>139.8</ele>
        <time>2020-02-23T17:03:58Z</time>
      </trkpt>
      <trkpt lat="38.9705290" lon="1.4096610">
        <ele>139.8</ele>
        <time>2020-02-23T17:03:59Z</time>
      </trkpt>
      <trkpt lat="38.9705210" lon="1.4096660">
        <ele>139.8</ele>
        <time>2020-02-23T17:04:00Z</time>
      </trkpt>
      <trkpt lat="38.9705110" lon="1.4096770">
        <ele>139.8</ele>
        <time>2020-02-23T17:04:01Z</time>
      </trkpt>
      <trkpt lat="38.9705080" lon="1.4096940">
        <ele>139.8</ele>
        <time>2020-02-23T17:04:02Z</time>
      </trkpt>
      <trkpt lat="38.9705020" lon="1.4096970">
        <ele>139.8</ele>
        <time>2020-02-23T17:04:03Z</time>
      </trkpt>
      <trkpt lat="38.9704970" lon="1.4097020">
        <ele>139.8</ele>
        <time>2020-02-23T17:04:04Z</time>
      </trkpt>
      <trkpt lat="38.9704980" lon="1.4097150">
        <ele>139.8</ele>
        <time>2020-02-23T17:04:05Z</time>
      </trkpt>
      <trkpt lat="38.9704980" lon="1.4097180">
        <ele>139.8</ele>
        <time>2020-02-23T17:04:06Z</time>
      </trkpt>
      <trkpt lat="38.9704980" lon="1.4097180">
        <ele>139.8</ele>
        <time>2020-02-23T17:04:07Z</time>
      </trkpt>
      <trkpt lat="38.9704980" lon="1.4097180">
        <ele>139.8</ele>
        <time>2020-02-23T17:04:08Z</time>
      </trkpt>
      <trkpt lat="38.9704970" lon="1.4097180">
        <ele>139.8</ele>
        <time>2020-02-23T17:04:09Z</time>
      </trkpt>
      <trkpt lat="38.9704960" lon="1.4097170">
        <ele>139.8</ele>
        <time>2020-02-23T17:04:10Z</time>
      </trkpt>
      <trkpt lat="38.9704950" lon="1.4097180">
        <ele>139.7</ele>
        <time>2020-02-23T17:04:11Z</time>
      </trkpt>
      <trkpt lat="38.9704950" lon="1.4097180">
        <ele>139.7</ele>
        <time>2020-02-23T17:04:12Z</time>
      </trkpt>
      <trkpt lat="38.9704950" lon="1.4097180">
        <ele>139.7</ele>
        <time>2020-02-23T17:04:13Z</time>
      </trkpt>
      <trkpt lat="38.9704850" lon="1.4097470">
        <ele>139.7</ele>
        <time>2020-02-23T17:04:37Z</time>
      </trkpt>
      <trkpt lat="38.9704740" lon="1.4097530">
        <ele>139.7</ele>
        <time>2020-02-23T17:04:38Z</time>
      </trkpt>
      <trkpt lat="38.9704630" lon="1.4097600">
        <ele>139.7</ele>
        <time>2020-02-23T17:04:39Z</time>
      </trkpt>
      <trkpt lat="38.9704420" lon="1.4097850">
        <ele>139.6</ele>
        <time>2020-02-23T17:04:40Z</time>
      </trkpt>
      <trkpt lat="38.9704330" lon="1.4097930">
        <ele>139.6</ele>
        <time>2020-02-23T17:04:41Z</time>
      </trkpt>
      <trkpt lat="38.9703940" lon="1.4098220">
        <ele>139.5</ele>
        <time>2020-02-23T17:04:42Z</time>
      </trkpt>
      <trkpt lat="38.9703770" lon="1.4098340">
        <ele>139.4</ele>
        <time>2020-02-23T17:04:43Z</time>
      </trkpt>
      <trkpt lat="38.9703350" lon="1.4098790">
        <ele>139.2</ele>
        <time>2020-02-23T17:04:44Z</time>
      </trkpt>
      <trkpt lat="38.9702750" lon="1.4099150">
        <ele>138.9</ele>
        <time>2020-02-23T17:04:45Z</time>
      </trkpt>
      <trkpt lat="38.9702120" lon="1.4099500">
        <ele>138.6</ele>
        <time>2020-02-23T17:04:46Z</time>
      </trkpt>
      <trkpt lat="38.9701400" lon="1.4099840">
        <ele>138.3</ele>
        <time>2020-02-23T17:04:47Z</time>
      </trkpt>
      <trkpt lat="38.9700740" lon="1.4100330">
        <ele>137.9</ele>
        <time>2020-02-23T17:04:48Z</time>
      </trkpt>
      <trkpt lat="38.9699840" lon="1.4100960">
        <ele>137.3</ele>
        <time>2020-02-23T17:04:49Z</time>
      </trkpt>
      <trkpt lat="38.9699210" lon="1.4101440">
        <ele>136.9</ele>
        <time>2020-02-23T17:04:50Z</time>
      </trkpt>
      <trkpt lat="38.9698440" lon="1.4102150">
        <ele>135.7</ele>
        <time>2020-02-23T17:04:51Z</time>
      </trkpt>
      <trkpt lat="38.9697850" lon="1.4102720">
        <ele>135.1</ele>
        <time>2020-02-23T17:04:52Z</time>
      </trkpt>
      <trkpt lat="38.9697400" lon="1.4103200">
        <ele>134.4</ele>
        <time>2020-02-23T17:04:53Z</time>
      </trkpt>
      <trkpt lat="38.9696920" lon="1.4103620">
        <ele>133.7</ele>
        <time>2020-02-23T17:04:54Z</time>
      </trkpt>
      <trkpt lat="38.9696570" lon="1.4104070">
        <ele>133.1</ele>
        <time>2020-02-23T17:04:55Z</time>
      </trkpt>
      <trkpt lat="38.9696370" lon="1.4104430">
        <ele>132.7</ele>
        <time>2020-02-23T17:04:56Z</time>
      </trkpt>
      <trkpt lat="38.9696250" lon="1.4104760">
        <ele>132.6</ele>
        <time>2020-02-23T17:04:57Z</time>
      </trkpt>
      <trkpt lat="38.9696190" lon="1.4104870">
        <ele>132.6</ele>
        <time>2020-02-23T17:04:58Z</time>
      </trkpt>
      <trkpt lat="38.9695950" lon="1.4105190">
        <ele>132.6</ele>
        <time>2020-02-23T17:04:59Z</time>
      </trkpt>
      <trkpt lat="38.9695870" lon="1.4105290">
        <ele>132.6</ele>
        <time>2020-02-23T17:05:00Z</time>
      </trkpt>
      <trkpt lat="38.9695550" lon="1.4105380">
        <ele>132.6</ele>
        <time>2020-02-23T17:05:01Z</time>
      </trkpt>
      <trkpt lat="38.9695460" lon="1.4105390">
        <ele>132.6</ele>
        <time>2020-02-23T17:05:02Z</time>
      </trkpt>
      <trkpt lat="38.9695380" lon="1.4105380">
        <ele>132.6</ele>
        <time>2020-02-23T17:05:03Z</time>
      </trkpt>
      <trkpt lat="38.9695310" lon="1.4105340">
        <ele>132.6</ele>
        <time>2020-02-23T17:05:04Z</time>
      </trkpt>
      <trkpt lat="38.9695150" lon="1.4105200">
        <ele>132.6</ele>
        <time>2020-02-23T17:05:05Z</time>
      </trkpt>
      <trkpt lat="38.9695000" lon="1.4104720">
        <ele>132.6</ele>
        <time>2020-02-23T17:05:06Z</time>
      </trkpt>
      <trkpt lat="38.9694980" lon="1.4104500">
        <ele>132.6</ele>
        <time>2020-02-23T17:05:07Z</time>
      </trkpt>
      <trkpt lat="38.9694870" lon="1.4104160">
        <ele>132.6</ele>
        <time>2020-02-23T17:05:08Z</time>
      </trkpt>
      <trkpt lat="38.9694750" lon="1.4103840">
        <ele>132.6</ele>
        <time>2020-02-23T17:05:09Z</time>
      </trkpt>
      <trkpt lat="38.9694560" lon="1.4103420">
        <ele>132.6</ele>
        <time>2020-02-23T17:05:10Z</time>
      </trkpt>
      <trkpt lat="38.9694480" lon="1.4103300">
        <ele>132.6</ele>
        <time>2020-02-23T17:05:11Z</time>
      </trkpt>
      <trkpt lat="38.9694240" lon="1.4103110">
        <ele>132.6</ele>
        <time>2020-02-23T17:05:12Z</time>
      </trkpt>
      <trkpt lat="38.9693980" lon="1.4102790">
        <ele>132.6</ele>
        <time>2020-02-23T17:05:13Z</time>
      </trkpt>
      <trkpt lat="38.9693890" lon="1.4102700">
        <ele>132.6</ele>
        <time>2020-02-23T17:05:14Z</time>
      </trkpt>
      <trkpt lat="38.9693650" lon="1.4102470">
        <ele>132.6</ele>
        <time>2020-02-23T17:05:15Z</time>
      </trkpt>
      <trkpt lat="38.9693580" lon="1.4102390">
        <ele>132.6</ele>
        <time>2020-02-23T17:05:16Z</time>
      </trkpt>
      <trkpt lat="38.9693470" lon="1.4102280">
        <ele>132.6</ele>
        <time>2020-02-23T17:05:17Z</time>
      </trkpt>
      <trkpt lat="38.9693350" lon="1.4102330">
        <ele>132.6</ele>
        <time>2020-02-23T17:05:18Z</time>
      </trkpt>
      <trkpt lat="38.9693260" lon="1.4102410">
        <ele>132.6</ele>
        <time>2020-02-23T17:05:19Z</time>
      </trkpt>
      <trkpt lat="38.9693140" lon="1.4102600">
        <ele>132.6</ele>
        <time>2020-02-23T17:05:20Z</time>
      </trkpt>
      <trkpt lat="38.9693220" lon="1.4102800">
        <ele>132.6</ele>
        <time>2020-02-23T17:05:21Z</time>
      </trkpt>
      <trkpt lat="38.9693270" lon="1.4102980">
        <ele>132.6</ele>
        <time>2020-02-23T17:05:22Z</time>
      </trkpt>
      <trkpt lat="38.9693300" lon="1.4103090">
        <ele>132.6</ele>
        <time>2020-02-23T17:05:23Z</time>
      </trkpt>
      <trkpt lat="38.9693330" lon="1.4103120">
        <ele>132.6</ele>
        <time>2020-02-23T17:05:24Z</time>
      </trkpt>
      <trkpt lat="38.9693390" lon="1.4103210">
        <ele>132.6</ele>
        <time>2020-02-23T17:05:25Z</time>
      </trkpt>
      <trkpt lat="38.9693370" lon="1.4103330">
        <ele>132.6</ele>
        <time>2020-02-23T17:05:26Z</time>
      </trkpt>
      <trkpt lat="38.9693390" lon="1.4103420">
        <ele>132.7</ele>
        <time>2020-02-23T17:05:27Z</time>
      </trkpt>
      <trkpt lat="38.9693390" lon="1.4103520">
        <ele>132.7</ele>
        <time>2020-02-23T17:05:28Z</time>
      </trkpt>
      <trkpt lat="38.9693350" lon="1.4103660">
        <ele>132.7</ele>
        <time>2020-02-23T17:05:29Z</time>
      </trkpt>
      <trkpt lat="38.9693310" lon="1.4103730">
        <ele>132.7</ele>
        <time>2020-02-23T17:05:30Z</time>
      </trkpt>
      <trkpt lat="38.9693380" lon="1.4103680">
        <ele>132.7</ele>
        <time>2020-02-23T17:05:31Z</time>
      </trkpt>
      <trkpt lat="38.9693400" lon="1.4103590">
        <ele>132.7</ele>
        <time>2020-02-23T17:05:32Z</time>
      </trkpt>
      <trkpt lat="38.9693430" lon="1.4103560">
        <ele>132.7</ele>
        <time>2020-02-23T17:05:33Z</time>
      </trkpt>
      <trkpt lat="38.9693430" lon="1.4103660">
        <ele>132.7</ele>
        <time>2020-02-23T17:05:34Z</time>
      </trkpt>
      <trkpt lat="38.9693440" lon="1.4103780">
        <ele>132.7</ele>
        <time>2020-02-23T17:05:35Z</time>
      </trkpt>
      <trkpt lat="38.9693440" lon="1.4103780">
        <ele>132.7</ele>
        <time>2020-02-23T17:05:36Z</time>
      </trkpt>
      <trkpt lat="38.9693440" lon="1.4103780">
        <ele>132.7</ele>
        <time>2020-02-23T17:05:37Z</time>
      </trkpt>
      <trkpt lat="38.9693440" lon="1.4103780">
        <ele>132.7</ele>
        <time>2020-02-23T17:05:38Z</time>
      </trkpt>
      <trkpt lat="38.9693440" lon="1.4103780">
        <ele>132.7</ele>
        <time>2020-02-23T17:05:39Z</time>
      </trkpt>
      <trkpt lat="38.9692740" lon="1.4103300">
        <ele>132.7</ele>
        <time>2020-02-23T17:10:16Z</time>
      </trkpt>
      <trkpt lat="38.9692730" lon="1.4103410">
        <ele>132.7</ele>
        <time>2020-02-23T17:10:17Z</time>
      </trkpt>
      <trkpt lat="38.9692720" lon="1.4103520">
        <ele>132.7</ele>
        <time>2020-02-23T17:10:18Z</time>
      </trkpt>
      <trkpt lat="38.9692730" lon="1.4103630">
        <ele>132.7</ele>
        <time>2020-02-23T17:10:19Z</time>
      </trkpt>
      <trkpt lat="38.9692750" lon="1.4103710">
        <ele>132.7</ele>
        <time>2020-02-23T17:10:20Z</time>
      </trkpt>
      <trkpt lat="38.9692850" lon="1.4103760">
        <ele>132.7</ele>
        <time>2020-02-23T17:10:21Z</time>
      </trkpt>
      <trkpt lat="38.9692970" lon="1.4103820">
        <ele>132.8</ele>
        <time>2020-02-23T17:10:22Z</time>
      </trkpt>
      <trkpt lat="38.9693100" lon="1.4103880">
        <ele>132.8</ele>
        <time>2020-02-23T17:10:23Z</time>
      </trkpt>
      <trkpt lat="38.9693170" lon="1.4103950">
        <ele>132.8</ele>
        <time>2020-02-23T17:10:24Z</time>
      </trkpt>
      <trkpt lat="38.9693200" lon="1.4104040">
        <ele>132.8</ele>
        <time>2020-02-23T17:10:25Z</time>
      </trkpt>
      <trkpt lat="38.9693320" lon="1.4104240">
        <ele>132.8</ele>
        <time>2020-02-23T17:10:26Z</time>
      </trkpt>
      <trkpt lat="38.9693370" lon="1.4104330">
        <ele>132.8</ele>
        <time>2020-02-23T17:10:27Z</time>
      </trkpt>
      <trkpt lat="38.9693420" lon="1.4104420">
        <ele>132.8</ele>
        <time>2020-02-23T17:10:28Z</time>
      </trkpt>
      <trkpt lat="38.9693470" lon="1.4104480">
        <ele>132.8</ele>
        <time>2020-02-23T17:10:29Z</time>
      </trkpt>
      <trkpt lat="38.9693550" lon="1.4104440">
        <ele>132.8</ele>
        <time>2020-02-23T17:10:30Z</time>
      </trkpt>
      <trkpt lat="38.9693640" lon="1.4104420">
        <ele>132.8</ele>
        <time>2020-02-23T17:10:31Z</time>
      </trkpt>
      <trkpt lat="38.9693680" lon="1.4104380">
        <ele>132.8</ele>
        <time>2020-02-23T17:10:32Z</time>
      </trkpt>
      <trkpt lat="38.9693700" lon="1.4104400">
        <ele>132.8</ele>
        <time>2020-02-23T17:10:33Z</time>
      </trkpt>
      <trkpt lat="38.9693700" lon="1.4104410">
        <ele>132.8</ele>
        <time>2020-02-23T17:10:34Z</time>
      </trkpt>
      <trkpt lat="38.9693690" lon="1.4104430">
        <ele>132.8</ele>
        <time>2020-02-23T17:10:35Z</time>
      </trkpt>
      <trkpt lat="38.9693690" lon="1.4104460">
        <ele>132.8</ele>
        <time>2020-02-23T17:10:36Z</time>
      </trkpt>
      <trkpt lat="38.9693680" lon="1.4104470">
        <ele>132.8</ele>
        <time>2020-02-23T17:10:37Z</time>
      </trkpt>
      <trkpt lat="38.9693710" lon="1.4104470">
        <ele>132.8</ele>
        <time>2020-02-23T17:10:38Z</time>
      </trkpt>
      <trkpt lat="38.9693620" lon="1.4104550">
        <ele>132.8</ele>
        <time>2020-02-23T17:10:39Z</time>
      </trkpt>
      <trkpt lat="38.9693650" lon="1.4104560">
        <ele>132.8</ele>
        <time>2020-02-23T17:10:40Z</time>
      </trkpt>
      <trkpt lat="38.9693640" lon="1.4104650">
        <ele>132.8</ele>
        <time>2020-02-23T17:10:41Z</time>
      </trkpt>
      <trkpt lat="38.9693660" lon="1.4104730">
        <ele>132.8</ele>
        <time>2020-02-23T17:10:42Z</time>
      </trkpt>
    </trkseg>
  </trk>
</gpx>
